<?xml version="1.0" encoding="UTF-8"?>
<gpx xmlns:xsi="http://www.w3.org/2001/XMLSchema-instance" xmlns="http://www.topografix.com/GPX/1/0" version="1.0" xsi:schemaLocation="http://www.topografix.com/GPX/1/0 http://www.topografix.com/GPX/1/0/gpx.xsd" creator="gpx.py -- https://github.com/tkrajina/gpxpy">
<name>广州到大理</name>
<desc>行者骑行软件</desc>
<author>行者骑行软件</author>
<url>http://www.imxingzhe.com</url>
<urlname>行者骑行软件</urlname>
<time>2015-09-27T02:12:36Z</time>
<keywords>行者骑行软件</keywords>
<distance>1808.682</distance>
<trk>
<name>行者骑行软件</name>
<desc/>
<trkseg>
<trkpt lat="23.22185" lon="113.263031">
<time>2015-09-27T10:12:45Z</time></trkpt>
<trkpt lat="23.22192" lon="113.262802">
<time>2015-09-27T10:12:46Z</time></trkpt>
<trkpt lat="23.221961" lon="113.262702">
<time>2015-09-27T10:12:47Z</time></trkpt>
<trkpt lat="23.221991" lon="113.262632">
<time>2015-09-27T10:12:48Z</time></trkpt>
<trkpt lat="23.222021" lon="113.262562">
<time>2015-09-27T10:12:49Z</time></trkpt>
<trkpt lat="23.222081" lon="113.262482">
<time>2015-09-27T10:12:50Z</time></trkpt>
<trkpt lat="23.222121" lon="113.262392">
<time>2015-09-27T10:12:51Z</time></trkpt>
<trkpt lat="23.222121" lon="113.262392">
<time>2015-09-27T10:12:52Z</time></trkpt>
<trkpt lat="23.222061" lon="113.262262">
<time>2015-09-27T10:12:53Z</time></trkpt>
<trkpt lat="23.222041" lon="113.262212">
<time>2015-09-27T10:12:54Z</time></trkpt>
<trkpt lat="23.222001" lon="113.262162">
<time>2015-09-27T10:12:55Z</time></trkpt>
<trkpt lat="23.221861" lon="113.261992">
<time>2015-09-27T10:12:56Z</time></trkpt>
<trkpt lat="23.221891" lon="113.261792">
<time>2015-09-27T10:12:57Z</time></trkpt>
<trkpt lat="23.221901" lon="113.261762">
<time>2015-09-27T10:12:58Z</time></trkpt>
<trkpt lat="23.221921" lon="113.261682">
<time>2015-09-27T10:12:59Z</time></trkpt>
<trkpt lat="23.221931" lon="113.261623">
<time>2015-09-27T10:13:00Z</time></trkpt>
<trkpt lat="23.221961" lon="113.261573">
<time>2015-09-27T10:13:01Z</time></trkpt>
<trkpt lat="23.221991" lon="113.261503">
<time>2015-09-27T10:13:02Z</time></trkpt>
<trkpt lat="23.222031" lon="113.261363">
<time>2015-09-27T10:13:03Z</time></trkpt>
<trkpt lat="23.222051" lon="113.261303">
<time>2015-09-27T10:13:04Z</time></trkpt>
<trkpt lat="23.222081" lon="113.261243">
<time>2015-09-27T10:13:05Z</time></trkpt>
<trkpt lat="23.222091" lon="113.261203">
<time>2015-09-27T10:13:06Z</time></trkpt>
<trkpt lat="23.222091" lon="113.261153">
<time>2015-09-27T10:13:07Z</time></trkpt>
<trkpt lat="23.222082" lon="113.261103">
<time>2015-09-27T10:13:08Z</time></trkpt>
<trkpt lat="23.222062" lon="113.261043">
<time>2015-09-27T10:13:09Z</time></trkpt>
<trkpt lat="23.222042" lon="113.260993">
<time>2015-09-27T10:13:10Z</time></trkpt>
<trkpt lat="23.222042" lon="113.260993">
<time>2015-09-27T10:13:11Z</time></trkpt>
<trkpt lat="23.222852" lon="113.260473">
<time>2015-09-27T10:13:12Z</time></trkpt>
<trkpt lat="23.222902" lon="113.260433">
<time>2015-09-27T10:13:13Z</time></trkpt>
<trkpt lat="23.222922" lon="113.260423">
<time>2015-09-27T10:13:14Z</time></trkpt>
<trkpt lat="23.222972" lon="113.260383">
<time>2015-09-27T10:13:15Z</time></trkpt>
<trkpt lat="23.222992" lon="113.260373">
<time>2015-09-27T10:13:16Z</time></trkpt>
<trkpt lat="23.223112" lon="113.260273">
<time>2015-09-27T10:13:17Z</time></trkpt>
<trkpt lat="23.223192" lon="113.260233">
<time>2015-09-27T10:13:18Z</time></trkpt>
<trkpt lat="23.223412" lon="113.260104">
<time>2015-09-27T10:13:19Z</time></trkpt>
<trkpt lat="23.223522" lon="113.260024">
<time>2015-09-27T10:13:20Z</time></trkpt>
<trkpt lat="23.223722" lon="113.259914">
<time>2015-09-27T10:13:21Z</time></trkpt>
<trkpt lat="23.223722" lon="113.259914">
<time>2015-09-27T10:13:22Z</time></trkpt>
<trkpt lat="23.223732" lon="113.258894">
<time>2015-09-27T10:13:23Z</time></trkpt>
<trkpt lat="23.223732" lon="113.258794">
<time>2015-09-27T10:13:24Z</time></trkpt>
<trkpt lat="23.223742" lon="113.258704">
<time>2015-09-27T10:13:25Z</time></trkpt>
<trkpt lat="23.223752" lon="113.258625">
<time>2015-09-27T10:13:26Z</time></trkpt>
<trkpt lat="23.223762" lon="113.258535">
<time>2015-09-27T10:13:27Z</time></trkpt>
<trkpt lat="23.223782" lon="113.258415">
<time>2015-09-27T10:13:28Z</time></trkpt>
<trkpt lat="23.223793" lon="113.258335">
<time>2015-09-27T10:13:29Z</time></trkpt>
<trkpt lat="23.223803" lon="113.258255">
<time>2015-09-27T10:13:30Z</time></trkpt>
<trkpt lat="23.223803" lon="113.258175">
<time>2015-09-27T10:13:31Z</time></trkpt>
<trkpt lat="23.223803" lon="113.258105">
<time>2015-09-27T10:13:32Z</time></trkpt>
<trkpt lat="23.223793" lon="113.258015">
<time>2015-09-27T10:13:33Z</time></trkpt>
<trkpt lat="23.223783" lon="113.257915">
<time>2015-09-27T10:13:34Z</time></trkpt>
<trkpt lat="23.223753" lon="113.257765">
<time>2015-09-27T10:13:35Z</time></trkpt>
<trkpt lat="23.223703" lon="113.257465">
<time>2015-09-27T10:13:36Z</time></trkpt>
<trkpt lat="23.223703" lon="113.257465">
<time>2015-09-27T10:13:37Z</time></trkpt>
<trkpt lat="23.225742" lon="113.257095">
<time>2015-09-27T10:13:38Z</time></trkpt>
<trkpt lat="23.226872" lon="113.256895">
<time>2015-09-27T10:13:39Z</time></trkpt>
<trkpt lat="23.227572" lon="113.256765">
<time>2015-09-27T10:13:40Z</time></trkpt>
<trkpt lat="23.227822" lon="113.256715">
<time>2015-09-27T10:13:41Z</time></trkpt>
<trkpt lat="23.227952" lon="113.256685">
<time>2015-09-27T10:13:42Z</time></trkpt>
<trkpt lat="23.228102" lon="113.256655">
<time>2015-09-27T10:13:43Z</time></trkpt>
<trkpt lat="23.228742" lon="113.256515">
<time>2015-09-27T10:13:44Z</time></trkpt>
<trkpt lat="23.229172" lon="113.256425">
<time>2015-09-27T10:13:45Z</time></trkpt>
<trkpt lat="23.229731" lon="113.256296">
<time>2015-09-27T10:13:46Z</time></trkpt>
<trkpt lat="23.231101" lon="113.256036">
<time>2015-09-27T10:13:47Z</time></trkpt>
<trkpt lat="23.231341" lon="113.255986">
<time>2015-09-27T10:13:48Z</time></trkpt>
<trkpt lat="23.231811" lon="113.255896">
<time>2015-09-27T10:13:49Z</time></trkpt>
<trkpt lat="23.232191" lon="113.255826">
<time>2015-09-27T10:13:50Z</time></trkpt>
<trkpt lat="23.232191" lon="113.255826">
<time>2015-09-27T10:13:51Z</time></trkpt>
<trkpt lat="23.232321" lon="113.255706">
<time>2015-09-27T10:13:52Z</time></trkpt>
<trkpt lat="23.232801" lon="113.255256">
<time>2015-09-27T10:13:53Z</time></trkpt>
<trkpt lat="23.233091" lon="113.254936">
<time>2015-09-27T10:13:54Z</time></trkpt>
<trkpt lat="23.233301" lon="113.254676">
<time>2015-09-27T10:13:55Z</time></trkpt>
<trkpt lat="23.233411" lon="113.254546">
<time>2015-09-27T10:13:56Z</time></trkpt>
<trkpt lat="23.233501" lon="113.254436">
<time>2015-09-27T10:13:57Z</time></trkpt>
<trkpt lat="23.233831" lon="113.254046">
<time>2015-09-27T10:13:58Z</time></trkpt>
<trkpt lat="23.233931" lon="113.253926">
<time>2015-09-27T10:13:59Z</time></trkpt>
<trkpt lat="23.234441" lon="113.253337">
<time>2015-09-27T10:14:00Z</time></trkpt>
<trkpt lat="23.234811" lon="113.252897">
<time>2015-09-27T10:14:01Z</time></trkpt>
<trkpt lat="23.234951" lon="113.252717">
<time>2015-09-27T10:14:02Z</time></trkpt>
<trkpt lat="23.235411" lon="113.252117">
<time>2015-09-27T10:14:03Z</time></trkpt>
<trkpt lat="23.235571" lon="113.251907">
<time>2015-09-27T10:14:04Z</time></trkpt>
<trkpt lat="23.235601" lon="113.251847">
<time>2015-09-27T10:14:05Z</time></trkpt>
<trkpt lat="23.235871" lon="113.251447">
<time>2015-09-27T10:14:06Z</time></trkpt>
<trkpt lat="23.236021" lon="113.251217">
<time>2015-09-27T10:14:07Z</time></trkpt>
<trkpt lat="23.236531" lon="113.250478">
<time>2015-09-27T10:14:08Z</time></trkpt>
<trkpt lat="23.236891" lon="113.249998">
<time>2015-09-27T10:14:09Z</time></trkpt>
<trkpt lat="23.237031" lon="113.249878">
<time>2015-09-27T10:14:10Z</time></trkpt>
<trkpt lat="23.237231" lon="113.249708">
<time>2015-09-27T10:14:11Z</time></trkpt>
<trkpt lat="23.237361" lon="113.249608">
<time>2015-09-27T10:14:12Z</time></trkpt>
<trkpt lat="23.237491" lon="113.249518">
<time>2015-09-27T10:14:13Z</time></trkpt>
<trkpt lat="23.237611" lon="113.249438">
<time>2015-09-27T10:14:14Z</time></trkpt>
<trkpt lat="23.237751" lon="113.249368">
<time>2015-09-27T10:14:15Z</time></trkpt>
<trkpt lat="23.237891" lon="113.249298">
<time>2015-09-27T10:14:16Z</time></trkpt>
<trkpt lat="23.238041" lon="113.249218">
<time>2015-09-27T10:14:17Z</time></trkpt>
<trkpt lat="23.238361" lon="113.249078">
<time>2015-09-27T10:14:18Z</time></trkpt>
<trkpt lat="23.238431" lon="113.249038">
<time>2015-09-27T10:14:19Z</time></trkpt>
<trkpt lat="23.238491" lon="113.249008">
<time>2015-09-27T10:14:20Z</time></trkpt>
<trkpt lat="23.238621" lon="113.248958">
<time>2015-09-27T10:14:21Z</time></trkpt>
<trkpt lat="23.239281" lon="113.248648">
<time>2015-09-27T10:14:22Z</time></trkpt>
<trkpt lat="23.239501" lon="113.248548">
<time>2015-09-27T10:14:23Z</time></trkpt>
<trkpt lat="23.23963" lon="113.248498">
<time>2015-09-27T10:14:24Z</time></trkpt>
<trkpt lat="23.23974" lon="113.248468">
<time>2015-09-27T10:14:25Z</time></trkpt>
<trkpt lat="23.23987" lon="113.248438">
<time>2015-09-27T10:14:26Z</time></trkpt>
<trkpt lat="23.23999" lon="113.248418">
<time>2015-09-27T10:14:27Z</time></trkpt>
<trkpt lat="23.24012" lon="113.248398">
<time>2015-09-27T10:14:28Z</time></trkpt>
<trkpt lat="23.24027" lon="113.248388">
<time>2015-09-27T10:14:29Z</time></trkpt>
<trkpt lat="23.24042" lon="113.248378">
<time>2015-09-27T10:14:30Z</time></trkpt>
<trkpt lat="23.2406" lon="113.248378">
<time>2015-09-27T10:14:31Z</time></trkpt>
<trkpt lat="23.2406" lon="113.248378">
<time>2015-09-27T10:14:32Z</time></trkpt>
<trkpt lat="23.24065" lon="113.247528">
<time>2015-09-27T10:14:33Z</time></trkpt>
<trkpt lat="23.2407" lon="113.246698">
<time>2015-09-27T10:14:34Z</time></trkpt>
<trkpt lat="23.24072" lon="113.246328">
<time>2015-09-27T10:14:35Z</time></trkpt>
<trkpt lat="23.24073" lon="113.246208">
<time>2015-09-27T10:14:36Z</time></trkpt>
<trkpt lat="23.24075" lon="113.246088">
<time>2015-09-27T10:14:37Z</time></trkpt>
<trkpt lat="23.24076" lon="113.245978">
<time>2015-09-27T10:14:38Z</time></trkpt>
<trkpt lat="23.24079" lon="113.245859">
<time>2015-09-27T10:14:39Z</time></trkpt>
<trkpt lat="23.24082" lon="113.245729">
<time>2015-09-27T10:14:40Z</time></trkpt>
<trkpt lat="23.24087" lon="113.245589">
<time>2015-09-27T10:14:41Z</time></trkpt>
<trkpt lat="23.24094" lon="113.245359">
<time>2015-09-27T10:14:42Z</time></trkpt>
<trkpt lat="23.24104" lon="113.245079">
<time>2015-09-27T10:14:43Z</time></trkpt>
<trkpt lat="23.24113" lon="113.244839">
<time>2015-09-27T10:14:44Z</time></trkpt>
<trkpt lat="23.24115" lon="113.244789">
<time>2015-09-27T10:14:45Z</time></trkpt>
<trkpt lat="23.24121" lon="113.244619">
<time>2015-09-27T10:14:46Z</time></trkpt>
<trkpt lat="23.24126" lon="113.244479">
<time>2015-09-27T10:14:47Z</time></trkpt>
<trkpt lat="23.24129" lon="113.244409">
<time>2015-09-27T10:14:48Z</time></trkpt>
<trkpt lat="23.24131" lon="113.244339">
<time>2015-09-27T10:14:49Z</time></trkpt>
<trkpt lat="23.24133" lon="113.244269">
<time>2015-09-27T10:14:50Z</time></trkpt>
<trkpt lat="23.24134" lon="113.244219">
<time>2015-09-27T10:14:51Z</time></trkpt>
<trkpt lat="23.24135" lon="113.244149">
<time>2015-09-27T10:14:52Z</time></trkpt>
<trkpt lat="23.24136" lon="113.244079">
<time>2015-09-27T10:14:53Z</time></trkpt>
<trkpt lat="23.24137" lon="113.243999">
<time>2015-09-27T10:14:54Z</time></trkpt>
<trkpt lat="23.24137" lon="113.243939">
<time>2015-09-27T10:14:55Z</time></trkpt>
<trkpt lat="23.24138" lon="113.243869">
<time>2015-09-27T10:14:56Z</time></trkpt>
<trkpt lat="23.24138" lon="113.243789">
<time>2015-09-27T10:14:57Z</time></trkpt>
<trkpt lat="23.24138" lon="113.243569">
<time>2015-09-27T10:14:58Z</time></trkpt>
<trkpt lat="23.24138" lon="113.243299">
<time>2015-09-27T10:14:59Z</time></trkpt>
<trkpt lat="23.24138" lon="113.243099">
<time>2015-09-27T10:15:00Z</time></trkpt>
<trkpt lat="23.24138" lon="113.242909">
<time>2015-09-27T10:15:01Z</time></trkpt>
<trkpt lat="23.24138" lon="113.242729">
<time>2015-09-27T10:15:02Z</time></trkpt>
<trkpt lat="23.24137" lon="113.242439">
<time>2015-09-27T10:15:03Z</time></trkpt>
<trkpt lat="23.24136" lon="113.242099">
<time>2015-09-27T10:15:04Z</time></trkpt>
<trkpt lat="23.24134" lon="113.241429">
<time>2015-09-27T10:15:05Z</time></trkpt>
<trkpt lat="23.24133" lon="113.240589">
<time>2015-09-27T10:15:06Z</time></trkpt>
<trkpt lat="23.24133" lon="113.240389">
<time>2015-09-27T10:15:07Z</time></trkpt>
<trkpt lat="23.24133" lon="113.240199">
<time>2015-09-27T10:15:08Z</time></trkpt>
<trkpt lat="23.24133" lon="113.240059">
<time>2015-09-27T10:15:09Z</time></trkpt>
<trkpt lat="23.24134" lon="113.239929">
<time>2015-09-27T10:15:10Z</time></trkpt>
<trkpt lat="23.24135" lon="113.239769">
<time>2015-09-27T10:15:11Z</time></trkpt>
<trkpt lat="23.24136" lon="113.239639">
<time>2015-09-27T10:15:12Z</time></trkpt>
<trkpt lat="23.24138" lon="113.239489">
<time>2015-09-27T10:15:13Z</time></trkpt>
<trkpt lat="23.24139" lon="113.239359">
<time>2015-09-27T10:15:14Z</time></trkpt>
<trkpt lat="23.24141" lon="113.239229">
<time>2015-09-27T10:15:15Z</time></trkpt>
<trkpt lat="23.24144" lon="113.239099">
<time>2015-09-27T10:15:16Z</time></trkpt>
<trkpt lat="23.2415" lon="113.238709">
<time>2015-09-27T10:15:17Z</time></trkpt>
<trkpt lat="23.241549" lon="113.238458">
<time>2015-09-27T10:15:18Z</time></trkpt>
<trkpt lat="23.241599" lon="113.238248">
<time>2015-09-27T10:15:19Z</time></trkpt>
<trkpt lat="23.241659" lon="113.237978">
<time>2015-09-27T10:15:20Z</time></trkpt>
<trkpt lat="23.241729" lon="113.237668">
<time>2015-09-27T10:15:21Z</time></trkpt>
<trkpt lat="23.241769" lon="113.237428">
<time>2015-09-27T10:15:22Z</time></trkpt>
<trkpt lat="23.241779" lon="113.237368">
<time>2015-09-27T10:15:23Z</time></trkpt>
<trkpt lat="23.241839" lon="113.237078">
<time>2015-09-27T10:15:24Z</time></trkpt>
<trkpt lat="23.241879" lon="113.236878">
<time>2015-09-27T10:15:25Z</time></trkpt>
<trkpt lat="23.241919" lon="113.236658">
<time>2015-09-27T10:15:26Z</time></trkpt>
<trkpt lat="23.241929" lon="113.236518">
<time>2015-09-27T10:15:27Z</time></trkpt>
<trkpt lat="23.241939" lon="113.236418">
<time>2015-09-27T10:15:28Z</time></trkpt>
<trkpt lat="23.241939" lon="113.236318">
<time>2015-09-27T10:15:29Z</time></trkpt>
<trkpt lat="23.241939" lon="113.236188">
<time>2015-09-27T10:15:30Z</time></trkpt>
<trkpt lat="23.241919" lon="113.236038">
<time>2015-09-27T10:15:31Z</time></trkpt>
<trkpt lat="23.241859" lon="113.235748">
<time>2015-09-27T10:15:32Z</time></trkpt>
<trkpt lat="23.241789" lon="113.235548">
<time>2015-09-27T10:15:33Z</time></trkpt>
<trkpt lat="23.241759" lon="113.235468">
<time>2015-09-27T10:15:34Z</time></trkpt>
<trkpt lat="23.241719" lon="113.235378">
<time>2015-09-27T10:15:35Z</time></trkpt>
<trkpt lat="23.241679" lon="113.235288">
<time>2015-09-27T10:15:36Z</time></trkpt>
<trkpt lat="23.241609" lon="113.235178">
<time>2015-09-27T10:15:37Z</time></trkpt>
<trkpt lat="23.241569" lon="113.235108">
<time>2015-09-27T10:15:38Z</time></trkpt>
<trkpt lat="23.241518" lon="113.235018">
<time>2015-09-27T10:15:39Z</time></trkpt>
<trkpt lat="23.241178" lon="113.234398">
<time>2015-09-27T10:15:40Z</time></trkpt>
<trkpt lat="23.240998" lon="113.234027">
<time>2015-09-27T10:15:41Z</time></trkpt>
<trkpt lat="23.240728" lon="113.233517">
<time>2015-09-27T10:15:42Z</time></trkpt>
<trkpt lat="23.240688" lon="113.233437">
<time>2015-09-27T10:15:43Z</time></trkpt>
<trkpt lat="23.240538" lon="113.233167">
<time>2015-09-27T10:15:44Z</time></trkpt>
<trkpt lat="23.240478" lon="113.233047">
<time>2015-09-27T10:15:45Z</time></trkpt>
<trkpt lat="23.240428" lon="113.232947">
<time>2015-09-27T10:15:46Z</time></trkpt>
<trkpt lat="23.240368" lon="113.232837">
<time>2015-09-27T10:15:47Z</time></trkpt>
<trkpt lat="23.240288" lon="113.232707">
<time>2015-09-27T10:15:48Z</time></trkpt>
<trkpt lat="23.240208" lon="113.232547">
<time>2015-09-27T10:15:49Z</time></trkpt>
<trkpt lat="23.240158" lon="113.232447">
<time>2015-09-27T10:15:50Z</time></trkpt>
<trkpt lat="23.240128" lon="113.232367">
<time>2015-09-27T10:15:51Z</time></trkpt>
<trkpt lat="23.240098" lon="113.232267">
<time>2015-09-27T10:15:52Z</time></trkpt>
<trkpt lat="23.240048" lon="113.232147">
<time>2015-09-27T10:15:53Z</time></trkpt>
<trkpt lat="23.240018" lon="113.232037">
<time>2015-09-27T10:15:54Z</time></trkpt>
<trkpt lat="23.239968" lon="113.231857">
<time>2015-09-27T10:15:55Z</time></trkpt>
<trkpt lat="23.239908" lon="113.231647">
<time>2015-09-27T10:15:56Z</time></trkpt>
<trkpt lat="23.239847" lon="113.231347">
<time>2015-09-27T10:15:57Z</time></trkpt>
<trkpt lat="23.239757" lon="113.230986">
<time>2015-09-27T10:15:58Z</time></trkpt>
<trkpt lat="23.239657" lon="113.230506">
<time>2015-09-27T10:15:59Z</time></trkpt>
<trkpt lat="23.239607" lon="113.230296">
<time>2015-09-27T10:16:00Z</time></trkpt>
<trkpt lat="23.239567" lon="113.230076">
<time>2015-09-27T10:16:01Z</time></trkpt>
<trkpt lat="23.239527" lon="113.229936">
<time>2015-09-27T10:16:02Z</time></trkpt>
<trkpt lat="23.239507" lon="113.229866">
<time>2015-09-27T10:16:03Z</time></trkpt>
<trkpt lat="23.239357" lon="113.229306">
<time>2015-09-27T10:16:04Z</time></trkpt>
<trkpt lat="23.239306" lon="113.229046">
<time>2015-09-27T10:16:05Z</time></trkpt>
<trkpt lat="23.239256" lon="113.228855">
<time>2015-09-27T10:16:06Z</time></trkpt>
<trkpt lat="23.239216" lon="113.228705">
<time>2015-09-27T10:16:07Z</time></trkpt>
<trkpt lat="23.239186" lon="113.228575">
<time>2015-09-27T10:16:08Z</time></trkpt>
<trkpt lat="23.239166" lon="113.228465">
<time>2015-09-27T10:16:09Z</time></trkpt>
<trkpt lat="23.239126" lon="113.228315">
<time>2015-09-27T10:16:10Z</time></trkpt>
<trkpt lat="23.238886" lon="113.227565">
<time>2015-09-27T10:16:11Z</time></trkpt>
<trkpt lat="23.238695" lon="113.226964">
<time>2015-09-27T10:16:12Z</time></trkpt>
<trkpt lat="23.238495" lon="113.226344">
<time>2015-09-27T10:16:13Z</time></trkpt>
<trkpt lat="23.238244" lon="113.225383">
<time>2015-09-27T10:16:14Z</time></trkpt>
<trkpt lat="23.238214" lon="113.225283">
<time>2015-09-27T10:16:15Z</time></trkpt>
<trkpt lat="23.238214" lon="113.225283">
<time>2015-09-27T10:16:16Z</time></trkpt>
<trkpt lat="23.238074" lon="113.225323">
<time>2015-09-27T10:16:17Z</time></trkpt>
<trkpt lat="23.236365" lon="113.225824">
<time>2015-09-27T10:16:18Z</time></trkpt>
<trkpt lat="23.235826" lon="113.225984">
<time>2015-09-27T10:16:19Z</time></trkpt>
<trkpt lat="23.235746" lon="113.226004">
<time>2015-09-27T10:16:20Z</time></trkpt>
<trkpt lat="23.235016" lon="113.226224">
<time>2015-09-27T10:16:21Z</time></trkpt>
<trkpt lat="23.234766" lon="113.226294">
<time>2015-09-27T10:16:22Z</time></trkpt>
<trkpt lat="23.234766" lon="113.226294">
<time>2015-09-27T10:16:23Z</time></trkpt>
<trkpt lat="23.234666" lon="113.225974">
<time>2015-09-27T10:16:24Z</time></trkpt>
<trkpt lat="23.234405" lon="113.224833">
<time>2015-09-27T10:16:25Z</time></trkpt>
<trkpt lat="23.234245" lon="113.224283">
<time>2015-09-27T10:16:26Z</time></trkpt>
<trkpt lat="23.234205" lon="113.224123">
<time>2015-09-27T10:16:27Z</time></trkpt>
<trkpt lat="23.234185" lon="113.223953">
<time>2015-09-27T10:16:28Z</time></trkpt>
<trkpt lat="23.234175" lon="113.223793">
<time>2015-09-27T10:16:29Z</time></trkpt>
<trkpt lat="23.234195" lon="113.223673">
<time>2015-09-27T10:16:30Z</time></trkpt>
<trkpt lat="23.234224" lon="113.223562">
<time>2015-09-27T10:16:31Z</time></trkpt>
<trkpt lat="23.234264" lon="113.223452">
<time>2015-09-27T10:16:32Z</time></trkpt>
<trkpt lat="23.234324" lon="113.223352">
<time>2015-09-27T10:16:33Z</time></trkpt>
<trkpt lat="23.234384" lon="113.223282">
<time>2015-09-27T10:16:34Z</time></trkpt>
<trkpt lat="23.234474" lon="113.223212">
<time>2015-09-27T10:16:35Z</time></trkpt>
<trkpt lat="23.234564" lon="113.223122">
<time>2015-09-27T10:16:36Z</time></trkpt>
<trkpt lat="23.234624" lon="113.223082">
<time>2015-09-27T10:16:37Z</time></trkpt>
<trkpt lat="23.234764" lon="113.222972">
<time>2015-09-27T10:16:38Z</time></trkpt>
<trkpt lat="23.234824" lon="113.222912">
<time>2015-09-27T10:16:39Z</time></trkpt>
<trkpt lat="23.234894" lon="113.222832">
<time>2015-09-27T10:16:40Z</time></trkpt>
<trkpt lat="23.234964" lon="113.222722">
<time>2015-09-27T10:16:41Z</time></trkpt>
<trkpt lat="23.235023" lon="113.222562">
<time>2015-09-27T10:16:42Z</time></trkpt>
<trkpt lat="23.235093" lon="113.222291">
<time>2015-09-27T10:16:43Z</time></trkpt>
<trkpt lat="23.235113" lon="113.222091">
<time>2015-09-27T10:16:44Z</time></trkpt>
<trkpt lat="23.235113" lon="113.221781">
<time>2015-09-27T10:16:45Z</time></trkpt>
<trkpt lat="23.235022" lon="113.22072">
<time>2015-09-27T10:16:46Z</time></trkpt>
<trkpt lat="23.23477" lon="113.218989">
<time>2015-09-27T10:16:47Z</time></trkpt>
<trkpt lat="23.23477" lon="113.218989">
<time>2015-09-27T10:16:48Z</time></trkpt>
<trkpt lat="23.23456" lon="113.218108">
<time>2015-09-27T10:16:49Z</time></trkpt>
<trkpt lat="23.234459" lon="113.217788">
<time>2015-09-27T10:16:50Z</time></trkpt>
<trkpt lat="23.234158" lon="113.216777">
<time>2015-09-27T10:16:51Z</time></trkpt>
<trkpt lat="23.233807" lon="113.215536">
<time>2015-09-27T10:16:52Z</time></trkpt>
<trkpt lat="23.233637" lon="113.214795">
<time>2015-09-27T10:16:53Z</time></trkpt>
<trkpt lat="23.233476" lon="113.214024">
<time>2015-09-27T10:16:54Z</time></trkpt>
<trkpt lat="23.233395" lon="113.213514">
<time>2015-09-27T10:16:55Z</time></trkpt>
<trkpt lat="23.233073" lon="113.211802">
<time>2015-09-27T10:16:56Z</time></trkpt>
<trkpt lat="23.233073" lon="113.211802">
<time>2015-09-27T10:16:57Z</time></trkpt>
<trkpt lat="23.233243" lon="113.211521">
<time>2015-09-27T10:16:58Z</time></trkpt>
<trkpt lat="23.233263" lon="113.211481">
<time>2015-09-27T10:16:59Z</time></trkpt>
<trkpt lat="23.233393" lon="113.211231">
<time>2015-09-27T10:17:00Z</time></trkpt>
<trkpt lat="23.233403" lon="113.211181">
<time>2015-09-27T10:17:01Z</time></trkpt>
<trkpt lat="23.233413" lon="113.211121">
<time>2015-09-27T10:17:02Z</time></trkpt>
<trkpt lat="23.233422" lon="113.211061">
<time>2015-09-27T10:17:03Z</time></trkpt>
<trkpt lat="23.233412" lon="113.210991">
<time>2015-09-27T10:17:04Z</time></trkpt>
<trkpt lat="23.233332" lon="113.21066">
<time>2015-09-27T10:17:05Z</time></trkpt>
<trkpt lat="23.233332" lon="113.21066">
<time>2015-09-27T10:17:06Z</time></trkpt>
<trkpt lat="23.233452" lon="113.21039">
<time>2015-09-27T10:17:07Z</time></trkpt>
<trkpt lat="23.233251" lon="113.209499">
<time>2015-09-27T10:17:08Z</time></trkpt>
<trkpt lat="23.2331" lon="113.208808">
<time>2015-09-27T10:17:09Z</time></trkpt>
<trkpt lat="23.23307" lon="113.208668">
<time>2015-09-27T10:17:10Z</time></trkpt>
<trkpt lat="23.23306" lon="113.208528">
<time>2015-09-27T10:17:11Z</time></trkpt>
<trkpt lat="23.233049" lon="113.208388">
<time>2015-09-27T10:17:12Z</time></trkpt>
<trkpt lat="23.233049" lon="113.208248">
<time>2015-09-27T10:17:13Z</time></trkpt>
<trkpt lat="23.233089" lon="113.207787">
<time>2015-09-27T10:17:14Z</time></trkpt>
<trkpt lat="23.233098" lon="113.207637">
<time>2015-09-27T10:17:15Z</time></trkpt>
<trkpt lat="23.233058" lon="113.207376">
<time>2015-09-27T10:17:16Z</time></trkpt>
<trkpt lat="23.232988" lon="113.207186">
<time>2015-09-27T10:17:17Z</time></trkpt>
<trkpt lat="23.232938" lon="113.207086">
<time>2015-09-27T10:17:18Z</time></trkpt>
<trkpt lat="23.232828" lon="113.206956">
<time>2015-09-27T10:17:19Z</time></trkpt>
<trkpt lat="23.232787" lon="113.206295">
<time>2015-09-27T10:17:20Z</time></trkpt>
<trkpt lat="23.232776" lon="113.205985">
<time>2015-09-27T10:17:21Z</time></trkpt>
<trkpt lat="23.232766" lon="113.205604">
<time>2015-09-27T10:17:22Z</time></trkpt>
<trkpt lat="23.232766" lon="113.205604">
<time>2015-09-27T10:17:23Z</time></trkpt>
<trkpt lat="23.232746" lon="113.205534">
<time>2015-09-27T10:17:24Z</time></trkpt>
<trkpt lat="23.232765" lon="113.205224">
<time>2015-09-27T10:17:25Z</time></trkpt>
<trkpt lat="23.232775" lon="113.205064">
<time>2015-09-27T10:17:26Z</time></trkpt>
<trkpt lat="23.232805" lon="113.204793">
<time>2015-09-27T10:17:27Z</time></trkpt>
<trkpt lat="23.232815" lon="113.204733">
<time>2015-09-27T10:17:28Z</time></trkpt>
<trkpt lat="23.232834" lon="113.204523">
<time>2015-09-27T10:17:29Z</time></trkpt>
<trkpt lat="23.232904" lon="113.203922">
<time>2015-09-27T10:17:30Z</time></trkpt>
<trkpt lat="23.232943" lon="113.203862">
<time>2015-09-27T10:17:31Z</time></trkpt>
<trkpt lat="23.232963" lon="113.203742">
<time>2015-09-27T10:17:32Z</time></trkpt>
<trkpt lat="23.233062" lon="113.203091">
<time>2015-09-27T10:17:33Z</time></trkpt>
<trkpt lat="23.233191" lon="113.20217">
<time>2015-09-27T10:17:34Z</time></trkpt>
<trkpt lat="23.233429" lon="113.200567">
<time>2015-09-27T10:17:35Z</time></trkpt>
<trkpt lat="23.233617" lon="113.199335">
<time>2015-09-27T10:17:36Z</time></trkpt>
<trkpt lat="23.233696" lon="113.198785">
<time>2015-09-27T10:17:37Z</time></trkpt>
<trkpt lat="23.233746" lon="113.198584">
<time>2015-09-27T10:17:38Z</time></trkpt>
<trkpt lat="23.233785" lon="113.198444">
<time>2015-09-27T10:17:39Z</time></trkpt>
<trkpt lat="23.233855" lon="113.198264">
<time>2015-09-27T10:17:40Z</time></trkpt>
<trkpt lat="23.233885" lon="113.198164">
<time>2015-09-27T10:17:41Z</time></trkpt>
<trkpt lat="23.233935" lon="113.198044">
<time>2015-09-27T10:17:42Z</time></trkpt>
<trkpt lat="23.234034" lon="113.197823">
<time>2015-09-27T10:17:43Z</time></trkpt>
<trkpt lat="23.234244" lon="113.197543">
<time>2015-09-27T10:17:44Z</time></trkpt>
<trkpt lat="23.234324" lon="113.197423">
<time>2015-09-27T10:17:45Z</time></trkpt>
<trkpt lat="23.234363" lon="113.197362">
<time>2015-09-27T10:17:46Z</time></trkpt>
<trkpt lat="23.234363" lon="113.197362">
<time>2015-09-27T10:17:47Z</time></trkpt>
<trkpt lat="23.234483" lon="113.197192">
<time>2015-09-27T10:17:48Z</time></trkpt>
<trkpt lat="23.234683" lon="113.196872">
<time>2015-09-27T10:17:49Z</time></trkpt>
<trkpt lat="23.234762" lon="113.196762">
<time>2015-09-27T10:17:50Z</time></trkpt>
<trkpt lat="23.237146" lon="113.193096">
<time>2015-09-27T10:17:51Z</time></trkpt>
<trkpt lat="23.237206" lon="113.193005">
<time>2015-09-27T10:17:52Z</time></trkpt>
<trkpt lat="23.237335" lon="113.192805">
<time>2015-09-27T10:17:53Z</time></trkpt>
<trkpt lat="23.237604" lon="113.192374">
<time>2015-09-27T10:17:54Z</time></trkpt>
<trkpt lat="23.237724" lon="113.192174">
<time>2015-09-27T10:17:55Z</time></trkpt>
<trkpt lat="23.237804" lon="113.192024">
<time>2015-09-27T10:17:56Z</time></trkpt>
<trkpt lat="23.237973" lon="113.191663">
<time>2015-09-27T10:17:57Z</time></trkpt>
<trkpt lat="23.238172" lon="113.191142">
<time>2015-09-27T10:17:58Z</time></trkpt>
<trkpt lat="23.238222" lon="113.191002">
<time>2015-09-27T10:17:59Z</time></trkpt>
<trkpt lat="23.238341" lon="113.190642">
<time>2015-09-27T10:18:00Z</time></trkpt>
<trkpt lat="23.238381" lon="113.190471">
<time>2015-09-27T10:18:01Z</time></trkpt>
<trkpt lat="23.238441" lon="113.190231">
<time>2015-09-27T10:18:02Z</time></trkpt>
<trkpt lat="23.2385" lon="113.18989">
<time>2015-09-27T10:18:03Z</time></trkpt>
<trkpt lat="23.23853" lon="113.18967">
<time>2015-09-27T10:18:04Z</time></trkpt>
<trkpt lat="23.23854" lon="113.1896">
<time>2015-09-27T10:18:05Z</time></trkpt>
<trkpt lat="23.238569" lon="113.189219">
<time>2015-09-27T10:18:06Z</time></trkpt>
<trkpt lat="23.238579" lon="113.189099">
<time>2015-09-27T10:18:07Z</time></trkpt>
<trkpt lat="23.238598" lon="113.188498">
<time>2015-09-27T10:18:08Z</time></trkpt>
<trkpt lat="23.238567" lon="113.188167">
<time>2015-09-27T10:18:09Z</time></trkpt>
<trkpt lat="23.238567" lon="113.188147">
<time>2015-09-27T10:18:10Z</time></trkpt>
<trkpt lat="23.238557" lon="113.187987">
<time>2015-09-27T10:18:11Z</time></trkpt>
<trkpt lat="23.238446" lon="113.187316">
<time>2015-09-27T10:18:12Z</time></trkpt>
<trkpt lat="23.238204" lon="113.186254">
<time>2015-09-27T10:18:13Z</time></trkpt>
<trkpt lat="23.237912" lon="113.185102">
<time>2015-09-27T10:18:14Z</time></trkpt>
<trkpt lat="23.237741" lon="113.184431">
<time>2015-09-27T10:18:15Z</time></trkpt>
<trkpt lat="23.23767" lon="113.184151">
<time>2015-09-27T10:18:16Z</time></trkpt>
<trkpt lat="23.23758" lon="113.18378">
<time>2015-09-27T10:18:17Z</time></trkpt>
<trkpt lat="23.237439" lon="113.183209">
<time>2015-09-27T10:18:18Z</time></trkpt>
<trkpt lat="23.237026" lon="113.181606">
<time>2015-09-27T10:18:19Z</time></trkpt>
<trkpt lat="23.236956" lon="113.181466">
<time>2015-09-27T10:18:20Z</time></trkpt>
<trkpt lat="23.236765" lon="113.180795">
<time>2015-09-27T10:18:21Z</time></trkpt>
<trkpt lat="23.236533" lon="113.179893">
<time>2015-09-27T10:18:22Z</time></trkpt>
<trkpt lat="23.236533" lon="113.179883">
<time>2015-09-27T10:18:23Z</time></trkpt>
<trkpt lat="23.236503" lon="113.179783">
<time>2015-09-27T10:18:24Z</time></trkpt>
<trkpt lat="23.236161" lon="113.17848">
<time>2015-09-27T10:18:25Z</time></trkpt>
<trkpt lat="23.235798" lon="113.177088">
<time>2015-09-27T10:18:26Z</time></trkpt>
<trkpt lat="23.235365" lon="113.175475">
<time>2015-09-27T10:18:27Z</time></trkpt>
<trkpt lat="23.235345" lon="113.175365">
<time>2015-09-27T10:18:28Z</time></trkpt>
<trkpt lat="23.235345" lon="113.175365">
<time>2015-09-27T10:18:29Z</time></trkpt>
<trkpt lat="23.235375" lon="113.175355">
<time>2015-09-27T10:18:30Z</time></trkpt>
<trkpt lat="23.235475" lon="113.175325">
<time>2015-09-27T10:18:31Z</time></trkpt>
<trkpt lat="23.235565" lon="113.175295">
<time>2015-09-27T10:18:32Z</time></trkpt>
<trkpt lat="23.235775" lon="113.175215">
<time>2015-09-27T10:18:33Z</time></trkpt>
<trkpt lat="23.235985" lon="113.175144">
<time>2015-09-27T10:18:34Z</time></trkpt>
<trkpt lat="23.236134" lon="113.175084">
<time>2015-09-27T10:18:35Z</time></trkpt>
<trkpt lat="23.236304" lon="113.175004">
<time>2015-09-27T10:18:36Z</time></trkpt>
<trkpt lat="23.236474" lon="113.174924">
<time>2015-09-27T10:18:37Z</time></trkpt>
<trkpt lat="23.236674" lon="113.174814">
<time>2015-09-27T10:18:38Z</time></trkpt>
<trkpt lat="23.236913" lon="113.174683">
<time>2015-09-27T10:18:39Z</time></trkpt>
<trkpt lat="23.237113" lon="113.174573">
<time>2015-09-27T10:18:40Z</time></trkpt>
<trkpt lat="23.237203" lon="113.174523">
<time>2015-09-27T10:18:41Z</time></trkpt>
<trkpt lat="23.237293" lon="113.174463">
<time>2015-09-27T10:18:42Z</time></trkpt>
<trkpt lat="23.237373" lon="113.174403">
<time>2015-09-27T10:18:43Z</time></trkpt>
<trkpt lat="23.237443" lon="113.174343">
<time>2015-09-27T10:18:44Z</time></trkpt>
<trkpt lat="23.237512" lon="113.174283">
<time>2015-09-27T10:18:45Z</time></trkpt>
<trkpt lat="23.237582" lon="113.174223">
<time>2015-09-27T10:18:46Z</time></trkpt>
<trkpt lat="23.237652" lon="113.174152">
<time>2015-09-27T10:18:47Z</time></trkpt>
<trkpt lat="23.237692" lon="113.174102">
<time>2015-09-27T10:18:48Z</time></trkpt>
<trkpt lat="23.237742" lon="113.174042">
<time>2015-09-27T10:18:49Z</time></trkpt>
<trkpt lat="23.237792" lon="113.173982">
<time>2015-09-27T10:18:50Z</time></trkpt>
<trkpt lat="23.237842" lon="113.173912">
<time>2015-09-27T10:18:51Z</time></trkpt>
<trkpt lat="23.237882" lon="113.173842">
<time>2015-09-27T10:18:52Z</time></trkpt>
<trkpt lat="23.237931" lon="113.173762">
<time>2015-09-27T10:18:53Z</time></trkpt>
<trkpt lat="23.238051" lon="113.173571">
<time>2015-09-27T10:18:54Z</time></trkpt>
<trkpt lat="23.238071" lon="113.173531">
<time>2015-09-27T10:18:55Z</time></trkpt>
<trkpt lat="23.238091" lon="113.173481">
<time>2015-09-27T10:18:56Z</time></trkpt>
<trkpt lat="23.23815" lon="113.173311">
<time>2015-09-27T10:18:57Z</time></trkpt>
<trkpt lat="23.23818" lon="113.173241">
<time>2015-09-27T10:18:58Z</time></trkpt>
<trkpt lat="23.2382" lon="113.173201">
<time>2015-09-27T10:18:59Z</time></trkpt>
<trkpt lat="23.23822" lon="113.173171">
<time>2015-09-27T10:19:00Z</time></trkpt>
<trkpt lat="23.23825" lon="113.173141">
<time>2015-09-27T10:19:01Z</time></trkpt>
<trkpt lat="23.23827" lon="113.17312">
<time>2015-09-27T10:19:02Z</time></trkpt>
<trkpt lat="23.2383" lon="113.1731">
<time>2015-09-27T10:19:03Z</time></trkpt>
<trkpt lat="23.23837" lon="113.17305">
<time>2015-09-27T10:19:04Z</time></trkpt>
<trkpt lat="23.23839" lon="113.17304">
<time>2015-09-27T10:19:05Z</time></trkpt>
<trkpt lat="23.2384" lon="113.17303">
<time>2015-09-27T10:19:06Z</time></trkpt>
<trkpt lat="23.23842" lon="113.17301">
<time>2015-09-27T10:19:07Z</time></trkpt>
<trkpt lat="23.23843" lon="113.17299">
<time>2015-09-27T10:19:08Z</time></trkpt>
<trkpt lat="23.23845" lon="113.17296">
<time>2015-09-27T10:19:09Z</time></trkpt>
<trkpt lat="23.23848" lon="113.17288">
<time>2015-09-27T10:19:10Z</time></trkpt>
<trkpt lat="23.238499" lon="113.17286">
<time>2015-09-27T10:19:11Z</time></trkpt>
<trkpt lat="23.238509" lon="113.17284">
<time>2015-09-27T10:19:12Z</time></trkpt>
<trkpt lat="23.238549" lon="113.1728">
<time>2015-09-27T10:19:13Z</time></trkpt>
<trkpt lat="23.238559" lon="113.17279">
<time>2015-09-27T10:19:14Z</time></trkpt>
<trkpt lat="23.238569" lon="113.17277">
<time>2015-09-27T10:19:15Z</time></trkpt>
<trkpt lat="23.238569" lon="113.17276">
<time>2015-09-27T10:19:16Z</time></trkpt>
<trkpt lat="23.238569" lon="113.17274">
<time>2015-09-27T10:19:17Z</time></trkpt>
<trkpt lat="23.238569" lon="113.17271">
<time>2015-09-27T10:19:18Z</time></trkpt>
<trkpt lat="23.238559" lon="113.17267">
<time>2015-09-27T10:19:19Z</time></trkpt>
<trkpt lat="23.238539" lon="113.172579">
<time>2015-09-27T10:19:20Z</time></trkpt>
<trkpt lat="23.238529" lon="113.172539">
<time>2015-09-27T10:19:21Z</time></trkpt>
<trkpt lat="23.238519" lon="113.172469">
<time>2015-09-27T10:19:22Z</time></trkpt>
<trkpt lat="23.238478" lon="113.172319">
<time>2015-09-27T10:19:23Z</time></trkpt>
<trkpt lat="23.238468" lon="113.172229">
<time>2015-09-27T10:19:24Z</time></trkpt>
<trkpt lat="23.238418" lon="113.171958">
<time>2015-09-27T10:19:25Z</time></trkpt>
<trkpt lat="23.238398" lon="113.171868">
<time>2015-09-27T10:19:26Z</time></trkpt>
<trkpt lat="23.238388" lon="113.171798">
<time>2015-09-27T10:19:27Z</time></trkpt>
<trkpt lat="23.238367" lon="113.171748">
<time>2015-09-27T10:19:28Z</time></trkpt>
<trkpt lat="23.238357" lon="113.171698">
<time>2015-09-27T10:19:29Z</time></trkpt>
<trkpt lat="23.238287" lon="113.171517">
<time>2015-09-27T10:19:30Z</time></trkpt>
<trkpt lat="23.238267" lon="113.171457">
<time>2015-09-27T10:19:31Z</time></trkpt>
<trkpt lat="23.238247" lon="113.171387">
<time>2015-09-27T10:19:32Z</time></trkpt>
<trkpt lat="23.238237" lon="113.171327">
<time>2015-09-27T10:19:33Z</time></trkpt>
<trkpt lat="23.238227" lon="113.171257">
<time>2015-09-27T10:19:34Z</time></trkpt>
<trkpt lat="23.238216" lon="113.171177">
<time>2015-09-27T10:19:35Z</time></trkpt>
<trkpt lat="23.238216" lon="113.171097">
<time>2015-09-27T10:19:36Z</time></trkpt>
<trkpt lat="23.238216" lon="113.170997">
<time>2015-09-27T10:19:37Z</time></trkpt>
<trkpt lat="23.238216" lon="113.170926">
<time>2015-09-27T10:19:38Z</time></trkpt>
<trkpt lat="23.238216" lon="113.170846">
<time>2015-09-27T10:19:39Z</time></trkpt>
<trkpt lat="23.238225" lon="113.170636">
<time>2015-09-27T10:19:40Z</time></trkpt>
<trkpt lat="23.238225" lon="113.170576">
<time>2015-09-27T10:19:41Z</time></trkpt>
<trkpt lat="23.238225" lon="113.170526">
<time>2015-09-27T10:19:42Z</time></trkpt>
<trkpt lat="23.238215" lon="113.170385">
<time>2015-09-27T10:19:43Z</time></trkpt>
<trkpt lat="23.238195" lon="113.170275">
<time>2015-09-27T10:19:44Z</time></trkpt>
<trkpt lat="23.238185" lon="113.170175">
<time>2015-09-27T10:19:45Z</time></trkpt>
<trkpt lat="23.238164" lon="113.170135">
<time>2015-09-27T10:19:46Z</time></trkpt>
<trkpt lat="23.238154" lon="113.170085">
<time>2015-09-27T10:19:47Z</time></trkpt>
<trkpt lat="23.238134" lon="113.170035">
<time>2015-09-27T10:19:48Z</time></trkpt>
<trkpt lat="23.238084" lon="113.169925">
<time>2015-09-27T10:19:49Z</time></trkpt>
<trkpt lat="23.238074" lon="113.169894">
<time>2015-09-27T10:19:50Z</time></trkpt>
<trkpt lat="23.238064" lon="113.169864">
<time>2015-09-27T10:19:51Z</time></trkpt>
<trkpt lat="23.238054" lon="113.169814">
<time>2015-09-27T10:19:52Z</time></trkpt>
<trkpt lat="23.238044" lon="113.169764">
<time>2015-09-27T10:19:53Z</time></trkpt>
<trkpt lat="23.238044" lon="113.169714">
<time>2015-09-27T10:19:54Z</time></trkpt>
<trkpt lat="23.238044" lon="113.169614">
<time>2015-09-27T10:19:55Z</time></trkpt>
<trkpt lat="23.238063" lon="113.169333">
<time>2015-09-27T10:19:56Z</time></trkpt>
<trkpt lat="23.238083" lon="113.169153">
<time>2015-09-27T10:19:57Z</time></trkpt>
<trkpt lat="23.238429" lon="113.16734">
<time>2015-09-27T10:19:58Z</time></trkpt>
<trkpt lat="23.238548" lon="113.166919">
<time>2015-09-27T10:19:59Z</time></trkpt>
<trkpt lat="23.238976" lon="113.165917">
<time>2015-09-27T10:20:00Z</time></trkpt>
<trkpt lat="23.239145" lon="113.165476">
<time>2015-09-27T10:20:01Z</time></trkpt>
<trkpt lat="23.239245" lon="113.165146">
<time>2015-09-27T10:20:02Z</time></trkpt>
<trkpt lat="23.239364" lon="113.164945">
<time>2015-09-27T10:20:03Z</time></trkpt>
<trkpt lat="23.239604" lon="113.164645">
<time>2015-09-27T10:20:04Z</time></trkpt>
<trkpt lat="23.239933" lon="113.164244">
<time>2015-09-27T10:20:05Z</time></trkpt>
<trkpt lat="23.240112" lon="113.164083">
<time>2015-09-27T10:20:06Z</time></trkpt>
<trkpt lat="23.240222" lon="113.164023">
<time>2015-09-27T10:20:07Z</time></trkpt>
<trkpt lat="23.240332" lon="113.163963">
<time>2015-09-27T10:20:08Z</time></trkpt>
<trkpt lat="23.240682" lon="113.163833">
<time>2015-09-27T10:20:09Z</time></trkpt>
<trkpt lat="23.240951" lon="113.163743">
<time>2015-09-27T10:20:10Z</time></trkpt>
<trkpt lat="23.241231" lon="113.163613">
<time>2015-09-27T10:20:11Z</time></trkpt>
<trkpt lat="23.241591" lon="113.163402">
<time>2015-09-27T10:20:12Z</time></trkpt>
<trkpt lat="23.24184" lon="113.163242">
<time>2015-09-27T10:20:13Z</time></trkpt>
<trkpt lat="23.24222" lon="113.162941">
<time>2015-09-27T10:20:14Z</time></trkpt>
<trkpt lat="23.242509" lon="113.162711">
<time>2015-09-27T10:20:15Z</time></trkpt>
<trkpt lat="23.242599" lon="113.162631">
<time>2015-09-27T10:20:16Z</time></trkpt>
<trkpt lat="23.242689" lon="113.16254">
<time>2015-09-27T10:20:17Z</time></trkpt>
<trkpt lat="23.242798" lon="113.16239">
<time>2015-09-27T10:20:18Z</time></trkpt>
<trkpt lat="23.242918" lon="113.16218">
<time>2015-09-27T10:20:19Z</time></trkpt>
<trkpt lat="23.242978" lon="113.162029">
<time>2015-09-27T10:20:20Z</time></trkpt>
<trkpt lat="23.243177" lon="113.161689">
<time>2015-09-27T10:20:21Z</time></trkpt>
<trkpt lat="23.243297" lon="113.161529">
<time>2015-09-27T10:20:22Z</time></trkpt>
<trkpt lat="23.243486" lon="113.161338">
<time>2015-09-27T10:20:23Z</time></trkpt>
<trkpt lat="23.243985" lon="113.160807">
<time>2015-09-27T10:20:24Z</time></trkpt>
<trkpt lat="23.244853" lon="113.159945">
<time>2015-09-27T10:20:25Z</time></trkpt>
<trkpt lat="23.245262" lon="113.159595">
<time>2015-09-27T10:20:26Z</time></trkpt>
<trkpt lat="23.245532" lon="113.159424">
<time>2015-09-27T10:20:27Z</time></trkpt>
<trkpt lat="23.245991" lon="113.159184">
<time>2015-09-27T10:20:28Z</time></trkpt>
<trkpt lat="23.246371" lon="113.159004">
<time>2015-09-27T10:20:29Z</time></trkpt>
<trkpt lat="23.246521" lon="113.158944">
<time>2015-09-27T10:20:30Z</time></trkpt>
<trkpt lat="23.246631" lon="113.158923">
<time>2015-09-27T10:20:31Z</time></trkpt>
<trkpt lat="23.24676" lon="113.158903">
<time>2015-09-27T10:20:32Z</time></trkpt>
<trkpt lat="23.2468" lon="113.158903">
<time>2015-09-27T10:20:33Z</time></trkpt>
<trkpt lat="23.2473" lon="113.158913">
<time>2015-09-27T10:20:34Z</time></trkpt>
<trkpt lat="23.24786" lon="113.158893">
<time>2015-09-27T10:20:35Z</time></trkpt>
<trkpt lat="23.24838" lon="113.158913">
<time>2015-09-27T10:20:36Z</time></trkpt>
<trkpt lat="23.2486" lon="113.158903">
<time>2015-09-27T10:20:37Z</time></trkpt>
<trkpt lat="23.2486" lon="113.158903">
<time>2015-09-27T10:20:38Z</time></trkpt>
<trkpt lat="23.248609" lon="113.158252">
<time>2015-09-27T10:20:39Z</time></trkpt>
<trkpt lat="23.248588" lon="113.157952">
<time>2015-09-27T10:20:40Z</time></trkpt>
<trkpt lat="23.248568" lon="113.157801">
<time>2015-09-27T10:20:41Z</time></trkpt>
<trkpt lat="23.248538" lon="113.157681">
<time>2015-09-27T10:20:42Z</time></trkpt>
<trkpt lat="23.248487" lon="113.157511">
<time>2015-09-27T10:20:43Z</time></trkpt>
<trkpt lat="23.248427" lon="113.15728">
<time>2015-09-27T10:20:44Z</time></trkpt>
<trkpt lat="23.248346" lon="113.15687">
<time>2015-09-27T10:20:45Z</time></trkpt>
<trkpt lat="23.248255" lon="113.156429">
<time>2015-09-27T10:20:46Z</time></trkpt>
<trkpt lat="23.248235" lon="113.156128">
<time>2015-09-27T10:20:47Z</time></trkpt>
<trkpt lat="23.248384" lon="113.155748">
<time>2015-09-27T10:20:48Z</time></trkpt>
<trkpt lat="23.248464" lon="113.155497">
<time>2015-09-27T10:20:49Z</time></trkpt>
<trkpt lat="23.248683" lon="113.154996">
<time>2015-09-27T10:20:50Z</time></trkpt>
<trkpt lat="23.248832" lon="113.154605">
<time>2015-09-27T10:20:51Z</time></trkpt>
<trkpt lat="23.249011" lon="113.154185">
<time>2015-09-27T10:20:52Z</time></trkpt>
<trkpt lat="23.24917" lon="113.153824">
<time>2015-09-27T10:20:53Z</time></trkpt>
<trkpt lat="23.24919" lon="113.153784">
<time>2015-09-27T10:20:54Z</time></trkpt>
<trkpt lat="23.249389" lon="113.153423">
<time>2015-09-27T10:20:55Z</time></trkpt>
<trkpt lat="23.249678" lon="113.152852">
<time>2015-09-27T10:20:56Z</time></trkpt>
<trkpt lat="23.249678" lon="113.152852">
<time>2015-09-27T10:20:57Z</time></trkpt>
<trkpt lat="23.249617" lon="113.151921">
<time>2015-09-27T10:20:58Z</time></trkpt>
<trkpt lat="23.249616" lon="113.15181">
<time>2015-09-27T10:20:59Z</time></trkpt>
<trkpt lat="23.249565" lon="113.150809">
<time>2015-09-27T10:21:00Z</time></trkpt>
<trkpt lat="23.249554" lon="113.150618">
<time>2015-09-27T10:21:01Z</time></trkpt>
<trkpt lat="23.249544" lon="113.150448">
<time>2015-09-27T10:21:02Z</time></trkpt>
<trkpt lat="23.249514" lon="113.150308">
<time>2015-09-27T10:21:03Z</time></trkpt>
<trkpt lat="23.249463" lon="113.150087">
<time>2015-09-27T10:21:04Z</time></trkpt>
<trkpt lat="23.249413" lon="113.149947">
<time>2015-09-27T10:21:05Z</time></trkpt>
<trkpt lat="23.249313" lon="113.149647">
<time>2015-09-27T10:21:06Z</time></trkpt>
<trkpt lat="23.249303" lon="113.149597">
<time>2015-09-27T10:21:07Z</time></trkpt>
<trkpt lat="23.249242" lon="113.149406">
<time>2015-09-27T10:21:08Z</time></trkpt>
<trkpt lat="23.249209" lon="113.147713">
<time>2015-09-27T10:21:09Z</time></trkpt>
<trkpt lat="23.249197" lon="113.146261">
<time>2015-09-27T10:21:10Z</time></trkpt>
<trkpt lat="23.249165" lon="113.145309">
<time>2015-09-27T10:21:11Z</time></trkpt>
<trkpt lat="23.249155" lon="113.145129">
<time>2015-09-27T10:21:12Z</time></trkpt>
<trkpt lat="23.249155" lon="113.144999">
<time>2015-09-27T10:21:13Z</time></trkpt>
<trkpt lat="23.249143" lon="113.143987">
<time>2015-09-27T10:21:14Z</time></trkpt>
<trkpt lat="23.249101" lon="113.142775">
<time>2015-09-27T10:21:15Z</time></trkpt>
<trkpt lat="23.24908" lon="113.142154">
<time>2015-09-27T10:21:16Z</time></trkpt>
<trkpt lat="23.249028" lon="113.141263">
<time>2015-09-27T10:21:17Z</time></trkpt>
<trkpt lat="23.248966" lon="113.13955">
<time>2015-09-27T10:21:18Z</time></trkpt>
<trkpt lat="23.248965" lon="113.13939">
<time>2015-09-27T10:21:19Z</time></trkpt>
<trkpt lat="23.248964" lon="113.138729">
<time>2015-09-27T10:21:20Z</time></trkpt>
<trkpt lat="23.248993" lon="113.137827">
<time>2015-09-27T10:21:21Z</time></trkpt>
<trkpt lat="23.24902" lon="113.136085">
<time>2015-09-27T10:21:22Z</time></trkpt>
<trkpt lat="23.249009" lon="113.135124">
<time>2015-09-27T10:21:23Z</time></trkpt>
<trkpt lat="23.249037" lon="113.134102">
<time>2015-09-27T10:21:24Z</time></trkpt>
<trkpt lat="23.249047" lon="113.133962">
<time>2015-09-27T10:21:25Z</time></trkpt>
<trkpt lat="23.249047" lon="113.133932">
<time>2015-09-27T10:21:26Z</time></trkpt>
<trkpt lat="23.249047" lon="113.133742">
<time>2015-09-27T10:21:27Z</time></trkpt>
<trkpt lat="23.249036" lon="113.133561">
<time>2015-09-27T10:21:28Z</time></trkpt>
<trkpt lat="23.249026" lon="113.133301">
<time>2015-09-27T10:21:29Z</time></trkpt>
<trkpt lat="23.249026" lon="113.133261">
<time>2015-09-27T10:21:30Z</time></trkpt>
<trkpt lat="23.249015" lon="113.1329">
<time>2015-09-27T10:21:31Z</time></trkpt>
<trkpt lat="23.249005" lon="113.13276">
<time>2015-09-27T10:21:32Z</time></trkpt>
<trkpt lat="23.249005" lon="113.1326">
<time>2015-09-27T10:21:33Z</time></trkpt>
<trkpt lat="23.249005" lon="113.13252">
<time>2015-09-27T10:21:34Z</time></trkpt>
<trkpt lat="23.248995" lon="113.13238">
<time>2015-09-27T10:21:35Z</time></trkpt>
<trkpt lat="23.248974" lon="113.132109">
<time>2015-09-27T10:21:36Z</time></trkpt>
<trkpt lat="23.248954" lon="113.131929">
<time>2015-09-27T10:21:37Z</time></trkpt>
<trkpt lat="23.248924" lon="113.131779">
<time>2015-09-27T10:21:38Z</time></trkpt>
<trkpt lat="23.248924" lon="113.131759">
<time>2015-09-27T10:21:39Z</time></trkpt>
<trkpt lat="23.248904" lon="113.131699">
<time>2015-09-27T10:21:40Z</time></trkpt>
<trkpt lat="23.248904" lon="113.131699">
<time>2015-09-27T10:21:41Z</time></trkpt>
<trkpt lat="23.249882" lon="113.131038">
<time>2015-09-27T10:21:42Z</time></trkpt>
<trkpt lat="23.250012" lon="113.130948">
<time>2015-09-27T10:21:43Z</time></trkpt>
<trkpt lat="23.250262" lon="113.130767">
<time>2015-09-27T10:21:44Z</time></trkpt>
<trkpt lat="23.250282" lon="113.130757">
<time>2015-09-27T10:21:45Z</time></trkpt>
<trkpt lat="23.250402" lon="113.130697">
<time>2015-09-27T10:21:46Z</time></trkpt>
<trkpt lat="23.250642" lon="113.130597">
<time>2015-09-27T10:21:47Z</time></trkpt>
<trkpt lat="23.250781" lon="113.130537">
<time>2015-09-27T10:21:48Z</time></trkpt>
<trkpt lat="23.250831" lon="113.130517">
<time>2015-09-27T10:21:49Z</time></trkpt>
<trkpt lat="23.250831" lon="113.130517">
<time>2015-09-27T10:21:50Z</time></trkpt>
<trkpt lat="23.250701" lon="113.130167">
<time>2015-09-27T10:21:51Z</time></trkpt>
<trkpt lat="23.250631" lon="113.130006">
<time>2015-09-27T10:21:52Z</time></trkpt>
<trkpt lat="23.250611" lon="113.129956">
<time>2015-09-27T10:21:53Z</time></trkpt>
<trkpt lat="23.25055" lon="113.129796">
<time>2015-09-27T10:21:54Z</time></trkpt>
<trkpt lat="23.25035" lon="113.129376">
<time>2015-09-27T10:21:55Z</time></trkpt>
<trkpt lat="23.25026" lon="113.129175">
<time>2015-09-27T10:21:56Z</time></trkpt>
<trkpt lat="23.25024" lon="113.129115">
<time>2015-09-27T10:21:57Z</time></trkpt>
<trkpt lat="23.250009" lon="113.128575">
<time>2015-09-27T10:21:58Z</time></trkpt>
<trkpt lat="23.249548" lon="113.127553">
<time>2015-09-27T10:21:59Z</time></trkpt>
<trkpt lat="23.249538" lon="113.127553">
<time>2015-09-27T10:22:00Z</time></trkpt>
<trkpt lat="23.249247" lon="113.126853">
<time>2015-09-27T10:22:01Z</time></trkpt>
<trkpt lat="23.248646" lon="113.125551">
<time>2015-09-27T10:22:02Z</time></trkpt>
<trkpt lat="23.248395" lon="113.125011">
<time>2015-09-27T10:22:03Z</time></trkpt>
<trkpt lat="23.246841" lon="113.121417">
<time>2015-09-27T10:22:04Z</time></trkpt>
<trkpt lat="23.246631" lon="113.120946">
<time>2015-09-27T10:22:05Z</time></trkpt>
<trkpt lat="23.246611" lon="113.120896">
<time>2015-09-27T10:22:06Z</time></trkpt>
<trkpt lat="23.244677" lon="113.116543">
<time>2015-09-27T10:22:07Z</time></trkpt>
<trkpt lat="23.244006" lon="113.115061">
<time>2015-09-27T10:22:08Z</time></trkpt>
<trkpt lat="23.243976" lon="113.115001">
<time>2015-09-27T10:22:09Z</time></trkpt>
<trkpt lat="23.243865" lon="113.114751">
<time>2015-09-27T10:22:10Z</time></trkpt>
<trkpt lat="23.243455" lon="113.113781">
<time>2015-09-27T10:22:11Z</time></trkpt>
<trkpt lat="23.242984" lon="113.1127">
<time>2015-09-27T10:22:12Z</time></trkpt>
<trkpt lat="23.242613" lon="113.111619">
<time>2015-09-27T10:22:13Z</time></trkpt>
<trkpt lat="23.242503" lon="113.111299">
<time>2015-09-27T10:22:14Z</time></trkpt>
<trkpt lat="23.242373" lon="113.110849">
<time>2015-09-27T10:22:15Z</time></trkpt>
<trkpt lat="23.241932" lon="113.109308">
<time>2015-09-27T10:22:16Z</time></trkpt>
<trkpt lat="23.241731" lon="113.108608">
<time>2015-09-27T10:22:17Z</time></trkpt>
<trkpt lat="23.24129" lon="113.107057">
<time>2015-09-27T10:22:18Z</time></trkpt>
<trkpt lat="23.24121" lon="113.106797">
<time>2015-09-27T10:22:19Z</time></trkpt>
<trkpt lat="23.24088" lon="113.105536">
<time>2015-09-27T10:22:20Z</time></trkpt>
<trkpt lat="23.240489" lon="113.104116">
<time>2015-09-27T10:22:21Z</time></trkpt>
<trkpt lat="23.240189" lon="113.102996">
<time>2015-09-27T10:22:22Z</time></trkpt>
<trkpt lat="23.239768" lon="113.101305">
<time>2015-09-27T10:22:23Z</time></trkpt>
<trkpt lat="23.239658" lon="113.100855">
<time>2015-09-27T10:22:24Z</time></trkpt>
<trkpt lat="23.239648" lon="113.100765">
<time>2015-09-27T10:22:25Z</time></trkpt>
<trkpt lat="23.239548" lon="113.100455">
<time>2015-09-27T10:22:26Z</time></trkpt>
<trkpt lat="23.239428" lon="113.100055">
<time>2015-09-27T10:22:27Z</time></trkpt>
<trkpt lat="23.239238" lon="113.099425">
<time>2015-09-27T10:22:28Z</time></trkpt>
<trkpt lat="23.239068" lon="113.099025">
<time>2015-09-27T10:22:29Z</time></trkpt>
<trkpt lat="23.238848" lon="113.098625">
<time>2015-09-27T10:22:30Z</time></trkpt>
<trkpt lat="23.237588" lon="113.096425">
<time>2015-09-27T10:22:31Z</time></trkpt>
<trkpt lat="23.236878" lon="113.095195">
<time>2015-09-27T10:22:32Z</time></trkpt>
<trkpt lat="23.236748" lon="113.094975">
<time>2015-09-27T10:22:33Z</time></trkpt>
<trkpt lat="23.235838" lon="113.093406">
<time>2015-09-27T10:22:34Z</time></trkpt>
<trkpt lat="23.235838" lon="113.093396">
<time>2015-09-27T10:22:35Z</time></trkpt>
<trkpt lat="23.234938" lon="113.091676">
<time>2015-09-27T10:22:36Z</time></trkpt>
<trkpt lat="23.234918" lon="113.091636">
<time>2015-09-27T10:22:37Z</time></trkpt>
<trkpt lat="23.234618" lon="113.091156">
<time>2015-09-27T10:22:38Z</time></trkpt>
<trkpt lat="23.233929" lon="113.089937">
<time>2015-09-27T10:22:39Z</time></trkpt>
<trkpt lat="23.233799" lon="113.089727">
<time>2015-09-27T10:22:40Z</time></trkpt>
<trkpt lat="23.233759" lon="113.089657">
<time>2015-09-27T10:22:41Z</time></trkpt>
<trkpt lat="23.233529" lon="113.089247">
<time>2015-09-27T10:22:42Z</time></trkpt>
<trkpt lat="23.232809" lon="113.088018">
<time>2015-09-27T10:22:43Z</time></trkpt>
<trkpt lat="23.23239" lon="113.087288">
<time>2015-09-27T10:22:44Z</time></trkpt>
<trkpt lat="23.231191" lon="113.085269">
<time>2015-09-27T10:22:45Z</time></trkpt>
<trkpt lat="23.230771" lon="113.08448">
<time>2015-09-27T10:22:46Z</time></trkpt>
<trkpt lat="23.230481" lon="113.08393">
<time>2015-09-27T10:22:47Z</time></trkpt>
<trkpt lat="23.230391" lon="113.08376">
<time>2015-09-27T10:22:48Z</time></trkpt>
<trkpt lat="23.230371" lon="113.08372">
<time>2015-09-27T10:22:49Z</time></trkpt>
<trkpt lat="23.230341" lon="113.08367">
<time>2015-09-27T10:22:50Z</time></trkpt>
<trkpt lat="23.230282" lon="113.08358">
<time>2015-09-27T10:22:51Z</time></trkpt>
<trkpt lat="23.230222" lon="113.08349">
<time>2015-09-27T10:22:52Z</time></trkpt>
<trkpt lat="23.230212" lon="113.08348">
<time>2015-09-27T10:22:53Z</time></trkpt>
<trkpt lat="23.230032" lon="113.083261">
<time>2015-09-27T10:22:54Z</time></trkpt>
<trkpt lat="23.230012" lon="113.083231">
<time>2015-09-27T10:22:55Z</time></trkpt>
<trkpt lat="23.229822" lon="113.083001">
<time>2015-09-27T10:22:56Z</time></trkpt>
<trkpt lat="23.229472" lon="113.082591">
<time>2015-09-27T10:22:57Z</time></trkpt>
<trkpt lat="23.228953" lon="113.081962">
<time>2015-09-27T10:22:58Z</time></trkpt>
<trkpt lat="23.228693" lon="113.081652">
<time>2015-09-27T10:22:59Z</time></trkpt>
<trkpt lat="23.228293" lon="113.081212">
<time>2015-09-27T10:23:00Z</time></trkpt>
<trkpt lat="23.227904" lon="113.080783">
<time>2015-09-27T10:23:01Z</time></trkpt>
<trkpt lat="23.227864" lon="113.080753">
<time>2015-09-27T10:23:02Z</time></trkpt>
<trkpt lat="23.227824" lon="113.080713">
<time>2015-09-27T10:23:03Z</time></trkpt>
<trkpt lat="23.227454" lon="113.080303">
<time>2015-09-27T10:23:04Z</time></trkpt>
<trkpt lat="23.227384" lon="113.080233">
<time>2015-09-27T10:23:05Z</time></trkpt>
<trkpt lat="23.227234" lon="113.080103">
<time>2015-09-27T10:23:06Z</time></trkpt>
<trkpt lat="23.226895" lon="113.079813">
<time>2015-09-27T10:23:07Z</time></trkpt>
<trkpt lat="23.226495" lon="113.079474">
<time>2015-09-27T10:23:08Z</time></trkpt>
<trkpt lat="23.226145" lon="113.079174">
<time>2015-09-27T10:23:09Z</time></trkpt>
<trkpt lat="23.226095" lon="113.079124">
<time>2015-09-27T10:23:10Z</time></trkpt>
<trkpt lat="23.225845" lon="113.078914">
<time>2015-09-27T10:23:11Z</time></trkpt>
<trkpt lat="23.225226" lon="113.078405">
<time>2015-09-27T10:23:12Z</time></trkpt>
<trkpt lat="23.225226" lon="113.078405">
<time>2015-09-27T10:23:13Z</time></trkpt>
<trkpt lat="23.225186" lon="113.078295">
<time>2015-09-27T10:23:14Z</time></trkpt>
<trkpt lat="23.224946" lon="113.078095">
<time>2015-09-27T10:23:15Z</time></trkpt>
<trkpt lat="23.224896" lon="113.078045">
<time>2015-09-27T10:23:16Z</time></trkpt>
<trkpt lat="23.224856" lon="113.077985">
<time>2015-09-27T10:23:17Z</time></trkpt>
<trkpt lat="23.224836" lon="113.077925">
<time>2015-09-27T10:23:18Z</time></trkpt>
<trkpt lat="23.224816" lon="113.077845">
<time>2015-09-27T10:23:19Z</time></trkpt>
<trkpt lat="23.224787" lon="113.077745">
<time>2015-09-27T10:23:20Z</time></trkpt>
<trkpt lat="23.224757" lon="113.077586">
<time>2015-09-27T10:23:21Z</time></trkpt>
<trkpt lat="23.224777" lon="113.077496">
<time>2015-09-27T10:23:22Z</time></trkpt>
<trkpt lat="23.224948" lon="113.075827">
<time>2015-09-27T10:23:23Z</time></trkpt>
<trkpt lat="23.224958" lon="113.075698">
<time>2015-09-27T10:23:24Z</time></trkpt>
<trkpt lat="23.224968" lon="113.075558">
<time>2015-09-27T10:23:25Z</time></trkpt>
<trkpt lat="23.224988" lon="113.075288">
<time>2015-09-27T10:23:26Z</time></trkpt>
<trkpt lat="23.225018" lon="113.074988">
<time>2015-09-27T10:23:27Z</time></trkpt>
<trkpt lat="23.225049" lon="113.074669">
<time>2015-09-27T10:23:28Z</time></trkpt>
<trkpt lat="23.225079" lon="113.074339">
<time>2015-09-27T10:23:29Z</time></trkpt>
<trkpt lat="23.225109" lon="113.073959">
<time>2015-09-27T10:23:30Z</time></trkpt>
<trkpt lat="23.225119" lon="113.07392">
<time>2015-09-27T10:23:31Z</time></trkpt>
<trkpt lat="23.225119" lon="113.0739">
<time>2015-09-27T10:23:32Z</time></trkpt>
<trkpt lat="23.22516" lon="113.07346">
<time>2015-09-27T10:23:33Z</time></trkpt>
<trkpt lat="23.225321" lon="113.071552">
<time>2015-09-27T10:23:34Z</time></trkpt>
<trkpt lat="23.225331" lon="113.071502">
<time>2015-09-27T10:23:35Z</time></trkpt>
<trkpt lat="23.225331" lon="113.071473">
<time>2015-09-27T10:23:36Z</time></trkpt>
<trkpt lat="23.225453" lon="113.070144">
<time>2015-09-27T10:23:37Z</time></trkpt>
<trkpt lat="23.225614" lon="113.068397">
<time>2015-09-27T10:23:38Z</time></trkpt>
<trkpt lat="23.225665" lon="113.067827">
<time>2015-09-27T10:23:39Z</time></trkpt>
<trkpt lat="23.225695" lon="113.067458">
<time>2015-09-27T10:23:40Z</time></trkpt>
<trkpt lat="23.225868" lon="113.065601">
<time>2015-09-27T10:23:41Z</time></trkpt>
<trkpt lat="23.225918" lon="113.065152">
<time>2015-09-27T10:23:42Z</time></trkpt>
<trkpt lat="23.225938" lon="113.064932">
<time>2015-09-27T10:23:43Z</time></trkpt>
<trkpt lat="23.225949" lon="113.064762">
<time>2015-09-27T10:23:44Z</time></trkpt>
<trkpt lat="23.225959" lon="113.064692">
<time>2015-09-27T10:23:45Z</time></trkpt>
<trkpt lat="23.225979" lon="113.064523">
<time>2015-09-27T10:23:46Z</time></trkpt>
<trkpt lat="23.225999" lon="113.064253">
<time>2015-09-27T10:23:47Z</time></trkpt>
<trkpt lat="23.226009" lon="113.064193">
<time>2015-09-27T10:23:48Z</time></trkpt>
<trkpt lat="23.22598" lon="113.063884">
<time>2015-09-27T10:23:49Z</time></trkpt>
<trkpt lat="23.225861" lon="113.063235">
<time>2015-09-27T10:23:50Z</time></trkpt>
<trkpt lat="23.225493" lon="113.061418">
<time>2015-09-27T10:23:51Z</time></trkpt>
<trkpt lat="23.225324" lon="113.060809">
<time>2015-09-27T10:23:52Z</time></trkpt>
<trkpt lat="23.225045" lon="113.06016">
<time>2015-09-27T10:23:53Z</time></trkpt>
<trkpt lat="23.224188" lon="113.058294">
<time>2015-09-27T10:23:54Z</time></trkpt>
<trkpt lat="23.223521" lon="113.056837">
<time>2015-09-27T10:23:55Z</time></trkpt>
<trkpt lat="23.223411" lon="113.056627">
<time>2015-09-27T10:23:56Z</time></trkpt>
<trkpt lat="23.223401" lon="113.056597">
<time>2015-09-27T10:23:57Z</time></trkpt>
<trkpt lat="23.223003" lon="113.055769">
<time>2015-09-27T10:23:58Z</time></trkpt>
<trkpt lat="23.222773" lon="113.05524">
<time>2015-09-27T10:23:59Z</time></trkpt>
<trkpt lat="23.222515" lon="113.054651">
<time>2015-09-27T10:24:00Z</time></trkpt>
<trkpt lat="23.222375" lon="113.054322">
<time>2015-09-27T10:24:01Z</time></trkpt>
<trkpt lat="23.221807" lon="113.053174">
<time>2015-09-27T10:24:02Z</time></trkpt>
<trkpt lat="23.221339" lon="113.052266">
<time>2015-09-27T10:24:03Z</time></trkpt>
<trkpt lat="23.22116" lon="113.051997">
<time>2015-09-27T10:24:04Z</time></trkpt>
<trkpt lat="23.220691" lon="113.051338">
<time>2015-09-27T10:24:05Z</time></trkpt>
<trkpt lat="23.220342" lon="113.050929">
<time>2015-09-27T10:24:06Z</time></trkpt>
<trkpt lat="23.220102" lon="113.05064">
<time>2015-09-27T10:24:07Z</time></trkpt>
<trkpt lat="23.220003" lon="113.05055">
<time>2015-09-27T10:24:08Z</time></trkpt>
<trkpt lat="23.218925" lon="113.049523">
<time>2015-09-27T10:24:09Z</time></trkpt>
<trkpt lat="23.218785" lon="113.049383">
<time>2015-09-27T10:24:10Z</time></trkpt>
<trkpt lat="23.218596" lon="113.049213">
<time>2015-09-27T10:24:11Z</time></trkpt>
<trkpt lat="23.217109" lon="113.047827">
<time>2015-09-27T10:24:12Z</time></trkpt>
<trkpt lat="23.215383" lon="113.046191">
<time>2015-09-27T10:24:13Z</time></trkpt>
<trkpt lat="23.214365" lon="113.045233">
<time>2015-09-27T10:24:14Z</time></trkpt>
<trkpt lat="23.214195" lon="113.045073">
<time>2015-09-27T10:24:15Z</time></trkpt>
<trkpt lat="23.213896" lon="113.044804">
<time>2015-09-27T10:24:16Z</time></trkpt>
<trkpt lat="23.213896" lon="113.044804">
<time>2015-09-27T10:24:17Z</time></trkpt>
<trkpt lat="23.213776" lon="113.044625">
<time>2015-09-27T10:24:18Z</time></trkpt>
<trkpt lat="23.213707" lon="113.044525">
<time>2015-09-27T10:24:19Z</time></trkpt>
<trkpt lat="23.213677" lon="113.044475">
<time>2015-09-27T10:24:20Z</time></trkpt>
<trkpt lat="23.213647" lon="113.044415">
<time>2015-09-27T10:24:21Z</time></trkpt>
<trkpt lat="23.213627" lon="113.044335">
<time>2015-09-27T10:24:22Z</time></trkpt>
<trkpt lat="23.213597" lon="113.044176">
<time>2015-09-27T10:24:23Z</time></trkpt>
<trkpt lat="23.21361" lon="113.043108">
<time>2015-09-27T10:24:24Z</time></trkpt>
<trkpt lat="23.21361" lon="113.043108">
<time>2015-09-27T10:24:25Z</time></trkpt>
<trkpt lat="23.21353" lon="113.043108">
<time>2015-09-27T10:24:26Z</time></trkpt>
<trkpt lat="23.21334" lon="113.043108">
<time>2015-09-27T10:24:27Z</time></trkpt>
<trkpt lat="23.21326" lon="113.043108">
<time>2015-09-27T10:24:28Z</time></trkpt>
<trkpt lat="23.21326" lon="113.043108">
<time>2015-09-27T10:24:29Z</time></trkpt>
<trkpt lat="23.213252" lon="113.042141">
<time>2015-09-27T10:24:30Z</time></trkpt>
<trkpt lat="23.213214" lon="113.041134">
<time>2015-09-27T10:24:31Z</time></trkpt>
<trkpt lat="23.213205" lon="113.040755">
<time>2015-09-27T10:24:32Z</time></trkpt>
<trkpt lat="23.213205" lon="113.040755">
<time>2015-09-27T10:24:33Z</time></trkpt>
<trkpt lat="23.213125" lon="113.040635">
<time>2015-09-27T10:24:34Z</time></trkpt>
<trkpt lat="23.213026" lon="113.040465">
<time>2015-09-27T10:24:35Z</time></trkpt>
<trkpt lat="23.212996" lon="113.040386">
<time>2015-09-27T10:24:36Z</time></trkpt>
<trkpt lat="23.212966" lon="113.040276">
<time>2015-09-27T10:24:37Z</time></trkpt>
<trkpt lat="23.212937" lon="113.039987">
<time>2015-09-27T10:24:38Z</time></trkpt>
<trkpt lat="23.21283" lon="113.0386">
<time>2015-09-27T10:24:39Z</time></trkpt>
<trkpt lat="23.212811" lon="113.038221">
<time>2015-09-27T10:24:40Z</time></trkpt>
<trkpt lat="23.212734" lon="113.036646">
<time>2015-09-27T10:24:41Z</time></trkpt>
<trkpt lat="23.212716" lon="113.036157">
<time>2015-09-27T10:24:42Z</time></trkpt>
<trkpt lat="23.212676" lon="113.035758">
<time>2015-09-27T10:24:43Z</time></trkpt>
<trkpt lat="23.212342" lon="113.033565">
<time>2015-09-27T10:24:44Z</time></trkpt>
<trkpt lat="23.21188" lon="113.030464">
<time>2015-09-27T10:24:45Z</time></trkpt>
<trkpt lat="23.211594" lon="113.028659">
<time>2015-09-27T10:24:46Z</time></trkpt>
<trkpt lat="23.211319" lon="113.026805">
<time>2015-09-27T10:24:47Z</time></trkpt>
<trkpt lat="23.211309" lon="113.026735">
<time>2015-09-27T10:24:48Z</time></trkpt>
<trkpt lat="23.211053" lon="113.02533">
<time>2015-09-27T10:24:49Z</time></trkpt>
<trkpt lat="23.210846" lon="113.024443">
<time>2015-09-27T10:24:50Z</time></trkpt>
<trkpt lat="23.210687" lon="113.023825">
<time>2015-09-27T10:24:51Z</time></trkpt>
<trkpt lat="23.210509" lon="113.023157">
<time>2015-09-27T10:24:52Z</time></trkpt>
<trkpt lat="23.210281" lon="113.022439">
<time>2015-09-27T10:24:53Z</time></trkpt>
<trkpt lat="23.210053" lon="113.021801">
<time>2015-09-27T10:24:54Z</time></trkpt>
<trkpt lat="23.210023" lon="113.021731">
<time>2015-09-27T10:24:55Z</time></trkpt>
<trkpt lat="23.210023" lon="113.021731">
<time>2015-09-27T10:24:56Z</time></trkpt>
<trkpt lat="23.209864" lon="113.021382">
<time>2015-09-27T10:24:57Z</time></trkpt>
<trkpt lat="23.209656" lon="113.020934">
<time>2015-09-27T10:24:58Z</time></trkpt>
<trkpt lat="23.209357" lon="113.020346">
<time>2015-09-27T10:24:59Z</time></trkpt>
<trkpt lat="23.209158" lon="113.019997">
<time>2015-09-27T10:25:00Z</time></trkpt>
<trkpt lat="23.20885" lon="113.019549">
<time>2015-09-27T10:25:01Z</time></trkpt>
<trkpt lat="23.208481" lon="113.01909">
<time>2015-09-27T10:25:02Z</time></trkpt>
<trkpt lat="23.208212" lon="113.018781">
<time>2015-09-27T10:25:03Z</time></trkpt>
<trkpt lat="23.207784" lon="113.018363">
<time>2015-09-27T10:25:04Z</time></trkpt>
<trkpt lat="23.207305" lon="113.017884">
<time>2015-09-27T10:25:05Z</time></trkpt>
<trkpt lat="23.206746" lon="113.017446">
<time>2015-09-27T10:25:06Z</time></trkpt>
<trkpt lat="23.206837" lon="113.017286">
<time>2015-09-27T10:25:07Z</time></trkpt>
<trkpt lat="23.206927" lon="113.017127">
<time>2015-09-27T10:25:08Z</time></trkpt>
<trkpt lat="23.206968" lon="113.017027">
<time>2015-09-27T10:25:09Z</time></trkpt>
<trkpt lat="23.207008" lon="113.016868">
<time>2015-09-27T10:25:10Z</time></trkpt>
<trkpt lat="23.207079" lon="113.016589">
<time>2015-09-27T10:25:11Z</time></trkpt>
<trkpt lat="23.20715" lon="113.016309">
<time>2015-09-27T10:25:12Z</time></trkpt>
<trkpt lat="23.20717" lon="113.01621">
<time>2015-09-27T10:25:13Z</time></trkpt>
<trkpt lat="23.20717" lon="113.01618">
<time>2015-09-27T10:25:14Z</time></trkpt>
<trkpt lat="23.20718" lon="113.01609">
<time>2015-09-27T10:25:15Z</time></trkpt>
<trkpt lat="23.20719" lon="113.01606">
<time>2015-09-27T10:25:16Z</time></trkpt>
<trkpt lat="23.207211" lon="113.015861">
<time>2015-09-27T10:25:17Z</time></trkpt>
<trkpt lat="23.207242" lon="113.015582">
<time>2015-09-27T10:25:18Z</time></trkpt>
<trkpt lat="23.207242" lon="113.015522">
<time>2015-09-27T10:25:19Z</time></trkpt>
<trkpt lat="23.207242" lon="113.015472">
<time>2015-09-27T10:25:20Z</time></trkpt>
<trkpt lat="23.207222" lon="113.015393">
<time>2015-09-27T10:25:21Z</time></trkpt>
<trkpt lat="23.207202" lon="113.015333">
<time>2015-09-27T10:25:22Z</time></trkpt>
<trkpt lat="23.207143" lon="113.015163">
<time>2015-09-27T10:25:23Z</time></trkpt>
<trkpt lat="23.207744" lon="113.014785">
<time>2015-09-27T10:25:24Z</time></trkpt>
<trkpt lat="23.208034" lon="113.014555">
<time>2015-09-27T10:25:25Z</time></trkpt>
<trkpt lat="23.208225" lon="113.014326">
<time>2015-09-27T10:25:26Z</time></trkpt>
<trkpt lat="23.208456" lon="113.014027">
<time>2015-09-27T10:25:27Z</time></trkpt>
<trkpt lat="23.208727" lon="113.013599">
<time>2015-09-27T10:25:28Z</time></trkpt>
<trkpt lat="23.208837" lon="113.013359">
<time>2015-09-27T10:25:29Z</time></trkpt>
<trkpt lat="23.208968" lon="113.01303">
<time>2015-09-27T10:25:30Z</time></trkpt>
<trkpt lat="23.20913" lon="113.012452">
<time>2015-09-27T10:25:31Z</time></trkpt>
<trkpt lat="23.209312" lon="113.011775">
<time>2015-09-27T10:25:32Z</time></trkpt>
<trkpt lat="23.209362" lon="113.011595">
<time>2015-09-27T10:25:33Z</time></trkpt>
<trkpt lat="23.209413" lon="113.011406">
<time>2015-09-27T10:25:34Z</time></trkpt>
<trkpt lat="23.209877" lon="113.01011">
<time>2015-09-27T10:25:35Z</time></trkpt>
<trkpt lat="23.209877" lon="113.01011">
<time>2015-09-27T10:25:36Z</time></trkpt>
<trkpt lat="23.209987" lon="113.01011">
<time>2015-09-27T10:25:37Z</time></trkpt>
<trkpt lat="23.210066" lon="113.01012">
<time>2015-09-27T10:25:38Z</time></trkpt>
<trkpt lat="23.210166" lon="113.01013">
<time>2015-09-27T10:25:39Z</time></trkpt>
<trkpt lat="23.210661" lon="113.008685">
<time>2015-09-27T10:25:40Z</time></trkpt>
<trkpt lat="23.210661" lon="113.008685">
<time>2015-09-27T10:25:41Z</time></trkpt>
<trkpt lat="23.211205" lon="113.007141">
<time>2015-09-27T10:25:42Z</time></trkpt>
<trkpt lat="23.211417" lon="113.006553">
<time>2015-09-27T10:25:43Z</time></trkpt>
<trkpt lat="23.211739" lon="113.005626">
<time>2015-09-27T10:25:44Z</time></trkpt>
<trkpt lat="23.211739" lon="113.005606">
<time>2015-09-27T10:25:45Z</time></trkpt>
<trkpt lat="23.212011" lon="113.004869">
<time>2015-09-27T10:25:46Z</time></trkpt>
<trkpt lat="23.212485" lon="113.003553">
<time>2015-09-27T10:25:47Z</time></trkpt>
<trkpt lat="23.212677" lon="113.002886">
<time>2015-09-27T10:25:48Z</time></trkpt>
<trkpt lat="23.212738" lon="113.002627">
<time>2015-09-27T10:25:49Z</time></trkpt>
<trkpt lat="23.212748" lon="113.002617">
<time>2015-09-27T10:25:50Z</time></trkpt>
<trkpt lat="23.212819" lon="113.002367">
<time>2015-09-27T10:25:51Z</time></trkpt>
<trkpt lat="23.212839" lon="113.002218">
<time>2015-09-27T10:25:52Z</time></trkpt>
<trkpt lat="23.21289" lon="113.001979">
<time>2015-09-27T10:25:53Z</time></trkpt>
<trkpt lat="23.212931" lon="113.00167">
<time>2015-09-27T10:25:54Z</time></trkpt>
<trkpt lat="23.212982" lon="113.001172">
<time>2015-09-27T10:25:55Z</time></trkpt>
<trkpt lat="23.213004" lon="113.000664">
<time>2015-09-27T10:25:56Z</time></trkpt>
<trkpt lat="23.213015" lon="113.000335">
<time>2015-09-27T10:25:57Z</time></trkpt>
<trkpt lat="23.213006" lon="112.999986">
<time>2015-09-27T10:25:58Z</time></trkpt>
<trkpt lat="23.213007" lon="112.999677">
<time>2015-09-27T10:25:59Z</time></trkpt>
<trkpt lat="23.212997" lon="112.999548">
<time>2015-09-27T10:26:00Z</time></trkpt>
<trkpt lat="23.212987" lon="112.999478">
<time>2015-09-27T10:26:01Z</time></trkpt>
<trkpt lat="23.212958" lon="112.999229">
<time>2015-09-27T10:26:02Z</time></trkpt>
<trkpt lat="23.212919" lon="112.99899">
<time>2015-09-27T10:26:03Z</time></trkpt>
<trkpt lat="23.21287" lon="112.99873">
<time>2015-09-27T10:26:04Z</time></trkpt>
<trkpt lat="23.21284" lon="112.998601">
<time>2015-09-27T10:26:05Z</time></trkpt>
<trkpt lat="23.212633" lon="112.997764">
<time>2015-09-27T10:26:06Z</time></trkpt>
<trkpt lat="23.212317" lon="112.996449">
<time>2015-09-27T10:26:07Z</time></trkpt>
<trkpt lat="23.212297" lon="112.996379">
<time>2015-09-27T10:26:08Z</time></trkpt>
<trkpt lat="23.212267" lon="112.996269">
<time>2015-09-27T10:26:09Z</time></trkpt>
<trkpt lat="23.212129" lon="112.995622">
<time>2015-09-27T10:26:10Z</time></trkpt>
<trkpt lat="23.211804" lon="112.994127">
<time>2015-09-27T10:26:11Z</time></trkpt>
<trkpt lat="23.211589" lon="112.992692">
<time>2015-09-27T10:26:12Z</time></trkpt>
<trkpt lat="23.2115" lon="112.992164">
<time>2015-09-27T10:26:13Z</time></trkpt>
<trkpt lat="23.2115" lon="112.992104">
<time>2015-09-27T10:26:14Z</time></trkpt>
<trkpt lat="23.211343" lon="112.991128">
<time>2015-09-27T10:26:15Z</time></trkpt>
<trkpt lat="23.211294" lon="112.990849">
<time>2015-09-27T10:26:16Z</time></trkpt>
<trkpt lat="23.211236" lon="112.990311">
<time>2015-09-27T10:26:17Z</time></trkpt>
<trkpt lat="23.211237" lon="112.989822">
<time>2015-09-27T10:26:18Z</time></trkpt>
<trkpt lat="23.211322" lon="112.988407">
<time>2015-09-27T10:26:19Z</time></trkpt>
<trkpt lat="23.211385" lon="112.987441">
<time>2015-09-27T10:26:20Z</time></trkpt>
<trkpt lat="23.211552" lon="112.98479">
<time>2015-09-27T10:26:21Z</time></trkpt>
<trkpt lat="23.211584" lon="112.984342">
<time>2015-09-27T10:26:22Z</time></trkpt>
<trkpt lat="23.21174" lon="112.982229">
<time>2015-09-27T10:26:23Z</time></trkpt>
<trkpt lat="23.211761" lon="112.98194">
<time>2015-09-27T10:26:24Z</time></trkpt>
<trkpt lat="23.211782" lon="112.981572">
<time>2015-09-27T10:26:25Z</time></trkpt>
<trkpt lat="23.211793" lon="112.981392">
<time>2015-09-27T10:26:26Z</time></trkpt>
<trkpt lat="23.211813" lon="112.981093">
<time>2015-09-27T10:26:27Z</time></trkpt>
<trkpt lat="23.211887" lon="112.979828">
<time>2015-09-27T10:26:28Z</time></trkpt>
<trkpt lat="23.212189" lon="112.975802">
<time>2015-09-27T10:26:29Z</time></trkpt>
<trkpt lat="23.212241" lon="112.975024">
<time>2015-09-27T10:26:30Z</time></trkpt>
<trkpt lat="23.212283" lon="112.974277">
<time>2015-09-27T10:26:31Z</time></trkpt>
<trkpt lat="23.212367" lon="112.972991">
<time>2015-09-27T10:26:32Z</time></trkpt>
<trkpt lat="23.212419" lon="112.972174">
<time>2015-09-27T10:26:33Z</time></trkpt>
<trkpt lat="23.21243" lon="112.971975">
<time>2015-09-27T10:26:34Z</time></trkpt>
<trkpt lat="23.212492" lon="112.971018">
<time>2015-09-27T10:26:35Z</time></trkpt>
<trkpt lat="23.21268" lon="112.968267">
<time>2015-09-27T10:26:36Z</time></trkpt>
<trkpt lat="23.212815" lon="112.966293">
<time>2015-09-27T10:26:37Z</time></trkpt>
<trkpt lat="23.212826" lon="112.966154">
<time>2015-09-27T10:26:38Z</time></trkpt>
<trkpt lat="23.212959" lon="112.964708">
<time>2015-09-27T10:26:39Z</time></trkpt>
<trkpt lat="23.213061" lon="112.96409">
<time>2015-09-27T10:26:40Z</time></trkpt>
<trkpt lat="23.213143" lon="112.963552">
<time>2015-09-27T10:26:41Z</time></trkpt>
<trkpt lat="23.213295" lon="112.962595">
<time>2015-09-27T10:26:42Z</time></trkpt>
<trkpt lat="23.213335" lon="112.962455">
<time>2015-09-27T10:26:43Z</time></trkpt>
<trkpt lat="23.213335" lon="112.962445">
<time>2015-09-27T10:26:44Z</time></trkpt>
<trkpt lat="23.213356" lon="112.962366">
<time>2015-09-27T10:26:45Z</time></trkpt>
<trkpt lat="23.213396" lon="112.962226">
<time>2015-09-27T10:26:46Z</time></trkpt>
<trkpt lat="23.213658" lon="112.961219">
<time>2015-09-27T10:26:47Z</time></trkpt>
<trkpt lat="23.214112" lon="112.959913">
<time>2015-09-27T10:26:48Z</time></trkpt>
<trkpt lat="23.214665" lon="112.958597">
<time>2015-09-27T10:26:49Z</time></trkpt>
<trkpt lat="23.214815" lon="112.958298">
<time>2015-09-27T10:26:50Z</time></trkpt>
<trkpt lat="23.214836" lon="112.958258">
<time>2015-09-27T10:26:51Z</time></trkpt>
<trkpt lat="23.215247" lon="112.957461">
<time>2015-09-27T10:26:52Z</time></trkpt>
<trkpt lat="23.21584" lon="112.956304">
<time>2015-09-27T10:26:53Z</time></trkpt>
<trkpt lat="23.217236" lon="112.953582">
<time>2015-09-27T10:26:54Z</time></trkpt>
<trkpt lat="23.217648" lon="112.952814">
<time>2015-09-27T10:26:55Z</time></trkpt>
<trkpt lat="23.219174" lon="112.949922">
<time>2015-09-27T10:26:56Z</time></trkpt>
<trkpt lat="23.220469" lon="112.947478">
<time>2015-09-27T10:26:57Z</time></trkpt>
<trkpt lat="23.221493" lon="112.945483">
<time>2015-09-27T10:26:58Z</time></trkpt>
<trkpt lat="23.221693" lon="112.945114">
<time>2015-09-27T10:26:59Z</time></trkpt>
<trkpt lat="23.223169" lon="112.942251">
<time>2015-09-27T10:27:00Z</time></trkpt>
<trkpt lat="23.223881" lon="112.940905">
<time>2015-09-27T10:27:01Z</time></trkpt>
<trkpt lat="23.224142" lon="112.940416">
<time>2015-09-27T10:27:02Z</time></trkpt>
<trkpt lat="23.224674" lon="112.939358">
<time>2015-09-27T10:27:03Z</time></trkpt>
<trkpt lat="23.225225" lon="112.938291">
<time>2015-09-27T10:27:04Z</time></trkpt>
<trkpt lat="23.225536" lon="112.937682">
<time>2015-09-27T10:27:05Z</time></trkpt>
<trkpt lat="23.225949" lon="112.936365">
<time>2015-09-27T10:27:06Z</time></trkpt>
<trkpt lat="23.22614" lon="112.935387">
<time>2015-09-27T10:27:07Z</time></trkpt>
<trkpt lat="23.227392" lon="112.927612">
<time>2015-09-27T10:27:08Z</time></trkpt>
<trkpt lat="23.227432" lon="112.927343">
<time>2015-09-27T10:27:09Z</time></trkpt>
<trkpt lat="23.227726" lon="112.924637">
<time>2015-09-27T10:27:10Z</time></trkpt>
<trkpt lat="23.227688" lon="112.92271">
<time>2015-09-27T10:27:11Z</time></trkpt>
<trkpt lat="23.227678" lon="112.922421">
<time>2015-09-27T10:27:12Z</time></trkpt>
<trkpt lat="23.22765" lon="112.921083">
<time>2015-09-27T10:27:13Z</time></trkpt>
<trkpt lat="23.22763" lon="112.920643">
<time>2015-09-27T10:27:14Z</time></trkpt>
<trkpt lat="23.227611" lon="112.920274">
<time>2015-09-27T10:27:15Z</time></trkpt>
<trkpt lat="23.227611" lon="112.920234">
<time>2015-09-27T10:27:16Z</time></trkpt>
<trkpt lat="23.227571" lon="112.919485">
<time>2015-09-27T10:27:17Z</time></trkpt>
<trkpt lat="23.227562" lon="112.918746">
<time>2015-09-27T10:27:18Z</time></trkpt>
<trkpt lat="23.227552" lon="112.918506">
<time>2015-09-27T10:27:19Z</time></trkpt>
<trkpt lat="23.227533" lon="112.918097">
<time>2015-09-27T10:27:20Z</time></trkpt>
<trkpt lat="23.227514" lon="112.917388">
<time>2015-09-27T10:27:21Z</time></trkpt>
<trkpt lat="23.227504" lon="112.917108">
<time>2015-09-27T10:27:22Z</time></trkpt>
<trkpt lat="23.227475" lon="112.91607">
<time>2015-09-27T10:27:23Z</time></trkpt>
<trkpt lat="23.227456" lon="112.915011">
<time>2015-09-27T10:27:24Z</time></trkpt>
<trkpt lat="23.227446" lon="112.914711">
<time>2015-09-27T10:27:25Z</time></trkpt>
<trkpt lat="23.227446" lon="112.914312">
<time>2015-09-27T10:27:26Z</time></trkpt>
<trkpt lat="23.227437" lon="112.913583">
<time>2015-09-27T10:27:27Z</time></trkpt>
<trkpt lat="23.227427" lon="112.913213">
<time>2015-09-27T10:27:28Z</time></trkpt>
<trkpt lat="23.227417" lon="112.912833">
<time>2015-09-27T10:27:29Z</time></trkpt>
<trkpt lat="23.227369" lon="112.910476">
<time>2015-09-27T10:27:30Z</time></trkpt>
<trkpt lat="23.227369" lon="112.910436">
<time>2015-09-27T10:27:31Z</time></trkpt>
<trkpt lat="23.22734" lon="112.908697">
<time>2015-09-27T10:27:32Z</time></trkpt>
<trkpt lat="23.22732" lon="112.908478">
<time>2015-09-27T10:27:33Z</time></trkpt>
<trkpt lat="23.227211" lon="112.907219">
<time>2015-09-27T10:27:34Z</time></trkpt>
<trkpt lat="23.227081" lon="112.906319">
<time>2015-09-27T10:27:35Z</time></trkpt>
<trkpt lat="23.227071" lon="112.906259">
<time>2015-09-27T10:27:36Z</time></trkpt>
<trkpt lat="23.226772" lon="112.90486">
<time>2015-09-27T10:27:37Z</time></trkpt>
<trkpt lat="23.226402" lon="112.903761">
<time>2015-09-27T10:27:38Z</time></trkpt>
<trkpt lat="23.226013" lon="112.902802">
<time>2015-09-27T10:27:39Z</time></trkpt>
<trkpt lat="23.225273" lon="112.901363">
<time>2015-09-27T10:27:40Z</time></trkpt>
<trkpt lat="23.225253" lon="112.901333">
<time>2015-09-27T10:27:41Z</time></trkpt>
<trkpt lat="23.224934" lon="112.900833">
<time>2015-09-27T10:27:42Z</time></trkpt>
<trkpt lat="23.224754" lon="112.900553">
<time>2015-09-27T10:27:43Z</time></trkpt>
<trkpt lat="23.224304" lon="112.899913">
<time>2015-09-27T10:27:44Z</time></trkpt>
<trkpt lat="23.223404" lon="112.898824">
<time>2015-09-27T10:27:45Z</time></trkpt>
<trkpt lat="23.222665" lon="112.898034">
<time>2015-09-27T10:27:46Z</time></trkpt>
<trkpt lat="23.220835" lon="112.896195">
<time>2015-09-27T10:27:47Z</time></trkpt>
<trkpt lat="23.219756" lon="112.895115">
<time>2015-09-27T10:27:48Z</time></trkpt>
<trkpt lat="23.218026" lon="112.893386">
<time>2015-09-27T10:27:49Z</time></trkpt>
<trkpt lat="23.216866" lon="112.891996">
<time>2015-09-27T10:27:50Z</time></trkpt>
<trkpt lat="23.215856" lon="112.890516">
<time>2015-09-27T10:27:51Z</time></trkpt>
<trkpt lat="23.215216" lon="112.889246">
<time>2015-09-27T10:27:52Z</time></trkpt>
<trkpt lat="23.214606" lon="112.887706">
<time>2015-09-27T10:27:53Z</time></trkpt>
<trkpt lat="23.214295" lon="112.886606">
<time>2015-09-27T10:27:54Z</time></trkpt>
<trkpt lat="23.214005" lon="112.885166">
<time>2015-09-27T10:27:55Z</time></trkpt>
<trkpt lat="23.213714" lon="112.883245">
<time>2015-09-27T10:27:56Z</time></trkpt>
<trkpt lat="23.213533" lon="112.882335">
<time>2015-09-27T10:27:57Z</time></trkpt>
<trkpt lat="23.213273" lon="112.881254">
<time>2015-09-27T10:27:58Z</time></trkpt>
<trkpt lat="23.212842" lon="112.880054">
<time>2015-09-27T10:27:59Z</time></trkpt>
<trkpt lat="23.212552" lon="112.879414">
<time>2015-09-27T10:28:00Z</time></trkpt>
<trkpt lat="23.212161" lon="112.878693">
<time>2015-09-27T10:28:01Z</time></trkpt>
<trkpt lat="23.211611" lon="112.877863">
<time>2015-09-27T10:28:02Z</time></trkpt>
<trkpt lat="23.211011" lon="112.877082">
<time>2015-09-27T10:28:03Z</time></trkpt>
<trkpt lat="23.21022" lon="112.876252">
<time>2015-09-27T10:28:04Z</time></trkpt>
<trkpt lat="23.20981" lon="112.875842">
<time>2015-09-27T10:28:05Z</time></trkpt>
<trkpt lat="23.208979" lon="112.875001">
<time>2015-09-27T10:28:06Z</time></trkpt>
<trkpt lat="23.208439" lon="112.874361">
<time>2015-09-27T10:28:07Z</time></trkpt>
<trkpt lat="23.207979" lon="112.873751">
<time>2015-09-27T10:28:08Z</time></trkpt>
<trkpt lat="23.207939" lon="112.8737">
<time>2015-09-27T10:28:09Z</time></trkpt>
<trkpt lat="23.207829" lon="112.87355">
<time>2015-09-27T10:28:10Z</time></trkpt>
<trkpt lat="23.207578" lon="112.87322">
<time>2015-09-27T10:28:11Z</time></trkpt>
<trkpt lat="23.207478" lon="112.87304">
<time>2015-09-27T10:28:12Z</time></trkpt>
<trkpt lat="23.206967" lon="112.872109">
<time>2015-09-27T10:28:13Z</time></trkpt>
<trkpt lat="23.206446" lon="112.870778">
<time>2015-09-27T10:28:14Z</time></trkpt>
<trkpt lat="23.206045" lon="112.869527">
<time>2015-09-27T10:28:15Z</time></trkpt>
<trkpt lat="23.205864" lon="112.868516">
<time>2015-09-27T10:28:16Z</time></trkpt>
<trkpt lat="23.205723" lon="112.867305">
<time>2015-09-27T10:28:17Z</time></trkpt>
<trkpt lat="23.205681" lon="112.865914">
<time>2015-09-27T10:28:18Z</time></trkpt>
<trkpt lat="23.205639" lon="112.864493">
<time>2015-09-27T10:28:19Z</time></trkpt>
<trkpt lat="23.205639" lon="112.864272">
<time>2015-09-27T10:28:20Z</time></trkpt>
<trkpt lat="23.205618" lon="112.863341">
<time>2015-09-27T10:28:21Z</time></trkpt>
<trkpt lat="23.205576" lon="112.861559">
<time>2015-09-27T10:28:22Z</time></trkpt>
<trkpt lat="23.205562" lon="112.858686">
<time>2015-09-27T10:28:23Z</time></trkpt>
<trkpt lat="23.205488" lon="112.855772">
<time>2015-09-27T10:28:24Z</time></trkpt>
<trkpt lat="23.205437" lon="112.855402">
<time>2015-09-27T10:28:25Z</time></trkpt>
<trkpt lat="23.205255" lon="112.8541">
<time>2015-09-27T10:28:26Z</time></trkpt>
<trkpt lat="23.205145" lon="112.8537">
<time>2015-09-27T10:28:27Z</time></trkpt>
<trkpt lat="23.205135" lon="112.853639">
<time>2015-09-27T10:28:28Z</time></trkpt>
<trkpt lat="23.204873" lon="112.852688">
<time>2015-09-27T10:28:29Z</time></trkpt>
<trkpt lat="23.204853" lon="112.852598">
<time>2015-09-27T10:28:30Z</time></trkpt>
<trkpt lat="23.204301" lon="112.851116">
<time>2015-09-27T10:28:31Z</time></trkpt>
<trkpt lat="23.204201" lon="112.850926">
<time>2015-09-27T10:28:32Z</time></trkpt>
<trkpt lat="23.203629" lon="112.849714">
<time>2015-09-27T10:28:33Z</time></trkpt>
<trkpt lat="23.203629" lon="112.849704">
<time>2015-09-27T10:28:34Z</time></trkpt>
<trkpt lat="23.202677" lon="112.848192">
<time>2015-09-27T10:28:35Z</time></trkpt>
<trkpt lat="23.202046" lon="112.847291">
<time>2015-09-27T10:28:36Z</time></trkpt>
<trkpt lat="23.201454" lon="112.846439">
<time>2015-09-27T10:28:37Z</time></trkpt>
<trkpt lat="23.201294" lon="112.846219">
<time>2015-09-27T10:28:38Z</time></trkpt>
<trkpt lat="23.201204" lon="112.846079">
<time>2015-09-27T10:28:39Z</time></trkpt>
<trkpt lat="23.201054" lon="112.845868">
<time>2015-09-27T10:28:40Z</time></trkpt>
<trkpt lat="23.201003" lon="112.845788">
<time>2015-09-27T10:28:41Z</time></trkpt>
<trkpt lat="23.200001" lon="112.844366">
<time>2015-09-27T10:28:42Z</time></trkpt>
<trkpt lat="23.197656" lon="112.840921">
<time>2015-09-27T10:28:43Z</time></trkpt>
<trkpt lat="23.197266" lon="112.84051">
<time>2015-09-27T10:28:44Z</time></trkpt>
<trkpt lat="23.196354" lon="112.839549">
<time>2015-09-27T10:28:45Z</time></trkpt>
<trkpt lat="23.195934" lon="112.839188">
<time>2015-09-27T10:28:46Z</time></trkpt>
<trkpt lat="23.195213" lon="112.838577">
<time>2015-09-27T10:28:47Z</time></trkpt>
<trkpt lat="23.195213" lon="112.838577">
<time>2015-09-27T10:28:48Z</time></trkpt>
<trkpt lat="23.194982" lon="112.838247">
<time>2015-09-27T10:28:49Z</time></trkpt>
<trkpt lat="23.194862" lon="112.838066">
<time>2015-09-27T10:28:50Z</time></trkpt>
<trkpt lat="23.194762" lon="112.837896">
<time>2015-09-27T10:28:51Z</time></trkpt>
<trkpt lat="23.194702" lon="112.837766">
<time>2015-09-27T10:28:52Z</time></trkpt>
<trkpt lat="23.194661" lon="112.837626">
<time>2015-09-27T10:28:53Z</time></trkpt>
<trkpt lat="23.194631" lon="112.837505">
<time>2015-09-27T10:28:54Z</time></trkpt>
<trkpt lat="23.194611" lon="112.837375">
<time>2015-09-27T10:28:55Z</time></trkpt>
<trkpt lat="23.194601" lon="112.837285">
<time>2015-09-27T10:28:56Z</time></trkpt>
<trkpt lat="23.194611" lon="112.837175">
<time>2015-09-27T10:28:57Z</time></trkpt>
<trkpt lat="23.19463" lon="112.837005">
<time>2015-09-27T10:28:58Z</time></trkpt>
<trkpt lat="23.19467" lon="112.836864">
<time>2015-09-27T10:28:59Z</time></trkpt>
<trkpt lat="23.19473" lon="112.836724">
<time>2015-09-27T10:29:00Z</time></trkpt>
<trkpt lat="23.1948" lon="112.836614">
<time>2015-09-27T10:29:01Z</time></trkpt>
<trkpt lat="23.194909" lon="112.836454">
<time>2015-09-27T10:29:02Z</time></trkpt>
<trkpt lat="23.195009" lon="112.836323">
<time>2015-09-27T10:29:03Z</time></trkpt>
<trkpt lat="23.195099" lon="112.836243">
<time>2015-09-27T10:29:04Z</time></trkpt>
<trkpt lat="23.195508" lon="112.835973">
<time>2015-09-27T10:29:05Z</time></trkpt>
<trkpt lat="23.195668" lon="112.835893">
<time>2015-09-27T10:29:06Z</time></trkpt>
<trkpt lat="23.195948" lon="112.835793">
<time>2015-09-27T10:29:07Z</time></trkpt>
<trkpt lat="23.196157" lon="112.835722">
<time>2015-09-27T10:29:08Z</time></trkpt>
<trkpt lat="23.196357" lon="112.835682">
<time>2015-09-27T10:29:09Z</time></trkpt>
<trkpt lat="23.196567" lon="112.835672">
<time>2015-09-27T10:29:10Z</time></trkpt>
<trkpt lat="23.196787" lon="112.835662">
<time>2015-09-27T10:29:11Z</time></trkpt>
<trkpt lat="23.197047" lon="112.835682">
<time>2015-09-27T10:29:12Z</time></trkpt>
<trkpt lat="23.197177" lon="112.835702">
<time>2015-09-27T10:29:13Z</time></trkpt>
<trkpt lat="23.197357" lon="112.835752">
<time>2015-09-27T10:29:14Z</time></trkpt>
<trkpt lat="23.197497" lon="112.835792">
<time>2015-09-27T10:29:15Z</time></trkpt>
<trkpt lat="23.197867" lon="112.835943">
<time>2015-09-27T10:29:16Z</time></trkpt>
<trkpt lat="23.197927" lon="112.835973">
<time>2015-09-27T10:29:17Z</time></trkpt>
<trkpt lat="23.198328" lon="112.836243">
<time>2015-09-27T10:29:18Z</time></trkpt>
<trkpt lat="23.198328" lon="112.836243">
<time>2015-09-27T10:29:19Z</time></trkpt>
<trkpt lat="23.198378" lon="112.836273">
<time>2015-09-27T10:29:20Z</time></trkpt>
<trkpt lat="23.199018" lon="112.836764">
<time>2015-09-27T10:29:21Z</time></trkpt>
<trkpt lat="23.199969" lon="112.837575">
<time>2015-09-27T10:29:22Z</time></trkpt>
<trkpt lat="23.20053" lon="112.838026">
<time>2015-09-27T10:29:23Z</time></trkpt>
<trkpt lat="23.20071" lon="112.838166">
<time>2015-09-27T10:29:24Z</time></trkpt>
<trkpt lat="23.20088" lon="112.838276">
<time>2015-09-27T10:29:25Z</time></trkpt>
<trkpt lat="23.20102" lon="112.838356">
<time>2015-09-27T10:29:26Z</time></trkpt>
<trkpt lat="23.20111" lon="112.838387">
<time>2015-09-27T10:29:27Z</time></trkpt>
<trkpt lat="23.20126" lon="112.838407">
<time>2015-09-27T10:29:28Z</time></trkpt>
<trkpt lat="23.20137" lon="112.838417">
<time>2015-09-27T10:29:29Z</time></trkpt>
<trkpt lat="23.2015" lon="112.838407">
<time>2015-09-27T10:29:30Z</time></trkpt>
<trkpt lat="23.20164" lon="112.838376">
<time>2015-09-27T10:29:31Z</time></trkpt>
<trkpt lat="23.20177" lon="112.838316">
<time>2015-09-27T10:29:32Z</time></trkpt>
<trkpt lat="23.20188" lon="112.838236">
<time>2015-09-27T10:29:33Z</time></trkpt>
<trkpt lat="23.202" lon="112.838136">
<time>2015-09-27T10:29:34Z</time></trkpt>
<trkpt lat="23.20206" lon="112.838066">
<time>2015-09-27T10:29:35Z</time></trkpt>
<trkpt lat="23.202109" lon="112.837996">
<time>2015-09-27T10:29:36Z</time></trkpt>
<trkpt lat="23.202149" lon="112.837936">
<time>2015-09-27T10:29:37Z</time></trkpt>
<trkpt lat="23.202189" lon="112.837856">
<time>2015-09-27T10:29:38Z</time></trkpt>
<trkpt lat="23.202219" lon="112.837765">
<time>2015-09-27T10:29:39Z</time></trkpt>
<trkpt lat="23.202259" lon="112.837635">
<time>2015-09-27T10:29:40Z</time></trkpt>
<trkpt lat="23.202288" lon="112.837415">
<time>2015-09-27T10:29:41Z</time></trkpt>
<trkpt lat="23.202308" lon="112.837034">
<time>2015-09-27T10:29:42Z</time></trkpt>
<trkpt lat="23.202317" lon="112.836914">
<time>2015-09-27T10:29:43Z</time></trkpt>
<trkpt lat="23.202347" lon="112.836724">
<time>2015-09-27T10:29:44Z</time></trkpt>
<trkpt lat="23.202397" lon="112.836503">
<time>2015-09-27T10:29:45Z</time></trkpt>
<trkpt lat="23.202456" lon="112.836293">
<time>2015-09-27T10:29:46Z</time></trkpt>
<trkpt lat="23.202556" lon="112.835992">
<time>2015-09-27T10:29:47Z</time></trkpt>
<trkpt lat="23.202556" lon="112.835992">
<time>2015-09-27T10:29:48Z</time></trkpt>
<trkpt lat="23.202835" lon="112.835732">
<time>2015-09-27T10:29:49Z</time></trkpt>
<trkpt lat="23.203364" lon="112.835051">
<time>2015-09-27T10:29:50Z</time></trkpt>
<trkpt lat="23.204061" lon="112.833889">
<time>2015-09-27T10:29:51Z</time></trkpt>
<trkpt lat="23.20453" lon="112.833107">
<time>2015-09-27T10:29:52Z</time></trkpt>
<trkpt lat="23.204569" lon="112.833057">
<time>2015-09-27T10:29:53Z</time></trkpt>
<trkpt lat="23.205417" lon="112.831925">
<time>2015-09-27T10:29:54Z</time></trkpt>
<trkpt lat="23.206015" lon="112.831124">
<time>2015-09-27T10:29:55Z</time></trkpt>
<trkpt lat="23.206175" lon="112.830893">
<time>2015-09-27T10:29:56Z</time></trkpt>
<trkpt lat="23.206185" lon="112.830873">
<time>2015-09-27T10:29:57Z</time></trkpt>
<trkpt lat="23.206334" lon="112.830633">
<time>2015-09-27T10:29:58Z</time></trkpt>
<trkpt lat="23.206444" lon="112.830453">
<time>2015-09-27T10:29:59Z</time></trkpt>
<trkpt lat="23.206534" lon="112.830252">
<time>2015-09-27T10:30:00Z</time></trkpt>
<trkpt lat="23.206613" lon="112.830082">
<time>2015-09-27T10:30:01Z</time></trkpt>
<trkpt lat="23.206673" lon="112.829932">
<time>2015-09-27T10:30:02Z</time></trkpt>
<trkpt lat="23.20699" lon="112.82871">
<time>2015-09-27T10:30:03Z</time></trkpt>
<trkpt lat="23.20702" lon="112.828569">
<time>2015-09-27T10:30:04Z</time></trkpt>
<trkpt lat="23.207239" lon="112.827968">
<time>2015-09-27T10:30:05Z</time></trkpt>
<trkpt lat="23.207289" lon="112.827828">
<time>2015-09-27T10:30:06Z</time></trkpt>
<trkpt lat="23.207338" lon="112.827728">
<time>2015-09-27T10:30:07Z</time></trkpt>
<trkpt lat="23.207388" lon="112.827628">
<time>2015-09-27T10:30:08Z</time></trkpt>
<trkpt lat="23.207498" lon="112.827437">
<time>2015-09-27T10:30:09Z</time></trkpt>
<trkpt lat="23.207637" lon="112.827217">
<time>2015-09-27T10:30:10Z</time></trkpt>
<trkpt lat="23.207737" lon="112.827097">
<time>2015-09-27T10:30:11Z</time></trkpt>
<trkpt lat="23.207807" lon="112.827017">
<time>2015-09-27T10:30:12Z</time></trkpt>
<trkpt lat="23.207917" lon="112.826906">
<time>2015-09-27T10:30:13Z</time></trkpt>
<trkpt lat="23.208506" lon="112.826385">
<time>2015-09-27T10:30:14Z</time></trkpt>
<trkpt lat="23.208655" lon="112.826255">
<time>2015-09-27T10:30:15Z</time></trkpt>
<trkpt lat="23.209973" lon="112.825354">
<time>2015-09-27T10:30:16Z</time></trkpt>
<trkpt lat="23.211041" lon="112.824632">
<time>2015-09-27T10:30:17Z</time></trkpt>
<trkpt lat="23.21173" lon="112.824161">
<time>2015-09-27T10:30:18Z</time></trkpt>
<trkpt lat="23.212229" lon="112.823821">
<time>2015-09-27T10:30:19Z</time></trkpt>
<trkpt lat="23.212689" lon="112.82357">
<time>2015-09-27T10:30:20Z</time></trkpt>
<trkpt lat="23.213338" lon="112.82332">
<time>2015-09-27T10:30:21Z</time></trkpt>
<trkpt lat="23.214027" lon="112.823119">
<time>2015-09-27T10:30:22Z</time></trkpt>
<trkpt lat="23.214027" lon="112.823119">
<time>2015-09-27T10:30:23Z</time></trkpt>
<trkpt lat="23.214017" lon="112.823059">
<time>2015-09-27T10:30:24Z</time></trkpt>
<trkpt lat="23.214017" lon="112.823059">
<time>2015-09-27T10:30:25Z</time></trkpt>
<trkpt lat="23.215256" lon="112.822699">
<time>2015-09-27T10:30:26Z</time></trkpt>
<trkpt lat="23.215976" lon="112.822488">
<time>2015-09-27T10:30:27Z</time></trkpt>
<trkpt lat="23.216745" lon="112.822248">
<time>2015-09-27T10:30:28Z</time></trkpt>
<trkpt lat="23.217764" lon="112.821767">
<time>2015-09-27T10:30:29Z</time></trkpt>
<trkpt lat="23.217843" lon="112.821737">
<time>2015-09-27T10:30:30Z</time></trkpt>
<trkpt lat="23.218643" lon="112.821376">
<time>2015-09-27T10:30:31Z</time></trkpt>
<trkpt lat="23.219222" lon="112.821105">
<time>2015-09-27T10:30:32Z</time></trkpt>
<trkpt lat="23.219871" lon="112.820805">
<time>2015-09-27T10:30:33Z</time></trkpt>
<trkpt lat="23.221159" lon="112.820214">
<time>2015-09-27T10:30:34Z</time></trkpt>
<trkpt lat="23.221229" lon="112.820184">
<time>2015-09-27T10:30:35Z</time></trkpt>
<trkpt lat="23.221399" lon="112.820114">
<time>2015-09-27T10:30:36Z</time></trkpt>
<trkpt lat="23.221449" lon="112.820084">
<time>2015-09-27T10:30:37Z</time></trkpt>
<trkpt lat="23.221659" lon="112.819983">
<time>2015-09-27T10:30:38Z</time></trkpt>
<trkpt lat="23.222588" lon="112.819522">
<time>2015-09-27T10:30:39Z</time></trkpt>
<trkpt lat="23.223277" lon="112.819182">
<time>2015-09-27T10:30:40Z</time></trkpt>
<trkpt lat="23.223946" lon="112.818761">
<time>2015-09-27T10:30:41Z</time></trkpt>
<trkpt lat="23.224046" lon="112.818721">
<time>2015-09-27T10:30:42Z</time></trkpt>
<trkpt lat="23.224116" lon="112.818681">
<time>2015-09-27T10:30:43Z</time></trkpt>
<trkpt lat="23.224215" lon="112.818611">
<time>2015-09-27T10:30:44Z</time></trkpt>
<trkpt lat="23.224485" lon="112.81842">
<time>2015-09-27T10:30:45Z</time></trkpt>
<trkpt lat="23.224964" lon="112.81808">
<time>2015-09-27T10:30:46Z</time></trkpt>
<trkpt lat="23.225553" lon="112.817569">
<time>2015-09-27T10:30:47Z</time></trkpt>
<trkpt lat="23.225733" lon="112.817419">
<time>2015-09-27T10:30:48Z</time></trkpt>
<trkpt lat="23.226052" lon="112.817138">
<time>2015-09-27T10:30:49Z</time></trkpt>
<trkpt lat="23.226132" lon="112.817068">
<time>2015-09-27T10:30:50Z</time></trkpt>
<trkpt lat="23.226242" lon="112.816958">
<time>2015-09-27T10:30:51Z</time></trkpt>
<trkpt lat="23.226451" lon="112.816697">
<time>2015-09-27T10:30:52Z</time></trkpt>
<trkpt lat="23.22672" lon="112.816317">
<time>2015-09-27T10:30:53Z</time></trkpt>
<trkpt lat="23.22681" lon="112.816176">
<time>2015-09-27T10:30:54Z</time></trkpt>
<trkpt lat="23.22682" lon="112.816166">
<time>2015-09-27T10:30:55Z</time></trkpt>
<trkpt lat="23.22688" lon="112.816056">
<time>2015-09-27T10:30:56Z</time></trkpt>
<trkpt lat="23.227208" lon="112.815295">
<time>2015-09-27T10:30:57Z</time></trkpt>
<trkpt lat="23.230071" lon="112.806399">
<time>2015-09-27T10:30:58Z</time></trkpt>
<trkpt lat="23.230111" lon="112.806279">
<time>2015-09-27T10:30:59Z</time></trkpt>
<trkpt lat="23.23015" lon="112.806149">
<time>2015-09-27T10:31:00Z</time></trkpt>
<trkpt lat="23.23023" lon="112.805899">
<time>2015-09-27T10:31:01Z</time></trkpt>
<trkpt lat="23.230289" lon="112.805658">
<time>2015-09-27T10:31:02Z</time></trkpt>
<trkpt lat="23.230925" lon="112.803174">
<time>2015-09-27T10:31:03Z</time></trkpt>
<trkpt lat="23.231372" lon="112.801732">
<time>2015-09-27T10:31:04Z</time></trkpt>
<trkpt lat="23.232497" lon="112.798787">
<time>2015-09-27T10:31:05Z</time></trkpt>
<trkpt lat="23.233074" lon="112.797405">
<time>2015-09-27T10:31:06Z</time></trkpt>
<trkpt lat="23.233373" lon="112.796654">
<time>2015-09-27T10:31:07Z</time></trkpt>
<trkpt lat="23.23409" lon="112.794861">
<time>2015-09-27T10:31:08Z</time></trkpt>
<trkpt lat="23.234498" lon="112.79381">
<time>2015-09-27T10:31:09Z</time></trkpt>
<trkpt lat="23.234538" lon="112.79371">
<time>2015-09-27T10:31:10Z</time></trkpt>
<trkpt lat="23.234588" lon="112.793599">
<time>2015-09-27T10:31:11Z</time></trkpt>
<trkpt lat="23.235125" lon="112.792237">
<time>2015-09-27T10:31:12Z</time></trkpt>
<trkpt lat="23.235484" lon="112.791186">
<time>2015-09-27T10:31:13Z</time></trkpt>
<trkpt lat="23.235643" lon="112.790725">
<time>2015-09-27T10:31:14Z</time></trkpt>
<trkpt lat="23.235663" lon="112.790655">
<time>2015-09-27T10:31:15Z</time></trkpt>
<trkpt lat="23.235703" lon="112.790495">
<time>2015-09-27T10:31:16Z</time></trkpt>
<trkpt lat="23.235742" lon="112.790325">
<time>2015-09-27T10:31:17Z</time></trkpt>
<trkpt lat="23.235762" lon="112.790155">
<time>2015-09-27T10:31:18Z</time></trkpt>
<trkpt lat="23.236079" lon="112.788142">
<time>2015-09-27T10:31:19Z</time></trkpt>
<trkpt lat="23.236703" lon="112.784257">
<time>2015-09-27T10:31:20Z</time></trkpt>
<trkpt lat="23.236833" lon="112.783606">
<time>2015-09-27T10:31:21Z</time></trkpt>
<trkpt lat="23.236833" lon="112.783586">
<time>2015-09-27T10:31:22Z</time></trkpt>
<trkpt lat="23.236852" lon="112.783526">
<time>2015-09-27T10:31:23Z</time></trkpt>
<trkpt lat="23.237002" lon="112.782976">
<time>2015-09-27T10:31:24Z</time></trkpt>
<trkpt lat="23.237191" lon="112.782455">
<time>2015-09-27T10:31:25Z</time></trkpt>
<trkpt lat="23.23741" lon="112.781964">
<time>2015-09-27T10:31:26Z</time></trkpt>
<trkpt lat="23.23761" lon="112.781564">
<time>2015-09-27T10:31:27Z</time></trkpt>
<trkpt lat="23.237789" lon="112.781274">
<time>2015-09-27T10:31:28Z</time></trkpt>
<trkpt lat="23.238079" lon="112.780813">
<time>2015-09-27T10:31:29Z</time></trkpt>
<trkpt lat="23.238498" lon="112.780212">
<time>2015-09-27T10:31:30Z</time></trkpt>
<trkpt lat="23.238587" lon="112.780082">
<time>2015-09-27T10:31:31Z</time></trkpt>
<trkpt lat="23.238977" lon="112.779512">
<time>2015-09-27T10:31:32Z</time></trkpt>
<trkpt lat="23.239226" lon="112.779161">
<time>2015-09-27T10:31:33Z</time></trkpt>
<trkpt lat="23.239236" lon="112.779141">
<time>2015-09-27T10:31:34Z</time></trkpt>
<trkpt lat="23.239416" lon="112.778921">
<time>2015-09-27T10:31:35Z</time></trkpt>
<trkpt lat="23.241013" lon="112.776879">
<time>2015-09-27T10:31:36Z</time></trkpt>
<trkpt lat="23.241462" lon="112.776178">
<time>2015-09-27T10:31:37Z</time></trkpt>
<trkpt lat="23.242061" lon="112.775097">
<time>2015-09-27T10:31:38Z</time></trkpt>
<trkpt lat="23.2423" lon="112.774647">
<time>2015-09-27T10:31:39Z</time></trkpt>
<trkpt lat="23.24239" lon="112.774437">
<time>2015-09-27T10:31:40Z</time></trkpt>
<trkpt lat="23.242659" lon="112.773766">
<time>2015-09-27T10:31:41Z</time></trkpt>
<trkpt lat="23.243098" lon="112.772695">
<time>2015-09-27T10:31:42Z</time></trkpt>
<trkpt lat="23.243427" lon="112.771894">
<time>2015-09-27T10:31:43Z</time></trkpt>
<trkpt lat="23.243935" lon="112.770643">
<time>2015-09-27T10:31:44Z</time></trkpt>
<trkpt lat="23.244205" lon="112.770023">
<time>2015-09-27T10:31:45Z</time></trkpt>
<trkpt lat="23.244484" lon="112.769382">
<time>2015-09-27T10:31:46Z</time></trkpt>
<trkpt lat="23.244754" lon="112.768772">
<time>2015-09-27T10:31:47Z</time></trkpt>
<trkpt lat="23.245332" lon="112.767441">
<time>2015-09-27T10:31:48Z</time></trkpt>
<trkpt lat="23.245552" lon="112.766931">
<time>2015-09-27T10:31:49Z</time></trkpt>
<trkpt lat="23.245961" lon="112.7661">
<time>2015-09-27T10:31:50Z</time></trkpt>
<trkpt lat="23.247309" lon="112.763379">
<time>2015-09-27T10:31:51Z</time></trkpt>
<trkpt lat="23.247488" lon="112.762999">
<time>2015-09-27T10:31:52Z</time></trkpt>
<trkpt lat="23.247758" lon="112.762518">
<time>2015-09-27T10:31:53Z</time></trkpt>
<trkpt lat="23.248547" lon="112.761118">
<time>2015-09-27T10:31:54Z</time></trkpt>
<trkpt lat="23.248776" lon="112.760697">
<time>2015-09-27T10:31:55Z</time></trkpt>
<trkpt lat="23.249016" lon="112.760277">
<time>2015-09-27T10:31:56Z</time></trkpt>
<trkpt lat="23.249286" lon="112.759787">
<time>2015-09-27T10:31:57Z</time></trkpt>
<trkpt lat="23.249505" lon="112.759397">
<time>2015-09-27T10:31:58Z</time></trkpt>
<trkpt lat="23.249605" lon="112.759217">
<time>2015-09-27T10:31:59Z</time></trkpt>
<trkpt lat="23.249735" lon="112.758987">
<time>2015-09-27T10:32:00Z</time></trkpt>
<trkpt lat="23.249745" lon="112.758977">
<time>2015-09-27T10:32:01Z</time></trkpt>
<trkpt lat="23.250005" lon="112.758487">
<time>2015-09-27T10:32:02Z</time></trkpt>
<trkpt lat="23.250234" lon="112.758027">
<time>2015-09-27T10:32:03Z</time></trkpt>
<trkpt lat="23.250304" lon="112.757886">
<time>2015-09-27T10:32:04Z</time></trkpt>
<trkpt lat="23.250344" lon="112.757846">
<time>2015-09-27T10:32:05Z</time></trkpt>
<trkpt lat="23.250764" lon="112.757026">
<time>2015-09-27T10:32:06Z</time></trkpt>
<trkpt lat="23.250904" lon="112.756666">
<time>2015-09-27T10:32:07Z</time></trkpt>
<trkpt lat="23.251003" lon="112.756396">
<time>2015-09-27T10:32:08Z</time></trkpt>
<trkpt lat="23.251083" lon="112.756116">
<time>2015-09-27T10:32:09Z</time></trkpt>
<trkpt lat="23.251103" lon="112.755926">
<time>2015-09-27T10:32:10Z</time></trkpt>
<trkpt lat="23.251123" lon="112.755816">
<time>2015-09-27T10:32:11Z</time></trkpt>
<trkpt lat="23.251153" lon="112.755576">
<time>2015-09-27T10:32:12Z</time></trkpt>
<trkpt lat="23.251163" lon="112.755316">
<time>2015-09-27T10:32:13Z</time></trkpt>
<trkpt lat="23.251153" lon="112.755066">
<time>2015-09-27T10:32:14Z</time></trkpt>
<trkpt lat="23.251143" lon="112.754746">
<time>2015-09-27T10:32:15Z</time></trkpt>
<trkpt lat="23.250932" lon="112.753366">
<time>2015-09-27T10:32:16Z</time></trkpt>
<trkpt lat="23.250922" lon="112.753256">
<time>2015-09-27T10:32:17Z</time></trkpt>
<trkpt lat="23.250722" lon="112.751906">
<time>2015-09-27T10:32:18Z</time></trkpt>
<trkpt lat="23.250642" lon="112.751386">
<time>2015-09-27T10:32:19Z</time></trkpt>
<trkpt lat="23.250582" lon="112.750876">
<time>2015-09-27T10:32:20Z</time></trkpt>
<trkpt lat="23.250562" lon="112.750526">
<time>2015-09-27T10:32:21Z</time></trkpt>
<trkpt lat="23.250572" lon="112.749996">
<time>2015-09-27T10:32:22Z</time></trkpt>
<trkpt lat="23.250562" lon="112.749796">
<time>2015-09-27T10:32:23Z</time></trkpt>
<trkpt lat="23.250562" lon="112.749626">
<time>2015-09-27T10:32:24Z</time></trkpt>
<trkpt lat="23.250562" lon="112.749446">
<time>2015-09-27T10:32:25Z</time></trkpt>
<trkpt lat="23.250561" lon="112.749336">
<time>2015-09-27T10:32:26Z</time></trkpt>
<trkpt lat="23.250581" lon="112.749046">
<time>2015-09-27T10:32:27Z</time></trkpt>
<trkpt lat="23.250631" lon="112.748436">
<time>2015-09-27T10:32:28Z</time></trkpt>
<trkpt lat="23.250741" lon="112.747856">
<time>2015-09-27T10:32:29Z</time></trkpt>
<trkpt lat="23.250871" lon="112.747406">
<time>2015-09-27T10:32:30Z</time></trkpt>
<trkpt lat="23.251101" lon="112.746796">
<time>2015-09-27T10:32:31Z</time></trkpt>
<trkpt lat="23.251181" lon="112.746646">
<time>2015-09-27T10:32:32Z</time></trkpt>
<trkpt lat="23.251351" lon="112.746306">
<time>2015-09-27T10:32:33Z</time></trkpt>
<trkpt lat="23.251521" lon="112.745966">
<time>2015-09-27T10:32:34Z</time></trkpt>
<trkpt lat="23.252541" lon="112.744066">
<time>2015-09-27T10:32:35Z</time></trkpt>
<trkpt lat="23.25402" lon="112.741417">
<time>2015-09-27T10:32:36Z</time></trkpt>
<trkpt lat="23.25501" lon="112.739538">
<time>2015-09-27T10:32:37Z</time></trkpt>
<trkpt lat="23.25579" lon="112.737629">
<time>2015-09-27T10:32:38Z</time></trkpt>
<trkpt lat="23.256271" lon="112.73628">
<time>2015-09-27T10:32:39Z</time></trkpt>
<trkpt lat="23.257922" lon="112.731693">
<time>2015-09-27T10:32:40Z</time></trkpt>
<trkpt lat="23.259755" lon="112.726587">
<time>2015-09-27T10:32:41Z</time></trkpt>
<trkpt lat="23.261247" lon="112.722551">
<time>2015-09-27T10:32:42Z</time></trkpt>
<trkpt lat="23.261267" lon="112.722491">
<time>2015-09-27T10:32:43Z</time></trkpt>
<trkpt lat="23.264034" lon="112.714961">
<time>2015-09-27T10:32:44Z</time></trkpt>
<trkpt lat="23.264184" lon="112.714561">
<time>2015-09-27T10:32:45Z</time></trkpt>
<trkpt lat="23.264505" lon="112.713653">
<time>2015-09-27T10:32:46Z</time></trkpt>
<trkpt lat="23.264836" lon="112.712694">
<time>2015-09-27T10:32:47Z</time></trkpt>
<trkpt lat="23.264866" lon="112.712614">
<time>2015-09-27T10:32:48Z</time></trkpt>
<trkpt lat="23.264896" lon="112.712554">
<time>2015-09-27T10:32:49Z</time></trkpt>
<trkpt lat="23.264916" lon="112.712474">
<time>2015-09-27T10:32:50Z</time></trkpt>
<trkpt lat="23.265317" lon="112.711326">
<time>2015-09-27T10:32:51Z</time></trkpt>
<trkpt lat="23.265638" lon="112.710407">
<time>2015-09-27T10:32:52Z</time></trkpt>
<trkpt lat="23.265699" lon="112.710248">
<time>2015-09-27T10:32:53Z</time></trkpt>
<trkpt lat="23.265819" lon="112.709868">
<time>2015-09-27T10:32:54Z</time></trkpt>
<trkpt lat="23.265979" lon="112.709379">
<time>2015-09-27T10:32:55Z</time></trkpt>
<trkpt lat="23.266" lon="112.709329">
<time>2015-09-27T10:32:56Z</time></trkpt>
<trkpt lat="23.266381" lon="112.708171">
<time>2015-09-27T10:32:57Z</time></trkpt>
<trkpt lat="23.266541" lon="112.707682">
<time>2015-09-27T10:32:58Z</time></trkpt>
<trkpt lat="23.266622" lon="112.707422">
<time>2015-09-27T10:32:59Z</time></trkpt>
<trkpt lat="23.266732" lon="112.707073">
<time>2015-09-27T10:33:00Z</time></trkpt>
<trkpt lat="23.266833" lon="112.706723">
<time>2015-09-27T10:33:01Z</time></trkpt>
<trkpt lat="23.266933" lon="112.706364">
<time>2015-09-27T10:33:02Z</time></trkpt>
<trkpt lat="23.267214" lon="112.705346">
<time>2015-09-27T10:33:03Z</time></trkpt>
<trkpt lat="23.267234" lon="112.705286">
<time>2015-09-27T10:33:04Z</time></trkpt>
<trkpt lat="23.267606" lon="112.703788">
<time>2015-09-27T10:33:05Z</time></trkpt>
<trkpt lat="23.267697" lon="112.703469">
<time>2015-09-27T10:33:06Z</time></trkpt>
<trkpt lat="23.267797" lon="112.703079">
<time>2015-09-27T10:33:07Z</time></trkpt>
<trkpt lat="23.267868" lon="112.70281">
<time>2015-09-27T10:33:08Z</time></trkpt>
<trkpt lat="23.268119" lon="112.701832">
<time>2015-09-27T10:33:09Z</time></trkpt>
<trkpt lat="23.268441" lon="112.700275">
<time>2015-09-27T10:33:10Z</time></trkpt>
<trkpt lat="23.268543" lon="112.699067">
<time>2015-09-27T10:33:11Z</time></trkpt>
<trkpt lat="23.268544" lon="112.698468">
<time>2015-09-27T10:33:12Z</time></trkpt>
<trkpt lat="23.268545" lon="112.697629">
<time>2015-09-27T10:33:13Z</time></trkpt>
<trkpt lat="23.268114" lon="112.69234">
<time>2015-09-27T10:33:14Z</time></trkpt>
<trkpt lat="23.268045" lon="112.691462">
<time>2015-09-27T10:33:15Z</time></trkpt>
<trkpt lat="23.268026" lon="112.691272">
<time>2015-09-27T10:33:16Z</time></trkpt>
<trkpt lat="23.267977" lon="112.690573">
<time>2015-09-27T10:33:17Z</time></trkpt>
<trkpt lat="23.267957" lon="112.690374">
<time>2015-09-27T10:33:18Z</time></trkpt>
<trkpt lat="23.267957" lon="112.690374">
<time>2015-09-27T10:33:19Z</time></trkpt>
<trkpt lat="23.267679" lon="112.689655">
<time>2015-09-27T10:33:20Z</time></trkpt>
<trkpt lat="23.267529" lon="112.689166">
<time>2015-09-27T10:33:21Z</time></trkpt>
<trkpt lat="23.26737" lon="112.688628">
<time>2015-09-27T10:33:22Z</time></trkpt>
<trkpt lat="23.267271" lon="112.688238">
<time>2015-09-27T10:33:23Z</time></trkpt>
<trkpt lat="23.267142" lon="112.68769">
<time>2015-09-27T10:33:24Z</time></trkpt>
<trkpt lat="23.266963" lon="112.687041">
<time>2015-09-27T10:33:25Z</time></trkpt>
<trkpt lat="23.266874" lon="112.686791">
<time>2015-09-27T10:33:26Z</time></trkpt>
<trkpt lat="23.266774" lon="112.686532">
<time>2015-09-27T10:33:27Z</time></trkpt>
<trkpt lat="23.266565" lon="112.686063">
<time>2015-09-27T10:33:28Z</time></trkpt>
<trkpt lat="23.266406" lon="112.685834">
<time>2015-09-27T10:33:29Z</time></trkpt>
<trkpt lat="23.265897" lon="112.685265">
<time>2015-09-27T10:33:30Z</time></trkpt>
<trkpt lat="23.265867" lon="112.685235">
<time>2015-09-27T10:33:31Z</time></trkpt>
<trkpt lat="23.265408" lon="112.684686">
<time>2015-09-27T10:33:32Z</time></trkpt>
<trkpt lat="23.264899" lon="112.684117">
<time>2015-09-27T10:33:33Z</time></trkpt>
<trkpt lat="23.26472" lon="112.683918">
<time>2015-09-27T10:33:34Z</time></trkpt>
<trkpt lat="23.264001" lon="112.68308">
<time>2015-09-27T10:33:35Z</time></trkpt>
<trkpt lat="23.263852" lon="112.6829">
<time>2015-09-27T10:33:36Z</time></trkpt>
<trkpt lat="23.263323" lon="112.682271">
<time>2015-09-27T10:33:37Z</time></trkpt>
<trkpt lat="23.262924" lon="112.681822">
<time>2015-09-27T10:33:38Z</time></trkpt>
<trkpt lat="23.262784" lon="112.681653">
<time>2015-09-27T10:33:39Z</time></trkpt>
<trkpt lat="23.262535" lon="112.681304">
<time>2015-09-27T10:33:40Z</time></trkpt>
<trkpt lat="23.262366" lon="112.681034">
<time>2015-09-27T10:33:41Z</time></trkpt>
<trkpt lat="23.262336" lon="112.680974">
<time>2015-09-27T10:33:42Z</time></trkpt>
<trkpt lat="23.262306" lon="112.680904">
<time>2015-09-27T10:33:43Z</time></trkpt>
<trkpt lat="23.262246" lon="112.680725">
<time>2015-09-27T10:33:44Z</time></trkpt>
<trkpt lat="23.262236" lon="112.680705">
<time>2015-09-27T10:33:45Z</time></trkpt>
<trkpt lat="23.262087" lon="112.680236">
<time>2015-09-27T10:33:46Z</time></trkpt>
<trkpt lat="23.262018" lon="112.680006">
<time>2015-09-27T10:33:47Z</time></trkpt>
<trkpt lat="23.261958" lon="112.679817">
<time>2015-09-27T10:33:48Z</time></trkpt>
<trkpt lat="23.261829" lon="112.679448">
<time>2015-09-27T10:33:49Z</time></trkpt>
<trkpt lat="23.26159" lon="112.678719">
<time>2015-09-27T10:33:50Z</time></trkpt>
<trkpt lat="23.26158" lon="112.678699">
<time>2015-09-27T10:33:51Z</time></trkpt>
<trkpt lat="23.261491" lon="112.67845">
<time>2015-09-27T10:33:52Z</time></trkpt>
<trkpt lat="23.261222" lon="112.677632">
<time>2015-09-27T10:33:53Z</time></trkpt>
<trkpt lat="23.260815" lon="112.676415">
<time>2015-09-27T10:33:54Z</time></trkpt>
<trkpt lat="23.260735" lon="112.676175">
<time>2015-09-27T10:33:55Z</time></trkpt>
<trkpt lat="23.260576" lon="112.675686">
<time>2015-09-27T10:33:56Z</time></trkpt>
<trkpt lat="23.260566" lon="112.675566">
<time>2015-09-27T10:33:57Z</time></trkpt>
<trkpt lat="23.260497" lon="112.675068">
<time>2015-09-27T10:33:58Z</time></trkpt>
<trkpt lat="23.260497" lon="112.675068">
<time>2015-09-27T10:33:59Z</time></trkpt>
<trkpt lat="23.260508" lon="112.674918">
<time>2015-09-27T10:34:00Z</time></trkpt>
<trkpt lat="23.260328" lon="112.674609">
<time>2015-09-27T10:34:01Z</time></trkpt>
<trkpt lat="23.260229" lon="112.674429">
<time>2015-09-27T10:34:02Z</time></trkpt>
<trkpt lat="23.25986" lon="112.673581">
<time>2015-09-27T10:34:03Z</time></trkpt>
<trkpt lat="23.259721" lon="112.673152">
<time>2015-09-27T10:34:04Z</time></trkpt>
<trkpt lat="23.258787" lon="112.670318">
<time>2015-09-27T10:34:05Z</time></trkpt>
<trkpt lat="23.258161" lon="112.668403">
<time>2015-09-27T10:34:06Z</time></trkpt>
<trkpt lat="23.258151" lon="112.668383">
<time>2015-09-27T10:34:07Z</time></trkpt>
<trkpt lat="23.258101" lon="112.668243">
<time>2015-09-27T10:34:08Z</time></trkpt>
<trkpt lat="23.258002" lon="112.667934">
<time>2015-09-27T10:34:09Z</time></trkpt>
<trkpt lat="23.257385" lon="112.666178">
<time>2015-09-27T10:34:10Z</time></trkpt>
<trkpt lat="23.256291" lon="112.663105">
<time>2015-09-27T10:34:11Z</time></trkpt>
<trkpt lat="23.256291" lon="112.663095">
<time>2015-09-27T10:34:12Z</time></trkpt>
<trkpt lat="23.256202" lon="112.662846">
<time>2015-09-27T10:34:13Z</time></trkpt>
<trkpt lat="23.255446" lon="112.66071">
<time>2015-09-27T10:34:14Z</time></trkpt>
<trkpt lat="23.255377" lon="112.660501">
<time>2015-09-27T10:34:15Z</time></trkpt>
<trkpt lat="23.254112" lon="112.657677">
<time>2015-09-27T10:34:16Z</time></trkpt>
<trkpt lat="23.250717" lon="112.650094">
<time>2015-09-27T10:34:17Z</time></trkpt>
<trkpt lat="23.250717" lon="112.650084">
<time>2015-09-27T10:34:18Z</time></trkpt>
<trkpt lat="23.25019" lon="112.648907">
<time>2015-09-27T10:34:19Z</time></trkpt>
<trkpt lat="23.249991" lon="112.648468">
<time>2015-09-27T10:34:20Z</time></trkpt>
<trkpt lat="23.249214" lon="112.646831">
<time>2015-09-27T10:34:21Z</time></trkpt>
<trkpt lat="23.248815" lon="112.646003">
<time>2015-09-27T10:34:22Z</time></trkpt>
<trkpt lat="23.247022" lon="112.642251">
<time>2015-09-27T10:34:23Z</time></trkpt>
<trkpt lat="23.245299" lon="112.638648">
<time>2015-09-27T10:34:24Z</time></trkpt>
<trkpt lat="23.244193" lon="112.636342">
<time>2015-09-27T10:34:25Z</time></trkpt>
<trkpt lat="23.243993" lon="112.635933">
<time>2015-09-27T10:34:26Z</time></trkpt>
<trkpt lat="23.24225" lon="112.63222">
<time>2015-09-27T10:34:27Z</time></trkpt>
<trkpt lat="23.241771" lon="112.631221">
<time>2015-09-27T10:34:28Z</time></trkpt>
<trkpt lat="23.241213" lon="112.630024">
<time>2015-09-27T10:34:29Z</time></trkpt>
<trkpt lat="23.240316" lon="112.628137">
<time>2015-09-27T10:34:30Z</time></trkpt>
<trkpt lat="23.240146" lon="112.627777">
<time>2015-09-27T10:34:31Z</time></trkpt>
<trkpt lat="23.23912" lon="112.624992">
<time>2015-09-27T10:34:32Z</time></trkpt>
<trkpt lat="23.238054" lon="112.622116">
<time>2015-09-27T10:34:33Z</time></trkpt>
<trkpt lat="23.23614" lon="112.617013">
<time>2015-09-27T10:34:34Z</time></trkpt>
<trkpt lat="23.234944" lon="112.613807">
<time>2015-09-27T10:34:35Z</time></trkpt>
<trkpt lat="23.234405" lon="112.612388">
<time>2015-09-27T10:34:36Z</time></trkpt>
<trkpt lat="23.233677" lon="112.61046">
<time>2015-09-27T10:34:37Z</time></trkpt>
<trkpt lat="23.233068" lon="112.609061">
<time>2015-09-27T10:34:38Z</time></trkpt>
<trkpt lat="23.233028" lon="112.608971">
<time>2015-09-27T10:34:39Z</time></trkpt>
<trkpt lat="23.232399" lon="112.607733">
<time>2015-09-27T10:34:40Z</time></trkpt>
<trkpt lat="23.232069" lon="112.607223">
<time>2015-09-27T10:34:41Z</time></trkpt>
<trkpt lat="23.23117" lon="112.605784">
<time>2015-09-27T10:34:42Z</time></trkpt>
<trkpt lat="23.230781" lon="112.605155">
<time>2015-09-27T10:34:43Z</time></trkpt>
<trkpt lat="23.230501" lon="112.604715">
<time>2015-09-27T10:34:44Z</time></trkpt>
<trkpt lat="23.230381" lon="112.604525">
<time>2015-09-27T10:34:45Z</time></trkpt>
<trkpt lat="23.229912" lon="112.603786">
<time>2015-09-27T10:34:46Z</time></trkpt>
<trkpt lat="23.227454" lon="112.599908">
<time>2015-09-27T10:34:47Z</time></trkpt>
<trkpt lat="23.227284" lon="112.599638">
<time>2015-09-27T10:34:48Z</time></trkpt>
<trkpt lat="23.227234" lon="112.599558">
<time>2015-09-27T10:34:49Z</time></trkpt>
<trkpt lat="23.227224" lon="112.599538">
<time>2015-09-27T10:34:50Z</time></trkpt>
<trkpt lat="23.227204" lon="112.599508">
<time>2015-09-27T10:34:51Z</time></trkpt>
<trkpt lat="23.227015" lon="112.599208">
<time>2015-09-27T10:34:52Z</time></trkpt>
<trkpt lat="23.226755" lon="112.598839">
<time>2015-09-27T10:34:53Z</time></trkpt>
<trkpt lat="23.226495" lon="112.598479">
<time>2015-09-27T10:34:54Z</time></trkpt>
<trkpt lat="23.225066" lon="112.596629">
<time>2015-09-27T10:34:55Z</time></trkpt>
<trkpt lat="23.224536" lon="112.59606">
<time>2015-09-27T10:34:56Z</time></trkpt>
<trkpt lat="23.224406" lon="112.59591">
<time>2015-09-27T10:34:57Z</time></trkpt>
<trkpt lat="23.223577" lon="112.59499">
<time>2015-09-27T10:34:58Z</time></trkpt>
<trkpt lat="23.223457" lon="112.59485">
<time>2015-09-27T10:34:59Z</time></trkpt>
<trkpt lat="23.223337" lon="112.59471">
<time>2015-09-27T10:35:00Z</time></trkpt>
<trkpt lat="23.223237" lon="112.59457">
<time>2015-09-27T10:35:01Z</time></trkpt>
<trkpt lat="23.223047" lon="112.59428">
<time>2015-09-27T10:35:02Z</time></trkpt>
<trkpt lat="23.222877" lon="112.59396">
<time>2015-09-27T10:35:03Z</time></trkpt>
<trkpt lat="23.222667" lon="112.5936">
<time>2015-09-27T10:35:04Z</time></trkpt>
<trkpt lat="23.222597" lon="112.59345">
<time>2015-09-27T10:35:05Z</time></trkpt>
<trkpt lat="23.222547" lon="112.59336">
<time>2015-09-27T10:35:06Z</time></trkpt>
<trkpt lat="23.222427" lon="112.59309">
<time>2015-09-27T10:35:07Z</time></trkpt>
<trkpt lat="23.221897" lon="112.591781">
<time>2015-09-27T10:35:08Z</time></trkpt>
<trkpt lat="23.221347" lon="112.590421">
<time>2015-09-27T10:35:09Z</time></trkpt>
<trkpt lat="23.221167" lon="112.590001">
<time>2015-09-27T10:35:10Z</time></trkpt>
<trkpt lat="23.220557" lon="112.588491">
<time>2015-09-27T10:35:11Z</time></trkpt>
<trkpt lat="23.220477" lon="112.588311">
<time>2015-09-27T10:35:12Z</time></trkpt>
<trkpt lat="23.220427" lon="112.588211">
<time>2015-09-27T10:35:13Z</time></trkpt>
<trkpt lat="23.220397" lon="112.588151">
<time>2015-09-27T10:35:14Z</time></trkpt>
<trkpt lat="23.220187" lon="112.587831">
<time>2015-09-27T10:35:15Z</time></trkpt>
<trkpt lat="23.219937" lon="112.587481">
<time>2015-09-27T10:35:16Z</time></trkpt>
<trkpt lat="23.219717" lon="112.587221">
<time>2015-09-27T10:35:17Z</time></trkpt>
<trkpt lat="23.219607" lon="112.587091">
<time>2015-09-27T10:35:18Z</time></trkpt>
<trkpt lat="23.219447" lon="112.586901">
<time>2015-09-27T10:35:19Z</time></trkpt>
<trkpt lat="23.219137" lon="112.586591">
<time>2015-09-27T10:35:20Z</time></trkpt>
<trkpt lat="23.219067" lon="112.586541">
<time>2015-09-27T10:35:21Z</time></trkpt>
<trkpt lat="23.218937" lon="112.586441">
<time>2015-09-27T10:35:22Z</time></trkpt>
<trkpt lat="23.218767" lon="112.586321">
<time>2015-09-27T10:35:23Z</time></trkpt>
<trkpt lat="23.217168" lon="112.585281">
<time>2015-09-27T10:35:24Z</time></trkpt>
<trkpt lat="23.216828" lon="112.58506">
<time>2015-09-27T10:35:25Z</time></trkpt>
<trkpt lat="23.214958" lon="112.58408">
<time>2015-09-27T10:35:26Z</time></trkpt>
<trkpt lat="23.213408" lon="112.58327">
<time>2015-09-27T10:35:27Z</time></trkpt>
<trkpt lat="23.213288" lon="112.5832">
<time>2015-09-27T10:35:28Z</time></trkpt>
<trkpt lat="23.213178" lon="112.58313">
<time>2015-09-27T10:35:29Z</time></trkpt>
<trkpt lat="23.212938" lon="112.58296">
<time>2015-09-27T10:35:30Z</time></trkpt>
<trkpt lat="23.211148" lon="112.58156">
<time>2015-09-27T10:35:31Z</time></trkpt>
<trkpt lat="23.210058" lon="112.580709">
<time>2015-09-27T10:35:32Z</time></trkpt>
<trkpt lat="23.208858" lon="112.579829">
<time>2015-09-27T10:35:33Z</time></trkpt>
<trkpt lat="23.208128" lon="112.579289">
<time>2015-09-27T10:35:34Z</time></trkpt>
<trkpt lat="23.207448" lon="112.578809">
<time>2015-09-27T10:35:35Z</time></trkpt>
<trkpt lat="23.207048" lon="112.578559">
<time>2015-09-27T10:35:36Z</time></trkpt>
<trkpt lat="23.205518" lon="112.577688">
<time>2015-09-27T10:35:37Z</time></trkpt>
<trkpt lat="23.205488" lon="112.577668">
<time>2015-09-27T10:35:38Z</time></trkpt>
<trkpt lat="23.205468" lon="112.577658">
<time>2015-09-27T10:35:39Z</time></trkpt>
<trkpt lat="23.205208" lon="112.577508">
<time>2015-09-27T10:35:40Z</time></trkpt>
<trkpt lat="23.204648" lon="112.577178">
<time>2015-09-27T10:35:41Z</time></trkpt>
<trkpt lat="23.204618" lon="112.577168">
<time>2015-09-27T10:35:42Z</time></trkpt>
<trkpt lat="23.202038" lon="112.575677">
<time>2015-09-27T10:35:43Z</time></trkpt>
<trkpt lat="23.200678" lon="112.574897">
<time>2015-09-27T10:35:44Z</time></trkpt>
<trkpt lat="23.199737" lon="112.574316">
<time>2015-09-27T10:35:45Z</time></trkpt>
<trkpt lat="23.199257" lon="112.574026">
<time>2015-09-27T10:35:46Z</time></trkpt>
<trkpt lat="23.199217" lon="112.573996">
<time>2015-09-27T10:35:47Z</time></trkpt>
<trkpt lat="23.198737" lon="112.573706">
<time>2015-09-27T10:35:48Z</time></trkpt>
<trkpt lat="23.195917" lon="112.571974">
<time>2015-09-27T10:35:49Z</time></trkpt>
<trkpt lat="23.195547" lon="112.571754">
<time>2015-09-27T10:35:50Z</time></trkpt>
<trkpt lat="23.195447" lon="112.571694">
<time>2015-09-27T10:35:51Z</time></trkpt>
<trkpt lat="23.195067" lon="112.571504">
<time>2015-09-27T10:35:52Z</time></trkpt>
<trkpt lat="23.194927" lon="112.571434">
<time>2015-09-27T10:35:53Z</time></trkpt>
<trkpt lat="23.194867" lon="112.571404">
<time>2015-09-27T10:35:54Z</time></trkpt>
<trkpt lat="23.194777" lon="112.571374">
<time>2015-09-27T10:35:55Z</time></trkpt>
<trkpt lat="23.194717" lon="112.571354">
<time>2015-09-27T10:35:56Z</time></trkpt>
<trkpt lat="23.194667" lon="112.571344">
<time>2015-09-27T10:35:57Z</time></trkpt>
<trkpt lat="23.194577" lon="112.571324">
<time>2015-09-27T10:35:58Z</time></trkpt>
<trkpt lat="23.194347" lon="112.571294">
<time>2015-09-27T10:35:59Z</time></trkpt>
<trkpt lat="23.194347" lon="112.571294">
<time>2015-09-27T10:36:00Z</time></trkpt>
<trkpt lat="23.194347" lon="112.571284">
<time>2015-09-27T10:36:01Z</time></trkpt>
<trkpt lat="23.194347" lon="112.571264">
<time>2015-09-27T10:36:02Z</time></trkpt>
<trkpt lat="23.194337" lon="112.571254">
<time>2015-09-27T10:36:03Z</time></trkpt>
<trkpt lat="23.194337" lon="112.571244">
<time>2015-09-27T10:36:04Z</time></trkpt>
<trkpt lat="23.194327" lon="112.571234">
<time>2015-09-27T10:36:05Z</time></trkpt>
<trkpt lat="23.194317" lon="112.571224">
<time>2015-09-27T10:36:06Z</time></trkpt>
<trkpt lat="23.194307" lon="112.571214">
<time>2015-09-27T10:36:07Z</time></trkpt>
<trkpt lat="23.194297" lon="112.571204">
<time>2015-09-27T10:36:08Z</time></trkpt>
<trkpt lat="23.194267" lon="112.571194">
<time>2015-09-27T10:36:09Z</time></trkpt>
<trkpt lat="23.194237" lon="112.571194">
<time>2015-09-27T10:36:10Z</time></trkpt>
<trkpt lat="23.194217" lon="112.571194">
<time>2015-09-27T10:36:11Z</time></trkpt>
<trkpt lat="23.194196" lon="112.570603">
<time>2015-09-27T10:36:12Z</time></trkpt>
<trkpt lat="23.194196" lon="112.570503">
<time>2015-09-27T10:36:13Z</time></trkpt>
<trkpt lat="23.194186" lon="112.570373">
<time>2015-09-27T10:36:14Z</time></trkpt>
<trkpt lat="23.194116" lon="112.570063">
<time>2015-09-27T10:36:15Z</time></trkpt>
<trkpt lat="23.194035" lon="112.569772">
<time>2015-09-27T10:36:16Z</time></trkpt>
<trkpt lat="23.193945" lon="112.569522">
<time>2015-09-27T10:36:17Z</time></trkpt>
<trkpt lat="23.193384" lon="112.568201">
<time>2015-09-27T10:36:18Z</time></trkpt>
<trkpt lat="23.193374" lon="112.568201">
<time>2015-09-27T10:36:19Z</time></trkpt>
<trkpt lat="23.193294" lon="112.568011">
<time>2015-09-27T10:36:20Z</time></trkpt>
<trkpt lat="23.193193" lon="112.56779">
<time>2015-09-27T10:36:21Z</time></trkpt>
<trkpt lat="23.193163" lon="112.56771">
<time>2015-09-27T10:36:22Z</time></trkpt>
<trkpt lat="23.193123" lon="112.56764">
<time>2015-09-27T10:36:23Z</time></trkpt>
<trkpt lat="23.193103" lon="112.56761">
<time>2015-09-27T10:36:24Z</time></trkpt>
<trkpt lat="23.193053" lon="112.56755">
<time>2015-09-27T10:36:25Z</time></trkpt>
<trkpt lat="23.193033" lon="112.56752">
<time>2015-09-27T10:36:26Z</time></trkpt>
<trkpt lat="23.192963" lon="112.56744">
<time>2015-09-27T10:36:27Z</time></trkpt>
<trkpt lat="23.192843" lon="112.56731">
<time>2015-09-27T10:36:28Z</time></trkpt>
<trkpt lat="23.192633" lon="112.5671">
<time>2015-09-27T10:36:29Z</time></trkpt>
<trkpt lat="23.192573" lon="112.56705">
<time>2015-09-27T10:36:30Z</time></trkpt>
<trkpt lat="23.192523" lon="112.567">
<time>2015-09-27T10:36:31Z</time></trkpt>
<trkpt lat="23.191592" lon="112.566249">
<time>2015-09-27T10:36:32Z</time></trkpt>
<trkpt lat="23.191552" lon="112.566219">
<time>2015-09-27T10:36:33Z</time></trkpt>
<trkpt lat="23.190972" lon="112.565788">
<time>2015-09-27T10:36:34Z</time></trkpt>
<trkpt lat="23.190962" lon="112.565778">
<time>2015-09-27T10:36:35Z</time></trkpt>
<trkpt lat="23.190041" lon="112.565108">
<time>2015-09-27T10:36:36Z</time></trkpt>
<trkpt lat="23.189011" lon="112.564317">
<time>2015-09-27T10:36:37Z</time></trkpt>
<trkpt lat="23.188931" lon="112.564257">
<time>2015-09-27T10:36:38Z</time></trkpt>
<trkpt lat="23.18811" lon="112.563696">
<time>2015-09-27T10:36:39Z</time></trkpt>
<trkpt lat="23.18804" lon="112.563656">
<time>2015-09-27T10:36:40Z</time></trkpt>
<trkpt lat="23.18793" lon="112.563576">
<time>2015-09-27T10:36:41Z</time></trkpt>
<trkpt lat="23.18779" lon="112.563506">
<time>2015-09-27T10:36:42Z</time></trkpt>
<trkpt lat="23.18776" lon="112.563486">
<time>2015-09-27T10:36:43Z</time></trkpt>
<trkpt lat="23.18725" lon="112.563305">
<time>2015-09-27T10:36:44Z</time></trkpt>
<trkpt lat="23.18663" lon="112.563155">
<time>2015-09-27T10:36:45Z</time></trkpt>
<trkpt lat="23.18635" lon="112.563125">
<time>2015-09-27T10:36:46Z</time></trkpt>
<trkpt lat="23.18581" lon="112.563115">
<time>2015-09-27T10:36:47Z</time></trkpt>
<trkpt lat="23.18576" lon="112.563085">
<time>2015-09-27T10:36:48Z</time></trkpt>
<trkpt lat="23.185201" lon="112.563125">
<time>2015-09-27T10:36:49Z</time></trkpt>
<trkpt lat="23.183122" lon="112.563336">
<time>2015-09-27T10:36:50Z</time></trkpt>
<trkpt lat="23.181822" lon="112.563466">
<time>2015-09-27T10:36:51Z</time></trkpt>
<trkpt lat="23.181153" lon="112.563586">
<time>2015-09-27T10:36:52Z</time></trkpt>
<trkpt lat="23.180583" lon="112.563777">
<time>2015-09-27T10:36:53Z</time></trkpt>
<trkpt lat="23.178705" lon="112.564488">
<time>2015-09-27T10:36:54Z</time></trkpt>
<trkpt lat="23.176477" lon="112.565359">
<time>2015-09-27T10:36:55Z</time></trkpt>
<trkpt lat="23.174748" lon="112.56602">
<time>2015-09-27T10:36:56Z</time></trkpt>
<trkpt lat="23.174329" lon="112.56612">
<time>2015-09-27T10:36:57Z</time></trkpt>
<trkpt lat="23.174139" lon="112.56614">
<time>2015-09-27T10:36:58Z</time></trkpt>
<trkpt lat="23.173879" lon="112.56613">
<time>2015-09-27T10:36:59Z</time></trkpt>
<trkpt lat="23.173659" lon="112.5661">
<time>2015-09-27T10:37:00Z</time></trkpt>
<trkpt lat="23.173629" lon="112.56609">
<time>2015-09-27T10:37:01Z</time></trkpt>
<trkpt lat="23.173519" lon="112.56605">
<time>2015-09-27T10:37:02Z</time></trkpt>
<trkpt lat="23.173369" lon="112.56599">
<time>2015-09-27T10:37:03Z</time></trkpt>
<trkpt lat="23.173229" lon="112.56593">
<time>2015-09-27T10:37:04Z</time></trkpt>
<trkpt lat="23.173109" lon="112.56585">
<time>2015-09-27T10:37:05Z</time></trkpt>
<trkpt lat="23.173069" lon="112.56583">
<time>2015-09-27T10:37:06Z</time></trkpt>
<trkpt lat="23.172438" lon="112.565349">
<time>2015-09-27T10:37:07Z</time></trkpt>
<trkpt lat="23.171468" lon="112.564618">
<time>2015-09-27T10:37:08Z</time></trkpt>
<trkpt lat="23.171028" lon="112.564288">
<time>2015-09-27T10:37:09Z</time></trkpt>
<trkpt lat="23.170097" lon="112.563537">
<time>2015-09-27T10:37:10Z</time></trkpt>
<trkpt lat="23.170017" lon="112.563467">
<time>2015-09-27T10:37:11Z</time></trkpt>
<trkpt lat="23.169527" lon="112.563096">
<time>2015-09-27T10:37:12Z</time></trkpt>
<trkpt lat="23.169036" lon="112.562826">
<time>2015-09-27T10:37:13Z</time></trkpt>
<trkpt lat="23.168416" lon="112.562546">
<time>2015-09-27T10:37:14Z</time></trkpt>
<trkpt lat="23.167836" lon="112.562285">
<time>2015-09-27T10:37:15Z</time></trkpt>
<trkpt lat="23.167666" lon="112.562155">
<time>2015-09-27T10:37:16Z</time></trkpt>
<trkpt lat="23.167516" lon="112.562055">
<time>2015-09-27T10:37:17Z</time></trkpt>
<trkpt lat="23.167286" lon="112.561865">
<time>2015-09-27T10:37:18Z</time></trkpt>
<trkpt lat="23.167126" lon="112.561705">
<time>2015-09-27T10:37:19Z</time></trkpt>
<trkpt lat="23.166955" lon="112.561494">
<time>2015-09-27T10:37:20Z</time></trkpt>
<trkpt lat="23.166825" lon="112.561284">
<time>2015-09-27T10:37:21Z</time></trkpt>
<trkpt lat="23.166675" lon="112.561004">
<time>2015-09-27T10:37:22Z</time></trkpt>
<trkpt lat="23.166645" lon="112.560954">
<time>2015-09-27T10:37:23Z</time></trkpt>
<trkpt lat="23.166484" lon="112.560623">
<time>2015-09-27T10:37:24Z</time></trkpt>
<trkpt lat="23.166314" lon="112.560243">
<time>2015-09-27T10:37:25Z</time></trkpt>
<trkpt lat="23.166143" lon="112.559862">
<time>2015-09-27T10:37:26Z</time></trkpt>
<trkpt lat="23.165893" lon="112.559461">
<time>2015-09-27T10:37:27Z</time></trkpt>
<trkpt lat="23.165602" lon="112.559071">
<time>2015-09-27T10:37:28Z</time></trkpt>
<trkpt lat="23.164871" lon="112.55822">
<time>2015-09-27T10:37:29Z</time></trkpt>
<trkpt lat="23.16372" lon="112.556938">
<time>2015-09-27T10:37:30Z</time></trkpt>
<trkpt lat="23.163349" lon="112.556507">
<time>2015-09-27T10:37:31Z</time></trkpt>
<trkpt lat="23.163089" lon="112.556277">
<time>2015-09-27T10:37:32Z</time></trkpt>
<trkpt lat="23.162809" lon="112.556026">
<time>2015-09-27T10:37:33Z</time></trkpt>
<trkpt lat="23.162519" lon="112.555836">
<time>2015-09-27T10:37:34Z</time></trkpt>
<trkpt lat="23.162278" lon="112.555716">
<time>2015-09-27T10:37:35Z</time></trkpt>
<trkpt lat="23.162088" lon="112.555646">
<time>2015-09-27T10:37:36Z</time></trkpt>
<trkpt lat="23.161948" lon="112.555616">
<time>2015-09-27T10:37:37Z</time></trkpt>
<trkpt lat="23.161868" lon="112.555596">
<time>2015-09-27T10:37:38Z</time></trkpt>
<trkpt lat="23.161698" lon="112.555566">
<time>2015-09-27T10:37:39Z</time></trkpt>
<trkpt lat="23.161698" lon="112.555566">
<time>2015-09-27T10:37:40Z</time></trkpt>
<trkpt lat="23.161588" lon="112.555516">
<time>2015-09-27T10:37:41Z</time></trkpt>
<trkpt lat="23.161488" lon="112.555506">
<time>2015-09-27T10:37:42Z</time></trkpt>
<trkpt lat="23.161248" lon="112.555496">
<time>2015-09-27T10:37:43Z</time></trkpt>
<trkpt lat="23.161198" lon="112.555496">
<time>2015-09-27T10:37:44Z</time></trkpt>
<trkpt lat="23.161168" lon="112.555485">
<time>2015-09-27T10:37:45Z</time></trkpt>
<trkpt lat="23.161118" lon="112.555475">
<time>2015-09-27T10:37:46Z</time></trkpt>
<trkpt lat="23.161098" lon="112.555435">
<time>2015-09-27T10:37:47Z</time></trkpt>
<trkpt lat="23.161088" lon="112.555415">
<time>2015-09-27T10:37:48Z</time></trkpt>
<trkpt lat="23.161048" lon="112.555395">
<time>2015-09-27T10:37:49Z</time></trkpt>
<trkpt lat="23.161008" lon="112.555375">
<time>2015-09-27T10:37:50Z</time></trkpt>
<trkpt lat="23.160968" lon="112.555365">
<time>2015-09-27T10:37:51Z</time></trkpt>
<trkpt lat="23.160928" lon="112.555375">
<time>2015-09-27T10:37:52Z</time></trkpt>
<trkpt lat="23.160898" lon="112.555385">
<time>2015-09-27T10:37:53Z</time></trkpt>
<trkpt lat="23.160868" lon="112.555405">
<time>2015-09-27T10:37:54Z</time></trkpt>
<trkpt lat="23.160849" lon="112.555425">
<time>2015-09-27T10:37:55Z</time></trkpt>
<trkpt lat="23.160819" lon="112.555465">
<time>2015-09-27T10:37:56Z</time></trkpt>
<trkpt lat="23.160819" lon="112.555475">
<time>2015-09-27T10:37:57Z</time></trkpt>
<trkpt lat="23.160759" lon="112.555496">
<time>2015-09-27T10:37:58Z</time></trkpt>
<trkpt lat="23.160709" lon="112.555516">
<time>2015-09-27T10:37:59Z</time></trkpt>
<trkpt lat="23.160549" lon="112.555536">
<time>2015-09-27T10:38:00Z</time></trkpt>
<trkpt lat="23.15945" lon="112.555726">
<time>2015-09-27T10:38:01Z</time></trkpt>
<trkpt lat="23.1589" lon="112.555826">
<time>2015-09-27T10:38:02Z</time></trkpt>
<trkpt lat="23.15885" lon="112.555836">
<time>2015-09-27T10:38:03Z</time></trkpt>
<trkpt lat="23.15859" lon="112.555876">
<time>2015-09-27T10:38:04Z</time></trkpt>
<trkpt lat="23.15835" lon="112.555906">
<time>2015-09-27T10:38:05Z</time></trkpt>
<trkpt lat="23.15824" lon="112.555906">
<time>2015-09-27T10:38:06Z</time></trkpt>
<trkpt lat="23.15808" lon="112.555896">
<time>2015-09-27T10:38:07Z</time></trkpt>
<trkpt lat="23.15794" lon="112.555876">
<time>2015-09-27T10:38:08Z</time></trkpt>
<trkpt lat="23.15777" lon="112.555846">
<time>2015-09-27T10:38:09Z</time></trkpt>
<trkpt lat="23.15763" lon="112.555796">
<time>2015-09-27T10:38:10Z</time></trkpt>
<trkpt lat="23.15748" lon="112.555746">
<time>2015-09-27T10:38:11Z</time></trkpt>
<trkpt lat="23.15742" lon="112.555726">
<time>2015-09-27T10:38:12Z</time></trkpt>
<trkpt lat="23.15721" lon="112.555646">
<time>2015-09-27T10:38:13Z</time></trkpt>
<trkpt lat="23.15712" lon="112.555606">
<time>2015-09-27T10:38:14Z</time></trkpt>
<trkpt lat="23.15705" lon="112.555566">
<time>2015-09-27T10:38:15Z</time></trkpt>
<trkpt lat="23.157" lon="112.555546">
<time>2015-09-27T10:38:16Z</time></trkpt>
<trkpt lat="23.15657" lon="112.555275">
<time>2015-09-27T10:38:17Z</time></trkpt>
<trkpt lat="23.15644" lon="112.555185">
<time>2015-09-27T10:38:18Z</time></trkpt>
<trkpt lat="23.15605" lon="112.554915">
<time>2015-09-27T10:38:19Z</time></trkpt>
<trkpt lat="23.155559" lon="112.554594">
<time>2015-09-27T10:38:20Z</time></trkpt>
<trkpt lat="23.155479" lon="112.554544">
<time>2015-09-27T10:38:21Z</time></trkpt>
<trkpt lat="23.154679" lon="112.554114">
<time>2015-09-27T10:38:22Z</time></trkpt>
<trkpt lat="23.154599" lon="112.554074">
<time>2015-09-27T10:38:23Z</time></trkpt>
<trkpt lat="23.154489" lon="112.554013">
<time>2015-09-27T10:38:24Z</time></trkpt>
<trkpt lat="23.154028" lon="112.553793">
<time>2015-09-27T10:38:25Z</time></trkpt>
<trkpt lat="23.153948" lon="112.553793">
<time>2015-09-27T10:38:26Z</time></trkpt>
<trkpt lat="23.153668" lon="112.553653">
<time>2015-09-27T10:38:27Z</time></trkpt>
<trkpt lat="23.153058" lon="112.553352">
<time>2015-09-27T10:38:28Z</time></trkpt>
<trkpt lat="23.150467" lon="112.55209">
<time>2015-09-27T10:38:29Z</time></trkpt>
<trkpt lat="23.149857" lon="112.55179">
<time>2015-09-27T10:38:30Z</time></trkpt>
<trkpt lat="23.149376" lon="112.551559">
<time>2015-09-27T10:38:31Z</time></trkpt>
<trkpt lat="23.149296" lon="112.551509">
<time>2015-09-27T10:38:32Z</time></trkpt>
<trkpt lat="23.148236" lon="112.550978">
<time>2015-09-27T10:38:33Z</time></trkpt>
<trkpt lat="23.147786" lon="112.550758">
<time>2015-09-27T10:38:34Z</time></trkpt>
<trkpt lat="23.146945" lon="112.550287">
<time>2015-09-27T10:38:35Z</time></trkpt>
<trkpt lat="23.146044" lon="112.549706">
<time>2015-09-27T10:38:36Z</time></trkpt>
<trkpt lat="23.144853" lon="112.548905">
<time>2015-09-27T10:38:37Z</time></trkpt>
<trkpt lat="23.144012" lon="112.548354">
<time>2015-09-27T10:38:38Z</time></trkpt>
<trkpt lat="23.14093" lon="112.54632">
<time>2015-09-27T10:38:39Z</time></trkpt>
<trkpt lat="23.14088" lon="112.54629">
<time>2015-09-27T10:38:40Z</time></trkpt>
<trkpt lat="23.140649" lon="112.546139">
<time>2015-09-27T10:38:41Z</time></trkpt>
<trkpt lat="23.139679" lon="112.545518">
<time>2015-09-27T10:38:42Z</time></trkpt>
<trkpt lat="23.138608" lon="112.544807">
<time>2015-09-27T10:38:43Z</time></trkpt>
<trkpt lat="23.137216" lon="112.543885">
<time>2015-09-27T10:38:44Z</time></trkpt>
<trkpt lat="23.136656" lon="112.543484">
<time>2015-09-27T10:38:45Z</time></trkpt>
<trkpt lat="23.135965" lon="112.543053">
<time>2015-09-27T10:38:46Z</time></trkpt>
<trkpt lat="23.135965" lon="112.543053">
<time>2015-09-27T10:38:47Z</time></trkpt>
<trkpt lat="23.135935" lon="112.543013">
<time>2015-09-27T10:38:48Z</time></trkpt>
<trkpt lat="23.135654" lon="112.542492">
<time>2015-09-27T10:38:49Z</time></trkpt>
<trkpt lat="23.135533" lon="112.542231">
<time>2015-09-27T10:38:50Z</time></trkpt>
<trkpt lat="23.135393" lon="112.541931">
<time>2015-09-27T10:38:51Z</time></trkpt>
<trkpt lat="23.135292" lon="112.54166">
<time>2015-09-27T10:38:52Z</time></trkpt>
<trkpt lat="23.135192" lon="112.541329">
<time>2015-09-27T10:38:53Z</time></trkpt>
<trkpt lat="23.135081" lon="112.540918">
<time>2015-09-27T10:38:54Z</time></trkpt>
<trkpt lat="23.13502" lon="112.540598">
<time>2015-09-27T10:38:55Z</time></trkpt>
<trkpt lat="23.134959" lon="112.540247">
<time>2015-09-27T10:38:56Z</time></trkpt>
<trkpt lat="23.134928" lon="112.539716">
<time>2015-09-27T10:38:57Z</time></trkpt>
<trkpt lat="23.134917" lon="112.539214">
<time>2015-09-27T10:38:58Z</time></trkpt>
<trkpt lat="23.134933" lon="112.53747">
<time>2015-09-27T10:38:59Z</time></trkpt>
<trkpt lat="23.134951" lon="112.536378">
<time>2015-09-27T10:39:00Z</time></trkpt>
<trkpt lat="23.134957" lon="112.535054">
<time>2015-09-27T10:39:01Z</time></trkpt>
<trkpt lat="23.134976" lon="112.534403">
<time>2015-09-27T10:39:02Z</time></trkpt>
<trkpt lat="23.134965" lon="112.533952">
<time>2015-09-27T10:39:03Z</time></trkpt>
<trkpt lat="23.134914" lon="112.533601">
<time>2015-09-27T10:39:04Z</time></trkpt>
<trkpt lat="23.134763" lon="112.532999">
<time>2015-09-27T10:39:05Z</time></trkpt>
<trkpt lat="23.134682" lon="112.532699">
<time>2015-09-27T10:39:06Z</time></trkpt>
<trkpt lat="23.134601" lon="112.532488">
<time>2015-09-27T10:39:07Z</time></trkpt>
<trkpt lat="23.134531" lon="112.532318">
<time>2015-09-27T10:39:08Z</time></trkpt>
<trkpt lat="23.1344" lon="112.532057">
<time>2015-09-27T10:39:09Z</time></trkpt>
<trkpt lat="23.133215" lon="112.529731">
<time>2015-09-27T10:39:10Z</time></trkpt>
<trkpt lat="23.132231" lon="112.527846">
<time>2015-09-27T10:39:11Z</time></trkpt>
<trkpt lat="23.13209" lon="112.527565">
<time>2015-09-27T10:39:12Z</time></trkpt>
<trkpt lat="23.131226" lon="112.525891">
<time>2015-09-27T10:39:13Z</time></trkpt>
<trkpt lat="23.131035" lon="112.52559">
<time>2015-09-27T10:39:14Z</time></trkpt>
<trkpt lat="23.130905" lon="112.525409">
<time>2015-09-27T10:39:15Z</time></trkpt>
<trkpt lat="23.130775" lon="112.525239">
<time>2015-09-27T10:39:16Z</time></trkpt>
<trkpt lat="23.130564" lon="112.524998">
<time>2015-09-27T10:39:17Z</time></trkpt>
<trkpt lat="23.130404" lon="112.524848">
<time>2015-09-27T10:39:18Z</time></trkpt>
<trkpt lat="23.130233" lon="112.524707">
<time>2015-09-27T10:39:19Z</time></trkpt>
<trkpt lat="23.130013" lon="112.524547">
<time>2015-09-27T10:39:20Z</time></trkpt>
<trkpt lat="23.129723" lon="112.524387">
<time>2015-09-27T10:39:21Z</time></trkpt>
<trkpt lat="23.129342" lon="112.524206">
<time>2015-09-27T10:39:22Z</time></trkpt>
<trkpt lat="23.128782" lon="112.523966">
<time>2015-09-27T10:39:23Z</time></trkpt>
<trkpt lat="23.127861" lon="112.523585">
<time>2015-09-27T10:39:24Z</time></trkpt>
<trkpt lat="23.127841" lon="112.523585">
<time>2015-09-27T10:39:25Z</time></trkpt>
<trkpt lat="23.127071" lon="112.523274">
<time>2015-09-27T10:39:26Z</time></trkpt>
<trkpt lat="23.126911" lon="112.523203">
<time>2015-09-27T10:39:27Z</time></trkpt>
<trkpt lat="23.126911" lon="112.523203">
<time>2015-09-27T10:39:28Z</time></trkpt>
<trkpt lat="23.126891" lon="112.523294">
<time>2015-09-27T10:39:29Z</time></trkpt>
<trkpt lat="23.126891" lon="112.523294">
<time>2015-09-27T10:39:30Z</time></trkpt>
<trkpt lat="23.1259" lon="112.522903">
<time>2015-09-27T10:39:31Z</time></trkpt>
<trkpt lat="23.123669" lon="112.52197">
<time>2015-09-27T10:39:32Z</time></trkpt>
<trkpt lat="23.123258" lon="112.52172">
<time>2015-09-27T10:39:33Z</time></trkpt>
<trkpt lat="23.122928" lon="112.521499">
<time>2015-09-27T10:39:34Z</time></trkpt>
<trkpt lat="23.122767" lon="112.521379">
<time>2015-09-27T10:39:35Z</time></trkpt>
<trkpt lat="23.122627" lon="112.521268">
<time>2015-09-27T10:39:36Z</time></trkpt>
<trkpt lat="23.122517" lon="112.521178">
<time>2015-09-27T10:39:37Z</time></trkpt>
<trkpt lat="23.122357" lon="112.521018">
<time>2015-09-27T10:39:38Z</time></trkpt>
<trkpt lat="23.122136" lon="112.520797">
<time>2015-09-27T10:39:39Z</time></trkpt>
<trkpt lat="23.121885" lon="112.520486">
<time>2015-09-27T10:39:40Z</time></trkpt>
<trkpt lat="23.121835" lon="112.520426">
<time>2015-09-27T10:39:41Z</time></trkpt>
<trkpt lat="23.121624" lon="112.520145">
<time>2015-09-27T10:39:42Z</time></trkpt>
<trkpt lat="23.121103" lon="112.519393">
<time>2015-09-27T10:39:43Z</time></trkpt>
<trkpt lat="23.120972" lon="112.519212">
<time>2015-09-27T10:39:44Z</time></trkpt>
<trkpt lat="23.119426" lon="112.516936">
<time>2015-09-27T10:39:45Z</time></trkpt>
<trkpt lat="23.119075" lon="112.516424">
<time>2015-09-27T10:39:46Z</time></trkpt>
<trkpt lat="23.11783" lon="112.514599">
<time>2015-09-27T10:39:47Z</time></trkpt>
<trkpt lat="23.11777" lon="112.514529">
<time>2015-09-27T10:39:48Z</time></trkpt>
<trkpt lat="23.11773" lon="112.514479">
<time>2015-09-27T10:39:49Z</time></trkpt>
<trkpt lat="23.11768" lon="112.514418">
<time>2015-09-27T10:39:50Z</time></trkpt>
<trkpt lat="23.11759" lon="112.514328">
<time>2015-09-27T10:39:51Z</time></trkpt>
<trkpt lat="23.11749" lon="112.514238">
<time>2015-09-27T10:39:52Z</time></trkpt>
<trkpt lat="23.117399" lon="112.514168">
<time>2015-09-27T10:39:53Z</time></trkpt>
<trkpt lat="23.117379" lon="112.514158">
<time>2015-09-27T10:39:54Z</time></trkpt>
<trkpt lat="23.117229" lon="112.514037">
<time>2015-09-27T10:39:55Z</time></trkpt>
<trkpt lat="23.117239" lon="112.514047">
<time>2015-09-27T10:39:56Z</time></trkpt>
<trkpt lat="23.117249" lon="112.514047">
<time>2015-09-27T10:39:57Z</time></trkpt>
<trkpt lat="23.117259" lon="112.514047">
<time>2015-09-27T10:39:58Z</time></trkpt>
<trkpt lat="23.117269" lon="112.514057">
<time>2015-09-27T10:39:59Z</time></trkpt>
<trkpt lat="23.117279" lon="112.514057">
<time>2015-09-27T10:40:00Z</time></trkpt>
<trkpt lat="23.117289" lon="112.514057">
<time>2015-09-27T10:40:01Z</time></trkpt>
<trkpt lat="23.117299" lon="112.514057">
<time>2015-09-27T10:40:02Z</time></trkpt>
<trkpt lat="23.117319" lon="112.514047">
<time>2015-09-27T10:40:03Z</time></trkpt>
<trkpt lat="23.117329" lon="112.514047">
<time>2015-09-27T10:40:04Z</time></trkpt>
<trkpt lat="23.117339" lon="112.514037">
<time>2015-09-27T10:40:05Z</time></trkpt>
<trkpt lat="23.117349" lon="112.514037">
<time>2015-09-27T10:40:06Z</time></trkpt>
<trkpt lat="23.117359" lon="112.514027">
<time>2015-09-27T10:40:07Z</time></trkpt>
<trkpt lat="23.117369" lon="112.514017">
<time>2015-09-27T10:40:08Z</time></trkpt>
<trkpt lat="23.117369" lon="112.514007">
<time>2015-09-27T10:40:09Z</time></trkpt>
<trkpt lat="23.117379" lon="112.513997">
<time>2015-09-27T10:40:10Z</time></trkpt>
<trkpt lat="23.117389" lon="112.513987">
<time>2015-09-27T10:40:11Z</time></trkpt>
<trkpt lat="23.117389" lon="112.513977">
<time>2015-09-27T10:40:12Z</time></trkpt>
<trkpt lat="23.117399" lon="112.513967">
<time>2015-09-27T10:40:13Z</time></trkpt>
<trkpt lat="23.117399" lon="112.513957">
<time>2015-09-27T10:40:14Z</time></trkpt>
<trkpt lat="23.117399" lon="112.513947">
<time>2015-09-27T10:40:15Z</time></trkpt>
<trkpt lat="23.117399" lon="112.513937">
<time>2015-09-27T10:40:16Z</time></trkpt>
<trkpt lat="23.117399" lon="112.513927">
<time>2015-09-27T10:40:17Z</time></trkpt>
<trkpt lat="23.117399" lon="112.513917">
<time>2015-09-27T10:40:18Z</time></trkpt>
<trkpt lat="23.117399" lon="112.513907">
<time>2015-09-27T10:40:19Z</time></trkpt>
<trkpt lat="23.117389" lon="112.513897">
<time>2015-09-27T10:40:20Z</time></trkpt>
<trkpt lat="23.117389" lon="112.513887">
<time>2015-09-27T10:40:21Z</time></trkpt>
<trkpt lat="23.117379" lon="112.513877">
<time>2015-09-27T10:40:22Z</time></trkpt>
<trkpt lat="23.117379" lon="112.513867">
<time>2015-09-27T10:40:23Z</time></trkpt>
<trkpt lat="23.117369" lon="112.513857">
<time>2015-09-27T10:40:24Z</time></trkpt>
<trkpt lat="23.117359" lon="112.513847">
<time>2015-09-27T10:40:25Z</time></trkpt>
<trkpt lat="23.117349" lon="112.513847">
<time>2015-09-27T10:40:26Z</time></trkpt>
<trkpt lat="23.116927" lon="112.513245">
<time>2015-09-27T10:40:27Z</time></trkpt>
<trkpt lat="23.116857" lon="112.513145">
<time>2015-09-27T10:40:28Z</time></trkpt>
<trkpt lat="23.115361" lon="112.510888">
<time>2015-09-27T10:40:29Z</time></trkpt>
<trkpt lat="23.114999" lon="112.510356">
<time>2015-09-27T10:40:30Z</time></trkpt>
<trkpt lat="23.114598" lon="112.509744">
<time>2015-09-27T10:40:31Z</time></trkpt>
<trkpt lat="23.114427" lon="112.509413">
<time>2015-09-27T10:40:32Z</time></trkpt>
<trkpt lat="23.114407" lon="112.509373">
<time>2015-09-27T10:40:33Z</time></trkpt>
<trkpt lat="23.114367" lon="112.509303">
<time>2015-09-27T10:40:34Z</time></trkpt>
<trkpt lat="23.114216" lon="112.509002">
<time>2015-09-27T10:40:35Z</time></trkpt>
<trkpt lat="23.114166" lon="112.508902">
<time>2015-09-27T10:40:36Z</time></trkpt>
<trkpt lat="23.114055" lon="112.508681">
<time>2015-09-27T10:40:37Z</time></trkpt>
<trkpt lat="23.113874" lon="112.50828">
<time>2015-09-27T10:40:38Z</time></trkpt>
<trkpt lat="23.113783" lon="112.508079">
<time>2015-09-27T10:40:39Z</time></trkpt>
<trkpt lat="23.113078" lon="112.506193">
<time>2015-09-27T10:40:40Z</time></trkpt>
<trkpt lat="23.112524" lon="112.504669">
<time>2015-09-27T10:40:41Z</time></trkpt>
<trkpt lat="23.112524" lon="112.504669">
<time>2015-09-27T10:40:42Z</time></trkpt>
<trkpt lat="23.112483" lon="112.504398">
<time>2015-09-27T10:40:43Z</time></trkpt>
<trkpt lat="23.112301" lon="112.503886">
<time>2015-09-27T10:40:44Z</time></trkpt>
<trkpt lat="23.11215" lon="112.503455">
<time>2015-09-27T10:40:45Z</time></trkpt>
<trkpt lat="23.111929" lon="112.502913">
<time>2015-09-27T10:40:46Z</time></trkpt>
<trkpt lat="23.111778" lon="112.502602">
<time>2015-09-27T10:40:47Z</time></trkpt>
<trkpt lat="23.111486" lon="112.50207">
<time>2015-09-27T10:40:48Z</time></trkpt>
<trkpt lat="23.111095" lon="112.501499">
<time>2015-09-27T10:40:49Z</time></trkpt>
<trkpt lat="23.110633" lon="112.500887">
<time>2015-09-27T10:40:50Z</time></trkpt>
<trkpt lat="23.110081" lon="112.500154">
<time>2015-09-27T10:40:51Z</time></trkpt>
<trkpt lat="23.109981" lon="112.500014">
<time>2015-09-27T10:40:52Z</time></trkpt>
<trkpt lat="23.108114" lon="112.497416">
<time>2015-09-27T10:40:53Z</time></trkpt>
<trkpt lat="23.106468" lon="112.495229">
<time>2015-09-27T10:40:54Z</time></trkpt>
<trkpt lat="23.106147" lon="112.494808">
<time>2015-09-27T10:40:55Z</time></trkpt>
<trkpt lat="23.106066" lon="112.494697">
<time>2015-09-27T10:40:56Z</time></trkpt>
<trkpt lat="23.105826" lon="112.494356">
<time>2015-09-27T10:40:57Z</time></trkpt>
<trkpt lat="23.105294" lon="112.493634">
<time>2015-09-27T10:40:58Z</time></trkpt>
<trkpt lat="23.105213" lon="112.493514">
<time>2015-09-27T10:40:59Z</time></trkpt>
<trkpt lat="23.105012" lon="112.493233">
<time>2015-09-27T10:41:00Z</time></trkpt>
<trkpt lat="23.104892" lon="112.493062">
<time>2015-09-27T10:41:01Z</time></trkpt>
<trkpt lat="23.104782" lon="112.492902">
<time>2015-09-27T10:41:02Z</time></trkpt>
<trkpt lat="23.104741" lon="112.492851">
<time>2015-09-27T10:41:03Z</time></trkpt>
<trkpt lat="23.104711" lon="112.492791">
<time>2015-09-27T10:41:04Z</time></trkpt>
<trkpt lat="23.104671" lon="112.492741">
<time>2015-09-27T10:41:05Z</time></trkpt>
<trkpt lat="23.104581" lon="112.492611">
<time>2015-09-27T10:41:06Z</time></trkpt>
<trkpt lat="23.10429" lon="112.492189">
<time>2015-09-27T10:41:07Z</time></trkpt>
<trkpt lat="23.104149" lon="112.491989">
<time>2015-09-27T10:41:08Z</time></trkpt>
<trkpt lat="23.103698" lon="112.491447">
<time>2015-09-27T10:41:09Z</time></trkpt>
<trkpt lat="23.103407" lon="112.491056">
<time>2015-09-27T10:41:10Z</time></trkpt>
<trkpt lat="23.103346" lon="112.490986">
<time>2015-09-27T10:41:11Z</time></trkpt>
<trkpt lat="23.102493" lon="112.489852">
<time>2015-09-27T10:41:12Z</time></trkpt>
<trkpt lat="23.102283" lon="112.489571">
<time>2015-09-27T10:41:13Z</time></trkpt>
<trkpt lat="23.101951" lon="112.48912">
<time>2015-09-27T10:41:14Z</time></trkpt>
<trkpt lat="23.10147" lon="112.488478">
<time>2015-09-27T10:41:15Z</time></trkpt>
<trkpt lat="23.096402" lon="112.481656">
<time>2015-09-27T10:41:16Z</time></trkpt>
<trkpt lat="23.096191" lon="112.481536">
<time>2015-09-27T10:41:17Z</time></trkpt>
<trkpt lat="23.096191" lon="112.481536">
<time>2015-09-27T10:41:18Z</time></trkpt>
<trkpt lat="23.096011" lon="112.481305">
<time>2015-09-27T10:41:19Z</time></trkpt>
<trkpt lat="23.095669" lon="112.480844">
<time>2015-09-27T10:41:20Z</time></trkpt>
<trkpt lat="23.095619" lon="112.480774">
<time>2015-09-27T10:41:21Z</time></trkpt>
<trkpt lat="23.095479" lon="112.480583">
<time>2015-09-27T10:41:22Z</time></trkpt>
<trkpt lat="23.095368" lon="112.480443">
<time>2015-09-27T10:41:23Z</time></trkpt>
<trkpt lat="23.095268" lon="112.480292">
<time>2015-09-27T10:41:24Z</time></trkpt>
<trkpt lat="23.095258" lon="112.480292">
<time>2015-09-27T10:41:25Z</time></trkpt>
<trkpt lat="23.095238" lon="112.480262">
<time>2015-09-27T10:41:26Z</time></trkpt>
<trkpt lat="23.095148" lon="112.480132">
<time>2015-09-27T10:41:27Z</time></trkpt>
<trkpt lat="23.095057" lon="112.480011">
<time>2015-09-27T10:41:28Z</time></trkpt>
<trkpt lat="23.094937" lon="112.479841">
<time>2015-09-27T10:41:29Z</time></trkpt>
<trkpt lat="23.094806" lon="112.47965">
<time>2015-09-27T10:41:30Z</time></trkpt>
<trkpt lat="23.094706" lon="112.47952">
<time>2015-09-27T10:41:31Z</time></trkpt>
<trkpt lat="23.094555" lon="112.479309">
<time>2015-09-27T10:41:32Z</time></trkpt>
<trkpt lat="23.094435" lon="112.479139">
<time>2015-09-27T10:41:33Z</time></trkpt>
<trkpt lat="23.094415" lon="112.479109">
<time>2015-09-27T10:41:34Z</time></trkpt>
<trkpt lat="23.094014" lon="112.478577">
<time>2015-09-27T10:41:35Z</time></trkpt>
<trkpt lat="23.093622" lon="112.478075">
<time>2015-09-27T10:41:36Z</time></trkpt>
<trkpt lat="23.093552" lon="112.477975">
<time>2015-09-27T10:41:37Z</time></trkpt>
<trkpt lat="23.093241" lon="112.477554">
<time>2015-09-27T10:41:38Z</time></trkpt>
<trkpt lat="23.092829" lon="112.477002">
<time>2015-09-27T10:41:39Z</time></trkpt>
<trkpt lat="23.092799" lon="112.476972">
<time>2015-09-27T10:41:40Z</time></trkpt>
<trkpt lat="23.092468" lon="112.476531">
<time>2015-09-27T10:41:41Z</time></trkpt>
<trkpt lat="23.092177" lon="112.47614">
<time>2015-09-27T10:41:42Z</time></trkpt>
<trkpt lat="23.091666" lon="112.475448">
<time>2015-09-27T10:41:43Z</time></trkpt>
<trkpt lat="23.091294" lon="112.474916">
<time>2015-09-27T10:41:44Z</time></trkpt>
<trkpt lat="23.090953" lon="112.474445">
<time>2015-09-27T10:41:45Z</time></trkpt>
<trkpt lat="23.090702" lon="112.474073">
<time>2015-09-27T10:41:46Z</time></trkpt>
<trkpt lat="23.090652" lon="112.473963">
<time>2015-09-27T10:41:47Z</time></trkpt>
<trkpt lat="23.090481" lon="112.473672">
<time>2015-09-27T10:41:48Z</time></trkpt>
<trkpt lat="23.09033" lon="112.473371">
<time>2015-09-27T10:41:49Z</time></trkpt>
<trkpt lat="23.09027" lon="112.473251">
<time>2015-09-27T10:41:50Z</time></trkpt>
<trkpt lat="23.090149" lon="112.47299">
<time>2015-09-27T10:41:51Z</time></trkpt>
<trkpt lat="23.090089" lon="112.47284">
<time>2015-09-27T10:41:52Z</time></trkpt>
<trkpt lat="23.089948" lon="112.472479">
<time>2015-09-27T10:41:53Z</time></trkpt>
<trkpt lat="23.089918" lon="112.472428">
<time>2015-09-27T10:41:54Z</time></trkpt>
<trkpt lat="23.089686" lon="112.471857">
<time>2015-09-27T10:41:55Z</time></trkpt>
<trkpt lat="23.089676" lon="112.471857">
<time>2015-09-27T10:41:56Z</time></trkpt>
<trkpt lat="23.089666" lon="112.471827">
<time>2015-09-27T10:41:57Z</time></trkpt>
<trkpt lat="23.089656" lon="112.471807">
<time>2015-09-27T10:41:58Z</time></trkpt>
<trkpt lat="23.089646" lon="112.471777">
<time>2015-09-27T10:41:59Z</time></trkpt>
<trkpt lat="23.089384" lon="112.471165">
<time>2015-09-27T10:42:00Z</time></trkpt>
<trkpt lat="23.089243" lon="112.470814">
<time>2015-09-27T10:42:01Z</time></trkpt>
<trkpt lat="23.089153" lon="112.470603">
<time>2015-09-27T10:42:02Z</time></trkpt>
<trkpt lat="23.088942" lon="112.470092">
<time>2015-09-27T10:42:03Z</time></trkpt>
<trkpt lat="23.088921" lon="112.470041">
<time>2015-09-27T10:42:04Z</time></trkpt>
<trkpt lat="23.08874" lon="112.46963">
<time>2015-09-27T10:42:05Z</time></trkpt>
<trkpt lat="23.088549" lon="112.469159">
<time>2015-09-27T10:42:06Z</time></trkpt>
<trkpt lat="23.088328" lon="112.468647">
<time>2015-09-27T10:42:07Z</time></trkpt>
<trkpt lat="23.088147" lon="112.468216">
<time>2015-09-27T10:42:08Z</time></trkpt>
<trkpt lat="23.087926" lon="112.467725">
<time>2015-09-27T10:42:09Z</time></trkpt>
<trkpt lat="23.087885" lon="112.467614">
<time>2015-09-27T10:42:10Z</time></trkpt>
<trkpt lat="23.087815" lon="112.467424">
<time>2015-09-27T10:42:11Z</time></trkpt>
<trkpt lat="23.087704" lon="112.467153">
<time>2015-09-27T10:42:12Z</time></trkpt>
<trkpt lat="23.087533" lon="112.466762">
<time>2015-09-27T10:42:13Z</time></trkpt>
<trkpt lat="23.087392" lon="112.466341">
<time>2015-09-27T10:42:14Z</time></trkpt>
<trkpt lat="23.087311" lon="112.46608">
<time>2015-09-27T10:42:15Z</time></trkpt>
<trkpt lat="23.087231" lon="112.465789">
<time>2015-09-27T10:42:16Z</time></trkpt>
<trkpt lat="23.08715" lon="112.465488">
<time>2015-09-27T10:42:17Z</time></trkpt>
<trkpt lat="23.087049" lon="112.464997">
<time>2015-09-27T10:42:18Z</time></trkpt>
<trkpt lat="23.086927" lon="112.464435">
<time>2015-09-27T10:42:19Z</time></trkpt>
<trkpt lat="23.086806" lon="112.463864">
<time>2015-09-27T10:42:20Z</time></trkpt>
<trkpt lat="23.086633" lon="112.462971">
<time>2015-09-27T10:42:21Z</time></trkpt>
<trkpt lat="23.086512" lon="112.46236">
<time>2015-09-27T10:42:22Z</time></trkpt>
<trkpt lat="23.08638" lon="112.461738">
<time>2015-09-27T10:42:23Z</time></trkpt>
<trkpt lat="23.086249" lon="112.461036">
<time>2015-09-27T10:42:24Z</time></trkpt>
<trkpt lat="23.086238" lon="112.460976">
<time>2015-09-27T10:42:25Z</time></trkpt>
<trkpt lat="23.086087" lon="112.460214">
<time>2015-09-27T10:42:26Z</time></trkpt>
<trkpt lat="23.085935" lon="112.459472">
<time>2015-09-27T10:42:27Z</time></trkpt>
<trkpt lat="23.085824" lon="112.45894">
<time>2015-09-27T10:42:28Z</time></trkpt>
<trkpt lat="23.085813" lon="112.45889">
<time>2015-09-27T10:42:29Z</time></trkpt>
<trkpt lat="23.085702" lon="112.458329">
<time>2015-09-27T10:42:30Z</time></trkpt>
<trkpt lat="23.085631" lon="112.457948">
<time>2015-09-27T10:42:31Z</time></trkpt>
<trkpt lat="23.085469" lon="112.457196">
<time>2015-09-27T10:42:32Z</time></trkpt>
<trkpt lat="23.085459" lon="112.457126">
<time>2015-09-27T10:42:33Z</time></trkpt>
<trkpt lat="23.085348" lon="112.456554">
<time>2015-09-27T10:42:34Z</time></trkpt>
<trkpt lat="23.085206" lon="112.455832">
<time>2015-09-27T10:42:35Z</time></trkpt>
<trkpt lat="23.085206" lon="112.455812">
<time>2015-09-27T10:42:36Z</time></trkpt>
<trkpt lat="23.085075" lon="112.45517">
<time>2015-09-27T10:42:37Z</time></trkpt>
<trkpt lat="23.084973" lon="112.454679">
<time>2015-09-27T10:42:38Z</time></trkpt>
<trkpt lat="23.084903" lon="112.454308">
<time>2015-09-27T10:42:39Z</time></trkpt>
<trkpt lat="23.084882" lon="112.454188">
<time>2015-09-27T10:42:40Z</time></trkpt>
<trkpt lat="23.084812" lon="112.453867">
<time>2015-09-27T10:42:41Z</time></trkpt>
<trkpt lat="23.084812" lon="112.453857">
<time>2015-09-27T10:42:42Z</time></trkpt>
<trkpt lat="23.084741" lon="112.453526">
<time>2015-09-27T10:42:43Z</time></trkpt>
<trkpt lat="23.084609" lon="112.452915">
<time>2015-09-27T10:42:44Z</time></trkpt>
<trkpt lat="23.084438" lon="112.452133">
<time>2015-09-27T10:42:45Z</time></trkpt>
<trkpt lat="23.084418" lon="112.452043">
<time>2015-09-27T10:42:46Z</time></trkpt>
<trkpt lat="23.084337" lon="112.451732">
<time>2015-09-27T10:42:47Z</time></trkpt>
<trkpt lat="23.084307" lon="112.451612">
<time>2015-09-27T10:42:48Z</time></trkpt>
<trkpt lat="23.084276" lon="112.451471">
<time>2015-09-27T10:42:49Z</time></trkpt>
<trkpt lat="23.084236" lon="112.451331">
<time>2015-09-27T10:42:50Z</time></trkpt>
<trkpt lat="23.084186" lon="112.45114">
<time>2015-09-27T10:42:51Z</time></trkpt>
<trkpt lat="23.084035" lon="112.450629">
<time>2015-09-27T10:42:52Z</time></trkpt>
<trkpt lat="23.084004" lon="112.450519">
<time>2015-09-27T10:42:53Z</time></trkpt>
<trkpt lat="23.083863" lon="112.450018">
<time>2015-09-27T10:42:54Z</time></trkpt>
<trkpt lat="23.083702" lon="112.449487">
<time>2015-09-27T10:42:55Z</time></trkpt>
<trkpt lat="23.083491" lon="112.448745">
<time>2015-09-27T10:42:56Z</time></trkpt>
<trkpt lat="23.08335" lon="112.448234">
<time>2015-09-27T10:42:57Z</time></trkpt>
<trkpt lat="23.083178" lon="112.447692">
<time>2015-09-27T10:42:58Z</time></trkpt>
<trkpt lat="23.082936" lon="112.44672">
<time>2015-09-27T10:42:59Z</time></trkpt>
<trkpt lat="23.082856" lon="112.446399">
<time>2015-09-27T10:43:00Z</time></trkpt>
<trkpt lat="23.082471" lon="112.444184">
<time>2015-09-27T10:43:01Z</time></trkpt>
<trkpt lat="23.082431" lon="112.443974">
<time>2015-09-27T10:43:02Z</time></trkpt>
<trkpt lat="23.08235" lon="112.443383">
<time>2015-09-27T10:43:03Z</time></trkpt>
<trkpt lat="23.082289" lon="112.442982">
<time>2015-09-27T10:43:04Z</time></trkpt>
<trkpt lat="23.082279" lon="112.442912">
<time>2015-09-27T10:43:05Z</time></trkpt>
<trkpt lat="23.082178" lon="112.44222">
<time>2015-09-27T10:43:06Z</time></trkpt>
<trkpt lat="23.082117" lon="112.441809">
<time>2015-09-27T10:43:07Z</time></trkpt>
<trkpt lat="23.081934" lon="112.440517">
<time>2015-09-27T10:43:08Z</time></trkpt>
<trkpt lat="23.081864" lon="112.440036">
<time>2015-09-27T10:43:09Z</time></trkpt>
<trkpt lat="23.081652" lon="112.438954">
<time>2015-09-27T10:43:10Z</time></trkpt>
<trkpt lat="23.08148" lon="112.438092">
<time>2015-09-27T10:43:11Z</time></trkpt>
<trkpt lat="23.080998" lon="112.436579">
<time>2015-09-27T10:43:12Z</time></trkpt>
<trkpt lat="23.080445" lon="112.434906">
<time>2015-09-27T10:43:13Z</time></trkpt>
<trkpt lat="23.080204" lon="112.434365">
<time>2015-09-27T10:43:14Z</time></trkpt>
<trkpt lat="23.080174" lon="112.434305">
<time>2015-09-27T10:43:15Z</time></trkpt>
<trkpt lat="23.079271" lon="112.432262">
<time>2015-09-27T10:43:16Z</time></trkpt>
<trkpt lat="23.079201" lon="112.432101">
<time>2015-09-27T10:43:17Z</time></trkpt>
<trkpt lat="23.07879" lon="112.43117">
<time>2015-09-27T10:43:18Z</time></trkpt>
<trkpt lat="23.078469" lon="112.430459">
<time>2015-09-27T10:43:19Z</time></trkpt>
<trkpt lat="23.078389" lon="112.430248">
<time>2015-09-27T10:43:20Z</time></trkpt>
<trkpt lat="23.078298" lon="112.430078">
<time>2015-09-27T10:43:21Z</time></trkpt>
<trkpt lat="23.078278" lon="112.430018">
<time>2015-09-27T10:43:22Z</time></trkpt>
<trkpt lat="23.078118" lon="112.429667">
<time>2015-09-27T10:43:23Z</time></trkpt>
<trkpt lat="23.078038" lon="112.429487">
<time>2015-09-27T10:43:24Z</time></trkpt>
<trkpt lat="23.077927" lon="112.429237">
<time>2015-09-27T10:43:25Z</time></trkpt>
<trkpt lat="23.077827" lon="112.429006">
<time>2015-09-27T10:43:26Z</time></trkpt>
<trkpt lat="23.077727" lon="112.428746">
<time>2015-09-27T10:43:27Z</time></trkpt>
<trkpt lat="23.077646" lon="112.428476">
<time>2015-09-27T10:43:28Z</time></trkpt>
<trkpt lat="23.077596" lon="112.428255">
<time>2015-09-27T10:43:29Z</time></trkpt>
<trkpt lat="23.077586" lon="112.428135">
<time>2015-09-27T10:43:30Z</time></trkpt>
<trkpt lat="23.077556" lon="112.427875">
<time>2015-09-27T10:43:31Z</time></trkpt>
<trkpt lat="23.077545" lon="112.427604">
<time>2015-09-27T10:43:32Z</time></trkpt>
<trkpt lat="23.077545" lon="112.427564">
<time>2015-09-27T10:43:33Z</time></trkpt>
<trkpt lat="23.077555" lon="112.427264">
<time>2015-09-27T10:43:34Z</time></trkpt>
<trkpt lat="23.077584" lon="112.426963">
<time>2015-09-27T10:43:35Z</time></trkpt>
<trkpt lat="23.077654" lon="112.426483">
<time>2015-09-27T10:43:36Z</time></trkpt>
<trkpt lat="23.077733" lon="112.425932">
<time>2015-09-27T10:43:37Z</time></trkpt>
<trkpt lat="23.077931" lon="112.4245">
<time>2015-09-27T10:43:38Z</time></trkpt>
<trkpt lat="23.078199" lon="112.422477">
<time>2015-09-27T10:43:39Z</time></trkpt>
<trkpt lat="23.078208" lon="112.422407">
<time>2015-09-27T10:43:40Z</time></trkpt>
<trkpt lat="23.078248" lon="112.422177">
<time>2015-09-27T10:43:41Z</time></trkpt>
<trkpt lat="23.078308" lon="112.421656">
<time>2015-09-27T10:43:42Z</time></trkpt>
<trkpt lat="23.078367" lon="112.421286">
<time>2015-09-27T10:43:43Z</time></trkpt>
<trkpt lat="23.078387" lon="112.421116">
<time>2015-09-27T10:43:44Z</time></trkpt>
<trkpt lat="23.078595" lon="112.419754">
<time>2015-09-27T10:43:45Z</time></trkpt>
<trkpt lat="23.078694" lon="112.418833">
<time>2015-09-27T10:43:46Z</time></trkpt>
<trkpt lat="23.078724" lon="112.418132">
<time>2015-09-27T10:43:47Z</time></trkpt>
<trkpt lat="23.078723" lon="112.417522">
<time>2015-09-27T10:43:48Z</time></trkpt>
<trkpt lat="23.078731" lon="112.415389">
<time>2015-09-27T10:43:49Z</time></trkpt>
<trkpt lat="23.07872" lon="112.414278">
<time>2015-09-27T10:43:50Z</time></trkpt>
<trkpt lat="23.078709" lon="112.412457">
<time>2015-09-27T10:43:51Z</time></trkpt>
<trkpt lat="23.078698" lon="112.410766">
<time>2015-09-27T10:43:52Z</time></trkpt>
<trkpt lat="23.078697" lon="112.410005">
<time>2015-09-27T10:43:53Z</time></trkpt>
<trkpt lat="23.078687" lon="112.409455">
<time>2015-09-27T10:43:54Z</time></trkpt>
<trkpt lat="23.078697" lon="112.409095">
<time>2015-09-27T10:43:55Z</time></trkpt>
<trkpt lat="23.078687" lon="112.409035">
<time>2015-09-27T10:43:56Z</time></trkpt>
<trkpt lat="23.078707" lon="112.408654">
<time>2015-09-27T10:43:57Z</time></trkpt>
<trkpt lat="23.078737" lon="112.408504">
<time>2015-09-27T10:43:58Z</time></trkpt>
<trkpt lat="23.078747" lon="112.408374">
<time>2015-09-27T10:43:59Z</time></trkpt>
<trkpt lat="23.078757" lon="112.408314">
<time>2015-09-27T10:44:00Z</time></trkpt>
<trkpt lat="23.078786" lon="112.408204">
<time>2015-09-27T10:44:01Z</time></trkpt>
<trkpt lat="23.078816" lon="112.408094">
<time>2015-09-27T10:44:02Z</time></trkpt>
<trkpt lat="23.078846" lon="112.407994">
<time>2015-09-27T10:44:03Z</time></trkpt>
<trkpt lat="23.078886" lon="112.407874">
<time>2015-09-27T10:44:04Z</time></trkpt>
<trkpt lat="23.079176" lon="112.407244">
<time>2015-09-27T10:44:05Z</time></trkpt>
<trkpt lat="23.079226" lon="112.407113">
<time>2015-09-27T10:44:06Z</time></trkpt>
<trkpt lat="23.079465" lon="112.406583">
<time>2015-09-27T10:44:07Z</time></trkpt>
<trkpt lat="23.079785" lon="112.405863">
<time>2015-09-27T10:44:08Z</time></trkpt>
<trkpt lat="23.080404" lon="112.404572">
<time>2015-09-27T10:44:09Z</time></trkpt>
<trkpt lat="23.080604" lon="112.404242">
<time>2015-09-27T10:44:10Z</time></trkpt>
<trkpt lat="23.080694" lon="112.404122">
<time>2015-09-27T10:44:11Z</time></trkpt>
<trkpt lat="23.080814" lon="112.403962">
<time>2015-09-27T10:44:12Z</time></trkpt>
<trkpt lat="23.081174" lon="112.403602">
<time>2015-09-27T10:44:13Z</time></trkpt>
<trkpt lat="23.081533" lon="112.403282">
<time>2015-09-27T10:44:14Z</time></trkpt>
<trkpt lat="23.081643" lon="112.403192">
<time>2015-09-27T10:44:15Z</time></trkpt>
<trkpt lat="23.081643" lon="112.403192">
<time>2015-09-27T10:44:16Z</time></trkpt>
<trkpt lat="23.081583" lon="112.403122">
<time>2015-09-27T10:44:17Z</time></trkpt>
<trkpt lat="23.081583" lon="112.403122">
<time>2015-09-27T10:44:18Z</time></trkpt>
<trkpt lat="23.082543" lon="112.402271">
<time>2015-09-27T10:44:19Z</time></trkpt>
<trkpt lat="23.082992" lon="112.401901">
<time>2015-09-27T10:44:20Z</time></trkpt>
<trkpt lat="23.083332" lon="112.401621">
<time>2015-09-27T10:44:21Z</time></trkpt>
<trkpt lat="23.083522" lon="112.401461">
<time>2015-09-27T10:44:22Z</time></trkpt>
<trkpt lat="23.083722" lon="112.401281">
<time>2015-09-27T10:44:23Z</time></trkpt>
<trkpt lat="23.084012" lon="112.400981">
<time>2015-09-27T10:44:24Z</time></trkpt>
<trkpt lat="23.084062" lon="112.400961">
<time>2015-09-27T10:44:25Z</time></trkpt>
<trkpt lat="23.084162" lon="112.400841">
<time>2015-09-27T10:44:26Z</time></trkpt>
<trkpt lat="23.084212" lon="112.400771">
<time>2015-09-27T10:44:27Z</time></trkpt>
<trkpt lat="23.084402" lon="112.400551">
<time>2015-09-27T10:44:28Z</time></trkpt>
<trkpt lat="23.084571" lon="112.400321">
<time>2015-09-27T10:44:29Z</time></trkpt>
<trkpt lat="23.084651" lon="112.400201">
<time>2015-09-27T10:44:30Z</time></trkpt>
<trkpt lat="23.084731" lon="112.400081">
<time>2015-09-27T10:44:31Z</time></trkpt>
<trkpt lat="23.084881" lon="112.399831">
<time>2015-09-27T10:44:32Z</time></trkpt>
<trkpt lat="23.085021" lon="112.399581">
<time>2015-09-27T10:44:33Z</time></trkpt>
<trkpt lat="23.085191" lon="112.3993">
<time>2015-09-27T10:44:34Z</time></trkpt>
<trkpt lat="23.085341" lon="112.39901">
<time>2015-09-27T10:44:35Z</time></trkpt>
<trkpt lat="23.085391" lon="112.39893">
<time>2015-09-27T10:44:36Z</time></trkpt>
<trkpt lat="23.085481" lon="112.39877">
<time>2015-09-27T10:44:37Z</time></trkpt>
<trkpt lat="23.085601" lon="112.39857">
<time>2015-09-27T10:44:38Z</time></trkpt>
<trkpt lat="23.085711" lon="112.39842">
<time>2015-09-27T10:44:39Z</time></trkpt>
<trkpt lat="23.085791" lon="112.39832">
<time>2015-09-27T10:44:40Z</time></trkpt>
<trkpt lat="23.085841" lon="112.39826">
<time>2015-09-27T10:44:41Z</time></trkpt>
<trkpt lat="23.085971" lon="112.39812">
<time>2015-09-27T10:44:42Z</time></trkpt>
<trkpt lat="23.086161" lon="112.39793">
<time>2015-09-27T10:44:43Z</time></trkpt>
<trkpt lat="23.086231" lon="112.39786">
<time>2015-09-27T10:44:44Z</time></trkpt>
<trkpt lat="23.08631" lon="112.3978">
<time>2015-09-27T10:44:45Z</time></trkpt>
<trkpt lat="23.0865" lon="112.39768">
<time>2015-09-27T10:44:46Z</time></trkpt>
<trkpt lat="23.0868" lon="112.39752">
<time>2015-09-27T10:44:47Z</time></trkpt>
<trkpt lat="23.08701" lon="112.39741">
<time>2015-09-27T10:44:48Z</time></trkpt>
<trkpt lat="23.08736" lon="112.3973">
<time>2015-09-27T10:44:49Z</time></trkpt>
<trkpt lat="23.08749" lon="112.39727">
<time>2015-09-27T10:44:50Z</time></trkpt>
<trkpt lat="23.08778" lon="112.39722">
<time>2015-09-27T10:44:51Z</time></trkpt>
<trkpt lat="23.08795" lon="112.39721">
<time>2015-09-27T10:44:52Z</time></trkpt>
<trkpt lat="23.0882" lon="112.39721">
<time>2015-09-27T10:44:53Z</time></trkpt>
<trkpt lat="23.08851" lon="112.39722">
<time>2015-09-27T10:44:54Z</time></trkpt>
<trkpt lat="23.088719" lon="112.39722">
<time>2015-09-27T10:44:55Z</time></trkpt>
<trkpt lat="23.088719" lon="112.39722">
<time>2015-09-27T10:44:56Z</time></trkpt>
<trkpt lat="23.088719" lon="112.39728">
<time>2015-09-27T10:44:57Z</time></trkpt>
<trkpt lat="23.088719" lon="112.39728">
<time>2015-09-27T10:44:58Z</time></trkpt>
<trkpt lat="23.088869" lon="112.39728">
<time>2015-09-27T10:44:59Z</time></trkpt>
<trkpt lat="23.089549" lon="112.3973">
<time>2015-09-27T10:45:00Z</time></trkpt>
<trkpt lat="23.090219" lon="112.39733">
<time>2015-09-27T10:45:01Z</time></trkpt>
<trkpt lat="23.090619" lon="112.39734">
<time>2015-09-27T10:45:02Z</time></trkpt>
<trkpt lat="23.090979" lon="112.39735">
<time>2015-09-27T10:45:03Z</time></trkpt>
<trkpt lat="23.091208" lon="112.39738">
<time>2015-09-27T10:45:04Z</time></trkpt>
<trkpt lat="23.091348" lon="112.39741">
<time>2015-09-27T10:45:05Z</time></trkpt>
<trkpt lat="23.091518" lon="112.39744">
<time>2015-09-27T10:45:06Z</time></trkpt>
<trkpt lat="23.091718" lon="112.39749">
<time>2015-09-27T10:45:07Z</time></trkpt>
<trkpt lat="23.091958" lon="112.39758">
<time>2015-09-27T10:45:08Z</time></trkpt>
<trkpt lat="23.092188" lon="112.39764">
<time>2015-09-27T10:45:09Z</time></trkpt>
<trkpt lat="23.092748" lon="112.39782">
<time>2015-09-27T10:45:10Z</time></trkpt>
<trkpt lat="23.093278" lon="112.39797">
<time>2015-09-27T10:45:11Z</time></trkpt>
<trkpt lat="23.093677" lon="112.39808">
<time>2015-09-27T10:45:12Z</time></trkpt>
<trkpt lat="23.094277" lon="112.39824">
<time>2015-09-27T10:45:13Z</time></trkpt>
<trkpt lat="23.094817" lon="112.39838">
<time>2015-09-27T10:45:14Z</time></trkpt>
<trkpt lat="23.095327" lon="112.39851">
<time>2015-09-27T10:45:15Z</time></trkpt>
<trkpt lat="23.095667" lon="112.3986">
<time>2015-09-27T10:45:16Z</time></trkpt>
<trkpt lat="23.096106" lon="112.3987">
<time>2015-09-27T10:45:17Z</time></trkpt>
<trkpt lat="23.096426" lon="112.39877">
<time>2015-09-27T10:45:18Z</time></trkpt>
<trkpt lat="23.096636" lon="112.39884">
<time>2015-09-27T10:45:19Z</time></trkpt>
<trkpt lat="23.096686" lon="112.39885">
<time>2015-09-27T10:45:20Z</time></trkpt>
<trkpt lat="23.096686" lon="112.39885">
<time>2015-09-27T10:45:21Z</time></trkpt>
<trkpt lat="23.096706" lon="112.3988">
<time>2015-09-27T10:45:22Z</time></trkpt>
<trkpt lat="23.096706" lon="112.3988">
<time>2015-09-27T10:45:23Z</time></trkpt>
<trkpt lat="23.096876" lon="112.39885">
<time>2015-09-27T10:45:24Z</time></trkpt>
<trkpt lat="23.097166" lon="112.39896">
<time>2015-09-27T10:45:25Z</time></trkpt>
<trkpt lat="23.097746" lon="112.3992">
<time>2015-09-27T10:45:26Z</time></trkpt>
<trkpt lat="23.098006" lon="112.3993">
<time>2015-09-27T10:45:27Z</time></trkpt>
<trkpt lat="23.098486" lon="112.39945">
<time>2015-09-27T10:45:28Z</time></trkpt>
<trkpt lat="23.098705" lon="112.3995">
<time>2015-09-27T10:45:29Z</time></trkpt>
<trkpt lat="23.099045" lon="112.39957">
<time>2015-09-27T10:45:30Z</time></trkpt>
<trkpt lat="23.099285" lon="112.39964">
<time>2015-09-27T10:45:31Z</time></trkpt>
<trkpt lat="23.099555" lon="112.39973">
<time>2015-09-27T10:45:32Z</time></trkpt>
<trkpt lat="23.099815" lon="112.39984">
<time>2015-09-27T10:45:33Z</time></trkpt>
<trkpt lat="23.100085" lon="112.39997">
<time>2015-09-27T10:45:34Z</time></trkpt>
<trkpt lat="23.100945" lon="112.4004">
<time>2015-09-27T10:45:35Z</time></trkpt>
<trkpt lat="23.101384" lon="112.4006">
<time>2015-09-27T10:45:36Z</time></trkpt>
<trkpt lat="23.101734" lon="112.40079">
<time>2015-09-27T10:45:37Z</time></trkpt>
<trkpt lat="23.101754" lon="112.4008">
<time>2015-09-27T10:45:38Z</time></trkpt>
<trkpt lat="23.102044" lon="112.40097">
<time>2015-09-27T10:45:39Z</time></trkpt>
<trkpt lat="23.102314" lon="112.40115">
<time>2015-09-27T10:45:40Z</time></trkpt>
<trkpt lat="23.102544" lon="112.40131">
<time>2015-09-27T10:45:41Z</time></trkpt>
<trkpt lat="23.102814" lon="112.40148">
<time>2015-09-27T10:45:42Z</time></trkpt>
<trkpt lat="23.102964" lon="112.40158">
<time>2015-09-27T10:45:43Z</time></trkpt>
<trkpt lat="23.103134" lon="112.40165">
<time>2015-09-27T10:45:44Z</time></trkpt>
<trkpt lat="23.103294" lon="112.40172">
<time>2015-09-27T10:45:45Z</time></trkpt>
<trkpt lat="23.103484" lon="112.40177">
<time>2015-09-27T10:45:46Z</time></trkpt>
<trkpt lat="23.103654" lon="112.40181">
<time>2015-09-27T10:45:47Z</time></trkpt>
<trkpt lat="23.103864" lon="112.40187">
<time>2015-09-27T10:45:48Z</time></trkpt>
<trkpt lat="23.104154" lon="112.40194">
<time>2015-09-27T10:45:49Z</time></trkpt>
<trkpt lat="23.104453" lon="112.402">
<time>2015-09-27T10:45:50Z</time></trkpt>
<trkpt lat="23.104813" lon="112.40208">
<time>2015-09-27T10:45:51Z</time></trkpt>
<trkpt lat="23.105073" lon="112.40213">
<time>2015-09-27T10:45:52Z</time></trkpt>
<trkpt lat="23.105113" lon="112.40214">
<time>2015-09-27T10:45:53Z</time></trkpt>
<trkpt lat="23.105283" lon="112.40218">
<time>2015-09-27T10:45:54Z</time></trkpt>
<trkpt lat="23.105453" lon="112.40222">
<time>2015-09-27T10:45:55Z</time></trkpt>
<trkpt lat="23.105593" lon="112.40227">
<time>2015-09-27T10:45:56Z</time></trkpt>
<trkpt lat="23.105773" lon="112.40233">
<time>2015-09-27T10:45:57Z</time></trkpt>
<trkpt lat="23.105923" lon="112.40239">
<time>2015-09-27T10:45:58Z</time></trkpt>
<trkpt lat="23.106093" lon="112.40247">
<time>2015-09-27T10:45:59Z</time></trkpt>
<trkpt lat="23.106253" lon="112.40255">
<time>2015-09-27T10:46:00Z</time></trkpt>
<trkpt lat="23.106453" lon="112.40264">
<time>2015-09-27T10:46:01Z</time></trkpt>
<trkpt lat="23.106723" lon="112.40279">
<time>2015-09-27T10:46:02Z</time></trkpt>
<trkpt lat="23.106993" lon="112.40295">
<time>2015-09-27T10:46:03Z</time></trkpt>
<trkpt lat="23.107373" lon="112.40316">
<time>2015-09-27T10:46:04Z</time></trkpt>
<trkpt lat="23.107752" lon="112.40338">
<time>2015-09-27T10:46:05Z</time></trkpt>
<trkpt lat="23.108082" lon="112.40357">
<time>2015-09-27T10:46:06Z</time></trkpt>
<trkpt lat="23.108542" lon="112.40383">
<time>2015-09-27T10:46:07Z</time></trkpt>
<trkpt lat="23.108942" lon="112.40405">
<time>2015-09-27T10:46:08Z</time></trkpt>
<trkpt lat="23.109302" lon="112.40425">
<time>2015-09-27T10:46:09Z</time></trkpt>
<trkpt lat="23.109312" lon="112.40426">
<time>2015-09-27T10:46:10Z</time></trkpt>
<trkpt lat="23.109552" lon="112.40437">
<time>2015-09-27T10:46:11Z</time></trkpt>
<trkpt lat="23.109832" lon="112.40449">
<time>2015-09-27T10:46:12Z</time></trkpt>
<trkpt lat="23.110122" lon="112.40459">
<time>2015-09-27T10:46:13Z</time></trkpt>
<trkpt lat="23.110272" lon="112.40463">
<time>2015-09-27T10:46:14Z</time></trkpt>
<trkpt lat="23.110612" lon="112.40475">
<time>2015-09-27T10:46:15Z</time></trkpt>
<trkpt lat="23.110892" lon="112.40484">
<time>2015-09-27T10:46:16Z</time></trkpt>
<trkpt lat="23.111022" lon="112.4049">
<time>2015-09-27T10:46:17Z</time></trkpt>
<trkpt lat="23.111062" lon="112.40491">
<time>2015-09-27T10:46:18Z</time></trkpt>
<trkpt lat="23.111202" lon="112.40499">
<time>2015-09-27T10:46:19Z</time></trkpt>
<trkpt lat="23.111362" lon="112.40509">
<time>2015-09-27T10:46:20Z</time></trkpt>
<trkpt lat="23.111522" lon="112.4052">
<time>2015-09-27T10:46:21Z</time></trkpt>
<trkpt lat="23.111552" lon="112.40522">
<time>2015-09-27T10:46:22Z</time></trkpt>
<trkpt lat="23.111692" lon="112.40535">
<time>2015-09-27T10:46:23Z</time></trkpt>
<trkpt lat="23.111862" lon="112.405521">
<time>2015-09-27T10:46:24Z</time></trkpt>
<trkpt lat="23.112062" lon="112.405741">
<time>2015-09-27T10:46:25Z</time></trkpt>
<trkpt lat="23.112182" lon="112.405871">
<time>2015-09-27T10:46:26Z</time></trkpt>
<trkpt lat="23.112302" lon="112.405991">
<time>2015-09-27T10:46:27Z</time></trkpt>
<trkpt lat="23.112441" lon="112.406091">
<time>2015-09-27T10:46:28Z</time></trkpt>
<trkpt lat="23.112651" lon="112.406241">
<time>2015-09-27T10:46:29Z</time></trkpt>
<trkpt lat="23.112921" lon="112.406391">
<time>2015-09-27T10:46:30Z</time></trkpt>
<trkpt lat="23.113121" lon="112.406501">
<time>2015-09-27T10:46:31Z</time></trkpt>
<trkpt lat="23.113321" lon="112.406611">
<time>2015-09-27T10:46:32Z</time></trkpt>
<trkpt lat="23.113521" lon="112.406751">
<time>2015-09-27T10:46:33Z</time></trkpt>
<trkpt lat="23.113731" lon="112.406911">
<time>2015-09-27T10:46:34Z</time></trkpt>
<trkpt lat="23.113931" lon="112.407091">
<time>2015-09-27T10:46:35Z</time></trkpt>
<trkpt lat="23.113991" lon="112.407141">
<time>2015-09-27T10:46:36Z</time></trkpt>
<trkpt lat="23.114091" lon="112.407231">
<time>2015-09-27T10:46:37Z</time></trkpt>
<trkpt lat="23.114301" lon="112.407391">
<time>2015-09-27T10:46:38Z</time></trkpt>
<trkpt lat="23.114451" lon="112.407471">
<time>2015-09-27T10:46:39Z</time></trkpt>
<trkpt lat="23.114491" lon="112.407491">
<time>2015-09-27T10:46:40Z</time></trkpt>
<trkpt lat="23.114601" lon="112.407541">
<time>2015-09-27T10:46:41Z</time></trkpt>
<trkpt lat="23.114781" lon="112.407581">
<time>2015-09-27T10:46:42Z</time></trkpt>
<trkpt lat="23.115051" lon="112.407611">
<time>2015-09-27T10:46:43Z</time></trkpt>
<trkpt lat="23.116031" lon="112.407721">
<time>2015-09-27T10:46:44Z</time></trkpt>
<trkpt lat="23.116251" lon="112.407741">
<time>2015-09-27T10:46:45Z</time></trkpt>
<trkpt lat="23.116351" lon="112.407751">
<time>2015-09-27T10:46:46Z</time></trkpt>
<trkpt lat="23.116511" lon="112.407761">
<time>2015-09-27T10:46:47Z</time></trkpt>
<trkpt lat="23.11671" lon="112.407751">
<time>2015-09-27T10:46:48Z</time></trkpt>
<trkpt lat="23.11701" lon="112.407731">
<time>2015-09-27T10:46:49Z</time></trkpt>
<trkpt lat="23.11746" lon="112.407691">
<time>2015-09-27T10:46:50Z</time></trkpt>
<trkpt lat="23.11751" lon="112.407681">
<time>2015-09-27T10:46:51Z</time></trkpt>
<trkpt lat="23.11849" lon="112.407561">
<time>2015-09-27T10:46:52Z</time></trkpt>
<trkpt lat="23.11863" lon="112.407541">
<time>2015-09-27T10:46:53Z</time></trkpt>
<trkpt lat="23.118969" lon="112.407501">
<time>2015-09-27T10:46:54Z</time></trkpt>
<trkpt lat="23.119579" lon="112.407431">
<time>2015-09-27T10:46:55Z</time></trkpt>
<trkpt lat="23.119829" lon="112.407401">
<time>2015-09-27T10:46:56Z</time></trkpt>
<trkpt lat="23.120039" lon="112.407361">
<time>2015-09-27T10:46:57Z</time></trkpt>
<trkpt lat="23.120229" lon="112.407331">
<time>2015-09-27T10:46:58Z</time></trkpt>
<trkpt lat="23.120549" lon="112.407251">
<time>2015-09-27T10:46:59Z</time></trkpt>
<trkpt lat="23.120679" lon="112.407191">
<time>2015-09-27T10:47:00Z</time></trkpt>
<trkpt lat="23.120839" lon="112.407131">
<time>2015-09-27T10:47:01Z</time></trkpt>
<trkpt lat="23.120988" lon="112.407051">
<time>2015-09-27T10:47:02Z</time></trkpt>
<trkpt lat="23.121108" lon="112.406991">
<time>2015-09-27T10:47:03Z</time></trkpt>
<trkpt lat="23.121238" lon="112.406911">
<time>2015-09-27T10:47:04Z</time></trkpt>
<trkpt lat="23.121428" lon="112.406791">
<time>2015-09-27T10:47:05Z</time></trkpt>
<trkpt lat="23.121688" lon="112.40662">
<time>2015-09-27T10:47:06Z</time></trkpt>
<trkpt lat="23.122048" lon="112.40637">
<time>2015-09-27T10:47:07Z</time></trkpt>
<trkpt lat="23.122427" lon="112.40613">
<time>2015-09-27T10:47:08Z</time></trkpt>
<trkpt lat="23.122677" lon="112.40596">
<time>2015-09-27T10:47:09Z</time></trkpt>
<trkpt lat="23.122687" lon="112.40595">
<time>2015-09-27T10:47:10Z</time></trkpt>
<trkpt lat="23.122957" lon="112.40578">
<time>2015-09-27T10:47:11Z</time></trkpt>
<trkpt lat="23.123147" lon="112.40565">
<time>2015-09-27T10:47:12Z</time></trkpt>
<trkpt lat="23.123367" lon="112.40552">
<time>2015-09-27T10:47:13Z</time></trkpt>
<trkpt lat="23.123577" lon="112.40543">
<time>2015-09-27T10:47:14Z</time></trkpt>
<trkpt lat="23.123737" lon="112.40537">
<time>2015-09-27T10:47:15Z</time></trkpt>
<trkpt lat="23.123917" lon="112.40532">
<time>2015-09-27T10:47:16Z</time></trkpt>
<trkpt lat="23.124126" lon="112.40529">
<time>2015-09-27T10:47:17Z</time></trkpt>
<trkpt lat="23.124356" lon="112.40524">
<time>2015-09-27T10:47:18Z</time></trkpt>
<trkpt lat="23.124546" lon="112.40517">
<time>2015-09-27T10:47:19Z</time></trkpt>
<trkpt lat="23.124726" lon="112.40509">
<time>2015-09-27T10:47:20Z</time></trkpt>
<trkpt lat="23.124916" lon="112.404979">
<time>2015-09-27T10:47:21Z</time></trkpt>
<trkpt lat="23.125056" lon="112.404879">
<time>2015-09-27T10:47:22Z</time></trkpt>
<trkpt lat="23.125176" lon="112.404769">
<time>2015-09-27T10:47:23Z</time></trkpt>
<trkpt lat="23.125326" lon="112.404649">
<time>2015-09-27T10:47:24Z</time></trkpt>
<trkpt lat="23.125486" lon="112.404519">
<time>2015-09-27T10:47:25Z</time></trkpt>
<trkpt lat="23.125685" lon="112.404399">
<time>2015-09-27T10:47:26Z</time></trkpt>
<trkpt lat="23.125955" lon="112.404259">
<time>2015-09-27T10:47:27Z</time></trkpt>
<trkpt lat="23.126275" lon="112.404149">
<time>2015-09-27T10:47:28Z</time></trkpt>
<trkpt lat="23.126485" lon="112.404089">
<time>2015-09-27T10:47:29Z</time></trkpt>
<trkpt lat="23.126855" lon="112.404029">
<time>2015-09-27T10:47:30Z</time></trkpt>
<trkpt lat="23.127135" lon="112.403989">
<time>2015-09-27T10:47:31Z</time></trkpt>
<trkpt lat="23.127485" lon="112.403949">
<time>2015-09-27T10:47:32Z</time></trkpt>
<trkpt lat="23.127894" lon="112.403929">
<time>2015-09-27T10:47:33Z</time></trkpt>
<trkpt lat="23.128214" lon="112.403929">
<time>2015-09-27T10:47:34Z</time></trkpt>
<trkpt lat="23.128214" lon="112.403929">
<time>2015-09-27T10:47:35Z</time></trkpt>
<trkpt lat="23.128494" lon="112.403709">
<time>2015-09-27T10:47:36Z</time></trkpt>
<trkpt lat="23.128554" lon="112.403659">
<time>2015-09-27T10:47:37Z</time></trkpt>
<trkpt lat="23.128644" lon="112.403589">
<time>2015-09-27T10:47:38Z</time></trkpt>
<trkpt lat="23.129673" lon="112.402868">
<time>2015-09-27T10:47:39Z</time></trkpt>
<trkpt lat="23.130073" lon="112.402608">
<time>2015-09-27T10:47:40Z</time></trkpt>
<trkpt lat="23.130283" lon="112.402468">
<time>2015-09-27T10:47:41Z</time></trkpt>
<trkpt lat="23.130443" lon="112.402368">
<time>2015-09-27T10:47:42Z</time></trkpt>
<trkpt lat="23.130803" lon="112.402128">
<time>2015-09-27T10:47:43Z</time></trkpt>
<trkpt lat="23.130893" lon="112.402058">
<time>2015-09-27T10:47:44Z</time></trkpt>
<trkpt lat="23.131183" lon="112.401848">
<time>2015-09-27T10:47:45Z</time></trkpt>
<trkpt lat="23.131362" lon="112.401698">
<time>2015-09-27T10:47:46Z</time></trkpt>
<trkpt lat="23.131532" lon="112.401558">
<time>2015-09-27T10:47:47Z</time></trkpt>
<trkpt lat="23.131682" lon="112.401408">
<time>2015-09-27T10:47:48Z</time></trkpt>
<trkpt lat="23.131842" lon="112.401218">
<time>2015-09-27T10:47:49Z</time></trkpt>
<trkpt lat="23.132072" lon="112.400948">
<time>2015-09-27T10:47:50Z</time></trkpt>
<trkpt lat="23.132192" lon="112.400808">
<time>2015-09-27T10:47:51Z</time></trkpt>
<trkpt lat="23.132382" lon="112.400558">
<time>2015-09-27T10:47:52Z</time></trkpt>
<trkpt lat="23.132492" lon="112.400368">
<time>2015-09-27T10:47:53Z</time></trkpt>
<trkpt lat="23.132572" lon="112.400207">
<time>2015-09-27T10:47:54Z</time></trkpt>
<trkpt lat="23.132642" lon="112.400057">
<time>2015-09-27T10:47:55Z</time></trkpt>
<trkpt lat="23.132752" lon="112.399727">
<time>2015-09-27T10:47:56Z</time></trkpt>
<trkpt lat="23.132821" lon="112.399497">
<time>2015-09-27T10:47:57Z</time></trkpt>
<trkpt lat="23.132831" lon="112.399437">
<time>2015-09-27T10:47:58Z</time></trkpt>
<trkpt lat="23.132911" lon="112.399167">
<time>2015-09-27T10:47:59Z</time></trkpt>
<trkpt lat="23.133111" lon="112.398347">
<time>2015-09-27T10:48:00Z</time></trkpt>
<trkpt lat="23.133271" lon="112.397687">
<time>2015-09-27T10:48:01Z</time></trkpt>
<trkpt lat="23.133461" lon="112.396937">
<time>2015-09-27T10:48:02Z</time></trkpt>
<trkpt lat="23.133501" lon="112.396767">
<time>2015-09-27T10:48:03Z</time></trkpt>
<trkpt lat="23.133541" lon="112.396607">
<time>2015-09-27T10:48:04Z</time></trkpt>
<trkpt lat="23.133571" lon="112.396527">
<time>2015-09-27T10:48:05Z</time></trkpt>
<trkpt lat="23.133601" lon="112.396457">
<time>2015-09-27T10:48:06Z</time></trkpt>
<trkpt lat="23.133631" lon="112.396387">
<time>2015-09-27T10:48:07Z</time></trkpt>
<trkpt lat="23.133691" lon="112.396277">
<time>2015-09-27T10:48:08Z</time></trkpt>
<trkpt lat="23.133781" lon="112.396137">
<time>2015-09-27T10:48:09Z</time></trkpt>
<trkpt lat="23.134261" lon="112.395287">
<time>2015-09-27T10:48:10Z</time></trkpt>
<trkpt lat="23.134401" lon="112.395017">
<time>2015-09-27T10:48:11Z</time></trkpt>
<trkpt lat="23.134451" lon="112.394917">
<time>2015-09-27T10:48:12Z</time></trkpt>
<trkpt lat="23.134511" lon="112.394777">
<time>2015-09-27T10:48:13Z</time></trkpt>
<trkpt lat="23.134581" lon="112.394627">
<time>2015-09-27T10:48:14Z</time></trkpt>
<trkpt lat="23.134641" lon="112.394467">
<time>2015-09-27T10:48:15Z</time></trkpt>
<trkpt lat="23.134821" lon="112.393947">
<time>2015-09-27T10:48:16Z</time></trkpt>
<trkpt lat="23.135031" lon="112.393277">
<time>2015-09-27T10:48:17Z</time></trkpt>
<trkpt lat="23.135361" lon="112.392267">
<time>2015-09-27T10:48:18Z</time></trkpt>
<trkpt lat="23.135491" lon="112.391887">
<time>2015-09-27T10:48:19Z</time></trkpt>
<trkpt lat="23.135581" lon="112.391657">
<time>2015-09-27T10:48:20Z</time></trkpt>
<trkpt lat="23.135661" lon="112.391457">
<time>2015-09-27T10:48:21Z</time></trkpt>
<trkpt lat="23.135761" lon="112.391227">
<time>2015-09-27T10:48:22Z</time></trkpt>
<trkpt lat="23.135911" lon="112.390927">
<time>2015-09-27T10:48:23Z</time></trkpt>
<trkpt lat="23.136241" lon="112.390278">
<time>2015-09-27T10:48:24Z</time></trkpt>
<trkpt lat="23.136381" lon="112.390008">
<time>2015-09-27T10:48:25Z</time></trkpt>
<trkpt lat="23.136481" lon="112.389788">
<time>2015-09-27T10:48:26Z</time></trkpt>
<trkpt lat="23.136561" lon="112.389618">
<time>2015-09-27T10:48:27Z</time></trkpt>
<trkpt lat="23.136641" lon="112.389388">
<time>2015-09-27T10:48:28Z</time></trkpt>
<trkpt lat="23.136711" lon="112.389208">
<time>2015-09-27T10:48:29Z</time></trkpt>
<trkpt lat="23.136851" lon="112.388798">
<time>2015-09-27T10:48:30Z</time></trkpt>
<trkpt lat="23.137091" lon="112.388138">
<time>2015-09-27T10:48:31Z</time></trkpt>
<trkpt lat="23.137231" lon="112.387788">
<time>2015-09-27T10:48:32Z</time></trkpt>
<trkpt lat="23.137441" lon="112.387348">
<time>2015-09-27T10:48:33Z</time></trkpt>
<trkpt lat="23.137501" lon="112.387229">
<time>2015-09-27T10:48:34Z</time></trkpt>
<trkpt lat="23.137551" lon="112.387139">
<time>2015-09-27T10:48:35Z</time></trkpt>
<trkpt lat="23.137591" lon="112.387079">
<time>2015-09-27T10:48:36Z</time></trkpt>
<trkpt lat="23.137632" lon="112.387019">
<time>2015-09-27T10:48:37Z</time></trkpt>
<trkpt lat="23.137722" lon="112.386909">
<time>2015-09-27T10:48:38Z</time></trkpt>
<trkpt lat="23.137822" lon="112.386789">
<time>2015-09-27T10:48:39Z</time></trkpt>
<trkpt lat="23.137872" lon="112.386739">
<time>2015-09-27T10:48:40Z</time></trkpt>
<trkpt lat="23.137902" lon="112.386709">
<time>2015-09-27T10:48:41Z</time></trkpt>
<trkpt lat="23.137922" lon="112.386689">
<time>2015-09-27T10:48:42Z</time></trkpt>
<trkpt lat="23.137952" lon="112.386679">
<time>2015-09-27T10:48:43Z</time></trkpt>
<trkpt lat="23.137992" lon="112.386659">
<time>2015-09-27T10:48:44Z</time></trkpt>
<trkpt lat="23.138022" lon="112.386649">
<time>2015-09-27T10:48:45Z</time></trkpt>
<trkpt lat="23.138052" lon="112.386639">
<time>2015-09-27T10:48:46Z</time></trkpt>
<trkpt lat="23.138101" lon="112.386629">
<time>2015-09-27T10:48:47Z</time></trkpt>
<trkpt lat="23.138161" lon="112.386609">
<time>2015-09-27T10:48:48Z</time></trkpt>
<trkpt lat="23.138221" lon="112.386599">
<time>2015-09-27T10:48:49Z</time></trkpt>
<trkpt lat="23.138261" lon="112.386579">
<time>2015-09-27T10:48:50Z</time></trkpt>
<trkpt lat="23.138331" lon="112.386549">
<time>2015-09-27T10:48:51Z</time></trkpt>
<trkpt lat="23.138411" lon="112.386489">
<time>2015-09-27T10:48:52Z</time></trkpt>
<trkpt lat="23.138411" lon="112.386489">
<time>2015-09-27T10:48:53Z</time></trkpt>
<trkpt lat="23.138532" lon="112.385749">
<time>2015-09-27T10:48:54Z</time></trkpt>
<trkpt lat="23.138662" lon="112.38489">
<time>2015-09-27T10:48:55Z</time></trkpt>
<trkpt lat="23.138762" lon="112.38426">
<time>2015-09-27T10:48:56Z</time></trkpt>
<trkpt lat="23.138873" lon="112.38353">
<time>2015-09-27T10:48:57Z</time></trkpt>
<trkpt lat="23.138963" lon="112.382971">
<time>2015-09-27T10:48:58Z</time></trkpt>
<trkpt lat="23.139043" lon="112.382511">
<time>2015-09-27T10:48:59Z</time></trkpt>
<trkpt lat="23.139093" lon="112.382091">
<time>2015-09-27T10:49:00Z</time></trkpt>
<trkpt lat="23.139184" lon="112.381521">
<time>2015-09-27T10:49:01Z</time></trkpt>
<trkpt lat="23.139264" lon="112.381032">
<time>2015-09-27T10:49:02Z</time></trkpt>
<trkpt lat="23.139304" lon="112.380752">
<time>2015-09-27T10:49:03Z</time></trkpt>
<trkpt lat="23.139324" lon="112.380612">
<time>2015-09-27T10:49:04Z</time></trkpt>
<trkpt lat="23.139395" lon="112.380202">
<time>2015-09-27T10:49:05Z</time></trkpt>
<trkpt lat="23.139475" lon="112.379773">
<time>2015-09-27T10:49:06Z</time></trkpt>
<trkpt lat="23.139555" lon="112.379223">
<time>2015-09-27T10:49:07Z</time></trkpt>
<trkpt lat="23.139626" lon="112.378753">
<time>2015-09-27T10:49:08Z</time></trkpt>
<trkpt lat="23.139686" lon="112.378334">
<time>2015-09-27T10:49:09Z</time></trkpt>
<trkpt lat="23.139756" lon="112.378014">
<time>2015-09-27T10:49:10Z</time></trkpt>
<trkpt lat="23.139826" lon="112.377734">
<time>2015-09-27T10:49:11Z</time></trkpt>
<trkpt lat="23.139846" lon="112.377664">
<time>2015-09-27T10:49:12Z</time></trkpt>
<trkpt lat="23.139906" lon="112.377464">
<time>2015-09-27T10:49:13Z</time></trkpt>
<trkpt lat="23.140017" lon="112.377175">
<time>2015-09-27T10:49:14Z</time></trkpt>
<trkpt lat="23.140167" lon="112.376825">
<time>2015-09-27T10:49:15Z</time></trkpt>
<trkpt lat="23.140337" lon="112.376425">
<time>2015-09-27T10:49:16Z</time></trkpt>
<trkpt lat="23.140598" lon="112.375816">
<time>2015-09-27T10:49:17Z</time></trkpt>
<trkpt lat="23.140858" lon="112.375226">
<time>2015-09-27T10:49:18Z</time></trkpt>
<trkpt lat="23.140958" lon="112.374996">
<time>2015-09-27T10:49:19Z</time></trkpt>
<trkpt lat="23.141158" lon="112.374537">
<time>2015-09-27T10:49:20Z</time></trkpt>
<trkpt lat="23.141299" lon="112.374157">
<time>2015-09-27T10:49:21Z</time></trkpt>
<trkpt lat="23.141419" lon="112.373847">
<time>2015-09-27T10:49:22Z</time></trkpt>
<trkpt lat="23.141489" lon="112.373588">
<time>2015-09-27T10:49:23Z</time></trkpt>
<trkpt lat="23.141509" lon="112.373368">
<time>2015-09-27T10:49:24Z</time></trkpt>
<trkpt lat="23.14152" lon="112.373088">
<time>2015-09-27T10:49:25Z</time></trkpt>
<trkpt lat="23.14151" lon="112.372719">
<time>2015-09-27T10:49:26Z</time></trkpt>
<trkpt lat="23.14149" lon="112.372279">
<time>2015-09-27T10:49:27Z</time></trkpt>
<trkpt lat="23.141471" lon="112.371799">
<time>2015-09-27T10:49:28Z</time></trkpt>
<trkpt lat="23.141461" lon="112.37139">
<time>2015-09-27T10:49:29Z</time></trkpt>
<trkpt lat="23.141452" lon="112.37114">
<time>2015-09-27T10:49:30Z</time></trkpt>
<trkpt lat="23.141472" lon="112.3708">
<time>2015-09-27T10:49:31Z</time></trkpt>
<trkpt lat="23.141502" lon="112.370491">
<time>2015-09-27T10:49:32Z</time></trkpt>
<trkpt lat="23.141543" lon="112.370191">
<time>2015-09-27T10:49:33Z</time></trkpt>
<trkpt lat="23.141603" lon="112.369941">
<time>2015-09-27T10:49:34Z</time></trkpt>
<trkpt lat="23.141673" lon="112.369762">
<time>2015-09-27T10:49:35Z</time></trkpt>
<trkpt lat="23.141763" lon="112.369542">
<time>2015-09-27T10:49:36Z</time></trkpt>
<trkpt lat="23.141873" lon="112.369322">
<time>2015-09-27T10:49:37Z</time></trkpt>
<trkpt lat="23.141964" lon="112.369122">
<time>2015-09-27T10:49:38Z</time></trkpt>
<trkpt lat="23.142064" lon="112.368923">
<time>2015-09-27T10:49:39Z</time></trkpt>
<trkpt lat="23.142154" lon="112.368723">
<time>2015-09-27T10:49:40Z</time></trkpt>
<trkpt lat="23.142324" lon="112.368333">
<time>2015-09-27T10:49:41Z</time></trkpt>
<trkpt lat="23.142374" lon="112.368203">
<time>2015-09-27T10:49:42Z</time></trkpt>
<trkpt lat="23.142405" lon="112.368073">
<time>2015-09-27T10:49:43Z</time></trkpt>
<trkpt lat="23.142425" lon="112.367934">
<time>2015-09-27T10:49:44Z</time></trkpt>
<trkpt lat="23.142435" lon="112.367794">
<time>2015-09-27T10:49:45Z</time></trkpt>
<trkpt lat="23.142455" lon="112.367624">
<time>2015-09-27T10:49:46Z</time></trkpt>
<trkpt lat="23.142465" lon="112.367404">
<time>2015-09-27T10:49:47Z</time></trkpt>
<trkpt lat="23.142496" lon="112.367185">
<time>2015-09-27T10:49:48Z</time></trkpt>
<trkpt lat="23.142536" lon="112.366955">
<time>2015-09-27T10:49:49Z</time></trkpt>
<trkpt lat="23.142586" lon="112.366725">
<time>2015-09-27T10:49:50Z</time></trkpt>
<trkpt lat="23.142656" lon="112.366525">
<time>2015-09-27T10:49:51Z</time></trkpt>
<trkpt lat="23.142726" lon="112.366346">
<time>2015-09-27T10:49:52Z</time></trkpt>
<trkpt lat="23.142797" lon="112.366196">
<time>2015-09-27T10:49:53Z</time></trkpt>
<trkpt lat="23.142907" lon="112.366006">
<time>2015-09-27T10:49:54Z</time></trkpt>
<trkpt lat="23.142997" lon="112.365856">
<time>2015-09-27T10:49:55Z</time></trkpt>
<trkpt lat="23.143107" lon="112.365696">
<time>2015-09-27T10:49:56Z</time></trkpt>
<trkpt lat="23.143207" lon="112.365576">
<time>2015-09-27T10:49:57Z</time></trkpt>
<trkpt lat="23.143317" lon="112.365447">
<time>2015-09-27T10:49:58Z</time></trkpt>
<trkpt lat="23.143427" lon="112.365357">
<time>2015-09-27T10:49:59Z</time></trkpt>
<trkpt lat="23.144498" lon="112.364378">
<time>2015-09-27T10:50:00Z</time></trkpt>
<trkpt lat="23.145109" lon="112.363749">
<time>2015-09-27T10:50:01Z</time></trkpt>
<trkpt lat="23.14637" lon="112.36247">
<time>2015-09-27T10:50:02Z</time></trkpt>
<trkpt lat="23.14683" lon="112.362021">
<time>2015-09-27T10:50:03Z</time></trkpt>
<trkpt lat="23.148171" lon="112.360752">
<time>2015-09-27T10:50:04Z</time></trkpt>
<trkpt lat="23.148432" lon="112.360523">
<time>2015-09-27T10:50:05Z</time></trkpt>
<trkpt lat="23.149072" lon="112.359974">
<time>2015-09-27T10:50:06Z</time></trkpt>
<trkpt lat="23.149553" lon="112.359554">
<time>2015-09-27T10:50:07Z</time></trkpt>
<trkpt lat="23.150003" lon="112.359155">
<time>2015-09-27T10:50:08Z</time></trkpt>
<trkpt lat="23.150483" lon="112.358745">
<time>2015-09-27T10:50:09Z</time></trkpt>
<trkpt lat="23.150914" lon="112.358366">
<time>2015-09-27T10:50:10Z</time></trkpt>
<trkpt lat="23.151424" lon="112.357896">
<time>2015-09-27T10:50:11Z</time></trkpt>
<trkpt lat="23.151654" lon="112.357717">
<time>2015-09-27T10:50:12Z</time></trkpt>
<trkpt lat="23.151794" lon="112.357607">
<time>2015-09-27T10:50:13Z</time></trkpt>
<trkpt lat="23.151975" lon="112.357447">
<time>2015-09-27T10:50:14Z</time></trkpt>
<trkpt lat="23.152125" lon="112.357337">
<time>2015-09-27T10:50:15Z</time></trkpt>
<trkpt lat="23.152315" lon="112.357207">
<time>2015-09-27T10:50:16Z</time></trkpt>
<trkpt lat="23.152465" lon="112.357117">
<time>2015-09-27T10:50:17Z</time></trkpt>
<trkpt lat="23.152715" lon="112.357018">
<time>2015-09-27T10:50:18Z</time></trkpt>
<trkpt lat="23.153185" lon="112.356838">
<time>2015-09-27T10:50:19Z</time></trkpt>
<trkpt lat="23.153955" lon="112.356558">
<time>2015-09-27T10:50:20Z</time></trkpt>
<trkpt lat="23.154485" lon="112.356368">
<time>2015-09-27T10:50:21Z</time></trkpt>
<trkpt lat="23.154945" lon="112.356199">
<time>2015-09-27T10:50:22Z</time></trkpt>
<trkpt lat="23.155395" lon="112.356049">
<time>2015-09-27T10:50:23Z</time></trkpt>
<trkpt lat="23.155515" lon="112.356009">
<time>2015-09-27T10:50:24Z</time></trkpt>
<trkpt lat="23.155625" lon="112.355999">
<time>2015-09-27T10:50:25Z</time></trkpt>
<trkpt lat="23.155845" lon="112.355999">
<time>2015-09-27T10:50:26Z</time></trkpt>
<trkpt lat="23.156175" lon="112.356049">
<time>2015-09-27T10:50:27Z</time></trkpt>
<trkpt lat="23.156565" lon="112.356109">
<time>2015-09-27T10:50:28Z</time></trkpt>
<trkpt lat="23.157294" lon="112.356248">
<time>2015-09-27T10:50:29Z</time></trkpt>
<trkpt lat="23.158154" lon="112.356388">
<time>2015-09-27T10:50:30Z</time></trkpt>
<trkpt lat="23.159103" lon="112.356538">
<time>2015-09-27T10:50:31Z</time></trkpt>
<trkpt lat="23.159913" lon="112.356678">
<time>2015-09-27T10:50:32Z</time></trkpt>
<trkpt lat="23.160902" lon="112.356857">
<time>2015-09-27T10:50:33Z</time></trkpt>
<trkpt lat="23.161691" lon="112.356997">
<time>2015-09-27T10:50:34Z</time></trkpt>
<trkpt lat="23.162171" lon="112.357077">
<time>2015-09-27T10:50:35Z</time></trkpt>
<trkpt lat="23.162651" lon="112.357147">
<time>2015-09-27T10:50:36Z</time></trkpt>
<trkpt lat="23.163071" lon="112.357217">
<time>2015-09-27T10:50:37Z</time></trkpt>
<trkpt lat="23.16341" lon="112.357267">
<time>2015-09-27T10:50:38Z</time></trkpt>
<trkpt lat="23.16364" lon="112.357276">
<time>2015-09-27T10:50:39Z</time></trkpt>
<trkpt lat="23.16385" lon="112.357257">
<time>2015-09-27T10:50:40Z</time></trkpt>
<trkpt lat="23.16406" lon="112.357187">
<time>2015-09-27T10:50:41Z</time></trkpt>
<trkpt lat="23.16429" lon="112.357097">
<time>2015-09-27T10:50:42Z</time></trkpt>
<trkpt lat="23.16449" lon="112.356977">
<time>2015-09-27T10:50:43Z</time></trkpt>
<trkpt lat="23.164701" lon="112.356817">
<time>2015-09-27T10:50:44Z</time></trkpt>
<trkpt lat="23.164981" lon="112.356607">
<time>2015-09-27T10:50:45Z</time></trkpt>
<trkpt lat="23.165401" lon="112.356278">
<time>2015-09-27T10:50:46Z</time></trkpt>
<trkpt lat="23.165931" lon="112.355868">
<time>2015-09-27T10:50:47Z</time></trkpt>
<trkpt lat="23.166462" lon="112.355459">
<time>2015-09-27T10:50:48Z</time></trkpt>
<trkpt lat="23.166662" lon="112.355299">
<time>2015-09-27T10:50:49Z</time></trkpt>
<trkpt lat="23.168413" lon="112.353921">
<time>2015-09-27T10:50:50Z</time></trkpt>
<trkpt lat="23.168884" lon="112.353492">
<time>2015-09-27T10:50:51Z</time></trkpt>
<trkpt lat="23.170466" lon="112.351735">
<time>2015-09-27T10:50:52Z</time></trkpt>
<trkpt lat="23.170486" lon="112.351715">
<time>2015-09-27T10:50:53Z</time></trkpt>
<trkpt lat="23.170656" lon="112.351475">
<time>2015-09-27T10:50:54Z</time></trkpt>
<trkpt lat="23.170997" lon="112.350996">
<time>2015-09-27T10:50:55Z</time></trkpt>
<trkpt lat="23.171147" lon="112.350776">
<time>2015-09-27T10:50:56Z</time></trkpt>
<trkpt lat="23.171268" lon="112.350557">
<time>2015-09-27T10:50:57Z</time></trkpt>
<trkpt lat="23.171609" lon="112.349928">
<time>2015-09-27T10:50:58Z</time></trkpt>
<trkpt lat="23.172541" lon="112.347941">
<time>2015-09-27T10:50:59Z</time></trkpt>
<trkpt lat="23.173876" lon="112.345056">
<time>2015-09-27T10:51:00Z</time></trkpt>
<trkpt lat="23.174187" lon="112.344377">
<time>2015-09-27T10:51:01Z</time></trkpt>
<trkpt lat="23.174589" lon="112.343309">
<time>2015-09-27T10:51:02Z</time></trkpt>
<trkpt lat="23.176258" lon="112.337649">
<time>2015-09-27T10:51:03Z</time></trkpt>
<trkpt lat="23.17657" lon="112.336611">
<time>2015-09-27T10:51:04Z</time></trkpt>
<trkpt lat="23.17659" lon="112.336532">
<time>2015-09-27T10:51:05Z</time></trkpt>
<trkpt lat="23.17663" lon="112.336322">
<time>2015-09-27T10:51:06Z</time></trkpt>
<trkpt lat="23.176651" lon="112.336022">
<time>2015-09-27T10:51:07Z</time></trkpt>
<trkpt lat="23.176703" lon="112.334935">
<time>2015-09-27T10:51:08Z</time></trkpt>
<trkpt lat="23.176838" lon="112.33202">
<time>2015-09-27T10:51:09Z</time></trkpt>
<trkpt lat="23.177026" lon="112.328008">
<time>2015-09-27T10:51:10Z</time></trkpt>
<trkpt lat="23.177088" lon="112.326651">
<time>2015-09-27T10:51:11Z</time></trkpt>
<trkpt lat="23.177213" lon="112.324285">
<time>2015-09-27T10:51:12Z</time></trkpt>
<trkpt lat="23.177297" lon="112.32194">
<time>2015-09-27T10:51:13Z</time></trkpt>
<trkpt lat="23.177278" lon="112.321651">
<time>2015-09-27T10:51:14Z</time></trkpt>
<trkpt lat="23.177258" lon="112.321491">
<time>2015-09-27T10:51:15Z</time></trkpt>
<trkpt lat="23.17714" lon="112.320762">
<time>2015-09-27T10:51:16Z</time></trkpt>
<trkpt lat="23.176624" lon="112.318467">
<time>2015-09-27T10:51:17Z</time></trkpt>
<trkpt lat="23.17592" lon="112.315573">
<time>2015-09-27T10:51:18Z</time></trkpt>
<trkpt lat="23.175741" lon="112.314864">
<time>2015-09-27T10:51:19Z</time></trkpt>
<trkpt lat="23.175613" lon="112.314115">
<time>2015-09-27T10:51:20Z</time></trkpt>
<trkpt lat="23.175535" lon="112.313237">
<time>2015-09-27T10:51:21Z</time></trkpt>
<trkpt lat="23.175477" lon="112.31172">
<time>2015-09-27T10:51:22Z</time></trkpt>
<trkpt lat="23.175382" lon="112.309205">
<time>2015-09-27T10:51:23Z</time></trkpt>
<trkpt lat="23.175373" lon="112.308526">
<time>2015-09-27T10:51:24Z</time></trkpt>
<trkpt lat="23.175394" lon="112.308296">
<time>2015-09-27T10:51:25Z</time></trkpt>
<trkpt lat="23.175424" lon="112.308017">
<time>2015-09-27T10:51:26Z</time></trkpt>
<trkpt lat="23.175475" lon="112.307648">
<time>2015-09-27T10:51:27Z</time></trkpt>
<trkpt lat="23.175748" lon="112.305991">
<time>2015-09-27T10:51:28Z</time></trkpt>
<trkpt lat="23.176123" lon="112.303046">
<time>2015-09-27T10:51:29Z</time></trkpt>
<trkpt lat="23.176437" lon="112.30083">
<time>2015-09-27T10:51:30Z</time></trkpt>
<trkpt lat="23.176498" lon="112.300171">
<time>2015-09-27T10:51:31Z</time></trkpt>
<trkpt lat="23.176508" lon="112.299822">
<time>2015-09-27T10:51:32Z</time></trkpt>
<trkpt lat="23.176499" lon="112.299502">
<time>2015-09-27T10:51:33Z</time></trkpt>
<trkpt lat="23.176479" lon="112.299283">
<time>2015-09-27T10:51:34Z</time></trkpt>
<trkpt lat="23.17643" lon="112.298863">
<time>2015-09-27T10:51:35Z</time></trkpt>
<trkpt lat="23.176063" lon="112.297056">
<time>2015-09-27T10:51:36Z</time></trkpt>
<trkpt lat="23.175875" lon="112.295868">
<time>2015-09-27T10:51:37Z</time></trkpt>
<trkpt lat="23.175756" lon="112.295389">
<time>2015-09-27T10:51:38Z</time></trkpt>
<trkpt lat="23.175508" lon="112.294571">
<time>2015-09-27T10:51:39Z</time></trkpt>
<trkpt lat="23.175378" lon="112.294111">
<time>2015-09-27T10:51:40Z</time></trkpt>
<trkpt lat="23.175349" lon="112.293972">
<time>2015-09-27T10:51:41Z</time></trkpt>
<trkpt lat="23.175309" lon="112.293732">
<time>2015-09-27T10:51:42Z</time></trkpt>
<trkpt lat="23.175289" lon="112.293572">
<time>2015-09-27T10:51:43Z</time></trkpt>
<trkpt lat="23.17528" lon="112.293173">
<time>2015-09-27T10:51:44Z</time></trkpt>
<trkpt lat="23.175221" lon="112.292414">
<time>2015-09-27T10:51:45Z</time></trkpt>
<trkpt lat="23.174945" lon="112.290028">
<time>2015-09-27T10:51:46Z</time></trkpt>
<trkpt lat="23.174747" lon="112.28849">
<time>2015-09-27T10:51:47Z</time></trkpt>
<trkpt lat="23.174668" lon="112.287891">
<time>2015-09-27T10:51:48Z</time></trkpt>
<trkpt lat="23.174658" lon="112.287791">
<time>2015-09-27T10:51:49Z</time></trkpt>
<trkpt lat="23.174658" lon="112.287631">
<time>2015-09-27T10:51:50Z</time></trkpt>
<trkpt lat="23.174669" lon="112.287581">
<time>2015-09-27T10:51:51Z</time></trkpt>
<trkpt lat="23.174669" lon="112.287581">
<time>2015-09-27T10:51:52Z</time></trkpt>
<trkpt lat="23.174569" lon="112.287392">
<time>2015-09-27T10:51:53Z</time></trkpt>
<trkpt lat="23.174549" lon="112.287352">
<time>2015-09-27T10:51:54Z</time></trkpt>
<trkpt lat="23.174529" lon="112.287292">
<time>2015-09-27T10:51:55Z</time></trkpt>
<trkpt lat="23.174449" lon="112.287002">
<time>2015-09-27T10:51:56Z</time></trkpt>
<trkpt lat="23.17443" lon="112.286942">
<time>2015-09-27T10:51:57Z</time></trkpt>
<trkpt lat="23.17442" lon="112.286912">
<time>2015-09-27T10:51:58Z</time></trkpt>
<trkpt lat="23.1744" lon="112.286892">
<time>2015-09-27T10:51:59Z</time></trkpt>
<trkpt lat="23.17438" lon="112.286872">
<time>2015-09-27T10:52:00Z</time></trkpt>
<trkpt lat="23.17436" lon="112.286852">
<time>2015-09-27T10:52:01Z</time></trkpt>
<trkpt lat="23.17433" lon="112.286832">
<time>2015-09-27T10:52:02Z</time></trkpt>
<trkpt lat="23.17428" lon="112.286803">
<time>2015-09-27T10:52:03Z</time></trkpt>
<trkpt lat="23.17423" lon="112.286773">
<time>2015-09-27T10:52:04Z</time></trkpt>
<trkpt lat="23.17417" lon="112.286733">
<time>2015-09-27T10:52:05Z</time></trkpt>
<trkpt lat="23.17411" lon="112.286683">
<time>2015-09-27T10:52:06Z</time></trkpt>
<trkpt lat="23.17406" lon="112.286633">
<time>2015-09-27T10:52:07Z</time></trkpt>
<trkpt lat="23.17401" lon="112.286583">
<time>2015-09-27T10:52:08Z</time></trkpt>
<trkpt lat="23.17398" lon="112.286543">
<time>2015-09-27T10:52:09Z</time></trkpt>
<trkpt lat="23.17395" lon="112.286513">
<time>2015-09-27T10:52:10Z</time></trkpt>
<trkpt lat="23.17394" lon="112.286483">
<time>2015-09-27T10:52:11Z</time></trkpt>
<trkpt lat="23.17393" lon="112.286463">
<time>2015-09-27T10:52:12Z</time></trkpt>
<trkpt lat="23.17392" lon="112.286433">
<time>2015-09-27T10:52:13Z</time></trkpt>
<trkpt lat="23.173911" lon="112.286403">
<time>2015-09-27T10:52:14Z</time></trkpt>
<trkpt lat="23.173911" lon="112.286383">
<time>2015-09-27T10:52:15Z</time></trkpt>
<trkpt lat="23.173911" lon="112.286353">
<time>2015-09-27T10:52:16Z</time></trkpt>
<trkpt lat="23.173911" lon="112.286323">
<time>2015-09-27T10:52:17Z</time></trkpt>
<trkpt lat="23.173921" lon="112.286283">
<time>2015-09-27T10:52:18Z</time></trkpt>
<trkpt lat="23.173921" lon="112.286263">
<time>2015-09-27T10:52:19Z</time></trkpt>
<trkpt lat="23.173931" lon="112.286233">
<time>2015-09-27T10:52:20Z</time></trkpt>
<trkpt lat="23.173961" lon="112.286173">
<time>2015-09-27T10:52:21Z</time></trkpt>
<trkpt lat="23.173991" lon="112.286123">
<time>2015-09-27T10:52:22Z</time></trkpt>
<trkpt lat="23.174021" lon="112.286074">
<time>2015-09-27T10:52:23Z</time></trkpt>
<trkpt lat="23.174051" lon="112.286044">
<time>2015-09-27T10:52:24Z</time></trkpt>
<trkpt lat="23.174251" lon="112.285844">
<time>2015-09-27T10:52:25Z</time></trkpt>
<trkpt lat="23.174291" lon="112.285784">
<time>2015-09-27T10:52:26Z</time></trkpt>
<trkpt lat="23.174331" lon="112.285724">
<time>2015-09-27T10:52:27Z</time></trkpt>
<trkpt lat="23.174361" lon="112.285664">
<time>2015-09-27T10:52:28Z</time></trkpt>
<trkpt lat="23.174391" lon="112.285604">
<time>2015-09-27T10:52:29Z</time></trkpt>
<trkpt lat="23.174402" lon="112.285534">
<time>2015-09-27T10:52:30Z</time></trkpt>
<trkpt lat="23.174422" lon="112.285474">
<time>2015-09-27T10:52:31Z</time></trkpt>
<trkpt lat="23.174422" lon="112.285444">
<time>2015-09-27T10:52:32Z</time></trkpt>
<trkpt lat="23.174422" lon="112.285424">
<time>2015-09-27T10:52:33Z</time></trkpt>
<trkpt lat="23.174422" lon="112.285404">
<time>2015-09-27T10:52:34Z</time></trkpt>
<trkpt lat="23.174422" lon="112.285384">
<time>2015-09-27T10:52:35Z</time></trkpt>
<trkpt lat="23.174412" lon="112.285345">
<time>2015-09-27T10:52:36Z</time></trkpt>
<trkpt lat="23.174402" lon="112.285315">
<time>2015-09-27T10:52:37Z</time></trkpt>
<trkpt lat="23.174382" lon="112.285275">
<time>2015-09-27T10:52:38Z</time></trkpt>
<trkpt lat="23.174362" lon="112.285235">
<time>2015-09-27T10:52:39Z</time></trkpt>
<trkpt lat="23.174292" lon="112.285135">
<time>2015-09-27T10:52:40Z</time></trkpt>
<trkpt lat="23.174112" lon="112.284945">
<time>2015-09-27T10:52:41Z</time></trkpt>
<trkpt lat="23.173743" lon="112.284546">
<time>2015-09-27T10:52:42Z</time></trkpt>
<trkpt lat="23.173214" lon="112.283966">
<time>2015-09-27T10:52:43Z</time></trkpt>
<trkpt lat="23.173094" lon="112.283847">
<time>2015-09-27T10:52:44Z</time></trkpt>
<trkpt lat="23.172975" lon="112.283747">
<time>2015-09-27T10:52:45Z</time></trkpt>
<trkpt lat="23.172875" lon="112.283677">
<time>2015-09-27T10:52:46Z</time></trkpt>
<trkpt lat="23.172775" lon="112.283617">
<time>2015-09-27T10:52:47Z</time></trkpt>
<trkpt lat="23.172365" lon="112.283417">
<time>2015-09-27T10:52:48Z</time></trkpt>
<trkpt lat="23.172006" lon="112.283218">
<time>2015-09-27T10:52:49Z</time></trkpt>
<trkpt lat="23.171926" lon="112.283168">
<time>2015-09-27T10:52:50Z</time></trkpt>
<trkpt lat="23.171926" lon="112.283168">
<time>2015-09-27T10:52:51Z</time></trkpt>
<trkpt lat="23.171826" lon="112.283118">
<time>2015-09-27T10:52:52Z</time></trkpt>
<trkpt lat="23.171736" lon="112.283068">
<time>2015-09-27T10:52:53Z</time></trkpt>
<trkpt lat="23.171646" lon="112.283008">
<time>2015-09-27T10:52:54Z</time></trkpt>
<trkpt lat="23.171556" lon="112.282938">
<time>2015-09-27T10:52:55Z</time></trkpt>
<trkpt lat="23.171227" lon="112.282678">
<time>2015-09-27T10:52:56Z</time></trkpt>
<trkpt lat="23.170627" lon="112.282209">
<time>2015-09-27T10:52:57Z</time></trkpt>
<trkpt lat="23.170178" lon="112.281959">
<time>2015-09-27T10:52:58Z</time></trkpt>
<trkpt lat="23.169918" lon="112.28181">
<time>2015-09-27T10:52:59Z</time></trkpt>
<trkpt lat="23.169629" lon="112.28163">
<time>2015-09-27T10:53:00Z</time></trkpt>
<trkpt lat="23.169189" lon="112.28138">
<time>2015-09-27T10:53:01Z</time></trkpt>
<trkpt lat="23.169089" lon="112.28128">
<time>2015-09-27T10:53:02Z</time></trkpt>
<trkpt lat="23.168999" lon="112.28115">
<time>2015-09-27T10:53:03Z</time></trkpt>
<trkpt lat="23.16897" lon="112.281031">
<time>2015-09-27T10:53:04Z</time></trkpt>
<trkpt lat="23.16886" lon="112.280631">
<time>2015-09-27T10:53:05Z</time></trkpt>
<trkpt lat="23.168741" lon="112.280152">
<time>2015-09-27T10:53:06Z</time></trkpt>
<trkpt lat="23.168592" lon="112.279502">
<time>2015-09-27T10:53:07Z</time></trkpt>
<trkpt lat="23.168522" lon="112.279253">
<time>2015-09-27T10:53:08Z</time></trkpt>
<trkpt lat="23.168522" lon="112.279253">
<time>2015-09-27T10:53:09Z</time></trkpt>
<trkpt lat="23.168482" lon="112.279143">
<time>2015-09-27T10:53:10Z</time></trkpt>
<trkpt lat="23.168482" lon="112.278853">
<time>2015-09-27T10:53:11Z</time></trkpt>
<trkpt lat="23.168483" lon="112.278733">
<time>2015-09-27T10:53:12Z</time></trkpt>
<trkpt lat="23.168463" lon="112.278643">
<time>2015-09-27T10:53:13Z</time></trkpt>
<trkpt lat="23.168423" lon="112.278434">
<time>2015-09-27T10:53:14Z</time></trkpt>
<trkpt lat="23.168423" lon="112.278294">
<time>2015-09-27T10:53:15Z</time></trkpt>
<trkpt lat="23.168413" lon="112.278104">
<time>2015-09-27T10:53:16Z</time></trkpt>
<trkpt lat="23.168413" lon="112.278104">
<time>2015-09-27T10:53:17Z</time></trkpt>
<trkpt lat="23.168333" lon="112.278144">
<time>2015-09-27T10:53:18Z</time></trkpt>
<trkpt lat="23.168143" lon="112.278244">
<time>2015-09-27T10:53:19Z</time></trkpt>
<trkpt lat="23.167813" lon="112.278414">
<time>2015-09-27T10:53:20Z</time></trkpt>
<trkpt lat="23.167643" lon="112.278514">
<time>2015-09-27T10:53:21Z</time></trkpt>
<trkpt lat="23.167433" lon="112.278624">
<time>2015-09-27T10:53:22Z</time></trkpt>
<trkpt lat="23.167093" lon="112.278833">
<time>2015-09-27T10:53:23Z</time></trkpt>
<trkpt lat="23.166863" lon="112.278973">
<time>2015-09-27T10:53:24Z</time></trkpt>
<trkpt lat="23.166663" lon="112.279093">
<time>2015-09-27T10:53:25Z</time></trkpt>
<trkpt lat="23.166663" lon="112.279103">
<time>2015-09-27T10:53:26Z</time></trkpt>
<trkpt lat="23.166523" lon="112.279173">
<time>2015-09-27T10:53:27Z</time></trkpt>
<trkpt lat="23.166413" lon="112.279233">
<time>2015-09-27T10:53:28Z</time></trkpt>
<trkpt lat="23.166273" lon="112.279303">
<time>2015-09-27T10:53:29Z</time></trkpt>
<trkpt lat="23.166143" lon="112.279353">
<time>2015-09-27T10:53:30Z</time></trkpt>
<trkpt lat="23.166003" lon="112.279403">
<time>2015-09-27T10:53:31Z</time></trkpt>
<trkpt lat="23.165903" lon="112.279433">
<time>2015-09-27T10:53:32Z</time></trkpt>
<trkpt lat="23.165793" lon="112.279473">
<time>2015-09-27T10:53:33Z</time></trkpt>
<trkpt lat="23.165673" lon="112.279493">
<time>2015-09-27T10:53:34Z</time></trkpt>
<trkpt lat="23.165533" lon="112.279523">
<time>2015-09-27T10:53:35Z</time></trkpt>
<trkpt lat="23.165403" lon="112.279533">
<time>2015-09-27T10:53:36Z</time></trkpt>
<trkpt lat="23.165283" lon="112.279533">
<time>2015-09-27T10:53:37Z</time></trkpt>
<trkpt lat="23.165133" lon="112.279533">
<time>2015-09-27T10:53:38Z</time></trkpt>
<trkpt lat="23.164963" lon="112.279523">
<time>2015-09-27T10:53:39Z</time></trkpt>
<trkpt lat="23.164753" lon="112.279503">
<time>2015-09-27T10:53:40Z</time></trkpt>
<trkpt lat="23.164533" lon="112.279473">
<time>2015-09-27T10:53:41Z</time></trkpt>
<trkpt lat="23.164373" lon="112.279453">
<time>2015-09-27T10:53:42Z</time></trkpt>
<trkpt lat="23.164133" lon="112.279413">
<time>2015-09-27T10:53:43Z</time></trkpt>
<trkpt lat="23.163964" lon="112.279393">
<time>2015-09-27T10:53:44Z</time></trkpt>
<trkpt lat="23.163774" lon="112.279363">
<time>2015-09-27T10:53:45Z</time></trkpt>
<trkpt lat="23.163484" lon="112.279323">
<time>2015-09-27T10:53:46Z</time></trkpt>
<trkpt lat="23.163274" lon="112.279283">
<time>2015-09-27T10:53:47Z</time></trkpt>
<trkpt lat="23.163034" lon="112.279233">
<time>2015-09-27T10:53:48Z</time></trkpt>
<trkpt lat="23.162744" lon="112.279183">
<time>2015-09-27T10:53:49Z</time></trkpt>
<trkpt lat="23.162375" lon="112.279103">
<time>2015-09-27T10:53:50Z</time></trkpt>
<trkpt lat="23.162065" lon="112.279033">
<time>2015-09-27T10:53:51Z</time></trkpt>
<trkpt lat="23.161815" lon="112.278974">
<time>2015-09-27T10:53:52Z</time></trkpt>
<trkpt lat="23.161605" lon="112.278934">
<time>2015-09-27T10:53:53Z</time></trkpt>
<trkpt lat="23.161495" lon="112.278914">
<time>2015-09-27T10:53:54Z</time></trkpt>
<trkpt lat="23.161375" lon="112.278904">
<time>2015-09-27T10:53:55Z</time></trkpt>
<trkpt lat="23.161165" lon="112.278884">
<time>2015-09-27T10:53:56Z</time></trkpt>
<trkpt lat="23.161045" lon="112.278884">
<time>2015-09-27T10:53:57Z</time></trkpt>
<trkpt lat="23.160845" lon="112.278904">
<time>2015-09-27T10:53:58Z</time></trkpt>
<trkpt lat="23.160725" lon="112.278924">
<time>2015-09-27T10:53:59Z</time></trkpt>
<trkpt lat="23.160565" lon="112.278954">
<time>2015-09-27T10:54:00Z</time></trkpt>
<trkpt lat="23.160405" lon="112.278984">
<time>2015-09-27T10:54:01Z</time></trkpt>
<trkpt lat="23.160215" lon="112.279034">
<time>2015-09-27T10:54:02Z</time></trkpt>
<trkpt lat="23.160065" lon="112.279074">
<time>2015-09-27T10:54:03Z</time></trkpt>
<trkpt lat="23.159915" lon="112.279113">
<time>2015-09-27T10:54:04Z</time></trkpt>
<trkpt lat="23.159795" lon="112.279153">
<time>2015-09-27T10:54:05Z</time></trkpt>
<trkpt lat="23.159675" lon="112.279193">
<time>2015-09-27T10:54:06Z</time></trkpt>
<trkpt lat="23.159545" lon="112.279233">
<time>2015-09-27T10:54:07Z</time></trkpt>
<trkpt lat="23.159265" lon="112.279333">
<time>2015-09-27T10:54:08Z</time></trkpt>
<trkpt lat="23.159015" lon="112.279443">
<time>2015-09-27T10:54:09Z</time></trkpt>
<trkpt lat="23.158905" lon="112.279493">
<time>2015-09-27T10:54:10Z</time></trkpt>
<trkpt lat="23.158805" lon="112.279543">
<time>2015-09-27T10:54:11Z</time></trkpt>
<trkpt lat="23.158685" lon="112.279613">
<time>2015-09-27T10:54:12Z</time></trkpt>
<trkpt lat="23.158535" lon="112.279693">
<time>2015-09-27T10:54:13Z</time></trkpt>
<trkpt lat="23.158405" lon="112.279773">
<time>2015-09-27T10:54:14Z</time></trkpt>
<trkpt lat="23.158275" lon="112.279833">
<time>2015-09-27T10:54:15Z</time></trkpt>
<trkpt lat="23.158205" lon="112.279873">
<time>2015-09-27T10:54:16Z</time></trkpt>
<trkpt lat="23.158115" lon="112.279923">
<time>2015-09-27T10:54:17Z</time></trkpt>
<trkpt lat="23.158025" lon="112.279963">
<time>2015-09-27T10:54:18Z</time></trkpt>
<trkpt lat="23.157945" lon="112.280003">
<time>2015-09-27T10:54:19Z</time></trkpt>
<trkpt lat="23.157825" lon="112.280043">
<time>2015-09-27T10:54:20Z</time></trkpt>
<trkpt lat="23.157715" lon="112.280072">
<time>2015-09-27T10:54:21Z</time></trkpt>
<trkpt lat="23.157585" lon="112.280092">
<time>2015-09-27T10:54:22Z</time></trkpt>
<trkpt lat="23.157445" lon="112.280102">
<time>2015-09-27T10:54:23Z</time></trkpt>
<trkpt lat="23.157315" lon="112.280112">
<time>2015-09-27T10:54:24Z</time></trkpt>
<trkpt lat="23.157165" lon="112.280112">
<time>2015-09-27T10:54:25Z</time></trkpt>
<trkpt lat="23.157105" lon="112.280112">
<time>2015-09-27T10:54:26Z</time></trkpt>
<trkpt lat="23.156755" lon="112.280113">
<time>2015-09-27T10:54:27Z</time></trkpt>
<trkpt lat="23.156376" lon="112.280123">
<time>2015-09-27T10:54:28Z</time></trkpt>
<trkpt lat="23.156366" lon="112.280123">
<time>2015-09-27T10:54:29Z</time></trkpt>
<trkpt lat="23.156166" lon="112.280123">
<time>2015-09-27T10:54:30Z</time></trkpt>
<trkpt lat="23.156136" lon="112.280123">
<time>2015-09-27T10:54:31Z</time></trkpt>
<trkpt lat="23.155606" lon="112.280123">
<time>2015-09-27T10:54:32Z</time></trkpt>
<trkpt lat="23.155166" lon="112.280123">
<time>2015-09-27T10:54:33Z</time></trkpt>
<trkpt lat="23.154826" lon="112.280133">
<time>2015-09-27T10:54:34Z</time></trkpt>
<trkpt lat="23.154486" lon="112.280133">
<time>2015-09-27T10:54:35Z</time></trkpt>
<trkpt lat="23.154156" lon="112.280133">
<time>2015-09-27T10:54:36Z</time></trkpt>
<trkpt lat="23.153657" lon="112.280143">
<time>2015-09-27T10:54:37Z</time></trkpt>
<trkpt lat="23.153327" lon="112.280133">
<time>2015-09-27T10:54:38Z</time></trkpt>
<trkpt lat="23.153167" lon="112.280133">
<time>2015-09-27T10:54:39Z</time></trkpt>
<trkpt lat="23.152917" lon="112.280113">
<time>2015-09-27T10:54:40Z</time></trkpt>
<trkpt lat="23.152737" lon="112.280103">
<time>2015-09-27T10:54:41Z</time></trkpt>
<trkpt lat="23.152487" lon="112.280093">
<time>2015-09-27T10:54:42Z</time></trkpt>
<trkpt lat="23.152237" lon="112.280073">
<time>2015-09-27T10:54:43Z</time></trkpt>
<trkpt lat="23.151987" lon="112.280063">
<time>2015-09-27T10:54:44Z</time></trkpt>
<trkpt lat="23.150598" lon="112.279963">
<time>2015-09-27T10:54:45Z</time></trkpt>
<trkpt lat="23.150398" lon="112.279953">
<time>2015-09-27T10:54:46Z</time></trkpt>
<trkpt lat="23.150078" lon="112.279933">
<time>2015-09-27T10:54:47Z</time></trkpt>
<trkpt lat="23.149888" lon="112.279923">
<time>2015-09-27T10:54:48Z</time></trkpt>
<trkpt lat="23.149599" lon="112.279903">
<time>2015-09-27T10:54:49Z</time></trkpt>
<trkpt lat="23.149289" lon="112.279883">
<time>2015-09-27T10:54:50Z</time></trkpt>
<trkpt lat="23.148979" lon="112.279863">
<time>2015-09-27T10:54:51Z</time></trkpt>
<trkpt lat="23.148769" lon="112.279833">
<time>2015-09-27T10:54:52Z</time></trkpt>
<trkpt lat="23.148619" lon="112.279813">
<time>2015-09-27T10:54:53Z</time></trkpt>
<trkpt lat="23.148479" lon="112.279783">
<time>2015-09-27T10:54:54Z</time></trkpt>
<trkpt lat="23.148319" lon="112.279744">
<time>2015-09-27T10:54:55Z</time></trkpt>
<trkpt lat="23.148169" lon="112.279694">
<time>2015-09-27T10:54:56Z</time></trkpt>
<trkpt lat="23.14788" lon="112.279584">
<time>2015-09-27T10:54:57Z</time></trkpt>
<trkpt lat="23.14766" lon="112.279494">
<time>2015-09-27T10:54:58Z</time></trkpt>
<trkpt lat="23.14748" lon="112.279424">
<time>2015-09-27T10:54:59Z</time></trkpt>
<trkpt lat="23.14724" lon="112.279324">
<time>2015-09-27T10:55:00Z</time></trkpt>
<trkpt lat="23.14702" lon="112.279234">
<time>2015-09-27T10:55:01Z</time></trkpt>
<trkpt lat="23.146741" lon="112.279124">
<time>2015-09-27T10:55:02Z</time></trkpt>
<trkpt lat="23.146541" lon="112.279044">
<time>2015-09-27T10:55:03Z</time></trkpt>
<trkpt lat="23.146261" lon="112.278925">
<time>2015-09-27T10:55:04Z</time></trkpt>
<trkpt lat="23.146031" lon="112.278835">
<time>2015-09-27T10:55:05Z</time></trkpt>
<trkpt lat="23.145761" lon="112.278715">
<time>2015-09-27T10:55:06Z</time></trkpt>
<trkpt lat="23.145552" lon="112.278635">
<time>2015-09-27T10:55:07Z</time></trkpt>
<trkpt lat="23.145362" lon="112.278565">
<time>2015-09-27T10:55:08Z</time></trkpt>
<trkpt lat="23.145122" lon="112.278465">
<time>2015-09-27T10:55:09Z</time></trkpt>
<trkpt lat="23.144912" lon="112.278375">
<time>2015-09-27T10:55:10Z</time></trkpt>
<trkpt lat="23.144652" lon="112.278275">
<time>2015-09-27T10:55:11Z</time></trkpt>
<trkpt lat="23.144483" lon="112.278196">
<time>2015-09-27T10:55:12Z</time></trkpt>
<trkpt lat="23.144213" lon="112.278076">
<time>2015-09-27T10:55:13Z</time></trkpt>
<trkpt lat="23.143983" lon="112.277966">
<time>2015-09-27T10:55:14Z</time></trkpt>
<trkpt lat="23.143803" lon="112.277836">
<time>2015-09-27T10:55:15Z</time></trkpt>
<trkpt lat="23.143564" lon="112.277656">
<time>2015-09-27T10:55:16Z</time></trkpt>
<trkpt lat="23.143344" lon="112.277456">
<time>2015-09-27T10:55:17Z</time></trkpt>
<trkpt lat="23.143104" lon="112.277257">
<time>2015-09-27T10:55:18Z</time></trkpt>
<trkpt lat="23.142895" lon="112.277057">
<time>2015-09-27T10:55:19Z</time></trkpt>
<trkpt lat="23.142835" lon="112.277007">
<time>2015-09-27T10:55:20Z</time></trkpt>
<trkpt lat="23.142825" lon="112.276997">
<time>2015-09-27T10:55:21Z</time></trkpt>
<trkpt lat="23.142625" lon="112.276817">
<time>2015-09-27T10:55:22Z</time></trkpt>
<trkpt lat="23.142335" lon="112.276548">
<time>2015-09-27T10:55:23Z</time></trkpt>
<trkpt lat="23.142086" lon="112.276318">
<time>2015-09-27T10:55:24Z</time></trkpt>
<trkpt lat="23.141866" lon="112.276118">
<time>2015-09-27T10:55:25Z</time></trkpt>
<trkpt lat="23.141686" lon="112.275968">
<time>2015-09-27T10:55:26Z</time></trkpt>
<trkpt lat="23.141477" lon="112.275828">
<time>2015-09-27T10:55:27Z</time></trkpt>
<trkpt lat="23.141327" lon="112.275729">
<time>2015-09-27T10:55:28Z</time></trkpt>
<trkpt lat="23.141207" lon="112.275669">
<time>2015-09-27T10:55:29Z</time></trkpt>
<trkpt lat="23.141037" lon="112.275609">
<time>2015-09-27T10:55:30Z</time></trkpt>
<trkpt lat="23.140877" lon="112.275559">
<time>2015-09-27T10:55:31Z</time></trkpt>
<trkpt lat="23.140687" lon="112.275529">
<time>2015-09-27T10:55:32Z</time></trkpt>
<trkpt lat="23.140457" lon="112.275479">
<time>2015-09-27T10:55:33Z</time></trkpt>
<trkpt lat="23.140167" lon="112.275429">
<time>2015-09-27T10:55:34Z</time></trkpt>
<trkpt lat="23.139828" lon="112.275389">
<time>2015-09-27T10:55:35Z</time></trkpt>
<trkpt lat="23.139438" lon="112.275339">
<time>2015-09-27T10:55:36Z</time></trkpt>
<trkpt lat="23.138988" lon="112.275289">
<time>2015-09-27T10:55:37Z</time></trkpt>
<trkpt lat="23.138668" lon="112.275239">
<time>2015-09-27T10:55:38Z</time></trkpt>
<trkpt lat="23.138149" lon="112.275179">
<time>2015-09-27T10:55:39Z</time></trkpt>
<trkpt lat="23.137979" lon="112.275149">
<time>2015-09-27T10:55:40Z</time></trkpt>
<trkpt lat="23.137869" lon="112.275129">
<time>2015-09-27T10:55:41Z</time></trkpt>
<trkpt lat="23.137769" lon="112.275099">
<time>2015-09-27T10:55:42Z</time></trkpt>
<trkpt lat="23.137639" lon="112.275069">
<time>2015-09-27T10:55:43Z</time></trkpt>
<trkpt lat="23.137419" lon="112.275">
<time>2015-09-27T10:55:44Z</time></trkpt>
<trkpt lat="23.137009" lon="112.27487">
<time>2015-09-27T10:55:45Z</time></trkpt>
<trkpt lat="23.136949" lon="112.27485">
<time>2015-09-27T10:55:46Z</time></trkpt>
<trkpt lat="23.13664" lon="112.27474">
<time>2015-09-27T10:55:47Z</time></trkpt>
<trkpt lat="23.13637" lon="112.27461">
<time>2015-09-27T10:55:48Z</time></trkpt>
<trkpt lat="23.13618" lon="112.27449">
<time>2015-09-27T10:55:49Z</time></trkpt>
<trkpt lat="23.13602" lon="112.27437">
<time>2015-09-27T10:55:50Z</time></trkpt>
<trkpt lat="23.135831" lon="112.2742">
<time>2015-09-27T10:55:51Z</time></trkpt>
<trkpt lat="23.135571" lon="112.273981">
<time>2015-09-27T10:55:52Z</time></trkpt>
<trkpt lat="23.135251" lon="112.273691">
<time>2015-09-27T10:55:53Z</time></trkpt>
<trkpt lat="23.134942" lon="112.273401">
<time>2015-09-27T10:55:54Z</time></trkpt>
<trkpt lat="23.134622" lon="112.273122">
<time>2015-09-27T10:55:55Z</time></trkpt>
<trkpt lat="23.134432" lon="112.272942">
<time>2015-09-27T10:55:56Z</time></trkpt>
<trkpt lat="23.134113" lon="112.272652">
<time>2015-09-27T10:55:57Z</time></trkpt>
<trkpt lat="23.133903" lon="112.272462">
<time>2015-09-27T10:55:58Z</time></trkpt>
<trkpt lat="23.133643" lon="112.272223">
<time>2015-09-27T10:55:59Z</time></trkpt>
<trkpt lat="23.133434" lon="112.272053">
<time>2015-09-27T10:56:00Z</time></trkpt>
<trkpt lat="23.133224" lon="112.271853">
<time>2015-09-27T10:56:01Z</time></trkpt>
<trkpt lat="23.133054" lon="112.271683">
<time>2015-09-27T10:56:02Z</time></trkpt>
<trkpt lat="23.132924" lon="112.271553">
<time>2015-09-27T10:56:03Z</time></trkpt>
<trkpt lat="23.132815" lon="112.271403">
<time>2015-09-27T10:56:04Z</time></trkpt>
<trkpt lat="23.132735" lon="112.271264">
<time>2015-09-27T10:56:05Z</time></trkpt>
<trkpt lat="23.132675" lon="112.271134">
<time>2015-09-27T10:56:06Z</time></trkpt>
<trkpt lat="23.132625" lon="112.271004">
<time>2015-09-27T10:56:07Z</time></trkpt>
<trkpt lat="23.132605" lon="112.270924">
<time>2015-09-27T10:56:08Z</time></trkpt>
<trkpt lat="23.132585" lon="112.270834">
<time>2015-09-27T10:56:09Z</time></trkpt>
<trkpt lat="23.132575" lon="112.270734">
<time>2015-09-27T10:56:10Z</time></trkpt>
<trkpt lat="23.132565" lon="112.270614">
<time>2015-09-27T10:56:11Z</time></trkpt>
<trkpt lat="23.132556" lon="112.270464">
<time>2015-09-27T10:56:12Z</time></trkpt>
<trkpt lat="23.132566" lon="112.270314">
<time>2015-09-27T10:56:13Z</time></trkpt>
<trkpt lat="23.132586" lon="112.270035">
<time>2015-09-27T10:56:14Z</time></trkpt>
<trkpt lat="23.132606" lon="112.269745">
<time>2015-09-27T10:56:15Z</time></trkpt>
<trkpt lat="23.132647" lon="112.269165">
<time>2015-09-27T10:56:16Z</time></trkpt>
<trkpt lat="23.132687" lon="112.268696">
<time>2015-09-27T10:56:17Z</time></trkpt>
<trkpt lat="23.132717" lon="112.268346">
<time>2015-09-27T10:56:18Z</time></trkpt>
<trkpt lat="23.132768" lon="112.267796">
<time>2015-09-27T10:56:19Z</time></trkpt>
<trkpt lat="23.132768" lon="112.267737">
<time>2015-09-27T10:56:20Z</time></trkpt>
<trkpt lat="23.132808" lon="112.267167">
<time>2015-09-27T10:56:21Z</time></trkpt>
<trkpt lat="23.132879" lon="112.266318">
<time>2015-09-27T10:56:22Z</time></trkpt>
<trkpt lat="23.132909" lon="112.265948">
<time>2015-09-27T10:56:23Z</time></trkpt>
<trkpt lat="23.13291" lon="112.265728">
<time>2015-09-27T10:56:24Z</time></trkpt>
<trkpt lat="23.13291" lon="112.265588">
<time>2015-09-27T10:56:25Z</time></trkpt>
<trkpt lat="23.13289" lon="112.265388">
<time>2015-09-27T10:56:26Z</time></trkpt>
<trkpt lat="23.13285" lon="112.265108">
<time>2015-09-27T10:56:27Z</time></trkpt>
<trkpt lat="23.13281" lon="112.264909">
<time>2015-09-27T10:56:28Z</time></trkpt>
<trkpt lat="23.13277" lon="112.264749">
<time>2015-09-27T10:56:29Z</time></trkpt>
<trkpt lat="23.13272" lon="112.264609">
<time>2015-09-27T10:56:30Z</time></trkpt>
<trkpt lat="23.132671" lon="112.264449">
<time>2015-09-27T10:56:31Z</time></trkpt>
<trkpt lat="23.132611" lon="112.264299">
<time>2015-09-27T10:56:32Z</time></trkpt>
<trkpt lat="23.132531" lon="112.264139">
<time>2015-09-27T10:56:33Z</time></trkpt>
<trkpt lat="23.132461" lon="112.264029">
<time>2015-09-27T10:56:34Z</time></trkpt>
<trkpt lat="23.132361" lon="112.263879">
<time>2015-09-27T10:56:35Z</time></trkpt>
<trkpt lat="23.132191" lon="112.263649">
<time>2015-09-27T10:56:36Z</time></trkpt>
<trkpt lat="23.132052" lon="112.26347">
<time>2015-09-27T10:56:37Z</time></trkpt>
<trkpt lat="23.131942" lon="112.26333">
<time>2015-09-27T10:56:38Z</time></trkpt>
<trkpt lat="23.131812" lon="112.26318">
<time>2015-09-27T10:56:39Z</time></trkpt>
<trkpt lat="23.131682" lon="112.26304">
<time>2015-09-27T10:56:40Z</time></trkpt>
<trkpt lat="23.131532" lon="112.26292">
<time>2015-09-27T10:56:41Z</time></trkpt>
<trkpt lat="23.131412" lon="112.26285">
<time>2015-09-27T10:56:42Z</time></trkpt>
<trkpt lat="23.131302" lon="112.26279">
<time>2015-09-27T10:56:43Z</time></trkpt>
<trkpt lat="23.131182" lon="112.26273">
<time>2015-09-27T10:56:44Z</time></trkpt>
<trkpt lat="23.131023" lon="112.26268">
<time>2015-09-27T10:56:45Z</time></trkpt>
<trkpt lat="23.130853" lon="112.26264">
<time>2015-09-27T10:56:46Z</time></trkpt>
<trkpt lat="23.130483" lon="112.26257">
<time>2015-09-27T10:56:47Z</time></trkpt>
<trkpt lat="23.130173" lon="112.26251">
<time>2015-09-27T10:56:48Z</time></trkpt>
<trkpt lat="23.129803" lon="112.26244">
<time>2015-09-27T10:56:49Z</time></trkpt>
<trkpt lat="23.129583" lon="112.26239">
<time>2015-09-27T10:56:50Z</time></trkpt>
<trkpt lat="23.129363" lon="112.26234">
<time>2015-09-27T10:56:51Z</time></trkpt>
<trkpt lat="23.129263" lon="112.26232">
<time>2015-09-27T10:56:52Z</time></trkpt>
<trkpt lat="23.129213" lon="112.26231">
<time>2015-09-27T10:56:53Z</time></trkpt>
<trkpt lat="23.129164" lon="112.26229">
<time>2015-09-27T10:56:54Z</time></trkpt>
<trkpt lat="23.129114" lon="112.26227">
<time>2015-09-27T10:56:55Z</time></trkpt>
<trkpt lat="23.129054" lon="112.26224">
<time>2015-09-27T10:56:56Z</time></trkpt>
<trkpt lat="23.128984" lon="112.262191">
<time>2015-09-27T10:56:57Z</time></trkpt>
<trkpt lat="23.128914" lon="112.262121">
<time>2015-09-27T10:56:58Z</time></trkpt>
<trkpt lat="23.128794" lon="112.262021">
<time>2015-09-27T10:56:59Z</time></trkpt>
<trkpt lat="23.128684" lon="112.261891">
<time>2015-09-27T10:57:00Z</time></trkpt>
<trkpt lat="23.128524" lon="112.261661">
<time>2015-09-27T10:57:01Z</time></trkpt>
<trkpt lat="23.128394" lon="112.261461">
<time>2015-09-27T10:57:02Z</time></trkpt>
<trkpt lat="23.128265" lon="112.261221">
<time>2015-09-27T10:57:03Z</time></trkpt>
<trkpt lat="23.128235" lon="112.261151">
<time>2015-09-27T10:57:04Z</time></trkpt>
<trkpt lat="23.128095" lon="112.260881">
<time>2015-09-27T10:57:05Z</time></trkpt>
<trkpt lat="23.128015" lon="112.260731">
<time>2015-09-27T10:57:06Z</time></trkpt>
<trkpt lat="23.127935" lon="112.260541">
<time>2015-09-27T10:57:07Z</time></trkpt>
<trkpt lat="23.127855" lon="112.260332">
<time>2015-09-27T10:57:08Z</time></trkpt>
<trkpt lat="23.127795" lon="112.260162">
<time>2015-09-27T10:57:09Z</time></trkpt>
<trkpt lat="23.127726" lon="112.259942">
<time>2015-09-27T10:57:10Z</time></trkpt>
<trkpt lat="23.127656" lon="112.259742">
<time>2015-09-27T10:57:11Z</time></trkpt>
<trkpt lat="23.127516" lon="112.259312">
<time>2015-09-27T10:57:12Z</time></trkpt>
<trkpt lat="23.127426" lon="112.259012">
<time>2015-09-27T10:57:13Z</time></trkpt>
<trkpt lat="23.127376" lon="112.258842">
<time>2015-09-27T10:57:14Z</time></trkpt>
<trkpt lat="23.127286" lon="112.258552">
<time>2015-09-27T10:57:15Z</time></trkpt>
<trkpt lat="23.127177" lon="112.258233">
<time>2015-09-27T10:57:16Z</time></trkpt>
<trkpt lat="23.127127" lon="112.258083">
<time>2015-09-27T10:57:17Z</time></trkpt>
<trkpt lat="23.127027" lon="112.257833">
<time>2015-09-27T10:57:18Z</time></trkpt>
<trkpt lat="23.126947" lon="112.257653">
<time>2015-09-27T10:57:19Z</time></trkpt>
<trkpt lat="23.126827" lon="112.257373">
<time>2015-09-27T10:57:20Z</time></trkpt>
<trkpt lat="23.126658" lon="112.256973">
<time>2015-09-27T10:57:21Z</time></trkpt>
<trkpt lat="23.126558" lon="112.256753">
<time>2015-09-27T10:57:22Z</time></trkpt>
<trkpt lat="23.126488" lon="112.256573">
<time>2015-09-27T10:57:23Z</time></trkpt>
<trkpt lat="23.126428" lon="112.256433">
<time>2015-09-27T10:57:24Z</time></trkpt>
<trkpt lat="23.126378" lon="112.256283">
<time>2015-09-27T10:57:25Z</time></trkpt>
<trkpt lat="23.126338" lon="112.256173">
<time>2015-09-27T10:57:26Z</time></trkpt>
<trkpt lat="23.126308" lon="112.256053">
<time>2015-09-27T10:57:27Z</time></trkpt>
<trkpt lat="23.126258" lon="112.255913">
<time>2015-09-27T10:57:28Z</time></trkpt>
<trkpt lat="23.126218" lon="112.255734">
<time>2015-09-27T10:57:29Z</time></trkpt>
<trkpt lat="23.126178" lon="112.255554">
<time>2015-09-27T10:57:30Z</time></trkpt>
<trkpt lat="23.126099" lon="112.255004">
<time>2015-09-27T10:57:31Z</time></trkpt>
<trkpt lat="23.126059" lon="112.254524">
<time>2015-09-27T10:57:32Z</time></trkpt>
<trkpt lat="23.126029" lon="112.254264">
<time>2015-09-27T10:57:33Z</time></trkpt>
<trkpt lat="23.126009" lon="112.254044">
<time>2015-09-27T10:57:34Z</time></trkpt>
<trkpt lat="23.125989" lon="112.253844">
<time>2015-09-27T10:57:35Z</time></trkpt>
<trkpt lat="23.125969" lon="112.253724">
<time>2015-09-27T10:57:36Z</time></trkpt>
<trkpt lat="23.125939" lon="112.253584">
<time>2015-09-27T10:57:37Z</time></trkpt>
<trkpt lat="23.125899" lon="112.253424">
<time>2015-09-27T10:57:38Z</time></trkpt>
<trkpt lat="23.125869" lon="112.253294">
<time>2015-09-27T10:57:39Z</time></trkpt>
<trkpt lat="23.125809" lon="112.253114">
<time>2015-09-27T10:57:40Z</time></trkpt>
<trkpt lat="23.1257" lon="112.252814">
<time>2015-09-27T10:57:41Z</time></trkpt>
<trkpt lat="23.12561" lon="112.252564">
<time>2015-09-27T10:57:42Z</time></trkpt>
<trkpt lat="23.1255" lon="112.252234">
<time>2015-09-27T10:57:43Z</time></trkpt>
<trkpt lat="23.12539" lon="112.251924">
<time>2015-09-27T10:57:44Z</time></trkpt>
<trkpt lat="23.12529" lon="112.251665">
<time>2015-09-27T10:57:45Z</time></trkpt>
<trkpt lat="23.12518" lon="112.251355">
<time>2015-09-27T10:57:46Z</time></trkpt>
<trkpt lat="23.12506" lon="112.251015">
<time>2015-09-27T10:57:47Z</time></trkpt>
<trkpt lat="23.1249" lon="112.250565">
<time>2015-09-27T10:57:48Z</time></trkpt>
<trkpt lat="23.124721" lon="112.250105">
<time>2015-09-27T10:57:49Z</time></trkpt>
<trkpt lat="23.124691" lon="112.250005">
<time>2015-09-27T10:57:50Z</time></trkpt>
<trkpt lat="23.124641" lon="112.249855">
<time>2015-09-27T10:57:51Z</time></trkpt>
<trkpt lat="23.124561" lon="112.249635">
<time>2015-09-27T10:57:52Z</time></trkpt>
<trkpt lat="23.124451" lon="112.249325">
<time>2015-09-27T10:57:53Z</time></trkpt>
<trkpt lat="23.124401" lon="112.249195">
<time>2015-09-27T10:57:54Z</time></trkpt>
<trkpt lat="23.124351" lon="112.249035">
<time>2015-09-27T10:57:55Z</time></trkpt>
<trkpt lat="23.124251" lon="112.248765">
<time>2015-09-27T10:57:56Z</time></trkpt>
<trkpt lat="23.124211" lon="112.248615">
<time>2015-09-27T10:57:57Z</time></trkpt>
<trkpt lat="23.124181" lon="112.248525">
<time>2015-09-27T10:57:58Z</time></trkpt>
<trkpt lat="23.124141" lon="112.248375">
<time>2015-09-27T10:57:59Z</time></trkpt>
<trkpt lat="23.124111" lon="112.248235">
<time>2015-09-27T10:58:00Z</time></trkpt>
<trkpt lat="23.124081" lon="112.248075">
<time>2015-09-27T10:58:01Z</time></trkpt>
<trkpt lat="23.124061" lon="112.247915">
<time>2015-09-27T10:58:02Z</time></trkpt>
<trkpt lat="23.124051" lon="112.247705">
<time>2015-09-27T10:58:03Z</time></trkpt>
<trkpt lat="23.124051" lon="112.247555">
<time>2015-09-27T10:58:04Z</time></trkpt>
<trkpt lat="23.124061" lon="112.247385">
<time>2015-09-27T10:58:05Z</time></trkpt>
<trkpt lat="23.124081" lon="112.247235">
<time>2015-09-27T10:58:06Z</time></trkpt>
<trkpt lat="23.124111" lon="112.247065">
<time>2015-09-27T10:58:07Z</time></trkpt>
<trkpt lat="23.124141" lon="112.246905">
<time>2015-09-27T10:58:08Z</time></trkpt>
<trkpt lat="23.124181" lon="112.246745">
<time>2015-09-27T10:58:09Z</time></trkpt>
<trkpt lat="23.124221" lon="112.246565">
<time>2015-09-27T10:58:10Z</time></trkpt>
<trkpt lat="23.124251" lon="112.246405">
<time>2015-09-27T10:58:11Z</time></trkpt>
<trkpt lat="23.124271" lon="112.246275">
<time>2015-09-27T10:58:12Z</time></trkpt>
<trkpt lat="23.124301" lon="112.246115">
<time>2015-09-27T10:58:13Z</time></trkpt>
<trkpt lat="23.124301" lon="112.245935">
<time>2015-09-27T10:58:14Z</time></trkpt>
<trkpt lat="23.124301" lon="112.245795">
<time>2015-09-27T10:58:15Z</time></trkpt>
<trkpt lat="23.124291" lon="112.245665">
<time>2015-09-27T10:58:16Z</time></trkpt>
<trkpt lat="23.124271" lon="112.245535">
<time>2015-09-27T10:58:17Z</time></trkpt>
<trkpt lat="23.124241" lon="112.245415">
<time>2015-09-27T10:58:18Z</time></trkpt>
<trkpt lat="23.124201" lon="112.245265">
<time>2015-09-27T10:58:19Z</time></trkpt>
<trkpt lat="23.124151" lon="112.245125">
<time>2015-09-27T10:58:20Z</time></trkpt>
<trkpt lat="23.124071" lon="112.244955">
<time>2015-09-27T10:58:21Z</time></trkpt>
<trkpt lat="23.123952" lon="112.244685">
<time>2015-09-27T10:58:22Z</time></trkpt>
<trkpt lat="23.123842" lon="112.244435">
<time>2015-09-27T10:58:23Z</time></trkpt>
<trkpt lat="23.123732" lon="112.244155">
<time>2015-09-27T10:58:24Z</time></trkpt>
<trkpt lat="23.123602" lon="112.243885">
<time>2015-09-27T10:58:25Z</time></trkpt>
<trkpt lat="23.123492" lon="112.243584">
<time>2015-09-27T10:58:26Z</time></trkpt>
<trkpt lat="23.123432" lon="112.243394">
<time>2015-09-27T10:58:27Z</time></trkpt>
<trkpt lat="23.123392" lon="112.243234">
<time>2015-09-27T10:58:28Z</time></trkpt>
<trkpt lat="23.123362" lon="112.243024">
<time>2015-09-27T10:58:29Z</time></trkpt>
<trkpt lat="23.123342" lon="112.242844">
<time>2015-09-27T10:58:30Z</time></trkpt>
<trkpt lat="23.123332" lon="112.242664">
<time>2015-09-27T10:58:31Z</time></trkpt>
<trkpt lat="23.123322" lon="112.242414">
<time>2015-09-27T10:58:32Z</time></trkpt>
<trkpt lat="23.123312" lon="112.242084">
<time>2015-09-27T10:58:33Z</time></trkpt>
<trkpt lat="23.123292" lon="112.241734">
<time>2015-09-27T10:58:34Z</time></trkpt>
<trkpt lat="23.123272" lon="112.241194">
<time>2015-09-27T10:58:35Z</time></trkpt>
<trkpt lat="23.123241" lon="112.240374">
<time>2015-09-27T10:58:36Z</time></trkpt>
<trkpt lat="23.123221" lon="112.239763">
<time>2015-09-27T10:58:37Z</time></trkpt>
<trkpt lat="23.123181" lon="112.239013">
<time>2015-09-27T10:58:38Z</time></trkpt>
<trkpt lat="23.123171" lon="112.238583">
<time>2015-09-27T10:58:39Z</time></trkpt>
<trkpt lat="23.123141" lon="112.238113">
<time>2015-09-27T10:58:40Z</time></trkpt>
<trkpt lat="23.123121" lon="112.237743">
<time>2015-09-27T10:58:41Z</time></trkpt>
<trkpt lat="23.123101" lon="112.237433">
<time>2015-09-27T10:58:42Z</time></trkpt>
<trkpt lat="23.123061" lon="112.237112">
<time>2015-09-27T10:58:43Z</time></trkpt>
<trkpt lat="23.123031" lon="112.236852">
<time>2015-09-27T10:58:44Z</time></trkpt>
<trkpt lat="23.122981" lon="112.236542">
<time>2015-09-27T10:58:45Z</time></trkpt>
<trkpt lat="23.122931" lon="112.236262">
<time>2015-09-27T10:58:46Z</time></trkpt>
<trkpt lat="23.122871" lon="112.236032">
<time>2015-09-27T10:58:47Z</time></trkpt>
<trkpt lat="23.12281" lon="112.235792">
<time>2015-09-27T10:58:48Z</time></trkpt>
<trkpt lat="23.1227" lon="112.235382">
<time>2015-09-27T10:58:49Z</time></trkpt>
<trkpt lat="23.1227" lon="112.235352">
<time>2015-09-27T10:58:50Z</time></trkpt>
<trkpt lat="23.12256" lon="112.234851">
<time>2015-09-27T10:58:51Z</time></trkpt>
<trkpt lat="23.1224" lon="112.234311">
<time>2015-09-27T10:58:52Z</time></trkpt>
<trkpt lat="23.12225" lon="112.233811">
<time>2015-09-27T10:58:53Z</time></trkpt>
<trkpt lat="23.1221" lon="112.23326">
<time>2015-09-27T10:58:54Z</time></trkpt>
<trkpt lat="23.12199" lon="112.2328">
<time>2015-09-27T10:58:55Z</time></trkpt>
<trkpt lat="23.12194" lon="112.23254">
<time>2015-09-27T10:58:56Z</time></trkpt>
<trkpt lat="23.121849" lon="112.232">
<time>2015-09-27T10:58:57Z</time></trkpt>
<trkpt lat="23.121789" lon="112.231519">
<time>2015-09-27T10:58:58Z</time></trkpt>
<trkpt lat="23.121729" lon="112.231079">
<time>2015-09-27T10:58:59Z</time></trkpt>
<trkpt lat="23.121679" lon="112.230659">
<time>2015-09-27T10:59:00Z</time></trkpt>
<trkpt lat="23.121639" lon="112.230388">
<time>2015-09-27T10:59:01Z</time></trkpt>
<trkpt lat="23.121629" lon="112.230318">
<time>2015-09-27T10:59:02Z</time></trkpt>
<trkpt lat="23.121598" lon="112.230118">
<time>2015-09-27T10:59:03Z</time></trkpt>
<trkpt lat="23.121538" lon="112.229778">
<time>2015-09-27T10:59:04Z</time></trkpt>
<trkpt lat="23.121468" lon="112.229498">
<time>2015-09-27T10:59:05Z</time></trkpt>
<trkpt lat="23.121358" lon="112.229118">
<time>2015-09-27T10:59:06Z</time></trkpt>
<trkpt lat="23.121208" lon="112.228757">
<time>2015-09-27T10:59:07Z</time></trkpt>
<trkpt lat="23.121058" lon="112.228457">
<time>2015-09-27T10:59:08Z</time></trkpt>
<trkpt lat="23.120838" lon="112.228027">
<time>2015-09-27T10:59:09Z</time></trkpt>
<trkpt lat="23.120527" lon="112.227426">
<time>2015-09-27T10:59:10Z</time></trkpt>
<trkpt lat="23.120227" lon="112.226836">
<time>2015-09-27T10:59:11Z</time></trkpt>
<trkpt lat="23.119997" lon="112.226405">
<time>2015-09-27T10:59:12Z</time></trkpt>
<trkpt lat="23.119717" lon="112.225835">
<time>2015-09-27T10:59:13Z</time></trkpt>
<trkpt lat="23.119466" lon="112.225344">
<time>2015-09-27T10:59:14Z</time></trkpt>
<trkpt lat="23.119346" lon="112.225094">
<time>2015-09-27T10:59:15Z</time></trkpt>
<trkpt lat="23.119206" lon="112.224824">
<time>2015-09-27T10:59:16Z</time></trkpt>
<trkpt lat="23.119206" lon="112.224814">
<time>2015-09-27T10:59:17Z</time></trkpt>
<trkpt lat="23.118936" lon="112.224303">
<time>2015-09-27T10:59:18Z</time></trkpt>
<trkpt lat="23.118666" lon="112.223783">
<time>2015-09-27T10:59:19Z</time></trkpt>
<trkpt lat="23.118445" lon="112.223353">
<time>2015-09-27T10:59:20Z</time></trkpt>
<trkpt lat="23.118205" lon="112.222872">
<time>2015-09-27T10:59:21Z</time></trkpt>
<trkpt lat="23.118015" lon="112.222512">
<time>2015-09-27T10:59:22Z</time></trkpt>
<trkpt lat="23.117795" lon="112.222091">
<time>2015-09-27T10:59:23Z</time></trkpt>
<trkpt lat="23.117574" lon="112.221661">
<time>2015-09-27T10:59:24Z</time></trkpt>
<trkpt lat="23.117344" lon="112.2212">
<time>2015-09-27T10:59:25Z</time></trkpt>
<trkpt lat="23.117244" lon="112.22101">
<time>2015-09-27T10:59:26Z</time></trkpt>
<trkpt lat="23.117134" lon="112.22081">
<time>2015-09-27T10:59:27Z</time></trkpt>
<trkpt lat="23.116853" lon="112.220249">
<time>2015-09-27T10:59:28Z</time></trkpt>
<trkpt lat="23.116593" lon="112.219749">
<time>2015-09-27T10:59:29Z</time></trkpt>
<trkpt lat="23.116363" lon="112.219298">
<time>2015-09-27T10:59:30Z</time></trkpt>
<trkpt lat="23.116142" lon="112.218898">
<time>2015-09-27T10:59:31Z</time></trkpt>
<trkpt lat="23.115832" lon="112.218227">
<time>2015-09-27T10:59:32Z</time></trkpt>
<trkpt lat="23.115632" lon="112.217827">
<time>2015-09-27T10:59:33Z</time></trkpt>
<trkpt lat="23.115491" lon="112.217596">
<time>2015-09-27T10:59:34Z</time></trkpt>
<trkpt lat="23.115311" lon="112.217286">
<time>2015-09-27T10:59:35Z</time></trkpt>
<trkpt lat="23.115221" lon="112.217136">
<time>2015-09-27T10:59:36Z</time></trkpt>
<trkpt lat="23.115141" lon="112.217026">
<time>2015-09-27T10:59:37Z</time></trkpt>
<trkpt lat="23.115071" lon="112.216936">
<time>2015-09-27T10:59:38Z</time></trkpt>
<trkpt lat="23.114961" lon="112.216805">
<time>2015-09-27T10:59:39Z</time></trkpt>
<trkpt lat="23.114801" lon="112.216625">
<time>2015-09-27T10:59:40Z</time></trkpt>
<trkpt lat="23.114711" lon="112.216515">
<time>2015-09-27T10:59:41Z</time></trkpt>
<trkpt lat="23.114601" lon="112.216395">
<time>2015-09-27T10:59:42Z</time></trkpt>
<trkpt lat="23.11438" lon="112.216175">
<time>2015-09-27T10:59:43Z</time></trkpt>
<trkpt lat="23.11413" lon="112.215924">
<time>2015-09-27T10:59:44Z</time></trkpt>
<trkpt lat="23.1139" lon="112.215694">
<time>2015-09-27T10:59:45Z</time></trkpt>
<trkpt lat="23.11368" lon="112.215474">
<time>2015-09-27T10:59:46Z</time></trkpt>
<trkpt lat="23.11326" lon="112.215043">
<time>2015-09-27T10:59:47Z</time></trkpt>
<trkpt lat="23.11295" lon="112.214713">
<time>2015-09-27T10:59:48Z</time></trkpt>
<trkpt lat="23.112699" lon="112.214442">
<time>2015-09-27T10:59:49Z</time></trkpt>
<trkpt lat="23.112419" lon="112.214122">
<time>2015-09-27T10:59:50Z</time></trkpt>
<trkpt lat="23.112169" lon="112.213842">
<time>2015-09-27T10:59:51Z</time></trkpt>
<trkpt lat="23.111879" lon="112.213511">
<time>2015-09-27T10:59:52Z</time></trkpt>
<trkpt lat="23.111578" lon="112.213151">
<time>2015-09-27T10:59:53Z</time></trkpt>
<trkpt lat="23.111238" lon="112.21276">
<time>2015-09-27T10:59:54Z</time></trkpt>
<trkpt lat="23.110878" lon="112.21235">
<time>2015-09-27T10:59:55Z</time></trkpt>
<trkpt lat="23.110768" lon="112.21222">
<time>2015-09-27T10:59:56Z</time></trkpt>
<trkpt lat="23.110527" lon="112.211939">
<time>2015-09-27T10:59:57Z</time></trkpt>
<trkpt lat="23.110187" lon="112.211549">
<time>2015-09-27T10:59:58Z</time></trkpt>
<trkpt lat="23.109827" lon="112.211138">
<time>2015-09-27T10:59:59Z</time></trkpt>
<trkpt lat="23.109536" lon="112.210798">
<time>2015-09-27T11:00:00Z</time></trkpt>
<trkpt lat="23.109296" lon="112.210517">
<time>2015-09-27T11:00:01Z</time></trkpt>
<trkpt lat="23.109076" lon="112.210267">
<time>2015-09-27T11:00:02Z</time></trkpt>
<trkpt lat="23.108826" lon="112.209966">
<time>2015-09-27T11:00:03Z</time></trkpt>
<trkpt lat="23.108586" lon="112.209686">
<time>2015-09-27T11:00:04Z</time></trkpt>
<trkpt lat="23.108365" lon="112.209436">
<time>2015-09-27T11:00:05Z</time></trkpt>
<trkpt lat="23.108135" lon="112.209175">
<time>2015-09-27T11:00:06Z</time></trkpt>
<trkpt lat="23.108005" lon="112.209025">
<time>2015-09-27T11:00:07Z</time></trkpt>
<trkpt lat="23.107905" lon="112.208915">
<time>2015-09-27T11:00:08Z</time></trkpt>
<trkpt lat="23.107675" lon="112.208655">
<time>2015-09-27T11:00:09Z</time></trkpt>
<trkpt lat="23.107454" lon="112.208404">
<time>2015-09-27T11:00:10Z</time></trkpt>
<trkpt lat="23.107234" lon="112.208154">
<time>2015-09-27T11:00:11Z</time></trkpt>
<trkpt lat="23.107024" lon="112.207924">
<time>2015-09-27T11:00:12Z</time></trkpt>
<trkpt lat="23.106804" lon="112.207703">
<time>2015-09-27T11:00:13Z</time></trkpt>
<trkpt lat="23.106594" lon="112.207473">
<time>2015-09-27T11:00:14Z</time></trkpt>
<trkpt lat="23.106393" lon="112.207273">
<time>2015-09-27T11:00:15Z</time></trkpt>
<trkpt lat="23.106283" lon="112.207162">
<time>2015-09-27T11:00:16Z</time></trkpt>
<trkpt lat="23.106083" lon="112.206952">
<time>2015-09-27T11:00:17Z</time></trkpt>
<trkpt lat="23.105893" lon="112.206752">
<time>2015-09-27T11:00:18Z</time></trkpt>
<trkpt lat="23.105743" lon="112.206602">
<time>2015-09-27T11:00:19Z</time></trkpt>
<trkpt lat="23.105202" lon="112.206031">
<time>2015-09-27T11:00:20Z</time></trkpt>
<trkpt lat="23.104211" lon="112.204989">
<time>2015-09-27T11:00:21Z</time></trkpt>
<trkpt lat="23.10298" lon="112.203697">
<time>2015-09-27T11:00:22Z</time></trkpt>
<trkpt lat="23.10285" lon="112.203557">
<time>2015-09-27T11:00:23Z</time></trkpt>
<trkpt lat="23.10261" lon="112.203286">
<time>2015-09-27T11:00:24Z</time></trkpt>
<trkpt lat="23.102329" lon="112.202986">
<time>2015-09-27T11:00:25Z</time></trkpt>
<trkpt lat="23.101959" lon="112.202555">
<time>2015-09-27T11:00:26Z</time></trkpt>
<trkpt lat="23.100357" lon="112.200732">
<time>2015-09-27T11:00:27Z</time></trkpt>
<trkpt lat="23.099976" lon="112.200291">
<time>2015-09-27T11:00:28Z</time></trkpt>
<trkpt lat="23.099826" lon="112.200131">
<time>2015-09-27T11:00:29Z</time></trkpt>
<trkpt lat="23.099736" lon="112.200031">
<time>2015-09-27T11:00:30Z</time></trkpt>
<trkpt lat="23.099696" lon="112.199991">
<time>2015-09-27T11:00:31Z</time></trkpt>
<trkpt lat="23.098375" lon="112.198588">
<time>2015-09-27T11:00:32Z</time></trkpt>
<trkpt lat="23.098304" lon="112.198518">
<time>2015-09-27T11:00:33Z</time></trkpt>
<trkpt lat="23.098174" lon="112.198378">
<time>2015-09-27T11:00:34Z</time></trkpt>
<trkpt lat="23.098004" lon="112.198208">
<time>2015-09-27T11:00:35Z</time></trkpt>
<trkpt lat="23.097784" lon="112.197977">
<time>2015-09-27T11:00:36Z</time></trkpt>
<trkpt lat="23.097594" lon="112.197777">
<time>2015-09-27T11:00:37Z</time></trkpt>
<trkpt lat="23.097443" lon="112.197627">
<time>2015-09-27T11:00:38Z</time></trkpt>
<trkpt lat="23.097343" lon="112.197517">
<time>2015-09-27T11:00:39Z</time></trkpt>
<trkpt lat="23.097193" lon="112.197366">
<time>2015-09-27T11:00:40Z</time></trkpt>
<trkpt lat="23.097093" lon="112.197266">
<time>2015-09-27T11:00:41Z</time></trkpt>
<trkpt lat="23.096943" lon="112.197106">
<time>2015-09-27T11:00:42Z</time></trkpt>
<trkpt lat="23.096833" lon="112.196986">
<time>2015-09-27T11:00:43Z</time></trkpt>
<trkpt lat="23.096723" lon="112.196865">
<time>2015-09-27T11:00:44Z</time></trkpt>
<trkpt lat="23.096612" lon="112.196725">
<time>2015-09-27T11:00:45Z</time></trkpt>
<trkpt lat="23.096542" lon="112.196615">
<time>2015-09-27T11:00:46Z</time></trkpt>
<trkpt lat="23.096422" lon="112.196445">
<time>2015-09-27T11:00:47Z</time></trkpt>
<trkpt lat="23.096322" lon="112.196294">
<time>2015-09-27T11:00:48Z</time></trkpt>
<trkpt lat="23.096232" lon="112.196124">
<time>2015-09-27T11:00:49Z</time></trkpt>
<trkpt lat="23.096172" lon="112.196024">
<time>2015-09-27T11:00:50Z</time></trkpt>
<trkpt lat="23.096091" lon="112.195864">
<time>2015-09-27T11:00:51Z</time></trkpt>
<trkpt lat="23.096001" lon="112.195683">
<time>2015-09-27T11:00:52Z</time></trkpt>
<trkpt lat="23.095911" lon="112.195483">
<time>2015-09-27T11:00:53Z</time></trkpt>
<trkpt lat="23.095821" lon="112.195303">
<time>2015-09-27T11:00:54Z</time></trkpt>
<trkpt lat="23.09571" lon="112.195052">
<time>2015-09-27T11:00:55Z</time></trkpt>
<trkpt lat="23.09559" lon="112.194772">
<time>2015-09-27T11:00:56Z</time></trkpt>
<trkpt lat="23.095469" lon="112.194511">
<time>2015-09-27T11:00:57Z</time></trkpt>
<trkpt lat="23.095289" lon="112.19413">
<time>2015-09-27T11:00:58Z</time></trkpt>
<trkpt lat="23.095108" lon="112.19374">
<time>2015-09-27T11:00:59Z</time></trkpt>
<trkpt lat="23.094968" lon="112.193429">
<time>2015-09-27T11:01:00Z</time></trkpt>
<trkpt lat="23.094858" lon="112.193189">
<time>2015-09-27T11:01:01Z</time></trkpt>
<trkpt lat="23.094747" lon="112.192938">
<time>2015-09-27T11:01:02Z</time></trkpt>
<trkpt lat="23.094637" lon="112.192708">
<time>2015-09-27T11:01:03Z</time></trkpt>
<trkpt lat="23.094547" lon="112.192507">
<time>2015-09-27T11:01:04Z</time></trkpt>
<trkpt lat="23.094426" lon="112.192237">
<time>2015-09-27T11:01:05Z</time></trkpt>
<trkpt lat="23.094256" lon="112.191866">
<time>2015-09-27T11:01:06Z</time></trkpt>
<trkpt lat="23.094175" lon="112.191676">
<time>2015-09-27T11:01:07Z</time></trkpt>
<trkpt lat="23.094115" lon="112.191545">
<time>2015-09-27T11:01:08Z</time></trkpt>
<trkpt lat="23.093995" lon="112.191295">
<time>2015-09-27T11:01:09Z</time></trkpt>
<trkpt lat="23.093915" lon="112.191145">
<time>2015-09-27T11:01:10Z</time></trkpt>
<trkpt lat="23.093884" lon="112.191075">
<time>2015-09-27T11:01:11Z</time></trkpt>
<trkpt lat="23.093754" lon="112.190774">
<time>2015-09-27T11:01:12Z</time></trkpt>
<trkpt lat="23.093604" lon="112.190453">
<time>2015-09-27T11:01:13Z</time></trkpt>
<trkpt lat="23.093513" lon="112.190273">
<time>2015-09-27T11:01:14Z</time></trkpt>
<trkpt lat="23.093393" lon="112.190012">
<time>2015-09-27T11:01:15Z</time></trkpt>
<trkpt lat="23.093283" lon="112.189762">
<time>2015-09-27T11:01:16Z</time></trkpt>
<trkpt lat="23.093182" lon="112.189542">
<time>2015-09-27T11:01:17Z</time></trkpt>
<trkpt lat="23.093082" lon="112.189321">
<time>2015-09-27T11:01:18Z</time></trkpt>
<trkpt lat="23.092992" lon="112.189151">
<time>2015-09-27T11:01:19Z</time></trkpt>
<trkpt lat="23.092871" lon="112.18893">
<time>2015-09-27T11:01:20Z</time></trkpt>
<trkpt lat="23.092751" lon="112.18873">
<time>2015-09-27T11:01:21Z</time></trkpt>
<trkpt lat="23.092661" lon="112.18858">
<time>2015-09-27T11:01:22Z</time></trkpt>
<trkpt lat="23.092541" lon="112.188399">
<time>2015-09-27T11:01:23Z</time></trkpt>
<trkpt lat="23.09243" lon="112.188249">
<time>2015-09-27T11:01:24Z</time></trkpt>
<trkpt lat="23.09231" lon="112.188089">
<time>2015-09-27T11:01:25Z</time></trkpt>
<trkpt lat="23.09213" lon="112.187848">
<time>2015-09-27T11:01:26Z</time></trkpt>
<trkpt lat="23.091989" lon="112.187668">
<time>2015-09-27T11:01:27Z</time></trkpt>
<trkpt lat="23.091869" lon="112.187508">
<time>2015-09-27T11:01:28Z</time></trkpt>
<trkpt lat="23.091749" lon="112.187347">
<time>2015-09-27T11:01:29Z</time></trkpt>
<trkpt lat="23.091639" lon="112.187197">
<time>2015-09-27T11:01:30Z</time></trkpt>
<trkpt lat="23.091459" lon="112.186976">
<time>2015-09-27T11:01:31Z</time></trkpt>
<trkpt lat="23.091318" lon="112.186786">
<time>2015-09-27T11:01:32Z</time></trkpt>
<trkpt lat="23.091168" lon="112.186586">
<time>2015-09-27T11:01:33Z</time></trkpt>
<trkpt lat="23.091048" lon="112.186435">
<time>2015-09-27T11:01:34Z</time></trkpt>
<trkpt lat="23.090877" lon="112.186205">
<time>2015-09-27T11:01:35Z</time></trkpt>
<trkpt lat="23.090747" lon="112.186025">
<time>2015-09-27T11:01:36Z</time></trkpt>
<trkpt lat="23.090617" lon="112.185854">
<time>2015-09-27T11:01:37Z</time></trkpt>
<trkpt lat="23.090467" lon="112.185654">
<time>2015-09-27T11:01:38Z</time></trkpt>
<trkpt lat="23.090306" lon="112.185433">
<time>2015-09-27T11:01:39Z</time></trkpt>
<trkpt lat="23.090166" lon="112.185253">
<time>2015-09-27T11:01:40Z</time></trkpt>
<trkpt lat="23.089976" lon="112.184992">
<time>2015-09-27T11:01:41Z</time></trkpt>
<trkpt lat="23.089845" lon="112.184822">
<time>2015-09-27T11:01:42Z</time></trkpt>
<trkpt lat="23.089685" lon="112.184612">
<time>2015-09-27T11:01:43Z</time></trkpt>
<trkpt lat="23.089545" lon="112.184411">
<time>2015-09-27T11:01:44Z</time></trkpt>
<trkpt lat="23.089405" lon="112.184211">
<time>2015-09-27T11:01:45Z</time></trkpt>
<trkpt lat="23.089304" lon="112.184061">
<time>2015-09-27T11:01:46Z</time></trkpt>
<trkpt lat="23.089164" lon="112.18386">
<time>2015-09-27T11:01:47Z</time></trkpt>
<trkpt lat="23.089064" lon="112.1837">
<time>2015-09-27T11:01:48Z</time></trkpt>
<trkpt lat="23.088984" lon="112.18358">
<time>2015-09-27T11:01:49Z</time></trkpt>
<trkpt lat="23.088943" lon="112.183499">
<time>2015-09-27T11:01:50Z</time></trkpt>
<trkpt lat="23.088843" lon="112.183339">
<time>2015-09-27T11:01:51Z</time></trkpt>
<trkpt lat="23.088683" lon="112.183079">
<time>2015-09-27T11:01:52Z</time></trkpt>
<trkpt lat="23.088552" lon="112.182858">
<time>2015-09-27T11:01:53Z</time></trkpt>
<trkpt lat="23.088422" lon="112.182618">
<time>2015-09-27T11:01:54Z</time></trkpt>
<trkpt lat="23.088322" lon="112.182447">
<time>2015-09-27T11:01:55Z</time></trkpt>
<trkpt lat="23.088171" lon="112.182177">
<time>2015-09-27T11:01:56Z</time></trkpt>
<trkpt lat="23.087981" lon="112.181856">
<time>2015-09-27T11:01:57Z</time></trkpt>
<trkpt lat="23.087841" lon="112.181615">
<time>2015-09-27T11:01:58Z</time></trkpt>
<trkpt lat="23.08775" lon="112.181455">
<time>2015-09-27T11:01:59Z</time></trkpt>
<trkpt lat="23.08761" lon="112.181205">
<time>2015-09-27T11:02:00Z</time></trkpt>
<trkpt lat="23.08747" lon="112.180964">
<time>2015-09-27T11:02:01Z</time></trkpt>
<trkpt lat="23.087309" lon="112.180684">
<time>2015-09-27T11:02:02Z</time></trkpt>
<trkpt lat="23.087179" lon="112.180463">
<time>2015-09-27T11:02:03Z</time></trkpt>
<trkpt lat="23.087048" lon="112.180243">
<time>2015-09-27T11:02:04Z</time></trkpt>
<trkpt lat="23.086948" lon="112.180052">
<time>2015-09-27T11:02:05Z</time></trkpt>
<trkpt lat="23.086848" lon="112.179882">
<time>2015-09-27T11:02:06Z</time></trkpt>
<trkpt lat="23.086768" lon="112.179732">
<time>2015-09-27T11:02:07Z</time></trkpt>
<trkpt lat="23.086637" lon="112.179521">
<time>2015-09-27T11:02:08Z</time></trkpt>
<trkpt lat="23.086517" lon="112.179301">
<time>2015-09-27T11:02:09Z</time></trkpt>
<trkpt lat="23.086377" lon="112.17906">
<time>2015-09-27T11:02:10Z</time></trkpt>
<trkpt lat="23.086256" lon="112.17886">
<time>2015-09-27T11:02:11Z</time></trkpt>
<trkpt lat="23.086156" lon="112.178679">
<time>2015-09-27T11:02:12Z</time></trkpt>
<trkpt lat="23.086056" lon="112.178499">
<time>2015-09-27T11:02:13Z</time></trkpt>
<trkpt lat="23.085965" lon="112.178319">
<time>2015-09-27T11:02:14Z</time></trkpt>
<trkpt lat="23.085865" lon="112.178128">
<time>2015-09-27T11:02:15Z</time></trkpt>
<trkpt lat="23.085775" lon="112.177908">
<time>2015-09-27T11:02:16Z</time></trkpt>
<trkpt lat="23.085704" lon="112.177707">
<time>2015-09-27T11:02:17Z</time></trkpt>
<trkpt lat="23.085644" lon="112.177527">
<time>2015-09-27T11:02:18Z</time></trkpt>
<trkpt lat="23.085594" lon="112.177316">
<time>2015-09-27T11:02:19Z</time></trkpt>
<trkpt lat="23.085553" lon="112.177106">
<time>2015-09-27T11:02:20Z</time></trkpt>
<trkpt lat="23.085523" lon="112.176926">
<time>2015-09-27T11:02:21Z</time></trkpt>
<trkpt lat="23.085482" lon="112.176665">
<time>2015-09-27T11:02:22Z</time></trkpt>
<trkpt lat="23.085452" lon="112.176475">
<time>2015-09-27T11:02:23Z</time></trkpt>
<trkpt lat="23.085402" lon="112.176154">
<time>2015-09-27T11:02:24Z</time></trkpt>
<trkpt lat="23.085361" lon="112.175873">
<time>2015-09-27T11:02:25Z</time></trkpt>
<trkpt lat="23.08531" lon="112.175522">
<time>2015-09-27T11:02:26Z</time></trkpt>
<trkpt lat="23.08528" lon="112.175282">
<time>2015-09-27T11:02:27Z</time></trkpt>
<trkpt lat="23.08527" lon="112.175212">
<time>2015-09-27T11:02:28Z</time></trkpt>
<trkpt lat="23.085229" lon="112.174931">
<time>2015-09-27T11:02:29Z</time></trkpt>
<trkpt lat="23.085219" lon="112.174881">
<time>2015-09-27T11:02:30Z</time></trkpt>
<trkpt lat="23.085199" lon="112.174721">
<time>2015-09-27T11:02:31Z</time></trkpt>
<trkpt lat="23.085169" lon="112.17452">
<time>2015-09-27T11:02:32Z</time></trkpt>
<trkpt lat="23.085138" lon="112.17431">
<time>2015-09-27T11:02:33Z</time></trkpt>
<trkpt lat="23.085118" lon="112.174129">
<time>2015-09-27T11:02:34Z</time></trkpt>
<trkpt lat="23.085088" lon="112.173909">
<time>2015-09-27T11:02:35Z</time></trkpt>
<trkpt lat="23.085037" lon="112.173608">
<time>2015-09-27T11:02:36Z</time></trkpt>
<trkpt lat="23.084996" lon="112.173308">
<time>2015-09-27T11:02:37Z</time></trkpt>
<trkpt lat="23.084966" lon="112.173127">
<time>2015-09-27T11:02:38Z</time></trkpt>
<trkpt lat="23.084936" lon="112.172917">
<time>2015-09-27T11:02:39Z</time></trkpt>
<trkpt lat="23.084905" lon="112.172726">
<time>2015-09-27T11:02:40Z</time></trkpt>
<trkpt lat="23.084865" lon="112.172556">
<time>2015-09-27T11:02:41Z</time></trkpt>
<trkpt lat="23.084825" lon="112.172346">
<time>2015-09-27T11:02:42Z</time></trkpt>
<trkpt lat="23.084774" lon="112.172155">
<time>2015-09-27T11:02:43Z</time></trkpt>
<trkpt lat="23.084724" lon="112.171965">
<time>2015-09-27T11:02:44Z</time></trkpt>
<trkpt lat="23.084664" lon="112.171774">
<time>2015-09-27T11:02:45Z</time></trkpt>
<trkpt lat="23.084603" lon="112.171594">
<time>2015-09-27T11:02:46Z</time></trkpt>
<trkpt lat="23.084523" lon="112.171393">
<time>2015-09-27T11:02:47Z</time></trkpt>
<trkpt lat="23.084423" lon="112.171143">
<time>2015-09-27T11:02:48Z</time></trkpt>
<trkpt lat="23.084312" lon="112.170892">
<time>2015-09-27T11:02:49Z</time></trkpt>
<trkpt lat="23.084192" lon="112.170642">
<time>2015-09-27T11:02:50Z</time></trkpt>
<trkpt lat="23.084061" lon="112.170341">
<time>2015-09-27T11:02:51Z</time></trkpt>
<trkpt lat="23.083951" lon="112.170091">
<time>2015-09-27T11:02:52Z</time></trkpt>
<trkpt lat="23.083931" lon="112.170051">
<time>2015-09-27T11:02:53Z</time></trkpt>
<trkpt lat="23.08382" lon="112.16979">
<time>2015-09-27T11:02:54Z</time></trkpt>
<trkpt lat="23.08382" lon="112.16978">
<time>2015-09-27T11:02:55Z</time></trkpt>
<trkpt lat="23.08375" lon="112.1696">
<time>2015-09-27T11:02:56Z</time></trkpt>
<trkpt lat="23.083649" lon="112.169309">
<time>2015-09-27T11:02:57Z</time></trkpt>
<trkpt lat="23.083569" lon="112.169028">
<time>2015-09-27T11:02:58Z</time></trkpt>
<trkpt lat="23.083488" lon="112.168688">
<time>2015-09-27T11:02:59Z</time></trkpt>
<trkpt lat="23.083418" lon="112.168387">
<time>2015-09-27T11:03:00Z</time></trkpt>
<trkpt lat="23.083347" lon="112.168106">
<time>2015-09-27T11:03:01Z</time></trkpt>
<trkpt lat="23.082884" lon="112.166112">
<time>2015-09-27T11:03:02Z</time></trkpt>
<trkpt lat="23.082299" lon="112.163516">
<time>2015-09-27T11:03:03Z</time></trkpt>
<trkpt lat="23.082007" lon="112.162293">
<time>2015-09-27T11:03:04Z</time></trkpt>
<trkpt lat="23.081856" lon="112.161662">
<time>2015-09-27T11:03:05Z</time></trkpt>
<trkpt lat="23.081644" lon="112.16056">
<time>2015-09-27T11:03:06Z</time></trkpt>
<trkpt lat="23.081634" lon="112.160439">
<time>2015-09-27T11:03:07Z</time></trkpt>
<trkpt lat="23.081613" lon="112.160309">
<time>2015-09-27T11:03:08Z</time></trkpt>
<trkpt lat="23.081613" lon="112.159958">
<time>2015-09-27T11:03:09Z</time></trkpt>
<trkpt lat="23.081622" lon="112.159738">
<time>2015-09-27T11:03:10Z</time></trkpt>
<trkpt lat="23.081691" lon="112.159287">
<time>2015-09-27T11:03:11Z</time></trkpt>
<trkpt lat="23.0818" lon="112.158746">
<time>2015-09-27T11:03:12Z</time></trkpt>
<trkpt lat="23.082107" lon="112.157062">
<time>2015-09-27T11:03:13Z</time></trkpt>
<trkpt lat="23.082404" lon="112.155358">
<time>2015-09-27T11:03:14Z</time></trkpt>
<trkpt lat="23.082473" lon="112.155047">
<time>2015-09-27T11:03:15Z</time></trkpt>
<trkpt lat="23.082681" lon="112.154085">
<time>2015-09-27T11:03:16Z</time></trkpt>
<trkpt lat="23.082681" lon="112.154075">
<time>2015-09-27T11:03:17Z</time></trkpt>
<trkpt lat="23.082801" lon="112.153725">
<time>2015-09-27T11:03:18Z</time></trkpt>
<trkpt lat="23.08297" lon="112.153294">
<time>2015-09-27T11:03:19Z</time></trkpt>
<trkpt lat="23.083348" lon="112.152492">
<time>2015-09-27T11:03:20Z</time></trkpt>
<trkpt lat="23.083527" lon="112.152131">
<time>2015-09-27T11:03:21Z</time></trkpt>
<trkpt lat="23.083746" lon="112.15166">
<time>2015-09-27T11:03:22Z</time></trkpt>
<trkpt lat="23.083926" lon="112.151299">
<time>2015-09-27T11:03:23Z</time></trkpt>
<trkpt lat="23.084055" lon="112.151039">
<time>2015-09-27T11:03:24Z</time></trkpt>
<trkpt lat="23.084175" lon="112.150798">
<time>2015-09-27T11:03:25Z</time></trkpt>
<trkpt lat="23.084284" lon="112.150558">
<time>2015-09-27T11:03:26Z</time></trkpt>
<trkpt lat="23.084364" lon="112.150387">
<time>2015-09-27T11:03:27Z</time></trkpt>
<trkpt lat="23.084912" lon="112.149275">
<time>2015-09-27T11:03:28Z</time></trkpt>
<trkpt lat="23.085181" lon="112.148714">
<time>2015-09-27T11:03:29Z</time></trkpt>
<trkpt lat="23.08538" lon="112.148273">
<time>2015-09-27T11:03:30Z</time></trkpt>
<trkpt lat="23.085469" lon="112.148072">
<time>2015-09-27T11:03:31Z</time></trkpt>
<trkpt lat="23.085519" lon="112.147922">
<time>2015-09-27T11:03:32Z</time></trkpt>
<trkpt lat="23.085569" lon="112.147792">
<time>2015-09-27T11:03:33Z</time></trkpt>
<trkpt lat="23.085718" lon="112.147271">
<time>2015-09-27T11:03:34Z</time></trkpt>
<trkpt lat="23.085996" lon="112.146259">
<time>2015-09-27T11:03:35Z</time></trkpt>
<trkpt lat="23.086205" lon="112.145477">
<time>2015-09-27T11:03:36Z</time></trkpt>
<trkpt lat="23.086264" lon="112.145256">
<time>2015-09-27T11:03:37Z</time></trkpt>
<trkpt lat="23.086314" lon="112.145096">
<time>2015-09-27T11:03:38Z</time></trkpt>
<trkpt lat="23.086483" lon="112.144515">
<time>2015-09-27T11:03:39Z</time></trkpt>
<trkpt lat="23.086642" lon="112.143934">
<time>2015-09-27T11:03:40Z</time></trkpt>
<trkpt lat="23.086751" lon="112.143543">
<time>2015-09-27T11:03:41Z</time></trkpt>
<trkpt lat="23.086751" lon="112.143523">
<time>2015-09-27T11:03:42Z</time></trkpt>
<trkpt lat="23.086791" lon="112.143403">
<time>2015-09-27T11:03:43Z</time></trkpt>
<trkpt lat="23.086841" lon="112.143262">
<time>2015-09-27T11:03:44Z</time></trkpt>
<trkpt lat="23.08688" lon="112.143162">
<time>2015-09-27T11:03:45Z</time></trkpt>
<trkpt lat="23.08696" lon="112.143002">
<time>2015-09-27T11:03:46Z</time></trkpt>
<trkpt lat="23.08706" lon="112.142832">
<time>2015-09-27T11:03:47Z</time></trkpt>
<trkpt lat="23.087159" lon="112.142691">
<time>2015-09-27T11:03:48Z</time></trkpt>
<trkpt lat="23.087239" lon="112.142581">
<time>2015-09-27T11:03:49Z</time></trkpt>
<trkpt lat="23.087329" lon="112.142461">
<time>2015-09-27T11:03:50Z</time></trkpt>
<trkpt lat="23.087459" lon="112.1423">
<time>2015-09-27T11:03:51Z</time></trkpt>
<trkpt lat="23.087588" lon="112.14213">
<time>2015-09-27T11:03:52Z</time></trkpt>
<trkpt lat="23.087698" lon="112.14199">
<time>2015-09-27T11:03:53Z</time></trkpt>
<trkpt lat="23.087818" lon="112.14185">
<time>2015-09-27T11:03:54Z</time></trkpt>
<trkpt lat="23.087957" lon="112.141639">
<time>2015-09-27T11:03:55Z</time></trkpt>
<trkpt lat="23.088027" lon="112.141499">
<time>2015-09-27T11:03:56Z</time></trkpt>
<trkpt lat="23.088077" lon="112.141399">
<time>2015-09-27T11:03:57Z</time></trkpt>
<trkpt lat="23.088117" lon="112.141288">
<time>2015-09-27T11:03:58Z</time></trkpt>
<trkpt lat="23.088127" lon="112.141178">
<time>2015-09-27T11:03:59Z</time></trkpt>
<trkpt lat="23.088136" lon="112.141078">
<time>2015-09-27T11:04:00Z</time></trkpt>
<trkpt lat="23.088146" lon="112.140978">
<time>2015-09-27T11:04:01Z</time></trkpt>
<trkpt lat="23.088136" lon="112.140818">
<time>2015-09-27T11:04:02Z</time></trkpt>
<trkpt lat="23.088106" lon="112.140677">
<time>2015-09-27T11:04:03Z</time></trkpt>
<trkpt lat="23.088065" lon="112.140467">
<time>2015-09-27T11:04:04Z</time></trkpt>
<trkpt lat="23.088015" lon="112.140216">
<time>2015-09-27T11:04:05Z</time></trkpt>
<trkpt lat="23.087955" lon="112.139946">
<time>2015-09-27T11:04:06Z</time></trkpt>
<trkpt lat="23.087904" lon="112.139695">
<time>2015-09-27T11:04:07Z</time></trkpt>
<trkpt lat="23.087844" lon="112.139425">
<time>2015-09-27T11:04:08Z</time></trkpt>
<trkpt lat="23.087814" lon="112.139285">
<time>2015-09-27T11:04:09Z</time></trkpt>
<trkpt lat="23.087814" lon="112.139265">
<time>2015-09-27T11:04:10Z</time></trkpt>
<trkpt lat="23.087793" lon="112.139124">
<time>2015-09-27T11:04:11Z</time></trkpt>
<trkpt lat="23.087793" lon="112.139054">
<time>2015-09-27T11:04:12Z</time></trkpt>
<trkpt lat="23.087793" lon="112.139004">
<time>2015-09-27T11:04:13Z</time></trkpt>
<trkpt lat="23.087793" lon="112.138954">
<time>2015-09-27T11:04:14Z</time></trkpt>
<trkpt lat="23.087911" lon="112.137862">
<time>2015-09-27T11:04:15Z</time></trkpt>
<trkpt lat="23.087941" lon="112.137661">
<time>2015-09-27T11:04:16Z</time></trkpt>
<trkpt lat="23.087991" lon="112.137451">
<time>2015-09-27T11:04:17Z</time></trkpt>
<trkpt lat="23.08806" lon="112.137271">
<time>2015-09-27T11:04:18Z</time></trkpt>
<trkpt lat="23.08817" lon="112.13703">
<time>2015-09-27T11:04:19Z</time></trkpt>
<trkpt lat="23.08827" lon="112.13686">
<time>2015-09-27T11:04:20Z</time></trkpt>
<trkpt lat="23.088469" lon="112.136449">
<time>2015-09-27T11:04:21Z</time></trkpt>
<trkpt lat="23.088628" lon="112.136099">
<time>2015-09-27T11:04:22Z</time></trkpt>
<trkpt lat="23.088877" lon="112.135628">
<time>2015-09-27T11:04:23Z</time></trkpt>
<trkpt lat="23.089067" lon="112.135247">
<time>2015-09-27T11:04:24Z</time></trkpt>
<trkpt lat="23.089266" lon="112.134856">
<time>2015-09-27T11:04:25Z</time></trkpt>
<trkpt lat="23.089406" lon="112.134586">
<time>2015-09-27T11:04:26Z</time></trkpt>
<trkpt lat="23.089555" lon="112.134355">
<time>2015-09-27T11:04:27Z</time></trkpt>
<trkpt lat="23.089675" lon="112.134205">
<time>2015-09-27T11:04:28Z</time></trkpt>
<trkpt lat="23.089845" lon="112.134065">
<time>2015-09-27T11:04:29Z</time></trkpt>
<trkpt lat="23.089955" lon="112.133995">
<time>2015-09-27T11:04:30Z</time></trkpt>
<trkpt lat="23.090054" lon="112.133945">
<time>2015-09-27T11:04:31Z</time></trkpt>
<trkpt lat="23.090204" lon="112.133884">
<time>2015-09-27T11:04:32Z</time></trkpt>
<trkpt lat="23.090394" lon="112.133834">
<time>2015-09-27T11:04:33Z</time></trkpt>
<trkpt lat="23.090594" lon="112.133784">
<time>2015-09-27T11:04:34Z</time></trkpt>
<trkpt lat="23.090784" lon="112.133764">
<time>2015-09-27T11:04:35Z</time></trkpt>
<trkpt lat="23.091064" lon="112.133734">
<time>2015-09-27T11:04:36Z</time></trkpt>
<trkpt lat="23.091503" lon="112.133694">
<time>2015-09-27T11:04:37Z</time></trkpt>
<trkpt lat="23.091663" lon="112.133674">
<time>2015-09-27T11:04:38Z</time></trkpt>
<trkpt lat="23.091893" lon="112.133654">
<time>2015-09-27T11:04:39Z</time></trkpt>
<trkpt lat="23.092283" lon="112.133604">
<time>2015-09-27T11:04:40Z</time></trkpt>
<trkpt lat="23.092763" lon="112.133544">
<time>2015-09-27T11:04:41Z</time></trkpt>
<trkpt lat="23.093222" lon="112.133493">
<time>2015-09-27T11:04:42Z</time></trkpt>
<trkpt lat="23.093572" lon="112.133453">
<time>2015-09-27T11:04:43Z</time></trkpt>
<trkpt lat="23.093822" lon="112.133433">
<time>2015-09-27T11:04:44Z</time></trkpt>
<trkpt lat="23.094142" lon="112.133393">
<time>2015-09-27T11:04:45Z</time></trkpt>
<trkpt lat="23.094272" lon="112.133353">
<time>2015-09-27T11:04:46Z</time></trkpt>
<trkpt lat="23.094362" lon="112.133323">
<time>2015-09-27T11:04:47Z</time></trkpt>
<trkpt lat="23.094442" lon="112.133293">
<time>2015-09-27T11:04:48Z</time></trkpt>
<trkpt lat="23.094522" lon="112.133243">
<time>2015-09-27T11:04:49Z</time></trkpt>
<trkpt lat="23.094611" lon="112.133183">
<time>2015-09-27T11:04:50Z</time></trkpt>
<trkpt lat="23.094711" lon="112.133103">
<time>2015-09-27T11:04:51Z</time></trkpt>
<trkpt lat="23.094871" lon="112.132922">
<time>2015-09-27T11:04:52Z</time></trkpt>
<trkpt lat="23.094941" lon="112.132832">
<time>2015-09-27T11:04:53Z</time></trkpt>
<trkpt lat="23.0951" lon="112.132602">
<time>2015-09-27T11:04:54Z</time></trkpt>
<trkpt lat="23.09525" lon="112.132371">
<time>2015-09-27T11:04:55Z</time></trkpt>
<trkpt lat="23.095439" lon="112.132071">
<time>2015-09-27T11:04:56Z</time></trkpt>
<trkpt lat="23.095629" lon="112.13178">
<time>2015-09-27T11:04:57Z</time></trkpt>
<trkpt lat="23.095789" lon="112.13152">
<time>2015-09-27T11:04:58Z</time></trkpt>
<trkpt lat="23.095988" lon="112.131199">
<time>2015-09-27T11:04:59Z</time></trkpt>
<trkpt lat="23.096058" lon="112.131089">
<time>2015-09-27T11:05:00Z</time></trkpt>
<trkpt lat="23.096168" lon="112.130909">
<time>2015-09-27T11:05:01Z</time></trkpt>
<trkpt lat="23.096197" lon="112.130869">
<time>2015-09-27T11:05:02Z</time></trkpt>
<trkpt lat="23.096247" lon="112.130789">
<time>2015-09-27T11:05:03Z</time></trkpt>
<trkpt lat="23.096257" lon="112.130749">
<time>2015-09-27T11:05:04Z</time></trkpt>
<trkpt lat="23.096267" lon="112.130728">
<time>2015-09-27T11:05:05Z</time></trkpt>
<trkpt lat="23.096287" lon="112.130698">
<time>2015-09-27T11:05:06Z</time></trkpt>
<trkpt lat="23.096287" lon="112.130678">
<time>2015-09-27T11:05:07Z</time></trkpt>
<trkpt lat="23.096297" lon="112.130648">
<time>2015-09-27T11:05:08Z</time></trkpt>
<trkpt lat="23.096297" lon="112.130618">
<time>2015-09-27T11:05:09Z</time></trkpt>
<trkpt lat="23.096307" lon="112.130568">
<time>2015-09-27T11:05:10Z</time></trkpt>
<trkpt lat="23.096307" lon="112.130518">
<time>2015-09-27T11:05:11Z</time></trkpt>
<trkpt lat="23.096307" lon="112.130468">
<time>2015-09-27T11:05:12Z</time></trkpt>
<trkpt lat="23.096297" lon="112.130348">
<time>2015-09-27T11:05:13Z</time></trkpt>
<trkpt lat="23.096276" lon="112.130147">
<time>2015-09-27T11:05:14Z</time></trkpt>
<trkpt lat="23.096256" lon="112.130027">
<time>2015-09-27T11:05:15Z</time></trkpt>
<trkpt lat="23.096226" lon="112.129907">
<time>2015-09-27T11:05:16Z</time></trkpt>
<trkpt lat="23.096216" lon="112.129847">
<time>2015-09-27T11:05:17Z</time></trkpt>
<trkpt lat="23.096186" lon="112.129777">
<time>2015-09-27T11:05:18Z</time></trkpt>
<trkpt lat="23.096166" lon="112.129717">
<time>2015-09-27T11:05:19Z</time></trkpt>
<trkpt lat="23.096146" lon="112.129677">
<time>2015-09-27T11:05:20Z</time></trkpt>
<trkpt lat="23.096086" lon="112.129557">
<time>2015-09-27T11:05:21Z</time></trkpt>
<trkpt lat="23.095996" lon="112.129426">
<time>2015-09-27T11:05:22Z</time></trkpt>
<trkpt lat="23.095955" lon="112.129376">
<time>2015-09-27T11:05:23Z</time></trkpt>
<trkpt lat="23.095915" lon="112.129316">
<time>2015-09-27T11:05:24Z</time></trkpt>
<trkpt lat="23.095865" lon="112.129266">
<time>2015-09-27T11:05:25Z</time></trkpt>
<trkpt lat="23.095815" lon="112.129216">
<time>2015-09-27T11:05:26Z</time></trkpt>
<trkpt lat="23.095645" lon="112.129056">
<time>2015-09-27T11:05:27Z</time></trkpt>
<trkpt lat="23.095395" lon="112.128845">
<time>2015-09-27T11:05:28Z</time></trkpt>
<trkpt lat="23.095025" lon="112.128545">
<time>2015-09-27T11:05:29Z</time></trkpt>
<trkpt lat="23.094614" lon="112.128204">
<time>2015-09-27T11:05:30Z</time></trkpt>
<trkpt lat="23.094284" lon="112.127924">
<time>2015-09-27T11:05:31Z</time></trkpt>
<trkpt lat="23.093884" lon="112.127593">
<time>2015-09-27T11:05:32Z</time></trkpt>
<trkpt lat="23.093544" lon="112.127313">
<time>2015-09-27T11:05:33Z</time></trkpt>
<trkpt lat="23.093193" lon="112.127013">
<time>2015-09-27T11:05:34Z</time></trkpt>
<trkpt lat="23.092893" lon="112.126762">
<time>2015-09-27T11:05:35Z</time></trkpt>
<trkpt lat="23.092763" lon="112.126652">
<time>2015-09-27T11:05:36Z</time></trkpt>
<trkpt lat="23.092633" lon="112.126522">
<time>2015-09-27T11:05:37Z</time></trkpt>
<trkpt lat="23.092513" lon="112.126392">
<time>2015-09-27T11:05:38Z</time></trkpt>
<trkpt lat="23.092383" lon="112.126231">
<time>2015-09-27T11:05:39Z</time></trkpt>
<trkpt lat="23.092113" lon="112.125901">
<time>2015-09-27T11:05:40Z</time></trkpt>
<trkpt lat="23.091892" lon="112.12559">
<time>2015-09-27T11:05:41Z</time></trkpt>
<trkpt lat="23.091612" lon="112.12517">
<time>2015-09-27T11:05:42Z</time></trkpt>
<trkpt lat="23.091602" lon="112.12515">
<time>2015-09-27T11:05:43Z</time></trkpt>
<trkpt lat="23.091512" lon="112.12501">
<time>2015-09-27T11:05:44Z</time></trkpt>
<trkpt lat="23.09013" lon="112.122907">
<time>2015-09-27T11:05:45Z</time></trkpt>
<trkpt lat="23.09012" lon="112.122897">
<time>2015-09-27T11:05:46Z</time></trkpt>
<trkpt lat="23.088548" lon="112.120553">
<time>2015-09-27T11:05:47Z</time></trkpt>
<trkpt lat="23.088528" lon="112.120523">
<time>2015-09-27T11:05:48Z</time></trkpt>
<trkpt lat="23.088398" lon="112.120333">
<time>2015-09-27T11:05:49Z</time></trkpt>
<trkpt lat="23.088307" lon="112.120163">
<time>2015-09-27T11:05:50Z</time></trkpt>
<trkpt lat="23.088257" lon="112.120023">
<time>2015-09-27T11:05:51Z</time></trkpt>
<trkpt lat="23.088217" lon="112.119862">
<time>2015-09-27T11:05:52Z</time></trkpt>
<trkpt lat="23.088177" lon="112.119722">
<time>2015-09-27T11:05:53Z</time></trkpt>
<trkpt lat="23.088147" lon="112.119572">
<time>2015-09-27T11:05:54Z</time></trkpt>
<trkpt lat="23.088137" lon="112.119412">
<time>2015-09-27T11:05:55Z</time></trkpt>
<trkpt lat="23.088137" lon="112.119282">
<time>2015-09-27T11:05:56Z</time></trkpt>
<trkpt lat="23.088146" lon="112.119151">
<time>2015-09-27T11:05:57Z</time></trkpt>
<trkpt lat="23.088176" lon="112.118991">
<time>2015-09-27T11:05:58Z</time></trkpt>
<trkpt lat="23.088246" lon="112.118731">
<time>2015-09-27T11:05:59Z</time></trkpt>
<trkpt lat="23.088316" lon="112.118511">
<time>2015-09-27T11:06:00Z</time></trkpt>
<trkpt lat="23.088445" lon="112.11815">
<time>2015-09-27T11:06:01Z</time></trkpt>
<trkpt lat="23.088485" lon="112.11804">
<time>2015-09-27T11:06:02Z</time></trkpt>
<trkpt lat="23.088505" lon="112.11796">
<time>2015-09-27T11:06:03Z</time></trkpt>
<trkpt lat="23.088585" lon="112.117619">
<time>2015-09-27T11:06:04Z</time></trkpt>
<trkpt lat="23.089142" lon="112.114516">
<time>2015-09-27T11:06:05Z</time></trkpt>
<trkpt lat="23.089341" lon="112.113635">
<time>2015-09-27T11:06:06Z</time></trkpt>
<trkpt lat="23.08962" lon="112.112754">
<time>2015-09-27T11:06:07Z</time></trkpt>
<trkpt lat="23.090228" lon="112.111082">
<time>2015-09-27T11:06:08Z</time></trkpt>
<trkpt lat="23.090498" lon="112.110321">
<time>2015-09-27T11:06:09Z</time></trkpt>
<trkpt lat="23.090498" lon="112.110311">
<time>2015-09-27T11:06:10Z</time></trkpt>
<trkpt lat="23.090557" lon="112.110091">
<time>2015-09-27T11:06:11Z</time></trkpt>
<trkpt lat="23.090597" lon="112.109971">
<time>2015-09-27T11:06:12Z</time></trkpt>
<trkpt lat="23.090617" lon="112.109831">
<time>2015-09-27T11:06:13Z</time></trkpt>
<trkpt lat="23.090657" lon="112.10961">
<time>2015-09-27T11:06:14Z</time></trkpt>
<trkpt lat="23.090707" lon="112.1091">
<time>2015-09-27T11:06:15Z</time></trkpt>
<trkpt lat="23.090796" lon="112.108329">
<time>2015-09-27T11:06:16Z</time></trkpt>
<trkpt lat="23.090816" lon="112.108139">
<time>2015-09-27T11:06:17Z</time></trkpt>
<trkpt lat="23.090836" lon="112.108019">
<time>2015-09-27T11:06:18Z</time></trkpt>
<trkpt lat="23.090866" lon="112.107879">
<time>2015-09-27T11:06:19Z</time></trkpt>
<trkpt lat="23.090906" lon="112.107749">
<time>2015-09-27T11:06:20Z</time></trkpt>
<trkpt lat="23.090966" lon="112.107609">
<time>2015-09-27T11:06:21Z</time></trkpt>
<trkpt lat="23.091025" lon="112.107488">
<time>2015-09-27T11:06:22Z</time></trkpt>
<trkpt lat="23.091105" lon="112.107368">
<time>2015-09-27T11:06:23Z</time></trkpt>
<trkpt lat="23.091195" lon="112.107258">
<time>2015-09-27T11:06:24Z</time></trkpt>
<trkpt lat="23.091305" lon="112.107138">
<time>2015-09-27T11:06:25Z</time></trkpt>
<trkpt lat="23.091385" lon="112.107068">
<time>2015-09-27T11:06:26Z</time></trkpt>
<trkpt lat="23.091755" lon="112.106788">
<time>2015-09-27T11:06:27Z</time></trkpt>
<trkpt lat="23.091875" lon="112.106668">
<time>2015-09-27T11:06:28Z</time></trkpt>
<trkpt lat="23.091945" lon="112.106598">
<time>2015-09-27T11:06:29Z</time></trkpt>
<trkpt lat="23.092024" lon="112.106488">
<time>2015-09-27T11:06:30Z</time></trkpt>
<trkpt lat="23.092154" lon="112.106297">
<time>2015-09-27T11:06:31Z</time></trkpt>
<trkpt lat="23.092704" lon="112.105407">
<time>2015-09-27T11:06:32Z</time></trkpt>
<trkpt lat="23.092823" lon="112.105206">
<time>2015-09-27T11:06:33Z</time></trkpt>
<trkpt lat="23.092853" lon="112.105176">
<time>2015-09-27T11:06:34Z</time></trkpt>
<trkpt lat="23.092973" lon="112.105006">
<time>2015-09-27T11:06:35Z</time></trkpt>
<trkpt lat="23.093133" lon="112.104826">
<time>2015-09-27T11:06:36Z</time></trkpt>
<trkpt lat="23.093313" lon="112.104656">
<time>2015-09-27T11:06:37Z</time></trkpt>
<trkpt lat="23.093493" lon="112.104516">
<time>2015-09-27T11:06:38Z</time></trkpt>
<trkpt lat="23.093683" lon="112.104386">
<time>2015-09-27T11:06:39Z</time></trkpt>
<trkpt lat="23.094162" lon="112.104106">
<time>2015-09-27T11:06:40Z</time></trkpt>
<trkpt lat="23.094302" lon="112.104015">
<time>2015-09-27T11:06:41Z</time></trkpt>
<trkpt lat="23.094432" lon="112.103905">
<time>2015-09-27T11:06:42Z</time></trkpt>
<trkpt lat="23.094542" lon="112.103795">
<time>2015-09-27T11:06:43Z</time></trkpt>
<trkpt lat="23.094832" lon="112.103455">
<time>2015-09-27T11:06:44Z</time></trkpt>
<trkpt lat="23.0959" lon="112.101684">
<time>2015-09-27T11:06:45Z</time></trkpt>
<trkpt lat="23.09611" lon="112.101344">
<time>2015-09-27T11:06:46Z</time></trkpt>
<trkpt lat="23.0964" lon="112.100863">
<time>2015-09-27T11:06:47Z</time></trkpt>
<trkpt lat="23.097629" lon="112.098792">
<time>2015-09-27T11:06:48Z</time></trkpt>
<trkpt lat="23.097979" lon="112.098242">
<time>2015-09-27T11:06:49Z</time></trkpt>
<trkpt lat="23.098098" lon="112.098002">
<time>2015-09-27T11:06:50Z</time></trkpt>
<trkpt lat="23.098188" lon="112.097792">
<time>2015-09-27T11:06:51Z</time></trkpt>
<trkpt lat="23.098248" lon="112.097632">
<time>2015-09-27T11:06:52Z</time></trkpt>
<trkpt lat="23.098298" lon="112.097441">
<time>2015-09-27T11:06:53Z</time></trkpt>
<trkpt lat="23.098328" lon="112.097271">
<time>2015-09-27T11:06:54Z</time></trkpt>
<trkpt lat="23.098338" lon="112.097121">
<time>2015-09-27T11:06:55Z</time></trkpt>
<trkpt lat="23.098338" lon="112.096951">
<time>2015-09-27T11:06:56Z</time></trkpt>
<trkpt lat="23.098328" lon="112.096751">
<time>2015-09-27T11:06:57Z</time></trkpt>
<trkpt lat="23.098188" lon="112.095311">
<time>2015-09-27T11:06:58Z</time></trkpt>
<trkpt lat="23.098168" lon="112.095091">
<time>2015-09-27T11:06:59Z</time></trkpt>
<trkpt lat="23.098038" lon="112.0934">
<time>2015-09-27T11:07:00Z</time></trkpt>
<trkpt lat="23.097928" lon="112.09261">
<time>2015-09-27T11:07:01Z</time></trkpt>
<trkpt lat="23.097868" lon="112.09238">
<time>2015-09-27T11:07:02Z</time></trkpt>
<trkpt lat="23.097778" lon="112.09215">
<time>2015-09-27T11:07:03Z</time></trkpt>
<trkpt lat="23.097698" lon="112.09198">
<time>2015-09-27T11:07:04Z</time></trkpt>
<trkpt lat="23.097608" lon="112.09182">
<time>2015-09-27T11:07:05Z</time></trkpt>
<trkpt lat="23.097478" lon="112.09163">
<time>2015-09-27T11:07:06Z</time></trkpt>
<trkpt lat="23.096699" lon="112.09061">
<time>2015-09-27T11:07:07Z</time></trkpt>
<trkpt lat="23.095719" lon="112.08933">
<time>2015-09-27T11:07:08Z</time></trkpt>
<trkpt lat="23.093301" lon="112.08618">
<time>2015-09-27T11:07:09Z</time></trkpt>
<trkpt lat="23.092452" lon="112.08508">
<time>2015-09-27T11:07:10Z</time></trkpt>
<trkpt lat="23.091992" lon="112.084421">
<time>2015-09-27T11:07:11Z</time></trkpt>
<trkpt lat="23.091922" lon="112.084311">
<time>2015-09-27T11:07:12Z</time></trkpt>
<trkpt lat="23.091862" lon="112.084191">
<time>2015-09-27T11:07:13Z</time></trkpt>
<trkpt lat="23.091812" lon="112.084071">
<time>2015-09-27T11:07:14Z</time></trkpt>
<trkpt lat="23.091752" lon="112.083921">
<time>2015-09-27T11:07:15Z</time></trkpt>
<trkpt lat="23.091333" lon="112.082771">
<time>2015-09-27T11:07:16Z</time></trkpt>
<trkpt lat="23.089945" lon="112.078982">
<time>2015-09-27T11:07:17Z</time></trkpt>
<trkpt lat="23.089506" lon="112.078013">
<time>2015-09-27T11:07:18Z</time></trkpt>
<trkpt lat="23.089337" lon="112.077643">
<time>2015-09-27T11:07:19Z</time></trkpt>
<trkpt lat="23.088838" lon="112.076534">
<time>2015-09-27T11:07:20Z</time></trkpt>
<trkpt lat="23.088788" lon="112.076404">
<time>2015-09-27T11:07:21Z</time></trkpt>
<trkpt lat="23.088738" lon="112.076234">
<time>2015-09-27T11:07:22Z</time></trkpt>
<trkpt lat="23.088708" lon="112.076084">
<time>2015-09-27T11:07:23Z</time></trkpt>
<trkpt lat="23.088698" lon="112.075944">
<time>2015-09-27T11:07:24Z</time></trkpt>
<trkpt lat="23.088698" lon="112.075445">
<time>2015-09-27T11:07:25Z</time></trkpt>
<trkpt lat="23.08878" lon="112.074075">
<time>2015-09-27T11:07:26Z</time></trkpt>
<trkpt lat="23.08878" lon="112.073966">
<time>2015-09-27T11:07:27Z</time></trkpt>
<trkpt lat="23.08878" lon="112.073886">
<time>2015-09-27T11:07:28Z</time></trkpt>
<trkpt lat="23.08877" lon="112.073806">
<time>2015-09-27T11:07:29Z</time></trkpt>
<trkpt lat="23.08875" lon="112.073716">
<time>2015-09-27T11:07:30Z</time></trkpt>
<trkpt lat="23.088441" lon="112.072327">
<time>2015-09-27T11:07:31Z</time></trkpt>
<trkpt lat="23.088381" lon="112.072067">
<time>2015-09-27T11:07:32Z</time></trkpt>
<trkpt lat="23.088232" lon="112.071467">
<time>2015-09-27T11:07:33Z</time></trkpt>
<trkpt lat="23.088192" lon="112.071258">
<time>2015-09-27T11:07:34Z</time></trkpt>
<trkpt lat="23.088172" lon="112.071098">
<time>2015-09-27T11:07:35Z</time></trkpt>
<trkpt lat="23.088173" lon="112.070948">
<time>2015-09-27T11:07:36Z</time></trkpt>
<trkpt lat="23.088183" lon="112.070818">
<time>2015-09-27T11:07:37Z</time></trkpt>
<trkpt lat="23.088203" lon="112.070718">
<time>2015-09-27T11:07:38Z</time></trkpt>
<trkpt lat="23.088223" lon="112.070618">
<time>2015-09-27T11:07:39Z</time></trkpt>
<trkpt lat="23.088253" lon="112.070528">
<time>2015-09-27T11:07:40Z</time></trkpt>
<trkpt lat="23.088293" lon="112.070418">
<time>2015-09-27T11:07:41Z</time></trkpt>
<trkpt lat="23.088343" lon="112.070308">
<time>2015-09-27T11:07:42Z</time></trkpt>
<trkpt lat="23.088543" lon="112.069959">
<time>2015-09-27T11:07:43Z</time></trkpt>
<trkpt lat="23.088614" lon="112.069809">
<time>2015-09-27T11:07:44Z</time></trkpt>
<trkpt lat="23.088694" lon="112.069649">
<time>2015-09-27T11:07:45Z</time></trkpt>
<trkpt lat="23.088774" lon="112.069459">
<time>2015-09-27T11:07:46Z</time></trkpt>
<trkpt lat="23.088794" lon="112.069369">
<time>2015-09-27T11:07:47Z</time></trkpt>
<trkpt lat="23.088814" lon="112.069289">
<time>2015-09-27T11:07:48Z</time></trkpt>
<trkpt lat="23.088814" lon="112.069189">
<time>2015-09-27T11:07:49Z</time></trkpt>
<trkpt lat="23.088814" lon="112.0691">
<time>2015-09-27T11:07:50Z</time></trkpt>
<trkpt lat="23.088804" lon="112.06901">
<time>2015-09-27T11:07:51Z</time></trkpt>
<trkpt lat="23.088794" lon="112.06894">
<time>2015-09-27T11:07:52Z</time></trkpt>
<trkpt lat="23.088745" lon="112.06879">
<time>2015-09-27T11:07:53Z</time></trkpt>
<trkpt lat="23.088685" lon="112.06863">
<time>2015-09-27T11:07:54Z</time></trkpt>
<trkpt lat="23.088575" lon="112.0684">
<time>2015-09-27T11:07:55Z</time></trkpt>
<trkpt lat="23.087837" lon="112.067012">
<time>2015-09-27T11:07:56Z</time></trkpt>
<trkpt lat="23.087588" lon="112.066472">
<time>2015-09-27T11:07:57Z</time></trkpt>
<trkpt lat="23.087568" lon="112.066432">
<time>2015-09-27T11:07:58Z</time></trkpt>
<trkpt lat="23.087548" lon="112.066382">
<time>2015-09-27T11:07:59Z</time></trkpt>
<trkpt lat="23.087538" lon="112.066342">
<time>2015-09-27T11:08:00Z</time></trkpt>
<trkpt lat="23.087518" lon="112.066293">
<time>2015-09-27T11:08:01Z</time></trkpt>
<trkpt lat="23.087508" lon="112.066243">
<time>2015-09-27T11:08:02Z</time></trkpt>
<trkpt lat="23.087498" lon="112.066183">
<time>2015-09-27T11:08:03Z</time></trkpt>
<trkpt lat="23.087478" lon="112.065873">
<time>2015-09-27T11:08:04Z</time></trkpt>
<trkpt lat="23.087479" lon="112.065803">
<time>2015-09-27T11:08:05Z</time></trkpt>
<trkpt lat="23.087479" lon="112.065743">
<time>2015-09-27T11:08:06Z</time></trkpt>
<trkpt lat="23.087489" lon="112.065693">
<time>2015-09-27T11:08:07Z</time></trkpt>
<trkpt lat="23.087489" lon="112.065633">
<time>2015-09-27T11:08:08Z</time></trkpt>
<trkpt lat="23.087499" lon="112.065573">
<time>2015-09-27T11:08:09Z</time></trkpt>
<trkpt lat="23.087539" lon="112.065423">
<time>2015-09-27T11:08:10Z</time></trkpt>
<trkpt lat="23.0877" lon="112.064664">
<time>2015-09-27T11:08:11Z</time></trkpt>
<trkpt lat="23.08778" lon="112.064285">
<time>2015-09-27T11:08:12Z</time></trkpt>
<trkpt lat="23.08781" lon="112.064165">
<time>2015-09-27T11:08:13Z</time></trkpt>
<trkpt lat="23.087831" lon="112.064005">
<time>2015-09-27T11:08:14Z</time></trkpt>
<trkpt lat="23.087851" lon="112.063875">
<time>2015-09-27T11:08:15Z</time></trkpt>
<trkpt lat="23.087861" lon="112.063755">
<time>2015-09-27T11:08:16Z</time></trkpt>
<trkpt lat="23.087851" lon="112.063636">
<time>2015-09-27T11:08:17Z</time></trkpt>
<trkpt lat="23.087831" lon="112.063516">
<time>2015-09-27T11:08:18Z</time></trkpt>
<trkpt lat="23.087613" lon="112.062517">
<time>2015-09-27T11:08:19Z</time></trkpt>
<trkpt lat="23.087613" lon="112.062507">
<time>2015-09-27T11:08:20Z</time></trkpt>
<trkpt lat="23.087553" lon="112.062227">
<time>2015-09-27T11:08:21Z</time></trkpt>
<trkpt lat="23.087453" lon="112.062018">
<time>2015-09-27T11:08:22Z</time></trkpt>
<trkpt lat="23.087354" lon="112.061808">
<time>2015-09-27T11:08:23Z</time></trkpt>
<trkpt lat="23.087164" lon="112.061498">
<time>2015-09-27T11:08:24Z</time></trkpt>
<trkpt lat="23.086247" lon="112.06018">
<time>2015-09-27T11:08:25Z</time></trkpt>
<trkpt lat="23.085688" lon="112.059321">
<time>2015-09-27T11:08:26Z</time></trkpt>
<trkpt lat="23.084591" lon="112.057384">
<time>2015-09-27T11:08:27Z</time></trkpt>
<trkpt lat="23.084452" lon="112.057165">
<time>2015-09-27T11:08:28Z</time></trkpt>
<trkpt lat="23.084382" lon="112.057045">
<time>2015-09-27T11:08:29Z</time></trkpt>
<trkpt lat="23.084282" lon="112.056935">
<time>2015-09-27T11:08:30Z</time></trkpt>
<trkpt lat="23.084073" lon="112.056675">
<time>2015-09-27T11:08:31Z</time></trkpt>
<trkpt lat="23.083325" lon="112.055777">
<time>2015-09-27T11:08:32Z</time></trkpt>
<trkpt lat="23.082078" lon="112.054179">
<time>2015-09-27T11:08:33Z</time></trkpt>
<trkpt lat="23.081809" lon="112.05373">
<time>2015-09-27T11:08:34Z</time></trkpt>
<trkpt lat="23.08159" lon="112.053261">
<time>2015-09-27T11:08:35Z</time></trkpt>
<trkpt lat="23.081361" lon="112.052632">
<time>2015-09-27T11:08:36Z</time></trkpt>
<trkpt lat="23.080795" lon="112.050226">
<time>2015-09-27T11:08:37Z</time></trkpt>
<trkpt lat="23.079457" lon="112.044547">
<time>2015-09-27T11:08:38Z</time></trkpt>
<trkpt lat="23.078704" lon="112.041374">
<time>2015-09-27T11:08:39Z</time></trkpt>
<trkpt lat="23.078576" lon="112.040476">
<time>2015-09-27T11:08:40Z</time></trkpt>
<trkpt lat="23.078567" lon="112.039987">
<time>2015-09-27T11:08:41Z</time></trkpt>
<trkpt lat="23.078578" lon="112.039438">
<time>2015-09-27T11:08:42Z</time></trkpt>
<trkpt lat="23.078884" lon="112.037154">
<time>2015-09-27T11:08:43Z</time></trkpt>
<trkpt lat="23.079748" lon="112.031188">
<time>2015-09-27T11:08:44Z</time></trkpt>
<trkpt lat="23.080253" lon="112.028804">
<time>2015-09-27T11:08:45Z</time></trkpt>
<trkpt lat="23.080314" lon="112.028575">
<time>2015-09-27T11:08:46Z</time></trkpt>
<trkpt lat="23.080425" lon="112.028315">
<time>2015-09-27T11:08:47Z</time></trkpt>
<trkpt lat="23.080575" lon="112.028106">
<time>2015-09-27T11:08:48Z</time></trkpt>
<trkpt lat="23.080806" lon="112.027896">
<time>2015-09-27T11:08:49Z</time></trkpt>
<trkpt lat="23.081036" lon="112.027757">
<time>2015-09-27T11:08:50Z</time></trkpt>
<trkpt lat="23.081286" lon="112.027647">
<time>2015-09-27T11:08:51Z</time></trkpt>
<trkpt lat="23.083317" lon="112.027008">
<time>2015-09-27T11:08:52Z</time></trkpt>
<trkpt lat="23.084187" lon="112.026739">
<time>2015-09-27T11:08:53Z</time></trkpt>
<trkpt lat="23.085278" lon="112.0264">
<time>2015-09-27T11:08:54Z</time></trkpt>
<trkpt lat="23.085278" lon="112.0264">
<time>2015-09-27T11:08:55Z</time></trkpt>
<trkpt lat="23.085287" lon="112.02646">
<time>2015-09-27T11:08:56Z</time></trkpt>
<trkpt lat="23.085287" lon="112.02646">
<time>2015-09-27T11:08:57Z</time></trkpt>
<trkpt lat="23.085437" lon="112.02641">
<time>2015-09-27T11:08:58Z</time></trkpt>
<trkpt lat="23.086258" lon="112.02616">
<time>2015-09-27T11:08:59Z</time></trkpt>
<trkpt lat="23.086948" lon="112.025921">
<time>2015-09-27T11:09:00Z</time></trkpt>
<trkpt lat="23.087699" lon="112.025612">
<time>2015-09-27T11:09:01Z</time></trkpt>
<trkpt lat="23.088109" lon="112.025372">
<time>2015-09-27T11:09:02Z</time></trkpt>
<trkpt lat="23.0885" lon="112.025093">
<time>2015-09-27T11:09:03Z</time></trkpt>
<trkpt lat="23.08858" lon="112.025033">
<time>2015-09-27T11:09:04Z</time></trkpt>
<trkpt lat="23.08858" lon="112.025033">
<time>2015-09-27T11:09:05Z</time></trkpt>
<trkpt lat="23.08854" lon="112.024983">
<time>2015-09-27T11:09:06Z</time></trkpt>
<trkpt lat="23.08854" lon="112.024983">
<time>2015-09-27T11:09:07Z</time></trkpt>
<trkpt lat="23.08866" lon="112.024894">
<time>2015-09-27T11:09:08Z</time></trkpt>
<trkpt lat="23.088891" lon="112.024694">
<time>2015-09-27T11:09:09Z</time></trkpt>
<trkpt lat="23.089111" lon="112.024485">
<time>2015-09-27T11:09:10Z</time></trkpt>
<trkpt lat="23.089302" lon="112.024265">
<time>2015-09-27T11:09:11Z</time></trkpt>
<trkpt lat="23.089582" lon="112.023916">
<time>2015-09-27T11:09:12Z</time></trkpt>
<trkpt lat="23.090074" lon="112.023158">
<time>2015-09-27T11:09:13Z</time></trkpt>
<trkpt lat="23.090517" lon="112.022211">
<time>2015-09-27T11:09:14Z</time></trkpt>
<trkpt lat="23.091382" lon="112.019987">
<time>2015-09-27T11:09:15Z</time></trkpt>
<trkpt lat="23.091523" lon="112.019638">
<time>2015-09-27T11:09:16Z</time></trkpt>
<trkpt lat="23.091827" lon="112.018421">
<time>2015-09-27T11:09:17Z</time></trkpt>
<trkpt lat="23.092425" lon="112.01552">
<time>2015-09-27T11:09:18Z</time></trkpt>
<trkpt lat="23.092506" lon="112.015051">
<time>2015-09-27T11:09:19Z</time></trkpt>
<trkpt lat="23.092506" lon="112.015021">
<time>2015-09-27T11:09:20Z</time></trkpt>
<trkpt lat="23.092536" lon="112.014862">
<time>2015-09-27T11:09:21Z</time></trkpt>
<trkpt lat="23.092567" lon="112.014622">
<time>2015-09-27T11:09:22Z</time></trkpt>
<trkpt lat="23.092578" lon="112.014403">
<time>2015-09-27T11:09:23Z</time></trkpt>
<trkpt lat="23.092589" lon="112.014084">
<time>2015-09-27T11:09:24Z</time></trkpt>
<trkpt lat="23.09258" lon="112.013745">
<time>2015-09-27T11:09:25Z</time></trkpt>
<trkpt lat="23.092571" lon="112.013336">
<time>2015-09-27T11:09:26Z</time></trkpt>
<trkpt lat="23.09246" lon="112.010156">
<time>2015-09-27T11:09:27Z</time></trkpt>
<trkpt lat="23.092432" lon="112.009408">
<time>2015-09-27T11:09:28Z</time></trkpt>
<trkpt lat="23.092359" lon="112.007075">
<time>2015-09-27T11:09:29Z</time></trkpt>
<trkpt lat="23.092361" lon="112.006566">
<time>2015-09-27T11:09:30Z</time></trkpt>
<trkpt lat="23.092361" lon="112.006467">
<time>2015-09-27T11:09:31Z</time></trkpt>
<trkpt lat="23.092362" lon="112.006138">
<time>2015-09-27T11:09:32Z</time></trkpt>
<trkpt lat="23.092373" lon="112.005908">
<time>2015-09-27T11:09:33Z</time></trkpt>
<trkpt lat="23.092393" lon="112.005729">
<time>2015-09-27T11:09:34Z</time></trkpt>
<trkpt lat="23.092536" lon="112.004842">
<time>2015-09-27T11:09:35Z</time></trkpt>
<trkpt lat="23.092923" lon="112.002459">
<time>2015-09-27T11:09:36Z</time></trkpt>
<trkpt lat="23.093157" lon="112.001033">
<time>2015-09-27T11:09:37Z</time></trkpt>
<trkpt lat="23.09333" lon="111.999987">
<time>2015-09-27T11:09:38Z</time></trkpt>
<trkpt lat="23.093728" lon="111.997454">
<time>2015-09-27T11:09:39Z</time></trkpt>
<trkpt lat="23.093921" lon="111.996408">
<time>2015-09-27T11:09:40Z</time></trkpt>
<trkpt lat="23.094083" lon="111.99552">
<time>2015-09-27T11:09:41Z</time></trkpt>
<trkpt lat="23.094478" lon="111.993865">
<time>2015-09-27T11:09:42Z</time></trkpt>
<trkpt lat="23.095075" lon="111.991642">
<time>2015-09-27T11:09:43Z</time></trkpt>
<trkpt lat="23.095469" lon="111.990207">
<time>2015-09-27T11:09:44Z</time></trkpt>
<trkpt lat="23.095661" lon="111.989658">
<time>2015-09-27T11:09:45Z</time></trkpt>
<trkpt lat="23.095771" lon="111.989379">
<time>2015-09-27T11:09:46Z</time></trkpt>
<trkpt lat="23.095852" lon="111.98919">
<time>2015-09-27T11:09:47Z</time></trkpt>
<trkpt lat="23.095963" lon="111.988951">
<time>2015-09-27T11:09:48Z</time></trkpt>
<trkpt lat="23.098253" lon="111.985222">
<time>2015-09-27T11:09:49Z</time></trkpt>
<trkpt lat="23.098916" lon="111.984155">
<time>2015-09-27T11:09:50Z</time></trkpt>
<trkpt lat="23.099438" lon="111.983298">
<time>2015-09-27T11:09:51Z</time></trkpt>
<trkpt lat="23.099629" lon="111.982989">
<time>2015-09-27T11:09:52Z</time></trkpt>
<trkpt lat="23.09986" lon="111.982729">
<time>2015-09-27T11:09:53Z</time></trkpt>
<trkpt lat="23.1001" lon="111.98254">
<time>2015-09-27T11:09:54Z</time></trkpt>
<trkpt lat="23.100361" lon="111.982361">
<time>2015-09-27T11:09:55Z</time></trkpt>
<trkpt lat="23.100621" lon="111.982251">
<time>2015-09-27T11:09:56Z</time></trkpt>
<trkpt lat="23.100831" lon="111.982161">
<time>2015-09-27T11:09:57Z</time></trkpt>
<trkpt lat="23.101071" lon="111.982091">
<time>2015-09-27T11:09:58Z</time></trkpt>
<trkpt lat="23.101271" lon="111.982071">
<time>2015-09-27T11:09:59Z</time></trkpt>
<trkpt lat="23.101461" lon="111.982061">
<time>2015-09-27T11:10:00Z</time></trkpt>
<trkpt lat="23.101671" lon="111.982061">
<time>2015-09-27T11:10:01Z</time></trkpt>
<trkpt lat="23.10401" lon="111.982151">
<time>2015-09-27T11:10:02Z</time></trkpt>
<trkpt lat="23.108847" lon="111.98232">
<time>2015-09-27T11:10:03Z</time></trkpt>
<trkpt lat="23.110347" lon="111.98237">
<time>2015-09-27T11:10:04Z</time></trkpt>
<trkpt lat="23.110766" lon="111.98237">
<time>2015-09-27T11:10:05Z</time></trkpt>
<trkpt lat="23.111176" lon="111.98238">
<time>2015-09-27T11:10:06Z</time></trkpt>
<trkpt lat="23.111256" lon="111.98238">
<time>2015-09-27T11:10:07Z</time></trkpt>
<trkpt lat="23.111346" lon="111.98237">
<time>2015-09-27T11:10:08Z</time></trkpt>
<trkpt lat="23.111456" lon="111.98235">
<time>2015-09-27T11:10:09Z</time></trkpt>
<trkpt lat="23.111576" lon="111.98232">
<time>2015-09-27T11:10:10Z</time></trkpt>
<trkpt lat="23.111796" lon="111.98224">
<time>2015-09-27T11:10:11Z</time></trkpt>
<trkpt lat="23.112047" lon="111.98213">
<time>2015-09-27T11:10:12Z</time></trkpt>
<trkpt lat="23.113378" lon="111.981353">
<time>2015-09-27T11:10:13Z</time></trkpt>
<trkpt lat="23.117123" lon="111.979199">
<time>2015-09-27T11:10:14Z</time></trkpt>
<trkpt lat="23.117904" lon="111.97877">
<time>2015-09-27T11:10:15Z</time></trkpt>
<trkpt lat="23.118265" lon="111.978571">
<time>2015-09-27T11:10:16Z</time></trkpt>
<trkpt lat="23.118565" lon="111.978441">
<time>2015-09-27T11:10:17Z</time></trkpt>
<trkpt lat="23.118895" lon="111.978312">
<time>2015-09-27T11:10:18Z</time></trkpt>
<trkpt lat="23.119375" lon="111.978192">
<time>2015-09-27T11:10:19Z</time></trkpt>
<trkpt lat="23.119755" lon="111.978132">
<time>2015-09-27T11:10:20Z</time></trkpt>
<trkpt lat="23.120605" lon="111.978052">
<time>2015-09-27T11:10:21Z</time></trkpt>
<trkpt lat="23.124424" lon="111.977833">
<time>2015-09-27T11:10:22Z</time></trkpt>
<trkpt lat="23.125374" lon="111.977763">
<time>2015-09-27T11:10:23Z</time></trkpt>
<trkpt lat="23.126634" lon="111.977583">
<time>2015-09-27T11:10:24Z</time></trkpt>
<trkpt lat="23.128294" lon="111.977354">
<time>2015-09-27T11:10:25Z</time></trkpt>
<trkpt lat="23.131494" lon="111.976905">
<time>2015-09-27T11:10:26Z</time></trkpt>
<trkpt lat="23.132934" lon="111.976705">
<time>2015-09-27T11:10:27Z</time></trkpt>
<trkpt lat="23.134494" lon="111.976496">
<time>2015-09-27T11:10:28Z</time></trkpt>
<trkpt lat="23.135764" lon="111.976296">
<time>2015-09-27T11:10:29Z</time></trkpt>
<trkpt lat="23.135954" lon="111.976237">
<time>2015-09-27T11:10:30Z</time></trkpt>
<trkpt lat="23.136114" lon="111.976177">
<time>2015-09-27T11:10:31Z</time></trkpt>
<trkpt lat="23.136204" lon="111.976127">
<time>2015-09-27T11:10:32Z</time></trkpt>
<trkpt lat="23.136305" lon="111.976067">
<time>2015-09-27T11:10:33Z</time></trkpt>
<trkpt lat="23.136485" lon="111.975908">
<time>2015-09-27T11:10:34Z</time></trkpt>
<trkpt lat="23.136575" lon="111.975818">
<time>2015-09-27T11:10:35Z</time></trkpt>
<trkpt lat="23.136655" lon="111.975698">
<time>2015-09-27T11:10:36Z</time></trkpt>
<trkpt lat="23.136786" lon="111.975479">
<time>2015-09-27T11:10:37Z</time></trkpt>
<trkpt lat="23.136846" lon="111.975329">
<time>2015-09-27T11:10:38Z</time></trkpt>
<trkpt lat="23.136877" lon="111.975269">
<time>2015-09-27T11:10:39Z</time></trkpt>
<trkpt lat="23.136907" lon="111.97518">
<time>2015-09-27T11:10:40Z</time></trkpt>
<trkpt lat="23.136957" lon="111.97503">
<time>2015-09-27T11:10:41Z</time></trkpt>
<trkpt lat="23.136988" lon="111.974881">
<time>2015-09-27T11:10:42Z</time></trkpt>
<trkpt lat="23.136998" lon="111.974791">
<time>2015-09-27T11:10:43Z</time></trkpt>
<trkpt lat="23.136998" lon="111.974771">
<time>2015-09-27T11:10:44Z</time></trkpt>
<trkpt lat="23.137008" lon="111.974671">
<time>2015-09-27T11:10:45Z</time></trkpt>
<trkpt lat="23.136999" lon="111.974482">
<time>2015-09-27T11:10:46Z</time></trkpt>
<trkpt lat="23.136989" lon="111.974292">
<time>2015-09-27T11:10:47Z</time></trkpt>
<trkpt lat="23.13697" lon="111.974103">
<time>2015-09-27T11:10:48Z</time></trkpt>
<trkpt lat="23.13694" lon="111.973983">
<time>2015-09-27T11:10:49Z</time></trkpt>
<trkpt lat="23.13693" lon="111.973913">
<time>2015-09-27T11:10:50Z</time></trkpt>
<trkpt lat="23.136901" lon="111.973754">
<time>2015-09-27T11:10:51Z</time></trkpt>
<trkpt lat="23.136861" lon="111.973574">
<time>2015-09-27T11:10:52Z</time></trkpt>
<trkpt lat="23.136802" lon="111.973435">
<time>2015-09-27T11:10:53Z</time></trkpt>
<trkpt lat="23.136792" lon="111.973395">
<time>2015-09-27T11:10:54Z</time></trkpt>
<trkpt lat="23.136742" lon="111.973295">
<time>2015-09-27T11:10:55Z</time></trkpt>
<trkpt lat="23.136663" lon="111.973136">
<time>2015-09-27T11:10:56Z</time></trkpt>
<trkpt lat="23.136543" lon="111.972916">
<time>2015-09-27T11:10:57Z</time></trkpt>
<trkpt lat="23.136534" lon="111.972896">
<time>2015-09-27T11:10:58Z</time></trkpt>
<trkpt lat="23.136404" lon="111.972677">
<time>2015-09-27T11:10:59Z</time></trkpt>
<trkpt lat="23.136046" lon="111.972089">
<time>2015-09-27T11:11:00Z</time></trkpt>
<trkpt lat="23.135887" lon="111.971829">
<time>2015-09-27T11:11:01Z</time></trkpt>
<trkpt lat="23.135558" lon="111.971301">
<time>2015-09-27T11:11:02Z</time></trkpt>
<trkpt lat="23.135519" lon="111.971231">
<time>2015-09-27T11:11:03Z</time></trkpt>
<trkpt lat="23.135011" lon="111.970414">
<time>2015-09-27T11:11:04Z</time></trkpt>
<trkpt lat="23.134912" lon="111.970234">
<time>2015-09-27T11:11:05Z</time></trkpt>
<trkpt lat="23.134852" lon="111.970075">
<time>2015-09-27T11:11:06Z</time></trkpt>
<trkpt lat="23.134803" lon="111.969935">
<time>2015-09-27T11:11:07Z</time></trkpt>
<trkpt lat="23.134763" lon="111.969755">
<time>2015-09-27T11:11:08Z</time></trkpt>
<trkpt lat="23.134734" lon="111.969576">
<time>2015-09-27T11:11:09Z</time></trkpt>
<trkpt lat="23.134724" lon="111.969406">
<time>2015-09-27T11:11:10Z</time></trkpt>
<trkpt lat="23.134755" lon="111.969237">
<time>2015-09-27T11:11:11Z</time></trkpt>
<trkpt lat="23.134755" lon="111.969207">
<time>2015-09-27T11:11:12Z</time></trkpt>
<trkpt lat="23.134805" lon="111.969028">
<time>2015-09-27T11:11:13Z</time></trkpt>
<trkpt lat="23.134946" lon="111.968589">
<time>2015-09-27T11:11:14Z</time></trkpt>
<trkpt lat="23.135832" lon="111.966465">
<time>2015-09-27T11:11:15Z</time></trkpt>
<trkpt lat="23.136285" lon="111.965348">
<time>2015-09-27T11:11:16Z</time></trkpt>
<trkpt lat="23.136627" lon="111.96442">
<time>2015-09-27T11:11:17Z</time></trkpt>
<trkpt lat="23.136697" lon="111.964211">
<time>2015-09-27T11:11:18Z</time></trkpt>
<trkpt lat="23.136708" lon="111.964171">
<time>2015-09-27T11:11:19Z</time></trkpt>
<trkpt lat="23.136758" lon="111.963981">
<time>2015-09-27T11:11:20Z</time></trkpt>
<trkpt lat="23.136869" lon="111.963463">
<time>2015-09-27T11:11:21Z</time></trkpt>
<trkpt lat="23.136961" lon="111.962944">
<time>2015-09-27T11:11:22Z</time></trkpt>
<trkpt lat="23.137657" lon="111.9566">
<time>2015-09-27T11:11:23Z</time></trkpt>
<trkpt lat="23.137881" lon="111.954575">
<time>2015-09-27T11:11:24Z</time></trkpt>
<trkpt lat="23.138341" lon="111.950385">
<time>2015-09-27T11:11:25Z</time></trkpt>
<trkpt lat="23.138443" lon="111.949417">
<time>2015-09-27T11:11:26Z</time></trkpt>
<trkpt lat="23.138454" lon="111.949118">
<time>2015-09-27T11:11:27Z</time></trkpt>
<trkpt lat="23.138444" lon="111.948889">
<time>2015-09-27T11:11:28Z</time></trkpt>
<trkpt lat="23.138405" lon="111.94844">
<time>2015-09-27T11:11:29Z</time></trkpt>
<trkpt lat="23.13818" lon="111.946314">
<time>2015-09-27T11:11:30Z</time></trkpt>
<trkpt lat="23.137856" lon="111.94326">
<time>2015-09-27T11:11:31Z</time></trkpt>
<trkpt lat="23.137758" lon="111.942362">
<time>2015-09-27T11:11:32Z</time></trkpt>
<trkpt lat="23.137679" lon="111.941903">
<time>2015-09-27T11:11:33Z</time></trkpt>
<trkpt lat="23.137659" lon="111.941833">
<time>2015-09-27T11:11:34Z</time></trkpt>
<trkpt lat="23.13754" lon="111.941274">
<time>2015-09-27T11:11:35Z</time></trkpt>
<trkpt lat="23.136231" lon="111.935715">
<time>2015-09-27T11:11:36Z</time></trkpt>
<trkpt lat="23.136052" lon="111.934956">
<time>2015-09-27T11:11:37Z</time></trkpt>
<trkpt lat="23.135904" lon="111.934167">
<time>2015-09-27T11:11:38Z</time></trkpt>
<trkpt lat="23.134893" lon="111.928695">
<time>2015-09-27T11:11:39Z</time></trkpt>
<trkpt lat="23.134724" lon="111.927747">
<time>2015-09-27T11:11:40Z</time></trkpt>
<trkpt lat="23.134665" lon="111.927247">
<time>2015-09-27T11:11:41Z</time></trkpt>
<trkpt lat="23.134625" lon="111.926868">
<time>2015-09-27T11:11:42Z</time></trkpt>
<trkpt lat="23.134586" lon="111.926468">
<time>2015-09-27T11:11:43Z</time></trkpt>
<trkpt lat="23.134566" lon="111.926079">
<time>2015-09-27T11:11:44Z</time></trkpt>
<trkpt lat="23.134488" lon="111.924301">
<time>2015-09-27T11:11:45Z</time></trkpt>
<trkpt lat="23.134469" lon="111.923892">
<time>2015-09-27T11:11:46Z</time></trkpt>
<trkpt lat="23.134439" lon="111.923572">
<time>2015-09-27T11:11:47Z</time></trkpt>
<trkpt lat="23.13441" lon="111.923442">
<time>2015-09-27T11:11:48Z</time></trkpt>
<trkpt lat="23.13438" lon="111.923322">
<time>2015-09-27T11:11:49Z</time></trkpt>
<trkpt lat="23.13435" lon="111.923202">
<time>2015-09-27T11:11:50Z</time></trkpt>
<trkpt lat="23.13431" lon="111.923063">
<time>2015-09-27T11:11:51Z</time></trkpt>
<trkpt lat="23.13423" lon="111.922863">
<time>2015-09-27T11:11:52Z</time></trkpt>
<trkpt lat="23.134001" lon="111.922263">
<time>2015-09-27T11:11:53Z</time></trkpt>
<trkpt lat="23.133553" lon="111.921105">
<time>2015-09-27T11:11:54Z</time></trkpt>
<trkpt lat="23.133493" lon="111.920945">
<time>2015-09-27T11:11:55Z</time></trkpt>
<trkpt lat="23.133443" lon="111.920785">
<time>2015-09-27T11:11:56Z</time></trkpt>
<trkpt lat="23.133413" lon="111.920635">
<time>2015-09-27T11:11:57Z</time></trkpt>
<trkpt lat="23.133334" lon="111.920206">
<time>2015-09-27T11:11:58Z</time></trkpt>
<trkpt lat="23.133195" lon="111.919386">
<time>2015-09-27T11:11:59Z</time></trkpt>
<trkpt lat="23.133055" lon="111.918777">
<time>2015-09-27T11:12:00Z</time></trkpt>
<trkpt lat="23.133005" lon="111.918587">
<time>2015-09-27T11:12:01Z</time></trkpt>
<trkpt lat="23.132956" lon="111.918427">
<time>2015-09-27T11:12:02Z</time></trkpt>
<trkpt lat="23.132876" lon="111.918217">
<time>2015-09-27T11:12:03Z</time></trkpt>
<trkpt lat="23.132347" lon="111.916859">
<time>2015-09-27T11:12:04Z</time></trkpt>
<trkpt lat="23.132317" lon="111.916779">
<time>2015-09-27T11:12:05Z</time></trkpt>
<trkpt lat="23.131998" lon="111.915989">
<time>2015-09-27T11:12:06Z</time></trkpt>
<trkpt lat="23.131888" lon="111.9157">
<time>2015-09-27T11:12:07Z</time></trkpt>
<trkpt lat="23.131799" lon="111.91539">
<time>2015-09-27T11:12:08Z</time></trkpt>
<trkpt lat="23.131739" lon="111.91511">
<time>2015-09-27T11:12:09Z</time></trkpt>
<trkpt lat="23.131699" lon="111.9147">
<time>2015-09-27T11:12:10Z</time></trkpt>
<trkpt lat="23.131451" lon="111.912392">
<time>2015-09-27T11:12:11Z</time></trkpt>
<trkpt lat="23.131203" lon="111.910453">
<time>2015-09-27T11:12:12Z</time></trkpt>
<trkpt lat="23.131183" lon="111.910223">
<time>2015-09-27T11:12:13Z</time></trkpt>
<trkpt lat="23.131173" lon="111.910043">
<time>2015-09-27T11:12:14Z</time></trkpt>
<trkpt lat="23.131183" lon="111.909883">
<time>2015-09-27T11:12:15Z</time></trkpt>
<trkpt lat="23.131203" lon="111.909673">
<time>2015-09-27T11:12:16Z</time></trkpt>
<trkpt lat="23.131223" lon="111.909474">
<time>2015-09-27T11:12:17Z</time></trkpt>
<trkpt lat="23.131374" lon="111.908374">
<time>2015-09-27T11:12:18Z</time></trkpt>
<trkpt lat="23.131414" lon="111.908114">
<time>2015-09-27T11:12:19Z</time></trkpt>
<trkpt lat="23.131434" lon="111.907944">
<time>2015-09-27T11:12:20Z</time></trkpt>
<trkpt lat="23.131434" lon="111.907924">
<time>2015-09-27T11:12:21Z</time></trkpt>
<trkpt lat="23.131444" lon="111.907804">
<time>2015-09-27T11:12:22Z</time></trkpt>
<trkpt lat="23.131444" lon="111.907664">
<time>2015-09-27T11:12:23Z</time></trkpt>
<trkpt lat="23.131434" lon="111.907504">
<time>2015-09-27T11:12:24Z</time></trkpt>
<trkpt lat="23.131414" lon="111.907314">
<time>2015-09-27T11:12:25Z</time></trkpt>
<trkpt lat="23.131265" lon="111.906185">
<time>2015-09-27T11:12:26Z</time></trkpt>
<trkpt lat="23.131235" lon="111.905895">
<time>2015-09-27T11:12:27Z</time></trkpt>
<trkpt lat="23.131225" lon="111.905765">
<time>2015-09-27T11:12:28Z</time></trkpt>
<trkpt lat="23.131225" lon="111.905635">
<time>2015-09-27T11:12:29Z</time></trkpt>
<trkpt lat="23.131235" lon="111.905525">
<time>2015-09-27T11:12:30Z</time></trkpt>
<trkpt lat="23.131245" lon="111.905405">
<time>2015-09-27T11:12:31Z</time></trkpt>
<trkpt lat="23.131265" lon="111.905305">
<time>2015-09-27T11:12:32Z</time></trkpt>
<trkpt lat="23.131285" lon="111.905185">
<time>2015-09-27T11:12:33Z</time></trkpt>
<trkpt lat="23.131305" lon="111.905095">
<time>2015-09-27T11:12:34Z</time></trkpt>
<trkpt lat="23.131335" lon="111.904985">
<time>2015-09-27T11:12:35Z</time></trkpt>
<trkpt lat="23.131395" lon="111.904855">
<time>2015-09-27T11:12:36Z</time></trkpt>
<trkpt lat="23.131605" lon="111.904345">
<time>2015-09-27T11:12:37Z</time></trkpt>
<trkpt lat="23.132125" lon="111.903165">
<time>2015-09-27T11:12:38Z</time></trkpt>
<trkpt lat="23.132215" lon="111.902916">
<time>2015-09-27T11:12:39Z</time></trkpt>
<trkpt lat="23.132266" lon="111.902716">
<time>2015-09-27T11:12:40Z</time></trkpt>
<trkpt lat="23.132296" lon="111.902526">
<time>2015-09-27T11:12:41Z</time></trkpt>
<trkpt lat="23.132316" lon="111.902266">
<time>2015-09-27T11:12:42Z</time></trkpt>
<trkpt lat="23.132316" lon="111.901886">
<time>2015-09-27T11:12:43Z</time></trkpt>
<trkpt lat="23.132316" lon="111.901556">
<time>2015-09-27T11:12:44Z</time></trkpt>
<trkpt lat="23.132306" lon="111.901366">
<time>2015-09-27T11:12:45Z</time></trkpt>
<trkpt lat="23.132286" lon="111.900026">
<time>2015-09-27T11:12:46Z</time></trkpt>
<trkpt lat="23.132146" lon="111.896516">
<time>2015-09-27T11:12:47Z</time></trkpt>
<trkpt lat="23.132216" lon="111.895105">
<time>2015-09-27T11:12:48Z</time></trkpt>
<trkpt lat="23.132226" lon="111.895025">
<time>2015-09-27T11:12:49Z</time></trkpt>
<trkpt lat="23.132266" lon="111.894705">
<time>2015-09-27T11:12:50Z</time></trkpt>
<trkpt lat="23.132296" lon="111.894455">
<time>2015-09-27T11:12:51Z</time></trkpt>
<trkpt lat="23.132366" lon="111.894245">
<time>2015-09-27T11:12:52Z</time></trkpt>
<trkpt lat="23.133265" lon="111.892014">
<time>2015-09-27T11:12:53Z</time></trkpt>
<trkpt lat="23.133955" lon="111.890384">
<time>2015-09-27T11:12:54Z</time></trkpt>
<trkpt lat="23.134085" lon="111.890084">
<time>2015-09-27T11:12:55Z</time></trkpt>
<trkpt lat="23.134234" lon="111.889843">
<time>2015-09-27T11:12:56Z</time></trkpt>
<trkpt lat="23.134434" lon="111.889523">
<time>2015-09-27T11:12:57Z</time></trkpt>
<trkpt lat="23.134764" lon="111.889023">
<time>2015-09-27T11:12:58Z</time></trkpt>
<trkpt lat="23.134884" lon="111.888833">
<time>2015-09-27T11:12:59Z</time></trkpt>
<trkpt lat="23.134944" lon="111.888683">
<time>2015-09-27T11:13:00Z</time></trkpt>
<trkpt lat="23.134994" lon="111.888523">
<time>2015-09-27T11:13:01Z</time></trkpt>
<trkpt lat="23.135074" lon="111.888203">
<time>2015-09-27T11:13:02Z</time></trkpt>
<trkpt lat="23.135173" lon="111.887622">
<time>2015-09-27T11:13:03Z</time></trkpt>
<trkpt lat="23.135353" lon="111.886632">
<time>2015-09-27T11:13:04Z</time></trkpt>
<trkpt lat="23.135982" lon="111.8845">
<time>2015-09-27T11:13:05Z</time></trkpt>
<trkpt lat="23.13661" lon="111.882729">
<time>2015-09-27T11:13:06Z</time></trkpt>
<trkpt lat="23.137199" lon="111.881798">
<time>2015-09-27T11:13:07Z</time></trkpt>
<trkpt lat="23.138118" lon="111.880297">
<time>2015-09-27T11:13:08Z</time></trkpt>
<trkpt lat="23.139347" lon="111.878916">
<time>2015-09-27T11:13:09Z</time></trkpt>
<trkpt lat="23.140545" lon="111.877554">
<time>2015-09-27T11:13:10Z</time></trkpt>
<trkpt lat="23.140755" lon="111.877324">
<time>2015-09-27T11:13:11Z</time></trkpt>
<trkpt lat="23.141474" lon="111.876543">
<time>2015-09-27T11:13:12Z</time></trkpt>
<trkpt lat="23.141604" lon="111.876423">
<time>2015-09-27T11:13:13Z</time></trkpt>
<trkpt lat="23.141724" lon="111.876343">
<time>2015-09-27T11:13:14Z</time></trkpt>
<trkpt lat="23.141844" lon="111.876253">
<time>2015-09-27T11:13:15Z</time></trkpt>
<trkpt lat="23.141973" lon="111.876183">
<time>2015-09-27T11:13:16Z</time></trkpt>
<trkpt lat="23.142493" lon="111.875932">
<time>2015-09-27T11:13:17Z</time></trkpt>
<trkpt lat="23.143302" lon="111.875612">
<time>2015-09-27T11:13:18Z</time></trkpt>
<trkpt lat="23.144002" lon="111.875302">
<time>2015-09-27T11:13:19Z</time></trkpt>
<trkpt lat="23.144042" lon="111.875282">
<time>2015-09-27T11:13:20Z</time></trkpt>
<trkpt lat="23.144082" lon="111.875262">
<time>2015-09-27T11:13:21Z</time></trkpt>
<trkpt lat="23.144132" lon="111.875222">
<time>2015-09-27T11:13:22Z</time></trkpt>
<trkpt lat="23.144331" lon="111.875001">
<time>2015-09-27T11:13:23Z</time></trkpt>
<trkpt lat="23.14513" lon="111.87413">
<time>2015-09-27T11:13:24Z</time></trkpt>
<trkpt lat="23.146219" lon="111.872999">
<time>2015-09-27T11:13:25Z</time></trkpt>
<trkpt lat="23.146528" lon="111.872659">
<time>2015-09-27T11:13:26Z</time></trkpt>
<trkpt lat="23.146718" lon="111.872448">
<time>2015-09-27T11:13:27Z</time></trkpt>
<trkpt lat="23.147407" lon="111.871737">
<time>2015-09-27T11:13:28Z</time></trkpt>
<trkpt lat="23.147547" lon="111.871587">
<time>2015-09-27T11:13:29Z</time></trkpt>
<trkpt lat="23.147607" lon="111.871507">
<time>2015-09-27T11:13:30Z</time></trkpt>
<trkpt lat="23.147657" lon="111.871427">
<time>2015-09-27T11:13:31Z</time></trkpt>
<trkpt lat="23.147727" lon="111.871327">
<time>2015-09-27T11:13:32Z</time></trkpt>
<trkpt lat="23.147797" lon="111.871217">
<time>2015-09-27T11:13:33Z</time></trkpt>
<trkpt lat="23.147856" lon="111.871107">
<time>2015-09-27T11:13:34Z</time></trkpt>
<trkpt lat="23.147916" lon="111.870996">
<time>2015-09-27T11:13:35Z</time></trkpt>
<trkpt lat="23.147986" lon="111.870836">
<time>2015-09-27T11:13:36Z</time></trkpt>
<trkpt lat="23.148066" lon="111.870646">
<time>2015-09-27T11:13:37Z</time></trkpt>
<trkpt lat="23.148604" lon="111.869024">
<time>2015-09-27T11:13:38Z</time></trkpt>
<trkpt lat="23.148753" lon="111.868593">
<time>2015-09-27T11:13:39Z</time></trkpt>
<trkpt lat="23.148843" lon="111.868253">
<time>2015-09-27T11:13:40Z</time></trkpt>
<trkpt lat="23.149191" lon="111.866801">
<time>2015-09-27T11:13:41Z</time></trkpt>
<trkpt lat="23.14966" lon="111.865599">
<time>2015-09-27T11:13:42Z</time></trkpt>
<trkpt lat="23.149948" lon="111.864808">
<time>2015-09-27T11:13:43Z</time></trkpt>
<trkpt lat="23.149988" lon="111.864718">
<time>2015-09-27T11:13:44Z</time></trkpt>
<trkpt lat="23.150028" lon="111.864638">
<time>2015-09-27T11:13:45Z</time></trkpt>
<trkpt lat="23.150068" lon="111.864558">
<time>2015-09-27T11:13:46Z</time></trkpt>
<trkpt lat="23.150118" lon="111.864478">
<time>2015-09-27T11:13:47Z</time></trkpt>
<trkpt lat="23.150178" lon="111.864397">
<time>2015-09-27T11:13:48Z</time></trkpt>
<trkpt lat="23.150228" lon="111.864327">
<time>2015-09-27T11:13:49Z</time></trkpt>
<trkpt lat="23.150278" lon="111.864277">
<time>2015-09-27T11:13:50Z</time></trkpt>
<trkpt lat="23.150328" lon="111.864227">
<time>2015-09-27T11:13:51Z</time></trkpt>
<trkpt lat="23.150387" lon="111.864167">
<time>2015-09-27T11:13:52Z</time></trkpt>
<trkpt lat="23.150487" lon="111.864087">
<time>2015-09-27T11:13:53Z</time></trkpt>
<trkpt lat="23.151216" lon="111.863496">
<time>2015-09-27T11:13:54Z</time></trkpt>
<trkpt lat="23.151756" lon="111.863015">
<time>2015-09-27T11:13:55Z</time></trkpt>
<trkpt lat="23.151865" lon="111.862925">
<time>2015-09-27T11:13:56Z</time></trkpt>
<trkpt lat="23.151935" lon="111.862845">
<time>2015-09-27T11:13:57Z</time></trkpt>
<trkpt lat="23.152025" lon="111.862755">
<time>2015-09-27T11:13:58Z</time></trkpt>
<trkpt lat="23.152115" lon="111.862645">
<time>2015-09-27T11:13:59Z</time></trkpt>
<trkpt lat="23.152175" lon="111.862575">
<time>2015-09-27T11:14:00Z</time></trkpt>
<trkpt lat="23.152235" lon="111.862485">
<time>2015-09-27T11:14:01Z</time></trkpt>
<trkpt lat="23.152334" lon="111.862324">
<time>2015-09-27T11:14:02Z</time></trkpt>
<trkpt lat="23.152414" lon="111.862184">
<time>2015-09-27T11:14:03Z</time></trkpt>
<trkpt lat="23.152464" lon="111.862074">
<time>2015-09-27T11:14:04Z</time></trkpt>
<trkpt lat="23.152524" lon="111.861954">
<time>2015-09-27T11:14:05Z</time></trkpt>
<trkpt lat="23.152564" lon="111.861834">
<time>2015-09-27T11:14:06Z</time></trkpt>
<trkpt lat="23.152603" lon="111.861713">
<time>2015-09-27T11:14:07Z</time></trkpt>
<trkpt lat="23.152633" lon="111.861593">
<time>2015-09-27T11:14:08Z</time></trkpt>
<trkpt lat="23.152673" lon="111.861393">
<time>2015-09-27T11:14:09Z</time></trkpt>
<trkpt lat="23.152693" lon="111.861253">
<time>2015-09-27T11:14:10Z</time></trkpt>
<trkpt lat="23.152703" lon="111.861102">
<time>2015-09-27T11:14:11Z</time></trkpt>
<trkpt lat="23.152702" lon="111.860942">
<time>2015-09-27T11:14:12Z</time></trkpt>
<trkpt lat="23.152692" lon="111.860772">
<time>2015-09-27T11:14:13Z</time></trkpt>
<trkpt lat="23.152672" lon="111.860612">
<time>2015-09-27T11:14:14Z</time></trkpt>
<trkpt lat="23.152632" lon="111.860421">
<time>2015-09-27T11:14:15Z</time></trkpt>
<trkpt lat="23.152592" lon="111.860251">
<time>2015-09-27T11:14:16Z</time></trkpt>
<trkpt lat="23.152521" lon="111.860051">
<time>2015-09-27T11:14:17Z</time></trkpt>
<trkpt lat="23.152441" lon="111.859881">
<time>2015-09-27T11:14:18Z</time></trkpt>
<trkpt lat="23.152361" lon="111.85972">
<time>2015-09-27T11:14:19Z</time></trkpt>
<trkpt lat="23.152271" lon="111.85956">
<time>2015-09-27T11:14:20Z</time></trkpt>
<trkpt lat="23.15212" lon="111.85935">
<time>2015-09-27T11:14:21Z</time></trkpt>
<trkpt lat="23.15186" lon="111.858999">
<time>2015-09-27T11:14:22Z</time></trkpt>
<trkpt lat="23.151309" lon="111.858278">
<time>2015-09-27T11:14:23Z</time></trkpt>
<trkpt lat="23.150949" lon="111.857817">
<time>2015-09-27T11:14:24Z</time></trkpt>
<trkpt lat="23.150668" lon="111.857457">
<time>2015-09-27T11:14:25Z</time></trkpt>
<trkpt lat="23.150368" lon="111.857066">
<time>2015-09-27T11:14:26Z</time></trkpt>
<trkpt lat="23.150138" lon="111.856746">
<time>2015-09-27T11:14:27Z</time></trkpt>
<trkpt lat="23.149987" lon="111.856525">
<time>2015-09-27T11:14:28Z</time></trkpt>
<trkpt lat="23.149867" lon="111.856325">
<time>2015-09-27T11:14:29Z</time></trkpt>
<trkpt lat="23.149767" lon="111.856155">
<time>2015-09-27T11:14:30Z</time></trkpt>
<trkpt lat="23.149717" lon="111.856054">
<time>2015-09-27T11:14:31Z</time></trkpt>
<trkpt lat="23.149677" lon="111.855974">
<time>2015-09-27T11:14:32Z</time></trkpt>
<trkpt lat="23.149616" lon="111.855844">
<time>2015-09-27T11:14:33Z</time></trkpt>
<trkpt lat="23.149506" lon="111.855584">
<time>2015-09-27T11:14:34Z</time></trkpt>
<trkpt lat="23.149396" lon="111.855343">
<time>2015-09-27T11:14:35Z</time></trkpt>
<trkpt lat="23.149265" lon="111.855023">
<time>2015-09-27T11:14:36Z</time></trkpt>
<trkpt lat="23.149065" lon="111.854472">
<time>2015-09-27T11:14:37Z</time></trkpt>
<trkpt lat="23.148231" lon="111.852038">
<time>2015-09-27T11:14:38Z</time></trkpt>
<trkpt lat="23.14786" lon="111.850946">
<time>2015-09-27T11:14:39Z</time></trkpt>
<trkpt lat="23.14783" lon="111.850865">
<time>2015-09-27T11:14:40Z</time></trkpt>
<trkpt lat="23.146785" lon="111.84795">
<time>2015-09-27T11:14:41Z</time></trkpt>
<trkpt lat="23.146203" lon="111.846277">
<time>2015-09-27T11:14:42Z</time></trkpt>
<trkpt lat="23.146062" lon="111.845856">
<time>2015-09-27T11:14:43Z</time></trkpt>
<trkpt lat="23.145972" lon="111.845636">
<time>2015-09-27T11:14:44Z</time></trkpt>
<trkpt lat="23.145881" lon="111.845395">
<time>2015-09-27T11:14:45Z</time></trkpt>
<trkpt lat="23.145761" lon="111.845115">
<time>2015-09-27T11:14:46Z</time></trkpt>
<trkpt lat="23.145681" lon="111.844934">
<time>2015-09-27T11:14:47Z</time></trkpt>
<trkpt lat="23.14558" lon="111.844764">
<time>2015-09-27T11:14:48Z</time></trkpt>
<trkpt lat="23.14546" lon="111.844574">
<time>2015-09-27T11:14:49Z</time></trkpt>
<trkpt lat="23.14523" lon="111.844213">
<time>2015-09-27T11:14:50Z</time></trkpt>
<trkpt lat="23.144658" lon="111.843442">
<time>2015-09-27T11:14:51Z</time></trkpt>
<trkpt lat="23.142634" lon="111.840636">
<time>2015-09-27T11:14:52Z</time></trkpt>
<trkpt lat="23.141202" lon="111.838762">
<time>2015-09-27T11:14:53Z</time></trkpt>
<trkpt lat="23.14057" lon="111.837841">
<time>2015-09-27T11:14:54Z</time></trkpt>
<trkpt lat="23.140179" lon="111.837129">
<time>2015-09-27T11:14:55Z</time></trkpt>
<trkpt lat="23.140049" lon="111.836889">
<time>2015-09-27T11:14:56Z</time></trkpt>
<trkpt lat="23.139918" lon="111.836608">
<time>2015-09-27T11:14:57Z</time></trkpt>
<trkpt lat="23.139737" lon="111.836137">
<time>2015-09-27T11:14:58Z</time></trkpt>
<trkpt lat="23.139446" lon="111.835085">
<time>2015-09-27T11:14:59Z</time></trkpt>
<trkpt lat="23.138832" lon="111.83285">
<time>2015-09-27T11:15:00Z</time></trkpt>
<trkpt lat="23.13853" lon="111.831889">
<time>2015-09-27T11:15:01Z</time></trkpt>
<trkpt lat="23.13846" lon="111.831618">
<time>2015-09-27T11:15:02Z</time></trkpt>
<trkpt lat="23.138419" lon="111.831478">
<time>2015-09-27T11:15:03Z</time></trkpt>
<trkpt lat="23.138399" lon="111.831377">
<time>2015-09-27T11:15:04Z</time></trkpt>
<trkpt lat="23.138379" lon="111.831237">
<time>2015-09-27T11:15:05Z</time></trkpt>
<trkpt lat="23.138379" lon="111.831157">
<time>2015-09-27T11:15:06Z</time></trkpt>
<trkpt lat="23.138369" lon="111.831067">
<time>2015-09-27T11:15:07Z</time></trkpt>
<trkpt lat="23.138368" lon="111.830977">
<time>2015-09-27T11:15:08Z</time></trkpt>
<trkpt lat="23.138368" lon="111.830876">
<time>2015-09-27T11:15:09Z</time></trkpt>
<trkpt lat="23.138378" lon="111.830726">
<time>2015-09-27T11:15:10Z</time></trkpt>
<trkpt lat="23.138387" lon="111.830486">
<time>2015-09-27T11:15:11Z</time></trkpt>
<trkpt lat="23.138397" lon="111.830225">
<time>2015-09-27T11:15:12Z</time></trkpt>
<trkpt lat="23.13851" lon="111.826607">
<time>2015-09-27T11:15:13Z</time></trkpt>
<trkpt lat="23.138557" lon="111.825144">
<time>2015-09-27T11:15:14Z</time></trkpt>
<trkpt lat="23.138567" lon="111.824844">
<time>2015-09-27T11:15:15Z</time></trkpt>
<trkpt lat="23.13867" lon="111.821346">
<time>2015-09-27T11:15:16Z</time></trkpt>
<trkpt lat="23.138689" lon="111.820955">
<time>2015-09-27T11:15:17Z</time></trkpt>
<trkpt lat="23.138755" lon="111.818661">
<time>2015-09-27T11:15:18Z</time></trkpt>
<trkpt lat="23.138765" lon="111.81856">
<time>2015-09-27T11:15:19Z</time></trkpt>
<trkpt lat="23.138863" lon="111.817358">
<time>2015-09-27T11:15:20Z</time></trkpt>
<trkpt lat="23.138892" lon="111.817027">
<time>2015-09-27T11:15:21Z</time></trkpt>
<trkpt lat="23.139088" lon="111.814993">
<time>2015-09-27T11:15:22Z</time></trkpt>
<trkpt lat="23.139147" lon="111.814392">
<time>2015-09-27T11:15:23Z</time></trkpt>
<trkpt lat="23.139226" lon="111.81374">
<time>2015-09-27T11:15:24Z</time></trkpt>
<trkpt lat="23.139354" lon="111.812668">
<time>2015-09-27T11:15:25Z</time></trkpt>
<trkpt lat="23.139363" lon="111.812598">
<time>2015-09-27T11:15:26Z</time></trkpt>
<trkpt lat="23.139383" lon="111.812488">
<time>2015-09-27T11:15:27Z</time></trkpt>
<trkpt lat="23.139423" lon="111.812107">
<time>2015-09-27T11:15:28Z</time></trkpt>
<trkpt lat="23.139452" lon="111.811886">
<time>2015-09-27T11:15:29Z</time></trkpt>
<trkpt lat="23.139491" lon="111.811536">
<time>2015-09-27T11:15:30Z</time></trkpt>
<trkpt lat="23.139511" lon="111.811395">
<time>2015-09-27T11:15:31Z</time></trkpt>
<trkpt lat="23.139649" lon="111.810153">
<time>2015-09-27T11:15:32Z</time></trkpt>
<trkpt lat="23.139649" lon="111.810093">
<time>2015-09-27T11:15:33Z</time></trkpt>
<trkpt lat="23.139885" lon="111.808019">
<time>2015-09-27T11:15:34Z</time></trkpt>
<trkpt lat="23.139885" lon="111.808019">
<time>2015-09-27T11:15:35Z</time></trkpt>
<trkpt lat="23.139945" lon="111.808019">
<time>2015-09-27T11:15:36Z</time></trkpt>
<trkpt lat="23.139945" lon="111.808019">
<time>2015-09-27T11:15:37Z</time></trkpt>
<trkpt lat="23.139965" lon="111.807848">
<time>2015-09-27T11:15:38Z</time></trkpt>
<trkpt lat="23.140102" lon="111.806686">
<time>2015-09-27T11:15:39Z</time></trkpt>
<trkpt lat="23.140181" lon="111.806145">
<time>2015-09-27T11:15:40Z</time></trkpt>
<trkpt lat="23.140281" lon="111.805674">
<time>2015-09-27T11:15:41Z</time></trkpt>
<trkpt lat="23.14028" lon="111.805644">
<time>2015-09-27T11:15:42Z</time></trkpt>
<trkpt lat="23.14038" lon="111.805253">
<time>2015-09-27T11:15:43Z</time></trkpt>
<trkpt lat="23.140479" lon="111.804862">
<time>2015-09-27T11:15:44Z</time></trkpt>
<trkpt lat="23.140618" lon="111.804482">
<time>2015-09-27T11:15:45Z</time></trkpt>
<trkpt lat="23.140778" lon="111.804071">
<time>2015-09-27T11:15:46Z</time></trkpt>
<trkpt lat="23.140967" lon="111.80366">
<time>2015-09-27T11:15:47Z</time></trkpt>
<trkpt lat="23.140977" lon="111.80363">
<time>2015-09-27T11:15:48Z</time></trkpt>
<trkpt lat="23.141325" lon="111.802958">
<time>2015-09-27T11:15:49Z</time></trkpt>
<trkpt lat="23.141325" lon="111.802948">
<time>2015-09-27T11:15:50Z</time></trkpt>
<trkpt lat="23.141345" lon="111.802918">
<time>2015-09-27T11:15:51Z</time></trkpt>
<trkpt lat="23.141794" lon="111.802087">
<time>2015-09-27T11:15:52Z</time></trkpt>
<trkpt lat="23.142172" lon="111.801375">
<time>2015-09-27T11:15:53Z</time></trkpt>
<trkpt lat="23.142501" lon="111.800754">
<time>2015-09-27T11:15:54Z</time></trkpt>
<trkpt lat="23.143408" lon="111.799071">
<time>2015-09-27T11:15:55Z</time></trkpt>
<trkpt lat="23.143567" lon="111.79877">
<time>2015-09-27T11:15:56Z</time></trkpt>
<trkpt lat="23.143697" lon="111.79848">
<time>2015-09-27T11:15:57Z</time></trkpt>
<trkpt lat="23.143816" lon="111.798189">
<time>2015-09-27T11:15:58Z</time></trkpt>
<trkpt lat="23.143926" lon="111.797879">
<time>2015-09-27T11:15:59Z</time></trkpt>
<trkpt lat="23.144025" lon="111.797588">
<time>2015-09-27T11:16:00Z</time></trkpt>
<trkpt lat="23.144115" lon="111.797288">
<time>2015-09-27T11:16:01Z</time></trkpt>
<trkpt lat="23.144184" lon="111.796997">
<time>2015-09-27T11:16:02Z</time></trkpt>
<trkpt lat="23.144234" lon="111.796717">
<time>2015-09-27T11:16:03Z</time></trkpt>
<trkpt lat="23.144283" lon="111.796406">
<time>2015-09-27T11:16:04Z</time></trkpt>
<trkpt lat="23.144313" lon="111.796085">
<time>2015-09-27T11:16:05Z</time></trkpt>
<trkpt lat="23.144332" lon="111.795835">
<time>2015-09-27T11:16:06Z</time></trkpt>
<trkpt lat="23.144332" lon="111.795745">
<time>2015-09-27T11:16:07Z</time></trkpt>
<trkpt lat="23.144332" lon="111.795745">
<time>2015-09-27T11:16:08Z</time></trkpt>
<trkpt lat="23.144979" lon="111.794192">
<time>2015-09-27T11:16:09Z</time></trkpt>
<trkpt lat="23.145029" lon="111.794092">
<time>2015-09-27T11:16:10Z</time></trkpt>
<trkpt lat="23.145378" lon="111.79325">
<time>2015-09-27T11:16:11Z</time></trkpt>
<trkpt lat="23.145816" lon="111.792179">
<time>2015-09-27T11:16:12Z</time></trkpt>
<trkpt lat="23.146453" lon="111.790616">
<time>2015-09-27T11:16:13Z</time></trkpt>
<trkpt lat="23.146483" lon="111.790556">
<time>2015-09-27T11:16:14Z</time></trkpt>
<trkpt lat="23.146483" lon="111.790556">
<time>2015-09-27T11:16:15Z</time></trkpt>
<trkpt lat="23.146462" lon="111.789734">
<time>2015-09-27T11:16:16Z</time></trkpt>
<trkpt lat="23.146452" lon="111.789554">
<time>2015-09-27T11:16:17Z</time></trkpt>
<trkpt lat="23.14643" lon="111.788593">
<time>2015-09-27T11:16:18Z</time></trkpt>
<trkpt lat="23.146377" lon="111.786579">
<time>2015-09-27T11:16:19Z</time></trkpt>
<trkpt lat="23.146366" lon="111.785798">
<time>2015-09-27T11:16:20Z</time></trkpt>
<trkpt lat="23.146293" lon="111.782964">
<time>2015-09-27T11:16:21Z</time></trkpt>
<trkpt lat="23.146272" lon="111.782243">
<time>2015-09-27T11:16:22Z</time></trkpt>
<trkpt lat="23.146272" lon="111.782243">
<time>2015-09-27T11:16:23Z</time></trkpt>
<trkpt lat="23.147921" lon="111.782223">
<time>2015-09-27T11:16:24Z</time></trkpt>
<trkpt lat="23.148871" lon="111.782213">
<time>2015-09-27T11:16:25Z</time></trkpt>
<trkpt lat="23.14903" lon="111.782213">
<time>2015-09-27T11:16:26Z</time></trkpt>
<trkpt lat="23.14903" lon="111.782213">
<time>2015-09-27T11:16:27Z</time></trkpt>
<trkpt lat="23.149089" lon="111.781321">
<time>2015-09-27T11:16:28Z</time></trkpt>
<trkpt lat="23.149148" lon="111.78053">
<time>2015-09-27T11:16:29Z</time></trkpt>
<trkpt lat="23.149207" lon="111.779669">
<time>2015-09-27T11:16:30Z</time></trkpt>
<trkpt lat="23.149256" lon="111.778778">
<time>2015-09-27T11:16:31Z</time></trkpt>
<trkpt lat="23.149286" lon="111.778528">
<time>2015-09-27T11:16:32Z</time></trkpt>
<trkpt lat="23.149653" lon="111.776485">
<time>2015-09-27T11:16:33Z</time></trkpt>
<trkpt lat="23.149872" lon="111.775324">
<time>2015-09-27T11:16:34Z</time></trkpt>
<trkpt lat="23.149882" lon="111.775264">
<time>2015-09-27T11:16:35Z</time></trkpt>
<trkpt lat="23.149882" lon="111.775264">
<time>2015-09-27T11:16:36Z</time></trkpt>
<trkpt lat="23.155191" lon="111.776084">
<time>2015-09-27T11:16:37Z</time></trkpt>
<trkpt lat="23.155851" lon="111.776184">
<time>2015-09-27T11:16:38Z</time></trkpt>
<trkpt lat="23.15719" lon="111.776395">
<time>2015-09-27T11:16:39Z</time></trkpt>
<trkpt lat="23.15719" lon="111.776395">
<time>2015-09-27T11:16:40Z</time></trkpt>
<trkpt lat="23.15731" lon="111.776415">
<time>2015-09-27T11:16:41Z</time></trkpt>
<trkpt lat="23.1575" lon="111.776445">
<time>2015-09-27T11:16:42Z</time></trkpt>
<trkpt lat="23.15762" lon="111.776455">
<time>2015-09-27T11:16:43Z</time></trkpt>
<trkpt lat="23.15776" lon="111.776455">
<time>2015-09-27T11:16:44Z</time></trkpt>
<trkpt lat="23.15797" lon="111.776424">
<time>2015-09-27T11:16:45Z</time></trkpt>
<trkpt lat="23.15809" lon="111.776404">
<time>2015-09-27T11:16:46Z</time></trkpt>
<trkpt lat="23.15816" lon="111.776394">
<time>2015-09-27T11:16:47Z</time></trkpt>
<trkpt lat="23.15833" lon="111.776344">
<time>2015-09-27T11:16:48Z</time></trkpt>
<trkpt lat="23.15845" lon="111.776304">
<time>2015-09-27T11:16:49Z</time></trkpt>
<trkpt lat="23.15856" lon="111.776254">
<time>2015-09-27T11:16:50Z</time></trkpt>
<trkpt lat="23.15867" lon="111.776204">
<time>2015-09-27T11:16:51Z</time></trkpt>
<trkpt lat="23.158779" lon="111.776124">
<time>2015-09-27T11:16:52Z</time></trkpt>
<trkpt lat="23.158889" lon="111.776044">
<time>2015-09-27T11:16:53Z</time></trkpt>
<trkpt lat="23.158929" lon="111.776014">
<time>2015-09-27T11:16:54Z</time></trkpt>
<trkpt lat="23.159009" lon="111.775954">
<time>2015-09-27T11:16:55Z</time></trkpt>
<trkpt lat="23.159099" lon="111.775874">
<time>2015-09-27T11:16:56Z</time></trkpt>
<trkpt lat="23.159179" lon="111.775804">
<time>2015-09-27T11:16:57Z</time></trkpt>
<trkpt lat="23.159179" lon="111.775794">
<time>2015-09-27T11:16:58Z</time></trkpt>
<trkpt lat="23.159299" lon="111.775663">
<time>2015-09-27T11:16:59Z</time></trkpt>
<trkpt lat="23.159438" lon="111.775493">
<time>2015-09-27T11:17:00Z</time></trkpt>
<trkpt lat="23.159578" lon="111.775253">
<time>2015-09-27T11:17:01Z</time></trkpt>
<trkpt lat="23.159718" lon="111.774983">
<time>2015-09-27T11:17:02Z</time></trkpt>
<trkpt lat="23.160037" lon="111.774252">
<time>2015-09-27T11:17:03Z</time></trkpt>
<trkpt lat="23.160157" lon="111.773951">
<time>2015-09-27T11:17:04Z</time></trkpt>
<trkpt lat="23.160436" lon="111.773321">
<time>2015-09-27T11:17:05Z</time></trkpt>
<trkpt lat="23.160436" lon="111.773321">
<time>2015-09-27T11:17:06Z</time></trkpt>
<trkpt lat="23.160436" lon="111.773311">
<time>2015-09-27T11:17:07Z</time></trkpt>
<trkpt lat="23.160426" lon="111.773311">
<time>2015-09-27T11:17:08Z</time></trkpt>
<trkpt lat="23.160426" lon="111.773301">
<time>2015-09-27T11:17:09Z</time></trkpt>
<trkpt lat="23.160416" lon="111.773281">
<time>2015-09-27T11:17:10Z</time></trkpt>
<trkpt lat="23.160416" lon="111.773271">
<time>2015-09-27T11:17:11Z</time></trkpt>
<trkpt lat="23.160416" lon="111.773261">
<time>2015-09-27T11:17:12Z</time></trkpt>
<trkpt lat="23.160416" lon="111.773251">
<time>2015-09-27T11:17:13Z</time></trkpt>
<trkpt lat="23.160416" lon="111.773241">
<time>2015-09-27T11:17:14Z</time></trkpt>
<trkpt lat="23.160416" lon="111.773231">
<time>2015-09-27T11:17:15Z</time></trkpt>
<trkpt lat="23.160416" lon="111.773221">
<time>2015-09-27T11:17:16Z</time></trkpt>
<trkpt lat="23.160416" lon="111.773211">
<time>2015-09-27T11:17:17Z</time></trkpt>
<trkpt lat="23.160426" lon="111.773201">
<time>2015-09-27T11:17:18Z</time></trkpt>
<trkpt lat="23.160426" lon="111.773181">
<time>2015-09-27T11:17:19Z</time></trkpt>
<trkpt lat="23.160436" lon="111.773171">
<time>2015-09-27T11:17:20Z</time></trkpt>
<trkpt lat="23.160446" lon="111.773171">
<time>2015-09-27T11:17:21Z</time></trkpt>
<trkpt lat="23.160446" lon="111.77316">
<time>2015-09-27T11:17:22Z</time></trkpt>
<trkpt lat="23.160456" lon="111.77315">
<time>2015-09-27T11:17:23Z</time></trkpt>
<trkpt lat="23.160466" lon="111.77314">
<time>2015-09-27T11:17:24Z</time></trkpt>
<trkpt lat="23.160476" lon="111.77314">
<time>2015-09-27T11:17:25Z</time></trkpt>
<trkpt lat="23.160486" lon="111.77314">
<time>2015-09-27T11:17:26Z</time></trkpt>
<trkpt lat="23.160496" lon="111.77313">
<time>2015-09-27T11:17:27Z</time></trkpt>
<trkpt lat="23.160506" lon="111.77313">
<time>2015-09-27T11:17:28Z</time></trkpt>
<trkpt lat="23.160516" lon="111.77313">
<time>2015-09-27T11:17:29Z</time></trkpt>
<trkpt lat="23.160695" lon="111.77272">
<time>2015-09-27T11:17:30Z</time></trkpt>
<trkpt lat="23.160904" lon="111.772229">
<time>2015-09-27T11:17:31Z</time></trkpt>
<trkpt lat="23.161064" lon="111.771849">
<time>2015-09-27T11:17:32Z</time></trkpt>
<trkpt lat="23.161204" lon="111.771499">
<time>2015-09-27T11:17:33Z</time></trkpt>
<trkpt lat="23.161303" lon="111.771188">
<time>2015-09-27T11:17:34Z</time></trkpt>
<trkpt lat="23.161353" lon="111.771018">
<time>2015-09-27T11:17:35Z</time></trkpt>
<trkpt lat="23.161363" lon="111.770998">
<time>2015-09-27T11:17:36Z</time></trkpt>
<trkpt lat="23.161383" lon="111.770928">
<time>2015-09-27T11:17:37Z</time></trkpt>
<trkpt lat="23.161423" lon="111.770758">
<time>2015-09-27T11:17:38Z</time></trkpt>
<trkpt lat="23.161463" lon="111.770598">
<time>2015-09-27T11:17:39Z</time></trkpt>
<trkpt lat="23.161592" lon="111.769947">
<time>2015-09-27T11:17:40Z</time></trkpt>
<trkpt lat="23.161642" lon="111.769677">
<time>2015-09-27T11:17:41Z</time></trkpt>
<trkpt lat="23.161702" lon="111.769416">
<time>2015-09-27T11:17:42Z</time></trkpt>
<trkpt lat="23.161761" lon="111.769236">
<time>2015-09-27T11:17:43Z</time></trkpt>
<trkpt lat="23.161871" lon="111.768906">
<time>2015-09-27T11:17:44Z</time></trkpt>
<trkpt lat="23.162041" lon="111.768546">
<time>2015-09-27T11:17:45Z</time></trkpt>
<trkpt lat="23.16226" lon="111.768165">
<time>2015-09-27T11:17:46Z</time></trkpt>
<trkpt lat="23.16253" lon="111.767795">
<time>2015-09-27T11:17:47Z</time></trkpt>
<trkpt lat="23.16276" lon="111.767555">
<time>2015-09-27T11:17:48Z</time></trkpt>
<trkpt lat="23.163049" lon="111.767284">
<time>2015-09-27T11:17:49Z</time></trkpt>
<trkpt lat="23.163379" lon="111.767024">
<time>2015-09-27T11:17:50Z</time></trkpt>
<trkpt lat="23.164608" lon="111.766253">
<time>2015-09-27T11:17:51Z</time></trkpt>
<trkpt lat="23.166306" lon="111.765192">
<time>2015-09-27T11:17:52Z</time></trkpt>
<trkpt lat="23.166676" lon="111.764962">
<time>2015-09-27T11:17:53Z</time></trkpt>
<trkpt lat="23.167086" lon="111.764702">
<time>2015-09-27T11:17:54Z</time></trkpt>
<trkpt lat="23.167445" lon="111.764462">
<time>2015-09-27T11:17:55Z</time></trkpt>
<trkpt lat="23.167495" lon="111.764432">
<time>2015-09-27T11:17:56Z</time></trkpt>
<trkpt lat="23.167735" lon="111.764322">
<time>2015-09-27T11:17:57Z</time></trkpt>
<trkpt lat="23.167915" lon="111.764222">
<time>2015-09-27T11:17:58Z</time></trkpt>
<trkpt lat="23.168095" lon="111.764121">
<time>2015-09-27T11:17:59Z</time></trkpt>
<trkpt lat="23.168514" lon="111.763811">
<time>2015-09-27T11:18:00Z</time></trkpt>
<trkpt lat="23.168514" lon="111.763811">
<time>2015-09-27T11:18:01Z</time></trkpt>
<trkpt lat="23.168604" lon="111.763611">
<time>2015-09-27T11:18:02Z</time></trkpt>
<trkpt lat="23.169073" lon="111.76255">
<time>2015-09-27T11:18:03Z</time></trkpt>
<trkpt lat="23.169742" lon="111.761019">
<time>2015-09-27T11:18:04Z</time></trkpt>
<trkpt lat="23.169862" lon="111.760769">
<time>2015-09-27T11:18:05Z</time></trkpt>
<trkpt lat="23.169962" lon="111.760629">
<time>2015-09-27T11:18:06Z</time></trkpt>
<trkpt lat="23.170042" lon="111.760499">
<time>2015-09-27T11:18:07Z</time></trkpt>
<trkpt lat="23.170112" lon="111.760409">
<time>2015-09-27T11:18:08Z</time></trkpt>
<trkpt lat="23.170162" lon="111.760349">
<time>2015-09-27T11:18:09Z</time></trkpt>
<trkpt lat="23.170341" lon="111.760148">
<time>2015-09-27T11:18:10Z</time></trkpt>
<trkpt lat="23.170441" lon="111.760048">
<time>2015-09-27T11:18:11Z</time></trkpt>
<trkpt lat="23.170551" lon="111.759968">
<time>2015-09-27T11:18:12Z</time></trkpt>
<trkpt lat="23.170751" lon="111.759828">
<time>2015-09-27T11:18:13Z</time></trkpt>
<trkpt lat="23.170951" lon="111.759708">
<time>2015-09-27T11:18:14Z</time></trkpt>
<trkpt lat="23.171161" lon="111.759618">
<time>2015-09-27T11:18:15Z</time></trkpt>
<trkpt lat="23.171411" lon="111.759498">
<time>2015-09-27T11:18:16Z</time></trkpt>
<trkpt lat="23.17229" lon="111.759128">
<time>2015-09-27T11:18:17Z</time></trkpt>
<trkpt lat="23.17247" lon="111.759038">
<time>2015-09-27T11:18:18Z</time></trkpt>
<trkpt lat="23.17263" lon="111.758948">
<time>2015-09-27T11:18:19Z</time></trkpt>
<trkpt lat="23.17271" lon="111.758898">
<time>2015-09-27T11:18:20Z</time></trkpt>
<trkpt lat="23.17281" lon="111.758838">
<time>2015-09-27T11:18:21Z</time></trkpt>
<trkpt lat="23.173809" lon="111.758077">
<time>2015-09-27T11:18:22Z</time></trkpt>
<trkpt lat="23.174289" lon="111.757707">
<time>2015-09-27T11:18:23Z</time></trkpt>
<trkpt lat="23.175108" lon="111.757026">
<time>2015-09-27T11:18:24Z</time></trkpt>
<trkpt lat="23.175248" lon="111.756886">
<time>2015-09-27T11:18:25Z</time></trkpt>
<trkpt lat="23.175368" lon="111.756756">
<time>2015-09-27T11:18:26Z</time></trkpt>
<trkpt lat="23.175478" lon="111.756626">
<time>2015-09-27T11:18:27Z</time></trkpt>
<trkpt lat="23.175618" lon="111.756446">
<time>2015-09-27T11:18:28Z</time></trkpt>
<trkpt lat="23.175718" lon="111.756286">
<time>2015-09-27T11:18:29Z</time></trkpt>
<trkpt lat="23.175807" lon="111.756136">
<time>2015-09-27T11:18:30Z</time></trkpt>
<trkpt lat="23.176756" lon="111.754345">
<time>2015-09-27T11:18:31Z</time></trkpt>
<trkpt lat="23.176846" lon="111.754165">
<time>2015-09-27T11:18:32Z</time></trkpt>
<trkpt lat="23.177346" lon="111.753225">
<time>2015-09-27T11:18:33Z</time></trkpt>
<trkpt lat="23.177466" lon="111.752985">
<time>2015-09-27T11:18:34Z</time></trkpt>
<trkpt lat="23.177546" lon="111.752755">
<time>2015-09-27T11:18:35Z</time></trkpt>
<trkpt lat="23.177665" lon="111.752384">
<time>2015-09-27T11:18:36Z</time></trkpt>
<trkpt lat="23.177735" lon="111.752104">
<time>2015-09-27T11:18:37Z</time></trkpt>
<trkpt lat="23.177765" lon="111.751914">
<time>2015-09-27T11:18:38Z</time></trkpt>
<trkpt lat="23.177795" lon="111.751754">
<time>2015-09-27T11:18:39Z</time></trkpt>
<trkpt lat="23.177805" lon="111.751604">
<time>2015-09-27T11:18:40Z</time></trkpt>
<trkpt lat="23.177815" lon="111.751454">
<time>2015-09-27T11:18:41Z</time></trkpt>
<trkpt lat="23.177825" lon="111.751224">
<time>2015-09-27T11:18:42Z</time></trkpt>
<trkpt lat="23.177845" lon="111.750434">
<time>2015-09-27T11:18:43Z</time></trkpt>
<trkpt lat="23.177845" lon="111.750334">
<time>2015-09-27T11:18:44Z</time></trkpt>
<trkpt lat="23.177855" lon="111.750004">
<time>2015-09-27T11:18:45Z</time></trkpt>
<trkpt lat="23.177875" lon="111.748974">
<time>2015-09-27T11:18:46Z</time></trkpt>
<trkpt lat="23.177885" lon="111.748694">
<time>2015-09-27T11:18:47Z</time></trkpt>
<trkpt lat="23.177904" lon="111.748464">
<time>2015-09-27T11:18:48Z</time></trkpt>
<trkpt lat="23.177944" lon="111.748244">
<time>2015-09-27T11:18:49Z</time></trkpt>
<trkpt lat="23.178004" lon="111.747994">
<time>2015-09-27T11:18:50Z</time></trkpt>
<trkpt lat="23.178254" lon="111.747063">
<time>2015-09-27T11:18:51Z</time></trkpt>
<trkpt lat="23.178534" lon="111.746033">
<time>2015-09-27T11:18:52Z</time></trkpt>
<trkpt lat="23.178804" lon="111.745023">
<time>2015-09-27T11:18:53Z</time></trkpt>
<trkpt lat="23.179764" lon="111.741374">
<time>2015-09-27T11:18:54Z</time></trkpt>
<trkpt lat="23.180484" lon="111.738684">
<time>2015-09-27T11:18:55Z</time></trkpt>
<trkpt lat="23.180884" lon="111.737344">
<time>2015-09-27T11:18:56Z</time></trkpt>
<trkpt lat="23.181004" lon="111.737085">
<time>2015-09-27T11:18:57Z</time></trkpt>
<trkpt lat="23.181354" lon="111.736335">
<time>2015-09-27T11:18:58Z</time></trkpt>
<trkpt lat="23.181684" lon="111.735785">
<time>2015-09-27T11:18:59Z</time></trkpt>
<trkpt lat="23.182055" lon="111.735175">
<time>2015-09-27T11:19:00Z</time></trkpt>
<trkpt lat="23.183005" lon="111.733676">
<time>2015-09-27T11:19:01Z</time></trkpt>
<trkpt lat="23.183135" lon="111.733426">
<time>2015-09-27T11:19:02Z</time></trkpt>
<trkpt lat="23.183235" lon="111.733206">
<time>2015-09-27T11:19:03Z</time></trkpt>
<trkpt lat="23.183285" lon="111.733006">
<time>2015-09-27T11:19:04Z</time></trkpt>
<trkpt lat="23.183315" lon="111.732776">
<time>2015-09-27T11:19:05Z</time></trkpt>
<trkpt lat="23.183285" lon="111.732307">
<time>2015-09-27T11:19:06Z</time></trkpt>
<trkpt lat="23.183226" lon="111.731567">
<time>2015-09-27T11:19:07Z</time></trkpt>
<trkpt lat="23.183146" lon="111.730428">
<time>2015-09-27T11:19:08Z</time></trkpt>
<trkpt lat="23.183156" lon="111.730128">
<time>2015-09-27T11:19:09Z</time></trkpt>
<trkpt lat="23.183197" lon="111.729868">
<time>2015-09-27T11:19:10Z</time></trkpt>
<trkpt lat="23.183257" lon="111.729658">
<time>2015-09-27T11:19:11Z</time></trkpt>
<trkpt lat="23.183367" lon="111.729408">
<time>2015-09-27T11:19:12Z</time></trkpt>
<trkpt lat="23.183607" lon="111.729009">
<time>2015-09-27T11:19:13Z</time></trkpt>
<trkpt lat="23.184448" lon="111.72749">
<time>2015-09-27T11:19:14Z</time></trkpt>
<trkpt lat="23.184628" lon="111.72703">
<time>2015-09-27T11:19:15Z</time></trkpt>
<trkpt lat="23.184808" lon="111.726071">
<time>2015-09-27T11:19:16Z</time></trkpt>
<trkpt lat="23.18511" lon="111.723743">
<time>2015-09-27T11:19:17Z</time></trkpt>
<trkpt lat="23.185311" lon="111.722544">
<time>2015-09-27T11:19:18Z</time></trkpt>
<trkpt lat="23.185501" lon="111.721844">
<time>2015-09-27T11:19:19Z</time></trkpt>
<trkpt lat="23.185832" lon="111.720855">
<time>2015-09-27T11:19:20Z</time></trkpt>
<trkpt lat="23.186293" lon="111.719547">
<time>2015-09-27T11:19:21Z</time></trkpt>
<trkpt lat="23.186404" lon="111.719127">
<time>2015-09-27T11:19:22Z</time></trkpt>
<trkpt lat="23.186504" lon="111.718588">
<time>2015-09-27T11:19:23Z</time></trkpt>
<trkpt lat="23.186535" lon="111.717908">
<time>2015-09-27T11:19:24Z</time></trkpt>
<trkpt lat="23.186515" lon="111.717229">
<time>2015-09-27T11:19:25Z</time></trkpt>
<trkpt lat="23.186506" lon="111.71663">
<time>2015-09-27T11:19:26Z</time></trkpt>
<trkpt lat="23.186458" lon="111.714882">
<time>2015-09-27T11:19:27Z</time></trkpt>
<trkpt lat="23.186439" lon="111.714033">
<time>2015-09-27T11:19:28Z</time></trkpt>
<trkpt lat="23.186469" lon="111.713553">
<time>2015-09-27T11:19:29Z</time></trkpt>
<trkpt lat="23.1866" lon="111.712904">
<time>2015-09-27T11:19:30Z</time></trkpt>
<trkpt lat="23.186821" lon="111.712125">
<time>2015-09-27T11:19:31Z</time></trkpt>
<trkpt lat="23.187363" lon="111.710148">
<time>2015-09-27T11:19:32Z</time></trkpt>
<trkpt lat="23.187434" lon="111.709569">
<time>2015-09-27T11:19:33Z</time></trkpt>
<trkpt lat="23.187426" lon="111.707981">
<time>2015-09-27T11:19:34Z</time></trkpt>
<trkpt lat="23.187446" lon="111.707671">
<time>2015-09-27T11:19:35Z</time></trkpt>
<trkpt lat="23.187486" lon="111.707342">
<time>2015-09-27T11:19:36Z</time></trkpt>
<trkpt lat="23.187597" lon="111.706952">
<time>2015-09-27T11:19:37Z</time></trkpt>
<trkpt lat="23.188179" lon="111.705175">
<time>2015-09-27T11:19:38Z</time></trkpt>
<trkpt lat="23.188229" lon="111.704995">
<time>2015-09-27T11:19:39Z</time></trkpt>
<trkpt lat="23.18825" lon="111.704856">
<time>2015-09-27T11:19:40Z</time></trkpt>
<trkpt lat="23.18825" lon="111.704676">
<time>2015-09-27T11:19:41Z</time></trkpt>
<trkpt lat="23.18824" lon="111.704496">
<time>2015-09-27T11:19:42Z</time></trkpt>
<trkpt lat="23.18821" lon="111.704356">
<time>2015-09-27T11:19:43Z</time></trkpt>
<trkpt lat="23.188021" lon="111.703598">
<time>2015-09-27T11:19:44Z</time></trkpt>
<trkpt lat="23.187862" lon="111.703058">
<time>2015-09-27T11:19:45Z</time></trkpt>
<trkpt lat="23.187673" lon="111.702549">
<time>2015-09-27T11:19:46Z</time></trkpt>
<trkpt lat="23.187553" lon="111.70228">
<time>2015-09-27T11:19:47Z</time></trkpt>
<trkpt lat="23.187454" lon="111.70213">
<time>2015-09-27T11:19:48Z</time></trkpt>
<trkpt lat="23.187334" lon="111.70197">
<time>2015-09-27T11:19:49Z</time></trkpt>
<trkpt lat="23.187094" lon="111.701731">
<time>2015-09-27T11:19:50Z</time></trkpt>
<trkpt lat="23.185188" lon="111.699834">
<time>2015-09-27T11:19:51Z</time></trkpt>
<trkpt lat="23.184719" lon="111.699385">
<time>2015-09-27T11:19:52Z</time></trkpt>
<trkpt lat="23.182762" lon="111.697838">
<time>2015-09-27T11:19:53Z</time></trkpt>
<trkpt lat="23.182512" lon="111.697598">
<time>2015-09-27T11:19:54Z</time></trkpt>
<trkpt lat="23.182363" lon="111.697428">
<time>2015-09-27T11:19:55Z</time></trkpt>
<trkpt lat="23.182193" lon="111.697199">
<time>2015-09-27T11:19:56Z</time></trkpt>
<trkpt lat="23.182043" lon="111.696939">
<time>2015-09-27T11:19:57Z</time></trkpt>
<trkpt lat="23.181954" lon="111.69671">
<time>2015-09-27T11:19:58Z</time></trkpt>
<trkpt lat="23.181894" lon="111.69654">
<time>2015-09-27T11:19:59Z</time></trkpt>
<trkpt lat="23.181854" lon="111.69634">
<time>2015-09-27T11:20:00Z</time></trkpt>
<trkpt lat="23.181815" lon="111.696131">
<time>2015-09-27T11:20:01Z</time></trkpt>
<trkpt lat="23.181795" lon="111.695871">
<time>2015-09-27T11:20:02Z</time></trkpt>
<trkpt lat="23.181796" lon="111.695701">
<time>2015-09-27T11:20:03Z</time></trkpt>
<trkpt lat="23.181826" lon="111.695472">
<time>2015-09-27T11:20:04Z</time></trkpt>
<trkpt lat="23.181846" lon="111.695322">
<time>2015-09-27T11:20:05Z</time></trkpt>
<trkpt lat="23.181896" lon="111.695112">
<time>2015-09-27T11:20:06Z</time></trkpt>
<trkpt lat="23.181947" lon="111.694923">
<time>2015-09-27T11:20:07Z</time></trkpt>
<trkpt lat="23.182067" lon="111.694673">
<time>2015-09-27T11:20:08Z</time></trkpt>
<trkpt lat="23.182127" lon="111.694563">
<time>2015-09-27T11:20:09Z</time></trkpt>
<trkpt lat="23.182217" lon="111.694404">
<time>2015-09-27T11:20:10Z</time></trkpt>
<trkpt lat="23.182288" lon="111.694304">
<time>2015-09-27T11:20:11Z</time></trkpt>
<trkpt lat="23.182298" lon="111.694284">
<time>2015-09-27T11:20:12Z</time></trkpt>
<trkpt lat="23.182398" lon="111.694154">
<time>2015-09-27T11:20:13Z</time></trkpt>
<trkpt lat="23.182428" lon="111.694114">
<time>2015-09-27T11:20:14Z</time></trkpt>
<trkpt lat="23.182628" lon="111.693925">
<time>2015-09-27T11:20:15Z</time></trkpt>
<trkpt lat="23.182768" lon="111.693795">
<time>2015-09-27T11:20:16Z</time></trkpt>
<trkpt lat="23.182948" lon="111.693665">
<time>2015-09-27T11:20:17Z</time></trkpt>
<trkpt lat="23.183138" lon="111.693555">
<time>2015-09-27T11:20:18Z</time></trkpt>
<trkpt lat="23.185019" lon="111.692577">
<time>2015-09-27T11:20:19Z</time></trkpt>
<trkpt lat="23.18625" lon="111.691908">
<time>2015-09-27T11:20:20Z</time></trkpt>
<trkpt lat="23.187651" lon="111.69094">
<time>2015-09-27T11:20:21Z</time></trkpt>
<trkpt lat="23.190924" lon="111.688674">
<time>2015-09-27T11:20:22Z</time></trkpt>
<trkpt lat="23.190944" lon="111.688654">
<time>2015-09-27T11:20:23Z</time></trkpt>
<trkpt lat="23.193876" lon="111.686618">
<time>2015-09-27T11:20:24Z</time></trkpt>
<trkpt lat="23.194507" lon="111.686159">
<time>2015-09-27T11:20:25Z</time></trkpt>
<trkpt lat="23.194978" lon="111.68573">
<time>2015-09-27T11:20:26Z</time></trkpt>
<trkpt lat="23.195819" lon="111.684682">
<time>2015-09-27T11:20:27Z</time></trkpt>
<trkpt lat="23.197212" lon="111.682945">
<time>2015-09-27T11:20:28Z</time></trkpt>
<trkpt lat="23.199506" lon="111.680211">
<time>2015-09-27T11:20:29Z</time></trkpt>
<trkpt lat="23.200498" lon="111.679043">
<time>2015-09-27T11:20:30Z</time></trkpt>
<trkpt lat="23.200898" lon="111.678704">
<time>2015-09-27T11:20:31Z</time></trkpt>
<trkpt lat="23.201459" lon="111.678324">
<time>2015-09-27T11:20:32Z</time></trkpt>
<trkpt lat="23.204" lon="111.677257">
<time>2015-09-27T11:20:33Z</time></trkpt>
<trkpt lat="23.20514" lon="111.676658">
<time>2015-09-27T11:20:34Z</time></trkpt>
<trkpt lat="23.205981" lon="111.676069">
<time>2015-09-27T11:20:35Z</time></trkpt>
<trkpt lat="23.207293" lon="111.675151">
<time>2015-09-27T11:20:36Z</time></trkpt>
<trkpt lat="23.208984" lon="111.673973">
<time>2015-09-27T11:20:37Z</time></trkpt>
<trkpt lat="23.209495" lon="111.673674">
<time>2015-09-27T11:20:38Z</time></trkpt>
<trkpt lat="23.210685" lon="111.673065">
<time>2015-09-27T11:20:39Z</time></trkpt>
<trkpt lat="23.211005" lon="111.672905">
<time>2015-09-27T11:20:40Z</time></trkpt>
<trkpt lat="23.213857" lon="111.671658">
<time>2015-09-27T11:20:41Z</time></trkpt>
<trkpt lat="23.214897" lon="111.671209">
<time>2015-09-27T11:20:42Z</time></trkpt>
<trkpt lat="23.215278" lon="111.671039">
<time>2015-09-27T11:20:43Z</time></trkpt>
<trkpt lat="23.216688" lon="111.67042">
<time>2015-09-27T11:20:44Z</time></trkpt>
<trkpt lat="23.217609" lon="111.669921">
<time>2015-09-27T11:20:45Z</time></trkpt>
<trkpt lat="23.21897" lon="111.669053">
<time>2015-09-27T11:20:46Z</time></trkpt>
<trkpt lat="23.21939" lon="111.668744">
<time>2015-09-27T11:20:47Z</time></trkpt>
<trkpt lat="23.220031" lon="111.668275">
<time>2015-09-27T11:20:48Z</time></trkpt>
<trkpt lat="23.221573" lon="111.667107">
<time>2015-09-27T11:20:49Z</time></trkpt>
<trkpt lat="23.222684" lon="111.666259">
<time>2015-09-27T11:20:50Z</time></trkpt>
<trkpt lat="23.223235" lon="111.66584">
<time>2015-09-27T11:20:51Z</time></trkpt>
<trkpt lat="23.223925" lon="111.665411">
<time>2015-09-27T11:20:52Z</time></trkpt>
<trkpt lat="23.225136" lon="111.664772">
<time>2015-09-27T11:20:53Z</time></trkpt>
<trkpt lat="23.226617" lon="111.664024">
<time>2015-09-27T11:20:54Z</time></trkpt>
<trkpt lat="23.227688" lon="111.663485">
<time>2015-09-27T11:20:55Z</time></trkpt>
<trkpt lat="23.228328" lon="111.663155">
<time>2015-09-27T11:20:56Z</time></trkpt>
<trkpt lat="23.228829" lon="111.662856">
<time>2015-09-27T11:20:57Z</time></trkpt>
<trkpt lat="23.229529" lon="111.662257">
<time>2015-09-27T11:20:58Z</time></trkpt>
<trkpt lat="23.23024" lon="111.661609">
<time>2015-09-27T11:20:59Z</time></trkpt>
<trkpt lat="23.231042" lon="111.66088">
<time>2015-09-27T11:21:00Z</time></trkpt>
<trkpt lat="23.234526" lon="111.657707">
<time>2015-09-27T11:21:01Z</time></trkpt>
<trkpt lat="23.236159" lon="111.65619">
<time>2015-09-27T11:21:02Z</time></trkpt>
<trkpt lat="23.236419" lon="111.655901">
<time>2015-09-27T11:21:03Z</time></trkpt>
<trkpt lat="23.236619" lon="111.655671">
<time>2015-09-27T11:21:04Z</time></trkpt>
<trkpt lat="23.23691" lon="111.655262">
<time>2015-09-27T11:21:05Z</time></trkpt>
<trkpt lat="23.237201" lon="111.654803">
<time>2015-09-27T11:21:06Z</time></trkpt>
<trkpt lat="23.237482" lon="111.654184">
<time>2015-09-27T11:21:07Z</time></trkpt>
<trkpt lat="23.237703" lon="111.653566">
<time>2015-09-27T11:21:08Z</time></trkpt>
<trkpt lat="23.237905" lon="111.652687">
<time>2015-09-27T11:21:09Z</time></trkpt>
<trkpt lat="23.238459" lon="111.650362">
<time>2015-09-27T11:21:10Z</time></trkpt>
<trkpt lat="23.23866" lon="111.649484">
<time>2015-09-27T11:21:11Z</time></trkpt>
<trkpt lat="23.239174" lon="111.647269">
<time>2015-09-27T11:21:12Z</time></trkpt>
<trkpt lat="23.239698" lon="111.645063">
<time>2015-09-27T11:21:13Z</time></trkpt>
<trkpt lat="23.24002" lon="111.643676">
<time>2015-09-27T11:21:14Z</time></trkpt>
<trkpt lat="23.240121" lon="111.642897">
<time>2015-09-27T11:21:15Z</time></trkpt>
<trkpt lat="23.240112" lon="111.642339">
<time>2015-09-27T11:21:16Z</time></trkpt>
<trkpt lat="23.240102" lon="111.642189">
<time>2015-09-27T11:21:17Z</time></trkpt>
<trkpt lat="23.240024" lon="111.641221">
<time>2015-09-27T11:21:18Z</time></trkpt>
<trkpt lat="23.240004" lon="111.641061">
<time>2015-09-27T11:21:19Z</time></trkpt>
<trkpt lat="23.239857" lon="111.639654">
<time>2015-09-27T11:21:20Z</time></trkpt>
<trkpt lat="23.239857" lon="111.639614">
<time>2015-09-27T11:21:21Z</time></trkpt>
<trkpt lat="23.239857" lon="111.639604">
<time>2015-09-27T11:21:22Z</time></trkpt>
<trkpt lat="23.239837" lon="111.639304">
<time>2015-09-27T11:21:23Z</time></trkpt>
<trkpt lat="23.23973" lon="111.637628">
<time>2015-09-27T11:21:24Z</time></trkpt>
<trkpt lat="23.239632" lon="111.636609">
<time>2015-09-27T11:21:25Z</time></trkpt>
<trkpt lat="23.239534" lon="111.635242">
<time>2015-09-27T11:21:26Z</time></trkpt>
<trkpt lat="23.239357" lon="111.633236">
<time>2015-09-27T11:21:27Z</time></trkpt>
<trkpt lat="23.239279" lon="111.631928">
<time>2015-09-27T11:21:28Z</time></trkpt>
<trkpt lat="23.23928" lon="111.631069">
<time>2015-09-27T11:21:29Z</time></trkpt>
<trkpt lat="23.23928" lon="111.63092">
<time>2015-09-27T11:21:30Z</time></trkpt>
<trkpt lat="23.2393" lon="111.63075">
<time>2015-09-27T11:21:31Z</time></trkpt>
<trkpt lat="23.239331" lon="111.63053">
<time>2015-09-27T11:21:32Z</time></trkpt>
<trkpt lat="23.239401" lon="111.630021">
<time>2015-09-27T11:21:33Z</time></trkpt>
<trkpt lat="23.239492" lon="111.629562">
<time>2015-09-27T11:21:34Z</time></trkpt>
<trkpt lat="23.239673" lon="111.628913">
<time>2015-09-27T11:21:35Z</time></trkpt>
<trkpt lat="23.240044" lon="111.627805">
<time>2015-09-27T11:21:36Z</time></trkpt>
<trkpt lat="23.240365" lon="111.626836">
<time>2015-09-27T11:21:37Z</time></trkpt>
<trkpt lat="23.240867" lon="111.625378">
<time>2015-09-27T11:21:38Z</time></trkpt>
<trkpt lat="23.240997" lon="111.624989">
<time>2015-09-27T11:21:39Z</time></trkpt>
<trkpt lat="23.241088" lon="111.624739">
<time>2015-09-27T11:21:40Z</time></trkpt>
<trkpt lat="23.241419" lon="111.623741">
<time>2015-09-27T11:21:41Z</time></trkpt>
<trkpt lat="23.241971" lon="111.622133">
<time>2015-09-27T11:21:42Z</time></trkpt>
<trkpt lat="23.242362" lon="111.620975">
<time>2015-09-27T11:21:43Z</time></trkpt>
<trkpt lat="23.242392" lon="111.620895">
<time>2015-09-27T11:21:44Z</time></trkpt>
<trkpt lat="23.242743" lon="111.619886">
<time>2015-09-27T11:21:45Z</time></trkpt>
<trkpt lat="23.243053" lon="111.619147">
<time>2015-09-27T11:21:46Z</time></trkpt>
<trkpt lat="23.243985" lon="111.617299">
<time>2015-09-27T11:21:47Z</time></trkpt>
<trkpt lat="23.244706" lon="111.615881">
<time>2015-09-27T11:21:48Z</time></trkpt>
<trkpt lat="23.245237" lon="111.614832">
<time>2015-09-27T11:21:49Z</time></trkpt>
<trkpt lat="23.246138" lon="111.613084">
<time>2015-09-27T11:21:50Z</time></trkpt>
<trkpt lat="23.246258" lon="111.612844">
<time>2015-09-27T11:21:51Z</time></trkpt>
<trkpt lat="23.246559" lon="111.612265">
<time>2015-09-27T11:21:52Z</time></trkpt>
<trkpt lat="23.246579" lon="111.612205">
<time>2015-09-27T11:21:53Z</time></trkpt>
<trkpt lat="23.246879" lon="111.611626">
<time>2015-09-27T11:21:54Z</time></trkpt>
<trkpt lat="23.24733" lon="111.610657">
<time>2015-09-27T11:21:55Z</time></trkpt>
<trkpt lat="23.24781" lon="111.609528">
<time>2015-09-27T11:21:56Z</time></trkpt>
<trkpt lat="23.248401" lon="111.608159">
<time>2015-09-27T11:21:57Z</time></trkpt>
<trkpt lat="23.249362" lon="111.605911">
<time>2015-09-27T11:21:58Z</time></trkpt>
<trkpt lat="23.250003" lon="111.604432">
<time>2015-09-27T11:21:59Z</time></trkpt>
<trkpt lat="23.251674" lon="111.600604">
<time>2015-09-27T11:22:00Z</time></trkpt>
<trkpt lat="23.251814" lon="111.600285">
<time>2015-09-27T11:22:01Z</time></trkpt>
<trkpt lat="23.252494" lon="111.598605">
<time>2015-09-27T11:22:02Z</time></trkpt>
<trkpt lat="23.252894" lon="111.597676">
<time>2015-09-27T11:22:03Z</time></trkpt>
<trkpt lat="23.253074" lon="111.597286">
<time>2015-09-27T11:22:04Z</time></trkpt>
<trkpt lat="23.253224" lon="111.596946">
<time>2015-09-27T11:22:05Z</time></trkpt>
<trkpt lat="23.253244" lon="111.596886">
<time>2015-09-27T11:22:06Z</time></trkpt>
<trkpt lat="23.253394" lon="111.596536">
<time>2015-09-27T11:22:07Z</time></trkpt>
<trkpt lat="23.254264" lon="111.594557">
<time>2015-09-27T11:22:08Z</time></trkpt>
<trkpt lat="23.254354" lon="111.594357">
<time>2015-09-27T11:22:09Z</time></trkpt>
<trkpt lat="23.254764" lon="111.593467">
<time>2015-09-27T11:22:10Z</time></trkpt>
<trkpt lat="23.254904" lon="111.593197">
<time>2015-09-27T11:22:11Z</time></trkpt>
<trkpt lat="23.255144" lon="111.592837">
<time>2015-09-27T11:22:12Z</time></trkpt>
<trkpt lat="23.255384" lon="111.592507">
<time>2015-09-27T11:22:13Z</time></trkpt>
<trkpt lat="23.255854" lon="111.591887">
<time>2015-09-27T11:22:14Z</time></trkpt>
<trkpt lat="23.256374" lon="111.591207">
<time>2015-09-27T11:22:15Z</time></trkpt>
<trkpt lat="23.257143" lon="111.590188">
<time>2015-09-27T11:22:16Z</time></trkpt>
<trkpt lat="23.259182" lon="111.587567">
<time>2015-09-27T11:22:17Z</time></trkpt>
<trkpt lat="23.26273" lon="111.583007">
<time>2015-09-27T11:22:18Z</time></trkpt>
<trkpt lat="23.26274" lon="111.582987">
<time>2015-09-27T11:22:19Z</time></trkpt>
<trkpt lat="23.26282" lon="111.582897">
<time>2015-09-27T11:22:20Z</time></trkpt>
<trkpt lat="23.265157" lon="111.579856">
<time>2015-09-27T11:22:21Z</time></trkpt>
<trkpt lat="23.265757" lon="111.579095">
<time>2015-09-27T11:22:22Z</time></trkpt>
<trkpt lat="23.265827" lon="111.579005">
<time>2015-09-27T11:22:23Z</time></trkpt>
<trkpt lat="23.265946" lon="111.578865">
<time>2015-09-27T11:22:24Z</time></trkpt>
<trkpt lat="23.266076" lon="111.578745">
<time>2015-09-27T11:22:25Z</time></trkpt>
<trkpt lat="23.266226" lon="111.578635">
<time>2015-09-27T11:22:26Z</time></trkpt>
<trkpt lat="23.266376" lon="111.578545">
<time>2015-09-27T11:22:27Z</time></trkpt>
<trkpt lat="23.266626" lon="111.578415">
<time>2015-09-27T11:22:28Z</time></trkpt>
<trkpt lat="23.266986" lon="111.578265">
<time>2015-09-27T11:22:29Z</time></trkpt>
<trkpt lat="23.267545" lon="111.578105">
<time>2015-09-27T11:22:30Z</time></trkpt>
<trkpt lat="23.269544" lon="111.577544">
<time>2015-09-27T11:22:31Z</time></trkpt>
<trkpt lat="23.270154" lon="111.577404">
<time>2015-09-27T11:22:32Z</time></trkpt>
<trkpt lat="23.270164" lon="111.577394">
<time>2015-09-27T11:22:33Z</time></trkpt>
<trkpt lat="23.271504" lon="111.577094">
<time>2015-09-27T11:22:34Z</time></trkpt>
<trkpt lat="23.271843" lon="111.577004">
<time>2015-09-27T11:22:35Z</time></trkpt>
<trkpt lat="23.272133" lon="111.576904">
<time>2015-09-27T11:22:36Z</time></trkpt>
<trkpt lat="23.272443" lon="111.576794">
<time>2015-09-27T11:22:37Z</time></trkpt>
<trkpt lat="23.272793" lon="111.576664">
<time>2015-09-27T11:22:38Z</time></trkpt>
<trkpt lat="23.273652" lon="111.576333">
<time>2015-09-27T11:22:39Z</time></trkpt>
<trkpt lat="23.273662" lon="111.576333">
<time>2015-09-27T11:22:40Z</time></trkpt>
<trkpt lat="23.274552" lon="111.575903">
<time>2015-09-27T11:22:41Z</time></trkpt>
<trkpt lat="23.275501" lon="111.575373">
<time>2015-09-27T11:22:42Z</time></trkpt>
<trkpt lat="23.277929" lon="111.574092">
<time>2015-09-27T11:22:43Z</time></trkpt>
<trkpt lat="23.278319" lon="111.573872">
<time>2015-09-27T11:22:44Z</time></trkpt>
<trkpt lat="23.279958" lon="111.572941">
<time>2015-09-27T11:22:45Z</time></trkpt>
<trkpt lat="23.280387" lon="111.572671">
<time>2015-09-27T11:22:46Z</time></trkpt>
<trkpt lat="23.282316" lon="111.57147">
<time>2015-09-27T11:22:47Z</time></trkpt>
<trkpt lat="23.282795" lon="111.571129">
<time>2015-09-27T11:22:48Z</time></trkpt>
<trkpt lat="23.283255" lon="111.570739">
<time>2015-09-27T11:22:49Z</time></trkpt>
<trkpt lat="23.283654" lon="111.570389">
<time>2015-09-27T11:22:50Z</time></trkpt>
<trkpt lat="23.283944" lon="111.570108">
<time>2015-09-27T11:22:51Z</time></trkpt>
<trkpt lat="23.284144" lon="111.569918">
<time>2015-09-27T11:22:52Z</time></trkpt>
<trkpt lat="23.285052" lon="111.568967">
<time>2015-09-27T11:22:53Z</time></trkpt>
<trkpt lat="23.286191" lon="111.567846">
<time>2015-09-27T11:22:54Z</time></trkpt>
<trkpt lat="23.28659" lon="111.567506">
<time>2015-09-27T11:22:55Z</time></trkpt>
<trkpt lat="23.28691" lon="111.567306">
<time>2015-09-27T11:22:56Z</time></trkpt>
<trkpt lat="23.28728" lon="111.567135">
<time>2015-09-27T11:22:57Z</time></trkpt>
<trkpt lat="23.287649" lon="111.566985">
<time>2015-09-27T11:22:58Z</time></trkpt>
<trkpt lat="23.288119" lon="111.566805">
<time>2015-09-27T11:22:59Z</time></trkpt>
<trkpt lat="23.289528" lon="111.566314">
<time>2015-09-27T11:23:00Z</time></trkpt>
<trkpt lat="23.290687" lon="111.565874">
<time>2015-09-27T11:23:01Z</time></trkpt>
<trkpt lat="23.290987" lon="111.565744">
<time>2015-09-27T11:23:02Z</time></trkpt>
<trkpt lat="23.291317" lon="111.565533">
<time>2015-09-27T11:23:03Z</time></trkpt>
<trkpt lat="23.291536" lon="111.565353">
<time>2015-09-27T11:23:04Z</time></trkpt>
<trkpt lat="23.291776" lon="111.565103">
<time>2015-09-27T11:23:05Z</time></trkpt>
<trkpt lat="23.292175" lon="111.564632">
<time>2015-09-27T11:23:06Z</time></trkpt>
<trkpt lat="23.292235" lon="111.564572">
<time>2015-09-27T11:23:07Z</time></trkpt>
<trkpt lat="23.292734" lon="111.563962">
<time>2015-09-27T11:23:08Z</time></trkpt>
<trkpt lat="23.293223" lon="111.563311">
<time>2015-09-27T11:23:09Z</time></trkpt>
<trkpt lat="23.293652" lon="111.56271">
<time>2015-09-27T11:23:10Z</time></trkpt>
<trkpt lat="23.294011" lon="111.562019">
<time>2015-09-27T11:23:11Z</time></trkpt>
<trkpt lat="23.29435" lon="111.561228">
<time>2015-09-27T11:23:12Z</time></trkpt>
<trkpt lat="23.29438" lon="111.561168">
<time>2015-09-27T11:23:13Z</time></trkpt>
<trkpt lat="23.294749" lon="111.560367">
<time>2015-09-27T11:23:14Z</time></trkpt>
<trkpt lat="23.294988" lon="111.559957">
<time>2015-09-27T11:23:15Z</time></trkpt>
<trkpt lat="23.295138" lon="111.559756">
<time>2015-09-27T11:23:16Z</time></trkpt>
<trkpt lat="23.295278" lon="111.559586">
<time>2015-09-27T11:23:17Z</time></trkpt>
<trkpt lat="23.295397" lon="111.559466">
<time>2015-09-27T11:23:18Z</time></trkpt>
<trkpt lat="23.295537" lon="111.559346">
<time>2015-09-27T11:23:19Z</time></trkpt>
<trkpt lat="23.295847" lon="111.559085">
<time>2015-09-27T11:23:20Z</time></trkpt>
<trkpt lat="23.296825" lon="111.558384">
<time>2015-09-27T11:23:21Z</time></trkpt>
<trkpt lat="23.297225" lon="111.558124">
<time>2015-09-27T11:23:22Z</time></trkpt>
<trkpt lat="23.298064" lon="111.557563">
<time>2015-09-27T11:23:23Z</time></trkpt>
<trkpt lat="23.299082" lon="111.556712">
<time>2015-09-27T11:23:24Z</time></trkpt>
<trkpt lat="23.300031" lon="111.555941">
<time>2015-09-27T11:23:25Z</time></trkpt>
<trkpt lat="23.301857" lon="111.554298">
<time>2015-09-27T11:23:26Z</time></trkpt>
<trkpt lat="23.302816" lon="111.553577">
<time>2015-09-27T11:23:27Z</time></trkpt>
<trkpt lat="23.303725" lon="111.553056">
<time>2015-09-27T11:23:28Z</time></trkpt>
<trkpt lat="23.304314" lon="111.552725">
<time>2015-09-27T11:23:29Z</time></trkpt>
<trkpt lat="23.304983" lon="111.552365">
<time>2015-09-27T11:23:30Z</time></trkpt>
<trkpt lat="23.304993" lon="111.552355">
<time>2015-09-27T11:23:31Z</time></trkpt>
<trkpt lat="23.306411" lon="111.551413">
<time>2015-09-27T11:23:32Z</time></trkpt>
<trkpt lat="23.30685" lon="111.551093">
<time>2015-09-27T11:23:33Z</time></trkpt>
<trkpt lat="23.307959" lon="111.550251">
<time>2015-09-27T11:23:34Z</time></trkpt>
<trkpt lat="23.308947" lon="111.54948">
<time>2015-09-27T11:23:35Z</time></trkpt>
<trkpt lat="23.310255" lon="111.548458">
<time>2015-09-27T11:23:36Z</time></trkpt>
<trkpt lat="23.312541" lon="111.546785">
<time>2015-09-27T11:23:37Z</time></trkpt>
<trkpt lat="23.31329" lon="111.546314">
<time>2015-09-27T11:23:38Z</time></trkpt>
<trkpt lat="23.314089" lon="111.545823">
<time>2015-09-27T11:23:39Z</time></trkpt>
<trkpt lat="23.314498" lon="111.545592">
<time>2015-09-27T11:23:40Z</time></trkpt>
<trkpt lat="23.315556" lon="111.545001">
<time>2015-09-27T11:23:41Z</time></trkpt>
<trkpt lat="23.317084" lon="111.544139">
<time>2015-09-27T11:23:42Z</time></trkpt>
<trkpt lat="23.317693" lon="111.543789">
<time>2015-09-27T11:23:43Z</time></trkpt>
<trkpt lat="23.318222" lon="111.543408">
<time>2015-09-27T11:23:44Z</time></trkpt>
<trkpt lat="23.318771" lon="111.542907">
<time>2015-09-27T11:23:45Z</time></trkpt>
<trkpt lat="23.31939" lon="111.542376">
<time>2015-09-27T11:23:46Z</time></trkpt>
<trkpt lat="23.319719" lon="111.542115">
<time>2015-09-27T11:23:47Z</time></trkpt>
<trkpt lat="23.320208" lon="111.541744">
<time>2015-09-27T11:23:48Z</time></trkpt>
<trkpt lat="23.322086" lon="111.540612">
<time>2015-09-27T11:23:49Z</time></trkpt>
<trkpt lat="23.323713" lon="111.53965">
<time>2015-09-27T11:23:50Z</time></trkpt>
<trkpt lat="23.324751" lon="111.539038">
<time>2015-09-27T11:23:51Z</time></trkpt>
<trkpt lat="23.325101" lon="111.538798">
<time>2015-09-27T11:23:52Z</time></trkpt>
<trkpt lat="23.325131" lon="111.538778">
<time>2015-09-27T11:23:53Z</time></trkpt>
<trkpt lat="23.32576" lon="111.538377">
<time>2015-09-27T11:23:54Z</time></trkpt>
<trkpt lat="23.3258" lon="111.538357">
<time>2015-09-27T11:23:55Z</time></trkpt>
<trkpt lat="23.326608" lon="111.537806">
<time>2015-09-27T11:23:56Z</time></trkpt>
<trkpt lat="23.326888" lon="111.537575">
<time>2015-09-27T11:23:57Z</time></trkpt>
<trkpt lat="23.327107" lon="111.537385">
<time>2015-09-27T11:23:58Z</time></trkpt>
<trkpt lat="23.327406" lon="111.537084">
<time>2015-09-27T11:23:59Z</time></trkpt>
<trkpt lat="23.328414" lon="111.536102">
<time>2015-09-27T11:24:00Z</time></trkpt>
<trkpt lat="23.328633" lon="111.535911">
<time>2015-09-27T11:24:01Z</time></trkpt>
<trkpt lat="23.328693" lon="111.535871">
<time>2015-09-27T11:24:02Z</time></trkpt>
<trkpt lat="23.328833" lon="111.535781">
<time>2015-09-27T11:24:03Z</time></trkpt>
<trkpt lat="23.329023" lon="111.535651">
<time>2015-09-27T11:24:04Z</time></trkpt>
<trkpt lat="23.329252" lon="111.5355">
<time>2015-09-27T11:24:05Z</time></trkpt>
<trkpt lat="23.329731" lon="111.53527">
<time>2015-09-27T11:24:06Z</time></trkpt>
<trkpt lat="23.330241" lon="111.535019">
<time>2015-09-27T11:24:07Z</time></trkpt>
<trkpt lat="23.33093" lon="111.534648">
<time>2015-09-27T11:24:08Z</time></trkpt>
<trkpt lat="23.331129" lon="111.534508">
<time>2015-09-27T11:24:09Z</time></trkpt>
<trkpt lat="23.331309" lon="111.534348">
<time>2015-09-27T11:24:10Z</time></trkpt>
<trkpt lat="23.331498" lon="111.534187">
<time>2015-09-27T11:24:11Z</time></trkpt>
<trkpt lat="23.331678" lon="111.533967">
<time>2015-09-27T11:24:12Z</time></trkpt>
<trkpt lat="23.331947" lon="111.533576">
<time>2015-09-27T11:24:13Z</time></trkpt>
<trkpt lat="23.332525" lon="111.532724">
<time>2015-09-27T11:24:14Z</time></trkpt>
<trkpt lat="23.332674" lon="111.532503">
<time>2015-09-27T11:24:15Z</time></trkpt>
<trkpt lat="23.333352" lon="111.531611">
<time>2015-09-27T11:24:16Z</time></trkpt>
<trkpt lat="23.333611" lon="111.5313">
<time>2015-09-27T11:24:17Z</time></trkpt>
<trkpt lat="23.333691" lon="111.53122">
<time>2015-09-27T11:24:18Z</time></trkpt>
<trkpt lat="23.33396" lon="111.53099">
<time>2015-09-27T11:24:19Z</time></trkpt>
<trkpt lat="23.33421" lon="111.530789">
<time>2015-09-27T11:24:20Z</time></trkpt>
<trkpt lat="23.335447" lon="111.529907">
<time>2015-09-27T11:24:21Z</time></trkpt>
<trkpt lat="23.335776" lon="111.529676">
<time>2015-09-27T11:24:22Z</time></trkpt>
<trkpt lat="23.336685" lon="111.529045">
<time>2015-09-27T11:24:23Z</time></trkpt>
<trkpt lat="23.338432" lon="111.528022">
<time>2015-09-27T11:24:24Z</time></trkpt>
<trkpt lat="23.338591" lon="111.527932">
<time>2015-09-27T11:24:25Z</time></trkpt>
<trkpt lat="23.339909" lon="111.52719">
<time>2015-09-27T11:24:26Z</time></trkpt>
<trkpt lat="23.340888" lon="111.526719">
<time>2015-09-27T11:24:27Z</time></trkpt>
<trkpt lat="23.341247" lon="111.526578">
<time>2015-09-27T11:24:28Z</time></trkpt>
<trkpt lat="23.341267" lon="111.526568">
<time>2015-09-27T11:24:29Z</time></trkpt>
<trkpt lat="23.341617" lon="111.526478">
<time>2015-09-27T11:24:30Z</time></trkpt>
<trkpt lat="23.342027" lon="111.526408">
<time>2015-09-27T11:24:31Z</time></trkpt>
<trkpt lat="23.342896" lon="111.526217">
<time>2015-09-27T11:24:32Z</time></trkpt>
<trkpt lat="23.342986" lon="111.526197">
<time>2015-09-27T11:24:33Z</time></trkpt>
<trkpt lat="23.343335" lon="111.526077">
<time>2015-09-27T11:24:34Z</time></trkpt>
<trkpt lat="23.343405" lon="111.526057">
<time>2015-09-27T11:24:35Z</time></trkpt>
<trkpt lat="23.343685" lon="111.525927">
<time>2015-09-27T11:24:36Z</time></trkpt>
<trkpt lat="23.343775" lon="111.525876">
<time>2015-09-27T11:24:37Z</time></trkpt>
<trkpt lat="23.344573" lon="111.525475">
<time>2015-09-27T11:24:38Z</time></trkpt>
<trkpt lat="23.345912" lon="111.524914">
<time>2015-09-27T11:24:39Z</time></trkpt>
<trkpt lat="23.346191" lon="111.524814">
<time>2015-09-27T11:24:40Z</time></trkpt>
<trkpt lat="23.346841" lon="111.524583">
<time>2015-09-27T11:24:41Z</time></trkpt>
<trkpt lat="23.34723" lon="111.524402">
<time>2015-09-27T11:24:42Z</time></trkpt>
<trkpt lat="23.347529" lon="111.524202">
<time>2015-09-27T11:24:43Z</time></trkpt>
<trkpt lat="23.347769" lon="111.523991">
<time>2015-09-27T11:24:44Z</time></trkpt>
<trkpt lat="23.347928" lon="111.523801">
<time>2015-09-27T11:24:45Z</time></trkpt>
<trkpt lat="23.348068" lon="111.52361">
<time>2015-09-27T11:24:46Z</time></trkpt>
<trkpt lat="23.348137" lon="111.52348">
<time>2015-09-27T11:24:47Z</time></trkpt>
<trkpt lat="23.348267" lon="111.523249">
<time>2015-09-27T11:24:48Z</time></trkpt>
<trkpt lat="23.348963" lon="111.522086">
<time>2015-09-27T11:24:49Z</time></trkpt>
<trkpt lat="23.349203" lon="111.521756">
<time>2015-09-27T11:24:50Z</time></trkpt>
<trkpt lat="23.349402" lon="111.521535">
<time>2015-09-27T11:24:51Z</time></trkpt>
<trkpt lat="23.349661" lon="111.521324">
<time>2015-09-27T11:24:52Z</time></trkpt>
<trkpt lat="23.349851" lon="111.521194">
<time>2015-09-27T11:24:53Z</time></trkpt>
<trkpt lat="23.35005" lon="111.521064">
<time>2015-09-27T11:24:54Z</time></trkpt>
<trkpt lat="23.35027" lon="111.520973">
<time>2015-09-27T11:24:55Z</time></trkpt>
<trkpt lat="23.35058" lon="111.520853">
<time>2015-09-27T11:24:56Z</time></trkpt>
<trkpt lat="23.351369" lon="111.520582">
<time>2015-09-27T11:24:57Z</time></trkpt>
<trkpt lat="23.352627" lon="111.520131">
<time>2015-09-27T11:24:58Z</time></trkpt>
<trkpt lat="23.353566" lon="111.5197">
<time>2015-09-27T11:24:59Z</time></trkpt>
<trkpt lat="23.354575" lon="111.519269">
<time>2015-09-27T11:25:00Z</time></trkpt>
<trkpt lat="23.355244" lon="111.518958">
<time>2015-09-27T11:25:01Z</time></trkpt>
<trkpt lat="23.355373" lon="111.518898">
<time>2015-09-27T11:25:02Z</time></trkpt>
<trkpt lat="23.355743" lon="111.518717">
<time>2015-09-27T11:25:03Z</time></trkpt>
<trkpt lat="23.356042" lon="111.518537">
<time>2015-09-27T11:25:04Z</time></trkpt>
<trkpt lat="23.356551" lon="111.518216">
<time>2015-09-27T11:25:05Z</time></trkpt>
<trkpt lat="23.35716" lon="111.517805">
<time>2015-09-27T11:25:06Z</time></trkpt>
<trkpt lat="23.357709" lon="111.517474">
<time>2015-09-27T11:25:07Z</time></trkpt>
<trkpt lat="23.358078" lon="111.517253">
<time>2015-09-27T11:25:08Z</time></trkpt>
<trkpt lat="23.358438" lon="111.517093">
<time>2015-09-27T11:25:09Z</time></trkpt>
<trkpt lat="23.359346" lon="111.516721">
<time>2015-09-27T11:25:10Z</time></trkpt>
<trkpt lat="23.359456" lon="111.516681">
<time>2015-09-27T11:25:11Z</time></trkpt>
<trkpt lat="23.359806" lon="111.516511">
<time>2015-09-27T11:25:12Z</time></trkpt>
<trkpt lat="23.360125" lon="111.51634">
<time>2015-09-27T11:25:13Z</time></trkpt>
<trkpt lat="23.360425" lon="111.51615">
<time>2015-09-27T11:25:14Z</time></trkpt>
<trkpt lat="23.360694" lon="111.515939">
<time>2015-09-27T11:25:15Z</time></trkpt>
<trkpt lat="23.361083" lon="111.515638">
<time>2015-09-27T11:25:16Z</time></trkpt>
<trkpt lat="23.361871" lon="111.514977">
<time>2015-09-27T11:25:17Z</time></trkpt>
<trkpt lat="23.362879" lon="111.514275">
<time>2015-09-27T11:25:18Z</time></trkpt>
<trkpt lat="23.365034" lon="111.512891">
<time>2015-09-27T11:25:19Z</time></trkpt>
<trkpt lat="23.365653" lon="111.512489">
<time>2015-09-27T11:25:20Z</time></trkpt>
<trkpt lat="23.366691" lon="111.511817">
<time>2015-09-27T11:25:21Z</time></trkpt>
<trkpt lat="23.36718" lon="111.511527">
<time>2015-09-27T11:25:22Z</time></trkpt>
<trkpt lat="23.367729" lon="111.511286">
<time>2015-09-27T11:25:23Z</time></trkpt>
<trkpt lat="23.368139" lon="111.511135">
<time>2015-09-27T11:25:24Z</time></trkpt>
<trkpt lat="23.368209" lon="111.511115">
<time>2015-09-27T11:25:25Z</time></trkpt>
<trkpt lat="23.368728" lon="111.510955">
<time>2015-09-27T11:25:26Z</time></trkpt>
<trkpt lat="23.369088" lon="111.510855">
<time>2015-09-27T11:25:27Z</time></trkpt>
<trkpt lat="23.369437" lon="111.510794">
<time>2015-09-27T11:25:28Z</time></trkpt>
<trkpt lat="23.369467" lon="111.510794">
<time>2015-09-27T11:25:29Z</time></trkpt>
<trkpt lat="23.370977" lon="111.510594">
<time>2015-09-27T11:25:30Z</time></trkpt>
<trkpt lat="23.373775" lon="111.510233">
<time>2015-09-27T11:25:31Z</time></trkpt>
<trkpt lat="23.374814" lon="111.510102">
<time>2015-09-27T11:25:32Z</time></trkpt>
<trkpt lat="23.374964" lon="111.510082">
<time>2015-09-27T11:25:33Z</time></trkpt>
<trkpt lat="23.375714" lon="111.509962">
<time>2015-09-27T11:25:34Z</time></trkpt>
<trkpt lat="23.376203" lon="111.509871">
<time>2015-09-27T11:25:35Z</time></trkpt>
<trkpt lat="23.376933" lon="111.509661">
<time>2015-09-27T11:25:36Z</time></trkpt>
<trkpt lat="23.377911" lon="111.50933">
<time>2015-09-27T11:25:37Z</time></trkpt>
<trkpt lat="23.380568" lon="111.508387">
<time>2015-09-27T11:25:38Z</time></trkpt>
<trkpt lat="23.381437" lon="111.508146">
<time>2015-09-27T11:25:39Z</time></trkpt>
<trkpt lat="23.381667" lon="111.508096">
<time>2015-09-27T11:25:40Z</time></trkpt>
<trkpt lat="23.381667" lon="111.508096">
<time>2015-09-27T11:25:41Z</time></trkpt>
<trkpt lat="23.382045" lon="111.507544">
<time>2015-09-27T11:25:42Z</time></trkpt>
<trkpt lat="23.382195" lon="111.507324">
<time>2015-09-27T11:25:43Z</time></trkpt>
<trkpt lat="23.382633" lon="111.506662">
<time>2015-09-27T11:25:44Z</time></trkpt>
<trkpt lat="23.382713" lon="111.506582">
<time>2015-09-27T11:25:45Z</time></trkpt>
<trkpt lat="23.382862" lon="111.506491">
<time>2015-09-27T11:25:46Z</time></trkpt>
<trkpt lat="23.383481" lon="111.50616">
<time>2015-09-27T11:25:47Z</time></trkpt>
<trkpt lat="23.38435" lon="111.505679">
<time>2015-09-27T11:25:48Z</time></trkpt>
<trkpt lat="23.385517" lon="111.504937">
<time>2015-09-27T11:25:49Z</time></trkpt>
<trkpt lat="23.386126" lon="111.504566">
<time>2015-09-27T11:25:50Z</time></trkpt>
<trkpt lat="23.386146" lon="111.504556">
<time>2015-09-27T11:25:51Z</time></trkpt>
<trkpt lat="23.387483" lon="111.503813">
<time>2015-09-27T11:25:52Z</time></trkpt>
<trkpt lat="23.38918" lon="111.502901">
<time>2015-09-27T11:25:53Z</time></trkpt>
<trkpt lat="23.38921" lon="111.502891">
<time>2015-09-27T11:25:54Z</time></trkpt>
<trkpt lat="23.389819" lon="111.50258">
<time>2015-09-27T11:25:55Z</time></trkpt>
<trkpt lat="23.390059" lon="111.502419">
<time>2015-09-27T11:25:56Z</time></trkpt>
<trkpt lat="23.390318" lon="111.502209">
<time>2015-09-27T11:25:57Z</time></trkpt>
<trkpt lat="23.390607" lon="111.501978">
<time>2015-09-27T11:25:58Z</time></trkpt>
<trkpt lat="23.391875" lon="111.501075">
<time>2015-09-27T11:25:59Z</time></trkpt>
<trkpt lat="23.393371" lon="111.500012">
<time>2015-09-27T11:26:00Z</time></trkpt>
<trkpt lat="23.394169" lon="111.49946">
<time>2015-09-27T11:26:01Z</time></trkpt>
<trkpt lat="23.395446" lon="111.498588">
<time>2015-09-27T11:26:02Z</time></trkpt>
<trkpt lat="23.396614" lon="111.497805">
<time>2015-09-27T11:26:03Z</time></trkpt>
<trkpt lat="23.397402" lon="111.497284">
<time>2015-09-27T11:26:04Z</time></trkpt>
<trkpt lat="23.397722" lon="111.497073">
<time>2015-09-27T11:26:05Z</time></trkpt>
<trkpt lat="23.39819" lon="111.496742">
<time>2015-09-27T11:26:06Z</time></trkpt>
<trkpt lat="23.399527" lon="111.495799">
<time>2015-09-27T11:26:07Z</time></trkpt>
<trkpt lat="23.400435" lon="111.495158">
<time>2015-09-27T11:26:08Z</time></trkpt>
<trkpt lat="23.400595" lon="111.495047">
<time>2015-09-27T11:26:09Z</time></trkpt>
<trkpt lat="23.400934" lon="111.494806">
<time>2015-09-27T11:26:10Z</time></trkpt>
<trkpt lat="23.401393" lon="111.494486">
<time>2015-09-27T11:26:11Z</time></trkpt>
<trkpt lat="23.401543" lon="111.494385">
<time>2015-09-27T11:26:12Z</time></trkpt>
<trkpt lat="23.401752" lon="111.494265">
<time>2015-09-27T11:26:13Z</time></trkpt>
<trkpt lat="23.401902" lon="111.494185">
<time>2015-09-27T11:26:14Z</time></trkpt>
<trkpt lat="23.402182" lon="111.494044">
<time>2015-09-27T11:26:15Z</time></trkpt>
<trkpt lat="23.402811" lon="111.493743">
<time>2015-09-27T11:26:16Z</time></trkpt>
<trkpt lat="23.40303" lon="111.493643">
<time>2015-09-27T11:26:17Z</time></trkpt>
<trkpt lat="23.40327" lon="111.493533">
<time>2015-09-27T11:26:18Z</time></trkpt>
<trkpt lat="23.403939" lon="111.493232">
<time>2015-09-27T11:26:19Z</time></trkpt>
<trkpt lat="23.404388" lon="111.493031">
<time>2015-09-27T11:26:20Z</time></trkpt>
<trkpt lat="23.404528" lon="111.492971">
<time>2015-09-27T11:26:21Z</time></trkpt>
<trkpt lat="23.404868" lon="111.492841">
<time>2015-09-27T11:26:22Z</time></trkpt>
<trkpt lat="23.405137" lon="111.49276">
<time>2015-09-27T11:26:23Z</time></trkpt>
<trkpt lat="23.405277" lon="111.49273">
<time>2015-09-27T11:26:24Z</time></trkpt>
<trkpt lat="23.405407" lon="111.49271">
<time>2015-09-27T11:26:25Z</time></trkpt>
<trkpt lat="23.405527" lon="111.49271">
<time>2015-09-27T11:26:26Z</time></trkpt>
<trkpt lat="23.405617" lon="111.4927">
<time>2015-09-27T11:26:27Z</time></trkpt>
<trkpt lat="23.405847" lon="111.4927">
<time>2015-09-27T11:26:28Z</time></trkpt>
<trkpt lat="23.406067" lon="111.49269">
<time>2015-09-27T11:26:29Z</time></trkpt>
<trkpt lat="23.406297" lon="111.49269">
<time>2015-09-27T11:26:30Z</time></trkpt>
<trkpt lat="23.406517" lon="111.49268">
<time>2015-09-27T11:26:31Z</time></trkpt>
<trkpt lat="23.406747" lon="111.49268">
<time>2015-09-27T11:26:32Z</time></trkpt>
<trkpt lat="23.406967" lon="111.49267">
<time>2015-09-27T11:26:33Z</time></trkpt>
<trkpt lat="23.407197" lon="111.49267">
<time>2015-09-27T11:26:34Z</time></trkpt>
<trkpt lat="23.407427" lon="111.49267">
<time>2015-09-27T11:26:35Z</time></trkpt>
<trkpt lat="23.407667" lon="111.49268">
<time>2015-09-27T11:26:36Z</time></trkpt>
<trkpt lat="23.407997" lon="111.49269">
<time>2015-09-27T11:26:37Z</time></trkpt>
<trkpt lat="23.408307" lon="111.4927">
<time>2015-09-27T11:26:38Z</time></trkpt>
<trkpt lat="23.408587" lon="111.4927">
<time>2015-09-27T11:26:39Z</time></trkpt>
<trkpt lat="23.409167" lon="111.49272">
<time>2015-09-27T11:26:40Z</time></trkpt>
<trkpt lat="23.409337" lon="111.49276">
<time>2015-09-27T11:26:41Z</time></trkpt>
<trkpt lat="23.409587" lon="111.49292">
<time>2015-09-27T11:26:42Z</time></trkpt>
<trkpt lat="23.409848" lon="111.493081">
<time>2015-09-27T11:26:43Z</time></trkpt>
<trkpt lat="23.410148" lon="111.493201">
<time>2015-09-27T11:26:44Z</time></trkpt>
<trkpt lat="23.41266" lon="111.493963">
<time>2015-09-27T11:26:45Z</time></trkpt>
<trkpt lat="23.41321" lon="111.494164">
<time>2015-09-27T11:26:46Z</time></trkpt>
<trkpt lat="23.413891" lon="111.494294">
<time>2015-09-27T11:26:47Z</time></trkpt>
<trkpt lat="23.414391" lon="111.494294">
<time>2015-09-27T11:26:48Z</time></trkpt>
<trkpt lat="23.414851" lon="111.494455">
<time>2015-09-27T11:26:49Z</time></trkpt>
<trkpt lat="23.415061" lon="111.494615">
<time>2015-09-27T11:26:50Z</time></trkpt>
<trkpt lat="23.415242" lon="111.494936">
<time>2015-09-27T11:26:51Z</time></trkpt>
<trkpt lat="23.415524" lon="111.495387">
<time>2015-09-27T11:26:52Z</time></trkpt>
<trkpt lat="23.415865" lon="111.495748">
<time>2015-09-27T11:26:53Z</time></trkpt>
<trkpt lat="23.416686" lon="111.49628">
<time>2015-09-27T11:26:54Z</time></trkpt>
<trkpt lat="23.416937" lon="111.49644">
<time>2015-09-27T11:26:55Z</time></trkpt>
<trkpt lat="23.417097" lon="111.49655">
<time>2015-09-27T11:26:56Z</time></trkpt>
<trkpt lat="23.417357" lon="111.496701">
<time>2015-09-27T11:26:57Z</time></trkpt>
<trkpt lat="23.418149" lon="111.497102">
<time>2015-09-27T11:26:58Z</time></trkpt>
<trkpt lat="23.418529" lon="111.497323">
<time>2015-09-27T11:26:59Z</time></trkpt>
<trkpt lat="23.418529" lon="111.497323">
<time>2015-09-27T11:27:00Z</time></trkpt>
<trkpt lat="23.418287" lon="111.50002">
<time>2015-09-27T11:27:01Z</time></trkpt>
<trkpt lat="23.418268" lon="111.500251">
<time>2015-09-27T11:27:02Z</time></trkpt>
<trkpt lat="23.418268" lon="111.500251">
<time>2015-09-27T11:27:03Z</time></trkpt>
<trkpt lat="23.418667" lon="111.50002">
<time>2015-09-27T11:27:04Z</time></trkpt>
<trkpt lat="23.419017" lon="111.49982">
<time>2015-09-27T11:27:05Z</time></trkpt>
<trkpt lat="23.419556" lon="111.499519">
<time>2015-09-27T11:27:06Z</time></trkpt>
<trkpt lat="23.419905" lon="111.499368">
<time>2015-09-27T11:27:07Z</time></trkpt>
<trkpt lat="23.420085" lon="111.499298">
<time>2015-09-27T11:27:08Z</time></trkpt>
<trkpt lat="23.420355" lon="111.499218">
<time>2015-09-27T11:27:09Z</time></trkpt>
<trkpt lat="23.420574" lon="111.499178">
<time>2015-09-27T11:27:10Z</time></trkpt>
<trkpt lat="23.420784" lon="111.499178">
<time>2015-09-27T11:27:11Z</time></trkpt>
<trkpt lat="23.420914" lon="111.499178">
<time>2015-09-27T11:27:12Z</time></trkpt>
<trkpt lat="23.421444" lon="111.499198">
<time>2015-09-27T11:27:13Z</time></trkpt>
<trkpt lat="23.421974" lon="111.499238">
<time>2015-09-27T11:27:14Z</time></trkpt>
<trkpt lat="23.422084" lon="111.499238">
<time>2015-09-27T11:27:15Z</time></trkpt>
<trkpt lat="23.422214" lon="111.499248">
<time>2015-09-27T11:27:16Z</time></trkpt>
<trkpt lat="23.422354" lon="111.499248">
<time>2015-09-27T11:27:17Z</time></trkpt>
<trkpt lat="23.422474" lon="111.499238">
<time>2015-09-27T11:27:18Z</time></trkpt>
<trkpt lat="23.422574" lon="111.499228">
<time>2015-09-27T11:27:19Z</time></trkpt>
<trkpt lat="23.422854" lon="111.499198">
<time>2015-09-27T11:27:20Z</time></trkpt>
<trkpt lat="23.422964" lon="111.499188">
<time>2015-09-27T11:27:21Z</time></trkpt>
<trkpt lat="23.423074" lon="111.499178">
<time>2015-09-27T11:27:22Z</time></trkpt>
<trkpt lat="23.423214" lon="111.499168">
<time>2015-09-27T11:27:23Z</time></trkpt>
<trkpt lat="23.423334" lon="111.499168">
<time>2015-09-27T11:27:24Z</time></trkpt>
<trkpt lat="23.423584" lon="111.499188">
<time>2015-09-27T11:27:25Z</time></trkpt>
<trkpt lat="23.423734" lon="111.499208">
<time>2015-09-27T11:27:26Z</time></trkpt>
<trkpt lat="23.423884" lon="111.499218">
<time>2015-09-27T11:27:27Z</time></trkpt>
<trkpt lat="23.424034" lon="111.499218">
<time>2015-09-27T11:27:28Z</time></trkpt>
<trkpt lat="23.424324" lon="111.499228">
<time>2015-09-27T11:27:29Z</time></trkpt>
<trkpt lat="23.424734" lon="111.499248">
<time>2015-09-27T11:27:30Z</time></trkpt>
<trkpt lat="23.424834" lon="111.499248">
<time>2015-09-27T11:27:31Z</time></trkpt>
<trkpt lat="23.424944" lon="111.499258">
<time>2015-09-27T11:27:32Z</time></trkpt>
<trkpt lat="23.425104" lon="111.499248">
<time>2015-09-27T11:27:33Z</time></trkpt>
<trkpt lat="23.425394" lon="111.499228">
<time>2015-09-27T11:27:34Z</time></trkpt>
<trkpt lat="23.425684" lon="111.499188">
<time>2015-09-27T11:27:35Z</time></trkpt>
<trkpt lat="23.425814" lon="111.499178">
<time>2015-09-27T11:27:36Z</time></trkpt>
<trkpt lat="23.426244" lon="111.499147">
<time>2015-09-27T11:27:37Z</time></trkpt>
<trkpt lat="23.426923" lon="111.499067">
<time>2015-09-27T11:27:38Z</time></trkpt>
<trkpt lat="23.427193" lon="111.499017">
<time>2015-09-27T11:27:39Z</time></trkpt>
<trkpt lat="23.427393" lon="111.498927">
<time>2015-09-27T11:27:40Z</time></trkpt>
<trkpt lat="23.427493" lon="111.498907">
<time>2015-09-27T11:27:41Z</time></trkpt>
<trkpt lat="23.427643" lon="111.498897">
<time>2015-09-27T11:27:42Z</time></trkpt>
<trkpt lat="23.428423" lon="111.498967">
<time>2015-09-27T11:27:43Z</time></trkpt>
<trkpt lat="23.429483" lon="111.499077">
<time>2015-09-27T11:27:44Z</time></trkpt>
<trkpt lat="23.430263" lon="111.499227">
<time>2015-09-27T11:27:45Z</time></trkpt>
<trkpt lat="23.431514" lon="111.499538">
<time>2015-09-27T11:27:46Z</time></trkpt>
<trkpt lat="23.431664" lon="111.499598">
<time>2015-09-27T11:27:47Z</time></trkpt>
<trkpt lat="23.431764" lon="111.499679">
<time>2015-09-27T11:27:48Z</time></trkpt>
<trkpt lat="23.431975" lon="111.499839">
<time>2015-09-27T11:27:49Z</time></trkpt>
<trkpt lat="23.432125" lon="111.499899">
<time>2015-09-27T11:27:50Z</time></trkpt>
<trkpt lat="23.432255" lon="111.499949">
<time>2015-09-27T11:27:51Z</time></trkpt>
<trkpt lat="23.432535" lon="111.50002">
<time>2015-09-27T11:27:52Z</time></trkpt>
<trkpt lat="23.433086" lon="111.50017">
<time>2015-09-27T11:27:53Z</time></trkpt>
<trkpt lat="23.433446" lon="111.50028">
<time>2015-09-27T11:27:54Z</time></trkpt>
<trkpt lat="23.433746" lon="111.500411">
<time>2015-09-27T11:27:55Z</time></trkpt>
<trkpt lat="23.434037" lon="111.500521">
<time>2015-09-27T11:27:56Z</time></trkpt>
<trkpt lat="23.434397" lon="111.500691">
<time>2015-09-27T11:27:57Z</time></trkpt>
<trkpt lat="23.435238" lon="111.501143">
<time>2015-09-27T11:27:58Z</time></trkpt>
<trkpt lat="23.43618" lon="111.501594">
<time>2015-09-27T11:27:59Z</time></trkpt>
<trkpt lat="23.43652" lon="111.501734">
<time>2015-09-27T11:28:00Z</time></trkpt>
<trkpt lat="23.43689" lon="111.501835">
<time>2015-09-27T11:28:01Z</time></trkpt>
<trkpt lat="23.4371" lon="111.501885">
<time>2015-09-27T11:28:02Z</time></trkpt>
<trkpt lat="23.437231" lon="111.501955">
<time>2015-09-27T11:28:03Z</time></trkpt>
<trkpt lat="23.437421" lon="111.502075">
<time>2015-09-27T11:28:04Z</time></trkpt>
<trkpt lat="23.437561" lon="111.502196">
<time>2015-09-27T11:28:05Z</time></trkpt>
<trkpt lat="23.437752" lon="111.502426">
<time>2015-09-27T11:28:06Z</time></trkpt>
<trkpt lat="23.437752" lon="111.502426">
<time>2015-09-27T11:28:07Z</time></trkpt>
<trkpt lat="23.437812" lon="111.502436">
<time>2015-09-27T11:28:08Z</time></trkpt>
<trkpt lat="23.437852" lon="111.502446">
<time>2015-09-27T11:28:09Z</time></trkpt>
<trkpt lat="23.437892" lon="111.502446">
<time>2015-09-27T11:28:10Z</time></trkpt>
<trkpt lat="23.437922" lon="111.502446">
<time>2015-09-27T11:28:11Z</time></trkpt>
<trkpt lat="23.437952" lon="111.502446">
<time>2015-09-27T11:28:12Z</time></trkpt>
<trkpt lat="23.438002" lon="111.502436">
<time>2015-09-27T11:28:13Z</time></trkpt>
<trkpt lat="23.438002" lon="111.502436">
<time>2015-09-27T11:28:14Z</time></trkpt>
<trkpt lat="23.438082" lon="111.502316">
<time>2015-09-27T11:28:15Z</time></trkpt>
<trkpt lat="23.438111" lon="111.502226">
<time>2015-09-27T11:28:16Z</time></trkpt>
<trkpt lat="23.438111" lon="111.502226">
<time>2015-09-27T11:28:17Z</time></trkpt>
<trkpt lat="23.438141" lon="111.502145">
<time>2015-09-27T11:28:18Z</time></trkpt>
<trkpt lat="23.438615" lon="111.500019">
<time>2015-09-27T11:28:19Z</time></trkpt>
<trkpt lat="23.438694" lon="111.499648">
<time>2015-09-27T11:28:20Z</time></trkpt>
<trkpt lat="23.438841" lon="111.498916">
<time>2015-09-27T11:28:21Z</time></trkpt>
<trkpt lat="23.438861" lon="111.498846">
<time>2015-09-27T11:28:22Z</time></trkpt>
<trkpt lat="23.438911" lon="111.498655">
<time>2015-09-27T11:28:23Z</time></trkpt>
<trkpt lat="23.439069" lon="111.498224">
<time>2015-09-27T11:28:24Z</time></trkpt>
<trkpt lat="23.439139" lon="111.497973">
<time>2015-09-27T11:28:25Z</time></trkpt>
<trkpt lat="23.439238" lon="111.497712">
<time>2015-09-27T11:28:26Z</time></trkpt>
<trkpt lat="23.439327" lon="111.497462">
<time>2015-09-27T11:28:27Z</time></trkpt>
<trkpt lat="23.439466" lon="111.497181">
<time>2015-09-27T11:28:28Z</time></trkpt>
<trkpt lat="23.439546" lon="111.49705">
<time>2015-09-27T11:28:29Z</time></trkpt>
<trkpt lat="23.439566" lon="111.49703">
<time>2015-09-27T11:28:30Z</time></trkpt>
<trkpt lat="23.439596" lon="111.49699">
<time>2015-09-27T11:28:31Z</time></trkpt>
<trkpt lat="23.439655" lon="111.49694">
<time>2015-09-27T11:28:32Z</time></trkpt>
<trkpt lat="23.439705" lon="111.49689">
<time>2015-09-27T11:28:33Z</time></trkpt>
<trkpt lat="23.439865" lon="111.49678">
<time>2015-09-27T11:28:34Z</time></trkpt>
<trkpt lat="23.440064" lon="111.496669">
<time>2015-09-27T11:28:35Z</time></trkpt>
<trkpt lat="23.440164" lon="111.496619">
<time>2015-09-27T11:28:36Z</time></trkpt>
<trkpt lat="23.440224" lon="111.496589">
<time>2015-09-27T11:28:37Z</time></trkpt>
<trkpt lat="23.440304" lon="111.496529">
<time>2015-09-27T11:28:38Z</time></trkpt>
<trkpt lat="23.440404" lon="111.496439">
<time>2015-09-27T11:28:39Z</time></trkpt>
<trkpt lat="23.440473" lon="111.496348">
<time>2015-09-27T11:28:40Z</time></trkpt>
<trkpt lat="23.440513" lon="111.496258">
<time>2015-09-27T11:28:41Z</time></trkpt>
<trkpt lat="23.440533" lon="111.496218">
<time>2015-09-27T11:28:42Z</time></trkpt>
<trkpt lat="23.440543" lon="111.496158">
<time>2015-09-27T11:28:43Z</time></trkpt>
<trkpt lat="23.440553" lon="111.496128">
<time>2015-09-27T11:28:44Z</time></trkpt>
<trkpt lat="23.440553" lon="111.496088">
<time>2015-09-27T11:28:45Z</time></trkpt>
<trkpt lat="23.440562" lon="111.495877">
<time>2015-09-27T11:28:46Z</time></trkpt>
<trkpt lat="23.440571" lon="111.495446">
<time>2015-09-27T11:28:47Z</time></trkpt>
<trkpt lat="23.44057" lon="111.495225">
<time>2015-09-27T11:28:48Z</time></trkpt>
<trkpt lat="23.440579" lon="111.494924">
<time>2015-09-27T11:28:49Z</time></trkpt>
<trkpt lat="23.440579" lon="111.494924">
<time>2015-09-27T11:28:50Z</time></trkpt>
<trkpt lat="23.440639" lon="111.494894">
<time>2015-09-27T11:28:51Z</time></trkpt>
<trkpt lat="23.440789" lon="111.494814">
<time>2015-09-27T11:28:52Z</time></trkpt>
<trkpt lat="23.441228" lon="111.494613">
<time>2015-09-27T11:28:53Z</time></trkpt>
<trkpt lat="23.441438" lon="111.494513">
<time>2015-09-27T11:28:54Z</time></trkpt>
<trkpt lat="23.441727" lon="111.494353">
<time>2015-09-27T11:28:55Z</time></trkpt>
<trkpt lat="23.441867" lon="111.494272">
<time>2015-09-27T11:28:56Z</time></trkpt>
<trkpt lat="23.441977" lon="111.494172">
<time>2015-09-27T11:28:57Z</time></trkpt>
<trkpt lat="23.442106" lon="111.494062">
<time>2015-09-27T11:28:58Z</time></trkpt>
<trkpt lat="23.442146" lon="111.494012">
<time>2015-09-27T11:28:59Z</time></trkpt>
<trkpt lat="23.442196" lon="111.493941">
<time>2015-09-27T11:29:00Z</time></trkpt>
<trkpt lat="23.442286" lon="111.493841">
<time>2015-09-27T11:29:01Z</time></trkpt>
<trkpt lat="23.442425" lon="111.49366">
<time>2015-09-27T11:29:02Z</time></trkpt>
<trkpt lat="23.442425" lon="111.49365">
<time>2015-09-27T11:29:03Z</time></trkpt>
<trkpt lat="23.442665" lon="111.49346">
<time>2015-09-27T11:29:04Z</time></trkpt>
<trkpt lat="23.443133" lon="111.493119">
<time>2015-09-27T11:29:05Z</time></trkpt>
<trkpt lat="23.443283" lon="111.493019">
<time>2015-09-27T11:29:06Z</time></trkpt>
<trkpt lat="23.443433" lon="111.492928">
<time>2015-09-27T11:29:07Z</time></trkpt>
<trkpt lat="23.443692" lon="111.492778">
<time>2015-09-27T11:29:08Z</time></trkpt>
<trkpt lat="23.444002" lon="111.492647">
<time>2015-09-27T11:29:09Z</time></trkpt>
<trkpt lat="23.444322" lon="111.492537">
<time>2015-09-27T11:29:10Z</time></trkpt>
<trkpt lat="23.444821" lon="111.492357">
<time>2015-09-27T11:29:11Z</time></trkpt>
<trkpt lat="23.445001" lon="111.492246">
<time>2015-09-27T11:29:12Z</time></trkpt>
<trkpt lat="23.4452" lon="111.492086">
<time>2015-09-27T11:29:13Z</time></trkpt>
<trkpt lat="23.44526" lon="111.492016">
<time>2015-09-27T11:29:14Z</time></trkpt>
<trkpt lat="23.445519" lon="111.491745">
<time>2015-09-27T11:29:15Z</time></trkpt>
<trkpt lat="23.445649" lon="111.491594">
<time>2015-09-27T11:29:16Z</time></trkpt>
<trkpt lat="23.445928" lon="111.491283">
<time>2015-09-27T11:29:17Z</time></trkpt>
<trkpt lat="23.446087" lon="111.491103">
<time>2015-09-27T11:29:18Z</time></trkpt>
<trkpt lat="23.446217" lon="111.490962">
<time>2015-09-27T11:29:19Z</time></trkpt>
<trkpt lat="23.446795" lon="111.490501">
<time>2015-09-27T11:29:20Z</time></trkpt>
<trkpt lat="23.447484" lon="111.48998">
<time>2015-09-27T11:29:21Z</time></trkpt>
<trkpt lat="23.448511" lon="111.489247">
<time>2015-09-27T11:29:22Z</time></trkpt>
<trkpt lat="23.449589" lon="111.488495">
<time>2015-09-27T11:29:23Z</time></trkpt>
<trkpt lat="23.450267" lon="111.488014">
<time>2015-09-27T11:29:24Z</time></trkpt>
<trkpt lat="23.450357" lon="111.487943">
<time>2015-09-27T11:29:25Z</time></trkpt>
<trkpt lat="23.450617" lon="111.487773">
<time>2015-09-27T11:29:26Z</time></trkpt>
<trkpt lat="23.450846" lon="111.487613">
<time>2015-09-27T11:29:27Z</time></trkpt>
<trkpt lat="23.450876" lon="111.487592">
<time>2015-09-27T11:29:28Z</time></trkpt>
<trkpt lat="23.451066" lon="111.487462">
<time>2015-09-27T11:29:29Z</time></trkpt>
<trkpt lat="23.451295" lon="111.487282">
<time>2015-09-27T11:29:30Z</time></trkpt>
<trkpt lat="23.451485" lon="111.487121">
<time>2015-09-27T11:29:31Z</time></trkpt>
<trkpt lat="23.451624" lon="111.486931">
<time>2015-09-27T11:29:32Z</time></trkpt>
<trkpt lat="23.452022" lon="111.486399">
<time>2015-09-27T11:29:33Z</time></trkpt>
<trkpt lat="23.452341" lon="111.485998">
<time>2015-09-27T11:29:34Z</time></trkpt>
<trkpt lat="23.45277" lon="111.485446">
<time>2015-09-27T11:29:35Z</time></trkpt>
<trkpt lat="23.45277" lon="111.485446">
<time>2015-09-27T11:29:36Z</time></trkpt>
<trkpt lat="23.452899" lon="111.485236">
<time>2015-09-27T11:29:37Z</time></trkpt>
<trkpt lat="23.453576" lon="111.484313">
<time>2015-09-27T11:29:38Z</time></trkpt>
<trkpt lat="23.454452" lon="111.482969">
<time>2015-09-27T11:29:39Z</time></trkpt>
<trkpt lat="23.455666" lon="111.480933">
<time>2015-09-27T11:29:40Z</time></trkpt>
<trkpt lat="23.456034" lon="111.480322">
<time>2015-09-27T11:29:41Z</time></trkpt>
<trkpt lat="23.457596" lon="111.477664">
<time>2015-09-27T11:29:42Z</time></trkpt>
<trkpt lat="23.458293" lon="111.476501">
<time>2015-09-27T11:29:43Z</time></trkpt>
<trkpt lat="23.459198" lon="111.474896">
<time>2015-09-27T11:29:44Z</time></trkpt>
<trkpt lat="23.459655" lon="111.473954">
<time>2015-09-27T11:29:45Z</time></trkpt>
<trkpt lat="23.459973" lon="111.473212">
<time>2015-09-27T11:29:46Z</time></trkpt>
<trkpt lat="23.460152" lon="111.472751">
<time>2015-09-27T11:29:47Z</time></trkpt>
<trkpt lat="23.460291" lon="111.47232">
<time>2015-09-27T11:29:48Z</time></trkpt>
<trkpt lat="23.4604" lon="111.471969">
<time>2015-09-27T11:29:49Z</time></trkpt>
<trkpt lat="23.460766" lon="111.470515">
<time>2015-09-27T11:29:50Z</time></trkpt>
<trkpt lat="23.461626" lon="111.466966">
<time>2015-09-27T11:29:51Z</time></trkpt>
<trkpt lat="23.4622" lon="111.4646">
<time>2015-09-27T11:29:52Z</time></trkpt>
<trkpt lat="23.462546" lon="111.463216">
<time>2015-09-27T11:29:53Z</time></trkpt>
<trkpt lat="23.462675" lon="111.462725">
<time>2015-09-27T11:29:54Z</time></trkpt>
<trkpt lat="23.462794" lon="111.462384">
<time>2015-09-27T11:29:55Z</time></trkpt>
<trkpt lat="23.462923" lon="111.462114">
<time>2015-09-27T11:29:56Z</time></trkpt>
<trkpt lat="23.463042" lon="111.461913">
<time>2015-09-27T11:29:57Z</time></trkpt>
<trkpt lat="23.463222" lon="111.461602">
<time>2015-09-27T11:29:58Z</time></trkpt>
<trkpt lat="23.46368" lon="111.461041">
<time>2015-09-27T11:29:59Z</time></trkpt>
<trkpt lat="23.46375" lon="111.460951">
<time>2015-09-27T11:30:00Z</time></trkpt>
<trkpt lat="23.46379" lon="111.460901">
<time>2015-09-27T11:30:01Z</time></trkpt>
<trkpt lat="23.464019" lon="111.46061">
<time>2015-09-27T11:30:02Z</time></trkpt>
<trkpt lat="23.464178" lon="111.460379">
<time>2015-09-27T11:30:03Z</time></trkpt>
<trkpt lat="23.464408" lon="111.460029">
<time>2015-09-27T11:30:04Z</time></trkpt>
<trkpt lat="23.464587" lon="111.459668">
<time>2015-09-27T11:30:05Z</time></trkpt>
<trkpt lat="23.464716" lon="111.459357">
<time>2015-09-27T11:30:06Z</time></trkpt>
<trkpt lat="23.464835" lon="111.458966">
<time>2015-09-27T11:30:07Z</time></trkpt>
<trkpt lat="23.464933" lon="111.458415">
<time>2015-09-27T11:30:08Z</time></trkpt>
<trkpt lat="23.465012" lon="111.457783">
<time>2015-09-27T11:30:09Z</time></trkpt>
<trkpt lat="23.465022" lon="111.457693">
<time>2015-09-27T11:30:10Z</time></trkpt>
<trkpt lat="23.465041" lon="111.457332">
<time>2015-09-27T11:30:11Z</time></trkpt>
<trkpt lat="23.465109" lon="111.456491">
<time>2015-09-27T11:30:12Z</time></trkpt>
<trkpt lat="23.465148" lon="111.45602">
<time>2015-09-27T11:30:13Z</time></trkpt>
<trkpt lat="23.465197" lon="111.455719">
<time>2015-09-27T11:30:14Z</time></trkpt>
<trkpt lat="23.465286" lon="111.455318">
<time>2015-09-27T11:30:15Z</time></trkpt>
<trkpt lat="23.465395" lon="111.454927">
<time>2015-09-27T11:30:16Z</time></trkpt>
<trkpt lat="23.465514" lon="111.454626">
<time>2015-09-27T11:30:17Z</time></trkpt>
<trkpt lat="23.466021" lon="111.453414">
<time>2015-09-27T11:30:18Z</time></trkpt>
<trkpt lat="23.466161" lon="111.453073">
<time>2015-09-27T11:30:19Z</time></trkpt>
<trkpt lat="23.46624" lon="111.452783">
<time>2015-09-27T11:30:20Z</time></trkpt>
<trkpt lat="23.466289" lon="111.452492">
<time>2015-09-27T11:30:21Z</time></trkpt>
<trkpt lat="23.466299" lon="111.452261">
<time>2015-09-27T11:30:22Z</time></trkpt>
<trkpt lat="23.466278" lon="111.451851">
<time>2015-09-27T11:30:23Z</time></trkpt>
<trkpt lat="23.466247" lon="111.4515">
<time>2015-09-27T11:30:24Z</time></trkpt>
<trkpt lat="23.466256" lon="111.451239">
<time>2015-09-27T11:30:25Z</time></trkpt>
<trkpt lat="23.466326" lon="111.450999">
<time>2015-09-27T11:30:26Z</time></trkpt>
<trkpt lat="23.466385" lon="111.450859">
<time>2015-09-27T11:30:27Z</time></trkpt>
<trkpt lat="23.466475" lon="111.450668">
<time>2015-09-27T11:30:28Z</time></trkpt>
<trkpt lat="23.466585" lon="111.450498">
<time>2015-09-27T11:30:29Z</time></trkpt>
<trkpt lat="23.466814" lon="111.450277">
<time>2015-09-27T11:30:30Z</time></trkpt>
<trkpt lat="23.467034" lon="111.450037">
<time>2015-09-27T11:30:31Z</time></trkpt>
<trkpt lat="23.467203" lon="111.449826">
<time>2015-09-27T11:30:32Z</time></trkpt>
<trkpt lat="23.467323" lon="111.449646">
<time>2015-09-27T11:30:33Z</time></trkpt>
<trkpt lat="23.467402" lon="111.449476">
<time>2015-09-27T11:30:34Z</time></trkpt>
<trkpt lat="23.467482" lon="111.449255">
<time>2015-09-27T11:30:35Z</time></trkpt>
<trkpt lat="23.467641" lon="111.448714">
<time>2015-09-27T11:30:36Z</time></trkpt>
<trkpt lat="23.467889" lon="111.447893">
<time>2015-09-27T11:30:37Z</time></trkpt>
<trkpt lat="23.467978" lon="111.447612">
<time>2015-09-27T11:30:38Z</time></trkpt>
<trkpt lat="23.468107" lon="111.447181">
<time>2015-09-27T11:30:39Z</time></trkpt>
<trkpt lat="23.468246" lon="111.44665">
<time>2015-09-27T11:30:40Z</time></trkpt>
<trkpt lat="23.468285" lon="111.44627">
<time>2015-09-27T11:30:41Z</time></trkpt>
<trkpt lat="23.468275" lon="111.446009">
<time>2015-09-27T11:30:42Z</time></trkpt>
<trkpt lat="23.468244" lon="111.445638">
<time>2015-09-27T11:30:43Z</time></trkpt>
<trkpt lat="23.468213" lon="111.445218">
<time>2015-09-27T11:30:44Z</time></trkpt>
<trkpt lat="23.468212" lon="111.444847">
<time>2015-09-27T11:30:45Z</time></trkpt>
<trkpt lat="23.468251" lon="111.444346">
<time>2015-09-27T11:30:46Z</time></trkpt>
<trkpt lat="23.468359" lon="111.443374">
<time>2015-09-27T11:30:47Z</time></trkpt>
<trkpt lat="23.468418" lon="111.442944">
<time>2015-09-27T11:30:48Z</time></trkpt>
<trkpt lat="23.468477" lon="111.442423">
<time>2015-09-27T11:30:49Z</time></trkpt>
<trkpt lat="23.468537" lon="111.441942">
<time>2015-09-27T11:30:50Z</time></trkpt>
<trkpt lat="23.468606" lon="111.441632">
<time>2015-09-27T11:30:51Z</time></trkpt>
<trkpt lat="23.468695" lon="111.441331">
<time>2015-09-27T11:30:52Z</time></trkpt>
<trkpt lat="23.468805" lon="111.441021">
<time>2015-09-27T11:30:53Z</time></trkpt>
<trkpt lat="23.469014" lon="111.44053">
<time>2015-09-27T11:30:54Z</time></trkpt>
<trkpt lat="23.469263" lon="111.439939">
<time>2015-09-27T11:30:55Z</time></trkpt>
<trkpt lat="23.469482" lon="111.439418">
<time>2015-09-27T11:30:56Z</time></trkpt>
<trkpt lat="23.469601" lon="111.439117">
<time>2015-09-27T11:30:57Z</time></trkpt>
<trkpt lat="23.469671" lon="111.438897">
<time>2015-09-27T11:30:58Z</time></trkpt>
<trkpt lat="23.46972" lon="111.438677">
<time>2015-09-27T11:30:59Z</time></trkpt>
<trkpt lat="23.46974" lon="111.438416">
<time>2015-09-27T11:31:00Z</time></trkpt>
<trkpt lat="23.469779" lon="111.437846">
<time>2015-09-27T11:31:01Z</time></trkpt>
<trkpt lat="23.469797" lon="111.436594">
<time>2015-09-27T11:31:02Z</time></trkpt>
<trkpt lat="23.469845" lon="111.435823">
<time>2015-09-27T11:31:03Z</time></trkpt>
<trkpt lat="23.469885" lon="111.435532">
<time>2015-09-27T11:31:04Z</time></trkpt>
<trkpt lat="23.469924" lon="111.435322">
<time>2015-09-27T11:31:05Z</time></trkpt>
<trkpt lat="23.470014" lon="111.435011">
<time>2015-09-27T11:31:06Z</time></trkpt>
<trkpt lat="23.470203" lon="111.434431">
<time>2015-09-27T11:31:07Z</time></trkpt>
<trkpt lat="23.470372" lon="111.43395">
<time>2015-09-27T11:31:08Z</time></trkpt>
<trkpt lat="23.470422" lon="111.43369">
<time>2015-09-27T11:31:09Z</time></trkpt>
<trkpt lat="23.470461" lon="111.433429">
<time>2015-09-27T11:31:10Z</time></trkpt>
<trkpt lat="23.470471" lon="111.433129">
<time>2015-09-27T11:31:11Z</time></trkpt>
<trkpt lat="23.47047" lon="111.432758">
<time>2015-09-27T11:31:12Z</time></trkpt>
<trkpt lat="23.47049" lon="111.432478">
<time>2015-09-27T11:31:13Z</time></trkpt>
<trkpt lat="23.470529" lon="111.432168">
<time>2015-09-27T11:31:14Z</time></trkpt>
<trkpt lat="23.470599" lon="111.431917">
<time>2015-09-27T11:31:15Z</time></trkpt>
<trkpt lat="23.470659" lon="111.431737">
<time>2015-09-27T11:31:16Z</time></trkpt>
<trkpt lat="23.470758" lon="111.431527">
<time>2015-09-27T11:31:17Z</time></trkpt>
<trkpt lat="23.471277" lon="111.430716">
<time>2015-09-27T11:31:18Z</time></trkpt>
<trkpt lat="23.471526" lon="111.430346">
<time>2015-09-27T11:31:19Z</time></trkpt>
<trkpt lat="23.471556" lon="111.430305">
<time>2015-09-27T11:31:20Z</time></trkpt>
<trkpt lat="23.471806" lon="111.429905">
<time>2015-09-27T11:31:21Z</time></trkpt>
<trkpt lat="23.472035" lon="111.429555">
<time>2015-09-27T11:31:22Z</time></trkpt>
<trkpt lat="23.472155" lon="111.429304">
<time>2015-09-27T11:31:23Z</time></trkpt>
<trkpt lat="23.472255" lon="111.429084">
<time>2015-09-27T11:31:24Z</time></trkpt>
<trkpt lat="23.472354" lon="111.428804">
<time>2015-09-27T11:31:25Z</time></trkpt>
<trkpt lat="23.472444" lon="111.428553">
<time>2015-09-27T11:31:26Z</time></trkpt>
<trkpt lat="23.472543" lon="111.428193">
<time>2015-09-27T11:31:27Z</time></trkpt>
<trkpt lat="23.472623" lon="111.427743">
<time>2015-09-27T11:31:28Z</time></trkpt>
<trkpt lat="23.472692" lon="111.427202">
<time>2015-09-27T11:31:29Z</time></trkpt>
<trkpt lat="23.472701" lon="111.426752">
<time>2015-09-27T11:31:30Z</time></trkpt>
<trkpt lat="23.472701" lon="111.426241">
<time>2015-09-27T11:31:31Z</time></trkpt>
<trkpt lat="23.47275" lon="111.425731">
<time>2015-09-27T11:31:32Z</time></trkpt>
<trkpt lat="23.47279" lon="111.42544">
<time>2015-09-27T11:31:33Z</time></trkpt>
<trkpt lat="23.472889" lon="111.42506">
<time>2015-09-27T11:31:34Z</time></trkpt>
<trkpt lat="23.472989" lon="111.42473">
<time>2015-09-27T11:31:35Z</time></trkpt>
<trkpt lat="23.473198" lon="111.424159">
<time>2015-09-27T11:31:36Z</time></trkpt>
<trkpt lat="23.473308" lon="111.423879">
<time>2015-09-27T11:31:37Z</time></trkpt>
<trkpt lat="23.473557" lon="111.423298">
<time>2015-09-27T11:31:38Z</time></trkpt>
<trkpt lat="23.473706" lon="111.422948">
<time>2015-09-27T11:31:39Z</time></trkpt>
<trkpt lat="23.473706" lon="111.422928">
<time>2015-09-27T11:31:40Z</time></trkpt>
<trkpt lat="23.473916" lon="111.422508">
<time>2015-09-27T11:31:41Z</time></trkpt>
<trkpt lat="23.474146" lon="111.422188">
<time>2015-09-27T11:31:42Z</time></trkpt>
<trkpt lat="23.474485" lon="111.421777">
<time>2015-09-27T11:31:43Z</time></trkpt>
<trkpt lat="23.475224" lon="111.420917">
<time>2015-09-27T11:31:44Z</time></trkpt>
<trkpt lat="23.475324" lon="111.420766">
<time>2015-09-27T11:31:45Z</time></trkpt>
<trkpt lat="23.475394" lon="111.420606">
<time>2015-09-27T11:31:46Z</time></trkpt>
<trkpt lat="23.475434" lon="111.420416">
<time>2015-09-27T11:31:47Z</time></trkpt>
<trkpt lat="23.475453" lon="111.420266">
<time>2015-09-27T11:31:48Z</time></trkpt>
<trkpt lat="23.475473" lon="111.420126">
<time>2015-09-27T11:31:49Z</time></trkpt>
<trkpt lat="23.475453" lon="111.419776">
<time>2015-09-27T11:31:50Z</time></trkpt>
<trkpt lat="23.475353" lon="111.419516">
<time>2015-09-27T11:31:51Z</time></trkpt>
<trkpt lat="23.475242" lon="111.419296">
<time>2015-09-27T11:31:52Z</time></trkpt>
<trkpt lat="23.475092" lon="111.419085">
<time>2015-09-27T11:31:53Z</time></trkpt>
<trkpt lat="23.475042" lon="111.419015">
<time>2015-09-27T11:31:54Z</time></trkpt>
<trkpt lat="23.474842" lon="111.418745">
<time>2015-09-27T11:31:55Z</time></trkpt>
<trkpt lat="23.474712" lon="111.418495">
<time>2015-09-27T11:31:56Z</time></trkpt>
<trkpt lat="23.474641" lon="111.418315">
<time>2015-09-27T11:31:57Z</time></trkpt>
<trkpt lat="23.474601" lon="111.418225">
<time>2015-09-27T11:31:58Z</time></trkpt>
<trkpt lat="23.474601" lon="111.418175">
<time>2015-09-27T11:31:59Z</time></trkpt>
<trkpt lat="23.474581" lon="111.418065">
<time>2015-09-27T11:32:00Z</time></trkpt>
<trkpt lat="23.474571" lon="111.417945">
<time>2015-09-27T11:32:01Z</time></trkpt>
<trkpt lat="23.474561" lon="111.417625">
<time>2015-09-27T11:32:02Z</time></trkpt>
<trkpt lat="23.475046" lon="111.412122">
<time>2015-09-27T11:32:03Z</time></trkpt>
<trkpt lat="23.475086" lon="111.411712">
<time>2015-09-27T11:32:04Z</time></trkpt>
<trkpt lat="23.475136" lon="111.411312">
<time>2015-09-27T11:32:05Z</time></trkpt>
<trkpt lat="23.475166" lon="111.411092">
<time>2015-09-27T11:32:06Z</time></trkpt>
<trkpt lat="23.475195" lon="111.410862">
<time>2015-09-27T11:32:07Z</time></trkpt>
<trkpt lat="23.475235" lon="111.410682">
<time>2015-09-27T11:32:08Z</time></trkpt>
<trkpt lat="23.475275" lon="111.410442">
<time>2015-09-27T11:32:09Z</time></trkpt>
<trkpt lat="23.475535" lon="111.409342">
<time>2015-09-27T11:32:10Z</time></trkpt>
<trkpt lat="23.475584" lon="111.409132">
<time>2015-09-27T11:32:11Z</time></trkpt>
<trkpt lat="23.475654" lon="111.408792">
<time>2015-09-27T11:32:12Z</time></trkpt>
<trkpt lat="23.475704" lon="111.408522">
<time>2015-09-27T11:32:13Z</time></trkpt>
<trkpt lat="23.475764" lon="111.408162">
<time>2015-09-27T11:32:14Z</time></trkpt>
<trkpt lat="23.475814" lon="111.407832">
<time>2015-09-27T11:32:15Z</time></trkpt>
<trkpt lat="23.475903" lon="111.407142">
<time>2015-09-27T11:32:16Z</time></trkpt>
<trkpt lat="23.476013" lon="111.406452">
<time>2015-09-27T11:32:17Z</time></trkpt>
<trkpt lat="23.476103" lon="111.405982">
<time>2015-09-27T11:32:18Z</time></trkpt>
<trkpt lat="23.476213" lon="111.405562">
<time>2015-09-27T11:32:19Z</time></trkpt>
<trkpt lat="23.476472" lon="111.404732">
<time>2015-09-27T11:32:20Z</time></trkpt>
<trkpt lat="23.476552" lon="111.404472">
<time>2015-09-27T11:32:21Z</time></trkpt>
<trkpt lat="23.476632" lon="111.404182">
<time>2015-09-27T11:32:22Z</time></trkpt>
<trkpt lat="23.476712" lon="111.403782">
<time>2015-09-27T11:32:23Z</time></trkpt>
<trkpt lat="23.476742" lon="111.403562">
<time>2015-09-27T11:32:24Z</time></trkpt>
<trkpt lat="23.476772" lon="111.403262">
<time>2015-09-27T11:32:25Z</time></trkpt>
<trkpt lat="23.476802" lon="111.402752">
<time>2015-09-27T11:32:26Z</time></trkpt>
<trkpt lat="23.476741" lon="111.400413">
<time>2015-09-27T11:32:27Z</time></trkpt>
<trkpt lat="23.476731" lon="111.399953">
<time>2015-09-27T11:32:28Z</time></trkpt>
<trkpt lat="23.476721" lon="111.399723">
<time>2015-09-27T11:32:29Z</time></trkpt>
<trkpt lat="23.476681" lon="111.398963">
<time>2015-09-27T11:32:30Z</time></trkpt>
<trkpt lat="23.476681" lon="111.398893">
<time>2015-09-27T11:32:31Z</time></trkpt>
<trkpt lat="23.476671" lon="111.398154">
<time>2015-09-27T11:32:32Z</time></trkpt>
<trkpt lat="23.476661" lon="111.397964">
<time>2015-09-27T11:32:33Z</time></trkpt>
<trkpt lat="23.476711" lon="111.397314">
<time>2015-09-27T11:32:34Z</time></trkpt>
<trkpt lat="23.476761" lon="111.396634">
<time>2015-09-27T11:32:35Z</time></trkpt>
<trkpt lat="23.476881" lon="111.395745">
<time>2015-09-27T11:32:36Z</time></trkpt>
<trkpt lat="23.477001" lon="111.394755">
<time>2015-09-27T11:32:37Z</time></trkpt>
<trkpt lat="23.477271" lon="111.392607">
<time>2015-09-27T11:32:38Z</time></trkpt>
<trkpt lat="23.477372" lon="111.391638">
<time>2015-09-27T11:32:39Z</time></trkpt>
<trkpt lat="23.477402" lon="111.391098">
<time>2015-09-27T11:32:40Z</time></trkpt>
<trkpt lat="23.477392" lon="111.390488">
<time>2015-09-27T11:32:41Z</time></trkpt>
<trkpt lat="23.477343" lon="111.38841">
<time>2015-09-27T11:32:42Z</time></trkpt>
<trkpt lat="23.477353" lon="111.387381">
<time>2015-09-27T11:32:43Z</time></trkpt>
<trkpt lat="23.477383" lon="111.386532">
<time>2015-09-27T11:32:44Z</time></trkpt>
<trkpt lat="23.477544" lon="111.384085">
<time>2015-09-27T11:32:45Z</time></trkpt>
<trkpt lat="23.477585" lon="111.383465">
<time>2015-09-27T11:32:46Z</time></trkpt>
<trkpt lat="23.477615" lon="111.383196">
<time>2015-09-27T11:32:47Z</time></trkpt>
<trkpt lat="23.477655" lon="111.382956">
<time>2015-09-27T11:32:48Z</time></trkpt>
<trkpt lat="23.477705" lon="111.382806">
<time>2015-09-27T11:32:49Z</time></trkpt>
<trkpt lat="23.477755" lon="111.382636">
<time>2015-09-27T11:32:50Z</time></trkpt>
<trkpt lat="23.477976" lon="111.382007">
<time>2015-09-27T11:32:51Z</time></trkpt>
<trkpt lat="23.478056" lon="111.381757">
<time>2015-09-27T11:32:52Z</time></trkpt>
<trkpt lat="23.478096" lon="111.381508">
<time>2015-09-27T11:32:53Z</time></trkpt>
<trkpt lat="23.478096" lon="111.381258">
<time>2015-09-27T11:32:54Z</time></trkpt>
<trkpt lat="23.478076" lon="111.380998">
<time>2015-09-27T11:32:55Z</time></trkpt>
<trkpt lat="23.478017" lon="111.380639">
<time>2015-09-27T11:32:56Z</time></trkpt>
<trkpt lat="23.477917" lon="111.380119">
<time>2015-09-27T11:32:57Z</time></trkpt>
<trkpt lat="23.477807" lon="111.37935">
<time>2015-09-27T11:32:58Z</time></trkpt>
<trkpt lat="23.477738" lon="111.378881">
<time>2015-09-27T11:32:59Z</time></trkpt>
<trkpt lat="23.477698" lon="111.378502">
<time>2015-09-27T11:33:00Z</time></trkpt>
<trkpt lat="23.477768" lon="111.378082">
<time>2015-09-27T11:33:01Z</time></trkpt>
<trkpt lat="23.477919" lon="111.377743">
<time>2015-09-27T11:33:02Z</time></trkpt>
<trkpt lat="23.478189" lon="111.377223">
<time>2015-09-27T11:33:03Z</time></trkpt>
<trkpt lat="23.47908" lon="111.375466">
<time>2015-09-27T11:33:04Z</time></trkpt>
<trkpt lat="23.479191" lon="111.375236">
<time>2015-09-27T11:33:05Z</time></trkpt>
<trkpt lat="23.479291" lon="111.374996">
<time>2015-09-27T11:33:06Z</time></trkpt>
<trkpt lat="23.479561" lon="111.374318">
<time>2015-09-27T11:33:07Z</time></trkpt>
<trkpt lat="23.479742" lon="111.373738">
<time>2015-09-27T11:33:08Z</time></trkpt>
<trkpt lat="23.479873" lon="111.373099">
<time>2015-09-27T11:33:09Z</time></trkpt>
<trkpt lat="23.479953" lon="111.37243">
<time>2015-09-27T11:33:10Z</time></trkpt>
<trkpt lat="23.480024" lon="111.371851">
<time>2015-09-27T11:33:11Z</time></trkpt>
<trkpt lat="23.480085" lon="111.371123">
<time>2015-09-27T11:33:12Z</time></trkpt>
<trkpt lat="23.480115" lon="111.370454">
<time>2015-09-27T11:33:13Z</time></trkpt>
<trkpt lat="23.480125" lon="111.370244">
<time>2015-09-27T11:33:14Z</time></trkpt>
<trkpt lat="23.480126" lon="111.369755">
<time>2015-09-27T11:33:15Z</time></trkpt>
<trkpt lat="23.480126" lon="111.369346">
<time>2015-09-27T11:33:16Z</time></trkpt>
<trkpt lat="23.480138" lon="111.367858">
<time>2015-09-27T11:33:17Z</time></trkpt>
<trkpt lat="23.480129" lon="111.36699">
<time>2015-09-27T11:33:18Z</time></trkpt>
<trkpt lat="23.48011" lon="111.366241">
<time>2015-09-27T11:33:19Z</time></trkpt>
<trkpt lat="23.480102" lon="111.364993">
<time>2015-09-27T11:33:20Z</time></trkpt>
<trkpt lat="23.480092" lon="111.364195">
<time>2015-09-27T11:33:21Z</time></trkpt>
<trkpt lat="23.480094" lon="111.363397">
<time>2015-09-27T11:33:22Z</time></trkpt>
<trkpt lat="23.480236" lon="111.36183">
<time>2015-09-27T11:33:23Z</time></trkpt>
<trkpt lat="23.480276" lon="111.361371">
<time>2015-09-27T11:33:24Z</time></trkpt>
<trkpt lat="23.480257" lon="111.360931">
<time>2015-09-27T11:33:25Z</time></trkpt>
<trkpt lat="23.480178" lon="111.359973">
<time>2015-09-27T11:33:26Z</time></trkpt>
<trkpt lat="23.480119" lon="111.359185">
<time>2015-09-27T11:33:27Z</time></trkpt>
<trkpt lat="23.48009" lon="111.358526">
<time>2015-09-27T11:33:28Z</time></trkpt>
<trkpt lat="23.48008" lon="111.358257">
<time>2015-09-27T11:33:29Z</time></trkpt>
<trkpt lat="23.480043" lon="111.356221">
<time>2015-09-27T11:33:30Z</time></trkpt>
<trkpt lat="23.480034" lon="111.355752">
<time>2015-09-27T11:33:31Z</time></trkpt>
<trkpt lat="23.480005" lon="111.355413">
<time>2015-09-27T11:33:32Z</time></trkpt>
<trkpt lat="23.479935" lon="111.355114">
<time>2015-09-27T11:33:33Z</time></trkpt>
<trkpt lat="23.479855" lon="111.354854">
<time>2015-09-27T11:33:34Z</time></trkpt>
<trkpt lat="23.479856" lon="111.354844">
<time>2015-09-27T11:33:35Z</time></trkpt>
<trkpt lat="23.479736" lon="111.354565">
<time>2015-09-27T11:33:36Z</time></trkpt>
<trkpt lat="23.479546" lon="111.354236">
<time>2015-09-27T11:33:37Z</time></trkpt>
<trkpt lat="23.479038" lon="111.353388">
<time>2015-09-27T11:33:38Z</time></trkpt>
<trkpt lat="23.478978" lon="111.353298">
<time>2015-09-27T11:33:39Z</time></trkpt>
<trkpt lat="23.478689" lon="111.352759">
<time>2015-09-27T11:33:40Z</time></trkpt>
<trkpt lat="23.478559" lon="111.35244">
<time>2015-09-27T11:33:41Z</time></trkpt>
<trkpt lat="23.47845" lon="111.352051">
<time>2015-09-27T11:33:42Z</time></trkpt>
<trkpt lat="23.47839" lon="111.351692">
<time>2015-09-27T11:33:43Z</time></trkpt>
<trkpt lat="23.478311" lon="111.351063">
<time>2015-09-27T11:33:44Z</time></trkpt>
<trkpt lat="23.478262" lon="111.350774">
<time>2015-09-27T11:33:45Z</time></trkpt>
<trkpt lat="23.478183" lon="111.350425">
<time>2015-09-27T11:33:46Z</time></trkpt>
<trkpt lat="23.478053" lon="111.350025">
<time>2015-09-27T11:33:47Z</time></trkpt>
<trkpt lat="23.477924" lon="111.349527">
<time>2015-09-27T11:33:48Z</time></trkpt>
<trkpt lat="23.477875" lon="111.349118">
<time>2015-09-27T11:33:49Z</time></trkpt>
<trkpt lat="23.477865" lon="111.348908">
<time>2015-09-27T11:33:50Z</time></trkpt>
<trkpt lat="23.477846" lon="111.34823">
<time>2015-09-27T11:33:51Z</time></trkpt>
<trkpt lat="23.477847" lon="111.347462">
<time>2015-09-27T11:33:52Z</time></trkpt>
<trkpt lat="23.477848" lon="111.347043">
<time>2015-09-27T11:33:53Z</time></trkpt>
<trkpt lat="23.477858" lon="111.346853">
<time>2015-09-27T11:33:54Z</time></trkpt>
<trkpt lat="23.477859" lon="111.346803">
<time>2015-09-27T11:33:55Z</time></trkpt>
<trkpt lat="23.477861" lon="111.345247">
<time>2015-09-27T11:33:56Z</time></trkpt>
<trkpt lat="23.477863" lon="111.344479">
<time>2015-09-27T11:33:57Z</time></trkpt>
<trkpt lat="23.477853" lon="111.3441">
<time>2015-09-27T11:33:58Z</time></trkpt>
<trkpt lat="23.477824" lon="111.343761">
<time>2015-09-27T11:33:59Z</time></trkpt>
<trkpt lat="23.477814" lon="111.343751">
<time>2015-09-27T11:34:00Z</time></trkpt>
<trkpt lat="23.477814" lon="111.343751">
<time>2015-09-27T11:34:01Z</time></trkpt>
<trkpt lat="23.477874" lon="111.34379">
<time>2015-09-27T11:34:02Z</time></trkpt>
<trkpt lat="23.477874" lon="111.34379">
<time>2015-09-27T11:34:03Z</time></trkpt>
<trkpt lat="23.477874" lon="111.343751">
<time>2015-09-27T11:34:04Z</time></trkpt>
<trkpt lat="23.477814" lon="111.343501">
<time>2015-09-27T11:34:05Z</time></trkpt>
<trkpt lat="23.477735" lon="111.343262">
<time>2015-09-27T11:34:06Z</time></trkpt>
<trkpt lat="23.477536" lon="111.342763">
<time>2015-09-27T11:34:07Z</time></trkpt>
<trkpt lat="23.477197" lon="111.341865">
<time>2015-09-27T11:34:08Z</time></trkpt>
<trkpt lat="23.476859" lon="111.340768">
<time>2015-09-27T11:34:09Z</time></trkpt>
<trkpt lat="23.476571" lon="111.339631">
<time>2015-09-27T11:34:10Z</time></trkpt>
<trkpt lat="23.476304" lon="111.338185">
<time>2015-09-27T11:34:11Z</time></trkpt>
<trkpt lat="23.475888" lon="111.335791">
<time>2015-09-27T11:34:12Z</time></trkpt>
<trkpt lat="23.475789" lon="111.335242">
<time>2015-09-27T11:34:13Z</time></trkpt>
<trkpt lat="23.475215" lon="111.33238">
<time>2015-09-27T11:34:14Z</time></trkpt>
<trkpt lat="23.474998" lon="111.330784">
<time>2015-09-27T11:34:15Z</time></trkpt>
<trkpt lat="23.474968" lon="111.330615">
<time>2015-09-27T11:34:16Z</time></trkpt>
<trkpt lat="23.474958" lon="111.330515">
<time>2015-09-27T11:34:17Z</time></trkpt>
<trkpt lat="23.47483" lon="111.329747">
<time>2015-09-27T11:34:18Z</time></trkpt>
<trkpt lat="23.47483" lon="111.329707">
<time>2015-09-27T11:34:19Z</time></trkpt>
<trkpt lat="23.47482" lon="111.329677">
<time>2015-09-27T11:34:20Z</time></trkpt>
<trkpt lat="23.47481" lon="111.329647">
<time>2015-09-27T11:34:21Z</time></trkpt>
<trkpt lat="23.47479" lon="111.329617">
<time>2015-09-27T11:34:22Z</time></trkpt>
<trkpt lat="23.474791" lon="111.329198">
<time>2015-09-27T11:34:23Z</time></trkpt>
<trkpt lat="23.474782" lon="111.32872">
<time>2015-09-27T11:34:24Z</time></trkpt>
<trkpt lat="23.474752" lon="111.328361">
<time>2015-09-27T11:34:25Z</time></trkpt>
<trkpt lat="23.474733" lon="111.328121">
<time>2015-09-27T11:34:26Z</time></trkpt>
<trkpt lat="23.474713" lon="111.327772">
<time>2015-09-27T11:34:27Z</time></trkpt>
<trkpt lat="23.474736" lon="111.326336">
<time>2015-09-27T11:34:28Z</time></trkpt>
<trkpt lat="23.474726" lon="111.326296">
<time>2015-09-27T11:34:29Z</time></trkpt>
<trkpt lat="23.474717" lon="111.326117">
<time>2015-09-27T11:34:30Z</time></trkpt>
<trkpt lat="23.474677" lon="111.325648">
<time>2015-09-27T11:34:31Z</time></trkpt>
<trkpt lat="23.474677" lon="111.325648">
<time>2015-09-27T11:34:32Z</time></trkpt>
<trkpt lat="23.474628" lon="111.325478">
<time>2015-09-27T11:34:33Z</time></trkpt>
<trkpt lat="23.47445" lon="111.324082">
<time>2015-09-27T11:34:34Z</time></trkpt>
<trkpt lat="23.474391" lon="111.323593">
<time>2015-09-27T11:34:35Z</time></trkpt>
<trkpt lat="23.474352" lon="111.323294">
<time>2015-09-27T11:34:36Z</time></trkpt>
<trkpt lat="23.474263" lon="111.322756">
<time>2015-09-27T11:34:37Z</time></trkpt>
<trkpt lat="23.474223" lon="111.322566">
<time>2015-09-27T11:34:38Z</time></trkpt>
<trkpt lat="23.474194" lon="111.322347">
<time>2015-09-27T11:34:39Z</time></trkpt>
<trkpt lat="23.474085" lon="111.321838">
<time>2015-09-27T11:34:40Z</time></trkpt>
<trkpt lat="23.473966" lon="111.32125">
<time>2015-09-27T11:34:41Z</time></trkpt>
<trkpt lat="23.473877" lon="111.320881">
<time>2015-09-27T11:34:42Z</time></trkpt>
<trkpt lat="23.473728" lon="111.320242">
<time>2015-09-27T11:34:43Z</time></trkpt>
<trkpt lat="23.473639" lon="111.319883">
<time>2015-09-27T11:34:44Z</time></trkpt>
<trkpt lat="23.473639" lon="111.319883">
<time>2015-09-27T11:34:45Z</time></trkpt>
<trkpt lat="23.473163" lon="111.317719">
<time>2015-09-27T11:34:46Z</time></trkpt>
<trkpt lat="23.472885" lon="111.316453">
<time>2015-09-27T11:34:47Z</time></trkpt>
<trkpt lat="23.472509" lon="111.314658">
<time>2015-09-27T11:34:48Z</time></trkpt>
<trkpt lat="23.472449" lon="111.314308">
<time>2015-09-27T11:34:49Z</time></trkpt>
<trkpt lat="23.47241" lon="111.31389">
<time>2015-09-27T11:34:50Z</time></trkpt>
<trkpt lat="23.472401" lon="111.31362">
<time>2015-09-27T11:34:51Z</time></trkpt>
<trkpt lat="23.472401" lon="111.31355">
<time>2015-09-27T11:34:52Z</time></trkpt>
<trkpt lat="23.472401" lon="111.31355">
<time>2015-09-27T11:34:53Z</time></trkpt>
<trkpt lat="23.472401" lon="111.313511">
<time>2015-09-27T11:34:54Z</time></trkpt>
<trkpt lat="23.472392" lon="111.312872">
<time>2015-09-27T11:34:55Z</time></trkpt>
<trkpt lat="23.472392" lon="111.312583">
<time>2015-09-27T11:34:56Z</time></trkpt>
<trkpt lat="23.472393" lon="111.312503">
<time>2015-09-27T11:34:57Z</time></trkpt>
<trkpt lat="23.472424" lon="111.311835">
<time>2015-09-27T11:34:58Z</time></trkpt>
<trkpt lat="23.472434" lon="111.311805">
<time>2015-09-27T11:34:59Z</time></trkpt>
<trkpt lat="23.472444" lon="111.311536">
<time>2015-09-27T11:35:00Z</time></trkpt>
<trkpt lat="23.472445" lon="111.311296">
<time>2015-09-27T11:35:01Z</time></trkpt>
<trkpt lat="23.472445" lon="111.311147">
<time>2015-09-27T11:35:02Z</time></trkpt>
<trkpt lat="23.472445" lon="111.311147">
<time>2015-09-27T11:35:03Z</time></trkpt>
<trkpt lat="23.472487" lon="111.310369">
<time>2015-09-27T11:35:04Z</time></trkpt>
<trkpt lat="23.472517" lon="111.31001">
<time>2015-09-27T11:35:05Z</time></trkpt>
<trkpt lat="23.472518" lon="111.30988">
<time>2015-09-27T11:35:06Z</time></trkpt>
<trkpt lat="23.472518" lon="111.30984">
<time>2015-09-27T11:35:07Z</time></trkpt>
<trkpt lat="23.472518" lon="111.309751">
<time>2015-09-27T11:35:08Z</time></trkpt>
<trkpt lat="23.472498" lon="111.309531">
<time>2015-09-27T11:35:09Z</time></trkpt>
<trkpt lat="23.472478" lon="111.309411">
<time>2015-09-27T11:35:10Z</time></trkpt>
<trkpt lat="23.472449" lon="111.309172">
<time>2015-09-27T11:35:11Z</time></trkpt>
<trkpt lat="23.47233" lon="111.308464">
<time>2015-09-27T11:35:12Z</time></trkpt>
<trkpt lat="23.472231" lon="111.307865">
<time>2015-09-27T11:35:13Z</time></trkpt>
<trkpt lat="23.472132" lon="111.307267">
<time>2015-09-27T11:35:14Z</time></trkpt>
<trkpt lat="23.472033" lon="111.306669">
<time>2015-09-27T11:35:15Z</time></trkpt>
<trkpt lat="23.471974" lon="111.30632">
<time>2015-09-27T11:35:16Z</time></trkpt>
<trkpt lat="23.471954" lon="111.30613">
<time>2015-09-27T11:35:17Z</time></trkpt>
<trkpt lat="23.471955" lon="111.30606">
<time>2015-09-27T11:35:18Z</time></trkpt>
<trkpt lat="23.471945" lon="111.30597">
<time>2015-09-27T11:35:19Z</time></trkpt>
<trkpt lat="23.471945" lon="111.305821">
<time>2015-09-27T11:35:20Z</time></trkpt>
<trkpt lat="23.471986" lon="111.305292">
<time>2015-09-27T11:35:21Z</time></trkpt>
<trkpt lat="23.472037" lon="111.304414">
<time>2015-09-27T11:35:22Z</time></trkpt>
<trkpt lat="23.472068" lon="111.304055">
<time>2015-09-27T11:35:23Z</time></trkpt>
<trkpt lat="23.472129" lon="111.303507">
<time>2015-09-27T11:35:24Z</time></trkpt>
<trkpt lat="23.472129" lon="111.303507">
<time>2015-09-27T11:35:25Z</time></trkpt>
<trkpt lat="23.472474" lon="111.300933">
<time>2015-09-27T11:35:26Z</time></trkpt>
<trkpt lat="23.472625" lon="111.299916">
<time>2015-09-27T11:35:27Z</time></trkpt>
<trkpt lat="23.472625" lon="111.299856">
<time>2015-09-27T11:35:28Z</time></trkpt>
<trkpt lat="23.472787" lon="111.298828">
<time>2015-09-27T11:35:29Z</time></trkpt>
<trkpt lat="23.472787" lon="111.298828">
<time>2015-09-27T11:35:30Z</time></trkpt>
<trkpt lat="23.472807" lon="111.298769">
<time>2015-09-27T11:35:31Z</time></trkpt>
<trkpt lat="23.472908" lon="111.298409">
<time>2015-09-27T11:35:32Z</time></trkpt>
<trkpt lat="23.472998" lon="111.29803">
<time>2015-09-27T11:35:33Z</time></trkpt>
<trkpt lat="23.473059" lon="111.297741">
<time>2015-09-27T11:35:34Z</time></trkpt>
<trkpt lat="23.473109" lon="111.297542">
<time>2015-09-27T11:35:35Z</time></trkpt>
<trkpt lat="23.47318" lon="111.297133">
<time>2015-09-27T11:35:36Z</time></trkpt>
<trkpt lat="23.47319" lon="111.297083">
<time>2015-09-27T11:35:37Z</time></trkpt>
<trkpt lat="23.473241" lon="111.296714">
<time>2015-09-27T11:35:38Z</time></trkpt>
<trkpt lat="23.473271" lon="111.296305">
<time>2015-09-27T11:35:39Z</time></trkpt>
<trkpt lat="23.473282" lon="111.296155">
<time>2015-09-27T11:35:40Z</time></trkpt>
<trkpt lat="23.473292" lon="111.295806">
<time>2015-09-27T11:35:41Z</time></trkpt>
<trkpt lat="23.473303" lon="111.295407">
<time>2015-09-27T11:35:42Z</time></trkpt>
<trkpt lat="23.473206" lon="111.293362">
<time>2015-09-27T11:35:43Z</time></trkpt>
<trkpt lat="23.473207" lon="111.292593">
<time>2015-09-27T11:35:44Z</time></trkpt>
<trkpt lat="23.4732" lon="111.291047">
<time>2015-09-27T11:35:45Z</time></trkpt>
<trkpt lat="23.473263" lon="111.288882">
<time>2015-09-27T11:35:46Z</time></trkpt>
<trkpt lat="23.473346" lon="111.286926">
<time>2015-09-27T11:35:47Z</time></trkpt>
<trkpt lat="23.473366" lon="111.286477">
<time>2015-09-27T11:35:48Z</time></trkpt>
<trkpt lat="23.473387" lon="111.285978">
<time>2015-09-27T11:35:49Z</time></trkpt>
<trkpt lat="23.473559" lon="111.284332">
<time>2015-09-27T11:35:50Z</time></trkpt>
<trkpt lat="23.473974" lon="111.28064">
<time>2015-09-27T11:35:51Z</time></trkpt>
<trkpt lat="23.474015" lon="111.280171">
<time>2015-09-27T11:35:52Z</time></trkpt>
<trkpt lat="23.474055" lon="111.279662">
<time>2015-09-27T11:35:53Z</time></trkpt>
<trkpt lat="23.474056" lon="111.279242">
<time>2015-09-27T11:35:54Z</time></trkpt>
<trkpt lat="23.474056" lon="111.279123">
<time>2015-09-27T11:35:55Z</time></trkpt>
<trkpt lat="23.474028" lon="111.277636">
<time>2015-09-27T11:35:56Z</time></trkpt>
<trkpt lat="23.474018" lon="111.277566">
<time>2015-09-27T11:35:57Z</time></trkpt>
<trkpt lat="23.474008" lon="111.277057">
<time>2015-09-27T11:35:58Z</time></trkpt>
<trkpt lat="23.473989" lon="111.276388">
<time>2015-09-27T11:35:59Z</time></trkpt>
<trkpt lat="23.473989" lon="111.276388">
<time>2015-09-27T11:36:00Z</time></trkpt>
<trkpt lat="23.473989" lon="111.276328">
<time>2015-09-27T11:36:01Z</time></trkpt>
<trkpt lat="23.47398" lon="111.276049">
<time>2015-09-27T11:36:02Z</time></trkpt>
<trkpt lat="23.47398" lon="111.276039">
<time>2015-09-27T11:36:03Z</time></trkpt>
<trkpt lat="23.474031" lon="111.275051">
<time>2015-09-27T11:36:04Z</time></trkpt>
<trkpt lat="23.474183" lon="111.273184">
<time>2015-09-27T11:36:05Z</time></trkpt>
<trkpt lat="23.474203" lon="111.273034">
<time>2015-09-27T11:36:06Z</time></trkpt>
<trkpt lat="23.474364" lon="111.271786">
<time>2015-09-27T11:36:07Z</time></trkpt>
<trkpt lat="23.474414" lon="111.271517">
<time>2015-09-27T11:36:08Z</time></trkpt>
<trkpt lat="23.474817" lon="111.269171">
<time>2015-09-27T11:36:09Z</time></trkpt>
<trkpt lat="23.474817" lon="111.269141">
<time>2015-09-27T11:36:10Z</time></trkpt>
<trkpt lat="23.474948" lon="111.267903">
<time>2015-09-27T11:36:11Z</time></trkpt>
<trkpt lat="23.4751" lon="111.265586">
<time>2015-09-27T11:36:12Z</time></trkpt>
<trkpt lat="23.47513" lon="111.264358">
<time>2015-09-27T11:36:13Z</time></trkpt>
<trkpt lat="23.475131" lon="111.26337">
<time>2015-09-27T11:36:14Z</time></trkpt>
<trkpt lat="23.475102" lon="111.262411">
<time>2015-09-27T11:36:15Z</time></trkpt>
<trkpt lat="23.475023" lon="111.260923">
<time>2015-09-27T11:36:16Z</time></trkpt>
<trkpt lat="23.475013" lon="111.260823">
<time>2015-09-27T11:36:17Z</time></trkpt>
<trkpt lat="23.474994" lon="111.258916">
<time>2015-09-27T11:36:18Z</time></trkpt>
<trkpt lat="23.474974" lon="111.257847">
<time>2015-09-27T11:36:19Z</time></trkpt>
<trkpt lat="23.474945" lon="111.256668">
<time>2015-09-27T11:36:20Z</time></trkpt>
<trkpt lat="23.474965" lon="111.256479">
<time>2015-09-27T11:36:21Z</time></trkpt>
<trkpt lat="23.474965" lon="111.256309">
<time>2015-09-27T11:36:22Z</time></trkpt>
<trkpt lat="23.474955" lon="111.256249">
<time>2015-09-27T11:36:23Z</time></trkpt>
<trkpt lat="23.474945" lon="111.256199">
<time>2015-09-27T11:36:24Z</time></trkpt>
<trkpt lat="23.474925" lon="111.256149">
<time>2015-09-27T11:36:25Z</time></trkpt>
<trkpt lat="23.474895" lon="111.256069">
<time>2015-09-27T11:36:26Z</time></trkpt>
<trkpt lat="23.474865" lon="111.256009">
<time>2015-09-27T11:36:27Z</time></trkpt>
<trkpt lat="23.474845" lon="111.255979">
<time>2015-09-27T11:36:28Z</time></trkpt>
<trkpt lat="23.474825" lon="111.255959">
<time>2015-09-27T11:36:29Z</time></trkpt>
<trkpt lat="23.474805" lon="111.255919">
<time>2015-09-27T11:36:30Z</time></trkpt>
<trkpt lat="23.474775" lon="111.255879">
<time>2015-09-27T11:36:31Z</time></trkpt>
<trkpt lat="23.474755" lon="111.255839">
<time>2015-09-27T11:36:32Z</time></trkpt>
<trkpt lat="23.474745" lon="111.25578">
<time>2015-09-27T11:36:33Z</time></trkpt>
<trkpt lat="23.474735" lon="111.25572">
<time>2015-09-27T11:36:34Z</time></trkpt>
<trkpt lat="23.474735" lon="111.25565">
<time>2015-09-27T11:36:35Z</time></trkpt>
<trkpt lat="23.474217" lon="111.251964">
<time>2015-09-27T11:36:36Z</time></trkpt>
<trkpt lat="23.474167" lon="111.251494">
<time>2015-09-27T11:36:37Z</time></trkpt>
<trkpt lat="23.474087" lon="111.250745">
<time>2015-09-27T11:36:38Z</time></trkpt>
<trkpt lat="23.474017" lon="111.249996">
<time>2015-09-27T11:36:39Z</time></trkpt>
<trkpt lat="23.473997" lon="111.249826">
<time>2015-09-27T11:36:40Z</time></trkpt>
<trkpt lat="23.473967" lon="111.249556">
<time>2015-09-27T11:36:41Z</time></trkpt>
<trkpt lat="23.473927" lon="111.249356">
<time>2015-09-27T11:36:42Z</time></trkpt>
<trkpt lat="23.473887" lon="111.249106">
<time>2015-09-27T11:36:43Z</time></trkpt>
<trkpt lat="23.473847" lon="111.248867">
<time>2015-09-27T11:36:44Z</time></trkpt>
<trkpt lat="23.473778" lon="111.248457">
<time>2015-09-27T11:36:45Z</time></trkpt>
<trkpt lat="23.473748" lon="111.248257">
<time>2015-09-27T11:36:46Z</time></trkpt>
<trkpt lat="23.473728" lon="111.248167">
<time>2015-09-27T11:36:47Z</time></trkpt>
<trkpt lat="23.473708" lon="111.248047">
<time>2015-09-27T11:36:48Z</time></trkpt>
<trkpt lat="23.473698" lon="111.247957">
<time>2015-09-27T11:36:49Z</time></trkpt>
<trkpt lat="23.473628" lon="111.247558">
<time>2015-09-27T11:36:50Z</time></trkpt>
<trkpt lat="23.473558" lon="111.247138">
<time>2015-09-27T11:36:51Z</time></trkpt>
<trkpt lat="23.473528" lon="111.246918">
<time>2015-09-27T11:36:52Z</time></trkpt>
<trkpt lat="23.473498" lon="111.246758">
<time>2015-09-27T11:36:53Z</time></trkpt>
<trkpt lat="23.473468" lon="111.246608">
<time>2015-09-27T11:36:54Z</time></trkpt>
<trkpt lat="23.473438" lon="111.246399">
<time>2015-09-27T11:36:55Z</time></trkpt>
<trkpt lat="23.473428" lon="111.246309">
<time>2015-09-27T11:36:56Z</time></trkpt>
<trkpt lat="23.473418" lon="111.246259">
<time>2015-09-27T11:36:57Z</time></trkpt>
<trkpt lat="23.473398" lon="111.246209">
<time>2015-09-27T11:36:58Z</time></trkpt>
<trkpt lat="23.473368" lon="111.246109">
<time>2015-09-27T11:36:59Z</time></trkpt>
<trkpt lat="23.473328" lon="111.246029">
<time>2015-09-27T11:37:00Z</time></trkpt>
<trkpt lat="23.473298" lon="111.245969">
<time>2015-09-27T11:37:01Z</time></trkpt>
<trkpt lat="23.473288" lon="111.245959">
<time>2015-09-27T11:37:02Z</time></trkpt>
<trkpt lat="23.473268" lon="111.245929">
<time>2015-09-27T11:37:03Z</time></trkpt>
<trkpt lat="23.473218" lon="111.245859">
<time>2015-09-27T11:37:04Z</time></trkpt>
<trkpt lat="23.473178" lon="111.245809">
<time>2015-09-27T11:37:05Z</time></trkpt>
<trkpt lat="23.473118" lon="111.245739">
<time>2015-09-27T11:37:06Z</time></trkpt>
<trkpt lat="23.473098" lon="111.245689">
<time>2015-09-27T11:37:07Z</time></trkpt>
<trkpt lat="23.473078" lon="111.245649">
<time>2015-09-27T11:37:08Z</time></trkpt>
<trkpt lat="23.473048" lon="111.245589">
<time>2015-09-27T11:37:09Z</time></trkpt>
<trkpt lat="23.473038" lon="111.245549">
<time>2015-09-27T11:37:10Z</time></trkpt>
<trkpt lat="23.473018" lon="111.245469">
<time>2015-09-27T11:37:11Z</time></trkpt>
<trkpt lat="23.472998" lon="111.245349">
<time>2015-09-27T11:37:12Z</time></trkpt>
<trkpt lat="23.472958" lon="111.24513">
<time>2015-09-27T11:37:13Z</time></trkpt>
<trkpt lat="23.472908" lon="111.24479">
<time>2015-09-27T11:37:14Z</time></trkpt>
<trkpt lat="23.472888" lon="111.24466">
<time>2015-09-27T11:37:15Z</time></trkpt>
<trkpt lat="23.472838" lon="111.24439">
<time>2015-09-27T11:37:16Z</time></trkpt>
<trkpt lat="23.472828" lon="111.24435">
<time>2015-09-27T11:37:17Z</time></trkpt>
<trkpt lat="23.472768" lon="111.24403">
<time>2015-09-27T11:37:18Z</time></trkpt>
<trkpt lat="23.472718" lon="111.243741">
<time>2015-09-27T11:37:19Z</time></trkpt>
<trkpt lat="23.472668" lon="111.243421">
<time>2015-09-27T11:37:20Z</time></trkpt>
<trkpt lat="23.472608" lon="111.243041">
<time>2015-09-27T11:37:21Z</time></trkpt>
<trkpt lat="23.472588" lon="111.242921">
<time>2015-09-27T11:37:22Z</time></trkpt>
<trkpt lat="23.472568" lon="111.242831">
<time>2015-09-27T11:37:23Z</time></trkpt>
<trkpt lat="23.472548" lon="111.242771">
<time>2015-09-27T11:37:24Z</time></trkpt>
<trkpt lat="23.472528" lon="111.242721">
<time>2015-09-27T11:37:25Z</time></trkpt>
<trkpt lat="23.472518" lon="111.242701">
<time>2015-09-27T11:37:26Z</time></trkpt>
<trkpt lat="23.472518" lon="111.242691">
<time>2015-09-27T11:37:27Z</time></trkpt>
<trkpt lat="23.472478" lon="111.242631">
<time>2015-09-27T11:37:28Z</time></trkpt>
<trkpt lat="23.472738" lon="111.242461">
<time>2015-09-27T11:37:29Z</time></trkpt>
<trkpt lat="23.472798" lon="111.242431">
<time>2015-09-27T11:37:30Z</time></trkpt>
<trkpt lat="23.472838" lon="111.242401">
<time>2015-09-27T11:37:31Z</time></trkpt>
<trkpt lat="23.472908" lon="111.242221">
<time>2015-09-27T11:37:32Z</time></trkpt>
<trkpt lat="23.473038" lon="111.241802">
<time>2015-09-27T11:37:33Z</time></trkpt>
<trkpt lat="23.473228" lon="111.241262">
<time>2015-09-27T11:37:34Z</time></trkpt>
<trkpt lat="23.473248" lon="111.241192">
<time>2015-09-27T11:37:35Z</time></trkpt>
<trkpt lat="23.473258" lon="111.241092">
<time>2015-09-27T11:37:36Z</time></trkpt>
<trkpt lat="23.473337" lon="111.240612">
<time>2015-09-27T11:37:37Z</time></trkpt>
<trkpt lat="23.473347" lon="111.240532">
<time>2015-09-27T11:37:38Z</time></trkpt>
<trkpt lat="23.473347" lon="111.240502">
<time>2015-09-27T11:37:39Z</time></trkpt>
<trkpt lat="23.473347" lon="111.240462">
<time>2015-09-27T11:37:40Z</time></trkpt>
<trkpt lat="23.473337" lon="111.240432">
<time>2015-09-27T11:37:41Z</time></trkpt>
<trkpt lat="23.473307" lon="111.240353">
<time>2015-09-27T11:37:42Z</time></trkpt>
<trkpt lat="23.473297" lon="111.240333">
<time>2015-09-27T11:37:43Z</time></trkpt>
<trkpt lat="23.473297" lon="111.240303">
<time>2015-09-27T11:37:44Z</time></trkpt>
<trkpt lat="23.473297" lon="111.240273">
<time>2015-09-27T11:37:45Z</time></trkpt>
<trkpt lat="23.473307" lon="111.240233">
<time>2015-09-27T11:37:46Z</time></trkpt>
<trkpt lat="23.473347" lon="111.240173">
<time>2015-09-27T11:37:47Z</time></trkpt>
<trkpt lat="23.473397" lon="111.240103">
<time>2015-09-27T11:37:48Z</time></trkpt>
<trkpt lat="23.473497" lon="111.240003">
<time>2015-09-27T11:37:49Z</time></trkpt>
<trkpt lat="23.473647" lon="111.239873">
<time>2015-09-27T11:37:50Z</time></trkpt>
<trkpt lat="23.474127" lon="111.239483">
<time>2015-09-27T11:37:51Z</time></trkpt>
<trkpt lat="23.474127" lon="111.239483">
<time>2015-09-27T11:37:52Z</time></trkpt>
<trkpt lat="23.474057" lon="111.239373">
<time>2015-09-27T11:37:53Z</time></trkpt>
<trkpt lat="23.473987" lon="111.239283">
<time>2015-09-27T11:37:54Z</time></trkpt>
<trkpt lat="23.472387" lon="111.237034">
<time>2015-09-27T11:37:55Z</time></trkpt>
<trkpt lat="23.472357" lon="111.236904">
<time>2015-09-27T11:37:56Z</time></trkpt>
<trkpt lat="23.470396" lon="111.234075">
<time>2015-09-27T11:37:57Z</time></trkpt>
<trkpt lat="23.470196" lon="111.233795">
<time>2015-09-27T11:37:58Z</time></trkpt>
<trkpt lat="23.470186" lon="111.233765">
<time>2015-09-27T11:37:59Z</time></trkpt>
<trkpt lat="23.469555" lon="111.232956">
<time>2015-09-27T11:38:00Z</time></trkpt>
<trkpt lat="23.469145" lon="111.232426">
<time>2015-09-27T11:38:01Z</time></trkpt>
<trkpt lat="23.468735" lon="111.232086">
<time>2015-09-27T11:38:02Z</time></trkpt>
<trkpt lat="23.468215" lon="111.231706">
<time>2015-09-27T11:38:03Z</time></trkpt>
<trkpt lat="23.466274" lon="111.230406">
<time>2015-09-27T11:38:04Z</time></trkpt>
<trkpt lat="23.465004" lon="111.229546">
<time>2015-09-27T11:38:05Z</time></trkpt>
<trkpt lat="23.461583" lon="111.227257">
<time>2015-09-27T11:38:06Z</time></trkpt>
<trkpt lat="23.461483" lon="111.227187">
<time>2015-09-27T11:38:07Z</time></trkpt>
<trkpt lat="23.460102" lon="111.226267">
<time>2015-09-27T11:38:08Z</time></trkpt>
<trkpt lat="23.459052" lon="111.225577">
<time>2015-09-27T11:38:09Z</time></trkpt>
<trkpt lat="23.456051" lon="111.223537">
<time>2015-09-27T11:38:10Z</time></trkpt>
<trkpt lat="23.452209" lon="111.220937">
<time>2015-09-27T11:38:11Z</time></trkpt>
<trkpt lat="23.450778" lon="111.219997">
<time>2015-09-27T11:38:12Z</time></trkpt>
<trkpt lat="23.450778" lon="111.219997">
<time>2015-09-27T11:38:13Z</time></trkpt>
<trkpt lat="23.449478" lon="111.219136">
<time>2015-09-27T11:38:14Z</time></trkpt>
<trkpt lat="23.449348" lon="111.219056">
<time>2015-09-27T11:38:15Z</time></trkpt>
<trkpt lat="23.448057" lon="111.218116">
<time>2015-09-27T11:38:16Z</time></trkpt>
<trkpt lat="23.447376" lon="111.217546">
<time>2015-09-27T11:38:17Z</time></trkpt>
<trkpt lat="23.446946" lon="111.217026">
<time>2015-09-27T11:38:18Z</time></trkpt>
<trkpt lat="23.446686" lon="111.216676">
<time>2015-09-27T11:38:19Z</time></trkpt>
<trkpt lat="23.446495" lon="111.216326">
<time>2015-09-27T11:38:20Z</time></trkpt>
<trkpt lat="23.446285" lon="111.215936">
<time>2015-09-27T11:38:21Z</time></trkpt>
<trkpt lat="23.446074" lon="111.215395">
<time>2015-09-27T11:38:22Z</time></trkpt>
<trkpt lat="23.446014" lon="111.215155">
<time>2015-09-27T11:38:23Z</time></trkpt>
<trkpt lat="23.445954" lon="111.214835">
<time>2015-09-27T11:38:24Z</time></trkpt>
<trkpt lat="23.445903" lon="111.214505">
<time>2015-09-27T11:38:25Z</time></trkpt>
<trkpt lat="23.445903" lon="111.214505">
<time>2015-09-27T11:38:26Z</time></trkpt>
<trkpt lat="23.444694" lon="111.214615">
<time>2015-09-27T11:38:27Z</time></trkpt>
<trkpt lat="23.443814" lon="111.214705">
<time>2015-09-27T11:38:28Z</time></trkpt>
<trkpt lat="23.443814" lon="111.214705">
<time>2015-09-27T11:38:29Z</time></trkpt>
<trkpt lat="23.443814" lon="111.214635">
<time>2015-09-27T11:38:30Z</time></trkpt>
<trkpt lat="23.443692" lon="111.213095">
<time>2015-09-27T11:38:31Z</time></trkpt>
<trkpt lat="23.443661" lon="111.212314">
<time>2015-09-27T11:38:32Z</time></trkpt>
<trkpt lat="23.443651" lon="111.212214">
<time>2015-09-27T11:38:33Z</time></trkpt>
<trkpt lat="23.4436" lon="111.211334">
<time>2015-09-27T11:38:34Z</time></trkpt>
<trkpt lat="23.44355" lon="111.211114">
<time>2015-09-27T11:38:35Z</time></trkpt>
<trkpt lat="23.443429" lon="111.210823">
<time>2015-09-27T11:38:36Z</time></trkpt>
<trkpt lat="23.443429" lon="111.210823">
<time>2015-09-27T11:38:37Z</time></trkpt>
<trkpt lat="23.44337" lon="111.210863">
<time>2015-09-27T11:38:38Z</time></trkpt>
<trkpt lat="23.44323" lon="111.210933">
<time>2015-09-27T11:38:39Z</time></trkpt>
<trkpt lat="23.44305" lon="111.211044">
<time>2015-09-27T11:38:40Z</time></trkpt>
<trkpt lat="23.44291" lon="111.211144">
<time>2015-09-27T11:38:41Z</time></trkpt>
<trkpt lat="23.44279" lon="111.211194">
<time>2015-09-27T11:38:42Z</time></trkpt>
<trkpt lat="23.44267" lon="111.211244">
<time>2015-09-27T11:38:43Z</time></trkpt>
<trkpt lat="23.44243" lon="111.211304">
<time>2015-09-27T11:38:44Z</time></trkpt>
<trkpt lat="23.44097" lon="111.211474">
<time>2015-09-27T11:38:45Z</time></trkpt>
<trkpt lat="23.439671" lon="111.211614">
<time>2015-09-27T11:38:46Z</time></trkpt>
<trkpt lat="23.438201" lon="111.211744">
<time>2015-09-27T11:38:47Z</time></trkpt>
<trkpt lat="23.437161" lon="111.211804">
<time>2015-09-27T11:38:48Z</time></trkpt>
<trkpt lat="23.436951" lon="111.211814">
<time>2015-09-27T11:38:49Z</time></trkpt>
<trkpt lat="23.436791" lon="111.211804">
<time>2015-09-27T11:38:50Z</time></trkpt>
<trkpt lat="23.436641" lon="111.211774">
<time>2015-09-27T11:38:51Z</time></trkpt>
<trkpt lat="23.435471" lon="111.211354">
<time>2015-09-27T11:38:52Z</time></trkpt>
<trkpt lat="23.43389" lon="111.210764">
<time>2015-09-27T11:38:53Z</time></trkpt>
<trkpt lat="23.43182" lon="111.209994">
<time>2015-09-27T11:38:54Z</time></trkpt>
<trkpt lat="23.43167" lon="111.209934">
<time>2015-09-27T11:38:55Z</time></trkpt>
<trkpt lat="23.43152" lon="111.209894">
<time>2015-09-27T11:38:56Z</time></trkpt>
<trkpt lat="23.43138" lon="111.209864">
<time>2015-09-27T11:38:57Z</time></trkpt>
<trkpt lat="23.43116" lon="111.209854">
<time>2015-09-27T11:38:58Z</time></trkpt>
<trkpt lat="23.43032" lon="111.209794">
<time>2015-09-27T11:38:59Z</time></trkpt>
<trkpt lat="23.42867" lon="111.209624">
<time>2015-09-27T11:39:00Z</time></trkpt>
<trkpt lat="23.42683" lon="111.209404">
<time>2015-09-27T11:39:01Z</time></trkpt>
<trkpt lat="23.42609" lon="111.209324">
<time>2015-09-27T11:39:02Z</time></trkpt>
<trkpt lat="23.42499" lon="111.209404">
<time>2015-09-27T11:39:03Z</time></trkpt>
<trkpt lat="23.421521" lon="111.210204">
<time>2015-09-27T11:39:04Z</time></trkpt>
<trkpt lat="23.421421" lon="111.210224">
<time>2015-09-27T11:39:05Z</time></trkpt>
<trkpt lat="23.417403" lon="111.211245">
<time>2015-09-27T11:39:06Z</time></trkpt>
<trkpt lat="23.417403" lon="111.211245">
<time>2015-09-27T11:39:07Z</time></trkpt>
<trkpt lat="23.417303" lon="111.211055">
<time>2015-09-27T11:39:08Z</time></trkpt>
<trkpt lat="23.417243" lon="111.210985">
<time>2015-09-27T11:39:09Z</time></trkpt>
<trkpt lat="23.417173" lon="111.210925">
<time>2015-09-27T11:39:10Z</time></trkpt>
<trkpt lat="23.417033" lon="111.210835">
<time>2015-09-27T11:39:11Z</time></trkpt>
<trkpt lat="23.416933" lon="111.210805">
<time>2015-09-27T11:39:12Z</time></trkpt>
<trkpt lat="23.416833" lon="111.210795">
<time>2015-09-27T11:39:13Z</time></trkpt>
<trkpt lat="23.416673" lon="111.210835">
<time>2015-09-27T11:39:14Z</time></trkpt>
<trkpt lat="23.416553" lon="111.210865">
<time>2015-09-27T11:39:15Z</time></trkpt>
<trkpt lat="23.416553" lon="111.210865">
<time>2015-09-27T11:39:16Z</time></trkpt>
<trkpt lat="23.41627" lon="111.208614">
<time>2015-09-27T11:39:17Z</time></trkpt>
<trkpt lat="23.416008" lon="111.207053">
<time>2015-09-27T11:39:18Z</time></trkpt>
<trkpt lat="23.415927" lon="111.206332">
<time>2015-09-27T11:39:19Z</time></trkpt>
<trkpt lat="23.415856" lon="111.205672">
<time>2015-09-27T11:39:20Z</time></trkpt>
<trkpt lat="23.415784" lon="111.2037">
<time>2015-09-27T11:39:21Z</time></trkpt>
<trkpt lat="23.415732" lon="111.202359">
<time>2015-09-27T11:39:22Z</time></trkpt>
<trkpt lat="23.415751" lon="111.201789">
<time>2015-09-27T11:39:23Z</time></trkpt>
<trkpt lat="23.415771" lon="111.201549">
<time>2015-09-27T11:39:24Z</time></trkpt>
<trkpt lat="23.415771" lon="111.201549">
<time>2015-09-27T11:39:25Z</time></trkpt>
<trkpt lat="23.415551" lon="111.201599">
<time>2015-09-27T11:39:26Z</time></trkpt>
<trkpt lat="23.415441" lon="111.201669">
<time>2015-09-27T11:39:27Z</time></trkpt>
<trkpt lat="23.415331" lon="111.201719">
<time>2015-09-27T11:39:28Z</time></trkpt>
<trkpt lat="23.415231" lon="111.201749">
<time>2015-09-27T11:39:29Z</time></trkpt>
<trkpt lat="23.415081" lon="111.201829">
<time>2015-09-27T11:39:30Z</time></trkpt>
<trkpt lat="23.414971" lon="111.201949">
<time>2015-09-27T11:39:31Z</time></trkpt>
<trkpt lat="23.414912" lon="111.202059">
<time>2015-09-27T11:39:32Z</time></trkpt>
<trkpt lat="23.414872" lon="111.202119">
<time>2015-09-27T11:39:33Z</time></trkpt>
<trkpt lat="23.414812" lon="111.202159">
<time>2015-09-27T11:39:34Z</time></trkpt>
<trkpt lat="23.414792" lon="111.202169">
<time>2015-09-27T11:39:35Z</time></trkpt>
<trkpt lat="23.414752" lon="111.202189">
<time>2015-09-27T11:39:36Z</time></trkpt>
<trkpt lat="23.414622" lon="111.202249">
<time>2015-09-27T11:39:37Z</time></trkpt>
<trkpt lat="23.414532" lon="111.202269">
<time>2015-09-27T11:39:38Z</time></trkpt>
<trkpt lat="23.414412" lon="111.202279">
<time>2015-09-27T11:39:39Z</time></trkpt>
<trkpt lat="23.414352" lon="111.202279">
<time>2015-09-27T11:39:40Z</time></trkpt>
<trkpt lat="23.414282" lon="111.202309">
<time>2015-09-27T11:39:41Z</time></trkpt>
<trkpt lat="23.414222" lon="111.202379">
<time>2015-09-27T11:39:42Z</time></trkpt>
<trkpt lat="23.414142" lon="111.20245">
<time>2015-09-27T11:39:43Z</time></trkpt>
<trkpt lat="23.414042" lon="111.20248">
<time>2015-09-27T11:39:44Z</time></trkpt>
<trkpt lat="23.413962" lon="111.20248">
<time>2015-09-27T11:39:45Z</time></trkpt>
<trkpt lat="23.413782" lon="111.20245">
<time>2015-09-27T11:39:46Z</time></trkpt>
<trkpt lat="23.413602" lon="111.20237">
<time>2015-09-27T11:39:47Z</time></trkpt>
<trkpt lat="23.413482" lon="111.202319">
<time>2015-09-27T11:39:48Z</time></trkpt>
<trkpt lat="23.413232" lon="111.202199">
<time>2015-09-27T11:39:49Z</time></trkpt>
<trkpt lat="23.413042" lon="111.202019">
<time>2015-09-27T11:39:50Z</time></trkpt>
<trkpt lat="23.412942" lon="111.201969">
<time>2015-09-27T11:39:51Z</time></trkpt>
<trkpt lat="23.412662" lon="111.201879">
<time>2015-09-27T11:39:52Z</time></trkpt>
<trkpt lat="23.412421" lon="111.201729">
<time>2015-09-27T11:39:53Z</time></trkpt>
<trkpt lat="23.412261" lon="111.201599">
<time>2015-09-27T11:39:54Z</time></trkpt>
<trkpt lat="23.412161" lon="111.201429">
<time>2015-09-27T11:39:55Z</time></trkpt>
<trkpt lat="23.412011" lon="111.201309">
<time>2015-09-27T11:39:56Z</time></trkpt>
<trkpt lat="23.411951" lon="111.201309">
<time>2015-09-27T11:39:57Z</time></trkpt>
<trkpt lat="23.411901" lon="111.201349">
<time>2015-09-27T11:39:58Z</time></trkpt>
<trkpt lat="23.411891" lon="111.201359">
<time>2015-09-27T11:39:59Z</time></trkpt>
<trkpt lat="23.411701" lon="111.201449">
<time>2015-09-27T11:40:00Z</time></trkpt>
<trkpt lat="23.411651" lon="111.201469">
<time>2015-09-27T11:40:01Z</time></trkpt>
<trkpt lat="23.411591" lon="111.201489">
<time>2015-09-27T11:40:02Z</time></trkpt>
<trkpt lat="23.411301" lon="111.201459">
<time>2015-09-27T11:40:03Z</time></trkpt>
<trkpt lat="23.410811" lon="111.201339">
<time>2015-09-27T11:40:04Z</time></trkpt>
<trkpt lat="23.410351" lon="111.201309">
<time>2015-09-27T11:40:05Z</time></trkpt>
<trkpt lat="23.409551" lon="111.201269">
<time>2015-09-27T11:40:06Z</time></trkpt>
<trkpt lat="23.409521" lon="111.201259">
<time>2015-09-27T11:40:07Z</time></trkpt>
<trkpt lat="23.409501" lon="111.201209">
<time>2015-09-27T11:40:08Z</time></trkpt>
<trkpt lat="23.409501" lon="111.201149">
<time>2015-09-27T11:40:09Z</time></trkpt>
<trkpt lat="23.40952" lon="111.200748">
<time>2015-09-27T11:40:10Z</time></trkpt>
<trkpt lat="23.40952" lon="111.200748">
<time>2015-09-27T11:40:11Z</time></trkpt>
<trkpt lat="23.40933" lon="111.200758">
<time>2015-09-27T11:40:12Z</time></trkpt>
<trkpt lat="23.405671" lon="111.200729">
<time>2015-09-27T11:40:13Z</time></trkpt>
<trkpt lat="23.405671" lon="111.200729">
<time>2015-09-27T11:40:14Z</time></trkpt>
<trkpt lat="23.40575" lon="111.200318">
<time>2015-09-27T11:40:15Z</time></trkpt>
<trkpt lat="23.40581" lon="111.200038">
<time>2015-09-27T11:40:16Z</time></trkpt>
<trkpt lat="23.405879" lon="111.199588">
<time>2015-09-27T11:40:17Z</time></trkpt>
<trkpt lat="23.405929" lon="111.199307">
<time>2015-09-27T11:40:18Z</time></trkpt>
<trkpt lat="23.405998" lon="111.198617">
<time>2015-09-27T11:40:19Z</time></trkpt>
<trkpt lat="23.406047" lon="111.198146">
<time>2015-09-27T11:40:20Z</time></trkpt>
<trkpt lat="23.406176" lon="111.197206">
<time>2015-09-27T11:40:21Z</time></trkpt>
<trkpt lat="23.406245" lon="111.196525">
<time>2015-09-27T11:40:22Z</time></trkpt>
<trkpt lat="23.406254" lon="111.196325">
<time>2015-09-27T11:40:23Z</time></trkpt>
<trkpt lat="23.406254" lon="111.196215">
<time>2015-09-27T11:40:24Z</time></trkpt>
<trkpt lat="23.406244" lon="111.196054">
<time>2015-09-27T11:40:25Z</time></trkpt>
<trkpt lat="23.406224" lon="111.195894">
<time>2015-09-27T11:40:26Z</time></trkpt>
<trkpt lat="23.406173" lon="111.195624">
<time>2015-09-27T11:40:27Z</time></trkpt>
<trkpt lat="23.406133" lon="111.195494">
<time>2015-09-27T11:40:28Z</time></trkpt>
<trkpt lat="23.406073" lon="111.195324">
<time>2015-09-27T11:40:29Z</time></trkpt>
<trkpt lat="23.405992" lon="111.195154">
<time>2015-09-27T11:40:30Z</time></trkpt>
<trkpt lat="23.405862" lon="111.194953">
<time>2015-09-27T11:40:31Z</time></trkpt>
<trkpt lat="23.405542" lon="111.194573">
<time>2015-09-27T11:40:32Z</time></trkpt>
<trkpt lat="23.405261" lon="111.194253">
<time>2015-09-27T11:40:33Z</time></trkpt>
<trkpt lat="23.404961" lon="111.193962">
<time>2015-09-27T11:40:34Z</time></trkpt>
<trkpt lat="23.40419" lon="111.193292">
<time>2015-09-27T11:40:35Z</time></trkpt>
<trkpt lat="23.40411" lon="111.193252">
<time>2015-09-27T11:40:36Z</time></trkpt>
<trkpt lat="23.403989" lon="111.193132">
<time>2015-09-27T11:40:37Z</time></trkpt>
<trkpt lat="23.403869" lon="111.192992">
<time>2015-09-27T11:40:38Z</time></trkpt>
<trkpt lat="23.403739" lon="111.192811">
<time>2015-09-27T11:40:39Z</time></trkpt>
<trkpt lat="23.403659" lon="111.192651">
<time>2015-09-27T11:40:40Z</time></trkpt>
<trkpt lat="23.403619" lon="111.192561">
<time>2015-09-27T11:40:41Z</time></trkpt>
<trkpt lat="23.403578" lon="111.192441">
<time>2015-09-27T11:40:42Z</time></trkpt>
<trkpt lat="23.403538" lon="111.192261">
<time>2015-09-27T11:40:43Z</time></trkpt>
<trkpt lat="23.403517" lon="111.19188">
<time>2015-09-27T11:40:44Z</time></trkpt>
<trkpt lat="23.403517" lon="111.19163">
<time>2015-09-27T11:40:45Z</time></trkpt>
<trkpt lat="23.403535" lon="111.190519">
<time>2015-09-27T11:40:46Z</time></trkpt>
<trkpt lat="23.403545" lon="111.190179">
<time>2015-09-27T11:40:47Z</time></trkpt>
<trkpt lat="23.403504" lon="111.189598">
<time>2015-09-27T11:40:48Z</time></trkpt>
<trkpt lat="23.403473" lon="111.189408">
<time>2015-09-27T11:40:49Z</time></trkpt>
<trkpt lat="23.403423" lon="111.189208">
<time>2015-09-27T11:40:50Z</time></trkpt>
<trkpt lat="23.403403" lon="111.189148">
<time>2015-09-27T11:40:51Z</time></trkpt>
<trkpt lat="23.403373" lon="111.189077">
<time>2015-09-27T11:40:52Z</time></trkpt>
<trkpt lat="23.403343" lon="111.188997">
<time>2015-09-27T11:40:53Z</time></trkpt>
<trkpt lat="23.403293" lon="111.188917">
<time>2015-09-27T11:40:54Z</time></trkpt>
<trkpt lat="23.403232" lon="111.188817">
<time>2015-09-27T11:40:55Z</time></trkpt>
<trkpt lat="23.403162" lon="111.188737">
<time>2015-09-27T11:40:56Z</time></trkpt>
<trkpt lat="23.403072" lon="111.188647">
<time>2015-09-27T11:40:57Z</time></trkpt>
<trkpt lat="23.403022" lon="111.188607">
<time>2015-09-27T11:40:58Z</time></trkpt>
<trkpt lat="23.402972" lon="111.188557">
<time>2015-09-27T11:40:59Z</time></trkpt>
<trkpt lat="23.402892" lon="111.188487">
<time>2015-09-27T11:41:00Z</time></trkpt>
<trkpt lat="23.402722" lon="111.188417">
<time>2015-09-27T11:41:01Z</time></trkpt>
<trkpt lat="23.402522" lon="111.188357">
<time>2015-09-27T11:41:02Z</time></trkpt>
<trkpt lat="23.402242" lon="111.188317">
<time>2015-09-27T11:41:03Z</time></trkpt>
<trkpt lat="23.402132" lon="111.188317">
<time>2015-09-27T11:41:04Z</time></trkpt>
<trkpt lat="23.401842" lon="111.188317">
<time>2015-09-27T11:41:05Z</time></trkpt>
<trkpt lat="23.401482" lon="111.188327">
<time>2015-09-27T11:41:06Z</time></trkpt>
<trkpt lat="23.401082" lon="111.188327">
<time>2015-09-27T11:41:07Z</time></trkpt>
<trkpt lat="23.400882" lon="111.188297">
<time>2015-09-27T11:41:08Z</time></trkpt>
<trkpt lat="23.400672" lon="111.188247">
<time>2015-09-27T11:41:09Z</time></trkpt>
<trkpt lat="23.400572" lon="111.188207">
<time>2015-09-27T11:41:10Z</time></trkpt>
<trkpt lat="23.400482" lon="111.188157">
<time>2015-09-27T11:41:11Z</time></trkpt>
<trkpt lat="23.400412" lon="111.188117">
<time>2015-09-27T11:41:12Z</time></trkpt>
<trkpt lat="23.400322" lon="111.188057">
<time>2015-09-27T11:41:13Z</time></trkpt>
<trkpt lat="23.400241" lon="111.187976">
<time>2015-09-27T11:41:14Z</time></trkpt>
<trkpt lat="23.400161" lon="111.187876">
<time>2015-09-27T11:41:15Z</time></trkpt>
<trkpt lat="23.400051" lon="111.187716">
<time>2015-09-27T11:41:16Z</time></trkpt>
<trkpt lat="23.400031" lon="111.187676">
<time>2015-09-27T11:41:17Z</time></trkpt>
<trkpt lat="23.399981" lon="111.187596">
<time>2015-09-27T11:41:18Z</time></trkpt>
<trkpt lat="23.399971" lon="111.187586">
<time>2015-09-27T11:41:19Z</time></trkpt>
<trkpt lat="23.399951" lon="111.187536">
<time>2015-09-27T11:41:20Z</time></trkpt>
<trkpt lat="23.399931" lon="111.187476">
<time>2015-09-27T11:41:21Z</time></trkpt>
<trkpt lat="23.39988" lon="111.187356">
<time>2015-09-27T11:41:22Z</time></trkpt>
<trkpt lat="23.39985" lon="111.187256">
<time>2015-09-27T11:41:23Z</time></trkpt>
<trkpt lat="23.39984" lon="111.187126">
<time>2015-09-27T11:41:24Z</time></trkpt>
<trkpt lat="23.39983" lon="111.187005">
<time>2015-09-27T11:41:25Z</time></trkpt>
<trkpt lat="23.39983" lon="111.186895">
<time>2015-09-27T11:41:26Z</time></trkpt>
<trkpt lat="23.399839" lon="111.186595">
<time>2015-09-27T11:41:27Z</time></trkpt>
<trkpt lat="23.399858" lon="111.186255">
<time>2015-09-27T11:41:28Z</time></trkpt>
<trkpt lat="23.399887" lon="111.185654">
<time>2015-09-27T11:41:29Z</time></trkpt>
<trkpt lat="23.399897" lon="111.185464">
<time>2015-09-27T11:41:30Z</time></trkpt>
<trkpt lat="23.399907" lon="111.185364">
<time>2015-09-27T11:41:31Z</time></trkpt>
<trkpt lat="23.399917" lon="111.185183">
<time>2015-09-27T11:41:32Z</time></trkpt>
<trkpt lat="23.399917" lon="111.185143">
<time>2015-09-27T11:41:33Z</time></trkpt>
<trkpt lat="23.399926" lon="111.184983">
<time>2015-09-27T11:41:34Z</time></trkpt>
<trkpt lat="23.399936" lon="111.184833">
<time>2015-09-27T11:41:35Z</time></trkpt>
<trkpt lat="23.399926" lon="111.184593">
<time>2015-09-27T11:41:36Z</time></trkpt>
<trkpt lat="23.399905" lon="111.184382">
<time>2015-09-27T11:41:37Z</time></trkpt>
<trkpt lat="23.399875" lon="111.184202">
<time>2015-09-27T11:41:38Z</time></trkpt>
<trkpt lat="23.399815" lon="111.184032">
<time>2015-09-27T11:41:39Z</time></trkpt>
<trkpt lat="23.399754" lon="111.183872">
<time>2015-09-27T11:41:40Z</time></trkpt>
<trkpt lat="23.399704" lon="111.183772">
<time>2015-09-27T11:41:41Z</time></trkpt>
<trkpt lat="23.399654" lon="111.183682">
<time>2015-09-27T11:41:42Z</time></trkpt>
<trkpt lat="23.399584" lon="111.183572">
<time>2015-09-27T11:41:43Z</time></trkpt>
<trkpt lat="23.399514" lon="111.183491">
<time>2015-09-27T11:41:44Z</time></trkpt>
<trkpt lat="23.399444" lon="111.183401">
<time>2015-09-27T11:41:45Z</time></trkpt>
<trkpt lat="23.399343" lon="111.183311">
<time>2015-09-27T11:41:46Z</time></trkpt>
<trkpt lat="23.399183" lon="111.183171">
<time>2015-09-27T11:41:47Z</time></trkpt>
<trkpt lat="23.399013" lon="111.183071">
<time>2015-09-27T11:41:48Z</time></trkpt>
<trkpt lat="23.398823" lon="111.182981">
<time>2015-09-27T11:41:49Z</time></trkpt>
<trkpt lat="23.398423" lon="111.182821">
<time>2015-09-27T11:41:50Z</time></trkpt>
<trkpt lat="23.398162" lon="111.182691">
<time>2015-09-27T11:41:51Z</time></trkpt>
<trkpt lat="23.398002" lon="111.18258">
<time>2015-09-27T11:41:52Z</time></trkpt>
<trkpt lat="23.397872" lon="111.18248">
<time>2015-09-27T11:41:53Z</time></trkpt>
<trkpt lat="23.397762" lon="111.18235">
<time>2015-09-27T11:41:54Z</time></trkpt>
<trkpt lat="23.397712" lon="111.18228">
<time>2015-09-27T11:41:55Z</time></trkpt>
<trkpt lat="23.397662" lon="111.18221">
<time>2015-09-27T11:41:56Z</time></trkpt>
<trkpt lat="23.397622" lon="111.18212">
<time>2015-09-27T11:41:57Z</time></trkpt>
<trkpt lat="23.397581" lon="111.18205">
<time>2015-09-27T11:41:58Z</time></trkpt>
<trkpt lat="23.397551" lon="111.18197">
<time>2015-09-27T11:41:59Z</time></trkpt>
<trkpt lat="23.397521" lon="111.18188">
<time>2015-09-27T11:42:00Z</time></trkpt>
<trkpt lat="23.397501" lon="111.18179">
<time>2015-09-27T11:42:01Z</time></trkpt>
<trkpt lat="23.397471" lon="111.181649">
<time>2015-09-27T11:42:02Z</time></trkpt>
<trkpt lat="23.39746" lon="111.181529">
<time>2015-09-27T11:42:03Z</time></trkpt>
<trkpt lat="23.39746" lon="111.181429">
<time>2015-09-27T11:42:04Z</time></trkpt>
<trkpt lat="23.39747" lon="111.181359">
<time>2015-09-27T11:42:05Z</time></trkpt>
<trkpt lat="23.39748" lon="111.181269">
<time>2015-09-27T11:42:06Z</time></trkpt>
<trkpt lat="23.39749" lon="111.181179">
<time>2015-09-27T11:42:07Z</time></trkpt>
<trkpt lat="23.39752" lon="111.181069">
<time>2015-09-27T11:42:08Z</time></trkpt>
<trkpt lat="23.397539" lon="111.180979">
<time>2015-09-27T11:42:09Z</time></trkpt>
<trkpt lat="23.397579" lon="111.180828">
<time>2015-09-27T11:42:10Z</time></trkpt>
<trkpt lat="23.397639" lon="111.180648">
<time>2015-09-27T11:42:11Z</time></trkpt>
<trkpt lat="23.397708" lon="111.180338">
<time>2015-09-27T11:42:12Z</time></trkpt>
<trkpt lat="23.397718" lon="111.180168">
<time>2015-09-27T11:42:13Z</time></trkpt>
<trkpt lat="23.397718" lon="111.180017">
<time>2015-09-27T11:42:14Z</time></trkpt>
<trkpt lat="23.397707" lon="111.179877">
<time>2015-09-27T11:42:15Z</time></trkpt>
<trkpt lat="23.397687" lon="111.179747">
<time>2015-09-27T11:42:16Z</time></trkpt>
<trkpt lat="23.397657" lon="111.179607">
<time>2015-09-27T11:42:17Z</time></trkpt>
<trkpt lat="23.397617" lon="111.179507">
<time>2015-09-27T11:42:18Z</time></trkpt>
<trkpt lat="23.397567" lon="111.179407">
<time>2015-09-27T11:42:19Z</time></trkpt>
<trkpt lat="23.397486" lon="111.179266">
<time>2015-09-27T11:42:20Z</time></trkpt>
<trkpt lat="23.397196" lon="111.178866">
<time>2015-09-27T11:42:21Z</time></trkpt>
<trkpt lat="23.396895" lon="111.178466">
<time>2015-09-27T11:42:22Z</time></trkpt>
<trkpt lat="23.396835" lon="111.178385">
<time>2015-09-27T11:42:23Z</time></trkpt>
<trkpt lat="23.396594" lon="111.178075">
<time>2015-09-27T11:42:24Z</time></trkpt>
<trkpt lat="23.396374" lon="111.177775">
<time>2015-09-27T11:42:25Z</time></trkpt>
<trkpt lat="23.396264" lon="111.177625">
<time>2015-09-27T11:42:26Z</time></trkpt>
<trkpt lat="23.396223" lon="111.177564">
<time>2015-09-27T11:42:27Z</time></trkpt>
<trkpt lat="23.396223" lon="111.177554">
<time>2015-09-27T11:42:28Z</time></trkpt>
<trkpt lat="23.396183" lon="111.177484">
<time>2015-09-27T11:42:29Z</time></trkpt>
<trkpt lat="23.396153" lon="111.177424">
<time>2015-09-27T11:42:30Z</time></trkpt>
<trkpt lat="23.396123" lon="111.177364">
<time>2015-09-27T11:42:31Z</time></trkpt>
<trkpt lat="23.396103" lon="111.177294">
<time>2015-09-27T11:42:32Z</time></trkpt>
<trkpt lat="23.396073" lon="111.177234">
<time>2015-09-27T11:42:33Z</time></trkpt>
<trkpt lat="23.396043" lon="111.177134">
<time>2015-09-27T11:42:34Z</time></trkpt>
<trkpt lat="23.396012" lon="111.176994">
<time>2015-09-27T11:42:35Z</time></trkpt>
<trkpt lat="23.395992" lon="111.176834">
<time>2015-09-27T11:42:36Z</time></trkpt>
<trkpt lat="23.395992" lon="111.176653">
<time>2015-09-27T11:42:37Z</time></trkpt>
<trkpt lat="23.395991" lon="111.176433">
<time>2015-09-27T11:42:38Z</time></trkpt>
<trkpt lat="23.396011" lon="111.176123">
<time>2015-09-27T11:42:39Z</time></trkpt>
<trkpt lat="23.396" lon="111.175872">
<time>2015-09-27T11:42:40Z</time></trkpt>
<trkpt lat="23.39599" lon="111.175782">
<time>2015-09-27T11:42:41Z</time></trkpt>
<trkpt lat="23.39598" lon="111.175712">
<time>2015-09-27T11:42:42Z</time></trkpt>
<trkpt lat="23.39596" lon="111.175592">
<time>2015-09-27T11:42:43Z</time></trkpt>
<trkpt lat="23.395909" lon="111.175422">
<time>2015-09-27T11:42:44Z</time></trkpt>
<trkpt lat="23.395889" lon="111.175362">
<time>2015-09-27T11:42:45Z</time></trkpt>
<trkpt lat="23.395859" lon="111.175292">
<time>2015-09-27T11:42:46Z</time></trkpt>
<trkpt lat="23.395799" lon="111.175151">
<time>2015-09-27T11:42:47Z</time></trkpt>
<trkpt lat="23.395739" lon="111.175041">
<time>2015-09-27T11:42:48Z</time></trkpt>
<trkpt lat="23.395669" lon="111.174931">
<time>2015-09-27T11:42:49Z</time></trkpt>
<trkpt lat="23.395578" lon="111.174821">
<time>2015-09-27T11:42:50Z</time></trkpt>
<trkpt lat="23.395478" lon="111.174721">
<time>2015-09-27T11:42:51Z</time></trkpt>
<trkpt lat="23.395298" lon="111.174531">
<time>2015-09-27T11:42:52Z</time></trkpt>
<trkpt lat="23.395248" lon="111.174491">
<time>2015-09-27T11:42:53Z</time></trkpt>
<trkpt lat="23.395198" lon="111.174451">
<time>2015-09-27T11:42:54Z</time></trkpt>
<trkpt lat="23.395138" lon="111.174411">
<time>2015-09-27T11:42:55Z</time></trkpt>
<trkpt lat="23.395068" lon="111.174371">
<time>2015-09-27T11:42:56Z</time></trkpt>
<trkpt lat="23.394958" lon="111.17431">
<time>2015-09-27T11:42:57Z</time></trkpt>
<trkpt lat="23.394797" lon="111.17423">
<time>2015-09-27T11:42:58Z</time></trkpt>
<trkpt lat="23.394527" lon="111.17414">
<time>2015-09-27T11:42:59Z</time></trkpt>
<trkpt lat="23.394427" lon="111.17412">
<time>2015-09-27T11:43:00Z</time></trkpt>
<trkpt lat="23.394297" lon="111.1741">
<time>2015-09-27T11:43:01Z</time></trkpt>
<trkpt lat="23.394027" lon="111.17408">
<time>2015-09-27T11:43:02Z</time></trkpt>
<trkpt lat="23.393457" lon="111.17404">
<time>2015-09-27T11:43:03Z</time></trkpt>
<trkpt lat="23.393177" lon="111.174">
<time>2015-09-27T11:43:04Z</time></trkpt>
<trkpt lat="23.393037" lon="111.17398">
<time>2015-09-27T11:43:05Z</time></trkpt>
<trkpt lat="23.392867" lon="111.17394">
<time>2015-09-27T11:43:06Z</time></trkpt>
<trkpt lat="23.392747" lon="111.17389">
<time>2015-09-27T11:43:07Z</time></trkpt>
<trkpt lat="23.392617" lon="111.17383">
<time>2015-09-27T11:43:08Z</time></trkpt>
<trkpt lat="23.392497" lon="111.17376">
<time>2015-09-27T11:43:09Z</time></trkpt>
<trkpt lat="23.392387" lon="111.17368">
<time>2015-09-27T11:43:10Z</time></trkpt>
<trkpt lat="23.392317" lon="111.17362">
<time>2015-09-27T11:43:11Z</time></trkpt>
<trkpt lat="23.392197" lon="111.17349">
<time>2015-09-27T11:43:12Z</time></trkpt>
<trkpt lat="23.392116" lon="111.173369">
<time>2015-09-27T11:43:13Z</time></trkpt>
<trkpt lat="23.392036" lon="111.173239">
<time>2015-09-27T11:43:14Z</time></trkpt>
<trkpt lat="23.391986" lon="111.173089">
<time>2015-09-27T11:43:15Z</time></trkpt>
<trkpt lat="23.391966" lon="111.173039">
<time>2015-09-27T11:43:16Z</time></trkpt>
<trkpt lat="23.391946" lon="111.172979">
<time>2015-09-27T11:43:17Z</time></trkpt>
<trkpt lat="23.391925" lon="111.172849">
<time>2015-09-27T11:43:18Z</time></trkpt>
<trkpt lat="23.391915" lon="111.172749">
<time>2015-09-27T11:43:19Z</time></trkpt>
<trkpt lat="23.391905" lon="111.172629">
<time>2015-09-27T11:43:20Z</time></trkpt>
<trkpt lat="23.391915" lon="111.172528">
<time>2015-09-27T11:43:21Z</time></trkpt>
<trkpt lat="23.391915" lon="111.172448">
<time>2015-09-27T11:43:22Z</time></trkpt>
<trkpt lat="23.391925" lon="111.172398">
<time>2015-09-27T11:43:23Z</time></trkpt>
<trkpt lat="23.391934" lon="111.172338">
<time>2015-09-27T11:43:24Z</time></trkpt>
<trkpt lat="23.391954" lon="111.172268">
<time>2015-09-27T11:43:25Z</time></trkpt>
<trkpt lat="23.391984" lon="111.172148">
<time>2015-09-27T11:43:26Z</time></trkpt>
<trkpt lat="23.392024" lon="111.172008">
<time>2015-09-27T11:43:27Z</time></trkpt>
<trkpt lat="23.392083" lon="111.171868">
<time>2015-09-27T11:43:28Z</time></trkpt>
<trkpt lat="23.392133" lon="111.171747">
<time>2015-09-27T11:43:29Z</time></trkpt>
<trkpt lat="23.392243" lon="111.171547">
<time>2015-09-27T11:43:30Z</time></trkpt>
<trkpt lat="23.392382" lon="111.171317">
<time>2015-09-27T11:43:31Z</time></trkpt>
<trkpt lat="23.392632" lon="111.170966">
<time>2015-09-27T11:43:32Z</time></trkpt>
<trkpt lat="23.39306" lon="111.170366">
<time>2015-09-27T11:43:33Z</time></trkpt>
<trkpt lat="23.393579" lon="111.169625">
<time>2015-09-27T11:43:34Z</time></trkpt>
<trkpt lat="23.393808" lon="111.169284">
<time>2015-09-27T11:43:35Z</time></trkpt>
<trkpt lat="23.393998" lon="111.168984">
<time>2015-09-27T11:43:36Z</time></trkpt>
<trkpt lat="23.394087" lon="111.168824">
<time>2015-09-27T11:43:37Z</time></trkpt>
<trkpt lat="23.394167" lon="111.168653">
<time>2015-09-27T11:43:38Z</time></trkpt>
<trkpt lat="23.394277" lon="111.168363">
<time>2015-09-27T11:43:39Z</time></trkpt>
<trkpt lat="23.394326" lon="111.168213">
<time>2015-09-27T11:43:40Z</time></trkpt>
<trkpt lat="23.394376" lon="111.168013">
<time>2015-09-27T11:43:41Z</time></trkpt>
<trkpt lat="23.394425" lon="111.167802">
<time>2015-09-27T11:43:42Z</time></trkpt>
<trkpt lat="23.394475" lon="111.167572">
<time>2015-09-27T11:43:43Z</time></trkpt>
<trkpt lat="23.394485" lon="111.167432">
<time>2015-09-27T11:43:44Z</time></trkpt>
<trkpt lat="23.394504" lon="111.167262">
<time>2015-09-27T11:43:45Z</time></trkpt>
<trkpt lat="23.394543" lon="111.166791">
<time>2015-09-27T11:43:46Z</time></trkpt>
<trkpt lat="23.394563" lon="111.166501">
<time>2015-09-27T11:43:47Z</time></trkpt>
<trkpt lat="23.394603" lon="111.16629">
<time>2015-09-27T11:43:48Z</time></trkpt>
<trkpt lat="23.394622" lon="111.16615">
<time>2015-09-27T11:43:49Z</time></trkpt>
<trkpt lat="23.394682" lon="111.16591">
<time>2015-09-27T11:43:50Z</time></trkpt>
<trkpt lat="23.394791" lon="111.165569">
<time>2015-09-27T11:43:51Z</time></trkpt>
<trkpt lat="23.39494" lon="111.165199">
<time>2015-09-27T11:43:52Z</time></trkpt>
<trkpt lat="23.39508" lon="111.164828">
<time>2015-09-27T11:43:53Z</time></trkpt>
<trkpt lat="23.395368" lon="111.164047">
<time>2015-09-27T11:43:54Z</time></trkpt>
<trkpt lat="23.395408" lon="111.163917">
<time>2015-09-27T11:43:55Z</time></trkpt>
<trkpt lat="23.395438" lon="111.163787">
<time>2015-09-27T11:43:56Z</time></trkpt>
<trkpt lat="23.395467" lon="111.163627">
<time>2015-09-27T11:43:57Z</time></trkpt>
<trkpt lat="23.395487" lon="111.163487">
<time>2015-09-27T11:43:58Z</time></trkpt>
<trkpt lat="23.395497" lon="111.163387">
<time>2015-09-27T11:43:59Z</time></trkpt>
<trkpt lat="23.395497" lon="111.163276">
<time>2015-09-27T11:44:00Z</time></trkpt>
<trkpt lat="23.395486" lon="111.163146">
<time>2015-09-27T11:44:01Z</time></trkpt>
<trkpt lat="23.395446" lon="111.162696">
<time>2015-09-27T11:44:02Z</time></trkpt>
<trkpt lat="23.395395" lon="111.162395">
<time>2015-09-27T11:44:03Z</time></trkpt>
<trkpt lat="23.395354" lon="111.162095">
<time>2015-09-27T11:44:04Z</time></trkpt>
<trkpt lat="23.395344" lon="111.161855">
<time>2015-09-27T11:44:05Z</time></trkpt>
<trkpt lat="23.395354" lon="111.161694">
<time>2015-09-27T11:44:06Z</time></trkpt>
<trkpt lat="23.395373" lon="111.161524">
<time>2015-09-27T11:44:07Z</time></trkpt>
<trkpt lat="23.395393" lon="111.161354">
<time>2015-09-27T11:44:08Z</time></trkpt>
<trkpt lat="23.395443" lon="111.161154">
<time>2015-09-27T11:44:09Z</time></trkpt>
<trkpt lat="23.395532" lon="111.160833">
<time>2015-09-27T11:44:10Z</time></trkpt>
<trkpt lat="23.39583" lon="111.159862">
<time>2015-09-27T11:44:11Z</time></trkpt>
<trkpt lat="23.395999" lon="111.159341">
<time>2015-09-27T11:44:12Z</time></trkpt>
<trkpt lat="23.396118" lon="111.158891">
<time>2015-09-27T11:44:13Z</time></trkpt>
<trkpt lat="23.396128" lon="111.158821">
<time>2015-09-27T11:44:14Z</time></trkpt>
<trkpt lat="23.396128" lon="111.158741">
<time>2015-09-27T11:44:15Z</time></trkpt>
<trkpt lat="23.396138" lon="111.158671">
<time>2015-09-27T11:44:16Z</time></trkpt>
<trkpt lat="23.396138" lon="111.15858">
<time>2015-09-27T11:44:17Z</time></trkpt>
<trkpt lat="23.396138" lon="111.15846">
<time>2015-09-27T11:44:18Z</time></trkpt>
<trkpt lat="23.396137" lon="111.1584">
<time>2015-09-27T11:44:19Z</time></trkpt>
<trkpt lat="23.396127" lon="111.15832">
<time>2015-09-27T11:44:20Z</time></trkpt>
<trkpt lat="23.396117" lon="111.15826">
<time>2015-09-27T11:44:21Z</time></trkpt>
<trkpt lat="23.396097" lon="111.1582">
<time>2015-09-27T11:44:22Z</time></trkpt>
<trkpt lat="23.396067" lon="111.15808">
<time>2015-09-27T11:44:23Z</time></trkpt>
<trkpt lat="23.396027" lon="111.15798">
<time>2015-09-27T11:44:24Z</time></trkpt>
<trkpt lat="23.395956" lon="111.1578">
<time>2015-09-27T11:44:25Z</time></trkpt>
<trkpt lat="23.395836" lon="111.157579">
<time>2015-09-27T11:44:26Z</time></trkpt>
<trkpt lat="23.395655" lon="111.157259">
<time>2015-09-27T11:44:27Z</time></trkpt>
<trkpt lat="23.395485" lon="111.156858">
<time>2015-09-27T11:44:28Z</time></trkpt>
<trkpt lat="23.395404" lon="111.156528">
<time>2015-09-27T11:44:29Z</time></trkpt>
<trkpt lat="23.395333" lon="111.156168">
<time>2015-09-27T11:44:30Z</time></trkpt>
<trkpt lat="23.395263" lon="111.155817">
<time>2015-09-27T11:44:31Z</time></trkpt>
<trkpt lat="23.395243" lon="111.155737">
<time>2015-09-27T11:44:32Z</time></trkpt>
<trkpt lat="23.395212" lon="111.155647">
<time>2015-09-27T11:44:33Z</time></trkpt>
<trkpt lat="23.395152" lon="111.155517">
<time>2015-09-27T11:44:34Z</time></trkpt>
<trkpt lat="23.395102" lon="111.155407">
<time>2015-09-27T11:44:35Z</time></trkpt>
<trkpt lat="23.395062" lon="111.155337">
<time>2015-09-27T11:44:36Z</time></trkpt>
<trkpt lat="23.395002" lon="111.155246">
<time>2015-09-27T11:44:37Z</time></trkpt>
<trkpt lat="23.394942" lon="111.155176">
<time>2015-09-27T11:44:38Z</time></trkpt>
<trkpt lat="23.394872" lon="111.155106">
<time>2015-09-27T11:44:39Z</time></trkpt>
<trkpt lat="23.394831" lon="111.155066">
<time>2015-09-27T11:44:40Z</time></trkpt>
<trkpt lat="23.394781" lon="111.155026">
<time>2015-09-27T11:44:41Z</time></trkpt>
<trkpt lat="23.394721" lon="111.154986">
<time>2015-09-27T11:44:42Z</time></trkpt>
<trkpt lat="23.394641" lon="111.154946">
<time>2015-09-27T11:44:43Z</time></trkpt>
<trkpt lat="23.394521" lon="111.154876">
<time>2015-09-27T11:44:44Z</time></trkpt>
<trkpt lat="23.394241" lon="111.154756">
<time>2015-09-27T11:44:45Z</time></trkpt>
<trkpt lat="23.394211" lon="111.154746">
<time>2015-09-27T11:44:46Z</time></trkpt>
<trkpt lat="23.394001" lon="111.154646">
<time>2015-09-27T11:44:47Z</time></trkpt>
<trkpt lat="23.393931" lon="111.154616">
<time>2015-09-27T11:44:48Z</time></trkpt>
<trkpt lat="23.393861" lon="111.154576">
<time>2015-09-27T11:44:49Z</time></trkpt>
<trkpt lat="23.393781" lon="111.154516">
<time>2015-09-27T11:44:50Z</time></trkpt>
<trkpt lat="23.39366" lon="111.154416">
<time>2015-09-27T11:44:51Z</time></trkpt>
<trkpt lat="23.39358" lon="111.154335">
<time>2015-09-27T11:44:52Z</time></trkpt>
<trkpt lat="23.39352" lon="111.154265">
<time>2015-09-27T11:44:53Z</time></trkpt>
<trkpt lat="23.39348" lon="111.154195">
<time>2015-09-27T11:44:54Z</time></trkpt>
<trkpt lat="23.39345" lon="111.154145">
<time>2015-09-27T11:44:55Z</time></trkpt>
<trkpt lat="23.39341" lon="111.154075">
<time>2015-09-27T11:44:56Z</time></trkpt>
<trkpt lat="23.39338" lon="111.154005">
<time>2015-09-27T11:44:57Z</time></trkpt>
<trkpt lat="23.39336" lon="111.153945">
<time>2015-09-27T11:44:58Z</time></trkpt>
<trkpt lat="23.393329" lon="111.153825">
<time>2015-09-27T11:44:59Z</time></trkpt>
<trkpt lat="23.393299" lon="111.153695">
<time>2015-09-27T11:45:00Z</time></trkpt>
<trkpt lat="23.393299" lon="111.153595">
<time>2015-09-27T11:45:01Z</time></trkpt>
<trkpt lat="23.393289" lon="111.153515">
<time>2015-09-27T11:45:02Z</time></trkpt>
<trkpt lat="23.393299" lon="111.153374">
<time>2015-09-27T11:45:03Z</time></trkpt>
<trkpt lat="23.393308" lon="111.153284">
<time>2015-09-27T11:45:04Z</time></trkpt>
<trkpt lat="23.393328" lon="111.153194">
<time>2015-09-27T11:45:05Z</time></trkpt>
<trkpt lat="23.393348" lon="111.153114">
<time>2015-09-27T11:45:06Z</time></trkpt>
<trkpt lat="23.393368" lon="111.153064">
<time>2015-09-27T11:45:07Z</time></trkpt>
<trkpt lat="23.393428" lon="111.152894">
<time>2015-09-27T11:45:08Z</time></trkpt>
<trkpt lat="23.393557" lon="111.152633">
<time>2015-09-27T11:45:09Z</time></trkpt>
<trkpt lat="23.393776" lon="111.152183">
<time>2015-09-27T11:45:10Z</time></trkpt>
<trkpt lat="23.393966" lon="111.151802">
<time>2015-09-27T11:45:11Z</time></trkpt>
<trkpt lat="23.394105" lon="111.151522">
<time>2015-09-27T11:45:12Z</time></trkpt>
<trkpt lat="23.394235" lon="111.151212">
<time>2015-09-27T11:45:13Z</time></trkpt>
<trkpt lat="23.394294" lon="111.151062">
<time>2015-09-27T11:45:14Z</time></trkpt>
<trkpt lat="23.394334" lon="111.150931">
<time>2015-09-27T11:45:15Z</time></trkpt>
<trkpt lat="23.394374" lon="111.150741">
<time>2015-09-27T11:45:16Z</time></trkpt>
<trkpt lat="23.394393" lon="111.150601">
<time>2015-09-27T11:45:17Z</time></trkpt>
<trkpt lat="23.394413" lon="111.150451">
<time>2015-09-27T11:45:18Z</time></trkpt>
<trkpt lat="23.394423" lon="111.150281">
<time>2015-09-27T11:45:19Z</time></trkpt>
<trkpt lat="23.394423" lon="111.15012">
<time>2015-09-27T11:45:20Z</time></trkpt>
<trkpt lat="23.394412" lon="111.15">
<time>2015-09-27T11:45:21Z</time></trkpt>
<trkpt lat="23.394402" lon="111.14989">
<time>2015-09-27T11:45:22Z</time></trkpt>
<trkpt lat="23.394392" lon="111.14977">
<time>2015-09-27T11:45:23Z</time></trkpt>
<trkpt lat="23.394362" lon="111.14964">
<time>2015-09-27T11:45:24Z</time></trkpt>
<trkpt lat="23.394331" lon="111.14949">
<time>2015-09-27T11:45:25Z</time></trkpt>
<trkpt lat="23.394221" lon="111.149119">
<time>2015-09-27T11:45:26Z</time></trkpt>
<trkpt lat="23.39408" lon="111.148659">
<time>2015-09-27T11:45:27Z</time></trkpt>
<trkpt lat="23.393778" lon="111.147658">
<time>2015-09-27T11:45:28Z</time></trkpt>
<trkpt lat="23.393627" lon="111.147147">
<time>2015-09-27T11:45:29Z</time></trkpt>
<trkpt lat="23.393396" lon="111.146376">
<time>2015-09-27T11:45:30Z</time></trkpt>
<trkpt lat="23.393175" lon="111.145746">
<time>2015-09-27T11:45:31Z</time></trkpt>
<trkpt lat="23.393045" lon="111.145435">
<time>2015-09-27T11:45:32Z</time></trkpt>
<trkpt lat="23.392894" lon="111.145115">
<time>2015-09-27T11:45:33Z</time></trkpt>
<trkpt lat="23.392673" lon="111.144745">
<time>2015-09-27T11:45:34Z</time></trkpt>
<trkpt lat="23.392563" lon="111.144554">
<time>2015-09-27T11:45:35Z</time></trkpt>
<trkpt lat="23.392493" lon="111.144454">
<time>2015-09-27T11:45:36Z</time></trkpt>
<trkpt lat="23.392423" lon="111.144344">
<time>2015-09-27T11:45:37Z</time></trkpt>
<trkpt lat="23.392012" lon="111.143824">
<time>2015-09-27T11:45:38Z</time></trkpt>
<trkpt lat="23.391741" lon="111.143473">
<time>2015-09-27T11:45:39Z</time></trkpt>
<trkpt lat="23.391551" lon="111.143213">
<time>2015-09-27T11:45:40Z</time></trkpt>
<trkpt lat="23.391351" lon="111.142913">
<time>2015-09-27T11:45:41Z</time></trkpt>
<trkpt lat="23.39122" lon="111.142703">
<time>2015-09-27T11:45:42Z</time></trkpt>
<trkpt lat="23.39111" lon="111.142462">
<time>2015-09-27T11:45:43Z</time></trkpt>
<trkpt lat="23.39102" lon="111.142232">
<time>2015-09-27T11:45:44Z</time></trkpt>
<trkpt lat="23.390999" lon="111.142142">
<time>2015-09-27T11:45:45Z</time></trkpt>
<trkpt lat="23.390929" lon="111.141942">
<time>2015-09-27T11:45:46Z</time></trkpt>
<trkpt lat="23.390889" lon="111.141712">
<time>2015-09-27T11:45:47Z</time></trkpt>
<trkpt lat="23.390858" lon="111.141491">
<time>2015-09-27T11:45:48Z</time></trkpt>
<trkpt lat="23.390848" lon="111.141411">
<time>2015-09-27T11:45:49Z</time></trkpt>
<trkpt lat="23.390848" lon="111.141321">
<time>2015-09-27T11:45:50Z</time></trkpt>
<trkpt lat="23.390848" lon="111.141221">
<time>2015-09-27T11:45:51Z</time></trkpt>
<trkpt lat="23.390838" lon="111.141021">
<time>2015-09-27T11:45:52Z</time></trkpt>
<trkpt lat="23.390847" lon="111.140781">
<time>2015-09-27T11:45:53Z</time></trkpt>
<trkpt lat="23.390867" lon="111.140531">
<time>2015-09-27T11:45:54Z</time></trkpt>
<trkpt lat="23.390936" lon="111.13994">
<time>2015-09-27T11:45:55Z</time></trkpt>
<trkpt lat="23.390975" lon="111.139479">
<time>2015-09-27T11:45:56Z</time></trkpt>
<trkpt lat="23.390995" lon="111.139209">
<time>2015-09-27T11:45:57Z</time></trkpt>
<trkpt lat="23.391024" lon="111.138929">
<time>2015-09-27T11:45:58Z</time></trkpt>
<trkpt lat="23.391054" lon="111.138639">
<time>2015-09-27T11:45:59Z</time></trkpt>
<trkpt lat="23.391083" lon="111.138388">
<time>2015-09-27T11:46:00Z</time></trkpt>
<trkpt lat="23.391113" lon="111.138108">
<time>2015-09-27T11:46:01Z</time></trkpt>
<trkpt lat="23.391152" lon="111.137788">
<time>2015-09-27T11:46:02Z</time></trkpt>
<trkpt lat="23.391192" lon="111.137458">
<time>2015-09-27T11:46:03Z</time></trkpt>
<trkpt lat="23.391221" lon="111.137187">
<time>2015-09-27T11:46:04Z</time></trkpt>
<trkpt lat="23.391301" lon="111.136857">
<time>2015-09-27T11:46:05Z</time></trkpt>
<trkpt lat="23.391341" lon="111.136697">
<time>2015-09-27T11:46:06Z</time></trkpt>
<trkpt lat="23.39144" lon="111.136387">
<time>2015-09-27T11:46:07Z</time></trkpt>
<trkpt lat="23.39153" lon="111.136136">
<time>2015-09-27T11:46:08Z</time></trkpt>
<trkpt lat="23.391679" lon="111.135776">
<time>2015-09-27T11:46:09Z</time></trkpt>
<trkpt lat="23.391938" lon="111.135206">
<time>2015-09-27T11:46:10Z</time></trkpt>
<trkpt lat="23.392058" lon="111.134895">
<time>2015-09-27T11:46:11Z</time></trkpt>
<trkpt lat="23.392157" lon="111.134615">
<time>2015-09-27T11:46:12Z</time></trkpt>
<trkpt lat="23.392227" lon="111.134365">
<time>2015-09-27T11:46:13Z</time></trkpt>
<trkpt lat="23.392267" lon="111.134205">
<time>2015-09-27T11:46:14Z</time></trkpt>
<trkpt lat="23.392306" lon="111.134055">
<time>2015-09-27T11:46:15Z</time></trkpt>
<trkpt lat="23.392346" lon="111.133855">
<time>2015-09-27T11:46:16Z</time></trkpt>
<trkpt lat="23.392376" lon="111.133654">
<time>2015-09-27T11:46:17Z</time></trkpt>
<trkpt lat="23.392396" lon="111.133494">
<time>2015-09-27T11:46:18Z</time></trkpt>
<trkpt lat="23.392405" lon="111.133344">
<time>2015-09-27T11:46:19Z</time></trkpt>
<trkpt lat="23.392444" lon="111.132694">
<time>2015-09-27T11:46:20Z</time></trkpt>
<trkpt lat="23.392464" lon="111.132293">
<time>2015-09-27T11:46:21Z</time></trkpt>
<trkpt lat="23.392503" lon="111.131633">
<time>2015-09-27T11:46:22Z</time></trkpt>
<trkpt lat="23.392523" lon="111.131403">
<time>2015-09-27T11:46:23Z</time></trkpt>
<trkpt lat="23.392542" lon="111.130962">
<time>2015-09-27T11:46:24Z</time></trkpt>
<trkpt lat="23.392552" lon="111.130912">
<time>2015-09-27T11:46:25Z</time></trkpt>
<trkpt lat="23.392571" lon="111.130422">
<time>2015-09-27T11:46:26Z</time></trkpt>
<trkpt lat="23.392581" lon="111.130362">
<time>2015-09-27T11:46:27Z</time></trkpt>
<trkpt lat="23.392581" lon="111.130242">
<time>2015-09-27T11:46:28Z</time></trkpt>
<trkpt lat="23.392591" lon="111.129952">
<time>2015-09-27T11:46:29Z</time></trkpt>
<trkpt lat="23.39259" lon="111.129872">
<time>2015-09-27T11:46:30Z</time></trkpt>
<trkpt lat="23.39259" lon="111.129511">
<time>2015-09-27T11:46:31Z</time></trkpt>
<trkpt lat="23.39258" lon="111.129181">
<time>2015-09-27T11:46:32Z</time></trkpt>
<trkpt lat="23.392549" lon="111.128901">
<time>2015-09-27T11:46:33Z</time></trkpt>
<trkpt lat="23.392539" lon="111.128781">
<time>2015-09-27T11:46:34Z</time></trkpt>
<trkpt lat="23.392499" lon="111.128461">
<time>2015-09-27T11:46:35Z</time></trkpt>
<trkpt lat="23.392458" lon="111.12826">
<time>2015-09-27T11:46:36Z</time></trkpt>
<trkpt lat="23.392418" lon="111.1281">
<time>2015-09-27T11:46:37Z</time></trkpt>
<trkpt lat="23.392358" lon="111.12785">
<time>2015-09-27T11:46:38Z</time></trkpt>
<trkpt lat="23.392308" lon="111.12768">
<time>2015-09-27T11:46:39Z</time></trkpt>
<trkpt lat="23.392227" lon="111.12742">
<time>2015-09-27T11:46:40Z</time></trkpt>
<trkpt lat="23.392117" lon="111.12714">
<time>2015-09-27T11:46:41Z</time></trkpt>
<trkpt lat="23.391977" lon="111.12684">
<time>2015-09-27T11:46:42Z</time></trkpt>
<trkpt lat="23.391856" lon="111.1266">
<time>2015-09-27T11:46:43Z</time></trkpt>
<trkpt lat="23.391776" lon="111.126439">
<time>2015-09-27T11:46:44Z</time></trkpt>
<trkpt lat="23.391656" lon="111.126239">
<time>2015-09-27T11:46:45Z</time></trkpt>
<trkpt lat="23.391476" lon="111.125949">
<time>2015-09-27T11:46:46Z</time></trkpt>
<trkpt lat="23.391385" lon="111.125819">
<time>2015-09-27T11:46:47Z</time></trkpt>
<trkpt lat="23.391295" lon="111.125689">
<time>2015-09-27T11:46:48Z</time></trkpt>
<trkpt lat="23.391105" lon="111.125429">
<time>2015-09-27T11:46:49Z</time></trkpt>
<trkpt lat="23.390925" lon="111.125189">
<time>2015-09-27T11:46:50Z</time></trkpt>
<trkpt lat="23.390774" lon="111.124999">
<time>2015-09-27T11:46:51Z</time></trkpt>
<trkpt lat="23.390584" lon="111.124749">
<time>2015-09-27T11:46:52Z</time></trkpt>
<trkpt lat="23.390554" lon="111.124699">
<time>2015-09-27T11:46:53Z</time></trkpt>
<trkpt lat="23.390494" lon="111.124629">
<time>2015-09-27T11:46:54Z</time></trkpt>
<trkpt lat="23.390454" lon="111.124579">
<time>2015-09-27T11:46:55Z</time></trkpt>
<trkpt lat="23.390414" lon="111.124528">
<time>2015-09-27T11:46:56Z</time></trkpt>
<trkpt lat="23.389893" lon="111.123868">
<time>2015-09-27T11:46:57Z</time></trkpt>
<trkpt lat="23.389773" lon="111.123718">
<time>2015-09-27T11:46:58Z</time></trkpt>
<trkpt lat="23.389242" lon="111.123028">
<time>2015-09-27T11:46:59Z</time></trkpt>
<trkpt lat="23.388421" lon="111.121987">
<time>2015-09-27T11:47:00Z</time></trkpt>
<trkpt lat="23.388221" lon="111.121717">
<time>2015-09-27T11:47:01Z</time></trkpt>
<trkpt lat="23.388171" lon="111.121647">
<time>2015-09-27T11:47:02Z</time></trkpt>
<trkpt lat="23.388111" lon="111.121557">
<time>2015-09-27T11:47:03Z</time></trkpt>
<trkpt lat="23.388091" lon="111.121527">
<time>2015-09-27T11:47:04Z</time></trkpt>
<trkpt lat="23.388061" lon="111.121467">
<time>2015-09-27T11:47:05Z</time></trkpt>
<trkpt lat="23.388021" lon="111.121397">
<time>2015-09-27T11:47:06Z</time></trkpt>
<trkpt lat="23.387921" lon="111.121207">
<time>2015-09-27T11:47:07Z</time></trkpt>
<trkpt lat="23.38783" lon="111.121017">
<time>2015-09-27T11:47:08Z</time></trkpt>
<trkpt lat="23.38776" lon="111.120817">
<time>2015-09-27T11:47:09Z</time></trkpt>
<trkpt lat="23.38771" lon="111.120667">
<time>2015-09-27T11:47:10Z</time></trkpt>
<trkpt lat="23.387609" lon="111.120137">
<time>2015-09-27T11:47:11Z</time></trkpt>
<trkpt lat="23.387599" lon="111.119997">
<time>2015-09-27T11:47:12Z</time></trkpt>
<trkpt lat="23.387599" lon="111.119917">
<time>2015-09-27T11:47:13Z</time></trkpt>
<trkpt lat="23.387599" lon="111.119847">
<time>2015-09-27T11:47:14Z</time></trkpt>
<trkpt lat="23.387599" lon="111.119767">
<time>2015-09-27T11:47:15Z</time></trkpt>
<trkpt lat="23.387599" lon="111.119697">
<time>2015-09-27T11:47:16Z</time></trkpt>
<trkpt lat="23.387609" lon="111.119547">
<time>2015-09-27T11:47:17Z</time></trkpt>
<trkpt lat="23.387629" lon="111.119377">
<time>2015-09-27T11:47:18Z</time></trkpt>
<trkpt lat="23.387638" lon="111.119246">
<time>2015-09-27T11:47:19Z</time></trkpt>
<trkpt lat="23.387708" lon="111.118826">
<time>2015-09-27T11:47:20Z</time></trkpt>
<trkpt lat="23.387748" lon="111.118506">
<time>2015-09-27T11:47:21Z</time></trkpt>
<trkpt lat="23.387768" lon="111.118366">
<time>2015-09-27T11:47:22Z</time></trkpt>
<trkpt lat="23.387787" lon="111.118206">
<time>2015-09-27T11:47:23Z</time></trkpt>
<trkpt lat="23.387807" lon="111.117756">
<time>2015-09-27T11:47:24Z</time></trkpt>
<trkpt lat="23.387807" lon="111.117686">
<time>2015-09-27T11:47:25Z</time></trkpt>
<trkpt lat="23.387807" lon="111.117616">
<time>2015-09-27T11:47:26Z</time></trkpt>
<trkpt lat="23.387797" lon="111.117476">
<time>2015-09-27T11:47:27Z</time></trkpt>
<trkpt lat="23.387776" lon="111.117316">
<time>2015-09-27T11:47:28Z</time></trkpt>
<trkpt lat="23.387756" lon="111.117186">
<time>2015-09-27T11:47:29Z</time></trkpt>
<trkpt lat="23.387726" lon="111.116996">
<time>2015-09-27T11:47:30Z</time></trkpt>
<trkpt lat="23.387686" lon="111.116836">
<time>2015-09-27T11:47:31Z</time></trkpt>
<trkpt lat="23.387646" lon="111.116686">
<time>2015-09-27T11:47:32Z</time></trkpt>
<trkpt lat="23.387596" lon="111.116536">
<time>2015-09-27T11:47:33Z</time></trkpt>
<trkpt lat="23.387506" lon="111.116296">
<time>2015-09-27T11:47:34Z</time></trkpt>
<trkpt lat="23.387435" lon="111.116126">
<time>2015-09-27T11:47:35Z</time></trkpt>
<trkpt lat="23.387375" lon="111.116006">
<time>2015-09-27T11:47:36Z</time></trkpt>
<trkpt lat="23.387315" lon="111.115886">
<time>2015-09-27T11:47:37Z</time></trkpt>
<trkpt lat="23.387245" lon="111.115756">
<time>2015-09-27T11:47:38Z</time></trkpt>
<trkpt lat="23.387095" lon="111.115506">
<time>2015-09-27T11:47:39Z</time></trkpt>
<trkpt lat="23.387015" lon="111.115376">
<time>2015-09-27T11:47:40Z</time></trkpt>
<trkpt lat="23.386965" lon="111.115296">
<time>2015-09-27T11:47:41Z</time></trkpt>
<trkpt lat="23.386554" lon="111.114625">
<time>2015-09-27T11:47:42Z</time></trkpt>
<trkpt lat="23.386444" lon="111.114435">
<time>2015-09-27T11:47:43Z</time></trkpt>
<trkpt lat="23.386394" lon="111.114355">
<time>2015-09-27T11:47:44Z</time></trkpt>
<trkpt lat="23.386144" lon="111.113915">
<time>2015-09-27T11:47:45Z</time></trkpt>
<trkpt lat="23.385893" lon="111.113505">
<time>2015-09-27T11:47:46Z</time></trkpt>
<trkpt lat="23.385753" lon="111.113275">
<time>2015-09-27T11:47:47Z</time></trkpt>
<trkpt lat="23.385663" lon="111.113105">
<time>2015-09-27T11:47:48Z</time></trkpt>
<trkpt lat="23.385593" lon="111.112975">
<time>2015-09-27T11:47:49Z</time></trkpt>
<trkpt lat="23.385583" lon="111.112955">
<time>2015-09-27T11:47:50Z</time></trkpt>
<trkpt lat="23.385523" lon="111.112835">
<time>2015-09-27T11:47:51Z</time></trkpt>
<trkpt lat="23.385433" lon="111.112655">
<time>2015-09-27T11:47:52Z</time></trkpt>
<trkpt lat="23.385152" lon="111.112065">
<time>2015-09-27T11:47:53Z</time></trkpt>
<trkpt lat="23.384802" lon="111.111325">
<time>2015-09-27T11:47:54Z</time></trkpt>
<trkpt lat="23.384531" lon="111.110705">
<time>2015-09-27T11:47:55Z</time></trkpt>
<trkpt lat="23.384431" lon="111.110505">
<time>2015-09-27T11:47:56Z</time></trkpt>
<trkpt lat="23.384061" lon="111.109705">
<time>2015-09-27T11:47:57Z</time></trkpt>
<trkpt lat="23.38376" lon="111.109045">
<time>2015-09-27T11:47:58Z</time></trkpt>
<trkpt lat="23.3836" lon="111.108726">
<time>2015-09-27T11:47:59Z</time></trkpt>
<trkpt lat="23.38354" lon="111.108596">
<time>2015-09-27T11:48:00Z</time></trkpt>
<trkpt lat="23.38345" lon="111.108416">
<time>2015-09-27T11:48:01Z</time></trkpt>
<trkpt lat="23.38337" lon="111.108286">
<time>2015-09-27T11:48:02Z</time></trkpt>
<trkpt lat="23.38319" lon="111.107996">
<time>2015-09-27T11:48:03Z</time></trkpt>
<trkpt lat="23.38308" lon="111.107826">
<time>2015-09-27T11:48:04Z</time></trkpt>
<trkpt lat="23.38294" lon="111.107636">
<time>2015-09-27T11:48:05Z</time></trkpt>
<trkpt lat="23.38279" lon="111.107446">
<time>2015-09-27T11:48:06Z</time></trkpt>
<trkpt lat="23.382659" lon="111.107276">
<time>2015-09-27T11:48:07Z</time></trkpt>
<trkpt lat="23.382389" lon="111.106956">
<time>2015-09-27T11:48:08Z</time></trkpt>
<trkpt lat="23.382189" lon="111.106726">
<time>2015-09-27T11:48:09Z</time></trkpt>
<trkpt lat="23.381819" lon="111.106276">
<time>2015-09-27T11:48:10Z</time></trkpt>
<trkpt lat="23.381629" lon="111.106016">
<time>2015-09-27T11:48:11Z</time></trkpt>
<trkpt lat="23.381399" lon="111.105676">
<time>2015-09-27T11:48:12Z</time></trkpt>
<trkpt lat="23.381239" lon="111.105416">
<time>2015-09-27T11:48:13Z</time></trkpt>
<trkpt lat="23.381119" lon="111.105196">
<time>2015-09-27T11:48:14Z</time></trkpt>
<trkpt lat="23.380828" lon="111.104616">
<time>2015-09-27T11:48:15Z</time></trkpt>
<trkpt lat="23.380618" lon="111.104147">
<time>2015-09-27T11:48:16Z</time></trkpt>
<trkpt lat="23.380528" lon="111.103957">
<time>2015-09-27T11:48:17Z</time></trkpt>
<trkpt lat="23.380288" lon="111.103417">
<time>2015-09-27T11:48:18Z</time></trkpt>
<trkpt lat="23.380148" lon="111.103097">
<time>2015-09-27T11:48:19Z</time></trkpt>
<trkpt lat="23.380048" lon="111.102877">
<time>2015-09-27T11:48:20Z</time></trkpt>
<trkpt lat="23.379928" lon="111.102597">
<time>2015-09-27T11:48:21Z</time></trkpt>
<trkpt lat="23.379808" lon="111.102357">
<time>2015-09-27T11:48:22Z</time></trkpt>
<trkpt lat="23.379677" lon="111.102077">
<time>2015-09-27T11:48:23Z</time></trkpt>
<trkpt lat="23.379567" lon="111.101858">
<time>2015-09-27T11:48:24Z</time></trkpt>
<trkpt lat="23.379497" lon="111.101718">
<time>2015-09-27T11:48:25Z</time></trkpt>
<trkpt lat="23.379387" lon="111.101518">
<time>2015-09-27T11:48:26Z</time></trkpt>
<trkpt lat="23.379297" lon="111.101368">
<time>2015-09-27T11:48:27Z</time></trkpt>
<trkpt lat="23.379237" lon="111.101268">
<time>2015-09-27T11:48:28Z</time></trkpt>
<trkpt lat="23.379037" lon="111.100938">
<time>2015-09-27T11:48:29Z</time></trkpt>
<trkpt lat="23.378847" lon="111.100648">
<time>2015-09-27T11:48:30Z</time></trkpt>
<trkpt lat="23.378717" lon="111.100458">
<time>2015-09-27T11:48:31Z</time></trkpt>
<trkpt lat="23.378537" lon="111.100208">
<time>2015-09-27T11:48:32Z</time></trkpt>
<trkpt lat="23.378267" lon="111.099829">
<time>2015-09-27T11:48:33Z</time></trkpt>
<trkpt lat="23.378137" lon="111.099629">
<time>2015-09-27T11:48:34Z</time></trkpt>
<trkpt lat="23.377887" lon="111.099249">
<time>2015-09-27T11:48:35Z</time></trkpt>
<trkpt lat="23.377767" lon="111.099069">
<time>2015-09-27T11:48:36Z</time></trkpt>
<trkpt lat="23.377657" lon="111.098889">
<time>2015-09-27T11:48:37Z</time></trkpt>
<trkpt lat="23.377587" lon="111.098769">
<time>2015-09-27T11:48:38Z</time></trkpt>
<trkpt lat="23.377427" lon="111.098459">
<time>2015-09-27T11:48:39Z</time></trkpt>
<trkpt lat="23.377297" lon="111.098169">
<time>2015-09-27T11:48:40Z</time></trkpt>
<trkpt lat="23.377187" lon="111.09788">
<time>2015-09-27T11:48:41Z</time></trkpt>
<trkpt lat="23.377077" lon="111.09755">
<time>2015-09-27T11:48:42Z</time></trkpt>
<trkpt lat="23.376977" lon="111.0972">
<time>2015-09-27T11:48:43Z</time></trkpt>
<trkpt lat="23.376886" lon="111.09682">
<time>2015-09-27T11:48:44Z</time></trkpt>
<trkpt lat="23.376786" lon="111.096331">
<time>2015-09-27T11:48:45Z</time></trkpt>
<trkpt lat="23.376736" lon="111.096071">
<time>2015-09-27T11:48:46Z</time></trkpt>
<trkpt lat="23.376706" lon="111.095911">
<time>2015-09-27T11:48:47Z</time></trkpt>
<trkpt lat="23.376676" lon="111.095791">
<time>2015-09-27T11:48:48Z</time></trkpt>
<trkpt lat="23.376636" lon="111.095651">
<time>2015-09-27T11:48:49Z</time></trkpt>
<trkpt lat="23.376606" lon="111.095521">
<time>2015-09-27T11:48:50Z</time></trkpt>
<trkpt lat="23.376556" lon="111.095351">
<time>2015-09-27T11:48:51Z</time></trkpt>
<trkpt lat="23.376456" lon="111.095042">
<time>2015-09-27T11:48:52Z</time></trkpt>
<trkpt lat="23.376336" lon="111.094742">
<time>2015-09-27T11:48:53Z</time></trkpt>
<trkpt lat="23.376276" lon="111.094602">
<time>2015-09-27T11:48:54Z</time></trkpt>
<trkpt lat="23.376206" lon="111.094442">
<time>2015-09-27T11:48:55Z</time></trkpt>
<trkpt lat="23.376056" lon="111.094162">
<time>2015-09-27T11:48:56Z</time></trkpt>
<trkpt lat="23.375896" lon="111.093902">
<time>2015-09-27T11:48:57Z</time></trkpt>
<trkpt lat="23.375716" lon="111.093623">
<time>2015-09-27T11:48:58Z</time></trkpt>
<trkpt lat="23.375626" lon="111.093493">
<time>2015-09-27T11:48:59Z</time></trkpt>
<trkpt lat="23.375226" lon="111.092903">
<time>2015-09-27T11:49:00Z</time></trkpt>
<trkpt lat="23.374837" lon="111.092314">
<time>2015-09-27T11:49:01Z</time></trkpt>
<trkpt lat="23.374537" lon="111.091844">
<time>2015-09-27T11:49:02Z</time></trkpt>
<trkpt lat="23.374187" lon="111.091285">
<time>2015-09-27T11:49:03Z</time></trkpt>
<trkpt lat="23.373867" lon="111.090745">
<time>2015-09-27T11:49:04Z</time></trkpt>
<trkpt lat="23.373517" lon="111.090136">
<time>2015-09-27T11:49:05Z</time></trkpt>
<trkpt lat="23.373317" lon="111.089796">
<time>2015-09-27T11:49:06Z</time></trkpt>
<trkpt lat="23.373197" lon="111.089596">
<time>2015-09-27T11:49:07Z</time></trkpt>
<trkpt lat="23.373057" lon="111.089347">
<time>2015-09-27T11:49:08Z</time></trkpt>
<trkpt lat="23.372937" lon="111.089137">
<time>2015-09-27T11:49:09Z</time></trkpt>
<trkpt lat="23.372727" lon="111.088757">
<time>2015-09-27T11:49:10Z</time></trkpt>
<trkpt lat="23.372627" lon="111.088597">
<time>2015-09-27T11:49:11Z</time></trkpt>
<trkpt lat="23.372497" lon="111.088358">
<time>2015-09-27T11:49:12Z</time></trkpt>
<trkpt lat="23.372348" lon="111.088098">
<time>2015-09-27T11:49:13Z</time></trkpt>
<trkpt lat="23.372208" lon="111.087868">
<time>2015-09-27T11:49:14Z</time></trkpt>
<trkpt lat="23.372078" lon="111.087639">
<time>2015-09-27T11:49:15Z</time></trkpt>
<trkpt lat="23.371938" lon="111.087399">
<time>2015-09-27T11:49:16Z</time></trkpt>
<trkpt lat="23.371818" lon="111.087189">
<time>2015-09-27T11:49:17Z</time></trkpt>
<trkpt lat="23.371648" lon="111.086899">
<time>2015-09-27T11:49:18Z</time></trkpt>
<trkpt lat="23.371338" lon="111.08634">
<time>2015-09-27T11:49:19Z</time></trkpt>
<trkpt lat="23.371118" lon="111.08596">
<time>2015-09-27T11:49:20Z</time></trkpt>
<trkpt lat="23.370948" lon="111.085681">
<time>2015-09-27T11:49:21Z</time></trkpt>
<trkpt lat="23.370789" lon="111.085401">
<time>2015-09-27T11:49:22Z</time></trkpt>
<trkpt lat="23.370459" lon="111.084842">
<time>2015-09-27T11:49:23Z</time></trkpt>
<trkpt lat="23.370329" lon="111.084592">
<time>2015-09-27T11:49:24Z</time></trkpt>
<trkpt lat="23.370099" lon="111.084203">
<time>2015-09-27T11:49:25Z</time></trkpt>
<trkpt lat="23.369949" lon="111.083923">
<time>2015-09-27T11:49:26Z</time></trkpt>
<trkpt lat="23.369809" lon="111.083653">
<time>2015-09-27T11:49:27Z</time></trkpt>
<trkpt lat="23.36967" lon="111.083374">
<time>2015-09-27T11:49:28Z</time></trkpt>
<trkpt lat="23.36955" lon="111.083094">
<time>2015-09-27T11:49:29Z</time></trkpt>
<trkpt lat="23.36942" lon="111.082735">
<time>2015-09-27T11:49:30Z</time></trkpt>
<trkpt lat="23.36934" lon="111.082505">
<time>2015-09-27T11:49:31Z</time></trkpt>
<trkpt lat="23.36928" lon="111.082315">
<time>2015-09-27T11:49:32Z</time></trkpt>
<trkpt lat="23.36923" lon="111.082145">
<time>2015-09-27T11:49:33Z</time></trkpt>
<trkpt lat="23.36916" lon="111.081836">
<time>2015-09-27T11:49:34Z</time></trkpt>
<trkpt lat="23.369121" lon="111.081636">
<time>2015-09-27T11:49:35Z</time></trkpt>
<trkpt lat="23.369091" lon="111.081486">
<time>2015-09-27T11:49:36Z</time></trkpt>
<trkpt lat="23.369071" lon="111.081376">
<time>2015-09-27T11:49:37Z</time></trkpt>
<trkpt lat="23.369061" lon="111.081317">
<time>2015-09-27T11:49:38Z</time></trkpt>
<trkpt lat="23.369031" lon="111.081187">
<time>2015-09-27T11:49:39Z</time></trkpt>
<trkpt lat="23.368941" lon="111.080598">
<time>2015-09-27T11:49:40Z</time></trkpt>
<trkpt lat="23.368871" lon="111.080198">
<time>2015-09-27T11:49:41Z</time></trkpt>
<trkpt lat="23.368812" lon="111.079859">
<time>2015-09-27T11:49:42Z</time></trkpt>
<trkpt lat="23.368752" lon="111.079519">
<time>2015-09-27T11:49:43Z</time></trkpt>
<trkpt lat="23.368702" lon="111.07924">
<time>2015-09-27T11:49:44Z</time></trkpt>
<trkpt lat="23.368553" lon="111.078221">
<time>2015-09-27T11:49:45Z</time></trkpt>
<trkpt lat="23.368503" lon="111.077892">
<time>2015-09-27T11:49:46Z</time></trkpt>
<trkpt lat="23.368463" lon="111.077572">
<time>2015-09-27T11:49:47Z</time></trkpt>
<trkpt lat="23.368374" lon="111.076973">
<time>2015-09-27T11:49:48Z</time></trkpt>
<trkpt lat="23.368204" lon="111.075905">
<time>2015-09-27T11:49:49Z</time></trkpt>
<trkpt lat="23.368045" lon="111.074976">
<time>2015-09-27T11:49:50Z</time></trkpt>
<trkpt lat="23.368005" lon="111.074757">
<time>2015-09-27T11:49:51Z</time></trkpt>
<trkpt lat="23.367926" lon="111.074328">
<time>2015-09-27T11:49:52Z</time></trkpt>
<trkpt lat="23.367816" lon="111.073769">
<time>2015-09-27T11:49:53Z</time></trkpt>
<trkpt lat="23.367776" lon="111.073619">
<time>2015-09-27T11:49:54Z</time></trkpt>
<trkpt lat="23.367707" lon="111.073299">
<time>2015-09-27T11:49:55Z</time></trkpt>
<trkpt lat="23.367627" lon="111.07297">
<time>2015-09-27T11:49:56Z</time></trkpt>
<trkpt lat="23.367527" lon="111.072641">
<time>2015-09-27T11:49:57Z</time></trkpt>
<trkpt lat="23.367438" lon="111.072321">
<time>2015-09-27T11:49:58Z</time></trkpt>
<trkpt lat="23.367338" lon="111.072012">
<time>2015-09-27T11:49:59Z</time></trkpt>
<trkpt lat="23.367228" lon="111.071682">
<time>2015-09-27T11:50:00Z</time></trkpt>
<trkpt lat="23.367119" lon="111.071373">
<time>2015-09-27T11:50:01Z</time></trkpt>
<trkpt lat="23.366999" lon="111.071054">
<time>2015-09-27T11:50:02Z</time></trkpt>
<trkpt lat="23.366879" lon="111.070744">
<time>2015-09-27T11:50:03Z</time></trkpt>
<trkpt lat="23.366829" lon="111.070634">
<time>2015-09-27T11:50:04Z</time></trkpt>
<trkpt lat="23.36677" lon="111.070475">
<time>2015-09-27T11:50:05Z</time></trkpt>
<trkpt lat="23.36664" lon="111.070145">
<time>2015-09-27T11:50:06Z</time></trkpt>
<trkpt lat="23.36652" lon="111.069856">
<time>2015-09-27T11:50:07Z</time></trkpt>
<trkpt lat="23.366401" lon="111.069567">
<time>2015-09-27T11:50:08Z</time></trkpt>
<trkpt lat="23.366261" lon="111.069247">
<time>2015-09-27T11:50:09Z</time></trkpt>
<trkpt lat="23.365902" lon="111.068399">
<time>2015-09-27T11:50:10Z</time></trkpt>
<trkpt lat="23.365762" lon="111.06807">
<time>2015-09-27T11:50:11Z</time></trkpt>
<trkpt lat="23.365503" lon="111.067481">
<time>2015-09-27T11:50:12Z</time></trkpt>
<trkpt lat="23.365383" lon="111.067181">
<time>2015-09-27T11:50:13Z</time></trkpt>
<trkpt lat="23.365114" lon="111.066563">
<time>2015-09-27T11:50:14Z</time></trkpt>
<trkpt lat="23.364965" lon="111.066214">
<time>2015-09-27T11:50:15Z</time></trkpt>
<trkpt lat="23.364855" lon="111.065934">
<time>2015-09-27T11:50:16Z</time></trkpt>
<trkpt lat="23.364606" lon="111.065325">
<time>2015-09-27T11:50:17Z</time></trkpt>
<trkpt lat="23.364486" lon="111.065016">
<time>2015-09-27T11:50:18Z</time></trkpt>
<trkpt lat="23.364377" lon="111.064727">
<time>2015-09-27T11:50:19Z</time></trkpt>
<trkpt lat="23.364277" lon="111.064457">
<time>2015-09-27T11:50:20Z</time></trkpt>
<trkpt lat="23.364217" lon="111.064278">
<time>2015-09-27T11:50:21Z</time></trkpt>
<trkpt lat="23.364137" lon="111.064018">
<time>2015-09-27T11:50:22Z</time></trkpt>
<trkpt lat="23.364038" lon="111.063729">
<time>2015-09-27T11:50:23Z</time></trkpt>
<trkpt lat="23.363889" lon="111.0632">
<time>2015-09-27T11:50:24Z</time></trkpt>
<trkpt lat="23.363749" lon="111.062711">
<time>2015-09-27T11:50:25Z</time></trkpt>
<trkpt lat="23.36367" lon="111.062412">
<time>2015-09-27T11:50:26Z</time></trkpt>
<trkpt lat="23.36359" lon="111.062123">
<time>2015-09-27T11:50:27Z</time></trkpt>
<trkpt lat="23.363451" lon="111.061524">
<time>2015-09-27T11:50:28Z</time></trkpt>
<trkpt lat="23.363441" lon="111.061514">
<time>2015-09-27T11:50:29Z</time></trkpt>
<trkpt lat="23.363292" lon="111.060906">
<time>2015-09-27T11:50:30Z</time></trkpt>
<trkpt lat="23.363113" lon="111.060237">
<time>2015-09-27T11:50:31Z</time></trkpt>
<trkpt lat="23.363073" lon="111.060108">
<time>2015-09-27T11:50:32Z</time></trkpt>
<trkpt lat="23.363033" lon="111.059958">
<time>2015-09-27T11:50:33Z</time></trkpt>
<trkpt lat="23.362994" lon="111.059828">
<time>2015-09-27T11:50:34Z</time></trkpt>
<trkpt lat="23.362934" lon="111.059689">
<time>2015-09-27T11:50:35Z</time></trkpt>
<trkpt lat="23.362874" lon="111.059559">
<time>2015-09-27T11:50:36Z</time></trkpt>
<trkpt lat="23.362794" lon="111.059409">
<time>2015-09-27T11:50:37Z</time></trkpt>
<trkpt lat="23.362714" lon="111.05927">
<time>2015-09-27T11:50:38Z</time></trkpt>
<trkpt lat="23.362635" lon="111.05916">
<time>2015-09-27T11:50:39Z</time></trkpt>
<trkpt lat="23.362555" lon="111.05903">
<time>2015-09-27T11:50:40Z</time></trkpt>
<trkpt lat="23.362525" lon="111.05898">
<time>2015-09-27T11:50:41Z</time></trkpt>
<trkpt lat="23.362505" lon="111.05895">
<time>2015-09-27T11:50:42Z</time></trkpt>
<trkpt lat="23.362475" lon="111.058911">
<time>2015-09-27T11:50:43Z</time></trkpt>
<trkpt lat="23.362395" lon="111.058801">
<time>2015-09-27T11:50:44Z</time></trkpt>
<trkpt lat="23.362285" lon="111.058681">
<time>2015-09-27T11:50:45Z</time></trkpt>
<trkpt lat="23.362246" lon="111.058621">
<time>2015-09-27T11:50:46Z</time></trkpt>
<trkpt lat="23.362206" lon="111.058581">
<time>2015-09-27T11:50:47Z</time></trkpt>
<trkpt lat="23.362146" lon="111.058522">
<time>2015-09-27T11:50:48Z</time></trkpt>
<trkpt lat="23.362046" lon="111.058412">
<time>2015-09-27T11:50:49Z</time></trkpt>
<trkpt lat="23.361946" lon="111.058312">
<time>2015-09-27T11:50:50Z</time></trkpt>
<trkpt lat="23.361906" lon="111.058262">
<time>2015-09-27T11:50:51Z</time></trkpt>
<trkpt lat="23.361876" lon="111.058232">
<time>2015-09-27T11:50:52Z</time></trkpt>
<trkpt lat="23.361657" lon="111.058003">
<time>2015-09-27T11:50:53Z</time></trkpt>
<trkpt lat="23.361417" lon="111.057773">
<time>2015-09-27T11:50:54Z</time></trkpt>
<trkpt lat="23.361197" lon="111.057534">
<time>2015-09-27T11:50:55Z</time></trkpt>
<trkpt lat="23.360968" lon="111.057305">
<time>2015-09-27T11:50:56Z</time></trkpt>
<trkpt lat="23.360738" lon="111.057075">
<time>2015-09-27T11:50:57Z</time></trkpt>
<trkpt lat="23.360509" lon="111.056846">
<time>2015-09-27T11:50:58Z</time></trkpt>
<trkpt lat="23.360279" lon="111.056607">
<time>2015-09-27T11:50:59Z</time></trkpt>
<trkpt lat="23.35983" lon="111.056148">
<time>2015-09-27T11:51:00Z</time></trkpt>
<trkpt lat="23.35961" lon="111.055918">
<time>2015-09-27T11:51:01Z</time></trkpt>
<trkpt lat="23.35953" lon="111.055839">
<time>2015-09-27T11:51:02Z</time></trkpt>
<trkpt lat="23.359421" lon="111.055719">
<time>2015-09-27T11:51:03Z</time></trkpt>
<trkpt lat="23.359251" lon="111.055559">
<time>2015-09-27T11:51:04Z</time></trkpt>
<trkpt lat="23.359101" lon="111.05541">
<time>2015-09-27T11:51:05Z</time></trkpt>
<trkpt lat="23.359081" lon="111.05538">
<time>2015-09-27T11:51:06Z</time></trkpt>
<trkpt lat="23.358962" lon="111.05525">
<time>2015-09-27T11:51:07Z</time></trkpt>
<trkpt lat="23.358812" lon="111.055091">
<time>2015-09-27T11:51:08Z</time></trkpt>
<trkpt lat="23.358652" lon="111.054911">
<time>2015-09-27T11:51:09Z</time></trkpt>
<trkpt lat="23.358503" lon="111.054732">
<time>2015-09-27T11:51:10Z</time></trkpt>
<trkpt lat="23.358373" lon="111.054552">
<time>2015-09-27T11:51:11Z</time></trkpt>
<trkpt lat="23.358293" lon="111.054422">
<time>2015-09-27T11:51:12Z</time></trkpt>
<trkpt lat="23.358243" lon="111.054353">
<time>2015-09-27T11:51:13Z</time></trkpt>
<trkpt lat="23.358233" lon="111.054333">
<time>2015-09-27T11:51:14Z</time></trkpt>
<trkpt lat="23.358163" lon="111.054223">
<time>2015-09-27T11:51:15Z</time></trkpt>
<trkpt lat="23.358094" lon="111.054093">
<time>2015-09-27T11:51:16Z</time></trkpt>
<trkpt lat="23.358024" lon="111.053964">
<time>2015-09-27T11:51:17Z</time></trkpt>
<trkpt lat="23.357974" lon="111.053854">
<time>2015-09-27T11:51:18Z</time></trkpt>
<trkpt lat="23.357885" lon="111.053645">
<time>2015-09-27T11:51:19Z</time></trkpt>
<trkpt lat="23.357835" lon="111.053535">
<time>2015-09-27T11:51:20Z</time></trkpt>
<trkpt lat="23.357805" lon="111.053425">
<time>2015-09-27T11:51:21Z</time></trkpt>
<trkpt lat="23.357775" lon="111.053355">
<time>2015-09-27T11:51:22Z</time></trkpt>
<trkpt lat="23.357745" lon="111.053246">
<time>2015-09-27T11:51:23Z</time></trkpt>
<trkpt lat="23.357676" lon="111.052996">
<time>2015-09-27T11:51:24Z</time></trkpt>
<trkpt lat="23.357656" lon="111.052917">
<time>2015-09-27T11:51:25Z</time></trkpt>
<trkpt lat="23.357636" lon="111.052847">
<time>2015-09-27T11:51:26Z</time></trkpt>
<trkpt lat="23.357626" lon="111.052787">
<time>2015-09-27T11:51:27Z</time></trkpt>
<trkpt lat="23.357616" lon="111.052747">
<time>2015-09-27T11:51:28Z</time></trkpt>
<trkpt lat="23.357596" lon="111.052657">
<time>2015-09-27T11:51:29Z</time></trkpt>
<trkpt lat="23.357577" lon="111.052508">
<time>2015-09-27T11:51:30Z</time></trkpt>
<trkpt lat="23.357547" lon="111.052348">
<time>2015-09-27T11:51:31Z</time></trkpt>
<trkpt lat="23.357507" lon="111.052069">
<time>2015-09-27T11:51:32Z</time></trkpt>
<trkpt lat="23.357478" lon="111.05175">
<time>2015-09-27T11:51:33Z</time></trkpt>
<trkpt lat="23.357468" lon="111.05157">
<time>2015-09-27T11:51:34Z</time></trkpt>
<trkpt lat="23.357449" lon="111.051351">
<time>2015-09-27T11:51:35Z</time></trkpt>
<trkpt lat="23.35738" lon="111.050743">
<time>2015-09-27T11:51:36Z</time></trkpt>
<trkpt lat="23.357301" lon="111.050214">
<time>2015-09-27T11:51:37Z</time></trkpt>
<trkpt lat="23.357251" lon="111.049975">
<time>2015-09-27T11:51:38Z</time></trkpt>
<trkpt lat="23.357222" lon="111.049835">
<time>2015-09-27T11:51:39Z</time></trkpt>
<trkpt lat="23.357202" lon="111.049726">
<time>2015-09-27T11:51:40Z</time></trkpt>
<trkpt lat="23.357142" lon="111.049476">
<time>2015-09-27T11:51:41Z</time></trkpt>
<trkpt lat="23.357073" lon="111.049197">
<time>2015-09-27T11:51:42Z</time></trkpt>
<trkpt lat="23.357033" lon="111.049048">
<time>2015-09-27T11:51:43Z</time></trkpt>
<trkpt lat="23.356983" lon="111.048898">
<time>2015-09-27T11:51:44Z</time></trkpt>
<trkpt lat="23.356934" lon="111.048738">
<time>2015-09-27T11:51:45Z</time></trkpt>
<trkpt lat="23.356894" lon="111.048599">
<time>2015-09-27T11:51:46Z</time></trkpt>
<trkpt lat="23.356834" lon="111.048429">
<time>2015-09-27T11:51:47Z</time></trkpt>
<trkpt lat="23.356606" lon="111.047841">
<time>2015-09-27T11:51:48Z</time></trkpt>
<trkpt lat="23.356367" lon="111.047223">
<time>2015-09-27T11:51:49Z</time></trkpt>
<trkpt lat="23.356257" lon="111.046934">
<time>2015-09-27T11:51:50Z</time></trkpt>
<trkpt lat="23.356148" lon="111.046575">
<time>2015-09-27T11:51:51Z</time></trkpt>
<trkpt lat="23.356049" lon="111.046236">
<time>2015-09-27T11:51:52Z</time></trkpt>
<trkpt lat="23.35594" lon="111.045757">
<time>2015-09-27T11:51:53Z</time></trkpt>
<trkpt lat="23.3559" lon="111.045518">
<time>2015-09-27T11:51:54Z</time></trkpt>
<trkpt lat="23.355881" lon="111.045329">
<time>2015-09-27T11:51:55Z</time></trkpt>
<trkpt lat="23.355861" lon="111.045169">
<time>2015-09-27T11:51:56Z</time></trkpt>
<trkpt lat="23.355842" lon="111.04488">
<time>2015-09-27T11:51:57Z</time></trkpt>
<trkpt lat="23.355852" lon="111.044501">
<time>2015-09-27T11:51:58Z</time></trkpt>
<trkpt lat="23.355853" lon="111.044222">
<time>2015-09-27T11:51:59Z</time></trkpt>
<trkpt lat="23.355905" lon="111.043106">
<time>2015-09-27T11:52:00Z</time></trkpt>
<trkpt lat="23.355926" lon="111.042906">
<time>2015-09-27T11:52:01Z</time></trkpt>
<trkpt lat="23.355926" lon="111.042886">
<time>2015-09-27T11:52:02Z</time></trkpt>
<trkpt lat="23.355958" lon="111.042119">
<time>2015-09-27T11:52:03Z</time></trkpt>
<trkpt lat="23.355989" lon="111.04161">
<time>2015-09-27T11:52:04Z</time></trkpt>
<trkpt lat="23.355999" lon="111.041311">
<time>2015-09-27T11:52:05Z</time></trkpt>
<trkpt lat="23.35602" lon="111.041052">
<time>2015-09-27T11:52:06Z</time></trkpt>
<trkpt lat="23.356031" lon="111.040733">
<time>2015-09-27T11:52:07Z</time></trkpt>
<trkpt lat="23.356041" lon="111.040683">
<time>2015-09-27T11:52:08Z</time></trkpt>
<trkpt lat="23.356062" lon="111.040145">
<time>2015-09-27T11:52:09Z</time></trkpt>
<trkpt lat="23.356073" lon="111.039796">
<time>2015-09-27T11:52:10Z</time></trkpt>
<trkpt lat="23.356083" lon="111.039527">
<time>2015-09-27T11:52:11Z</time></trkpt>
<trkpt lat="23.356083" lon="111.039447">
<time>2015-09-27T11:52:12Z</time></trkpt>
<trkpt lat="23.356084" lon="111.039328">
<time>2015-09-27T11:52:13Z</time></trkpt>
<trkpt lat="23.356074" lon="111.039168">
<time>2015-09-27T11:52:14Z</time></trkpt>
<trkpt lat="23.356085" lon="111.03877">
<time>2015-09-27T11:52:15Z</time></trkpt>
<trkpt lat="23.356076" lon="111.038401">
<time>2015-09-27T11:52:16Z</time></trkpt>
<trkpt lat="23.356057" lon="111.037962">
<time>2015-09-27T11:52:17Z</time></trkpt>
<trkpt lat="23.356037" lon="111.037663">
<time>2015-09-27T11:52:18Z</time></trkpt>
<trkpt lat="23.356008" lon="111.037374">
<time>2015-09-27T11:52:19Z</time></trkpt>
<trkpt lat="23.355989" lon="111.037125">
<time>2015-09-27T11:52:20Z</time></trkpt>
<trkpt lat="23.35596" lon="111.036687">
<time>2015-09-27T11:52:21Z</time></trkpt>
<trkpt lat="23.355931" lon="111.036368">
<time>2015-09-27T11:52:22Z</time></trkpt>
<trkpt lat="23.355911" lon="111.036178">
<time>2015-09-27T11:52:23Z</time></trkpt>
<trkpt lat="23.355891" lon="111.036019">
<time>2015-09-27T11:52:24Z</time></trkpt>
<trkpt lat="23.355862" lon="111.03576">
<time>2015-09-27T11:52:25Z</time></trkpt>
<trkpt lat="23.355813" lon="111.035441">
<time>2015-09-27T11:52:26Z</time></trkpt>
<trkpt lat="23.355764" lon="111.035092">
<time>2015-09-27T11:52:27Z</time></trkpt>
<trkpt lat="23.355704" lon="111.034753">
<time>2015-09-27T11:52:28Z</time></trkpt>
<trkpt lat="23.355655" lon="111.034414">
<time>2015-09-27T11:52:29Z</time></trkpt>
<trkpt lat="23.355626" lon="111.034255">
<time>2015-09-27T11:52:30Z</time></trkpt>
<trkpt lat="23.355616" lon="111.034195">
<time>2015-09-27T11:52:31Z</time></trkpt>
<trkpt lat="23.355606" lon="111.034106">
<time>2015-09-27T11:52:32Z</time></trkpt>
<trkpt lat="23.355567" lon="111.033817">
<time>2015-09-27T11:52:33Z</time></trkpt>
<trkpt lat="23.355547" lon="111.033737">
<time>2015-09-27T11:52:34Z</time></trkpt>
<trkpt lat="23.355537" lon="111.033667">
<time>2015-09-27T11:52:35Z</time></trkpt>
<trkpt lat="23.355527" lon="111.033597">
<time>2015-09-27T11:52:36Z</time></trkpt>
<trkpt lat="23.355508" lon="111.033448">
<time>2015-09-27T11:52:37Z</time></trkpt>
<trkpt lat="23.355468" lon="111.033239">
<time>2015-09-27T11:52:38Z</time></trkpt>
<trkpt lat="23.355429" lon="111.032989">
<time>2015-09-27T11:52:39Z</time></trkpt>
<trkpt lat="23.355399" lon="111.0328">
<time>2015-09-27T11:52:40Z</time></trkpt>
<trkpt lat="23.35537" lon="111.032591">
<time>2015-09-27T11:52:41Z</time></trkpt>
<trkpt lat="23.35533" lon="111.032372">
<time>2015-09-27T11:52:42Z</time></trkpt>
<trkpt lat="23.355301" lon="111.032133">
<time>2015-09-27T11:52:43Z</time></trkpt>
<trkpt lat="23.355262" lon="111.031873">
<time>2015-09-27T11:52:44Z</time></trkpt>
<trkpt lat="23.355202" lon="111.031575">
<time>2015-09-27T11:52:45Z</time></trkpt>
<trkpt lat="23.355163" lon="111.031315">
<time>2015-09-27T11:52:46Z</time></trkpt>
<trkpt lat="23.355143" lon="111.031176">
<time>2015-09-27T11:52:47Z</time></trkpt>
<trkpt lat="23.355134" lon="111.031056">
<time>2015-09-27T11:52:48Z</time></trkpt>
<trkpt lat="23.355114" lon="111.030907">
<time>2015-09-27T11:52:49Z</time></trkpt>
<trkpt lat="23.355104" lon="111.030867">
<time>2015-09-27T11:52:50Z</time></trkpt>
<trkpt lat="23.355094" lon="111.030737">
<time>2015-09-27T11:52:51Z</time></trkpt>
<trkpt lat="23.355075" lon="111.030598">
<time>2015-09-27T11:52:52Z</time></trkpt>
<trkpt lat="23.355065" lon="111.030449">
<time>2015-09-27T11:52:53Z</time></trkpt>
<trkpt lat="23.355056" lon="111.030329">
<time>2015-09-27T11:52:54Z</time></trkpt>
<trkpt lat="23.355046" lon="111.03013">
<time>2015-09-27T11:52:55Z</time></trkpt>
<trkpt lat="23.355047" lon="111.029821">
<time>2015-09-27T11:52:56Z</time></trkpt>
<trkpt lat="23.355058" lon="111.029512">
<time>2015-09-27T11:52:57Z</time></trkpt>
<trkpt lat="23.355089" lon="111.029143">
<time>2015-09-27T11:52:58Z</time></trkpt>
<trkpt lat="23.355109" lon="111.028824">
<time>2015-09-27T11:52:59Z</time></trkpt>
<trkpt lat="23.35514" lon="111.028506">
<time>2015-09-27T11:53:00Z</time></trkpt>
<trkpt lat="23.355161" lon="111.028296">
<time>2015-09-27T11:53:01Z</time></trkpt>
<trkpt lat="23.355171" lon="111.028177">
<time>2015-09-27T11:53:02Z</time></trkpt>
<trkpt lat="23.355192" lon="111.027928">
<time>2015-09-27T11:53:03Z</time></trkpt>
<trkpt lat="23.355202" lon="111.027768">
<time>2015-09-27T11:53:04Z</time></trkpt>
<trkpt lat="23.355212" lon="111.027669">
<time>2015-09-27T11:53:05Z</time></trkpt>
<trkpt lat="23.355233" lon="111.027449">
<time>2015-09-27T11:53:06Z</time></trkpt>
<trkpt lat="23.355253" lon="111.02724">
<time>2015-09-27T11:53:07Z</time></trkpt>
<trkpt lat="23.355274" lon="111.027031">
<time>2015-09-27T11:53:08Z</time></trkpt>
<trkpt lat="23.355295" lon="111.026812">
<time>2015-09-27T11:53:09Z</time></trkpt>
<trkpt lat="23.355315" lon="111.026563">
<time>2015-09-27T11:53:10Z</time></trkpt>
<trkpt lat="23.355336" lon="111.026324">
<time>2015-09-27T11:53:11Z</time></trkpt>
<trkpt lat="23.355346" lon="111.026174">
<time>2015-09-27T11:53:12Z</time></trkpt>
<trkpt lat="23.355367" lon="111.026015">
<time>2015-09-27T11:53:13Z</time></trkpt>
<trkpt lat="23.355387" lon="111.025746">
<time>2015-09-27T11:53:14Z</time></trkpt>
<trkpt lat="23.355408" lon="111.025556">
<time>2015-09-27T11:53:15Z</time></trkpt>
<trkpt lat="23.355428" lon="111.025367">
<time>2015-09-27T11:53:16Z</time></trkpt>
<trkpt lat="23.355439" lon="111.025238">
<time>2015-09-27T11:53:17Z</time></trkpt>
<trkpt lat="23.35545" lon="111.024939">
<time>2015-09-27T11:53:18Z</time></trkpt>
<trkpt lat="23.35546" lon="111.02468">
<time>2015-09-27T11:53:19Z</time></trkpt>
<trkpt lat="23.355461" lon="111.024431">
<time>2015-09-27T11:53:20Z</time></trkpt>
<trkpt lat="23.355451" lon="111.024311">
<time>2015-09-27T11:53:21Z</time></trkpt>
<trkpt lat="23.355451" lon="111.024211">
<time>2015-09-27T11:53:22Z</time></trkpt>
<trkpt lat="23.355432" lon="111.023933">
<time>2015-09-27T11:53:23Z</time></trkpt>
<trkpt lat="23.355403" lon="111.023574">
<time>2015-09-27T11:53:24Z</time></trkpt>
<trkpt lat="23.355374" lon="111.023345">
<time>2015-09-27T11:53:25Z</time></trkpt>
<trkpt lat="23.355335" lon="111.023076">
<time>2015-09-27T11:53:26Z</time></trkpt>
<trkpt lat="23.355325" lon="111.023006">
<time>2015-09-27T11:53:27Z</time></trkpt>
<trkpt lat="23.355246" lon="111.022608">
<time>2015-09-27T11:53:28Z</time></trkpt>
<trkpt lat="23.355216" lon="111.022458">
<time>2015-09-27T11:53:29Z</time></trkpt>
<trkpt lat="23.355206" lon="111.022428">
<time>2015-09-27T11:53:30Z</time></trkpt>
<trkpt lat="23.355157" lon="111.022269">
<time>2015-09-27T11:53:31Z</time></trkpt>
<trkpt lat="23.355068" lon="111.02194">
<time>2015-09-27T11:53:32Z</time></trkpt>
<trkpt lat="23.354979" lon="111.021641">
<time>2015-09-27T11:53:33Z</time></trkpt>
<trkpt lat="23.354761" lon="111.020914">
<time>2015-09-27T11:53:34Z</time></trkpt>
<trkpt lat="23.354632" lon="111.020476">
<time>2015-09-27T11:53:35Z</time></trkpt>
<trkpt lat="23.354562" lon="111.020277">
<time>2015-09-27T11:53:36Z</time></trkpt>
<trkpt lat="23.354285" lon="111.01937">
<time>2015-09-27T11:53:37Z</time></trkpt>
<trkpt lat="23.354008" lon="111.018484">
<time>2015-09-27T11:53:38Z</time></trkpt>
<trkpt lat="23.353859" lon="111.017946">
<time>2015-09-27T11:53:39Z</time></trkpt>
<trkpt lat="23.35375" lon="111.017597">
<time>2015-09-27T11:53:40Z</time></trkpt>
<trkpt lat="23.353572" lon="111.01695">
<time>2015-09-27T11:53:41Z</time></trkpt>
<trkpt lat="23.353562" lon="111.01684">
<time>2015-09-27T11:53:42Z</time></trkpt>
<trkpt lat="23.353515" lon="111.015844">
<time>2015-09-27T11:53:43Z</time></trkpt>
<trkpt lat="23.353537" lon="111.015137">
<time>2015-09-27T11:53:44Z</time></trkpt>
<trkpt lat="23.353559" lon="111.01443">
<time>2015-09-27T11:53:45Z</time></trkpt>
<trkpt lat="23.353641" lon="111.013842">
<time>2015-09-27T11:53:46Z</time></trkpt>
<trkpt lat="23.353641" lon="111.013842">
<time>2015-09-27T11:53:47Z</time></trkpt>
<trkpt lat="23.353621" lon="111.013782">
<time>2015-09-27T11:53:48Z</time></trkpt>
<trkpt lat="23.353623" lon="111.013254">
<time>2015-09-27T11:53:49Z</time></trkpt>
<trkpt lat="23.353545" lon="111.012487">
<time>2015-09-27T11:53:50Z</time></trkpt>
<trkpt lat="23.353334" lon="111.0094">
<time>2015-09-27T11:53:51Z</time></trkpt>
<trkpt lat="23.35323" lon="111.007508">
<time>2015-09-27T11:53:52Z</time></trkpt>
<trkpt lat="23.353115" lon="111.005735">
<time>2015-09-27T11:53:53Z</time></trkpt>
<trkpt lat="23.353105" lon="111.005665">
<time>2015-09-27T11:53:54Z</time></trkpt>
<trkpt lat="23.352981" lon="111.003743">
<time>2015-09-27T11:53:55Z</time></trkpt>
<trkpt lat="23.35278" lon="111.000686">
<time>2015-09-27T11:53:56Z</time></trkpt>
<trkpt lat="23.352722" lon="110.999979">
<time>2015-09-27T11:53:57Z</time></trkpt>
<trkpt lat="23.352704" lon="110.99957">
<time>2015-09-27T11:53:58Z</time></trkpt>
<trkpt lat="23.352655" lon="110.999042">
<time>2015-09-27T11:53:59Z</time></trkpt>
<trkpt lat="23.352626" lon="110.998793">
<time>2015-09-27T11:54:00Z</time></trkpt>
<trkpt lat="23.352587" lon="110.998445">
<time>2015-09-27T11:54:01Z</time></trkpt>
<trkpt lat="23.352499" lon="110.997967">
<time>2015-09-27T11:54:02Z</time></trkpt>
<trkpt lat="23.352429" lon="110.997698">
<time>2015-09-27T11:54:03Z</time></trkpt>
<trkpt lat="23.352281" lon="110.99715">
<time>2015-09-27T11:54:04Z</time></trkpt>
<trkpt lat="23.352073" lon="110.996573">
<time>2015-09-27T11:54:05Z</time></trkpt>
<trkpt lat="23.351874" lon="110.996154">
<time>2015-09-27T11:54:06Z</time></trkpt>
<trkpt lat="23.351795" lon="110.996005">
<time>2015-09-27T11:54:07Z</time></trkpt>
<trkpt lat="23.351277" lon="110.995328">
<time>2015-09-27T11:54:08Z</time></trkpt>
<trkpt lat="23.350719" lon="110.99479">
<time>2015-09-27T11:54:09Z</time></trkpt>
<trkpt lat="23.349313" lon="110.993536">
<time>2015-09-27T11:54:10Z</time></trkpt>
<trkpt lat="23.348046" lon="110.99244">
<time>2015-09-27T11:54:11Z</time></trkpt>
<trkpt lat="23.347648" lon="110.992052">
<time>2015-09-27T11:54:12Z</time></trkpt>
<trkpt lat="23.347369" lon="110.991763">
<time>2015-09-27T11:54:13Z</time></trkpt>
<trkpt lat="23.34713" lon="110.991484">
<time>2015-09-27T11:54:14Z</time></trkpt>
<trkpt lat="23.34693" lon="110.991205">
<time>2015-09-27T11:54:15Z</time></trkpt>
<trkpt lat="23.346742" lon="110.990877">
<time>2015-09-27T11:54:16Z</time></trkpt>
<trkpt lat="23.346612" lon="110.990618">
<time>2015-09-27T11:54:17Z</time></trkpt>
<trkpt lat="23.346493" lon="110.990349">
<time>2015-09-27T11:54:18Z</time></trkpt>
<trkpt lat="23.346364" lon="110.99">
<time>2015-09-27T11:54:19Z</time></trkpt>
<trkpt lat="23.346255" lon="110.989642">
<time>2015-09-27T11:54:20Z</time></trkpt>
<trkpt lat="23.346147" lon="110.989154">
<time>2015-09-27T11:54:21Z</time></trkpt>
<trkpt lat="23.346098" lon="110.988656">
<time>2015-09-27T11:54:22Z</time></trkpt>
<trkpt lat="23.3461" lon="110.988158">
<time>2015-09-27T11:54:23Z</time></trkpt>
<trkpt lat="23.346141" lon="110.98765">
<time>2015-09-27T11:54:24Z</time></trkpt>
<trkpt lat="23.346233" lon="110.987152">
<time>2015-09-27T11:54:25Z</time></trkpt>
<trkpt lat="23.346384" lon="110.986674">
<time>2015-09-27T11:54:26Z</time></trkpt>
<trkpt lat="23.346556" lon="110.986216">
<time>2015-09-27T11:54:27Z</time></trkpt>
<trkpt lat="23.346737" lon="110.985798">
<time>2015-09-27T11:54:28Z</time></trkpt>
<trkpt lat="23.347079" lon="110.985051">
<time>2015-09-27T11:54:29Z</time></trkpt>
<trkpt lat="23.347601" lon="110.984244">
<time>2015-09-27T11:54:30Z</time></trkpt>
<trkpt lat="23.347883" lon="110.983716">
<time>2015-09-27T11:54:31Z</time></trkpt>
<trkpt lat="23.348596" lon="110.982521">
<time>2015-09-27T11:54:32Z</time></trkpt>
<trkpt lat="23.349079" lon="110.981645">
<time>2015-09-27T11:54:33Z</time></trkpt>
<trkpt lat="23.34934" lon="110.981047">
<time>2015-09-27T11:54:34Z</time></trkpt>
<trkpt lat="23.349502" lon="110.980619">
<time>2015-09-27T11:54:35Z</time></trkpt>
<trkpt lat="23.349623" lon="110.98026">
<time>2015-09-27T11:54:36Z</time></trkpt>
<trkpt lat="23.349815" lon="110.979583">
<time>2015-09-27T11:54:37Z</time></trkpt>
<trkpt lat="23.350088" lon="110.978597">
<time>2015-09-27T11:54:38Z</time></trkpt>
<trkpt lat="23.350279" lon="110.978059">
<time>2015-09-27T11:54:39Z</time></trkpt>
<trkpt lat="23.3504" lon="110.97775">
<time>2015-09-27T11:54:40Z</time></trkpt>
<trkpt lat="23.350531" lon="110.977501">
<time>2015-09-27T11:54:41Z</time></trkpt>
<trkpt lat="23.350731" lon="110.977202">
<time>2015-09-27T11:54:42Z</time></trkpt>
<trkpt lat="23.351012" lon="110.976844">
<time>2015-09-27T11:54:43Z</time></trkpt>
<trkpt lat="23.352226" lon="110.975409">
<time>2015-09-27T11:54:44Z</time></trkpt>
<trkpt lat="23.352397" lon="110.97518">
<time>2015-09-27T11:54:45Z</time></trkpt>
<trkpt lat="23.352538" lon="110.974961">
<time>2015-09-27T11:54:46Z</time></trkpt>
<trkpt lat="23.352729" lon="110.974623">
<time>2015-09-27T11:54:47Z</time></trkpt>
<trkpt lat="23.352839" lon="110.974344">
<time>2015-09-27T11:54:48Z</time></trkpt>
<trkpt lat="23.3529" lon="110.974095">
<time>2015-09-27T11:54:49Z</time></trkpt>
<trkpt lat="23.353417" lon="110.971694">
<time>2015-09-27T11:54:50Z</time></trkpt>
<trkpt lat="23.353477" lon="110.971555">
<time>2015-09-27T11:54:51Z</time></trkpt>
<trkpt lat="23.35366" lon="110.970548">
<time>2015-09-27T11:54:52Z</time></trkpt>
<trkpt lat="23.353721" lon="110.97027">
<time>2015-09-27T11:54:53Z</time></trkpt>
<trkpt lat="23.35436" lon="110.966992">
<time>2015-09-27T11:54:54Z</time></trkpt>
<trkpt lat="23.354846" lon="110.964581">
<time>2015-09-27T11:54:55Z</time></trkpt>
<trkpt lat="23.354927" lon="110.964043">
<time>2015-09-27T11:54:56Z</time></trkpt>
<trkpt lat="23.354958" lon="110.963774">
<time>2015-09-27T11:54:57Z</time></trkpt>
<trkpt lat="23.354959" lon="110.963396">
<time>2015-09-27T11:54:58Z</time></trkpt>
<trkpt lat="23.35494" lon="110.962987">
<time>2015-09-27T11:54:59Z</time></trkpt>
<trkpt lat="23.35494" lon="110.962977">
<time>2015-09-27T11:55:00Z</time></trkpt>
<trkpt lat="23.354901" lon="110.962579">
<time>2015-09-27T11:55:01Z</time></trkpt>
<trkpt lat="23.354832" lon="110.96229">
<time>2015-09-27T11:55:02Z</time></trkpt>
<trkpt lat="23.354793" lon="110.96207">
<time>2015-09-27T11:55:03Z</time></trkpt>
<trkpt lat="23.354624" lon="110.961632">
<time>2015-09-27T11:55:04Z</time></trkpt>
<trkpt lat="23.354485" lon="110.961293">
<time>2015-09-27T11:55:05Z</time></trkpt>
<trkpt lat="23.354216" lon="110.960775">
<time>2015-09-27T11:55:06Z</time></trkpt>
<trkpt lat="23.354156" lon="110.960656">
<time>2015-09-27T11:55:07Z</time></trkpt>
<trkpt lat="23.35332" lon="110.959141">
<time>2015-09-27T11:55:08Z</time></trkpt>
<trkpt lat="23.353161" lon="110.958862">
<time>2015-09-27T11:55:09Z</time></trkpt>
<trkpt lat="23.352922" lon="110.958384">
<time>2015-09-27T11:55:10Z</time></trkpt>
<trkpt lat="23.352713" lon="110.957925">
<time>2015-09-27T11:55:11Z</time></trkpt>
<trkpt lat="23.352515" lon="110.957447">
<time>2015-09-27T11:55:12Z</time></trkpt>
<trkpt lat="23.352386" lon="110.957069">
<time>2015-09-27T11:55:13Z</time></trkpt>
<trkpt lat="23.351702" lon="110.954617">
<time>2015-09-27T11:55:14Z</time></trkpt>
<trkpt lat="23.351166" lon="110.952684">
<time>2015-09-27T11:55:15Z</time></trkpt>
<trkpt lat="23.350948" lon="110.951886">
<time>2015-09-27T11:55:16Z</time></trkpt>
<trkpt lat="23.350502" lon="110.950282">
<time>2015-09-27T11:55:17Z</time></trkpt>
<trkpt lat="23.349937" lon="110.948218">
<time>2015-09-27T11:55:18Z</time></trkpt>
<trkpt lat="23.349351" lon="110.946095">
<time>2015-09-27T11:55:19Z</time></trkpt>
<trkpt lat="23.348875" lon="110.94439">
<time>2015-09-27T11:55:20Z</time></trkpt>
<trkpt lat="23.34826" lon="110.942107">
<time>2015-09-27T11:55:21Z</time></trkpt>
<trkpt lat="23.348051" lon="110.94137">
<time>2015-09-27T11:55:22Z</time></trkpt>
<trkpt lat="23.347912" lon="110.940771">
<time>2015-09-27T11:55:23Z</time></trkpt>
<trkpt lat="23.347883" lon="110.940582">
<time>2015-09-27T11:55:24Z</time></trkpt>
<trkpt lat="23.347804" lon="110.940123">
<time>2015-09-27T11:55:25Z</time></trkpt>
<trkpt lat="23.347784" lon="110.939944">
<time>2015-09-27T11:55:26Z</time></trkpt>
<trkpt lat="23.347755" lon="110.939615">
<time>2015-09-27T11:55:27Z</time></trkpt>
<trkpt lat="23.347736" lon="110.938867">
<time>2015-09-27T11:55:28Z</time></trkpt>
<trkpt lat="23.347777" lon="110.938219">
<time>2015-09-27T11:55:29Z</time></trkpt>
<trkpt lat="23.347848" lon="110.93773">
<time>2015-09-27T11:55:30Z</time></trkpt>
<trkpt lat="23.347999" lon="110.937062">
<time>2015-09-27T11:55:31Z</time></trkpt>
<trkpt lat="23.348251" lon="110.936194">
<time>2015-09-27T11:55:32Z</time></trkpt>
<trkpt lat="23.348874" lon="110.934319">
<time>2015-09-27T11:55:33Z</time></trkpt>
<trkpt lat="23.349034" lon="110.93385">
<time>2015-09-27T11:55:34Z</time></trkpt>
<trkpt lat="23.349235" lon="110.933162">
<time>2015-09-27T11:55:35Z</time></trkpt>
<trkpt lat="23.349376" lon="110.932614">
<time>2015-09-27T11:55:36Z</time></trkpt>
<trkpt lat="23.349457" lon="110.932195">
<time>2015-09-27T11:55:37Z</time></trkpt>
<trkpt lat="23.349477" lon="110.931746">
<time>2015-09-27T11:55:38Z</time></trkpt>
<trkpt lat="23.349468" lon="110.931237">
<time>2015-09-27T11:55:39Z</time></trkpt>
<trkpt lat="23.349409" lon="110.930868">
<time>2015-09-27T11:55:40Z</time></trkpt>
<trkpt lat="23.34932" lon="110.930419">
<time>2015-09-27T11:55:41Z</time></trkpt>
<trkpt lat="23.349111" lon="110.929701">
<time>2015-09-27T11:55:42Z</time></trkpt>
<trkpt lat="23.348882" lon="110.928963">
<time>2015-09-27T11:55:43Z</time></trkpt>
<trkpt lat="23.348772" lon="110.928454">
<time>2015-09-27T11:55:44Z</time></trkpt>
<trkpt lat="23.348703" lon="110.927935">
<time>2015-09-27T11:55:45Z</time></trkpt>
<trkpt lat="23.348694" lon="110.927406">
<time>2015-09-27T11:55:46Z</time></trkpt>
<trkpt lat="23.348765" lon="110.926847">
<time>2015-09-27T11:55:47Z</time></trkpt>
<trkpt lat="23.348865" lon="110.926349">
<time>2015-09-27T11:55:48Z</time></trkpt>
<trkpt lat="23.349116" lon="110.9256">
<time>2015-09-27T11:55:49Z</time></trkpt>
<trkpt lat="23.349497" lon="110.924582">
<time>2015-09-27T11:55:50Z</time></trkpt>
<trkpt lat="23.349858" lon="110.923624">
<time>2015-09-27T11:55:51Z</time></trkpt>
<trkpt lat="23.349959" lon="110.923335">
<time>2015-09-27T11:55:52Z</time></trkpt>
<trkpt lat="23.350009" lon="110.923175">
<time>2015-09-27T11:55:53Z</time></trkpt>
<trkpt lat="23.350049" lon="110.923026">
<time>2015-09-27T11:55:54Z</time></trkpt>
<trkpt lat="23.350069" lon="110.922886">
<time>2015-09-27T11:55:55Z</time></trkpt>
<trkpt lat="23.35011" lon="110.922547">
<time>2015-09-27T11:55:56Z</time></trkpt>
<trkpt lat="23.35013" lon="110.922247">
<time>2015-09-27T11:55:57Z</time></trkpt>
<trkpt lat="23.35013" lon="110.921998">
<time>2015-09-27T11:55:58Z</time></trkpt>
<trkpt lat="23.350121" lon="110.921698">
<time>2015-09-27T11:55:59Z</time></trkpt>
<trkpt lat="23.350081" lon="110.921459">
<time>2015-09-27T11:56:00Z</time></trkpt>
<trkpt lat="23.350021" lon="110.92119">
<time>2015-09-27T11:56:01Z</time></trkpt>
<trkpt lat="23.349932" lon="110.92085">
<time>2015-09-27T11:56:02Z</time></trkpt>
<trkpt lat="23.349802" lon="110.920481">
<time>2015-09-27T11:56:03Z</time></trkpt>
<trkpt lat="23.349553" lon="110.919952">
<time>2015-09-27T11:56:04Z</time></trkpt>
<trkpt lat="23.348844" lon="110.918645">
<time>2015-09-27T11:56:05Z</time></trkpt>
<trkpt lat="23.348704" lon="110.918355">
<time>2015-09-27T11:56:06Z</time></trkpt>
<trkpt lat="23.348565" lon="110.918046">
<time>2015-09-27T11:56:07Z</time></trkpt>
<trkpt lat="23.348475" lon="110.917766">
<time>2015-09-27T11:56:08Z</time></trkpt>
<trkpt lat="23.348395" lon="110.917477">
<time>2015-09-27T11:56:09Z</time></trkpt>
<trkpt lat="23.348346" lon="110.917127">
<time>2015-09-27T11:56:10Z</time></trkpt>
<trkpt lat="23.348336" lon="110.916758">
<time>2015-09-27T11:56:11Z</time></trkpt>
<trkpt lat="23.348386" lon="110.916399">
<time>2015-09-27T11:56:12Z</time></trkpt>
<trkpt lat="23.348657" lon="110.914931">
<time>2015-09-27T11:56:13Z</time></trkpt>
<trkpt lat="23.348928" lon="110.913544">
<time>2015-09-27T11:56:14Z</time></trkpt>
<trkpt lat="23.349049" lon="110.912954">
<time>2015-09-27T11:56:15Z</time></trkpt>
<trkpt lat="23.349179" lon="110.912286">
<time>2015-09-27T11:56:16Z</time></trkpt>
<trkpt lat="23.349671" lon="110.909739">
<time>2015-09-27T11:56:17Z</time></trkpt>
<trkpt lat="23.349891" lon="110.908611">
<time>2015-09-27T11:56:18Z</time></trkpt>
<trkpt lat="23.349981" lon="110.907982">
<time>2015-09-27T11:56:19Z</time></trkpt>
<trkpt lat="23.350022" lon="110.907522">
<time>2015-09-27T11:56:20Z</time></trkpt>
<trkpt lat="23.350022" lon="110.907073">
<time>2015-09-27T11:56:21Z</time></trkpt>
<trkpt lat="23.349992" lon="110.906684">
<time>2015-09-27T11:56:22Z</time></trkpt>
<trkpt lat="23.349932" lon="110.906224">
<time>2015-09-27T11:56:23Z</time></trkpt>
<trkpt lat="23.349832" lon="110.905825">
<time>2015-09-27T11:56:24Z</time></trkpt>
<trkpt lat="23.349713" lon="110.905445">
<time>2015-09-27T11:56:25Z</time></trkpt>
<trkpt lat="23.349513" lon="110.904976">
<time>2015-09-27T11:56:26Z</time></trkpt>
<trkpt lat="23.349143" lon="110.904336">
<time>2015-09-27T11:56:27Z</time></trkpt>
<trkpt lat="23.348903" lon="110.903987">
<time>2015-09-27T11:56:28Z</time></trkpt>
<trkpt lat="23.348513" lon="110.903487">
<time>2015-09-27T11:56:29Z</time></trkpt>
<trkpt lat="23.346964" lon="110.9015">
<time>2015-09-27T11:56:30Z</time></trkpt>
<trkpt lat="23.346754" lon="110.9012">
<time>2015-09-27T11:56:31Z</time></trkpt>
<trkpt lat="23.346594" lon="110.9009">
<time>2015-09-27T11:56:32Z</time></trkpt>
<trkpt lat="23.346455" lon="110.900561">
<time>2015-09-27T11:56:33Z</time></trkpt>
<trkpt lat="23.346355" lon="110.900281">
<time>2015-09-27T11:56:34Z</time></trkpt>
<trkpt lat="23.346285" lon="110.899961">
<time>2015-09-27T11:56:35Z</time></trkpt>
<trkpt lat="23.346255" lon="110.899522">
<time>2015-09-27T11:56:36Z</time></trkpt>
<trkpt lat="23.346265" lon="110.899242">
<time>2015-09-27T11:56:37Z</time></trkpt>
<trkpt lat="23.346325" lon="110.898902">
<time>2015-09-27T11:56:38Z</time></trkpt>
<trkpt lat="23.346425" lon="110.898543">
<time>2015-09-27T11:56:39Z</time></trkpt>
<trkpt lat="23.346565" lon="110.898163">
<time>2015-09-27T11:56:40Z</time></trkpt>
<trkpt lat="23.346665" lon="110.897973">
<time>2015-09-27T11:56:41Z</time></trkpt>
<trkpt lat="23.346695" lon="110.897903">
<time>2015-09-27T11:56:42Z</time></trkpt>
<trkpt lat="23.346905" lon="110.897583">
<time>2015-09-27T11:56:43Z</time></trkpt>
<trkpt lat="23.347714" lon="110.896444">
<time>2015-09-27T11:56:44Z</time></trkpt>
<trkpt lat="23.348514" lon="110.895335">
<time>2015-09-27T11:56:45Z</time></trkpt>
<trkpt lat="23.349794" lon="110.893536">
<time>2015-09-27T11:56:46Z</time></trkpt>
<trkpt lat="23.350303" lon="110.892827">
<time>2015-09-27T11:56:47Z</time></trkpt>
<trkpt lat="23.351283" lon="110.891328">
<time>2015-09-27T11:56:48Z</time></trkpt>
<trkpt lat="23.351483" lon="110.891028">
<time>2015-09-27T11:56:49Z</time></trkpt>
<trkpt lat="23.351873" lon="110.890398">
<time>2015-09-27T11:56:50Z</time></trkpt>
<trkpt lat="23.352122" lon="110.889958">
<time>2015-09-27T11:56:51Z</time></trkpt>
<trkpt lat="23.352362" lon="110.889498">
<time>2015-09-27T11:56:52Z</time></trkpt>
<trkpt lat="23.352532" lon="110.889109">
<time>2015-09-27T11:56:53Z</time></trkpt>
<trkpt lat="23.352662" lon="110.888759">
<time>2015-09-27T11:56:54Z</time></trkpt>
<trkpt lat="23.352782" lon="110.888339">
<time>2015-09-27T11:56:55Z</time></trkpt>
<trkpt lat="23.352851" lon="110.887919">
<time>2015-09-27T11:56:56Z</time></trkpt>
<trkpt lat="23.352851" lon="110.887539">
<time>2015-09-27T11:56:57Z</time></trkpt>
<trkpt lat="23.352811" lon="110.887089">
<time>2015-09-27T11:56:58Z</time></trkpt>
<trkpt lat="23.3526" lon="110.88553">
<time>2015-09-27T11:56:59Z</time></trkpt>
<trkpt lat="23.35258" lon="110.88502">
<time>2015-09-27T11:57:00Z</time></trkpt>
<trkpt lat="23.35258" lon="110.88448">
<time>2015-09-27T11:57:01Z</time></trkpt>
<trkpt lat="23.35261" lon="110.8838">
<time>2015-09-27T11:57:02Z</time></trkpt>
<trkpt lat="23.352659" lon="110.882871">
<time>2015-09-27T11:57:03Z</time></trkpt>
<trkpt lat="23.352679" lon="110.882271">
<time>2015-09-27T11:57:04Z</time></trkpt>
<trkpt lat="23.352668" lon="110.882021">
<time>2015-09-27T11:57:05Z</time></trkpt>
<trkpt lat="23.352628" lon="110.881581">
<time>2015-09-27T11:57:06Z</time></trkpt>
<trkpt lat="23.352578" lon="110.881111">
<time>2015-09-27T11:57:07Z</time></trkpt>
<trkpt lat="23.352357" lon="110.879781">
<time>2015-09-27T11:57:08Z</time></trkpt>
<trkpt lat="23.352297" lon="110.879281">
<time>2015-09-27T11:57:09Z</time></trkpt>
<trkpt lat="23.352246" lon="110.878891">
<time>2015-09-27T11:57:10Z</time></trkpt>
<trkpt lat="23.352246" lon="110.878521">
<time>2015-09-27T11:57:11Z</time></trkpt>
<trkpt lat="23.352266" lon="110.878081">
<time>2015-09-27T11:57:12Z</time></trkpt>
<trkpt lat="23.352345" lon="110.877551">
<time>2015-09-27T11:57:13Z</time></trkpt>
<trkpt lat="23.352435" lon="110.877151">
<time>2015-09-27T11:57:14Z</time></trkpt>
<trkpt lat="23.352565" lon="110.876741">
<time>2015-09-27T11:57:15Z</time></trkpt>
<trkpt lat="23.353034" lon="110.875711">
<time>2015-09-27T11:57:16Z</time></trkpt>
<trkpt lat="23.353443" lon="110.875001">
<time>2015-09-27T11:57:17Z</time></trkpt>
<trkpt lat="23.353702" lon="110.874551">
<time>2015-09-27T11:57:18Z</time></trkpt>
<trkpt lat="23.354022" lon="110.874">
<time>2015-09-27T11:57:19Z</time></trkpt>
<trkpt lat="23.354221" lon="110.87366">
<time>2015-09-27T11:57:20Z</time></trkpt>
<trkpt lat="23.354441" lon="110.87327">
<time>2015-09-27T11:57:21Z</time></trkpt>
<trkpt lat="23.354611" lon="110.87295">
<time>2015-09-27T11:57:22Z</time></trkpt>
<trkpt lat="23.35476" lon="110.87268">
<time>2015-09-27T11:57:23Z</time></trkpt>
<trkpt lat="23.35488" lon="110.87242">
<time>2015-09-27T11:57:24Z</time></trkpt>
<trkpt lat="23.35499" lon="110.87219">
<time>2015-09-27T11:57:25Z</time></trkpt>
<trkpt lat="23.35508" lon="110.87197">
<time>2015-09-27T11:57:26Z</time></trkpt>
<trkpt lat="23.355169" lon="110.87172">
<time>2015-09-27T11:57:27Z</time></trkpt>
<trkpt lat="23.355259" lon="110.87142">
<time>2015-09-27T11:57:28Z</time></trkpt>
<trkpt lat="23.355309" lon="110.87121">
<time>2015-09-27T11:57:29Z</time></trkpt>
<trkpt lat="23.355339" lon="110.87107">
<time>2015-09-27T11:57:30Z</time></trkpt>
<trkpt lat="23.355358" lon="110.87093">
<time>2015-09-27T11:57:31Z</time></trkpt>
<trkpt lat="23.355388" lon="110.87075">
<time>2015-09-27T11:57:32Z</time></trkpt>
<trkpt lat="23.355408" lon="110.870569">
<time>2015-09-27T11:57:33Z</time></trkpt>
<trkpt lat="23.355418" lon="110.870199">
<time>2015-09-27T11:57:34Z</time></trkpt>
<trkpt lat="23.355417" lon="110.869879">
<time>2015-09-27T11:57:35Z</time></trkpt>
<trkpt lat="23.355407" lon="110.869589">
<time>2015-09-27T11:57:36Z</time></trkpt>
<trkpt lat="23.355367" lon="110.869239">
<time>2015-09-27T11:57:37Z</time></trkpt>
<trkpt lat="23.355296" lon="110.868889">
<time>2015-09-27T11:57:38Z</time></trkpt>
<trkpt lat="23.355196" lon="110.868459">
<time>2015-09-27T11:57:39Z</time></trkpt>
<trkpt lat="23.355116" lon="110.868209">
<time>2015-09-27T11:57:40Z</time></trkpt>
<trkpt lat="23.355106" lon="110.868169">
<time>2015-09-27T11:57:41Z</time></trkpt>
<trkpt lat="23.355055" lon="110.867999">
<time>2015-09-27T11:57:42Z</time></trkpt>
<trkpt lat="23.354975" lon="110.867768">
<time>2015-09-27T11:57:43Z</time></trkpt>
<trkpt lat="23.354965" lon="110.867728">
<time>2015-09-27T11:57:44Z</time></trkpt>
<trkpt lat="23.354895" lon="110.867558">
<time>2015-09-27T11:57:45Z</time></trkpt>
<trkpt lat="23.354785" lon="110.867248">
<time>2015-09-27T11:57:46Z</time></trkpt>
<trkpt lat="23.354684" lon="110.866978">
<time>2015-09-27T11:57:47Z</time></trkpt>
<trkpt lat="23.354494" lon="110.866458">
<time>2015-09-27T11:57:48Z</time></trkpt>
<trkpt lat="23.354293" lon="110.865938">
<time>2015-09-27T11:57:49Z</time></trkpt>
<trkpt lat="23.354102" lon="110.865417">
<time>2015-09-27T11:57:50Z</time></trkpt>
<trkpt lat="23.353902" lon="110.864857">
<time>2015-09-27T11:57:51Z</time></trkpt>
<trkpt lat="23.353721" lon="110.864327">
<time>2015-09-27T11:57:52Z</time></trkpt>
<trkpt lat="23.353641" lon="110.864017">
<time>2015-09-27T11:57:53Z</time></trkpt>
<trkpt lat="23.353601" lon="110.863827">
<time>2015-09-27T11:57:54Z</time></trkpt>
<trkpt lat="23.35354" lon="110.863496">
<time>2015-09-27T11:57:55Z</time></trkpt>
<trkpt lat="23.35352" lon="110.863196">
<time>2015-09-27T11:57:56Z</time></trkpt>
<trkpt lat="23.353529" lon="110.862906">
<time>2015-09-27T11:57:57Z</time></trkpt>
<trkpt lat="23.353539" lon="110.862776">
<time>2015-09-27T11:57:58Z</time></trkpt>
<trkpt lat="23.353579" lon="110.862496">
<time>2015-09-27T11:57:59Z</time></trkpt>
<trkpt lat="23.353619" lon="110.862236">
<time>2015-09-27T11:58:00Z</time></trkpt>
<trkpt lat="23.353619" lon="110.862216">
<time>2015-09-27T11:58:01Z</time></trkpt>
<trkpt lat="23.353688" lon="110.861956">
<time>2015-09-27T11:58:02Z</time></trkpt>
<trkpt lat="23.353768" lon="110.861695">
<time>2015-09-27T11:58:03Z</time></trkpt>
<trkpt lat="23.353847" lon="110.861485">
<time>2015-09-27T11:58:04Z</time></trkpt>
<trkpt lat="23.354007" lon="110.861175">
<time>2015-09-27T11:58:05Z</time></trkpt>
<trkpt lat="23.354157" lon="110.860905">
<time>2015-09-27T11:58:06Z</time></trkpt>
<trkpt lat="23.354356" lon="110.860565">
<time>2015-09-27T11:58:07Z</time></trkpt>
<trkpt lat="23.354576" lon="110.860224">
<time>2015-09-27T11:58:08Z</time></trkpt>
<trkpt lat="23.354805" lon="110.859904">
<time>2015-09-27T11:58:09Z</time></trkpt>
<trkpt lat="23.355174" lon="110.859384">
<time>2015-09-27T11:58:10Z</time></trkpt>
<trkpt lat="23.355454" lon="110.858973">
<time>2015-09-27T11:58:11Z</time></trkpt>
<trkpt lat="23.355723" lon="110.858603">
<time>2015-09-27T11:58:12Z</time></trkpt>
<trkpt lat="23.355923" lon="110.858313">
<time>2015-09-27T11:58:13Z</time></trkpt>
<trkpt lat="23.356142" lon="110.857943">
<time>2015-09-27T11:58:14Z</time></trkpt>
<trkpt lat="23.356182" lon="110.857873">
<time>2015-09-27T11:58:15Z</time></trkpt>
<trkpt lat="23.356282" lon="110.857652">
<time>2015-09-27T11:58:16Z</time></trkpt>
<trkpt lat="23.356381" lon="110.857362">
<time>2015-09-27T11:58:17Z</time></trkpt>
<trkpt lat="23.356451" lon="110.857102">
<time>2015-09-27T11:58:18Z</time></trkpt>
<trkpt lat="23.35653" lon="110.856792">
<time>2015-09-27T11:58:19Z</time></trkpt>
<trkpt lat="23.3566" lon="110.856412">
<time>2015-09-27T11:58:20Z</time></trkpt>
<trkpt lat="23.356719" lon="110.855901">
<time>2015-09-27T11:58:21Z</time></trkpt>
<trkpt lat="23.356828" lon="110.855491">
<time>2015-09-27T11:58:22Z</time></trkpt>
<trkpt lat="23.356918" lon="110.85514">
<time>2015-09-27T11:58:23Z</time></trkpt>
<trkpt lat="23.356968" lon="110.85495">
<time>2015-09-27T11:58:24Z</time></trkpt>
<trkpt lat="23.357017" lon="110.85478">
<time>2015-09-27T11:58:25Z</time></trkpt>
<trkpt lat="23.357177" lon="110.85438">
<time>2015-09-27T11:58:26Z</time></trkpt>
<trkpt lat="23.357316" lon="110.85407">
<time>2015-09-27T11:58:27Z</time></trkpt>
<trkpt lat="23.357466" lon="110.853809">
<time>2015-09-27T11:58:28Z</time></trkpt>
<trkpt lat="23.357585" lon="110.853639">
<time>2015-09-27T11:58:29Z</time></trkpt>
<trkpt lat="23.357795" lon="110.853359">
<time>2015-09-27T11:58:30Z</time></trkpt>
<trkpt lat="23.357985" lon="110.853129">
<time>2015-09-27T11:58:31Z</time></trkpt>
<trkpt lat="23.358324" lon="110.852788">
<time>2015-09-27T11:58:32Z</time></trkpt>
<trkpt lat="23.358733" lon="110.852428">
<time>2015-09-27T11:58:33Z</time></trkpt>
<trkpt lat="23.358973" lon="110.852218">
<time>2015-09-27T11:58:34Z</time></trkpt>
<trkpt lat="23.359272" lon="110.851968">
<time>2015-09-27T11:58:35Z</time></trkpt>
<trkpt lat="23.359512" lon="110.851747">
<time>2015-09-27T11:58:36Z</time></trkpt>
<trkpt lat="23.359652" lon="110.851607">
<time>2015-09-27T11:58:37Z</time></trkpt>
<trkpt lat="23.359931" lon="110.851327">
<time>2015-09-27T11:58:38Z</time></trkpt>
<trkpt lat="23.360191" lon="110.851037">
<time>2015-09-27T11:58:39Z</time></trkpt>
<trkpt lat="23.36043" lon="110.850706">
<time>2015-09-27T11:58:40Z</time></trkpt>
<trkpt lat="23.36065" lon="110.850386">
<time>2015-09-27T11:58:41Z</time></trkpt>
<trkpt lat="23.360929" lon="110.849906">
<time>2015-09-27T11:58:42Z</time></trkpt>
<trkpt lat="23.361198" lon="110.849385">
<time>2015-09-27T11:58:43Z</time></trkpt>
<trkpt lat="23.361367" lon="110.849075">
<time>2015-09-27T11:58:44Z</time></trkpt>
<trkpt lat="23.361547" lon="110.848755">
<time>2015-09-27T11:58:45Z</time></trkpt>
<trkpt lat="23.361786" lon="110.848354">
<time>2015-09-27T11:58:46Z</time></trkpt>
<trkpt lat="23.361976" lon="110.848064">
<time>2015-09-27T11:58:47Z</time></trkpt>
<trkpt lat="23.362175" lon="110.847784">
<time>2015-09-27T11:58:48Z</time></trkpt>
<trkpt lat="23.362395" lon="110.847503">
<time>2015-09-27T11:58:49Z</time></trkpt>
<trkpt lat="23.362774" lon="110.847123">
<time>2015-09-27T11:58:50Z</time></trkpt>
<trkpt lat="23.363123" lon="110.846762">
<time>2015-09-27T11:58:51Z</time></trkpt>
<trkpt lat="23.363473" lon="110.846432">
<time>2015-09-27T11:58:52Z</time></trkpt>
<trkpt lat="23.363902" lon="110.846012">
<time>2015-09-27T11:58:53Z</time></trkpt>
<trkpt lat="23.364211" lon="110.845721">
<time>2015-09-27T11:58:54Z</time></trkpt>
<trkpt lat="23.364411" lon="110.845541">
<time>2015-09-27T11:58:55Z</time></trkpt>
<trkpt lat="23.36464" lon="110.845311">
<time>2015-09-27T11:58:56Z</time></trkpt>
<trkpt lat="23.36486" lon="110.845091">
<time>2015-09-27T11:58:57Z</time></trkpt>
<trkpt lat="23.365129" lon="110.84481">
<time>2015-09-27T11:58:58Z</time></trkpt>
<trkpt lat="23.365349" lon="110.84454">
<time>2015-09-27T11:58:59Z</time></trkpt>
<trkpt lat="23.365508" lon="110.8443">
<time>2015-09-27T11:59:00Z</time></trkpt>
<trkpt lat="23.365598" lon="110.84413">
<time>2015-09-27T11:59:01Z</time></trkpt>
<trkpt lat="23.365728" lon="110.843829">
<time>2015-09-27T11:59:02Z</time></trkpt>
<trkpt lat="23.365797" lon="110.843589">
<time>2015-09-27T11:59:03Z</time></trkpt>
<trkpt lat="23.365827" lon="110.843399">
<time>2015-09-27T11:59:04Z</time></trkpt>
<trkpt lat="23.365847" lon="110.843289">
<time>2015-09-27T11:59:05Z</time></trkpt>
<trkpt lat="23.365876" lon="110.842948">
<time>2015-09-27T11:59:06Z</time></trkpt>
<trkpt lat="23.365865" lon="110.842598">
<time>2015-09-27T11:59:07Z</time></trkpt>
<trkpt lat="23.365815" lon="110.842298">
<time>2015-09-27T11:59:08Z</time></trkpt>
<trkpt lat="23.365744" lon="110.842027">
<time>2015-09-27T11:59:09Z</time></trkpt>
<trkpt lat="23.365644" lon="110.841767">
<time>2015-09-27T11:59:10Z</time></trkpt>
<trkpt lat="23.365514" lon="110.841487">
<time>2015-09-27T11:59:11Z</time></trkpt>
<trkpt lat="23.365313" lon="110.841066">
<time>2015-09-27T11:59:12Z</time></trkpt>
<trkpt lat="23.365192" lon="110.840786">
<time>2015-09-27T11:59:13Z</time></trkpt>
<trkpt lat="23.365082" lon="110.840506">
<time>2015-09-27T11:59:14Z</time></trkpt>
<trkpt lat="23.365022" lon="110.840285">
<time>2015-09-27T11:59:15Z</time></trkpt>
<trkpt lat="23.365021" lon="110.840265">
<time>2015-09-27T11:59:16Z</time></trkpt>
<trkpt lat="23.364981" lon="110.839995">
<time>2015-09-27T11:59:17Z</time></trkpt>
<trkpt lat="23.364951" lon="110.839735">
<time>2015-09-27T11:59:18Z</time></trkpt>
<trkpt lat="23.36496" lon="110.839455">
<time>2015-09-27T11:59:19Z</time></trkpt>
<trkpt lat="23.36499" lon="110.839174">
<time>2015-09-27T11:59:20Z</time></trkpt>
<trkpt lat="23.365019" lon="110.838974">
<time>2015-09-27T11:59:21Z</time></trkpt>
<trkpt lat="23.365088" lon="110.838463">
<time>2015-09-27T11:59:22Z</time></trkpt>
<trkpt lat="23.365128" lon="110.838203">
<time>2015-09-27T11:59:23Z</time></trkpt>
<trkpt lat="23.365197" lon="110.837652">
<time>2015-09-27T11:59:24Z</time></trkpt>
<trkpt lat="23.365236" lon="110.837362">
<time>2015-09-27T11:59:25Z</time></trkpt>
<trkpt lat="23.365246" lon="110.837222">
<time>2015-09-27T11:59:26Z</time></trkpt>
<trkpt lat="23.365286" lon="110.837042">
<time>2015-09-27T11:59:27Z</time></trkpt>
<trkpt lat="23.365345" lon="110.836691">
<time>2015-09-27T11:59:28Z</time></trkpt>
<trkpt lat="23.365414" lon="110.836221">
<time>2015-09-27T11:59:29Z</time></trkpt>
<trkpt lat="23.365434" lon="110.836071">
<time>2015-09-27T11:59:30Z</time></trkpt>
<trkpt lat="23.365503" lon="110.83572">
<time>2015-09-27T11:59:31Z</time></trkpt>
<trkpt lat="23.365563" lon="110.83541">
<time>2015-09-27T11:59:32Z</time></trkpt>
<trkpt lat="23.365652" lon="110.835039">
<time>2015-09-27T11:59:33Z</time></trkpt>
<trkpt lat="23.365761" lon="110.834699">
<time>2015-09-27T11:59:34Z</time></trkpt>
<trkpt lat="23.365871" lon="110.834419">
<time>2015-09-27T11:59:35Z</time></trkpt>
<trkpt lat="23.36599" lon="110.834168">
<time>2015-09-27T11:59:36Z</time></trkpt>
<trkpt lat="23.36608" lon="110.833998">
<time>2015-09-27T11:59:37Z</time></trkpt>
<trkpt lat="23.36617" lon="110.833838">
<time>2015-09-27T11:59:38Z</time></trkpt>
<trkpt lat="23.366329" lon="110.833588">
<time>2015-09-27T11:59:39Z</time></trkpt>
<trkpt lat="23.366548" lon="110.833297">
<time>2015-09-27T11:59:40Z</time></trkpt>
<trkpt lat="23.366778" lon="110.833027">
<time>2015-09-27T11:59:41Z</time></trkpt>
<trkpt lat="23.366968" lon="110.832837">
<time>2015-09-27T11:59:42Z</time></trkpt>
<trkpt lat="23.367137" lon="110.832676">
<time>2015-09-27T11:59:43Z</time></trkpt>
<trkpt lat="23.367397" lon="110.832446">
<time>2015-09-27T11:59:44Z</time></trkpt>
<trkpt lat="23.367656" lon="110.832216">
<time>2015-09-27T11:59:45Z</time></trkpt>
<trkpt lat="23.367876" lon="110.832036">
<time>2015-09-27T11:59:46Z</time></trkpt>
<trkpt lat="23.367926" lon="110.831986">
<time>2015-09-27T11:59:47Z</time></trkpt>
<trkpt lat="23.368105" lon="110.831825">
<time>2015-09-27T11:59:48Z</time></trkpt>
<trkpt lat="23.368345" lon="110.831595">
<time>2015-09-27T11:59:49Z</time></trkpt>
<trkpt lat="23.368555" lon="110.831375">
<time>2015-09-27T11:59:50Z</time></trkpt>
<trkpt lat="23.368744" lon="110.831124">
<time>2015-09-27T11:59:51Z</time></trkpt>
<trkpt lat="23.368854" lon="110.830974">
<time>2015-09-27T11:59:52Z</time></trkpt>
<trkpt lat="23.368993" lon="110.830744">
<time>2015-09-27T11:59:53Z</time></trkpt>
<trkpt lat="23.369143" lon="110.830444">
<time>2015-09-27T11:59:54Z</time></trkpt>
<trkpt lat="23.369282" lon="110.830093">
<time>2015-09-27T11:59:55Z</time></trkpt>
<trkpt lat="23.369381" lon="110.829753">
<time>2015-09-27T11:59:56Z</time></trkpt>
<trkpt lat="23.3695" lon="110.829252">
<time>2015-09-27T11:59:57Z</time></trkpt>
<trkpt lat="23.369589" lon="110.828741">
<time>2015-09-27T11:59:58Z</time></trkpt>
<trkpt lat="23.369678" lon="110.828221">
<time>2015-09-27T11:59:59Z</time></trkpt>
<trkpt lat="23.369777" lon="110.82764">
<time>2015-09-27T12:00:00Z</time></trkpt>
<trkpt lat="23.369856" lon="110.82718">
<time>2015-09-27T12:00:01Z</time></trkpt>
<trkpt lat="23.369916" lon="110.826799">
<time>2015-09-27T12:00:02Z</time></trkpt>
<trkpt lat="23.370035" lon="110.826248">
<time>2015-09-27T12:00:03Z</time></trkpt>
<trkpt lat="23.370124" lon="110.825918">
<time>2015-09-27T12:00:04Z</time></trkpt>
<trkpt lat="23.370223" lon="110.825578">
<time>2015-09-27T12:00:05Z</time></trkpt>
<trkpt lat="23.370303" lon="110.825327">
<time>2015-09-27T12:00:06Z</time></trkpt>
<trkpt lat="23.370392" lon="110.825107">
<time>2015-09-27T12:00:07Z</time></trkpt>
<trkpt lat="23.370572" lon="110.824736">
<time>2015-09-27T12:00:08Z</time></trkpt>
<trkpt lat="23.370821" lon="110.824266">
<time>2015-09-27T12:00:09Z</time></trkpt>
<trkpt lat="23.371159" lon="110.823675">
<time>2015-09-27T12:00:10Z</time></trkpt>
<trkpt lat="23.371369" lon="110.823295">
<time>2015-09-27T12:00:11Z</time></trkpt>
<trkpt lat="23.371498" lon="110.823034">
<time>2015-09-27T12:00:12Z</time></trkpt>
<trkpt lat="23.371628" lon="110.822754">
<time>2015-09-27T12:00:13Z</time></trkpt>
<trkpt lat="23.371707" lon="110.822534">
<time>2015-09-27T12:00:14Z</time></trkpt>
<trkpt lat="23.371797" lon="110.822223">
<time>2015-09-27T12:00:15Z</time></trkpt>
<trkpt lat="23.371886" lon="110.821883">
<time>2015-09-27T12:00:16Z</time></trkpt>
<trkpt lat="23.371955" lon="110.821532">
<time>2015-09-27T12:00:17Z</time></trkpt>
<trkpt lat="23.372054" lon="110.821082">
<time>2015-09-27T12:00:18Z</time></trkpt>
<trkpt lat="23.372144" lon="110.820691">
<time>2015-09-27T12:00:19Z</time></trkpt>
<trkpt lat="23.372253" lon="110.820331">
<time>2015-09-27T12:00:20Z</time></trkpt>
<trkpt lat="23.372342" lon="110.820091">
<time>2015-09-27T12:00:21Z</time></trkpt>
<trkpt lat="23.372432" lon="110.81984">
<time>2015-09-27T12:00:22Z</time></trkpt>
<trkpt lat="23.372591" lon="110.81951">
<time>2015-09-27T12:00:23Z</time></trkpt>
<trkpt lat="23.372721" lon="110.81929">
<time>2015-09-27T12:00:24Z</time></trkpt>
<trkpt lat="23.37285" lon="110.819059">
<time>2015-09-27T12:00:25Z</time></trkpt>
<trkpt lat="23.37304" lon="110.818769">
<time>2015-09-27T12:00:26Z</time></trkpt>
<trkpt lat="23.373239" lon="110.818488">
<time>2015-09-27T12:00:27Z</time></trkpt>
<trkpt lat="23.373419" lon="110.818238">
<time>2015-09-27T12:00:28Z</time></trkpt>
<trkpt lat="23.373548" lon="110.818028">
<time>2015-09-27T12:00:29Z</time></trkpt>
<trkpt lat="23.373788" lon="110.817677">
<time>2015-09-27T12:00:30Z</time></trkpt>
<trkpt lat="23.373997" lon="110.817387">
<time>2015-09-27T12:00:31Z</time></trkpt>
<trkpt lat="23.374196" lon="110.817087">
<time>2015-09-27T12:00:32Z</time></trkpt>
<trkpt lat="23.374426" lon="110.816756">
<time>2015-09-27T12:00:33Z</time></trkpt>
<trkpt lat="23.374625" lon="110.816476">
<time>2015-09-27T12:00:34Z</time></trkpt>
<trkpt lat="23.374805" lon="110.816206">
<time>2015-09-27T12:00:35Z</time></trkpt>
<trkpt lat="23.374994" lon="110.815935">
<time>2015-09-27T12:00:36Z</time></trkpt>
<trkpt lat="23.375184" lon="110.815675">
<time>2015-09-27T12:00:37Z</time></trkpt>
<trkpt lat="23.375363" lon="110.815415">
<time>2015-09-27T12:00:38Z</time></trkpt>
<trkpt lat="23.375483" lon="110.815234">
<time>2015-09-27T12:00:39Z</time></trkpt>
<trkpt lat="23.375762" lon="110.814814">
<time>2015-09-27T12:00:40Z</time></trkpt>
<trkpt lat="23.375941" lon="110.814543">
<time>2015-09-27T12:00:41Z</time></trkpt>
<trkpt lat="23.376071" lon="110.814333">
<time>2015-09-27T12:00:42Z</time></trkpt>
<trkpt lat="23.37622" lon="110.814073">
<time>2015-09-27T12:00:43Z</time></trkpt>
<trkpt lat="23.37633" lon="110.813833">
<time>2015-09-27T12:00:44Z</time></trkpt>
<trkpt lat="23.376459" lon="110.813542">
<time>2015-09-27T12:00:45Z</time></trkpt>
<trkpt lat="23.376649" lon="110.813062">
<time>2015-09-27T12:00:46Z</time></trkpt>
<trkpt lat="23.376758" lon="110.812741">
<time>2015-09-27T12:00:47Z</time></trkpt>
<trkpt lat="23.376827" lon="110.812511">
<time>2015-09-27T12:00:48Z</time></trkpt>
<trkpt lat="23.376927" lon="110.812201">
<time>2015-09-27T12:00:49Z</time></trkpt>
<trkpt lat="23.377036" lon="110.81176">
<time>2015-09-27T12:00:50Z</time></trkpt>
<trkpt lat="23.377155" lon="110.811239">
<time>2015-09-27T12:00:51Z</time></trkpt>
<trkpt lat="23.377224" lon="110.810929">
<time>2015-09-27T12:00:52Z</time></trkpt>
<trkpt lat="23.377314" lon="110.810579">
<time>2015-09-27T12:00:53Z</time></trkpt>
<trkpt lat="23.377353" lon="110.810398">
<time>2015-09-27T12:00:54Z</time></trkpt>
<trkpt lat="23.377473" lon="110.809908">
<time>2015-09-27T12:00:55Z</time></trkpt>
<trkpt lat="23.377542" lon="110.809607">
<time>2015-09-27T12:00:56Z</time></trkpt>
<trkpt lat="23.377631" lon="110.809227">
<time>2015-09-27T12:00:57Z</time></trkpt>
<trkpt lat="23.377731" lon="110.808857">
<time>2015-09-27T12:00:58Z</time></trkpt>
<trkpt lat="23.37783" lon="110.808416">
<time>2015-09-27T12:00:59Z</time></trkpt>
<trkpt lat="23.377899" lon="110.808196">
<time>2015-09-27T12:01:00Z</time></trkpt>
<trkpt lat="23.377989" lon="110.807925">
<time>2015-09-27T12:01:01Z</time></trkpt>
<trkpt lat="23.378178" lon="110.807465">
<time>2015-09-27T12:01:02Z</time></trkpt>
<trkpt lat="23.378268" lon="110.807265">
<time>2015-09-27T12:01:03Z</time></trkpt>
<trkpt lat="23.378407" lon="110.806964">
<time>2015-09-27T12:01:04Z</time></trkpt>
<trkpt lat="23.378487" lon="110.806834">
<time>2015-09-27T12:01:05Z</time></trkpt>
<trkpt lat="23.378606" lon="110.806624">
<time>2015-09-27T12:01:06Z</time></trkpt>
<trkpt lat="23.378706" lon="110.806464">
<time>2015-09-27T12:01:07Z</time></trkpt>
<trkpt lat="23.378856" lon="110.806233">
<time>2015-09-27T12:01:08Z</time></trkpt>
<trkpt lat="23.379055" lon="110.805953">
<time>2015-09-27T12:01:09Z</time></trkpt>
<trkpt lat="23.379185" lon="110.805763">
<time>2015-09-27T12:01:10Z</time></trkpt>
<trkpt lat="23.379414" lon="110.805463">
<time>2015-09-27T12:01:11Z</time></trkpt>
<trkpt lat="23.379644" lon="110.805162">
<time>2015-09-27T12:01:12Z</time></trkpt>
<trkpt lat="23.379813" lon="110.804932">
<time>2015-09-27T12:01:13Z</time></trkpt>
<trkpt lat="23.380003" lon="110.804652">
<time>2015-09-27T12:01:14Z</time></trkpt>
<trkpt lat="23.380222" lon="110.804321">
<time>2015-09-27T12:01:15Z</time></trkpt>
<trkpt lat="23.380411" lon="110.803991">
<time>2015-09-27T12:01:16Z</time></trkpt>
<trkpt lat="23.380581" lon="110.80366">
<time>2015-09-27T12:01:17Z</time></trkpt>
<trkpt lat="23.38069" lon="110.8034">
<time>2015-09-27T12:01:18Z</time></trkpt>
<trkpt lat="23.38084" lon="110.80306">
<time>2015-09-27T12:01:19Z</time></trkpt>
<trkpt lat="23.381039" lon="110.802569">
<time>2015-09-27T12:01:20Z</time></trkpt>
<trkpt lat="23.381208" lon="110.802089">
<time>2015-09-27T12:01:21Z</time></trkpt>
<trkpt lat="23.381288" lon="110.801838">
<time>2015-09-27T12:01:22Z</time></trkpt>
<trkpt lat="23.381357" lon="110.801628">
<time>2015-09-27T12:01:23Z</time></trkpt>
<trkpt lat="23.381417" lon="110.801458">
<time>2015-09-27T12:01:24Z</time></trkpt>
<trkpt lat="23.381576" lon="110.800978">
<time>2015-09-27T12:01:25Z</time></trkpt>
<trkpt lat="23.381676" lon="110.800697">
<time>2015-09-27T12:01:26Z</time></trkpt>
<trkpt lat="23.381745" lon="110.800477">
<time>2015-09-27T12:01:27Z</time></trkpt>
<trkpt lat="23.381825" lon="110.800237">
<time>2015-09-27T12:01:28Z</time></trkpt>
<trkpt lat="23.381835" lon="110.800217">
<time>2015-09-27T12:01:29Z</time></trkpt>
<trkpt lat="23.381924" lon="110.799946">
<time>2015-09-27T12:01:30Z</time></trkpt>
<trkpt lat="23.382054" lon="110.799566">
<time>2015-09-27T12:01:31Z</time></trkpt>
<trkpt lat="23.382133" lon="110.799336">
<time>2015-09-27T12:01:32Z</time></trkpt>
<trkpt lat="23.382203" lon="110.799136">
<time>2015-09-27T12:01:33Z</time></trkpt>
<trkpt lat="23.382273" lon="110.798935">
<time>2015-09-27T12:01:34Z</time></trkpt>
<trkpt lat="23.382322" lon="110.798825">
<time>2015-09-27T12:01:35Z</time></trkpt>
<trkpt lat="23.382442" lon="110.798545">
<time>2015-09-27T12:01:36Z</time></trkpt>
<trkpt lat="23.382551" lon="110.798315">
<time>2015-09-27T12:01:37Z</time></trkpt>
<trkpt lat="23.382641" lon="110.798155">
<time>2015-09-27T12:01:38Z</time></trkpt>
<trkpt lat="23.382731" lon="110.798014">
<time>2015-09-27T12:01:39Z</time></trkpt>
<trkpt lat="23.382861" lon="110.797824">
<time>2015-09-27T12:01:40Z</time></trkpt>
<trkpt lat="23.38295" lon="110.797704">
<time>2015-09-27T12:01:41Z</time></trkpt>
<trkpt lat="23.38304" lon="110.797584">
<time>2015-09-27T12:01:42Z</time></trkpt>
<trkpt lat="23.38316" lon="110.797464">
<time>2015-09-27T12:01:43Z</time></trkpt>
<trkpt lat="23.38333" lon="110.797284">
<time>2015-09-27T12:01:44Z</time></trkpt>
<trkpt lat="23.383519" lon="110.797113">
<time>2015-09-27T12:01:45Z</time></trkpt>
<trkpt lat="23.383719" lon="110.796943">
<time>2015-09-27T12:01:46Z</time></trkpt>
<trkpt lat="23.383949" lon="110.796763">
<time>2015-09-27T12:01:47Z</time></trkpt>
<trkpt lat="23.384088" lon="110.796663">
<time>2015-09-27T12:01:48Z</time></trkpt>
<trkpt lat="23.384338" lon="110.796473">
<time>2015-09-27T12:01:49Z</time></trkpt>
<trkpt lat="23.384658" lon="110.796223">
<time>2015-09-27T12:01:50Z</time></trkpt>
<trkpt lat="23.384817" lon="110.796102">
<time>2015-09-27T12:01:51Z</time></trkpt>
<trkpt lat="23.384907" lon="110.796032">
<time>2015-09-27T12:01:52Z</time></trkpt>
<trkpt lat="23.385107" lon="110.795872">
<time>2015-09-27T12:01:53Z</time></trkpt>
<trkpt lat="23.385327" lon="110.795712">
<time>2015-09-27T12:01:54Z</time></trkpt>
<trkpt lat="23.385516" lon="110.795552">
<time>2015-09-27T12:01:55Z</time></trkpt>
<trkpt lat="23.385686" lon="110.795432">
<time>2015-09-27T12:01:56Z</time></trkpt>
<trkpt lat="23.385756" lon="110.795372">
<time>2015-09-27T12:01:57Z</time></trkpt>
<trkpt lat="23.385956" lon="110.795222">
<time>2015-09-27T12:01:58Z</time></trkpt>
<trkpt lat="23.386146" lon="110.795081">
<time>2015-09-27T12:01:59Z</time></trkpt>
<trkpt lat="23.386375" lon="110.794881">
<time>2015-09-27T12:02:00Z</time></trkpt>
<trkpt lat="23.386485" lon="110.794791">
<time>2015-09-27T12:02:01Z</time></trkpt>
<trkpt lat="23.386715" lon="110.794561">
<time>2015-09-27T12:02:02Z</time></trkpt>
<trkpt lat="23.386914" lon="110.794341">
<time>2015-09-27T12:02:03Z</time></trkpt>
<trkpt lat="23.387044" lon="110.79417">
<time>2015-09-27T12:02:04Z</time></trkpt>
<trkpt lat="23.387213" lon="110.7939">
<time>2015-09-27T12:02:05Z</time></trkpt>
<trkpt lat="23.387353" lon="110.79365">
<time>2015-09-27T12:02:06Z</time></trkpt>
<trkpt lat="23.387463" lon="110.7934">
<time>2015-09-27T12:02:07Z</time></trkpt>
<trkpt lat="23.387562" lon="110.793129">
<time>2015-09-27T12:02:08Z</time></trkpt>
<trkpt lat="23.387622" lon="110.792889">
<time>2015-09-27T12:02:09Z</time></trkpt>
<trkpt lat="23.387671" lon="110.792659">
<time>2015-09-27T12:02:10Z</time></trkpt>
<trkpt lat="23.387701" lon="110.792389">
<time>2015-09-27T12:02:11Z</time></trkpt>
<trkpt lat="23.387721" lon="110.792149">
<time>2015-09-27T12:02:12Z</time></trkpt>
<trkpt lat="23.38772" lon="110.791868">
<time>2015-09-27T12:02:13Z</time></trkpt>
<trkpt lat="23.3877" lon="110.791568">
<time>2015-09-27T12:02:14Z</time></trkpt>
<trkpt lat="23.387649" lon="110.791338">
<time>2015-09-27T12:02:15Z</time></trkpt>
<trkpt lat="23.387509" lon="110.790757">
<time>2015-09-27T12:02:16Z</time></trkpt>
<trkpt lat="23.387328" lon="110.790217">
<time>2015-09-27T12:02:17Z</time></trkpt>
<trkpt lat="23.387137" lon="110.789677">
<time>2015-09-27T12:02:18Z</time></trkpt>
<trkpt lat="23.387047" lon="110.789386">
<time>2015-09-27T12:02:19Z</time></trkpt>
<trkpt lat="23.386976" lon="110.789086">
<time>2015-09-27T12:02:20Z</time></trkpt>
<trkpt lat="23.386916" lon="110.788746">
<time>2015-09-27T12:02:21Z</time></trkpt>
<trkpt lat="23.386895" lon="110.788386">
<time>2015-09-27T12:02:22Z</time></trkpt>
<trkpt lat="23.386915" lon="110.788035">
<time>2015-09-27T12:02:23Z</time></trkpt>
<trkpt lat="23.386944" lon="110.787775">
<time>2015-09-27T12:02:24Z</time></trkpt>
<trkpt lat="23.387004" lon="110.787485">
<time>2015-09-27T12:02:25Z</time></trkpt>
<trkpt lat="23.387084" lon="110.787185">
<time>2015-09-27T12:02:26Z</time></trkpt>
<trkpt lat="23.387183" lon="110.786884">
<time>2015-09-27T12:02:27Z</time></trkpt>
<trkpt lat="23.387332" lon="110.786404">
<time>2015-09-27T12:02:28Z</time></trkpt>
<trkpt lat="23.387422" lon="110.786114">
<time>2015-09-27T12:02:29Z</time></trkpt>
<trkpt lat="23.387492" lon="110.785914">
<time>2015-09-27T12:02:30Z</time></trkpt>
<trkpt lat="23.387611" lon="110.785523">
<time>2015-09-27T12:02:31Z</time></trkpt>
<trkpt lat="23.387691" lon="110.785273">
<time>2015-09-27T12:02:32Z</time></trkpt>
<trkpt lat="23.38777" lon="110.785033">
<time>2015-09-27T12:02:33Z</time></trkpt>
<trkpt lat="23.38778" lon="110.784983">
<time>2015-09-27T12:02:34Z</time></trkpt>
<trkpt lat="23.38789" lon="110.784603">
<time>2015-09-27T12:02:35Z</time></trkpt>
<trkpt lat="23.387969" lon="110.784242">
<time>2015-09-27T12:02:36Z</time></trkpt>
<trkpt lat="23.388009" lon="110.784012">
<time>2015-09-27T12:02:37Z</time></trkpt>
<trkpt lat="23.388029" lon="110.783722">
<time>2015-09-27T12:02:38Z</time></trkpt>
<trkpt lat="23.388038" lon="110.783442">
<time>2015-09-27T12:02:39Z</time></trkpt>
<trkpt lat="23.388018" lon="110.782922">
<time>2015-09-27T12:02:40Z</time></trkpt>
<trkpt lat="23.387967" lon="110.782381">
<time>2015-09-27T12:02:41Z</time></trkpt>
<trkpt lat="23.387916" lon="110.781841">
<time>2015-09-27T12:02:42Z</time></trkpt>
<trkpt lat="23.387866" lon="110.781321">
<time>2015-09-27T12:02:43Z</time></trkpt>
<trkpt lat="23.387805" lon="110.78079">
<time>2015-09-27T12:02:44Z</time></trkpt>
<trkpt lat="23.387744" lon="110.78024">
<time>2015-09-27T12:02:45Z</time></trkpt>
<trkpt lat="23.387673" lon="110.77953">
<time>2015-09-27T12:02:46Z</time></trkpt>
<trkpt lat="23.387623" lon="110.778999">
<time>2015-09-27T12:02:47Z</time></trkpt>
<trkpt lat="23.387542" lon="110.778229">
<time>2015-09-27T12:02:48Z</time></trkpt>
<trkpt lat="23.387471" lon="110.777449">
<time>2015-09-27T12:02:49Z</time></trkpt>
<trkpt lat="23.38739" lon="110.776678">
<time>2015-09-27T12:02:50Z</time></trkpt>
<trkpt lat="23.38733" lon="110.776138">
<time>2015-09-27T12:02:51Z</time></trkpt>
<trkpt lat="23.387279" lon="110.775628">
<time>2015-09-27T12:02:52Z</time></trkpt>
<trkpt lat="23.387219" lon="110.775058">
<time>2015-09-27T12:02:53Z</time></trkpt>
<trkpt lat="23.387168" lon="110.774558">
<time>2015-09-27T12:02:54Z</time></trkpt>
<trkpt lat="23.387107" lon="110.774027">
<time>2015-09-27T12:02:55Z</time></trkpt>
<trkpt lat="23.387037" lon="110.773447">
<time>2015-09-27T12:02:56Z</time></trkpt>
<trkpt lat="23.386966" lon="110.772947">
<time>2015-09-27T12:02:57Z</time></trkpt>
<trkpt lat="23.386896" lon="110.772547">
<time>2015-09-27T12:02:58Z</time></trkpt>
<trkpt lat="23.386856" lon="110.772327">
<time>2015-09-27T12:02:59Z</time></trkpt>
<trkpt lat="23.386796" lon="110.772047">
<time>2015-09-27T12:03:00Z</time></trkpt>
<trkpt lat="23.386675" lon="110.771597">
<time>2015-09-27T12:03:01Z</time></trkpt>
<trkpt lat="23.386645" lon="110.771527">
<time>2015-09-27T12:03:02Z</time></trkpt>
<trkpt lat="23.386535" lon="110.771177">
<time>2015-09-27T12:03:03Z</time></trkpt>
<trkpt lat="23.386364" lon="110.770746">
<time>2015-09-27T12:03:04Z</time></trkpt>
<trkpt lat="23.386194" lon="110.770376">
<time>2015-09-27T12:03:05Z</time></trkpt>
<trkpt lat="23.385984" lon="110.769956">
<time>2015-09-27T12:03:06Z</time></trkpt>
<trkpt lat="23.385783" lon="110.769596">
<time>2015-09-27T12:03:07Z</time></trkpt>
<trkpt lat="23.385523" lon="110.769186">
<time>2015-09-27T12:03:08Z</time></trkpt>
<trkpt lat="23.385153" lon="110.768666">
<time>2015-09-27T12:03:09Z</time></trkpt>
<trkpt lat="23.384863" lon="110.768306">
<time>2015-09-27T12:03:10Z</time></trkpt>
<trkpt lat="23.384612" lon="110.767986">
<time>2015-09-27T12:03:11Z</time></trkpt>
<trkpt lat="23.384152" lon="110.767426">
<time>2015-09-27T12:03:12Z</time></trkpt>
<trkpt lat="23.383652" lon="110.766806">
<time>2015-09-27T12:03:13Z</time></trkpt>
<trkpt lat="23.383181" lon="110.766216">
<time>2015-09-27T12:03:14Z</time></trkpt>
<trkpt lat="23.382861" lon="110.765846">
<time>2015-09-27T12:03:15Z</time></trkpt>
<trkpt lat="23.382471" lon="110.765366">
<time>2015-09-27T12:03:16Z</time></trkpt>
<trkpt lat="23.38207" lon="110.764866">
<time>2015-09-27T12:03:17Z</time></trkpt>
<trkpt lat="23.38164" lon="110.764336">
<time>2015-09-27T12:03:18Z</time></trkpt>
<trkpt lat="23.38117" lon="110.763756">
<time>2015-09-27T12:03:19Z</time></trkpt>
<trkpt lat="23.380769" lon="110.763256">
<time>2015-09-27T12:03:20Z</time></trkpt>
<trkpt lat="23.380489" lon="110.762906">
<time>2015-09-27T12:03:21Z</time></trkpt>
<trkpt lat="23.380159" lon="110.762526">
<time>2015-09-27T12:03:22Z</time></trkpt>
<trkpt lat="23.379919" lon="110.762246">
<time>2015-09-27T12:03:23Z</time></trkpt>
<trkpt lat="23.379679" lon="110.762016">
<time>2015-09-27T12:03:24Z</time></trkpt>
<trkpt lat="23.379479" lon="110.761856">
<time>2015-09-27T12:03:25Z</time></trkpt>
<trkpt lat="23.379369" lon="110.761766">
<time>2015-09-27T12:03:26Z</time></trkpt>
<trkpt lat="23.378949" lon="110.761456">
<time>2015-09-27T12:03:27Z</time></trkpt>
<trkpt lat="23.378589" lon="110.761206">
<time>2015-09-27T12:03:28Z</time></trkpt>
<trkpt lat="23.378359" lon="110.761046">
<time>2015-09-27T12:03:29Z</time></trkpt>
<trkpt lat="23.378159" lon="110.760906">
<time>2015-09-27T12:03:30Z</time></trkpt>
<trkpt lat="23.377958" lon="110.760746">
<time>2015-09-27T12:03:31Z</time></trkpt>
<trkpt lat="23.377668" lon="110.760507">
<time>2015-09-27T12:03:32Z</time></trkpt>
<trkpt lat="23.377408" lon="110.760217">
<time>2015-09-27T12:03:33Z</time></trkpt>
<trkpt lat="23.377198" lon="110.759947">
<time>2015-09-27T12:03:34Z</time></trkpt>
<trkpt lat="23.377028" lon="110.759697">
<time>2015-09-27T12:03:35Z</time></trkpt>
<trkpt lat="23.376838" lon="110.759367">
<time>2015-09-27T12:03:36Z</time></trkpt>
<trkpt lat="23.376588" lon="110.758857">
<time>2015-09-27T12:03:37Z</time></trkpt>
<trkpt lat="23.376317" lon="110.758297">
<time>2015-09-27T12:03:38Z</time></trkpt>
<trkpt lat="23.376067" lon="110.757767">
<time>2015-09-27T12:03:39Z</time></trkpt>
<trkpt lat="23.375797" lon="110.757217">
<time>2015-09-27T12:03:40Z</time></trkpt>
<trkpt lat="23.375617" lon="110.756847">
<time>2015-09-27T12:03:41Z</time></trkpt>
<trkpt lat="23.375537" lon="110.756647">
<time>2015-09-27T12:03:42Z</time></trkpt>
<trkpt lat="23.375527" lon="110.756637">
<time>2015-09-27T12:03:43Z</time></trkpt>
<trkpt lat="23.375437" lon="110.756408">
<time>2015-09-27T12:03:44Z</time></trkpt>
<trkpt lat="23.375327" lon="110.756088">
<time>2015-09-27T12:03:45Z</time></trkpt>
<trkpt lat="23.375267" lon="110.755838">
<time>2015-09-27T12:03:46Z</time></trkpt>
<trkpt lat="23.375237" lon="110.755618">
<time>2015-09-27T12:03:47Z</time></trkpt>
<trkpt lat="23.375206" lon="110.755338">
<time>2015-09-27T12:03:48Z</time></trkpt>
<trkpt lat="23.375216" lon="110.755148">
<time>2015-09-27T12:03:49Z</time></trkpt>
<trkpt lat="23.375226" lon="110.754988">
<time>2015-09-27T12:03:50Z</time></trkpt>
<trkpt lat="23.375246" lon="110.754828">
<time>2015-09-27T12:03:51Z</time></trkpt>
<trkpt lat="23.375296" lon="110.754578">
<time>2015-09-27T12:03:52Z</time></trkpt>
<trkpt lat="23.375356" lon="110.754398">
<time>2015-09-27T12:03:53Z</time></trkpt>
<trkpt lat="23.375436" lon="110.754198">
<time>2015-09-27T12:03:54Z</time></trkpt>
<trkpt lat="23.375546" lon="110.753978">
<time>2015-09-27T12:03:55Z</time></trkpt>
<trkpt lat="23.375656" lon="110.753798">
<time>2015-09-27T12:03:56Z</time></trkpt>
<trkpt lat="23.375826" lon="110.753529">
<time>2015-09-27T12:03:57Z</time></trkpt>
<trkpt lat="23.376006" lon="110.753289">
<time>2015-09-27T12:03:58Z</time></trkpt>
<trkpt lat="23.376275" lon="110.752949">
<time>2015-09-27T12:03:59Z</time></trkpt>
<trkpt lat="23.376465" lon="110.752689">
<time>2015-09-27T12:04:00Z</time></trkpt>
<trkpt lat="23.376585" lon="110.752509">
<time>2015-09-27T12:04:01Z</time></trkpt>
<trkpt lat="23.376705" lon="110.752309">
<time>2015-09-27T12:04:02Z</time></trkpt>
<trkpt lat="23.376855" lon="110.752019">
<time>2015-09-27T12:04:03Z</time></trkpt>
<trkpt lat="23.376995" lon="110.751699">
<time>2015-09-27T12:04:04Z</time></trkpt>
<trkpt lat="23.377075" lon="110.751479">
<time>2015-09-27T12:04:05Z</time></trkpt>
<trkpt lat="23.377145" lon="110.75126">
<time>2015-09-27T12:04:06Z</time></trkpt>
<trkpt lat="23.377185" lon="110.75108">
<time>2015-09-27T12:04:07Z</time></trkpt>
<trkpt lat="23.377225" lon="110.75085">
<time>2015-09-27T12:04:08Z</time></trkpt>
<trkpt lat="23.377265" lon="110.75053">
<time>2015-09-27T12:04:09Z</time></trkpt>
<trkpt lat="23.377285" lon="110.75025">
<time>2015-09-27T12:04:10Z</time></trkpt>
<trkpt lat="23.377305" lon="110.75">
<time>2015-09-27T12:04:11Z</time></trkpt>
<trkpt lat="23.377305" lon="110.74995">
<time>2015-09-27T12:04:12Z</time></trkpt>
<trkpt lat="23.377325" lon="110.74961">
<time>2015-09-27T12:04:13Z</time></trkpt>
<trkpt lat="23.377345" lon="110.749321">
<time>2015-09-27T12:04:14Z</time></trkpt>
<trkpt lat="23.377354" lon="110.749161">
<time>2015-09-27T12:04:15Z</time></trkpt>
<trkpt lat="23.377384" lon="110.748961">
<time>2015-09-27T12:04:16Z</time></trkpt>
<trkpt lat="23.377414" lon="110.748771">
<time>2015-09-27T12:04:17Z</time></trkpt>
<trkpt lat="23.377454" lon="110.748601">
<time>2015-09-27T12:04:18Z</time></trkpt>
<trkpt lat="23.377484" lon="110.748441">
<time>2015-09-27T12:04:19Z</time></trkpt>
<trkpt lat="23.377534" lon="110.748271">
<time>2015-09-27T12:04:20Z</time></trkpt>
<trkpt lat="23.377574" lon="110.748131">
<time>2015-09-27T12:04:21Z</time></trkpt>
<trkpt lat="23.377604" lon="110.748051">
<time>2015-09-27T12:04:22Z</time></trkpt>
<trkpt lat="23.377654" lon="110.747911">
<time>2015-09-27T12:04:23Z</time></trkpt>
<trkpt lat="23.377694" lon="110.747802">
<time>2015-09-27T12:04:24Z</time></trkpt>
<trkpt lat="23.377714" lon="110.747752">
<time>2015-09-27T12:04:25Z</time></trkpt>
<trkpt lat="23.377764" lon="110.747652">
<time>2015-09-27T12:04:26Z</time></trkpt>
<trkpt lat="23.377794" lon="110.747582">
<time>2015-09-27T12:04:27Z</time></trkpt>
<trkpt lat="23.377834" lon="110.747512">
<time>2015-09-27T12:04:28Z</time></trkpt>
<trkpt lat="23.377974" lon="110.747262">
<time>2015-09-27T12:04:29Z</time></trkpt>
<trkpt lat="23.378104" lon="110.747042">
<time>2015-09-27T12:04:30Z</time></trkpt>
<trkpt lat="23.378194" lon="110.746862">
<time>2015-09-27T12:04:31Z</time></trkpt>
<trkpt lat="23.378294" lon="110.746692">
<time>2015-09-27T12:04:32Z</time></trkpt>
<trkpt lat="23.378344" lon="110.746592">
<time>2015-09-27T12:04:33Z</time></trkpt>
<trkpt lat="23.378394" lon="110.746492">
<time>2015-09-27T12:04:34Z</time></trkpt>
<trkpt lat="23.378434" lon="110.746412">
<time>2015-09-27T12:04:35Z</time></trkpt>
<trkpt lat="23.378514" lon="110.746263">
<time>2015-09-27T12:04:36Z</time></trkpt>
<trkpt lat="23.378584" lon="110.746103">
<time>2015-09-27T12:04:37Z</time></trkpt>
<trkpt lat="23.378644" lon="110.745933">
<time>2015-09-27T12:04:38Z</time></trkpt>
<trkpt lat="23.378714" lon="110.745733">
<time>2015-09-27T12:04:39Z</time></trkpt>
<trkpt lat="23.378764" lon="110.745573">
<time>2015-09-27T12:04:40Z</time></trkpt>
<trkpt lat="23.378814" lon="110.745383">
<time>2015-09-27T12:04:41Z</time></trkpt>
<trkpt lat="23.378844" lon="110.745213">
<time>2015-09-27T12:04:42Z</time></trkpt>
<trkpt lat="23.378864" lon="110.745033">
<time>2015-09-27T12:04:43Z</time></trkpt>
<trkpt lat="23.378894" lon="110.744844">
<time>2015-09-27T12:04:44Z</time></trkpt>
<trkpt lat="23.378914" lon="110.744684">
<time>2015-09-27T12:04:45Z</time></trkpt>
<trkpt lat="23.378934" lon="110.744504">
<time>2015-09-27T12:04:46Z</time></trkpt>
<trkpt lat="23.378954" lon="110.744234">
<time>2015-09-27T12:04:47Z</time></trkpt>
<trkpt lat="23.378964" lon="110.743964">
<time>2015-09-27T12:04:48Z</time></trkpt>
<trkpt lat="23.378984" lon="110.743665">
<time>2015-09-27T12:04:49Z</time></trkpt>
<trkpt lat="23.379004" lon="110.743395">
<time>2015-09-27T12:04:50Z</time></trkpt>
<trkpt lat="23.379034" lon="110.743105">
<time>2015-09-27T12:04:51Z</time></trkpt>
<trkpt lat="23.379054" lon="110.742815">
<time>2015-09-27T12:04:52Z</time></trkpt>
<trkpt lat="23.379064" lon="110.742525">
<time>2015-09-27T12:04:53Z</time></trkpt>
<trkpt lat="23.379104" lon="110.742136">
<time>2015-09-27T12:04:54Z</time></trkpt>
<trkpt lat="23.379124" lon="110.741846">
<time>2015-09-27T12:04:55Z</time></trkpt>
<trkpt lat="23.379164" lon="110.741516">
<time>2015-09-27T12:04:56Z</time></trkpt>
<trkpt lat="23.379184" lon="110.741337">
<time>2015-09-27T12:04:57Z</time></trkpt>
<trkpt lat="23.379224" lon="110.741117">
<time>2015-09-27T12:04:58Z</time></trkpt>
<trkpt lat="23.379244" lon="110.741017">
<time>2015-09-27T12:04:59Z</time></trkpt>
<trkpt lat="23.379314" lon="110.740677">
<time>2015-09-27T12:05:00Z</time></trkpt>
<trkpt lat="23.379404" lon="110.740357">
<time>2015-09-27T12:05:01Z</time></trkpt>
<trkpt lat="23.379484" lon="110.740108">
<time>2015-09-27T12:05:02Z</time></trkpt>
<trkpt lat="23.379534" lon="110.739948">
<time>2015-09-27T12:05:03Z</time></trkpt>
<trkpt lat="23.379594" lon="110.739808">
<time>2015-09-27T12:05:04Z</time></trkpt>
<trkpt lat="23.379694" lon="110.739558">
<time>2015-09-27T12:05:05Z</time></trkpt>
<trkpt lat="23.379774" lon="110.739398">
<time>2015-09-27T12:05:06Z</time></trkpt>
<trkpt lat="23.379865" lon="110.739208">
<time>2015-09-27T12:05:07Z</time></trkpt>
<trkpt lat="23.379895" lon="110.739129">
<time>2015-09-27T12:05:08Z</time></trkpt>
<trkpt lat="23.379975" lon="110.738969">
<time>2015-09-27T12:05:09Z</time></trkpt>
<trkpt lat="23.380115" lon="110.738689">
<time>2015-09-27T12:05:10Z</time></trkpt>
<trkpt lat="23.380255" lon="110.738419">
<time>2015-09-27T12:05:11Z</time></trkpt>
<trkpt lat="23.380355" lon="110.738229">
<time>2015-09-27T12:05:12Z</time></trkpt>
<trkpt lat="23.380405" lon="110.73814">
<time>2015-09-27T12:05:13Z</time></trkpt>
<trkpt lat="23.380445" lon="110.73806">
<time>2015-09-27T12:05:14Z</time></trkpt>
<trkpt lat="23.380485" lon="110.73798">
<time>2015-09-27T12:05:15Z</time></trkpt>
<trkpt lat="23.380555" lon="110.73784">
<time>2015-09-27T12:05:16Z</time></trkpt>
<trkpt lat="23.380605" lon="110.73775">
<time>2015-09-27T12:05:17Z</time></trkpt>
<trkpt lat="23.380645" lon="110.73767">
<time>2015-09-27T12:05:18Z</time></trkpt>
<trkpt lat="23.380695" lon="110.73758">
<time>2015-09-27T12:05:19Z</time></trkpt>
<trkpt lat="23.380775" lon="110.73742">
<time>2015-09-27T12:05:20Z</time></trkpt>
<trkpt lat="23.380825" lon="110.73732">
<time>2015-09-27T12:05:21Z</time></trkpt>
<trkpt lat="23.380875" lon="110.73724">
<time>2015-09-27T12:05:22Z</time></trkpt>
<trkpt lat="23.380955" lon="110.737071">
<time>2015-09-27T12:05:23Z</time></trkpt>
<trkpt lat="23.381095" lon="110.736811">
<time>2015-09-27T12:05:24Z</time></trkpt>
<trkpt lat="23.381175" lon="110.736651">
<time>2015-09-27T12:05:25Z</time></trkpt>
<trkpt lat="23.381225" lon="110.736521">
<time>2015-09-27T12:05:26Z</time></trkpt>
<trkpt lat="23.381265" lon="110.736441">
<time>2015-09-27T12:05:27Z</time></trkpt>
<trkpt lat="23.381305" lon="110.736331">
<time>2015-09-27T12:05:28Z</time></trkpt>
<trkpt lat="23.381335" lon="110.736252">
<time>2015-09-27T12:05:29Z</time></trkpt>
<trkpt lat="23.381375" lon="110.736132">
<time>2015-09-27T12:05:30Z</time></trkpt>
<trkpt lat="23.381425" lon="110.735962">
<time>2015-09-27T12:05:31Z</time></trkpt>
<trkpt lat="23.381465" lon="110.735792">
<time>2015-09-27T12:05:32Z</time></trkpt>
<trkpt lat="23.381485" lon="110.735692">
<time>2015-09-27T12:05:33Z</time></trkpt>
<trkpt lat="23.381535" lon="110.735313">
<time>2015-09-27T12:05:34Z</time></trkpt>
<trkpt lat="23.381535" lon="110.735253">
<time>2015-09-27T12:05:35Z</time></trkpt>
<trkpt lat="23.381536" lon="110.735113">
<time>2015-09-27T12:05:36Z</time></trkpt>
<trkpt lat="23.381536" lon="110.734963">
<time>2015-09-27T12:05:37Z</time></trkpt>
<trkpt lat="23.381526" lon="110.734803">
<time>2015-09-27T12:05:38Z</time></trkpt>
<trkpt lat="23.381506" lon="110.734643">
<time>2015-09-27T12:05:39Z</time></trkpt>
<trkpt lat="23.381446" lon="110.734394">
<time>2015-09-27T12:05:40Z</time></trkpt>
<trkpt lat="23.381406" lon="110.734234">
<time>2015-09-27T12:05:41Z</time></trkpt>
<trkpt lat="23.381326" lon="110.733964">
<time>2015-09-27T12:05:42Z</time></trkpt>
<trkpt lat="23.381266" lon="110.733804">
<time>2015-09-27T12:05:43Z</time></trkpt>
<trkpt lat="23.381126" lon="110.733525">
<time>2015-09-27T12:05:44Z</time></trkpt>
<trkpt lat="23.380986" lon="110.733245">
<time>2015-09-27T12:05:45Z</time></trkpt>
<trkpt lat="23.380787" lon="110.732876">
<time>2015-09-27T12:05:46Z</time></trkpt>
<trkpt lat="23.380527" lon="110.732416">
<time>2015-09-27T12:05:47Z</time></trkpt>
<trkpt lat="23.380387" lon="110.732166">
<time>2015-09-27T12:05:48Z</time></trkpt>
<trkpt lat="23.380217" lon="110.731857">
<time>2015-09-27T12:05:49Z</time></trkpt>
<trkpt lat="23.380017" lon="110.731487">
<time>2015-09-27T12:05:50Z</time></trkpt>
<trkpt lat="23.379858" lon="110.731188">
<time>2015-09-27T12:05:51Z</time></trkpt>
<trkpt lat="23.379718" lon="110.730928">
<time>2015-09-27T12:05:52Z</time></trkpt>
<trkpt lat="23.379698" lon="110.730878">
<time>2015-09-27T12:05:53Z</time></trkpt>
<trkpt lat="23.379598" lon="110.730658">
<time>2015-09-27T12:05:54Z</time></trkpt>
<trkpt lat="23.379478" lon="110.730359">
<time>2015-09-27T12:05:55Z</time></trkpt>
<trkpt lat="23.379388" lon="110.730059">
<time>2015-09-27T12:05:56Z</time></trkpt>
<trkpt lat="23.379309" lon="110.72967">
<time>2015-09-27T12:05:57Z</time></trkpt>
<trkpt lat="23.379269" lon="110.72941">
<time>2015-09-27T12:05:58Z</time></trkpt>
<trkpt lat="23.379249" lon="110.72924">
<time>2015-09-27T12:05:59Z</time></trkpt>
<trkpt lat="23.379249" lon="110.728961">
<time>2015-09-27T12:06:00Z</time></trkpt>
<trkpt lat="23.379269" lon="110.728551">
<time>2015-09-27T12:06:01Z</time></trkpt>
<trkpt lat="23.3793" lon="110.728152">
<time>2015-09-27T12:06:02Z</time></trkpt>
<trkpt lat="23.37933" lon="110.727842">
<time>2015-09-27T12:06:03Z</time></trkpt>
<trkpt lat="23.37935" lon="110.727563">
<time>2015-09-27T12:06:04Z</time></trkpt>
<trkpt lat="23.37939" lon="110.727133">
<time>2015-09-27T12:06:05Z</time></trkpt>
<trkpt lat="23.3794" lon="110.726874">
<time>2015-09-27T12:06:06Z</time></trkpt>
<trkpt lat="23.379431" lon="110.726584">
<time>2015-09-27T12:06:07Z</time></trkpt>
<trkpt lat="23.379451" lon="110.726305">
<time>2015-09-27T12:06:08Z</time></trkpt>
<trkpt lat="23.379481" lon="110.726005">
<time>2015-09-27T12:06:09Z</time></trkpt>
<trkpt lat="23.379501" lon="110.725706">
<time>2015-09-27T12:06:10Z</time></trkpt>
<trkpt lat="23.379531" lon="110.725446">
<time>2015-09-27T12:06:11Z</time></trkpt>
<trkpt lat="23.379562" lon="110.725156">
<time>2015-09-27T12:06:12Z</time></trkpt>
<trkpt lat="23.379602" lon="110.724817">
<time>2015-09-27T12:06:13Z</time></trkpt>
<trkpt lat="23.379632" lon="110.724617">
<time>2015-09-27T12:06:14Z</time></trkpt>
<trkpt lat="23.379702" lon="110.724278">
<time>2015-09-27T12:06:15Z</time></trkpt>
<trkpt lat="23.379773" lon="110.723988">
<time>2015-09-27T12:06:16Z</time></trkpt>
<trkpt lat="23.379823" lon="110.723779">
<time>2015-09-27T12:06:17Z</time></trkpt>
<trkpt lat="23.379853" lon="110.723699">
<time>2015-09-27T12:06:18Z</time></trkpt>
<trkpt lat="23.379883" lon="110.723579">
<time>2015-09-27T12:06:19Z</time></trkpt>
<trkpt lat="23.379923" lon="110.723479">
<time>2015-09-27T12:06:20Z</time></trkpt>
<trkpt lat="23.379953" lon="110.723389">
<time>2015-09-27T12:06:21Z</time></trkpt>
<trkpt lat="23.380023" lon="110.723219">
<time>2015-09-27T12:06:22Z</time></trkpt>
<trkpt lat="23.380073" lon="110.72311">
<time>2015-09-27T12:06:23Z</time></trkpt>
<trkpt lat="23.380113" lon="110.72302">
<time>2015-09-27T12:06:24Z</time></trkpt>
<trkpt lat="23.380153" lon="110.72293">
<time>2015-09-27T12:06:25Z</time></trkpt>
<trkpt lat="23.380223" lon="110.72276">
<time>2015-09-27T12:06:26Z</time></trkpt>
<trkpt lat="23.380253" lon="110.72271">
<time>2015-09-27T12:06:27Z</time></trkpt>
<trkpt lat="23.380314" lon="110.72258">
<time>2015-09-27T12:06:28Z</time></trkpt>
<trkpt lat="23.380364" lon="110.722481">
<time>2015-09-27T12:06:29Z</time></trkpt>
<trkpt lat="23.380424" lon="110.722351">
<time>2015-09-27T12:06:30Z</time></trkpt>
<trkpt lat="23.380514" lon="110.722191">
<time>2015-09-27T12:06:31Z</time></trkpt>
<trkpt lat="23.380634" lon="110.721951">
<time>2015-09-27T12:06:32Z</time></trkpt>
<trkpt lat="23.380744" lon="110.721772">
<time>2015-09-27T12:06:33Z</time></trkpt>
<trkpt lat="23.380874" lon="110.721512">
<time>2015-09-27T12:06:34Z</time></trkpt>
<trkpt lat="23.380985" lon="110.721293">
<time>2015-09-27T12:06:35Z</time></trkpt>
<trkpt lat="23.381055" lon="110.721143">
<time>2015-09-27T12:06:36Z</time></trkpt>
<trkpt lat="23.381095" lon="110.721053">
<time>2015-09-27T12:06:37Z</time></trkpt>
<trkpt lat="23.381215" lon="110.720763">
<time>2015-09-27T12:06:38Z</time></trkpt>
<trkpt lat="23.381325" lon="110.720434">
<time>2015-09-27T12:06:39Z</time></trkpt>
<trkpt lat="23.381416" lon="110.720144">
<time>2015-09-27T12:06:40Z</time></trkpt>
<trkpt lat="23.381486" lon="110.719855">
<time>2015-09-27T12:06:41Z</time></trkpt>
<trkpt lat="23.381546" lon="110.719595">
<time>2015-09-27T12:06:42Z</time></trkpt>
<trkpt lat="23.381596" lon="110.719316">
<time>2015-09-27T12:06:43Z</time></trkpt>
<trkpt lat="23.381647" lon="110.718907">
<time>2015-09-27T12:06:44Z</time></trkpt>
<trkpt lat="23.381687" lon="110.718647">
<time>2015-09-27T12:06:45Z</time></trkpt>
<trkpt lat="23.381717" lon="110.718487">
<time>2015-09-27T12:06:46Z</time></trkpt>
<trkpt lat="23.381747" lon="110.718298">
<time>2015-09-27T12:06:47Z</time></trkpt>
<trkpt lat="23.381757" lon="110.718188">
<time>2015-09-27T12:06:48Z</time></trkpt>
<trkpt lat="23.381818" lon="110.717809">
<time>2015-09-27T12:06:49Z</time></trkpt>
<trkpt lat="23.381858" lon="110.717499">
<time>2015-09-27T12:06:50Z</time></trkpt>
<trkpt lat="23.381908" lon="110.71718">
<time>2015-09-27T12:06:51Z</time></trkpt>
<trkpt lat="23.381959" lon="110.71688">
<time>2015-09-27T12:06:52Z</time></trkpt>
<trkpt lat="23.381999" lon="110.716691">
<time>2015-09-27T12:06:53Z</time></trkpt>
<trkpt lat="23.382069" lon="110.716451">
<time>2015-09-27T12:06:54Z</time></trkpt>
<trkpt lat="23.382199" lon="110.716072">
<time>2015-09-27T12:06:55Z</time></trkpt>
<trkpt lat="23.38227" lon="110.715922">
<time>2015-09-27T12:06:56Z</time></trkpt>
<trkpt lat="23.38235" lon="110.715752">
<time>2015-09-27T12:06:57Z</time></trkpt>
<trkpt lat="23.38244" lon="110.715593">
<time>2015-09-27T12:06:58Z</time></trkpt>
<trkpt lat="23.38246" lon="110.715553">
<time>2015-09-27T12:06:59Z</time></trkpt>
<trkpt lat="23.38255" lon="110.715403">
<time>2015-09-27T12:07:00Z</time></trkpt>
<trkpt lat="23.38264" lon="110.715263">
<time>2015-09-27T12:07:01Z</time></trkpt>
<trkpt lat="23.38274" lon="110.715123">
<time>2015-09-27T12:07:02Z</time></trkpt>
<trkpt lat="23.382961" lon="110.714844">
<time>2015-09-27T12:07:03Z</time></trkpt>
<trkpt lat="23.383181" lon="110.714575">
<time>2015-09-27T12:07:04Z</time></trkpt>
<trkpt lat="23.383221" lon="110.714515">
<time>2015-09-27T12:07:05Z</time></trkpt>
<trkpt lat="23.383451" lon="110.714225">
<time>2015-09-27T12:07:06Z</time></trkpt>
<trkpt lat="23.383651" lon="110.713976">
<time>2015-09-27T12:07:07Z</time></trkpt>
<trkpt lat="23.383782" lon="110.713806">
<time>2015-09-27T12:07:08Z</time></trkpt>
<trkpt lat="23.383802" lon="110.713786">
<time>2015-09-27T12:07:09Z</time></trkpt>
<trkpt lat="23.383962" lon="110.713586">
<time>2015-09-27T12:07:10Z</time></trkpt>
<trkpt lat="23.384052" lon="110.713467">
<time>2015-09-27T12:07:11Z</time></trkpt>
<trkpt lat="23.384212" lon="110.713257">
<time>2015-09-27T12:07:12Z</time></trkpt>
<trkpt lat="23.384362" lon="110.713057">
<time>2015-09-27T12:07:13Z</time></trkpt>
<trkpt lat="23.384593" lon="110.712778">
<time>2015-09-27T12:07:14Z</time></trkpt>
<trkpt lat="23.384803" lon="110.712508">
<time>2015-09-27T12:07:15Z</time></trkpt>
<trkpt lat="23.384963" lon="110.712309">
<time>2015-09-27T12:07:16Z</time></trkpt>
<trkpt lat="23.385204" lon="110.711989">
<time>2015-09-27T12:07:17Z</time></trkpt>
<trkpt lat="23.385444" lon="110.71167">
<time>2015-09-27T12:07:18Z</time></trkpt>
<trkpt lat="23.385694" lon="110.711301">
<time>2015-09-27T12:07:19Z</time></trkpt>
<trkpt lat="23.385764" lon="110.711181">
<time>2015-09-27T12:07:20Z</time></trkpt>
<trkpt lat="23.385925" lon="110.710892">
<time>2015-09-27T12:07:21Z</time></trkpt>
<trkpt lat="23.386035" lon="110.710672">
<time>2015-09-27T12:07:22Z</time></trkpt>
<trkpt lat="23.386075" lon="110.710582">
<time>2015-09-27T12:07:23Z</time></trkpt>
<trkpt lat="23.386175" lon="110.710353">
<time>2015-09-27T12:07:24Z</time></trkpt>
<trkpt lat="23.386276" lon="110.710073">
<time>2015-09-27T12:07:25Z</time></trkpt>
<trkpt lat="23.386336" lon="110.709874">
<time>2015-09-27T12:07:26Z</time></trkpt>
<trkpt lat="23.386386" lon="110.709684">
<time>2015-09-27T12:07:27Z</time></trkpt>
<trkpt lat="23.386426" lon="110.709445">
<time>2015-09-27T12:07:28Z</time></trkpt>
<trkpt lat="23.386467" lon="110.709215">
<time>2015-09-27T12:07:29Z</time></trkpt>
<trkpt lat="23.386487" lon="110.708986">
<time>2015-09-27T12:07:30Z</time></trkpt>
<trkpt lat="23.386507" lon="110.708846">
<time>2015-09-27T12:07:31Z</time></trkpt>
<trkpt lat="23.386517" lon="110.708696">
<time>2015-09-27T12:07:32Z</time></trkpt>
<trkpt lat="23.386517" lon="110.708676">
<time>2015-09-27T12:07:33Z</time></trkpt>
<trkpt lat="23.386508" lon="110.708556">
<time>2015-09-27T12:07:34Z</time></trkpt>
<trkpt lat="23.386508" lon="110.708417">
<time>2015-09-27T12:07:35Z</time></trkpt>
<trkpt lat="23.386498" lon="110.708277">
<time>2015-09-27T12:07:36Z</time></trkpt>
<trkpt lat="23.386488" lon="110.708107">
<time>2015-09-27T12:07:37Z</time></trkpt>
<trkpt lat="23.386478" lon="110.707918">
<time>2015-09-27T12:07:38Z</time></trkpt>
<trkpt lat="23.386439" lon="110.707678">
<time>2015-09-27T12:07:39Z</time></trkpt>
<trkpt lat="23.386399" lon="110.707419">
<time>2015-09-27T12:07:40Z</time></trkpt>
<trkpt lat="23.386329" lon="110.707109">
<time>2015-09-27T12:07:41Z</time></trkpt>
<trkpt lat="23.38622" lon="110.70674">
<time>2015-09-27T12:07:42Z</time></trkpt>
<trkpt lat="23.386071" lon="110.706331">
<time>2015-09-27T12:07:43Z</time></trkpt>
<trkpt lat="23.386051" lon="110.706261">
<time>2015-09-27T12:07:44Z</time></trkpt>
<trkpt lat="23.385911" lon="110.705892">
<time>2015-09-27T12:07:45Z</time></trkpt>
<trkpt lat="23.385802" lon="110.705603">
<time>2015-09-27T12:07:46Z</time></trkpt>
<trkpt lat="23.385632" lon="110.705164">
<time>2015-09-27T12:07:47Z</time></trkpt>
<trkpt lat="23.385483" lon="110.704765">
<time>2015-09-27T12:07:48Z</time></trkpt>
<trkpt lat="23.385323" lon="110.704356">
<time>2015-09-27T12:07:49Z</time></trkpt>
<trkpt lat="23.385174" lon="110.703956">
<time>2015-09-27T12:07:50Z</time></trkpt>
<trkpt lat="23.385064" lon="110.703647">
<time>2015-09-27T12:07:51Z</time></trkpt>
<trkpt lat="23.384915" lon="110.703238">
<time>2015-09-27T12:07:52Z</time></trkpt>
<trkpt lat="23.384746" lon="110.702819">
<time>2015-09-27T12:07:53Z</time></trkpt>
<trkpt lat="23.384636" lon="110.70253">
<time>2015-09-27T12:07:54Z</time></trkpt>
<trkpt lat="23.384497" lon="110.702191">
<time>2015-09-27T12:07:55Z</time></trkpt>
<trkpt lat="23.384337" lon="110.701831">
<time>2015-09-27T12:07:56Z</time></trkpt>
<trkpt lat="23.384198" lon="110.701532">
<time>2015-09-27T12:07:57Z</time></trkpt>
<trkpt lat="23.384038" lon="110.701223">
<time>2015-09-27T12:07:58Z</time></trkpt>
<trkpt lat="23.383909" lon="110.701003">
<time>2015-09-27T12:07:59Z</time></trkpt>
<trkpt lat="23.383759" lon="110.700754">
<time>2015-09-27T12:08:00Z</time></trkpt>
<trkpt lat="23.383649" lon="110.700574">
<time>2015-09-27T12:08:01Z</time></trkpt>
<trkpt lat="23.38347" lon="110.700315">
<time>2015-09-27T12:08:02Z</time></trkpt>
<trkpt lat="23.38326" lon="110.700046">
<time>2015-09-27T12:08:03Z</time></trkpt>
<trkpt lat="23.38305" lon="110.699786">
<time>2015-09-27T12:08:04Z</time></trkpt>
<trkpt lat="23.382891" lon="110.699607">
<time>2015-09-27T12:08:05Z</time></trkpt>
<trkpt lat="23.382761" lon="110.699467">
<time>2015-09-27T12:08:06Z</time></trkpt>
<trkpt lat="23.382631" lon="110.699337">
<time>2015-09-27T12:08:07Z</time></trkpt>
<trkpt lat="23.382472" lon="110.699188">
<time>2015-09-27T12:08:08Z</time></trkpt>
<trkpt lat="23.382362" lon="110.699088">
<time>2015-09-27T12:08:09Z</time></trkpt>
<trkpt lat="23.382252" lon="110.698998">
<time>2015-09-27T12:08:10Z</time></trkpt>
<trkpt lat="23.382102" lon="110.698878">
<time>2015-09-27T12:08:11Z</time></trkpt>
<trkpt lat="23.381982" lon="110.698769">
<time>2015-09-27T12:08:12Z</time></trkpt>
<trkpt lat="23.381852" lon="110.698669">
<time>2015-09-27T12:08:13Z</time></trkpt>
<trkpt lat="23.381713" lon="110.698589">
<time>2015-09-27T12:08:14Z</time></trkpt>
<trkpt lat="23.381463" lon="110.698409">
<time>2015-09-27T12:08:15Z</time></trkpt>
<trkpt lat="23.381153" lon="110.6982">
<time>2015-09-27T12:08:16Z</time></trkpt>
<trkpt lat="23.380934" lon="110.69805">
<time>2015-09-27T12:08:17Z</time></trkpt>
<trkpt lat="23.380634" lon="110.697871">
<time>2015-09-27T12:08:18Z</time></trkpt>
<trkpt lat="23.380344" lon="110.697671">
<time>2015-09-27T12:08:19Z</time></trkpt>
<trkpt lat="23.380025" lon="110.697482">
<time>2015-09-27T12:08:20Z</time></trkpt>
<trkpt lat="23.379735" lon="110.697292">
<time>2015-09-27T12:08:21Z</time></trkpt>
<trkpt lat="23.379485" lon="110.697133">
<time>2015-09-27T12:08:22Z</time></trkpt>
<trkpt lat="23.379116" lon="110.696893">
<time>2015-09-27T12:08:23Z</time></trkpt>
<trkpt lat="23.378876" lon="110.696754">
<time>2015-09-27T12:08:24Z</time></trkpt>
<trkpt lat="23.378606" lon="110.696574">
<time>2015-09-27T12:08:25Z</time></trkpt>
<trkpt lat="23.378357" lon="110.696414">
<time>2015-09-27T12:08:26Z</time></trkpt>
<trkpt lat="23.377977" lon="110.696175">
<time>2015-09-27T12:08:27Z</time></trkpt>
<trkpt lat="23.377687" lon="110.695986">
<time>2015-09-27T12:08:28Z</time></trkpt>
<trkpt lat="23.377338" lon="110.695776">
<time>2015-09-27T12:08:29Z</time></trkpt>
<trkpt lat="23.376968" lon="110.695527">
<time>2015-09-27T12:08:30Z</time></trkpt>
<trkpt lat="23.376679" lon="110.695327">
<time>2015-09-27T12:08:31Z</time></trkpt>
<trkpt lat="23.376449" lon="110.695158">
<time>2015-09-27T12:08:32Z</time></trkpt>
<trkpt lat="23.376309" lon="110.695038">
<time>2015-09-27T12:08:33Z</time></trkpt>
<trkpt lat="23.376139" lon="110.694888">
<time>2015-09-27T12:08:34Z</time></trkpt>
<trkpt lat="23.37595" lon="110.694689">
<time>2015-09-27T12:08:35Z</time></trkpt>
<trkpt lat="23.37578" lon="110.694499">
<time>2015-09-27T12:08:36Z</time></trkpt>
<trkpt lat="23.375631" lon="110.69431">
<time>2015-09-27T12:08:37Z</time></trkpt>
<trkpt lat="23.375521" lon="110.69416">
<time>2015-09-27T12:08:38Z</time></trkpt>
<trkpt lat="23.375381" lon="110.693951">
<time>2015-09-27T12:08:39Z</time></trkpt>
<trkpt lat="23.375311" lon="110.693841">
<time>2015-09-27T12:08:40Z</time></trkpt>
<trkpt lat="23.375222" lon="110.693671">
<time>2015-09-27T12:08:41Z</time></trkpt>
<trkpt lat="23.375092" lon="110.693442">
<time>2015-09-27T12:08:42Z</time></trkpt>
<trkpt lat="23.374982" lon="110.693222">
<time>2015-09-27T12:08:43Z</time></trkpt>
<trkpt lat="23.374823" lon="110.692863">
<time>2015-09-27T12:08:44Z</time></trkpt>
<trkpt lat="23.374644" lon="110.692444">
<time>2015-09-27T12:08:45Z</time></trkpt>
<trkpt lat="23.374534" lon="110.692175">
<time>2015-09-27T12:08:46Z</time></trkpt>
<trkpt lat="23.374524" lon="110.692165">
<time>2015-09-27T12:08:47Z</time></trkpt>
<trkpt lat="23.374405" lon="110.691866">
<time>2015-09-27T12:08:48Z</time></trkpt>
<trkpt lat="23.374226" lon="110.691457">
<time>2015-09-27T12:08:49Z</time></trkpt>
<trkpt lat="23.374106" lon="110.691178">
<time>2015-09-27T12:08:50Z</time></trkpt>
<trkpt lat="23.373987" lon="110.690898">
<time>2015-09-27T12:08:51Z</time></trkpt>
<trkpt lat="23.373857" lon="110.690589">
<time>2015-09-27T12:08:52Z</time></trkpt>
<trkpt lat="23.373728" lon="110.69025">
<time>2015-09-27T12:08:53Z</time></trkpt>
<trkpt lat="23.373658" lon="110.690051">
<time>2015-09-27T12:08:54Z</time></trkpt>
<trkpt lat="23.373618" lon="110.689911">
<time>2015-09-27T12:08:55Z</time></trkpt>
<trkpt lat="23.373559" lon="110.689642">
<time>2015-09-27T12:08:56Z</time></trkpt>
<trkpt lat="23.373539" lon="110.689452">
<time>2015-09-27T12:08:57Z</time></trkpt>
<trkpt lat="23.373529" lon="110.689263">
<time>2015-09-27T12:08:58Z</time></trkpt>
<trkpt lat="23.37353" lon="110.688983">
<time>2015-09-27T12:08:59Z</time></trkpt>
<trkpt lat="23.37354" lon="110.688754">
<time>2015-09-27T12:09:00Z</time></trkpt>
<trkpt lat="23.373561" lon="110.688614">
<time>2015-09-27T12:09:01Z</time></trkpt>
<trkpt lat="23.373591" lon="110.688425">
<time>2015-09-27T12:09:02Z</time></trkpt>
<trkpt lat="23.373601" lon="110.688405">
<time>2015-09-27T12:09:03Z</time></trkpt>
<trkpt lat="23.373651" lon="110.688195">
<time>2015-09-27T12:09:04Z</time></trkpt>
<trkpt lat="23.373712" lon="110.688026">
<time>2015-09-27T12:09:05Z</time></trkpt>
<trkpt lat="23.373772" lon="110.687846">
<time>2015-09-27T12:09:06Z</time></trkpt>
<trkpt lat="23.373822" lon="110.687717">
<time>2015-09-27T12:09:07Z</time></trkpt>
<trkpt lat="23.373882" lon="110.687567">
<time>2015-09-27T12:09:08Z</time></trkpt>
<trkpt lat="23.373943" lon="110.687437">
<time>2015-09-27T12:09:09Z</time></trkpt>
<trkpt lat="23.373983" lon="110.687338">
<time>2015-09-27T12:09:10Z</time></trkpt>
<trkpt lat="23.374073" lon="110.687098">
<time>2015-09-27T12:09:11Z</time></trkpt>
<trkpt lat="23.374174" lon="110.686829">
<time>2015-09-27T12:09:12Z</time></trkpt>
<trkpt lat="23.374214" lon="110.686659">
<time>2015-09-27T12:09:13Z</time></trkpt>
<trkpt lat="23.374254" lon="110.68651">
<time>2015-09-27T12:09:14Z</time></trkpt>
<trkpt lat="23.374274" lon="110.68639">
<time>2015-09-27T12:09:15Z</time></trkpt>
<trkpt lat="23.374305" lon="110.6862">
<time>2015-09-27T12:09:16Z</time></trkpt>
<trkpt lat="23.374315" lon="110.685941">
<time>2015-09-27T12:09:17Z</time></trkpt>
<trkpt lat="23.374315" lon="110.685841">
<time>2015-09-27T12:09:18Z</time></trkpt>
<trkpt lat="23.374306" lon="110.685692">
<time>2015-09-27T12:09:19Z</time></trkpt>
<trkpt lat="23.374286" lon="110.685522">
<time>2015-09-27T12:09:20Z</time></trkpt>
<trkpt lat="23.374276" lon="110.685452">
<time>2015-09-27T12:09:21Z</time></trkpt>
<trkpt lat="23.374276" lon="110.685413">
<time>2015-09-27T12:09:22Z</time></trkpt>
<trkpt lat="23.374246" lon="110.685273">
<time>2015-09-27T12:09:23Z</time></trkpt>
<trkpt lat="23.374206" lon="110.685173">
<time>2015-09-27T12:09:24Z</time></trkpt>
<trkpt lat="23.374107" lon="110.684904">
<time>2015-09-27T12:09:25Z</time></trkpt>
<trkpt lat="23.374037" lon="110.684714">
<time>2015-09-27T12:09:26Z</time></trkpt>
<trkpt lat="23.374007" lon="110.684655">
<time>2015-09-27T12:09:27Z</time></trkpt>
<trkpt lat="23.373938" lon="110.684535">
<time>2015-09-27T12:09:28Z</time></trkpt>
<trkpt lat="23.373898" lon="110.684475">
<time>2015-09-27T12:09:29Z</time></trkpt>
<trkpt lat="23.373838" lon="110.684395">
<time>2015-09-27T12:09:30Z</time></trkpt>
<trkpt lat="23.373738" lon="110.684256">
<time>2015-09-27T12:09:31Z</time></trkpt>
<trkpt lat="23.373638" lon="110.684146">
<time>2015-09-27T12:09:32Z</time></trkpt>
<trkpt lat="23.373499" lon="110.683996">
<time>2015-09-27T12:09:33Z</time></trkpt>
<trkpt lat="23.373349" lon="110.683867">
<time>2015-09-27T12:09:34Z</time></trkpt>
<trkpt lat="23.373189" lon="110.683737">
<time>2015-09-27T12:09:35Z</time></trkpt>
<trkpt lat="23.37299" lon="110.683577">
<time>2015-09-27T12:09:36Z</time></trkpt>
<trkpt lat="23.37275" lon="110.683398">
<time>2015-09-27T12:09:37Z</time></trkpt>
<trkpt lat="23.37248" lon="110.683188">
<time>2015-09-27T12:09:38Z</time></trkpt>
<trkpt lat="23.372261" lon="110.683039">
<time>2015-09-27T12:09:39Z</time></trkpt>
<trkpt lat="23.372061" lon="110.682889">
<time>2015-09-27T12:09:40Z</time></trkpt>
<trkpt lat="23.371851" lon="110.68273">
<time>2015-09-27T12:09:41Z</time></trkpt>
<trkpt lat="23.371642" lon="110.68257">
<time>2015-09-27T12:09:42Z</time></trkpt>
<trkpt lat="23.371452" lon="110.682431">
<time>2015-09-27T12:09:43Z</time></trkpt>
<trkpt lat="23.371342" lon="110.682331">
<time>2015-09-27T12:09:44Z</time></trkpt>
<trkpt lat="23.371222" lon="110.682231">
<time>2015-09-27T12:09:45Z</time></trkpt>
<trkpt lat="23.371123" lon="110.682131">
<time>2015-09-27T12:09:46Z</time></trkpt>
<trkpt lat="23.371023" lon="110.682032">
<time>2015-09-27T12:09:47Z</time></trkpt>
<trkpt lat="23.370923" lon="110.681912">
<time>2015-09-27T12:09:48Z</time></trkpt>
<trkpt lat="23.370753" lon="110.681703">
<time>2015-09-27T12:09:49Z</time></trkpt>
<trkpt lat="23.370694" lon="110.681603">
<time>2015-09-27T12:09:50Z</time></trkpt>
<trkpt lat="23.370584" lon="110.681423">
<time>2015-09-27T12:09:51Z</time></trkpt>
<trkpt lat="23.370524" lon="110.681314">
<time>2015-09-27T12:09:52Z</time></trkpt>
<trkpt lat="23.370484" lon="110.681224">
<time>2015-09-27T12:09:53Z</time></trkpt>
<trkpt lat="23.370445" lon="110.681144">
<time>2015-09-27T12:09:54Z</time></trkpt>
<trkpt lat="23.370375" lon="110.680965">
<time>2015-09-27T12:09:55Z</time></trkpt>
<trkpt lat="23.370325" lon="110.680835">
<time>2015-09-27T12:09:56Z</time></trkpt>
<trkpt lat="23.370295" lon="110.680735">
<time>2015-09-27T12:09:57Z</time></trkpt>
<trkpt lat="23.370246" lon="110.680596">
<time>2015-09-27T12:09:58Z</time></trkpt>
<trkpt lat="23.370156" lon="110.680276">
<time>2015-09-27T12:09:59Z</time></trkpt>
<trkpt lat="23.370027" lon="110.679848">
<time>2015-09-27T12:10:00Z</time></trkpt>
<trkpt lat="23.369938" lon="110.679538">
<time>2015-09-27T12:10:01Z</time></trkpt>
<trkpt lat="23.369838" lon="110.679269">
<time>2015-09-27T12:10:02Z</time></trkpt>
<trkpt lat="23.369749" lon="110.67905">
<time>2015-09-27T12:10:03Z</time></trkpt>
<trkpt lat="23.369669" lon="110.67889">
<time>2015-09-27T12:10:04Z</time></trkpt>
<trkpt lat="23.369579" lon="110.678701">
<time>2015-09-27T12:10:05Z</time></trkpt>
<trkpt lat="23.36949" lon="110.678541">
<time>2015-09-27T12:10:06Z</time></trkpt>
<trkpt lat="23.36937" lon="110.678332">
<time>2015-09-27T12:10:07Z</time></trkpt>
<trkpt lat="23.36924" lon="110.678132">
<time>2015-09-27T12:10:08Z</time></trkpt>
<trkpt lat="23.369081" lon="110.677893">
<time>2015-09-27T12:10:09Z</time></trkpt>
<trkpt lat="23.368852" lon="110.677564">
<time>2015-09-27T12:10:10Z</time></trkpt>
<trkpt lat="23.368572" lon="110.677175">
<time>2015-09-27T12:10:11Z</time></trkpt>
<trkpt lat="23.368293" lon="110.676816">
<time>2015-09-27T12:10:12Z</time></trkpt>
<trkpt lat="23.368064" lon="110.676497">
<time>2015-09-27T12:10:13Z</time></trkpt>
<trkpt lat="23.367745" lon="110.676078">
<time>2015-09-27T12:10:14Z</time></trkpt>
<trkpt lat="23.367455" lon="110.675689">
<time>2015-09-27T12:10:15Z</time></trkpt>
<trkpt lat="23.367236" lon="110.67537">
<time>2015-09-27T12:10:16Z</time></trkpt>
<trkpt lat="23.367027" lon="110.675061">
<time>2015-09-27T12:10:17Z</time></trkpt>
<trkpt lat="23.366787" lon="110.674652">
<time>2015-09-27T12:10:18Z</time></trkpt>
<trkpt lat="23.366568" lon="110.674273">
<time>2015-09-27T12:10:19Z</time></trkpt>
<trkpt lat="23.366419" lon="110.673984">
<time>2015-09-27T12:10:20Z</time></trkpt>
<trkpt lat="23.366309" lon="110.673754">
<time>2015-09-27T12:10:21Z</time></trkpt>
<trkpt lat="23.366249" lon="110.673615">
<time>2015-09-27T12:10:22Z</time></trkpt>
<trkpt lat="23.36618" lon="110.673445">
<time>2015-09-27T12:10:23Z</time></trkpt>
<trkpt lat="23.36611" lon="110.673286">
<time>2015-09-27T12:10:24Z</time></trkpt>
<trkpt lat="23.366011" lon="110.673006">
<time>2015-09-27T12:10:25Z</time></trkpt>
<trkpt lat="23.365911" lon="110.672717">
<time>2015-09-27T12:10:26Z</time></trkpt>
<trkpt lat="23.365822" lon="110.672438">
<time>2015-09-27T12:10:27Z</time></trkpt>
<trkpt lat="23.365732" lon="110.672159">
<time>2015-09-27T12:10:28Z</time></trkpt>
<trkpt lat="23.365623" lon="110.67177">
<time>2015-09-27T12:10:29Z</time></trkpt>
<trkpt lat="23.365544" lon="110.67148">
<time>2015-09-27T12:10:30Z</time></trkpt>
<trkpt lat="23.365464" lon="110.671181">
<time>2015-09-27T12:10:31Z</time></trkpt>
<trkpt lat="23.365375" lon="110.670882">
<time>2015-09-27T12:10:32Z</time></trkpt>
<trkpt lat="23.365285" lon="110.670603">
<time>2015-09-27T12:10:33Z</time></trkpt>
<trkpt lat="23.365196" lon="110.670304">
<time>2015-09-27T12:10:34Z</time></trkpt>
<trkpt lat="23.365097" lon="110.670015">
<time>2015-09-27T12:10:35Z</time></trkpt>
<trkpt lat="23.364987" lon="110.669745">
<time>2015-09-27T12:10:36Z</time></trkpt>
<trkpt lat="23.364858" lon="110.669446">
<time>2015-09-27T12:10:37Z</time></trkpt>
<trkpt lat="23.364728" lon="110.669187">
<time>2015-09-27T12:10:38Z</time></trkpt>
<trkpt lat="23.364629" lon="110.668977">
<time>2015-09-27T12:10:39Z</time></trkpt>
<trkpt lat="23.364459" lon="110.668668">
<time>2015-09-27T12:10:40Z</time></trkpt>
<trkpt lat="23.36429" lon="110.668379">
<time>2015-09-27T12:10:41Z</time></trkpt>
<trkpt lat="23.364001" lon="110.66796">
<time>2015-09-27T12:10:42Z</time></trkpt>
<trkpt lat="23.363791" lon="110.667671">
<time>2015-09-27T12:10:43Z</time></trkpt>
<trkpt lat="23.363692" lon="110.667531">
<time>2015-09-27T12:10:44Z</time></trkpt>
<trkpt lat="23.363632" lon="110.667452">
<time>2015-09-27T12:10:45Z</time></trkpt>
<trkpt lat="23.363582" lon="110.667372">
<time>2015-09-27T12:10:46Z</time></trkpt>
<trkpt lat="23.363542" lon="110.667322">
<time>2015-09-27T12:10:47Z</time></trkpt>
<trkpt lat="23.363432" lon="110.667172">
<time>2015-09-27T12:10:48Z</time></trkpt>
<trkpt lat="23.363313" lon="110.667003">
<time>2015-09-27T12:10:49Z</time></trkpt>
<trkpt lat="23.363223" lon="110.666883">
<time>2015-09-27T12:10:50Z</time></trkpt>
<trkpt lat="23.363093" lon="110.666684">
<time>2015-09-27T12:10:51Z</time></trkpt>
<trkpt lat="23.362854" lon="110.666345">
<time>2015-09-27T12:10:52Z</time></trkpt>
<trkpt lat="23.362615" lon="110.666016">
<time>2015-09-27T12:10:53Z</time></trkpt>
<trkpt lat="23.362385" lon="110.665687">
<time>2015-09-27T12:10:54Z</time></trkpt>
<trkpt lat="23.362186" lon="110.665397">
<time>2015-09-27T12:10:55Z</time></trkpt>
<trkpt lat="23.361977" lon="110.665098">
<time>2015-09-27T12:10:56Z</time></trkpt>
<trkpt lat="23.361757" lon="110.664799">
<time>2015-09-27T12:10:57Z</time></trkpt>
<trkpt lat="23.361638" lon="110.664629">
<time>2015-09-27T12:10:58Z</time></trkpt>
<trkpt lat="23.361498" lon="110.66443">
<time>2015-09-27T12:10:59Z</time></trkpt>
<trkpt lat="23.361358" lon="110.664211">
<time>2015-09-27T12:11:00Z</time></trkpt>
<trkpt lat="23.361299" lon="110.664111">
<time>2015-09-27T12:11:01Z</time></trkpt>
<trkpt lat="23.361219" lon="110.663981">
<time>2015-09-27T12:11:02Z</time></trkpt>
<trkpt lat="23.361159" lon="110.663862">
<time>2015-09-27T12:11:03Z</time></trkpt>
<trkpt lat="23.361089" lon="110.663732">
<time>2015-09-27T12:11:04Z</time></trkpt>
<trkpt lat="23.36105" lon="110.663642">
<time>2015-09-27T12:11:05Z</time></trkpt>
<trkpt lat="23.36094" lon="110.663383">
<time>2015-09-27T12:11:06Z</time></trkpt>
<trkpt lat="23.36087" lon="110.663203">
<time>2015-09-27T12:11:07Z</time></trkpt>
<trkpt lat="23.360811" lon="110.663014">
<time>2015-09-27T12:11:08Z</time></trkpt>
<trkpt lat="23.360771" lon="110.662884">
<time>2015-09-27T12:11:09Z</time></trkpt>
<trkpt lat="23.360731" lon="110.662755">
<time>2015-09-27T12:11:10Z</time></trkpt>
<trkpt lat="23.360712" lon="110.662665">
<time>2015-09-27T12:11:11Z</time></trkpt>
<trkpt lat="23.360682" lon="110.662515">
<time>2015-09-27T12:11:12Z</time></trkpt>
<trkpt lat="23.360652" lon="110.662396">
<time>2015-09-27T12:11:13Z</time></trkpt>
<trkpt lat="23.360622" lon="110.662186">
<time>2015-09-27T12:11:14Z</time></trkpt>
<trkpt lat="23.360583" lon="110.661927">
<time>2015-09-27T12:11:15Z</time></trkpt>
<trkpt lat="23.360524" lon="110.661408">
<time>2015-09-27T12:11:16Z</time></trkpt>
<trkpt lat="23.360475" lon="110.660969">
<time>2015-09-27T12:11:17Z</time></trkpt>
<trkpt lat="23.360435" lon="110.6607">
<time>2015-09-27T12:11:18Z</time></trkpt>
<trkpt lat="23.360406" lon="110.660381">
<time>2015-09-27T12:11:19Z</time></trkpt>
<trkpt lat="23.360367" lon="110.660012">
<time>2015-09-27T12:11:20Z</time></trkpt>
<trkpt lat="23.360317" lon="110.659593">
<time>2015-09-27T12:11:21Z</time></trkpt>
<trkpt lat="23.360278" lon="110.659294">
<time>2015-09-27T12:11:22Z</time></trkpt>
<trkpt lat="23.360249" lon="110.659035">
<time>2015-09-27T12:11:23Z</time></trkpt>
<trkpt lat="23.360219" lon="110.658765">
<time>2015-09-27T12:11:24Z</time></trkpt>
<trkpt lat="23.36018" lon="110.658436">
<time>2015-09-27T12:11:25Z</time></trkpt>
<trkpt lat="23.36016" lon="110.658167">
<time>2015-09-27T12:11:26Z</time></trkpt>
<trkpt lat="23.360131" lon="110.657888">
<time>2015-09-27T12:11:27Z</time></trkpt>
<trkpt lat="23.360111" lon="110.657619">
<time>2015-09-27T12:11:28Z</time></trkpt>
<trkpt lat="23.360101" lon="110.657529">
<time>2015-09-27T12:11:29Z</time></trkpt>
<trkpt lat="23.360082" lon="110.657309">
<time>2015-09-27T12:11:30Z</time></trkpt>
<trkpt lat="23.360072" lon="110.65708">
<time>2015-09-27T12:11:31Z</time></trkpt>
<trkpt lat="23.360063" lon="110.656801">
<time>2015-09-27T12:11:32Z</time></trkpt>
<trkpt lat="23.360053" lon="110.656651">
<time>2015-09-27T12:11:33Z</time></trkpt>
<trkpt lat="23.360043" lon="110.656512">
<time>2015-09-27T12:11:34Z</time></trkpt>
<trkpt lat="23.360034" lon="110.656232">
<time>2015-09-27T12:11:35Z</time></trkpt>
<trkpt lat="23.360024" lon="110.655963">
<time>2015-09-27T12:11:36Z</time></trkpt>
<trkpt lat="23.360025" lon="110.655674">
<time>2015-09-27T12:11:37Z</time></trkpt>
<trkpt lat="23.360015" lon="110.655404">
<time>2015-09-27T12:11:38Z</time></trkpt>
<trkpt lat="23.360006" lon="110.655105">
<time>2015-09-27T12:11:39Z</time></trkpt>
<trkpt lat="23.359996" lon="110.654846">
<time>2015-09-27T12:11:40Z</time></trkpt>
<trkpt lat="23.359997" lon="110.654706">
<time>2015-09-27T12:11:41Z</time></trkpt>
<trkpt lat="23.359987" lon="110.654557">
<time>2015-09-27T12:11:42Z</time></trkpt>
<trkpt lat="23.359987" lon="110.654417">
<time>2015-09-27T12:11:43Z</time></trkpt>
<trkpt lat="23.359977" lon="110.654277">
<time>2015-09-27T12:11:44Z</time></trkpt>
<trkpt lat="23.359978" lon="110.654198">
<time>2015-09-27T12:11:45Z</time></trkpt>
<trkpt lat="23.359978" lon="110.654138">
<time>2015-09-27T12:11:46Z</time></trkpt>
<trkpt lat="23.359978" lon="110.654128">
<time>2015-09-27T12:11:47Z</time></trkpt>
<trkpt lat="23.359978" lon="110.653988">
<time>2015-09-27T12:11:48Z</time></trkpt>
<trkpt lat="23.359968" lon="110.653849">
<time>2015-09-27T12:11:49Z</time></trkpt>
<trkpt lat="23.359969" lon="110.653689">
<time>2015-09-27T12:11:50Z</time></trkpt>
<trkpt lat="23.359959" lon="110.653539">
<time>2015-09-27T12:11:51Z</time></trkpt>
<trkpt lat="23.359959" lon="110.65337">
<time>2015-09-27T12:11:52Z</time></trkpt>
<trkpt lat="23.35995" lon="110.65317">
<time>2015-09-27T12:11:53Z</time></trkpt>
<trkpt lat="23.35994" lon="110.653001">
<time>2015-09-27T12:11:54Z</time></trkpt>
<trkpt lat="23.35993" lon="110.652871">
<time>2015-09-27T12:11:55Z</time></trkpt>
<trkpt lat="23.35991" lon="110.652732">
<time>2015-09-27T12:11:56Z</time></trkpt>
<trkpt lat="23.35991" lon="110.652652">
<time>2015-09-27T12:11:57Z</time></trkpt>
<trkpt lat="23.359891" lon="110.652562">
<time>2015-09-27T12:11:58Z</time></trkpt>
<trkpt lat="23.359881" lon="110.652482">
<time>2015-09-27T12:11:59Z</time></trkpt>
<trkpt lat="23.359881" lon="110.652422">
<time>2015-09-27T12:12:00Z</time></trkpt>
<trkpt lat="23.359871" lon="110.652382">
<time>2015-09-27T12:12:01Z</time></trkpt>
<trkpt lat="23.359861" lon="110.652293">
<time>2015-09-27T12:12:02Z</time></trkpt>
<trkpt lat="23.359831" lon="110.652153">
<time>2015-09-27T12:12:03Z</time></trkpt>
<trkpt lat="23.359812" lon="110.652053">
<time>2015-09-27T12:12:04Z</time></trkpt>
<trkpt lat="23.359792" lon="110.651954">
<time>2015-09-27T12:12:05Z</time></trkpt>
<trkpt lat="23.359782" lon="110.651884">
<time>2015-09-27T12:12:06Z</time></trkpt>
<trkpt lat="23.359762" lon="110.651814">
<time>2015-09-27T12:12:07Z</time></trkpt>
<trkpt lat="23.359752" lon="110.651754">
<time>2015-09-27T12:12:08Z</time></trkpt>
<trkpt lat="23.359732" lon="110.651684">
<time>2015-09-27T12:12:09Z</time></trkpt>
<trkpt lat="23.359712" lon="110.651644">
<time>2015-09-27T12:12:10Z</time></trkpt>
<trkpt lat="23.359702" lon="110.651595">
<time>2015-09-27T12:12:11Z</time></trkpt>
<trkpt lat="23.359683" lon="110.651535">
<time>2015-09-27T12:12:12Z</time></trkpt>
<trkpt lat="23.359663" lon="110.651475">
<time>2015-09-27T12:12:13Z</time></trkpt>
<trkpt lat="23.359643" lon="110.651385">
<time>2015-09-27T12:12:14Z</time></trkpt>
<trkpt lat="23.359603" lon="110.651285">
<time>2015-09-27T12:12:15Z</time></trkpt>
<trkpt lat="23.359553" lon="110.651136">
<time>2015-09-27T12:12:16Z</time></trkpt>
<trkpt lat="23.359533" lon="110.651086">
<time>2015-09-27T12:12:17Z</time></trkpt>
<trkpt lat="23.359523" lon="110.651066">
<time>2015-09-27T12:12:18Z</time></trkpt>
<trkpt lat="23.359514" lon="110.651016">
<time>2015-09-27T12:12:19Z</time></trkpt>
<trkpt lat="23.359474" lon="110.650936">
<time>2015-09-27T12:12:20Z</time></trkpt>
<trkpt lat="23.359434" lon="110.650837">
<time>2015-09-27T12:12:21Z</time></trkpt>
<trkpt lat="23.359394" lon="110.650747">
<time>2015-09-27T12:12:22Z</time></trkpt>
<trkpt lat="23.359374" lon="110.650697">
<time>2015-09-27T12:12:23Z</time></trkpt>
<trkpt lat="23.359334" lon="110.650617">
<time>2015-09-27T12:12:24Z</time></trkpt>
<trkpt lat="23.359304" lon="110.650547">
<time>2015-09-27T12:12:25Z</time></trkpt>
<trkpt lat="23.359265" lon="110.650458">
<time>2015-09-27T12:12:26Z</time></trkpt>
<trkpt lat="23.359235" lon="110.650418">
<time>2015-09-27T12:12:27Z</time></trkpt>
<trkpt lat="23.359205" lon="110.650348">
<time>2015-09-27T12:12:28Z</time></trkpt>
<trkpt lat="23.359125" lon="110.650208">
<time>2015-09-27T12:12:29Z</time></trkpt>
<trkpt lat="23.359065" lon="110.650089">
<time>2015-09-27T12:12:30Z</time></trkpt>
<trkpt lat="23.358906" lon="110.649789">
<time>2015-09-27T12:12:31Z</time></trkpt>
<trkpt lat="23.358677" lon="110.64938">
<time>2015-09-27T12:12:32Z</time></trkpt>
<trkpt lat="23.358487" lon="110.649061">
<time>2015-09-27T12:12:33Z</time></trkpt>
<trkpt lat="23.358238" lon="110.648622">
<time>2015-09-27T12:12:34Z</time></trkpt>
<trkpt lat="23.358079" lon="110.648343">
<time>2015-09-27T12:12:35Z</time></trkpt>
<trkpt lat="23.357979" lon="110.648164">
<time>2015-09-27T12:12:36Z</time></trkpt>
<trkpt lat="23.357899" lon="110.648024">
<time>2015-09-27T12:12:37Z</time></trkpt>
<trkpt lat="23.35776" lon="110.647804">
<time>2015-09-27T12:12:38Z</time></trkpt>
<trkpt lat="23.3576" lon="110.647505">
<time>2015-09-27T12:12:39Z</time></trkpt>
<trkpt lat="23.357441" lon="110.647216">
<time>2015-09-27T12:12:40Z</time></trkpt>
<trkpt lat="23.357281" lon="110.646937">
<time>2015-09-27T12:12:41Z</time></trkpt>
<trkpt lat="23.357062" lon="110.646568">
<time>2015-09-27T12:12:42Z</time></trkpt>
<trkpt lat="23.356952" lon="110.646368">
<time>2015-09-27T12:12:43Z</time></trkpt>
<trkpt lat="23.356902" lon="110.646278">
<time>2015-09-27T12:12:44Z</time></trkpt>
<trkpt lat="23.356863" lon="110.646219">
<time>2015-09-27T12:12:45Z</time></trkpt>
<trkpt lat="23.356803" lon="110.646119">
<time>2015-09-27T12:12:46Z</time></trkpt>
<trkpt lat="23.356713" lon="110.645979">
<time>2015-09-27T12:12:47Z</time></trkpt>
<trkpt lat="23.356683" lon="110.645939">
<time>2015-09-27T12:12:48Z</time></trkpt>
<trkpt lat="23.356643" lon="110.645889">
<time>2015-09-27T12:12:49Z</time></trkpt>
<trkpt lat="23.356593" lon="110.64581">
<time>2015-09-27T12:12:50Z</time></trkpt>
<trkpt lat="23.356533" lon="110.64574">
<time>2015-09-27T12:12:51Z</time></trkpt>
<trkpt lat="23.356494" lon="110.64568">
<time>2015-09-27T12:12:52Z</time></trkpt>
<trkpt lat="23.356384" lon="110.64555">
<time>2015-09-27T12:12:53Z</time></trkpt>
<trkpt lat="23.356284" lon="110.645431">
<time>2015-09-27T12:12:54Z</time></trkpt>
<trkpt lat="23.356204" lon="110.645341">
<time>2015-09-27T12:12:55Z</time></trkpt>
<trkpt lat="23.356104" lon="110.645241">
<time>2015-09-27T12:12:56Z</time></trkpt>
<trkpt lat="23.356055" lon="110.645191">
<time>2015-09-27T12:12:57Z</time></trkpt>
<trkpt lat="23.356045" lon="110.645181">
<time>2015-09-27T12:12:58Z</time></trkpt>
<trkpt lat="23.355945" lon="110.645101">
<time>2015-09-27T12:12:59Z</time></trkpt>
<trkpt lat="23.355835" lon="110.645002">
<time>2015-09-27T12:13:00Z</time></trkpt>
<trkpt lat="23.355805" lon="110.644972">
<time>2015-09-27T12:13:01Z</time></trkpt>
<trkpt lat="23.355785" lon="110.644952">
<time>2015-09-27T12:13:02Z</time></trkpt>
<trkpt lat="23.355755" lon="110.644932">
<time>2015-09-27T12:13:03Z</time></trkpt>
<trkpt lat="23.355675" lon="110.644862">
<time>2015-09-27T12:13:04Z</time></trkpt>
<trkpt lat="23.355565" lon="110.644792">
<time>2015-09-27T12:13:05Z</time></trkpt>
<trkpt lat="23.355336" lon="110.644643">
<time>2015-09-27T12:13:06Z</time></trkpt>
<trkpt lat="23.355196" lon="110.644553">
<time>2015-09-27T12:13:07Z</time></trkpt>
<trkpt lat="23.355166" lon="110.644533">
<time>2015-09-27T12:13:08Z</time></trkpt>
<trkpt lat="23.354946" lon="110.644383">
<time>2015-09-27T12:13:09Z</time></trkpt>
<trkpt lat="23.354736" lon="110.644244">
<time>2015-09-27T12:13:10Z</time></trkpt>
<trkpt lat="23.354527" lon="110.644094">
<time>2015-09-27T12:13:11Z</time></trkpt>
<trkpt lat="23.354417" lon="110.644024">
<time>2015-09-27T12:13:12Z</time></trkpt>
<trkpt lat="23.354397" lon="110.644004">
<time>2015-09-27T12:13:13Z</time></trkpt>
<trkpt lat="23.354307" lon="110.643934">
<time>2015-09-27T12:13:14Z</time></trkpt>
<trkpt lat="23.354207" lon="110.643845">
<time>2015-09-27T12:13:15Z</time></trkpt>
<trkpt lat="23.354048" lon="110.643705">
<time>2015-09-27T12:13:16Z</time></trkpt>
<trkpt lat="23.353938" lon="110.643595">
<time>2015-09-27T12:13:17Z</time></trkpt>
<trkpt lat="23.353858" lon="110.643495">
<time>2015-09-27T12:13:18Z</time></trkpt>
<trkpt lat="23.353798" lon="110.643426">
<time>2015-09-27T12:13:19Z</time></trkpt>
<trkpt lat="23.353688" lon="110.643286">
<time>2015-09-27T12:13:20Z</time></trkpt>
<trkpt lat="23.353599" lon="110.643156">
<time>2015-09-27T12:13:21Z</time></trkpt>
<trkpt lat="23.353529" lon="110.643037">
<time>2015-09-27T12:13:22Z</time></trkpt>
<trkpt lat="23.353439" lon="110.642897">
<time>2015-09-27T12:13:23Z</time></trkpt>
<trkpt lat="23.353369" lon="110.642777">
<time>2015-09-27T12:13:24Z</time></trkpt>
<trkpt lat="23.353339" lon="110.642707">
<time>2015-09-27T12:13:25Z</time></trkpt>
<trkpt lat="23.35329" lon="110.642618">
<time>2015-09-27T12:13:26Z</time></trkpt>
<trkpt lat="23.35317" lon="110.642358">
<time>2015-09-27T12:13:27Z</time></trkpt>
<trkpt lat="23.35304" lon="110.642069">
<time>2015-09-27T12:13:28Z</time></trkpt>
<trkpt lat="23.352921" lon="110.64181">
<time>2015-09-27T12:13:29Z</time></trkpt>
<trkpt lat="23.352801" lon="110.64154">
<time>2015-09-27T12:13:30Z</time></trkpt>
<trkpt lat="23.352732" lon="110.641401">
<time>2015-09-27T12:13:31Z</time></trkpt>
<trkpt lat="23.352692" lon="110.641311">
<time>2015-09-27T12:13:32Z</time></trkpt>
<trkpt lat="23.352662" lon="110.641241">
<time>2015-09-27T12:13:33Z</time></trkpt>
<trkpt lat="23.352542" lon="110.640982">
<time>2015-09-27T12:13:34Z</time></trkpt>
<trkpt lat="23.352453" lon="110.640772">
<time>2015-09-27T12:13:35Z</time></trkpt>
<trkpt lat="23.352423" lon="110.640702">
<time>2015-09-27T12:13:36Z</time></trkpt>
<trkpt lat="23.352393" lon="110.640652">
<time>2015-09-27T12:13:37Z</time></trkpt>
<trkpt lat="23.352333" lon="110.640513">
<time>2015-09-27T12:13:38Z</time></trkpt>
<trkpt lat="23.352204" lon="110.640233">
<time>2015-09-27T12:13:39Z</time></trkpt>
<trkpt lat="23.352084" lon="110.639954">
<time>2015-09-27T12:13:40Z</time></trkpt>
<trkpt lat="23.351965" lon="110.639715">
<time>2015-09-27T12:13:41Z</time></trkpt>
<trkpt lat="23.351885" lon="110.639545">
<time>2015-09-27T12:13:42Z</time></trkpt>
<trkpt lat="23.351825" lon="110.639415">
<time>2015-09-27T12:13:43Z</time></trkpt>
<trkpt lat="23.351775" lon="110.639296">
<time>2015-09-27T12:13:44Z</time></trkpt>
<trkpt lat="23.351696" lon="110.639126">
<time>2015-09-27T12:13:45Z</time></trkpt>
<trkpt lat="23.351606" lon="110.638957">
<time>2015-09-27T12:13:46Z</time></trkpt>
<trkpt lat="23.351516" lon="110.638787">
<time>2015-09-27T12:13:47Z</time></trkpt>
<trkpt lat="23.351396" lon="110.638597">
<time>2015-09-27T12:13:48Z</time></trkpt>
<trkpt lat="23.351277" lon="110.638408">
<time>2015-09-27T12:13:49Z</time></trkpt>
<trkpt lat="23.351117" lon="110.638178">
<time>2015-09-27T12:13:50Z</time></trkpt>
<trkpt lat="23.351017" lon="110.638049">
<time>2015-09-27T12:13:51Z</time></trkpt>
<trkpt lat="23.350808" lon="110.637789">
<time>2015-09-27T12:13:52Z</time></trkpt>
<trkpt lat="23.350608" lon="110.63756">
<time>2015-09-27T12:13:53Z</time></trkpt>
<trkpt lat="23.350379" lon="110.63732">
<time>2015-09-27T12:13:54Z</time></trkpt>
<trkpt lat="23.350169" lon="110.637101">
<time>2015-09-27T12:13:55Z</time></trkpt>
<trkpt lat="23.34994" lon="110.636862">
<time>2015-09-27T12:13:56Z</time></trkpt>
<trkpt lat="23.34975" lon="110.636652">
<time>2015-09-27T12:13:57Z</time></trkpt>
<trkpt lat="23.34965" lon="110.636542">
<time>2015-09-27T12:13:58Z</time></trkpt>
<trkpt lat="23.34946" lon="110.636313">
<time>2015-09-27T12:13:59Z</time></trkpt>
<trkpt lat="23.349321" lon="110.636123">
<time>2015-09-27T12:14:00Z</time></trkpt>
<trkpt lat="23.349201" lon="110.635944">
<time>2015-09-27T12:14:01Z</time></trkpt>
<trkpt lat="23.349101" lon="110.635764">
<time>2015-09-27T12:14:02Z</time></trkpt>
<trkpt lat="23.349022" lon="110.635614">
<time>2015-09-27T12:14:03Z</time></trkpt>
<trkpt lat="23.348962" lon="110.635475">
<time>2015-09-27T12:14:04Z</time></trkpt>
<trkpt lat="23.348902" lon="110.635305">
<time>2015-09-27T12:14:05Z</time></trkpt>
<trkpt lat="23.348852" lon="110.635185">
<time>2015-09-27T12:14:06Z</time></trkpt>
<trkpt lat="23.348813" lon="110.635056">
<time>2015-09-27T12:14:07Z</time></trkpt>
<trkpt lat="23.348793" lon="110.634976">
<time>2015-09-27T12:14:08Z</time></trkpt>
<trkpt lat="23.348763" lon="110.634836">
<time>2015-09-27T12:14:09Z</time></trkpt>
<trkpt lat="23.348723" lon="110.634667">
<time>2015-09-27T12:14:10Z</time></trkpt>
<trkpt lat="23.348703" lon="110.634517">
<time>2015-09-27T12:14:11Z</time></trkpt>
<trkpt lat="23.348674" lon="110.634277">
<time>2015-09-27T12:14:12Z</time></trkpt>
<trkpt lat="23.348664" lon="110.634068">
<time>2015-09-27T12:14:13Z</time></trkpt>
<trkpt lat="23.348664" lon="110.633928">
<time>2015-09-27T12:14:14Z</time></trkpt>
<trkpt lat="23.348675" lon="110.633689">
<time>2015-09-27T12:14:15Z</time></trkpt>
<trkpt lat="23.348695" lon="110.633539">
<time>2015-09-27T12:14:16Z</time></trkpt>
<trkpt lat="23.348715" lon="110.633379">
<time>2015-09-27T12:14:17Z</time></trkpt>
<trkpt lat="23.348745" lon="110.63315">
<time>2015-09-27T12:14:18Z</time></trkpt>
<trkpt lat="23.348766" lon="110.633">
<time>2015-09-27T12:14:19Z</time></trkpt>
<trkpt lat="23.348796" lon="110.632851">
<time>2015-09-27T12:14:20Z</time></trkpt>
<trkpt lat="23.348826" lon="110.632711">
<time>2015-09-27T12:14:21Z</time></trkpt>
<trkpt lat="23.348866" lon="110.632461">
<time>2015-09-27T12:14:22Z</time></trkpt>
<trkpt lat="23.348886" lon="110.632372">
<time>2015-09-27T12:14:23Z</time></trkpt>
<trkpt lat="23.348917" lon="110.632232">
<time>2015-09-27T12:14:24Z</time></trkpt>
<trkpt lat="23.348927" lon="110.632172">
<time>2015-09-27T12:14:25Z</time></trkpt>
<trkpt lat="23.348957" lon="110.631973">
<time>2015-09-27T12:14:26Z</time></trkpt>
<trkpt lat="23.348967" lon="110.631883">
<time>2015-09-27T12:14:27Z</time></trkpt>
<trkpt lat="23.348987" lon="110.631733">
<time>2015-09-27T12:14:28Z</time></trkpt>
<trkpt lat="23.349008" lon="110.631593">
<time>2015-09-27T12:14:29Z</time></trkpt>
<trkpt lat="23.349018" lon="110.631504">
<time>2015-09-27T12:14:30Z</time></trkpt>
<trkpt lat="23.349018" lon="110.631404">
<time>2015-09-27T12:14:31Z</time></trkpt>
<trkpt lat="23.349018" lon="110.631274">
<time>2015-09-27T12:14:32Z</time></trkpt>
<trkpt lat="23.349028" lon="110.631094">
<time>2015-09-27T12:14:33Z</time></trkpt>
<trkpt lat="23.349009" lon="110.630895">
<time>2015-09-27T12:14:34Z</time></trkpt>
<trkpt lat="23.348989" lon="110.630745">
<time>2015-09-27T12:14:35Z</time></trkpt>
<trkpt lat="23.348959" lon="110.630576">
<time>2015-09-27T12:14:36Z</time></trkpt>
<trkpt lat="23.348929" lon="110.630416">
<time>2015-09-27T12:14:37Z</time></trkpt>
<trkpt lat="23.348879" lon="110.630236">
<time>2015-09-27T12:14:38Z</time></trkpt>
<trkpt lat="23.34884" lon="110.630126">
<time>2015-09-27T12:14:39Z</time></trkpt>
<trkpt lat="23.34878" lon="110.629937">
<time>2015-09-27T12:14:40Z</time></trkpt>
<trkpt lat="23.34869" lon="110.629747">
<time>2015-09-27T12:14:41Z</time></trkpt>
<trkpt lat="23.34859" lon="110.629558">
<time>2015-09-27T12:14:42Z</time></trkpt>
<trkpt lat="23.348451" lon="110.629318">
<time>2015-09-27T12:14:43Z</time></trkpt>
<trkpt lat="23.348211" lon="110.628959">
<time>2015-09-27T12:14:44Z</time></trkpt>
<trkpt lat="23.348002" lon="110.62867">
<time>2015-09-27T12:14:45Z</time></trkpt>
<trkpt lat="23.347792" lon="110.62838">
<time>2015-09-27T12:14:46Z</time></trkpt>
<trkpt lat="23.347593" lon="110.628111">
<time>2015-09-27T12:14:47Z</time></trkpt>
<trkpt lat="23.347403" lon="110.627841">
<time>2015-09-27T12:14:48Z</time></trkpt>
<trkpt lat="23.347203" lon="110.627552">
<time>2015-09-27T12:14:49Z</time></trkpt>
<trkpt lat="23.346994" lon="110.627253">
<time>2015-09-27T12:14:50Z</time></trkpt>
<trkpt lat="23.346814" lon="110.627013">
<time>2015-09-27T12:14:51Z</time></trkpt>
<trkpt lat="23.346684" lon="110.626823">
<time>2015-09-27T12:14:52Z</time></trkpt>
<trkpt lat="23.346475" lon="110.626544">
<time>2015-09-27T12:14:53Z</time></trkpt>
<trkpt lat="23.346365" lon="110.626384">
<time>2015-09-27T12:14:54Z</time></trkpt>
<trkpt lat="23.346255" lon="110.626225">
<time>2015-09-27T12:14:55Z</time></trkpt>
<trkpt lat="23.346156" lon="110.626065">
<time>2015-09-27T12:14:56Z</time></trkpt>
<trkpt lat="23.346056" lon="110.625905">
<time>2015-09-27T12:14:57Z</time></trkpt>
<trkpt lat="23.345986" lon="110.625785">
<time>2015-09-27T12:14:58Z</time></trkpt>
<trkpt lat="23.345936" lon="110.625686">
<time>2015-09-27T12:14:59Z</time></trkpt>
<trkpt lat="23.345876" lon="110.625556">
<time>2015-09-27T12:15:00Z</time></trkpt>
<trkpt lat="23.345836" lon="110.625476">
<time>2015-09-27T12:15:01Z</time></trkpt>
<trkpt lat="23.345806" lon="110.625386">
<time>2015-09-27T12:15:02Z</time></trkpt>
<trkpt lat="23.345757" lon="110.625237">
<time>2015-09-27T12:15:03Z</time></trkpt>
<trkpt lat="23.345717" lon="110.625097">
<time>2015-09-27T12:15:04Z</time></trkpt>
<trkpt lat="23.345697" lon="110.624997">
<time>2015-09-27T12:15:05Z</time></trkpt>
<trkpt lat="23.345677" lon="110.624897">
<time>2015-09-27T12:15:06Z</time></trkpt>
<trkpt lat="23.345657" lon="110.624767">
<time>2015-09-27T12:15:07Z</time></trkpt>
<trkpt lat="23.345647" lon="110.624628">
<time>2015-09-27T12:15:08Z</time></trkpt>
<trkpt lat="23.345648" lon="110.624488">
<time>2015-09-27T12:15:09Z</time></trkpt>
<trkpt lat="23.345648" lon="110.624348">
<time>2015-09-27T12:15:10Z</time></trkpt>
<trkpt lat="23.345658" lon="110.624179">
<time>2015-09-27T12:15:11Z</time></trkpt>
<trkpt lat="23.345678" lon="110.624009">
<time>2015-09-27T12:15:12Z</time></trkpt>
<trkpt lat="23.345708" lon="110.623799">
<time>2015-09-27T12:15:13Z</time></trkpt>
<trkpt lat="23.345759" lon="110.62348">
<time>2015-09-27T12:15:14Z</time></trkpt>
<trkpt lat="23.345839" lon="110.623111">
<time>2015-09-27T12:15:15Z</time></trkpt>
<trkpt lat="23.345889" lon="110.622841">
<time>2015-09-27T12:15:16Z</time></trkpt>
<trkpt lat="23.34592" lon="110.622612">
<time>2015-09-27T12:15:17Z</time></trkpt>
<trkpt lat="23.34595" lon="110.622362">
<time>2015-09-27T12:15:18Z</time></trkpt>
<trkpt lat="23.34597" lon="110.622142">
<time>2015-09-27T12:15:19Z</time></trkpt>
<trkpt lat="23.34598" lon="110.621953">
<time>2015-09-27T12:15:20Z</time></trkpt>
<trkpt lat="23.345981" lon="110.621633">
<time>2015-09-27T12:15:21Z</time></trkpt>
<trkpt lat="23.345971" lon="110.621394">
<time>2015-09-27T12:15:22Z</time></trkpt>
<trkpt lat="23.345941" lon="110.621084">
<time>2015-09-27T12:15:23Z</time></trkpt>
<trkpt lat="23.345902" lon="110.620765">
<time>2015-09-27T12:15:24Z</time></trkpt>
<trkpt lat="23.345416" lon="110.617221">
<time>2015-09-27T12:15:25Z</time></trkpt>
<trkpt lat="23.345366" lon="110.616742">
<time>2015-09-27T12:15:26Z</time></trkpt>
<trkpt lat="23.345307" lon="110.616103">
<time>2015-09-27T12:15:27Z</time></trkpt>
<trkpt lat="23.345247" lon="110.615484">
<time>2015-09-27T12:15:28Z</time></trkpt>
<trkpt lat="23.345238" lon="110.615094">
<time>2015-09-27T12:15:29Z</time></trkpt>
<trkpt lat="23.345228" lon="110.614795">
<time>2015-09-27T12:15:30Z</time></trkpt>
<trkpt lat="23.345239" lon="110.613717">
<time>2015-09-27T12:15:31Z</time></trkpt>
<trkpt lat="23.345269" lon="110.613157">
<time>2015-09-27T12:15:32Z</time></trkpt>
<trkpt lat="23.345299" lon="110.612788">
<time>2015-09-27T12:15:33Z</time></trkpt>
<trkpt lat="23.34533" lon="110.612438">
<time>2015-09-27T12:15:34Z</time></trkpt>
<trkpt lat="23.34536" lon="110.612119">
<time>2015-09-27T12:15:35Z</time></trkpt>
<trkpt lat="23.34544" lon="110.61159">
<time>2015-09-27T12:15:36Z</time></trkpt>
<trkpt lat="23.345551" lon="110.610921">
<time>2015-09-27T12:15:37Z</time></trkpt>
<trkpt lat="23.345641" lon="110.610421">
<time>2015-09-27T12:15:38Z</time></trkpt>
<trkpt lat="23.345772" lon="110.609772">
<time>2015-09-27T12:15:39Z</time></trkpt>
<trkpt lat="23.345942" lon="110.608953">
<time>2015-09-27T12:15:40Z</time></trkpt>
<trkpt lat="23.346103" lon="110.608244">
<time>2015-09-27T12:15:41Z</time></trkpt>
<trkpt lat="23.346463" lon="110.606556">
<time>2015-09-27T12:15:42Z</time></trkpt>
<trkpt lat="23.346534" lon="110.606197">
<time>2015-09-27T12:15:43Z</time></trkpt>
<trkpt lat="23.346554" lon="110.606047">
<time>2015-09-27T12:15:44Z</time></trkpt>
<trkpt lat="23.346574" lon="110.605907">
<time>2015-09-27T12:15:45Z</time></trkpt>
<trkpt lat="23.346584" lon="110.605757">
<time>2015-09-27T12:15:46Z</time></trkpt>
<trkpt lat="23.346594" lon="110.605637">
<time>2015-09-27T12:15:47Z</time></trkpt>
<trkpt lat="23.346594" lon="110.605477">
<time>2015-09-27T12:15:48Z</time></trkpt>
<trkpt lat="23.346594" lon="110.605328">
<time>2015-09-27T12:15:49Z</time></trkpt>
<trkpt lat="23.346584" lon="110.605188">
<time>2015-09-27T12:15:50Z</time></trkpt>
<trkpt lat="23.346564" lon="110.605058">
<time>2015-09-27T12:15:51Z</time></trkpt>
<trkpt lat="23.346554" lon="110.604948">
<time>2015-09-27T12:15:52Z</time></trkpt>
<trkpt lat="23.346524" lon="110.604808">
<time>2015-09-27T12:15:53Z</time></trkpt>
<trkpt lat="23.346484" lon="110.604648">
<time>2015-09-27T12:15:54Z</time></trkpt>
<trkpt lat="23.346445" lon="110.604488">
<time>2015-09-27T12:15:55Z</time></trkpt>
<trkpt lat="23.346385" lon="110.604329">
<time>2015-09-27T12:15:56Z</time></trkpt>
<trkpt lat="23.346345" lon="110.604219">
<time>2015-09-27T12:15:57Z</time></trkpt>
<trkpt lat="23.346295" lon="110.604109">
<time>2015-09-27T12:15:58Z</time></trkpt>
<trkpt lat="23.346225" lon="110.603969">
<time>2015-09-27T12:15:59Z</time></trkpt>
<trkpt lat="23.346095" lon="110.603739">
<time>2015-09-27T12:16:00Z</time></trkpt>
<trkpt lat="23.345945" lon="110.60349">
<time>2015-09-27T12:16:01Z</time></trkpt>
<trkpt lat="23.345366" lon="110.60262">
<time>2015-09-27T12:16:02Z</time></trkpt>
<trkpt lat="23.345176" lon="110.602361">
<time>2015-09-27T12:16:03Z</time></trkpt>
<trkpt lat="23.345046" lon="110.602161">
<time>2015-09-27T12:16:04Z</time></trkpt>
<trkpt lat="23.345046" lon="110.602161">
<time>2015-09-27T12:16:05Z</time></trkpt>
<trkpt lat="23.344817" lon="110.597865">
<time>2015-09-27T12:16:06Z</time></trkpt>
<trkpt lat="23.344717" lon="110.596396">
<time>2015-09-27T12:16:07Z</time></trkpt>
<trkpt lat="23.344837" lon="110.595976">
<time>2015-09-27T12:16:08Z</time></trkpt>
<trkpt lat="23.345187" lon="110.594847">
<time>2015-09-27T12:16:09Z</time></trkpt>
<trkpt lat="23.345677" lon="110.593967">
<time>2015-09-27T12:16:10Z</time></trkpt>
<trkpt lat="23.345817" lon="110.593548">
<time>2015-09-27T12:16:11Z</time></trkpt>
<trkpt lat="23.346337" lon="110.592818">
<time>2015-09-27T12:16:12Z</time></trkpt>
<trkpt lat="23.347307" lon="110.590369">
<time>2015-09-27T12:16:13Z</time></trkpt>
<trkpt lat="23.347657" lon="110.590399">
<time>2015-09-27T12:16:14Z</time></trkpt>
<trkpt lat="23.348446" lon="110.590049">
<time>2015-09-27T12:16:15Z</time></trkpt>
<trkpt lat="23.349106" lon="110.58702">
<time>2015-09-27T12:16:16Z</time></trkpt>
<trkpt lat="23.349106" lon="110.58702">
<time>2015-09-27T12:16:17Z</time></trkpt>
<trkpt lat="23.349086" lon="110.58701">
<time>2015-09-27T12:16:18Z</time></trkpt>
<trkpt lat="23.348866" lon="110.58675">
<time>2015-09-27T12:16:19Z</time></trkpt>
<trkpt lat="23.348575" lon="110.585841">
<time>2015-09-27T12:16:20Z</time></trkpt>
<trkpt lat="23.348165" lon="110.585381">
<time>2015-09-27T12:16:21Z</time></trkpt>
<trkpt lat="23.347845" lon="110.584631">
<time>2015-09-27T12:16:22Z</time></trkpt>
<trkpt lat="23.347855" lon="110.583901">
<time>2015-09-27T12:16:23Z</time></trkpt>
<trkpt lat="23.347384" lon="110.582521">
<time>2015-09-27T12:16:24Z</time></trkpt>
<trkpt lat="23.347244" lon="110.582451">
<time>2015-09-27T12:16:25Z</time></trkpt>
<trkpt lat="23.346884" lon="110.582511">
<time>2015-09-27T12:16:26Z</time></trkpt>
<trkpt lat="23.346884" lon="110.582511">
<time>2015-09-27T12:16:27Z</time></trkpt>
<trkpt lat="23.346694" lon="110.581741">
<time>2015-09-27T12:16:28Z</time></trkpt>
<trkpt lat="23.346243" lon="110.579881">
<time>2015-09-27T12:16:29Z</time></trkpt>
<trkpt lat="23.346163" lon="110.579541">
<time>2015-09-27T12:16:30Z</time></trkpt>
<trkpt lat="23.346053" lon="110.579091">
<time>2015-09-27T12:16:31Z</time></trkpt>
<trkpt lat="23.345942" lon="110.578671">
<time>2015-09-27T12:16:32Z</time></trkpt>
<trkpt lat="23.345822" lon="110.578301">
<time>2015-09-27T12:16:33Z</time></trkpt>
<trkpt lat="23.345772" lon="110.578181">
<time>2015-09-27T12:16:34Z</time></trkpt>
<trkpt lat="23.345642" lon="110.577841">
<time>2015-09-27T12:16:35Z</time></trkpt>
<trkpt lat="23.345522" lon="110.577601">
<time>2015-09-27T12:16:36Z</time></trkpt>
<trkpt lat="23.345372" lon="110.577321">
<time>2015-09-27T12:16:37Z</time></trkpt>
<trkpt lat="23.345282" lon="110.577181">
<time>2015-09-27T12:16:38Z</time></trkpt>
<trkpt lat="23.345151" lon="110.57698">
<time>2015-09-27T12:16:39Z</time></trkpt>
<trkpt lat="23.344971" lon="110.57676">
<time>2015-09-27T12:16:40Z</time></trkpt>
<trkpt lat="23.344721" lon="110.57647">
<time>2015-09-27T12:16:41Z</time></trkpt>
<trkpt lat="23.344521" lon="110.57627">
<time>2015-09-27T12:16:42Z</time></trkpt>
<trkpt lat="23.344121" lon="110.57588">
<time>2015-09-27T12:16:43Z</time></trkpt>
<trkpt lat="23.343801" lon="110.5756">
<time>2015-09-27T12:16:44Z</time></trkpt>
<trkpt lat="23.3428" lon="110.57475">
<time>2015-09-27T12:16:45Z</time></trkpt>
<trkpt lat="23.34187" lon="110.57395">
<time>2015-09-27T12:16:46Z</time></trkpt>
<trkpt lat="23.34159" lon="110.57369">
<time>2015-09-27T12:16:47Z</time></trkpt>
<trkpt lat="23.341449" lon="110.57355">
<time>2015-09-27T12:16:48Z</time></trkpt>
<trkpt lat="23.341279" lon="110.573339">
<time>2015-09-27T12:16:49Z</time></trkpt>
<trkpt lat="23.341169" lon="110.573179">
<time>2015-09-27T12:16:50Z</time></trkpt>
<trkpt lat="23.341059" lon="110.573019">
<time>2015-09-27T12:16:51Z</time></trkpt>
<trkpt lat="23.340979" lon="110.572869">
<time>2015-09-27T12:16:52Z</time></trkpt>
<trkpt lat="23.340889" lon="110.572699">
<time>2015-09-27T12:16:53Z</time></trkpt>
<trkpt lat="23.340819" lon="110.572529">
<time>2015-09-27T12:16:54Z</time></trkpt>
<trkpt lat="23.340749" lon="110.572329">
<time>2015-09-27T12:16:55Z</time></trkpt>
<trkpt lat="23.340698" lon="110.572159">
<time>2015-09-27T12:16:56Z</time></trkpt>
<trkpt lat="23.340658" lon="110.571959">
<time>2015-09-27T12:16:57Z</time></trkpt>
<trkpt lat="23.340628" lon="110.571789">
<time>2015-09-27T12:16:58Z</time></trkpt>
<trkpt lat="23.340608" lon="110.571609">
<time>2015-09-27T12:16:59Z</time></trkpt>
<trkpt lat="23.340588" lon="110.571349">
<time>2015-09-27T12:17:00Z</time></trkpt>
<trkpt lat="23.340597" lon="110.571098">
<time>2015-09-27T12:17:01Z</time></trkpt>
<trkpt lat="23.340617" lon="110.570598">
<time>2015-09-27T12:17:02Z</time></trkpt>
<trkpt lat="23.340686" lon="110.569548">
<time>2015-09-27T12:17:03Z</time></trkpt>
<trkpt lat="23.340744" lon="110.568437">
<time>2015-09-27T12:17:04Z</time></trkpt>
<trkpt lat="23.340803" lon="110.567576">
<time>2015-09-27T12:17:05Z</time></trkpt>
<trkpt lat="23.340833" lon="110.567096">
<time>2015-09-27T12:17:06Z</time></trkpt>
<trkpt lat="23.340842" lon="110.566435">
<time>2015-09-27T12:17:07Z</time></trkpt>
<trkpt lat="23.340782" lon="110.565935">
<time>2015-09-27T12:17:08Z</time></trkpt>
<trkpt lat="23.340701" lon="110.565475">
<time>2015-09-27T12:17:09Z</time></trkpt>
<trkpt lat="23.34045" lon="110.564844">
<time>2015-09-27T12:17:10Z</time></trkpt>
<trkpt lat="23.339779" lon="110.563653">
<time>2015-09-27T12:17:11Z</time></trkpt>
<trkpt lat="23.338616" lon="110.561711">
<time>2015-09-27T12:17:12Z</time></trkpt>
<trkpt lat="23.337494" lon="110.559689">
<time>2015-09-27T12:17:13Z</time></trkpt>
<trkpt lat="23.336702" lon="110.558138">
<time>2015-09-27T12:17:14Z</time></trkpt>
<trkpt lat="23.335608" lon="110.555985">
<time>2015-09-27T12:17:15Z</time></trkpt>
<trkpt lat="23.335448" lon="110.555675">
<time>2015-09-27T12:17:16Z</time></trkpt>
<trkpt lat="23.335448" lon="110.555675">
<time>2015-09-27T12:17:17Z</time></trkpt>
<trkpt lat="23.335428" lon="110.555655">
<time>2015-09-27T12:17:18Z</time></trkpt>
<trkpt lat="23.335398" lon="110.555585">
<time>2015-09-27T12:17:19Z</time></trkpt>
<trkpt lat="23.335358" lon="110.555524">
<time>2015-09-27T12:17:20Z</time></trkpt>
<trkpt lat="23.335358" lon="110.555494">
<time>2015-09-27T12:17:21Z</time></trkpt>
<trkpt lat="23.334545" lon="110.553842">
<time>2015-09-27T12:17:22Z</time></trkpt>
<trkpt lat="23.333983" lon="110.552811">
<time>2015-09-27T12:17:23Z</time></trkpt>
<trkpt lat="23.333342" lon="110.55185">
<time>2015-09-27T12:17:24Z</time></trkpt>
<trkpt lat="23.333242" lon="110.551699">
<time>2015-09-27T12:17:25Z</time></trkpt>
<trkpt lat="23.333071" lon="110.551469">
<time>2015-09-27T12:17:26Z</time></trkpt>
<trkpt lat="23.33272" lon="110.551018">
<time>2015-09-27T12:17:27Z</time></trkpt>
<trkpt lat="23.33247" lon="110.550688">
<time>2015-09-27T12:17:28Z</time></trkpt>
<trkpt lat="23.332019" lon="110.550077">
<time>2015-09-27T12:17:29Z</time></trkpt>
<trkpt lat="23.331798" lon="110.549777">
<time>2015-09-27T12:17:30Z</time></trkpt>
<trkpt lat="23.331528" lon="110.549376">
<time>2015-09-27T12:17:31Z</time></trkpt>
<trkpt lat="23.331297" lon="110.548975">
<time>2015-09-27T12:17:32Z</time></trkpt>
<trkpt lat="23.331177" lon="110.548795">
<time>2015-09-27T12:17:33Z</time></trkpt>
<trkpt lat="23.331076" lon="110.548605">
<time>2015-09-27T12:17:34Z</time></trkpt>
<trkpt lat="23.330876" lon="110.548264">
<time>2015-09-27T12:17:35Z</time></trkpt>
<trkpt lat="23.330414" lon="110.547203">
<time>2015-09-27T12:17:36Z</time></trkpt>
<trkpt lat="23.330172" lon="110.546531">
<time>2015-09-27T12:17:37Z</time></trkpt>
<trkpt lat="23.329921" lon="110.54573">
<time>2015-09-27T12:17:38Z</time></trkpt>
<trkpt lat="23.329548" lon="110.544488">
<time>2015-09-27T12:17:39Z</time></trkpt>
<trkpt lat="23.329367" lon="110.543817">
<time>2015-09-27T12:17:40Z</time></trkpt>
<trkpt lat="23.329307" lon="110.543606">
<time>2015-09-27T12:17:41Z</time></trkpt>
<trkpt lat="23.328763" lon="110.541813">
<time>2015-09-27T12:17:42Z</time></trkpt>
<trkpt lat="23.328441" lon="110.540751">
<time>2015-09-27T12:17:43Z</time></trkpt>
<trkpt lat="23.328289" lon="110.54021">
<time>2015-09-27T12:17:44Z</time></trkpt>
<trkpt lat="23.328229" lon="110.53986">
<time>2015-09-27T12:17:45Z</time></trkpt>
<trkpt lat="23.328188" lon="110.539549">
<time>2015-09-27T12:17:46Z</time></trkpt>
<trkpt lat="23.328197" lon="110.538938">
<time>2015-09-27T12:17:47Z</time></trkpt>
<trkpt lat="23.328226" lon="110.538707">
<time>2015-09-27T12:17:48Z</time></trkpt>
<trkpt lat="23.328275" lon="110.538407">
<time>2015-09-27T12:17:49Z</time></trkpt>
<trkpt lat="23.328335" lon="110.538246">
<time>2015-09-27T12:17:50Z</time></trkpt>
<trkpt lat="23.328385" lon="110.538086">
<time>2015-09-27T12:17:51Z</time></trkpt>
<trkpt lat="23.328444" lon="110.537946">
<time>2015-09-27T12:17:52Z</time></trkpt>
<trkpt lat="23.328514" lon="110.537786">
<time>2015-09-27T12:17:53Z</time></trkpt>
<trkpt lat="23.328604" lon="110.537625">
<time>2015-09-27T12:17:54Z</time></trkpt>
<trkpt lat="23.328733" lon="110.537435">
<time>2015-09-27T12:17:55Z</time></trkpt>
<trkpt lat="23.328843" lon="110.537264">
<time>2015-09-27T12:17:56Z</time></trkpt>
<trkpt lat="23.329002" lon="110.537054">
<time>2015-09-27T12:17:57Z</time></trkpt>
<trkpt lat="23.329192" lon="110.536864">
<time>2015-09-27T12:17:58Z</time></trkpt>
<trkpt lat="23.32966" lon="110.536393">
<time>2015-09-27T12:17:59Z</time></trkpt>
<trkpt lat="23.330049" lon="110.536022">
<time>2015-09-27T12:18:00Z</time></trkpt>
<trkpt lat="23.330508" lon="110.535501">
<time>2015-09-27T12:18:01Z</time></trkpt>
<trkpt lat="23.330837" lon="110.53498">
<time>2015-09-27T12:18:02Z</time></trkpt>
<trkpt lat="23.331125" lon="110.534398">
<time>2015-09-27T12:18:03Z</time></trkpt>
<trkpt lat="23.331264" lon="110.534058">
<time>2015-09-27T12:18:04Z</time></trkpt>
<trkpt lat="23.331384" lon="110.533757">
<time>2015-09-27T12:18:05Z</time></trkpt>
<trkpt lat="23.331493" lon="110.533466">
<time>2015-09-27T12:18:06Z</time></trkpt>
<trkpt lat="23.331572" lon="110.533276">
<time>2015-09-27T12:18:07Z</time></trkpt>
<trkpt lat="23.331781" lon="110.532745">
<time>2015-09-27T12:18:08Z</time></trkpt>
<trkpt lat="23.33189" lon="110.532504">
<time>2015-09-27T12:18:09Z</time></trkpt>
<trkpt lat="23.33203" lon="110.532194">
<time>2015-09-27T12:18:10Z</time></trkpt>
<trkpt lat="23.332089" lon="110.532043">
<time>2015-09-27T12:18:11Z</time></trkpt>
<trkpt lat="23.332218" lon="110.531723">
<time>2015-09-27T12:18:12Z</time></trkpt>
<trkpt lat="23.332367" lon="110.531332">
<time>2015-09-27T12:18:13Z</time></trkpt>
<trkpt lat="23.332517" lon="110.530981">
<time>2015-09-27T12:18:14Z</time></trkpt>
<trkpt lat="23.332676" lon="110.5306">
<time>2015-09-27T12:18:15Z</time></trkpt>
<trkpt lat="23.332825" lon="110.530229">
<time>2015-09-27T12:18:16Z</time></trkpt>
<trkpt lat="23.333153" lon="110.529558">
<time>2015-09-27T12:18:17Z</time></trkpt>
<trkpt lat="23.333272" lon="110.529217">
<time>2015-09-27T12:18:18Z</time></trkpt>
<trkpt lat="23.333351" lon="110.529036">
<time>2015-09-27T12:18:19Z</time></trkpt>
<trkpt lat="23.33359" lon="110.528435">
<time>2015-09-27T12:18:20Z</time></trkpt>
<trkpt lat="23.334286" lon="110.526922">
<time>2015-09-27T12:18:21Z</time></trkpt>
<trkpt lat="23.334674" lon="110.52624">
<time>2015-09-27T12:18:22Z</time></trkpt>
<trkpt lat="23.334943" lon="110.525869">
<time>2015-09-27T12:18:23Z</time></trkpt>
<trkpt lat="23.335491" lon="110.525117">
<time>2015-09-27T12:18:24Z</time></trkpt>
<trkpt lat="23.336707" lon="110.523794">
<time>2015-09-27T12:18:25Z</time></trkpt>
<trkpt lat="23.337225" lon="110.523293">
<time>2015-09-27T12:18:26Z</time></trkpt>
<trkpt lat="23.338681" lon="110.521889">
<time>2015-09-27T12:18:27Z</time></trkpt>
<trkpt lat="23.33913" lon="110.521458">
<time>2015-09-27T12:18:28Z</time></trkpt>
<trkpt lat="23.339878" lon="110.520746">
<time>2015-09-27T12:18:29Z</time></trkpt>
<trkpt lat="23.340267" lon="110.520365">
<time>2015-09-27T12:18:30Z</time></trkpt>
<trkpt lat="23.340666" lon="110.519974">
<time>2015-09-27T12:18:31Z</time></trkpt>
<trkpt lat="23.342231" lon="110.51846">
<time>2015-09-27T12:18:32Z</time></trkpt>
<trkpt lat="23.34269" lon="110.518049">
<time>2015-09-27T12:18:33Z</time></trkpt>
<trkpt lat="23.342899" lon="110.517859">
<time>2015-09-27T12:18:34Z</time></trkpt>
<trkpt lat="23.343448" lon="110.517377">
<time>2015-09-27T12:18:35Z</time></trkpt>
<trkpt lat="23.344166" lon="110.516826">
<time>2015-09-27T12:18:36Z</time></trkpt>
<trkpt lat="23.345613" lon="110.515813">
<time>2015-09-27T12:18:37Z</time></trkpt>
<trkpt lat="23.346411" lon="110.515292">
<time>2015-09-27T12:18:38Z</time></trkpt>
<trkpt lat="23.34687" lon="110.514941">
<time>2015-09-27T12:18:39Z</time></trkpt>
<trkpt lat="23.347109" lon="110.51472">
<time>2015-09-27T12:18:40Z</time></trkpt>
<trkpt lat="23.347887" lon="110.513958">
<time>2015-09-27T12:18:41Z</time></trkpt>
<trkpt lat="23.348644" lon="110.513066">
<time>2015-09-27T12:18:42Z</time></trkpt>
<trkpt lat="23.349102" lon="110.512494">
<time>2015-09-27T12:18:43Z</time></trkpt>
<trkpt lat="23.350497" lon="110.51079">
<time>2015-09-27T12:18:44Z</time></trkpt>
<trkpt lat="23.351941" lon="110.508914">
<time>2015-09-27T12:18:45Z</time></trkpt>
<trkpt lat="23.35217" lon="110.508604">
<time>2015-09-27T12:18:46Z</time></trkpt>
<trkpt lat="23.353276" lon="110.50716">
<time>2015-09-27T12:18:47Z</time></trkpt>
<trkpt lat="23.354899" lon="110.505044">
<time>2015-09-27T12:18:48Z</time></trkpt>
<trkpt lat="23.356483" lon="110.503028">
<time>2015-09-27T12:18:49Z</time></trkpt>
<trkpt lat="23.357748" lon="110.501423">
<time>2015-09-27T12:18:50Z</time></trkpt>
<trkpt lat="23.357957" lon="110.501193">
<time>2015-09-27T12:18:51Z</time></trkpt>
<trkpt lat="23.358186" lon="110.500952">
<time>2015-09-27T12:18:52Z</time></trkpt>
<trkpt lat="23.358296" lon="110.500852">
<time>2015-09-27T12:18:53Z</time></trkpt>
<trkpt lat="23.358386" lon="110.500782">
<time>2015-09-27T12:18:54Z</time></trkpt>
<trkpt lat="23.358915" lon="110.50038">
<time>2015-09-27T12:18:55Z</time></trkpt>
<trkpt lat="23.359164" lon="110.50022">
<time>2015-09-27T12:18:56Z</time></trkpt>
<trkpt lat="23.359543" lon="110.500009">
<time>2015-09-27T12:18:57Z</time></trkpt>
<trkpt lat="23.359683" lon="110.499949">
<time>2015-09-27T12:18:58Z</time></trkpt>
<trkpt lat="23.359953" lon="110.499849">
<time>2015-09-27T12:18:59Z</time></trkpt>
<trkpt lat="23.360252" lon="110.499769">
<time>2015-09-27T12:19:00Z</time></trkpt>
<trkpt lat="23.360572" lon="110.499688">
<time>2015-09-27T12:19:01Z</time></trkpt>
<trkpt lat="23.360862" lon="110.499658">
<time>2015-09-27T12:19:02Z</time></trkpt>
<trkpt lat="23.361102" lon="110.499618">
<time>2015-09-27T12:19:03Z</time></trkpt>
<trkpt lat="23.362232" lon="110.499688">
<time>2015-09-27T12:19:04Z</time></trkpt>
<trkpt lat="23.363972" lon="110.499909">
<time>2015-09-27T12:19:05Z</time></trkpt>
<trkpt lat="23.364122" lon="110.499919">
<time>2015-09-27T12:19:06Z</time></trkpt>
<trkpt lat="23.364652" lon="110.499989">
<time>2015-09-27T12:19:07Z</time></trkpt>
<trkpt lat="23.365002" lon="110.500019">
<time>2015-09-27T12:19:08Z</time></trkpt>
<trkpt lat="23.366082" lon="110.500119">
<time>2015-09-27T12:19:09Z</time></trkpt>
<trkpt lat="23.366762" lon="110.500089">
<time>2015-09-27T12:19:10Z</time></trkpt>
<trkpt lat="23.367552" lon="110.500099">
<time>2015-09-27T12:19:11Z</time></trkpt>
<trkpt lat="23.368252" lon="110.500069">
<time>2015-09-27T12:19:12Z</time></trkpt>
<trkpt lat="23.368991" lon="110.500019">
<time>2015-09-27T12:19:13Z</time></trkpt>
<trkpt lat="23.369001" lon="110.500019">
<time>2015-09-27T12:19:14Z</time></trkpt>
<trkpt lat="23.369201" lon="110.499999">
<time>2015-09-27T12:19:15Z</time></trkpt>
<trkpt lat="23.369341" lon="110.499989">
<time>2015-09-27T12:19:16Z</time></trkpt>
<trkpt lat="23.369971" lon="110.499919">
<time>2015-09-27T12:19:17Z</time></trkpt>
<trkpt lat="23.370461" lon="110.499848">
<time>2015-09-27T12:19:18Z</time></trkpt>
<trkpt lat="23.37071" lon="110.499808">
<time>2015-09-27T12:19:19Z</time></trkpt>
<trkpt lat="23.37169" lon="110.499608">
<time>2015-09-27T12:19:20Z</time></trkpt>
<trkpt lat="23.372629" lon="110.499347">
<time>2015-09-27T12:19:21Z</time></trkpt>
<trkpt lat="23.373708" lon="110.499026">
<time>2015-09-27T12:19:22Z</time></trkpt>
<trkpt lat="23.374716" lon="110.498655">
<time>2015-09-27T12:19:23Z</time></trkpt>
<trkpt lat="23.375825" lon="110.498183">
<time>2015-09-27T12:19:24Z</time></trkpt>
<trkpt lat="23.375954" lon="110.498113">
<time>2015-09-27T12:19:25Z</time></trkpt>
<trkpt lat="23.376703" lon="110.497742">
<time>2015-09-27T12:19:26Z</time></trkpt>
<trkpt lat="23.376793" lon="110.497692">
<time>2015-09-27T12:19:27Z</time></trkpt>
<trkpt lat="23.376993" lon="110.497612">
<time>2015-09-27T12:19:28Z</time></trkpt>
<trkpt lat="23.377771" lon="110.49715">
<time>2015-09-27T12:19:29Z</time></trkpt>
<trkpt lat="23.37843" lon="110.496739">
<time>2015-09-27T12:19:30Z</time></trkpt>
<trkpt lat="23.379418" lon="110.496067">
<time>2015-09-27T12:19:31Z</time></trkpt>
<trkpt lat="23.380365" lon="110.495335">
<time>2015-09-27T12:19:32Z</time></trkpt>
<trkpt lat="23.382729" lon="110.493359">
<time>2015-09-27T12:19:33Z</time></trkpt>
<trkpt lat="23.384793" lon="110.491634">
<time>2015-09-27T12:19:34Z</time></trkpt>
<trkpt lat="23.386289" lon="110.490351">
<time>2015-09-27T12:19:35Z</time></trkpt>
<trkpt lat="23.387187" lon="110.489558">
<time>2015-09-27T12:19:36Z</time></trkpt>
<trkpt lat="23.388143" lon="110.488576">
<time>2015-09-27T12:19:37Z</time></trkpt>
<trkpt lat="23.38901" lon="110.487623">
<time>2015-09-27T12:19:38Z</time></trkpt>
<trkpt lat="23.389798" lon="110.48668">
<time>2015-09-27T12:19:39Z</time></trkpt>
<trkpt lat="23.391012" lon="110.485025">
<time>2015-09-27T12:19:40Z</time></trkpt>
<trkpt lat="23.391898" lon="110.483621">
<time>2015-09-27T12:19:41Z</time></trkpt>
<trkpt lat="23.392067" lon="110.483321">
<time>2015-09-27T12:19:42Z</time></trkpt>
<trkpt lat="23.39336" lon="110.480994">
<time>2015-09-27T12:19:43Z</time></trkpt>
<trkpt lat="23.394702" lon="110.478287">
<time>2015-09-27T12:19:44Z</time></trkpt>
<trkpt lat="23.395408" lon="110.476873">
<time>2015-09-27T12:19:45Z</time></trkpt>
<trkpt lat="23.395954" lon="110.47566">
<time>2015-09-27T12:19:46Z</time></trkpt>
<trkpt lat="23.39662" lon="110.474186">
<time>2015-09-27T12:19:47Z</time></trkpt>
<trkpt lat="23.397165" lon="110.472331">
<time>2015-09-27T12:19:48Z</time></trkpt>
<trkpt lat="23.39745" lon="110.470747">
<time>2015-09-27T12:19:49Z</time></trkpt>
<trkpt lat="23.397536" lon="110.469132">
<time>2015-09-27T12:19:50Z</time></trkpt>
<trkpt lat="23.397563" lon="110.46804">
<time>2015-09-27T12:19:51Z</time></trkpt>
<trkpt lat="23.397572" lon="110.467568">
<time>2015-09-27T12:19:52Z</time></trkpt>
<trkpt lat="23.397564" lon="110.464761">
<time>2015-09-27T12:19:53Z</time></trkpt>
<trkpt lat="23.39758" lon="110.463328">
<time>2015-09-27T12:19:54Z</time></trkpt>
<trkpt lat="23.397589" lon="110.462867">
<time>2015-09-27T12:19:55Z</time></trkpt>
<trkpt lat="23.397735" lon="110.461373">
<time>2015-09-27T12:19:56Z</time></trkpt>
<trkpt lat="23.398191" lon="110.45979">
<time>2015-09-27T12:19:57Z</time></trkpt>
<trkpt lat="23.39852" lon="110.459118">
<time>2015-09-27T12:19:58Z</time></trkpt>
<trkpt lat="23.398898" lon="110.458326">
<time>2015-09-27T12:19:59Z</time></trkpt>
<trkpt lat="23.399335" lon="110.457264">
<time>2015-09-27T12:20:00Z</time></trkpt>
<trkpt lat="23.399702" lon="110.455991">
<time>2015-09-27T12:20:01Z</time></trkpt>
<trkpt lat="23.400027" lon="110.453846">
<time>2015-09-27T12:20:02Z</time></trkpt>
<trkpt lat="23.400165" lon="110.453004">
<time>2015-09-27T12:20:03Z</time></trkpt>
<trkpt lat="23.400244" lon="110.452553">
<time>2015-09-27T12:20:04Z</time></trkpt>
<trkpt lat="23.40054" lon="110.45093">
<time>2015-09-27T12:20:05Z</time></trkpt>
<trkpt lat="23.400766" lon="110.449307">
<time>2015-09-27T12:20:06Z</time></trkpt>
<trkpt lat="23.401092" lon="110.447523">
<time>2015-09-27T12:20:07Z</time></trkpt>
<trkpt lat="23.401419" lon="110.446101">
<time>2015-09-27T12:20:08Z</time></trkpt>
<trkpt lat="23.401748" lon="110.445429">
<time>2015-09-27T12:20:09Z</time></trkpt>
<trkpt lat="23.402077" lon="110.444808">
<time>2015-09-27T12:20:10Z</time></trkpt>
<trkpt lat="23.402525" lon="110.443977">
<time>2015-09-27T12:20:11Z</time></trkpt>
<trkpt lat="23.403472" lon="110.442674">
<time>2015-09-27T12:20:12Z</time></trkpt>
<trkpt lat="23.404978" lon="110.440641">
<time>2015-09-27T12:20:13Z</time></trkpt>
<trkpt lat="23.405257" lon="110.44029">
<time>2015-09-27T12:20:14Z</time></trkpt>
<trkpt lat="23.405496" lon="110.439829">
<time>2015-09-27T12:20:15Z</time></trkpt>
<trkpt lat="23.405636" lon="110.439549">
<time>2015-09-27T12:20:16Z</time></trkpt>
<trkpt lat="23.405805" lon="110.439138">
<time>2015-09-27T12:20:17Z</time></trkpt>
<trkpt lat="23.405904" lon="110.438738">
<time>2015-09-27T12:20:18Z</time></trkpt>
<trkpt lat="23.406003" lon="110.438157">
<time>2015-09-27T12:20:19Z</time></trkpt>
<trkpt lat="23.406022" lon="110.437396">
<time>2015-09-27T12:20:20Z</time></trkpt>
<trkpt lat="23.406001" lon="110.436634">
<time>2015-09-27T12:20:21Z</time></trkpt>
<trkpt lat="23.405909" lon="110.435713">
<time>2015-09-27T12:20:22Z</time></trkpt>
<trkpt lat="23.405879" lon="110.435453">
<time>2015-09-27T12:20:23Z</time></trkpt>
<trkpt lat="23.405616" lon="110.43346">
<time>2015-09-27T12:20:24Z</time></trkpt>
<trkpt lat="23.405565" lon="110.433019">
<time>2015-09-27T12:20:25Z</time></trkpt>
<trkpt lat="23.405392" lon="110.431377">
<time>2015-09-27T12:20:26Z</time></trkpt>
<trkpt lat="23.40532" lon="110.429895">
<time>2015-09-27T12:20:27Z</time></trkpt>
<trkpt lat="23.405499" lon="110.428794">
<time>2015-09-27T12:20:28Z</time></trkpt>
<trkpt lat="23.405857" lon="110.427733">
<time>2015-09-27T12:20:29Z</time></trkpt>
<trkpt lat="23.406047" lon="110.427392">
<time>2015-09-27T12:20:30Z</time></trkpt>
<trkpt lat="23.406366" lon="110.426822">
<time>2015-09-27T12:20:31Z</time></trkpt>
<trkpt lat="23.406964" lon="110.425741">
<time>2015-09-27T12:20:32Z</time></trkpt>
<trkpt lat="23.407842" lon="110.424239">
<time>2015-09-27T12:20:33Z</time></trkpt>
<trkpt lat="23.409748" lon="110.421026">
<time>2015-09-27T12:20:34Z</time></trkpt>
<trkpt lat="23.410647" lon="110.419515">
<time>2015-09-27T12:20:35Z</time></trkpt>
<trkpt lat="23.411475" lon="110.418074">
<time>2015-09-27T12:20:36Z</time></trkpt>
<trkpt lat="23.412663" lon="110.416023">
<time>2015-09-27T12:20:37Z</time></trkpt>
<trkpt lat="23.413702" lon="110.414262">
<time>2015-09-27T12:20:38Z</time></trkpt>
<trkpt lat="23.414021" lon="110.413651">
<time>2015-09-27T12:20:39Z</time></trkpt>
<trkpt lat="23.414331" lon="110.412881">
<time>2015-09-27T12:20:40Z</time></trkpt>
<trkpt lat="23.41446" lon="110.412531">
<time>2015-09-27T12:20:41Z</time></trkpt>
<trkpt lat="23.41457" lon="110.412051">
<time>2015-09-27T12:20:42Z</time></trkpt>
<trkpt lat="23.41463" lon="110.411531">
<time>2015-09-27T12:20:43Z</time></trkpt>
<trkpt lat="23.41464" lon="110.41107">
<time>2015-09-27T12:20:44Z</time></trkpt>
<trkpt lat="23.414599" lon="110.41026">
<time>2015-09-27T12:20:45Z</time></trkpt>
<trkpt lat="23.414408" lon="110.40895">
<time>2015-09-27T12:20:46Z</time></trkpt>
<trkpt lat="23.414328" lon="110.4084">
<time>2015-09-27T12:20:47Z</time></trkpt>
<trkpt lat="23.414288" lon="110.40795">
<time>2015-09-27T12:20:48Z</time></trkpt>
<trkpt lat="23.414258" lon="110.40767">
<time>2015-09-27T12:20:49Z</time></trkpt>
<trkpt lat="23.414178" lon="110.407039">
<time>2015-09-27T12:20:50Z</time></trkpt>
<trkpt lat="23.414017" lon="110.405749">
<time>2015-09-27T12:20:51Z</time></trkpt>
<trkpt lat="23.413967" lon="110.405339">
<time>2015-09-27T12:20:52Z</time></trkpt>
<trkpt lat="23.413897" lon="110.404689">
<time>2015-09-27T12:20:53Z</time></trkpt>
<trkpt lat="23.413907" lon="110.404159">
<time>2015-09-27T12:20:54Z</time></trkpt>
<trkpt lat="23.413916" lon="110.403519">
<time>2015-09-27T12:20:55Z</time></trkpt>
<trkpt lat="23.414016" lon="110.402729">
<time>2015-09-27T12:20:56Z</time></trkpt>
<trkpt lat="23.414216" lon="110.401739">
<time>2015-09-27T12:20:57Z</time></trkpt>
<trkpt lat="23.414386" lon="110.401139">
<time>2015-09-27T12:20:58Z</time></trkpt>
<trkpt lat="23.414596" lon="110.40051">
<time>2015-09-27T12:20:59Z</time></trkpt>
<trkpt lat="23.415275" lon="110.39904">
<time>2015-09-27T12:21:00Z</time></trkpt>
<trkpt lat="23.415455" lon="110.39871">
<time>2015-09-27T12:21:01Z</time></trkpt>
<trkpt lat="23.415655" lon="110.39827">
<time>2015-09-27T12:21:02Z</time></trkpt>
<trkpt lat="23.416665" lon="110.396151">
<time>2015-09-27T12:21:03Z</time></trkpt>
<trkpt lat="23.417045" lon="110.395391">
<time>2015-09-27T12:21:04Z</time></trkpt>
<trkpt lat="23.418856" lon="110.391573">
<time>2015-09-27T12:21:05Z</time></trkpt>
<trkpt lat="23.419066" lon="110.391143">
<time>2015-09-27T12:21:06Z</time></trkpt>
<trkpt lat="23.419256" lon="110.390583">
<time>2015-09-27T12:21:07Z</time></trkpt>
<trkpt lat="23.419396" lon="110.389984">
<time>2015-09-27T12:21:08Z</time></trkpt>
<trkpt lat="23.419456" lon="110.389664">
<time>2015-09-27T12:21:09Z</time></trkpt>
<trkpt lat="23.419476" lon="110.389264">
<time>2015-09-27T12:21:10Z</time></trkpt>
<trkpt lat="23.419437" lon="110.388355">
<time>2015-09-27T12:21:11Z</time></trkpt>
<trkpt lat="23.419277" lon="110.387316">
<time>2015-09-27T12:21:12Z</time></trkpt>
<trkpt lat="23.418879" lon="110.384438">
<time>2015-09-27T12:21:13Z</time></trkpt>
<trkpt lat="23.418829" lon="110.383359">
<time>2015-09-27T12:21:14Z</time></trkpt>
<trkpt lat="23.41891" lon="110.38223">
<time>2015-09-27T12:21:15Z</time></trkpt>
<trkpt lat="23.419111" lon="110.381071">
<time>2015-09-27T12:21:16Z</time></trkpt>
<trkpt lat="23.419462" lon="110.379253">
<time>2015-09-27T12:21:17Z</time></trkpt>
<trkpt lat="23.419914" lon="110.377066">
<time>2015-09-27T12:21:18Z</time></trkpt>
<trkpt lat="23.420215" lon="110.375538">
<time>2015-09-27T12:21:19Z</time></trkpt>
<trkpt lat="23.420315" lon="110.374998">
<time>2015-09-27T12:21:20Z</time></trkpt>
<trkpt lat="23.420436" lon="110.374359">
<time>2015-09-27T12:21:21Z</time></trkpt>
<trkpt lat="23.420738" lon="110.372402">
<time>2015-09-27T12:21:22Z</time></trkpt>
<trkpt lat="23.42077" lon="110.370734">
<time>2015-09-27T12:21:23Z</time></trkpt>
<trkpt lat="23.420651" lon="110.369266">
<time>2015-09-27T12:21:24Z</time></trkpt>
<trkpt lat="23.420452" lon="110.368198">
<time>2015-09-27T12:21:25Z</time></trkpt>
<trkpt lat="23.419846" lon="110.365352">
<time>2015-09-27T12:21:26Z</time></trkpt>
<trkpt lat="23.418932" lon="110.36086">
<time>2015-09-27T12:21:27Z</time></trkpt>
<trkpt lat="23.418594" lon="110.359303">
<time>2015-09-27T12:21:28Z</time></trkpt>
<trkpt lat="23.418485" lon="110.358784">
<time>2015-09-27T12:21:29Z</time></trkpt>
<trkpt lat="23.418415" lon="110.358354">
<time>2015-09-27T12:21:30Z</time></trkpt>
<trkpt lat="23.418356" lon="110.357725">
<time>2015-09-27T12:21:31Z</time></trkpt>
<trkpt lat="23.418347" lon="110.357127">
<time>2015-09-27T12:21:32Z</time></trkpt>
<trkpt lat="23.418429" lon="110.356268">
<time>2015-09-27T12:21:33Z</time></trkpt>
<trkpt lat="23.418499" lon="110.355889">
<time>2015-09-27T12:21:34Z</time></trkpt>
<trkpt lat="23.418519" lon="110.355729">
<time>2015-09-27T12:21:35Z</time></trkpt>
<trkpt lat="23.41857" lon="110.35555">
<time>2015-09-27T12:21:36Z</time></trkpt>
<trkpt lat="23.41865" lon="110.35527">
<time>2015-09-27T12:21:37Z</time></trkpt>
<trkpt lat="23.418911" lon="110.354551">
<time>2015-09-27T12:21:38Z</time></trkpt>
<trkpt lat="23.419282" lon="110.353773">
<time>2015-09-27T12:21:39Z</time></trkpt>
<trkpt lat="23.419653" lon="110.353094">
<time>2015-09-27T12:21:40Z</time></trkpt>
<trkpt lat="23.419934" lon="110.352585">
<time>2015-09-27T12:21:41Z</time></trkpt>
<trkpt lat="23.420175" lon="110.352166">
<time>2015-09-27T12:21:42Z</time></trkpt>
<trkpt lat="23.420666" lon="110.351268">
<time>2015-09-27T12:21:43Z</time></trkpt>
<trkpt lat="23.421017" lon="110.350589">
<time>2015-09-27T12:21:44Z</time></trkpt>
<trkpt lat="23.421248" lon="110.3501">
<time>2015-09-27T12:21:45Z</time></trkpt>
<trkpt lat="23.421348" lon="110.349761">
<time>2015-09-27T12:21:46Z</time></trkpt>
<trkpt lat="23.421429" lon="110.349322">
<time>2015-09-27T12:21:47Z</time></trkpt>
<trkpt lat="23.42148" lon="110.348922">
<time>2015-09-27T12:21:48Z</time></trkpt>
<trkpt lat="23.421551" lon="110.348344">
<time>2015-09-27T12:21:49Z</time></trkpt>
<trkpt lat="23.421652" lon="110.347495">
<time>2015-09-27T12:21:50Z</time></trkpt>
<trkpt lat="23.421682" lon="110.347286">
<time>2015-09-27T12:21:51Z</time></trkpt>
<trkpt lat="23.421804" lon="110.346537">
<time>2015-09-27T12:21:52Z</time></trkpt>
<trkpt lat="23.421864" lon="110.346308">
<time>2015-09-27T12:21:53Z</time></trkpt>
<trkpt lat="23.421884" lon="110.346208">
<time>2015-09-27T12:21:54Z</time></trkpt>
<trkpt lat="23.422015" lon="110.345859">
<time>2015-09-27T12:21:55Z</time></trkpt>
<trkpt lat="23.422165" lon="110.34548">
<time>2015-09-27T12:21:56Z</time></trkpt>
<trkpt lat="23.422346" lon="110.34513">
<time>2015-09-27T12:21:57Z</time></trkpt>
<trkpt lat="23.422577" lon="110.344761">
<time>2015-09-27T12:21:58Z</time></trkpt>
<trkpt lat="23.422857" lon="110.344362">
<time>2015-09-27T12:21:59Z</time></trkpt>
<trkpt lat="23.423128" lon="110.344053">
<time>2015-09-27T12:22:00Z</time></trkpt>
<trkpt lat="23.423188" lon="110.343993">
<time>2015-09-27T12:22:01Z</time></trkpt>
<trkpt lat="23.423188" lon="110.343993">
<time>2015-09-27T12:22:02Z</time></trkpt>
<trkpt lat="23.423111" lon="110.342506">
<time>2015-09-27T12:22:03Z</time></trkpt>
<trkpt lat="23.423072" lon="110.341638">
<time>2015-09-27T12:22:04Z</time></trkpt>
<trkpt lat="23.423004" lon="110.34041">
<time>2015-09-27T12:22:05Z</time></trkpt>
<trkpt lat="23.422956" lon="110.339572">
<time>2015-09-27T12:22:06Z</time></trkpt>
<trkpt lat="23.422956" lon="110.339572">
<time>2015-09-27T12:22:07Z</time></trkpt>
<trkpt lat="23.422676" lon="110.339592">
<time>2015-09-27T12:22:08Z</time></trkpt>
<trkpt lat="23.422676" lon="110.339592">
<time>2015-09-27T12:22:09Z</time></trkpt>
<trkpt lat="23.421813" lon="110.335581">
<time>2015-09-27T12:22:10Z</time></trkpt>
<trkpt lat="23.421089" lon="110.332628">
<time>2015-09-27T12:22:11Z</time></trkpt>
<trkpt lat="23.419408" lon="110.327859">
<time>2015-09-27T12:22:12Z</time></trkpt>
<trkpt lat="23.418772" lon="110.325903">
<time>2015-09-27T12:22:13Z</time></trkpt>
<trkpt lat="23.418503" lon="110.325385">
<time>2015-09-27T12:22:14Z</time></trkpt>
<trkpt lat="23.416661" lon="110.321204">
<time>2015-09-27T12:22:15Z</time></trkpt>
<trkpt lat="23.416521" lon="110.321144">
<time>2015-09-27T12:22:16Z</time></trkpt>
<trkpt lat="23.413668" lon="110.318062">
<time>2015-09-27T12:22:17Z</time></trkpt>
<trkpt lat="23.41304" lon="110.316984">
<time>2015-09-27T12:22:18Z</time></trkpt>
<trkpt lat="23.41302" lon="110.316894">
<time>2015-09-27T12:22:19Z</time></trkpt>
<trkpt lat="23.412258" lon="110.312674">
<time>2015-09-27T12:22:20Z</time></trkpt>
<trkpt lat="23.41211" lon="110.311596">
<time>2015-09-27T12:22:21Z</time></trkpt>
<trkpt lat="23.413041" lon="110.310838">
<time>2015-09-27T12:22:22Z</time></trkpt>
<trkpt lat="23.414473" lon="110.30975">
<time>2015-09-27T12:22:23Z</time></trkpt>
<trkpt lat="23.415195" lon="110.308573">
<time>2015-09-27T12:22:24Z</time></trkpt>
<trkpt lat="23.415859" lon="110.306697">
<time>2015-09-27T12:22:25Z</time></trkpt>
<trkpt lat="23.415265" lon="110.303204">
<time>2015-09-27T12:22:26Z</time></trkpt>
<trkpt lat="23.414908" lon="110.301398">
<time>2015-09-27T12:22:27Z</time></trkpt>
<trkpt lat="23.414739" lon="110.300709">
<time>2015-09-27T12:22:28Z</time></trkpt>
<trkpt lat="23.414034" lon="110.298214">
<time>2015-09-27T12:22:29Z</time></trkpt>
<trkpt lat="23.412644" lon="110.298065">
<time>2015-09-27T12:22:30Z</time></trkpt>
<trkpt lat="23.412447" lon="110.296318">
<time>2015-09-27T12:22:31Z</time></trkpt>
<trkpt lat="23.407085" lon="110.291637">
<time>2015-09-27T12:22:32Z</time></trkpt>
<trkpt lat="23.403227" lon="110.290899">
<time>2015-09-27T12:22:33Z</time></trkpt>
<trkpt lat="23.398432" lon="110.287755">
<time>2015-09-27T12:22:34Z</time></trkpt>
<trkpt lat="23.398626" lon="110.285099">
<time>2015-09-27T12:22:35Z</time></trkpt>
<trkpt lat="23.399157" lon="110.283871">
<time>2015-09-27T12:22:36Z</time></trkpt>
<trkpt lat="23.396182" lon="110.280597">
<time>2015-09-27T12:22:37Z</time></trkpt>
<trkpt lat="23.396122" lon="110.280527">
<time>2015-09-27T12:22:38Z</time></trkpt>
<trkpt lat="23.396173" lon="110.279968">
<time>2015-09-27T12:22:39Z</time></trkpt>
<trkpt lat="23.396564" lon="110.278939">
<time>2015-09-27T12:22:40Z</time></trkpt>
<trkpt lat="23.396415" lon="110.27833">
<time>2015-09-27T12:22:41Z</time></trkpt>
<trkpt lat="23.395695" lon="110.278">
<time>2015-09-27T12:22:42Z</time></trkpt>
<trkpt lat="23.395046" lon="110.277501">
<time>2015-09-27T12:22:43Z</time></trkpt>
<trkpt lat="23.394519" lon="110.274915">
<time>2015-09-27T12:22:44Z</time></trkpt>
<trkpt lat="23.39517" lon="110.273806">
<time>2015-09-27T12:22:45Z</time></trkpt>
<trkpt lat="23.394661" lon="110.273337">
<time>2015-09-27T12:22:46Z</time></trkpt>
<trkpt lat="23.396814" lon="110.269911">
<time>2015-09-27T12:22:47Z</time></trkpt>
<trkpt lat="23.397306" lon="110.267104">
<time>2015-09-27T12:22:48Z</time></trkpt>
<trkpt lat="23.397776" lon="110.266374">
<time>2015-09-27T12:22:49Z</time></trkpt>
<trkpt lat="23.397309" lon="110.262068">
<time>2015-09-27T12:22:50Z</time></trkpt>
<trkpt lat="23.397299" lon="110.261988">
<time>2015-09-27T12:22:51Z</time></trkpt>
<trkpt lat="23.396511" lon="110.25992">
<time>2015-09-27T12:22:52Z</time></trkpt>
<trkpt lat="23.396341" lon="110.25941">
<time>2015-09-27T12:22:53Z</time></trkpt>
<trkpt lat="23.391654" lon="110.255333">
<time>2015-09-27T12:22:54Z</time></trkpt>
<trkpt lat="23.389844" lon="110.254504">
<time>2015-09-27T12:22:55Z</time></trkpt>
<trkpt lat="23.389844" lon="110.254504">
<time>2015-09-27T12:22:56Z</time></trkpt>
<trkpt lat="23.389775" lon="110.251125">
<time>2015-09-27T12:22:57Z</time></trkpt>
<trkpt lat="23.389636" lon="110.250006">
<time>2015-09-27T12:22:58Z</time></trkpt>
<trkpt lat="23.391026" lon="110.245567">
<time>2015-09-27T12:22:59Z</time></trkpt>
<trkpt lat="23.387925" lon="110.237327">
<time>2015-09-27T12:23:00Z</time></trkpt>
<trkpt lat="23.384284" lon="110.233636">
<time>2015-09-27T12:23:01Z</time></trkpt>
<trkpt lat="23.382134" lon="110.232035">
<time>2015-09-27T12:23:02Z</time></trkpt>
<trkpt lat="23.381924" lon="110.231735">
<time>2015-09-27T12:23:03Z</time></trkpt>
<trkpt lat="23.381894" lon="110.231665">
<time>2015-09-27T12:23:04Z</time></trkpt>
<trkpt lat="23.381884" lon="110.231585">
<time>2015-09-27T12:23:05Z</time></trkpt>
<trkpt lat="23.381904" lon="110.231215">
<time>2015-09-27T12:23:06Z</time></trkpt>
<trkpt lat="23.381903" lon="110.231025">
<time>2015-09-27T12:23:07Z</time></trkpt>
<trkpt lat="23.381913" lon="110.230955">
<time>2015-09-27T12:23:08Z</time></trkpt>
<trkpt lat="23.381953" lon="110.230855">
<time>2015-09-27T12:23:09Z</time></trkpt>
<trkpt lat="23.385418" lon="110.22407">
<time>2015-09-27T12:23:10Z</time></trkpt>
<trkpt lat="23.385418" lon="110.22407">
<time>2015-09-27T12:23:11Z</time></trkpt>
<trkpt lat="23.385328" lon="110.22377">
<time>2015-09-27T12:23:12Z</time></trkpt>
<trkpt lat="23.385378" lon="110.22317">
<time>2015-09-27T12:23:13Z</time></trkpt>
<trkpt lat="23.385356" lon="110.220958">
<time>2015-09-27T12:23:14Z</time></trkpt>
<trkpt lat="23.385385" lon="110.220317">
<time>2015-09-27T12:23:15Z</time></trkpt>
<trkpt lat="23.385414" lon="110.219667">
<time>2015-09-27T12:23:16Z</time></trkpt>
<trkpt lat="23.385464" lon="110.218716">
<time>2015-09-27T12:23:17Z</time></trkpt>
<trkpt lat="23.385503" lon="110.217925">
<time>2015-09-27T12:23:18Z</time></trkpt>
<trkpt lat="23.385201" lon="110.216404">
<time>2015-09-27T12:23:19Z</time></trkpt>
<trkpt lat="23.384821" lon="110.215643">
<time>2015-09-27T12:23:20Z</time></trkpt>
<trkpt lat="23.384821" lon="110.215643">
<time>2015-09-27T12:23:21Z</time></trkpt>
<trkpt lat="23.3851" lon="110.215282">
<time>2015-09-27T12:23:22Z</time></trkpt>
<trkpt lat="23.38514" lon="110.214862">
<time>2015-09-27T12:23:23Z</time></trkpt>
<trkpt lat="23.384959" lon="110.214211">
<time>2015-09-27T12:23:24Z</time></trkpt>
<trkpt lat="23.384959" lon="110.214211">
<time>2015-09-27T12:23:25Z</time></trkpt>
<trkpt lat="23.385319" lon="110.214091">
<time>2015-09-27T12:23:26Z</time></trkpt>
<trkpt lat="23.385429" lon="110.213861">
<time>2015-09-27T12:23:27Z</time></trkpt>
<trkpt lat="23.385497" lon="110.21291">
<time>2015-09-27T12:23:28Z</time></trkpt>
<trkpt lat="23.385537" lon="110.212259">
<time>2015-09-27T12:23:29Z</time></trkpt>
<trkpt lat="23.385546" lon="110.211969">
<time>2015-09-27T12:23:30Z</time></trkpt>
<trkpt lat="23.385516" lon="110.211628">
<time>2015-09-27T12:23:31Z</time></trkpt>
<trkpt lat="23.385456" lon="110.211288">
<time>2015-09-27T12:23:32Z</time></trkpt>
<trkpt lat="23.385445" lon="110.211198">
<time>2015-09-27T12:23:33Z</time></trkpt>
<trkpt lat="23.385445" lon="110.211088">
<time>2015-09-27T12:23:34Z</time></trkpt>
<trkpt lat="23.385475" lon="110.210957">
<time>2015-09-27T12:23:35Z</time></trkpt>
<trkpt lat="23.385515" lon="110.210867">
<time>2015-09-27T12:23:36Z</time></trkpt>
<trkpt lat="23.385545" lon="110.210817">
<time>2015-09-27T12:23:37Z</time></trkpt>
<trkpt lat="23.385645" lon="110.210727">
<time>2015-09-27T12:23:38Z</time></trkpt>
<trkpt lat="23.385705" lon="110.210677">
<time>2015-09-27T12:23:39Z</time></trkpt>
<trkpt lat="23.385825" lon="110.210607">
<time>2015-09-27T12:23:40Z</time></trkpt>
<trkpt lat="23.386904" lon="110.210116">
<time>2015-09-27T12:23:41Z</time></trkpt>
<trkpt lat="23.386954" lon="110.210096">
<time>2015-09-27T12:23:42Z</time></trkpt>
<trkpt lat="23.387454" lon="110.209966">
<time>2015-09-27T12:23:43Z</time></trkpt>
<trkpt lat="23.387643" lon="110.209896">
<time>2015-09-27T12:23:44Z</time></trkpt>
<trkpt lat="23.387763" lon="110.209816">
<time>2015-09-27T12:23:45Z</time></trkpt>
<trkpt lat="23.387843" lon="110.209726">
<time>2015-09-27T12:23:46Z</time></trkpt>
<trkpt lat="23.388133" lon="110.209445">
<time>2015-09-27T12:23:47Z</time></trkpt>
<trkpt lat="23.38977" lon="110.207813">
<time>2015-09-27T12:23:48Z</time></trkpt>
<trkpt lat="23.390629" lon="110.206982">
<time>2015-09-27T12:23:49Z</time></trkpt>
<trkpt lat="23.391208" lon="110.205981">
<time>2015-09-27T12:23:50Z</time></trkpt>
<trkpt lat="23.391666" lon="110.205039">
<time>2015-09-27T12:23:51Z</time></trkpt>
<trkpt lat="23.392294" lon="110.203687">
<time>2015-09-27T12:23:52Z</time></trkpt>
<trkpt lat="23.392993" lon="110.202546">
<time>2015-09-27T12:23:53Z</time></trkpt>
<trkpt lat="23.393152" lon="110.202265">
<time>2015-09-27T12:23:54Z</time></trkpt>
<trkpt lat="23.393362" lon="110.202065">
<time>2015-09-27T12:23:55Z</time></trkpt>
<trkpt lat="23.393591" lon="110.201725">
<time>2015-09-27T12:23:56Z</time></trkpt>
<trkpt lat="23.393731" lon="110.201444">
<time>2015-09-27T12:23:57Z</time></trkpt>
<trkpt lat="23.393821" lon="110.201144">
<time>2015-09-27T12:23:58Z</time></trkpt>
<trkpt lat="23.39383" lon="110.200653">
<time>2015-09-27T12:23:59Z</time></trkpt>
<trkpt lat="23.393869" lon="110.200152">
<time>2015-09-27T12:24:00Z</time></trkpt>
<trkpt lat="23.394286" lon="110.198389">
<time>2015-09-27T12:24:01Z</time></trkpt>
<trkpt lat="23.394535" lon="110.197648">
<time>2015-09-27T12:24:02Z</time></trkpt>
<trkpt lat="23.394914" lon="110.196827">
<time>2015-09-27T12:24:03Z</time></trkpt>
<trkpt lat="23.395073" lon="110.196416">
<time>2015-09-27T12:24:04Z</time></trkpt>
<trkpt lat="23.395163" lon="110.196086">
<time>2015-09-27T12:24:05Z</time></trkpt>
<trkpt lat="23.395311" lon="110.195364">
<time>2015-09-27T12:24:06Z</time></trkpt>
<trkpt lat="23.39543" lon="110.194643">
<time>2015-09-27T12:24:07Z</time></trkpt>
<trkpt lat="23.39546" lon="110.194483">
<time>2015-09-27T12:24:08Z</time></trkpt>
<trkpt lat="23.39546" lon="110.194293">
<time>2015-09-27T12:24:09Z</time></trkpt>
<trkpt lat="23.395449" lon="110.194162">
<time>2015-09-27T12:24:10Z</time></trkpt>
<trkpt lat="23.395419" lon="110.194042">
<time>2015-09-27T12:24:11Z</time></trkpt>
<trkpt lat="23.395359" lon="110.193882">
<time>2015-09-27T12:24:12Z</time></trkpt>
<trkpt lat="23.394947" lon="110.19271">
<time>2015-09-27T12:24:13Z</time></trkpt>
<trkpt lat="23.394425" lon="110.191127">
<time>2015-09-27T12:24:14Z</time></trkpt>
<trkpt lat="23.394344" lon="110.190757">
<time>2015-09-27T12:24:15Z</time></trkpt>
<trkpt lat="23.394273" lon="110.190326">
<time>2015-09-27T12:24:16Z</time></trkpt>
<trkpt lat="23.394282" lon="110.189685">
<time>2015-09-27T12:24:17Z</time></trkpt>
<trkpt lat="23.394312" lon="110.189344">
<time>2015-09-27T12:24:18Z</time></trkpt>
<trkpt lat="23.3944" lon="110.188372">
<time>2015-09-27T12:24:19Z</time></trkpt>
<trkpt lat="23.394854" lon="110.184946">
<time>2015-09-27T12:24:20Z</time></trkpt>
<trkpt lat="23.394863" lon="110.184656">
<time>2015-09-27T12:24:21Z</time></trkpt>
<trkpt lat="23.394813" lon="110.184325">
<time>2015-09-27T12:24:22Z</time></trkpt>
<trkpt lat="23.394752" lon="110.183994">
<time>2015-09-27T12:24:23Z</time></trkpt>
<trkpt lat="23.394621" lon="110.183433">
<time>2015-09-27T12:24:24Z</time></trkpt>
<trkpt lat="23.39437" lon="110.182592">
<time>2015-09-27T12:24:25Z</time></trkpt>
<trkpt lat="23.393968" lon="110.18141">
<time>2015-09-27T12:24:26Z</time></trkpt>
<trkpt lat="23.393416" lon="110.180257">
<time>2015-09-27T12:24:27Z</time></trkpt>
<trkpt lat="23.392654" lon="110.179045">
<time>2015-09-27T12:24:28Z</time></trkpt>
<trkpt lat="23.391591" lon="110.177602">
<time>2015-09-27T12:24:29Z</time></trkpt>
<trkpt lat="23.39102" lon="110.176731">
<time>2015-09-27T12:24:30Z</time></trkpt>
<trkpt lat="23.390739" lon="110.17632">
<time>2015-09-27T12:24:31Z</time></trkpt>
<trkpt lat="23.390699" lon="110.17625">
<time>2015-09-27T12:24:32Z</time></trkpt>
<trkpt lat="23.390508" lon="110.175879">
<time>2015-09-27T12:24:33Z</time></trkpt>
<trkpt lat="23.390428" lon="110.175659">
<time>2015-09-27T12:24:34Z</time></trkpt>
<trkpt lat="23.390397" lon="110.175418">
<time>2015-09-27T12:24:35Z</time></trkpt>
<trkpt lat="23.390397" lon="110.175248">
<time>2015-09-27T12:24:36Z</time></trkpt>
<trkpt lat="23.390426" lon="110.174997">
<time>2015-09-27T12:24:37Z</time></trkpt>
<trkpt lat="23.390536" lon="110.174476">
<time>2015-09-27T12:24:38Z</time></trkpt>
<trkpt lat="23.390774" lon="110.173865">
<time>2015-09-27T12:24:39Z</time></trkpt>
<trkpt lat="23.391153" lon="110.173023">
<time>2015-09-27T12:24:40Z</time></trkpt>
<trkpt lat="23.39182" lon="110.171551">
<time>2015-09-27T12:24:41Z</time></trkpt>
<trkpt lat="23.392318" lon="110.170528">
<time>2015-09-27T12:24:42Z</time></trkpt>
<trkpt lat="23.392497" lon="110.170007">
<time>2015-09-27T12:24:43Z</time></trkpt>
<trkpt lat="23.392586" lon="110.169486">
<time>2015-09-27T12:24:44Z</time></trkpt>
<trkpt lat="23.392655" lon="110.169005">
<time>2015-09-27T12:24:45Z</time></trkpt>
<trkpt lat="23.392634" lon="110.168615">
<time>2015-09-27T12:24:46Z</time></trkpt>
<trkpt lat="23.392574" lon="110.168334">
<time>2015-09-27T12:24:47Z</time></trkpt>
<trkpt lat="23.392493" lon="110.168064">
<time>2015-09-27T12:24:48Z</time></trkpt>
<trkpt lat="23.392302" lon="110.167563">
<time>2015-09-27T12:24:49Z</time></trkpt>
<trkpt lat="23.39181" lon="110.16643">
<time>2015-09-27T12:24:50Z</time></trkpt>
<trkpt lat="23.39173" lon="110.16622">
<time>2015-09-27T12:24:51Z</time></trkpt>
<trkpt lat="23.391689" lon="110.16603">
<time>2015-09-27T12:24:52Z</time></trkpt>
<trkpt lat="23.391669" lon="110.165809">
<time>2015-09-27T12:24:53Z</time></trkpt>
<trkpt lat="23.391668" lon="110.165539">
<time>2015-09-27T12:24:54Z</time></trkpt>
<trkpt lat="23.391748" lon="110.165078">
<time>2015-09-27T12:24:55Z</time></trkpt>
<trkpt lat="23.391877" lon="110.164557">
<time>2015-09-27T12:24:56Z</time></trkpt>
<trkpt lat="23.391925" lon="110.163955">
<time>2015-09-27T12:24:57Z</time></trkpt>
<trkpt lat="23.391894" lon="110.163424">
<time>2015-09-27T12:24:58Z</time></trkpt>
<trkpt lat="23.391854" lon="110.163114">
<time>2015-09-27T12:24:59Z</time></trkpt>
<trkpt lat="23.391773" lon="110.162793">
<time>2015-09-27T12:25:00Z</time></trkpt>
<trkpt lat="23.391683" lon="110.162553">
<time>2015-09-27T12:25:01Z</time></trkpt>
<trkpt lat="23.391663" lon="110.162493">
<time>2015-09-27T12:25:02Z</time></trkpt>
<trkpt lat="23.391532" lon="110.162092">
<time>2015-09-27T12:25:03Z</time></trkpt>
<trkpt lat="23.390717" lon="110.159577">
<time>2015-09-27T12:25:04Z</time></trkpt>
<trkpt lat="23.390516" lon="110.158835">
<time>2015-09-27T12:25:05Z</time></trkpt>
<trkpt lat="23.390455" lon="110.158485">
<time>2015-09-27T12:25:06Z</time></trkpt>
<trkpt lat="23.390415" lon="110.158164">
<time>2015-09-27T12:25:07Z</time></trkpt>
<trkpt lat="23.390354" lon="110.157883">
<time>2015-09-27T12:25:08Z</time></trkpt>
<trkpt lat="23.390294" lon="110.157703">
<time>2015-09-27T12:25:09Z</time></trkpt>
<trkpt lat="23.390204" lon="110.157513">
<time>2015-09-27T12:25:10Z</time></trkpt>
<trkpt lat="23.390053" lon="110.157292">
<time>2015-09-27T12:25:11Z</time></trkpt>
<trkpt lat="23.389913" lon="110.157082">
<time>2015-09-27T12:25:12Z</time></trkpt>
<trkpt lat="23.389843" lon="110.156942">
<time>2015-09-27T12:25:13Z</time></trkpt>
<trkpt lat="23.389722" lon="110.156651">
<time>2015-09-27T12:25:14Z</time></trkpt>
<trkpt lat="23.389371" lon="110.155759">
<time>2015-09-27T12:25:15Z</time></trkpt>
<trkpt lat="23.388879" lon="110.154988">
<time>2015-09-27T12:25:16Z</time></trkpt>
<trkpt lat="23.388799" lon="110.154848">
<time>2015-09-27T12:25:17Z</time></trkpt>
<trkpt lat="23.388729" lon="110.154677">
<time>2015-09-27T12:25:18Z</time></trkpt>
<trkpt lat="23.388678" lon="110.154477">
<time>2015-09-27T12:25:19Z</time></trkpt>
<trkpt lat="23.388638" lon="110.154267">
<time>2015-09-27T12:25:20Z</time></trkpt>
<trkpt lat="23.388626" lon="110.153365">
<time>2015-09-27T12:25:21Z</time></trkpt>
<trkpt lat="23.388585" lon="110.152894">
<time>2015-09-27T12:25:22Z</time></trkpt>
<trkpt lat="23.388485" lon="110.152483">
<time>2015-09-27T12:25:23Z</time></trkpt>
<trkpt lat="23.388273" lon="110.151642">
<time>2015-09-27T12:25:24Z</time></trkpt>
<trkpt lat="23.388082" lon="110.15094">
<time>2015-09-27T12:25:25Z</time></trkpt>
<trkpt lat="23.387821" lon="110.150049">
<time>2015-09-27T12:25:26Z</time></trkpt>
<trkpt lat="23.387389" lon="110.149187">
<time>2015-09-27T12:25:27Z</time></trkpt>
<trkpt lat="23.387188" lon="110.148666">
<time>2015-09-27T12:25:28Z</time></trkpt>
<trkpt lat="23.387048" lon="110.148275">
<time>2015-09-27T12:25:29Z</time></trkpt>
<trkpt lat="23.386977" lon="110.148055">
<time>2015-09-27T12:25:30Z</time></trkpt>
<trkpt lat="23.386957" lon="110.147915">
<time>2015-09-27T12:25:31Z</time></trkpt>
<trkpt lat="23.386927" lon="110.147714">
<time>2015-09-27T12:25:32Z</time></trkpt>
<trkpt lat="23.386936" lon="110.147494">
<time>2015-09-27T12:25:33Z</time></trkpt>
<trkpt lat="23.386996" lon="110.147344">
<time>2015-09-27T12:25:34Z</time></trkpt>
<trkpt lat="23.387076" lon="110.147213">
<time>2015-09-27T12:25:35Z</time></trkpt>
<trkpt lat="23.387425" lon="110.146762">
<time>2015-09-27T12:25:36Z</time></trkpt>
<trkpt lat="23.387894" lon="110.146242">
<time>2015-09-27T12:25:37Z</time></trkpt>
<trkpt lat="23.388203" lon="110.145921">
<time>2015-09-27T12:25:38Z</time></trkpt>
<trkpt lat="23.388363" lon="110.145711">
<time>2015-09-27T12:25:39Z</time></trkpt>
<trkpt lat="23.388492" lon="110.14548">
<time>2015-09-27T12:25:40Z</time></trkpt>
<trkpt lat="23.388642" lon="110.145089">
<time>2015-09-27T12:25:41Z</time></trkpt>
<trkpt lat="23.388691" lon="110.144879">
<time>2015-09-27T12:25:42Z</time></trkpt>
<trkpt lat="23.388721" lon="110.144518">
<time>2015-09-27T12:25:43Z</time></trkpt>
<trkpt lat="23.38876" lon="110.144188">
<time>2015-09-27T12:25:44Z</time></trkpt>
<trkpt lat="23.38886" lon="110.143817">
<time>2015-09-27T12:25:45Z</time></trkpt>
<trkpt lat="23.389009" lon="110.143426">
<time>2015-09-27T12:25:46Z</time></trkpt>
<trkpt lat="23.389128" lon="110.143146">
<time>2015-09-27T12:25:47Z</time></trkpt>
<trkpt lat="23.389198" lon="110.142956">
<time>2015-09-27T12:25:48Z</time></trkpt>
<trkpt lat="23.389258" lon="110.142765">
<time>2015-09-27T12:25:49Z</time></trkpt>
<trkpt lat="23.389277" lon="110.142605">
<time>2015-09-27T12:25:50Z</time></trkpt>
<trkpt lat="23.389287" lon="110.142435">
<time>2015-09-27T12:25:51Z</time></trkpt>
<trkpt lat="23.389267" lon="110.142234">
<time>2015-09-27T12:25:52Z</time></trkpt>
<trkpt lat="23.389226" lon="110.141984">
<time>2015-09-27T12:25:53Z</time></trkpt>
<trkpt lat="23.389176" lon="110.141763">
<time>2015-09-27T12:25:54Z</time></trkpt>
<trkpt lat="23.389056" lon="110.141483">
<time>2015-09-27T12:25:55Z</time></trkpt>
<trkpt lat="23.388695" lon="110.140842">
<time>2015-09-27T12:25:56Z</time></trkpt>
<trkpt lat="23.388184" lon="110.140131">
<time>2015-09-27T12:25:57Z</time></trkpt>
<trkpt lat="23.387022" lon="110.138849">
<time>2015-09-27T12:25:58Z</time></trkpt>
<trkpt lat="23.386841" lon="110.138618">
<time>2015-09-27T12:25:59Z</time></trkpt>
<trkpt lat="23.386761" lon="110.138468">
<time>2015-09-27T12:26:00Z</time></trkpt>
<trkpt lat="23.386691" lon="110.138338">
<time>2015-09-27T12:26:01Z</time></trkpt>
<trkpt lat="23.386541" lon="110.137987">
<time>2015-09-27T12:26:02Z</time></trkpt>
<trkpt lat="23.38652" lon="110.137927">
<time>2015-09-27T12:26:03Z</time></trkpt>
<trkpt lat="23.38644" lon="110.137687">
<time>2015-09-27T12:26:04Z</time></trkpt>
<trkpt lat="23.38636" lon="110.137316">
<time>2015-09-27T12:26:05Z</time></trkpt>
<trkpt lat="23.386188" lon="110.136144">
<time>2015-09-27T12:26:06Z</time></trkpt>
<trkpt lat="23.386107" lon="110.135784">
<time>2015-09-27T12:26:07Z</time></trkpt>
<trkpt lat="23.386107" lon="110.135764">
<time>2015-09-27T12:26:08Z</time></trkpt>
<trkpt lat="23.385734" lon="110.13374">
<time>2015-09-27T12:26:09Z</time></trkpt>
<trkpt lat="23.385492" lon="110.132408">
<time>2015-09-27T12:26:10Z</time></trkpt>
<trkpt lat="23.385352" lon="110.131757">
<time>2015-09-27T12:26:11Z</time></trkpt>
<trkpt lat="23.385261" lon="110.131287">
<time>2015-09-27T12:26:12Z</time></trkpt>
<trkpt lat="23.385161" lon="110.131016">
<time>2015-09-27T12:26:13Z</time></trkpt>
<trkpt lat="23.38503" lon="110.130766">
<time>2015-09-27T12:26:14Z</time></trkpt>
<trkpt lat="23.38491" lon="110.130596">
<time>2015-09-27T12:26:15Z</time></trkpt>
<trkpt lat="23.38476" lon="110.130375">
<time>2015-09-27T12:26:16Z</time></trkpt>
<trkpt lat="23.384419" lon="110.129925">
<time>2015-09-27T12:26:17Z</time></trkpt>
<trkpt lat="23.384299" lon="110.129705">
<time>2015-09-27T12:26:18Z</time></trkpt>
<trkpt lat="23.384219" lon="110.129514">
<time>2015-09-27T12:26:19Z</time></trkpt>
<trkpt lat="23.384108" lon="110.129184">
<time>2015-09-27T12:26:20Z</time></trkpt>
<trkpt lat="23.384058" lon="110.128873">
<time>2015-09-27T12:26:21Z</time></trkpt>
<trkpt lat="23.384048" lon="110.128783">
<time>2015-09-27T12:26:22Z</time></trkpt>
<trkpt lat="23.384038" lon="110.128683">
<time>2015-09-27T12:26:23Z</time></trkpt>
<trkpt lat="23.384057" lon="110.128563">
<time>2015-09-27T12:26:24Z</time></trkpt>
<trkpt lat="23.384097" lon="110.128423">
<time>2015-09-27T12:26:25Z</time></trkpt>
<trkpt lat="23.384187" lon="110.128212">
<time>2015-09-27T12:26:26Z</time></trkpt>
<trkpt lat="23.384287" lon="110.127982">
<time>2015-09-27T12:26:27Z</time></trkpt>
<trkpt lat="23.384336" lon="110.127772">
<time>2015-09-27T12:26:28Z</time></trkpt>
<trkpt lat="23.384346" lon="110.127552">
<time>2015-09-27T12:26:29Z</time></trkpt>
<trkpt lat="23.384326" lon="110.127311">
<time>2015-09-27T12:26:30Z</time></trkpt>
<trkpt lat="23.384265" lon="110.126991">
<time>2015-09-27T12:26:31Z</time></trkpt>
<trkpt lat="23.384225" lon="110.12673">
<time>2015-09-27T12:26:32Z</time></trkpt>
<trkpt lat="23.384195" lon="110.12657">
<time>2015-09-27T12:26:33Z</time></trkpt>
<trkpt lat="23.384184" lon="110.12628">
<time>2015-09-27T12:26:34Z</time></trkpt>
<trkpt lat="23.384154" lon="110.125729">
<time>2015-09-27T12:26:35Z</time></trkpt>
<trkpt lat="23.384144" lon="110.125519">
<time>2015-09-27T12:26:36Z</time></trkpt>
<trkpt lat="23.384143" lon="110.125319">
<time>2015-09-27T12:26:37Z</time></trkpt>
<trkpt lat="23.384173" lon="110.125008">
<time>2015-09-27T12:26:38Z</time></trkpt>
<trkpt lat="23.384193" lon="110.124838">
<time>2015-09-27T12:26:39Z</time></trkpt>
<trkpt lat="23.384242" lon="110.124678">
<time>2015-09-27T12:26:40Z</time></trkpt>
<trkpt lat="23.384312" lon="110.124508">
<time>2015-09-27T12:26:41Z</time></trkpt>
<trkpt lat="23.384772" lon="110.123927">
<time>2015-09-27T12:26:42Z</time></trkpt>
<trkpt lat="23.384981" lon="110.123626">
<time>2015-09-27T12:26:43Z</time></trkpt>
<trkpt lat="23.385161" lon="110.123316">
<time>2015-09-27T12:26:44Z</time></trkpt>
<trkpt lat="23.38535" lon="110.122905">
<time>2015-09-27T12:26:45Z</time></trkpt>
<trkpt lat="23.386217" lon="110.120342">
<time>2015-09-27T12:26:46Z</time></trkpt>
<trkpt lat="23.386925" lon="110.11826">
<time>2015-09-27T12:26:47Z</time></trkpt>
<trkpt lat="23.387294" lon="110.117049">
<time>2015-09-27T12:26:48Z</time></trkpt>
<trkpt lat="23.387533" lon="110.116078">
<time>2015-09-27T12:26:49Z</time></trkpt>
<trkpt lat="23.387802" lon="110.115087">
<time>2015-09-27T12:26:50Z</time></trkpt>
<trkpt lat="23.388021" lon="110.114216">
<time>2015-09-27T12:26:51Z</time></trkpt>
<trkpt lat="23.388141" lon="110.113656">
<time>2015-09-27T12:26:52Z</time></trkpt>
<trkpt lat="23.38823" lon="110.113285">
<time>2015-09-27T12:26:53Z</time></trkpt>
<trkpt lat="23.38835" lon="110.112955">
<time>2015-09-27T12:26:54Z</time></trkpt>
<trkpt lat="23.3884" lon="110.112855">
<time>2015-09-27T12:26:55Z</time></trkpt>
<trkpt lat="23.389558" lon="110.110493">
<time>2015-09-27T12:26:56Z</time></trkpt>
<trkpt lat="23.390276" lon="110.108502">
<time>2015-09-27T12:26:57Z</time></trkpt>
<trkpt lat="23.390536" lon="110.107231">
<time>2015-09-27T12:26:58Z</time></trkpt>
<trkpt lat="23.390565" lon="110.10688">
<time>2015-09-27T12:26:59Z</time></trkpt>
<trkpt lat="23.390555" lon="110.10657">
<time>2015-09-27T12:27:00Z</time></trkpt>
<trkpt lat="23.390455" lon="110.10605">
<time>2015-09-27T12:27:01Z</time></trkpt>
<trkpt lat="23.390315" lon="110.10547">
<time>2015-09-27T12:27:02Z</time></trkpt>
<trkpt lat="23.390224" lon="110.104849">
<time>2015-09-27T12:27:03Z</time></trkpt>
<trkpt lat="23.390234" lon="110.104229">
<time>2015-09-27T12:27:04Z</time></trkpt>
<trkpt lat="23.390274" lon="110.103929">
<time>2015-09-27T12:27:05Z</time></trkpt>
<trkpt lat="23.390324" lon="110.103679">
<time>2015-09-27T12:27:06Z</time></trkpt>
<trkpt lat="23.390424" lon="110.103379">
<time>2015-09-27T12:27:07Z</time></trkpt>
<trkpt lat="23.390504" lon="110.103129">
<time>2015-09-27T12:27:08Z</time></trkpt>
<trkpt lat="23.390584" lon="110.102898">
<time>2015-09-27T12:27:09Z</time></trkpt>
<trkpt lat="23.390613" lon="110.102688">
<time>2015-09-27T12:27:10Z</time></trkpt>
<trkpt lat="23.390593" lon="110.102538">
<time>2015-09-27T12:27:11Z</time></trkpt>
<trkpt lat="23.390363" lon="110.101128">
<time>2015-09-27T12:27:12Z</time></trkpt>
<trkpt lat="23.390303" lon="110.099757">
<time>2015-09-27T12:27:13Z</time></trkpt>
<trkpt lat="23.390292" lon="110.098487">
<time>2015-09-27T12:27:14Z</time></trkpt>
<trkpt lat="23.390292" lon="110.098487">
<time>2015-09-27T12:27:15Z</time></trkpt>
<trkpt lat="23.387882" lon="110.097247">
<time>2015-09-27T12:27:16Z</time></trkpt>
<trkpt lat="23.385763" lon="110.096247">
<time>2015-09-27T12:27:17Z</time></trkpt>
<trkpt lat="23.381233" lon="110.094117">
<time>2015-09-27T12:27:18Z</time></trkpt>
<trkpt lat="23.379754" lon="110.093427">
<time>2015-09-27T12:27:19Z</time></trkpt>
<trkpt lat="23.379744" lon="110.093417">
<time>2015-09-27T12:27:20Z</time></trkpt>
<trkpt lat="23.379104" lon="110.093117">
<time>2015-09-27T12:27:21Z</time></trkpt>
<trkpt lat="23.378704" lon="110.092887">
<time>2015-09-27T12:27:22Z</time></trkpt>
<trkpt lat="23.378704" lon="110.092887">
<time>2015-09-27T12:27:23Z</time></trkpt>
<trkpt lat="23.378424" lon="110.092917">
<time>2015-09-27T12:27:24Z</time></trkpt>
<trkpt lat="23.377874" lon="110.092937">
<time>2015-09-27T12:27:25Z</time></trkpt>
<trkpt lat="23.377354" lon="110.093117">
<time>2015-09-27T12:27:26Z</time></trkpt>
<trkpt lat="23.376634" lon="110.093447">
<time>2015-09-27T12:27:27Z</time></trkpt>
<trkpt lat="23.376134" lon="110.093637">
<time>2015-09-27T12:27:28Z</time></trkpt>
<trkpt lat="23.375974" lon="110.093667">
<time>2015-09-27T12:27:29Z</time></trkpt>
<trkpt lat="23.375784" lon="110.093677">
<time>2015-09-27T12:27:30Z</time></trkpt>
<trkpt lat="23.375594" lon="110.093647">
<time>2015-09-27T12:27:31Z</time></trkpt>
<trkpt lat="23.375424" lon="110.093577">
<time>2015-09-27T12:27:32Z</time></trkpt>
<trkpt lat="23.375234" lon="110.093467">
<time>2015-09-27T12:27:33Z</time></trkpt>
<trkpt lat="23.375094" lon="110.093367">
<time>2015-09-27T12:27:34Z</time></trkpt>
<trkpt lat="23.374974" lon="110.093207">
<time>2015-09-27T12:27:35Z</time></trkpt>
<trkpt lat="23.374864" lon="110.093057">
<time>2015-09-27T12:27:36Z</time></trkpt>
<trkpt lat="23.374855" lon="110.093037">
<time>2015-09-27T12:27:37Z</time></trkpt>
<trkpt lat="23.374855" lon="110.093037">
<time>2015-09-27T12:27:38Z</time></trkpt>
<trkpt lat="23.374855" lon="110.092957">
<time>2015-09-27T12:27:39Z</time></trkpt>
<trkpt lat="23.374815" lon="110.092867">
<time>2015-09-27T12:27:40Z</time></trkpt>
<trkpt lat="23.374765" lon="110.092647">
<time>2015-09-27T12:27:41Z</time></trkpt>
<trkpt lat="23.374755" lon="110.092487">
<time>2015-09-27T12:27:42Z</time></trkpt>
<trkpt lat="23.374765" lon="110.092287">
<time>2015-09-27T12:27:43Z</time></trkpt>
<trkpt lat="23.374805" lon="110.092047">
<time>2015-09-27T12:27:44Z</time></trkpt>
<trkpt lat="23.374875" lon="110.091817">
<time>2015-09-27T12:27:45Z</time></trkpt>
<trkpt lat="23.375235" lon="110.090828">
<time>2015-09-27T12:27:46Z</time></trkpt>
<trkpt lat="23.375715" lon="110.089518">
<time>2015-09-27T12:27:47Z</time></trkpt>
<trkpt lat="23.376825" lon="110.086489">
<time>2015-09-27T12:27:48Z</time></trkpt>
<trkpt lat="23.376825" lon="110.086459">
<time>2015-09-27T12:27:49Z</time></trkpt>
<trkpt lat="23.376835" lon="110.086429">
<time>2015-09-27T12:27:50Z</time></trkpt>
<trkpt lat="23.376865" lon="110.086219">
<time>2015-09-27T12:27:51Z</time></trkpt>
<trkpt lat="23.376975" lon="110.085929">
<time>2015-09-27T12:27:52Z</time></trkpt>
<trkpt lat="23.377025" lon="110.085749">
<time>2015-09-27T12:27:53Z</time></trkpt>
<trkpt lat="23.377086" lon="110.085499">
<time>2015-09-27T12:27:54Z</time></trkpt>
<trkpt lat="23.377136" lon="110.085219">
<time>2015-09-27T12:27:55Z</time></trkpt>
<trkpt lat="23.377136" lon="110.085219">
<time>2015-09-27T12:27:56Z</time></trkpt>
<trkpt lat="23.377046" lon="110.084959">
<time>2015-09-27T12:27:57Z</time></trkpt>
<trkpt lat="23.377046" lon="110.084939">
<time>2015-09-27T12:27:58Z</time></trkpt>
<trkpt lat="23.376986" lon="110.084769">
<time>2015-09-27T12:27:59Z</time></trkpt>
<trkpt lat="23.376956" lon="110.084689">
<time>2015-09-27T12:28:00Z</time></trkpt>
<trkpt lat="23.376906" lon="110.084569">
<time>2015-09-27T12:28:01Z</time></trkpt>
<trkpt lat="23.376526" lon="110.08379">
<time>2015-09-27T12:28:02Z</time></trkpt>
<trkpt lat="23.376187" lon="110.08309">
<time>2015-09-27T12:28:03Z</time></trkpt>
<trkpt lat="23.374988" lon="110.080671">
<time>2015-09-27T12:28:04Z</time></trkpt>
<trkpt lat="23.374529" lon="110.079772">
<time>2015-09-27T12:28:05Z</time></trkpt>
<trkpt lat="23.374409" lon="110.079532">
<time>2015-09-27T12:28:06Z</time></trkpt>
<trkpt lat="23.374169" lon="110.079043">
<time>2015-09-27T12:28:07Z</time></trkpt>
<trkpt lat="23.37402" lon="110.078753">
<time>2015-09-27T12:28:08Z</time></trkpt>
<trkpt lat="23.37356" lon="110.077883">
<time>2015-09-27T12:28:09Z</time></trkpt>
<trkpt lat="23.37353" lon="110.077823">
<time>2015-09-27T12:28:10Z</time></trkpt>
<trkpt lat="23.3735" lon="110.077774">
<time>2015-09-27T12:28:11Z</time></trkpt>
<trkpt lat="23.37346" lon="110.077694">
<time>2015-09-27T12:28:12Z</time></trkpt>
<trkpt lat="23.373161" lon="110.077094">
<time>2015-09-27T12:28:13Z</time></trkpt>
<trkpt lat="23.373101" lon="110.076974">
<time>2015-09-27T12:28:14Z</time></trkpt>
<trkpt lat="23.372622" lon="110.076045">
<time>2015-09-27T12:28:15Z</time></trkpt>
<trkpt lat="23.372602" lon="110.075995">
<time>2015-09-27T12:28:16Z</time></trkpt>
<trkpt lat="23.372472" lon="110.075685">
<time>2015-09-27T12:28:17Z</time></trkpt>
<trkpt lat="23.372442" lon="110.075625">
<time>2015-09-27T12:28:18Z</time></trkpt>
<trkpt lat="23.372422" lon="110.075565">
<time>2015-09-27T12:28:19Z</time></trkpt>
<trkpt lat="23.372362" lon="110.075435">
<time>2015-09-27T12:28:20Z</time></trkpt>
<trkpt lat="23.372302" lon="110.075296">
<time>2015-09-27T12:28:21Z</time></trkpt>
<trkpt lat="23.372193" lon="110.074996">
<time>2015-09-27T12:28:22Z</time></trkpt>
<trkpt lat="23.372073" lon="110.074636">
<time>2015-09-27T12:28:23Z</time></trkpt>
<trkpt lat="23.371963" lon="110.074157">
<time>2015-09-27T12:28:24Z</time></trkpt>
<trkpt lat="23.371914" lon="110.073927">
<time>2015-09-27T12:28:25Z</time></trkpt>
<trkpt lat="23.371894" lon="110.073817">
<time>2015-09-27T12:28:26Z</time></trkpt>
<trkpt lat="23.371874" lon="110.073757">
<time>2015-09-27T12:28:27Z</time></trkpt>
<trkpt lat="23.371824" lon="110.073477">
<time>2015-09-27T12:28:28Z</time></trkpt>
<trkpt lat="23.371715" lon="110.072898">
<time>2015-09-27T12:28:29Z</time></trkpt>
<trkpt lat="23.371695" lon="110.072768">
<time>2015-09-27T12:28:30Z</time></trkpt>
<trkpt lat="23.371675" lon="110.072598">
<time>2015-09-27T12:28:31Z</time></trkpt>
<trkpt lat="23.371645" lon="110.072289">
<time>2015-09-27T12:28:32Z</time></trkpt>
<trkpt lat="23.371635" lon="110.072229">
<time>2015-09-27T12:28:33Z</time></trkpt>
<trkpt lat="23.371596" lon="110.071919">
<time>2015-09-27T12:28:34Z</time></trkpt>
<trkpt lat="23.371516" lon="110.07129">
<time>2015-09-27T12:28:35Z</time></trkpt>
<trkpt lat="23.371457" lon="110.07076">
<time>2015-09-27T12:28:36Z</time></trkpt>
<trkpt lat="23.371437" lon="110.07054">
<time>2015-09-27T12:28:37Z</time></trkpt>
<trkpt lat="23.371427" lon="110.07049">
<time>2015-09-27T12:28:38Z</time></trkpt>
<trkpt lat="23.371407" lon="110.070311">
<time>2015-09-27T12:28:39Z</time></trkpt>
<trkpt lat="23.371387" lon="110.070141">
<time>2015-09-27T12:28:40Z</time></trkpt>
<trkpt lat="23.371308" lon="110.069472">
<time>2015-09-27T12:28:41Z</time></trkpt>
<trkpt lat="23.371249" lon="110.069012">
<time>2015-09-27T12:28:42Z</time></trkpt>
<trkpt lat="23.37112" lon="110.067864">
<time>2015-09-27T12:28:43Z</time></trkpt>
<trkpt lat="23.37111" lon="110.067774">
<time>2015-09-27T12:28:44Z</time></trkpt>
<trkpt lat="23.371021" lon="110.067164">
<time>2015-09-27T12:28:45Z</time></trkpt>
<trkpt lat="23.370981" lon="110.066785">
<time>2015-09-27T12:28:46Z</time></trkpt>
<trkpt lat="23.370981" lon="110.066785">
<time>2015-09-27T12:28:47Z</time></trkpt>
<trkpt lat="23.370891" lon="110.066645">
<time>2015-09-27T12:28:48Z</time></trkpt>
<trkpt lat="23.370772" lon="110.066525">
<time>2015-09-27T12:28:49Z</time></trkpt>
<trkpt lat="23.370672" lon="110.066455">
<time>2015-09-27T12:28:50Z</time></trkpt>
<trkpt lat="23.370392" lon="110.066266">
<time>2015-09-27T12:28:51Z</time></trkpt>
<trkpt lat="23.370392" lon="110.066266">
<time>2015-09-27T12:28:52Z</time></trkpt>
<trkpt lat="23.369862" lon="110.066086">
<time>2015-09-27T12:28:53Z</time></trkpt>
<trkpt lat="23.369802" lon="110.066076">
<time>2015-09-27T12:28:54Z</time></trkpt>
<trkpt lat="23.369562" lon="110.065996">
<time>2015-09-27T12:28:55Z</time></trkpt>
<trkpt lat="23.368373" lon="110.065597">
<time>2015-09-27T12:28:56Z</time></trkpt>
<trkpt lat="23.368353" lon="110.065597">
<time>2015-09-27T12:28:57Z</time></trkpt>
<trkpt lat="23.366724" lon="110.065057">
<time>2015-09-27T12:28:58Z</time></trkpt>
<trkpt lat="23.365405" lon="110.064598">
<time>2015-09-27T12:28:59Z</time></trkpt>
<trkpt lat="23.365395" lon="110.064598">
<time>2015-09-27T12:29:00Z</time></trkpt>
<trkpt lat="23.364306" lon="110.064219">
<time>2015-09-27T12:29:01Z</time></trkpt>
<trkpt lat="23.362547" lon="110.06359">
<time>2015-09-27T12:29:02Z</time></trkpt>
<trkpt lat="23.362457" lon="110.06355">
<time>2015-09-27T12:29:03Z</time></trkpt>
<trkpt lat="23.362097" lon="110.06341">
<time>2015-09-27T12:29:04Z</time></trkpt>
<trkpt lat="23.361937" lon="110.06334">
<time>2015-09-27T12:29:05Z</time></trkpt>
<trkpt lat="23.361788" lon="110.06325">
<time>2015-09-27T12:29:06Z</time></trkpt>
<trkpt lat="23.361628" lon="110.06315">
<time>2015-09-27T12:29:07Z</time></trkpt>
<trkpt lat="23.361468" lon="110.063041">
<time>2015-09-27T12:29:08Z</time></trkpt>
<trkpt lat="23.36025" lon="110.062072">
<time>2015-09-27T12:29:09Z</time></trkpt>
<trkpt lat="23.35968" lon="110.061623">
<time>2015-09-27T12:29:10Z</time></trkpt>
<trkpt lat="23.35967" lon="110.061623">
<time>2015-09-27T12:29:11Z</time></trkpt>
<trkpt lat="23.357663" lon="110.060085">
<time>2015-09-27T12:29:12Z</time></trkpt>
<trkpt lat="23.357393" lon="110.059866">
<time>2015-09-27T12:29:13Z</time></trkpt>
<trkpt lat="23.355586" lon="110.058458">
<time>2015-09-27T12:29:14Z</time></trkpt>
<trkpt lat="23.355416" lon="110.058328">
<time>2015-09-27T12:29:15Z</time></trkpt>
<trkpt lat="23.354158" lon="110.05735">
<time>2015-09-27T12:29:16Z</time></trkpt>
<trkpt lat="23.35305" lon="110.056502">
<time>2015-09-27T12:29:17Z</time></trkpt>
<trkpt lat="23.352181" lon="110.055773">
<time>2015-09-27T12:29:18Z</time></trkpt>
<trkpt lat="23.350454" lon="110.054306">
<time>2015-09-27T12:29:19Z</time></trkpt>
<trkpt lat="23.350044" lon="110.053937">
<time>2015-09-27T12:29:20Z</time></trkpt>
<trkpt lat="23.348697" lon="110.052779">
<time>2015-09-27T12:29:21Z</time></trkpt>
<trkpt lat="23.348018" lon="110.0522">
<time>2015-09-27T12:29:22Z</time></trkpt>
<trkpt lat="23.347699" lon="110.051921">
<time>2015-09-27T12:29:23Z</time></trkpt>
<trkpt lat="23.346611" lon="110.051012">
<time>2015-09-27T12:29:24Z</time></trkpt>
<trkpt lat="23.345912" lon="110.050414">
<time>2015-09-27T12:29:25Z</time></trkpt>
<trkpt lat="23.345722" lon="110.050204">
<time>2015-09-27T12:29:26Z</time></trkpt>
<trkpt lat="23.345692" lon="110.050164">
<time>2015-09-27T12:29:27Z</time></trkpt>
<trkpt lat="23.345253" lon="110.049645">
<time>2015-09-27T12:29:28Z</time></trkpt>
<trkpt lat="23.343797" lon="110.047819">
<time>2015-09-27T12:29:29Z</time></trkpt>
<trkpt lat="23.34286" lon="110.046662">
<time>2015-09-27T12:29:30Z</time></trkpt>
<trkpt lat="23.340975" lon="110.044347">
<time>2015-09-27T12:29:31Z</time></trkpt>
<trkpt lat="23.340297" lon="110.043519">
<time>2015-09-27T12:29:32Z</time></trkpt>
<trkpt lat="23.340147" lon="110.043339">
<time>2015-09-27T12:29:33Z</time></trkpt>
<trkpt lat="23.339928" lon="110.04307">
<time>2015-09-27T12:29:34Z</time></trkpt>
<trkpt lat="23.339011" lon="110.041943">
<time>2015-09-27T12:29:35Z</time></trkpt>
<trkpt lat="23.338173" lon="110.040945">
<time>2015-09-27T12:29:36Z</time></trkpt>
<trkpt lat="23.337834" lon="110.040596">
<time>2015-09-27T12:29:37Z</time></trkpt>
<trkpt lat="23.337445" lon="110.040297">
<time>2015-09-27T12:29:38Z</time></trkpt>
<trkpt lat="23.337065" lon="110.040027">
<time>2015-09-27T12:29:39Z</time></trkpt>
<trkpt lat="23.336706" lon="110.039788">
<time>2015-09-27T12:29:40Z</time></trkpt>
<trkpt lat="23.336426" lon="110.039588">
<time>2015-09-27T12:29:41Z</time></trkpt>
<trkpt lat="23.336377" lon="110.039499">
<time>2015-09-27T12:29:42Z</time></trkpt>
<trkpt lat="23.336067" lon="110.039289">
<time>2015-09-27T12:29:43Z</time></trkpt>
<trkpt lat="23.335868" lon="110.03913">
<time>2015-09-27T12:29:44Z</time></trkpt>
<trkpt lat="23.335768" lon="110.03903">
<time>2015-09-27T12:29:45Z</time></trkpt>
<trkpt lat="23.335658" lon="110.03892">
<time>2015-09-27T12:29:46Z</time></trkpt>
<trkpt lat="23.335539" lon="110.03877">
<time>2015-09-27T12:29:47Z</time></trkpt>
<trkpt lat="23.33527" lon="110.038352">
<time>2015-09-27T12:29:48Z</time></trkpt>
<trkpt lat="23.33509" lon="110.037992">
<time>2015-09-27T12:29:49Z</time></trkpt>
<trkpt lat="23.335031" lon="110.037853">
<time>2015-09-27T12:29:50Z</time></trkpt>
<trkpt lat="23.334971" lon="110.037703">
<time>2015-09-27T12:29:51Z</time></trkpt>
<trkpt lat="23.334793" lon="110.037125">
<time>2015-09-27T12:29:52Z</time></trkpt>
<trkpt lat="23.334584" lon="110.036347">
<time>2015-09-27T12:29:53Z</time></trkpt>
<trkpt lat="23.334495" lon="110.036017">
<time>2015-09-27T12:29:54Z</time></trkpt>
<trkpt lat="23.334307" lon="110.035229">
<time>2015-09-27T12:29:55Z</time></trkpt>
<trkpt lat="23.334178" lon="110.034721">
<time>2015-09-27T12:29:56Z</time></trkpt>
<trkpt lat="23.33404" lon="110.034242">
<time>2015-09-27T12:29:57Z</time></trkpt>
<trkpt lat="23.33396" lon="110.033993">
<time>2015-09-27T12:29:58Z</time></trkpt>
<trkpt lat="23.333722" lon="110.033344">
<time>2015-09-27T12:29:59Z</time></trkpt>
<trkpt lat="23.333493" lon="110.032746">
<time>2015-09-27T12:30:00Z</time></trkpt>
<trkpt lat="23.333325" lon="110.032317">
<time>2015-09-27T12:30:01Z</time></trkpt>
<trkpt lat="23.332609" lon="110.030432">
<time>2015-09-27T12:30:02Z</time></trkpt>
<trkpt lat="23.332431" lon="110.029984">
<time>2015-09-27T12:30:03Z</time></trkpt>
<trkpt lat="23.332341" lon="110.029754">
<time>2015-09-27T12:30:04Z</time></trkpt>
<trkpt lat="23.332272" lon="110.029595">
<time>2015-09-27T12:30:05Z</time></trkpt>
<trkpt lat="23.332192" lon="110.029425">
<time>2015-09-27T12:30:06Z</time></trkpt>
<trkpt lat="23.332112" lon="110.029296">
<time>2015-09-27T12:30:07Z</time></trkpt>
<trkpt lat="23.332063" lon="110.029186">
<time>2015-09-27T12:30:08Z</time></trkpt>
<trkpt lat="23.331913" lon="110.028976">
<time>2015-09-27T12:30:09Z</time></trkpt>
<trkpt lat="23.331774" lon="110.028807">
<time>2015-09-27T12:30:10Z</time></trkpt>
<trkpt lat="23.331754" lon="110.028797">
<time>2015-09-27T12:30:11Z</time></trkpt>
<trkpt lat="23.331634" lon="110.028667">
<time>2015-09-27T12:30:12Z</time></trkpt>
<trkpt lat="23.331425" lon="110.028528">
<time>2015-09-27T12:30:13Z</time></trkpt>
<trkpt lat="23.331155" lon="110.028358">
<time>2015-09-27T12:30:14Z</time></trkpt>
<trkpt lat="23.330736" lon="110.028099">
<time>2015-09-27T12:30:15Z</time></trkpt>
<trkpt lat="23.330486" lon="110.027949">
<time>2015-09-27T12:30:16Z</time></trkpt>
<trkpt lat="23.330307" lon="110.02785">
<time>2015-09-27T12:30:17Z</time></trkpt>
<trkpt lat="23.330197" lon="110.02777">
<time>2015-09-27T12:30:18Z</time></trkpt>
<trkpt lat="23.329698" lon="110.027491">
<time>2015-09-27T12:30:19Z</time></trkpt>
<trkpt lat="23.329468" lon="110.027351">
<time>2015-09-27T12:30:20Z</time></trkpt>
<trkpt lat="23.328959" lon="110.027042">
<time>2015-09-27T12:30:21Z</time></trkpt>
<trkpt lat="23.32869" lon="110.026883">
<time>2015-09-27T12:30:22Z</time></trkpt>
<trkpt lat="23.32845" lon="110.026733">
<time>2015-09-27T12:30:23Z</time></trkpt>
<trkpt lat="23.328221" lon="110.026583">
<time>2015-09-27T12:30:24Z</time></trkpt>
<trkpt lat="23.328101" lon="110.026484">
<time>2015-09-27T12:30:25Z</time></trkpt>
<trkpt lat="23.328031" lon="110.026424">
<time>2015-09-27T12:30:26Z</time></trkpt>
<trkpt lat="23.327951" lon="110.026354">
<time>2015-09-27T12:30:27Z</time></trkpt>
<trkpt lat="23.327831" lon="110.026264">
<time>2015-09-27T12:30:28Z</time></trkpt>
<trkpt lat="23.327732" lon="110.026165">
<time>2015-09-27T12:30:29Z</time></trkpt>
<trkpt lat="23.327632" lon="110.026055">
<time>2015-09-27T12:30:30Z</time></trkpt>
<trkpt lat="23.327532" lon="110.025935">
<time>2015-09-27T12:30:31Z</time></trkpt>
<trkpt lat="23.327453" lon="110.025816">
<time>2015-09-27T12:30:32Z</time></trkpt>
<trkpt lat="23.327333" lon="110.025646">
<time>2015-09-27T12:30:33Z</time></trkpt>
<trkpt lat="23.327234" lon="110.025487">
<time>2015-09-27T12:30:34Z</time></trkpt>
<trkpt lat="23.327144" lon="110.025297">
<time>2015-09-27T12:30:35Z</time></trkpt>
<trkpt lat="23.327065" lon="110.025148">
<time>2015-09-27T12:30:36Z</time></trkpt>
<trkpt lat="23.326995" lon="110.024978">
<time>2015-09-27T12:30:37Z</time></trkpt>
<trkpt lat="23.326936" lon="110.024799">
<time>2015-09-27T12:30:38Z</time></trkpt>
<trkpt lat="23.326886" lon="110.024629">
<time>2015-09-27T12:30:39Z</time></trkpt>
<trkpt lat="23.326837" lon="110.02442">
<time>2015-09-27T12:30:40Z</time></trkpt>
<trkpt lat="23.326797" lon="110.02418">
<time>2015-09-27T12:30:41Z</time></trkpt>
<trkpt lat="23.326758" lon="110.023841">
<time>2015-09-27T12:30:42Z</time></trkpt>
<trkpt lat="23.326739" lon="110.023452">
<time>2015-09-27T12:30:43Z</time></trkpt>
<trkpt lat="23.326741" lon="110.022964">
<time>2015-09-27T12:30:44Z</time></trkpt>
<trkpt lat="23.326712" lon="110.022465">
<time>2015-09-27T12:30:45Z</time></trkpt>
<trkpt lat="23.326703" lon="110.022266">
<time>2015-09-27T12:30:46Z</time></trkpt>
<trkpt lat="23.326683" lon="110.022017">
<time>2015-09-27T12:30:47Z</time></trkpt>
<trkpt lat="23.326635" lon="110.021419">
<time>2015-09-27T12:30:48Z</time></trkpt>
<trkpt lat="23.326589" lon="110.019843">
<time>2015-09-27T12:30:49Z</time></trkpt>
<trkpt lat="23.32658" lon="110.019524">
<time>2015-09-27T12:30:50Z</time></trkpt>
<trkpt lat="23.326591" lon="110.019245">
<time>2015-09-27T12:30:51Z</time></trkpt>
<trkpt lat="23.326602" lon="110.018926">
<time>2015-09-27T12:30:52Z</time></trkpt>
<trkpt lat="23.326643" lon="110.018587">
<time>2015-09-27T12:30:53Z</time></trkpt>
<trkpt lat="23.326674" lon="110.018238">
<time>2015-09-27T12:30:54Z</time></trkpt>
<trkpt lat="23.326715" lon="110.017949">
<time>2015-09-27T12:30:55Z</time></trkpt>
<trkpt lat="23.326756" lon="110.01762">
<time>2015-09-27T12:30:56Z</time></trkpt>
<trkpt lat="23.326776" lon="110.017311">
<time>2015-09-27T12:30:57Z</time></trkpt>
<trkpt lat="23.326807" lon="110.016982">
<time>2015-09-27T12:30:58Z</time></trkpt>
<trkpt lat="23.326828" lon="110.016613">
<time>2015-09-27T12:30:59Z</time></trkpt>
<trkpt lat="23.326839" lon="110.016294">
<time>2015-09-27T12:31:00Z</time></trkpt>
<trkpt lat="23.32684" lon="110.015935">
<time>2015-09-27T12:31:01Z</time></trkpt>
<trkpt lat="23.326822" lon="110.015516">
<time>2015-09-27T12:31:02Z</time></trkpt>
<trkpt lat="23.326803" lon="110.015028">
<time>2015-09-27T12:31:03Z</time></trkpt>
<trkpt lat="23.326784" lon="110.0145">
<time>2015-09-27T12:31:04Z</time></trkpt>
<trkpt lat="23.326756" lon="110.013862">
<time>2015-09-27T12:31:05Z</time></trkpt>
<trkpt lat="23.326748" lon="110.013194">
<time>2015-09-27T12:31:06Z</time></trkpt>
<trkpt lat="23.326709" lon="110.012795">
<time>2015-09-27T12:31:07Z</time></trkpt>
<trkpt lat="23.326681" lon="110.012127">
<time>2015-09-27T12:31:08Z</time></trkpt>
<trkpt lat="23.326654" lon="110.01114">
<time>2015-09-27T12:31:09Z</time></trkpt>
<trkpt lat="23.326618" lon="110.009914">
<time>2015-09-27T12:31:10Z</time></trkpt>
<trkpt lat="23.32659" lon="110.009246">
<time>2015-09-27T12:31:11Z</time></trkpt>
<trkpt lat="23.32659" lon="110.009057">
<time>2015-09-27T12:31:12Z</time></trkpt>
<trkpt lat="23.326543" lon="110.00807">
<time>2015-09-27T12:31:13Z</time></trkpt>
<trkpt lat="23.326525" lon="110.007402">
<time>2015-09-27T12:31:14Z</time></trkpt>
<trkpt lat="23.326507" lon="110.006854">
<time>2015-09-27T12:31:15Z</time></trkpt>
<trkpt lat="23.326469" lon="110.006046">
<time>2015-09-27T12:31:16Z</time></trkpt>
<trkpt lat="23.326442" lon="110.005119">
<time>2015-09-27T12:31:17Z</time></trkpt>
<trkpt lat="23.326396" lon="110.003814">
<time>2015-09-27T12:31:18Z</time></trkpt>
<trkpt lat="23.326369" lon="110.002827">
<time>2015-09-27T12:31:19Z</time></trkpt>
<trkpt lat="23.326341" lon="110.002159">
<time>2015-09-27T12:31:20Z</time></trkpt>
<trkpt lat="23.326322" lon="110.00184">
<time>2015-09-27T12:31:21Z</time></trkpt>
<trkpt lat="23.326303" lon="110.001571">
<time>2015-09-27T12:31:22Z</time></trkpt>
<trkpt lat="23.326274" lon="110.001312">
<time>2015-09-27T12:31:23Z</time></trkpt>
<trkpt lat="23.326235" lon="110.001062">
<time>2015-09-27T12:31:24Z</time></trkpt>
<trkpt lat="23.326235" lon="110.001053">
<time>2015-09-27T12:31:25Z</time></trkpt>
<trkpt lat="23.326225" lon="110.000983">
<time>2015-09-27T12:31:26Z</time></trkpt>
<trkpt lat="23.326205" lon="110.000863">
<time>2015-09-27T12:31:27Z</time></trkpt>
<trkpt lat="23.326136" lon="110.000574">
<time>2015-09-27T12:31:28Z</time></trkpt>
<trkpt lat="23.326087" lon="110.000365">
<time>2015-09-27T12:31:29Z</time></trkpt>
<trkpt lat="23.326037" lon="110.000145">
<time>2015-09-27T12:31:30Z</time></trkpt>
<trkpt lat="23.325998" lon="109.999986">
<time>2015-09-27T12:31:31Z</time></trkpt>
<trkpt lat="23.325524" lon="109.998062">
<time>2015-09-27T12:31:32Z</time></trkpt>
<trkpt lat="23.325228" lon="109.996856">
<time>2015-09-27T12:31:33Z</time></trkpt>
<trkpt lat="23.324803" lon="109.995042">
<time>2015-09-27T12:31:34Z</time></trkpt>
<trkpt lat="23.324785" lon="109.994534">
<time>2015-09-27T12:31:35Z</time></trkpt>
<trkpt lat="23.324836" lon="109.994145">
<time>2015-09-27T12:31:36Z</time></trkpt>
<trkpt lat="23.324907" lon="109.993886">
<time>2015-09-27T12:31:37Z</time></trkpt>
<trkpt lat="23.325017" lon="109.993657">
<time>2015-09-27T12:31:38Z</time></trkpt>
<trkpt lat="23.325299" lon="109.993188">
<time>2015-09-27T12:31:39Z</time></trkpt>
<trkpt lat="23.326443" lon="109.991544">
<time>2015-09-27T12:31:40Z</time></trkpt>
<trkpt lat="23.326443" lon="109.991544">
<time>2015-09-27T12:31:41Z</time></trkpt>
<trkpt lat="23.324376" lon="109.990726">
<time>2015-09-27T12:31:42Z</time></trkpt>
<trkpt lat="23.322968" lon="109.990188">
<time>2015-09-27T12:31:43Z</time></trkpt>
<trkpt lat="23.322968" lon="109.990188">
<time>2015-09-27T12:31:44Z</time></trkpt>
<trkpt lat="23.32205" lon="109.989839">
<time>2015-09-27T12:31:45Z</time></trkpt>
<trkpt lat="23.32192" lon="109.98979">
<time>2015-09-27T12:31:46Z</time></trkpt>
<trkpt lat="23.321631" lon="109.98957">
<time>2015-09-27T12:31:47Z</time></trkpt>
<trkpt lat="23.321411" lon="109.989361">
<time>2015-09-27T12:31:48Z</time></trkpt>
<trkpt lat="23.320884" lon="109.988683">
<time>2015-09-27T12:31:49Z</time></trkpt>
<trkpt lat="23.320814" lon="109.988574">
<time>2015-09-27T12:31:50Z</time></trkpt>
<trkpt lat="23.320555" lon="109.988195">
<time>2015-09-27T12:31:51Z</time></trkpt>
<trkpt lat="23.320167" lon="109.987637">
<time>2015-09-27T12:31:52Z</time></trkpt>
<trkpt lat="23.319738" lon="109.987377">
<time>2015-09-27T12:31:53Z</time></trkpt>
<trkpt lat="23.319058" lon="109.987238">
<time>2015-09-27T12:31:54Z</time></trkpt>
<trkpt lat="23.317169" lon="109.987039">
<time>2015-09-27T12:31:55Z</time></trkpt>
<trkpt lat="23.31681" lon="109.986999">
<time>2015-09-27T12:31:56Z</time></trkpt>
<trkpt lat="23.31675" lon="109.986999">
<time>2015-09-27T12:31:57Z</time></trkpt>
<trkpt lat="23.31675" lon="109.986999">
<time>2015-09-27T12:31:58Z</time></trkpt>
<trkpt lat="23.316762" lon="109.986152">
<time>2015-09-27T12:31:59Z</time></trkpt>
<trkpt lat="23.316803" lon="109.985833">
<time>2015-09-27T12:32:00Z</time></trkpt>
<trkpt lat="23.316877" lon="109.981028">
<time>2015-09-27T12:32:01Z</time></trkpt>
<trkpt lat="23.316741" lon="109.979931">
<time>2015-09-27T12:32:02Z</time></trkpt>
<trkpt lat="23.316652" lon="109.979652">
<time>2015-09-27T12:32:03Z</time></trkpt>
<trkpt lat="23.316383" lon="109.979084">
<time>2015-09-27T12:32:04Z</time></trkpt>
<trkpt lat="23.316364" lon="109.978984">
<time>2015-09-27T12:32:05Z</time></trkpt>
<trkpt lat="23.316304" lon="109.978705">
<time>2015-09-27T12:32:06Z</time></trkpt>
<trkpt lat="23.316285" lon="109.978616">
<time>2015-09-27T12:32:07Z</time></trkpt>
<trkpt lat="23.315858" lon="109.977629">
<time>2015-09-27T12:32:08Z</time></trkpt>
<trkpt lat="23.31556" lon="109.976751">
<time>2015-09-27T12:32:09Z</time></trkpt>
<trkpt lat="23.315235" lon="109.975126">
<time>2015-09-27T12:32:10Z</time></trkpt>
<trkpt lat="23.314982" lon="109.972674">
<time>2015-09-27T12:32:11Z</time></trkpt>
<trkpt lat="23.314903" lon="109.972305">
<time>2015-09-27T12:32:12Z</time></trkpt>
<trkpt lat="23.314863" lon="109.972195">
<time>2015-09-27T12:32:13Z</time></trkpt>
<trkpt lat="23.314794" lon="109.972076">
<time>2015-09-27T12:32:14Z</time></trkpt>
<trkpt lat="23.314625" lon="109.971817">
<time>2015-09-27T12:32:15Z</time></trkpt>
<trkpt lat="23.314565" lon="109.971707">
<time>2015-09-27T12:32:16Z</time></trkpt>
<trkpt lat="23.313968" lon="109.97057">
<time>2015-09-27T12:32:17Z</time></trkpt>
<trkpt lat="23.313065" lon="109.968088">
<time>2015-09-27T12:32:18Z</time></trkpt>
<trkpt lat="23.312936" lon="109.967719">
<time>2015-09-27T12:32:19Z</time></trkpt>
<trkpt lat="23.312847" lon="109.96733">
<time>2015-09-27T12:32:20Z</time></trkpt>
<trkpt lat="23.312828" lon="109.96722">
<time>2015-09-27T12:32:21Z</time></trkpt>
<trkpt lat="23.3125" lon="109.966433">
<time>2015-09-27T12:32:22Z</time></trkpt>
<trkpt lat="23.311863" lon="109.965376">
<time>2015-09-27T12:32:23Z</time></trkpt>
<trkpt lat="23.311624" lon="109.965086">
<time>2015-09-27T12:32:24Z</time></trkpt>
<trkpt lat="23.310588" lon="109.963581">
<time>2015-09-27T12:32:25Z</time></trkpt>
<trkpt lat="23.31032" lon="109.963002">
<time>2015-09-27T12:32:26Z</time></trkpt>
<trkpt lat="23.31029" lon="109.962933">
<time>2015-09-27T12:32:27Z</time></trkpt>
<trkpt lat="23.31023" lon="109.962823">
<time>2015-09-27T12:32:28Z</time></trkpt>
<trkpt lat="23.309687" lon="109.96033">
<time>2015-09-27T12:32:29Z</time></trkpt>
<trkpt lat="23.309071" lon="109.958814">
<time>2015-09-27T12:32:30Z</time></trkpt>
<trkpt lat="23.309041" lon="109.958694">
<time>2015-09-27T12:32:31Z</time></trkpt>
<trkpt lat="23.309012" lon="109.958176">
<time>2015-09-27T12:32:32Z</time></trkpt>
<trkpt lat="23.308963" lon="109.957767">
<time>2015-09-27T12:32:33Z</time></trkpt>
<trkpt lat="23.308815" lon="109.957238">
<time>2015-09-27T12:32:34Z</time></trkpt>
<trkpt lat="23.308725" lon="109.956999">
<time>2015-09-27T12:32:35Z</time></trkpt>
<trkpt lat="23.307939" lon="109.955622">
<time>2015-09-27T12:32:36Z</time></trkpt>
<trkpt lat="23.30778" lon="109.955283">
<time>2015-09-27T12:32:37Z</time></trkpt>
<trkpt lat="23.30774" lon="109.955243">
<time>2015-09-27T12:32:38Z</time></trkpt>
<trkpt lat="23.30756" lon="109.955004">
<time>2015-09-27T12:32:39Z</time></trkpt>
<trkpt lat="23.30753" lon="109.954964">
<time>2015-09-27T12:32:40Z</time></trkpt>
<trkpt lat="23.307451" lon="109.954854">
<time>2015-09-27T12:32:41Z</time></trkpt>
<trkpt lat="23.305659" lon="109.951553">
<time>2015-09-27T12:32:42Z</time></trkpt>
<trkpt lat="23.305589" lon="109.951443">
<time>2015-09-27T12:32:43Z</time></trkpt>
<trkpt lat="23.304653" lon="109.949637">
<time>2015-09-27T12:32:44Z</time></trkpt>
<trkpt lat="23.304594" lon="109.949508">
<time>2015-09-27T12:32:45Z</time></trkpt>
<trkpt lat="23.304434" lon="109.949198">
<time>2015-09-27T12:32:46Z</time></trkpt>
<trkpt lat="23.304375" lon="109.949069">
<time>2015-09-27T12:32:47Z</time></trkpt>
<trkpt lat="23.304295" lon="109.948949">
<time>2015-09-27T12:32:48Z</time></trkpt>
<trkpt lat="23.304205" lon="109.948849">
<time>2015-09-27T12:32:49Z</time></trkpt>
<trkpt lat="23.304036" lon="109.94862">
<time>2015-09-27T12:32:50Z</time></trkpt>
<trkpt lat="23.303816" lon="109.94852">
<time>2015-09-27T12:32:51Z</time></trkpt>
<trkpt lat="23.303497" lon="109.94834">
<time>2015-09-27T12:32:52Z</time></trkpt>
<trkpt lat="23.303387" lon="109.948261">
<time>2015-09-27T12:32:53Z</time></trkpt>
<trkpt lat="23.303287" lon="109.948161">
<time>2015-09-27T12:32:54Z</time></trkpt>
<trkpt lat="23.302878" lon="109.947692">
<time>2015-09-27T12:32:55Z</time></trkpt>
<trkpt lat="23.302808" lon="109.947562">
<time>2015-09-27T12:32:56Z</time></trkpt>
<trkpt lat="23.302639" lon="109.947193">
<time>2015-09-27T12:32:57Z</time></trkpt>
<trkpt lat="23.30253" lon="109.946834">
<time>2015-09-27T12:32:58Z</time></trkpt>
<trkpt lat="23.301764" lon="109.945168">
<time>2015-09-27T12:32:59Z</time></trkpt>
<trkpt lat="23.301186" lon="109.94426">
<time>2015-09-27T12:33:00Z</time></trkpt>
<trkpt lat="23.301026" lon="109.94405">
<time>2015-09-27T12:33:01Z</time></trkpt>
<trkpt lat="23.300697" lon="109.943671">
<time>2015-09-27T12:33:02Z</time></trkpt>
<trkpt lat="23.300428" lon="109.943302">
<time>2015-09-27T12:33:03Z</time></trkpt>
<trkpt lat="23.300139" lon="109.942673">
<time>2015-09-27T12:33:04Z</time></trkpt>
<trkpt lat="23.299761" lon="109.941675">
<time>2015-09-27T12:33:05Z</time></trkpt>
<trkpt lat="23.299682" lon="109.941475">
<time>2015-09-27T12:33:06Z</time></trkpt>
<trkpt lat="23.299602" lon="109.941276">
<time>2015-09-27T12:33:07Z</time></trkpt>
<trkpt lat="23.299144" lon="109.940517">
<time>2015-09-27T12:33:08Z</time></trkpt>
<trkpt lat="23.298954" lon="109.940278">
<time>2015-09-27T12:33:09Z</time></trkpt>
<trkpt lat="23.298545" lon="109.939669">
<time>2015-09-27T12:33:10Z</time></trkpt>
<trkpt lat="23.298495" lon="109.939549">
<time>2015-09-27T12:33:11Z</time></trkpt>
<trkpt lat="23.298466" lon="109.93942">
<time>2015-09-27T12:33:12Z</time></trkpt>
<trkpt lat="23.298426" lon="109.93919">
<time>2015-09-27T12:33:13Z</time></trkpt>
<trkpt lat="23.298248" lon="109.938372">
<time>2015-09-27T12:33:14Z</time></trkpt>
<trkpt lat="23.297969" lon="109.937643">
<time>2015-09-27T12:33:15Z</time></trkpt>
<trkpt lat="23.29772" lon="109.937294">
<time>2015-09-27T12:33:16Z</time></trkpt>
<trkpt lat="23.29746" lon="109.936934">
<time>2015-09-27T12:33:17Z</time></trkpt>
<trkpt lat="23.297111" lon="109.936445">
<time>2015-09-27T12:33:18Z</time></trkpt>
<trkpt lat="23.296662" lon="109.936026">
<time>2015-09-27T12:33:19Z</time></trkpt>
<trkpt lat="23.296542" lon="109.935886">
<time>2015-09-27T12:33:20Z</time></trkpt>
<trkpt lat="23.295884" lon="109.934888">
<time>2015-09-27T12:33:21Z</time></trkpt>
<trkpt lat="23.295476" lon="109.93399">
<time>2015-09-27T12:33:22Z</time></trkpt>
<trkpt lat="23.295227" lon="109.933301">
<time>2015-09-27T12:33:23Z</time></trkpt>
<trkpt lat="23.295177" lon="109.933181">
<time>2015-09-27T12:33:24Z</time></trkpt>
<trkpt lat="23.294838" lon="109.932662">
<time>2015-09-27T12:33:25Z</time></trkpt>
<trkpt lat="23.294639" lon="109.932432">
<time>2015-09-27T12:33:26Z</time></trkpt>
<trkpt lat="23.294299" lon="109.932013">
<time>2015-09-27T12:33:27Z</time></trkpt>
<trkpt lat="23.29421" lon="109.931913">
<time>2015-09-27T12:33:28Z</time></trkpt>
<trkpt lat="23.29415" lon="109.931684">
<time>2015-09-27T12:33:29Z</time></trkpt>
<trkpt lat="23.294061" lon="109.931224">
<time>2015-09-27T12:33:30Z</time></trkpt>
<trkpt lat="23.294011" lon="109.931115">
<time>2015-09-27T12:33:31Z</time></trkpt>
<trkpt lat="23.293404" lon="109.928828">
<time>2015-09-27T12:33:32Z</time></trkpt>
<trkpt lat="23.293056" lon="109.92779">
<time>2015-09-27T12:33:33Z</time></trkpt>
<trkpt lat="23.292587" lon="109.926841">
<time>2015-09-27T12:33:34Z</time></trkpt>
<trkpt lat="23.291799" lon="109.925653">
<time>2015-09-27T12:33:35Z</time></trkpt>
<trkpt lat="23.290071" lon="109.923915">
<time>2015-09-27T12:33:36Z</time></trkpt>
<trkpt lat="23.289233" lon="109.922776">
<time>2015-09-27T12:33:37Z</time></trkpt>
<trkpt lat="23.288564" lon="109.922047">
<time>2015-09-27T12:33:38Z</time></trkpt>
<trkpt lat="23.288534" lon="109.922007">
<time>2015-09-27T12:33:39Z</time></trkpt>
<trkpt lat="23.287646" lon="109.920599">
<time>2015-09-27T12:33:40Z</time></trkpt>
<trkpt lat="23.287596" lon="109.920489">
<time>2015-09-27T12:33:41Z</time></trkpt>
<trkpt lat="23.287526" lon="109.920239">
<time>2015-09-27T12:33:42Z</time></trkpt>
<trkpt lat="23.286998" lon="109.918531">
<time>2015-09-27T12:33:43Z</time></trkpt>
<trkpt lat="23.286769" lon="109.917932">
<time>2015-09-27T12:33:44Z</time></trkpt>
<trkpt lat="23.286739" lon="109.917812">
<time>2015-09-27T12:33:45Z</time></trkpt>
<trkpt lat="23.286719" lon="109.917682">
<time>2015-09-27T12:33:46Z</time></trkpt>
<trkpt lat="23.286719" lon="109.917552">
<time>2015-09-27T12:33:47Z</time></trkpt>
<trkpt lat="23.286749" lon="109.917162">
<time>2015-09-27T12:33:48Z</time></trkpt>
<trkpt lat="23.28701" lon="109.916013">
<time>2015-09-27T12:33:49Z</time></trkpt>
<trkpt lat="23.287041" lon="109.915534">
<time>2015-09-27T12:33:50Z</time></trkpt>
<trkpt lat="23.287031" lon="109.915424">
<time>2015-09-27T12:33:51Z</time></trkpt>
<trkpt lat="23.287001" lon="109.915304">
<time>2015-09-27T12:33:52Z</time></trkpt>
<trkpt lat="23.286971" lon="109.915194">
<time>2015-09-27T12:33:53Z</time></trkpt>
<trkpt lat="23.286891" lon="109.915084">
<time>2015-09-27T12:33:54Z</time></trkpt>
<trkpt lat="23.286771" lon="109.914974">
<time>2015-09-27T12:33:55Z</time></trkpt>
<trkpt lat="23.286312" lon="109.914655">
<time>2015-09-27T12:33:56Z</time></trkpt>
<trkpt lat="23.285052" lon="109.914035">
<time>2015-09-27T12:33:57Z</time></trkpt>
<trkpt lat="23.284493" lon="109.913645">
<time>2015-09-27T12:33:58Z</time></trkpt>
<trkpt lat="23.284363" lon="109.913595">
<time>2015-09-27T12:33:59Z</time></trkpt>
<trkpt lat="23.283084" lon="109.913226">
<time>2015-09-27T12:34:00Z</time></trkpt>
<trkpt lat="23.282954" lon="109.913186">
<time>2015-09-27T12:34:01Z</time></trkpt>
<trkpt lat="23.282844" lon="109.913126">
<time>2015-09-27T12:34:02Z</time></trkpt>
<trkpt lat="23.282754" lon="109.913036">
<time>2015-09-27T12:34:03Z</time></trkpt>
<trkpt lat="23.282674" lon="109.912926">
<time>2015-09-27T12:34:04Z</time></trkpt>
<trkpt lat="23.282604" lon="109.912816">
<time>2015-09-27T12:34:05Z</time></trkpt>
<trkpt lat="23.282514" lon="109.912576">
<time>2015-09-27T12:34:06Z</time></trkpt>
<trkpt lat="23.282394" lon="109.912087">
<time>2015-09-27T12:34:07Z</time></trkpt>
<trkpt lat="23.282365" lon="109.911667">
<time>2015-09-27T12:34:08Z</time></trkpt>
<trkpt lat="23.282375" lon="109.911307">
<time>2015-09-27T12:34:09Z</time></trkpt>
<trkpt lat="23.282395" lon="109.911007">
<time>2015-09-27T12:34:10Z</time></trkpt>
<trkpt lat="23.282425" lon="109.910388">
<time>2015-09-27T12:34:11Z</time></trkpt>
<trkpt lat="23.282676" lon="109.909328">
<time>2015-09-27T12:34:12Z</time></trkpt>
<trkpt lat="23.282696" lon="109.909208">
<time>2015-09-27T12:34:13Z</time></trkpt>
<trkpt lat="23.282686" lon="109.909098">
<time>2015-09-27T12:34:14Z</time></trkpt>
<trkpt lat="23.282666" lon="109.908988">
<time>2015-09-27T12:34:15Z</time></trkpt>
<trkpt lat="23.282576" lon="109.908649">
<time>2015-09-27T12:34:16Z</time></trkpt>
<trkpt lat="23.282477" lon="109.907759">
<time>2015-09-27T12:34:17Z</time></trkpt>
<trkpt lat="23.282527" lon="109.90661">
<time>2015-09-27T12:34:18Z</time></trkpt>
<trkpt lat="23.282517" lon="109.9065">
<time>2015-09-27T12:34:19Z</time></trkpt>
<trkpt lat="23.282408" lon="109.90602">
<time>2015-09-27T12:34:20Z</time></trkpt>
<trkpt lat="23.282118" lon="109.9056">
<time>2015-09-27T12:34:21Z</time></trkpt>
<trkpt lat="23.281768" lon="109.90514">
<time>2015-09-27T12:34:22Z</time></trkpt>
<trkpt lat="23.280929" lon="109.903931">
<time>2015-09-27T12:34:23Z</time></trkpt>
<trkpt lat="23.280129" lon="109.902711">
<time>2015-09-27T12:34:24Z</time></trkpt>
<trkpt lat="23.27962" lon="109.901741">
<time>2015-09-27T12:34:25Z</time></trkpt>
<trkpt lat="23.27947" lon="109.901351">
<time>2015-09-27T12:34:26Z</time></trkpt>
<trkpt lat="23.27927" lon="109.900541">
<time>2015-09-27T12:34:27Z</time></trkpt>
<trkpt lat="23.27926" lon="109.900291">
<time>2015-09-27T12:34:28Z</time></trkpt>
<trkpt lat="23.27929" lon="109.899851">
<time>2015-09-27T12:34:29Z</time></trkpt>
<trkpt lat="23.27929" lon="109.899841">
<time>2015-09-27T12:34:30Z</time></trkpt>
<trkpt lat="23.27932" lon="109.899731">
<time>2015-09-27T12:34:31Z</time></trkpt>
<trkpt lat="23.27935" lon="109.899621">
<time>2015-09-27T12:34:32Z</time></trkpt>
<trkpt lat="23.27943" lon="109.899501">
<time>2015-09-27T12:34:33Z</time></trkpt>
<trkpt lat="23.27985" lon="109.899131">
<time>2015-09-27T12:34:34Z</time></trkpt>
<trkpt lat="23.27994" lon="109.899081">
<time>2015-09-27T12:34:35Z</time></trkpt>
<trkpt lat="23.28026" lon="109.898911">
<time>2015-09-27T12:34:36Z</time></trkpt>
<trkpt lat="23.28048" lon="109.898761">
<time>2015-09-27T12:34:37Z</time></trkpt>
<trkpt lat="23.2806" lon="109.898641">
<time>2015-09-27T12:34:38Z</time></trkpt>
<trkpt lat="23.2809" lon="109.898171">
<time>2015-09-27T12:34:39Z</time></trkpt>
<trkpt lat="23.281419" lon="109.896911">
<time>2015-09-27T12:34:40Z</time></trkpt>
<trkpt lat="23.281499" lon="109.896801">
<time>2015-09-27T12:34:41Z</time></trkpt>
<trkpt lat="23.281599" lon="109.896671">
<time>2015-09-27T12:34:42Z</time></trkpt>
<trkpt lat="23.281689" lon="109.896591">
<time>2015-09-27T12:34:43Z</time></trkpt>
<trkpt lat="23.281809" lon="109.896511">
<time>2015-09-27T12:34:44Z</time></trkpt>
<trkpt lat="23.282089" lon="109.896331">
<time>2015-09-27T12:34:45Z</time></trkpt>
<trkpt lat="23.282159" lon="109.896291">
<time>2015-09-27T12:34:46Z</time></trkpt>
<trkpt lat="23.282259" lon="109.896221">
<time>2015-09-27T12:34:47Z</time></trkpt>
<trkpt lat="23.283249" lon="109.895391">
<time>2015-09-27T12:34:48Z</time></trkpt>
<trkpt lat="23.284078" lon="109.894541">
<time>2015-09-27T12:34:49Z</time></trkpt>
<trkpt lat="23.284388" lon="109.894311">
<time>2015-09-27T12:34:50Z</time></trkpt>
<trkpt lat="23.284608" lon="109.894121">
<time>2015-09-27T12:34:51Z</time></trkpt>
<trkpt lat="23.284828" lon="109.893961">
<time>2015-09-27T12:34:52Z</time></trkpt>
<trkpt lat="23.285158" lon="109.893571">
<time>2015-09-27T12:34:53Z</time></trkpt>
<trkpt lat="23.285248" lon="109.893471">
<time>2015-09-27T12:34:54Z</time></trkpt>
<trkpt lat="23.285348" lon="109.893391">
<time>2015-09-27T12:34:55Z</time></trkpt>
<trkpt lat="23.285438" lon="109.893281">
<time>2015-09-27T12:34:56Z</time></trkpt>
<trkpt lat="23.285558" lon="109.89305">
<time>2015-09-27T12:34:57Z</time></trkpt>
<trkpt lat="23.285698" lon="109.89281">
<time>2015-09-27T12:34:58Z</time></trkpt>
<trkpt lat="23.285768" lon="109.89269">
<time>2015-09-27T12:34:59Z</time></trkpt>
<trkpt lat="23.285808" lon="109.89257">
<time>2015-09-27T12:35:00Z</time></trkpt>
<trkpt lat="23.285877" lon="109.89221">
<time>2015-09-27T12:35:01Z</time></trkpt>
<trkpt lat="23.285887" lon="109.89209">
<time>2015-09-27T12:35:02Z</time></trkpt>
<trkpt lat="23.285877" lon="109.89197">
<time>2015-09-27T12:35:03Z</time></trkpt>
<trkpt lat="23.285917" lon="109.89178">
<time>2015-09-27T12:35:04Z</time></trkpt>
<trkpt lat="23.286017" lon="109.8916">
<time>2015-09-27T12:35:05Z</time></trkpt>
<trkpt lat="23.286557" lon="109.89091">
<time>2015-09-27T12:35:06Z</time></trkpt>
<trkpt lat="23.286767" lon="109.8907">
<time>2015-09-27T12:35:07Z</time></trkpt>
<trkpt lat="23.286887" lon="109.89052">
<time>2015-09-27T12:35:08Z</time></trkpt>
<trkpt lat="23.287626" lon="109.889789">
<time>2015-09-27T12:35:09Z</time></trkpt>
<trkpt lat="23.288056" lon="109.889459">
<time>2015-09-27T12:35:10Z</time></trkpt>
<trkpt lat="23.288176" lon="109.889339">
<time>2015-09-27T12:35:11Z</time></trkpt>
<trkpt lat="23.288626" lon="109.888749">
<time>2015-09-27T12:35:12Z</time></trkpt>
<trkpt lat="23.288716" lon="109.888639">
<time>2015-09-27T12:35:13Z</time></trkpt>
<trkpt lat="23.289095" lon="109.888359">
<time>2015-09-27T12:35:14Z</time></trkpt>
<trkpt lat="23.289795" lon="109.887998">
<time>2015-09-27T12:35:15Z</time></trkpt>
<trkpt lat="23.290245" lon="109.887838">
<time>2015-09-27T12:35:16Z</time></trkpt>
<trkpt lat="23.290585" lon="109.887548">
<time>2015-09-27T12:35:17Z</time></trkpt>
<trkpt lat="23.291094" lon="109.886918">
<time>2015-09-27T12:35:18Z</time></trkpt>
<trkpt lat="23.291344" lon="109.886608">
<time>2015-09-27T12:35:19Z</time></trkpt>
<trkpt lat="23.291574" lon="109.886458">
<time>2015-09-27T12:35:20Z</time></trkpt>
<trkpt lat="23.291674" lon="109.886367">
<time>2015-09-27T12:35:21Z</time></trkpt>
<trkpt lat="23.291844" lon="109.886147">
<time>2015-09-27T12:35:22Z</time></trkpt>
<trkpt lat="23.292023" lon="109.885657">
<time>2015-09-27T12:35:23Z</time></trkpt>
<trkpt lat="23.292352" lon="109.884256">
<time>2015-09-27T12:35:24Z</time></trkpt>
<trkpt lat="23.292742" lon="109.883015">
<time>2015-09-27T12:35:25Z</time></trkpt>
<trkpt lat="23.292971" lon="109.882645">
<time>2015-09-27T12:35:26Z</time></trkpt>
<trkpt lat="23.293131" lon="109.882255">
<time>2015-09-27T12:35:27Z</time></trkpt>
<trkpt lat="23.293241" lon="109.881885">
<time>2015-09-27T12:35:28Z</time></trkpt>
<trkpt lat="23.293559" lon="109.879573">
<time>2015-09-27T12:35:29Z</time></trkpt>
<trkpt lat="23.293708" lon="109.878522">
<time>2015-09-27T12:35:30Z</time></trkpt>
<trkpt lat="23.293738" lon="109.878402">
<time>2015-09-27T12:35:31Z</time></trkpt>
<trkpt lat="23.293778" lon="109.878282">
<time>2015-09-27T12:35:32Z</time></trkpt>
<trkpt lat="23.293848" lon="109.878161">
<time>2015-09-27T12:35:33Z</time></trkpt>
<trkpt lat="23.293938" lon="109.878011">
<time>2015-09-27T12:35:34Z</time></trkpt>
<trkpt lat="23.294207" lon="109.877371">
<time>2015-09-27T12:35:35Z</time></trkpt>
<trkpt lat="23.294496" lon="109.87657">
<time>2015-09-27T12:35:36Z</time></trkpt>
<trkpt lat="23.294686" lon="109.876079">
<time>2015-09-27T12:35:37Z</time></trkpt>
<trkpt lat="23.294676" lon="109.875829">
<time>2015-09-27T12:35:38Z</time></trkpt>
<trkpt lat="23.294645" lon="109.875569">
<time>2015-09-27T12:35:39Z</time></trkpt>
<trkpt lat="23.294635" lon="109.875499">
<time>2015-09-27T12:35:40Z</time></trkpt>
<trkpt lat="23.294625" lon="109.875279">
<time>2015-09-27T12:35:41Z</time></trkpt>
<trkpt lat="23.294585" lon="109.875008">
<time>2015-09-27T12:35:42Z</time></trkpt>
<trkpt lat="23.294545" lon="109.874678">
<time>2015-09-27T12:35:43Z</time></trkpt>
<trkpt lat="23.294504" lon="109.874027">
<time>2015-09-27T12:35:44Z</time></trkpt>
<trkpt lat="23.294273" lon="109.872676">
<time>2015-09-27T12:35:45Z</time></trkpt>
<trkpt lat="23.294052" lon="109.872025">
<time>2015-09-27T12:35:46Z</time></trkpt>
<trkpt lat="23.293992" lon="109.871825">
<time>2015-09-27T12:35:47Z</time></trkpt>
<trkpt lat="23.29302" lon="109.869693">
<time>2015-09-27T12:35:48Z</time></trkpt>
<trkpt lat="23.290645" lon="109.864736">
<time>2015-09-27T12:35:49Z</time></trkpt>
<trkpt lat="23.288941" lon="109.861181">
<time>2015-09-27T12:35:50Z</time></trkpt>
<trkpt lat="23.28874" lon="109.860711">
<time>2015-09-27T12:35:51Z</time></trkpt>
<trkpt lat="23.287997" lon="109.858577">
<time>2015-09-27T12:35:52Z</time></trkpt>
<trkpt lat="23.287576" lon="109.857386">
<time>2015-09-27T12:35:53Z</time></trkpt>
<trkpt lat="23.287024" lon="109.855993">
<time>2015-09-27T12:35:54Z</time></trkpt>
<trkpt lat="23.286924" lon="109.855733">
<time>2015-09-27T12:35:55Z</time></trkpt>
<trkpt lat="23.286652" lon="109.854751">
<time>2015-09-27T12:35:56Z</time></trkpt>
<trkpt lat="23.286572" lon="109.854511">
<time>2015-09-27T12:35:57Z</time></trkpt>
<trkpt lat="23.286411" lon="109.85367">
<time>2015-09-27T12:35:58Z</time></trkpt>
<trkpt lat="23.2863" lon="109.853149">
<time>2015-09-27T12:35:59Z</time></trkpt>
<trkpt lat="23.28627" lon="109.852998">
<time>2015-09-27T12:36:00Z</time></trkpt>
<trkpt lat="23.285876" lon="109.850855">
<time>2015-09-27T12:36:01Z</time></trkpt>
<trkpt lat="23.285815" lon="109.850334">
<time>2015-09-27T12:36:02Z</time></trkpt>
<trkpt lat="23.285885" lon="109.849903">
<time>2015-09-27T12:36:03Z</time></trkpt>
<trkpt lat="23.285984" lon="109.849252">
<time>2015-09-27T12:36:04Z</time></trkpt>
<trkpt lat="23.285027" lon="109.845345">
<time>2015-09-27T12:36:05Z</time></trkpt>
<trkpt lat="23.284957" lon="109.845024">
<time>2015-09-27T12:36:06Z</time></trkpt>
<trkpt lat="23.284725" lon="109.844153">
<time>2015-09-27T12:36:07Z</time></trkpt>
<trkpt lat="23.283819" lon="109.840516">
<time>2015-09-27T12:36:08Z</time></trkpt>
<trkpt lat="23.283619" lon="109.840155">
<time>2015-09-27T12:36:09Z</time></trkpt>
<trkpt lat="23.283549" lon="109.840055">
<time>2015-09-27T12:36:10Z</time></trkpt>
<trkpt lat="23.282576" lon="109.838572">
<time>2015-09-27T12:36:11Z</time></trkpt>
<trkpt lat="23.282416" lon="109.838362">
<time>2015-09-27T12:36:12Z</time></trkpt>
<trkpt lat="23.282356" lon="109.838291">
<time>2015-09-27T12:36:13Z</time></trkpt>
<trkpt lat="23.281715" lon="109.838011">
<time>2015-09-27T12:36:14Z</time></trkpt>
<trkpt lat="23.280615" lon="109.83748">
<time>2015-09-27T12:36:15Z</time></trkpt>
<trkpt lat="23.280045" lon="109.83746">
<time>2015-09-27T12:36:16Z</time></trkpt>
<trkpt lat="23.279765" lon="109.83741">
<time>2015-09-27T12:36:17Z</time></trkpt>
<trkpt lat="23.279195" lon="109.83742">
<time>2015-09-27T12:36:18Z</time></trkpt>
<trkpt lat="23.278975" lon="109.83745">
<time>2015-09-27T12:36:19Z</time></trkpt>
<trkpt lat="23.278575" lon="109.83736">
<time>2015-09-27T12:36:20Z</time></trkpt>
<trkpt lat="23.278475" lon="109.83731">
<time>2015-09-27T12:36:21Z</time></trkpt>
<trkpt lat="23.278225" lon="109.837179">
<time>2015-09-27T12:36:22Z</time></trkpt>
<trkpt lat="23.277755" lon="109.836989">
<time>2015-09-27T12:36:23Z</time></trkpt>
<trkpt lat="23.274833" lon="109.835747">
<time>2015-09-27T12:36:24Z</time></trkpt>
<trkpt lat="23.274263" lon="109.835597">
<time>2015-09-27T12:36:25Z</time></trkpt>
<trkpt lat="23.273943" lon="109.835416">
<time>2015-09-27T12:36:26Z</time></trkpt>
<trkpt lat="23.273773" lon="109.835196">
<time>2015-09-27T12:36:27Z</time></trkpt>
<trkpt lat="23.272542" lon="109.834885">
<time>2015-09-27T12:36:28Z</time></trkpt>
<trkpt lat="23.269672" lon="109.834014">
<time>2015-09-27T12:36:29Z</time></trkpt>
<trkpt lat="23.269461" lon="109.833913">
<time>2015-09-27T12:36:30Z</time></trkpt>
<trkpt lat="23.26766" lon="109.833052">
<time>2015-09-27T12:36:31Z</time></trkpt>
<trkpt lat="23.26602" lon="109.83236">
<time>2015-09-27T12:36:32Z</time></trkpt>
<trkpt lat="23.26522" lon="109.83217">
<time>2015-09-27T12:36:33Z</time></trkpt>
<trkpt lat="23.261569" lon="109.831309">
<time>2015-09-27T12:36:34Z</time></trkpt>
<trkpt lat="23.260899" lon="109.831108">
<time>2015-09-27T12:36:35Z</time></trkpt>
<trkpt lat="23.260739" lon="109.831058">
<time>2015-09-27T12:36:36Z</time></trkpt>
<trkpt lat="23.259989" lon="109.830848">
<time>2015-09-27T12:36:37Z</time></trkpt>
<trkpt lat="23.258808" lon="109.830457">
<time>2015-09-27T12:36:38Z</time></trkpt>
<trkpt lat="23.258108" lon="109.830227">
<time>2015-09-27T12:36:39Z</time></trkpt>
<trkpt lat="23.257898" lon="109.830177">
<time>2015-09-27T12:36:40Z</time></trkpt>
<trkpt lat="23.256257" lon="109.829575">
<time>2015-09-27T12:36:41Z</time></trkpt>
<trkpt lat="23.254086" lon="109.828674">
<time>2015-09-27T12:36:42Z</time></trkpt>
<trkpt lat="23.253616" lon="109.828533">
<time>2015-09-27T12:36:43Z</time></trkpt>
<trkpt lat="23.253336" lon="109.828443">
<time>2015-09-27T12:36:44Z</time></trkpt>
<trkpt lat="23.251145" lon="109.827572">
<time>2015-09-27T12:36:45Z</time></trkpt>
<trkpt lat="23.250485" lon="109.827351">
<time>2015-09-27T12:36:46Z</time></trkpt>
<trkpt lat="23.250275" lon="109.827261">
<time>2015-09-27T12:36:47Z</time></trkpt>
<trkpt lat="23.250015" lon="109.827081">
<time>2015-09-27T12:36:48Z</time></trkpt>
<trkpt lat="23.249104" lon="109.826439">
<time>2015-09-27T12:36:49Z</time></trkpt>
<trkpt lat="23.249004" lon="109.826319">
<time>2015-09-27T12:36:50Z</time></trkpt>
<trkpt lat="23.248803" lon="109.826139">
<time>2015-09-27T12:36:51Z</time></trkpt>
<trkpt lat="23.248513" lon="109.825868">
<time>2015-09-27T12:36:52Z</time></trkpt>
<trkpt lat="23.248413" lon="109.825808">
<time>2015-09-27T12:36:53Z</time></trkpt>
<trkpt lat="23.247672" lon="109.825287">
<time>2015-09-27T12:36:54Z</time></trkpt>
<trkpt lat="23.246691" lon="109.824465">
<time>2015-09-27T12:36:55Z</time></trkpt>
<trkpt lat="23.246591" lon="109.824365">
<time>2015-09-27T12:36:56Z</time></trkpt>
<trkpt lat="23.246481" lon="109.824295">
<time>2015-09-27T12:36:57Z</time></trkpt>
<trkpt lat="23.24583" lon="109.823824">
<time>2015-09-27T12:36:58Z</time></trkpt>
<trkpt lat="23.245279" lon="109.823343">
<time>2015-09-27T12:36:59Z</time></trkpt>
<trkpt lat="23.244949" lon="109.823133">
<time>2015-09-27T12:37:00Z</time></trkpt>
<trkpt lat="23.244739" lon="109.822973">
<time>2015-09-27T12:37:01Z</time></trkpt>
<trkpt lat="23.244679" lon="109.822912">
<time>2015-09-27T12:37:02Z</time></trkpt>
<trkpt lat="23.243597" lon="109.822041">
<time>2015-09-27T12:37:03Z</time></trkpt>
<trkpt lat="23.241505" lon="109.820708">
<time>2015-09-27T12:37:04Z</time></trkpt>
<trkpt lat="23.241165" lon="109.820397">
<time>2015-09-27T12:37:05Z</time></trkpt>
<trkpt lat="23.239673" lon="109.818995">
<time>2015-09-27T12:37:06Z</time></trkpt>
<trkpt lat="23.238361" lon="109.817782">
<time>2015-09-27T12:37:07Z</time></trkpt>
<trkpt lat="23.238241" lon="109.817672">
<time>2015-09-27T12:37:08Z</time></trkpt>
<trkpt lat="23.23785" lon="109.817281">
<time>2015-09-27T12:37:09Z</time></trkpt>
<trkpt lat="23.23777" lon="109.817171">
<time>2015-09-27T12:37:10Z</time></trkpt>
<trkpt lat="23.236779" lon="109.816299">
<time>2015-09-27T12:37:11Z</time></trkpt>
<trkpt lat="23.236468" lon="109.815969">
<time>2015-09-27T12:37:12Z</time></trkpt>
<trkpt lat="23.235988" lon="109.815548">
<time>2015-09-27T12:37:13Z</time></trkpt>
<trkpt lat="23.235627" lon="109.815167">
<time>2015-09-27T12:37:14Z</time></trkpt>
<trkpt lat="23.235277" lon="109.814877">
<time>2015-09-27T12:37:15Z</time></trkpt>
<trkpt lat="23.235176" lon="109.814796">
<time>2015-09-27T12:37:16Z</time></trkpt>
<trkpt lat="23.234976" lon="109.814666">
<time>2015-09-27T12:37:17Z</time></trkpt>
<trkpt lat="23.234776" lon="109.814506">
<time>2015-09-27T12:37:18Z</time></trkpt>
<trkpt lat="23.233795" lon="109.813624">
<time>2015-09-27T12:37:19Z</time></trkpt>
<trkpt lat="23.232833" lon="109.812572">
<time>2015-09-27T12:37:20Z</time></trkpt>
<trkpt lat="23.232713" lon="109.812482">
<time>2015-09-27T12:37:21Z</time></trkpt>
<trkpt lat="23.232613" lon="109.812412">
<time>2015-09-27T12:37:22Z</time></trkpt>
<trkpt lat="23.232503" lon="109.812312">
<time>2015-09-27T12:37:23Z</time></trkpt>
<trkpt lat="23.232373" lon="109.812241">
<time>2015-09-27T12:37:24Z</time></trkpt>
<trkpt lat="23.232263" lon="109.812201">
<time>2015-09-27T12:37:25Z</time></trkpt>
<trkpt lat="23.231573" lon="109.812071">
<time>2015-09-27T12:37:26Z</time></trkpt>
<trkpt lat="23.231473" lon="109.812061">
<time>2015-09-27T12:37:27Z</time></trkpt>
<trkpt lat="23.231102" lon="109.811941">
<time>2015-09-27T12:37:28Z</time></trkpt>
<trkpt lat="23.230892" lon="109.811851">
<time>2015-09-27T12:37:29Z</time></trkpt>
<trkpt lat="23.228712" lon="109.811119">
<time>2015-09-27T12:37:30Z</time></trkpt>
<trkpt lat="23.228042" lon="109.810899">
<time>2015-09-27T12:37:31Z</time></trkpt>
<trkpt lat="23.227941" lon="109.810809">
<time>2015-09-27T12:37:32Z</time></trkpt>
<trkpt lat="23.227841" lon="109.810699">
<time>2015-09-27T12:37:33Z</time></trkpt>
<trkpt lat="23.227531" lon="109.810378">
<time>2015-09-27T12:37:34Z</time></trkpt>
<trkpt lat="23.227421" lon="109.810258">
<time>2015-09-27T12:37:35Z</time></trkpt>
<trkpt lat="23.22713" lon="109.809797">
<time>2015-09-27T12:37:36Z</time></trkpt>
<trkpt lat="23.226649" lon="109.809096">
<time>2015-09-27T12:37:37Z</time></trkpt>
<trkpt lat="23.226348" lon="109.808635">
<time>2015-09-27T12:37:38Z</time></trkpt>
<trkpt lat="23.226238" lon="109.808535">
<time>2015-09-27T12:37:39Z</time></trkpt>
<trkpt lat="23.226228" lon="109.808525">
<time>2015-09-27T12:37:40Z</time></trkpt>
<trkpt lat="23.226188" lon="109.808474">
<time>2015-09-27T12:37:41Z</time></trkpt>
<trkpt lat="23.225817" lon="109.807963">
<time>2015-09-27T12:37:42Z</time></trkpt>
<trkpt lat="23.225707" lon="109.807773">
<time>2015-09-27T12:37:43Z</time></trkpt>
<trkpt lat="23.225596" lon="109.807422">
<time>2015-09-27T12:37:44Z</time></trkpt>
<trkpt lat="23.225272" lon="109.805068">
<time>2015-09-27T12:37:45Z</time></trkpt>
<trkpt lat="23.225252" lon="109.804888">
<time>2015-09-27T12:37:46Z</time></trkpt>
<trkpt lat="23.225232" lon="109.804737">
<time>2015-09-27T12:37:47Z</time></trkpt>
<trkpt lat="23.225251" lon="109.804497">
<time>2015-09-27T12:37:48Z</time></trkpt>
<trkpt lat="23.225261" lon="109.804427">
<time>2015-09-27T12:37:49Z</time></trkpt>
<trkpt lat="23.22536" lon="109.803896">
<time>2015-09-27T12:37:50Z</time></trkpt>
<trkpt lat="23.2254" lon="109.803655">
<time>2015-09-27T12:37:51Z</time></trkpt>
<trkpt lat="23.225409" lon="109.803415">
<time>2015-09-27T12:37:52Z</time></trkpt>
<trkpt lat="23.225438" lon="109.802784">
<time>2015-09-27T12:37:53Z</time></trkpt>
<trkpt lat="23.225448" lon="109.802553">
<time>2015-09-27T12:37:54Z</time></trkpt>
<trkpt lat="23.225407" lon="109.802303">
<time>2015-09-27T12:37:55Z</time></trkpt>
<trkpt lat="23.225276" lon="109.801802">
<time>2015-09-27T12:37:56Z</time></trkpt>
<trkpt lat="23.225116" lon="109.801451">
<time>2015-09-27T12:37:57Z</time></trkpt>
<trkpt lat="23.224895" lon="109.80088">
<time>2015-09-27T12:37:58Z</time></trkpt>
<trkpt lat="23.223803" lon="109.799237">
<time>2015-09-27T12:37:59Z</time></trkpt>
<trkpt lat="23.223582" lon="109.799007">
<time>2015-09-27T12:38:00Z</time></trkpt>
<trkpt lat="23.223482" lon="109.798776">
<time>2015-09-27T12:38:01Z</time></trkpt>
<trkpt lat="23.223452" lon="109.798736">
<time>2015-09-27T12:38:02Z</time></trkpt>
<trkpt lat="23.223372" lon="109.798576">
<time>2015-09-27T12:38:03Z</time></trkpt>
<trkpt lat="23.223201" lon="109.798286">
<time>2015-09-27T12:38:04Z</time></trkpt>
<trkpt lat="23.223141" lon="109.798185">
<time>2015-09-27T12:38:05Z</time></trkpt>
<trkpt lat="23.223081" lon="109.798085">
<time>2015-09-27T12:38:06Z</time></trkpt>
<trkpt lat="23.222971" lon="109.797965">
<time>2015-09-27T12:38:07Z</time></trkpt>
<trkpt lat="23.222891" lon="109.797855">
<time>2015-09-27T12:38:08Z</time></trkpt>
<trkpt lat="23.22283" lon="109.797745">
<time>2015-09-27T12:38:09Z</time></trkpt>
<trkpt lat="23.22278" lon="109.797614">
<time>2015-09-27T12:38:10Z</time></trkpt>
<trkpt lat="23.22276" lon="109.797504">
<time>2015-09-27T12:38:11Z</time></trkpt>
<trkpt lat="23.222708" lon="109.796442">
<time>2015-09-27T12:38:12Z</time></trkpt>
<trkpt lat="23.222618" lon="109.795982">
<time>2015-09-27T12:38:13Z</time></trkpt>
<trkpt lat="23.222598" lon="109.795871">
<time>2015-09-27T12:38:14Z</time></trkpt>
<trkpt lat="23.222557" lon="109.795721">
<time>2015-09-27T12:38:15Z</time></trkpt>
<trkpt lat="23.222447" lon="109.795601">
<time>2015-09-27T12:38:16Z</time></trkpt>
<trkpt lat="23.222447" lon="109.795601">
<time>2015-09-27T12:38:17Z</time></trkpt>
<trkpt lat="23.222147" lon="109.795611">
<time>2015-09-27T12:38:18Z</time></trkpt>
<trkpt lat="23.220158" lon="109.795601">
<time>2015-09-27T12:38:19Z</time></trkpt>
<trkpt lat="23.21525" lon="109.795551">
<time>2015-09-27T12:38:20Z</time></trkpt>
<trkpt lat="23.21375" lon="109.795541">
<time>2015-09-27T12:38:21Z</time></trkpt>
<trkpt lat="23.21366" lon="109.795551">
<time>2015-09-27T12:38:22Z</time></trkpt>
<trkpt lat="23.21303" lon="109.795501">
<time>2015-09-27T12:38:23Z</time></trkpt>
<trkpt lat="23.21293" lon="109.795481">
<time>2015-09-27T12:38:24Z</time></trkpt>
<trkpt lat="23.2129" lon="109.795461">
<time>2015-09-27T12:38:25Z</time></trkpt>
<trkpt lat="23.21281" lon="109.795411">
<time>2015-09-27T12:38:26Z</time></trkpt>
<trkpt lat="23.21275" lon="109.795311">
<time>2015-09-27T12:38:27Z</time></trkpt>
<trkpt lat="23.21273" lon="109.795201">
<time>2015-09-27T12:38:28Z</time></trkpt>
<trkpt lat="23.2127" lon="109.79499">
<time>2015-09-27T12:38:29Z</time></trkpt>
<trkpt lat="23.212728" lon="109.793819">
<time>2015-09-27T12:38:30Z</time></trkpt>
<trkpt lat="23.212777" lon="109.793608">
<time>2015-09-27T12:38:31Z</time></trkpt>
<trkpt lat="23.213365" lon="109.792306">
<time>2015-09-27T12:38:32Z</time></trkpt>
<trkpt lat="23.213465" lon="109.792066">
<time>2015-09-27T12:38:33Z</time></trkpt>
<trkpt lat="23.213614" lon="109.791485">
<time>2015-09-27T12:38:34Z</time></trkpt>
<trkpt lat="23.213654" lon="109.791445">
<time>2015-09-27T12:38:35Z</time></trkpt>
<trkpt lat="23.213803" lon="109.790984">
<time>2015-09-27T12:38:36Z</time></trkpt>
<trkpt lat="23.213853" lon="109.790743">
<time>2015-09-27T12:38:37Z</time></trkpt>
<trkpt lat="23.213932" lon="109.790373">
<time>2015-09-27T12:38:38Z</time></trkpt>
<trkpt lat="23.213961" lon="109.789592">
<time>2015-09-27T12:38:39Z</time></trkpt>
<trkpt lat="23.21389" lon="109.789021">
<time>2015-09-27T12:38:40Z</time></trkpt>
<trkpt lat="23.213579" lon="109.787899">
<time>2015-09-27T12:38:41Z</time></trkpt>
<trkpt lat="23.213569" lon="109.787829">
<time>2015-09-27T12:38:42Z</time></trkpt>
<trkpt lat="23.213396" lon="109.786126">
<time>2015-09-27T12:38:43Z</time></trkpt>
<trkpt lat="23.213355" lon="109.785526">
<time>2015-09-27T12:38:44Z</time></trkpt>
<trkpt lat="23.213315" lon="109.784955">
<time>2015-09-27T12:38:45Z</time></trkpt>
<trkpt lat="23.213294" lon="109.784444">
<time>2015-09-27T12:38:46Z</time></trkpt>
<trkpt lat="23.213214" lon="109.784164">
<time>2015-09-27T12:38:47Z</time></trkpt>
<trkpt lat="23.213063" lon="109.783913">
<time>2015-09-27T12:38:48Z</time></trkpt>
<trkpt lat="23.212502" lon="109.782862">
<time>2015-09-27T12:38:49Z</time></trkpt>
<trkpt lat="23.212402" lon="109.782632">
<time>2015-09-27T12:38:50Z</time></trkpt>
<trkpt lat="23.212302" lon="109.782411">
<time>2015-09-27T12:38:51Z</time></trkpt>
<trkpt lat="23.212181" lon="109.782061">
<time>2015-09-27T12:38:52Z</time></trkpt>
<trkpt lat="23.211861" lon="109.78143">
<time>2015-09-27T12:38:53Z</time></trkpt>
<trkpt lat="23.21135" lon="109.780519">
<time>2015-09-27T12:38:54Z</time></trkpt>
<trkpt lat="23.209888" lon="109.778426">
<time>2015-09-27T12:38:55Z</time></trkpt>
<trkpt lat="23.209457" lon="109.777695">
<time>2015-09-27T12:38:56Z</time></trkpt>
<trkpt lat="23.209097" lon="109.777215">
<time>2015-09-27T12:38:57Z</time></trkpt>
<trkpt lat="23.209037" lon="109.777135">
<time>2015-09-27T12:38:58Z</time></trkpt>
<trkpt lat="23.208846" lon="109.776884">
<time>2015-09-27T12:38:59Z</time></trkpt>
<trkpt lat="23.208776" lon="109.776764">
<time>2015-09-27T12:39:00Z</time></trkpt>
<trkpt lat="23.208756" lon="109.776694">
<time>2015-09-27T12:39:01Z</time></trkpt>
<trkpt lat="23.208666" lon="109.776304">
<time>2015-09-27T12:39:02Z</time></trkpt>
<trkpt lat="23.208434" lon="109.774552">
<time>2015-09-27T12:39:03Z</time></trkpt>
<trkpt lat="23.208413" lon="109.773911">
<time>2015-09-27T12:39:04Z</time></trkpt>
<trkpt lat="23.208333" lon="109.773341">
<time>2015-09-27T12:39:05Z</time></trkpt>
<trkpt lat="23.208182" lon="109.77254">
<time>2015-09-27T12:39:06Z</time></trkpt>
<trkpt lat="23.208092" lon="109.772289">
<time>2015-09-27T12:39:07Z</time></trkpt>
<trkpt lat="23.207711" lon="109.771689">
<time>2015-09-27T12:39:08Z</time></trkpt>
<trkpt lat="23.206831" lon="109.770358">
<time>2015-09-27T12:39:09Z</time></trkpt>
<trkpt lat="23.20677" lon="109.770248">
<time>2015-09-27T12:39:10Z</time></trkpt>
<trkpt lat="23.20656" lon="109.770027">
<time>2015-09-27T12:39:11Z</time></trkpt>
<trkpt lat="23.2062" lon="109.769537">
<time>2015-09-27T12:39:12Z</time></trkpt>
<trkpt lat="23.20579" lon="109.768826">
<time>2015-09-27T12:39:13Z</time></trkpt>
<trkpt lat="23.205589" lon="109.768526">
<time>2015-09-27T12:39:14Z</time></trkpt>
<trkpt lat="23.202387" lon="109.763863">
<time>2015-09-27T12:39:15Z</time></trkpt>
<trkpt lat="23.202387" lon="109.763863">
<time>2015-09-27T12:39:16Z</time></trkpt>
<trkpt lat="23.202557" lon="109.763412">
<time>2015-09-27T12:39:17Z</time></trkpt>
<trkpt lat="23.202516" lon="109.762692">
<time>2015-09-27T12:39:18Z</time></trkpt>
<trkpt lat="23.202516" lon="109.762011">
<time>2015-09-27T12:39:19Z</time></trkpt>
<trkpt lat="23.202516" lon="109.762011">
<time>2015-09-27T12:39:20Z</time></trkpt>
<trkpt lat="23.202494" lon="109.7594">
<time>2015-09-27T12:39:21Z</time></trkpt>
<trkpt lat="23.202483" lon="109.757269">
<time>2015-09-27T12:39:22Z</time></trkpt>
<trkpt lat="23.202483" lon="109.757269">
<time>2015-09-27T12:39:23Z</time></trkpt>
<trkpt lat="23.202053" lon="109.757109">
<time>2015-09-27T12:39:24Z</time></trkpt>
<trkpt lat="23.201603" lon="109.756899">
<time>2015-09-27T12:39:25Z</time></trkpt>
<trkpt lat="23.201353" lon="109.756749">
<time>2015-09-27T12:39:26Z</time></trkpt>
<trkpt lat="23.201164" lon="109.756619">
<time>2015-09-27T12:39:27Z</time></trkpt>
<trkpt lat="23.201034" lon="109.756539">
<time>2015-09-27T12:39:28Z</time></trkpt>
<trkpt lat="23.200924" lon="109.756449">
<time>2015-09-27T12:39:29Z</time></trkpt>
<trkpt lat="23.200694" lon="109.756249">
<time>2015-09-27T12:39:30Z</time></trkpt>
<trkpt lat="23.200524" lon="109.756048">
<time>2015-09-27T12:39:31Z</time></trkpt>
<trkpt lat="23.200383" lon="109.755868">
<time>2015-09-27T12:39:32Z</time></trkpt>
<trkpt lat="23.200223" lon="109.755628">
<time>2015-09-27T12:39:33Z</time></trkpt>
<trkpt lat="23.200083" lon="109.755388">
<time>2015-09-27T12:39:34Z</time></trkpt>
<trkpt lat="23.199963" lon="109.755148">
<time>2015-09-27T12:39:35Z</time></trkpt>
<trkpt lat="23.199853" lon="109.754908">
<time>2015-09-27T12:39:36Z</time></trkpt>
<trkpt lat="23.199753" lon="109.754678">
<time>2015-09-27T12:39:37Z</time></trkpt>
<trkpt lat="23.199723" lon="109.754608">
<time>2015-09-27T12:39:38Z</time></trkpt>
<trkpt lat="23.199673" lon="109.754458">
<time>2015-09-27T12:39:39Z</time></trkpt>
<trkpt lat="23.199553" lon="109.754128">
<time>2015-09-27T12:39:40Z</time></trkpt>
<trkpt lat="23.199443" lon="109.753798">
<time>2015-09-27T12:39:41Z</time></trkpt>
<trkpt lat="23.199363" lon="109.753588">
<time>2015-09-27T12:39:42Z</time></trkpt>
<trkpt lat="23.199273" lon="109.753308">
<time>2015-09-27T12:39:43Z</time></trkpt>
<trkpt lat="23.199133" lon="109.752968">
<time>2015-09-27T12:39:44Z</time></trkpt>
<trkpt lat="23.199003" lon="109.752737">
<time>2015-09-27T12:39:45Z</time></trkpt>
<trkpt lat="23.198873" lon="109.752507">
<time>2015-09-27T12:39:46Z</time></trkpt>
<trkpt lat="23.198653" lon="109.752207">
<time>2015-09-27T12:39:47Z</time></trkpt>
<trkpt lat="23.198443" lon="109.751957">
<time>2015-09-27T12:39:48Z</time></trkpt>
<trkpt lat="23.198233" lon="109.751777">
<time>2015-09-27T12:39:49Z</time></trkpt>
<trkpt lat="23.198043" lon="109.751627">
<time>2015-09-27T12:39:50Z</time></trkpt>
<trkpt lat="23.197853" lon="109.751497">
<time>2015-09-27T12:39:51Z</time></trkpt>
<trkpt lat="23.197653" lon="109.751377">
<time>2015-09-27T12:39:52Z</time></trkpt>
<trkpt lat="23.197423" lon="109.751247">
<time>2015-09-27T12:39:53Z</time></trkpt>
<trkpt lat="23.197373" lon="109.751227">
<time>2015-09-27T12:39:54Z</time></trkpt>
<trkpt lat="23.196603" lon="109.750907">
<time>2015-09-27T12:39:55Z</time></trkpt>
<trkpt lat="23.195334" lon="109.750407">
<time>2015-09-27T12:39:56Z</time></trkpt>
<trkpt lat="23.195134" lon="109.750337">
<time>2015-09-27T12:39:57Z</time></trkpt>
<trkpt lat="23.194874" lon="109.750197">
<time>2015-09-27T12:39:58Z</time></trkpt>
<trkpt lat="23.194564" lon="109.750007">
<time>2015-09-27T12:39:59Z</time></trkpt>
<trkpt lat="23.194394" lon="109.749897">
<time>2015-09-27T12:40:00Z</time></trkpt>
<trkpt lat="23.194204" lon="109.749747">
<time>2015-09-27T12:40:01Z</time></trkpt>
<trkpt lat="23.194024" lon="109.749577">
<time>2015-09-27T12:40:02Z</time></trkpt>
<trkpt lat="23.193864" lon="109.749407">
<time>2015-09-27T12:40:03Z</time></trkpt>
<trkpt lat="23.193704" lon="109.749207">
<time>2015-09-27T12:40:04Z</time></trkpt>
<trkpt lat="23.193554" lon="109.749017">
<time>2015-09-27T12:40:05Z</time></trkpt>
<trkpt lat="23.193414" lon="109.748797">
<time>2015-09-27T12:40:06Z</time></trkpt>
<trkpt lat="23.193274" lon="109.748577">
<time>2015-09-27T12:40:07Z</time></trkpt>
<trkpt lat="23.193124" lon="109.748357">
<time>2015-09-27T12:40:08Z</time></trkpt>
<trkpt lat="23.193024" lon="109.748197">
<time>2015-09-27T12:40:09Z</time></trkpt>
<trkpt lat="23.189855" lon="109.743637">
<time>2015-09-27T12:40:10Z</time></trkpt>
<trkpt lat="23.189805" lon="109.743567">
<time>2015-09-27T12:40:11Z</time></trkpt>
<trkpt lat="23.186797" lon="109.739019">
<time>2015-09-27T12:40:12Z</time></trkpt>
<trkpt lat="23.186288" lon="109.738189">
<time>2015-09-27T12:40:13Z</time></trkpt>
<trkpt lat="23.186088" lon="109.737779">
<time>2015-09-27T12:40:14Z</time></trkpt>
<trkpt lat="23.185818" lon="109.73697">
<time>2015-09-27T12:40:15Z</time></trkpt>
<trkpt lat="23.183752" lon="109.730493">
<time>2015-09-27T12:40:16Z</time></trkpt>
<trkpt lat="23.183612" lon="109.730133">
<time>2015-09-27T12:40:17Z</time></trkpt>
<trkpt lat="23.183522" lon="109.729944">
<time>2015-09-27T12:40:18Z</time></trkpt>
<trkpt lat="23.183423" lon="109.729754">
<time>2015-09-27T12:40:19Z</time></trkpt>
<trkpt lat="23.181695" lon="109.727436">
<time>2015-09-27T12:40:20Z</time></trkpt>
<trkpt lat="23.180277" lon="109.725427">
<time>2015-09-27T12:40:21Z</time></trkpt>
<trkpt lat="23.179877" lon="109.724868">
<time>2015-09-27T12:40:22Z</time></trkpt>
<trkpt lat="23.17827" lon="109.72266">
<time>2015-09-27T12:40:23Z</time></trkpt>
<trkpt lat="23.17802" lon="109.72236">
<time>2015-09-27T12:40:24Z</time></trkpt>
<trkpt lat="23.17782" lon="109.72217">
<time>2015-09-27T12:40:25Z</time></trkpt>
<trkpt lat="23.177391" lon="109.721761">
<time>2015-09-27T12:40:26Z</time></trkpt>
<trkpt lat="23.173576" lon="109.718205">
<time>2015-09-27T12:40:27Z</time></trkpt>
<trkpt lat="23.173516" lon="109.718155">
<time>2015-09-27T12:40:28Z</time></trkpt>
<trkpt lat="23.171708" lon="109.716407">
<time>2015-09-27T12:40:29Z</time></trkpt>
<trkpt lat="23.169542" lon="109.71393">
<time>2015-09-27T12:40:30Z</time></trkpt>
<trkpt lat="23.168304" lon="109.712662">
<time>2015-09-27T12:40:31Z</time></trkpt>
<trkpt lat="23.166666" lon="109.711064">
<time>2015-09-27T12:40:32Z</time></trkpt>
<trkpt lat="23.166247" lon="109.710665">
<time>2015-09-27T12:40:33Z</time></trkpt>
<trkpt lat="23.166047" lon="109.710475">
<time>2015-09-27T12:40:34Z</time></trkpt>
<trkpt lat="23.165987" lon="109.710415">
<time>2015-09-27T12:40:35Z</time></trkpt>
<trkpt lat="23.165548" lon="109.709986">
<time>2015-09-27T12:40:36Z</time></trkpt>
<trkpt lat="23.165039" lon="109.709487">
<time>2015-09-27T12:40:37Z</time></trkpt>
<trkpt lat="23.164629" lon="109.709067">
<time>2015-09-27T12:40:38Z</time></trkpt>
<trkpt lat="23.16455" lon="109.708987">
<time>2015-09-27T12:40:39Z</time></trkpt>
<trkpt lat="23.16425" lon="109.708668">
<time>2015-09-27T12:40:40Z</time></trkpt>
<trkpt lat="23.163771" lon="109.708129">
<time>2015-09-27T12:40:41Z</time></trkpt>
<trkpt lat="23.163302" lon="109.70755">
<time>2015-09-27T12:40:42Z</time></trkpt>
<trkpt lat="23.163003" lon="109.70715">
<time>2015-09-27T12:40:43Z</time></trkpt>
<trkpt lat="23.162623" lon="109.706631">
<time>2015-09-27T12:40:44Z</time></trkpt>
<trkpt lat="23.161945" lon="109.705583">
<time>2015-09-27T12:40:45Z</time></trkpt>
<trkpt lat="23.161147" lon="109.704285">
<time>2015-09-27T12:40:46Z</time></trkpt>
<trkpt lat="23.160349" lon="109.703007">
<time>2015-09-27T12:40:47Z</time></trkpt>
<trkpt lat="23.159801" lon="109.702118">
<time>2015-09-27T12:40:48Z</time></trkpt>
<trkpt lat="23.159143" lon="109.70105">
<time>2015-09-27T12:40:49Z</time></trkpt>
<trkpt lat="23.158534" lon="109.700082">
<time>2015-09-27T12:40:50Z</time></trkpt>
<trkpt lat="23.158375" lon="109.699812">
<time>2015-09-27T12:40:51Z</time></trkpt>
<trkpt lat="23.158106" lon="109.699323">
<time>2015-09-27T12:40:52Z</time></trkpt>
<trkpt lat="23.157946" lon="109.699064">
<time>2015-09-27T12:40:53Z</time></trkpt>
<trkpt lat="23.157737" lon="109.698744">
<time>2015-09-27T12:40:54Z</time></trkpt>
<trkpt lat="23.157158" lon="109.697856">
<time>2015-09-27T12:40:55Z</time></trkpt>
<trkpt lat="23.15671" lon="109.697107">
<time>2015-09-27T12:40:56Z</time></trkpt>
<trkpt lat="23.155882" lon="109.69577">
<time>2015-09-27T12:40:57Z</time></trkpt>
<trkpt lat="23.155134" lon="109.694602">
<time>2015-09-27T12:40:58Z</time></trkpt>
<trkpt lat="23.154426" lon="109.693454">
<time>2015-09-27T12:40:59Z</time></trkpt>
<trkpt lat="23.154307" lon="109.693245">
<time>2015-09-27T12:41:00Z</time></trkpt>
<trkpt lat="23.154187" lon="109.693015">
<time>2015-09-27T12:41:01Z</time></trkpt>
<trkpt lat="23.154018" lon="109.692656">
<time>2015-09-27T12:41:02Z</time></trkpt>
<trkpt lat="23.153909" lon="109.692316">
<time>2015-09-27T12:41:03Z</time></trkpt>
<trkpt lat="23.153779" lon="109.691837">
<time>2015-09-27T12:41:04Z</time></trkpt>
<trkpt lat="23.153631" lon="109.690999">
<time>2015-09-27T12:41:05Z</time></trkpt>
<trkpt lat="23.153463" lon="109.690021">
<time>2015-09-27T12:41:06Z</time></trkpt>
<trkpt lat="23.153433" lon="109.689811">
<time>2015-09-27T12:41:07Z</time></trkpt>
<trkpt lat="23.153393" lon="109.689622">
<time>2015-09-27T12:41:08Z</time></trkpt>
<trkpt lat="23.153354" lon="109.689412">
<time>2015-09-27T12:41:09Z</time></trkpt>
<trkpt lat="23.153294" lon="109.689252">
<time>2015-09-27T12:41:10Z</time></trkpt>
<trkpt lat="23.153254" lon="109.689133">
<time>2015-09-27T12:41:11Z</time></trkpt>
<trkpt lat="23.153214" lon="109.689013">
<time>2015-09-27T12:41:12Z</time></trkpt>
<trkpt lat="23.153025" lon="109.688624">
<time>2015-09-27T12:41:13Z</time></trkpt>
<trkpt lat="23.152806" lon="109.688184">
<time>2015-09-27T12:41:14Z</time></trkpt>
<trkpt lat="23.152647" lon="109.687875">
<time>2015-09-27T12:41:15Z</time></trkpt>
<trkpt lat="23.152507" lon="109.687586">
<time>2015-09-27T12:41:16Z</time></trkpt>
<trkpt lat="23.15188" lon="109.686338">
<time>2015-09-27T12:41:17Z</time></trkpt>
<trkpt lat="23.151571" lon="109.685729">
<time>2015-09-27T12:41:18Z</time></trkpt>
<trkpt lat="23.151252" lon="109.685091">
<time>2015-09-27T12:41:19Z</time></trkpt>
<trkpt lat="23.150973" lon="109.684512">
<time>2015-09-27T12:41:20Z</time></trkpt>
<trkpt lat="23.150714" lon="109.684013">
<time>2015-09-27T12:41:21Z</time></trkpt>
<trkpt lat="23.150565" lon="109.683714">
<time>2015-09-27T12:41:22Z</time></trkpt>
<trkpt lat="23.150346" lon="109.683264">
<time>2015-09-27T12:41:23Z</time></trkpt>
<trkpt lat="23.150216" lon="109.682985">
<time>2015-09-27T12:41:24Z</time></trkpt>
<trkpt lat="23.149997" lon="109.682566">
<time>2015-09-27T12:41:25Z</time></trkpt>
<trkpt lat="23.149848" lon="109.682287">
<time>2015-09-27T12:41:26Z</time></trkpt>
<trkpt lat="23.149708" lon="109.681997">
<time>2015-09-27T12:41:27Z</time></trkpt>
<trkpt lat="23.14936" lon="109.681299">
<time>2015-09-27T12:41:28Z</time></trkpt>
<trkpt lat="23.148961" lon="109.6805">
<time>2015-09-27T12:41:29Z</time></trkpt>
<trkpt lat="23.148374" lon="109.679303">
<time>2015-09-27T12:41:30Z</time></trkpt>
<trkpt lat="23.147667" lon="109.677866">
<time>2015-09-27T12:41:31Z</time></trkpt>
<trkpt lat="23.147517" lon="109.677567">
<time>2015-09-27T12:41:32Z</time></trkpt>
<trkpt lat="23.147099" lon="109.676868">
<time>2015-09-27T12:41:33Z</time></trkpt>
<trkpt lat="23.14655" lon="109.676239">
<time>2015-09-27T12:41:34Z</time></trkpt>
<trkpt lat="23.146411" lon="109.67611">
<time>2015-09-27T12:41:35Z</time></trkpt>
<trkpt lat="23.146002" lon="109.675721">
<time>2015-09-27T12:41:36Z</time></trkpt>
<trkpt lat="23.145004" lon="109.674793">
<time>2015-09-27T12:41:37Z</time></trkpt>
<trkpt lat="23.144295" lon="109.674164">
<time>2015-09-27T12:41:38Z</time></trkpt>
<trkpt lat="23.144125" lon="109.674004">
<time>2015-09-27T12:41:39Z</time></trkpt>
<trkpt lat="23.142459" lon="109.672428">
<time>2015-09-27T12:41:40Z</time></trkpt>
<trkpt lat="23.14192" lon="109.671939">
<time>2015-09-27T12:41:41Z</time></trkpt>
<trkpt lat="23.141501" lon="109.67157">
<time>2015-09-27T12:41:42Z</time></trkpt>
<trkpt lat="23.140952" lon="109.671051">
<time>2015-09-27T12:41:43Z</time></trkpt>
<trkpt lat="23.140503" lon="109.670632">
<time>2015-09-27T12:41:44Z</time></trkpt>
<trkpt lat="23.140443" lon="109.670582">
<time>2015-09-27T12:41:45Z</time></trkpt>
<trkpt lat="23.140394" lon="109.670542">
<time>2015-09-27T12:41:46Z</time></trkpt>
<trkpt lat="23.138887" lon="109.669135">
<time>2015-09-27T12:41:47Z</time></trkpt>
<trkpt lat="23.138039" lon="109.668257">
<time>2015-09-27T12:41:48Z</time></trkpt>
<trkpt lat="23.137939" lon="109.668157">
<time>2015-09-27T12:41:49Z</time></trkpt>
<trkpt lat="23.136842" lon="109.66703">
<time>2015-09-27T12:41:50Z</time></trkpt>
<trkpt lat="23.135166" lon="109.665204">
<time>2015-09-27T12:41:51Z</time></trkpt>
<trkpt lat="23.133899" lon="109.663797">
<time>2015-09-27T12:41:52Z</time></trkpt>
<trkpt lat="23.132852" lon="109.66262">
<time>2015-09-27T12:41:53Z</time></trkpt>
<trkpt lat="23.131585" lon="109.661283">
<time>2015-09-27T12:41:54Z</time></trkpt>
<trkpt lat="23.131525" lon="109.661213">
<time>2015-09-27T12:41:55Z</time></trkpt>
<trkpt lat="23.130926" lon="109.660524">
<time>2015-09-27T12:41:56Z</time></trkpt>
<trkpt lat="23.130528" lon="109.659966">
<time>2015-09-27T12:41:57Z</time></trkpt>
<trkpt lat="23.130508" lon="109.659926">
<time>2015-09-27T12:41:58Z</time></trkpt>
<trkpt lat="23.12971" lon="109.658728">
<time>2015-09-27T12:41:59Z</time></trkpt>
<trkpt lat="23.129401" lon="109.658269">
<time>2015-09-27T12:42:00Z</time></trkpt>
<trkpt lat="23.128415" lon="109.656783">
<time>2015-09-27T12:42:01Z</time></trkpt>
<trkpt lat="23.127388" lon="109.655336">
<time>2015-09-27T12:42:02Z</time></trkpt>
<trkpt lat="23.125343" lon="109.652741">
<time>2015-09-27T12:42:03Z</time></trkpt>
<trkpt lat="23.123947" lon="109.651055">
<time>2015-09-27T12:42:04Z</time></trkpt>
<trkpt lat="23.122999" lon="109.649917">
<time>2015-09-27T12:42:05Z</time></trkpt>
<trkpt lat="23.1227" lon="109.649568">
<time>2015-09-27T12:42:06Z</time></trkpt>
<trkpt lat="23.121862" lon="109.64862">
<time>2015-09-27T12:42:07Z</time></trkpt>
<trkpt lat="23.121682" lon="109.64841">
<time>2015-09-27T12:42:08Z</time></trkpt>
<trkpt lat="23.121293" lon="109.647971">
<time>2015-09-27T12:42:09Z</time></trkpt>
<trkpt lat="23.120356" lon="109.646933">
<time>2015-09-27T12:42:10Z</time></trkpt>
<trkpt lat="23.119967" lon="109.646504">
<time>2015-09-27T12:42:11Z</time></trkpt>
<trkpt lat="23.1185" lon="109.644848">
<time>2015-09-27T12:42:12Z</time></trkpt>
<trkpt lat="23.117822" lon="109.644089">
<time>2015-09-27T12:42:13Z</time></trkpt>
<trkpt lat="23.116774" lon="109.642922">
<time>2015-09-27T12:42:14Z</time></trkpt>
<trkpt lat="23.114759" lon="109.640586">
<time>2015-09-27T12:42:15Z</time></trkpt>
<trkpt lat="23.114559" lon="109.640357">
<time>2015-09-27T12:42:16Z</time></trkpt>
<trkpt lat="23.11427" lon="109.640027">
<time>2015-09-27T12:42:17Z</time></trkpt>
<trkpt lat="23.113551" lon="109.639189">
<time>2015-09-27T12:42:18Z</time></trkpt>
<trkpt lat="23.113452" lon="109.639079">
<time>2015-09-27T12:42:19Z</time></trkpt>
<trkpt lat="23.111386" lon="109.636704">
<time>2015-09-27T12:42:20Z</time></trkpt>
<trkpt lat="23.111256" lon="109.636544">
<time>2015-09-27T12:42:21Z</time></trkpt>
<trkpt lat="23.111067" lon="109.636294">
<time>2015-09-27T12:42:22Z</time></trkpt>
<trkpt lat="23.110937" lon="109.636115">
<time>2015-09-27T12:42:23Z</time></trkpt>
<trkpt lat="23.10979" lon="109.634577">
<time>2015-09-27T12:42:24Z</time></trkpt>
<trkpt lat="23.10972" lon="109.634448">
<time>2015-09-27T12:42:25Z</time></trkpt>
<trkpt lat="23.109461" lon="109.634008">
<time>2015-09-27T12:42:26Z</time></trkpt>
<trkpt lat="23.109371" lon="109.633849">
<time>2015-09-27T12:42:27Z</time></trkpt>
<trkpt lat="23.109112" lon="109.633379">
<time>2015-09-27T12:42:28Z</time></trkpt>
<trkpt lat="23.108972" lon="109.63314">
<time>2015-09-27T12:42:29Z</time></trkpt>
<trkpt lat="23.108943" lon="109.63309">
<time>2015-09-27T12:42:30Z</time></trkpt>
<trkpt lat="23.108903" lon="109.63301">
<time>2015-09-27T12:42:31Z</time></trkpt>
<trkpt lat="23.108863" lon="109.63287">
<time>2015-09-27T12:42:32Z</time></trkpt>
<trkpt lat="23.108823" lon="109.632771">
<time>2015-09-27T12:42:33Z</time></trkpt>
<trkpt lat="23.108783" lon="109.632641">
<time>2015-09-27T12:42:34Z</time></trkpt>
<trkpt lat="23.108753" lon="109.632481">
<time>2015-09-27T12:42:35Z</time></trkpt>
<trkpt lat="23.108724" lon="109.632321">
<time>2015-09-27T12:42:36Z</time></trkpt>
<trkpt lat="23.108476" lon="109.630674">
<time>2015-09-27T12:42:37Z</time></trkpt>
<trkpt lat="23.108298" lon="109.629526">
<time>2015-09-27T12:42:38Z</time></trkpt>
<trkpt lat="23.107842" lon="109.626051">
<time>2015-09-27T12:42:39Z</time></trkpt>
<trkpt lat="23.107864" lon="109.625003">
<time>2015-09-27T12:42:40Z</time></trkpt>
<trkpt lat="23.10824" lon="109.619061">
<time>2015-09-27T12:42:41Z</time></trkpt>
<trkpt lat="23.108331" lon="109.617902">
<time>2015-09-27T12:42:42Z</time></trkpt>
<trkpt lat="23.108473" lon="109.615855">
<time>2015-09-27T12:42:43Z</time></trkpt>
<trkpt lat="23.108473" lon="109.615815">
<time>2015-09-27T12:42:44Z</time></trkpt>
<trkpt lat="23.108483" lon="109.615755">
<time>2015-09-27T12:42:45Z</time></trkpt>
<trkpt lat="23.108494" lon="109.615575">
<time>2015-09-27T12:42:46Z</time></trkpt>
<trkpt lat="23.108575" lon="109.614177">
<time>2015-09-27T12:42:47Z</time></trkpt>
<trkpt lat="23.108625" lon="109.613437">
<time>2015-09-27T12:42:48Z</time></trkpt>
<trkpt lat="23.108636" lon="109.612998">
<time>2015-09-27T12:42:49Z</time></trkpt>
<trkpt lat="23.108646" lon="109.612338">
<time>2015-09-27T12:42:50Z</time></trkpt>
<trkpt lat="23.108627" lon="109.611729">
<time>2015-09-27T12:42:51Z</time></trkpt>
<trkpt lat="23.108607" lon="109.61076">
<time>2015-09-27T12:42:52Z</time></trkpt>
<trkpt lat="23.108588" lon="109.610081">
<time>2015-09-27T12:42:53Z</time></trkpt>
<trkpt lat="23.108578" lon="109.610031">
<time>2015-09-27T12:42:54Z</time></trkpt>
<trkpt lat="23.108232" lon="109.601827">
<time>2015-09-27T12:42:55Z</time></trkpt>
<trkpt lat="23.108232" lon="109.601807">
<time>2015-09-27T12:42:56Z</time></trkpt>
<trkpt lat="23.108213" lon="109.600777">
<time>2015-09-27T12:42:57Z</time></trkpt>
<trkpt lat="23.108173" lon="109.600048">
<time>2015-09-27T12:42:58Z</time></trkpt>
<trkpt lat="23.108153" lon="109.599378">
<time>2015-09-27T12:42:59Z</time></trkpt>
<trkpt lat="23.108153" lon="109.599328">
<time>2015-09-27T12:43:00Z</time></trkpt>
<trkpt lat="23.108074" lon="109.597499">
<time>2015-09-27T12:43:01Z</time></trkpt>
<trkpt lat="23.108074" lon="109.597349">
<time>2015-09-27T12:43:02Z</time></trkpt>
<trkpt lat="23.108074" lon="109.597299">
<time>2015-09-27T12:43:03Z</time></trkpt>
<trkpt lat="23.108024" lon="109.596139">
<time>2015-09-27T12:43:04Z</time></trkpt>
<trkpt lat="23.108014" lon="109.595869">
<time>2015-09-27T12:43:05Z</time></trkpt>
<trkpt lat="23.107964" lon="109.594889">
<time>2015-09-27T12:43:06Z</time></trkpt>
<trkpt lat="23.107884" lon="109.5936">
<time>2015-09-27T12:43:07Z</time></trkpt>
<trkpt lat="23.107784" lon="109.59241">
<time>2015-09-27T12:43:08Z</time></trkpt>
<trkpt lat="23.107754" lon="109.59212">
<time>2015-09-27T12:43:09Z</time></trkpt>
<trkpt lat="23.107754" lon="109.59212">
<time>2015-09-27T12:43:10Z</time></trkpt>
<trkpt lat="23.107754" lon="109.59206">
<time>2015-09-27T12:43:11Z</time></trkpt>
<trkpt lat="23.107724" lon="109.59114">
<time>2015-09-27T12:43:12Z</time></trkpt>
<trkpt lat="23.107724" lon="109.59094">
<time>2015-09-27T12:43:13Z</time></trkpt>
<trkpt lat="23.107694" lon="109.58995">
<time>2015-09-27T12:43:14Z</time></trkpt>
<trkpt lat="23.107663" lon="109.58878">
<time>2015-09-27T12:43:15Z</time></trkpt>
<trkpt lat="23.107633" lon="109.58776">
<time>2015-09-27T12:43:16Z</time></trkpt>
<trkpt lat="23.107633" lon="109.58768">
<time>2015-09-27T12:43:17Z</time></trkpt>
<trkpt lat="23.107623" lon="109.58762">
<time>2015-09-27T12:43:18Z</time></trkpt>
<trkpt lat="23.107573" lon="109.58559">
<time>2015-09-27T12:43:19Z</time></trkpt>
<trkpt lat="23.107562" lon="109.58522">
<time>2015-09-27T12:43:20Z</time></trkpt>
<trkpt lat="23.107552" lon="109.584959">
<time>2015-09-27T12:43:21Z</time></trkpt>
<trkpt lat="23.107542" lon="109.584539">
<time>2015-09-27T12:43:22Z</time></trkpt>
<trkpt lat="23.107542" lon="109.584379">
<time>2015-09-27T12:43:23Z</time></trkpt>
<trkpt lat="23.107522" lon="109.583989">
<time>2015-09-27T12:43:24Z</time></trkpt>
<trkpt lat="23.107491" lon="109.582809">
<time>2015-09-27T12:43:25Z</time></trkpt>
<trkpt lat="23.107481" lon="109.582239">
<time>2015-09-27T12:43:26Z</time></trkpt>
<trkpt lat="23.107481" lon="109.582189">
<time>2015-09-27T12:43:27Z</time></trkpt>
<trkpt lat="23.10743" lon="109.580598">
<time>2015-09-27T12:43:28Z</time></trkpt>
<trkpt lat="23.10743" lon="109.580448">
<time>2015-09-27T12:43:29Z</time></trkpt>
<trkpt lat="23.1074" lon="109.579608">
<time>2015-09-27T12:43:30Z</time></trkpt>
<trkpt lat="23.107389" lon="109.579007">
<time>2015-09-27T12:43:31Z</time></trkpt>
<trkpt lat="23.107389" lon="109.578847">
<time>2015-09-27T12:43:32Z</time></trkpt>
<trkpt lat="23.107369" lon="109.578507">
<time>2015-09-27T12:43:33Z</time></trkpt>
<trkpt lat="23.107369" lon="109.578417">
<time>2015-09-27T12:43:34Z</time></trkpt>
<trkpt lat="23.107369" lon="109.578187">
<time>2015-09-27T12:43:35Z</time></trkpt>
<trkpt lat="23.107359" lon="109.577937">
<time>2015-09-27T12:43:36Z</time></trkpt>
<trkpt lat="23.107328" lon="109.577236">
<time>2015-09-27T12:43:37Z</time></trkpt>
<trkpt lat="23.107206" lon="109.573914">
<time>2015-09-27T12:43:38Z</time></trkpt>
<trkpt lat="23.107123" lon="109.571622">
<time>2015-09-27T12:43:39Z</time></trkpt>
<trkpt lat="23.107092" lon="109.570651">
<time>2015-09-27T12:43:40Z</time></trkpt>
<trkpt lat="23.106918" lon="109.566637">
<time>2015-09-27T12:43:41Z</time></trkpt>
<trkpt lat="23.106867" lon="109.565606">
<time>2015-09-27T12:43:42Z</time></trkpt>
<trkpt lat="23.106805" lon="109.564194">
<time>2015-09-27T12:43:43Z</time></trkpt>
<trkpt lat="23.106784" lon="109.563594">
<time>2015-09-27T12:43:44Z</time></trkpt>
<trkpt lat="23.106774" lon="109.563414">
<time>2015-09-27T12:43:45Z</time></trkpt>
<trkpt lat="23.106743" lon="109.562663">
<time>2015-09-27T12:43:46Z</time></trkpt>
<trkpt lat="23.106702" lon="109.561671">
<time>2015-09-27T12:43:47Z</time></trkpt>
<trkpt lat="23.106692" lon="109.561651">
<time>2015-09-27T12:43:48Z</time></trkpt>
<trkpt lat="23.106649" lon="109.560049">
<time>2015-09-27T12:43:49Z</time></trkpt>
<trkpt lat="23.106596" lon="109.557916">
<time>2015-09-27T12:43:50Z</time></trkpt>
<trkpt lat="23.106447" lon="109.552738">
<time>2015-09-27T12:43:51Z</time></trkpt>
<trkpt lat="23.106447" lon="109.552547">
<time>2015-09-27T12:43:52Z</time></trkpt>
<trkpt lat="23.106447" lon="109.552307">
<time>2015-09-27T12:43:53Z</time></trkpt>
<trkpt lat="23.106447" lon="109.552287">
<time>2015-09-27T12:43:54Z</time></trkpt>
<trkpt lat="23.106447" lon="109.552267">
<time>2015-09-27T12:43:55Z</time></trkpt>
<trkpt lat="23.106446" lon="109.552147">
<time>2015-09-27T12:43:56Z</time></trkpt>
<trkpt lat="23.106456" lon="109.551986">
<time>2015-09-27T12:43:57Z</time></trkpt>
<trkpt lat="23.106456" lon="109.551956">
<time>2015-09-27T12:43:58Z</time></trkpt>
<trkpt lat="23.106476" lon="109.551806">
<time>2015-09-27T12:43:59Z</time></trkpt>
<trkpt lat="23.106495" lon="109.551636">
<time>2015-09-27T12:44:00Z</time></trkpt>
<trkpt lat="23.106525" lon="109.551526">
<time>2015-09-27T12:44:01Z</time></trkpt>
<trkpt lat="23.106565" lon="109.551355">
<time>2015-09-27T12:44:02Z</time></trkpt>
<trkpt lat="23.106615" lon="109.551205">
<time>2015-09-27T12:44:03Z</time></trkpt>
<trkpt lat="23.106654" lon="109.551055">
<time>2015-09-27T12:44:04Z</time></trkpt>
<trkpt lat="23.106823" lon="109.550654">
<time>2015-09-27T12:44:05Z</time></trkpt>
<trkpt lat="23.107072" lon="109.550063">
<time>2015-09-27T12:44:06Z</time></trkpt>
<trkpt lat="23.107162" lon="109.549883">
<time>2015-09-27T12:44:07Z</time></trkpt>
<trkpt lat="23.107182" lon="109.549833">
<time>2015-09-27T12:44:08Z</time></trkpt>
<trkpt lat="23.107381" lon="109.549522">
<time>2015-09-27T12:44:09Z</time></trkpt>
<trkpt lat="23.108956" lon="109.547188">
<time>2015-09-27T12:44:10Z</time></trkpt>
<trkpt lat="23.110152" lon="109.545424">
<time>2015-09-27T12:44:11Z</time></trkpt>
<trkpt lat="23.110501" lon="109.544913">
<time>2015-09-27T12:44:12Z</time></trkpt>
<trkpt lat="23.11072" lon="109.544582">
<time>2015-09-27T12:44:13Z</time></trkpt>
<trkpt lat="23.110939" lon="109.544262">
<time>2015-09-27T12:44:14Z</time></trkpt>
<trkpt lat="23.111069" lon="109.544061">
<time>2015-09-27T12:44:15Z</time></trkpt>
<trkpt lat="23.111228" lon="109.543821">
<time>2015-09-27T12:44:16Z</time></trkpt>
<trkpt lat="23.111607" lon="109.54327">
<time>2015-09-27T12:44:17Z</time></trkpt>
<trkpt lat="23.111926" lon="109.542789">
<time>2015-09-27T12:44:18Z</time></trkpt>
<trkpt lat="23.112145" lon="109.542468">
<time>2015-09-27T12:44:19Z</time></trkpt>
<trkpt lat="23.112175" lon="109.542408">
<time>2015-09-27T12:44:20Z</time></trkpt>
<trkpt lat="23.112374" lon="109.542117">
<time>2015-09-27T12:44:21Z</time></trkpt>
<trkpt lat="23.112593" lon="109.541786">
<time>2015-09-27T12:44:22Z</time></trkpt>
<trkpt lat="23.112762" lon="109.541486">
<time>2015-09-27T12:44:23Z</time></trkpt>
<trkpt lat="23.112842" lon="109.541325">
<time>2015-09-27T12:44:24Z</time></trkpt>
<trkpt lat="23.112942" lon="109.541105">
<time>2015-09-27T12:44:25Z</time></trkpt>
<trkpt lat="23.113051" lon="109.540834">
<time>2015-09-27T12:44:26Z</time></trkpt>
<trkpt lat="23.11324" lon="109.540333">
<time>2015-09-27T12:44:27Z</time></trkpt>
<trkpt lat="23.113995" lon="109.538269">
<time>2015-09-27T12:44:28Z</time></trkpt>
<trkpt lat="23.115107" lon="109.535242">
<time>2015-09-27T12:44:29Z</time></trkpt>
<trkpt lat="23.115187" lon="109.535161">
<time>2015-09-27T12:44:30Z</time></trkpt>
<trkpt lat="23.115793" lon="109.533517">
<time>2015-09-27T12:44:31Z</time></trkpt>
<trkpt lat="23.117142" lon="109.529568">
<time>2015-09-27T12:44:32Z</time></trkpt>
<trkpt lat="23.117351" lon="109.528946">
<time>2015-09-27T12:44:33Z</time></trkpt>
<trkpt lat="23.11741" lon="109.528746">
<time>2015-09-27T12:44:34Z</time></trkpt>
<trkpt lat="23.117599" lon="109.528204">
<time>2015-09-27T12:44:35Z</time></trkpt>
<trkpt lat="23.117727" lon="109.527653">
<time>2015-09-27T12:44:36Z</time></trkpt>
<trkpt lat="23.118052" lon="109.525587">
<time>2015-09-27T12:44:37Z</time></trkpt>
<trkpt lat="23.118267" lon="109.523963">
<time>2015-09-27T12:44:38Z</time></trkpt>
<trkpt lat="23.118385" lon="109.523291">
<time>2015-09-27T12:44:39Z</time></trkpt>
<trkpt lat="23.118395" lon="109.523191">
<time>2015-09-27T12:44:40Z</time></trkpt>
<trkpt lat="23.118434" lon="109.52272">
<time>2015-09-27T12:44:41Z</time></trkpt>
<trkpt lat="23.118502" lon="109.522018">
<time>2015-09-27T12:44:42Z</time></trkpt>
<trkpt lat="23.118648" lon="109.520604">
<time>2015-09-27T12:44:43Z</time></trkpt>
<trkpt lat="23.118765" lon="109.519481">
<time>2015-09-27T12:44:44Z</time></trkpt>
<trkpt lat="23.118901" lon="109.518147">
<time>2015-09-27T12:44:45Z</time></trkpt>
<trkpt lat="23.119175" lon="109.515991">
<time>2015-09-27T12:44:46Z</time></trkpt>
<trkpt lat="23.119351" lon="109.514748">
<time>2015-09-27T12:44:47Z</time></trkpt>
<trkpt lat="23.119488" lon="109.513785">
<time>2015-09-27T12:44:48Z</time></trkpt>
<trkpt lat="23.119616" lon="109.512842">
<time>2015-09-27T12:44:49Z</time></trkpt>
<trkpt lat="23.119753" lon="109.51201">
<time>2015-09-27T12:44:50Z</time></trkpt>
<trkpt lat="23.120127" lon="109.510034">
<time>2015-09-27T12:44:51Z</time></trkpt>
<trkpt lat="23.120394" lon="109.508831">
<time>2015-09-27T12:44:52Z</time></trkpt>
<trkpt lat="23.120561" lon="109.507938">
<time>2015-09-27T12:44:53Z</time></trkpt>
<trkpt lat="23.120698" lon="109.507075">
<time>2015-09-27T12:44:54Z</time></trkpt>
<trkpt lat="23.120806" lon="109.506233">
<time>2015-09-27T12:44:55Z</time></trkpt>
<trkpt lat="23.120825" lon="109.506113">
<time>2015-09-27T12:44:56Z</time></trkpt>
<trkpt lat="23.121619" lon="109.500596">
<time>2015-09-27T12:44:57Z</time></trkpt>
<trkpt lat="23.121697" lon="109.500015">
<time>2015-09-27T12:44:58Z</time></trkpt>
<trkpt lat="23.121951" lon="109.498279">
<time>2015-09-27T12:44:59Z</time></trkpt>
<trkpt lat="23.122089" lon="109.497337">
<time>2015-09-27T12:45:00Z</time></trkpt>
<trkpt lat="23.122108" lon="109.497096">
<time>2015-09-27T12:45:01Z</time></trkpt>
<trkpt lat="23.122166" lon="109.496584">
<time>2015-09-27T12:45:02Z</time></trkpt>
<trkpt lat="23.122273" lon="109.495561">
<time>2015-09-27T12:45:03Z</time></trkpt>
<trkpt lat="23.122301" lon="109.494829">
<time>2015-09-27T12:45:04Z</time></trkpt>
<trkpt lat="23.122329" lon="109.494077">
<time>2015-09-27T12:45:05Z</time></trkpt>
<trkpt lat="23.122387" lon="109.493595">
<time>2015-09-27T12:45:06Z</time></trkpt>
<trkpt lat="23.122407" lon="109.493455">
<time>2015-09-27T12:45:07Z</time></trkpt>
<trkpt lat="23.122426" lon="109.493355">
<time>2015-09-27T12:45:08Z</time></trkpt>
<trkpt lat="23.122466" lon="109.493214">
<time>2015-09-27T12:45:09Z</time></trkpt>
<trkpt lat="23.122743" lon="109.492231">
<time>2015-09-27T12:45:10Z</time></trkpt>
<trkpt lat="23.122911" lon="109.491579">
<time>2015-09-27T12:45:11Z</time></trkpt>
<trkpt lat="23.123039" lon="109.491108">
<time>2015-09-27T12:45:12Z</time></trkpt>
<trkpt lat="23.123148" lon="109.490687">
<time>2015-09-27T12:45:13Z</time></trkpt>
<trkpt lat="23.123217" lon="109.490376">
<time>2015-09-27T12:45:14Z</time></trkpt>
<trkpt lat="23.123257" lon="109.490155">
<time>2015-09-27T12:45:15Z</time></trkpt>
<trkpt lat="23.123276" lon="109.489884">
<time>2015-09-27T12:45:16Z</time></trkpt>
<trkpt lat="23.123295" lon="109.489704">
<time>2015-09-27T12:45:17Z</time></trkpt>
<trkpt lat="23.123285" lon="109.489533">
<time>2015-09-27T12:45:18Z</time></trkpt>
<trkpt lat="23.123277" lon="109.486876">
<time>2015-09-27T12:45:19Z</time></trkpt>
<trkpt lat="23.12323" lon="109.481039">
<time>2015-09-27T12:45:20Z</time></trkpt>
<trkpt lat="23.123261" lon="109.47797">
<time>2015-09-27T12:45:21Z</time></trkpt>
<trkpt lat="23.12326" lon="109.47792">
<time>2015-09-27T12:45:22Z</time></trkpt>
<trkpt lat="23.12327" lon="109.477709">
<time>2015-09-27T12:45:23Z</time></trkpt>
<trkpt lat="23.123269" lon="109.477478">
<time>2015-09-27T12:45:24Z</time></trkpt>
<trkpt lat="23.123269" lon="109.477478">
<time>2015-09-27T12:45:25Z</time></trkpt>
<trkpt lat="23.123386" lon="109.476456">
<time>2015-09-27T12:45:26Z</time></trkpt>
<trkpt lat="23.123474" lon="109.475683">
<time>2015-09-27T12:45:27Z</time></trkpt>
<trkpt lat="23.123483" lon="109.475212">
<time>2015-09-27T12:45:28Z</time></trkpt>
<trkpt lat="23.123461" lon="109.474711">
<time>2015-09-27T12:45:29Z</time></trkpt>
<trkpt lat="23.123369" lon="109.474079">
<time>2015-09-27T12:45:30Z</time></trkpt>
<trkpt lat="23.123004" lon="109.472154">
<time>2015-09-27T12:45:31Z</time></trkpt>
<trkpt lat="23.122933" lon="109.471693">
<time>2015-09-27T12:45:32Z</time></trkpt>
<trkpt lat="23.122901" lon="109.47085">
<time>2015-09-27T12:45:33Z</time></trkpt>
<trkpt lat="23.122909" lon="109.470289">
<time>2015-09-27T12:45:34Z</time></trkpt>
<trkpt lat="23.123084" lon="109.468474">
<time>2015-09-27T12:45:35Z</time></trkpt>
<trkpt lat="23.123094" lon="109.468414">
<time>2015-09-27T12:45:36Z</time></trkpt>
<trkpt lat="23.123378" lon="109.466128">
<time>2015-09-27T12:45:37Z</time></trkpt>
<trkpt lat="23.123406" lon="109.465657">
<time>2015-09-27T12:45:38Z</time></trkpt>
<trkpt lat="23.123406" lon="109.465657">
<time>2015-09-27T12:45:39Z</time></trkpt>
<trkpt lat="23.123522" lon="109.463852">
<time>2015-09-27T12:45:40Z</time></trkpt>
<trkpt lat="23.123693" lon="109.460564">
<time>2015-09-27T12:45:41Z</time></trkpt>
<trkpt lat="23.123739" lon="109.459111">
<time>2015-09-27T12:45:42Z</time></trkpt>
<trkpt lat="23.123748" lon="109.45869">
<time>2015-09-27T12:45:43Z</time></trkpt>
<trkpt lat="23.123767" lon="109.458289">
<time>2015-09-27T12:45:44Z</time></trkpt>
<trkpt lat="23.123826" lon="109.457777">
<time>2015-09-27T12:45:45Z</time></trkpt>
<trkpt lat="23.123885" lon="109.457417">
<time>2015-09-27T12:45:46Z</time></trkpt>
<trkpt lat="23.123994" lon="109.456996">
<time>2015-09-27T12:45:47Z</time></trkpt>
<trkpt lat="23.124024" lon="109.456895">
<time>2015-09-27T12:45:48Z</time></trkpt>
<trkpt lat="23.124153" lon="109.456555">
<time>2015-09-27T12:45:49Z</time></trkpt>
<trkpt lat="23.124441" lon="109.455903">
<time>2015-09-27T12:45:50Z</time></trkpt>
<trkpt lat="23.12467" lon="109.455482">
<time>2015-09-27T12:45:51Z</time></trkpt>
<trkpt lat="23.12473" lon="109.455372">
<time>2015-09-27T12:45:52Z</time></trkpt>
<trkpt lat="23.124939" lon="109.455011">
<time>2015-09-27T12:45:53Z</time></trkpt>
<trkpt lat="23.125238" lon="109.45449">
<time>2015-09-27T12:45:54Z</time></trkpt>
<trkpt lat="23.125297" lon="109.45438">
<time>2015-09-27T12:45:55Z</time></trkpt>
<trkpt lat="23.125536" lon="109.453959">
<time>2015-09-27T12:45:56Z</time></trkpt>
<trkpt lat="23.125706" lon="109.453648">
<time>2015-09-27T12:45:57Z</time></trkpt>
<trkpt lat="23.125855" lon="109.453357">
<time>2015-09-27T12:45:58Z</time></trkpt>
<trkpt lat="23.125994" lon="109.452997">
<time>2015-09-27T12:45:59Z</time></trkpt>
<trkpt lat="23.126093" lon="109.452716">
<time>2015-09-27T12:46:00Z</time></trkpt>
<trkpt lat="23.127146" lon="109.449609">
<time>2015-09-27T12:46:01Z</time></trkpt>
<trkpt lat="23.127275" lon="109.449209">
<time>2015-09-27T12:46:02Z</time></trkpt>
<trkpt lat="23.127315" lon="109.449108">
<time>2015-09-27T12:46:03Z</time></trkpt>
<trkpt lat="23.12795" lon="109.447255">
<time>2015-09-27T12:46:04Z</time></trkpt>
<trkpt lat="23.12797" lon="109.447195">
<time>2015-09-27T12:46:05Z</time></trkpt>
<trkpt lat="23.12808" lon="109.446854">
<time>2015-09-27T12:46:06Z</time></trkpt>
<trkpt lat="23.128586" lon="109.445421">
<time>2015-09-27T12:46:07Z</time></trkpt>
<trkpt lat="23.129063" lon="109.444049">
<time>2015-09-27T12:46:08Z</time></trkpt>
<trkpt lat="23.129511" lon="109.442716">
<time>2015-09-27T12:46:09Z</time></trkpt>
<trkpt lat="23.130107" lon="109.441013">
<time>2015-09-27T12:46:10Z</time></trkpt>
<trkpt lat="23.130565" lon="109.439701">
<time>2015-09-27T12:46:11Z</time></trkpt>
<trkpt lat="23.130773" lon="109.43911">
<time>2015-09-27T12:46:12Z</time></trkpt>
<trkpt lat="23.13131" lon="109.437537">
<time>2015-09-27T12:46:13Z</time></trkpt>
<trkpt lat="23.131589" lon="109.436736">
<time>2015-09-27T12:46:14Z</time></trkpt>
<trkpt lat="23.132823" lon="109.433161">
<time>2015-09-27T12:46:15Z</time></trkpt>
<trkpt lat="23.133529" lon="109.430998">
<time>2015-09-27T12:46:16Z</time></trkpt>
<trkpt lat="23.133778" lon="109.430367">
<time>2015-09-27T12:46:17Z</time></trkpt>
<trkpt lat="23.134167" lon="109.429536">
<time>2015-09-27T12:46:18Z</time></trkpt>
<trkpt lat="23.134545" lon="109.428796">
<time>2015-09-27T12:46:19Z</time></trkpt>
<trkpt lat="23.134735" lon="109.428425">
<time>2015-09-27T12:46:20Z</time></trkpt>
<trkpt lat="23.135273" lon="109.427354">
<time>2015-09-27T12:46:21Z</time></trkpt>
<trkpt lat="23.135492" lon="109.426853">
<time>2015-09-27T12:46:22Z</time></trkpt>
<trkpt lat="23.135662" lon="109.426403">
<time>2015-09-27T12:46:23Z</time></trkpt>
<trkpt lat="23.135921" lon="109.425542">
<time>2015-09-27T12:46:24Z</time></trkpt>
<trkpt lat="23.13594" lon="109.425432">
<time>2015-09-27T12:46:25Z</time></trkpt>
<trkpt lat="23.136527" lon="109.422749">
<time>2015-09-27T12:46:26Z</time></trkpt>
<trkpt lat="23.136845" lon="109.421268">
<time>2015-09-27T12:46:27Z</time></trkpt>
<trkpt lat="23.136875" lon="109.421148">
<time>2015-09-27T12:46:28Z</time></trkpt>
<trkpt lat="23.136925" lon="109.420678">
<time>2015-09-27T12:46:29Z</time></trkpt>
<trkpt lat="23.136924" lon="109.420458">
<time>2015-09-27T12:46:30Z</time></trkpt>
<trkpt lat="23.136904" lon="109.420137">
<time>2015-09-27T12:46:31Z</time></trkpt>
<trkpt lat="23.136834" lon="109.419707">
<time>2015-09-27T12:46:32Z</time></trkpt>
<trkpt lat="23.136774" lon="109.419487">
<time>2015-09-27T12:46:33Z</time></trkpt>
<trkpt lat="23.136733" lon="109.419297">
<time>2015-09-27T12:46:34Z</time></trkpt>
<trkpt lat="23.136563" lon="109.418856">
<time>2015-09-27T12:46:35Z</time></trkpt>
<trkpt lat="23.136423" lon="109.418476">
<time>2015-09-27T12:46:36Z</time></trkpt>
<trkpt lat="23.136192" lon="109.418006">
<time>2015-09-27T12:46:37Z</time></trkpt>
<trkpt lat="23.136012" lon="109.417646">
<time>2015-09-27T12:46:38Z</time></trkpt>
<trkpt lat="23.135882" lon="109.417416">
<time>2015-09-27T12:46:39Z</time></trkpt>
<trkpt lat="23.135722" lon="109.417085">
<time>2015-09-27T12:46:40Z</time></trkpt>
<trkpt lat="23.135572" lon="109.416735">
<time>2015-09-27T12:46:41Z</time></trkpt>
<trkpt lat="23.135541" lon="109.416615">
<time>2015-09-27T12:46:42Z</time></trkpt>
<trkpt lat="23.135441" lon="109.416315">
<time>2015-09-27T12:46:43Z</time></trkpt>
<trkpt lat="23.135411" lon="109.416205">
<time>2015-09-27T12:46:44Z</time></trkpt>
<trkpt lat="23.13519" lon="109.415114">
<time>2015-09-27T12:46:45Z</time></trkpt>
<trkpt lat="23.13514" lon="109.414894">
<time>2015-09-27T12:46:46Z</time></trkpt>
<trkpt lat="23.13498" lon="109.414094">
<time>2015-09-27T12:46:47Z</time></trkpt>
<trkpt lat="23.13497" lon="109.414054">
<time>2015-09-27T12:46:48Z</time></trkpt>
<trkpt lat="23.134759" lon="109.412973">
<time>2015-09-27T12:46:49Z</time></trkpt>
<trkpt lat="23.134749" lon="109.412933">
<time>2015-09-27T12:46:50Z</time></trkpt>
<trkpt lat="23.134558" lon="109.411863">
<time>2015-09-27T12:46:51Z</time></trkpt>
<trkpt lat="23.134488" lon="109.411483">
<time>2015-09-27T12:46:52Z</time></trkpt>
<trkpt lat="23.134458" lon="109.411273">
<time>2015-09-27T12:46:53Z</time></trkpt>
<trkpt lat="23.134378" lon="109.410833">
<time>2015-09-27T12:46:54Z</time></trkpt>
<trkpt lat="23.134298" lon="109.410473">
<time>2015-09-27T12:46:55Z</time></trkpt>
<trkpt lat="23.134167" lon="109.409853">
<time>2015-09-27T12:46:56Z</time></trkpt>
<trkpt lat="23.134007" lon="109.409122">
<time>2015-09-27T12:46:57Z</time></trkpt>
<trkpt lat="23.133887" lon="109.408562">
<time>2015-09-27T12:46:58Z</time></trkpt>
<trkpt lat="23.133756" lon="109.407962">
<time>2015-09-27T12:46:59Z</time></trkpt>
<trkpt lat="23.133596" lon="109.407232">
<time>2015-09-27T12:47:00Z</time></trkpt>
<trkpt lat="23.133356" lon="109.406082">
<time>2015-09-27T12:47:01Z</time></trkpt>
<trkpt lat="23.133136" lon="109.405052">
<time>2015-09-27T12:47:02Z</time></trkpt>
<trkpt lat="23.133126" lon="109.404992">
<time>2015-09-27T12:47:03Z</time></trkpt>
<trkpt lat="23.132665" lon="109.402802">
<time>2015-09-27T12:47:04Z</time></trkpt>
<trkpt lat="23.132475" lon="109.401892">
<time>2015-09-27T12:47:05Z</time></trkpt>
<trkpt lat="23.132365" lon="109.401483">
<time>2015-09-27T12:47:06Z</time></trkpt>
<trkpt lat="23.132245" lon="109.401183">
<time>2015-09-27T12:47:07Z</time></trkpt>
<trkpt lat="23.131815" lon="109.400213">
<time>2015-09-27T12:47:08Z</time></trkpt>
<trkpt lat="23.130935" lon="109.398303">
<time>2015-09-27T12:47:09Z</time></trkpt>
<trkpt lat="23.130835" lon="109.398074">
<time>2015-09-27T12:47:10Z</time></trkpt>
<trkpt lat="23.130705" lon="109.397764">
<time>2015-09-27T12:47:11Z</time></trkpt>
<trkpt lat="23.130565" lon="109.397504">
<time>2015-09-27T12:47:12Z</time></trkpt>
<trkpt lat="23.130425" lon="109.397284">
<time>2015-09-27T12:47:13Z</time></trkpt>
<trkpt lat="23.130276" lon="109.397064">
<time>2015-09-27T12:47:14Z</time></trkpt>
<trkpt lat="23.130126" lon="109.396894">
<time>2015-09-27T12:47:15Z</time></trkpt>
<trkpt lat="23.130056" lon="109.396814">
<time>2015-09-27T12:47:16Z</time></trkpt>
<trkpt lat="23.128946" lon="109.395605">
<time>2015-09-27T12:47:17Z</time></trkpt>
<trkpt lat="23.128506" lon="109.395095">
<time>2015-09-27T12:47:18Z</time></trkpt>
<trkpt lat="23.128227" lon="109.394675">
<time>2015-09-27T12:47:19Z</time></trkpt>
<trkpt lat="23.128067" lon="109.394365">
<time>2015-09-27T12:47:20Z</time></trkpt>
<trkpt lat="23.127827" lon="109.393736">
<time>2015-09-27T12:47:21Z</time></trkpt>
<trkpt lat="23.127707" lon="109.393416">
<time>2015-09-27T12:47:22Z</time></trkpt>
<trkpt lat="23.127617" lon="109.393166">
<time>2015-09-27T12:47:23Z</time></trkpt>
<trkpt lat="23.127437" lon="109.392696">
<time>2015-09-27T12:47:24Z</time></trkpt>
<trkpt lat="23.126878" lon="109.391197">
<time>2015-09-27T12:47:25Z</time></trkpt>
<trkpt lat="23.126868" lon="109.391147">
<time>2015-09-27T12:47:26Z</time></trkpt>
<trkpt lat="23.126808" lon="109.390978">
<time>2015-09-27T12:47:27Z</time></trkpt>
<trkpt lat="23.126748" lon="109.390738">
<time>2015-09-27T12:47:28Z</time></trkpt>
<trkpt lat="23.126718" lon="109.390568">
<time>2015-09-27T12:47:29Z</time></trkpt>
<trkpt lat="23.126698" lon="109.390348">
<time>2015-09-27T12:47:30Z</time></trkpt>
<trkpt lat="23.126678" lon="109.390118">
<time>2015-09-27T12:47:31Z</time></trkpt>
<trkpt lat="23.126678" lon="109.389858">
<time>2015-09-27T12:47:32Z</time></trkpt>
<trkpt lat="23.126688" lon="109.389349">
<time>2015-09-27T12:47:33Z</time></trkpt>
<trkpt lat="23.126739" lon="109.387051">
<time>2015-09-27T12:47:34Z</time></trkpt>
<trkpt lat="23.12678" lon="109.385312">
<time>2015-09-27T12:47:35Z</time></trkpt>
<trkpt lat="23.12681" lon="109.384843">
<time>2015-09-27T12:47:36Z</time></trkpt>
<trkpt lat="23.126841" lon="109.384623">
<time>2015-09-27T12:47:37Z</time></trkpt>
<trkpt lat="23.126931" lon="109.384213">
<time>2015-09-27T12:47:38Z</time></trkpt>
<trkpt lat="23.127241" lon="109.382975">
<time>2015-09-27T12:47:39Z</time></trkpt>
<trkpt lat="23.127692" lon="109.381187">
<time>2015-09-27T12:47:40Z</time></trkpt>
<trkpt lat="23.128003" lon="109.379888">
<time>2015-09-27T12:47:41Z</time></trkpt>
<trkpt lat="23.128324" lon="109.3786">
<time>2015-09-27T12:47:42Z</time></trkpt>
<trkpt lat="23.128344" lon="109.37843">
<time>2015-09-27T12:47:43Z</time></trkpt>
<trkpt lat="23.128344" lon="109.37831">
<time>2015-09-27T12:47:44Z</time></trkpt>
<trkpt lat="23.128344" lon="109.37818">
<time>2015-09-27T12:47:45Z</time></trkpt>
<trkpt lat="23.128334" lon="109.37805">
<time>2015-09-27T12:47:46Z</time></trkpt>
<trkpt lat="23.128315" lon="109.377921">
<time>2015-09-27T12:47:47Z</time></trkpt>
<trkpt lat="23.128285" lon="109.377761">
<time>2015-09-27T12:47:48Z</time></trkpt>
<trkpt lat="23.128215" lon="109.377561">
<time>2015-09-27T12:47:49Z</time></trkpt>
<trkpt lat="23.128075" lon="109.377162">
<time>2015-09-27T12:47:50Z</time></trkpt>
<trkpt lat="23.127617" lon="109.375833">
<time>2015-09-27T12:47:51Z</time></trkpt>
<trkpt lat="23.127587" lon="109.375714">
<time>2015-09-27T12:47:52Z</time></trkpt>
<trkpt lat="23.127577" lon="109.375604">
<time>2015-09-27T12:47:53Z</time></trkpt>
<trkpt lat="23.127577" lon="109.375524">
<time>2015-09-27T12:47:54Z</time></trkpt>
<trkpt lat="23.127587" lon="109.375394">
<time>2015-09-27T12:47:55Z</time></trkpt>
<trkpt lat="23.127617" lon="109.375294">
<time>2015-09-27T12:47:56Z</time></trkpt>
<trkpt lat="23.127667" lon="109.375154">
<time>2015-09-27T12:47:57Z</time></trkpt>
<trkpt lat="23.127727" lon="109.374994">
<time>2015-09-27T12:47:58Z</time></trkpt>
<trkpt lat="23.127797" lon="109.374825">
<time>2015-09-27T12:47:59Z</time></trkpt>
<trkpt lat="23.127908" lon="109.374575">
<time>2015-09-27T12:48:00Z</time></trkpt>
<trkpt lat="23.128419" lon="109.373457">
<time>2015-09-27T12:48:01Z</time></trkpt>
<trkpt lat="23.128609" lon="109.373027">
<time>2015-09-27T12:48:02Z</time></trkpt>
<trkpt lat="23.128789" lon="109.372648">
<time>2015-09-27T12:48:03Z</time></trkpt>
<trkpt lat="23.128949" lon="109.372278">
<time>2015-09-27T12:48:04Z</time></trkpt>
<trkpt lat="23.12917" lon="109.371809">
<time>2015-09-27T12:48:05Z</time></trkpt>
<trkpt lat="23.12935" lon="109.37136">
<time>2015-09-27T12:48:06Z</time></trkpt>
<trkpt lat="23.129501" lon="109.37102">
<time>2015-09-27T12:48:07Z</time></trkpt>
<trkpt lat="23.129831" lon="109.370321">
<time>2015-09-27T12:48:08Z</time></trkpt>
<trkpt lat="23.130182" lon="109.369503">
<time>2015-09-27T12:48:09Z</time></trkpt>
<trkpt lat="23.130463" lon="109.368904">
<time>2015-09-27T12:48:10Z</time></trkpt>
<trkpt lat="23.130984" lon="109.367745">
<time>2015-09-27T12:48:11Z</time></trkpt>
<trkpt lat="23.130994" lon="109.367706">
<time>2015-09-27T12:48:12Z</time></trkpt>
<trkpt lat="23.131164" lon="109.367346">
<time>2015-09-27T12:48:13Z</time></trkpt>
<trkpt lat="23.131385" lon="109.366857">
<time>2015-09-27T12:48:14Z</time></trkpt>
<trkpt lat="23.131435" lon="109.366707">
<time>2015-09-27T12:48:15Z</time></trkpt>
<trkpt lat="23.131475" lon="109.366597">
<time>2015-09-27T12:48:16Z</time></trkpt>
<trkpt lat="23.131505" lon="109.366488">
<time>2015-09-27T12:48:17Z</time></trkpt>
<trkpt lat="23.131535" lon="109.366288">
<time>2015-09-27T12:48:18Z</time></trkpt>
<trkpt lat="23.131545" lon="109.366158">
<time>2015-09-27T12:48:19Z</time></trkpt>
<trkpt lat="23.131555" lon="109.366058">
<time>2015-09-27T12:48:20Z</time></trkpt>
<trkpt lat="23.131556" lon="109.365939">
<time>2015-09-27T12:48:21Z</time></trkpt>
<trkpt lat="23.131546" lon="109.365809">
<time>2015-09-27T12:48:22Z</time></trkpt>
<trkpt lat="23.131536" lon="109.365659">
<time>2015-09-27T12:48:23Z</time></trkpt>
<trkpt lat="23.131506" lon="109.365479">
<time>2015-09-27T12:48:24Z</time></trkpt>
<trkpt lat="23.131486" lon="109.36536">
<time>2015-09-27T12:48:25Z</time></trkpt>
<trkpt lat="23.131447" lon="109.36519">
<time>2015-09-27T12:48:26Z</time></trkpt>
<trkpt lat="23.131417" lon="109.36503">
<time>2015-09-27T12:48:27Z</time></trkpt>
<trkpt lat="23.131377" lon="109.36486">
<time>2015-09-27T12:48:28Z</time></trkpt>
<trkpt lat="23.131327" lon="109.364651">
<time>2015-09-27T12:48:29Z</time></trkpt>
<trkpt lat="23.131288" lon="109.364451">
<time>2015-09-27T12:48:30Z</time></trkpt>
<trkpt lat="23.131258" lon="109.364281">
<time>2015-09-27T12:48:31Z</time></trkpt>
<trkpt lat="23.131218" lon="109.364052">
<time>2015-09-27T12:48:32Z</time></trkpt>
<trkpt lat="23.131169" lon="109.363543">
<time>2015-09-27T12:48:33Z</time></trkpt>
<trkpt lat="23.131149" lon="109.363164">
<time>2015-09-27T12:48:34Z</time></trkpt>
<trkpt lat="23.13116" lon="109.362754">
<time>2015-09-27T12:48:35Z</time></trkpt>
<trkpt lat="23.13119" lon="109.362435">
<time>2015-09-27T12:48:36Z</time></trkpt>
<trkpt lat="23.131251" lon="109.362105">
<time>2015-09-27T12:48:37Z</time></trkpt>
<trkpt lat="23.131311" lon="109.361866">
<time>2015-09-27T12:48:38Z</time></trkpt>
<trkpt lat="23.131431" lon="109.361547">
<time>2015-09-27T12:48:39Z</time></trkpt>
<trkpt lat="23.131592" lon="109.361187">
<time>2015-09-27T12:48:40Z</time></trkpt>
<trkpt lat="23.131762" lon="109.360848">
<time>2015-09-27T12:48:41Z</time></trkpt>
<trkpt lat="23.131973" lon="109.360498">
<time>2015-09-27T12:48:42Z</time></trkpt>
<trkpt lat="23.132223" lon="109.360159">
<time>2015-09-27T12:48:43Z</time></trkpt>
<trkpt lat="23.132443" lon="109.35992">
<time>2015-09-27T12:48:44Z</time></trkpt>
<trkpt lat="23.133154" lon="109.359191">
<time>2015-09-27T12:48:45Z</time></trkpt>
<trkpt lat="23.133424" lon="109.358941">
<time>2015-09-27T12:48:46Z</time></trkpt>
<trkpt lat="23.133664" lon="109.358682">
<time>2015-09-27T12:48:47Z</time></trkpt>
<trkpt lat="23.133965" lon="109.358363">
<time>2015-09-27T12:48:48Z</time></trkpt>
<trkpt lat="23.134485" lon="109.357814">
<time>2015-09-27T12:48:49Z</time></trkpt>
<trkpt lat="23.135026" lon="109.357195">
<time>2015-09-27T12:48:50Z</time></trkpt>
<trkpt lat="23.135757" lon="109.356287">
<time>2015-09-27T12:48:51Z</time></trkpt>
<trkpt lat="23.136058" lon="109.355927">
<time>2015-09-27T12:48:52Z</time></trkpt>
<trkpt lat="23.136378" lon="109.355548">
<time>2015-09-27T12:48:53Z</time></trkpt>
<trkpt lat="23.136588" lon="109.355279">
<time>2015-09-27T12:48:54Z</time></trkpt>
<trkpt lat="23.136809" lon="109.354949">
<time>2015-09-27T12:48:55Z</time></trkpt>
<trkpt lat="23.136949" lon="109.35472">
<time>2015-09-27T12:48:56Z</time></trkpt>
<trkpt lat="23.137049" lon="109.35445">
<time>2015-09-27T12:48:57Z</time></trkpt>
<trkpt lat="23.13712" lon="109.354221">
<time>2015-09-27T12:48:58Z</time></trkpt>
<trkpt lat="23.13721" lon="109.353742">
<time>2015-09-27T12:48:59Z</time></trkpt>
<trkpt lat="23.137231" lon="109.353532">
<time>2015-09-27T12:49:00Z</time></trkpt>
<trkpt lat="23.137241" lon="109.353472">
<time>2015-09-27T12:49:01Z</time></trkpt>
<trkpt lat="23.137211" lon="109.353213">
<time>2015-09-27T12:49:02Z</time></trkpt>
<trkpt lat="23.137162" lon="109.352844">
<time>2015-09-27T12:49:03Z</time></trkpt>
<trkpt lat="23.137072" lon="109.352534">
<time>2015-09-27T12:49:04Z</time></trkpt>
<trkpt lat="23.137003" lon="109.352315">
<time>2015-09-27T12:49:05Z</time></trkpt>
<trkpt lat="23.136873" lon="109.351996">
<time>2015-09-27T12:49:06Z</time></trkpt>
<trkpt lat="23.136834" lon="109.351886">
<time>2015-09-27T12:49:07Z</time></trkpt>
<trkpt lat="23.136784" lon="109.351766">
<time>2015-09-27T12:49:08Z</time></trkpt>
<trkpt lat="23.136545" lon="109.351157">
<time>2015-09-27T12:49:09Z</time></trkpt>
<trkpt lat="23.136465" lon="109.350978">
<time>2015-09-27T12:49:10Z</time></trkpt>
<trkpt lat="23.136306" lon="109.350389">
<time>2015-09-27T12:49:11Z</time></trkpt>
<trkpt lat="23.136027" lon="109.349641">
<time>2015-09-27T12:49:12Z</time></trkpt>
<trkpt lat="23.135868" lon="109.349062">
<time>2015-09-27T12:49:13Z</time></trkpt>
<trkpt lat="23.135819" lon="109.348763">
<time>2015-09-27T12:49:14Z</time></trkpt>
<trkpt lat="23.135799" lon="109.348493">
<time>2015-09-27T12:49:15Z</time></trkpt>
<trkpt lat="23.1358" lon="109.348294">
<time>2015-09-27T12:49:16Z</time></trkpt>
<trkpt lat="23.13583" lon="109.348044">
<time>2015-09-27T12:49:17Z</time></trkpt>
<trkpt lat="23.13588" lon="109.347875">
<time>2015-09-27T12:49:18Z</time></trkpt>
<trkpt lat="23.135901" lon="109.347785">
<time>2015-09-27T12:49:19Z</time></trkpt>
<trkpt lat="23.136102" lon="109.347106">
<time>2015-09-27T12:49:20Z</time></trkpt>
<trkpt lat="23.136202" lon="109.346837">
<time>2015-09-27T12:49:21Z</time></trkpt>
<trkpt lat="23.136252" lon="109.346717">
<time>2015-09-27T12:49:22Z</time></trkpt>
<trkpt lat="23.136302" lon="109.346618">
<time>2015-09-27T12:49:23Z</time></trkpt>
<trkpt lat="23.136363" lon="109.346498">
<time>2015-09-27T12:49:24Z</time></trkpt>
<trkpt lat="23.136573" lon="109.346188">
<time>2015-09-27T12:49:25Z</time></trkpt>
<trkpt lat="23.136884" lon="109.345789">
<time>2015-09-27T12:49:26Z</time></trkpt>
<trkpt lat="23.137375" lon="109.345171">
<time>2015-09-27T12:49:27Z</time></trkpt>
<trkpt lat="23.137735" lon="109.344742">
<time>2015-09-27T12:49:28Z</time></trkpt>
<trkpt lat="23.137965" lon="109.344462">
<time>2015-09-27T12:49:29Z</time></trkpt>
<trkpt lat="23.138236" lon="109.344113">
<time>2015-09-27T12:49:30Z</time></trkpt>
<trkpt lat="23.138697" lon="109.343544">
<time>2015-09-27T12:49:31Z</time></trkpt>
<trkpt lat="23.139148" lon="109.342986">
<time>2015-09-27T12:49:32Z</time></trkpt>
<trkpt lat="23.139729" lon="109.342257">
<time>2015-09-27T12:49:33Z</time></trkpt>
<trkpt lat="23.140079" lon="109.341808">
<time>2015-09-27T12:49:34Z</time></trkpt>
<trkpt lat="23.14038" lon="109.341449">
<time>2015-09-27T12:49:35Z</time></trkpt>
<trkpt lat="23.14056" lon="109.34122">
<time>2015-09-27T12:49:36Z</time></trkpt>
<trkpt lat="23.140901" lon="109.340791">
<time>2015-09-27T12:49:37Z</time></trkpt>
<trkpt lat="23.141482" lon="109.340073">
<time>2015-09-27T12:49:38Z</time></trkpt>
<trkpt lat="23.142083" lon="109.339334">
<time>2015-09-27T12:49:39Z</time></trkpt>
<trkpt lat="23.142614" lon="109.338676">
<time>2015-09-27T12:49:40Z</time></trkpt>
<trkpt lat="23.142875" lon="109.338347">
<time>2015-09-27T12:49:41Z</time></trkpt>
<trkpt lat="23.143135" lon="109.338057">
<time>2015-09-27T12:49:42Z</time></trkpt>
<trkpt lat="23.143265" lon="109.337938">
<time>2015-09-27T12:49:43Z</time></trkpt>
<trkpt lat="23.143495" lon="109.337768">
<time>2015-09-27T12:49:44Z</time></trkpt>
<trkpt lat="23.143665" lon="109.337648">
<time>2015-09-27T12:49:45Z</time></trkpt>
<trkpt lat="23.144496" lon="109.337139">
<time>2015-09-27T12:49:46Z</time></trkpt>
<trkpt lat="23.145086" lon="109.33679">
<time>2015-09-27T12:49:47Z</time></trkpt>
<trkpt lat="23.145987" lon="109.336232">
<time>2015-09-27T12:49:48Z</time></trkpt>
<trkpt lat="23.146107" lon="109.336152">
<time>2015-09-27T12:49:49Z</time></trkpt>
<trkpt lat="23.146197" lon="109.336082">
<time>2015-09-27T12:49:50Z</time></trkpt>
<trkpt lat="23.146338" lon="109.335972">
<time>2015-09-27T12:49:51Z</time></trkpt>
<trkpt lat="23.146508" lon="109.335813">
<time>2015-09-27T12:49:52Z</time></trkpt>
<trkpt lat="23.146578" lon="109.335723">
<time>2015-09-27T12:49:53Z</time></trkpt>
<trkpt lat="23.146678" lon="109.335603">
<time>2015-09-27T12:49:54Z</time></trkpt>
<trkpt lat="23.146808" lon="109.335433">
<time>2015-09-27T12:49:55Z</time></trkpt>
<trkpt lat="23.146929" lon="109.335264">
<time>2015-09-27T12:49:56Z</time></trkpt>
<trkpt lat="23.14752" lon="109.334396">
<time>2015-09-27T12:49:57Z</time></trkpt>
<trkpt lat="23.147941" lon="109.333768">
<time>2015-09-27T12:49:58Z</time></trkpt>
<trkpt lat="23.148292" lon="109.333239">
<time>2015-09-27T12:49:59Z</time></trkpt>
<trkpt lat="23.148803" lon="109.332501">
<time>2015-09-27T12:50:00Z</time></trkpt>
<trkpt lat="23.149144" lon="109.332012">
<time>2015-09-27T12:50:01Z</time></trkpt>
<trkpt lat="23.149625" lon="109.331304">
<time>2015-09-27T12:50:02Z</time></trkpt>
<trkpt lat="23.150287" lon="109.330286">
<time>2015-09-27T12:50:03Z</time></trkpt>
<trkpt lat="23.150738" lon="109.329628">
<time>2015-09-27T12:50:04Z</time></trkpt>
<trkpt lat="23.15154" lon="109.328451">
<time>2015-09-27T12:50:05Z</time></trkpt>
<trkpt lat="23.151971" lon="109.327812">
<time>2015-09-27T12:50:06Z</time></trkpt>
<trkpt lat="23.152261" lon="109.327423">
<time>2015-09-27T12:50:07Z</time></trkpt>
<trkpt lat="23.152472" lon="109.327174">
<time>2015-09-27T12:50:08Z</time></trkpt>
<trkpt lat="23.152502" lon="109.327134">
<time>2015-09-27T12:50:09Z</time></trkpt>
<trkpt lat="23.152772" lon="109.326835">
<time>2015-09-27T12:50:10Z</time></trkpt>
<trkpt lat="23.152792" lon="109.326825">
<time>2015-09-27T12:50:11Z</time></trkpt>
<trkpt lat="23.153113" lon="109.326485">
<time>2015-09-27T12:50:12Z</time></trkpt>
<trkpt lat="23.153664" lon="109.325907">
<time>2015-09-27T12:50:13Z</time></trkpt>
<trkpt lat="23.154044" lon="109.325478">
<time>2015-09-27T12:50:14Z</time></trkpt>
<trkpt lat="23.154335" lon="109.325159">
<time>2015-09-27T12:50:15Z</time></trkpt>
<trkpt lat="23.154565" lon="109.324919">
<time>2015-09-27T12:50:16Z</time></trkpt>
<trkpt lat="23.154836" lon="109.32462">
<time>2015-09-27T12:50:17Z</time></trkpt>
<trkpt lat="23.155166" lon="109.324261">
<time>2015-09-27T12:50:18Z</time></trkpt>
<trkpt lat="23.155507" lon="109.323902">
<time>2015-09-27T12:50:19Z</time></trkpt>
<trkpt lat="23.1572" lon="109.322066">
<time>2015-09-27T12:50:20Z</time></trkpt>
<trkpt lat="23.15749" lon="109.321707">
<time>2015-09-27T12:50:21Z</time></trkpt>
<trkpt lat="23.15752" lon="109.321657">
<time>2015-09-27T12:50:22Z</time></trkpt>
<trkpt lat="23.157691" lon="109.321388">
<time>2015-09-27T12:50:23Z</time></trkpt>
<trkpt lat="23.157811" lon="109.321109">
<time>2015-09-27T12:50:24Z</time></trkpt>
<trkpt lat="23.157922" lon="109.32071">
<time>2015-09-27T12:50:25Z</time></trkpt>
<trkpt lat="23.157973" lon="109.32042">
<time>2015-09-27T12:50:26Z</time></trkpt>
<trkpt lat="23.158013" lon="109.319962">
<time>2015-09-27T12:50:27Z</time></trkpt>
<trkpt lat="23.158034" lon="109.319622">
<time>2015-09-27T12:50:28Z</time></trkpt>
<trkpt lat="23.158085" lon="109.318944">
<time>2015-09-27T12:50:29Z</time></trkpt>
<trkpt lat="23.158157" lon="109.318076">
<time>2015-09-27T12:50:30Z</time></trkpt>
<trkpt lat="23.158239" lon="109.317049">
<time>2015-09-27T12:50:31Z</time></trkpt>
<trkpt lat="23.15834" lon="109.316221">
<time>2015-09-27T12:50:32Z</time></trkpt>
<trkpt lat="23.15834" lon="109.316181">
<time>2015-09-27T12:50:33Z</time></trkpt>
<trkpt lat="23.158372" lon="109.315583">
<time>2015-09-27T12:50:34Z</time></trkpt>
<trkpt lat="23.158422" lon="109.315223">
<time>2015-09-27T12:50:35Z</time></trkpt>
<trkpt lat="23.158493" lon="109.314805">
<time>2015-09-27T12:50:36Z</time></trkpt>
<trkpt lat="23.158564" lon="109.314475">
<time>2015-09-27T12:50:37Z</time></trkpt>
<trkpt lat="23.158664" lon="109.314096">
<time>2015-09-27T12:50:38Z</time></trkpt>
<trkpt lat="23.158765" lon="109.313737">
<time>2015-09-27T12:50:39Z</time></trkpt>
<trkpt lat="23.158845" lon="109.313418">
<time>2015-09-27T12:50:40Z</time></trkpt>
<trkpt lat="23.158936" lon="109.313119">
<time>2015-09-27T12:50:41Z</time></trkpt>
<trkpt lat="23.158996" lon="109.312839">
<time>2015-09-27T12:50:42Z</time></trkpt>
<trkpt lat="23.159047" lon="109.31265">
<time>2015-09-27T12:50:43Z</time></trkpt>
<trkpt lat="23.159137" lon="109.312371">
<time>2015-09-27T12:50:44Z</time></trkpt>
<trkpt lat="23.159208" lon="109.312201">
<time>2015-09-27T12:50:45Z</time></trkpt>
<trkpt lat="23.159338" lon="109.311972">
<time>2015-09-27T12:50:46Z</time></trkpt>
<trkpt lat="23.159508" lon="109.311752">
<time>2015-09-27T12:50:47Z</time></trkpt>
<trkpt lat="23.159609" lon="109.311592">
<time>2015-09-27T12:50:48Z</time></trkpt>
<trkpt lat="23.159819" lon="109.311263">
<time>2015-09-27T12:50:49Z</time></trkpt>
<trkpt lat="23.15997" lon="109.311024">
<time>2015-09-27T12:50:50Z</time></trkpt>
<trkpt lat="23.1601" lon="109.310804">
<time>2015-09-27T12:50:51Z</time></trkpt>
<trkpt lat="23.16017" lon="109.310695">
<time>2015-09-27T12:50:52Z</time></trkpt>
<trkpt lat="23.160421" lon="109.310335">
<time>2015-09-27T12:50:53Z</time></trkpt>
<trkpt lat="23.161112" lon="109.309268">
<time>2015-09-27T12:50:54Z</time></trkpt>
<trkpt lat="23.161182" lon="109.309188">
<time>2015-09-27T12:50:55Z</time></trkpt>
<trkpt lat="23.161613" lon="109.30854">
<time>2015-09-27T12:50:56Z</time></trkpt>
<trkpt lat="23.161814" lon="109.308241">
<time>2015-09-27T12:50:57Z</time></trkpt>
<trkpt lat="23.161914" lon="109.308091">
<time>2015-09-27T12:50:58Z</time></trkpt>
<trkpt lat="23.162555" lon="109.307353">
<time>2015-09-27T12:50:59Z</time></trkpt>
<trkpt lat="23.162936" lon="109.306914">
<time>2015-09-27T12:51:00Z</time></trkpt>
<trkpt lat="23.162936" lon="109.306914">
<time>2015-09-27T12:51:01Z</time></trkpt>
<trkpt lat="23.162996" lon="109.306864">
<time>2015-09-27T12:51:02Z</time></trkpt>
<trkpt lat="23.163086" lon="109.306764">
<time>2015-09-27T12:51:03Z</time></trkpt>
<trkpt lat="23.163377" lon="109.306435">
<time>2015-09-27T12:51:04Z</time></trkpt>
<trkpt lat="23.163787" lon="109.305976">
<time>2015-09-27T12:51:05Z</time></trkpt>
<trkpt lat="23.164178" lon="109.305527">
<time>2015-09-27T12:51:06Z</time></trkpt>
<trkpt lat="23.164448" lon="109.305208">
<time>2015-09-27T12:51:07Z</time></trkpt>
<trkpt lat="23.164689" lon="109.304898">
<time>2015-09-27T12:51:08Z</time></trkpt>
<trkpt lat="23.164779" lon="109.304759">
<time>2015-09-27T12:51:09Z</time></trkpt>
<trkpt lat="23.164909" lon="109.304539">
<time>2015-09-27T12:51:10Z</time></trkpt>
<trkpt lat="23.16497" lon="109.30443">
<time>2015-09-27T12:51:11Z</time></trkpt>
<trkpt lat="23.16503" lon="109.3043">
<time>2015-09-27T12:51:12Z</time></trkpt>
<trkpt lat="23.16503" lon="109.30429">
<time>2015-09-27T12:51:13Z</time></trkpt>
<trkpt lat="23.16513" lon="109.3041">
<time>2015-09-27T12:51:14Z</time></trkpt>
<trkpt lat="23.16521" lon="109.303861">
<time>2015-09-27T12:51:15Z</time></trkpt>
<trkpt lat="23.165291" lon="109.303641">
<time>2015-09-27T12:51:16Z</time></trkpt>
<trkpt lat="23.165341" lon="109.303482">
<time>2015-09-27T12:51:17Z</time></trkpt>
<trkpt lat="23.165421" lon="109.303252">
<time>2015-09-27T12:51:18Z</time></trkpt>
<trkpt lat="23.165421" lon="109.303242">
<time>2015-09-27T12:51:19Z</time></trkpt>
<trkpt lat="23.165482" lon="109.303033">
<time>2015-09-27T12:51:20Z</time></trkpt>
<trkpt lat="23.165522" lon="109.302863">
<time>2015-09-27T12:51:21Z</time></trkpt>
<trkpt lat="23.165592" lon="109.302674">
<time>2015-09-27T12:51:22Z</time></trkpt>
<trkpt lat="23.165673" lon="109.302464">
<time>2015-09-27T12:51:23Z</time></trkpt>
<trkpt lat="23.165773" lon="109.302235">
<time>2015-09-27T12:51:24Z</time></trkpt>
<trkpt lat="23.165873" lon="109.302045">
<time>2015-09-27T12:51:25Z</time></trkpt>
<trkpt lat="23.166024" lon="109.301796">
<time>2015-09-27T12:51:26Z</time></trkpt>
<trkpt lat="23.166184" lon="109.301566">
<time>2015-09-27T12:51:27Z</time></trkpt>
<trkpt lat="23.166435" lon="109.301267">
<time>2015-09-27T12:51:28Z</time></trkpt>
<trkpt lat="23.166445" lon="109.301237">
<time>2015-09-27T12:51:29Z</time></trkpt>
<trkpt lat="23.166485" lon="109.301177">
<time>2015-09-27T12:51:30Z</time></trkpt>
<trkpt lat="23.166665" lon="109.300978">
<time>2015-09-27T12:51:31Z</time></trkpt>
<trkpt lat="23.166745" lon="109.300888">
<time>2015-09-27T12:51:32Z</time></trkpt>
<trkpt lat="23.169589" lon="109.297695">
<time>2015-09-27T12:51:33Z</time></trkpt>
<trkpt lat="23.170691" lon="109.296557">
<time>2015-09-27T12:51:34Z</time></trkpt>
<trkpt lat="23.170771" lon="109.296488">
<time>2015-09-27T12:51:35Z</time></trkpt>
<trkpt lat="23.174545" lon="109.293005">
<time>2015-09-27T12:51:36Z</time></trkpt>
<trkpt lat="23.175016" lon="109.292576">
<time>2015-09-27T12:51:37Z</time></trkpt>
<trkpt lat="23.176257" lon="109.291359">
<time>2015-09-27T12:51:38Z</time></trkpt>
<trkpt lat="23.17852" lon="109.288744">
<time>2015-09-27T12:51:39Z</time></trkpt>
<trkpt lat="23.181083" lon="109.28581">
<time>2015-09-27T12:51:40Z</time></trkpt>
<trkpt lat="23.181934" lon="109.284702">
<time>2015-09-27T12:51:41Z</time></trkpt>
<trkpt lat="23.181974" lon="109.284642">
<time>2015-09-27T12:51:42Z</time></trkpt>
<trkpt lat="23.182445" lon="109.283803">
<time>2015-09-27T12:51:43Z</time></trkpt>
<trkpt lat="23.182706" lon="109.283095">
<time>2015-09-27T12:51:44Z</time></trkpt>
<trkpt lat="23.183037" lon="109.282236">
<time>2015-09-27T12:51:45Z</time></trkpt>
<trkpt lat="23.184913" lon="109.276437">
<time>2015-09-27T12:51:46Z</time></trkpt>
<trkpt lat="23.185285" lon="109.275299">
<time>2015-09-27T12:51:47Z</time></trkpt>
<trkpt lat="23.185625" lon="109.27429">
<time>2015-09-27T12:51:48Z</time></trkpt>
<trkpt lat="23.185726" lon="109.274031">
<time>2015-09-27T12:51:49Z</time></trkpt>
<trkpt lat="23.185866" lon="109.273741">
<time>2015-09-27T12:51:50Z</time></trkpt>
<trkpt lat="23.186016" lon="109.273422">
<time>2015-09-27T12:51:51Z</time></trkpt>
<trkpt lat="23.186207" lon="109.273052">
<time>2015-09-27T12:51:52Z</time></trkpt>
<trkpt lat="23.186347" lon="109.272822">
<time>2015-09-27T12:51:53Z</time></trkpt>
<trkpt lat="23.186537" lon="109.272563">
<time>2015-09-27T12:51:54Z</time></trkpt>
<trkpt lat="23.188078" lon="109.270676">
<time>2015-09-27T12:51:55Z</time></trkpt>
<trkpt lat="23.189179" lon="109.269108">
<time>2015-09-27T12:51:56Z</time></trkpt>
<trkpt lat="23.191931" lon="109.265123">
<time>2015-09-27T12:51:57Z</time></trkpt>
<trkpt lat="23.192392" lon="109.264454">
<time>2015-09-27T12:51:58Z</time></trkpt>
<trkpt lat="23.192682" lon="109.263965">
<time>2015-09-27T12:51:59Z</time></trkpt>
<trkpt lat="23.192952" lon="109.263445">
<time>2015-09-27T12:52:00Z</time></trkpt>
<trkpt lat="23.193192" lon="109.262876">
<time>2015-09-27T12:52:01Z</time></trkpt>
<trkpt lat="23.193232" lon="109.262766">
<time>2015-09-27T12:52:02Z</time></trkpt>
<trkpt lat="23.193463" lon="109.262217">
<time>2015-09-27T12:52:03Z</time></trkpt>
<trkpt lat="23.193833" lon="109.261298">
<time>2015-09-27T12:52:04Z</time></trkpt>
<trkpt lat="23.194053" lon="109.260738">
<time>2015-09-27T12:52:05Z</time></trkpt>
<trkpt lat="23.194153" lon="109.260499">
<time>2015-09-27T12:52:06Z</time></trkpt>
<trkpt lat="23.194174" lon="109.260439">
<time>2015-09-27T12:52:07Z</time></trkpt>
<trkpt lat="23.194314" lon="109.260089">
<time>2015-09-27T12:52:08Z</time></trkpt>
<trkpt lat="23.194584" lon="109.25947">
<time>2015-09-27T12:52:09Z</time></trkpt>
<trkpt lat="23.194864" lon="109.25885">
<time>2015-09-27T12:52:10Z</time></trkpt>
<trkpt lat="23.195214" lon="109.258121">
<time>2015-09-27T12:52:11Z</time></trkpt>
<trkpt lat="23.195815" lon="109.256912">
<time>2015-09-27T12:52:12Z</time></trkpt>
<trkpt lat="23.195815" lon="109.256902">
<time>2015-09-27T12:52:13Z</time></trkpt>
<trkpt lat="23.196675" lon="109.255254">
<time>2015-09-27T12:52:14Z</time></trkpt>
<trkpt lat="23.196905" lon="109.254804">
<time>2015-09-27T12:52:15Z</time></trkpt>
<trkpt lat="23.197855" lon="109.253006">
<time>2015-09-27T12:52:16Z</time></trkpt>
<trkpt lat="23.198745" lon="109.251317">
<time>2015-09-27T12:52:17Z</time></trkpt>
<trkpt lat="23.199435" lon="109.249998">
<time>2015-09-27T12:52:18Z</time></trkpt>
<trkpt lat="23.199625" lon="109.249478">
<time>2015-09-27T12:52:19Z</time></trkpt>
<trkpt lat="23.199705" lon="109.249148">
<time>2015-09-27T12:52:20Z</time></trkpt>
<trkpt lat="23.199745" lon="109.248899">
<time>2015-09-27T12:52:21Z</time></trkpt>
<trkpt lat="23.199756" lon="109.248589">
<time>2015-09-27T12:52:22Z</time></trkpt>
<trkpt lat="23.199746" lon="109.248289">
<time>2015-09-27T12:52:23Z</time></trkpt>
<trkpt lat="23.199656" lon="109.24729">
<time>2015-09-27T12:52:24Z</time></trkpt>
<trkpt lat="23.199636" lon="109.24713">
<time>2015-09-27T12:52:25Z</time></trkpt>
<trkpt lat="23.199116" lon="109.242562">
<time>2015-09-27T12:52:26Z</time></trkpt>
<trkpt lat="23.199006" lon="109.241532">
<time>2015-09-27T12:52:27Z</time></trkpt>
<trkpt lat="23.198915" lon="109.240283">
<time>2015-09-27T12:52:28Z</time></trkpt>
<trkpt lat="23.198955" lon="109.239033">
<time>2015-09-27T12:52:29Z</time></trkpt>
<trkpt lat="23.198995" lon="109.238493">
<time>2015-09-27T12:52:30Z</time></trkpt>
<trkpt lat="23.199035" lon="109.237993">
<time>2015-09-27T12:52:31Z</time></trkpt>
<trkpt lat="23.199095" lon="109.237443">
<time>2015-09-27T12:52:32Z</time></trkpt>
<trkpt lat="23.199164" lon="109.236823">
<time>2015-09-27T12:52:33Z</time></trkpt>
<trkpt lat="23.199284" lon="109.236064">
<time>2015-09-27T12:52:34Z</time></trkpt>
<trkpt lat="23.199374" lon="109.235394">
<time>2015-09-27T12:52:35Z</time></trkpt>
<trkpt lat="23.200489" lon="109.227663">
<time>2015-09-27T12:52:36Z</time></trkpt>
<trkpt lat="23.200579" lon="109.226983">
<time>2015-09-27T12:52:37Z</time></trkpt>
<trkpt lat="23.200579" lon="109.226613">
<time>2015-09-27T12:52:38Z</time></trkpt>
<trkpt lat="23.200578" lon="109.226293">
<time>2015-09-27T12:52:39Z</time></trkpt>
<trkpt lat="23.200558" lon="109.226093">
<time>2015-09-27T12:52:40Z</time></trkpt>
<trkpt lat="23.200518" lon="109.225853">
<time>2015-09-27T12:52:41Z</time></trkpt>
<trkpt lat="23.200478" lon="109.225653">
<time>2015-09-27T12:52:42Z</time></trkpt>
<trkpt lat="23.199706" lon="109.222822">
<time>2015-09-27T12:52:43Z</time></trkpt>
<trkpt lat="23.199495" lon="109.222012">
<time>2015-09-27T12:52:44Z</time></trkpt>
<trkpt lat="23.199204" lon="109.220431">
<time>2015-09-27T12:52:45Z</time></trkpt>
<trkpt lat="23.199194" lon="109.220391">
<time>2015-09-27T12:52:46Z</time></trkpt>
<trkpt lat="23.198862" lon="109.21818">
<time>2015-09-27T12:52:47Z</time></trkpt>
<trkpt lat="23.198639" lon="109.214768">
<time>2015-09-27T12:52:48Z</time></trkpt>
<trkpt lat="23.198068" lon="109.206151">
<time>2015-09-27T12:52:49Z</time></trkpt>
<trkpt lat="23.197905" lon="109.203739">
<time>2015-09-27T12:52:50Z</time></trkpt>
<trkpt lat="23.197741" lon="109.200936">
<time>2015-09-27T12:52:51Z</time></trkpt>
<trkpt lat="23.197464" lon="109.196441">
<time>2015-09-27T12:52:52Z</time></trkpt>
<trkpt lat="23.197212" lon="109.194769">
<time>2015-09-27T12:52:53Z</time></trkpt>
<trkpt lat="23.197111" lon="109.194429">
<time>2015-09-27T12:52:54Z</time></trkpt>
<trkpt lat="23.1969" lon="109.193758">
<time>2015-09-27T12:52:55Z</time></trkpt>
<trkpt lat="23.196689" lon="109.193227">
<time>2015-09-27T12:52:56Z</time></trkpt>
<trkpt lat="23.196288" lon="109.192396">
<time>2015-09-27T12:52:57Z</time></trkpt>
<trkpt lat="23.195797" lon="109.191415">
<time>2015-09-27T12:52:58Z</time></trkpt>
<trkpt lat="23.195365" lon="109.190544">
<time>2015-09-27T12:52:59Z</time></trkpt>
<trkpt lat="23.194673" lon="109.189152">
<time>2015-09-27T12:53:00Z</time></trkpt>
<trkpt lat="23.194362" lon="109.188541">
<time>2015-09-27T12:53:01Z</time></trkpt>
<trkpt lat="23.194091" lon="109.187911">
<time>2015-09-27T12:53:02Z</time></trkpt>
<trkpt lat="23.19375" lon="109.18709">
<time>2015-09-27T12:53:03Z</time></trkpt>
<trkpt lat="23.193308" lon="109.185758">
<time>2015-09-27T12:53:04Z</time></trkpt>
<trkpt lat="23.193207" lon="109.185347">
<time>2015-09-27T12:53:05Z</time></trkpt>
<trkpt lat="23.193086" lon="109.184806">
<time>2015-09-27T12:53:06Z</time></trkpt>
<trkpt lat="23.192975" lon="109.184216">
<time>2015-09-27T12:53:07Z</time></trkpt>
<trkpt lat="23.192884" lon="109.183635">
<time>2015-09-27T12:53:08Z</time></trkpt>
<trkpt lat="23.192793" lon="109.182814">
<time>2015-09-27T12:53:09Z</time></trkpt>
<trkpt lat="23.192751" lon="109.181882">
<time>2015-09-27T12:53:10Z</time></trkpt>
<trkpt lat="23.19275" lon="109.181412">
<time>2015-09-27T12:53:11Z</time></trkpt>
<trkpt lat="23.192866" lon="109.178838">
<time>2015-09-27T12:53:12Z</time></trkpt>
<trkpt lat="23.192922" lon="109.176695">
<time>2015-09-27T12:53:13Z</time></trkpt>
<trkpt lat="23.19291" lon="109.175974">
<time>2015-09-27T12:53:14Z</time></trkpt>
<trkpt lat="23.192889" lon="109.175463">
<time>2015-09-27T12:53:15Z</time></trkpt>
<trkpt lat="23.192686" lon="109.17358">
<time>2015-09-27T12:53:16Z</time></trkpt>
<trkpt lat="23.192645" lon="109.17334">
<time>2015-09-27T12:53:17Z</time></trkpt>
<trkpt lat="23.192353" lon="109.171838">
<time>2015-09-27T12:53:18Z</time></trkpt>
<trkpt lat="23.191689" lon="109.169775">
<time>2015-09-27T12:53:19Z</time></trkpt>
<trkpt lat="23.191106" lon="109.168323">
<time>2015-09-27T12:53:20Z</time></trkpt>
<trkpt lat="23.190524" lon="109.167081">
<time>2015-09-27T12:53:21Z</time></trkpt>
<trkpt lat="23.189682" lon="109.165679">
<time>2015-09-27T12:53:22Z</time></trkpt>
<trkpt lat="23.187486" lon="109.162114">
<time>2015-09-27T12:53:23Z</time></trkpt>
<trkpt lat="23.186724" lon="109.160692">
<time>2015-09-27T12:53:24Z</time></trkpt>
<trkpt lat="23.186483" lon="109.160141">
<time>2015-09-27T12:53:25Z</time></trkpt>
<trkpt lat="23.186081" lon="109.159059">
<time>2015-09-27T12:53:26Z</time></trkpt>
<trkpt lat="23.185819" lon="109.157888">
<time>2015-09-27T12:53:27Z</time></trkpt>
<trkpt lat="23.185646" lon="109.156285">
<time>2015-09-27T12:53:28Z</time></trkpt>
<trkpt lat="23.1855" lon="109.153121">
<time>2015-09-27T12:53:29Z</time></trkpt>
<trkpt lat="23.185158" lon="109.145991">
<time>2015-09-27T12:53:30Z</time></trkpt>
<trkpt lat="23.184847" lon="109.139213">
<time>2015-09-27T12:53:31Z</time></trkpt>
<trkpt lat="23.184836" lon="109.138973">
<time>2015-09-27T12:53:32Z</time></trkpt>
<trkpt lat="23.184684" lon="109.137301">
<time>2015-09-27T12:53:33Z</time></trkpt>
<trkpt lat="23.184502" lon="109.13602">
<time>2015-09-27T12:53:34Z</time></trkpt>
<trkpt lat="23.183908" lon="109.133337">
<time>2015-09-27T12:53:35Z</time></trkpt>
<trkpt lat="23.183104" lon="109.130344">
<time>2015-09-27T12:53:36Z</time></trkpt>
<trkpt lat="23.18225" lon="109.126961">
<time>2015-09-27T12:53:37Z</time></trkpt>
<trkpt lat="23.181918" lon="109.12501">
<time>2015-09-27T12:53:38Z</time></trkpt>
<trkpt lat="23.181898" lon="109.12482">
<time>2015-09-27T12:53:39Z</time></trkpt>
<trkpt lat="23.181877" lon="109.124339">
<time>2015-09-27T12:53:40Z</time></trkpt>
<trkpt lat="23.181867" lon="109.123979">
<time>2015-09-27T12:53:41Z</time></trkpt>
<trkpt lat="23.181866" lon="109.123469">
<time>2015-09-27T12:53:42Z</time></trkpt>
<trkpt lat="23.181886" lon="109.123009">
<time>2015-09-27T12:53:43Z</time></trkpt>
<trkpt lat="23.181915" lon="109.122608">
<time>2015-09-27T12:53:44Z</time></trkpt>
<trkpt lat="23.181965" lon="109.122188">
<time>2015-09-27T12:53:45Z</time></trkpt>
<trkpt lat="23.182064" lon="109.121598">
<time>2015-09-27T12:53:46Z</time></trkpt>
<trkpt lat="23.182153" lon="109.121167">
<time>2015-09-27T12:53:47Z</time></trkpt>
<trkpt lat="23.182193" lon="109.121017">
<time>2015-09-27T12:53:48Z</time></trkpt>
<trkpt lat="23.182263" lon="109.120717">
<time>2015-09-27T12:53:49Z</time></trkpt>
<trkpt lat="23.182452" lon="109.120037">
<time>2015-09-27T12:53:50Z</time></trkpt>
<trkpt lat="23.182572" lon="109.119647">
<time>2015-09-27T12:53:51Z</time></trkpt>
<trkpt lat="23.182821" lon="109.119026">
<time>2015-09-27T12:53:52Z</time></trkpt>
<trkpt lat="23.18299" lon="109.118656">
<time>2015-09-27T12:53:53Z</time></trkpt>
<trkpt lat="23.18318" lon="109.118236">
<time>2015-09-27T12:53:54Z</time></trkpt>
<trkpt lat="23.183439" lon="109.117736">
<time>2015-09-27T12:53:55Z</time></trkpt>
<trkpt lat="23.183679" lon="109.117345">
<time>2015-09-27T12:53:56Z</time></trkpt>
<trkpt lat="23.183869" lon="109.117045">
<time>2015-09-27T12:53:57Z</time></trkpt>
<trkpt lat="23.184068" lon="109.116755">
<time>2015-09-27T12:53:58Z</time></trkpt>
<trkpt lat="23.184338" lon="109.116385">
<time>2015-09-27T12:53:59Z</time></trkpt>
<trkpt lat="23.184707" lon="109.115895">
<time>2015-09-27T12:54:00Z</time></trkpt>
<trkpt lat="23.185456" lon="109.114974">
<time>2015-09-27T12:54:01Z</time></trkpt>
<trkpt lat="23.188083" lon="109.111813">
<time>2015-09-27T12:54:02Z</time></trkpt>
<trkpt lat="23.188432" lon="109.111393">
<time>2015-09-27T12:54:03Z</time></trkpt>
<trkpt lat="23.189351" lon="109.110283">
<time>2015-09-27T12:54:04Z</time></trkpt>
<trkpt lat="23.191888" lon="109.107232">
<time>2015-09-27T12:54:05Z</time></trkpt>
<trkpt lat="23.192478" lon="109.106532">
<time>2015-09-27T12:54:06Z</time></trkpt>
<trkpt lat="23.193397" lon="109.105422">
<time>2015-09-27T12:54:07Z</time></trkpt>
<trkpt lat="23.194086" lon="109.104622">
<time>2015-09-27T12:54:08Z</time></trkpt>
<trkpt lat="23.194356" lon="109.104262">
<time>2015-09-27T12:54:09Z</time></trkpt>
<trkpt lat="23.194496" lon="109.104082">
<time>2015-09-27T12:54:10Z</time></trkpt>
<trkpt lat="23.195225" lon="109.103202">
<time>2015-09-27T12:54:11Z</time></trkpt>
<trkpt lat="23.195405" lon="109.103022">
<time>2015-09-27T12:54:12Z</time></trkpt>
<trkpt lat="23.195485" lon="109.102872">
<time>2015-09-27T12:54:13Z</time></trkpt>
<trkpt lat="23.195485" lon="109.102852">
<time>2015-09-27T12:54:14Z</time></trkpt>
<trkpt lat="23.195485" lon="109.102832">
<time>2015-09-27T12:54:15Z</time></trkpt>
<trkpt lat="23.195485" lon="109.102812">
<time>2015-09-27T12:54:16Z</time></trkpt>
<trkpt lat="23.195485" lon="109.102792">
<time>2015-09-27T12:54:17Z</time></trkpt>
<trkpt lat="23.195495" lon="109.102772">
<time>2015-09-27T12:54:18Z</time></trkpt>
<trkpt lat="23.195495" lon="109.102762">
<time>2015-09-27T12:54:19Z</time></trkpt>
<trkpt lat="23.195515" lon="109.102722">
<time>2015-09-27T12:54:20Z</time></trkpt>
<trkpt lat="23.195605" lon="109.102433">
<time>2015-09-27T12:54:21Z</time></trkpt>
<trkpt lat="23.195504" lon="109.102043">
<time>2015-09-27T12:54:22Z</time></trkpt>
<trkpt lat="23.194554" lon="109.098174">
<time>2015-09-27T12:54:23Z</time></trkpt>
<trkpt lat="23.194154" lon="109.096554">
<time>2015-09-27T12:54:24Z</time></trkpt>
<trkpt lat="23.194024" lon="109.095995">
<time>2015-09-27T12:54:25Z</time></trkpt>
<trkpt lat="23.191895" lon="109.087361">
<time>2015-09-27T12:54:26Z</time></trkpt>
<trkpt lat="23.190997" lon="109.083704">
<time>2015-09-27T12:54:27Z</time></trkpt>
<trkpt lat="23.190857" lon="109.083065">
<time>2015-09-27T12:54:28Z</time></trkpt>
<trkpt lat="23.190748" lon="109.082356">
<time>2015-09-27T12:54:29Z</time></trkpt>
<trkpt lat="23.190688" lon="109.081717">
<time>2015-09-27T12:54:30Z</time></trkpt>
<trkpt lat="23.190648" lon="109.080988">
<time>2015-09-27T12:54:31Z</time></trkpt>
<trkpt lat="23.190659" lon="109.080578">
<time>2015-09-27T12:54:32Z</time></trkpt>
<trkpt lat="23.190669" lon="109.080169">
<time>2015-09-27T12:54:33Z</time></trkpt>
<trkpt lat="23.190831" lon="109.076693">
<time>2015-09-27T12:54:34Z</time></trkpt>
<trkpt lat="23.190852" lon="109.076154">
<time>2015-09-27T12:54:35Z</time></trkpt>
<trkpt lat="23.190842" lon="109.075195">
<time>2015-09-27T12:54:36Z</time></trkpt>
<trkpt lat="23.190803" lon="109.074436">
<time>2015-09-27T12:54:37Z</time></trkpt>
<trkpt lat="23.190744" lon="109.073797">
<time>2015-09-27T12:54:38Z</time></trkpt>
<trkpt lat="23.190714" lon="109.073488">
<time>2015-09-27T12:54:39Z</time></trkpt>
<trkpt lat="23.190674" lon="109.073208">
<time>2015-09-27T12:54:40Z</time></trkpt>
<trkpt lat="23.190624" lon="109.072929">
<time>2015-09-27T12:54:41Z</time></trkpt>
<trkpt lat="23.190575" lon="109.072639">
<time>2015-09-27T12:54:42Z</time></trkpt>
<trkpt lat="23.190505" lon="109.07231">
<time>2015-09-27T12:54:43Z</time></trkpt>
<trkpt lat="23.190425" lon="109.072">
<time>2015-09-27T12:54:44Z</time></trkpt>
<trkpt lat="23.190425" lon="109.07199">
<time>2015-09-27T12:54:45Z</time></trkpt>
<trkpt lat="23.190286" lon="109.071501">
<time>2015-09-27T12:54:46Z</time></trkpt>
<trkpt lat="23.190286" lon="109.071501">
<time>2015-09-27T12:54:47Z</time></trkpt>
<trkpt lat="23.190266" lon="109.071481">
<time>2015-09-27T12:54:48Z</time></trkpt>
<trkpt lat="23.190236" lon="109.071401">
<time>2015-09-27T12:54:49Z</time></trkpt>
<trkpt lat="23.190216" lon="109.071341">
<time>2015-09-27T12:54:50Z</time></trkpt>
<trkpt lat="23.190226" lon="109.071302">
<time>2015-09-27T12:54:51Z</time></trkpt>
<trkpt lat="23.190176" lon="109.071162">
<time>2015-09-27T12:54:52Z</time></trkpt>
<trkpt lat="23.190047" lon="109.070802">
<time>2015-09-27T12:54:53Z</time></trkpt>
<trkpt lat="23.189419" lon="109.069095">
<time>2015-09-27T12:54:54Z</time></trkpt>
<trkpt lat="23.188193" lon="109.065722">
<time>2015-09-27T12:54:55Z</time></trkpt>
<trkpt lat="23.186054" lon="109.058886">
<time>2015-09-27T12:54:56Z</time></trkpt>
<trkpt lat="23.184651" lon="109.054447">
<time>2015-09-27T12:54:57Z</time></trkpt>
<trkpt lat="23.182992" lon="109.049151">
<time>2015-09-27T12:54:58Z</time></trkpt>
<trkpt lat="23.182932" lon="109.048981">
<time>2015-09-27T12:54:59Z</time></trkpt>
<trkpt lat="23.182714" lon="109.048233">
<time>2015-09-27T12:55:00Z</time></trkpt>
<trkpt lat="23.182634" lon="109.047874">
<time>2015-09-27T12:55:01Z</time></trkpt>
<trkpt lat="23.182565" lon="109.047545">
<time>2015-09-27T12:55:02Z</time></trkpt>
<trkpt lat="23.182526" lon="109.047266">
<time>2015-09-27T12:55:03Z</time></trkpt>
<trkpt lat="23.182506" lon="109.047007">
<time>2015-09-27T12:55:04Z</time></trkpt>
<trkpt lat="23.182506" lon="109.046947">
<time>2015-09-27T12:55:05Z</time></trkpt>
<trkpt lat="23.182497" lon="109.046687">
<time>2015-09-27T12:55:06Z</time></trkpt>
<trkpt lat="23.182469" lon="109.045481">
<time>2015-09-27T12:55:07Z</time></trkpt>
<trkpt lat="23.182443" lon="109.043935">
<time>2015-09-27T12:55:08Z</time></trkpt>
<trkpt lat="23.182444" lon="109.043247">
<time>2015-09-27T12:55:09Z</time></trkpt>
<trkpt lat="23.182445" lon="109.042729">
<time>2015-09-27T12:55:10Z</time></trkpt>
<trkpt lat="23.182446" lon="109.04216">
<time>2015-09-27T12:55:11Z</time></trkpt>
<trkpt lat="23.182445" lon="109.038232">
<time>2015-09-27T12:55:12Z</time></trkpt>
<trkpt lat="23.182449" lon="109.036607">
<time>2015-09-27T12:55:13Z</time></trkpt>
<trkpt lat="23.182449" lon="109.036548">
<time>2015-09-27T12:55:14Z</time></trkpt>
<trkpt lat="23.18245" lon="109.036458">
<time>2015-09-27T12:55:15Z</time></trkpt>
<trkpt lat="23.182451" lon="109.03584">
<time>2015-09-27T12:55:16Z</time></trkpt>
<trkpt lat="23.182451" lon="109.028066">
<time>2015-09-27T12:55:17Z</time></trkpt>
<trkpt lat="23.182435" lon="109.026391">
<time>2015-09-27T12:55:18Z</time></trkpt>
<trkpt lat="23.182339" lon="109.025056">
<time>2015-09-27T12:55:19Z</time></trkpt>
<trkpt lat="23.182152" lon="109.023641">
<time>2015-09-27T12:55:20Z</time></trkpt>
<trkpt lat="23.18175" lon="109.0211">
<time>2015-09-27T12:55:21Z</time></trkpt>
<trkpt lat="23.181034" lon="109.016019">
<time>2015-09-27T12:55:22Z</time></trkpt>
<trkpt lat="23.180446" lon="109.011924">
<time>2015-09-27T12:55:23Z</time></trkpt>
<trkpt lat="23.17936" lon="109.004243">
<time>2015-09-27T12:55:24Z</time></trkpt>
<trkpt lat="23.178821" lon="109.000458">
<time>2015-09-27T12:55:25Z</time></trkpt>
<trkpt lat="23.178753" lon="108.99998">
<time>2015-09-27T12:55:26Z</time></trkpt>
<trkpt lat="23.178657" lon="108.998755">
<time>2015-09-27T12:55:27Z</time></trkpt>
<trkpt lat="23.17857" lon="108.997539">
<time>2015-09-27T12:55:28Z</time></trkpt>
<trkpt lat="23.178551" lon="108.99731">
<time>2015-09-27T12:55:29Z</time></trkpt>
<trkpt lat="23.178493" lon="108.996553">
<time>2015-09-27T12:55:30Z</time></trkpt>
<trkpt lat="23.178465" lon="108.996085">
<time>2015-09-27T12:55:31Z</time></trkpt>
<trkpt lat="23.17835" lon="108.994382">
<time>2015-09-27T12:55:32Z</time></trkpt>
<trkpt lat="23.178197" lon="108.992081">
<time>2015-09-27T12:55:33Z</time></trkpt>
<trkpt lat="23.177815" lon="108.986373">
<time>2015-09-27T12:55:34Z</time></trkpt>
<trkpt lat="23.177795" lon="108.986193">
<time>2015-09-27T12:55:35Z</time></trkpt>
<trkpt lat="23.177623" lon="108.983583">
<time>2015-09-27T12:55:36Z</time></trkpt>
<trkpt lat="23.177559" lon="108.981661">
<time>2015-09-27T12:55:37Z</time></trkpt>
<trkpt lat="23.177662" lon="108.980684">
<time>2015-09-27T12:55:38Z</time></trkpt>
<trkpt lat="23.178035" lon="108.979529">
<time>2015-09-27T12:55:39Z</time></trkpt>
<trkpt lat="23.17903" lon="108.977536">
<time>2015-09-27T12:55:40Z</time></trkpt>
<trkpt lat="23.180559" lon="108.974348">
<time>2015-09-27T12:55:41Z</time></trkpt>
<trkpt lat="23.182268" lon="108.97095">
<time>2015-09-27T12:55:42Z</time></trkpt>
<trkpt lat="23.187112" lon="108.961313">
<time>2015-09-27T12:55:43Z</time></trkpt>
<trkpt lat="23.193264" lon="108.951046">
<time>2015-09-27T12:55:44Z</time></trkpt>
<trkpt lat="23.195742" lon="108.946937">
<time>2015-09-27T12:55:45Z</time></trkpt>
<trkpt lat="23.195893" lon="108.946688">
<time>2015-09-27T12:55:46Z</time></trkpt>
<trkpt lat="23.197437" lon="108.944115">
<time>2015-09-27T12:55:47Z</time></trkpt>
<trkpt lat="23.197869" lon="108.943397">
<time>2015-09-27T12:55:48Z</time></trkpt>
<trkpt lat="23.198651" lon="108.942051">
<time>2015-09-27T12:55:49Z</time></trkpt>
<trkpt lat="23.199804" lon="108.940076">
<time>2015-09-27T12:55:50Z</time></trkpt>
<trkpt lat="23.200597" lon="108.93834">
<time>2015-09-27T12:55:51Z</time></trkpt>
<trkpt lat="23.201581" lon="108.936185">
<time>2015-09-27T12:55:52Z</time></trkpt>
<trkpt lat="23.202975" lon="108.933162">
<time>2015-09-27T12:55:53Z</time></trkpt>
<trkpt lat="23.203437" lon="108.931925">
<time>2015-09-27T12:55:54Z</time></trkpt>
<trkpt lat="23.203819" lon="108.930139">
<time>2015-09-27T12:55:55Z</time></trkpt>
<trkpt lat="23.2039" lon="108.92976">
<time>2015-09-27T12:55:56Z</time></trkpt>
<trkpt lat="23.2039" lon="108.92976">
<time>2015-09-27T12:55:57Z</time></trkpt>
<trkpt lat="23.20389" lon="108.92968">
<time>2015-09-27T12:55:58Z</time></trkpt>
<trkpt lat="23.204785" lon="108.925318">
<time>2015-09-27T12:55:59Z</time></trkpt>
<trkpt lat="23.204815" lon="108.925199">
<time>2015-09-27T12:56:00Z</time></trkpt>
<trkpt lat="23.204896" lon="108.924789">
<time>2015-09-27T12:56:01Z</time></trkpt>
<trkpt lat="23.205006" lon="108.92431">
<time>2015-09-27T12:56:02Z</time></trkpt>
<trkpt lat="23.205137" lon="108.923711">
<time>2015-09-27T12:56:03Z</time></trkpt>
<trkpt lat="23.205197" lon="108.923402">
<time>2015-09-27T12:56:04Z</time></trkpt>
<trkpt lat="23.205358" lon="108.922653">
<time>2015-09-27T12:56:05Z</time></trkpt>
<trkpt lat="23.205449" lon="108.922234">
<time>2015-09-27T12:56:06Z</time></trkpt>
<trkpt lat="23.205609" lon="108.921475">
<time>2015-09-27T12:56:07Z</time></trkpt>
<trkpt lat="23.2057" lon="108.921026">
<time>2015-09-27T12:56:08Z</time></trkpt>
<trkpt lat="23.20572" lon="108.920856">
<time>2015-09-27T12:56:09Z</time></trkpt>
<trkpt lat="23.20575" lon="108.920627">
<time>2015-09-27T12:56:10Z</time></trkpt>
<trkpt lat="23.20575" lon="108.920607">
<time>2015-09-27T12:56:11Z</time></trkpt>
<trkpt lat="23.205902" lon="108.919249">
<time>2015-09-27T12:56:12Z</time></trkpt>
<trkpt lat="23.205902" lon="108.919239">
<time>2015-09-27T12:56:13Z</time></trkpt>
<trkpt lat="23.206013" lon="108.918181">
<time>2015-09-27T12:56:14Z</time></trkpt>
<trkpt lat="23.206103" lon="108.917312">
<time>2015-09-27T12:56:15Z</time></trkpt>
<trkpt lat="23.206204" lon="108.916463">
<time>2015-09-27T12:56:16Z</time></trkpt>
<trkpt lat="23.206305" lon="108.915644">
<time>2015-09-27T12:56:17Z</time></trkpt>
<trkpt lat="23.206635" lon="108.914556">
<time>2015-09-27T12:56:18Z</time></trkpt>
<trkpt lat="23.207226" lon="108.913238">
<time>2015-09-27T12:56:19Z</time></trkpt>
<trkpt lat="23.207576" lon="108.912469">
<time>2015-09-27T12:56:20Z</time></trkpt>
<trkpt lat="23.207867" lon="108.911729">
<time>2015-09-27T12:56:21Z</time></trkpt>
<trkpt lat="23.208768" lon="108.908803">
<time>2015-09-27T12:56:22Z</time></trkpt>
<trkpt lat="23.209038" lon="108.907924">
<time>2015-09-27T12:56:23Z</time></trkpt>
<trkpt lat="23.21063" lon="108.902758">
<time>2015-09-27T12:56:24Z</time></trkpt>
<trkpt lat="23.21115" lon="108.901049">
<time>2015-09-27T12:56:25Z</time></trkpt>
<trkpt lat="23.21121" lon="108.90085">
<time>2015-09-27T12:56:26Z</time></trkpt>
<trkpt lat="23.212249" lon="108.897492">
<time>2015-09-27T12:56:27Z</time></trkpt>
<trkpt lat="23.212789" lon="108.895702">
<time>2015-09-27T12:56:28Z</time></trkpt>
<trkpt lat="23.213159" lon="108.894303">
<time>2015-09-27T12:56:29Z</time></trkpt>
<trkpt lat="23.213818" lon="108.891304">
<time>2015-09-27T12:56:30Z</time></trkpt>
<trkpt lat="23.213948" lon="108.890714">
<time>2015-09-27T12:56:31Z</time></trkpt>
<trkpt lat="23.213948" lon="108.890714">
<time>2015-09-27T12:56:32Z</time></trkpt>
<trkpt lat="23.213758" lon="108.890614">
<time>2015-09-27T12:56:33Z</time></trkpt>
<trkpt lat="23.212988" lon="108.890324">
<time>2015-09-27T12:56:34Z</time></trkpt>
<trkpt lat="23.212288" lon="108.890014">
<time>2015-09-27T12:56:35Z</time></trkpt>
<trkpt lat="23.211908" lon="108.889704">
<time>2015-09-27T12:56:36Z</time></trkpt>
<trkpt lat="23.211348" lon="108.889284">
<time>2015-09-27T12:56:37Z</time></trkpt>
<trkpt lat="23.211198" lon="108.889194">
<time>2015-09-27T12:56:38Z</time></trkpt>
<trkpt lat="23.210998" lon="108.889064">
<time>2015-09-27T12:56:39Z</time></trkpt>
<trkpt lat="23.210768" lon="108.889004">
<time>2015-09-27T12:56:40Z</time></trkpt>
<trkpt lat="23.210528" lon="108.888974">
<time>2015-09-27T12:56:41Z</time></trkpt>
<trkpt lat="23.209949" lon="108.889224">
<time>2015-09-27T12:56:42Z</time></trkpt>
<trkpt lat="23.209949" lon="108.889224">
<time>2015-09-27T12:56:43Z</time></trkpt>
<trkpt lat="23.209869" lon="108.889014">
<time>2015-09-27T12:56:44Z</time></trkpt>
<trkpt lat="23.209718" lon="108.888415">
<time>2015-09-27T12:56:45Z</time></trkpt>
<trkpt lat="23.209388" lon="108.886815">
<time>2015-09-27T12:56:46Z</time></trkpt>
<trkpt lat="23.208205" lon="108.882034">
<time>2015-09-27T12:56:47Z</time></trkpt>
<trkpt lat="23.208095" lon="108.881304">
<time>2015-09-27T12:56:48Z</time></trkpt>
<trkpt lat="23.208025" lon="108.880934">
<time>2015-09-27T12:56:49Z</time></trkpt>
<trkpt lat="23.207894" lon="108.880354">
<time>2015-09-27T12:56:50Z</time></trkpt>
<trkpt lat="23.207594" lon="108.879414">
<time>2015-09-27T12:56:51Z</time></trkpt>
<trkpt lat="23.207544" lon="108.879244">
<time>2015-09-27T12:56:52Z</time></trkpt>
<trkpt lat="23.207504" lon="108.879084">
<time>2015-09-27T12:56:53Z</time></trkpt>
<trkpt lat="23.207513" lon="108.878804">
<time>2015-09-27T12:56:54Z</time></trkpt>
<trkpt lat="23.207533" lon="108.878153">
<time>2015-09-27T12:56:55Z</time></trkpt>
<trkpt lat="23.207632" lon="108.877353">
<time>2015-09-27T12:56:56Z</time></trkpt>
<trkpt lat="23.207841" lon="108.876723">
<time>2015-09-27T12:56:57Z</time></trkpt>
<trkpt lat="23.20786" lon="108.875002">
<time>2015-09-27T12:56:58Z</time></trkpt>
<trkpt lat="23.207916" lon="108.87113">
<time>2015-09-27T12:56:59Z</time></trkpt>
<trkpt lat="23.207915" lon="108.870329">
<time>2015-09-27T12:57:00Z</time></trkpt>
<trkpt lat="23.207884" lon="108.869209">
<time>2015-09-27T12:57:01Z</time></trkpt>
<trkpt lat="23.207979" lon="108.864665">
<time>2015-09-27T12:57:02Z</time></trkpt>
<trkpt lat="23.207857" lon="108.863704">
<time>2015-09-27T12:57:03Z</time></trkpt>
<trkpt lat="23.207875" lon="108.862293">
<time>2015-09-27T12:57:04Z</time></trkpt>
<trkpt lat="23.207875" lon="108.862293">
<time>2015-09-27T12:57:05Z</time></trkpt>
<trkpt lat="23.207386" lon="108.862243">
<time>2015-09-27T12:57:06Z</time></trkpt>
<trkpt lat="23.207385" lon="108.861873">
<time>2015-09-27T12:57:07Z</time></trkpt>
<trkpt lat="23.207323" lon="108.860662">
<time>2015-09-27T12:57:08Z</time></trkpt>
<trkpt lat="23.20718" lon="108.857989">
<time>2015-09-27T12:57:09Z</time></trkpt>
<trkpt lat="23.207447" lon="108.856087">
<time>2015-09-27T12:57:10Z</time></trkpt>
<trkpt lat="23.207763" lon="108.853614">
<time>2015-09-27T12:57:11Z</time></trkpt>
<trkpt lat="23.207793" lon="108.853494">
<time>2015-09-27T12:57:12Z</time></trkpt>
<trkpt lat="23.20805" lon="108.852082">
<time>2015-09-27T12:57:13Z</time></trkpt>
<trkpt lat="23.208238" lon="108.85042">
<time>2015-09-27T12:57:14Z</time></trkpt>
<trkpt lat="23.208426" lon="108.849599">
<time>2015-09-27T12:57:15Z</time></trkpt>
<trkpt lat="23.208446" lon="108.849539">
<time>2015-09-27T12:57:16Z</time></trkpt>
<trkpt lat="23.208496" lon="108.849319">
<time>2015-09-27T12:57:17Z</time></trkpt>
<trkpt lat="23.208565" lon="108.849149">
<time>2015-09-27T12:57:18Z</time></trkpt>
<trkpt lat="23.208595" lon="108.849109">
<time>2015-09-27T12:57:19Z</time></trkpt>
<trkpt lat="23.208785" lon="108.848708">
<time>2015-09-27T12:57:20Z</time></trkpt>
<trkpt lat="23.208825" lon="108.848648">
<time>2015-09-27T12:57:21Z</time></trkpt>
<trkpt lat="23.209782" lon="108.847486">
<time>2015-09-27T12:57:22Z</time></trkpt>
<trkpt lat="23.21047" lon="108.846385">
<time>2015-09-27T12:57:23Z</time></trkpt>
<trkpt lat="23.21047" lon="108.846385">
<time>2015-09-27T12:57:24Z</time></trkpt>
<trkpt lat="23.211" lon="108.846135">
<time>2015-09-27T12:57:25Z</time></trkpt>
<trkpt lat="23.211499" lon="108.845894">
<time>2015-09-27T12:57:26Z</time></trkpt>
<trkpt lat="23.212038" lon="108.845634">
<time>2015-09-27T12:57:27Z</time></trkpt>
<trkpt lat="23.213227" lon="108.845003">
<time>2015-09-27T12:57:28Z</time></trkpt>
<trkpt lat="23.213496" lon="108.844803">
<time>2015-09-27T12:57:29Z</time></trkpt>
<trkpt lat="23.213716" lon="108.844592">
<time>2015-09-27T12:57:30Z</time></trkpt>
<trkpt lat="23.213836" lon="108.844452">
<time>2015-09-27T12:57:31Z</time></trkpt>
<trkpt lat="23.214314" lon="108.843731">
<time>2015-09-27T12:57:32Z</time></trkpt>
<trkpt lat="23.215082" lon="108.842499">
<time>2015-09-27T12:57:33Z</time></trkpt>
<trkpt lat="23.216089" lon="108.840987">
<time>2015-09-27T12:57:34Z</time></trkpt>
<trkpt lat="23.217345" lon="108.839004">
<time>2015-09-27T12:57:35Z</time></trkpt>
<trkpt lat="23.217963" lon="108.838253">
<time>2015-09-27T12:57:36Z</time></trkpt>
<trkpt lat="23.218562" lon="108.837592">
<time>2015-09-27T12:57:37Z</time></trkpt>
<trkpt lat="23.218592" lon="108.837562">
<time>2015-09-27T12:57:38Z</time></trkpt>
<trkpt lat="23.218751" lon="108.837392">
<time>2015-09-27T12:57:39Z</time></trkpt>
<trkpt lat="23.218971" lon="108.837142">
<time>2015-09-27T12:57:40Z</time></trkpt>
<trkpt lat="23.219919" lon="108.83615">
<time>2015-09-27T12:57:41Z</time></trkpt>
<trkpt lat="23.220258" lon="108.8358">
<time>2015-09-27T12:57:42Z</time></trkpt>
<trkpt lat="23.220577" lon="108.835539">
<time>2015-09-27T12:57:43Z</time></trkpt>
<trkpt lat="23.220997" lon="108.835229">
<time>2015-09-27T12:57:44Z</time></trkpt>
<trkpt lat="23.221656" lon="108.834798">
<time>2015-09-27T12:57:45Z</time></trkpt>
<trkpt lat="23.222854" lon="108.834037">
<time>2015-09-27T12:57:46Z</time></trkpt>
<trkpt lat="23.224142" lon="108.833215">
<time>2015-09-27T12:57:47Z</time></trkpt>
<trkpt lat="23.225151" lon="108.832745">
<time>2015-09-27T12:57:48Z</time></trkpt>
<trkpt lat="23.225151" lon="108.832745">
<time>2015-09-27T12:57:49Z</time></trkpt>
<trkpt lat="23.222462" lon="108.827537">
<time>2015-09-27T12:57:50Z</time></trkpt>
<trkpt lat="23.221649" lon="108.825934">
<time>2015-09-27T12:57:51Z</time></trkpt>
<trkpt lat="23.220555" lon="108.823851">
<time>2015-09-27T12:57:52Z</time></trkpt>
<trkpt lat="23.219923" lon="108.822649">
<time>2015-09-27T12:57:53Z</time></trkpt>
<trkpt lat="23.21894" lon="108.820727">
<time>2015-09-27T12:57:54Z</time></trkpt>
<trkpt lat="23.21894" lon="108.820727">
<time>2015-09-27T12:57:55Z</time></trkpt>
<trkpt lat="23.21891" lon="108.820676">
<time>2015-09-27T12:57:56Z</time></trkpt>
<trkpt lat="23.218168" lon="108.819264">
<time>2015-09-27T12:57:57Z</time></trkpt>
<trkpt lat="23.218057" lon="108.819064">
<time>2015-09-27T12:57:58Z</time></trkpt>
<trkpt lat="23.217887" lon="108.818643">
<time>2015-09-27T12:57:59Z</time></trkpt>
<trkpt lat="23.217846" lon="108.818573">
<time>2015-09-27T12:58:00Z</time></trkpt>
<trkpt lat="23.217806" lon="108.818403">
<time>2015-09-27T12:58:01Z</time></trkpt>
<trkpt lat="23.217816" lon="108.818353">
<time>2015-09-27T12:58:02Z</time></trkpt>
<trkpt lat="23.217826" lon="108.818233">
<time>2015-09-27T12:58:03Z</time></trkpt>
<trkpt lat="23.217835" lon="108.818032">
<time>2015-09-27T12:58:04Z</time></trkpt>
<trkpt lat="23.217904" lon="108.817051">
<time>2015-09-27T12:58:05Z</time></trkpt>
<trkpt lat="23.21805" lon="108.814968">
<time>2015-09-27T12:58:06Z</time></trkpt>
<trkpt lat="23.218059" lon="108.814807">
<time>2015-09-27T12:58:07Z</time></trkpt>
<trkpt lat="23.218167" lon="108.813415">
<time>2015-09-27T12:58:08Z</time></trkpt>
<trkpt lat="23.218274" lon="108.811923">
<time>2015-09-27T12:58:09Z</time></trkpt>
<trkpt lat="23.218342" lon="108.811052">
<time>2015-09-27T12:58:10Z</time></trkpt>
<trkpt lat="23.218362" lon="108.810761">
<time>2015-09-27T12:58:11Z</time></trkpt>
<trkpt lat="23.218362" lon="108.810721">
<time>2015-09-27T12:58:12Z</time></trkpt>
<trkpt lat="23.218362" lon="108.810621">
<time>2015-09-27T12:58:13Z</time></trkpt>
<trkpt lat="23.218351" lon="108.810541">
<time>2015-09-27T12:58:14Z</time></trkpt>
<trkpt lat="23.21827" lon="108.81001">
<time>2015-09-27T12:58:15Z</time></trkpt>
<trkpt lat="23.218019" lon="108.808949">
<time>2015-09-27T12:58:16Z</time></trkpt>
<trkpt lat="23.217978" lon="108.808718">
<time>2015-09-27T12:58:17Z</time></trkpt>
<trkpt lat="23.217948" lon="108.808548">
<time>2015-09-27T12:58:18Z</time></trkpt>
<trkpt lat="23.217948" lon="108.808478">
<time>2015-09-27T12:58:19Z</time></trkpt>
<trkpt lat="23.217948" lon="108.808428">
<time>2015-09-27T12:58:20Z</time></trkpt>
<trkpt lat="23.217948" lon="108.808388">
<time>2015-09-27T12:58:21Z</time></trkpt>
<trkpt lat="23.217958" lon="108.808338">
<time>2015-09-27T12:58:22Z</time></trkpt>
<trkpt lat="23.218037" lon="108.807947">
<time>2015-09-27T12:58:23Z</time></trkpt>
<trkpt lat="23.218047" lon="108.807897">
<time>2015-09-27T12:58:24Z</time></trkpt>
<trkpt lat="23.218047" lon="108.807897">
<time>2015-09-27T12:58:25Z</time></trkpt>
<trkpt lat="23.218195" lon="108.807146">
<time>2015-09-27T12:58:26Z</time></trkpt>
<trkpt lat="23.218294" lon="108.806605">
<time>2015-09-27T12:58:27Z</time></trkpt>
<trkpt lat="23.218433" lon="108.805914">
<time>2015-09-27T12:58:28Z</time></trkpt>
<trkpt lat="23.218502" lon="108.805283">
<time>2015-09-27T12:58:29Z</time></trkpt>
<trkpt lat="23.218542" lon="108.805043">
<time>2015-09-27T12:58:30Z</time></trkpt>
<trkpt lat="23.218621" lon="108.804542">
<time>2015-09-27T12:58:31Z</time></trkpt>
<trkpt lat="23.21871" lon="108.803972">
<time>2015-09-27T12:58:32Z</time></trkpt>
<trkpt lat="23.218828" lon="108.803241">
<time>2015-09-27T12:58:33Z</time></trkpt>
<trkpt lat="23.218957" lon="108.802369">
<time>2015-09-27T12:58:34Z</time></trkpt>
<trkpt lat="23.219016" lon="108.802039">
<time>2015-09-27T12:58:35Z</time></trkpt>
<trkpt lat="23.219115" lon="108.801418">
<time>2015-09-27T12:58:36Z</time></trkpt>
<trkpt lat="23.219143" lon="108.800397">
<time>2015-09-27T12:58:37Z</time></trkpt>
<trkpt lat="23.219133" lon="108.800287">
<time>2015-09-27T12:58:38Z</time></trkpt>
<trkpt lat="23.219101" lon="108.799175">
<time>2015-09-27T12:58:39Z</time></trkpt>
<trkpt lat="23.219091" lon="108.798815">
<time>2015-09-27T12:58:40Z</time></trkpt>
<trkpt lat="23.21907" lon="108.798474">
<time>2015-09-27T12:58:41Z</time></trkpt>
<trkpt lat="23.219059" lon="108.797893">
<time>2015-09-27T12:58:42Z</time></trkpt>
<trkpt lat="23.218975" lon="108.79547">
<time>2015-09-27T12:58:43Z</time></trkpt>
<trkpt lat="23.218965" lon="108.79515">
<time>2015-09-27T12:58:44Z</time></trkpt>
<trkpt lat="23.218944" lon="108.794679">
<time>2015-09-27T12:58:45Z</time></trkpt>
<trkpt lat="23.218913" lon="108.793768">
<time>2015-09-27T12:58:46Z</time></trkpt>
<trkpt lat="23.218913" lon="108.793698">
<time>2015-09-27T12:58:47Z</time></trkpt>
<trkpt lat="23.218902" lon="108.793588">
<time>2015-09-27T12:58:48Z</time></trkpt>
<trkpt lat="23.218872" lon="108.793007">
<time>2015-09-27T12:58:49Z</time></trkpt>
<trkpt lat="23.21882" lon="108.792166">
<time>2015-09-27T12:58:50Z</time></trkpt>
<trkpt lat="23.218779" lon="108.791476">
<time>2015-09-27T12:58:51Z</time></trkpt>
<trkpt lat="23.218769" lon="108.791015">
<time>2015-09-27T12:58:52Z</time></trkpt>
<trkpt lat="23.218769" lon="108.791015">
<time>2015-09-27T12:58:53Z</time></trkpt>
<trkpt lat="23.218758" lon="108.790675">
<time>2015-09-27T12:58:54Z</time></trkpt>
<trkpt lat="23.218758" lon="108.790524">
<time>2015-09-27T12:58:55Z</time></trkpt>
<trkpt lat="23.218716" lon="108.789563">
<time>2015-09-27T12:58:56Z</time></trkpt>
<trkpt lat="23.218685" lon="108.788382">
<time>2015-09-27T12:58:57Z</time></trkpt>
<trkpt lat="23.218654" lon="108.787441">
<time>2015-09-27T12:58:58Z</time></trkpt>
<trkpt lat="23.218612" lon="108.78633">
<time>2015-09-27T12:58:59Z</time></trkpt>
<trkpt lat="23.218602" lon="108.78604">
<time>2015-09-27T12:59:00Z</time></trkpt>
<trkpt lat="23.218581" lon="108.785329">
<time>2015-09-27T12:59:01Z</time></trkpt>
<trkpt lat="23.21856" lon="108.784588">
<time>2015-09-27T12:59:02Z</time></trkpt>
<trkpt lat="23.218508" lon="108.783187">
<time>2015-09-27T12:59:03Z</time></trkpt>
<trkpt lat="23.218497" lon="108.782827">
<time>2015-09-27T12:59:04Z</time></trkpt>
<trkpt lat="23.218466" lon="108.781956">
<time>2015-09-27T12:59:05Z</time></trkpt>
<trkpt lat="23.218425" lon="108.780845">
<time>2015-09-27T12:59:06Z</time></trkpt>
<trkpt lat="23.21827" lon="108.776892">
<time>2015-09-27T12:59:07Z</time></trkpt>
<trkpt lat="23.218209" lon="108.775261">
<time>2015-09-27T12:59:08Z</time></trkpt>
<trkpt lat="23.218199" lon="108.775061">
<time>2015-09-27T12:59:09Z</time></trkpt>
<trkpt lat="23.218055" lon="108.771378">
<time>2015-09-27T12:59:10Z</time></trkpt>
<trkpt lat="23.218045" lon="108.771048">
<time>2015-09-27T12:59:11Z</time></trkpt>
<trkpt lat="23.218014" lon="108.770348">
<time>2015-09-27T12:59:12Z</time></trkpt>
<trkpt lat="23.217953" lon="108.768697">
<time>2015-09-27T12:59:13Z</time></trkpt>
<trkpt lat="23.21781" lon="108.765456">
<time>2015-09-27T12:59:14Z</time></trkpt>
<trkpt lat="23.21782" lon="108.764846">
<time>2015-09-27T12:59:15Z</time></trkpt>
<trkpt lat="23.217469" lon="108.763955">
<time>2015-09-27T12:59:16Z</time></trkpt>
<trkpt lat="23.217279" lon="108.763585">
<time>2015-09-27T12:59:17Z</time></trkpt>
<trkpt lat="23.217049" lon="108.763275">
<time>2015-09-27T12:59:18Z</time></trkpt>
<trkpt lat="23.216779" lon="108.762985">
<time>2015-09-27T12:59:19Z</time></trkpt>
<trkpt lat="23.216109" lon="108.762375">
<time>2015-09-27T12:59:20Z</time></trkpt>
<trkpt lat="23.216089" lon="108.762345">
<time>2015-09-27T12:59:21Z</time></trkpt>
<trkpt lat="23.215839" lon="108.762085">
<time>2015-09-27T12:59:22Z</time></trkpt>
<trkpt lat="23.215629" lon="108.761835">
<time>2015-09-27T12:59:23Z</time></trkpt>
<trkpt lat="23.215469" lon="108.761595">
<time>2015-09-27T12:59:24Z</time></trkpt>
<trkpt lat="23.215278" lon="108.761265">
<time>2015-09-27T12:59:25Z</time></trkpt>
<trkpt lat="23.215138" lon="108.760945">
<time>2015-09-27T12:59:26Z</time></trkpt>
<trkpt lat="23.215028" lon="108.760595">
<time>2015-09-27T12:59:27Z</time></trkpt>
<trkpt lat="23.214928" lon="108.760145">
<time>2015-09-27T12:59:28Z</time></trkpt>
<trkpt lat="23.214848" lon="108.759725">
<time>2015-09-27T12:59:29Z</time></trkpt>
<trkpt lat="23.214707" lon="108.758675">
<time>2015-09-27T12:59:30Z</time></trkpt>
<trkpt lat="23.214537" lon="108.757555">
<time>2015-09-27T12:59:31Z</time></trkpt>
<trkpt lat="23.214296" lon="108.756065">
<time>2015-09-27T12:59:32Z</time></trkpt>
<trkpt lat="23.214136" lon="108.755265">
<time>2015-09-27T12:59:33Z</time></trkpt>
<trkpt lat="23.213966" lon="108.754485">
<time>2015-09-27T12:59:34Z</time></trkpt>
<trkpt lat="23.213766" lon="108.753505">
<time>2015-09-27T12:59:35Z</time></trkpt>
<trkpt lat="23.212835" lon="108.749996">
<time>2015-09-27T12:59:36Z</time></trkpt>
<trkpt lat="23.212585" lon="108.749306">
<time>2015-09-27T12:59:37Z</time></trkpt>
<trkpt lat="23.212495" lon="108.748926">
<time>2015-09-27T12:59:38Z</time></trkpt>
<trkpt lat="23.212435" lon="108.748526">
<time>2015-09-27T12:59:39Z</time></trkpt>
<trkpt lat="23.212415" lon="108.748116">
<time>2015-09-27T12:59:40Z</time></trkpt>
<trkpt lat="23.212415" lon="108.747756">
<time>2015-09-27T12:59:41Z</time></trkpt>
<trkpt lat="23.212465" lon="108.747286">
<time>2015-09-27T12:59:42Z</time></trkpt>
<trkpt lat="23.212555" lon="108.746917">
<time>2015-09-27T12:59:43Z</time></trkpt>
<trkpt lat="23.212555" lon="108.746897">
<time>2015-09-27T12:59:44Z</time></trkpt>
<trkpt lat="23.212645" lon="108.746617">
<time>2015-09-27T12:59:45Z</time></trkpt>
<trkpt lat="23.212775" lon="108.746267">
<time>2015-09-27T12:59:46Z</time></trkpt>
<trkpt lat="23.212985" lon="108.745897">
<time>2015-09-27T12:59:47Z</time></trkpt>
<trkpt lat="23.213255" lon="108.745517">
<time>2015-09-27T12:59:48Z</time></trkpt>
<trkpt lat="23.213675" lon="108.744987">
<time>2015-09-27T12:59:49Z</time></trkpt>
<trkpt lat="23.214125" lon="108.744368">
<time>2015-09-27T12:59:50Z</time></trkpt>
<trkpt lat="23.214535" lon="108.743558">
<time>2015-09-27T12:59:51Z</time></trkpt>
<trkpt lat="23.214675" lon="108.743188">
<time>2015-09-27T12:59:52Z</time></trkpt>
<trkpt lat="23.216185" lon="108.737822">
<time>2015-09-27T12:59:53Z</time></trkpt>
<trkpt lat="23.216385" lon="108.736822">
<time>2015-09-27T12:59:54Z</time></trkpt>
<trkpt lat="23.216386" lon="108.736133">
<time>2015-09-27T12:59:55Z</time></trkpt>
<trkpt lat="23.216326" lon="108.735623">
<time>2015-09-27T12:59:56Z</time></trkpt>
<trkpt lat="23.216126" lon="108.734794">
<time>2015-09-27T12:59:57Z</time></trkpt>
<trkpt lat="23.214699" lon="108.730648">
<time>2015-09-27T12:59:58Z</time></trkpt>
<trkpt lat="23.214569" lon="108.730259">
<time>2015-09-27T12:59:59Z</time></trkpt>
<trkpt lat="23.21439" lon="108.729849">
<time>2015-09-27T13:00:00Z</time></trkpt>
<trkpt lat="23.21428" lon="108.729629">
<time>2015-09-27T13:00:01Z</time></trkpt>
<trkpt lat="23.21415" lon="108.7294">
<time>2015-09-27T13:00:02Z</time></trkpt>
<trkpt lat="23.214" lon="108.7292">
<time>2015-09-27T13:00:03Z</time></trkpt>
<trkpt lat="23.21382" lon="108.72897">
<time>2015-09-27T13:00:04Z</time></trkpt>
<trkpt lat="23.213541" lon="108.72866">
<time>2015-09-27T13:00:05Z</time></trkpt>
<trkpt lat="23.212512" lon="108.727771">
<time>2015-09-27T13:00:06Z</time></trkpt>
<trkpt lat="23.210713" lon="108.726383">
<time>2015-09-27T13:00:07Z</time></trkpt>
<trkpt lat="23.209794" lon="108.725584">
<time>2015-09-27T13:00:08Z</time></trkpt>
<trkpt lat="23.209305" lon="108.724915">
<time>2015-09-27T13:00:09Z</time></trkpt>
<trkpt lat="23.208905" lon="108.724256">
<time>2015-09-27T13:00:10Z</time></trkpt>
<trkpt lat="23.208616" lon="108.723647">
<time>2015-09-27T13:00:11Z</time></trkpt>
<trkpt lat="23.208397" lon="108.723048">
<time>2015-09-27T13:00:12Z</time></trkpt>
<trkpt lat="23.207799" lon="108.720142">
<time>2015-09-27T13:00:13Z</time></trkpt>
<trkpt lat="23.206954" lon="108.715868">
<time>2015-09-27T13:00:14Z</time></trkpt>
<trkpt lat="23.206845" lon="108.715399">
<time>2015-09-27T13:00:15Z</time></trkpt>
<trkpt lat="23.206695" lon="108.714939">
<time>2015-09-27T13:00:16Z</time></trkpt>
<trkpt lat="23.206645" lon="108.7148">
<time>2015-09-27T13:00:17Z</time></trkpt>
<trkpt lat="23.206536" lon="108.71455">
<time>2015-09-27T13:00:18Z</time></trkpt>
<trkpt lat="23.206316" lon="108.714151">
<time>2015-09-27T13:00:19Z</time></trkpt>
<trkpt lat="23.206107" lon="108.713841">
<time>2015-09-27T13:00:20Z</time></trkpt>
<trkpt lat="23.204419" lon="108.712114">
<time>2015-09-27T13:00:21Z</time></trkpt>
<trkpt lat="23.203691" lon="108.711236">
<time>2015-09-27T13:00:22Z</time></trkpt>
<trkpt lat="23.203401" lon="108.710797">
<time>2015-09-27T13:00:23Z</time></trkpt>
<trkpt lat="23.203152" lon="108.710397">
<time>2015-09-27T13:00:24Z</time></trkpt>
<trkpt lat="23.202993" lon="108.709948">
<time>2015-09-27T13:00:25Z</time></trkpt>
<trkpt lat="23.202813" lon="108.709389">
<time>2015-09-27T13:00:26Z</time></trkpt>
<trkpt lat="23.202615" lon="108.708481">
<time>2015-09-27T13:00:27Z</time></trkpt>
<trkpt lat="23.202219" lon="108.704987">
<time>2015-09-27T13:00:28Z</time></trkpt>
<trkpt lat="23.201932" lon="108.703071">
<time>2015-09-27T13:00:29Z</time></trkpt>
<trkpt lat="23.201723" lon="108.702362">
<time>2015-09-27T13:00:30Z</time></trkpt>
<trkpt lat="23.201345" lon="108.701294">
<time>2015-09-27T13:00:31Z</time></trkpt>
<trkpt lat="23.200996" lon="108.700536">
<time>2015-09-27T13:00:32Z</time></trkpt>
<trkpt lat="23.200139" lon="108.699139">
<time>2015-09-27T13:00:33Z</time></trkpt>
<trkpt lat="23.199401" lon="108.698091">
<time>2015-09-27T13:00:34Z</time></trkpt>
<trkpt lat="23.198693" lon="108.697003">
<time>2015-09-27T13:00:35Z</time></trkpt>
<trkpt lat="23.197507" lon="108.694698">
<time>2015-09-27T13:00:36Z</time></trkpt>
<trkpt lat="23.194708" lon="108.688552">
<time>2015-09-27T13:00:37Z</time></trkpt>
<trkpt lat="23.194121" lon="108.687255">
<time>2015-09-27T13:00:38Z</time></trkpt>
<trkpt lat="23.193902" lon="108.686876">
<time>2015-09-27T13:00:39Z</time></trkpt>
<trkpt lat="23.193582" lon="108.686507">
<time>2015-09-27T13:00:40Z</time></trkpt>
<trkpt lat="23.192494" lon="108.685679">
<time>2015-09-27T13:00:41Z</time></trkpt>
<trkpt lat="23.190268" lon="108.684232">
<time>2015-09-27T13:00:42Z</time></trkpt>
<trkpt lat="23.18874" lon="108.683254">
<time>2015-09-27T13:00:43Z</time></trkpt>
<trkpt lat="23.18859" lon="108.683145">
<time>2015-09-27T13:00:44Z</time></trkpt>
<trkpt lat="23.188301" lon="108.682905">
<time>2015-09-27T13:00:45Z</time></trkpt>
<trkpt lat="23.188141" lon="108.682726">
<time>2015-09-27T13:00:46Z</time></trkpt>
<trkpt lat="23.187991" lon="108.682546">
<time>2015-09-27T13:00:47Z</time></trkpt>
<trkpt lat="23.187862" lon="108.682367">
<time>2015-09-27T13:00:48Z</time></trkpt>
<trkpt lat="23.187573" lon="108.681808">
<time>2015-09-27T13:00:49Z</time></trkpt>
<trkpt lat="23.187304" lon="108.68105">
<time>2015-09-27T13:00:50Z</time></trkpt>
<trkpt lat="23.186599" lon="108.678825">
<time>2015-09-27T13:00:51Z</time></trkpt>
<trkpt lat="23.186241" lon="108.677867">
<time>2015-09-27T13:00:52Z</time></trkpt>
<trkpt lat="23.185892" lon="108.677339">
<time>2015-09-27T13:00:53Z</time></trkpt>
<trkpt lat="23.185353" lon="108.67669">
<time>2015-09-27T13:00:54Z</time></trkpt>
<trkpt lat="23.184056" lon="108.675603">
<time>2015-09-27T13:00:55Z</time></trkpt>
<trkpt lat="23.183747" lon="108.675244">
<time>2015-09-27T13:00:56Z</time></trkpt>
<trkpt lat="23.183497" lon="108.674914">
<time>2015-09-27T13:00:57Z</time></trkpt>
<trkpt lat="23.183298" lon="108.674515">
<time>2015-09-27T13:00:58Z</time></trkpt>
<trkpt lat="23.183149" lon="108.674226">
<time>2015-09-27T13:00:59Z</time></trkpt>
<trkpt lat="23.182372" lon="108.67278">
<time>2015-09-27T13:01:00Z</time></trkpt>
<trkpt lat="23.181226" lon="108.670645">
<time>2015-09-27T13:01:01Z</time></trkpt>
<trkpt lat="23.180718" lon="108.669847">
<time>2015-09-27T13:01:02Z</time></trkpt>
<trkpt lat="23.180249" lon="108.669348">
<time>2015-09-27T13:01:03Z</time></trkpt>
<trkpt lat="23.17957" lon="108.668899">
<time>2015-09-27T13:01:04Z</time></trkpt>
<trkpt lat="23.179001" lon="108.66869">
<time>2015-09-27T13:01:05Z</time></trkpt>
<trkpt lat="23.178022" lon="108.66846">
<time>2015-09-27T13:01:06Z</time></trkpt>
<trkpt lat="23.177652" lon="108.66838">
<time>2015-09-27T13:01:07Z</time></trkpt>
<trkpt lat="23.177372" lon="108.668281">
<time>2015-09-27T13:01:08Z</time></trkpt>
<trkpt lat="23.177073" lon="108.668121">
<time>2015-09-27T13:01:09Z</time></trkpt>
<trkpt lat="23.176723" lon="108.667862">
<time>2015-09-27T13:01:10Z</time></trkpt>
<trkpt lat="23.176254" lon="108.667413">
<time>2015-09-27T13:01:11Z</time></trkpt>
<trkpt lat="23.175926" lon="108.666864">
<time>2015-09-27T13:01:12Z</time></trkpt>
<trkpt lat="23.175796" lon="108.666555">
<time>2015-09-27T13:01:13Z</time></trkpt>
<trkpt lat="23.175239" lon="108.665228">
<time>2015-09-27T13:01:14Z</time></trkpt>
<trkpt lat="23.175239" lon="108.665228">
<time>2015-09-27T13:01:15Z</time></trkpt>
<trkpt lat="23.175259" lon="108.665168">
<time>2015-09-27T13:01:16Z</time></trkpt>
<trkpt lat="23.175299" lon="108.665118">
<time>2015-09-27T13:01:17Z</time></trkpt>
<trkpt lat="23.175329" lon="108.665069">
<time>2015-09-27T13:01:18Z</time></trkpt>
<trkpt lat="23.175359" lon="108.665029">
<time>2015-09-27T13:01:19Z</time></trkpt>
<trkpt lat="23.175429" lon="108.664969">
<time>2015-09-27T13:01:20Z</time></trkpt>
<trkpt lat="23.175459" lon="108.664939">
<time>2015-09-27T13:01:21Z</time></trkpt>
<trkpt lat="23.17548" lon="108.664869">
<time>2015-09-27T13:01:22Z</time></trkpt>
<trkpt lat="23.17551" lon="108.664809">
<time>2015-09-27T13:01:23Z</time></trkpt>
<trkpt lat="23.17552" lon="108.664759">
<time>2015-09-27T13:01:24Z</time></trkpt>
<trkpt lat="23.17552" lon="108.664709">
<time>2015-09-27T13:01:25Z</time></trkpt>
<trkpt lat="23.17552" lon="108.66466">
<time>2015-09-27T13:01:26Z</time></trkpt>
<trkpt lat="23.17551" lon="108.66461">
<time>2015-09-27T13:01:27Z</time></trkpt>
<trkpt lat="23.17549" lon="108.66456">
<time>2015-09-27T13:01:28Z</time></trkpt>
<trkpt lat="23.175341" lon="108.66428">
<time>2015-09-27T13:01:29Z</time></trkpt>
<trkpt lat="23.175221" lon="108.664071">
<time>2015-09-27T13:01:30Z</time></trkpt>
<trkpt lat="23.175562" lon="108.663832">
<time>2015-09-27T13:01:31Z</time></trkpt>
<trkpt lat="23.175562" lon="108.663832">
<time>2015-09-27T13:01:32Z</time></trkpt>
<trkpt lat="23.175035" lon="108.662335">
<time>2015-09-27T13:01:33Z</time></trkpt>
<trkpt lat="23.175005" lon="108.662255">
<time>2015-09-27T13:01:34Z</time></trkpt>
<trkpt lat="23.174965" lon="108.662175">
<time>2015-09-27T13:01:35Z</time></trkpt>
<trkpt lat="23.174527" lon="108.661138">
<time>2015-09-27T13:01:36Z</time></trkpt>
<trkpt lat="23.174487" lon="108.661018">
<time>2015-09-27T13:01:37Z</time></trkpt>
<trkpt lat="23.174457" lon="108.660909">
<time>2015-09-27T13:01:38Z</time></trkpt>
<trkpt lat="23.17421" lon="108.659861">
<time>2015-09-27T13:01:39Z</time></trkpt>
<trkpt lat="23.174141" lon="108.659282">
<time>2015-09-27T13:01:40Z</time></trkpt>
<trkpt lat="23.174131" lon="108.659153">
<time>2015-09-27T13:01:41Z</time></trkpt>
<trkpt lat="23.174131" lon="108.659063">
<time>2015-09-27T13:01:42Z</time></trkpt>
<trkpt lat="23.174141" lon="108.658963">
<time>2015-09-27T13:01:43Z</time></trkpt>
<trkpt lat="23.174162" lon="108.658833">
<time>2015-09-27T13:01:44Z</time></trkpt>
<trkpt lat="23.174353" lon="108.658175">
<time>2015-09-27T13:01:45Z</time></trkpt>
<trkpt lat="23.174373" lon="108.658075">
<time>2015-09-27T13:01:46Z</time></trkpt>
<trkpt lat="23.174383" lon="108.657985">
<time>2015-09-27T13:01:47Z</time></trkpt>
<trkpt lat="23.174383" lon="108.657916">
<time>2015-09-27T13:01:48Z</time></trkpt>
<trkpt lat="23.174383" lon="108.657826">
<time>2015-09-27T13:01:49Z</time></trkpt>
<trkpt lat="23.174364" lon="108.657686">
<time>2015-09-27T13:01:50Z</time></trkpt>
<trkpt lat="23.174235" lon="108.656848">
<time>2015-09-27T13:01:51Z</time></trkpt>
<trkpt lat="23.174245" lon="108.656728">
<time>2015-09-27T13:01:52Z</time></trkpt>
<trkpt lat="23.174256" lon="108.656609">
<time>2015-09-27T13:01:53Z</time></trkpt>
<trkpt lat="23.174336" lon="108.65617">
<time>2015-09-27T13:01:54Z</time></trkpt>
<trkpt lat="23.174347" lon="108.65604">
<time>2015-09-27T13:01:55Z</time></trkpt>
<trkpt lat="23.174347" lon="108.65595">
<time>2015-09-27T13:01:56Z</time></trkpt>
<trkpt lat="23.174347" lon="108.65588">
<time>2015-09-27T13:01:57Z</time></trkpt>
<trkpt lat="23.174327" lon="108.655811">
<time>2015-09-27T13:01:58Z</time></trkpt>
<trkpt lat="23.174297" lon="108.655731">
<time>2015-09-27T13:01:59Z</time></trkpt>
<trkpt lat="23.174178" lon="108.655531">
<time>2015-09-27T13:02:00Z</time></trkpt>
<trkpt lat="23.173809" lon="108.654992">
<time>2015-09-27T13:02:01Z</time></trkpt>
<trkpt lat="23.173719" lon="108.654873">
<time>2015-09-27T13:02:02Z</time></trkpt>
<trkpt lat="23.173629" lon="108.654773">
<time>2015-09-27T13:02:03Z</time></trkpt>
<trkpt lat="23.17351" lon="108.654653">
<time>2015-09-27T13:02:04Z</time></trkpt>
<trkpt lat="23.17342" lon="108.654583">
<time>2015-09-27T13:02:05Z</time></trkpt>
<trkpt lat="23.17332" lon="108.654504">
<time>2015-09-27T13:02:06Z</time></trkpt>
<trkpt lat="23.172491" lon="108.654045">
<time>2015-09-27T13:02:07Z</time></trkpt>
<trkpt lat="23.172321" lon="108.653935">
<time>2015-09-27T13:02:08Z</time></trkpt>
<trkpt lat="23.172162" lon="108.653805">
<time>2015-09-27T13:02:09Z</time></trkpt>
<trkpt lat="23.171503" lon="108.653217">
<time>2015-09-27T13:02:10Z</time></trkpt>
<trkpt lat="23.171443" lon="108.653127">
<time>2015-09-27T13:02:11Z</time></trkpt>
<trkpt lat="23.171363" lon="108.653047">
<time>2015-09-27T13:02:12Z</time></trkpt>
<trkpt lat="23.171293" lon="108.652957">
<time>2015-09-27T13:02:13Z</time></trkpt>
<trkpt lat="23.171074" lon="108.652718">
<time>2015-09-27T13:02:14Z</time></trkpt>
<trkpt lat="23.170046" lon="108.65163">
<time>2015-09-27T13:02:15Z</time></trkpt>
<trkpt lat="23.170006" lon="108.65158">
<time>2015-09-27T13:02:16Z</time></trkpt>
<trkpt lat="23.169947" lon="108.651531">
<time>2015-09-27T13:02:17Z</time></trkpt>
<trkpt lat="23.169687" lon="108.651291">
<time>2015-09-27T13:02:18Z</time></trkpt>
<trkpt lat="23.169048" lon="108.650732">
<time>2015-09-27T13:02:19Z</time></trkpt>
<trkpt lat="23.168589" lon="108.650254">
<time>2015-09-27T13:02:20Z</time></trkpt>
<trkpt lat="23.1684" lon="108.650034">
<time>2015-09-27T13:02:21Z</time></trkpt>
<trkpt lat="23.1684" lon="108.650034">
<time>2015-09-27T13:02:22Z</time></trkpt>
<trkpt lat="23.168371" lon="108.649346">
<time>2015-09-27T13:02:23Z</time></trkpt>
<trkpt lat="23.168353" lon="108.648198">
<time>2015-09-27T13:02:24Z</time></trkpt>
<trkpt lat="23.168384" lon="108.647939">
<time>2015-09-27T13:02:25Z</time></trkpt>
<trkpt lat="23.168414" lon="108.647679">
<time>2015-09-27T13:02:26Z</time></trkpt>
<trkpt lat="23.168424" lon="108.64754">
<time>2015-09-27T13:02:27Z</time></trkpt>
<trkpt lat="23.168445" lon="108.6474">
<time>2015-09-27T13:02:28Z</time></trkpt>
<trkpt lat="23.168515" lon="108.64717">
<time>2015-09-27T13:02:29Z</time></trkpt>
<trkpt lat="23.168575" lon="108.647021">
<time>2015-09-27T13:02:30Z</time></trkpt>
<trkpt lat="23.168655" lon="108.646881">
<time>2015-09-27T13:02:31Z</time></trkpt>
<trkpt lat="23.168766" lon="108.646741">
<time>2015-09-27T13:02:32Z</time></trkpt>
<trkpt lat="23.168826" lon="108.646671">
<time>2015-09-27T13:02:33Z</time></trkpt>
<trkpt lat="23.168876" lon="108.646592">
<time>2015-09-27T13:02:34Z</time></trkpt>
<trkpt lat="23.168916" lon="108.646502">
<time>2015-09-27T13:02:35Z</time></trkpt>
<trkpt lat="23.168936" lon="108.646402">
<time>2015-09-27T13:02:36Z</time></trkpt>
<trkpt lat="23.168956" lon="108.646212">
<time>2015-09-27T13:02:37Z</time></trkpt>
<trkpt lat="23.168957" lon="108.646023">
<time>2015-09-27T13:02:38Z</time></trkpt>
<trkpt lat="23.168957" lon="108.645973">
<time>2015-09-27T13:02:39Z</time></trkpt>
<trkpt lat="23.168947" lon="108.645923">
<time>2015-09-27T13:02:40Z</time></trkpt>
<trkpt lat="23.168937" lon="108.645893">
<time>2015-09-27T13:02:41Z</time></trkpt>
<trkpt lat="23.168927" lon="108.645863">
<time>2015-09-27T13:02:42Z</time></trkpt>
<trkpt lat="23.168897" lon="108.645833">
<time>2015-09-27T13:02:43Z</time></trkpt>
<trkpt lat="23.168827" lon="108.645744">
<time>2015-09-27T13:02:44Z</time></trkpt>
<trkpt lat="23.168717" lon="108.645614">
<time>2015-09-27T13:02:45Z</time></trkpt>
<trkpt lat="23.168638" lon="108.645514">
<time>2015-09-27T13:02:46Z</time></trkpt>
<trkpt lat="23.168398" lon="108.645295">
<time>2015-09-27T13:02:47Z</time></trkpt>
<trkpt lat="23.168099" lon="108.644945">
<time>2015-09-27T13:02:48Z</time></trkpt>
<trkpt lat="23.16778" lon="108.644426">
<time>2015-09-27T13:02:49Z</time></trkpt>
<trkpt lat="23.1675" lon="108.644137">
<time>2015-09-27T13:02:50Z</time></trkpt>
<trkpt lat="23.166982" lon="108.643598">
<time>2015-09-27T13:02:51Z</time></trkpt>
<trkpt lat="23.166662" lon="108.643239">
<time>2015-09-27T13:02:52Z</time></trkpt>
<trkpt lat="23.166323" lon="108.64289">
<time>2015-09-27T13:02:53Z</time></trkpt>
<trkpt lat="23.166263" lon="108.64281">
<time>2015-09-27T13:02:54Z</time></trkpt>
<trkpt lat="23.166203" lon="108.64273">
<time>2015-09-27T13:02:55Z</time></trkpt>
<trkpt lat="23.166163" lon="108.64266">
<time>2015-09-27T13:02:56Z</time></trkpt>
<trkpt lat="23.166134" lon="108.64259">
<time>2015-09-27T13:02:57Z</time></trkpt>
<trkpt lat="23.166114" lon="108.642521">
<time>2015-09-27T13:02:58Z</time></trkpt>
<trkpt lat="23.166084" lon="108.642391">
<time>2015-09-27T13:02:59Z</time></trkpt>
<trkpt lat="23.166064" lon="108.642271">
<time>2015-09-27T13:03:00Z</time></trkpt>
<trkpt lat="23.166044" lon="108.642141">
<time>2015-09-27T13:03:01Z</time></trkpt>
<trkpt lat="23.165995" lon="108.641553">
<time>2015-09-27T13:03:02Z</time></trkpt>
<trkpt lat="23.165976" lon="108.641373">
<time>2015-09-27T13:03:03Z</time></trkpt>
<trkpt lat="23.165897" lon="108.640754">
<time>2015-09-27T13:03:04Z</time></trkpt>
<trkpt lat="23.165857" lon="108.640265">
<time>2015-09-27T13:03:05Z</time></trkpt>
<trkpt lat="23.165848" lon="108.640106">
<time>2015-09-27T13:03:06Z</time></trkpt>
<trkpt lat="23.165848" lon="108.639936">
<time>2015-09-27T13:03:07Z</time></trkpt>
<trkpt lat="23.16587" lon="108.638569">
<time>2015-09-27T13:03:08Z</time></trkpt>
<trkpt lat="23.165832" lon="108.637261">
<time>2015-09-27T13:03:09Z</time></trkpt>
<trkpt lat="23.165813" lon="108.636702">
<time>2015-09-27T13:03:10Z</time></trkpt>
<trkpt lat="23.165784" lon="108.636363">
<time>2015-09-27T13:03:11Z</time></trkpt>
<trkpt lat="23.165774" lon="108.636293">
<time>2015-09-27T13:03:12Z</time></trkpt>
<trkpt lat="23.165764" lon="108.636203">
<time>2015-09-27T13:03:13Z</time></trkpt>
<trkpt lat="23.165744" lon="108.636123">
<time>2015-09-27T13:03:14Z</time></trkpt>
<trkpt lat="23.165714" lon="108.636034">
<time>2015-09-27T13:03:15Z</time></trkpt>
<trkpt lat="23.165545" lon="108.635694">
<time>2015-09-27T13:03:16Z</time></trkpt>
<trkpt lat="23.165515" lon="108.635604">
<time>2015-09-27T13:03:17Z</time></trkpt>
<trkpt lat="23.165495" lon="108.635525">
<time>2015-09-27T13:03:18Z</time></trkpt>
<trkpt lat="23.165485" lon="108.635455">
<time>2015-09-27T13:03:19Z</time></trkpt>
<trkpt lat="23.165475" lon="108.635365">
<time>2015-09-27T13:03:20Z</time></trkpt>
<trkpt lat="23.165485" lon="108.635265">
<time>2015-09-27T13:03:21Z</time></trkpt>
<trkpt lat="23.165506" lon="108.635075">
<time>2015-09-27T13:03:22Z</time></trkpt>
<trkpt lat="23.165607" lon="108.634397">
<time>2015-09-27T13:03:23Z</time></trkpt>
<trkpt lat="23.165677" lon="108.633958">
<time>2015-09-27T13:03:24Z</time></trkpt>
<trkpt lat="23.165687" lon="108.633798">
<time>2015-09-27T13:03:25Z</time></trkpt>
<trkpt lat="23.165698" lon="108.633598">
<time>2015-09-27T13:03:26Z</time></trkpt>
<trkpt lat="23.165688" lon="108.633468">
<time>2015-09-27T13:03:27Z</time></trkpt>
<trkpt lat="23.165678" lon="108.633339">
<time>2015-09-27T13:03:28Z</time></trkpt>
<trkpt lat="23.1655" lon="108.632351">
<time>2015-09-27T13:03:29Z</time></trkpt>
<trkpt lat="23.1654" lon="108.631792">
<time>2015-09-27T13:03:30Z</time></trkpt>
<trkpt lat="23.165371" lon="108.631572">
<time>2015-09-27T13:03:31Z</time></trkpt>
<trkpt lat="23.165361" lon="108.631442">
<time>2015-09-27T13:03:32Z</time></trkpt>
<trkpt lat="23.165341" lon="108.631173">
<time>2015-09-27T13:03:33Z</time></trkpt>
<trkpt lat="23.165342" lon="108.630963">
<time>2015-09-27T13:03:34Z</time></trkpt>
<trkpt lat="23.165342" lon="108.630484">
<time>2015-09-27T13:03:35Z</time></trkpt>
<trkpt lat="23.165332" lon="108.630394">
<time>2015-09-27T13:03:36Z</time></trkpt>
<trkpt lat="23.165333" lon="108.630324">
<time>2015-09-27T13:03:37Z</time></trkpt>
<trkpt lat="23.165303" lon="108.630204">
<time>2015-09-27T13:03:38Z</time></trkpt>
<trkpt lat="23.165283" lon="108.630125">
<time>2015-09-27T13:03:39Z</time></trkpt>
<trkpt lat="23.165243" lon="108.630025">
<time>2015-09-27T13:03:40Z</time></trkpt>
<trkpt lat="23.165143" lon="108.629825">
<time>2015-09-27T13:03:41Z</time></trkpt>
<trkpt lat="23.165093" lon="108.629695">
<time>2015-09-27T13:03:42Z</time></trkpt>
<trkpt lat="23.165064" lon="108.629615">
<time>2015-09-27T13:03:43Z</time></trkpt>
<trkpt lat="23.164984" lon="108.629316">
<time>2015-09-27T13:03:44Z</time></trkpt>
<trkpt lat="23.164964" lon="108.629236">
<time>2015-09-27T13:03:45Z</time></trkpt>
<trkpt lat="23.164934" lon="108.629156">
<time>2015-09-27T13:03:46Z</time></trkpt>
<trkpt lat="23.164894" lon="108.629066">
<time>2015-09-27T13:03:47Z</time></trkpt>
<trkpt lat="23.164825" lon="108.628947">
<time>2015-09-27T13:03:48Z</time></trkpt>
<trkpt lat="23.164625" lon="108.628637">
<time>2015-09-27T13:03:49Z</time></trkpt>
<trkpt lat="23.164555" lon="108.628537">
<time>2015-09-27T13:03:50Z</time></trkpt>
<trkpt lat="23.164485" lon="108.628408">
<time>2015-09-27T13:03:51Z</time></trkpt>
<trkpt lat="23.164426" lon="108.628258">
<time>2015-09-27T13:03:52Z</time></trkpt>
<trkpt lat="23.164366" lon="108.628118">
<time>2015-09-27T13:03:53Z</time></trkpt>
<trkpt lat="23.164326" lon="108.627948">
<time>2015-09-27T13:03:54Z</time></trkpt>
<trkpt lat="23.164296" lon="108.627809">
<time>2015-09-27T13:03:55Z</time></trkpt>
<trkpt lat="23.164276" lon="108.627679">
<time>2015-09-27T13:03:56Z</time></trkpt>
<trkpt lat="23.164267" lon="108.627529">
<time>2015-09-27T13:03:57Z</time></trkpt>
<trkpt lat="23.164277" lon="108.62719">
<time>2015-09-27T13:03:58Z</time></trkpt>
<trkpt lat="23.164277" lon="108.62705">
<time>2015-09-27T13:03:59Z</time></trkpt>
<trkpt lat="23.164277" lon="108.62692">
<time>2015-09-27T13:04:00Z</time></trkpt>
<trkpt lat="23.164268" lon="108.6268">
<time>2015-09-27T13:04:01Z</time></trkpt>
<trkpt lat="23.164248" lon="108.6267">
<time>2015-09-27T13:04:02Z</time></trkpt>
<trkpt lat="23.164198" lon="108.626571">
<time>2015-09-27T13:04:03Z</time></trkpt>
<trkpt lat="23.164158" lon="108.626461">
<time>2015-09-27T13:04:04Z</time></trkpt>
<trkpt lat="23.164088" lon="108.626311">
<time>2015-09-27T13:04:05Z</time></trkpt>
<trkpt lat="23.163919" lon="108.625982">
<time>2015-09-27T13:04:06Z</time></trkpt>
<trkpt lat="23.163859" lon="108.625862">
<time>2015-09-27T13:04:07Z</time></trkpt>
<trkpt lat="23.163839" lon="108.625782">
<time>2015-09-27T13:04:08Z</time></trkpt>
<trkpt lat="23.163819" lon="108.625702">
<time>2015-09-27T13:04:09Z</time></trkpt>
<trkpt lat="23.163839" lon="108.625602">
<time>2015-09-27T13:04:10Z</time></trkpt>
<trkpt lat="23.163859" lon="108.625532">
<time>2015-09-27T13:04:11Z</time></trkpt>
<trkpt lat="23.163889" lon="108.625462">
<time>2015-09-27T13:04:12Z</time></trkpt>
<trkpt lat="23.16416" lon="108.625153">
<time>2015-09-27T13:04:13Z</time></trkpt>
<trkpt lat="23.16423" lon="108.625063">
<time>2015-09-27T13:04:14Z</time></trkpt>
<trkpt lat="23.16428" lon="108.624993">
<time>2015-09-27T13:04:15Z</time></trkpt>
<trkpt lat="23.16453" lon="108.624564">
<time>2015-09-27T13:04:16Z</time></trkpt>
<trkpt lat="23.16464" lon="108.624404">
<time>2015-09-27T13:04:17Z</time></trkpt>
<trkpt lat="23.16474" lon="108.624254">
<time>2015-09-27T13:04:18Z</time></trkpt>
<trkpt lat="23.164881" lon="108.624085">
<time>2015-09-27T13:04:19Z</time></trkpt>
<trkpt lat="23.165031" lon="108.623915">
<time>2015-09-27T13:04:20Z</time></trkpt>
<trkpt lat="23.165161" lon="108.623785">
<time>2015-09-27T13:04:21Z</time></trkpt>
<trkpt lat="23.165631" lon="108.623366">
<time>2015-09-27T13:04:22Z</time></trkpt>
<trkpt lat="23.166121" lon="108.622936">
<time>2015-09-27T13:04:23Z</time></trkpt>
<trkpt lat="23.166342" lon="108.622747">
<time>2015-09-27T13:04:24Z</time></trkpt>
<trkpt lat="23.166552" lon="108.622537">
<time>2015-09-27T13:04:25Z</time></trkpt>
<trkpt lat="23.166662" lon="108.622427">
<time>2015-09-27T13:04:26Z</time></trkpt>
<trkpt lat="23.166832" lon="108.622267">
<time>2015-09-27T13:04:27Z</time></trkpt>
<trkpt lat="23.166952" lon="108.622147">
<time>2015-09-27T13:04:28Z</time></trkpt>
<trkpt lat="23.167052" lon="108.622048">
<time>2015-09-27T13:04:29Z</time></trkpt>
<trkpt lat="23.167222" lon="108.621878">
<time>2015-09-27T13:04:30Z</time></trkpt>
<trkpt lat="23.167332" lon="108.621758">
<time>2015-09-27T13:04:31Z</time></trkpt>
<trkpt lat="23.167402" lon="108.621678">
<time>2015-09-27T13:04:32Z</time></trkpt>
<trkpt lat="23.167462" lon="108.621588">
<time>2015-09-27T13:04:33Z</time></trkpt>
<trkpt lat="23.167523" lon="108.621488">
<time>2015-09-27T13:04:34Z</time></trkpt>
<trkpt lat="23.167583" lon="108.621368">
<time>2015-09-27T13:04:35Z</time></trkpt>
<trkpt lat="23.167693" lon="108.621149">
<time>2015-09-27T13:04:36Z</time></trkpt>
<trkpt lat="23.167783" lon="108.620989">
<time>2015-09-27T13:04:37Z</time></trkpt>
<trkpt lat="23.167833" lon="108.620909">
<time>2015-09-27T13:04:38Z</time></trkpt>
<trkpt lat="23.167903" lon="108.620819">
<time>2015-09-27T13:04:39Z</time></trkpt>
<trkpt lat="23.167973" lon="108.620729">
<time>2015-09-27T13:04:40Z</time></trkpt>
<trkpt lat="23.168083" lon="108.62061">
<time>2015-09-27T13:04:41Z</time></trkpt>
<trkpt lat="23.168193" lon="108.62049">
<time>2015-09-27T13:04:42Z</time></trkpt>
<trkpt lat="23.168263" lon="108.62041">
<time>2015-09-27T13:04:43Z</time></trkpt>
<trkpt lat="23.168343" lon="108.62031">
<time>2015-09-27T13:04:44Z</time></trkpt>
<trkpt lat="23.168434" lon="108.62018">
<time>2015-09-27T13:04:45Z</time></trkpt>
<trkpt lat="23.168504" lon="108.62007">
<time>2015-09-27T13:04:46Z</time></trkpt>
<trkpt lat="23.168614" lon="108.619881">
<time>2015-09-27T13:04:47Z</time></trkpt>
<trkpt lat="23.168744" lon="108.619661">
<time>2015-09-27T13:04:48Z</time></trkpt>
<trkpt lat="23.168874" lon="108.619441">
<time>2015-09-27T13:04:49Z</time></trkpt>
<trkpt lat="23.168964" lon="108.619271">
<time>2015-09-27T13:04:50Z</time></trkpt>
<trkpt lat="23.169004" lon="108.619172">
<time>2015-09-27T13:04:51Z</time></trkpt>
<trkpt lat="23.169055" lon="108.619022">
<time>2015-09-27T13:04:52Z</time></trkpt>
<trkpt lat="23.169065" lon="108.618922">
<time>2015-09-27T13:04:53Z</time></trkpt>
<trkpt lat="23.169075" lon="108.618842">
<time>2015-09-27T13:04:54Z</time></trkpt>
<trkpt lat="23.169085" lon="108.618752">
<time>2015-09-27T13:04:55Z</time></trkpt>
<trkpt lat="23.169085" lon="108.618642">
<time>2015-09-27T13:04:56Z</time></trkpt>
<trkpt lat="23.169095" lon="108.618512">
<time>2015-09-27T13:04:57Z</time></trkpt>
<trkpt lat="23.169105" lon="108.618363">
<time>2015-09-27T13:04:58Z</time></trkpt>
<trkpt lat="23.169135" lon="108.618233">
<time>2015-09-27T13:04:59Z</time></trkpt>
<trkpt lat="23.169155" lon="108.618153">
<time>2015-09-27T13:05:00Z</time></trkpt>
<trkpt lat="23.169205" lon="108.618053">
<time>2015-09-27T13:05:01Z</time></trkpt>
<trkpt lat="23.169276" lon="108.617933">
<time>2015-09-27T13:05:02Z</time></trkpt>
<trkpt lat="23.169336" lon="108.617833">
<time>2015-09-27T13:05:03Z</time></trkpt>
<trkpt lat="23.169426" lon="108.617733">
<time>2015-09-27T13:05:04Z</time></trkpt>
<trkpt lat="23.169566" lon="108.617564">
<time>2015-09-27T13:05:05Z</time></trkpt>
<trkpt lat="23.169686" lon="108.617444">
<time>2015-09-27T13:05:06Z</time></trkpt>
<trkpt lat="23.169846" lon="108.617274">
<time>2015-09-27T13:05:07Z</time></trkpt>
<trkpt lat="23.169956" lon="108.617154">
<time>2015-09-27T13:05:08Z</time></trkpt>
<trkpt lat="23.170096" lon="108.617004">
<time>2015-09-27T13:05:09Z</time></trkpt>
<trkpt lat="23.170186" lon="108.616884">
<time>2015-09-27T13:05:10Z</time></trkpt>
<trkpt lat="23.170316" lon="108.616715">
<time>2015-09-27T13:05:11Z</time></trkpt>
<trkpt lat="23.170386" lon="108.616605">
<time>2015-09-27T13:05:12Z</time></trkpt>
<trkpt lat="23.170717" lon="108.616085">
<time>2015-09-27T13:05:13Z</time></trkpt>
<trkpt lat="23.170867" lon="108.615836">
<time>2015-09-27T13:05:14Z</time></trkpt>
<trkpt lat="23.171037" lon="108.615576">
<time>2015-09-27T13:05:15Z</time></trkpt>
<trkpt lat="23.171167" lon="108.615396">
<time>2015-09-27T13:05:16Z</time></trkpt>
<trkpt lat="23.171377" lon="108.615147">
<time>2015-09-27T13:05:17Z</time></trkpt>
<trkpt lat="23.171487" lon="108.615007">
<time>2015-09-27T13:05:18Z</time></trkpt>
<trkpt lat="23.171577" lon="108.614907">
<time>2015-09-27T13:05:19Z</time></trkpt>
<trkpt lat="23.171647" lon="108.614837">
<time>2015-09-27T13:05:20Z</time></trkpt>
<trkpt lat="23.171707" lon="108.614787">
<time>2015-09-27T13:05:21Z</time></trkpt>
<trkpt lat="23.171787" lon="108.614727">
<time>2015-09-27T13:05:22Z</time></trkpt>
<trkpt lat="23.171828" lon="108.614707">
<time>2015-09-27T13:05:23Z</time></trkpt>
<trkpt lat="23.171868" lon="108.614677">
<time>2015-09-27T13:05:24Z</time></trkpt>
<trkpt lat="23.172028" lon="108.614577">
<time>2015-09-27T13:05:25Z</time></trkpt>
<trkpt lat="23.172138" lon="108.614507">
<time>2015-09-27T13:05:26Z</time></trkpt>
<trkpt lat="23.172258" lon="108.614417">
<time>2015-09-27T13:05:27Z</time></trkpt>
<trkpt lat="23.172388" lon="108.614308">
<time>2015-09-27T13:05:28Z</time></trkpt>
<trkpt lat="23.172608" lon="108.614098">
<time>2015-09-27T13:05:29Z</time></trkpt>
<trkpt lat="23.172708" lon="108.614018">
<time>2015-09-27T13:05:30Z</time></trkpt>
<trkpt lat="23.172768" lon="108.613968">
<time>2015-09-27T13:05:31Z</time></trkpt>
<trkpt lat="23.172828" lon="108.613928">
<time>2015-09-27T13:05:32Z</time></trkpt>
<trkpt lat="23.172908" lon="108.613888">
<time>2015-09-27T13:05:33Z</time></trkpt>
<trkpt lat="23.173018" lon="108.613828">
<time>2015-09-27T13:05:34Z</time></trkpt>
<trkpt lat="23.173128" lon="108.613778">
<time>2015-09-27T13:05:35Z</time></trkpt>
<trkpt lat="23.173378" lon="108.613668">
<time>2015-09-27T13:05:36Z</time></trkpt>
<trkpt lat="23.173478" lon="108.613618">
<time>2015-09-27T13:05:37Z</time></trkpt>
<trkpt lat="23.173588" lon="108.613538">
<time>2015-09-27T13:05:38Z</time></trkpt>
<trkpt lat="23.173638" lon="108.613498">
<time>2015-09-27T13:05:39Z</time></trkpt>
<trkpt lat="23.173718" lon="108.613418">
<time>2015-09-27T13:05:40Z</time></trkpt>
<trkpt lat="23.173778" lon="108.613349">
<time>2015-09-27T13:05:41Z</time></trkpt>
<trkpt lat="23.173828" lon="108.613289">
<time>2015-09-27T13:05:42Z</time></trkpt>
<trkpt lat="23.173858" lon="108.613239">
<time>2015-09-27T13:05:43Z</time></trkpt>
<trkpt lat="23.173898" lon="108.613149">
<time>2015-09-27T13:05:44Z</time></trkpt>
<trkpt lat="23.173928" lon="108.613079">
<time>2015-09-27T13:05:45Z</time></trkpt>
<trkpt lat="23.173958" lon="108.612959">
<time>2015-09-27T13:05:46Z</time></trkpt>
<trkpt lat="23.173998" lon="108.612779">
<time>2015-09-27T13:05:47Z</time></trkpt>
<trkpt lat="23.174048" lon="108.612549">
<time>2015-09-27T13:05:48Z</time></trkpt>
<trkpt lat="23.174078" lon="108.61244">
<time>2015-09-27T13:05:49Z</time></trkpt>
<trkpt lat="23.174109" lon="108.61236">
<time>2015-09-27T13:05:50Z</time></trkpt>
<trkpt lat="23.174169" lon="108.61221">
<time>2015-09-27T13:05:51Z</time></trkpt>
<trkpt lat="23.174279" lon="108.61196">
<time>2015-09-27T13:05:52Z</time></trkpt>
<trkpt lat="23.174319" lon="108.61187">
<time>2015-09-27T13:05:53Z</time></trkpt>
<trkpt lat="23.174359" lon="108.61172">
<time>2015-09-27T13:05:54Z</time></trkpt>
<trkpt lat="23.174389" lon="108.61155">
<time>2015-09-27T13:05:55Z</time></trkpt>
<trkpt lat="23.174429" lon="108.611331">
<time>2015-09-27T13:05:56Z</time></trkpt>
<trkpt lat="23.174449" lon="108.611211">
<time>2015-09-27T13:05:57Z</time></trkpt>
<trkpt lat="23.174469" lon="108.611131">
<time>2015-09-27T13:05:58Z</time></trkpt>
<trkpt lat="23.174499" lon="108.611041">
<time>2015-09-27T13:05:59Z</time></trkpt>
<trkpt lat="23.174539" lon="108.610961">
<time>2015-09-27T13:06:00Z</time></trkpt>
<trkpt lat="23.174599" lon="108.610871">
<time>2015-09-27T13:06:01Z</time></trkpt>
<trkpt lat="23.17472" lon="108.610711">
<time>2015-09-27T13:06:02Z</time></trkpt>
<trkpt lat="23.17489" lon="108.610482">
<time>2015-09-27T13:06:03Z</time></trkpt>
<trkpt lat="23.17503" lon="108.610302">
<time>2015-09-27T13:06:04Z</time></trkpt>
<trkpt lat="23.17516" lon="108.610112">
<time>2015-09-27T13:06:05Z</time></trkpt>
<trkpt lat="23.17528" lon="108.609942">
<time>2015-09-27T13:06:06Z</time></trkpt>
<trkpt lat="23.17542" lon="108.609772">
<time>2015-09-27T13:06:07Z</time></trkpt>
<trkpt lat="23.17551" lon="108.609672">
<time>2015-09-27T13:06:08Z</time></trkpt>
<trkpt lat="23.1756" lon="108.609572">
<time>2015-09-27T13:06:09Z</time></trkpt>
<trkpt lat="23.17568" lon="108.609453">
<time>2015-09-27T13:06:10Z</time></trkpt>
<trkpt lat="23.17579" lon="108.609303">
<time>2015-09-27T13:06:11Z</time></trkpt>
<trkpt lat="23.17592" lon="108.609133">
<time>2015-09-27T13:06:12Z</time></trkpt>
<trkpt lat="23.17608" lon="108.608923">
<time>2015-09-27T13:06:13Z</time></trkpt>
<trkpt lat="23.17616" lon="108.608793">
<time>2015-09-27T13:06:14Z</time></trkpt>
<trkpt lat="23.17623" lon="108.608683">
<time>2015-09-27T13:06:15Z</time></trkpt>
<trkpt lat="23.17627" lon="108.608603">
<time>2015-09-27T13:06:16Z</time></trkpt>
<trkpt lat="23.17634" lon="108.608473">
<time>2015-09-27T13:06:17Z</time></trkpt>
<trkpt lat="23.17638" lon="108.608354">
<time>2015-09-27T13:06:18Z</time></trkpt>
<trkpt lat="23.1764" lon="108.608294">
<time>2015-09-27T13:06:19Z</time></trkpt>
<trkpt lat="23.176441" lon="108.608164">
<time>2015-09-27T13:06:20Z</time></trkpt>
<trkpt lat="23.176471" lon="108.608004">
<time>2015-09-27T13:06:21Z</time></trkpt>
<trkpt lat="23.176541" lon="108.607684">
<time>2015-09-27T13:06:22Z</time></trkpt>
<trkpt lat="23.176621" lon="108.607304">
<time>2015-09-27T13:06:23Z</time></trkpt>
<trkpt lat="23.176701" lon="108.606985">
<time>2015-09-27T13:06:24Z</time></trkpt>
<trkpt lat="23.176741" lon="108.606815">
<time>2015-09-27T13:06:25Z</time></trkpt>
<trkpt lat="23.176791" lon="108.606665">
<time>2015-09-27T13:06:26Z</time></trkpt>
<trkpt lat="23.176831" lon="108.606555">
<time>2015-09-27T13:06:27Z</time></trkpt>
<trkpt lat="23.176911" lon="108.606405">
<time>2015-09-27T13:06:28Z</time></trkpt>
<trkpt lat="23.177001" lon="108.606245">
<time>2015-09-27T13:06:29Z</time></trkpt>
<trkpt lat="23.177031" lon="108.606185">
<time>2015-09-27T13:06:30Z</time></trkpt>
<trkpt lat="23.177161" lon="108.606005">
<time>2015-09-27T13:06:31Z</time></trkpt>
<trkpt lat="23.177331" lon="108.605756">
<time>2015-09-27T13:06:32Z</time></trkpt>
<trkpt lat="23.177422" lon="108.605606">
<time>2015-09-27T13:06:33Z</time></trkpt>
<trkpt lat="23.177572" lon="108.605346">
<time>2015-09-27T13:06:34Z</time></trkpt>
<trkpt lat="23.177762" lon="108.604996">
<time>2015-09-27T13:06:35Z</time></trkpt>
<trkpt lat="23.177932" lon="108.604686">
<time>2015-09-27T13:06:36Z</time></trkpt>
<trkpt lat="23.178072" lon="108.604457">
<time>2015-09-27T13:06:37Z</time></trkpt>
<trkpt lat="23.178292" lon="108.604107">
<time>2015-09-27T13:06:38Z</time></trkpt>
<trkpt lat="23.178402" lon="108.603947">
<time>2015-09-27T13:06:39Z</time></trkpt>
<trkpt lat="23.178472" lon="108.603847">
<time>2015-09-27T13:06:40Z</time></trkpt>
<trkpt lat="23.178512" lon="108.603767">
<time>2015-09-27T13:06:41Z</time></trkpt>
<trkpt lat="23.178522" lon="108.603707">
<time>2015-09-27T13:06:42Z</time></trkpt>
<trkpt lat="23.178532" lon="108.603647">
<time>2015-09-27T13:06:43Z</time></trkpt>
<trkpt lat="23.178532" lon="108.603587">
<time>2015-09-27T13:06:44Z</time></trkpt>
<trkpt lat="23.178522" lon="108.603527">
<time>2015-09-27T13:06:45Z</time></trkpt>
<trkpt lat="23.178492" lon="108.603397">
<time>2015-09-27T13:06:46Z</time></trkpt>
<trkpt lat="23.178442" lon="108.603178">
<time>2015-09-27T13:06:47Z</time></trkpt>
<trkpt lat="23.178422" lon="108.603058">
<time>2015-09-27T13:06:48Z</time></trkpt>
<trkpt lat="23.178412" lon="108.603008">
<time>2015-09-27T13:06:49Z</time></trkpt>
<trkpt lat="23.178412" lon="108.602928">
<time>2015-09-27T13:06:50Z</time></trkpt>
<trkpt lat="23.178412" lon="108.602848">
<time>2015-09-27T13:06:51Z</time></trkpt>
<trkpt lat="23.178432" lon="108.602758">
<time>2015-09-27T13:06:52Z</time></trkpt>
<trkpt lat="23.178452" lon="108.602678">
<time>2015-09-27T13:06:53Z</time></trkpt>
<trkpt lat="23.178492" lon="108.602598">
<time>2015-09-27T13:06:54Z</time></trkpt>
<trkpt lat="23.178522" lon="108.602548">
<time>2015-09-27T13:06:55Z</time></trkpt>
<trkpt lat="23.178562" lon="108.602498">
<time>2015-09-27T13:06:56Z</time></trkpt>
<trkpt lat="23.178612" lon="108.602438">
<time>2015-09-27T13:06:57Z</time></trkpt>
<trkpt lat="23.178662" lon="108.602388">
<time>2015-09-27T13:06:58Z</time></trkpt>
<trkpt lat="23.178702" lon="108.602358">
<time>2015-09-27T13:06:59Z</time></trkpt>
<trkpt lat="23.178902" lon="108.602198">
<time>2015-09-27T13:07:00Z</time></trkpt>
<trkpt lat="23.178972" lon="108.602138">
<time>2015-09-27T13:07:01Z</time></trkpt>
<trkpt lat="23.179042" lon="108.602078">
<time>2015-09-27T13:07:02Z</time></trkpt>
<trkpt lat="23.179112" lon="108.601988">
<time>2015-09-27T13:07:03Z</time></trkpt>
<trkpt lat="23.179162" lon="108.601918">
<time>2015-09-27T13:07:04Z</time></trkpt>
<trkpt lat="23.179222" lon="108.601808">
<time>2015-09-27T13:07:05Z</time></trkpt>
<trkpt lat="23.179262" lon="108.601708">
<time>2015-09-27T13:07:06Z</time></trkpt>
<trkpt lat="23.179312" lon="108.601598">
<time>2015-09-27T13:07:07Z</time></trkpt>
<trkpt lat="23.179332" lon="108.601529">
<time>2015-09-27T13:07:08Z</time></trkpt>
<trkpt lat="23.179403" lon="108.601259">
<time>2015-09-27T13:07:09Z</time></trkpt>
<trkpt lat="23.179443" lon="108.601069">
<time>2015-09-27T13:07:10Z</time></trkpt>
<trkpt lat="23.179483" lon="108.600889">
<time>2015-09-27T13:07:11Z</time></trkpt>
<trkpt lat="23.179493" lon="108.600799">
<time>2015-09-27T13:07:12Z</time></trkpt>
<trkpt lat="23.179493" lon="108.600689">
<time>2015-09-27T13:07:13Z</time></trkpt>
<trkpt lat="23.179493" lon="108.600589">
<time>2015-09-27T13:07:14Z</time></trkpt>
<trkpt lat="23.179483" lon="108.600489">
<time>2015-09-27T13:07:15Z</time></trkpt>
<trkpt lat="23.179443" lon="108.600179">
<time>2015-09-27T13:07:16Z</time></trkpt>
<trkpt lat="23.179423" lon="108.599979">
<time>2015-09-27T13:07:17Z</time></trkpt>
<trkpt lat="23.179413" lon="108.599839">
<time>2015-09-27T13:07:18Z</time></trkpt>
<trkpt lat="23.179403" lon="108.59972">
<time>2015-09-27T13:07:19Z</time></trkpt>
<trkpt lat="23.179413" lon="108.59964">
<time>2015-09-27T13:07:20Z</time></trkpt>
<trkpt lat="23.179423" lon="108.59955">
<time>2015-09-27T13:07:21Z</time></trkpt>
<trkpt lat="23.179453" lon="108.59946">
<time>2015-09-27T13:07:22Z</time></trkpt>
<trkpt lat="23.179493" lon="108.59938">
<time>2015-09-27T13:07:23Z</time></trkpt>
<trkpt lat="23.179533" lon="108.59932">
<time>2015-09-27T13:07:24Z</time></trkpt>
<trkpt lat="23.179593" lon="108.59922">
<time>2015-09-27T13:07:25Z</time></trkpt>
<trkpt lat="23.179653" lon="108.59915">
<time>2015-09-27T13:07:26Z</time></trkpt>
<trkpt lat="23.179793" lon="108.59898">
<time>2015-09-27T13:07:27Z</time></trkpt>
<trkpt lat="23.179983" lon="108.59875">
<time>2015-09-27T13:07:28Z</time></trkpt>
<trkpt lat="23.180143" lon="108.59855">
<time>2015-09-27T13:07:29Z</time></trkpt>
<trkpt lat="23.180253" lon="108.59841">
<time>2015-09-27T13:07:30Z</time></trkpt>
<trkpt lat="23.180363" lon="108.59828">
<time>2015-09-27T13:07:31Z</time></trkpt>
<trkpt lat="23.180423" lon="108.59822">
<time>2015-09-27T13:07:32Z</time></trkpt>
<trkpt lat="23.180523" lon="108.59812">
<time>2015-09-27T13:07:33Z</time></trkpt>
<trkpt lat="23.180643" lon="108.59802">
<time>2015-09-27T13:07:34Z</time></trkpt>
<trkpt lat="23.180773" lon="108.5979">
<time>2015-09-27T13:07:35Z</time></trkpt>
<trkpt lat="23.180833" lon="108.59785">
<time>2015-09-27T13:07:36Z</time></trkpt>
<trkpt lat="23.180913" lon="108.59776">
<time>2015-09-27T13:07:37Z</time></trkpt>
<trkpt lat="23.181123" lon="108.59752">
<time>2015-09-27T13:07:38Z</time></trkpt>
<trkpt lat="23.181423" lon="108.597181">
<time>2015-09-27T13:07:39Z</time></trkpt>
<trkpt lat="23.181623" lon="108.596951">
<time>2015-09-27T13:07:40Z</time></trkpt>
<trkpt lat="23.181703" lon="108.596851">
<time>2015-09-27T13:07:41Z</time></trkpt>
<trkpt lat="23.181743" lon="108.596801">
<time>2015-09-27T13:07:42Z</time></trkpt>
<trkpt lat="23.181783" lon="108.596751">
<time>2015-09-27T13:07:43Z</time></trkpt>
<trkpt lat="23.181883" lon="108.596561">
<time>2015-09-27T13:07:44Z</time></trkpt>
<trkpt lat="23.181953" lon="108.596391">
<time>2015-09-27T13:07:45Z</time></trkpt>
<trkpt lat="23.182013" lon="108.596261">
<time>2015-09-27T13:07:46Z</time></trkpt>
<trkpt lat="23.182053" lon="108.596131">
<time>2015-09-27T13:07:47Z</time></trkpt>
<trkpt lat="23.182073" lon="108.596061">
<time>2015-09-27T13:07:48Z</time></trkpt>
<trkpt lat="23.182073" lon="108.596011">
<time>2015-09-27T13:07:49Z</time></trkpt>
<trkpt lat="23.182083" lon="108.595951">
<time>2015-09-27T13:07:50Z</time></trkpt>
<trkpt lat="23.182083" lon="108.595901">
<time>2015-09-27T13:07:51Z</time></trkpt>
<trkpt lat="23.182073" lon="108.595831">
<time>2015-09-27T13:07:52Z</time></trkpt>
<trkpt lat="23.182063" lon="108.595791">
<time>2015-09-27T13:07:53Z</time></trkpt>
<trkpt lat="23.182043" lon="108.595661">
<time>2015-09-27T13:07:54Z</time></trkpt>
<trkpt lat="23.181993" lon="108.595501">
<time>2015-09-27T13:07:55Z</time></trkpt>
<trkpt lat="23.181913" lon="108.595241">
<time>2015-09-27T13:07:56Z</time></trkpt>
<trkpt lat="23.181863" lon="108.595061">
<time>2015-09-27T13:07:57Z</time></trkpt>
<trkpt lat="23.181813" lon="108.594891">
<time>2015-09-27T13:07:58Z</time></trkpt>
<trkpt lat="23.181803" lon="108.594781">
<time>2015-09-27T13:07:59Z</time></trkpt>
<trkpt lat="23.181793" lon="108.594681">
<time>2015-09-27T13:08:00Z</time></trkpt>
<trkpt lat="23.181803" lon="108.594531">
<time>2015-09-27T13:08:01Z</time></trkpt>
<trkpt lat="23.181823" lon="108.594411">
<time>2015-09-27T13:08:02Z</time></trkpt>
<trkpt lat="23.181863" lon="108.594281">
<time>2015-09-27T13:08:03Z</time></trkpt>
<trkpt lat="23.181983" lon="108.593932">
<time>2015-09-27T13:08:04Z</time></trkpt>
<trkpt lat="23.182103" lon="108.593642">
<time>2015-09-27T13:08:05Z</time></trkpt>
<trkpt lat="23.182163" lon="108.593512">
<time>2015-09-27T13:08:06Z</time></trkpt>
<trkpt lat="23.182223" lon="108.593412">
<time>2015-09-27T13:08:07Z</time></trkpt>
<trkpt lat="23.182253" lon="108.593352">
<time>2015-09-27T13:08:08Z</time></trkpt>
<trkpt lat="23.182333" lon="108.593222">
<time>2015-09-27T13:08:09Z</time></trkpt>
<trkpt lat="23.182433" lon="108.593062">
<time>2015-09-27T13:08:10Z</time></trkpt>
<trkpt lat="23.182473" lon="108.592992">
<time>2015-09-27T13:08:11Z</time></trkpt>
<trkpt lat="23.182502" lon="108.592912">
<time>2015-09-27T13:08:12Z</time></trkpt>
<trkpt lat="23.182522" lon="108.592852">
<time>2015-09-27T13:08:13Z</time></trkpt>
<trkpt lat="23.182562" lon="108.592692">
<time>2015-09-27T13:08:14Z</time></trkpt>
<trkpt lat="23.182632" lon="108.592412">
<time>2015-09-27T13:08:15Z</time></trkpt>
<trkpt lat="23.182692" lon="108.592092">
<time>2015-09-27T13:08:16Z</time></trkpt>
<trkpt lat="23.182752" lon="108.591872">
<time>2015-09-27T13:08:17Z</time></trkpt>
<trkpt lat="23.182802" lon="108.591722">
<time>2015-09-27T13:08:18Z</time></trkpt>
<trkpt lat="23.182892" lon="108.591512">
<time>2015-09-27T13:08:19Z</time></trkpt>
<trkpt lat="23.183012" lon="108.591252">
<time>2015-09-27T13:08:20Z</time></trkpt>
<trkpt lat="23.183082" lon="108.591102">
<time>2015-09-27T13:08:21Z</time></trkpt>
<trkpt lat="23.183182" lon="108.590912">
<time>2015-09-27T13:08:22Z</time></trkpt>
<trkpt lat="23.183322" lon="108.590672">
<time>2015-09-27T13:08:23Z</time></trkpt>
<trkpt lat="23.183502" lon="108.590352">
<time>2015-09-27T13:08:24Z</time></trkpt>
<trkpt lat="23.183672" lon="108.590012">
<time>2015-09-27T13:08:25Z</time></trkpt>
<trkpt lat="23.183792" lon="108.589802">
<time>2015-09-27T13:08:26Z</time></trkpt>
<trkpt lat="23.183852" lon="108.589682">
<time>2015-09-27T13:08:27Z</time></trkpt>
<trkpt lat="23.183892" lon="108.589602">
<time>2015-09-27T13:08:28Z</time></trkpt>
<trkpt lat="23.183912" lon="108.589522">
<time>2015-09-27T13:08:29Z</time></trkpt>
<trkpt lat="23.183942" lon="108.589432">
<time>2015-09-27T13:08:30Z</time></trkpt>
<trkpt lat="23.183971" lon="108.589262">
<time>2015-09-27T13:08:31Z</time></trkpt>
<trkpt lat="23.184001" lon="108.589012">
<time>2015-09-27T13:08:32Z</time></trkpt>
<trkpt lat="23.184001" lon="108.589002">
<time>2015-09-27T13:08:33Z</time></trkpt>
<trkpt lat="23.184011" lon="108.588842">
<time>2015-09-27T13:08:34Z</time></trkpt>
<trkpt lat="23.184041" lon="108.588442">
<time>2015-09-27T13:08:35Z</time></trkpt>
<trkpt lat="23.184081" lon="108.588222">
<time>2015-09-27T13:08:36Z</time></trkpt>
<trkpt lat="23.184111" lon="108.588022">
<time>2015-09-27T13:08:37Z</time></trkpt>
<trkpt lat="23.184161" lon="108.587832">
<time>2015-09-27T13:08:38Z</time></trkpt>
<trkpt lat="23.184191" lon="108.587762">
<time>2015-09-27T13:08:39Z</time></trkpt>
<trkpt lat="23.184231" lon="108.587642">
<time>2015-09-27T13:08:40Z</time></trkpt>
<trkpt lat="23.184291" lon="108.587522">
<time>2015-09-27T13:08:41Z</time></trkpt>
<trkpt lat="23.184361" lon="108.587382">
<time>2015-09-27T13:08:42Z</time></trkpt>
<trkpt lat="23.184491" lon="108.587202">
<time>2015-09-27T13:08:43Z</time></trkpt>
<trkpt lat="23.184661" lon="108.586982">
<time>2015-09-27T13:08:44Z</time></trkpt>
<trkpt lat="23.18485" lon="108.586752">
<time>2015-09-27T13:08:45Z</time></trkpt>
<trkpt lat="23.18492" lon="108.586632">
<time>2015-09-27T13:08:46Z</time></trkpt>
<trkpt lat="23.18499" lon="108.586512">
<time>2015-09-27T13:08:47Z</time></trkpt>
<trkpt lat="23.18503" lon="108.586392">
<time>2015-09-27T13:08:48Z</time></trkpt>
<trkpt lat="23.18506" lon="108.586292">
<time>2015-09-27T13:08:49Z</time></trkpt>
<trkpt lat="23.18509" lon="108.586182">
<time>2015-09-27T13:08:50Z</time></trkpt>
<trkpt lat="23.1851" lon="108.586102">
<time>2015-09-27T13:08:51Z</time></trkpt>
<trkpt lat="23.1851" lon="108.586032">
<time>2015-09-27T13:08:52Z</time></trkpt>
<trkpt lat="23.18511" lon="108.585952">
<time>2015-09-27T13:08:53Z</time></trkpt>
<trkpt lat="23.1851" lon="108.585842">
<time>2015-09-27T13:08:54Z</time></trkpt>
<trkpt lat="23.18509" lon="108.585742">
<time>2015-09-27T13:08:55Z</time></trkpt>
<trkpt lat="23.18508" lon="108.585682">
<time>2015-09-27T13:08:56Z</time></trkpt>
<trkpt lat="23.18505" lon="108.585572">
<time>2015-09-27T13:08:57Z</time></trkpt>
<trkpt lat="23.185" lon="108.585392">
<time>2015-09-27T13:08:58Z</time></trkpt>
<trkpt lat="23.18492" lon="108.585152">
<time>2015-09-27T13:08:59Z</time></trkpt>
<trkpt lat="23.18488" lon="108.584982">
<time>2015-09-27T13:09:00Z</time></trkpt>
<trkpt lat="23.18485" lon="108.584822">
<time>2015-09-27T13:09:01Z</time></trkpt>
<trkpt lat="23.18483" lon="108.584731">
<time>2015-09-27T13:09:02Z</time></trkpt>
<trkpt lat="23.18483" lon="108.584591">
<time>2015-09-27T13:09:03Z</time></trkpt>
<trkpt lat="23.18482" lon="108.584401">
<time>2015-09-27T13:09:04Z</time></trkpt>
<trkpt lat="23.184829" lon="108.584051">
<time>2015-09-27T13:09:05Z</time></trkpt>
<trkpt lat="23.184859" lon="108.583631">
<time>2015-09-27T13:09:06Z</time></trkpt>
<trkpt lat="23.184889" lon="108.583441">
<time>2015-09-27T13:09:07Z</time></trkpt>
<trkpt lat="23.184919" lon="108.583291">
<time>2015-09-27T13:09:08Z</time></trkpt>
<trkpt lat="23.184959" lon="108.583181">
<time>2015-09-27T13:09:09Z</time></trkpt>
<trkpt lat="23.184999" lon="108.583091">
<time>2015-09-27T13:09:10Z</time></trkpt>
<trkpt lat="23.185039" lon="108.583011">
<time>2015-09-27T13:09:11Z</time></trkpt>
<trkpt lat="23.185089" lon="108.582951">
<time>2015-09-27T13:09:12Z</time></trkpt>
<trkpt lat="23.185139" lon="108.582901">
<time>2015-09-27T13:09:13Z</time></trkpt>
<trkpt lat="23.185189" lon="108.582841">
<time>2015-09-27T13:09:14Z</time></trkpt>
<trkpt lat="23.185249" lon="108.582791">
<time>2015-09-27T13:09:15Z</time></trkpt>
<trkpt lat="23.185309" lon="108.582751">
<time>2015-09-27T13:09:16Z</time></trkpt>
<trkpt lat="23.185548" lon="108.582581">
<time>2015-09-27T13:09:17Z</time></trkpt>
<trkpt lat="23.185798" lon="108.582411">
<time>2015-09-27T13:09:18Z</time></trkpt>
<trkpt lat="23.186058" lon="108.582231">
<time>2015-09-27T13:09:19Z</time></trkpt>
<trkpt lat="23.186428" lon="108.581941">
<time>2015-09-27T13:09:20Z</time></trkpt>
<trkpt lat="23.186658" lon="108.581761">
<time>2015-09-27T13:09:21Z</time></trkpt>
<trkpt lat="23.186917" lon="108.58156">
<time>2015-09-27T13:09:22Z</time></trkpt>
<trkpt lat="23.187127" lon="108.58142">
<time>2015-09-27T13:09:23Z</time></trkpt>
<trkpt lat="23.187267" lon="108.58133">
<time>2015-09-27T13:09:24Z</time></trkpt>
<trkpt lat="23.187477" lon="108.5812">
<time>2015-09-27T13:09:25Z</time></trkpt>
<trkpt lat="23.187647" lon="108.5811">
<time>2015-09-27T13:09:26Z</time></trkpt>
<trkpt lat="23.187797" lon="108.58103">
<time>2015-09-27T13:09:27Z</time></trkpt>
<trkpt lat="23.187917" lon="108.58098">
<time>2015-09-27T13:09:28Z</time></trkpt>
<trkpt lat="23.188047" lon="108.58093">
<time>2015-09-27T13:09:29Z</time></trkpt>
<trkpt lat="23.188187" lon="108.58088">
<time>2015-09-27T13:09:30Z</time></trkpt>
<trkpt lat="23.188356" lon="108.58084">
<time>2015-09-27T13:09:31Z</time></trkpt>
<trkpt lat="23.188506" lon="108.5808">
<time>2015-09-27T13:09:32Z</time></trkpt>
<trkpt lat="23.188676" lon="108.58074">
<time>2015-09-27T13:09:33Z</time></trkpt>
<trkpt lat="23.188796" lon="108.5807">
<time>2015-09-27T13:09:34Z</time></trkpt>
<trkpt lat="23.188886" lon="108.58066">
<time>2015-09-27T13:09:35Z</time></trkpt>
<trkpt lat="23.188986" lon="108.58061">
<time>2015-09-27T13:09:36Z</time></trkpt>
<trkpt lat="23.189086" lon="108.58054">
<time>2015-09-27T13:09:37Z</time></trkpt>
<trkpt lat="23.189226" lon="108.58044">
<time>2015-09-27T13:09:38Z</time></trkpt>
<trkpt lat="23.189466" lon="108.58023">
<time>2015-09-27T13:09:39Z</time></trkpt>
<trkpt lat="23.189666" lon="108.58008">
<time>2015-09-27T13:09:40Z</time></trkpt>
<trkpt lat="23.189805" lon="108.57998">
<time>2015-09-27T13:09:41Z</time></trkpt>
<trkpt lat="23.189945" lon="108.57988">
<time>2015-09-27T13:09:42Z</time></trkpt>
<trkpt lat="23.190025" lon="108.57984">
<time>2015-09-27T13:09:43Z</time></trkpt>
<trkpt lat="23.190045" lon="108.57982">
<time>2015-09-27T13:09:44Z</time></trkpt>
<trkpt lat="23.190225" lon="108.579709">
<time>2015-09-27T13:09:45Z</time></trkpt>
<trkpt lat="23.190325" lon="108.579629">
<time>2015-09-27T13:09:46Z</time></trkpt>
<trkpt lat="23.190405" lon="108.579559">
<time>2015-09-27T13:09:47Z</time></trkpt>
<trkpt lat="23.190455" lon="108.579509">
<time>2015-09-27T13:09:48Z</time></trkpt>
<trkpt lat="23.190555" lon="108.579399">
<time>2015-09-27T13:09:49Z</time></trkpt>
<trkpt lat="23.190635" lon="108.579319">
<time>2015-09-27T13:09:50Z</time></trkpt>
<trkpt lat="23.190705" lon="108.579259">
<time>2015-09-27T13:09:51Z</time></trkpt>
<trkpt lat="23.190775" lon="108.579209">
<time>2015-09-27T13:09:52Z</time></trkpt>
<trkpt lat="23.190835" lon="108.579169">
<time>2015-09-27T13:09:53Z</time></trkpt>
<trkpt lat="23.191104" lon="108.579019">
<time>2015-09-27T13:09:54Z</time></trkpt>
<trkpt lat="23.191164" lon="108.578989">
<time>2015-09-27T13:09:55Z</time></trkpt>
<trkpt lat="23.191234" lon="108.578939">
<time>2015-09-27T13:09:56Z</time></trkpt>
<trkpt lat="23.191284" lon="108.578889">
<time>2015-09-27T13:09:57Z</time></trkpt>
<trkpt lat="23.191334" lon="108.578829">
<time>2015-09-27T13:09:58Z</time></trkpt>
<trkpt lat="23.191384" lon="108.578769">
<time>2015-09-27T13:09:59Z</time></trkpt>
<trkpt lat="23.191434" lon="108.578689">
<time>2015-09-27T13:10:00Z</time></trkpt>
<trkpt lat="23.191484" lon="108.578589">
<time>2015-09-27T13:10:01Z</time></trkpt>
<trkpt lat="23.191554" lon="108.578449">
<time>2015-09-27T13:10:02Z</time></trkpt>
<trkpt lat="23.191694" lon="108.578119">
<time>2015-09-27T13:10:03Z</time></trkpt>
<trkpt lat="23.191813" lon="108.577828">
<time>2015-09-27T13:10:04Z</time></trkpt>
<trkpt lat="23.191903" lon="108.577638">
<time>2015-09-27T13:10:05Z</time></trkpt>
<trkpt lat="23.191963" lon="108.577528">
<time>2015-09-27T13:10:06Z</time></trkpt>
<trkpt lat="23.192013" lon="108.577458">
<time>2015-09-27T13:10:07Z</time></trkpt>
<trkpt lat="23.192083" lon="108.577368">
<time>2015-09-27T13:10:08Z</time></trkpt>
<trkpt lat="23.192133" lon="108.577298">
<time>2015-09-27T13:10:09Z</time></trkpt>
<trkpt lat="23.192402" lon="108.577018">
<time>2015-09-27T13:10:10Z</time></trkpt>
<trkpt lat="23.192572" lon="108.576828">
<time>2015-09-27T13:10:11Z</time></trkpt>
<trkpt lat="23.192892" lon="108.576478">
<time>2015-09-27T13:10:12Z</time></trkpt>
<trkpt lat="23.193112" lon="108.576247">
<time>2015-09-27T13:10:13Z</time></trkpt>
<trkpt lat="23.193281" lon="108.576087">
<time>2015-09-27T13:10:14Z</time></trkpt>
<trkpt lat="23.193671" lon="108.575757">
<time>2015-09-27T13:10:15Z</time></trkpt>
<trkpt lat="23.19419" lon="108.575337">
<time>2015-09-27T13:10:16Z</time></trkpt>
<trkpt lat="23.19446" lon="108.575117">
<time>2015-09-27T13:10:17Z</time></trkpt>
<trkpt lat="23.19465" lon="108.574956">
<time>2015-09-27T13:10:18Z</time></trkpt>
<trkpt lat="23.19478" lon="108.574836">
<time>2015-09-27T13:10:19Z</time></trkpt>
<trkpt lat="23.19492" lon="108.574686">
<time>2015-09-27T13:10:20Z</time></trkpt>
<trkpt lat="23.195029" lon="108.574546">
<time>2015-09-27T13:10:21Z</time></trkpt>
<trkpt lat="23.195119" lon="108.574416">
<time>2015-09-27T13:10:22Z</time></trkpt>
<trkpt lat="23.195219" lon="108.574236">
<time>2015-09-27T13:10:23Z</time></trkpt>
<trkpt lat="23.195299" lon="108.574086">
<time>2015-09-27T13:10:24Z</time></trkpt>
<trkpt lat="23.195379" lon="108.573896">
<time>2015-09-27T13:10:25Z</time></trkpt>
<trkpt lat="23.195459" lon="108.573695">
<time>2015-09-27T13:10:26Z</time></trkpt>
<trkpt lat="23.195498" lon="108.573585">
<time>2015-09-27T13:10:27Z</time></trkpt>
<trkpt lat="23.195538" lon="108.573415">
<time>2015-09-27T13:10:28Z</time></trkpt>
<trkpt lat="23.195598" lon="108.573165">
<time>2015-09-27T13:10:29Z</time></trkpt>
<trkpt lat="23.195668" lon="108.572835">
<time>2015-09-27T13:10:30Z</time></trkpt>
<trkpt lat="23.195727" lon="108.572545">
<time>2015-09-27T13:10:31Z</time></trkpt>
<trkpt lat="23.195757" lon="108.572384">
<time>2015-09-27T13:10:32Z</time></trkpt>
<trkpt lat="23.195797" lon="108.572204">
<time>2015-09-27T13:10:33Z</time></trkpt>
<trkpt lat="23.195827" lon="108.572034">
<time>2015-09-27T13:10:34Z</time></trkpt>
<trkpt lat="23.195867" lon="108.571864">
<time>2015-09-27T13:10:35Z</time></trkpt>
<trkpt lat="23.195907" lon="108.571744">
<time>2015-09-27T13:10:36Z</time></trkpt>
<trkpt lat="23.195966" lon="108.571604">
<time>2015-09-27T13:10:37Z</time></trkpt>
<trkpt lat="23.196056" lon="108.571384">
<time>2015-09-27T13:10:38Z</time></trkpt>
<trkpt lat="23.196186" lon="108.571113">
<time>2015-09-27T13:10:39Z</time></trkpt>
<trkpt lat="23.196276" lon="108.570903">
<time>2015-09-27T13:10:40Z</time></trkpt>
<trkpt lat="23.196345" lon="108.570773">
<time>2015-09-27T13:10:41Z</time></trkpt>
<trkpt lat="23.196435" lon="108.570573">
<time>2015-09-27T13:10:42Z</time></trkpt>
<trkpt lat="23.196485" lon="108.570493">
<time>2015-09-27T13:10:43Z</time></trkpt>
<trkpt lat="23.196545" lon="108.570413">
<time>2015-09-27T13:10:44Z</time></trkpt>
<trkpt lat="23.196595" lon="108.570353">
<time>2015-09-27T13:10:45Z</time></trkpt>
<trkpt lat="23.196645" lon="108.570302">
<time>2015-09-27T13:10:46Z</time></trkpt>
<trkpt lat="23.196755" lon="108.570212">
<time>2015-09-27T13:10:47Z</time></trkpt>
<trkpt lat="23.197134" lon="108.569952">
<time>2015-09-27T13:10:48Z</time></trkpt>
<trkpt lat="23.197504" lon="108.569702">
<time>2015-09-27T13:10:49Z</time></trkpt>
<trkpt lat="23.197674" lon="108.569582">
<time>2015-09-27T13:10:50Z</time></trkpt>
<trkpt lat="23.197843" lon="108.569472">
<time>2015-09-27T13:10:51Z</time></trkpt>
<trkpt lat="23.197933" lon="108.569412">
<time>2015-09-27T13:10:52Z</time></trkpt>
<trkpt lat="23.197983" lon="108.569382">
<time>2015-09-27T13:10:53Z</time></trkpt>
<trkpt lat="23.198053" lon="108.569341">
<time>2015-09-27T13:10:54Z</time></trkpt>
<trkpt lat="23.198123" lon="108.569311">
<time>2015-09-27T13:10:55Z</time></trkpt>
<trkpt lat="23.198193" lon="108.569291">
<time>2015-09-27T13:10:56Z</time></trkpt>
<trkpt lat="23.198253" lon="108.569271">
<time>2015-09-27T13:10:57Z</time></trkpt>
<trkpt lat="23.198333" lon="108.569251">
<time>2015-09-27T13:10:58Z</time></trkpt>
<trkpt lat="23.198453" lon="108.569231">
<time>2015-09-27T13:10:59Z</time></trkpt>
<trkpt lat="23.198593" lon="108.569201">
<time>2015-09-27T13:11:00Z</time></trkpt>
<trkpt lat="23.198673" lon="108.569171">
<time>2015-09-27T13:11:01Z</time></trkpt>
<trkpt lat="23.198753" lon="108.569141">
<time>2015-09-27T13:11:02Z</time></trkpt>
<trkpt lat="23.198833" lon="108.569101">
<time>2015-09-27T13:11:03Z</time></trkpt>
<trkpt lat="23.198943" lon="108.569031">
<time>2015-09-27T13:11:04Z</time></trkpt>
<trkpt lat="23.199142" lon="108.568891">
<time>2015-09-27T13:11:05Z</time></trkpt>
<trkpt lat="23.199322" lon="108.568771">
<time>2015-09-27T13:11:06Z</time></trkpt>
<trkpt lat="23.199532" lon="108.568631">
<time>2015-09-27T13:11:07Z</time></trkpt>
<trkpt lat="23.199892" lon="108.56841">
<time>2015-09-27T13:11:08Z</time></trkpt>
<trkpt lat="23.200181" lon="108.56824">
<time>2015-09-27T13:11:09Z</time></trkpt>
<trkpt lat="23.200391" lon="108.5681">
<time>2015-09-27T13:11:10Z</time></trkpt>
<trkpt lat="23.200591" lon="108.56796">
<time>2015-09-27T13:11:11Z</time></trkpt>
<trkpt lat="23.200731" lon="108.56785">
<time>2015-09-27T13:11:12Z</time></trkpt>
<trkpt lat="23.20087" lon="108.56771">
<time>2015-09-27T13:11:13Z</time></trkpt>
<trkpt lat="23.201" lon="108.56757">
<time>2015-09-27T13:11:14Z</time></trkpt>
<trkpt lat="23.20109" lon="108.567459">
<time>2015-09-27T13:11:15Z</time></trkpt>
<trkpt lat="23.20118" lon="108.567349">
<time>2015-09-27T13:11:16Z</time></trkpt>
<trkpt lat="23.20126" lon="108.567239">
<time>2015-09-27T13:11:17Z</time></trkpt>
<trkpt lat="23.20132" lon="108.567139">
<time>2015-09-27T13:11:18Z</time></trkpt>
<trkpt lat="23.201349" lon="108.567079">
<time>2015-09-27T13:11:19Z</time></trkpt>
<trkpt lat="23.201369" lon="108.567029">
<time>2015-09-27T13:11:20Z</time></trkpt>
<trkpt lat="23.201409" lon="108.566939">
<time>2015-09-27T13:11:21Z</time></trkpt>
<trkpt lat="23.201429" lon="108.566849">
<time>2015-09-27T13:11:22Z</time></trkpt>
<trkpt lat="23.201469" lon="108.566679">
<time>2015-09-27T13:11:23Z</time></trkpt>
<trkpt lat="23.201489" lon="108.566528">
<time>2015-09-27T13:11:24Z</time></trkpt>
<trkpt lat="23.201509" lon="108.566408">
<time>2015-09-27T13:11:25Z</time></trkpt>
<trkpt lat="23.201508" lon="108.566298">
<time>2015-09-27T13:11:26Z</time></trkpt>
<trkpt lat="23.201508" lon="108.566178">
<time>2015-09-27T13:11:27Z</time></trkpt>
<trkpt lat="23.201498" lon="108.566098">
<time>2015-09-27T13:11:28Z</time></trkpt>
<trkpt lat="23.201468" lon="108.565968">
<time>2015-09-27T13:11:29Z</time></trkpt>
<trkpt lat="23.201378" lon="108.565697">
<time>2015-09-27T13:11:30Z</time></trkpt>
<trkpt lat="23.201297" lon="108.565437">
<time>2015-09-27T13:11:31Z</time></trkpt>
<trkpt lat="23.201257" lon="108.565277">
<time>2015-09-27T13:11:32Z</time></trkpt>
<trkpt lat="23.201157" lon="108.564967">
<time>2015-09-27T13:11:33Z</time></trkpt>
<trkpt lat="23.201087" lon="108.564756">
<time>2015-09-27T13:11:34Z</time></trkpt>
<trkpt lat="23.200946" lon="108.564426">
<time>2015-09-27T13:11:35Z</time></trkpt>
<trkpt lat="23.200916" lon="108.564316">
<time>2015-09-27T13:11:36Z</time></trkpt>
<trkpt lat="23.200906" lon="108.564256">
<time>2015-09-27T13:11:37Z</time></trkpt>
<trkpt lat="23.200896" lon="108.564186">
<time>2015-09-27T13:11:38Z</time></trkpt>
<trkpt lat="23.200906" lon="108.564126">
<time>2015-09-27T13:11:39Z</time></trkpt>
<trkpt lat="23.200916" lon="108.564075">
<time>2015-09-27T13:11:40Z</time></trkpt>
<trkpt lat="23.200936" lon="108.563985">
<time>2015-09-27T13:11:41Z</time></trkpt>
<trkpt lat="23.200985" lon="108.563885">
<time>2015-09-27T13:11:42Z</time></trkpt>
<trkpt lat="23.201035" lon="108.563805">
<time>2015-09-27T13:11:43Z</time></trkpt>
<trkpt lat="23.201125" lon="108.563685">
<time>2015-09-27T13:11:44Z</time></trkpt>
<trkpt lat="23.201185" lon="108.563615">
<time>2015-09-27T13:11:45Z</time></trkpt>
<trkpt lat="23.201245" lon="108.563555">
<time>2015-09-27T13:11:46Z</time></trkpt>
<trkpt lat="23.201305" lon="108.563495">
<time>2015-09-27T13:11:47Z</time></trkpt>
<trkpt lat="23.201445" lon="108.563385">
<time>2015-09-27T13:11:48Z</time></trkpt>
<trkpt lat="23.201594" lon="108.563264">
<time>2015-09-27T13:11:49Z</time></trkpt>
<trkpt lat="23.201754" lon="108.563124">
<time>2015-09-27T13:11:50Z</time></trkpt>
<trkpt lat="23.201904" lon="108.563004">
<time>2015-09-27T13:11:51Z</time></trkpt>
<trkpt lat="23.202004" lon="108.562904">
<time>2015-09-27T13:11:52Z</time></trkpt>
<trkpt lat="23.202064" lon="108.562834">
<time>2015-09-27T13:11:53Z</time></trkpt>
<trkpt lat="23.202173" lon="108.562704">
<time>2015-09-27T13:11:54Z</time></trkpt>
<trkpt lat="23.202293" lon="108.562553">
<time>2015-09-27T13:11:55Z</time></trkpt>
<trkpt lat="23.202413" lon="108.562393">
<time>2015-09-27T13:11:56Z</time></trkpt>
<trkpt lat="23.202523" lon="108.562253">
<time>2015-09-27T13:11:57Z</time></trkpt>
<trkpt lat="23.202583" lon="108.562153">
<time>2015-09-27T13:11:58Z</time></trkpt>
<trkpt lat="23.202652" lon="108.562063">
<time>2015-09-27T13:11:59Z</time></trkpt>
<trkpt lat="23.202692" lon="108.561983">
<time>2015-09-27T13:12:00Z</time></trkpt>
<trkpt lat="23.202732" lon="108.561903">
<time>2015-09-27T13:12:01Z</time></trkpt>
<trkpt lat="23.202782" lon="108.561792">
<time>2015-09-27T13:12:02Z</time></trkpt>
<trkpt lat="23.202832" lon="108.561672">
<time>2015-09-27T13:12:03Z</time></trkpt>
<trkpt lat="23.202862" lon="108.561552">
<time>2015-09-27T13:12:04Z</time></trkpt>
<trkpt lat="23.202881" lon="108.561482">
<time>2015-09-27T13:12:05Z</time></trkpt>
<trkpt lat="23.202901" lon="108.561382">
<time>2015-09-27T13:12:06Z</time></trkpt>
<trkpt lat="23.202921" lon="108.561242">
<time>2015-09-27T13:12:07Z</time></trkpt>
<trkpt lat="23.202961" lon="108.560951">
<time>2015-09-27T13:12:08Z</time></trkpt>
<trkpt lat="23.20298" lon="108.560811">
<time>2015-09-27T13:12:09Z</time></trkpt>
<trkpt lat="23.20301" lon="108.560691">
<time>2015-09-27T13:12:10Z</time></trkpt>
<trkpt lat="23.20302" lon="108.560621">
<time>2015-09-27T13:12:11Z</time></trkpt>
<trkpt lat="23.20307" lon="108.560501">
<time>2015-09-27T13:12:12Z</time></trkpt>
<trkpt lat="23.20313" lon="108.56038">
<time>2015-09-27T13:12:13Z</time></trkpt>
<trkpt lat="23.20319" lon="108.56027">
<time>2015-09-27T13:12:14Z</time></trkpt>
<trkpt lat="23.203219" lon="108.56019">
<time>2015-09-27T13:12:15Z</time></trkpt>
<trkpt lat="23.203249" lon="108.56011">
<time>2015-09-27T13:12:16Z</time></trkpt>
<trkpt lat="23.203279" lon="108.56002">
<time>2015-09-27T13:12:17Z</time></trkpt>
<trkpt lat="23.203299" lon="108.55993">
<time>2015-09-27T13:12:18Z</time></trkpt>
<trkpt lat="23.203319" lon="108.55984">
<time>2015-09-27T13:12:19Z</time></trkpt>
<trkpt lat="23.203349" lon="108.559639">
<time>2015-09-27T13:12:20Z</time></trkpt>
<trkpt lat="23.203368" lon="108.559429">
<time>2015-09-27T13:12:21Z</time></trkpt>
<trkpt lat="23.203398" lon="108.559309">
<time>2015-09-27T13:12:22Z</time></trkpt>
<trkpt lat="23.203418" lon="108.559219">
<time>2015-09-27T13:12:23Z</time></trkpt>
<trkpt lat="23.203448" lon="108.559139">
<time>2015-09-27T13:12:24Z</time></trkpt>
<trkpt lat="23.203478" lon="108.559059">
<time>2015-09-27T13:12:25Z</time></trkpt>
<trkpt lat="23.203527" lon="108.558948">
<time>2015-09-27T13:12:26Z</time></trkpt>
<trkpt lat="23.203567" lon="108.558888">
<time>2015-09-27T13:12:27Z</time></trkpt>
<trkpt lat="23.203647" lon="108.558758">
<time>2015-09-27T13:12:28Z</time></trkpt>
<trkpt lat="23.203966" lon="108.558257">
<time>2015-09-27T13:12:29Z</time></trkpt>
<trkpt lat="23.204186" lon="108.557897">
<time>2015-09-27T13:12:30Z</time></trkpt>
<trkpt lat="23.204275" lon="108.557757">
<time>2015-09-27T13:12:31Z</time></trkpt>
<trkpt lat="23.204345" lon="108.557656">
<time>2015-09-27T13:12:32Z</time></trkpt>
<trkpt lat="23.204425" lon="108.557556">
<time>2015-09-27T13:12:33Z</time></trkpt>
<trkpt lat="23.204485" lon="108.557496">
<time>2015-09-27T13:12:34Z</time></trkpt>
<trkpt lat="23.204555" lon="108.557436">
<time>2015-09-27T13:12:35Z</time></trkpt>
<trkpt lat="23.204615" lon="108.557386">
<time>2015-09-27T13:12:36Z</time></trkpt>
<trkpt lat="23.204675" lon="108.557346">
<time>2015-09-27T13:12:37Z</time></trkpt>
<trkpt lat="23.204784" lon="108.557256">
<time>2015-09-27T13:12:38Z</time></trkpt>
<trkpt lat="23.204874" lon="108.557186">
<time>2015-09-27T13:12:39Z</time></trkpt>
<trkpt lat="23.204954" lon="108.557115">
<time>2015-09-27T13:12:40Z</time></trkpt>
<trkpt lat="23.204994" lon="108.557065">
<time>2015-09-27T13:12:41Z</time></trkpt>
<trkpt lat="23.205034" lon="108.557025">
<time>2015-09-27T13:12:42Z</time></trkpt>
<trkpt lat="23.205074" lon="108.556975">
<time>2015-09-27T13:12:43Z</time></trkpt>
<trkpt lat="23.205094" lon="108.556935">
<time>2015-09-27T13:12:44Z</time></trkpt>
<trkpt lat="23.205144" lon="108.556855">
<time>2015-09-27T13:12:45Z</time></trkpt>
<trkpt lat="23.205163" lon="108.556785">
<time>2015-09-27T13:12:46Z</time></trkpt>
<trkpt lat="23.205193" lon="108.556685">
<time>2015-09-27T13:12:47Z</time></trkpt>
<trkpt lat="23.205213" lon="108.556585">
<time>2015-09-27T13:12:48Z</time></trkpt>
<trkpt lat="23.205223" lon="108.556505">
<time>2015-09-27T13:12:49Z</time></trkpt>
<trkpt lat="23.205233" lon="108.556414">
<time>2015-09-27T13:12:50Z</time></trkpt>
<trkpt lat="23.205242" lon="108.556044">
<time>2015-09-27T13:12:51Z</time></trkpt>
<trkpt lat="23.205241" lon="108.555573">
<time>2015-09-27T13:12:52Z</time></trkpt>
<trkpt lat="23.205251" lon="108.555403">
<time>2015-09-27T13:12:53Z</time></trkpt>
<trkpt lat="23.205261" lon="108.555293">
<time>2015-09-27T13:12:54Z</time></trkpt>
<trkpt lat="23.205281" lon="108.555202">
<time>2015-09-27T13:12:55Z</time></trkpt>
<trkpt lat="23.205301" lon="108.555162">
<time>2015-09-27T13:12:56Z</time></trkpt>
<trkpt lat="23.205331" lon="108.555122">
<time>2015-09-27T13:12:57Z</time></trkpt>
<trkpt lat="23.20537" lon="108.555062">
<time>2015-09-27T13:12:58Z</time></trkpt>
<trkpt lat="23.20542" lon="108.555002">
<time>2015-09-27T13:12:59Z</time></trkpt>
<trkpt lat="23.20548" lon="108.554952">
<time>2015-09-27T13:13:00Z</time></trkpt>
<trkpt lat="23.2056" lon="108.554862">
<time>2015-09-27T13:13:01Z</time></trkpt>
<trkpt lat="23.20572" lon="108.554772">
<time>2015-09-27T13:13:02Z</time></trkpt>
<trkpt lat="23.20582" lon="108.554692">
<time>2015-09-27T13:13:03Z</time></trkpt>
<trkpt lat="23.20589" lon="108.554621">
<time>2015-09-27T13:13:04Z</time></trkpt>
<trkpt lat="23.205929" lon="108.554571">
<time>2015-09-27T13:13:05Z</time></trkpt>
<trkpt lat="23.205949" lon="108.554541">
<time>2015-09-27T13:13:06Z</time></trkpt>
<trkpt lat="23.205959" lon="108.554511">
<time>2015-09-27T13:13:07Z</time></trkpt>
<trkpt lat="23.205969" lon="108.554491">
<time>2015-09-27T13:13:08Z</time></trkpt>
<trkpt lat="23.206009" lon="108.554391">
<time>2015-09-27T13:13:09Z</time></trkpt>
<trkpt lat="23.206079" lon="108.554231">
<time>2015-09-27T13:13:10Z</time></trkpt>
<trkpt lat="23.206129" lon="108.554121">
<time>2015-09-27T13:13:11Z</time></trkpt>
<trkpt lat="23.206198" lon="108.554">
<time>2015-09-27T13:13:12Z</time></trkpt>
<trkpt lat="23.206298" lon="108.55384">
<time>2015-09-27T13:13:13Z</time></trkpt>
<trkpt lat="23.206468" lon="108.55358">
<time>2015-09-27T13:13:14Z</time></trkpt>
<trkpt lat="23.206587" lon="108.553399">
<time>2015-09-27T13:13:15Z</time></trkpt>
<trkpt lat="23.206657" lon="108.553299">
<time>2015-09-27T13:13:16Z</time></trkpt>
<trkpt lat="23.206777" lon="108.553159">
<time>2015-09-27T13:13:17Z</time></trkpt>
<trkpt lat="23.206956" lon="108.552969">
<time>2015-09-27T13:13:18Z</time></trkpt>
<trkpt lat="23.207146" lon="108.552778">
<time>2015-09-27T13:13:19Z</time></trkpt>
<trkpt lat="23.207355" lon="108.552578">
<time>2015-09-27T13:13:20Z</time></trkpt>
<trkpt lat="23.207635" lon="108.552307">
<time>2015-09-27T13:13:21Z</time></trkpt>
<trkpt lat="23.207964" lon="108.551977">
<time>2015-09-27T13:13:22Z</time></trkpt>
<trkpt lat="23.208293" lon="108.551646">
<time>2015-09-27T13:13:23Z</time></trkpt>
<trkpt lat="23.208533" lon="108.551406">
<time>2015-09-27T13:13:24Z</time></trkpt>
<trkpt lat="23.208683" lon="108.551245">
<time>2015-09-27T13:13:25Z</time></trkpt>
<trkpt lat="23.208772" lon="108.551145">
<time>2015-09-27T13:13:26Z</time></trkpt>
<trkpt lat="23.208892" lon="108.551025">
<time>2015-09-27T13:13:27Z</time></trkpt>
<trkpt lat="23.209062" lon="108.550805">
<time>2015-09-27T13:13:28Z</time></trkpt>
<trkpt lat="23.209141" lon="108.550694">
<time>2015-09-27T13:13:29Z</time></trkpt>
<trkpt lat="23.209281" lon="108.550504">
<time>2015-09-27T13:13:30Z</time></trkpt>
<trkpt lat="23.209391" lon="108.550344">
<time>2015-09-27T13:13:31Z</time></trkpt>
<trkpt lat="23.20962" lon="108.550003">
<time>2015-09-27T13:13:32Z</time></trkpt>
<trkpt lat="23.209739" lon="108.549823">
<time>2015-09-27T13:13:33Z</time></trkpt>
<trkpt lat="23.209849" lon="108.549672">
<time>2015-09-27T13:13:34Z</time></trkpt>
<trkpt lat="23.209939" lon="108.549562">
<time>2015-09-27T13:13:35Z</time></trkpt>
<trkpt lat="23.210088" lon="108.549372">
<time>2015-09-27T13:13:36Z</time></trkpt>
<trkpt lat="23.210238" lon="108.549191">
<time>2015-09-27T13:13:37Z</time></trkpt>
<trkpt lat="23.210318" lon="108.549081">
<time>2015-09-27T13:13:38Z</time></trkpt>
<trkpt lat="23.210368" lon="108.549011">
<time>2015-09-27T13:13:39Z</time></trkpt>
<trkpt lat="23.210427" lon="108.548901">
<time>2015-09-27T13:13:40Z</time></trkpt>
<trkpt lat="23.210487" lon="108.548791">
<time>2015-09-27T13:13:41Z</time></trkpt>
<trkpt lat="23.210517" lon="108.548731">
<time>2015-09-27T13:13:42Z</time></trkpt>
<trkpt lat="23.210547" lon="108.54862">
<time>2015-09-27T13:13:43Z</time></trkpt>
<trkpt lat="23.210567" lon="108.54853">
<time>2015-09-27T13:13:44Z</time></trkpt>
<trkpt lat="23.210577" lon="108.54846">
<time>2015-09-27T13:13:45Z</time></trkpt>
<trkpt lat="23.210576" lon="108.54839">
<time>2015-09-27T13:13:46Z</time></trkpt>
<trkpt lat="23.210566" lon="108.54833">
<time>2015-09-27T13:13:47Z</time></trkpt>
<trkpt lat="23.210546" lon="108.54825">
<time>2015-09-27T13:13:48Z</time></trkpt>
<trkpt lat="23.210536" lon="108.548189">
<time>2015-09-27T13:13:49Z</time></trkpt>
<trkpt lat="23.210506" lon="108.548129">
<time>2015-09-27T13:13:50Z</time></trkpt>
<trkpt lat="23.210426" lon="108.547989">
<time>2015-09-27T13:13:51Z</time></trkpt>
<trkpt lat="23.210305" lon="108.547819">
<time>2015-09-27T13:13:52Z</time></trkpt>
<trkpt lat="23.210135" lon="108.547578">
<time>2015-09-27T13:13:53Z</time></trkpt>
<trkpt lat="23.210035" lon="108.547458">
<time>2015-09-27T13:13:54Z</time></trkpt>
<trkpt lat="23.209955" lon="108.547368">
<time>2015-09-27T13:13:55Z</time></trkpt>
<trkpt lat="23.209704" lon="108.547117">
<time>2015-09-27T13:13:56Z</time></trkpt>
<trkpt lat="23.209624" lon="108.547037">
<time>2015-09-27T13:13:57Z</time></trkpt>
<trkpt lat="23.209604" lon="108.546997">
<time>2015-09-27T13:13:58Z</time></trkpt>
<trkpt lat="23.209584" lon="108.546957">
<time>2015-09-27T13:13:59Z</time></trkpt>
<trkpt lat="23.209564" lon="108.546897">
<time>2015-09-27T13:14:00Z</time></trkpt>
<trkpt lat="23.209544" lon="108.546817">
<time>2015-09-27T13:14:01Z</time></trkpt>
<trkpt lat="23.209543" lon="108.546737">
<time>2015-09-27T13:14:02Z</time></trkpt>
<trkpt lat="23.209543" lon="108.546626">
<time>2015-09-27T13:14:03Z</time></trkpt>
<trkpt lat="23.209553" lon="108.546476">
<time>2015-09-27T13:14:04Z</time></trkpt>
<trkpt lat="23.209573" lon="108.546356">
<time>2015-09-27T13:14:05Z</time></trkpt>
<trkpt lat="23.209602" lon="108.546186">
<time>2015-09-27T13:14:06Z</time></trkpt>
<trkpt lat="23.209632" lon="108.546035">
<time>2015-09-27T13:14:07Z</time></trkpt>
<trkpt lat="23.209691" lon="108.545775">
<time>2015-09-27T13:14:08Z</time></trkpt>
<trkpt lat="23.209751" lon="108.545534">
<time>2015-09-27T13:14:09Z</time></trkpt>
<trkpt lat="23.209801" lon="108.545354">
<time>2015-09-27T13:14:10Z</time></trkpt>
<trkpt lat="23.20982" lon="108.545244">
<time>2015-09-27T13:14:11Z</time></trkpt>
<trkpt lat="23.20983" lon="108.545153">
<time>2015-09-27T13:14:12Z</time></trkpt>
<trkpt lat="23.20984" lon="108.545063">
<time>2015-09-27T13:14:13Z</time></trkpt>
<trkpt lat="23.20984" lon="108.544963">
<time>2015-09-27T13:14:14Z</time></trkpt>
<trkpt lat="23.20984" lon="108.544883">
<time>2015-09-27T13:14:15Z</time></trkpt>
<trkpt lat="23.209819" lon="108.544783">
<time>2015-09-27T13:14:16Z</time></trkpt>
<trkpt lat="23.209789" lon="108.544672">
<time>2015-09-27T13:14:17Z</time></trkpt>
<trkpt lat="23.209759" lon="108.544592">
<time>2015-09-27T13:14:18Z</time></trkpt>
<trkpt lat="23.209719" lon="108.544522">
<time>2015-09-27T13:14:19Z</time></trkpt>
<trkpt lat="23.209669" lon="108.544442">
<time>2015-09-27T13:14:20Z</time></trkpt>
<trkpt lat="23.209639" lon="108.544392">
<time>2015-09-27T13:14:21Z</time></trkpt>
<trkpt lat="23.209568" lon="108.544312">
<time>2015-09-27T13:14:22Z</time></trkpt>
<trkpt lat="23.209518" lon="108.544262">
<time>2015-09-27T13:14:23Z</time></trkpt>
<trkpt lat="23.209418" lon="108.544161">
<time>2015-09-27T13:14:24Z</time></trkpt>
<trkpt lat="23.209328" lon="108.544081">
<time>2015-09-27T13:14:25Z</time></trkpt>
<trkpt lat="23.208807" lon="108.54364">
<time>2015-09-27T13:14:26Z</time></trkpt>
<trkpt lat="23.208477" lon="108.54336">
<time>2015-09-27T13:14:27Z</time></trkpt>
<trkpt lat="23.208186" lon="108.543119">
<time>2015-09-27T13:14:28Z</time></trkpt>
<trkpt lat="23.207896" lon="108.542879">
<time>2015-09-27T13:14:29Z</time></trkpt>
<trkpt lat="23.207716" lon="108.542728">
<time>2015-09-27T13:14:30Z</time></trkpt>
<trkpt lat="23.207596" lon="108.542618">
<time>2015-09-27T13:14:31Z</time></trkpt>
<trkpt lat="23.207445" lon="108.542508">
<time>2015-09-27T13:14:32Z</time></trkpt>
<trkpt lat="23.207325" lon="108.542408">
<time>2015-09-27T13:14:33Z</time></trkpt>
<trkpt lat="23.207245" lon="108.542358">
<time>2015-09-27T13:14:34Z</time></trkpt>
<trkpt lat="23.207055" lon="108.542237">
<time>2015-09-27T13:14:35Z</time></trkpt>
<trkpt lat="23.206835" lon="108.542097">
<time>2015-09-27T13:14:36Z</time></trkpt>
<trkpt lat="23.206704" lon="108.542007">
<time>2015-09-27T13:14:37Z</time></trkpt>
<trkpt lat="23.206594" lon="108.541917">
<time>2015-09-27T13:14:38Z</time></trkpt>
<trkpt lat="23.206534" lon="108.541867">
<time>2015-09-27T13:14:39Z</time></trkpt>
<trkpt lat="23.206454" lon="108.541786">
<time>2015-09-27T13:14:40Z</time></trkpt>
<trkpt lat="23.206314" lon="108.541616">
<time>2015-09-27T13:14:41Z</time></trkpt>
<trkpt lat="23.206103" lon="108.541335">
<time>2015-09-27T13:14:42Z</time></trkpt>
<trkpt lat="23.205652" lon="108.540774">
<time>2015-09-27T13:14:43Z</time></trkpt>
<trkpt lat="23.205231" lon="108.540243">
<time>2015-09-27T13:14:44Z</time></trkpt>
<trkpt lat="23.2049" lon="108.539802">
<time>2015-09-27T13:14:45Z</time></trkpt>
<trkpt lat="23.204509" lon="108.539281">
<time>2015-09-27T13:14:46Z</time></trkpt>
<trkpt lat="23.204309" lon="108.53899">
<time>2015-09-27T13:14:47Z</time></trkpt>
<trkpt lat="23.204228" lon="108.53885">
<time>2015-09-27T13:14:48Z</time></trkpt>
<trkpt lat="23.204158" lon="108.53872">
<time>2015-09-27T13:14:49Z</time></trkpt>
<trkpt lat="23.204138" lon="108.538689">
<time>2015-09-27T13:14:50Z</time></trkpt>
<trkpt lat="23.204098" lon="108.538579">
<time>2015-09-27T13:14:51Z</time></trkpt>
<trkpt lat="23.204068" lon="108.538509">
<time>2015-09-27T13:14:52Z</time></trkpt>
<trkpt lat="23.204037" lon="108.538409">
<time>2015-09-27T13:14:53Z</time></trkpt>
<trkpt lat="23.204007" lon="108.538329">
<time>2015-09-27T13:14:54Z</time></trkpt>
<trkpt lat="23.203997" lon="108.538248">
<time>2015-09-27T13:14:55Z</time></trkpt>
<trkpt lat="23.203987" lon="108.538118">
<time>2015-09-27T13:14:56Z</time></trkpt>
<trkpt lat="23.203987" lon="108.538048">
<time>2015-09-27T13:14:57Z</time></trkpt>
<trkpt lat="23.203986" lon="108.537797">
<time>2015-09-27T13:14:58Z</time></trkpt>
<trkpt lat="23.203986" lon="108.537757">
<time>2015-09-27T13:14:59Z</time></trkpt>
<trkpt lat="23.203996" lon="108.537657">
<time>2015-09-27T13:15:00Z</time></trkpt>
<trkpt lat="23.204015" lon="108.537557">
<time>2015-09-27T13:15:01Z</time></trkpt>
<trkpt lat="23.204025" lon="108.537447">
<time>2015-09-27T13:15:02Z</time></trkpt>
<trkpt lat="23.204055" lon="108.537346">
<time>2015-09-27T13:15:03Z</time></trkpt>
<trkpt lat="23.204085" lon="108.537256">
<time>2015-09-27T13:15:04Z</time></trkpt>
<trkpt lat="23.204124" lon="108.537156">
<time>2015-09-27T13:15:05Z</time></trkpt>
<trkpt lat="23.204154" lon="108.537086">
<time>2015-09-27T13:15:06Z</time></trkpt>
<trkpt lat="23.204214" lon="108.536955">
<time>2015-09-27T13:15:07Z</time></trkpt>
<trkpt lat="23.204313" lon="108.536775">
<time>2015-09-27T13:15:08Z</time></trkpt>
<trkpt lat="23.204662" lon="108.536143">
<time>2015-09-27T13:15:09Z</time></trkpt>
<trkpt lat="23.205" lon="108.535562">
<time>2015-09-27T13:15:10Z</time></trkpt>
<trkpt lat="23.205309" lon="108.535001">
<time>2015-09-27T13:15:11Z</time></trkpt>
<trkpt lat="23.205687" lon="108.534359">
<time>2015-09-27T13:15:12Z</time></trkpt>
<trkpt lat="23.206065" lon="108.533707">
<time>2015-09-27T13:15:13Z</time></trkpt>
<trkpt lat="23.206354" lon="108.533216">
<time>2015-09-27T13:15:14Z</time></trkpt>
<trkpt lat="23.206503" lon="108.532945">
<time>2015-09-27T13:15:15Z</time></trkpt>
<trkpt lat="23.206653" lon="108.532685">
<time>2015-09-27T13:15:16Z</time></trkpt>
<trkpt lat="23.206752" lon="108.532504">
<time>2015-09-27T13:15:17Z</time></trkpt>
<trkpt lat="23.206822" lon="108.532354">
<time>2015-09-27T13:15:18Z</time></trkpt>
<trkpt lat="23.206832" lon="108.532344">
<time>2015-09-27T13:15:19Z</time></trkpt>
<trkpt lat="23.206941" lon="108.532073">
<time>2015-09-27T13:15:20Z</time></trkpt>
<trkpt lat="23.207159" lon="108.531311">
<time>2015-09-27T13:15:21Z</time></trkpt>
<trkpt lat="23.207327" lon="108.53068">
<time>2015-09-27T13:15:22Z</time></trkpt>
<trkpt lat="23.207545" lon="108.529918">
<time>2015-09-27T13:15:23Z</time></trkpt>
<trkpt lat="23.207704" lon="108.529346">
<time>2015-09-27T13:15:24Z</time></trkpt>
<trkpt lat="23.207882" lon="108.528634">
<time>2015-09-27T13:15:25Z</time></trkpt>
<trkpt lat="23.20804" lon="108.527942">
<time>2015-09-27T13:15:26Z</time></trkpt>
<trkpt lat="23.20808" lon="108.527752">
<time>2015-09-27T13:15:27Z</time></trkpt>
<trkpt lat="23.208129" lon="108.527581">
<time>2015-09-27T13:15:28Z</time></trkpt>
<trkpt lat="23.208179" lon="108.527441">
<time>2015-09-27T13:15:29Z</time></trkpt>
<trkpt lat="23.208278" lon="108.52719">
<time>2015-09-27T13:15:30Z</time></trkpt>
<trkpt lat="23.208467" lon="108.526689">
<time>2015-09-27T13:15:31Z</time></trkpt>
<trkpt lat="23.208616" lon="108.526308">
<time>2015-09-27T13:15:32Z</time></trkpt>
<trkpt lat="23.208794" lon="108.525877">
<time>2015-09-27T13:15:33Z</time></trkpt>
<trkpt lat="23.209063" lon="108.525315">
<time>2015-09-27T13:15:34Z</time></trkpt>
<trkpt lat="23.209321" lon="108.524764">
<time>2015-09-27T13:15:35Z</time></trkpt>
<trkpt lat="23.209391" lon="108.524613">
<time>2015-09-27T13:15:36Z</time></trkpt>
<trkpt lat="23.209719" lon="108.523881">
<time>2015-09-27T13:15:37Z</time></trkpt>
<trkpt lat="23.210076" lon="108.522999">
<time>2015-09-27T13:15:38Z</time></trkpt>
<trkpt lat="23.210245" lon="108.522578">
<time>2015-09-27T13:15:39Z</time></trkpt>
<trkpt lat="23.210315" lon="108.522407">
<time>2015-09-27T13:15:40Z</time></trkpt>
<trkpt lat="23.210503" lon="108.521976">
<time>2015-09-27T13:15:41Z</time></trkpt>
<trkpt lat="23.210613" lon="108.521785">
<time>2015-09-27T13:15:42Z</time></trkpt>
<trkpt lat="23.210712" lon="108.521635">
<time>2015-09-27T13:15:43Z</time></trkpt>
<trkpt lat="23.210832" lon="108.521485">
<time>2015-09-27T13:15:44Z</time></trkpt>
<trkpt lat="23.210971" lon="108.521314">
<time>2015-09-27T13:15:45Z</time></trkpt>
<trkpt lat="23.21125" lon="108.520993">
<time>2015-09-27T13:15:46Z</time></trkpt>
<trkpt lat="23.211569" lon="108.520632">
<time>2015-09-27T13:15:47Z</time></trkpt>
<trkpt lat="23.211759" lon="108.520442">
<time>2015-09-27T13:15:48Z</time></trkpt>
<trkpt lat="23.211928" lon="108.520281">
<time>2015-09-27T13:15:49Z</time></trkpt>
<trkpt lat="23.212227" lon="108.52002">
<time>2015-09-27T13:15:50Z</time></trkpt>
<trkpt lat="23.212596" lon="108.519709">
<time>2015-09-27T13:15:51Z</time></trkpt>
<trkpt lat="23.212975" lon="108.519378">
<time>2015-09-27T13:15:52Z</time></trkpt>
<trkpt lat="23.213235" lon="108.519148">
<time>2015-09-27T13:15:53Z</time></trkpt>
<trkpt lat="23.213424" lon="108.518977">
<time>2015-09-27T13:15:54Z</time></trkpt>
<trkpt lat="23.213604" lon="108.518847">
<time>2015-09-27T13:15:55Z</time></trkpt>
<trkpt lat="23.213793" lon="108.518716">
<time>2015-09-27T13:15:56Z</time></trkpt>
<trkpt lat="23.214003" lon="108.518576">
<time>2015-09-27T13:15:57Z</time></trkpt>
<trkpt lat="23.214302" lon="108.518375">
<time>2015-09-27T13:15:58Z</time></trkpt>
<trkpt lat="23.214462" lon="108.518255">
<time>2015-09-27T13:15:59Z</time></trkpt>
<trkpt lat="23.214721" lon="108.518034">
<time>2015-09-27T13:16:00Z</time></trkpt>
<trkpt lat="23.214881" lon="108.517894">
<time>2015-09-27T13:16:01Z</time></trkpt>
<trkpt lat="23.21508" lon="108.517723">
<time>2015-09-27T13:16:02Z</time></trkpt>
<trkpt lat="23.21518" lon="108.517633">
<time>2015-09-27T13:16:03Z</time></trkpt>
<trkpt lat="23.215379" lon="108.517463">
<time>2015-09-27T13:16:04Z</time></trkpt>
<trkpt lat="23.215539" lon="108.517322">
<time>2015-09-27T13:16:05Z</time></trkpt>
<trkpt lat="23.215628" lon="108.517242">
<time>2015-09-27T13:16:06Z</time></trkpt>
<trkpt lat="23.215758" lon="108.517112">
<time>2015-09-27T13:16:07Z</time></trkpt>
<trkpt lat="23.215838" lon="108.517021">
<time>2015-09-27T13:16:08Z</time></trkpt>
<trkpt lat="23.215917" lon="108.516921">
<time>2015-09-27T13:16:09Z</time></trkpt>
<trkpt lat="23.215987" lon="108.516831">
<time>2015-09-27T13:16:10Z</time></trkpt>
<trkpt lat="23.216077" lon="108.51669">
<time>2015-09-27T13:16:11Z</time></trkpt>
<trkpt lat="23.216266" lon="108.5164">
<time>2015-09-27T13:16:12Z</time></trkpt>
<trkpt lat="23.216395" lon="108.516219">
<time>2015-09-27T13:16:13Z</time></trkpt>
<trkpt lat="23.216495" lon="108.516089">
<time>2015-09-27T13:16:14Z</time></trkpt>
<trkpt lat="23.216565" lon="108.515998">
<time>2015-09-27T13:16:15Z</time></trkpt>
<trkpt lat="23.216644" lon="108.515908">
<time>2015-09-27T13:16:16Z</time></trkpt>
<trkpt lat="23.216804" lon="108.515728">
<time>2015-09-27T13:16:17Z</time></trkpt>
<trkpt lat="23.216903" lon="108.515627">
<time>2015-09-27T13:16:18Z</time></trkpt>
<trkpt lat="23.217153" lon="108.515377">
<time>2015-09-27T13:16:19Z</time></trkpt>
<trkpt lat="23.217342" lon="108.515206">
<time>2015-09-27T13:16:20Z</time></trkpt>
<trkpt lat="23.217512" lon="108.515076">
<time>2015-09-27T13:16:21Z</time></trkpt>
<trkpt lat="23.217611" lon="108.515005">
<time>2015-09-27T13:16:22Z</time></trkpt>
<trkpt lat="23.217681" lon="108.514955">
<time>2015-09-27T13:16:23Z</time></trkpt>
<trkpt lat="23.217901" lon="108.514815">
<time>2015-09-27T13:16:24Z</time></trkpt>
<trkpt lat="23.21806" lon="108.514694">
<time>2015-09-27T13:16:25Z</time></trkpt>
<trkpt lat="23.2182" lon="108.514594">
<time>2015-09-27T13:16:26Z</time></trkpt>
<trkpt lat="23.2183" lon="108.514504">
<time>2015-09-27T13:16:27Z</time></trkpt>
<trkpt lat="23.218399" lon="108.514394">
<time>2015-09-27T13:16:28Z</time></trkpt>
<trkpt lat="23.218479" lon="108.514303">
<time>2015-09-27T13:16:29Z</time></trkpt>
<trkpt lat="23.218569" lon="108.514193">
<time>2015-09-27T13:16:30Z</time></trkpt>
<trkpt lat="23.218748" lon="108.513972">
<time>2015-09-27T13:16:31Z</time></trkpt>
<trkpt lat="23.218907" lon="108.513772">
<time>2015-09-27T13:16:32Z</time></trkpt>
<trkpt lat="23.219037" lon="108.513621">
<time>2015-09-27T13:16:33Z</time></trkpt>
<trkpt lat="23.219117" lon="108.513511">
<time>2015-09-27T13:16:34Z</time></trkpt>
<trkpt lat="23.219186" lon="108.513431">
<time>2015-09-27T13:16:35Z</time></trkpt>
<trkpt lat="23.219216" lon="108.51338">
<time>2015-09-27T13:16:36Z</time></trkpt>
<trkpt lat="23.219286" lon="108.51328">
<time>2015-09-27T13:16:37Z</time></trkpt>
<trkpt lat="23.219365" lon="108.51316">
<time>2015-09-27T13:16:38Z</time></trkpt>
<trkpt lat="23.219515" lon="108.512919">
<time>2015-09-27T13:16:39Z</time></trkpt>
<trkpt lat="23.219704" lon="108.512628">
<time>2015-09-27T13:16:40Z</time></trkpt>
<trkpt lat="23.219843" lon="108.512397">
<time>2015-09-27T13:16:41Z</time></trkpt>
<trkpt lat="23.220152" lon="108.511896">
<time>2015-09-27T13:16:42Z</time></trkpt>
<trkpt lat="23.220341" lon="108.511575">
<time>2015-09-27T13:16:43Z</time></trkpt>
<trkpt lat="23.22053" lon="108.511254">
<time>2015-09-27T13:16:44Z</time></trkpt>
<trkpt lat="23.220649" lon="108.511053">
<time>2015-09-27T13:16:45Z</time></trkpt>
<trkpt lat="23.220788" lon="108.510803">
<time>2015-09-27T13:16:46Z</time></trkpt>
<trkpt lat="23.220937" lon="108.510592">
<time>2015-09-27T13:16:47Z</time></trkpt>
<trkpt lat="23.221037" lon="108.510431">
<time>2015-09-27T13:16:48Z</time></trkpt>
<trkpt lat="23.221146" lon="108.510281">
<time>2015-09-27T13:16:49Z</time></trkpt>
<trkpt lat="23.221286" lon="108.51006">
<time>2015-09-27T13:16:50Z</time></trkpt>
<trkpt lat="23.221425" lon="108.50985">
<time>2015-09-27T13:16:51Z</time></trkpt>
<trkpt lat="23.221554" lon="108.509629">
<time>2015-09-27T13:16:52Z</time></trkpt>
<trkpt lat="23.221714" lon="108.509358">
<time>2015-09-27T13:16:53Z</time></trkpt>
<trkpt lat="23.221853" lon="108.509117">
<time>2015-09-27T13:16:54Z</time></trkpt>
<trkpt lat="23.222002" lon="108.508867">
<time>2015-09-27T13:16:55Z</time></trkpt>
<trkpt lat="23.222111" lon="108.508696">
<time>2015-09-27T13:16:56Z</time></trkpt>
<trkpt lat="23.222231" lon="108.508536">
<time>2015-09-27T13:16:57Z</time></trkpt>
<trkpt lat="23.222321" lon="108.508425">
<time>2015-09-27T13:16:58Z</time></trkpt>
<trkpt lat="23.22243" lon="108.508305">
<time>2015-09-27T13:16:59Z</time></trkpt>
<trkpt lat="23.222669" lon="108.508064">
<time>2015-09-27T13:17:00Z</time></trkpt>
<trkpt lat="23.222899" lon="108.507823">
<time>2015-09-27T13:17:01Z</time></trkpt>
<trkpt lat="23.223198" lon="108.507512">
<time>2015-09-27T13:17:02Z</time></trkpt>
<trkpt lat="23.223377" lon="108.507322">
<time>2015-09-27T13:17:03Z</time></trkpt>
<trkpt lat="23.223516" lon="108.507151">
<time>2015-09-27T13:17:04Z</time></trkpt>
<trkpt lat="23.223686" lon="108.506961">
<time>2015-09-27T13:17:05Z</time></trkpt>
<trkpt lat="23.223925" lon="108.50669">
<time>2015-09-27T13:17:06Z</time></trkpt>
<trkpt lat="23.224124" lon="108.506469">
<time>2015-09-27T13:17:07Z</time></trkpt>
<trkpt lat="23.224274" lon="108.506299">
<time>2015-09-27T13:17:08Z</time></trkpt>
<trkpt lat="23.224483" lon="108.506068">
<time>2015-09-27T13:17:09Z</time></trkpt>
<trkpt lat="23.224672" lon="108.505867">
<time>2015-09-27T13:17:10Z</time></trkpt>
<trkpt lat="23.224891" lon="108.505596">
<time>2015-09-27T13:17:11Z</time></trkpt>
<trkpt lat="23.225001" lon="108.505456">
<time>2015-09-27T13:17:12Z</time></trkpt>
<trkpt lat="23.225111" lon="108.505336">
<time>2015-09-27T13:17:13Z</time></trkpt>
<trkpt lat="23.22534" lon="108.505105">
<time>2015-09-27T13:17:14Z</time></trkpt>
<trkpt lat="23.225459" lon="108.504964">
<time>2015-09-27T13:17:15Z</time></trkpt>
<trkpt lat="23.225649" lon="108.504734">
<time>2015-09-27T13:17:16Z</time></trkpt>
<trkpt lat="23.225838" lon="108.504523">
<time>2015-09-27T13:17:17Z</time></trkpt>
<trkpt lat="23.226137" lon="108.504182">
<time>2015-09-27T13:17:18Z</time></trkpt>
<trkpt lat="23.226296" lon="108.504001">
<time>2015-09-27T13:17:19Z</time></trkpt>
<trkpt lat="23.226386" lon="108.503901">
<time>2015-09-27T13:17:20Z</time></trkpt>
<trkpt lat="23.226525" lon="108.503761">
<time>2015-09-27T13:17:21Z</time></trkpt>
<trkpt lat="23.226605" lon="108.50366">
<time>2015-09-27T13:17:22Z</time></trkpt>
<trkpt lat="23.226715" lon="108.5035">
<time>2015-09-27T13:17:23Z</time></trkpt>
<trkpt lat="23.226784" lon="108.50341">
<time>2015-09-27T13:17:24Z</time></trkpt>
<trkpt lat="23.227153" lon="108.502988">
<time>2015-09-27T13:17:25Z</time></trkpt>
<trkpt lat="23.227332" lon="108.502778">
<time>2015-09-27T13:17:26Z</time></trkpt>
<trkpt lat="23.227412" lon="108.502677">
<time>2015-09-27T13:17:27Z</time></trkpt>
<trkpt lat="23.227511" lon="108.502567">
<time>2015-09-27T13:17:28Z</time></trkpt>
<trkpt lat="23.227711" lon="108.502336">
<time>2015-09-27T13:17:29Z</time></trkpt>
<trkpt lat="23.22784" lon="108.502196">
<time>2015-09-27T13:17:30Z</time></trkpt>
<trkpt lat="23.228229" lon="108.501804">
<time>2015-09-27T13:17:31Z</time></trkpt>
<trkpt lat="23.228408" lon="108.501604">
<time>2015-09-27T13:17:32Z</time></trkpt>
<trkpt lat="23.228538" lon="108.501453">
<time>2015-09-27T13:17:33Z</time></trkpt>
<trkpt lat="23.228647" lon="108.501323">
<time>2015-09-27T13:17:34Z</time></trkpt>
<trkpt lat="23.228866" lon="108.501042">
<time>2015-09-27T13:17:35Z</time></trkpt>
<trkpt lat="23.229185" lon="108.500671">
<time>2015-09-27T13:17:36Z</time></trkpt>
<trkpt lat="23.229564" lon="108.50028">
<time>2015-09-27T13:17:37Z</time></trkpt>
<trkpt lat="23.229813" lon="108.500009">
<time>2015-09-27T13:17:38Z</time></trkpt>
<trkpt lat="23.229992" lon="108.499828">
<time>2015-09-27T13:17:39Z</time></trkpt>
<trkpt lat="23.230172" lon="108.499618">
<time>2015-09-27T13:17:40Z</time></trkpt>
<trkpt lat="23.230311" lon="108.499457">
<time>2015-09-27T13:17:41Z</time></trkpt>
<trkpt lat="23.23055" lon="108.499156">
<time>2015-09-27T13:17:42Z</time></trkpt>
<trkpt lat="23.230839" lon="108.498785">
<time>2015-09-27T13:17:43Z</time></trkpt>
<trkpt lat="23.230869" lon="108.498745">
<time>2015-09-27T13:17:44Z</time></trkpt>
<trkpt lat="23.231068" lon="108.498494">
<time>2015-09-27T13:17:45Z</time></trkpt>
<trkpt lat="23.231208" lon="108.498333">
<time>2015-09-27T13:17:46Z</time></trkpt>
<trkpt lat="23.231297" lon="108.498233">
<time>2015-09-27T13:17:47Z</time></trkpt>
<trkpt lat="23.231526" lon="108.498002">
<time>2015-09-27T13:17:48Z</time></trkpt>
<trkpt lat="23.231726" lon="108.497802">
<time>2015-09-27T13:17:49Z</time></trkpt>
<trkpt lat="23.232025" lon="108.497521">
<time>2015-09-27T13:17:50Z</time></trkpt>
<trkpt lat="23.232424" lon="108.49714">
<time>2015-09-27T13:17:51Z</time></trkpt>
<trkpt lat="23.232523" lon="108.497029">
<time>2015-09-27T13:17:52Z</time></trkpt>
<trkpt lat="23.232832" lon="108.496718">
<time>2015-09-27T13:17:53Z</time></trkpt>
<trkpt lat="23.2334" lon="108.496116">
<time>2015-09-27T13:17:54Z</time></trkpt>
<trkpt lat="23.233869" lon="108.495635">
<time>2015-09-27T13:17:55Z</time></trkpt>
<trkpt lat="23.234297" lon="108.495183">
<time>2015-09-27T13:17:56Z</time></trkpt>
<trkpt lat="23.234656" lon="108.494802">
<time>2015-09-27T13:17:57Z</time></trkpt>
<trkpt lat="23.235014" lon="108.494411">
<time>2015-09-27T13:17:58Z</time></trkpt>
<trkpt lat="23.235393" lon="108.49401">
<time>2015-09-27T13:17:59Z</time></trkpt>
<trkpt lat="23.235563" lon="108.493849">
<time>2015-09-27T13:18:00Z</time></trkpt>
<trkpt lat="23.235672" lon="108.493739">
<time>2015-09-27T13:18:01Z</time></trkpt>
<trkpt lat="23.235862" lon="108.493548">
<time>2015-09-27T13:18:02Z</time></trkpt>
<trkpt lat="23.236031" lon="108.493368">
<time>2015-09-27T13:18:03Z</time></trkpt>
<trkpt lat="23.23637" lon="108.493006">
<time>2015-09-27T13:18:04Z</time></trkpt>
<trkpt lat="23.236629" lon="108.492725">
<time>2015-09-27T13:18:05Z</time></trkpt>
<trkpt lat="23.236968" lon="108.492374">
<time>2015-09-27T13:18:06Z</time></trkpt>
<trkpt lat="23.237346" lon="108.491973">
<time>2015-09-27T13:18:07Z</time></trkpt>
<trkpt lat="23.237705" lon="108.491602">
<time>2015-09-27T13:18:08Z</time></trkpt>
<trkpt lat="23.238024" lon="108.491261">
<time>2015-09-27T13:18:09Z</time></trkpt>
<trkpt lat="23.238173" lon="108.4911">
<time>2015-09-27T13:18:10Z</time></trkpt>
<trkpt lat="23.238313" lon="108.49094">
<time>2015-09-27T13:18:11Z</time></trkpt>
<trkpt lat="23.238383" lon="108.490849">
<time>2015-09-27T13:18:12Z</time></trkpt>
<trkpt lat="23.238462" lon="108.490749">
<time>2015-09-27T13:18:13Z</time></trkpt>
<trkpt lat="23.238572" lon="108.490579">
<time>2015-09-27T13:18:14Z</time></trkpt>
<trkpt lat="23.238721" lon="108.490318">
<time>2015-09-27T13:18:15Z</time></trkpt>
<trkpt lat="23.23885" lon="108.490107">
<time>2015-09-27T13:18:16Z</time></trkpt>
<trkpt lat="23.23895" lon="108.489937">
<time>2015-09-27T13:18:17Z</time></trkpt>
<trkpt lat="23.239059" lon="108.489776">
<time>2015-09-27T13:18:18Z</time></trkpt>
<trkpt lat="23.239229" lon="108.489555">
<time>2015-09-27T13:18:19Z</time></trkpt>
<trkpt lat="23.239338" lon="108.489405">
<time>2015-09-27T13:18:20Z</time></trkpt>
<trkpt lat="23.239517" lon="108.489184">
<time>2015-09-27T13:18:21Z</time></trkpt>
<trkpt lat="23.239736" lon="108.488913">
<time>2015-09-27T13:18:22Z</time></trkpt>
<trkpt lat="23.239826" lon="108.488813">
<time>2015-09-27T13:18:23Z</time></trkpt>
<trkpt lat="23.239906" lon="108.488733">
<time>2015-09-27T13:18:24Z</time></trkpt>
<trkpt lat="23.239976" lon="108.488673">
<time>2015-09-27T13:18:25Z</time></trkpt>
<trkpt lat="23.240055" lon="108.488602">
<time>2015-09-27T13:18:26Z</time></trkpt>
<trkpt lat="23.240105" lon="108.488562">
<time>2015-09-27T13:18:27Z</time></trkpt>
<trkpt lat="23.240175" lon="108.488512">
<time>2015-09-27T13:18:28Z</time></trkpt>
<trkpt lat="23.240315" lon="108.488412">
<time>2015-09-27T13:18:29Z</time></trkpt>
<trkpt lat="23.240584" lon="108.488221">
<time>2015-09-27T13:18:30Z</time></trkpt>
<trkpt lat="23.240993" lon="108.48791">
<time>2015-09-27T13:18:31Z</time></trkpt>
<trkpt lat="23.241153" lon="108.48779">
<time>2015-09-27T13:18:32Z</time></trkpt>
<trkpt lat="23.241681" lon="108.487368">
<time>2015-09-27T13:18:33Z</time></trkpt>
<trkpt lat="23.24206" lon="108.487057">
<time>2015-09-27T13:18:34Z</time></trkpt>
<trkpt lat="23.242349" lon="108.486837">
<time>2015-09-27T13:18:35Z</time></trkpt>
<trkpt lat="23.242619" lon="108.486616">
<time>2015-09-27T13:18:36Z</time></trkpt>
<trkpt lat="23.242778" lon="108.486476">
<time>2015-09-27T13:18:37Z</time></trkpt>
<trkpt lat="23.243008" lon="108.486305">
<time>2015-09-27T13:18:38Z</time></trkpt>
<trkpt lat="23.243277" lon="108.486074">
<time>2015-09-27T13:18:39Z</time></trkpt>
<trkpt lat="23.243496" lon="108.485894">
<time>2015-09-27T13:18:40Z</time></trkpt>
<trkpt lat="23.243676" lon="108.485733">
<time>2015-09-27T13:18:41Z</time></trkpt>
<trkpt lat="23.243775" lon="108.485653">
<time>2015-09-27T13:18:42Z</time></trkpt>
<trkpt lat="23.244124" lon="108.485322">
<time>2015-09-27T13:18:43Z</time></trkpt>
<trkpt lat="23.244503" lon="108.484961">
<time>2015-09-27T13:18:44Z</time></trkpt>
<trkpt lat="23.244842" lon="108.48465">
<time>2015-09-27T13:18:45Z</time></trkpt>
<trkpt lat="23.245161" lon="108.484349">
<time>2015-09-27T13:18:46Z</time></trkpt>
<trkpt lat="23.24547" lon="108.484058">
<time>2015-09-27T13:18:47Z</time></trkpt>
<trkpt lat="23.245769" lon="108.483767">
<time>2015-09-27T13:18:48Z</time></trkpt>
<trkpt lat="23.246048" lon="108.483486">
<time>2015-09-27T13:18:49Z</time></trkpt>
<trkpt lat="23.246307" lon="108.483225">
<time>2015-09-27T13:18:50Z</time></trkpt>
<trkpt lat="23.246527" lon="108.483005">
<time>2015-09-27T13:18:51Z</time></trkpt>
<trkpt lat="23.246746" lon="108.482794">
<time>2015-09-27T13:18:52Z</time></trkpt>
<trkpt lat="23.246905" lon="108.482633">
<time>2015-09-27T13:18:53Z</time></trkpt>
<trkpt lat="23.246985" lon="108.482543">
<time>2015-09-27T13:18:54Z</time></trkpt>
<trkpt lat="23.247025" lon="108.482483">
<time>2015-09-27T13:18:55Z</time></trkpt>
<trkpt lat="23.247085" lon="108.482403">
<time>2015-09-27T13:18:56Z</time></trkpt>
<trkpt lat="23.247124" lon="108.482312">
<time>2015-09-27T13:18:57Z</time></trkpt>
<trkpt lat="23.247164" lon="108.482222">
<time>2015-09-27T13:18:58Z</time></trkpt>
<trkpt lat="23.247184" lon="108.482172">
<time>2015-09-27T13:18:59Z</time></trkpt>
<trkpt lat="23.247214" lon="108.482102">
<time>2015-09-27T13:19:00Z</time></trkpt>
<trkpt lat="23.247244" lon="108.482001">
<time>2015-09-27T13:19:01Z</time></trkpt>
<trkpt lat="23.247441" lon="108.481179">
<time>2015-09-27T13:19:02Z</time></trkpt>
<trkpt lat="23.247619" lon="108.480567">
<time>2015-09-27T13:19:03Z</time></trkpt>
<trkpt lat="23.247708" lon="108.480226">
<time>2015-09-27T13:19:04Z</time></trkpt>
<trkpt lat="23.247748" lon="108.480065">
<time>2015-09-27T13:19:05Z</time></trkpt>
<trkpt lat="23.247777" lon="108.479905">
<time>2015-09-27T13:19:06Z</time></trkpt>
<trkpt lat="23.247797" lon="108.479805">
<time>2015-09-27T13:19:07Z</time></trkpt>
<trkpt lat="23.247817" lon="108.479714">
<time>2015-09-27T13:19:08Z</time></trkpt>
<trkpt lat="23.247836" lon="108.479564">
<time>2015-09-27T13:19:09Z</time></trkpt>
<trkpt lat="23.247856" lon="108.479454">
<time>2015-09-27T13:19:10Z</time></trkpt>
<trkpt lat="23.247875" lon="108.479243">
<time>2015-09-27T13:19:11Z</time></trkpt>
<trkpt lat="23.247905" lon="108.479002">
<time>2015-09-27T13:19:12Z</time></trkpt>
<trkpt lat="23.247934" lon="108.478641">
<time>2015-09-27T13:19:13Z</time></trkpt>
<trkpt lat="23.247943" lon="108.47842">
<time>2015-09-27T13:19:14Z</time></trkpt>
<trkpt lat="23.247972" lon="108.47815">
<time>2015-09-27T13:19:15Z</time></trkpt>
<trkpt lat="23.247982" lon="108.478099">
<time>2015-09-27T13:19:16Z</time></trkpt>
<trkpt lat="23.24805" lon="108.477478">
<time>2015-09-27T13:19:17Z</time></trkpt>
<trkpt lat="23.24808" lon="108.477267">
<time>2015-09-27T13:19:18Z</time></trkpt>
<trkpt lat="23.248128" lon="108.476816">
<time>2015-09-27T13:19:19Z</time></trkpt>
<trkpt lat="23.248167" lon="108.476535">
<time>2015-09-27T13:19:20Z</time></trkpt>
<trkpt lat="23.248217" lon="108.476254">
<time>2015-09-27T13:19:21Z</time></trkpt>
<trkpt lat="23.248266" lon="108.475913">
<time>2015-09-27T13:19:22Z</time></trkpt>
<trkpt lat="23.248364" lon="108.475381">
<time>2015-09-27T13:19:23Z</time></trkpt>
<trkpt lat="23.248413" lon="108.475181">
<time>2015-09-27T13:19:24Z</time></trkpt>
<trkpt lat="23.248522" lon="108.474649">
<time>2015-09-27T13:19:25Z</time></trkpt>
<trkpt lat="23.248571" lon="108.474459">
<time>2015-09-27T13:19:26Z</time></trkpt>
<trkpt lat="23.24868" lon="108.474057">
<time>2015-09-27T13:19:27Z</time></trkpt>
<trkpt lat="23.248849" lon="108.473526">
<time>2015-09-27T13:19:28Z</time></trkpt>
<trkpt lat="23.248938" lon="108.473245">
<time>2015-09-27T13:19:29Z</time></trkpt>
<trkpt lat="23.249067" lon="108.472814">
<time>2015-09-27T13:19:30Z</time></trkpt>
<trkpt lat="23.249136" lon="108.472573">
<time>2015-09-27T13:19:31Z</time></trkpt>
<trkpt lat="23.249205" lon="108.472372">
<time>2015-09-27T13:19:32Z</time></trkpt>
<trkpt lat="23.249205" lon="108.472362">
<time>2015-09-27T13:19:33Z</time></trkpt>
<trkpt lat="23.249235" lon="108.472222">
<time>2015-09-27T13:19:34Z</time></trkpt>
<trkpt lat="23.249275" lon="108.472092">
<time>2015-09-27T13:19:35Z</time></trkpt>
<trkpt lat="23.249334" lon="108.471791">
<time>2015-09-27T13:19:36Z</time></trkpt>
<trkpt lat="23.249393" lon="108.471399">
<time>2015-09-27T13:19:37Z</time></trkpt>
<trkpt lat="23.249442" lon="108.471129">
<time>2015-09-27T13:19:38Z</time></trkpt>
<trkpt lat="23.249501" lon="108.470828">
<time>2015-09-27T13:19:39Z</time></trkpt>
<trkpt lat="23.24956" lon="108.470577">
<time>2015-09-27T13:19:40Z</time></trkpt>
<trkpt lat="23.24961" lon="108.470397">
<time>2015-09-27T13:19:41Z</time></trkpt>
<trkpt lat="23.249659" lon="108.470256">
<time>2015-09-27T13:19:42Z</time></trkpt>
<trkpt lat="23.249828" lon="108.469765">
<time>2015-09-27T13:19:43Z</time></trkpt>
<trkpt lat="23.249927" lon="108.469484">
<time>2015-09-27T13:19:44Z</time></trkpt>
<trkpt lat="23.250017" lon="108.469253">
<time>2015-09-27T13:19:45Z</time></trkpt>
<trkpt lat="23.250205" lon="108.468732">
<time>2015-09-27T13:19:46Z</time></trkpt>
<trkpt lat="23.250255" lon="108.468591">
<time>2015-09-27T13:19:47Z</time></trkpt>
<trkpt lat="23.250314" lon="108.468441">
<time>2015-09-27T13:19:48Z</time></trkpt>
<trkpt lat="23.250463" lon="108.46811">
<time>2015-09-27T13:19:49Z</time></trkpt>
<trkpt lat="23.250622" lon="108.467769">
<time>2015-09-27T13:19:50Z</time></trkpt>
<trkpt lat="23.250771" lon="108.467458">
<time>2015-09-27T13:19:51Z</time></trkpt>
<trkpt lat="23.250891" lon="108.467207">
<time>2015-09-27T13:19:52Z</time></trkpt>
<trkpt lat="23.25101" lon="108.466967">
<time>2015-09-27T13:19:53Z</time></trkpt>
<trkpt lat="23.251119" lon="108.466756">
<time>2015-09-27T13:19:54Z</time></trkpt>
<trkpt lat="23.251199" lon="108.466606">
<time>2015-09-27T13:19:55Z</time></trkpt>
<trkpt lat="23.251308" lon="108.466415">
<time>2015-09-27T13:19:56Z</time></trkpt>
<trkpt lat="23.251408" lon="108.466255">
<time>2015-09-27T13:19:57Z</time></trkpt>
<trkpt lat="23.251567" lon="108.466014">
<time>2015-09-27T13:19:58Z</time></trkpt>
<trkpt lat="23.251727" lon="108.465763">
<time>2015-09-27T13:19:59Z</time></trkpt>
<trkpt lat="23.251806" lon="108.465653">
<time>2015-09-27T13:20:00Z</time></trkpt>
<trkpt lat="23.251896" lon="108.465533">
<time>2015-09-27T13:20:01Z</time></trkpt>
<trkpt lat="23.251966" lon="108.465422">
<time>2015-09-27T13:20:02Z</time></trkpt>
<trkpt lat="23.252065" lon="108.465282">
<time>2015-09-27T13:20:03Z</time></trkpt>
<trkpt lat="23.252195" lon="108.465071">
<time>2015-09-27T13:20:04Z</time></trkpt>
<trkpt lat="23.252284" lon="108.464911">
<time>2015-09-27T13:20:05Z</time></trkpt>
<trkpt lat="23.252384" lon="108.46471">
<time>2015-09-27T13:20:06Z</time></trkpt>
<trkpt lat="23.252493" lon="108.46448">
<time>2015-09-27T13:20:07Z</time></trkpt>
<trkpt lat="23.252682" lon="108.464089">
<time>2015-09-27T13:20:08Z</time></trkpt>
<trkpt lat="23.252851" lon="108.463718">
<time>2015-09-27T13:20:09Z</time></trkpt>
<trkpt lat="23.253" lon="108.463387">
<time>2015-09-27T13:20:10Z</time></trkpt>
<trkpt lat="23.25307" lon="108.463216">
<time>2015-09-27T13:20:11Z</time></trkpt>
<trkpt lat="23.253179" lon="108.462925">
<time>2015-09-27T13:20:12Z</time></trkpt>
<trkpt lat="23.253347" lon="108.462444">
<time>2015-09-27T13:20:13Z</time></trkpt>
<trkpt lat="23.253447" lon="108.462153">
<time>2015-09-27T13:20:14Z</time></trkpt>
<trkpt lat="23.253516" lon="108.461963">
<time>2015-09-27T13:20:15Z</time></trkpt>
<trkpt lat="23.253645" lon="108.461582">
<time>2015-09-27T13:20:16Z</time></trkpt>
<trkpt lat="23.253715" lon="108.461411">
<time>2015-09-27T13:20:17Z</time></trkpt>
<trkpt lat="23.253824" lon="108.4611">
<time>2015-09-27T13:20:18Z</time></trkpt>
<trkpt lat="23.254013" lon="108.460609">
<time>2015-09-27T13:20:19Z</time></trkpt>
<trkpt lat="23.254181" lon="108.460168">
<time>2015-09-27T13:20:20Z</time></trkpt>
<trkpt lat="23.2544" lon="108.459596">
<time>2015-09-27T13:20:21Z</time></trkpt>
<trkpt lat="23.254579" lon="108.459125">
<time>2015-09-27T13:20:22Z</time></trkpt>
<trkpt lat="23.254708" lon="108.458794">
<time>2015-09-27T13:20:23Z</time></trkpt>
<trkpt lat="23.254807" lon="108.458534">
<time>2015-09-27T13:20:24Z</time></trkpt>
<trkpt lat="23.254907" lon="108.458263">
<time>2015-09-27T13:20:25Z</time></trkpt>
<trkpt lat="23.255006" lon="108.458022">
<time>2015-09-27T13:20:26Z</time></trkpt>
<trkpt lat="23.255066" lon="108.457852">
<time>2015-09-27T13:20:27Z</time></trkpt>
<trkpt lat="23.255105" lon="108.457732">
<time>2015-09-27T13:20:28Z</time></trkpt>
<trkpt lat="23.255175" lon="108.457481">
<time>2015-09-27T13:20:29Z</time></trkpt>
<trkpt lat="23.255234" lon="108.45724">
<time>2015-09-27T13:20:30Z</time></trkpt>
<trkpt lat="23.255273" lon="108.45704">
<time>2015-09-27T13:20:31Z</time></trkpt>
<trkpt lat="23.255363" lon="108.456669">
<time>2015-09-27T13:20:32Z</time></trkpt>
<trkpt lat="23.255422" lon="108.456418">
<time>2015-09-27T13:20:33Z</time></trkpt>
<trkpt lat="23.255452" lon="108.456278">
<time>2015-09-27T13:20:34Z</time></trkpt>
<trkpt lat="23.255531" lon="108.455907">
<time>2015-09-27T13:20:35Z</time></trkpt>
<trkpt lat="23.25557" lon="108.455676">
<time>2015-09-27T13:20:36Z</time></trkpt>
<trkpt lat="23.255639" lon="108.455245">
<time>2015-09-27T13:20:37Z</time></trkpt>
<trkpt lat="23.255688" lon="108.454854">
<time>2015-09-27T13:20:38Z</time></trkpt>
<trkpt lat="23.255747" lon="108.454473">
<time>2015-09-27T13:20:39Z</time></trkpt>
<trkpt lat="23.255786" lon="108.454142">
<time>2015-09-27T13:20:40Z</time></trkpt>
<trkpt lat="23.255826" lon="108.453842">
<time>2015-09-27T13:20:41Z</time></trkpt>
<trkpt lat="23.255865" lon="108.453571">
<time>2015-09-27T13:20:42Z</time></trkpt>
<trkpt lat="23.255885" lon="108.453361">
<time>2015-09-27T13:20:43Z</time></trkpt>
<trkpt lat="23.255894" lon="108.45312">
<time>2015-09-27T13:20:44Z</time></trkpt>
<trkpt lat="23.255913" lon="108.452839">
<time>2015-09-27T13:20:45Z</time></trkpt>
<trkpt lat="23.255923" lon="108.452689">
<time>2015-09-27T13:20:46Z</time></trkpt>
<trkpt lat="23.255943" lon="108.452488">
<time>2015-09-27T13:20:47Z</time></trkpt>
<trkpt lat="23.255962" lon="108.452338">
<time>2015-09-27T13:20:48Z</time></trkpt>
<trkpt lat="23.255982" lon="108.452168">
<time>2015-09-27T13:20:49Z</time></trkpt>
<trkpt lat="23.256002" lon="108.452057">
<time>2015-09-27T13:20:50Z</time></trkpt>
<trkpt lat="23.256051" lon="108.451817">
<time>2015-09-27T13:20:51Z</time></trkpt>
<trkpt lat="23.25612" lon="108.451486">
<time>2015-09-27T13:20:52Z</time></trkpt>
<trkpt lat="23.2562" lon="108.451215">
<time>2015-09-27T13:20:53Z</time></trkpt>
<trkpt lat="23.256259" lon="108.451025">
<time>2015-09-27T13:20:54Z</time></trkpt>
<trkpt lat="23.256299" lon="108.450915">
<time>2015-09-27T13:20:55Z</time></trkpt>
<trkpt lat="23.256339" lon="108.450814">
<time>2015-09-27T13:20:56Z</time></trkpt>
<trkpt lat="23.256448" lon="108.450534">
<time>2015-09-27T13:20:57Z</time></trkpt>
<trkpt lat="23.256508" lon="108.450363">
<time>2015-09-27T13:20:58Z</time></trkpt>
<trkpt lat="23.256538" lon="108.450293">
<time>2015-09-27T13:20:59Z</time></trkpt>
<trkpt lat="23.256567" lon="108.450193">
<time>2015-09-27T13:21:00Z</time></trkpt>
<trkpt lat="23.256607" lon="108.450053">
<time>2015-09-27T13:21:01Z</time></trkpt>
<trkpt lat="23.256637" lon="108.449882">
<time>2015-09-27T13:21:02Z</time></trkpt>
<trkpt lat="23.256636" lon="108.449792">
<time>2015-09-27T13:21:03Z</time></trkpt>
<trkpt lat="23.256646" lon="108.449692">
<time>2015-09-27T13:21:04Z</time></trkpt>
<trkpt lat="23.256646" lon="108.449562">
<time>2015-09-27T13:21:05Z</time></trkpt>
<trkpt lat="23.256636" lon="108.449401">
<time>2015-09-27T13:21:06Z</time></trkpt>
<trkpt lat="23.256605" lon="108.44911">
<time>2015-09-27T13:21:07Z</time></trkpt>
<trkpt lat="23.256585" lon="108.44893">
<time>2015-09-27T13:21:08Z</time></trkpt>
<trkpt lat="23.256574" lon="108.44874">
<time>2015-09-27T13:21:09Z</time></trkpt>
<trkpt lat="23.256564" lon="108.448509">
<time>2015-09-27T13:21:10Z</time></trkpt>
<trkpt lat="23.256583" lon="108.448379">
<time>2015-09-27T13:21:11Z</time></trkpt>
<trkpt lat="23.256603" lon="108.448178">
<time>2015-09-27T13:21:12Z</time></trkpt>
<trkpt lat="23.256633" lon="108.448068">
<time>2015-09-27T13:21:13Z</time></trkpt>
<trkpt lat="23.256672" lon="108.447908">
<time>2015-09-27T13:21:14Z</time></trkpt>
<trkpt lat="23.256722" lon="108.447747">
<time>2015-09-27T13:21:15Z</time></trkpt>
<trkpt lat="23.256811" lon="108.447507">
<time>2015-09-27T13:21:16Z</time></trkpt>
<trkpt lat="23.256981" lon="108.447106">
<time>2015-09-27T13:21:17Z</time></trkpt>
<trkpt lat="23.2571" lon="108.446825">
<time>2015-09-27T13:21:18Z</time></trkpt>
<trkpt lat="23.25716" lon="108.446685">
<time>2015-09-27T13:21:19Z</time></trkpt>
<trkpt lat="23.257259" lon="108.446475">
<time>2015-09-27T13:21:20Z</time></trkpt>
<trkpt lat="23.257349" lon="108.446314">
<time>2015-09-27T13:21:21Z</time></trkpt>
<trkpt lat="23.257409" lon="108.446204">
<time>2015-09-27T13:21:22Z</time></trkpt>
<trkpt lat="23.257478" lon="108.446074">
<time>2015-09-27T13:21:23Z</time></trkpt>
<trkpt lat="23.257528" lon="108.445973">
<time>2015-09-27T13:21:24Z</time></trkpt>
<trkpt lat="23.257598" lon="108.445773">
<time>2015-09-27T13:21:25Z</time></trkpt>
<trkpt lat="23.257687" lon="108.445573">
<time>2015-09-27T13:21:26Z</time></trkpt>
<trkpt lat="23.257826" lon="108.445202">
<time>2015-09-27T13:21:27Z</time></trkpt>
<trkpt lat="23.258025" lon="108.444651">
<time>2015-09-27T13:21:28Z</time></trkpt>
<trkpt lat="23.258214" lon="108.444119">
<time>2015-09-27T13:21:29Z</time></trkpt>
<trkpt lat="23.258314" lon="108.443809">
<time>2015-09-27T13:21:30Z</time></trkpt>
<trkpt lat="23.258373" lon="108.443628">
<time>2015-09-27T13:21:31Z</time></trkpt>
<trkpt lat="23.258423" lon="108.443418">
<time>2015-09-27T13:21:32Z</time></trkpt>
<trkpt lat="23.258482" lon="108.443187">
<time>2015-09-27T13:21:33Z</time></trkpt>
<trkpt lat="23.258532" lon="108.442927">
<time>2015-09-27T13:21:34Z</time></trkpt>
<trkpt lat="23.258571" lon="108.442737">
<time>2015-09-27T13:21:35Z</time></trkpt>
<trkpt lat="23.258631" lon="108.442406">
<time>2015-09-27T13:21:36Z</time></trkpt>
<trkpt lat="23.25872" lon="108.441875">
<time>2015-09-27T13:21:37Z</time></trkpt>
<trkpt lat="23.258759" lon="108.441684">
<time>2015-09-27T13:21:38Z</time></trkpt>
<trkpt lat="23.258769" lon="108.441624">
<time>2015-09-27T13:21:39Z</time></trkpt>
<trkpt lat="23.258819" lon="108.441424">
<time>2015-09-27T13:21:40Z</time></trkpt>
<trkpt lat="23.258868" lon="108.441244">
<time>2015-09-27T13:21:41Z</time></trkpt>
<trkpt lat="23.258918" lon="108.441123">
<time>2015-09-27T13:21:42Z</time></trkpt>
<trkpt lat="23.258968" lon="108.440993">
<time>2015-09-27T13:21:43Z</time></trkpt>
<trkpt lat="23.259038" lon="108.440863">
<time>2015-09-27T13:21:44Z</time></trkpt>
<trkpt lat="23.259097" lon="108.440773">
<time>2015-09-27T13:21:45Z</time></trkpt>
<trkpt lat="23.259167" lon="108.440642">
<time>2015-09-27T13:21:46Z</time></trkpt>
<trkpt lat="23.259297" lon="108.440452">
<time>2015-09-27T13:21:47Z</time></trkpt>
<trkpt lat="23.259397" lon="108.440322">
<time>2015-09-27T13:21:48Z</time></trkpt>
<trkpt lat="23.259456" lon="108.440232">
<time>2015-09-27T13:21:49Z</time></trkpt>
<trkpt lat="23.259506" lon="108.440171">
<time>2015-09-27T13:21:50Z</time></trkpt>
<trkpt lat="23.259576" lon="108.440111">
<time>2015-09-27T13:21:51Z</time></trkpt>
<trkpt lat="23.259626" lon="108.440061">
<time>2015-09-27T13:21:52Z</time></trkpt>
<trkpt lat="23.259676" lon="108.440021">
<time>2015-09-27T13:21:53Z</time></trkpt>
<trkpt lat="23.259846" lon="108.439891">
<time>2015-09-27T13:21:54Z</time></trkpt>
<trkpt lat="23.260065" lon="108.43972">
<time>2015-09-27T13:21:55Z</time></trkpt>
<trkpt lat="23.260215" lon="108.43959">
<time>2015-09-27T13:21:56Z</time></trkpt>
<trkpt lat="23.260305" lon="108.4395">
<time>2015-09-27T13:21:57Z</time></trkpt>
<trkpt lat="23.260544" lon="108.43923">
<time>2015-09-27T13:21:58Z</time></trkpt>
<trkpt lat="23.260724" lon="108.439019">
<time>2015-09-27T13:21:59Z</time></trkpt>
<trkpt lat="23.260863" lon="108.438829">
<time>2015-09-27T13:22:00Z</time></trkpt>
<trkpt lat="23.260953" lon="108.438709">
<time>2015-09-27T13:22:01Z</time></trkpt>
<trkpt lat="23.261143" lon="108.438428">
<time>2015-09-27T13:22:02Z</time></trkpt>
<trkpt lat="23.261342" lon="108.438117">
<time>2015-09-27T13:22:03Z</time></trkpt>
<trkpt lat="23.261601" lon="108.437727">
<time>2015-09-27T13:22:04Z</time></trkpt>
<trkpt lat="23.261831" lon="108.437376">
<time>2015-09-27T13:22:05Z</time></trkpt>
<trkpt lat="23.26203" lon="108.437075">
<time>2015-09-27T13:22:06Z</time></trkpt>
<trkpt lat="23.262219" lon="108.436785">
<time>2015-09-27T13:22:07Z</time></trkpt>
<trkpt lat="23.262369" lon="108.436564">
<time>2015-09-27T13:22:08Z</time></trkpt>
<trkpt lat="23.262439" lon="108.436444">
<time>2015-09-27T13:22:09Z</time></trkpt>
<trkpt lat="23.262519" lon="108.436334">
<time>2015-09-27T13:22:10Z</time></trkpt>
<trkpt lat="23.262558" lon="108.436254">
<time>2015-09-27T13:22:11Z</time></trkpt>
<trkpt lat="23.262568" lon="108.436244">
<time>2015-09-27T13:22:12Z</time></trkpt>
<trkpt lat="23.262638" lon="108.436124">
<time>2015-09-27T13:22:13Z</time></trkpt>
<trkpt lat="23.262688" lon="108.436003">
<time>2015-09-27T13:22:14Z</time></trkpt>
<trkpt lat="23.262758" lon="108.435853">
<time>2015-09-27T13:22:15Z</time></trkpt>
<trkpt lat="23.262798" lon="108.435743">
<time>2015-09-27T13:22:16Z</time></trkpt>
<trkpt lat="23.262837" lon="108.435613">
<time>2015-09-27T13:22:17Z</time></trkpt>
<trkpt lat="23.262887" lon="108.435452">
<time>2015-09-27T13:22:18Z</time></trkpt>
<trkpt lat="23.262927" lon="108.435252">
<time>2015-09-27T13:22:19Z</time></trkpt>
<trkpt lat="23.263026" lon="108.434771">
<time>2015-09-27T13:22:20Z</time></trkpt>
<trkpt lat="23.263125" lon="108.43429">
<time>2015-09-27T13:22:21Z</time></trkpt>
<trkpt lat="23.263185" lon="108.43398">
<time>2015-09-27T13:22:22Z</time></trkpt>
<trkpt lat="23.263343" lon="108.433229">
<time>2015-09-27T13:22:23Z</time></trkpt>
<trkpt lat="23.263393" lon="108.433098">
<time>2015-09-27T13:22:24Z</time></trkpt>
<trkpt lat="23.263543" lon="108.432728">
<time>2015-09-27T13:22:25Z</time></trkpt>
<trkpt lat="23.263642" lon="108.432487">
<time>2015-09-27T13:22:26Z</time></trkpt>
<trkpt lat="23.263732" lon="108.432297">
<time>2015-09-27T13:22:27Z</time></trkpt>
<trkpt lat="23.263851" lon="108.432047">
<time>2015-09-27T13:22:28Z</time></trkpt>
<trkpt lat="23.263911" lon="108.431937">
<time>2015-09-27T13:22:29Z</time></trkpt>
<trkpt lat="23.263951" lon="108.431826">
<time>2015-09-27T13:22:30Z</time></trkpt>
<trkpt lat="23.264001" lon="108.431686">
<time>2015-09-27T13:22:31Z</time></trkpt>
<trkpt lat="23.264031" lon="108.431566">
<time>2015-09-27T13:22:32Z</time></trkpt>
<trkpt lat="23.264051" lon="108.431506">
<time>2015-09-27T13:22:33Z</time></trkpt>
<trkpt lat="23.26406" lon="108.431416">
<time>2015-09-27T13:22:34Z</time></trkpt>
<trkpt lat="23.26407" lon="108.431346">
<time>2015-09-27T13:22:35Z</time></trkpt>
<trkpt lat="23.26407" lon="108.431255">
<time>2015-09-27T13:22:36Z</time></trkpt>
<trkpt lat="23.26407" lon="108.431105">
<time>2015-09-27T13:22:37Z</time></trkpt>
<trkpt lat="23.26405" lon="108.430895">
<time>2015-09-27T13:22:38Z</time></trkpt>
<trkpt lat="23.264039" lon="108.430785">
<time>2015-09-27T13:22:39Z</time></trkpt>
<trkpt lat="23.264039" lon="108.430665">
<time>2015-09-27T13:22:40Z</time></trkpt>
<trkpt lat="23.264049" lon="108.430594">
<time>2015-09-27T13:22:41Z</time></trkpt>
<trkpt lat="23.264059" lon="108.430524">
<time>2015-09-27T13:22:42Z</time></trkpt>
<trkpt lat="23.264079" lon="108.430434">
<time>2015-09-27T13:22:43Z</time></trkpt>
<trkpt lat="23.264119" lon="108.430284">
<time>2015-09-27T13:22:44Z</time></trkpt>
<trkpt lat="23.264218" lon="108.429923">
<time>2015-09-27T13:22:45Z</time></trkpt>
<trkpt lat="23.264387" lon="108.429363">
<time>2015-09-27T13:22:46Z</time></trkpt>
<trkpt lat="23.264447" lon="108.429152">
<time>2015-09-27T13:22:47Z</time></trkpt>
<trkpt lat="23.264547" lon="108.428852">
<time>2015-09-27T13:22:48Z</time></trkpt>
<trkpt lat="23.264586" lon="108.428702">
<time>2015-09-27T13:22:49Z</time></trkpt>
<trkpt lat="23.264626" lon="108.428551">
<time>2015-09-27T13:22:50Z</time></trkpt>
<trkpt lat="23.264656" lon="108.428361">
<time>2015-09-27T13:22:51Z</time></trkpt>
<trkpt lat="23.264676" lon="108.428241">
<time>2015-09-27T13:22:52Z</time></trkpt>
<trkpt lat="23.264715" lon="108.42796">
<time>2015-09-27T13:22:53Z</time></trkpt>
<trkpt lat="23.264745" lon="108.42775">
<time>2015-09-27T13:22:54Z</time></trkpt>
<trkpt lat="23.264794" lon="108.4273">
<time>2015-09-27T13:22:55Z</time></trkpt>
<trkpt lat="23.264824" lon="108.427119">
<time>2015-09-27T13:22:56Z</time></trkpt>
<trkpt lat="23.264874" lon="108.426739">
<time>2015-09-27T13:22:57Z</time></trkpt>
<trkpt lat="23.264933" lon="108.426428">
<time>2015-09-27T13:22:58Z</time></trkpt>
<trkpt lat="23.264983" lon="108.426198">
<time>2015-09-27T13:22:59Z</time></trkpt>
<trkpt lat="23.265023" lon="108.426048">
<time>2015-09-27T13:23:00Z</time></trkpt>
<trkpt lat="23.265063" lon="108.425938">
<time>2015-09-27T13:23:01Z</time></trkpt>
<trkpt lat="23.265142" lon="108.425677">
<time>2015-09-27T13:23:02Z</time></trkpt>
<trkpt lat="23.265262" lon="108.425257">
<time>2015-09-27T13:23:03Z</time></trkpt>
<trkpt lat="23.265292" lon="108.425157">
<time>2015-09-27T13:23:04Z</time></trkpt>
<trkpt lat="23.265311" lon="108.425077">
<time>2015-09-27T13:23:05Z</time></trkpt>
<trkpt lat="23.265391" lon="108.424816">
<time>2015-09-27T13:23:06Z</time></trkpt>
<trkpt lat="23.265461" lon="108.424586">
<time>2015-09-27T13:23:07Z</time></trkpt>
<trkpt lat="23.265491" lon="108.424496">
<time>2015-09-27T13:23:08Z</time></trkpt>
<trkpt lat="23.265561" lon="108.424336">
<time>2015-09-27T13:23:09Z</time></trkpt>
<trkpt lat="23.26562" lon="108.424205">
<time>2015-09-27T13:23:10Z</time></trkpt>
<trkpt lat="23.26571" lon="108.424045">
<time>2015-09-27T13:23:11Z</time></trkpt>
<trkpt lat="23.26588" lon="108.423785">
<time>2015-09-27T13:23:12Z</time></trkpt>
<trkpt lat="23.26603" lon="108.423565">
<time>2015-09-27T13:23:13Z</time></trkpt>
<trkpt lat="23.266359" lon="108.423104">
<time>2015-09-27T13:23:14Z</time></trkpt>
<trkpt lat="23.266608" lon="108.422764">
<time>2015-09-27T13:23:15Z</time></trkpt>
<trkpt lat="23.266988" lon="108.422243">
<time>2015-09-27T13:23:16Z</time></trkpt>
<trkpt lat="23.267307" lon="108.421822">
<time>2015-09-27T13:23:17Z</time></trkpt>
<trkpt lat="23.267397" lon="108.421702">
<time>2015-09-27T13:23:18Z</time></trkpt>
<trkpt lat="23.267397" lon="108.421702">
<time>2015-09-27T13:23:19Z</time></trkpt>
<trkpt lat="23.262915" lon="108.418749">
<time>2015-09-27T13:23:20Z</time></trkpt>
<trkpt lat="23.262526" lon="108.418659">
<time>2015-09-27T13:23:21Z</time></trkpt>
<trkpt lat="23.260896" lon="108.418549">
<time>2015-09-27T13:23:22Z</time></trkpt>
<trkpt lat="23.260606" lon="108.418569">
<time>2015-09-27T13:23:23Z</time></trkpt>
<trkpt lat="23.257488" lon="108.41919">
<time>2015-09-27T13:23:24Z</time></trkpt>
<trkpt lat="23.257488" lon="108.41919">
<time>2015-09-27T13:23:25Z</time></trkpt>
<trkpt lat="23.255767" lon="108.418219">
<time>2015-09-27T13:23:26Z</time></trkpt>
<trkpt lat="23.255457" lon="108.417919">
<time>2015-09-27T13:23:27Z</time></trkpt>
<trkpt lat="23.255297" lon="108.417649">
<time>2015-09-27T13:23:28Z</time></trkpt>
<trkpt lat="23.255296" lon="108.417208">
<time>2015-09-27T13:23:29Z</time></trkpt>
<trkpt lat="23.255436" lon="108.416468">
<time>2015-09-27T13:23:30Z</time></trkpt>
<trkpt lat="23.255406" lon="108.416137">
<time>2015-09-27T13:23:31Z</time></trkpt>
<trkpt lat="23.255245" lon="108.415327">
<time>2015-09-27T13:23:32Z</time></trkpt>
<trkpt lat="23.255225" lon="108.415056">
<time>2015-09-27T13:23:33Z</time></trkpt>
<trkpt lat="23.255234" lon="108.414676">
<time>2015-09-27T13:23:34Z</time></trkpt>
<trkpt lat="23.255174" lon="108.414416">
<time>2015-09-27T13:23:35Z</time></trkpt>
<trkpt lat="23.255084" lon="108.414226">
<time>2015-09-27T13:23:36Z</time></trkpt>
<trkpt lat="23.254013" lon="108.412565">
<time>2015-09-27T13:23:37Z</time></trkpt>
<trkpt lat="23.253923" lon="108.412294">
<time>2015-09-27T13:23:38Z</time></trkpt>
<trkpt lat="23.253953" lon="108.412134">
<time>2015-09-27T13:23:39Z</time></trkpt>
<trkpt lat="23.253963" lon="108.412074">
<time>2015-09-27T13:23:40Z</time></trkpt>
<trkpt lat="23.254402" lon="108.410924">
<time>2015-09-27T13:23:41Z</time></trkpt>
<trkpt lat="23.254452" lon="108.410553">
<time>2015-09-27T13:23:42Z</time></trkpt>
<trkpt lat="23.254442" lon="108.410233">
<time>2015-09-27T13:23:43Z</time></trkpt>
<trkpt lat="23.254362" lon="108.409613">
<time>2015-09-27T13:23:44Z</time></trkpt>
<trkpt lat="23.254261" lon="108.409373">
<time>2015-09-27T13:23:45Z</time></trkpt>
<trkpt lat="23.254061" lon="108.409163">
<time>2015-09-27T13:23:46Z</time></trkpt>
<trkpt lat="23.253291" lon="108.408752">
<time>2015-09-27T13:23:47Z</time></trkpt>
<trkpt lat="23.253161" lon="108.408592">
<time>2015-09-27T13:23:48Z</time></trkpt>
<trkpt lat="23.253081" lon="108.408362">
<time>2015-09-27T13:23:49Z</time></trkpt>
<trkpt lat="23.253011" lon="108.408182">
<time>2015-09-27T13:23:50Z</time></trkpt>
<trkpt lat="23.252751" lon="108.407752">
<time>2015-09-27T13:23:51Z</time></trkpt>
<trkpt lat="23.252671" lon="108.407542">
<time>2015-09-27T13:23:52Z</time></trkpt>
<trkpt lat="23.252711" lon="108.407232">
<time>2015-09-27T13:23:53Z</time></trkpt>
<trkpt lat="23.252891" lon="108.406711">
<time>2015-09-27T13:23:54Z</time></trkpt>
<trkpt lat="23.253091" lon="108.406411">
<time>2015-09-27T13:23:55Z</time></trkpt>
<trkpt lat="23.25373" lon="108.405931">
<time>2015-09-27T13:23:56Z</time></trkpt>
<trkpt lat="23.25376" lon="108.405871">
<time>2015-09-27T13:23:57Z</time></trkpt>
<trkpt lat="23.25385" lon="108.405721">
<time>2015-09-27T13:23:58Z</time></trkpt>
<trkpt lat="23.25393" lon="108.405261">
<time>2015-09-27T13:23:59Z</time></trkpt>
<trkpt lat="23.25403" lon="108.40415">
<time>2015-09-27T13:24:00Z</time></trkpt>
<trkpt lat="23.254109" lon="108.40367">
<time>2015-09-27T13:24:01Z</time></trkpt>
<trkpt lat="23.254199" lon="108.40338">
<time>2015-09-27T13:24:02Z</time></trkpt>
<trkpt lat="23.254219" lon="108.40307">
<time>2015-09-27T13:24:03Z</time></trkpt>
<trkpt lat="23.254169" lon="108.40281">
<time>2015-09-27T13:24:04Z</time></trkpt>
<trkpt lat="23.254159" lon="108.4025">
<time>2015-09-27T13:24:05Z</time></trkpt>
<trkpt lat="23.254259" lon="108.40188">
<time>2015-09-27T13:24:06Z</time></trkpt>
<trkpt lat="23.254219" lon="108.40165">
<time>2015-09-27T13:24:07Z</time></trkpt>
<trkpt lat="23.254059" lon="108.40121">
<time>2015-09-27T13:24:08Z</time></trkpt>
<trkpt lat="23.254039" lon="108.40101">
<time>2015-09-27T13:24:09Z</time></trkpt>
<trkpt lat="23.254069" lon="108.40077">
<time>2015-09-27T13:24:10Z</time></trkpt>
<trkpt lat="23.254209" lon="108.40042">
<time>2015-09-27T13:24:11Z</time></trkpt>
<trkpt lat="23.254299" lon="108.39994">
<time>2015-09-27T13:24:12Z</time></trkpt>
<trkpt lat="23.254299" lon="108.399519">
<time>2015-09-27T13:24:13Z</time></trkpt>
<trkpt lat="23.254359" lon="108.399229">
<time>2015-09-27T13:24:14Z</time></trkpt>
<trkpt lat="23.254669" lon="108.398519">
<time>2015-09-27T13:24:15Z</time></trkpt>
<trkpt lat="23.254798" lon="108.398039">
<time>2015-09-27T13:24:16Z</time></trkpt>
<trkpt lat="23.254858" lon="108.397559">
<time>2015-09-27T13:24:17Z</time></trkpt>
<trkpt lat="23.255028" lon="108.396929">
<time>2015-09-27T13:24:18Z</time></trkpt>
<trkpt lat="23.255288" lon="108.396389">
<time>2015-09-27T13:24:19Z</time></trkpt>
<trkpt lat="23.255718" lon="108.395779">
<time>2015-09-27T13:24:20Z</time></trkpt>
<trkpt lat="23.255798" lon="108.395519">
<time>2015-09-27T13:24:21Z</time></trkpt>
<trkpt lat="23.255859" lon="108.39355">
<time>2015-09-27T13:24:22Z</time></trkpt>
<trkpt lat="23.255769" lon="108.39333">
<time>2015-09-27T13:24:23Z</time></trkpt>
<trkpt lat="23.255219" lon="108.39306">
<time>2015-09-27T13:24:24Z</time></trkpt>
<trkpt lat="23.255109" lon="108.3929">
<time>2015-09-27T13:24:25Z</time></trkpt>
<trkpt lat="23.254999" lon="108.39247">
<time>2015-09-27T13:24:26Z</time></trkpt>
<trkpt lat="23.254979" lon="108.3919">
<time>2015-09-27T13:24:27Z</time></trkpt>
<trkpt lat="23.255039" lon="108.39156">
<time>2015-09-27T13:24:28Z</time></trkpt>
<trkpt lat="23.25541" lon="108.39056">
<time>2015-09-27T13:24:29Z</time></trkpt>
<trkpt lat="23.25546" lon="108.390261">
<time>2015-09-27T13:24:30Z</time></trkpt>
<trkpt lat="23.25546" lon="108.390091">
<time>2015-09-27T13:24:31Z</time></trkpt>
<trkpt lat="23.25535" lon="108.388541">
<time>2015-09-27T13:24:32Z</time></trkpt>
<trkpt lat="23.255321" lon="108.387911">
<time>2015-09-27T13:24:33Z</time></trkpt>
<trkpt lat="23.255603" lon="108.383524">
<time>2015-09-27T13:24:34Z</time></trkpt>
<trkpt lat="23.255673" lon="108.382954">
<time>2015-09-27T13:24:35Z</time></trkpt>
<trkpt lat="23.255763" lon="108.382624">
<time>2015-09-27T13:24:36Z</time></trkpt>
<trkpt lat="23.256034" lon="108.381945">
<time>2015-09-27T13:24:37Z</time></trkpt>
<trkpt lat="23.256164" lon="108.381835">
<time>2015-09-27T13:24:38Z</time></trkpt>
<trkpt lat="23.256544" lon="108.381725">
<time>2015-09-27T13:24:39Z</time></trkpt>
<trkpt lat="23.256684" lon="108.381735">
<time>2015-09-27T13:24:40Z</time></trkpt>
<trkpt lat="23.256933" lon="108.381785">
<time>2015-09-27T13:24:41Z</time></trkpt>
<trkpt lat="23.257113" lon="108.381775">
<time>2015-09-27T13:24:42Z</time></trkpt>
<trkpt lat="23.257233" lon="108.381715">
<time>2015-09-27T13:24:43Z</time></trkpt>
<trkpt lat="23.257274" lon="108.381525">
<time>2015-09-27T13:24:44Z</time></trkpt>
<trkpt lat="23.257274" lon="108.381525">
<time>2015-09-27T13:24:45Z</time></trkpt>
<trkpt lat="23.257264" lon="108.381515">
<time>2015-09-27T13:24:46Z</time></trkpt>
<trkpt lat="23.257224" lon="108.381455">
<time>2015-09-27T13:24:47Z</time></trkpt>
<trkpt lat="23.257174" lon="108.381355">
<time>2015-09-27T13:24:48Z</time></trkpt>
<trkpt lat="23.257154" lon="108.381305">
<time>2015-09-27T13:24:49Z</time></trkpt>
<trkpt lat="23.257144" lon="108.381255">
<time>2015-09-27T13:24:50Z</time></trkpt>
<trkpt lat="23.257114" lon="108.381165">
<time>2015-09-27T13:24:51Z</time></trkpt>
<trkpt lat="23.257094" lon="108.381055">
<time>2015-09-27T13:24:52Z</time></trkpt>
<trkpt lat="23.256796" lon="108.378258">
<time>2015-09-27T13:24:53Z</time></trkpt>
<trkpt lat="23.256717" lon="108.377628">
<time>2015-09-27T13:24:54Z</time></trkpt>
<trkpt lat="23.256617" lon="108.376879">
<time>2015-09-27T13:24:55Z</time></trkpt>
<trkpt lat="23.256508" lon="108.376059">
<time>2015-09-27T13:24:56Z</time></trkpt>
<trkpt lat="23.256468" lon="108.37588">
<time>2015-09-27T13:24:57Z</time></trkpt>
<trkpt lat="23.256419" lon="108.3756">
<time>2015-09-27T13:24:58Z</time></trkpt>
<trkpt lat="23.256239" lon="108.375">
<time>2015-09-27T13:24:59Z</time></trkpt>
<trkpt lat="23.25609" lon="108.374491">
<time>2015-09-27T13:25:00Z</time></trkpt>
<trkpt lat="23.25607" lon="108.374391">
<time>2015-09-27T13:25:01Z</time></trkpt>
<trkpt lat="23.25605" lon="108.374281">
<time>2015-09-27T13:25:02Z</time></trkpt>
<trkpt lat="23.25603" lon="108.374141">
<time>2015-09-27T13:25:03Z</time></trkpt>
<trkpt lat="23.25601" lon="108.373981">
<time>2015-09-27T13:25:04Z</time></trkpt>
<trkpt lat="23.25599" lon="108.373782">
<time>2015-09-27T13:25:05Z</time></trkpt>
<trkpt lat="23.255971" lon="108.373662">
<time>2015-09-27T13:25:06Z</time></trkpt>
<trkpt lat="23.255941" lon="108.373522">
<time>2015-09-27T13:25:07Z</time></trkpt>
<trkpt lat="23.255891" lon="108.373362">
<time>2015-09-27T13:25:08Z</time></trkpt>
<trkpt lat="23.255861" lon="108.373272">
<time>2015-09-27T13:25:09Z</time></trkpt>
<trkpt lat="23.255811" lon="108.373162">
<time>2015-09-27T13:25:10Z</time></trkpt>
<trkpt lat="23.255701" lon="108.372943">
<time>2015-09-27T13:25:11Z</time></trkpt>
<trkpt lat="23.255602" lon="108.372743">
<time>2015-09-27T13:25:12Z</time></trkpt>
<trkpt lat="23.255542" lon="108.372553">
<time>2015-09-27T13:25:13Z</time></trkpt>
<trkpt lat="23.255502" lon="108.372443">
<time>2015-09-27T13:25:14Z</time></trkpt>
<trkpt lat="23.255462" lon="108.372333">
<time>2015-09-27T13:25:15Z</time></trkpt>
<trkpt lat="23.255402" lon="108.372193">
<time>2015-09-27T13:25:16Z</time></trkpt>
<trkpt lat="23.255302" lon="108.372014">
<time>2015-09-27T13:25:17Z</time></trkpt>
<trkpt lat="23.255143" lon="108.371764">
<time>2015-09-27T13:25:18Z</time></trkpt>
<trkpt lat="23.255013" lon="108.371574">
<time>2015-09-27T13:25:19Z</time></trkpt>
<trkpt lat="23.254873" lon="108.371374">
<time>2015-09-27T13:25:20Z</time></trkpt>
<trkpt lat="23.254773" lon="108.371254">
<time>2015-09-27T13:25:21Z</time></trkpt>
<trkpt lat="23.254704" lon="108.371165">
<time>2015-09-27T13:25:22Z</time></trkpt>
<trkpt lat="23.254574" lon="108.371025">
<time>2015-09-27T13:25:23Z</time></trkpt>
<trkpt lat="23.254484" lon="108.370945">
<time>2015-09-27T13:25:24Z</time></trkpt>
<trkpt lat="23.254324" lon="108.370815">
<time>2015-09-27T13:25:25Z</time></trkpt>
<trkpt lat="23.253865" lon="108.370455">
<time>2015-09-27T13:25:26Z</time></trkpt>
<trkpt lat="23.253785" lon="108.370395">
<time>2015-09-27T13:25:27Z</time></trkpt>
<trkpt lat="23.253685" lon="108.370296">
<time>2015-09-27T13:25:28Z</time></trkpt>
<trkpt lat="23.253645" lon="108.370256">
<time>2015-09-27T13:25:29Z</time></trkpt>
<trkpt lat="23.253595" lon="108.370186">
<time>2015-09-27T13:25:30Z</time></trkpt>
<trkpt lat="23.253545" lon="108.370126">
<time>2015-09-27T13:25:31Z</time></trkpt>
<trkpt lat="23.253515" lon="108.370076">
<time>2015-09-27T13:25:32Z</time></trkpt>
<trkpt lat="23.253485" lon="108.370026">
<time>2015-09-27T13:25:33Z</time></trkpt>
<trkpt lat="23.253445" lon="108.369926">
<time>2015-09-27T13:25:34Z</time></trkpt>
<trkpt lat="23.253405" lon="108.369826">
<time>2015-09-27T13:25:35Z</time></trkpt>
<trkpt lat="23.253306" lon="108.369467">
<time>2015-09-27T13:25:36Z</time></trkpt>
<trkpt lat="23.253226" lon="108.369187">
<time>2015-09-27T13:25:37Z</time></trkpt>
<trkpt lat="23.252888" lon="108.368088">
<time>2015-09-27T13:25:38Z</time></trkpt>
<trkpt lat="23.252838" lon="108.367908">
<time>2015-09-27T13:25:39Z</time></trkpt>
<trkpt lat="23.252808" lon="108.367759">
<time>2015-09-27T13:25:40Z</time></trkpt>
<trkpt lat="23.252798" lon="108.367649">
<time>2015-09-27T13:25:41Z</time></trkpt>
<trkpt lat="23.252788" lon="108.367549">
<time>2015-09-27T13:25:42Z</time></trkpt>
<trkpt lat="23.252759" lon="108.367169">
<time>2015-09-27T13:25:43Z</time></trkpt>
<trkpt lat="23.252749" lon="108.367019">
<time>2015-09-27T13:25:44Z</time></trkpt>
<trkpt lat="23.252729" lon="108.36687">
<time>2015-09-27T13:25:45Z</time></trkpt>
<trkpt lat="23.252709" lon="108.36678">
<time>2015-09-27T13:25:46Z</time></trkpt>
<trkpt lat="23.252689" lon="108.36668">
<time>2015-09-27T13:25:47Z</time></trkpt>
<trkpt lat="23.252659" lon="108.36657">
<time>2015-09-27T13:25:48Z</time></trkpt>
<trkpt lat="23.25262" lon="108.36644">
<time>2015-09-27T13:25:49Z</time></trkpt>
<trkpt lat="23.25258" lon="108.36634">
<time>2015-09-27T13:25:50Z</time></trkpt>
<trkpt lat="23.25256" lon="108.36627">
<time>2015-09-27T13:25:51Z</time></trkpt>
<trkpt lat="23.25253" lon="108.36622">
<time>2015-09-27T13:25:52Z</time></trkpt>
<trkpt lat="23.25249" lon="108.366171">
<time>2015-09-27T13:25:53Z</time></trkpt>
<trkpt lat="23.25243" lon="108.366081">
<time>2015-09-27T13:25:54Z</time></trkpt>
<trkpt lat="23.25236" lon="108.365991">
<time>2015-09-27T13:25:55Z</time></trkpt>
<trkpt lat="23.25228" lon="108.365921">
<time>2015-09-27T13:25:56Z</time></trkpt>
<trkpt lat="23.25219" lon="108.365841">
<time>2015-09-27T13:25:57Z</time></trkpt>
<trkpt lat="23.252111" lon="108.365791">
<time>2015-09-27T13:25:58Z</time></trkpt>
<trkpt lat="23.252011" lon="108.365731">
<time>2015-09-27T13:25:59Z</time></trkpt>
<trkpt lat="23.251711" lon="108.365581">
<time>2015-09-27T13:26:00Z</time></trkpt>
<trkpt lat="23.251401" lon="108.365432">
<time>2015-09-27T13:26:01Z</time></trkpt>
<trkpt lat="23.251142" lon="108.365272">
<time>2015-09-27T13:26:02Z</time></trkpt>
<trkpt lat="23.250912" lon="108.365102">
<time>2015-09-27T13:26:03Z</time></trkpt>
<trkpt lat="23.250682" lon="108.364892">
<time>2015-09-27T13:26:04Z</time></trkpt>
<trkpt lat="23.250453" lon="108.364643">
<time>2015-09-27T13:26:05Z</time></trkpt>
<trkpt lat="23.250193" lon="108.364313">
<time>2015-09-27T13:26:06Z</time></trkpt>
<trkpt lat="23.249994" lon="108.363984">
<time>2015-09-27T13:26:07Z</time></trkpt>
<trkpt lat="23.249175" lon="108.362805">
<time>2015-09-27T13:26:08Z</time></trkpt>
<trkpt lat="23.248377" lon="108.361797">
<time>2015-09-27T13:26:09Z</time></trkpt>
<trkpt lat="23.24669" lon="108.35966">
<time>2015-09-27T13:26:10Z</time></trkpt>
<trkpt lat="23.245783" lon="108.358412">
<time>2015-09-27T13:26:11Z</time></trkpt>
<trkpt lat="23.245414" lon="108.357753">
<time>2015-09-27T13:26:12Z</time></trkpt>
<trkpt lat="23.245304" lon="108.357553">
<time>2015-09-27T13:26:13Z</time></trkpt>
<trkpt lat="23.245015" lon="108.356774">
<time>2015-09-27T13:26:14Z</time></trkpt>
<trkpt lat="23.244975" lon="108.356664">
<time>2015-09-27T13:26:15Z</time></trkpt>
<trkpt lat="23.244936" lon="108.356575">
<time>2015-09-27T13:26:16Z</time></trkpt>
<trkpt lat="23.244856" lon="108.356445">
<time>2015-09-27T13:26:17Z</time></trkpt>
<trkpt lat="23.244776" lon="108.356345">
<time>2015-09-27T13:26:18Z</time></trkpt>
<trkpt lat="23.244437" lon="108.355926">
<time>2015-09-27T13:26:19Z</time></trkpt>
<trkpt lat="23.244107" lon="108.355546">
<time>2015-09-27T13:26:20Z</time></trkpt>
<trkpt lat="23.243818" lon="108.355117">
<time>2015-09-27T13:26:21Z</time></trkpt>
<trkpt lat="23.243579" lon="108.354498">
<time>2015-09-27T13:26:22Z</time></trkpt>
<trkpt lat="23.24329" lon="108.354019">
<time>2015-09-27T13:26:23Z</time></trkpt>
<trkpt lat="23.242881" lon="108.35344">
<time>2015-09-27T13:26:24Z</time></trkpt>
<trkpt lat="23.242023" lon="108.352441">
<time>2015-09-27T13:26:25Z</time></trkpt>
<trkpt lat="23.241743" lon="108.352182">
<time>2015-09-27T13:26:26Z</time></trkpt>
<trkpt lat="23.241164" lon="108.351673">
<time>2015-09-27T13:26:27Z</time></trkpt>
<trkpt lat="23.240295" lon="108.351283">
<time>2015-09-27T13:26:28Z</time></trkpt>
<trkpt lat="23.239686" lon="108.351104">
<time>2015-09-27T13:26:29Z</time></trkpt>
<trkpt lat="23.239106" lon="108.351004">
<time>2015-09-27T13:26:30Z</time></trkpt>
<trkpt lat="23.238746" lon="108.350884">
<time>2015-09-27T13:26:31Z</time></trkpt>
<trkpt lat="23.238247" lon="108.350714">
<time>2015-09-27T13:26:32Z</time></trkpt>
<trkpt lat="23.237388" lon="108.350145">
<time>2015-09-27T13:26:33Z</time></trkpt>
<trkpt lat="23.237218" lon="108.350036">
<time>2015-09-27T13:26:34Z</time></trkpt>
<trkpt lat="23.233264" lon="108.34759">
<time>2015-09-27T13:26:35Z</time></trkpt>
<trkpt lat="23.232145" lon="108.346851">
<time>2015-09-27T13:26:36Z</time></trkpt>
<trkpt lat="23.231377" lon="108.346223">
<time>2015-09-27T13:26:37Z</time></trkpt>
<trkpt lat="23.231047" lon="108.346023">
<time>2015-09-27T13:26:38Z</time></trkpt>
<trkpt lat="23.230777" lon="108.345893">
<time>2015-09-27T13:26:39Z</time></trkpt>
<trkpt lat="23.230458" lon="108.345763">
<time>2015-09-27T13:26:40Z</time></trkpt>
<trkpt lat="23.227061" lon="108.344646">
<time>2015-09-27T13:26:41Z</time></trkpt>
<trkpt lat="23.226202" lon="108.344456">
<time>2015-09-27T13:26:42Z</time></trkpt>
<trkpt lat="23.225652" lon="108.344396">
<time>2015-09-27T13:26:43Z</time></trkpt>
<trkpt lat="23.225092" lon="108.344376">
<time>2015-09-27T13:26:44Z</time></trkpt>
<trkpt lat="23.222013" lon="108.344456">
<time>2015-09-27T13:26:45Z</time></trkpt>
<trkpt lat="23.221533" lon="108.344366">
<time>2015-09-27T13:26:46Z</time></trkpt>
<trkpt lat="23.221014" lon="108.344117">
<time>2015-09-27T13:26:47Z</time></trkpt>
<trkpt lat="23.220575" lon="108.343748">
<time>2015-09-27T13:26:48Z</time></trkpt>
<trkpt lat="23.220255" lon="108.343378">
<time>2015-09-27T13:26:49Z</time></trkpt>
<trkpt lat="23.220136" lon="108.343189">
<time>2015-09-27T13:26:50Z</time></trkpt>
<trkpt lat="23.220106" lon="108.343139">
<time>2015-09-27T13:26:51Z</time></trkpt>
<trkpt lat="23.219727" lon="108.34245">
<time>2015-09-27T13:26:52Z</time></trkpt>
<trkpt lat="23.219319" lon="108.341641">
<time>2015-09-27T13:26:53Z</time></trkpt>
<trkpt lat="23.21911" lon="108.341172">
<time>2015-09-27T13:26:54Z</time></trkpt>
<trkpt lat="23.218831" lon="108.340534">
<time>2015-09-27T13:26:55Z</time></trkpt>
<trkpt lat="23.218632" lon="108.339865">
<time>2015-09-27T13:26:56Z</time></trkpt>
<trkpt lat="23.218364" lon="108.338986">
<time>2015-09-27T13:26:57Z</time></trkpt>
<trkpt lat="23.218205" lon="108.338517">
<time>2015-09-27T13:26:58Z</time></trkpt>
<trkpt lat="23.218026" lon="108.338138">
<time>2015-09-27T13:26:59Z</time></trkpt>
<trkpt lat="23.217687" lon="108.337619">
<time>2015-09-27T13:27:00Z</time></trkpt>
<trkpt lat="23.216311" lon="108.335463">
<time>2015-09-27T13:27:01Z</time></trkpt>
<trkpt lat="23.215603" lon="108.334435">
<time>2015-09-27T13:27:02Z</time></trkpt>
<trkpt lat="23.215274" lon="108.334016">
<time>2015-09-27T13:27:03Z</time></trkpt>
<trkpt lat="23.214586" lon="108.333138">
<time>2015-09-27T13:27:04Z</time></trkpt>
<trkpt lat="23.213868" lon="108.332339">
<time>2015-09-27T13:27:05Z</time></trkpt>
<trkpt lat="23.213219" lon="108.331691">
<time>2015-09-27T13:27:06Z</time></trkpt>
<trkpt lat="23.210515" lon="108.329435">
<time>2015-09-27T13:27:07Z</time></trkpt>
<trkpt lat="23.2076" lon="108.327">
<time>2015-09-27T13:27:08Z</time></trkpt>
<trkpt lat="23.207131" lon="108.326601">
<time>2015-09-27T13:27:09Z</time></trkpt>
<trkpt lat="23.206812" lon="108.326331">
<time>2015-09-27T13:27:10Z</time></trkpt>
<trkpt lat="23.205784" lon="108.325423">
<time>2015-09-27T13:27:11Z</time></trkpt>
<trkpt lat="23.205165" lon="108.324705">
<time>2015-09-27T13:27:12Z</time></trkpt>
<trkpt lat="23.204587" lon="108.324036">
<time>2015-09-27T13:27:13Z</time></trkpt>
<trkpt lat="23.203819" lon="108.323367">
<time>2015-09-27T13:27:14Z</time></trkpt>
<trkpt lat="23.202002" lon="108.32193">
<time>2015-09-27T13:27:15Z</time></trkpt>
<trkpt lat="23.201223" lon="108.321262">
<time>2015-09-27T13:27:16Z</time></trkpt>
<trkpt lat="23.201054" lon="108.321122">
<time>2015-09-27T13:27:17Z</time></trkpt>
<trkpt lat="23.200575" lon="108.320503">
<time>2015-09-27T13:27:18Z</time></trkpt>
<trkpt lat="23.199897" lon="108.319515">
<time>2015-09-27T13:27:19Z</time></trkpt>
<trkpt lat="23.199439" lon="108.318886">
<time>2015-09-27T13:27:20Z</time></trkpt>
<trkpt lat="23.199399" lon="108.318846">
<time>2015-09-27T13:27:21Z</time></trkpt>
<trkpt lat="23.19889" lon="108.318347">
<time>2015-09-27T13:27:22Z</time></trkpt>
<trkpt lat="23.198331" lon="108.317958">
<time>2015-09-27T13:27:23Z</time></trkpt>
<trkpt lat="23.197402" lon="108.31728">
<time>2015-09-27T13:27:24Z</time></trkpt>
<trkpt lat="23.196793" lon="108.316821">
<time>2015-09-27T13:27:25Z</time></trkpt>
<trkpt lat="23.196235" lon="108.316182">
<time>2015-09-27T13:27:26Z</time></trkpt>
<trkpt lat="23.196155" lon="108.316082">
<time>2015-09-27T13:27:27Z</time></trkpt>
<trkpt lat="23.195856" lon="108.315713">
<time>2015-09-27T13:27:28Z</time></trkpt>
<trkpt lat="23.195597" lon="108.315284">
<time>2015-09-27T13:27:29Z</time></trkpt>
<trkpt lat="23.194979" lon="108.314335">
<time>2015-09-27T13:27:30Z</time></trkpt>
<trkpt lat="23.194021" lon="108.313138">
<time>2015-09-27T13:27:31Z</time></trkpt>
<trkpt lat="23.193723" lon="108.312609">
<time>2015-09-27T13:27:32Z</time></trkpt>
<trkpt lat="23.193583" lon="108.312229">
<time>2015-09-27T13:27:33Z</time></trkpt>
<trkpt lat="23.193474" lon="108.31189">
<time>2015-09-27T13:27:34Z</time></trkpt>
<trkpt lat="23.193215" lon="108.311261">
<time>2015-09-27T13:27:35Z</time></trkpt>
<trkpt lat="23.192946" lon="108.310742">
<time>2015-09-27T13:27:36Z</time></trkpt>
<trkpt lat="23.192099" lon="108.309545">
<time>2015-09-27T13:27:37Z</time></trkpt>
<trkpt lat="23.191441" lon="108.308606">
<time>2015-09-27T13:27:38Z</time></trkpt>
<trkpt lat="23.190942" lon="108.307778">
<time>2015-09-27T13:27:39Z</time></trkpt>
<trkpt lat="23.190912" lon="108.307738">
<time>2015-09-27T13:27:40Z</time></trkpt>
<trkpt lat="23.190335" lon="108.30658">
<time>2015-09-27T13:27:41Z</time></trkpt>
<trkpt lat="23.190285" lon="108.3065">
<time>2015-09-27T13:27:42Z</time></trkpt>
<trkpt lat="23.190285" lon="108.3065">
<time>2015-09-27T13:27:43Z</time></trkpt>
<trkpt lat="23.190265" lon="108.30642">
<time>2015-09-27T13:27:44Z</time></trkpt>
<trkpt lat="23.189667" lon="108.305422">
<time>2015-09-27T13:27:45Z</time></trkpt>
<trkpt lat="23.189189" lon="108.304703">
<time>2015-09-27T13:27:46Z</time></trkpt>
<trkpt lat="23.188281" lon="108.303426">
<time>2015-09-27T13:27:47Z</time></trkpt>
<trkpt lat="23.18444" lon="108.298954">
<time>2015-09-27T13:27:48Z</time></trkpt>
<trkpt lat="23.183832" lon="108.298245">
<time>2015-09-27T13:27:49Z</time></trkpt>
<trkpt lat="23.183782" lon="108.298185">
<time>2015-09-27T13:27:50Z</time></trkpt>
<trkpt lat="23.183702" lon="108.298085">
<time>2015-09-27T13:27:51Z</time></trkpt>
<trkpt lat="23.183702" lon="108.298085">
<time>2015-09-27T13:27:52Z</time></trkpt>
<trkpt lat="23.183542" lon="108.297905">
<time>2015-09-27T13:27:53Z</time></trkpt>
<trkpt lat="23.183143" lon="108.297426">
<time>2015-09-27T13:27:54Z</time></trkpt>
<trkpt lat="23.182245" lon="108.296368">
<time>2015-09-27T13:27:55Z</time></trkpt>
<trkpt lat="23.181667" lon="108.295679">
<time>2015-09-27T13:27:56Z</time></trkpt>
<trkpt lat="23.180759" lon="108.294621">
<time>2015-09-27T13:27:57Z</time></trkpt>
<trkpt lat="23.18032" lon="108.294122">
<time>2015-09-27T13:27:58Z</time></trkpt>
<trkpt lat="23.178763" lon="108.292324">
<time>2015-09-27T13:27:59Z</time></trkpt>
<trkpt lat="23.178523" lon="108.292055">
<time>2015-09-27T13:28:00Z</time></trkpt>
<trkpt lat="23.178254" lon="108.291755">
<time>2015-09-27T13:28:01Z</time></trkpt>
<trkpt lat="23.177805" lon="108.291256">
<time>2015-09-27T13:28:02Z</time></trkpt>
<trkpt lat="23.177456" lon="108.290867">
<time>2015-09-27T13:28:03Z</time></trkpt>
<trkpt lat="23.177306" lon="108.290707">
<time>2015-09-27T13:28:04Z</time></trkpt>
<trkpt lat="23.176837" lon="108.290188">
<time>2015-09-27T13:28:05Z</time></trkpt>
<trkpt lat="23.176418" lon="108.289718">
<time>2015-09-27T13:28:06Z</time></trkpt>
<trkpt lat="23.17535" lon="108.28854">
<time>2015-09-27T13:28:07Z</time></trkpt>
<trkpt lat="23.174891" lon="108.288041">
<time>2015-09-27T13:28:08Z</time></trkpt>
<trkpt lat="23.174591" lon="108.287711">
<time>2015-09-27T13:28:09Z</time></trkpt>
<trkpt lat="23.174302" lon="108.287402">
<time>2015-09-27T13:28:10Z</time></trkpt>
<trkpt lat="23.174022" lon="108.287012">
<time>2015-09-27T13:28:11Z</time></trkpt>
<trkpt lat="23.173983" lon="108.286942">
<time>2015-09-27T13:28:12Z</time></trkpt>
<trkpt lat="23.173345" lon="108.285694">
<time>2015-09-27T13:28:13Z</time></trkpt>
<trkpt lat="23.172717" lon="108.284416">
<time>2015-09-27T13:28:14Z</time></trkpt>
<trkpt lat="23.172517" lon="108.284106">
<time>2015-09-27T13:28:15Z</time></trkpt>
<trkpt lat="23.172248" lon="108.283747">
<time>2015-09-27T13:28:16Z</time></trkpt>
<trkpt lat="23.171599" lon="108.283098">
<time>2015-09-27T13:28:17Z</time></trkpt>
<trkpt lat="23.171409" lon="108.282908">
<time>2015-09-27T13:28:18Z</time></trkpt>
<trkpt lat="23.171199" lon="108.282698">
<time>2015-09-27T13:28:19Z</time></trkpt>
<trkpt lat="23.171159" lon="108.282658">
<time>2015-09-27T13:28:20Z</time></trkpt>
<trkpt lat="23.17083" lon="108.282269">
<time>2015-09-27T13:28:21Z</time></trkpt>
<trkpt lat="23.17071" lon="108.282199">
<time>2015-09-27T13:28:22Z</time></trkpt>
<trkpt lat="23.170231" lon="108.281669">
<time>2015-09-27T13:28:23Z</time></trkpt>
<trkpt lat="23.169712" lon="108.28099">
<time>2015-09-27T13:28:24Z</time></trkpt>
<trkpt lat="23.169363" lon="108.280571">
<time>2015-09-27T13:28:25Z</time></trkpt>
<trkpt lat="23.169053" lon="108.280281">
<time>2015-09-27T13:28:26Z</time></trkpt>
<trkpt lat="23.168684" lon="108.279981">
<time>2015-09-27T13:28:27Z</time></trkpt>
<trkpt lat="23.168544" lon="108.279872">
<time>2015-09-27T13:28:28Z</time></trkpt>
<trkpt lat="23.168214" lon="108.279622">
<time>2015-09-27T13:28:29Z</time></trkpt>
<trkpt lat="23.168184" lon="108.279602">
<time>2015-09-27T13:28:30Z</time></trkpt>
<trkpt lat="23.167815" lon="108.279182">
<time>2015-09-27T13:28:31Z</time></trkpt>
<trkpt lat="23.167535" lon="108.278863">
<time>2015-09-27T13:28:32Z</time></trkpt>
<trkpt lat="23.166966" lon="108.278263">
<time>2015-09-27T13:28:33Z</time></trkpt>
<trkpt lat="23.166667" lon="108.277964">
<time>2015-09-27T13:28:34Z</time></trkpt>
<trkpt lat="23.166607" lon="108.277904">
<time>2015-09-27T13:28:35Z</time></trkpt>
<trkpt lat="23.166467" lon="108.277774">
<time>2015-09-27T13:28:36Z</time></trkpt>
<trkpt lat="23.166267" lon="108.277584">
<time>2015-09-27T13:28:37Z</time></trkpt>
<trkpt lat="23.166068" lon="108.277384">
<time>2015-09-27T13:28:38Z</time></trkpt>
<trkpt lat="23.166038" lon="108.277354">
<time>2015-09-27T13:28:39Z</time></trkpt>
<trkpt lat="23.166018" lon="108.277324">
<time>2015-09-27T13:28:40Z</time></trkpt>
<trkpt lat="23.165998" lon="108.277304">
<time>2015-09-27T13:28:41Z</time></trkpt>
<trkpt lat="23.165968" lon="108.277265">
<time>2015-09-27T13:28:42Z</time></trkpt>
<trkpt lat="23.165928" lon="108.277205">
<time>2015-09-27T13:28:43Z</time></trkpt>
<trkpt lat="23.165888" lon="108.277125">
<time>2015-09-27T13:28:44Z</time></trkpt>
<trkpt lat="23.165828" lon="108.277025">
<time>2015-09-27T13:28:45Z</time></trkpt>
<trkpt lat="23.165768" lon="108.276895">
<time>2015-09-27T13:28:46Z</time></trkpt>
<trkpt lat="23.165629" lon="108.276615">
<time>2015-09-27T13:28:47Z</time></trkpt>
<trkpt lat="23.165479" lon="108.276345">
<time>2015-09-27T13:28:48Z</time></trkpt>
<trkpt lat="23.165309" lon="108.276096">
<time>2015-09-27T13:28:49Z</time></trkpt>
<trkpt lat="23.16514" lon="108.275836">
<time>2015-09-27T13:28:50Z</time></trkpt>
<trkpt lat="23.16495" lon="108.275566">
<time>2015-09-27T13:28:51Z</time></trkpt>
<trkpt lat="23.16474" lon="108.275297">
<time>2015-09-27T13:28:52Z</time></trkpt>
<trkpt lat="23.164701" lon="108.275237">
<time>2015-09-27T13:28:53Z</time></trkpt>
<trkpt lat="23.164201" lon="108.274537">
<time>2015-09-27T13:28:54Z</time></trkpt>
<trkpt lat="23.164201" lon="108.274537">
<time>2015-09-27T13:28:55Z</time></trkpt>
<trkpt lat="23.164242" lon="108.274427">
<time>2015-09-27T13:28:56Z</time></trkpt>
<trkpt lat="23.164252" lon="108.274377">
<time>2015-09-27T13:28:57Z</time></trkpt>
<trkpt lat="23.164242" lon="108.274318">
<time>2015-09-27T13:28:58Z</time></trkpt>
<trkpt lat="23.164232" lon="108.274258">
<time>2015-09-27T13:28:59Z</time></trkpt>
<trkpt lat="23.164212" lon="108.274168">
<time>2015-09-27T13:29:00Z</time></trkpt>
<trkpt lat="23.164202" lon="108.274138">
<time>2015-09-27T13:29:01Z</time></trkpt>
<trkpt lat="23.164172" lon="108.274088">
<time>2015-09-27T13:29:02Z</time></trkpt>
<trkpt lat="23.163823" lon="108.273508">
<time>2015-09-27T13:29:03Z</time></trkpt>
<trkpt lat="23.163793" lon="108.273458">
<time>2015-09-27T13:29:04Z</time></trkpt>
<trkpt lat="23.163773" lon="108.273408">
<time>2015-09-27T13:29:05Z</time></trkpt>
<trkpt lat="23.163763" lon="108.273368">
<time>2015-09-27T13:29:06Z</time></trkpt>
<trkpt lat="23.163723" lon="108.273229">
<time>2015-09-27T13:29:07Z</time></trkpt>
<trkpt lat="23.163643" lon="108.272949">
<time>2015-09-27T13:29:08Z</time></trkpt>
<trkpt lat="23.163593" lon="108.272789">
<time>2015-09-27T13:29:09Z</time></trkpt>
<trkpt lat="23.163524" lon="108.272619">
<time>2015-09-27T13:29:10Z</time></trkpt>
<trkpt lat="23.163404" lon="108.272339">
<time>2015-09-27T13:29:11Z</time></trkpt>
<trkpt lat="23.163404" lon="108.272329">
<time>2015-09-27T13:29:12Z</time></trkpt>
<trkpt lat="23.163354" lon="108.2722">
<time>2015-09-27T13:29:13Z</time></trkpt>
<trkpt lat="23.163284" lon="108.27195">
<time>2015-09-27T13:29:14Z</time></trkpt>
<trkpt lat="23.163235" lon="108.27176">
<time>2015-09-27T13:29:15Z</time></trkpt>
<trkpt lat="23.163185" lon="108.27161">
<time>2015-09-27T13:29:16Z</time></trkpt>
<trkpt lat="23.163125" lon="108.27141">
<time>2015-09-27T13:29:17Z</time></trkpt>
<trkpt lat="23.163085" lon="108.27125">
<time>2015-09-27T13:29:18Z</time></trkpt>
<trkpt lat="23.163065" lon="108.27113">
<time>2015-09-27T13:29:19Z</time></trkpt>
<trkpt lat="23.163055" lon="108.271011">
<time>2015-09-27T13:29:20Z</time></trkpt>
<trkpt lat="23.163055" lon="108.270901">
<time>2015-09-27T13:29:21Z</time></trkpt>
<trkpt lat="23.163066" lon="108.270721">
<time>2015-09-27T13:29:22Z</time></trkpt>
<trkpt lat="23.163096" lon="108.270551">
<time>2015-09-27T13:29:23Z</time></trkpt>
<trkpt lat="23.163186" lon="108.270211">
<time>2015-09-27T13:29:24Z</time></trkpt>
<trkpt lat="23.163216" lon="108.270041">
<time>2015-09-27T13:29:25Z</time></trkpt>
<trkpt lat="23.163216" lon="108.270041">
<time>2015-09-27T13:29:26Z</time></trkpt>
<trkpt lat="23.161327" lon="108.269742">
<time>2015-09-27T13:29:27Z</time></trkpt>
<trkpt lat="23.159928" lon="108.269532">
<time>2015-09-27T13:29:28Z</time></trkpt>
<trkpt lat="23.158349" lon="108.269272">
<time>2015-09-27T13:29:29Z</time></trkpt>
<trkpt lat="23.158349" lon="108.269272">
<time>2015-09-27T13:29:30Z</time></trkpt>
<trkpt lat="23.158679" lon="108.268812">
<time>2015-09-27T13:29:31Z</time></trkpt>
<trkpt lat="23.159219" lon="108.268053">
<time>2015-09-27T13:29:32Z</time></trkpt>
<trkpt lat="23.159309" lon="108.267913">
<time>2015-09-27T13:29:33Z</time></trkpt>
<trkpt lat="23.15937" lon="108.267793">
<time>2015-09-27T13:29:34Z</time></trkpt>
<trkpt lat="23.15938" lon="108.267763">
<time>2015-09-27T13:29:35Z</time></trkpt>
<trkpt lat="23.1594" lon="108.267673">
<time>2015-09-27T13:29:36Z</time></trkpt>
<trkpt lat="23.15944" lon="108.267543">
<time>2015-09-27T13:29:37Z</time></trkpt>
<trkpt lat="23.15945" lon="108.267393">
<time>2015-09-27T13:29:38Z</time></trkpt>
<trkpt lat="23.15946" lon="108.267244">
<time>2015-09-27T13:29:39Z</time></trkpt>
<trkpt lat="23.15945" lon="108.267104">
<time>2015-09-27T13:29:40Z</time></trkpt>
<trkpt lat="23.15944" lon="108.266964">
<time>2015-09-27T13:29:41Z</time></trkpt>
<trkpt lat="23.15941" lon="108.266814">
<time>2015-09-27T13:29:42Z</time></trkpt>
<trkpt lat="23.15936" lon="108.266634">
<time>2015-09-27T13:29:43Z</time></trkpt>
<trkpt lat="23.159261" lon="108.266374">
<time>2015-09-27T13:29:44Z</time></trkpt>
<trkpt lat="23.159101" lon="108.265994">
<time>2015-09-27T13:29:45Z</time></trkpt>
<trkpt lat="23.158832" lon="108.265355">
<time>2015-09-27T13:29:46Z</time></trkpt>
<trkpt lat="23.158123" lon="108.263736">
<time>2015-09-27T13:29:47Z</time></trkpt>
<trkpt lat="23.157734" lon="108.262856">
<time>2015-09-27T13:29:48Z</time></trkpt>
<trkpt lat="23.157434" lon="108.262217">
<time>2015-09-27T13:29:49Z</time></trkpt>
<trkpt lat="23.157155" lon="108.261557">
<time>2015-09-27T13:29:50Z</time></trkpt>
<trkpt lat="23.157155" lon="108.261557">
<time>2015-09-27T13:29:51Z</time></trkpt>
<trkpt lat="23.157135" lon="108.261487">
<time>2015-09-27T13:29:52Z</time></trkpt>
<trkpt lat="23.157095" lon="108.261437">
<time>2015-09-27T13:29:53Z</time></trkpt>
<trkpt lat="23.157095" lon="108.261437">
<time>2015-09-27T13:29:54Z</time></trkpt>
<trkpt lat="23.157225" lon="108.260577">
<time>2015-09-27T13:29:55Z</time></trkpt>
<trkpt lat="23.157446" lon="108.259478">
<time>2015-09-27T13:29:56Z</time></trkpt>
<trkpt lat="23.157536" lon="108.259078">
<time>2015-09-27T13:29:57Z</time></trkpt>
<trkpt lat="23.157736" lon="108.258178">
<time>2015-09-27T13:29:58Z</time></trkpt>
<trkpt lat="23.158047" lon="108.256769">
<time>2015-09-27T13:29:59Z</time></trkpt>
<trkpt lat="23.158207" lon="108.255809">
<time>2015-09-27T13:30:00Z</time></trkpt>
<trkpt lat="23.158397" lon="108.254759">
<time>2015-09-27T13:30:01Z</time></trkpt>
<trkpt lat="23.158538" lon="108.253789">
<time>2015-09-27T13:30:02Z</time></trkpt>
<trkpt lat="23.158668" lon="108.252889">
<time>2015-09-27T13:30:03Z</time></trkpt>
<trkpt lat="23.158698" lon="108.252659">
<time>2015-09-27T13:30:04Z</time></trkpt>
<trkpt lat="23.159038" lon="108.250549">
<time>2015-09-27T13:30:05Z</time></trkpt>
<trkpt lat="23.159128" lon="108.249999">
<time>2015-09-27T13:30:06Z</time></trkpt>
<trkpt lat="23.159188" lon="108.249649">
<time>2015-09-27T13:30:07Z</time></trkpt>
<trkpt lat="23.159288" lon="108.249199">
<time>2015-09-27T13:30:08Z</time></trkpt>
<trkpt lat="23.159298" lon="108.249139">
<time>2015-09-27T13:30:09Z</time></trkpt>
<trkpt lat="23.159318" lon="108.249039">
<time>2015-09-27T13:30:10Z</time></trkpt>
<trkpt lat="23.159368" lon="108.248829">
<time>2015-09-27T13:30:11Z</time></trkpt>
<trkpt lat="23.159398" lon="108.248709">
<time>2015-09-27T13:30:12Z</time></trkpt>
<trkpt lat="23.159498" lon="108.248369">
<time>2015-09-27T13:30:13Z</time></trkpt>
<trkpt lat="23.159658" lon="108.247889">
<time>2015-09-27T13:30:14Z</time></trkpt>
<trkpt lat="23.159848" lon="108.247369">
<time>2015-09-27T13:30:15Z</time></trkpt>
<trkpt lat="23.159888" lon="108.247259">
<time>2015-09-27T13:30:16Z</time></trkpt>
<trkpt lat="23.159988" lon="108.247039">
<time>2015-09-27T13:30:17Z</time></trkpt>
<trkpt lat="23.160018" lon="108.246949">
<time>2015-09-27T13:30:18Z</time></trkpt>
<trkpt lat="23.160048" lon="108.246889">
<time>2015-09-27T13:30:19Z</time></trkpt>
<trkpt lat="23.160068" lon="108.246839">
<time>2015-09-27T13:30:20Z</time></trkpt>
<trkpt lat="23.160178" lon="108.246599">
<time>2015-09-27T13:30:21Z</time></trkpt>
<trkpt lat="23.160378" lon="108.246119">
<time>2015-09-27T13:30:22Z</time></trkpt>
<trkpt lat="23.160598" lon="108.245609">
<time>2015-09-27T13:30:23Z</time></trkpt>
<trkpt lat="23.160608" lon="108.245569">
<time>2015-09-27T13:30:24Z</time></trkpt>
<trkpt lat="23.160738" lon="108.245269">
<time>2015-09-27T13:30:25Z</time></trkpt>
<trkpt lat="23.161128" lon="108.244358">
<time>2015-09-27T13:30:26Z</time></trkpt>
<trkpt lat="23.161248" lon="108.244078">
<time>2015-09-27T13:30:27Z</time></trkpt>
<trkpt lat="23.161588" lon="108.243218">
<time>2015-09-27T13:30:28Z</time></trkpt>
<trkpt lat="23.161837" lon="108.242538">
<time>2015-09-27T13:30:29Z</time></trkpt>
<trkpt lat="23.161907" lon="108.242338">
<time>2015-09-27T13:30:30Z</time></trkpt>
<trkpt lat="23.161907" lon="108.242338">
<time>2015-09-27T13:30:31Z</time></trkpt>
<trkpt lat="23.161927" lon="108.242288">
<time>2015-09-27T13:30:32Z</time></trkpt>
<trkpt lat="23.162007" lon="108.242058">
<time>2015-09-27T13:30:33Z</time></trkpt>
<trkpt lat="23.162237" lon="108.241417">
<time>2015-09-27T13:30:34Z</time></trkpt>
<trkpt lat="23.162617" lon="108.240167">
<time>2015-09-27T13:30:35Z</time></trkpt>
<trkpt lat="23.162836" lon="108.239467">
<time>2015-09-27T13:30:36Z</time></trkpt>
<trkpt lat="23.163146" lon="108.238446">
<time>2015-09-27T13:30:37Z</time></trkpt>
<trkpt lat="23.163466" lon="108.237345">
<time>2015-09-27T13:30:38Z</time></trkpt>
<trkpt lat="23.163476" lon="108.237305">
<time>2015-09-27T13:30:39Z</time></trkpt>
<trkpt lat="23.164095" lon="108.235104">
<time>2015-09-27T13:30:40Z</time></trkpt>
<trkpt lat="23.164534" lon="108.233563">
<time>2015-09-27T13:30:41Z</time></trkpt>
<trkpt lat="23.165093" lon="108.231582">
<time>2015-09-27T13:30:42Z</time></trkpt>
<trkpt lat="23.165621" lon="108.22983">
<time>2015-09-27T13:30:43Z</time></trkpt>
<trkpt lat="23.165781" lon="108.22939">
<time>2015-09-27T13:30:44Z</time></trkpt>
<trkpt lat="23.165931" lon="108.228989">
<time>2015-09-27T13:30:45Z</time></trkpt>
<trkpt lat="23.16607" lon="108.228679">
<time>2015-09-27T13:30:46Z</time></trkpt>
<trkpt lat="23.16623" lon="108.228289">
<time>2015-09-27T13:30:47Z</time></trkpt>
<trkpt lat="23.16645" lon="108.227868">
<time>2015-09-27T13:30:48Z</time></trkpt>
<trkpt lat="23.166669" lon="108.227438">
<time>2015-09-27T13:30:49Z</time></trkpt>
<trkpt lat="23.167019" lon="108.226797">
<time>2015-09-27T13:30:50Z</time></trkpt>
<trkpt lat="23.167159" lon="108.226577">
<time>2015-09-27T13:30:51Z</time></trkpt>
<trkpt lat="23.167288" lon="108.226367">
<time>2015-09-27T13:30:52Z</time></trkpt>
<trkpt lat="23.167458" lon="108.226117">
<time>2015-09-27T13:30:53Z</time></trkpt>
<trkpt lat="23.167748" lon="108.225746">
<time>2015-09-27T13:30:54Z</time></trkpt>
<trkpt lat="23.167908" lon="108.225536">
<time>2015-09-27T13:30:55Z</time></trkpt>
<trkpt lat="23.168077" lon="108.225336">
<time>2015-09-27T13:30:56Z</time></trkpt>
<trkpt lat="23.168257" lon="108.225135">
<time>2015-09-27T13:30:57Z</time></trkpt>
<trkpt lat="23.168417" lon="108.224965">
<time>2015-09-27T13:30:58Z</time></trkpt>
<trkpt lat="23.169576" lon="108.223724">
<time>2015-09-27T13:30:59Z</time></trkpt>
<trkpt lat="23.171883" lon="108.221361">
<time>2015-09-27T13:31:00Z</time></trkpt>
<trkpt lat="23.17394" lon="108.219238">
<time>2015-09-27T13:31:01Z</time></trkpt>
<trkpt lat="23.174619" lon="108.218497">
<time>2015-09-27T13:31:02Z</time></trkpt>
<trkpt lat="23.174918" lon="108.218157">
<time>2015-09-27T13:31:03Z</time></trkpt>
<trkpt lat="23.175188" lon="108.217847">
<time>2015-09-27T13:31:04Z</time></trkpt>
<trkpt lat="23.175707" lon="108.217176">
<time>2015-09-27T13:31:05Z</time></trkpt>
<trkpt lat="23.176096" lon="108.216615">
<time>2015-09-27T13:31:06Z</time></trkpt>
<trkpt lat="23.176506" lon="108.215954">
<time>2015-09-27T13:31:07Z</time></trkpt>
<trkpt lat="23.176855" lon="108.215333">
<time>2015-09-27T13:31:08Z</time></trkpt>
<trkpt lat="23.177264" lon="108.214572">
<time>2015-09-27T13:31:09Z</time></trkpt>
<trkpt lat="23.178241" lon="108.212569">
<time>2015-09-27T13:31:10Z</time></trkpt>
<trkpt lat="23.179737" lon="108.209384">
<time>2015-09-27T13:31:11Z</time></trkpt>
<trkpt lat="23.181641" lon="108.205327">
<time>2015-09-27T13:31:12Z</time></trkpt>
<trkpt lat="23.181671" lon="108.205277">
<time>2015-09-27T13:31:13Z</time></trkpt>
<trkpt lat="23.1818" lon="108.204997">
<time>2015-09-27T13:31:14Z</time></trkpt>
<trkpt lat="23.182647" lon="108.203243">
<time>2015-09-27T13:31:15Z</time></trkpt>
<trkpt lat="23.183295" lon="108.201911">
<time>2015-09-27T13:31:16Z</time></trkpt>
<trkpt lat="23.183644" lon="108.20119">
<time>2015-09-27T13:31:17Z</time></trkpt>
<trkpt lat="23.184511" lon="108.199677">
<time>2015-09-27T13:31:18Z</time></trkpt>
<trkpt lat="23.184811" lon="108.199156">
<time>2015-09-27T13:31:19Z</time></trkpt>
<trkpt lat="23.185847" lon="108.197352">
<time>2015-09-27T13:31:20Z</time></trkpt>
<trkpt lat="23.186007" lon="108.197082">
<time>2015-09-27T13:31:21Z</time></trkpt>
<trkpt lat="23.187124" lon="108.195288">
<time>2015-09-27T13:31:22Z</time></trkpt>
<trkpt lat="23.187154" lon="108.195238">
<time>2015-09-27T13:31:23Z</time></trkpt>
<trkpt lat="23.187602" lon="108.194527">
<time>2015-09-27T13:31:24Z</time></trkpt>
<trkpt lat="23.18834" lon="108.193174">
<time>2015-09-27T13:31:25Z</time></trkpt>
<trkpt lat="23.18836" lon="108.193134">
<time>2015-09-27T13:31:26Z</time></trkpt>
<trkpt lat="23.189047" lon="108.191881">
<time>2015-09-27T13:31:27Z</time></trkpt>
<trkpt lat="23.190711" lon="108.188494">
<time>2015-09-27T13:31:28Z</time></trkpt>
<trkpt lat="23.192454" lon="108.184616">
<time>2015-09-27T13:31:29Z</time></trkpt>
<trkpt lat="23.192483" lon="108.184556">
<time>2015-09-27T13:31:30Z</time></trkpt>
<trkpt lat="23.193927" lon="108.181329">
<time>2015-09-27T13:31:31Z</time></trkpt>
<trkpt lat="23.194743" lon="108.179404">
<time>2015-09-27T13:31:32Z</time></trkpt>
<trkpt lat="23.194883" lon="108.179083">
<time>2015-09-27T13:31:33Z</time></trkpt>
<trkpt lat="23.195012" lon="108.178753">
<time>2015-09-27T13:31:34Z</time></trkpt>
<trkpt lat="23.195181" lon="108.178292">
<time>2015-09-27T13:31:35Z</time></trkpt>
<trkpt lat="23.195201" lon="108.178242">
<time>2015-09-27T13:31:36Z</time></trkpt>
<trkpt lat="23.19535" lon="108.177861">
<time>2015-09-27T13:31:37Z</time></trkpt>
<trkpt lat="23.1954" lon="108.17772">
<time>2015-09-27T13:31:38Z</time></trkpt>
<trkpt lat="23.195688" lon="108.176959">
<time>2015-09-27T13:31:39Z</time></trkpt>
<trkpt lat="23.195838" lon="108.176568">
<time>2015-09-27T13:31:40Z</time></trkpt>
<trkpt lat="23.196384" lon="108.174914">
<time>2015-09-27T13:31:41Z</time></trkpt>
<trkpt lat="23.196494" lon="108.174553">
<time>2015-09-27T13:31:42Z</time></trkpt>
<trkpt lat="23.196881" lon="108.1733">
<time>2015-09-27T13:31:43Z</time></trkpt>
<trkpt lat="23.197229" lon="108.172047">
<time>2015-09-27T13:31:44Z</time></trkpt>
<trkpt lat="23.197368" lon="108.171566">
<time>2015-09-27T13:31:45Z</time></trkpt>
<trkpt lat="23.197487" lon="108.171135">
<time>2015-09-27T13:31:46Z</time></trkpt>
<trkpt lat="23.197606" lon="108.170744">
<time>2015-09-27T13:31:47Z</time></trkpt>
<trkpt lat="23.197765" lon="108.170193">
<time>2015-09-27T13:31:48Z</time></trkpt>
<trkpt lat="23.198311" lon="108.168379">
<time>2015-09-27T13:31:49Z</time></trkpt>
<trkpt lat="23.198689" lon="108.167096">
<time>2015-09-27T13:31:50Z</time></trkpt>
<trkpt lat="23.198967" lon="108.166174">
<time>2015-09-27T13:31:51Z</time></trkpt>
<trkpt lat="23.199176" lon="108.165532">
<time>2015-09-27T13:31:52Z</time></trkpt>
<trkpt lat="23.199285" lon="108.165272">
<time>2015-09-27T13:31:53Z</time></trkpt>
<trkpt lat="23.199385" lon="108.165041">
<time>2015-09-27T13:31:54Z</time></trkpt>
<trkpt lat="23.199484" lon="108.164861">
<time>2015-09-27T13:31:55Z</time></trkpt>
<trkpt lat="23.199574" lon="108.16469">
<time>2015-09-27T13:31:56Z</time></trkpt>
<trkpt lat="23.199783" lon="108.16435">
<time>2015-09-27T13:31:57Z</time></trkpt>
<trkpt lat="23.199853" lon="108.164229">
<time>2015-09-27T13:31:58Z</time></trkpt>
<trkpt lat="23.200002" lon="108.163989">
<time>2015-09-27T13:31:59Z</time></trkpt>
<trkpt lat="23.200252" lon="108.163618">
<time>2015-09-27T13:32:00Z</time></trkpt>
<trkpt lat="23.200521" lon="108.163237">
<time>2015-09-27T13:32:01Z</time></trkpt>
<trkpt lat="23.200521" lon="108.163227">
<time>2015-09-27T13:32:02Z</time></trkpt>
<trkpt lat="23.20082" lon="108.162806">
<time>2015-09-27T13:32:03Z</time></trkpt>
<trkpt lat="23.201378" lon="108.161964">
<time>2015-09-27T13:32:04Z</time></trkpt>
<trkpt lat="23.201956" lon="108.161102">
<time>2015-09-27T13:32:05Z</time></trkpt>
<trkpt lat="23.202764" lon="108.159899">
<time>2015-09-27T13:32:06Z</time></trkpt>
<trkpt lat="23.202784" lon="108.159869">
<time>2015-09-27T13:32:07Z</time></trkpt>
<trkpt lat="23.203711" lon="108.158476">
<time>2015-09-27T13:32:08Z</time></trkpt>
<trkpt lat="23.204179" lon="108.157764">
<time>2015-09-27T13:32:09Z</time></trkpt>
<trkpt lat="23.204209" lon="108.157714">
<time>2015-09-27T13:32:10Z</time></trkpt>
<trkpt lat="23.204548" lon="108.157203">
<time>2015-09-27T13:32:11Z</time></trkpt>
<trkpt lat="23.204668" lon="108.157033">
<time>2015-09-27T13:32:12Z</time></trkpt>
<trkpt lat="23.206053" lon="108.154928">
<time>2015-09-27T13:32:13Z</time></trkpt>
<trkpt lat="23.206472" lon="108.154316">
<time>2015-09-27T13:32:14Z</time></trkpt>
<trkpt lat="23.20722" lon="108.153184">
<time>2015-09-27T13:32:15Z</time></trkpt>
<trkpt lat="23.208855" lon="108.150778">
<time>2015-09-27T13:32:16Z</time></trkpt>
<trkpt lat="23.209812" lon="108.149355">
<time>2015-09-27T13:32:17Z</time></trkpt>
<trkpt lat="23.21065" lon="108.148123">
<time>2015-09-27T13:32:18Z</time></trkpt>
<trkpt lat="23.210999" lon="108.147601">
<time>2015-09-27T13:32:19Z</time></trkpt>
<trkpt lat="23.211039" lon="108.147551">
<time>2015-09-27T13:32:20Z</time></trkpt>
<trkpt lat="23.211408" lon="108.14701">
<time>2015-09-27T13:32:21Z</time></trkpt>
<trkpt lat="23.213172" lon="108.144405">
<time>2015-09-27T13:32:22Z</time></trkpt>
<trkpt lat="23.215117" lon="108.141489">
<time>2015-09-27T13:32:23Z</time></trkpt>
<trkpt lat="23.215496" lon="108.140917">
<time>2015-09-27T13:32:24Z</time></trkpt>
<trkpt lat="23.215566" lon="108.140757">
<time>2015-09-27T13:32:25Z</time></trkpt>
<trkpt lat="23.215725" lon="108.140517">
<time>2015-09-27T13:32:26Z</time></trkpt>
<trkpt lat="23.216174" lon="108.139875">
<time>2015-09-27T13:32:27Z</time></trkpt>
<trkpt lat="23.217451" lon="108.138032">
<time>2015-09-27T13:32:28Z</time></trkpt>
<trkpt lat="23.218578" lon="108.136408">
<time>2015-09-27T13:32:29Z</time></trkpt>
<trkpt lat="23.219197" lon="108.135727">
<time>2015-09-27T13:32:30Z</time></trkpt>
<trkpt lat="23.220175" lon="108.134775">
<time>2015-09-27T13:32:31Z</time></trkpt>
<trkpt lat="23.220514" lon="108.134314">
<time>2015-09-27T13:32:32Z</time></trkpt>
<trkpt lat="23.220753" lon="108.133803">
<time>2015-09-27T13:32:33Z</time></trkpt>
<trkpt lat="23.22161" lon="108.131389">
<time>2015-09-27T13:32:34Z</time></trkpt>
<trkpt lat="23.223223" lon="108.126891">
<time>2015-09-27T13:32:35Z</time></trkpt>
<trkpt lat="23.223731" lon="108.125449">
<time>2015-09-27T13:32:36Z</time></trkpt>
<trkpt lat="23.223891" lon="108.125008">
<time>2015-09-27T13:32:37Z</time></trkpt>
<trkpt lat="23.22396" lon="108.124848">
<time>2015-09-27T13:32:38Z</time></trkpt>
<trkpt lat="23.225745" lon="108.120201">
<time>2015-09-27T13:32:39Z</time></trkpt>
<trkpt lat="23.226044" lon="108.11942">
<time>2015-09-27T13:32:40Z</time></trkpt>
<trkpt lat="23.230413" lon="108.108086">
<time>2015-09-27T13:32:41Z</time></trkpt>
<trkpt lat="23.231152" lon="108.106165">
<time>2015-09-27T13:32:42Z</time></trkpt>
<trkpt lat="23.23234" lon="108.103092">
<time>2015-09-27T13:32:43Z</time></trkpt>
<trkpt lat="23.233818" lon="108.09922">
<time>2015-09-27T13:32:44Z</time></trkpt>
<trkpt lat="23.235217" lon="108.096408">
<time>2015-09-27T13:32:45Z</time></trkpt>
<trkpt lat="23.236737" lon="108.093267">
<time>2015-09-27T13:32:46Z</time></trkpt>
<trkpt lat="23.238207" lon="108.090206">
<time>2015-09-27T13:32:47Z</time></trkpt>
<trkpt lat="23.238957" lon="108.088976">
<time>2015-09-27T13:32:48Z</time></trkpt>
<trkpt lat="23.239747" lon="108.087656">
<time>2015-09-27T13:32:49Z</time></trkpt>
<trkpt lat="23.240407" lon="108.085456">
<time>2015-09-27T13:32:50Z</time></trkpt>
<trkpt lat="23.240618" lon="108.083897">
<time>2015-09-27T13:32:51Z</time></trkpt>
<trkpt lat="23.240919" lon="108.081647">
<time>2015-09-27T13:32:52Z</time></trkpt>
<trkpt lat="23.24122" lon="108.079428">
<time>2015-09-27T13:32:53Z</time></trkpt>
<trkpt lat="23.241794" lon="108.074241">
<time>2015-09-27T13:32:54Z</time></trkpt>
<trkpt lat="23.242005" lon="108.072752">
<time>2015-09-27T13:32:55Z</time></trkpt>
<trkpt lat="23.242316" lon="108.071473">
<time>2015-09-27T13:32:56Z</time></trkpt>
<trkpt lat="23.242848" lon="108.069534">
<time>2015-09-27T13:32:57Z</time></trkpt>
<trkpt lat="23.243239" lon="108.068345">
<time>2015-09-27T13:32:58Z</time></trkpt>
<trkpt lat="23.24372" lon="108.067386">
<time>2015-09-27T13:32:59Z</time></trkpt>
<trkpt lat="23.244151" lon="108.066607">
<time>2015-09-27T13:33:00Z</time></trkpt>
<trkpt lat="23.245083" lon="108.064919">
<time>2015-09-27T13:33:01Z</time></trkpt>
<trkpt lat="23.246737" lon="108.061662">
<time>2015-09-27T13:33:02Z</time></trkpt>
<trkpt lat="23.247569" lon="108.059815">
<time>2015-09-27T13:33:03Z</time></trkpt>
<trkpt lat="23.248362" lon="108.057747">
<time>2015-09-27T13:33:04Z</time></trkpt>
<trkpt lat="23.248473" lon="108.057328">
<time>2015-09-27T13:33:05Z</time></trkpt>
<trkpt lat="23.249036" lon="108.055111">
<time>2015-09-27T13:33:06Z</time></trkpt>
<trkpt lat="23.249993" lon="108.051377">
<time>2015-09-27T13:33:07Z</time></trkpt>
<trkpt lat="23.251132" lon="108.046626">
<time>2015-09-27T13:33:08Z</time></trkpt>
<trkpt lat="23.252039" lon="108.042973">
<time>2015-09-27T13:33:09Z</time></trkpt>
<trkpt lat="23.252684" lon="108.040638">
<time>2015-09-27T13:33:10Z</time></trkpt>
<trkpt lat="23.252694" lon="108.040608">
<time>2015-09-27T13:33:11Z</time></trkpt>
<trkpt lat="23.252845" lon="108.040059">
<time>2015-09-27T13:33:12Z</time></trkpt>
<trkpt lat="23.254115" lon="108.035629">
<time>2015-09-27T13:33:13Z</time></trkpt>
<trkpt lat="23.254932" lon="108.032736">
<time>2015-09-27T13:33:14Z</time></trkpt>
<trkpt lat="23.255457" lon="108.03086">
<time>2015-09-27T13:33:15Z</time></trkpt>
<trkpt lat="23.255527" lon="108.030641">
<time>2015-09-27T13:33:16Z</time></trkpt>
<trkpt lat="23.25584" lon="108.029633">
<time>2015-09-27T13:33:17Z</time></trkpt>
<trkpt lat="23.25595" lon="108.029294">
<time>2015-09-27T13:33:18Z</time></trkpt>
<trkpt lat="23.256283" lon="108.028396">
<time>2015-09-27T13:33:19Z</time></trkpt>
<trkpt lat="23.256615" lon="108.027648">
<time>2015-09-27T13:33:20Z</time></trkpt>
<trkpt lat="23.256836" lon="108.027199">
<time>2015-09-27T13:33:21Z</time></trkpt>
<trkpt lat="23.257097" lon="108.02676">
<time>2015-09-27T13:33:22Z</time></trkpt>
<trkpt lat="23.257428" lon="108.026301">
<time>2015-09-27T13:33:23Z</time></trkpt>
<trkpt lat="23.257638" lon="108.026052">
<time>2015-09-27T13:33:24Z</time></trkpt>
<trkpt lat="23.257829" lon="108.025853">
<time>2015-09-27T13:33:25Z</time></trkpt>
<trkpt lat="23.257929" lon="108.025763">
<time>2015-09-27T13:33:26Z</time></trkpt>
<trkpt lat="23.25814" lon="108.025563">
<time>2015-09-27T13:33:27Z</time></trkpt>
<trkpt lat="23.25839" lon="108.025364">
<time>2015-09-27T13:33:28Z</time></trkpt>
<trkpt lat="23.258741" lon="108.025134">
<time>2015-09-27T13:33:29Z</time></trkpt>
<trkpt lat="23.258761" lon="108.025114">
<time>2015-09-27T13:33:30Z</time></trkpt>
<trkpt lat="23.259371" lon="108.024785">
<time>2015-09-27T13:33:31Z</time></trkpt>
<trkpt lat="23.259922" lon="108.024506">
<time>2015-09-27T13:33:32Z</time></trkpt>
<trkpt lat="23.260713" lon="108.024087">
<time>2015-09-27T13:33:33Z</time></trkpt>
<trkpt lat="23.260903" lon="108.023997">
<time>2015-09-27T13:33:34Z</time></trkpt>
<trkpt lat="23.260983" lon="108.023957">
<time>2015-09-27T13:33:35Z</time></trkpt>
<trkpt lat="23.261083" lon="108.023927">
<time>2015-09-27T13:33:36Z</time></trkpt>
<trkpt lat="23.261183" lon="108.023907">
<time>2015-09-27T13:33:37Z</time></trkpt>
<trkpt lat="23.261213" lon="108.023897">
<time>2015-09-27T13:33:38Z</time></trkpt>
<trkpt lat="23.261343" lon="108.023897">
<time>2015-09-27T13:33:39Z</time></trkpt>
<trkpt lat="23.261403" lon="108.023907">
<time>2015-09-27T13:33:40Z</time></trkpt>
<trkpt lat="23.261473" lon="108.023917">
<time>2015-09-27T13:33:41Z</time></trkpt>
<trkpt lat="23.261533" lon="108.023937">
<time>2015-09-27T13:33:42Z</time></trkpt>
<trkpt lat="23.261593" lon="108.023957">
<time>2015-09-27T13:33:43Z</time></trkpt>
<trkpt lat="23.261753" lon="108.024027">
<time>2015-09-27T13:33:44Z</time></trkpt>
<trkpt lat="23.261992" lon="108.024167">
<time>2015-09-27T13:33:45Z</time></trkpt>
<trkpt lat="23.262511" lon="108.024476">
<time>2015-09-27T13:33:46Z</time></trkpt>
<trkpt lat="23.265006" lon="108.025972">
<time>2015-09-27T13:33:47Z</time></trkpt>
<trkpt lat="23.265356" lon="108.026201">
<time>2015-09-27T13:33:48Z</time></trkpt>
<trkpt lat="23.265735" lon="108.026461">
<time>2015-09-27T13:33:49Z</time></trkpt>
<trkpt lat="23.266503" lon="108.027089">
<time>2015-09-27T13:33:50Z</time></trkpt>
<trkpt lat="23.266543" lon="108.027119">
<time>2015-09-27T13:33:51Z</time></trkpt>
<trkpt lat="23.266832" lon="108.027288">
<time>2015-09-27T13:33:52Z</time></trkpt>
<trkpt lat="23.266952" lon="108.027348">
<time>2015-09-27T13:33:53Z</time></trkpt>
<trkpt lat="23.267062" lon="108.027378">
<time>2015-09-27T13:33:54Z</time></trkpt>
<trkpt lat="23.267332" lon="108.027428">
<time>2015-09-27T13:33:55Z</time></trkpt>
<trkpt lat="23.267682" lon="108.027458">
<time>2015-09-27T13:33:56Z</time></trkpt>
<trkpt lat="23.268181" lon="108.027488">
<time>2015-09-27T13:33:57Z</time></trkpt>
<trkpt lat="23.268641" lon="108.027478">
<time>2015-09-27T13:33:58Z</time></trkpt>
<trkpt lat="23.269151" lon="108.027418">
<time>2015-09-27T13:33:59Z</time></trkpt>
<trkpt lat="23.269791" lon="108.027348">
<time>2015-09-27T13:34:00Z</time></trkpt>
<trkpt lat="23.270271" lon="108.027278">
<time>2015-09-27T13:34:01Z</time></trkpt>
<trkpt lat="23.271181" lon="108.027148">
<time>2015-09-27T13:34:02Z</time></trkpt>
<trkpt lat="23.271431" lon="108.027129">
<time>2015-09-27T13:34:03Z</time></trkpt>
<trkpt lat="23.271651" lon="108.027109">
<time>2015-09-27T13:34:04Z</time></trkpt>
<trkpt lat="23.271911" lon="108.027089">
<time>2015-09-27T13:34:05Z</time></trkpt>
<trkpt lat="23.272241" lon="108.027099">
<time>2015-09-27T13:34:06Z</time></trkpt>
<trkpt lat="23.272661" lon="108.027118">
<time>2015-09-27T13:34:07Z</time></trkpt>
<trkpt lat="23.27388" lon="108.027218">
<time>2015-09-27T13:34:08Z</time></trkpt>
<trkpt lat="23.27495" lon="108.027298">
<time>2015-09-27T13:34:09Z</time></trkpt>
<trkpt lat="23.276929" lon="108.027437">
<time>2015-09-27T13:34:10Z</time></trkpt>
<trkpt lat="23.277619" lon="108.027487">
<time>2015-09-27T13:34:11Z</time></trkpt>
<trkpt lat="23.277939" lon="108.027487">
<time>2015-09-27T13:34:12Z</time></trkpt>
<trkpt lat="23.278219" lon="108.027467">
<time>2015-09-27T13:34:13Z</time></trkpt>
<trkpt lat="23.278549" lon="108.027427">
<time>2015-09-27T13:34:14Z</time></trkpt>
<trkpt lat="23.278919" lon="108.027368">
<time>2015-09-27T13:34:15Z</time></trkpt>
<trkpt lat="23.279279" lon="108.027318">
<time>2015-09-27T13:34:16Z</time></trkpt>
<trkpt lat="23.279589" lon="108.027278">
<time>2015-09-27T13:34:17Z</time></trkpt>
<trkpt lat="23.279909" lon="108.027218">
<time>2015-09-27T13:34:18Z</time></trkpt>
<trkpt lat="23.280169" lon="108.027138">
<time>2015-09-27T13:34:19Z</time></trkpt>
<trkpt lat="23.280779" lon="108.026929">
<time>2015-09-27T13:34:20Z</time></trkpt>
<trkpt lat="23.28201" lon="108.02646">
<time>2015-09-27T13:34:21Z</time></trkpt>
<trkpt lat="23.284092" lon="108.025702">
<time>2015-09-27T13:34:22Z</time></trkpt>
<trkpt lat="23.285012" lon="108.025422">
<time>2015-09-27T13:34:23Z</time></trkpt>
<trkpt lat="23.285802" lon="108.025213">
<time>2015-09-27T13:34:24Z</time></trkpt>
<trkpt lat="23.286042" lon="108.025143">
<time>2015-09-27T13:34:25Z</time></trkpt>
<trkpt lat="23.286263" lon="108.025043">
<time>2015-09-27T13:34:26Z</time></trkpt>
<trkpt lat="23.286493" lon="108.024903">
<time>2015-09-27T13:34:27Z</time></trkpt>
<trkpt lat="23.286783" lon="108.024714">
<time>2015-09-27T13:34:28Z</time></trkpt>
<trkpt lat="23.289288" lon="108.022889">
<time>2015-09-27T13:34:29Z</time></trkpt>
<trkpt lat="23.289899" lon="108.02245">
<time>2015-09-27T13:34:30Z</time></trkpt>
<trkpt lat="23.292093" lon="108.020864">
<time>2015-09-27T13:34:31Z</time></trkpt>
<trkpt lat="23.293475" lon="108.019857">
<time>2015-09-27T13:34:32Z</time></trkpt>
<trkpt lat="23.294858" lon="108.018789">
<time>2015-09-27T13:34:33Z</time></trkpt>
<trkpt lat="23.295609" lon="108.018291">
<time>2015-09-27T13:34:34Z</time></trkpt>
<trkpt lat="23.295909" lon="108.018101">
<time>2015-09-27T13:34:35Z</time></trkpt>
<trkpt lat="23.29612" lon="108.017932">
<time>2015-09-27T13:34:36Z</time></trkpt>
<trkpt lat="23.29634" lon="108.017712">
<time>2015-09-27T13:34:37Z</time></trkpt>
<trkpt lat="23.296561" lon="108.017463">
<time>2015-09-27T13:34:38Z</time></trkpt>
<trkpt lat="23.296962" lon="108.016954">
<time>2015-09-27T13:34:39Z</time></trkpt>
<trkpt lat="23.297996" lon="108.015618">
<time>2015-09-27T13:34:40Z</time></trkpt>
<trkpt lat="23.298518" lon="108.01489">
<time>2015-09-27T13:34:41Z</time></trkpt>
<trkpt lat="23.29901" lon="108.014202">
<time>2015-09-27T13:34:42Z</time></trkpt>
<trkpt lat="23.300104" lon="108.012666">
<time>2015-09-27T13:34:43Z</time></trkpt>
<trkpt lat="23.300616" lon="108.011918">
<time>2015-09-27T13:34:44Z</time></trkpt>
<trkpt lat="23.300957" lon="108.01135">
<time>2015-09-27T13:34:45Z</time></trkpt>
<trkpt lat="23.301199" lon="108.010901">
<time>2015-09-27T13:34:46Z</time></trkpt>
<trkpt lat="23.301299" lon="108.010652">
<time>2015-09-27T13:34:47Z</time></trkpt>
<trkpt lat="23.30139" lon="108.010473">
<time>2015-09-27T13:34:48Z</time></trkpt>
<trkpt lat="23.301531" lon="108.010253">
<time>2015-09-27T13:34:49Z</time></trkpt>
<trkpt lat="23.301912" lon="108.009695">
<time>2015-09-27T13:34:50Z</time></trkpt>
<trkpt lat="23.303086" lon="108.008119">
<time>2015-09-27T13:34:51Z</time></trkpt>
<trkpt lat="23.30391" lon="108.007012">
<time>2015-09-27T13:34:52Z</time></trkpt>
<trkpt lat="23.30393" lon="108.007002">
<time>2015-09-27T13:34:53Z</time></trkpt>
<trkpt lat="23.304652" lon="108.006105">
<time>2015-09-27T13:34:54Z</time></trkpt>
<trkpt lat="23.304933" lon="108.005796">
<time>2015-09-27T13:34:55Z</time></trkpt>
<trkpt lat="23.305103" lon="108.005626">
<time>2015-09-27T13:34:56Z</time></trkpt>
<trkpt lat="23.305274" lon="108.005477">
<time>2015-09-27T13:34:57Z</time></trkpt>
<trkpt lat="23.305524" lon="108.005297">
<time>2015-09-27T13:34:58Z</time></trkpt>
<trkpt lat="23.306325" lon="108.004859">
<time>2015-09-27T13:34:59Z</time></trkpt>
<trkpt lat="23.307127" lon="108.00439">
<time>2015-09-27T13:35:00Z</time></trkpt>
<trkpt lat="23.307727" lon="108.004051">
<time>2015-09-27T13:35:01Z</time></trkpt>
<trkpt lat="23.308288" lon="108.003672">
<time>2015-09-27T13:35:02Z</time></trkpt>
<trkpt lat="23.308799" lon="108.003273">
<time>2015-09-27T13:35:03Z</time></trkpt>
<trkpt lat="23.309481" lon="108.002725">
<time>2015-09-27T13:35:04Z</time></trkpt>
<trkpt lat="23.310233" lon="108.002117">
<time>2015-09-27T13:35:05Z</time></trkpt>
<trkpt lat="23.310463" lon="108.001917">
<time>2015-09-27T13:35:06Z</time></trkpt>
<trkpt lat="23.310714" lon="108.001608">
<time>2015-09-27T13:35:07Z</time></trkpt>
<trkpt lat="23.311969" lon="107.999993">
<time>2015-09-27T13:35:08Z</time></trkpt>
<trkpt lat="23.312832" lon="107.998826">
<time>2015-09-27T13:35:09Z</time></trkpt>
<trkpt lat="23.312892" lon="107.998736">
<time>2015-09-27T13:35:10Z</time></trkpt>
<trkpt lat="23.312922" lon="107.998677">
<time>2015-09-27T13:35:11Z</time></trkpt>
<trkpt lat="23.312963" lon="107.998587">
<time>2015-09-27T13:35:12Z</time></trkpt>
<trkpt lat="23.313013" lon="107.998467">
<time>2015-09-27T13:35:13Z</time></trkpt>
<trkpt lat="23.313073" lon="107.998298">
<time>2015-09-27T13:35:14Z</time></trkpt>
<trkpt lat="23.313114" lon="107.998128">
<time>2015-09-27T13:35:15Z</time></trkpt>
<trkpt lat="23.313175" lon="107.997899">
<time>2015-09-27T13:35:16Z</time></trkpt>
<trkpt lat="23.313913" lon="107.994938">
<time>2015-09-27T13:35:17Z</time></trkpt>
<trkpt lat="23.314894" lon="107.991528">
<time>2015-09-27T13:35:18Z</time></trkpt>
<trkpt lat="23.314964" lon="107.991358">
<time>2015-09-27T13:35:19Z</time></trkpt>
<trkpt lat="23.315024" lon="107.991239">
<time>2015-09-27T13:35:20Z</time></trkpt>
<trkpt lat="23.315065" lon="107.991169">
<time>2015-09-27T13:35:21Z</time></trkpt>
<trkpt lat="23.315105" lon="107.991109">
<time>2015-09-27T13:35:22Z</time></trkpt>
<trkpt lat="23.315145" lon="107.991039">
<time>2015-09-27T13:35:23Z</time></trkpt>
<trkpt lat="23.315235" lon="107.99093">
<time>2015-09-27T13:35:24Z</time></trkpt>
<trkpt lat="23.315316" lon="107.99083">
<time>2015-09-27T13:35:25Z</time></trkpt>
<trkpt lat="23.31693" lon="107.989135">
<time>2015-09-27T13:35:26Z</time></trkpt>
<trkpt lat="23.318003" lon="107.988297">
<time>2015-09-27T13:35:27Z</time></trkpt>
<trkpt lat="23.318163" lon="107.988138">
<time>2015-09-27T13:35:28Z</time></trkpt>
<trkpt lat="23.318313" lon="107.987998">
<time>2015-09-27T13:35:29Z</time></trkpt>
<trkpt lat="23.318464" lon="107.987839">
<time>2015-09-27T13:35:30Z</time></trkpt>
<trkpt lat="23.318594" lon="107.987679">
<time>2015-09-27T13:35:31Z</time></trkpt>
<trkpt lat="23.318935" lon="107.98725">
<time>2015-09-27T13:35:32Z</time></trkpt>
<trkpt lat="23.319216" lon="107.986901">
<time>2015-09-27T13:35:33Z</time></trkpt>
<trkpt lat="23.319719" lon="107.986114">
<time>2015-09-27T13:35:34Z</time></trkpt>
<trkpt lat="23.320995" lon="107.98397">
<time>2015-09-27T13:35:35Z</time></trkpt>
<trkpt lat="23.321537" lon="107.983092">
<time>2015-09-27T13:35:36Z</time></trkpt>
<trkpt lat="23.321668" lon="107.982903">
<time>2015-09-27T13:35:37Z</time></trkpt>
<trkpt lat="23.321778" lon="107.982763">
<time>2015-09-27T13:35:38Z</time></trkpt>
<trkpt lat="23.321858" lon="107.982664">
<time>2015-09-27T13:35:39Z</time></trkpt>
<trkpt lat="23.321969" lon="107.982544">
<time>2015-09-27T13:35:40Z</time></trkpt>
<trkpt lat="23.323332" lon="107.981238">
<time>2015-09-27T13:35:41Z</time></trkpt>
<trkpt lat="23.323423" lon="107.981138">
<time>2015-09-27T13:35:42Z</time></trkpt>
<trkpt lat="23.323493" lon="107.981048">
<time>2015-09-27T13:35:43Z</time></trkpt>
<trkpt lat="23.323563" lon="107.980938">
<time>2015-09-27T13:35:44Z</time></trkpt>
<trkpt lat="23.323624" lon="107.980819">
<time>2015-09-27T13:35:45Z</time></trkpt>
<trkpt lat="23.323654" lon="107.980749">
<time>2015-09-27T13:35:46Z</time></trkpt>
<trkpt lat="23.323674" lon="107.980669">
<time>2015-09-27T13:35:47Z</time></trkpt>
<trkpt lat="23.323704" lon="107.98054">
<time>2015-09-27T13:35:48Z</time></trkpt>
<trkpt lat="23.323867" lon="107.979483">
<time>2015-09-27T13:35:49Z</time></trkpt>
<trkpt lat="23.32398" lon="107.978675">
<time>2015-09-27T13:35:50Z</time></trkpt>
<trkpt lat="23.32402" lon="107.978466">
<time>2015-09-27T13:35:51Z</time></trkpt>
<trkpt lat="23.324071" lon="107.978256">
<time>2015-09-27T13:35:52Z</time></trkpt>
<trkpt lat="23.324142" lon="107.978027">
<time>2015-09-27T13:35:53Z</time></trkpt>
<trkpt lat="23.324313" lon="107.977548">
<time>2015-09-27T13:35:54Z</time></trkpt>
<trkpt lat="23.325259" lon="107.975265">
<time>2015-09-27T13:35:55Z</time></trkpt>
<trkpt lat="23.3253" lon="107.975165">
<time>2015-09-27T13:35:56Z</time></trkpt>
<trkpt lat="23.32535" lon="107.975055">
<time>2015-09-27T13:35:57Z</time></trkpt>
<trkpt lat="23.325561" lon="107.974537">
<time>2015-09-27T13:35:58Z</time></trkpt>
<trkpt lat="23.326387" lon="107.972552">
<time>2015-09-27T13:35:59Z</time></trkpt>
<trkpt lat="23.327081" lon="107.970797">
<time>2015-09-27T13:36:00Z</time></trkpt>
<trkpt lat="23.327152" lon="107.970647">
<time>2015-09-27T13:36:01Z</time></trkpt>
<trkpt lat="23.328188" lon="107.968144">
<time>2015-09-27T13:36:02Z</time></trkpt>
<trkpt lat="23.328692" lon="107.966957">
<time>2015-09-27T13:36:03Z</time></trkpt>
<trkpt lat="23.329155" lon="107.96579">
<time>2015-09-27T13:36:04Z</time></trkpt>
<trkpt lat="23.329396" lon="107.965261">
<time>2015-09-27T13:36:05Z</time></trkpt>
<trkpt lat="23.329456" lon="107.965151">
<time>2015-09-27T13:36:06Z</time></trkpt>
<trkpt lat="23.329526" lon="107.965062">
<time>2015-09-27T13:36:07Z</time></trkpt>
<trkpt lat="23.329587" lon="107.965002">
<time>2015-09-27T13:36:08Z</time></trkpt>
<trkpt lat="23.329637" lon="107.964962">
<time>2015-09-27T13:36:09Z</time></trkpt>
<trkpt lat="23.329717" lon="107.964902">
<time>2015-09-27T13:36:10Z</time></trkpt>
<trkpt lat="23.329777" lon="107.964862">
<time>2015-09-27T13:36:11Z</time></trkpt>
<trkpt lat="23.329847" lon="107.964832">
<time>2015-09-27T13:36:12Z</time></trkpt>
<trkpt lat="23.329927" lon="107.964802">
<time>2015-09-27T13:36:13Z</time></trkpt>
<trkpt lat="23.329987" lon="107.964792">
<time>2015-09-27T13:36:14Z</time></trkpt>
<trkpt lat="23.330037" lon="107.964782">
<time>2015-09-27T13:36:15Z</time></trkpt>
<trkpt lat="23.330097" lon="107.964782">
<time>2015-09-27T13:36:16Z</time></trkpt>
<trkpt lat="23.330157" lon="107.964782">
<time>2015-09-27T13:36:17Z</time></trkpt>
<trkpt lat="23.330267" lon="107.964792">
<time>2015-09-27T13:36:18Z</time></trkpt>
<trkpt lat="23.330397" lon="107.964822">
<time>2015-09-27T13:36:19Z</time></trkpt>
<trkpt lat="23.330447" lon="107.964832">
<time>2015-09-27T13:36:20Z</time></trkpt>
<trkpt lat="23.330507" lon="107.964832">
<time>2015-09-27T13:36:21Z</time></trkpt>
<trkpt lat="23.330557" lon="107.964822">
<time>2015-09-27T13:36:22Z</time></trkpt>
<trkpt lat="23.330597" lon="107.964802">
<time>2015-09-27T13:36:23Z</time></trkpt>
<trkpt lat="23.330637" lon="107.964782">
<time>2015-09-27T13:36:24Z</time></trkpt>
<trkpt lat="23.330657" lon="107.964762">
<time>2015-09-27T13:36:25Z</time></trkpt>
<trkpt lat="23.330697" lon="107.964732">
<time>2015-09-27T13:36:26Z</time></trkpt>
<trkpt lat="23.330737" lon="107.964683">
<time>2015-09-27T13:36:27Z</time></trkpt>
<trkpt lat="23.330757" lon="107.964643">
<time>2015-09-27T13:36:28Z</time></trkpt>
<trkpt lat="23.330948" lon="107.964313">
<time>2015-09-27T13:36:29Z</time></trkpt>
<trkpt lat="23.330978" lon="107.964264">
<time>2015-09-27T13:36:30Z</time></trkpt>
<trkpt lat="23.331008" lon="107.964234">
<time>2015-09-27T13:36:31Z</time></trkpt>
<trkpt lat="23.331048" lon="107.964204">
<time>2015-09-27T13:36:32Z</time></trkpt>
<trkpt lat="23.331088" lon="107.964174">
<time>2015-09-27T13:36:33Z</time></trkpt>
<trkpt lat="23.331409" lon="107.963984">
<time>2015-09-27T13:36:34Z</time></trkpt>
<trkpt lat="23.331469" lon="107.963944">
<time>2015-09-27T13:36:35Z</time></trkpt>
<trkpt lat="23.331519" lon="107.963895">
<time>2015-09-27T13:36:36Z</time></trkpt>
<trkpt lat="23.331569" lon="107.963845">
<time>2015-09-27T13:36:37Z</time></trkpt>
<trkpt lat="23.331589" lon="107.963815">
<time>2015-09-27T13:36:38Z</time></trkpt>
<trkpt lat="23.331619" lon="107.963775">
<time>2015-09-27T13:36:39Z</time></trkpt>
<trkpt lat="23.331659" lon="107.963705">
<time>2015-09-27T13:36:40Z</time></trkpt>
<trkpt lat="23.33167" lon="107.963675">
<time>2015-09-27T13:36:41Z</time></trkpt>
<trkpt lat="23.33169" lon="107.963615">
<time>2015-09-27T13:36:42Z</time></trkpt>
<trkpt lat="23.3317" lon="107.963535">
<time>2015-09-27T13:36:43Z</time></trkpt>
<trkpt lat="23.33172" lon="107.963446">
<time>2015-09-27T13:36:44Z</time></trkpt>
<trkpt lat="23.331721" lon="107.963166">
<time>2015-09-27T13:36:45Z</time></trkpt>
<trkpt lat="23.331731" lon="107.963037">
<time>2015-09-27T13:36:46Z</time></trkpt>
<trkpt lat="23.331752" lon="107.962877">
<time>2015-09-27T13:36:47Z</time></trkpt>
<trkpt lat="23.331772" lon="107.962737">
<time>2015-09-27T13:36:48Z</time></trkpt>
<trkpt lat="23.331802" lon="107.962568">
<time>2015-09-27T13:36:49Z</time></trkpt>
<trkpt lat="23.331833" lon="107.962468">
<time>2015-09-27T13:36:50Z</time></trkpt>
<trkpt lat="23.331873" lon="107.962338">
<time>2015-09-27T13:36:51Z</time></trkpt>
<trkpt lat="23.331913" lon="107.962249">
<time>2015-09-27T13:36:52Z</time></trkpt>
<trkpt lat="23.331953" lon="107.962159">
<time>2015-09-27T13:36:53Z</time></trkpt>
<trkpt lat="23.331994" lon="107.962099">
<time>2015-09-27T13:36:54Z</time></trkpt>
<trkpt lat="23.332024" lon="107.962059">
<time>2015-09-27T13:36:55Z</time></trkpt>
<trkpt lat="23.332094" lon="107.961979">
<time>2015-09-27T13:36:56Z</time></trkpt>
<trkpt lat="23.332324" lon="107.96178">
<time>2015-09-27T13:36:57Z</time></trkpt>
<trkpt lat="23.332374" lon="107.96172">
<time>2015-09-27T13:36:58Z</time></trkpt>
<trkpt lat="23.332425" lon="107.96165">
<time>2015-09-27T13:36:59Z</time></trkpt>
<trkpt lat="23.332465" lon="107.96159">
<time>2015-09-27T13:37:00Z</time></trkpt>
<trkpt lat="23.332495" lon="107.96153">
<time>2015-09-27T13:37:01Z</time></trkpt>
<trkpt lat="23.332515" lon="107.961471">
<time>2015-09-27T13:37:02Z</time></trkpt>
<trkpt lat="23.332525" lon="107.961401">
<time>2015-09-27T13:37:03Z</time></trkpt>
<trkpt lat="23.332535" lon="107.961331">
<time>2015-09-27T13:37:04Z</time></trkpt>
<trkpt lat="23.332546" lon="107.961251">
<time>2015-09-27T13:37:05Z</time></trkpt>
<trkpt lat="23.332546" lon="107.961181">
<time>2015-09-27T13:37:06Z</time></trkpt>
<trkpt lat="23.332536" lon="107.961111">
<time>2015-09-27T13:37:07Z</time></trkpt>
<trkpt lat="23.332526" lon="107.961032">
<time>2015-09-27T13:37:08Z</time></trkpt>
<trkpt lat="23.332506" lon="107.960952">
<time>2015-09-27T13:37:09Z</time></trkpt>
<trkpt lat="23.332248" lon="107.960144">
<time>2015-09-27T13:37:10Z</time></trkpt>
<trkpt lat="23.332239" lon="107.960094">
<time>2015-09-27T13:37:11Z</time></trkpt>
<trkpt lat="23.332229" lon="107.960034">
<time>2015-09-27T13:37:12Z</time></trkpt>
<trkpt lat="23.332229" lon="107.959994">
<time>2015-09-27T13:37:13Z</time></trkpt>
<trkpt lat="23.332219" lon="107.959954">
<time>2015-09-27T13:37:14Z</time></trkpt>
<trkpt lat="23.332219" lon="107.959904">
<time>2015-09-27T13:37:15Z</time></trkpt>
<trkpt lat="23.332219" lon="107.959874">
<time>2015-09-27T13:37:16Z</time></trkpt>
<trkpt lat="23.332229" lon="107.959835">
<time>2015-09-27T13:37:17Z</time></trkpt>
<trkpt lat="23.332239" lon="107.959785">
<time>2015-09-27T13:37:18Z</time></trkpt>
<trkpt lat="23.33225" lon="107.959745">
<time>2015-09-27T13:37:19Z</time></trkpt>
<trkpt lat="23.33227" lon="107.959715">
<time>2015-09-27T13:37:20Z</time></trkpt>
<trkpt lat="23.33229" lon="107.959685">
<time>2015-09-27T13:37:21Z</time></trkpt>
<trkpt lat="23.33231" lon="107.959655">
<time>2015-09-27T13:37:22Z</time></trkpt>
<trkpt lat="23.33234" lon="107.959635">
<time>2015-09-27T13:37:23Z</time></trkpt>
<trkpt lat="23.33257" lon="107.959435">
<time>2015-09-27T13:37:24Z</time></trkpt>
<trkpt lat="23.33263" lon="107.959366">
<time>2015-09-27T13:37:25Z</time></trkpt>
<trkpt lat="23.33267" lon="107.959326">
<time>2015-09-27T13:37:26Z</time></trkpt>
<trkpt lat="23.33268" lon="107.959306">
<time>2015-09-27T13:37:27Z</time></trkpt>
<trkpt lat="23.332701" lon="107.959286">
<time>2015-09-27T13:37:28Z</time></trkpt>
<trkpt lat="23.332731" lon="107.959226">
<time>2015-09-27T13:37:29Z</time></trkpt>
<trkpt lat="23.332851" lon="107.959056">
<time>2015-09-27T13:37:30Z</time></trkpt>
<trkpt lat="23.332871" lon="107.959036">
<time>2015-09-27T13:37:31Z</time></trkpt>
<trkpt lat="23.332931" lon="107.958947">
<time>2015-09-27T13:37:32Z</time></trkpt>
<trkpt lat="23.332971" lon="107.958917">
<time>2015-09-27T13:37:33Z</time></trkpt>
<trkpt lat="23.333011" lon="107.958877">
<time>2015-09-27T13:37:34Z</time></trkpt>
<trkpt lat="23.333072" lon="107.958847">
<time>2015-09-27T13:37:35Z</time></trkpt>
<trkpt lat="23.333092" lon="107.958827">
<time>2015-09-27T13:37:36Z</time></trkpt>
<trkpt lat="23.333132" lon="107.958807">
<time>2015-09-27T13:37:37Z</time></trkpt>
<trkpt lat="23.333182" lon="107.958797">
<time>2015-09-27T13:37:38Z</time></trkpt>
<trkpt lat="23.333322" lon="107.958737">
<time>2015-09-27T13:37:39Z</time></trkpt>
<trkpt lat="23.333732" lon="107.958597">
<time>2015-09-27T13:37:40Z</time></trkpt>
<trkpt lat="23.333852" lon="107.958538">
<time>2015-09-27T13:37:41Z</time></trkpt>
<trkpt lat="23.333942" lon="107.958468">
<time>2015-09-27T13:37:42Z</time></trkpt>
<trkpt lat="23.334012" lon="107.958398">
<time>2015-09-27T13:37:43Z</time></trkpt>
<trkpt lat="23.334083" lon="107.958328">
<time>2015-09-27T13:37:44Z</time></trkpt>
<trkpt lat="23.334183" lon="107.958188">
<time>2015-09-27T13:37:45Z</time></trkpt>
<trkpt lat="23.334333" lon="107.957969">
<time>2015-09-27T13:37:46Z</time></trkpt>
<trkpt lat="23.334404" lon="107.957829">
<time>2015-09-27T13:37:47Z</time></trkpt>
<trkpt lat="23.334454" lon="107.95767">
<time>2015-09-27T13:37:48Z</time></trkpt>
<trkpt lat="23.334525" lon="107.95736">
<time>2015-09-27T13:37:49Z</time></trkpt>
<trkpt lat="23.334576" lon="107.956921">
<time>2015-09-27T13:37:50Z</time></trkpt>
<trkpt lat="23.334617" lon="107.956532">
<time>2015-09-27T13:37:51Z</time></trkpt>
<trkpt lat="23.334688" lon="107.956253">
<time>2015-09-27T13:37:52Z</time></trkpt>
<trkpt lat="23.334758" lon="107.956043">
<time>2015-09-27T13:37:53Z</time></trkpt>
<trkpt lat="23.334778" lon="107.955934">
<time>2015-09-27T13:37:54Z</time></trkpt>
<trkpt lat="23.334789" lon="107.955794">
<time>2015-09-27T13:37:55Z</time></trkpt>
<trkpt lat="23.334769" lon="107.955495">
<time>2015-09-27T13:37:56Z</time></trkpt>
<trkpt lat="23.334779" lon="107.955415">
<time>2015-09-27T13:37:57Z</time></trkpt>
<trkpt lat="23.3348" lon="107.955345">
<time>2015-09-27T13:37:58Z</time></trkpt>
<trkpt lat="23.33483" lon="107.955295">
<time>2015-09-27T13:37:59Z</time></trkpt>
<trkpt lat="23.33488" lon="107.955225">
<time>2015-09-27T13:38:00Z</time></trkpt>
<trkpt lat="23.33493" lon="107.955175">
<time>2015-09-27T13:38:01Z</time></trkpt>
<trkpt lat="23.33503" lon="107.955105">
<time>2015-09-27T13:38:02Z</time></trkpt>
<trkpt lat="23.33518" lon="107.955036">
<time>2015-09-27T13:38:03Z</time></trkpt>
<trkpt lat="23.33524" lon="107.955026">
<time>2015-09-27T13:38:04Z</time></trkpt>
<trkpt lat="23.33531" lon="107.954996">
<time>2015-09-27T13:38:05Z</time></trkpt>
<trkpt lat="23.33539" lon="107.954996">
<time>2015-09-27T13:38:06Z</time></trkpt>
<trkpt lat="23.33567" lon="107.954976">
<time>2015-09-27T13:38:07Z</time></trkpt>
<trkpt lat="23.33578" lon="107.954956">
<time>2015-09-27T13:38:08Z</time></trkpt>
<trkpt lat="23.33588" lon="107.954916">
<time>2015-09-27T13:38:09Z</time></trkpt>
<trkpt lat="23.335981" lon="107.954846">
<time>2015-09-27T13:38:10Z</time></trkpt>
<trkpt lat="23.336051" lon="107.954786">
<time>2015-09-27T13:38:11Z</time></trkpt>
<trkpt lat="23.336111" lon="107.954716">
<time>2015-09-27T13:38:12Z</time></trkpt>
<trkpt lat="23.336161" lon="107.954616">
<time>2015-09-27T13:38:13Z</time></trkpt>
<trkpt lat="23.336191" lon="107.954527">
<time>2015-09-27T13:38:14Z</time></trkpt>
<trkpt lat="23.336201" lon="107.954437">
<time>2015-09-27T13:38:15Z</time></trkpt>
<trkpt lat="23.336222" lon="107.954307">
<time>2015-09-27T13:38:16Z</time></trkpt>
<trkpt lat="23.336222" lon="107.954227">
<time>2015-09-27T13:38:17Z</time></trkpt>
<trkpt lat="23.336212" lon="107.954138">
<time>2015-09-27T13:38:18Z</time></trkpt>
<trkpt lat="23.336193" lon="107.953998">
<time>2015-09-27T13:38:19Z</time></trkpt>
<trkpt lat="23.336173" lon="107.953928">
<time>2015-09-27T13:38:20Z</time></trkpt>
<trkpt lat="23.336143" lon="107.953858">
<time>2015-09-27T13:38:21Z</time></trkpt>
<trkpt lat="23.335814" lon="107.953299">
<time>2015-09-27T13:38:22Z</time></trkpt>
<trkpt lat="23.335784" lon="107.9532">
<time>2015-09-27T13:38:23Z</time></trkpt>
<trkpt lat="23.335765" lon="107.95309">
<time>2015-09-27T13:38:24Z</time></trkpt>
<trkpt lat="23.335775" lon="107.95302">
<time>2015-09-27T13:38:25Z</time></trkpt>
<trkpt lat="23.335795" lon="107.95294">
<time>2015-09-27T13:38:26Z</time></trkpt>
<trkpt lat="23.335906" lon="107.952701">
<time>2015-09-27T13:38:27Z</time></trkpt>
<trkpt lat="23.336237" lon="107.952132">
<time>2015-09-27T13:38:28Z</time></trkpt>
<trkpt lat="23.336337" lon="107.951932">
<time>2015-09-27T13:38:29Z</time></trkpt>
<trkpt lat="23.336418" lon="107.951803">
<time>2015-09-27T13:38:30Z</time></trkpt>
<trkpt lat="23.336518" lon="107.951663">
<time>2015-09-27T13:38:31Z</time></trkpt>
<trkpt lat="23.336608" lon="107.951563">
<time>2015-09-27T13:38:32Z</time></trkpt>
<trkpt lat="23.336748" lon="107.951393">
<time>2015-09-27T13:38:33Z</time></trkpt>
<trkpt lat="23.336969" lon="107.951124">
<time>2015-09-27T13:38:34Z</time></trkpt>
<trkpt lat="23.337089" lon="107.950964">
<time>2015-09-27T13:38:35Z</time></trkpt>
<trkpt lat="23.337119" lon="107.950905">
<time>2015-09-27T13:38:36Z</time></trkpt>
<trkpt lat="23.337149" lon="107.950845">
<time>2015-09-27T13:38:37Z</time></trkpt>
<trkpt lat="23.33717" lon="107.950795">
<time>2015-09-27T13:38:38Z</time></trkpt>
<trkpt lat="23.33718" lon="107.950745">
<time>2015-09-27T13:38:39Z</time></trkpt>
<trkpt lat="23.33718" lon="107.950705">
<time>2015-09-27T13:38:40Z</time></trkpt>
<trkpt lat="23.33718" lon="107.950665">
<time>2015-09-27T13:38:41Z</time></trkpt>
<trkpt lat="23.33717" lon="107.950615">
<time>2015-09-27T13:38:42Z</time></trkpt>
<trkpt lat="23.33716" lon="107.950555">
<time>2015-09-27T13:38:43Z</time></trkpt>
<trkpt lat="23.33713" lon="107.950505">
<time>2015-09-27T13:38:44Z</time></trkpt>
<trkpt lat="23.336981" lon="107.950256">
<time>2015-09-27T13:38:45Z</time></trkpt>
<trkpt lat="23.336931" lon="107.950146">
<time>2015-09-27T13:38:46Z</time></trkpt>
<trkpt lat="23.336891" lon="107.950046">
<time>2015-09-27T13:38:47Z</time></trkpt>
<trkpt lat="23.336871" lon="107.949966">
<time>2015-09-27T13:38:48Z</time></trkpt>
<trkpt lat="23.336862" lon="107.949897">
<time>2015-09-27T13:38:49Z</time></trkpt>
<trkpt lat="23.336862" lon="107.949827">
<time>2015-09-27T13:38:50Z</time></trkpt>
<trkpt lat="23.336882" lon="107.949677">
<time>2015-09-27T13:38:51Z</time></trkpt>
<trkpt lat="23.336922" lon="107.949567">
<time>2015-09-27T13:38:52Z</time></trkpt>
<trkpt lat="23.336953" lon="107.949477">
<time>2015-09-27T13:38:53Z</time></trkpt>
<trkpt lat="23.336983" lon="107.949408">
<time>2015-09-27T13:38:54Z</time></trkpt>
<trkpt lat="23.337013" lon="107.949338">
<time>2015-09-27T13:38:55Z</time></trkpt>
<trkpt lat="23.337053" lon="107.949278">
<time>2015-09-27T13:38:56Z</time></trkpt>
<trkpt lat="23.337123" lon="107.949218">
<time>2015-09-27T13:38:57Z</time></trkpt>
<trkpt lat="23.337434" lon="107.948969">
<time>2015-09-27T13:38:58Z</time></trkpt>
<trkpt lat="23.337464" lon="107.948939">
<time>2015-09-27T13:38:59Z</time></trkpt>
<trkpt lat="23.337494" lon="107.948909">
<time>2015-09-27T13:39:00Z</time></trkpt>
<trkpt lat="23.337604" lon="107.948789">
<time>2015-09-27T13:39:01Z</time></trkpt>
<trkpt lat="23.337714" lon="107.948669">
<time>2015-09-27T13:39:02Z</time></trkpt>
<trkpt lat="23.337834" lon="107.948569">
<time>2015-09-27T13:39:03Z</time></trkpt>
<trkpt lat="23.337924" lon="107.948519">
<time>2015-09-27T13:39:04Z</time></trkpt>
<trkpt lat="23.338024" lon="107.94847">
<time>2015-09-27T13:39:05Z</time></trkpt>
<trkpt lat="23.338155" lon="107.94843">
<time>2015-09-27T13:39:06Z</time></trkpt>
<trkpt lat="23.338255" lon="107.94841">
<time>2015-09-27T13:39:07Z</time></trkpt>
<trkpt lat="23.338385" lon="107.94838">
<time>2015-09-27T13:39:08Z</time></trkpt>
<trkpt lat="23.338755" lon="107.94832">
<time>2015-09-27T13:39:09Z</time></trkpt>
<trkpt lat="23.338935" lon="107.94825">
<time>2015-09-27T13:39:10Z</time></trkpt>
<trkpt lat="23.339105" lon="107.94815">
<time>2015-09-27T13:39:11Z</time></trkpt>
<trkpt lat="23.339205" lon="107.948">
<time>2015-09-27T13:39:12Z</time></trkpt>
<trkpt lat="23.339346" lon="107.947611">
<time>2015-09-27T13:39:13Z</time></trkpt>
<trkpt lat="23.339446" lon="107.947382">
<time>2015-09-27T13:39:14Z</time></trkpt>
<trkpt lat="23.339537" lon="107.947232">
<time>2015-09-27T13:39:15Z</time></trkpt>
<trkpt lat="23.339858" lon="107.946783">
<time>2015-09-27T13:39:16Z</time></trkpt>
<trkpt lat="23.339928" lon="107.946693">
<time>2015-09-27T13:39:17Z</time></trkpt>
<trkpt lat="23.339978" lon="107.946603">
<time>2015-09-27T13:39:18Z</time></trkpt>
<trkpt lat="23.340109" lon="107.946304">
<time>2015-09-27T13:39:19Z</time></trkpt>
<trkpt lat="23.340189" lon="107.946214">
<time>2015-09-27T13:39:20Z</time></trkpt>
<trkpt lat="23.340279" lon="107.946134">
<time>2015-09-27T13:39:21Z</time></trkpt>
<trkpt lat="23.340399" lon="107.946054">
<time>2015-09-27T13:39:22Z</time></trkpt>
<trkpt lat="23.340579" lon="107.945994">
<time>2015-09-27T13:39:23Z</time></trkpt>
<trkpt lat="23.340839" lon="107.945904">
<time>2015-09-27T13:39:24Z</time></trkpt>
<trkpt lat="23.341259" lon="107.945815">
<time>2015-09-27T13:39:25Z</time></trkpt>
<trkpt lat="23.341339" lon="107.945775">
<time>2015-09-27T13:39:26Z</time></trkpt>
<trkpt lat="23.341419" lon="107.945745">
<time>2015-09-27T13:39:27Z</time></trkpt>
<trkpt lat="23.34178" lon="107.945505">
<time>2015-09-27T13:39:29Z</time></trkpt>
<trkpt lat="23.34184" lon="107.945465">
<time>2015-09-27T13:39:30Z</time></trkpt>
<trkpt lat="23.34195" lon="107.945415">
<time>2015-09-27T13:39:31Z</time></trkpt>
<trkpt lat="23.3423" lon="107.945296">
<time>2015-09-27T13:39:32Z</time></trkpt>
<trkpt lat="23.34239" lon="107.945256">
<time>2015-09-27T13:39:33Z</time></trkpt>
<trkpt lat="23.34243" lon="107.945216">
<time>2015-09-27T13:39:34Z</time></trkpt>
<trkpt lat="23.34252" lon="107.945136">
<time>2015-09-27T13:39:35Z</time></trkpt>
<trkpt lat="23.342971" lon="107.944617">
<time>2015-09-27T13:39:36Z</time></trkpt>
<trkpt lat="23.343262" lon="107.944198">
<time>2015-09-27T13:39:37Z</time></trkpt>
<trkpt lat="23.343292" lon="107.944118">
<time>2015-09-27T13:39:38Z</time></trkpt>
<trkpt lat="23.343312" lon="107.944058">
<time>2015-09-27T13:39:39Z</time></trkpt>
<trkpt lat="23.343313" lon="107.944008">
<time>2015-09-27T13:39:40Z</time></trkpt>
<trkpt lat="23.343323" lon="107.943938">
<time>2015-09-27T13:39:41Z</time></trkpt>
<trkpt lat="23.343313" lon="107.943888">
<time>2015-09-27T13:39:42Z</time></trkpt>
<trkpt lat="23.343303" lon="107.943838">
<time>2015-09-27T13:39:43Z</time></trkpt>
<trkpt lat="23.343273" lon="107.943788">
<time>2015-09-27T13:39:44Z</time></trkpt>
<trkpt lat="23.343024" lon="107.943349">
<time>2015-09-27T13:39:45Z</time></trkpt>
<trkpt lat="23.343004" lon="107.943309">
<time>2015-09-27T13:39:46Z</time></trkpt>
<trkpt lat="23.342994" lon="107.943259">
<time>2015-09-27T13:39:47Z</time></trkpt>
<trkpt lat="23.342984" lon="107.943209">
<time>2015-09-27T13:39:48Z</time></trkpt>
<trkpt lat="23.342974" lon="107.943129">
<time>2015-09-27T13:39:49Z</time></trkpt>
<trkpt lat="23.343097" lon="107.941882">
<time>2015-09-27T13:39:50Z</time></trkpt>
<trkpt lat="23.343127" lon="107.941762">
<time>2015-09-27T13:39:51Z</time></trkpt>
<trkpt lat="23.343177" lon="107.941672">
<time>2015-09-27T13:39:52Z</time></trkpt>
<trkpt lat="23.343257" lon="107.941562">
<time>2015-09-27T13:39:53Z</time></trkpt>
<trkpt lat="23.343337" lon="107.941482">
<time>2015-09-27T13:39:54Z</time></trkpt>
<trkpt lat="23.343488" lon="107.941383">
<time>2015-09-27T13:39:55Z</time></trkpt>
<trkpt lat="23.343718" lon="107.941263">
<time>2015-09-27T13:39:56Z</time></trkpt>
<trkpt lat="23.343878" lon="107.941173">
<time>2015-09-27T13:39:57Z</time></trkpt>
<trkpt lat="23.344048" lon="107.941103">
<time>2015-09-27T13:39:58Z</time></trkpt>
<trkpt lat="23.344278" lon="107.941043">
<time>2015-09-27T13:39:59Z</time></trkpt>
<trkpt lat="23.344408" lon="107.941003">
<time>2015-09-27T13:40:00Z</time></trkpt>
<trkpt lat="23.344868" lon="107.940943">
<time>2015-09-27T13:40:01Z</time></trkpt>
<trkpt lat="23.344978" lon="107.940913">
<time>2015-09-27T13:40:02Z</time></trkpt>
<trkpt lat="23.345038" lon="107.940893">
<time>2015-09-27T13:40:03Z</time></trkpt>
<trkpt lat="23.345068" lon="107.940883">
<time>2015-09-27T13:40:04Z</time></trkpt>
<trkpt lat="23.345098" lon="107.940863">
<time>2015-09-27T13:40:05Z</time></trkpt>
<trkpt lat="23.345128" lon="107.940843">
<time>2015-09-27T13:40:06Z</time></trkpt>
<trkpt lat="23.345158" lon="107.940813">
<time>2015-09-27T13:40:07Z</time></trkpt>
<trkpt lat="23.345178" lon="107.940784">
<time>2015-09-27T13:40:08Z</time></trkpt>
<trkpt lat="23.345218" lon="107.940734">
<time>2015-09-27T13:40:09Z</time></trkpt>
<trkpt lat="23.345369" lon="107.940434">
<time>2015-09-27T13:40:10Z</time></trkpt>
<trkpt lat="23.345439" lon="107.940334">
<time>2015-09-27T13:40:11Z</time></trkpt>
<trkpt lat="23.345529" lon="107.940224">
<time>2015-09-27T13:40:12Z</time></trkpt>
<trkpt lat="23.345649" lon="107.940105">
<time>2015-09-27T13:40:13Z</time></trkpt>
<trkpt lat="23.3458" lon="107.939965">
<time>2015-09-27T13:40:14Z</time></trkpt>
<trkpt lat="23.3459" lon="107.939885">
<time>2015-09-27T13:40:15Z</time></trkpt>
<trkpt lat="23.34599" lon="107.939845">
<time>2015-09-27T13:40:16Z</time></trkpt>
<trkpt lat="23.34613" lon="107.939795">
<time>2015-09-27T13:40:17Z</time></trkpt>
<trkpt lat="23.34624" lon="107.939765">
<time>2015-09-27T13:40:18Z</time></trkpt>
<trkpt lat="23.34656" lon="107.939755">
<time>2015-09-27T13:40:19Z</time></trkpt>
<trkpt lat="23.34749" lon="107.939635">
<time>2015-09-27T13:40:20Z</time></trkpt>
<trkpt lat="23.34807" lon="107.939466">
<time>2015-09-27T13:40:21Z</time></trkpt>
<trkpt lat="23.349521" lon="107.938896">
<time>2015-09-27T13:40:22Z</time></trkpt>
<trkpt lat="23.349651" lon="107.938857">
<time>2015-09-27T13:40:23Z</time></trkpt>
<trkpt lat="23.349801" lon="107.938837">
<time>2015-09-27T13:40:24Z</time></trkpt>
<trkpt lat="23.349931" lon="107.938827">
<time>2015-09-27T13:40:25Z</time></trkpt>
<trkpt lat="23.350051" lon="107.938837">
<time>2015-09-27T13:40:26Z</time></trkpt>
<trkpt lat="23.350241" lon="107.938866">
<time>2015-09-27T13:40:27Z</time></trkpt>
<trkpt lat="23.350371" lon="107.938847">
<time>2015-09-27T13:40:28Z</time></trkpt>
<trkpt lat="23.350521" lon="107.938787">
<time>2015-09-27T13:40:29Z</time></trkpt>
<trkpt lat="23.350721" lon="107.938707">
<time>2015-09-27T13:40:30Z</time></trkpt>
<trkpt lat="23.350921" lon="107.938617">
<time>2015-09-27T13:40:31Z</time></trkpt>
<trkpt lat="23.351131" lon="107.938577">
<time>2015-09-27T13:40:32Z</time></trkpt>
<trkpt lat="23.351361" lon="107.938577">
<time>2015-09-27T13:40:33Z</time></trkpt>
<trkpt lat="23.351611" lon="107.938527">
<time>2015-09-27T13:40:34Z</time></trkpt>
<trkpt lat="23.352061" lon="107.938297">
<time>2015-09-27T13:40:35Z</time></trkpt>
<trkpt lat="23.352402" lon="107.938128">
<time>2015-09-27T13:40:36Z</time></trkpt>
<trkpt lat="23.352672" lon="107.937988">
<time>2015-09-27T13:40:37Z</time></trkpt>
<trkpt lat="23.352962" lon="107.937778">
<time>2015-09-27T13:40:38Z</time></trkpt>
<trkpt lat="23.353222" lon="107.937598">
<time>2015-09-27T13:40:39Z</time></trkpt>
<trkpt lat="23.353623" lon="107.937339">
<time>2015-09-27T13:40:40Z</time></trkpt>
<trkpt lat="23.353843" lon="107.937249">
<time>2015-09-27T13:40:41Z</time></trkpt>
<trkpt lat="23.354073" lon="107.937169">
<time>2015-09-27T13:40:42Z</time></trkpt>
<trkpt lat="23.354433" lon="107.937079">
<time>2015-09-27T13:40:43Z</time></trkpt>
<trkpt lat="23.354553" lon="107.937049">
<time>2015-09-27T13:40:44Z</time></trkpt>
<trkpt lat="23.354653" lon="107.937009">
<time>2015-09-27T13:40:45Z</time></trkpt>
<trkpt lat="23.354753" lon="107.936969">
<time>2015-09-27T13:40:46Z</time></trkpt>
<trkpt lat="23.354843" lon="107.936919">
<time>2015-09-27T13:40:47Z</time></trkpt>
<trkpt lat="23.355374" lon="107.93659">
<time>2015-09-27T13:40:48Z</time></trkpt>
<trkpt lat="23.355734" lon="107.93629">
<time>2015-09-27T13:40:49Z</time></trkpt>
<trkpt lat="23.356044" lon="107.936041">
<time>2015-09-27T13:40:50Z</time></trkpt>
<trkpt lat="23.356325" lon="107.935901">
<time>2015-09-27T13:40:51Z</time></trkpt>
<trkpt lat="23.356825" lon="107.935671">
<time>2015-09-27T13:40:52Z</time></trkpt>
<trkpt lat="23.357035" lon="107.935591">
<time>2015-09-27T13:40:53Z</time></trkpt>
<trkpt lat="23.357285" lon="107.935521">
<time>2015-09-27T13:40:54Z</time></trkpt>
<trkpt lat="23.357445" lon="107.935451">
<time>2015-09-27T13:40:55Z</time></trkpt>
<trkpt lat="23.357595" lon="107.935352">
<time>2015-09-27T13:40:56Z</time></trkpt>
<trkpt lat="23.357685" lon="107.935272">
<time>2015-09-27T13:40:57Z</time></trkpt>
<trkpt lat="23.357725" lon="107.935242">
<time>2015-09-27T13:40:58Z</time></trkpt>
<trkpt lat="23.357936" lon="107.935032">
<time>2015-09-27T13:40:59Z</time></trkpt>
<trkpt lat="23.358226" lon="107.934693">
<time>2015-09-27T13:41:00Z</time></trkpt>
<trkpt lat="23.358356" lon="107.934513">
<time>2015-09-27T13:41:01Z</time></trkpt>
<trkpt lat="23.358527" lon="107.934253">
<time>2015-09-27T13:41:02Z</time></trkpt>
<trkpt lat="23.358727" lon="107.933884">
<time>2015-09-27T13:41:03Z</time></trkpt>
<trkpt lat="23.358838" lon="107.933624">
<time>2015-09-27T13:41:04Z</time></trkpt>
<trkpt lat="23.358948" lon="107.933275">
<time>2015-09-27T13:41:05Z</time></trkpt>
<trkpt lat="23.358999" lon="107.933065">
<time>2015-09-27T13:41:06Z</time></trkpt>
<trkpt lat="23.359039" lon="107.932885">
<time>2015-09-27T13:41:07Z</time></trkpt>
<trkpt lat="23.359049" lon="107.932785">
<time>2015-09-27T13:41:08Z</time></trkpt>
<trkpt lat="23.359059" lon="107.932695">
<time>2015-09-27T13:41:09Z</time></trkpt>
<trkpt lat="23.359059" lon="107.932635">
<time>2015-09-27T13:41:10Z</time></trkpt>
<trkpt lat="23.359059" lon="107.932585">
<time>2015-09-27T13:41:11Z</time></trkpt>
<trkpt lat="23.359059" lon="107.932546">
<time>2015-09-27T13:41:12Z</time></trkpt>
<trkpt lat="23.359049" lon="107.932506">
<time>2015-09-27T13:41:13Z</time></trkpt>
<trkpt lat="23.359039" lon="107.932476">
<time>2015-09-27T13:41:14Z</time></trkpt>
<trkpt lat="23.35902" lon="107.932426">
<time>2015-09-27T13:41:15Z</time></trkpt>
<trkpt lat="23.359" lon="107.932396">
<time>2015-09-27T13:41:16Z</time></trkpt>
<trkpt lat="23.35897" lon="107.932366">
<time>2015-09-27T13:41:17Z</time></trkpt>
<trkpt lat="23.35892" lon="107.932306">
<time>2015-09-27T13:41:18Z</time></trkpt>
<trkpt lat="23.35887" lon="107.932266">
<time>2015-09-27T13:41:19Z</time></trkpt>
<trkpt lat="23.35861" lon="107.932076">
<time>2015-09-27T13:41:20Z</time></trkpt>
<trkpt lat="23.35856" lon="107.932046">
<time>2015-09-27T13:41:21Z</time></trkpt>
<trkpt lat="23.35853" lon="107.932006">
<time>2015-09-27T13:41:22Z</time></trkpt>
<trkpt lat="23.35848" lon="107.931946">
<time>2015-09-27T13:41:23Z</time></trkpt>
<trkpt lat="23.35845" lon="107.931876">
<time>2015-09-27T13:41:24Z</time></trkpt>
<trkpt lat="23.358421" lon="107.931797">
<time>2015-09-27T13:41:25Z</time></trkpt>
<trkpt lat="23.358401" lon="107.931687">
<time>2015-09-27T13:41:26Z</time></trkpt>
<trkpt lat="23.358292" lon="107.931087">
<time>2015-09-27T13:41:27Z</time></trkpt>
<trkpt lat="23.358282" lon="107.931038">
<time>2015-09-27T13:41:28Z</time></trkpt>
<trkpt lat="23.358272" lon="107.930998">
<time>2015-09-27T13:41:29Z</time></trkpt>
<trkpt lat="23.358272" lon="107.930958">
<time>2015-09-27T13:41:30Z</time></trkpt>
<trkpt lat="23.358272" lon="107.930928">
<time>2015-09-27T13:41:31Z</time></trkpt>
<trkpt lat="23.358272" lon="107.930888">
<time>2015-09-27T13:41:32Z</time></trkpt>
<trkpt lat="23.358272" lon="107.930848">
<time>2015-09-27T13:41:33Z</time></trkpt>
<trkpt lat="23.358282" lon="107.930808">
<time>2015-09-27T13:41:34Z</time></trkpt>
<trkpt lat="23.358302" lon="107.930698">
<time>2015-09-27T13:41:35Z</time></trkpt>
<trkpt lat="23.358523" lon="107.929949">
<time>2015-09-27T13:41:36Z</time></trkpt>
<trkpt lat="23.358533" lon="107.929889">
<time>2015-09-27T13:41:37Z</time></trkpt>
<trkpt lat="23.358543" lon="107.929829">
<time>2015-09-27T13:41:38Z</time></trkpt>
<trkpt lat="23.358544" lon="107.929799">
<time>2015-09-27T13:41:39Z</time></trkpt>
<trkpt lat="23.358544" lon="107.929749">
<time>2015-09-27T13:41:40Z</time></trkpt>
<trkpt lat="23.358544" lon="107.929699">
<time>2015-09-27T13:41:41Z</time></trkpt>
<trkpt lat="23.358534" lon="107.929629">
<time>2015-09-27T13:41:42Z</time></trkpt>
<trkpt lat="23.358454" lon="107.92941">
<time>2015-09-27T13:41:43Z</time></trkpt>
<trkpt lat="23.358225" lon="107.92893">
<time>2015-09-27T13:41:44Z</time></trkpt>
<trkpt lat="23.358095" lon="107.928481">
<time>2015-09-27T13:41:45Z</time></trkpt>
<trkpt lat="23.358076" lon="107.928421">
<time>2015-09-27T13:41:46Z</time></trkpt>
<trkpt lat="23.358046" lon="107.928371">
<time>2015-09-27T13:41:47Z</time></trkpt>
<trkpt lat="23.357996" lon="107.928291">
<time>2015-09-27T13:41:48Z</time></trkpt>
<trkpt lat="23.357956" lon="107.928221">
<time>2015-09-27T13:41:49Z</time></trkpt>
<trkpt lat="23.357626" lon="107.927792">
<time>2015-09-27T13:41:50Z</time></trkpt>
<trkpt lat="23.357577" lon="107.927712">
<time>2015-09-27T13:41:51Z</time></trkpt>
<trkpt lat="23.357537" lon="107.927652">
<time>2015-09-27T13:41:52Z</time></trkpt>
<trkpt lat="23.357527" lon="107.927592">
<time>2015-09-27T13:41:53Z</time></trkpt>
<trkpt lat="23.357517" lon="107.927532">
<time>2015-09-27T13:41:54Z</time></trkpt>
<trkpt lat="23.357517" lon="107.927472">
<time>2015-09-27T13:41:55Z</time></trkpt>
<trkpt lat="23.357547" lon="107.927402">
<time>2015-09-27T13:41:56Z</time></trkpt>
<trkpt lat="23.357758" lon="107.926932">
<time>2015-09-27T13:41:57Z</time></trkpt>
<trkpt lat="23.357868" lon="107.926673">
<time>2015-09-27T13:41:58Z</time></trkpt>
<trkpt lat="23.357918" lon="107.926493">
<time>2015-09-27T13:41:59Z</time></trkpt>
<trkpt lat="23.357928" lon="107.926443">
<time>2015-09-27T13:42:00Z</time></trkpt>
<trkpt lat="23.357938" lon="107.926403">
<time>2015-09-27T13:42:01Z</time></trkpt>
<trkpt lat="23.357948" lon="107.926163">
<time>2015-09-27T13:42:02Z</time></trkpt>
<trkpt lat="23.357959" lon="107.926113">
<time>2015-09-27T13:42:03Z</time></trkpt>
<trkpt lat="23.357979" lon="107.926063">
<time>2015-09-27T13:42:04Z</time></trkpt>
<trkpt lat="23.357999" lon="107.926013">
<time>2015-09-27T13:42:05Z</time></trkpt>
<trkpt lat="23.358019" lon="107.925964">
<time>2015-09-27T13:42:06Z</time></trkpt>
<trkpt lat="23.358069" lon="107.925884">
<time>2015-09-27T13:42:07Z</time></trkpt>
<trkpt lat="23.358439" lon="107.925544">
<time>2015-09-27T13:42:08Z</time></trkpt>
<trkpt lat="23.358669" lon="107.925384">
<time>2015-09-27T13:42:09Z</time></trkpt>
<trkpt lat="23.358959" lon="107.925204">
<time>2015-09-27T13:42:10Z</time></trkpt>
<trkpt lat="23.35911" lon="107.925124">
<time>2015-09-27T13:42:11Z</time></trkpt>
<trkpt lat="23.35978" lon="107.924905">
<time>2015-09-27T13:42:12Z</time></trkpt>
<trkpt lat="23.35995" lon="107.924805">
<time>2015-09-27T13:42:13Z</time></trkpt>
<trkpt lat="23.36007" lon="107.924725">
<time>2015-09-27T13:42:14Z</time></trkpt>
<trkpt lat="23.36017" lon="107.924705">
<time>2015-09-27T13:42:15Z</time></trkpt>
<trkpt lat="23.3603" lon="107.924695">
<time>2015-09-27T13:42:16Z</time></trkpt>
<trkpt lat="23.36042" lon="107.924695">
<time>2015-09-27T13:42:17Z</time></trkpt>
<trkpt lat="23.3606" lon="107.924725">
<time>2015-09-27T13:42:18Z</time></trkpt>
<trkpt lat="23.36067" lon="107.924725">
<time>2015-09-27T13:42:19Z</time></trkpt>
<trkpt lat="23.36072" lon="107.924715">
<time>2015-09-27T13:42:20Z</time></trkpt>
<trkpt lat="23.36076" lon="107.924695">
<time>2015-09-27T13:42:21Z</time></trkpt>
<trkpt lat="23.36081" lon="107.924665">
<time>2015-09-27T13:42:22Z</time></trkpt>
<trkpt lat="23.36085" lon="107.924625">
<time>2015-09-27T13:42:23Z</time></trkpt>
<trkpt lat="23.36088" lon="107.924575">
<time>2015-09-27T13:42:24Z</time></trkpt>
<trkpt lat="23.36091" lon="107.924495">
<time>2015-09-27T13:42:25Z</time></trkpt>
<trkpt lat="23.36095" lon="107.924105">
<time>2015-09-27T13:42:26Z</time></trkpt>
<trkpt lat="23.36097" lon="107.924055">
<time>2015-09-27T13:42:27Z</time></trkpt>
<trkpt lat="23.36098" lon="107.924015">
<time>2015-09-27T13:42:28Z</time></trkpt>
<trkpt lat="23.361001" lon="107.923975">
<time>2015-09-27T13:42:29Z</time></trkpt>
<trkpt lat="23.361041" lon="107.923935">
<time>2015-09-27T13:42:30Z</time></trkpt>
<trkpt lat="23.361291" lon="107.923726">
<time>2015-09-27T13:42:31Z</time></trkpt>
<trkpt lat="23.361321" lon="107.923696">
<time>2015-09-27T13:42:32Z</time></trkpt>
<trkpt lat="23.361471" lon="107.923546">
<time>2015-09-27T13:42:33Z</time></trkpt>
<trkpt lat="23.361781" lon="107.923166">
<time>2015-09-27T13:42:34Z</time></trkpt>
<trkpt lat="23.361851" lon="107.923086">
<time>2015-09-27T13:42:35Z</time></trkpt>
<trkpt lat="23.361901" lon="107.923036">
<time>2015-09-27T13:42:36Z</time></trkpt>
<trkpt lat="23.361971" lon="107.922986">
<time>2015-09-27T13:42:37Z</time></trkpt>
<trkpt lat="23.362132" lon="107.922876">
<time>2015-09-27T13:42:38Z</time></trkpt>
<trkpt lat="23.362232" lon="107.922796">
<time>2015-09-27T13:42:39Z</time></trkpt>
<trkpt lat="23.362352" lon="107.922657">
<time>2015-09-27T13:42:40Z</time></trkpt>
<trkpt lat="23.362452" lon="107.922497">
<time>2015-09-27T13:42:41Z</time></trkpt>
<trkpt lat="23.362492" lon="107.922407">
<time>2015-09-27T13:42:42Z</time></trkpt>
<trkpt lat="23.362512" lon="107.922277">
<time>2015-09-27T13:42:43Z</time></trkpt>
<trkpt lat="23.362492" lon="107.922097">
<time>2015-09-27T13:42:44Z</time></trkpt>
<trkpt lat="23.362482" lon="107.921937">
<time>2015-09-27T13:42:45Z</time></trkpt>
<trkpt lat="23.362493" lon="107.921787">
<time>2015-09-27T13:42:46Z</time></trkpt>
<trkpt lat="23.362503" lon="107.921697">
<time>2015-09-27T13:42:47Z</time></trkpt>
<trkpt lat="23.362763" lon="107.921238">
<time>2015-09-27T13:42:48Z</time></trkpt>
<trkpt lat="23.362773" lon="107.921158">
<time>2015-09-27T13:42:49Z</time></trkpt>
<trkpt lat="23.362783" lon="107.921108">
<time>2015-09-27T13:42:50Z</time></trkpt>
<trkpt lat="23.362773" lon="107.921048">
<time>2015-09-27T13:42:51Z</time></trkpt>
<trkpt lat="23.362753" lon="107.920998">
<time>2015-09-27T13:42:52Z</time></trkpt>
<trkpt lat="23.362733" lon="107.920948">
<time>2015-09-27T13:42:53Z</time></trkpt>
<trkpt lat="23.362704" lon="107.920898">
<time>2015-09-27T13:42:54Z</time></trkpt>
<trkpt lat="23.362354" lon="107.920418">
<time>2015-09-27T13:42:55Z</time></trkpt>
<trkpt lat="23.362324" lon="107.920348">
<time>2015-09-27T13:42:56Z</time></trkpt>
<trkpt lat="23.362314" lon="107.920279">
<time>2015-09-27T13:42:57Z</time></trkpt>
<trkpt lat="23.362324" lon="107.920199">
<time>2015-09-27T13:42:58Z</time></trkpt>
<trkpt lat="23.362344" lon="107.920099">
<time>2015-09-27T13:42:59Z</time></trkpt>
<trkpt lat="23.362435" lon="107.919909">
<time>2015-09-27T13:43:00Z</time></trkpt>
<trkpt lat="23.362885" lon="107.919299">
<time>2015-09-27T13:43:01Z</time></trkpt>
<trkpt lat="23.363305" lon="107.91889">
<time>2015-09-27T13:43:02Z</time></trkpt>
<trkpt lat="23.363345" lon="107.91885">
<time>2015-09-27T13:43:03Z</time></trkpt>
<trkpt lat="23.363355" lon="107.91884">
<time>2015-09-27T13:43:04Z</time></trkpt>
<trkpt lat="23.363385" lon="107.91881">
<time>2015-09-27T13:43:05Z</time></trkpt>
<trkpt lat="23.363435" lon="107.91878">
<time>2015-09-27T13:43:06Z</time></trkpt>
<trkpt lat="23.363475" lon="107.91875">
<time>2015-09-27T13:43:07Z</time></trkpt>
<trkpt lat="23.363515" lon="107.91873">
<time>2015-09-27T13:43:08Z</time></trkpt>
<trkpt lat="23.363576" lon="107.91871">
<time>2015-09-27T13:43:09Z</time></trkpt>
<trkpt lat="23.364216" lon="107.91853">
<time>2015-09-27T13:43:10Z</time></trkpt>
<trkpt lat="23.364376" lon="107.91848">
<time>2015-09-27T13:43:11Z</time></trkpt>
<trkpt lat="23.364596" lon="107.9184">
<time>2015-09-27T13:43:12Z</time></trkpt>
<trkpt lat="23.364666" lon="107.91837">
<time>2015-09-27T13:43:13Z</time></trkpt>
<trkpt lat="23.364716" lon="107.91834">
<time>2015-09-27T13:43:14Z</time></trkpt>
<trkpt lat="23.364756" lon="107.91831">
<time>2015-09-27T13:43:15Z</time></trkpt>
<trkpt lat="23.364806" lon="107.91828">
<time>2015-09-27T13:43:16Z</time></trkpt>
<trkpt lat="23.365286" lon="107.91783">
<time>2015-09-27T13:43:17Z</time></trkpt>
<trkpt lat="23.365536" lon="107.91761">
<time>2015-09-27T13:43:18Z</time></trkpt>
<trkpt lat="23.366407" lon="107.916921">
<time>2015-09-27T13:43:19Z</time></trkpt>
<trkpt lat="23.366757" lon="107.916641">
<time>2015-09-27T13:43:20Z</time></trkpt>
<trkpt lat="23.366807" lon="107.916601">
<time>2015-09-27T13:43:21Z</time></trkpt>
<trkpt lat="23.366867" lon="107.916561">
<time>2015-09-27T13:43:22Z</time></trkpt>
<trkpt lat="23.366917" lon="107.916521">
<time>2015-09-27T13:43:23Z</time></trkpt>
<trkpt lat="23.366977" lon="107.916491">
<time>2015-09-27T13:43:24Z</time></trkpt>
<trkpt lat="23.367017" lon="107.916461">
<time>2015-09-27T13:43:25Z</time></trkpt>
<trkpt lat="23.367197" lon="107.916371">
<time>2015-09-27T13:43:26Z</time></trkpt>
<trkpt lat="23.367217" lon="107.916371">
<time>2015-09-27T13:43:27Z</time></trkpt>
<trkpt lat="23.367337" lon="107.916321">
<time>2015-09-27T13:43:28Z</time></trkpt>
<trkpt lat="23.367457" lon="107.916271">
<time>2015-09-27T13:43:29Z</time></trkpt>
<trkpt lat="23.367607" lon="107.916211">
<time>2015-09-27T13:43:30Z</time></trkpt>
<trkpt lat="23.367877" lon="107.916081">
<time>2015-09-27T13:43:31Z</time></trkpt>
<trkpt lat="23.368217" lon="107.915891">
<time>2015-09-27T13:43:32Z</time></trkpt>
<trkpt lat="23.368287" lon="107.915841">
<time>2015-09-27T13:43:33Z</time></trkpt>
<trkpt lat="23.368927" lon="107.915431">
<time>2015-09-27T13:43:34Z</time></trkpt>
<trkpt lat="23.369207" lon="107.915262">
<time>2015-09-27T13:43:35Z</time></trkpt>
<trkpt lat="23.369297" lon="107.915222">
<time>2015-09-27T13:43:36Z</time></trkpt>
<trkpt lat="23.369377" lon="107.915192">
<time>2015-09-27T13:43:37Z</time></trkpt>
<trkpt lat="23.369477" lon="107.915152">
<time>2015-09-27T13:43:38Z</time></trkpt>
<trkpt lat="23.369537" lon="107.915132">
<time>2015-09-27T13:43:39Z</time></trkpt>
<trkpt lat="23.371187" lon="107.914852">
<time>2015-09-27T13:43:40Z</time></trkpt>
<trkpt lat="23.371687" lon="107.914792">
<time>2015-09-27T13:43:41Z</time></trkpt>
<trkpt lat="23.371997" lon="107.914742">
<time>2015-09-27T13:43:42Z</time></trkpt>
<trkpt lat="23.372187" lon="107.914712">
<time>2015-09-27T13:43:43Z</time></trkpt>
<trkpt lat="23.372307" lon="107.914672">
<time>2015-09-27T13:43:44Z</time></trkpt>
<trkpt lat="23.372607" lon="107.914572">
<time>2015-09-27T13:43:45Z</time></trkpt>
<trkpt lat="23.372827" lon="107.914472">
<time>2015-09-27T13:43:46Z</time></trkpt>
<trkpt lat="23.373137" lon="107.914322">
<time>2015-09-27T13:43:47Z</time></trkpt>
<trkpt lat="23.374048" lon="107.913722">
<time>2015-09-27T13:43:48Z</time></trkpt>
<trkpt lat="23.375748" lon="107.912483">
<time>2015-09-27T13:43:49Z</time></trkpt>
<trkpt lat="23.375838" lon="107.912443">
<time>2015-09-27T13:43:50Z</time></trkpt>
<trkpt lat="23.375928" lon="107.912403">
<time>2015-09-27T13:43:51Z</time></trkpt>
<trkpt lat="23.376028" lon="107.912383">
<time>2015-09-27T13:43:52Z</time></trkpt>
<trkpt lat="23.376148" lon="107.912363">
<time>2015-09-27T13:43:53Z</time></trkpt>
<trkpt lat="23.376258" lon="107.912373">
<time>2015-09-27T13:43:54Z</time></trkpt>
<trkpt lat="23.376358" lon="107.912393">
<time>2015-09-27T13:43:55Z</time></trkpt>
<trkpt lat="23.376758" lon="107.912482">
<time>2015-09-27T13:43:56Z</time></trkpt>
<trkpt lat="23.377138" lon="107.912542">
<time>2015-09-27T13:43:57Z</time></trkpt>
<trkpt lat="23.377248" lon="107.912552">
<time>2015-09-27T13:43:58Z</time></trkpt>
<trkpt lat="23.377328" lon="107.912552">
<time>2015-09-27T13:43:59Z</time></trkpt>
<trkpt lat="23.377388" lon="107.912542">
<time>2015-09-27T13:44:00Z</time></trkpt>
<trkpt lat="23.377458" lon="107.912512">
<time>2015-09-27T13:44:01Z</time></trkpt>
<trkpt lat="23.377538" lon="107.912482">
<time>2015-09-27T13:44:02Z</time></trkpt>
<trkpt lat="23.378568" lon="107.911973">
<time>2015-09-27T13:44:03Z</time></trkpt>
<trkpt lat="23.378698" lon="107.911933">
<time>2015-09-27T13:44:04Z</time></trkpt>
<trkpt lat="23.378768" lon="107.911923">
<time>2015-09-27T13:44:05Z</time></trkpt>
<trkpt lat="23.378808" lon="107.911913">
<time>2015-09-27T13:44:06Z</time></trkpt>
<trkpt lat="23.378878" lon="107.911913">
<time>2015-09-27T13:44:07Z</time></trkpt>
<trkpt lat="23.378958" lon="107.911933">
<time>2015-09-27T13:44:08Z</time></trkpt>
<trkpt lat="23.379028" lon="107.911953">
<time>2015-09-27T13:44:09Z</time></trkpt>
<trkpt lat="23.380197" lon="107.912532">
<time>2015-09-27T13:44:10Z</time></trkpt>
<trkpt lat="23.380377" lon="107.912572">
<time>2015-09-27T13:44:11Z</time></trkpt>
<trkpt lat="23.380477" lon="107.912572">
<time>2015-09-27T13:44:12Z</time></trkpt>
<trkpt lat="23.381597" lon="107.912412">
<time>2015-09-27T13:44:13Z</time></trkpt>
<trkpt lat="23.381727" lon="107.912392">
<time>2015-09-27T13:44:14Z</time></trkpt>
<trkpt lat="23.381857" lon="107.912342">
<time>2015-09-27T13:44:15Z</time></trkpt>
<trkpt lat="23.381947" lon="107.912312">
<time>2015-09-27T13:44:16Z</time></trkpt>
<trkpt lat="23.382057" lon="107.912262">
<time>2015-09-27T13:44:17Z</time></trkpt>
<trkpt lat="23.382777" lon="107.911892">
<time>2015-09-27T13:44:18Z</time></trkpt>
<trkpt lat="23.382877" lon="107.911872">
<time>2015-09-27T13:44:19Z</time></trkpt>
<trkpt lat="23.382977" lon="107.911852">
<time>2015-09-27T13:44:20Z</time></trkpt>
<trkpt lat="23.383577" lon="107.911892">
<time>2015-09-27T13:44:21Z</time></trkpt>
<trkpt lat="23.383727" lon="107.911892">
<time>2015-09-27T13:44:22Z</time></trkpt>
<trkpt lat="23.383817" lon="107.911882">
<time>2015-09-27T13:44:23Z</time></trkpt>
<trkpt lat="23.383897" lon="107.911852">
<time>2015-09-27T13:44:24Z</time></trkpt>
<trkpt lat="23.383967" lon="107.911822">
<time>2015-09-27T13:44:25Z</time></trkpt>
<trkpt lat="23.384047" lon="107.911782">
<time>2015-09-27T13:44:26Z</time></trkpt>
<trkpt lat="23.384517" lon="107.911303">
<time>2015-09-27T13:44:27Z</time></trkpt>
<trkpt lat="23.384617" lon="107.911193">
<time>2015-09-27T13:44:28Z</time></trkpt>
<trkpt lat="23.384647" lon="107.911143">
<time>2015-09-27T13:44:29Z</time></trkpt>
<trkpt lat="23.384707" lon="107.911053">
<time>2015-09-27T13:44:30Z</time></trkpt>
<trkpt lat="23.384957" lon="107.910683">
<time>2015-09-27T13:44:31Z</time></trkpt>
<trkpt lat="23.385018" lon="107.910603">
<time>2015-09-27T13:44:32Z</time></trkpt>
<trkpt lat="23.385078" lon="107.910523">
<time>2015-09-27T13:44:33Z</time></trkpt>
<trkpt lat="23.385138" lon="107.910473">
<time>2015-09-27T13:44:34Z</time></trkpt>
<trkpt lat="23.385208" lon="107.910393">
<time>2015-09-27T13:44:35Z</time></trkpt>
<trkpt lat="23.385318" lon="107.910323">
<time>2015-09-27T13:44:36Z</time></trkpt>
<trkpt lat="23.385608" lon="107.910153">
<time>2015-09-27T13:44:37Z</time></trkpt>
<trkpt lat="23.386278" lon="107.909793">
<time>2015-09-27T13:44:38Z</time></trkpt>
<trkpt lat="23.387078" lon="107.909433">
<time>2015-09-27T13:44:39Z</time></trkpt>
<trkpt lat="23.387298" lon="107.909323">
<time>2015-09-27T13:44:40Z</time></trkpt>
<trkpt lat="23.387438" lon="107.909133">
<time>2015-09-27T13:44:41Z</time></trkpt>
<trkpt lat="23.387478" lon="107.909063">
<time>2015-09-27T13:44:42Z</time></trkpt>
<trkpt lat="23.387508" lon="107.908973">
<time>2015-09-27T13:44:43Z</time></trkpt>
<trkpt lat="23.387548" lon="107.908783">
<time>2015-09-27T13:44:44Z</time></trkpt>
<trkpt lat="23.387568" lon="107.908663">
<time>2015-09-27T13:44:45Z</time></trkpt>
<trkpt lat="23.387578" lon="107.908543">
<time>2015-09-27T13:44:46Z</time></trkpt>
<trkpt lat="23.387568" lon="107.908473">
<time>2015-09-27T13:44:47Z</time></trkpt>
<trkpt lat="23.387568" lon="107.908393">
<time>2015-09-27T13:44:48Z</time></trkpt>
<trkpt lat="23.387548" lon="107.908293">
<time>2015-09-27T13:44:49Z</time></trkpt>
<trkpt lat="23.387508" lon="107.908163">
<time>2015-09-27T13:44:50Z</time></trkpt>
<trkpt lat="23.387189" lon="107.907473">
<time>2015-09-27T13:44:51Z</time></trkpt>
<trkpt lat="23.387069" lon="107.907183">
<time>2015-09-27T13:44:52Z</time></trkpt>
<trkpt lat="23.38582" lon="107.904144">
<time>2015-09-27T13:44:53Z</time></trkpt>
<trkpt lat="23.38578" lon="107.904004">
<time>2015-09-27T13:44:54Z</time></trkpt>
<trkpt lat="23.38576" lon="107.903924">
<time>2015-09-27T13:44:55Z</time></trkpt>
<trkpt lat="23.38574" lon="107.903824">
<time>2015-09-27T13:44:56Z</time></trkpt>
<trkpt lat="23.38573" lon="107.903724">
<time>2015-09-27T13:44:57Z</time></trkpt>
<trkpt lat="23.38572" lon="107.903584">
<time>2015-09-27T13:44:58Z</time></trkpt>
<trkpt lat="23.38572" lon="107.903484">
<time>2015-09-27T13:44:59Z</time></trkpt>
<trkpt lat="23.38572" lon="107.903394">
<time>2015-09-27T13:45:00Z</time></trkpt>
<trkpt lat="23.385891" lon="107.901104">
<time>2015-09-27T13:45:01Z</time></trkpt>
<trkpt lat="23.385891" lon="107.900984">
<time>2015-09-27T13:45:02Z</time></trkpt>
<trkpt lat="23.385891" lon="107.900964">
<time>2015-09-27T13:45:03Z</time></trkpt>
<trkpt lat="23.385871" lon="107.900853">
<time>2015-09-27T13:45:04Z</time></trkpt>
<trkpt lat="23.385861" lon="107.900743">
<time>2015-09-27T13:45:05Z</time></trkpt>
<trkpt lat="23.385841" lon="107.900643">
<time>2015-09-27T13:45:06Z</time></trkpt>
<trkpt lat="23.385471" lon="107.899183">
<time>2015-09-27T13:45:07Z</time></trkpt>
<trkpt lat="23.385301" lon="107.898523">
<time>2015-09-27T13:45:08Z</time></trkpt>
<trkpt lat="23.385281" lon="107.898383">
<time>2015-09-27T13:45:09Z</time></trkpt>
<trkpt lat="23.385281" lon="107.898253">
<time>2015-09-27T13:45:10Z</time></trkpt>
<trkpt lat="23.385281" lon="107.898103">
<time>2015-09-27T13:45:11Z</time></trkpt>
<trkpt lat="23.385301" lon="107.897963">
<time>2015-09-27T13:45:12Z</time></trkpt>
<trkpt lat="23.385361" lon="107.897643">
<time>2015-09-27T13:45:13Z</time></trkpt>
<trkpt lat="23.385391" lon="107.897223">
<time>2015-09-27T13:45:14Z</time></trkpt>
<trkpt lat="23.385401" lon="107.896813">
<time>2015-09-27T13:45:15Z</time></trkpt>
<trkpt lat="23.385401" lon="107.896472">
<time>2015-09-27T13:45:16Z</time></trkpt>
<trkpt lat="23.385251" lon="107.895912">
<time>2015-09-27T13:45:17Z</time></trkpt>
<trkpt lat="23.385171" lon="107.895462">
<time>2015-09-27T13:45:18Z</time></trkpt>
<trkpt lat="23.385121" lon="107.895102">
<time>2015-09-27T13:45:19Z</time></trkpt>
<trkpt lat="23.385111" lon="107.894772">
<time>2015-09-27T13:45:20Z</time></trkpt>
<trkpt lat="23.385101" lon="107.894282">
<time>2015-09-27T13:45:21Z</time></trkpt>
<trkpt lat="23.385131" lon="107.893781">
<time>2015-09-27T13:45:22Z</time></trkpt>
<trkpt lat="23.385131" lon="107.893541">
<time>2015-09-27T13:45:23Z</time></trkpt>
<trkpt lat="23.385111" lon="107.893321">
<time>2015-09-27T13:45:24Z</time></trkpt>
<trkpt lat="23.38509" lon="107.893151">
<time>2015-09-27T13:45:25Z</time></trkpt>
<trkpt lat="23.38504" lon="107.892921">
<time>2015-09-27T13:45:26Z</time></trkpt>
<trkpt lat="23.38477" lon="107.89222">
<time>2015-09-27T13:45:27Z</time></trkpt>
<trkpt lat="23.38449" lon="107.89125">
<time>2015-09-27T13:45:28Z</time></trkpt>
<trkpt lat="23.38437" lon="107.89083">
<time>2015-09-27T13:45:29Z</time></trkpt>
<trkpt lat="23.38432" lon="107.89063">
<time>2015-09-27T13:45:30Z</time></trkpt>
<trkpt lat="23.38428" lon="107.890439">
<time>2015-09-27T13:45:31Z</time></trkpt>
<trkpt lat="23.38415" lon="107.889499">
<time>2015-09-27T13:45:32Z</time></trkpt>
<trkpt lat="23.38412" lon="107.889389">
<time>2015-09-27T13:45:33Z</time></trkpt>
<trkpt lat="23.38406" lon="107.889279">
<time>2015-09-27T13:45:34Z</time></trkpt>
<trkpt lat="23.38401" lon="107.889199">
<time>2015-09-27T13:45:35Z</time></trkpt>
<trkpt lat="23.382509" lon="107.887447">
<time>2015-09-27T13:45:36Z</time></trkpt>
<trkpt lat="23.382419" lon="107.887327">
<time>2015-09-27T13:45:37Z</time></trkpt>
<trkpt lat="23.382339" lon="107.887217">
<time>2015-09-27T13:45:38Z</time></trkpt>
<trkpt lat="23.382289" lon="107.887117">
<time>2015-09-27T13:45:39Z</time></trkpt>
<trkpt lat="23.382249" lon="107.886977">
<time>2015-09-27T13:45:40Z</time></trkpt>
<trkpt lat="23.382108" lon="107.884485">
<time>2015-09-27T13:45:41Z</time></trkpt>
<trkpt lat="23.382108" lon="107.884375">
<time>2015-09-27T13:45:42Z</time></trkpt>
<trkpt lat="23.382067" lon="107.884215">
<time>2015-09-27T13:45:43Z</time></trkpt>
<trkpt lat="23.381987" lon="107.883925">
<time>2015-09-27T13:45:44Z</time></trkpt>
<trkpt lat="23.381847" lon="107.883564">
<time>2015-09-27T13:45:45Z</time></trkpt>
<trkpt lat="23.380526" lon="107.881122">
<time>2015-09-27T13:45:46Z</time></trkpt>
<trkpt lat="23.380496" lon="107.881042">
<time>2015-09-27T13:45:47Z</time></trkpt>
<trkpt lat="23.380466" lon="107.880942">
<time>2015-09-27T13:45:48Z</time></trkpt>
<trkpt lat="23.380325" lon="107.879911">
<time>2015-09-27T13:45:49Z</time></trkpt>
<trkpt lat="23.380325" lon="107.879841">
<time>2015-09-27T13:45:50Z</time></trkpt>
<trkpt lat="23.380315" lon="107.87975">
<time>2015-09-27T13:45:51Z</time></trkpt>
<trkpt lat="23.380305" lon="107.87968">
<time>2015-09-27T13:45:52Z</time></trkpt>
<trkpt lat="23.380285" lon="107.87961">
<time>2015-09-27T13:45:53Z</time></trkpt>
<trkpt lat="23.379724" lon="107.878229">
<time>2015-09-27T13:45:54Z</time></trkpt>
<trkpt lat="23.379694" lon="107.878129">
<time>2015-09-27T13:45:55Z</time></trkpt>
<trkpt lat="23.379684" lon="107.878039">
<time>2015-09-27T13:45:56Z</time></trkpt>
<trkpt lat="23.379674" lon="107.877938">
<time>2015-09-27T13:45:57Z</time></trkpt>
<trkpt lat="23.379673" lon="107.877838">
<time>2015-09-27T13:45:58Z</time></trkpt>
<trkpt lat="23.379822" lon="107.876707">
<time>2015-09-27T13:45:59Z</time></trkpt>
<trkpt lat="23.379832" lon="107.876647">
<time>2015-09-27T13:46:00Z</time></trkpt>
<trkpt lat="23.379832" lon="107.876577">
<time>2015-09-27T13:46:01Z</time></trkpt>
<trkpt lat="23.379822" lon="107.876527">
<time>2015-09-27T13:46:02Z</time></trkpt>
<trkpt lat="23.379812" lon="107.876457">
<time>2015-09-27T13:46:03Z</time></trkpt>
<trkpt lat="23.379722" lon="107.876106">
<time>2015-09-27T13:46:04Z</time></trkpt>
<trkpt lat="23.379682" lon="107.875946">
<time>2015-09-27T13:46:05Z</time></trkpt>
<trkpt lat="23.379652" lon="107.875776">
<time>2015-09-27T13:46:06Z</time></trkpt>
<trkpt lat="23.379642" lon="107.875676">
<time>2015-09-27T13:46:07Z</time></trkpt>
<trkpt lat="23.379641" lon="107.875576">
<time>2015-09-27T13:46:08Z</time></trkpt>
<trkpt lat="23.379641" lon="107.875535">
<time>2015-09-27T13:46:09Z</time></trkpt>
<trkpt lat="23.379651" lon="107.875485">
<time>2015-09-27T13:46:10Z</time></trkpt>
<trkpt lat="23.379731" lon="107.875005">
<time>2015-09-27T13:46:11Z</time></trkpt>
<trkpt lat="23.380329" lon="107.872622">
<time>2015-09-27T13:46:12Z</time></trkpt>
<trkpt lat="23.380976" lon="107.870559">
<time>2015-09-27T13:46:13Z</time></trkpt>
<trkpt lat="23.381006" lon="107.870469">
<time>2015-09-27T13:46:14Z</time></trkpt>
<trkpt lat="23.381026" lon="107.870358">
<time>2015-09-27T13:46:15Z</time></trkpt>
<trkpt lat="23.381275" lon="107.869117">
<time>2015-09-27T13:46:16Z</time></trkpt>
<trkpt lat="23.381304" lon="107.869026">
<time>2015-09-27T13:46:17Z</time></trkpt>
<trkpt lat="23.381304" lon="107.869016">
<time>2015-09-27T13:46:18Z</time></trkpt>
<trkpt lat="23.381693" lon="107.867594">
<time>2015-09-27T13:46:19Z</time></trkpt>
<trkpt lat="23.381713" lon="107.867474">
<time>2015-09-27T13:46:20Z</time></trkpt>
<trkpt lat="23.381722" lon="107.867354">
<time>2015-09-27T13:46:21Z</time></trkpt>
<trkpt lat="23.381722" lon="107.867234">
<time>2015-09-27T13:46:22Z</time></trkpt>
<trkpt lat="23.381712" lon="107.867144">
<time>2015-09-27T13:46:23Z</time></trkpt>
<trkpt lat="23.381421" lon="107.865862">
<time>2015-09-27T13:46:24Z</time></trkpt>
<trkpt lat="23.381411" lon="107.865811">
<time>2015-09-27T13:46:25Z</time></trkpt>
<trkpt lat="23.381411" lon="107.865751">
<time>2015-09-27T13:46:26Z</time></trkpt>
<trkpt lat="23.381431" lon="107.865691">
<time>2015-09-27T13:46:27Z</time></trkpt>
<trkpt lat="23.38145" lon="107.865621">
<time>2015-09-27T13:46:28Z</time></trkpt>
<trkpt lat="23.38176" lon="107.865271">
<time>2015-09-27T13:46:29Z</time></trkpt>
<trkpt lat="23.38197" lon="107.86496">
<time>2015-09-27T13:46:30Z</time></trkpt>
<trkpt lat="23.382139" lon="107.86474">
<time>2015-09-27T13:46:31Z</time></trkpt>
<trkpt lat="23.382299" lon="107.864579">
<time>2015-09-27T13:46:32Z</time></trkpt>
<trkpt lat="23.382759" lon="107.864279">
<time>2015-09-27T13:46:33Z</time></trkpt>
<trkpt lat="23.382938" lon="107.864129">
<time>2015-09-27T13:46:34Z</time></trkpt>
<trkpt lat="23.383048" lon="107.863988">
<time>2015-09-27T13:46:35Z</time></trkpt>
<trkpt lat="23.383108" lon="107.863858">
<time>2015-09-27T13:46:36Z</time></trkpt>
<trkpt lat="23.383168" lon="107.863688">
<time>2015-09-27T13:46:37Z</time></trkpt>
<trkpt lat="23.383217" lon="107.863518">
<time>2015-09-27T13:46:38Z</time></trkpt>
<trkpt lat="23.383326" lon="107.862526">
<time>2015-09-27T13:46:39Z</time></trkpt>
<trkpt lat="23.383346" lon="107.862396">
<time>2015-09-27T13:46:40Z</time></trkpt>
<trkpt lat="23.383366" lon="107.862306">
<time>2015-09-27T13:46:41Z</time></trkpt>
<trkpt lat="23.383406" lon="107.862215">
<time>2015-09-27T13:46:42Z</time></trkpt>
<trkpt lat="23.383436" lon="107.862145">
<time>2015-09-27T13:46:43Z</time></trkpt>
<trkpt lat="23.383905" lon="107.861414">
<time>2015-09-27T13:46:44Z</time></trkpt>
<trkpt lat="23.383944" lon="107.861344">
<time>2015-09-27T13:46:45Z</time></trkpt>
<trkpt lat="23.383964" lon="107.861294">
<time>2015-09-27T13:46:46Z</time></trkpt>
<trkpt lat="23.383994" lon="107.861224">
<time>2015-09-27T13:46:47Z</time></trkpt>
<trkpt lat="23.384134" lon="107.860813">
<time>2015-09-27T13:46:48Z</time></trkpt>
<trkpt lat="23.384223" lon="107.860623">
<time>2015-09-27T13:46:49Z</time></trkpt>
<trkpt lat="23.384363" lon="107.860422">
<time>2015-09-27T13:46:50Z</time></trkpt>
<trkpt lat="23.384373" lon="107.860402">
<time>2015-09-27T13:46:51Z</time></trkpt>
<trkpt lat="23.384453" lon="107.860292">
<time>2015-09-27T13:46:52Z</time></trkpt>
<trkpt lat="23.384583" lon="107.860162">
<time>2015-09-27T13:46:53Z</time></trkpt>
<trkpt lat="23.384732" lon="107.860042">
<time>2015-09-27T13:46:54Z</time></trkpt>
<trkpt lat="23.384822" lon="107.859971">
<time>2015-09-27T13:46:55Z</time></trkpt>
<trkpt lat="23.385472" lon="107.859631">
<time>2015-09-27T13:46:56Z</time></trkpt>
<trkpt lat="23.385861" lon="107.85942">
<time>2015-09-27T13:46:57Z</time></trkpt>
<trkpt lat="23.386201" lon="107.85924">
<time>2015-09-27T13:46:58Z</time></trkpt>
<trkpt lat="23.386431" lon="107.85913">
<time>2015-09-27T13:46:59Z</time></trkpt>
<trkpt lat="23.386631" lon="107.85902">
<time>2015-09-27T13:47:00Z</time></trkpt>
<trkpt lat="23.386741" lon="107.858929">
<time>2015-09-27T13:47:01Z</time></trkpt>
<trkpt lat="23.3868" lon="107.858879">
<time>2015-09-27T13:47:02Z</time></trkpt>
<trkpt lat="23.38682" lon="107.858869">
<time>2015-09-27T13:47:03Z</time></trkpt>
<trkpt lat="23.38689" lon="107.858789">
<time>2015-09-27T13:47:04Z</time></trkpt>
<trkpt lat="23.38696" lon="107.858699">
<time>2015-09-27T13:47:05Z</time></trkpt>
<trkpt lat="23.38701" lon="107.858609">
<time>2015-09-27T13:47:06Z</time></trkpt>
<trkpt lat="23.38706" lon="107.858519">
<time>2015-09-27T13:47:07Z</time></trkpt>
<trkpt lat="23.387449" lon="107.857587">
<time>2015-09-27T13:47:08Z</time></trkpt>
<trkpt lat="23.387528" lon="107.857397">
<time>2015-09-27T13:47:09Z</time></trkpt>
<trkpt lat="23.387698" lon="107.857016">
<time>2015-09-27T13:47:10Z</time></trkpt>
<trkpt lat="23.387747" lon="107.856906">
<time>2015-09-27T13:47:11Z</time></trkpt>
<trkpt lat="23.387827" lon="107.856795">
<time>2015-09-27T13:47:12Z</time></trkpt>
<trkpt lat="23.387907" lon="107.856695">
<time>2015-09-27T13:47:13Z</time></trkpt>
<trkpt lat="23.389126" lon="107.855814">
<time>2015-09-27T13:47:14Z</time></trkpt>
<trkpt lat="23.389225" lon="107.855703">
<time>2015-09-27T13:47:15Z</time></trkpt>
<trkpt lat="23.389325" lon="107.855603">
<time>2015-09-27T13:47:16Z</time></trkpt>
<trkpt lat="23.389625" lon="107.855172">
<time>2015-09-27T13:47:17Z</time></trkpt>
<trkpt lat="23.389834" lon="107.854872">
<time>2015-09-27T13:47:18Z</time></trkpt>
<trkpt lat="23.389944" lon="107.854711">
<time>2015-09-27T13:47:19Z</time></trkpt>
<trkpt lat="23.390054" lon="107.854591">
<time>2015-09-27T13:47:20Z</time></trkpt>
<trkpt lat="23.390163" lon="107.854521">
<time>2015-09-27T13:47:21Z</time></trkpt>
<trkpt lat="23.390183" lon="107.854511">
<time>2015-09-27T13:47:22Z</time></trkpt>
<trkpt lat="23.390283" lon="107.854451">
<time>2015-09-27T13:47:23Z</time></trkpt>
<trkpt lat="23.390433" lon="107.854391">
<time>2015-09-27T13:47:24Z</time></trkpt>
<trkpt lat="23.391442" lon="107.85399">
<time>2015-09-27T13:47:25Z</time></trkpt>
<trkpt lat="23.391552" lon="107.85396">
<time>2015-09-27T13:47:26Z</time></trkpt>
<trkpt lat="23.392352" lon="107.853709">
<time>2015-09-27T13:47:27Z</time></trkpt>
<trkpt lat="23.392482" lon="107.853649">
<time>2015-09-27T13:47:28Z</time></trkpt>
<trkpt lat="23.392612" lon="107.853569">
<time>2015-09-27T13:47:29Z</time></trkpt>
<trkpt lat="23.392701" lon="107.853469">
<time>2015-09-27T13:47:30Z</time></trkpt>
<trkpt lat="23.392781" lon="107.853349">
<time>2015-09-27T13:47:31Z</time></trkpt>
<trkpt lat="23.392861" lon="107.853168">
<time>2015-09-27T13:47:32Z</time></trkpt>
<trkpt lat="23.39295" lon="107.852838">
<time>2015-09-27T13:47:33Z</time></trkpt>
<trkpt lat="23.39299" lon="107.852527">
<time>2015-09-27T13:47:34Z</time></trkpt>
<trkpt lat="23.393" lon="107.852427">
<time>2015-09-27T13:47:35Z</time></trkpt>
<trkpt lat="23.393029" lon="107.851826">
<time>2015-09-27T13:47:36Z</time></trkpt>
<trkpt lat="23.393019" lon="107.851665">
<time>2015-09-27T13:47:37Z</time></trkpt>
<trkpt lat="23.393008" lon="107.851585">
<time>2015-09-27T13:47:38Z</time></trkpt>
<trkpt lat="23.392988" lon="107.851515">
<time>2015-09-27T13:47:39Z</time></trkpt>
<trkpt lat="23.392968" lon="107.851455">
<time>2015-09-27T13:47:40Z</time></trkpt>
<trkpt lat="23.392948" lon="107.851395">
<time>2015-09-27T13:47:41Z</time></trkpt>
<trkpt lat="23.392918" lon="107.851345">
<time>2015-09-27T13:47:42Z</time></trkpt>
<trkpt lat="23.392878" lon="107.851285">
<time>2015-09-27T13:47:43Z</time></trkpt>
<trkpt lat="23.392828" lon="107.851224">
<time>2015-09-27T13:47:44Z</time></trkpt>
<trkpt lat="23.392768" lon="107.851154">
<time>2015-09-27T13:47:45Z</time></trkpt>
<trkpt lat="23.391997" lon="107.850493">
<time>2015-09-27T13:47:46Z</time></trkpt>
<trkpt lat="23.391887" lon="107.850373">
<time>2015-09-27T13:47:47Z</time></trkpt>
<trkpt lat="23.391796" lon="107.850253">
<time>2015-09-27T13:47:48Z</time></trkpt>
<trkpt lat="23.391736" lon="107.850132">
<time>2015-09-27T13:47:49Z</time></trkpt>
<trkpt lat="23.391666" lon="107.849952">
<time>2015-09-27T13:47:50Z</time></trkpt>
<trkpt lat="23.391425" lon="107.849301">
<time>2015-09-27T13:47:51Z</time></trkpt>
<trkpt lat="23.391345" lon="107.84908">
<time>2015-09-27T13:47:52Z</time></trkpt>
<trkpt lat="23.390772" lon="107.847437">
<time>2015-09-27T13:47:53Z</time></trkpt>
<trkpt lat="23.39033" lon="107.846174">
<time>2015-09-27T13:47:54Z</time></trkpt>
<trkpt lat="23.39027" lon="107.845934">
<time>2015-09-27T13:47:55Z</time></trkpt>
<trkpt lat="23.390219" lon="107.845693">
<time>2015-09-27T13:47:56Z</time></trkpt>
<trkpt lat="23.390199" lon="107.845503">
<time>2015-09-27T13:47:57Z</time></trkpt>
<trkpt lat="23.390218" lon="107.845302">
<time>2015-09-27T13:47:58Z</time></trkpt>
<trkpt lat="23.390258" lon="107.845052">
<time>2015-09-27T13:47:59Z</time></trkpt>
<trkpt lat="23.390357" lon="107.844651">
<time>2015-09-27T13:48:00Z</time></trkpt>
<trkpt lat="23.390636" lon="107.843899">
<time>2015-09-27T13:48:01Z</time></trkpt>
<trkpt lat="23.390855" lon="107.843398">
<time>2015-09-27T13:48:02Z</time></trkpt>
<trkpt lat="23.391154" lon="107.842847">
<time>2015-09-27T13:48:03Z</time></trkpt>
<trkpt lat="23.391722" lon="107.841965">
<time>2015-09-27T13:48:04Z</time></trkpt>
<trkpt lat="23.391912" lon="107.841665">
<time>2015-09-27T13:48:05Z</time></trkpt>
<trkpt lat="23.392011" lon="107.841484">
<time>2015-09-27T13:48:06Z</time></trkpt>
<trkpt lat="23.392141" lon="107.841143">
<time>2015-09-27T13:48:07Z</time></trkpt>
<trkpt lat="23.39234" lon="107.840632">
<time>2015-09-27T13:48:08Z</time></trkpt>
<trkpt lat="23.392629" lon="107.840071">
<time>2015-09-27T13:48:09Z</time></trkpt>
<trkpt lat="23.392978" lon="107.83951">
<time>2015-09-27T13:48:10Z</time></trkpt>
<trkpt lat="23.393097" lon="107.839269">
<time>2015-09-27T13:48:11Z</time></trkpt>
<trkpt lat="23.393177" lon="107.839029">
<time>2015-09-27T13:48:12Z</time></trkpt>
<trkpt lat="23.393207" lon="107.838858">
<time>2015-09-27T13:48:13Z</time></trkpt>
<trkpt lat="23.393216" lon="107.838658">
<time>2015-09-27T13:48:14Z</time></trkpt>
<trkpt lat="23.393206" lon="107.838498">
<time>2015-09-27T13:48:15Z</time></trkpt>
<trkpt lat="23.393206" lon="107.838347">
<time>2015-09-27T13:48:16Z</time></trkpt>
<trkpt lat="23.393215" lon="107.838077">
<time>2015-09-27T13:48:17Z</time></trkpt>
<trkpt lat="23.393215" lon="107.838036">
<time>2015-09-27T13:48:18Z</time></trkpt>
<trkpt lat="23.393482" lon="107.836293">
<time>2015-09-27T13:48:19Z</time></trkpt>
<trkpt lat="23.393729" lon="107.834749">
<time>2015-09-27T13:48:20Z</time></trkpt>
<trkpt lat="23.393798" lon="107.834058">
<time>2015-09-27T13:48:21Z</time></trkpt>
<trkpt lat="23.393827" lon="107.833717">
<time>2015-09-27T13:48:22Z</time></trkpt>
<trkpt lat="23.393836" lon="107.833386">
<time>2015-09-27T13:48:23Z</time></trkpt>
<trkpt lat="23.393795" lon="107.832875">
<time>2015-09-27T13:48:24Z</time></trkpt>
<trkpt lat="23.393238" lon="107.828886">
<time>2015-09-27T13:48:25Z</time></trkpt>
<trkpt lat="23.393217" lon="107.828545">
<time>2015-09-27T13:48:26Z</time></trkpt>
<trkpt lat="23.393207" lon="107.828284">
<time>2015-09-27T13:48:27Z</time></trkpt>
<trkpt lat="23.393207" lon="107.828074">
<time>2015-09-27T13:48:28Z</time></trkpt>
<trkpt lat="23.393236" lon="107.827954">
<time>2015-09-27T13:48:29Z</time></trkpt>
<trkpt lat="23.393266" lon="107.827813">
<time>2015-09-27T13:48:30Z</time></trkpt>
<trkpt lat="23.393306" lon="107.827733">
<time>2015-09-27T13:48:31Z</time></trkpt>
<trkpt lat="23.393396" lon="107.827623">
<time>2015-09-27T13:48:32Z</time></trkpt>
<trkpt lat="23.393775" lon="107.827282">
<time>2015-09-27T13:48:33Z</time></trkpt>
<trkpt lat="23.394154" lon="107.826961">
<time>2015-09-27T13:48:34Z</time></trkpt>
<trkpt lat="23.394494" lon="107.826621">
<time>2015-09-27T13:48:35Z</time></trkpt>
<trkpt lat="23.394833" lon="107.8262">
<time>2015-09-27T13:48:36Z</time></trkpt>
<trkpt lat="23.395322" lon="107.825719">
<time>2015-09-27T13:48:37Z</time></trkpt>
<trkpt lat="23.395531" lon="107.825568">
<time>2015-09-27T13:48:38Z</time></trkpt>
<trkpt lat="23.395771" lon="107.825358">
<time>2015-09-27T13:48:39Z</time></trkpt>
<trkpt lat="23.395951" lon="107.825207">
<time>2015-09-27T13:48:40Z</time></trkpt>
<trkpt lat="23.39612" lon="107.825017">
<time>2015-09-27T13:48:41Z</time></trkpt>
<trkpt lat="23.396749" lon="107.824145">
<time>2015-09-27T13:48:42Z</time></trkpt>
<trkpt lat="23.396918" lon="107.823904">
<time>2015-09-27T13:48:43Z</time></trkpt>
<trkpt lat="23.397167" lon="107.823533">
<time>2015-09-27T13:48:44Z</time></trkpt>
<trkpt lat="23.397337" lon="107.823273">
<time>2015-09-27T13:48:45Z</time></trkpt>
<trkpt lat="23.397417" lon="107.823092">
<time>2015-09-27T13:48:46Z</time></trkpt>
<trkpt lat="23.397476" lon="107.822892">
<time>2015-09-27T13:48:47Z</time></trkpt>
<trkpt lat="23.397486" lon="107.822822">
<time>2015-09-27T13:48:48Z</time></trkpt>
<trkpt lat="23.397496" lon="107.822742">
<time>2015-09-27T13:48:49Z</time></trkpt>
<trkpt lat="23.397525" lon="107.822551">
<time>2015-09-27T13:48:50Z</time></trkpt>
<trkpt lat="23.397554" lon="107.82198">
<time>2015-09-27T13:48:51Z</time></trkpt>
<trkpt lat="23.397603" lon="107.821038">
<time>2015-09-27T13:48:52Z</time></trkpt>
<trkpt lat="23.397592" lon="107.820948">
<time>2015-09-27T13:48:53Z</time></trkpt>
<trkpt lat="23.397562" lon="107.820657">
<time>2015-09-27T13:48:54Z</time></trkpt>
<trkpt lat="23.397361" lon="107.820025">
<time>2015-09-27T13:48:55Z</time></trkpt>
<trkpt lat="23.397039" lon="107.819184">
<time>2015-09-27T13:48:56Z</time></trkpt>
<trkpt lat="23.396959" lon="107.818873">
<time>2015-09-27T13:48:57Z</time></trkpt>
<trkpt lat="23.396938" lon="107.818672">
<time>2015-09-27T13:48:58Z</time></trkpt>
<trkpt lat="23.396948" lon="107.818412">
<time>2015-09-27T13:48:59Z</time></trkpt>
<trkpt lat="23.396957" lon="107.817921">
<time>2015-09-27T13:49:00Z</time></trkpt>
<trkpt lat="23.396936" lon="107.817249">
<time>2015-09-27T13:49:01Z</time></trkpt>
<trkpt lat="23.396814" lon="107.816317">
<time>2015-09-27T13:49:02Z</time></trkpt>
<trkpt lat="23.396743" lon="107.815806">
<time>2015-09-27T13:49:03Z</time></trkpt>
<trkpt lat="23.396632" lon="107.815295">
<time>2015-09-27T13:49:04Z</time></trkpt>
<trkpt lat="23.396572" lon="107.815074">
<time>2015-09-27T13:49:05Z</time></trkpt>
<trkpt lat="23.396511" lon="107.814854">
<time>2015-09-27T13:49:06Z</time></trkpt>
<trkpt lat="23.396451" lon="107.814663">
<time>2015-09-27T13:49:07Z</time></trkpt>
<trkpt lat="23.39639" lon="107.814453">
<time>2015-09-27T13:49:08Z</time></trkpt>
<trkpt lat="23.39633" lon="107.814262">
<time>2015-09-27T13:49:09Z</time></trkpt>
<trkpt lat="23.39627" lon="107.814082">
<time>2015-09-27T13:49:10Z</time></trkpt>
<trkpt lat="23.39624" lon="107.813922">
<time>2015-09-27T13:49:11Z</time></trkpt>
<trkpt lat="23.396209" lon="107.813631">
<time>2015-09-27T13:49:12Z</time></trkpt>
<trkpt lat="23.396188" lon="107.81333">
<time>2015-09-27T13:49:13Z</time></trkpt>
<trkpt lat="23.396148" lon="107.812839">
<time>2015-09-27T13:49:14Z</time></trkpt>
<trkpt lat="23.396117" lon="107.812599">
<time>2015-09-27T13:49:15Z</time></trkpt>
<trkpt lat="23.396087" lon="107.812458">
<time>2015-09-27T13:49:16Z</time></trkpt>
<trkpt lat="23.396057" lon="107.812308">
<time>2015-09-27T13:49:17Z</time></trkpt>
<trkpt lat="23.396016" lon="107.812158">
<time>2015-09-27T13:49:18Z</time></trkpt>
<trkpt lat="23.395976" lon="107.812007">
<time>2015-09-27T13:49:19Z</time></trkpt>
<trkpt lat="23.395926" lon="107.811847">
<time>2015-09-27T13:49:20Z</time></trkpt>
<trkpt lat="23.395875" lon="107.811697">
<time>2015-09-27T13:49:21Z</time></trkpt>
<trkpt lat="23.395825" lon="107.811536">
<time>2015-09-27T13:49:22Z</time></trkpt>
<trkpt lat="23.395775" lon="107.811376">
<time>2015-09-27T13:49:23Z</time></trkpt>
<trkpt lat="23.395715" lon="107.811206">
<time>2015-09-27T13:49:24Z</time></trkpt>
<trkpt lat="23.395674" lon="107.811075">
<time>2015-09-27T13:49:25Z</time></trkpt>
<trkpt lat="23.395644" lon="107.810945">
<time>2015-09-27T13:49:26Z</time></trkpt>
<trkpt lat="23.395463" lon="107.810234">
<time>2015-09-27T13:49:27Z</time></trkpt>
<trkpt lat="23.395332" lon="107.809512">
<time>2015-09-27T13:49:28Z</time></trkpt>
<trkpt lat="23.395311" lon="107.809432">
<time>2015-09-27T13:49:29Z</time></trkpt>
<trkpt lat="23.395291" lon="107.809352">
<time>2015-09-27T13:49:30Z</time></trkpt>
<trkpt lat="23.395281" lon="107.809271">
<time>2015-09-27T13:49:31Z</time></trkpt>
<trkpt lat="23.395261" lon="107.809201">
<time>2015-09-27T13:49:32Z</time></trkpt>
<trkpt lat="23.395099" lon="107.808039">
<time>2015-09-27T13:49:33Z</time></trkpt>
<trkpt lat="23.395089" lon="107.807858">
<time>2015-09-27T13:49:34Z</time></trkpt>
<trkpt lat="23.395088" lon="107.807658">
<time>2015-09-27T13:49:35Z</time></trkpt>
<trkpt lat="23.395098" lon="107.807558">
<time>2015-09-27T13:49:36Z</time></trkpt>
<trkpt lat="23.395128" lon="107.807458">
<time>2015-09-27T13:49:37Z</time></trkpt>
<trkpt lat="23.395158" lon="107.807367">
<time>2015-09-27T13:49:38Z</time></trkpt>
<trkpt lat="23.395198" lon="107.807297">
<time>2015-09-27T13:49:39Z</time></trkpt>
<trkpt lat="23.395247" lon="107.807197">
<time>2015-09-27T13:49:40Z</time></trkpt>
<trkpt lat="23.395347" lon="107.807037">
<time>2015-09-27T13:49:41Z</time></trkpt>
<trkpt lat="23.395537" lon="107.806786">
<time>2015-09-27T13:49:42Z</time></trkpt>
<trkpt lat="23.395706" lon="107.806536">
<time>2015-09-27T13:49:43Z</time></trkpt>
<trkpt lat="23.395886" lon="107.806265">
<time>2015-09-27T13:49:44Z</time></trkpt>
<trkpt lat="23.396364" lon="107.805313">
<time>2015-09-27T13:49:45Z</time></trkpt>
<trkpt lat="23.396733" lon="107.804591">
<time>2015-09-27T13:49:46Z</time></trkpt>
<trkpt lat="23.396812" lon="107.804351">
<time>2015-09-27T13:49:47Z</time></trkpt>
<trkpt lat="23.396872" lon="107.80412">
<time>2015-09-27T13:49:48Z</time></trkpt>
<trkpt lat="23.396911" lon="107.80389">
<time>2015-09-27T13:49:49Z</time></trkpt>
<trkpt lat="23.396961" lon="107.803559">
<time>2015-09-27T13:49:50Z</time></trkpt>
<trkpt lat="23.39701" lon="107.803108">
<time>2015-09-27T13:49:51Z</time></trkpt>
<trkpt lat="23.397127" lon="107.801635">
<time>2015-09-27T13:49:52Z</time></trkpt>
<trkpt lat="23.397285" lon="107.800172">
<time>2015-09-27T13:49:53Z</time></trkpt>
<trkpt lat="23.39758" lon="107.797226">
<time>2015-09-27T13:49:54Z</time></trkpt>
<trkpt lat="23.3976" lon="107.796996">
<time>2015-09-27T13:49:55Z</time></trkpt>
<trkpt lat="23.397639" lon="107.796785">
<time>2015-09-27T13:49:56Z</time></trkpt>
<trkpt lat="23.397699" lon="107.796585">
<time>2015-09-27T13:49:57Z</time></trkpt>
<trkpt lat="23.397759" lon="107.796405">
<time>2015-09-27T13:49:58Z</time></trkpt>
<trkpt lat="23.397828" lon="107.796214">
<time>2015-09-27T13:49:59Z</time></trkpt>
<trkpt lat="23.397878" lon="107.796024">
<time>2015-09-27T13:50:00Z</time></trkpt>
<trkpt lat="23.397908" lon="107.795834">
<time>2015-09-27T13:50:01Z</time></trkpt>
<trkpt lat="23.397908" lon="107.795793">
<time>2015-09-27T13:50:02Z</time></trkpt>
<trkpt lat="23.397907" lon="107.795643">
<time>2015-09-27T13:50:03Z</time></trkpt>
<trkpt lat="23.397897" lon="107.795473">
<time>2015-09-27T13:50:04Z</time></trkpt>
<trkpt lat="23.397847" lon="107.795262">
<time>2015-09-27T13:50:05Z</time></trkpt>
<trkpt lat="23.397797" lon="107.795062">
<time>2015-09-27T13:50:06Z</time></trkpt>
<trkpt lat="23.397686" lon="107.794681">
<time>2015-09-27T13:50:07Z</time></trkpt>
<trkpt lat="23.397555" lon="107.794291">
<time>2015-09-27T13:50:08Z</time></trkpt>
<trkpt lat="23.397345" lon="107.79377">
<time>2015-09-27T13:50:09Z</time></trkpt>
<trkpt lat="23.396231" lon="107.791415">
<time>2015-09-27T13:50:10Z</time></trkpt>
<trkpt lat="23.396081" lon="107.791105">
<time>2015-09-27T13:50:11Z</time></trkpt>
<trkpt lat="23.396041" lon="107.790995">
<time>2015-09-27T13:50:12Z</time></trkpt>
<trkpt lat="23.39597" lon="107.790804">
<time>2015-09-27T13:50:13Z</time></trkpt>
<trkpt lat="23.39594" lon="107.790634">
<time>2015-09-27T13:50:14Z</time></trkpt>
<trkpt lat="23.39594" lon="107.790413">
<time>2015-09-27T13:50:15Z</time></trkpt>
<trkpt lat="23.395939" lon="107.790173">
<time>2015-09-27T13:50:16Z</time></trkpt>
<trkpt lat="23.395959" lon="107.789933">
<time>2015-09-27T13:50:17Z</time></trkpt>
<trkpt lat="23.395999" lon="107.789702">
<time>2015-09-27T13:50:18Z</time></trkpt>
<trkpt lat="23.396068" lon="107.789482">
<time>2015-09-27T13:50:19Z</time></trkpt>
<trkpt lat="23.396188" lon="107.789271">
<time>2015-09-27T13:50:20Z</time></trkpt>
<trkpt lat="23.396328" lon="107.789081">
<time>2015-09-27T13:50:21Z</time></trkpt>
<trkpt lat="23.396468" lon="107.788901">
<time>2015-09-27T13:50:22Z</time></trkpt>
<trkpt lat="23.396617" lon="107.78873">
<time>2015-09-27T13:50:23Z</time></trkpt>
<trkpt lat="23.396777" lon="107.78857">
<time>2015-09-27T13:50:24Z</time></trkpt>
<trkpt lat="23.396857" lon="107.78846">
<time>2015-09-27T13:50:25Z</time></trkpt>
<trkpt lat="23.396917" lon="107.78836">
<time>2015-09-27T13:50:26Z</time></trkpt>
<trkpt lat="23.396986" lon="107.788179">
<time>2015-09-27T13:50:27Z</time></trkpt>
<trkpt lat="23.397046" lon="107.787959">
<time>2015-09-27T13:50:28Z</time></trkpt>
<trkpt lat="23.397096" lon="107.787729">
<time>2015-09-27T13:50:29Z</time></trkpt>
<trkpt lat="23.397135" lon="107.787508">
<time>2015-09-27T13:50:30Z</time></trkpt>
<trkpt lat="23.397324" lon="107.786356">
<time>2015-09-27T13:50:31Z</time></trkpt>
<trkpt lat="23.397393" lon="107.785946">
<time>2015-09-27T13:50:32Z</time></trkpt>
<trkpt lat="23.397443" lon="107.785725">
<time>2015-09-27T13:50:33Z</time></trkpt>
<trkpt lat="23.397493" lon="107.785515">
<time>2015-09-27T13:50:34Z</time></trkpt>
<trkpt lat="23.397592" lon="107.785274">
<time>2015-09-27T13:50:35Z</time></trkpt>
<trkpt lat="23.397692" lon="107.785084">
<time>2015-09-27T13:50:36Z</time></trkpt>
<trkpt lat="23.397812" lon="107.784924">
<time>2015-09-27T13:50:37Z</time></trkpt>
<trkpt lat="23.397892" lon="107.784804">
<time>2015-09-27T13:50:38Z</time></trkpt>
<trkpt lat="23.397942" lon="107.784724">
<time>2015-09-27T13:50:39Z</time></trkpt>
<trkpt lat="23.398061" lon="107.784533">
<time>2015-09-27T13:50:40Z</time></trkpt>
<trkpt lat="23.398151" lon="107.784353">
<time>2015-09-27T13:50:41Z</time></trkpt>
<trkpt lat="23.398201" lon="107.784203">
<time>2015-09-27T13:50:42Z</time></trkpt>
<trkpt lat="23.398241" lon="107.783992">
<time>2015-09-27T13:50:43Z</time></trkpt>
<trkpt lat="23.39829" lon="107.783672">
<time>2015-09-27T13:50:44Z</time></trkpt>
<trkpt lat="23.39836" lon="107.783451">
<time>2015-09-27T13:50:45Z</time></trkpt>
<trkpt lat="23.398499" lon="107.783111">
<time>2015-09-27T13:50:46Z</time></trkpt>
<trkpt lat="23.399696" lon="107.780557">
<time>2015-09-27T13:50:47Z</time></trkpt>
<trkpt lat="23.399796" lon="107.780357">
<time>2015-09-27T13:50:48Z</time></trkpt>
<trkpt lat="23.399865" lon="107.780126">
<time>2015-09-27T13:50:49Z</time></trkpt>
<trkpt lat="23.399945" lon="107.779866">
<time>2015-09-27T13:50:50Z</time></trkpt>
<trkpt lat="23.400015" lon="107.779575">
<time>2015-09-27T13:50:51Z</time></trkpt>
<trkpt lat="23.400074" lon="107.779265">
<time>2015-09-27T13:50:52Z</time></trkpt>
<trkpt lat="23.400144" lon="107.778955">
<time>2015-09-27T13:50:53Z</time></trkpt>
<trkpt lat="23.400234" lon="107.778634">
<time>2015-09-27T13:50:54Z</time></trkpt>
<trkpt lat="23.400313" lon="107.778324">
<time>2015-09-27T13:50:55Z</time></trkpt>
<trkpt lat="23.400393" lon="107.778023">
<time>2015-09-27T13:50:56Z</time></trkpt>
<trkpt lat="23.400473" lon="107.777723">
<time>2015-09-27T13:50:57Z</time></trkpt>
<trkpt lat="23.400542" lon="107.777442">
<time>2015-09-27T13:50:58Z</time></trkpt>
<trkpt lat="23.400602" lon="107.777152">
<time>2015-09-27T13:50:59Z</time></trkpt>
<trkpt lat="23.400642" lon="107.776882">
<time>2015-09-27T13:51:00Z</time></trkpt>
<trkpt lat="23.400711" lon="107.776601">
<time>2015-09-27T13:51:01Z</time></trkpt>
<trkpt lat="23.400801" lon="107.776351">
<time>2015-09-27T13:51:02Z</time></trkpt>
<trkpt lat="23.400921" lon="107.77612">
<time>2015-09-27T13:51:03Z</time></trkpt>
<trkpt lat="23.402129" lon="107.774198">
<time>2015-09-27T13:51:04Z</time></trkpt>
<trkpt lat="23.402398" lon="107.773747">
<time>2015-09-27T13:51:05Z</time></trkpt>
<trkpt lat="23.403077" lon="107.772486">
<time>2015-09-27T13:51:06Z</time></trkpt>
<trkpt lat="23.403316" lon="107.771935">
<time>2015-09-27T13:51:07Z</time></trkpt>
<trkpt lat="23.403446" lon="107.771705">
<time>2015-09-27T13:51:08Z</time></trkpt>
<trkpt lat="23.403586" lon="107.771474">
<time>2015-09-27T13:51:09Z</time></trkpt>
<trkpt lat="23.403766" lon="107.771284">
<time>2015-09-27T13:51:10Z</time></trkpt>
<trkpt lat="23.403975" lon="107.771114">
<time>2015-09-27T13:51:11Z</time></trkpt>
<trkpt lat="23.404185" lon="107.770934">
<time>2015-09-27T13:51:12Z</time></trkpt>
<trkpt lat="23.404395" lon="107.770744">
<time>2015-09-27T13:51:13Z</time></trkpt>
<trkpt lat="23.404964" lon="107.770223">
<time>2015-09-27T13:51:14Z</time></trkpt>
<trkpt lat="23.405444" lon="107.769782">
<time>2015-09-27T13:51:15Z</time></trkpt>
<trkpt lat="23.405614" lon="107.769592">
<time>2015-09-27T13:51:16Z</time></trkpt>
<trkpt lat="23.405834" lon="107.769352">
<time>2015-09-27T13:51:17Z</time></trkpt>
<trkpt lat="23.406253" lon="107.768861">
<time>2015-09-27T13:51:18Z</time></trkpt>
<trkpt lat="23.406633" lon="107.768341">
<time>2015-09-27T13:51:19Z</time></trkpt>
<trkpt lat="23.406782" lon="107.768151">
<time>2015-09-27T13:51:20Z</time></trkpt>
<trkpt lat="23.406952" lon="107.76799">
<time>2015-09-27T13:51:21Z</time></trkpt>
<trkpt lat="23.407162" lon="107.76789">
<time>2015-09-27T13:51:22Z</time></trkpt>
<trkpt lat="23.407412" lon="107.76782">
<time>2015-09-27T13:51:23Z</time></trkpt>
<trkpt lat="23.407662" lon="107.76775">
<time>2015-09-27T13:51:24Z</time></trkpt>
<trkpt lat="23.407912" lon="107.76767">
<time>2015-09-27T13:51:25Z</time></trkpt>
<trkpt lat="23.408222" lon="107.76759">
<time>2015-09-27T13:51:26Z</time></trkpt>
<trkpt lat="23.408462" lon="107.76751">
<time>2015-09-27T13:51:27Z</time></trkpt>
<trkpt lat="23.408702" lon="107.76744">
<time>2015-09-27T13:51:28Z</time></trkpt>
<trkpt lat="23.408941" lon="107.76737">
<time>2015-09-27T13:51:29Z</time></trkpt>
<trkpt lat="23.409181" lon="107.767269">
<time>2015-09-27T13:51:30Z</time></trkpt>
<trkpt lat="23.409361" lon="107.767169">
<time>2015-09-27T13:51:31Z</time></trkpt>
<trkpt lat="23.409391" lon="107.767149">
<time>2015-09-27T13:51:32Z</time></trkpt>
<trkpt lat="23.409601" lon="107.767019">
<time>2015-09-27T13:51:33Z</time></trkpt>
<trkpt lat="23.409791" lon="107.766859">
<time>2015-09-27T13:51:34Z</time></trkpt>
<trkpt lat="23.409961" lon="107.766669">
<time>2015-09-27T13:51:35Z</time></trkpt>
<trkpt lat="23.410111" lon="107.766479">
<time>2015-09-27T13:51:36Z</time></trkpt>
<trkpt lat="23.41025" lon="107.766278">
<time>2015-09-27T13:51:37Z</time></trkpt>
<trkpt lat="23.41035" lon="107.766068">
<time>2015-09-27T13:51:38Z</time></trkpt>
<trkpt lat="23.4104" lon="107.765868">
<time>2015-09-27T13:51:39Z</time></trkpt>
<trkpt lat="23.41042" lon="107.765638">
<time>2015-09-27T13:51:40Z</time></trkpt>
<trkpt lat="23.41046" lon="107.765408">
<time>2015-09-27T13:51:41Z</time></trkpt>
<trkpt lat="23.4105" lon="107.765187">
<time>2015-09-27T13:51:42Z</time></trkpt>
<trkpt lat="23.410939" lon="107.763776">
<time>2015-09-27T13:51:43Z</time></trkpt>
<trkpt lat="23.411018" lon="107.763516">
<time>2015-09-27T13:51:44Z</time></trkpt>
<trkpt lat="23.411108" lon="107.763235">
<time>2015-09-27T13:51:45Z</time></trkpt>
<trkpt lat="23.411198" lon="107.762945">
<time>2015-09-27T13:51:46Z</time></trkpt>
<trkpt lat="23.411278" lon="107.762655">
<time>2015-09-27T13:51:47Z</time></trkpt>
<trkpt lat="23.411368" lon="107.762365">
<time>2015-09-27T13:51:48Z</time></trkpt>
<trkpt lat="23.411437" lon="107.762074">
<time>2015-09-27T13:51:49Z</time></trkpt>
<trkpt lat="23.411507" lon="107.761784">
<time>2015-09-27T13:51:50Z</time></trkpt>
<trkpt lat="23.412055" lon="107.758302">
<time>2015-09-27T13:51:51Z</time></trkpt>
<trkpt lat="23.412255" lon="107.757141">
<time>2015-09-27T13:51:52Z</time></trkpt>
<trkpt lat="23.412325" lon="107.756791">
<time>2015-09-27T13:51:53Z</time></trkpt>
<trkpt lat="23.412454" lon="107.75595">
<time>2015-09-27T13:51:54Z</time></trkpt>
<trkpt lat="23.412684" lon="107.75498">
<time>2015-09-27T13:51:55Z</time></trkpt>
<trkpt lat="23.413014" lon="107.753779">
<time>2015-09-27T13:51:56Z</time></trkpt>
<trkpt lat="23.413063" lon="107.753489">
<time>2015-09-27T13:51:57Z</time></trkpt>
<trkpt lat="23.413113" lon="107.753199">
<time>2015-09-27T13:51:58Z</time></trkpt>
<trkpt lat="23.413163" lon="107.752818">
<time>2015-09-27T13:51:59Z</time></trkpt>
<trkpt lat="23.413173" lon="107.752618">
<time>2015-09-27T13:52:00Z</time></trkpt>
<trkpt lat="23.413173" lon="107.752458">
<time>2015-09-27T13:52:01Z</time></trkpt>
<trkpt lat="23.413163" lon="107.752408">
<time>2015-09-27T13:52:02Z</time></trkpt>
<trkpt lat="23.413153" lon="107.752188">
<time>2015-09-27T13:52:03Z</time></trkpt>
<trkpt lat="23.413093" lon="107.751748">
<time>2015-09-27T13:52:04Z</time></trkpt>
<trkpt lat="23.412953" lon="107.750558">
<time>2015-09-27T13:52:05Z</time></trkpt>
<trkpt lat="23.412883" lon="107.750007">
<time>2015-09-27T13:52:06Z</time></trkpt>
<trkpt lat="23.412843" lon="107.749567">
<time>2015-09-27T13:52:07Z</time></trkpt>
<trkpt lat="23.412833" lon="107.749237">
<time>2015-09-27T13:52:08Z</time></trkpt>
<trkpt lat="23.412982" lon="107.745726">
<time>2015-09-27T13:52:09Z</time></trkpt>
<trkpt lat="23.412972" lon="107.745506">
<time>2015-09-27T13:52:10Z</time></trkpt>
<trkpt lat="23.412942" lon="107.745306">
<time>2015-09-27T13:52:11Z</time></trkpt>
<trkpt lat="23.412882" lon="107.745006">
<time>2015-09-27T13:52:12Z</time></trkpt>
<trkpt lat="23.412513" lon="107.743596">
<time>2015-09-27T13:52:13Z</time></trkpt>
<trkpt lat="23.412433" lon="107.743286">
<time>2015-09-27T13:52:14Z</time></trkpt>
<trkpt lat="23.412343" lon="107.742946">
<time>2015-09-27T13:52:15Z</time></trkpt>
<trkpt lat="23.412273" lon="107.742756">
<time>2015-09-27T13:52:16Z</time></trkpt>
<trkpt lat="23.412193" lon="107.742556">
<time>2015-09-27T13:52:17Z</time></trkpt>
<trkpt lat="23.412113" lon="107.742436">
<time>2015-09-27T13:52:18Z</time></trkpt>
<trkpt lat="23.411973" lon="107.742266">
<time>2015-09-27T13:52:19Z</time></trkpt>
<trkpt lat="23.411893" lon="107.742176">
<time>2015-09-27T13:52:20Z</time></trkpt>
<trkpt lat="23.411573" lon="107.741796">
<time>2015-09-27T13:52:21Z</time></trkpt>
<trkpt lat="23.411393" lon="107.741536">
<time>2015-09-27T13:52:22Z</time></trkpt>
<trkpt lat="23.411303" lon="107.741376">
<time>2015-09-27T13:52:23Z</time></trkpt>
<trkpt lat="23.411243" lon="107.741246">
<time>2015-09-27T13:52:24Z</time></trkpt>
<trkpt lat="23.411203" lon="107.741116">
<time>2015-09-27T13:52:25Z</time></trkpt>
<trkpt lat="23.411183" lon="107.740986">
<time>2015-09-27T13:52:26Z</time></trkpt>
<trkpt lat="23.411173" lon="107.740806">
<time>2015-09-27T13:52:27Z</time></trkpt>
<trkpt lat="23.411173" lon="107.740586">
<time>2015-09-27T13:52:28Z</time></trkpt>
<trkpt lat="23.411153" lon="107.740426">
<time>2015-09-27T13:52:29Z</time></trkpt>
<trkpt lat="23.411113" lon="107.740266">
<time>2015-09-27T13:52:30Z</time></trkpt>
<trkpt lat="23.411073" lon="107.740166">
<time>2015-09-27T13:52:31Z</time></trkpt>
<trkpt lat="23.411003" lon="107.740036">
<time>2015-09-27T13:52:32Z</time></trkpt>
<trkpt lat="23.410923" lon="107.739906">
<time>2015-09-27T13:52:33Z</time></trkpt>
<trkpt lat="23.410794" lon="107.739776">
<time>2015-09-27T13:52:34Z</time></trkpt>
<trkpt lat="23.410654" lon="107.739646">
<time>2015-09-27T13:52:35Z</time></trkpt>
<trkpt lat="23.409894" lon="107.739006">
<time>2015-09-27T13:52:36Z</time></trkpt>
<trkpt lat="23.409674" lon="107.738726">
<time>2015-09-27T13:52:37Z</time></trkpt>
<trkpt lat="23.409554" lon="107.738577">
<time>2015-09-27T13:52:38Z</time></trkpt>
<trkpt lat="23.409434" lon="107.738387">
<time>2015-09-27T13:52:39Z</time></trkpt>
<trkpt lat="23.409394" lon="107.738297">
<time>2015-09-27T13:52:40Z</time></trkpt>
<trkpt lat="23.409374" lon="107.738257">
<time>2015-09-27T13:52:41Z</time></trkpt>
<trkpt lat="23.409334" lon="107.738127">
<time>2015-09-27T13:52:42Z</time></trkpt>
<trkpt lat="23.409314" lon="107.738007">
<time>2015-09-27T13:52:43Z</time></trkpt>
<trkpt lat="23.409324" lon="107.737887">
<time>2015-09-27T13:52:44Z</time></trkpt>
<trkpt lat="23.409334" lon="107.737767">
<time>2015-09-27T13:52:45Z</time></trkpt>
<trkpt lat="23.409374" lon="107.737597">
<time>2015-09-27T13:52:46Z</time></trkpt>
<trkpt lat="23.409474" lon="107.737357">
<time>2015-09-27T13:52:47Z</time></trkpt>
<trkpt lat="23.409725" lon="107.736647">
<time>2015-09-27T13:52:48Z</time></trkpt>
<trkpt lat="23.410375" lon="107.735087">
<time>2015-09-27T13:52:49Z</time></trkpt>
<trkpt lat="23.410505" lon="107.734767">
<time>2015-09-27T13:52:50Z</time></trkpt>
<trkpt lat="23.410896" lon="107.733918">
<time>2015-09-27T13:52:51Z</time></trkpt>
<trkpt lat="23.411226" lon="107.733218">
<time>2015-09-27T13:52:52Z</time></trkpt>
<trkpt lat="23.411346" lon="107.733018">
<time>2015-09-27T13:52:53Z</time></trkpt>
<trkpt lat="23.411646" lon="107.732668">
<time>2015-09-27T13:52:54Z</time></trkpt>
<trkpt lat="23.412296" lon="107.731988">
<time>2015-09-27T13:52:55Z</time></trkpt>
<trkpt lat="23.413147" lon="107.731099">
<time>2015-09-27T13:52:56Z</time></trkpt>
<trkpt lat="23.414027" lon="107.730159">
<time>2015-09-27T13:52:57Z</time></trkpt>
<trkpt lat="23.414137" lon="107.730039">
<time>2015-09-27T13:52:58Z</time></trkpt>
<trkpt lat="23.414197" lon="107.729969">
<time>2015-09-27T13:52:59Z</time></trkpt>
<trkpt lat="23.414297" lon="107.729789">
<time>2015-09-27T13:53:00Z</time></trkpt>
<trkpt lat="23.414367" lon="107.729589">
<time>2015-09-27T13:53:01Z</time></trkpt>
<trkpt lat="23.414758" lon="107.7286">
<time>2015-09-27T13:53:02Z</time></trkpt>
<trkpt lat="23.415128" lon="107.72791">
<time>2015-09-27T13:53:03Z</time></trkpt>
<trkpt lat="23.415789" lon="107.726801">
<time>2015-09-27T13:53:04Z</time></trkpt>
<trkpt lat="23.416089" lon="107.726301">
<time>2015-09-27T13:53:05Z</time></trkpt>
<trkpt lat="23.41656" lon="107.725502">
<time>2015-09-27T13:53:06Z</time></trkpt>
<trkpt lat="23.41667" lon="107.725332">
<time>2015-09-27T13:53:07Z</time></trkpt>
<trkpt lat="23.41691" lon="107.724942">
<time>2015-09-27T13:53:08Z</time></trkpt>
<trkpt lat="23.41695" lon="107.724872">
<time>2015-09-27T13:53:09Z</time></trkpt>
<trkpt lat="23.417181" lon="107.724542">
<time>2015-09-27T13:53:10Z</time></trkpt>
<trkpt lat="23.417491" lon="107.724113">
<time>2015-09-27T13:53:11Z</time></trkpt>
<trkpt lat="23.417681" lon="107.723853">
<time>2015-09-27T13:53:12Z</time></trkpt>
<trkpt lat="23.417781" lon="107.723713">
<time>2015-09-27T13:53:13Z</time></trkpt>
<trkpt lat="23.417841" lon="107.723603">
<time>2015-09-27T13:53:14Z</time></trkpt>
<trkpt lat="23.417911" lon="107.723463">
<time>2015-09-27T13:53:15Z</time></trkpt>
<trkpt lat="23.418002" lon="107.723243">
<time>2015-09-27T13:53:16Z</time></trkpt>
<trkpt lat="23.418272" lon="107.722514">
<time>2015-09-27T13:53:17Z</time></trkpt>
<trkpt lat="23.418332" lon="107.722344">
<time>2015-09-27T13:53:18Z</time></trkpt>
<trkpt lat="23.418402" lon="107.722204">
<time>2015-09-27T13:53:19Z</time></trkpt>
<trkpt lat="23.418472" lon="107.722074">
<time>2015-09-27T13:53:20Z</time></trkpt>
<trkpt lat="23.418623" lon="107.721844">
<time>2015-09-27T13:53:21Z</time></trkpt>
<trkpt lat="23.418733" lon="107.721644">
<time>2015-09-27T13:53:22Z</time></trkpt>
<trkpt lat="23.418813" lon="107.721475">
<time>2015-09-27T13:53:23Z</time></trkpt>
<trkpt lat="23.418883" lon="107.721335">
<time>2015-09-27T13:53:24Z</time></trkpt>
<trkpt lat="23.418943" lon="107.721175">
<time>2015-09-27T13:53:25Z</time></trkpt>
<trkpt lat="23.419505" lon="107.719666">
<time>2015-09-27T13:53:26Z</time></trkpt>
<trkpt lat="23.419635" lon="107.719346">
<time>2015-09-27T13:53:27Z</time></trkpt>
<trkpt lat="23.419665" lon="107.719286">
<time>2015-09-27T13:53:28Z</time></trkpt>
<trkpt lat="23.419715" lon="107.719216">
<time>2015-09-27T13:53:29Z</time></trkpt>
<trkpt lat="23.419775" lon="107.719137">
<time>2015-09-27T13:53:30Z</time></trkpt>
<trkpt lat="23.420105" lon="107.718727">
<time>2015-09-27T13:53:31Z</time></trkpt>
<trkpt lat="23.420526" lon="107.718127">
<time>2015-09-27T13:53:32Z</time></trkpt>
<trkpt lat="23.420696" lon="107.717898">
<time>2015-09-27T13:53:33Z</time></trkpt>
<trkpt lat="23.420796" lon="107.717778">
<time>2015-09-27T13:53:34Z</time></trkpt>
<trkpt lat="23.420876" lon="107.717708">
<time>2015-09-27T13:53:35Z</time></trkpt>
<trkpt lat="23.421066" lon="107.717558">
<time>2015-09-27T13:53:36Z</time></trkpt>
<trkpt lat="23.421637" lon="107.717138">
<time>2015-09-27T13:53:37Z</time></trkpt>
<trkpt lat="23.421787" lon="107.717048">
<time>2015-09-27T13:53:38Z</time></trkpt>
<trkpt lat="23.421887" lon="107.717008">
<time>2015-09-27T13:53:39Z</time></trkpt>
<trkpt lat="23.421997" lon="107.716978">
<time>2015-09-27T13:53:40Z</time></trkpt>
<trkpt lat="23.422237" lon="107.716909">
<time>2015-09-27T13:53:41Z</time></trkpt>
<trkpt lat="23.422947" lon="107.716709">
<time>2015-09-27T13:53:42Z</time></trkpt>
<trkpt lat="23.423147" lon="107.716659">
<time>2015-09-27T13:53:43Z</time></trkpt>
<trkpt lat="23.423287" lon="107.716599">
<time>2015-09-27T13:53:44Z</time></trkpt>
<trkpt lat="23.423397" lon="107.716529">
<time>2015-09-27T13:53:45Z</time></trkpt>
<trkpt lat="23.423487" lon="107.716459">
<time>2015-09-27T13:53:46Z</time></trkpt>
<trkpt lat="23.423547" lon="107.716379">
<time>2015-09-27T13:53:47Z</time></trkpt>
<trkpt lat="23.423597" lon="107.716309">
<time>2015-09-27T13:53:48Z</time></trkpt>
<trkpt lat="23.423627" lon="107.716249">
<time>2015-09-27T13:53:49Z</time></trkpt>
<trkpt lat="23.423638" lon="107.716229">
<time>2015-09-27T13:53:50Z</time></trkpt>
<trkpt lat="23.423658" lon="107.716139">
<time>2015-09-27T13:53:51Z</time></trkpt>
<trkpt lat="23.423678" lon="107.716019">
<time>2015-09-27T13:53:52Z</time></trkpt>
<trkpt lat="23.423698" lon="107.71587">
<time>2015-09-27T13:53:53Z</time></trkpt>
<trkpt lat="23.423708" lon="107.71546">
<time>2015-09-27T13:53:54Z</time></trkpt>
<trkpt lat="23.423719" lon="107.71513">
<time>2015-09-27T13:53:55Z</time></trkpt>
<trkpt lat="23.423739" lon="107.715">
<time>2015-09-27T13:53:56Z</time></trkpt>
<trkpt lat="23.423759" lon="107.714891">
<time>2015-09-27T13:53:57Z</time></trkpt>
<trkpt lat="23.423779" lon="107.714791">
<time>2015-09-27T13:53:58Z</time></trkpt>
<trkpt lat="23.423819" lon="107.714691">
<time>2015-09-27T13:53:59Z</time></trkpt>
<trkpt lat="23.423879" lon="107.714581">
<time>2015-09-27T13:54:00Z</time></trkpt>
<trkpt lat="23.423929" lon="107.714481">
<time>2015-09-27T13:54:01Z</time></trkpt>
<trkpt lat="23.423999" lon="107.714391">
<time>2015-09-27T13:54:02Z</time></trkpt>
<trkpt lat="23.42407" lon="107.714291">
<time>2015-09-27T13:54:03Z</time></trkpt>
<trkpt lat="23.42417" lon="107.714171">
<time>2015-09-27T13:54:04Z</time></trkpt>
<trkpt lat="23.42437" lon="107.713942">
<time>2015-09-27T13:54:05Z</time></trkpt>
<trkpt lat="23.42471" lon="107.713522">
<time>2015-09-27T13:54:06Z</time></trkpt>
<trkpt lat="23.425301" lon="107.712723">
<time>2015-09-27T13:54:07Z</time></trkpt>
<trkpt lat="23.425522" lon="107.712483">
<time>2015-09-27T13:54:08Z</time></trkpt>
<trkpt lat="23.425782" lon="107.712233">
<time>2015-09-27T13:54:09Z</time></trkpt>
<trkpt lat="23.425972" lon="107.712044">
<time>2015-09-27T13:54:10Z</time></trkpt>
<trkpt lat="23.426032" lon="107.711964">
<time>2015-09-27T13:54:11Z</time></trkpt>
<trkpt lat="23.426092" lon="107.711894">
<time>2015-09-27T13:54:12Z</time></trkpt>
<trkpt lat="23.426162" lon="107.711794">
<time>2015-09-27T13:54:13Z</time></trkpt>
<trkpt lat="23.426202" lon="107.711724">
<time>2015-09-27T13:54:14Z</time></trkpt>
<trkpt lat="23.426242" lon="107.711644">
<time>2015-09-27T13:54:15Z</time></trkpt>
<trkpt lat="23.426283" lon="107.711564">
<time>2015-09-27T13:54:16Z</time></trkpt>
<trkpt lat="23.426313" lon="107.711474">
<time>2015-09-27T13:54:17Z</time></trkpt>
<trkpt lat="23.426343" lon="107.711384">
<time>2015-09-27T13:54:18Z</time></trkpt>
<trkpt lat="23.426413" lon="107.711115">
<time>2015-09-27T13:54:19Z</time></trkpt>
<trkpt lat="23.426473" lon="107.710795">
<time>2015-09-27T13:54:20Z</time></trkpt>
<trkpt lat="23.426564" lon="107.710446">
<time>2015-09-27T13:54:21Z</time></trkpt>
<trkpt lat="23.426624" lon="107.710086">
<time>2015-09-27T13:54:22Z</time></trkpt>
<trkpt lat="23.426675" lon="107.709776">
<time>2015-09-27T13:54:23Z</time></trkpt>
<trkpt lat="23.426695" lon="107.709597">
<time>2015-09-27T13:54:24Z</time></trkpt>
<trkpt lat="23.426776" lon="107.708738">
<time>2015-09-27T13:54:25Z</time></trkpt>
<trkpt lat="23.426888" lon="107.707459">
<time>2015-09-27T13:54:26Z</time></trkpt>
<trkpt lat="23.427" lon="107.706091">
<time>2015-09-27T13:54:27Z</time></trkpt>
<trkpt lat="23.427071" lon="107.704893">
<time>2015-09-27T13:54:28Z</time></trkpt>
<trkpt lat="23.427072" lon="107.704653">
<time>2015-09-27T13:54:29Z</time></trkpt>
<trkpt lat="23.427072" lon="107.704603">
<time>2015-09-27T13:54:30Z</time></trkpt>
<trkpt lat="23.427062" lon="107.704523">
<time>2015-09-27T13:54:31Z</time></trkpt>
<trkpt lat="23.427012" lon="107.704393">
<time>2015-09-27T13:54:32Z</time></trkpt>
<trkpt lat="23.426962" lon="107.704244">
<time>2015-09-27T13:54:33Z</time></trkpt>
<trkpt lat="23.426892" lon="107.704104">
<time>2015-09-27T13:54:34Z</time></trkpt>
<trkpt lat="23.426813" lon="107.703974">
<time>2015-09-27T13:54:35Z</time></trkpt>
<trkpt lat="23.426683" lon="107.703814">
<time>2015-09-27T13:54:36Z</time></trkpt>
<trkpt lat="23.426024" lon="107.702926">
<time>2015-09-27T13:54:37Z</time></trkpt>
<trkpt lat="23.425585" lon="107.702327">
<time>2015-09-27T13:54:38Z</time></trkpt>
<trkpt lat="23.424587" lon="107.700979">
<time>2015-09-27T13:54:39Z</time></trkpt>
<trkpt lat="23.42316" lon="107.699032">
<time>2015-09-27T13:54:40Z</time></trkpt>
<trkpt lat="23.422522" lon="107.698173">
<time>2015-09-27T13:54:41Z</time></trkpt>
<trkpt lat="23.422163" lon="107.697694">
<time>2015-09-27T13:54:42Z</time></trkpt>
<trkpt lat="23.421364" lon="107.696586">
<time>2015-09-27T13:54:43Z</time></trkpt>
<trkpt lat="23.420886" lon="107.695937">
<time>2015-09-27T13:54:44Z</time></trkpt>
<trkpt lat="23.420716" lon="107.695697">
<time>2015-09-27T13:54:45Z</time></trkpt>
<trkpt lat="23.420516" lon="107.695468">
<time>2015-09-27T13:54:46Z</time></trkpt>
<trkpt lat="23.420307" lon="107.695248">
<time>2015-09-27T13:54:47Z</time></trkpt>
<trkpt lat="23.420127" lon="107.695058">
<time>2015-09-27T13:54:48Z</time></trkpt>
<trkpt lat="23.419348" lon="107.69428">
<time>2015-09-27T13:54:49Z</time></trkpt>
<trkpt lat="23.41864" lon="107.693571">
<time>2015-09-27T13:54:50Z</time></trkpt>
<trkpt lat="23.416663" lon="107.691554">
<time>2015-09-27T13:54:51Z</time></trkpt>
<trkpt lat="23.415246" lon="107.690117">
<time>2015-09-27T13:54:52Z</time></trkpt>
<trkpt lat="23.414457" lon="107.689328">
<time>2015-09-27T13:54:53Z</time></trkpt>
<trkpt lat="23.410964" lon="107.685775">
<time>2015-09-27T13:54:54Z</time></trkpt>
<trkpt lat="23.410775" lon="107.685585">
<time>2015-09-27T13:54:55Z</time></trkpt>
<trkpt lat="23.410705" lon="107.685515">
<time>2015-09-27T13:54:56Z</time></trkpt>
<trkpt lat="23.408938" lon="107.683749">
<time>2015-09-27T13:54:57Z</time></trkpt>
<trkpt lat="23.408848" lon="107.683649">
<time>2015-09-27T13:54:58Z</time></trkpt>
<trkpt lat="23.408539" lon="107.68332">
<time>2015-09-27T13:54:59Z</time></trkpt>
<trkpt lat="23.40796" lon="107.682741">
<time>2015-09-27T13:55:00Z</time></trkpt>
<trkpt lat="23.406333" lon="107.681144">
<time>2015-09-27T13:55:01Z</time></trkpt>
<trkpt lat="23.404826" lon="107.679667">
<time>2015-09-27T13:55:02Z</time></trkpt>
<trkpt lat="23.404377" lon="107.679268">
<time>2015-09-27T13:55:03Z</time></trkpt>
<trkpt lat="23.404008" lon="107.678968">
<time>2015-09-27T13:55:04Z</time></trkpt>
<trkpt lat="23.403439" lon="107.678599">
<time>2015-09-27T13:55:05Z</time></trkpt>
<trkpt lat="23.40218" lon="107.677781">
<time>2015-09-27T13:55:06Z</time></trkpt>
<trkpt lat="23.401371" lon="107.677272">
<time>2015-09-27T13:55:07Z</time></trkpt>
<trkpt lat="23.399105" lon="107.675725">
<time>2015-09-27T13:55:08Z</time></trkpt>
<trkpt lat="23.397527" lon="107.674487">
<time>2015-09-27T13:55:09Z</time></trkpt>
<trkpt lat="23.397477" lon="107.674457">
<time>2015-09-27T13:55:10Z</time></trkpt>
<trkpt lat="23.39556" lon="107.67297">
<time>2015-09-27T13:55:11Z</time></trkpt>
<trkpt lat="23.395371" lon="107.672821">
<time>2015-09-27T13:55:12Z</time></trkpt>
<trkpt lat="23.395201" lon="107.672681">
<time>2015-09-27T13:55:13Z</time></trkpt>
<trkpt lat="23.392246" lon="107.670376">
<time>2015-09-27T13:55:14Z</time></trkpt>
<trkpt lat="23.388632" lon="107.667631">
<time>2015-09-27T13:55:15Z</time></trkpt>
<trkpt lat="23.388622" lon="107.667611">
<time>2015-09-27T13:55:16Z</time></trkpt>
<trkpt lat="23.384408" lon="107.664717">
<time>2015-09-27T13:55:17Z</time></trkpt>
<trkpt lat="23.384308" lon="107.664647">
<time>2015-09-27T13:55:18Z</time></trkpt>
<trkpt lat="23.38319" lon="107.663879">
<time>2015-09-27T13:55:19Z</time></trkpt>
<trkpt lat="23.382241" lon="107.66323">
<time>2015-09-27T13:55:20Z</time></trkpt>
<trkpt lat="23.380574" lon="107.661733">
<time>2015-09-27T13:55:21Z</time></trkpt>
<trkpt lat="23.380055" lon="107.661364">
<time>2015-09-27T13:55:22Z</time></trkpt>
<trkpt lat="23.379836" lon="107.661215">
<time>2015-09-27T13:55:23Z</time></trkpt>
<trkpt lat="23.378388" lon="107.660207">
<time>2015-09-27T13:55:24Z</time></trkpt>
<trkpt lat="23.37703" lon="107.659259">
<time>2015-09-27T13:55:25Z</time></trkpt>
<trkpt lat="23.37663" lon="107.658999">
<time>2015-09-27T13:55:26Z</time></trkpt>
<trkpt lat="23.376361" lon="107.658849">
<time>2015-09-27T13:55:27Z</time></trkpt>
<trkpt lat="23.375422" lon="107.65834">
<time>2015-09-27T13:55:28Z</time></trkpt>
<trkpt lat="23.375192" lon="107.658241">
<time>2015-09-27T13:55:29Z</time></trkpt>
<trkpt lat="23.374293" lon="107.657881">
<time>2015-09-27T13:55:30Z</time></trkpt>
<trkpt lat="23.372005" lon="107.656973">
<time>2015-09-27T13:55:31Z</time></trkpt>
<trkpt lat="23.371076" lon="107.656614">
<time>2015-09-27T13:55:32Z</time></trkpt>
<trkpt lat="23.370646" lon="107.656444">
<time>2015-09-27T13:55:33Z</time></trkpt>
<trkpt lat="23.370436" lon="107.656384">
<time>2015-09-27T13:55:34Z</time></trkpt>
<trkpt lat="23.370127" lon="107.656355">
<time>2015-09-27T13:55:35Z</time></trkpt>
<trkpt lat="23.369067" lon="107.656395">
<time>2015-09-27T13:55:36Z</time></trkpt>
<trkpt lat="23.368307" lon="107.656435">
<time>2015-09-27T13:55:37Z</time></trkpt>
<trkpt lat="23.367697" lon="107.656395">
<time>2015-09-27T13:55:38Z</time></trkpt>
<trkpt lat="23.367047" lon="107.656295">
<time>2015-09-27T13:55:39Z</time></trkpt>
<trkpt lat="23.366328" lon="107.656135">
<time>2015-09-27T13:55:40Z</time></trkpt>
<trkpt lat="23.365918" lon="107.656045">
<time>2015-09-27T13:55:41Z</time></trkpt>
<trkpt lat="23.365328" lon="107.655876">
<time>2015-09-27T13:55:42Z</time></trkpt>
<trkpt lat="23.364939" lon="107.655726">
<time>2015-09-27T13:55:43Z</time></trkpt>
<trkpt lat="23.364879" lon="107.655696">
<time>2015-09-27T13:55:44Z</time></trkpt>
<trkpt lat="23.364829" lon="107.655666">
<time>2015-09-27T13:55:45Z</time></trkpt>
<trkpt lat="23.364769" lon="107.655626">
<time>2015-09-27T13:55:46Z</time></trkpt>
<trkpt lat="23.364729" lon="107.655586">
<time>2015-09-27T13:55:47Z</time></trkpt>
<trkpt lat="23.364679" lon="107.655556">
<time>2015-09-27T13:55:48Z</time></trkpt>
<trkpt lat="23.364569" lon="107.655447">
<time>2015-09-27T13:55:49Z</time></trkpt>
<trkpt lat="23.36443" lon="107.655277">
<time>2015-09-27T13:55:50Z</time></trkpt>
<trkpt lat="23.36411" lon="107.654898">
<time>2015-09-27T13:55:51Z</time></trkpt>
<trkpt lat="23.363532" lon="107.654119">
<time>2015-09-27T13:55:52Z</time></trkpt>
<trkpt lat="23.363362" lon="107.65387">
<time>2015-09-27T13:55:53Z</time></trkpt>
<trkpt lat="23.363283" lon="107.65374">
<time>2015-09-27T13:55:54Z</time></trkpt>
<trkpt lat="23.363203" lon="107.65357">
<time>2015-09-27T13:55:55Z</time></trkpt>
<trkpt lat="23.363133" lon="107.653401">
<time>2015-09-27T13:55:56Z</time></trkpt>
<trkpt lat="23.361186" lon="107.646294">
<time>2015-09-27T13:55:57Z</time></trkpt>
<trkpt lat="23.360351" lon="107.643549">
<time>2015-09-27T13:55:58Z</time></trkpt>
<trkpt lat="23.359626" lon="107.641053">
<time>2015-09-27T13:55:59Z</time></trkpt>
<trkpt lat="23.359238" lon="107.639766">
<time>2015-09-27T13:56:00Z</time></trkpt>
<trkpt lat="23.359059" lon="107.639197">
<time>2015-09-27T13:56:01Z</time></trkpt>
<trkpt lat="23.357288" lon="107.633266">
<time>2015-09-27T13:56:02Z</time></trkpt>
<trkpt lat="23.357169" lon="107.632787">
<time>2015-09-27T13:56:03Z</time></trkpt>
<trkpt lat="23.357139" lon="107.632637">
<time>2015-09-27T13:56:04Z</time></trkpt>
<trkpt lat="23.357139" lon="107.632507">
<time>2015-09-27T13:56:05Z</time></trkpt>
<trkpt lat="23.357149" lon="107.632398">
<time>2015-09-27T13:56:06Z</time></trkpt>
<trkpt lat="23.35717" lon="107.632258">
<time>2015-09-27T13:56:07Z</time></trkpt>
<trkpt lat="23.357451" lon="107.631419">
<time>2015-09-27T13:56:08Z</time></trkpt>
<trkpt lat="23.357541" lon="107.631129">
<time>2015-09-27T13:56:09Z</time></trkpt>
<trkpt lat="23.357601" lon="107.63088">
<time>2015-09-27T13:56:10Z</time></trkpt>
<trkpt lat="23.357622" lon="107.63061">
<time>2015-09-27T13:56:11Z</time></trkpt>
<trkpt lat="23.357574" lon="107.629222">
<time>2015-09-27T13:56:12Z</time></trkpt>
<trkpt lat="23.357564" lon="107.629092">
<time>2015-09-27T13:56:13Z</time></trkpt>
<trkpt lat="23.357554" lon="107.629002">
<time>2015-09-27T13:56:14Z</time></trkpt>
<trkpt lat="23.357544" lon="107.628923">
<time>2015-09-27T13:56:15Z</time></trkpt>
<trkpt lat="23.357514" lon="107.628843">
<time>2015-09-27T13:56:16Z</time></trkpt>
<trkpt lat="23.357494" lon="107.628783">
<time>2015-09-27T13:56:17Z</time></trkpt>
<trkpt lat="23.357474" lon="107.628743">
<time>2015-09-27T13:56:18Z</time></trkpt>
<trkpt lat="23.357424" lon="107.628683">
<time>2015-09-27T13:56:19Z</time></trkpt>
<trkpt lat="23.357384" lon="107.628633">
<time>2015-09-27T13:56:20Z</time></trkpt>
<trkpt lat="23.357335" lon="107.628593">
<time>2015-09-27T13:56:21Z</time></trkpt>
<trkpt lat="23.357335" lon="107.628583">
<time>2015-09-27T13:56:22Z</time></trkpt>
<trkpt lat="23.357255" lon="107.628533">
<time>2015-09-27T13:56:23Z</time></trkpt>
<trkpt lat="23.357075" lon="107.628433">
<time>2015-09-27T13:56:24Z</time></trkpt>
<trkpt lat="23.356615" lon="107.628204">
<time>2015-09-27T13:56:25Z</time></trkpt>
<trkpt lat="23.356026" lon="107.627874">
<time>2015-09-27T13:56:26Z</time></trkpt>
<trkpt lat="23.355127" lon="107.627345">
<time>2015-09-27T13:56:27Z</time></trkpt>
<trkpt lat="23.354217" lon="107.626796">
<time>2015-09-27T13:56:28Z</time></trkpt>
<trkpt lat="23.353358" lon="107.626137">
<time>2015-09-27T13:56:29Z</time></trkpt>
<trkpt lat="23.353029" lon="107.625887">
<time>2015-09-27T13:56:30Z</time></trkpt>
<trkpt lat="23.352629" lon="107.625677">
<time>2015-09-27T13:56:31Z</time></trkpt>
<trkpt lat="23.352249" lon="107.625557">
<time>2015-09-27T13:56:32Z</time></trkpt>
<trkpt lat="23.35189" lon="107.625498">
<time>2015-09-27T13:56:33Z</time></trkpt>
<trkpt lat="23.35157" lon="107.625468">
<time>2015-09-27T13:56:34Z</time></trkpt>
<trkpt lat="23.35119" lon="107.625488">
<time>2015-09-27T13:56:35Z</time></trkpt>
<trkpt lat="23.35087" lon="107.625567">
<time>2015-09-27T13:56:36Z</time></trkpt>
<trkpt lat="23.35043" lon="107.625697">
<time>2015-09-27T13:56:37Z</time></trkpt>
<trkpt lat="23.35023" lon="107.625717">
<time>2015-09-27T13:56:38Z</time></trkpt>
<trkpt lat="23.35005" lon="107.625717">
<time>2015-09-27T13:56:39Z</time></trkpt>
<trkpt lat="23.34987" lon="107.625697">
<time>2015-09-27T13:56:40Z</time></trkpt>
<trkpt lat="23.34961" lon="107.625627">
<time>2015-09-27T13:56:41Z</time></trkpt>
<trkpt lat="23.34897" lon="107.625408">
<time>2015-09-27T13:56:42Z</time></trkpt>
<trkpt lat="23.348661" lon="107.625278">
<time>2015-09-27T13:56:43Z</time></trkpt>
<trkpt lat="23.348441" lon="107.625148">
<time>2015-09-27T13:56:44Z</time></trkpt>
<trkpt lat="23.348231" lon="107.624998">
<time>2015-09-27T13:56:45Z</time></trkpt>
<trkpt lat="23.347382" lon="107.624179">
<time>2015-09-27T13:56:46Z</time></trkpt>
<trkpt lat="23.347112" lon="107.62396">
<time>2015-09-27T13:56:47Z</time></trkpt>
<trkpt lat="23.347013" lon="107.6239">
<time>2015-09-27T13:56:48Z</time></trkpt>
<trkpt lat="23.346933" lon="107.62388">
<time>2015-09-27T13:56:49Z</time></trkpt>
<trkpt lat="23.346853" lon="107.62387">
<time>2015-09-27T13:56:50Z</time></trkpt>
<trkpt lat="23.346713" lon="107.62387">
<time>2015-09-27T13:56:51Z</time></trkpt>
<trkpt lat="23.346583" lon="107.62389">
<time>2015-09-27T13:56:52Z</time></trkpt>
<trkpt lat="23.345573" lon="107.62412">
<time>2015-09-27T13:56:53Z</time></trkpt>
<trkpt lat="23.345173" lon="107.62423">
<time>2015-09-27T13:56:54Z</time></trkpt>
<trkpt lat="23.344983" lon="107.624259">
<time>2015-09-27T13:56:55Z</time></trkpt>
<trkpt lat="23.344833" lon="107.624259">
<time>2015-09-27T13:56:56Z</time></trkpt>
<trkpt lat="23.344673" lon="107.62425">
<time>2015-09-27T13:56:57Z</time></trkpt>
<trkpt lat="23.343713" lon="107.62415">
<time>2015-09-27T13:56:58Z</time></trkpt>
<trkpt lat="23.343453" lon="107.6241">
<time>2015-09-27T13:56:59Z</time></trkpt>
<trkpt lat="23.343233" lon="107.62404">
<time>2015-09-27T13:57:00Z</time></trkpt>
<trkpt lat="23.343023" lon="107.62395">
<time>2015-09-27T13:57:01Z</time></trkpt>
<trkpt lat="23.342804" lon="107.62383">
<time>2015-09-27T13:57:02Z</time></trkpt>
<trkpt lat="23.342504" lon="107.62365">
<time>2015-09-27T13:57:03Z</time></trkpt>
<trkpt lat="23.341735" lon="107.623171">
<time>2015-09-27T13:57:04Z</time></trkpt>
<trkpt lat="23.341505" lon="107.623011">
<time>2015-09-27T13:57:05Z</time></trkpt>
<trkpt lat="23.341405" lon="107.622911">
<time>2015-09-27T13:57:06Z</time></trkpt>
<trkpt lat="23.341345" lon="107.622841">
<time>2015-09-27T13:57:07Z</time></trkpt>
<trkpt lat="23.341295" lon="107.622762">
<time>2015-09-27T13:57:08Z</time></trkpt>
<trkpt lat="23.341245" lon="107.622642">
<time>2015-09-27T13:57:09Z</time></trkpt>
<trkpt lat="23.341205" lon="107.622532">
<time>2015-09-27T13:57:10Z</time></trkpt>
<trkpt lat="23.340916" lon="107.621623">
<time>2015-09-27T13:57:11Z</time></trkpt>
<trkpt lat="23.340867" lon="107.621473">
<time>2015-09-27T13:57:12Z</time></trkpt>
<trkpt lat="23.340608" lon="107.620524">
<time>2015-09-27T13:57:13Z</time></trkpt>
<trkpt lat="23.340598" lon="107.620494">
<time>2015-09-27T13:57:14Z</time></trkpt>
<trkpt lat="23.340528" lon="107.620324">
<time>2015-09-27T13:57:15Z</time></trkpt>
<trkpt lat="23.340418" lon="107.620105">
<time>2015-09-27T13:57:16Z</time></trkpt>
<trkpt lat="23.340348" lon="107.620005">
<time>2015-09-27T13:57:17Z</time></trkpt>
<trkpt lat="23.340308" lon="107.619955">
<time>2015-09-27T13:57:18Z</time></trkpt>
<trkpt lat="23.340179" lon="107.619775">
<time>2015-09-27T13:57:19Z</time></trkpt>
<trkpt lat="23.33936" lon="107.618846">
<time>2015-09-27T13:57:20Z</time></trkpt>
<trkpt lat="23.33929" lon="107.618776">
<time>2015-09-27T13:57:21Z</time></trkpt>
<trkpt lat="23.338771" lon="107.618187">
<time>2015-09-27T13:57:22Z</time></trkpt>
<trkpt lat="23.338101" lon="107.617458">
<time>2015-09-27T13:57:23Z</time></trkpt>
<trkpt lat="23.335874" lon="107.61541">
<time>2015-09-27T13:57:24Z</time></trkpt>
<trkpt lat="23.335804" lon="107.61534">
<time>2015-09-27T13:57:25Z</time></trkpt>
<trkpt lat="23.335115" lon="107.61471">
<time>2015-09-27T13:57:26Z</time></trkpt>
<trkpt lat="23.333706" lon="107.613542">
<time>2015-09-27T13:57:27Z</time></trkpt>
<trkpt lat="23.333706" lon="107.613542">
<time>2015-09-27T13:57:28Z</time></trkpt>
<trkpt lat="23.333611" lon="107.605627">
<time>2015-09-27T13:57:29Z</time></trkpt>
<trkpt lat="23.333582" lon="107.603928">
<time>2015-09-27T13:57:30Z</time></trkpt>
<trkpt lat="23.333553" lon="107.5998">
<time>2015-09-27T13:57:31Z</time></trkpt>
<trkpt lat="23.333554" lon="107.59862">
<time>2015-09-27T13:57:32Z</time></trkpt>
<trkpt lat="23.333544" lon="107.59391">
<time>2015-09-27T13:57:33Z</time></trkpt>
<trkpt lat="23.333534" lon="107.59127">
<time>2015-09-27T13:57:34Z</time></trkpt>
<trkpt lat="23.333534" lon="107.59102">
<time>2015-09-27T13:57:35Z</time></trkpt>
<trkpt lat="23.333523" lon="107.58783">
<time>2015-09-27T13:57:36Z</time></trkpt>
<trkpt lat="23.333523" lon="107.58777">
<time>2015-09-27T13:57:37Z</time></trkpt>
<trkpt lat="23.333512" lon="107.584138">
<time>2015-09-27T13:57:38Z</time></trkpt>
<trkpt lat="23.333531" lon="107.581407">
<time>2015-09-27T13:57:39Z</time></trkpt>
<trkpt lat="23.33353" lon="107.581117">
<time>2015-09-27T13:57:40Z</time></trkpt>
<trkpt lat="23.33357" lon="107.579636">
<time>2015-09-27T13:57:41Z</time></trkpt>
<trkpt lat="23.333619" lon="107.578665">
<time>2015-09-27T13:57:42Z</time></trkpt>
<trkpt lat="23.333738" lon="107.577434">
<time>2015-09-27T13:57:43Z</time></trkpt>
<trkpt lat="23.333768" lon="107.576904">
<time>2015-09-27T13:57:44Z</time></trkpt>
<trkpt lat="23.333757" lon="107.576434">
<time>2015-09-27T13:57:45Z</time></trkpt>
<trkpt lat="23.333747" lon="107.576303">
<time>2015-09-27T13:57:46Z</time></trkpt>
<trkpt lat="23.333717" lon="107.575993">
<time>2015-09-27T13:57:47Z</time></trkpt>
<trkpt lat="23.333687" lon="107.575783">
<time>2015-09-27T13:57:48Z</time></trkpt>
<trkpt lat="23.333647" lon="107.575643">
<time>2015-09-27T13:57:49Z</time></trkpt>
<trkpt lat="23.333586" lon="107.575403">
<time>2015-09-27T13:57:50Z</time></trkpt>
<trkpt lat="23.333476" lon="107.575102">
<time>2015-09-27T13:57:51Z</time></trkpt>
<trkpt lat="23.333336" lon="107.574832">
<time>2015-09-27T13:57:52Z</time></trkpt>
<trkpt lat="23.332795" lon="107.573841">
<time>2015-09-27T13:57:53Z</time></trkpt>
<trkpt lat="23.332204" lon="107.57276">
<time>2015-09-27T13:57:54Z</time></trkpt>
<trkpt lat="23.331974" lon="107.57236">
<time>2015-09-27T13:57:55Z</time></trkpt>
<trkpt lat="23.331824" lon="107.57204">
<time>2015-09-27T13:57:56Z</time></trkpt>
<trkpt lat="23.331734" lon="107.571809">
<time>2015-09-27T13:57:57Z</time></trkpt>
<trkpt lat="23.331673" lon="107.571629">
<time>2015-09-27T13:57:58Z</time></trkpt>
<trkpt lat="23.331623" lon="107.571439">
<time>2015-09-27T13:57:59Z</time></trkpt>
<trkpt lat="23.331583" lon="107.571229">
<time>2015-09-27T13:58:00Z</time></trkpt>
<trkpt lat="23.331533" lon="107.570979">
<time>2015-09-27T13:58:01Z</time></trkpt>
<trkpt lat="23.331422" lon="107.570348">
<time>2015-09-27T13:58:02Z</time></trkpt>
<trkpt lat="23.331322" lon="107.569797">
<time>2015-09-27T13:58:03Z</time></trkpt>
<trkpt lat="23.331322" lon="107.569797">
<time>2015-09-27T13:58:04Z</time></trkpt>
<trkpt lat="23.331271" lon="107.569227">
<time>2015-09-27T13:58:05Z</time></trkpt>
<trkpt lat="23.33118" lon="107.568286">
<time>2015-09-27T13:58:06Z</time></trkpt>
<trkpt lat="23.331089" lon="107.567314">
<time>2015-09-27T13:58:07Z</time></trkpt>
<trkpt lat="23.331089" lon="107.567314">
<time>2015-09-27T13:58:08Z</time></trkpt>
<trkpt lat="23.331119" lon="107.567304">
<time>2015-09-27T13:58:09Z</time></trkpt>
<trkpt lat="23.331139" lon="107.567294">
<time>2015-09-27T13:58:10Z</time></trkpt>
<trkpt lat="23.331159" lon="107.567284">
<time>2015-09-27T13:58:11Z</time></trkpt>
<trkpt lat="23.331179" lon="107.567264">
<time>2015-09-27T13:58:12Z</time></trkpt>
<trkpt lat="23.331199" lon="107.567244">
<time>2015-09-27T13:58:13Z</time></trkpt>
<trkpt lat="23.331219" lon="107.567234">
<time>2015-09-27T13:58:14Z</time></trkpt>
<trkpt lat="23.331239" lon="107.567204">
<time>2015-09-27T13:58:15Z</time></trkpt>
<trkpt lat="23.331249" lon="107.567194">
<time>2015-09-27T13:58:16Z</time></trkpt>
<trkpt lat="23.331259" lon="107.567164">
<time>2015-09-27T13:58:17Z</time></trkpt>
<trkpt lat="23.331269" lon="107.567134">
<time>2015-09-27T13:58:18Z</time></trkpt>
<trkpt lat="23.331279" lon="107.567114">
<time>2015-09-27T13:58:19Z</time></trkpt>
<trkpt lat="23.331279" lon="107.567084">
<time>2015-09-27T13:58:20Z</time></trkpt>
<trkpt lat="23.331279" lon="107.567064">
<time>2015-09-27T13:58:21Z</time></trkpt>
<trkpt lat="23.331278" lon="107.567034">
<time>2015-09-27T13:58:22Z</time></trkpt>
<trkpt lat="23.331278" lon="107.567004">
<time>2015-09-27T13:58:23Z</time></trkpt>
<trkpt lat="23.331268" lon="107.566984">
<time>2015-09-27T13:58:24Z</time></trkpt>
<trkpt lat="23.331258" lon="107.566954">
<time>2015-09-27T13:58:25Z</time></trkpt>
<trkpt lat="23.331248" lon="107.566924">
<time>2015-09-27T13:58:26Z</time></trkpt>
<trkpt lat="23.331238" lon="107.566894">
<time>2015-09-27T13:58:27Z</time></trkpt>
<trkpt lat="23.331218" lon="107.566874">
<time>2015-09-27T13:58:28Z</time></trkpt>
<trkpt lat="23.331198" lon="107.566854">
<time>2015-09-27T13:58:29Z</time></trkpt>
<trkpt lat="23.331168" lon="107.566834">
<time>2015-09-27T13:58:30Z</time></trkpt>
<trkpt lat="23.331148" lon="107.566814">
<time>2015-09-27T13:58:31Z</time></trkpt>
<trkpt lat="23.331128" lon="107.566814">
<time>2015-09-27T13:58:32Z</time></trkpt>
<trkpt lat="23.331098" lon="107.566794">
<time>2015-09-27T13:58:33Z</time></trkpt>
<trkpt lat="23.331088" lon="107.566794">
<time>2015-09-27T13:58:34Z</time></trkpt>
<trkpt lat="23.331077" lon="107.565933">
<time>2015-09-27T13:58:35Z</time></trkpt>
<trkpt lat="23.331076" lon="107.565122">
<time>2015-09-27T13:58:36Z</time></trkpt>
<trkpt lat="23.331076" lon="107.564971">
<time>2015-09-27T13:58:37Z</time></trkpt>
<trkpt lat="23.331083" lon="107.562418">
<time>2015-09-27T13:58:38Z</time></trkpt>
<trkpt lat="23.331071" lon="107.561306">
<time>2015-09-27T13:58:39Z</time></trkpt>
<trkpt lat="23.33106" lon="107.560565">
<time>2015-09-27T13:58:40Z</time></trkpt>
<trkpt lat="23.331059" lon="107.560275">
<time>2015-09-27T13:58:41Z</time></trkpt>
<trkpt lat="23.331049" lon="107.559894">
<time>2015-09-27T13:58:42Z</time></trkpt>
<trkpt lat="23.330997" lon="107.558402">
<time>2015-09-27T13:58:43Z</time></trkpt>
<trkpt lat="23.330996" lon="107.558081">
<time>2015-09-27T13:58:44Z</time></trkpt>
<trkpt lat="23.330955" lon="107.5575">
<time>2015-09-27T13:58:45Z</time></trkpt>
<trkpt lat="23.330935" lon="107.55722">
<time>2015-09-27T13:58:46Z</time></trkpt>
<trkpt lat="23.330924" lon="107.556509">
<time>2015-09-27T13:58:47Z</time></trkpt>
<trkpt lat="23.330983" lon="107.556028">
<time>2015-09-27T13:58:48Z</time></trkpt>
<trkpt lat="23.331003" lon="107.555877">
<time>2015-09-27T13:58:49Z</time></trkpt>
<trkpt lat="23.331012" lon="107.555817">
<time>2015-09-27T13:58:50Z</time></trkpt>
<trkpt lat="23.331072" lon="107.555417">
<time>2015-09-27T13:58:51Z</time></trkpt>
<trkpt lat="23.331458" lon="107.553303">
<time>2015-09-27T13:58:52Z</time></trkpt>
<trkpt lat="23.331478" lon="107.553193">
<time>2015-09-27T13:58:53Z</time></trkpt>
<trkpt lat="23.331686" lon="107.55202">
<time>2015-09-27T13:58:54Z</time></trkpt>
<trkpt lat="23.331696" lon="107.55197">
<time>2015-09-27T13:58:55Z</time></trkpt>
<trkpt lat="23.331745" lon="107.551419">
<time>2015-09-27T13:58:56Z</time></trkpt>
<trkpt lat="23.331744" lon="107.551199">
<time>2015-09-27T13:58:57Z</time></trkpt>
<trkpt lat="23.331734" lon="107.550888">
<time>2015-09-27T13:58:58Z</time></trkpt>
<trkpt lat="23.331733" lon="107.550778">
<time>2015-09-27T13:58:59Z</time></trkpt>
<trkpt lat="23.331723" lon="107.550608">
<time>2015-09-27T13:59:00Z</time></trkpt>
<trkpt lat="23.331701" lon="107.549435">
<time>2015-09-27T13:59:01Z</time></trkpt>
<trkpt lat="23.33172" lon="107.549085">
<time>2015-09-27T13:59:02Z</time></trkpt>
<trkpt lat="23.33175" lon="107.548804">
<time>2015-09-27T13:59:03Z</time></trkpt>
<trkpt lat="23.331799" lon="107.548514">
<time>2015-09-27T13:59:04Z</time></trkpt>
<trkpt lat="23.331878" lon="107.548243">
<time>2015-09-27T13:59:05Z</time></trkpt>
<trkpt lat="23.331948" lon="107.548093">
<time>2015-09-27T13:59:06Z</time></trkpt>
<trkpt lat="23.332048" lon="107.547902">
<time>2015-09-27T13:59:07Z</time></trkpt>
<trkpt lat="23.332187" lon="107.547692">
<time>2015-09-27T13:59:08Z</time></trkpt>
<trkpt lat="23.332407" lon="107.547391">
<time>2015-09-27T13:59:09Z</time></trkpt>
<trkpt lat="23.332955" lon="107.54663">
<time>2015-09-27T13:59:10Z</time></trkpt>
<trkpt lat="23.333344" lon="107.546098">
<time>2015-09-27T13:59:11Z</time></trkpt>
<trkpt lat="23.33464" lon="107.544415">
<time>2015-09-27T13:59:12Z</time></trkpt>
<trkpt lat="23.335566" lon="107.542761">
<time>2015-09-27T13:59:13Z</time></trkpt>
<trkpt lat="23.335566" lon="107.542761">
<time>2015-09-27T13:59:14Z</time></trkpt>
<trkpt lat="23.335586" lon="107.542731">
<time>2015-09-27T13:59:15Z</time></trkpt>
<trkpt lat="23.335616" lon="107.542691">
<time>2015-09-27T13:59:16Z</time></trkpt>
<trkpt lat="23.335636" lon="107.542661">
<time>2015-09-27T13:59:17Z</time></trkpt>
<trkpt lat="23.335666" lon="107.542621">
<time>2015-09-27T13:59:18Z</time></trkpt>
<trkpt lat="23.335696" lon="107.542571">
<time>2015-09-27T13:59:19Z</time></trkpt>
<trkpt lat="23.336632" lon="107.540817">
<time>2015-09-27T13:59:20Z</time></trkpt>
<trkpt lat="23.336801" lon="107.540516">
<time>2015-09-27T13:59:21Z</time></trkpt>
<trkpt lat="23.337269" lon="107.539614">
<time>2015-09-27T13:59:22Z</time></trkpt>
<trkpt lat="23.337607" lon="107.538942">
<time>2015-09-27T13:59:23Z</time></trkpt>
<trkpt lat="23.338374" lon="107.537418">
<time>2015-09-27T13:59:24Z</time></trkpt>
<trkpt lat="23.338821" lon="107.536526">
<time>2015-09-27T13:59:25Z</time></trkpt>
<trkpt lat="23.340195" lon="107.53403">
<time>2015-09-27T13:59:26Z</time></trkpt>
<trkpt lat="23.34145" lon="107.531965">
<time>2015-09-27T13:59:27Z</time></trkpt>
<trkpt lat="23.342695" lon="107.5301">
<time>2015-09-27T13:59:28Z</time></trkpt>
<trkpt lat="23.343532" lon="107.528906">
<time>2015-09-27T13:59:29Z</time></trkpt>
<trkpt lat="23.343841" lon="107.528535">
<time>2015-09-27T13:59:30Z</time></trkpt>
<trkpt lat="23.344239" lon="107.528024">
<time>2015-09-27T13:59:31Z</time></trkpt>
<trkpt lat="23.344359" lon="107.527833">
<time>2015-09-27T13:59:32Z</time></trkpt>
<trkpt lat="23.344548" lon="107.527563">
<time>2015-09-27T13:59:33Z</time></trkpt>
<trkpt lat="23.345285" lon="107.52656">
<time>2015-09-27T13:59:34Z</time></trkpt>
<trkpt lat="23.345724" lon="107.526149">
<time>2015-09-27T13:59:35Z</time></trkpt>
<trkpt lat="23.347099" lon="107.524574">
<time>2015-09-27T13:59:36Z</time></trkpt>
<trkpt lat="23.347598" lon="107.523923">
<time>2015-09-27T13:59:37Z</time></trkpt>
<trkpt lat="23.347677" lon="107.523802">
<time>2015-09-27T13:59:38Z</time></trkpt>
<trkpt lat="23.347707" lon="107.523762">
<time>2015-09-27T13:59:39Z</time></trkpt>
<trkpt lat="23.347727" lon="107.523712">
<time>2015-09-27T13:59:40Z</time></trkpt>
<trkpt lat="23.347787" lon="107.523582">
<time>2015-09-27T13:59:41Z</time></trkpt>
<trkpt lat="23.347806" lon="107.523551">
<time>2015-09-27T13:59:42Z</time></trkpt>
<trkpt lat="23.347836" lon="107.523501">
<time>2015-09-27T13:59:43Z</time></trkpt>
<trkpt lat="23.347896" lon="107.523401">
<time>2015-09-27T13:59:44Z</time></trkpt>
<trkpt lat="23.347996" lon="107.523281">
<time>2015-09-27T13:59:45Z</time></trkpt>
<trkpt lat="23.348295" lon="107.52289">
<time>2015-09-27T13:59:46Z</time></trkpt>
<trkpt lat="23.348614" lon="107.522529">
<time>2015-09-27T13:59:47Z</time></trkpt>
<trkpt lat="23.350378" lon="107.520513">
<time>2015-09-27T13:59:48Z</time></trkpt>
<trkpt lat="23.351145" lon="107.51962">
<time>2015-09-27T13:59:49Z</time></trkpt>
<trkpt lat="23.352441" lon="107.518116">
<time>2015-09-27T13:59:50Z</time></trkpt>
<trkpt lat="23.353816" lon="107.516531">
<time>2015-09-27T13:59:51Z</time></trkpt>
<trkpt lat="23.354204" lon="107.516029">
<time>2015-09-27T13:59:52Z</time></trkpt>
<trkpt lat="23.354473" lon="107.515618">
<time>2015-09-27T13:59:53Z</time></trkpt>
<trkpt lat="23.354513" lon="107.515538">
<time>2015-09-27T13:59:54Z</time></trkpt>
<trkpt lat="23.354642" lon="107.515297">
<time>2015-09-27T13:59:55Z</time></trkpt>
<trkpt lat="23.354771" lon="107.514976">
<time>2015-09-27T13:59:56Z</time></trkpt>
<trkpt lat="23.35487" lon="107.514685">
<time>2015-09-27T13:59:57Z</time></trkpt>
<trkpt lat="23.35495" lon="107.514435">
<time>2015-09-27T13:59:58Z</time></trkpt>
<trkpt lat="23.355176" lon="107.513271">
<time>2015-09-27T13:59:59Z</time></trkpt>
<trkpt lat="23.355284" lon="107.5127">
<time>2015-09-27T14:00:00Z</time></trkpt>
<trkpt lat="23.355443" lon="107.512138">
<time>2015-09-27T14:00:01Z</time></trkpt>
<trkpt lat="23.355631" lon="107.511626">
<time>2015-09-27T14:00:02Z</time></trkpt>
<trkpt lat="23.35587" lon="107.511105">
<time>2015-09-27T14:00:03Z</time></trkpt>
<trkpt lat="23.356088" lon="107.510683">
<time>2015-09-27T14:00:04Z</time></trkpt>
<trkpt lat="23.356367" lon="107.510232">
<time>2015-09-27T14:00:05Z</time></trkpt>
<trkpt lat="23.356676" lon="107.509771">
<time>2015-09-27T14:00:06Z</time></trkpt>
<trkpt lat="23.356905" lon="107.509399">
<time>2015-09-27T14:00:07Z</time></trkpt>
<trkpt lat="23.357173" lon="107.508848">
<time>2015-09-27T14:00:08Z</time></trkpt>
<trkpt lat="23.357322" lon="107.508517">
<time>2015-09-27T14:00:09Z</time></trkpt>
<trkpt lat="23.357441" lon="107.508176">
<time>2015-09-27T14:00:10Z</time></trkpt>
<trkpt lat="23.35756" lon="107.507795">
<time>2015-09-27T14:00:11Z</time></trkpt>
<trkpt lat="23.357797" lon="107.506992">
<time>2015-09-27T14:00:12Z</time></trkpt>
<trkpt lat="23.357896" lon="107.506651">
<time>2015-09-27T14:00:13Z</time></trkpt>
<trkpt lat="23.358015" lon="107.50633">
<time>2015-09-27T14:00:14Z</time></trkpt>
<trkpt lat="23.358234" lon="107.505879">
<time>2015-09-27T14:00:15Z</time></trkpt>
<trkpt lat="23.358453" lon="107.505487">
<time>2015-09-27T14:00:16Z</time></trkpt>
<trkpt lat="23.358741" lon="107.505076">
<time>2015-09-27T14:00:17Z</time></trkpt>
<trkpt lat="23.358931" lon="107.504855">
<time>2015-09-27T14:00:18Z</time></trkpt>
<trkpt lat="23.359379" lon="107.504354">
<time>2015-09-27T14:00:19Z</time></trkpt>
<trkpt lat="23.359858" lon="107.503872">
<time>2015-09-27T14:00:20Z</time></trkpt>
<trkpt lat="23.360127" lon="107.503581">
<time>2015-09-27T14:00:21Z</time></trkpt>
<trkpt lat="23.360704" lon="107.502809">
<time>2015-09-27T14:00:22Z</time></trkpt>
<trkpt lat="23.361113" lon="107.502297">
<time>2015-09-27T14:00:23Z</time></trkpt>
<trkpt lat="23.361381" lon="107.501946">
<time>2015-09-27T14:00:24Z</time></trkpt>
<trkpt lat="23.36173" lon="107.501575">
<time>2015-09-27T14:00:25Z</time></trkpt>
<trkpt lat="23.362089" lon="107.501234">
<time>2015-09-27T14:00:26Z</time></trkpt>
<trkpt lat="23.362428" lon="107.500963">
<time>2015-09-27T14:00:27Z</time></trkpt>
<trkpt lat="23.363725" lon="107.50001">
<time>2015-09-27T14:00:28Z</time></trkpt>
<trkpt lat="23.364912" lon="107.499148">
<time>2015-09-27T14:00:29Z</time></trkpt>
<trkpt lat="23.36599" lon="107.498355">
<time>2015-09-27T14:00:30Z</time></trkpt>
<trkpt lat="23.366528" lon="107.497934">
<time>2015-09-27T14:00:31Z</time></trkpt>
<trkpt lat="23.366798" lon="107.497663">
<time>2015-09-27T14:00:32Z</time></trkpt>
<trkpt lat="23.366967" lon="107.497472">
<time>2015-09-27T14:00:33Z</time></trkpt>
<trkpt lat="23.367126" lon="107.497282">
<time>2015-09-27T14:00:34Z</time></trkpt>
<trkpt lat="23.367216" lon="107.497151">
<time>2015-09-27T14:00:35Z</time></trkpt>
<trkpt lat="23.367305" lon="107.497021">
<time>2015-09-27T14:00:36Z</time></trkpt>
<trkpt lat="23.368032" lon="107.495917">
<time>2015-09-27T14:00:37Z</time></trkpt>
<trkpt lat="23.368958" lon="107.494543">
<time>2015-09-27T14:00:38Z</time></trkpt>
<trkpt lat="23.369993" lon="107.493018">
<time>2015-09-27T14:00:39Z</time></trkpt>
<trkpt lat="23.370421" lon="107.492426">
<time>2015-09-27T14:00:40Z</time></trkpt>
<trkpt lat="23.37058" lon="107.492236">
<time>2015-09-27T14:00:41Z</time></trkpt>
<trkpt lat="23.37071" lon="107.492095">
<time>2015-09-27T14:00:42Z</time></trkpt>
<trkpt lat="23.37087" lon="107.491965">
<time>2015-09-27T14:00:43Z</time></trkpt>
<trkpt lat="23.371079" lon="107.491804">
<time>2015-09-27T14:00:44Z</time></trkpt>
<trkpt lat="23.371328" lon="107.491624">
<time>2015-09-27T14:00:45Z</time></trkpt>
<trkpt lat="23.371548" lon="107.491503">
<time>2015-09-27T14:00:46Z</time></trkpt>
<trkpt lat="23.371748" lon="107.491403">
<time>2015-09-27T14:00:47Z</time></trkpt>
<trkpt lat="23.372487" lon="107.491072">
<time>2015-09-27T14:00:48Z</time></trkpt>
<trkpt lat="23.374144" lon="107.49037">
<time>2015-09-27T14:00:49Z</time></trkpt>
<trkpt lat="23.374783" lon="107.490059">
<time>2015-09-27T14:00:50Z</time></trkpt>
<trkpt lat="23.375252" lon="107.489778">
<time>2015-09-27T14:00:51Z</time></trkpt>
<trkpt lat="23.375552" lon="107.489567">
<time>2015-09-27T14:00:52Z</time></trkpt>
<trkpt lat="23.375671" lon="107.489467">
<time>2015-09-27T14:00:53Z</time></trkpt>
<trkpt lat="23.375791" lon="107.489367">
<time>2015-09-27T14:00:54Z</time></trkpt>
<trkpt lat="23.37599" lon="107.489176">
<time>2015-09-27T14:00:55Z</time></trkpt>
<trkpt lat="23.376249" lon="107.488885">
<time>2015-09-27T14:00:56Z</time></trkpt>
<trkpt lat="23.376439" lon="107.488644">
<time>2015-09-27T14:00:57Z</time></trkpt>
<trkpt lat="23.376957" lon="107.487992">
<time>2015-09-27T14:00:58Z</time></trkpt>
<trkpt lat="23.377365" lon="107.487451">
<time>2015-09-27T14:00:59Z</time></trkpt>
<trkpt lat="23.37846" lon="107.485946">
<time>2015-09-27T14:01:00Z</time></trkpt>
<trkpt lat="23.379635" lon="107.484361">
<time>2015-09-27T14:01:01Z</time></trkpt>
<trkpt lat="23.38082" lon="107.482756">
<time>2015-09-27T14:01:02Z</time></trkpt>
<trkpt lat="23.381687" lon="107.481613">
<time>2015-09-27T14:01:03Z</time></trkpt>
<trkpt lat="23.382424" lon="107.48062">
<time>2015-09-27T14:01:04Z</time></trkpt>
<trkpt lat="23.382763" lon="107.480209">
<time>2015-09-27T14:01:05Z</time></trkpt>
<trkpt lat="23.382922" lon="107.480028">
<time>2015-09-27T14:01:06Z</time></trkpt>
<trkpt lat="23.383181" lon="107.479767">
<time>2015-09-27T14:01:07Z</time></trkpt>
<trkpt lat="23.383411" lon="107.479577">
<time>2015-09-27T14:01:08Z</time></trkpt>
<trkpt lat="23.38356" lon="107.479446">
<time>2015-09-27T14:01:09Z</time></trkpt>
<trkpt lat="23.38374" lon="107.479326">
<time>2015-09-27T14:01:10Z</time></trkpt>
<trkpt lat="23.384019" lon="107.479155">
<time>2015-09-27T14:01:11Z</time></trkpt>
<trkpt lat="23.384209" lon="107.479035">
<time>2015-09-27T14:01:12Z</time></trkpt>
<trkpt lat="23.384458" lon="107.478915">
<time>2015-09-27T14:01:13Z</time></trkpt>
<trkpt lat="23.384748" lon="107.478784">
<time>2015-09-27T14:01:14Z</time></trkpt>
<trkpt lat="23.386206" lon="107.478152">
<time>2015-09-27T14:01:15Z</time></trkpt>
<trkpt lat="23.387344" lon="107.477681">
<time>2015-09-27T14:01:16Z</time></trkpt>
<trkpt lat="23.387764" lon="107.47748">
<time>2015-09-27T14:01:17Z</time></trkpt>
<trkpt lat="23.388133" lon="107.4773">
<time>2015-09-27T14:01:18Z</time></trkpt>
<trkpt lat="23.388393" lon="107.477159">
<time>2015-09-27T14:01:19Z</time></trkpt>
<trkpt lat="23.388542" lon="107.477069">
<time>2015-09-27T14:01:20Z</time></trkpt>
<trkpt lat="23.388742" lon="107.476949">
<time>2015-09-27T14:01:21Z</time></trkpt>
<trkpt lat="23.389051" lon="107.476738">
<time>2015-09-27T14:01:22Z</time></trkpt>
<trkpt lat="23.389401" lon="107.476457">
<time>2015-09-27T14:01:23Z</time></trkpt>
<trkpt lat="23.3897" lon="107.476196">
<time>2015-09-27T14:01:24Z</time></trkpt>
<trkpt lat="23.390079" lon="107.475795">
<time>2015-09-27T14:01:25Z</time></trkpt>
<trkpt lat="23.390258" lon="107.475585">
<time>2015-09-27T14:01:26Z</time></trkpt>
<trkpt lat="23.390467" lon="107.475324">
<time>2015-09-27T14:01:27Z</time></trkpt>
<trkpt lat="23.391344" lon="107.4741">
<time>2015-09-27T14:01:28Z</time></trkpt>
<trkpt lat="23.392051" lon="107.473118">
<time>2015-09-27T14:01:29Z</time></trkpt>
<trkpt lat="23.392688" lon="107.472115">
<time>2015-09-27T14:01:30Z</time></trkpt>
<trkpt lat="23.392787" lon="107.471984">
<time>2015-09-27T14:01:31Z</time></trkpt>
<trkpt lat="23.392997" lon="107.471703">
<time>2015-09-27T14:01:32Z</time></trkpt>
<trkpt lat="23.393325" lon="107.471312">
<time>2015-09-27T14:01:33Z</time></trkpt>
<trkpt lat="23.393634" lon="107.470951">
<time>2015-09-27T14:01:34Z</time></trkpt>
<trkpt lat="23.393754" lon="107.470791">
<time>2015-09-27T14:01:35Z</time></trkpt>
<trkpt lat="23.393923" lon="107.47061">
<time>2015-09-27T14:01:36Z</time></trkpt>
<trkpt lat="23.394103" lon="107.47044">
<time>2015-09-27T14:01:37Z</time></trkpt>
<trkpt lat="23.394253" lon="107.470299">
<time>2015-09-27T14:01:38Z</time></trkpt>
<trkpt lat="23.394412" lon="107.470179">
<time>2015-09-27T14:01:39Z</time></trkpt>
<trkpt lat="23.394622" lon="107.470019">
<time>2015-09-27T14:01:40Z</time></trkpt>
<trkpt lat="23.394801" lon="107.469908">
<time>2015-09-27T14:01:41Z</time></trkpt>
<trkpt lat="23.395031" lon="107.469788">
<time>2015-09-27T14:01:42Z</time></trkpt>
<trkpt lat="23.395171" lon="107.469718">
<time>2015-09-27T14:01:43Z</time></trkpt>
<trkpt lat="23.39539" lon="107.469628">
<time>2015-09-27T14:01:44Z</time></trkpt>
<trkpt lat="23.39563" lon="107.469537">
<time>2015-09-27T14:01:45Z</time></trkpt>
<trkpt lat="23.39587" lon="107.469467">
<time>2015-09-27T14:01:46Z</time></trkpt>
<trkpt lat="23.39621" lon="107.469377">
<time>2015-09-27T14:01:47Z</time></trkpt>
<trkpt lat="23.396509" lon="107.469307">
<time>2015-09-27T14:01:48Z</time></trkpt>
<trkpt lat="23.396809" lon="107.469246">
<time>2015-09-27T14:01:49Z</time></trkpt>
<trkpt lat="23.398088" lon="107.468996">
<time>2015-09-27T14:01:50Z</time></trkpt>
<trkpt lat="23.398268" lon="107.468956">
<time>2015-09-27T14:01:51Z</time></trkpt>
<trkpt lat="23.398888" lon="107.468825">
<time>2015-09-27T14:01:52Z</time></trkpt>
<trkpt lat="23.399207" lon="107.468735">
<time>2015-09-27T14:01:53Z</time></trkpt>
<trkpt lat="23.399577" lon="107.468615">
<time>2015-09-27T14:01:54Z</time></trkpt>
<trkpt lat="23.399867" lon="107.468504">
<time>2015-09-27T14:01:55Z</time></trkpt>
<trkpt lat="23.400046" lon="107.468424">
<time>2015-09-27T14:01:56Z</time></trkpt>
<trkpt lat="23.400276" lon="107.468304">
<time>2015-09-27T14:01:57Z</time></trkpt>
<trkpt lat="23.400566" lon="107.468113">
<time>2015-09-27T14:01:58Z</time></trkpt>
<trkpt lat="23.400745" lon="107.467983">
<time>2015-09-27T14:01:59Z</time></trkpt>
<trkpt lat="23.400945" lon="107.467832">
<time>2015-09-27T14:02:00Z</time></trkpt>
<trkpt lat="23.401094" lon="107.467702">
<time>2015-09-27T14:02:01Z</time></trkpt>
<trkpt lat="23.401134" lon="107.467652">
<time>2015-09-27T14:02:02Z</time></trkpt>
<trkpt lat="23.401144" lon="107.467642">
<time>2015-09-27T14:02:03Z</time></trkpt>
<trkpt lat="23.401314" lon="107.467481">
<time>2015-09-27T14:02:04Z</time></trkpt>
<trkpt lat="23.401503" lon="107.467261">
<time>2015-09-27T14:02:05Z</time></trkpt>
<trkpt lat="23.401623" lon="107.4671">
<time>2015-09-27T14:02:06Z</time></trkpt>
<trkpt lat="23.401792" lon="107.46688">
<time>2015-09-27T14:02:07Z</time></trkpt>
<trkpt lat="23.402021" lon="107.466529">
<time>2015-09-27T14:02:08Z</time></trkpt>
<trkpt lat="23.402678" lon="107.465416">
<time>2015-09-27T14:02:09Z</time></trkpt>
<trkpt lat="23.403474" lon="107.464052">
<time>2015-09-27T14:02:10Z</time></trkpt>
<trkpt lat="23.403783" lon="107.463521">
<time>2015-09-27T14:02:11Z</time></trkpt>
<trkpt lat="23.404121" lon="107.462939">
<time>2015-09-27T14:02:12Z</time></trkpt>
<trkpt lat="23.40446" lon="107.462358">
<time>2015-09-27T14:02:13Z</time></trkpt>
<trkpt lat="23.404938" lon="107.461516">
<time>2015-09-27T14:02:14Z</time></trkpt>
<trkpt lat="23.405635" lon="107.460363">
<time>2015-09-27T14:02:15Z</time></trkpt>
<trkpt lat="23.405635" lon="107.460353">
<time>2015-09-27T14:02:16Z</time></trkpt>
<trkpt lat="23.405973" lon="107.459841">
<time>2015-09-27T14:02:17Z</time></trkpt>
<trkpt lat="23.406222" lon="107.45949">
<time>2015-09-27T14:02:18Z</time></trkpt>
<trkpt lat="23.406382" lon="107.45929">
<time>2015-09-27T14:02:19Z</time></trkpt>
<trkpt lat="23.406661" lon="107.458969">
<time>2015-09-27T14:02:20Z</time></trkpt>
<trkpt lat="23.406831" lon="107.458799">
<time>2015-09-27T14:02:21Z</time></trkpt>
<trkpt lat="23.40706" lon="107.458578">
<time>2015-09-27T14:02:22Z</time></trkpt>
<trkpt lat="23.407299" lon="107.458368">
<time>2015-09-27T14:02:23Z</time></trkpt>
<trkpt lat="23.407619" lon="107.458107">
<time>2015-09-27T14:02:24Z</time></trkpt>
<trkpt lat="23.407838" lon="107.457937">
<time>2015-09-27T14:02:25Z</time></trkpt>
<trkpt lat="23.408387" lon="107.457566">
<time>2015-09-27T14:02:26Z</time></trkpt>
<trkpt lat="23.408747" lon="107.457335">
<time>2015-09-27T14:02:27Z</time></trkpt>
<trkpt lat="23.409426" lon="107.456894">
<time>2015-09-27T14:02:28Z</time></trkpt>
<trkpt lat="23.410633" lon="107.456112">
<time>2015-09-27T14:02:29Z</time></trkpt>
<trkpt lat="23.411682" lon="107.45546">
<time>2015-09-27T14:02:30Z</time></trkpt>
<trkpt lat="23.41279" lon="107.454729">
<time>2015-09-27T14:02:31Z</time></trkpt>
<trkpt lat="23.413928" lon="107.453897">
<time>2015-09-27T14:02:32Z</time></trkpt>
<trkpt lat="23.414247" lon="107.453626">
<time>2015-09-27T14:02:33Z</time></trkpt>
<trkpt lat="23.414906" lon="107.453075">
<time>2015-09-27T14:02:34Z</time></trkpt>
<trkpt lat="23.415973" lon="107.452092">
<time>2015-09-27T14:02:35Z</time></trkpt>
<trkpt lat="23.416682" lon="107.451371">
<time>2015-09-27T14:02:36Z</time></trkpt>
<trkpt lat="23.41721" lon="107.45077">
<time>2015-09-27T14:02:37Z</time></trkpt>
<trkpt lat="23.417739" lon="107.450188">
<time>2015-09-27T14:02:38Z</time></trkpt>
<trkpt lat="23.418158" lon="107.449717">
<time>2015-09-27T14:02:39Z</time></trkpt>
<trkpt lat="23.419016" lon="107.448795">
<time>2015-09-27T14:02:40Z</time></trkpt>
<trkpt lat="23.419664" lon="107.448074">
<time>2015-09-27T14:02:41Z</time></trkpt>
<trkpt lat="23.420532" lon="107.447122">
<time>2015-09-27T14:02:42Z</time></trkpt>
<trkpt lat="23.421719" lon="107.445829">
<time>2015-09-27T14:02:43Z</time></trkpt>
<trkpt lat="23.422278" lon="107.445198">
<time>2015-09-27T14:02:44Z</time></trkpt>
<trkpt lat="23.423325" lon="107.444116">
<time>2015-09-27T14:02:45Z</time></trkpt>
<trkpt lat="23.424114" lon="107.443354">
<time>2015-09-27T14:02:46Z</time></trkpt>
<trkpt lat="23.424623" lon="107.442873">
<time>2015-09-27T14:02:47Z</time></trkpt>
<trkpt lat="23.42594" lon="107.441631">
<time>2015-09-27T14:02:48Z</time></trkpt>
<trkpt lat="23.42595" lon="107.441621">
<time>2015-09-27T14:02:49Z</time></trkpt>
<trkpt lat="23.426769" lon="107.440849">
<time>2015-09-27T14:02:50Z</time></trkpt>
<trkpt lat="23.427168" lon="107.440489">
<time>2015-09-27T14:02:51Z</time></trkpt>
<trkpt lat="23.427517" lon="107.440188">
<time>2015-09-27T14:02:52Z</time></trkpt>
<trkpt lat="23.427697" lon="107.440048">
<time>2015-09-27T14:02:53Z</time></trkpt>
<trkpt lat="23.428606" lon="107.439387">
<time>2015-09-27T14:02:54Z</time></trkpt>
<trkpt lat="23.429614" lon="107.438685">
<time>2015-09-27T14:02:55Z</time></trkpt>
<trkpt lat="23.430633" lon="107.437964">
<time>2015-09-27T14:02:56Z</time></trkpt>
<trkpt lat="23.431672" lon="107.437263">
<time>2015-09-27T14:02:57Z</time></trkpt>
<trkpt lat="23.432551" lon="107.436642">
<time>2015-09-27T14:02:58Z</time></trkpt>
<trkpt lat="23.433839" lon="107.43572">
<time>2015-09-27T14:02:59Z</time></trkpt>
<trkpt lat="23.434957" lon="107.434869">
<time>2015-09-27T14:03:00Z</time></trkpt>
<trkpt lat="23.436086" lon="107.433988">
<time>2015-09-27T14:03:01Z</time></trkpt>
<trkpt lat="23.436685" lon="107.433497">
<time>2015-09-27T14:03:02Z</time></trkpt>
<trkpt lat="23.437124" lon="107.433126">
<time>2015-09-27T14:03:03Z</time></trkpt>
<trkpt lat="23.437953" lon="107.432435">
<time>2015-09-27T14:03:04Z</time></trkpt>
<trkpt lat="23.438812" lon="107.431704">
<time>2015-09-27T14:03:05Z</time></trkpt>
<trkpt lat="23.439561" lon="107.431043">
<time>2015-09-27T14:03:06Z</time></trkpt>
<trkpt lat="23.44" lon="107.430633">
<time>2015-09-27T14:03:07Z</time></trkpt>
<trkpt lat="23.440919" lon="107.429792">
<time>2015-09-27T14:03:08Z</time></trkpt>
<trkpt lat="23.441848" lon="107.428941">
<time>2015-09-27T14:03:09Z</time></trkpt>
<trkpt lat="23.442846" lon="107.428009">
<time>2015-09-27T14:03:10Z</time></trkpt>
<trkpt lat="23.443525" lon="107.427349">
<time>2015-09-27T14:03:11Z</time></trkpt>
<trkpt lat="23.443805" lon="107.427038">
<time>2015-09-27T14:03:12Z</time></trkpt>
<trkpt lat="23.443825" lon="107.427018">
<time>2015-09-27T14:03:13Z</time></trkpt>
<trkpt lat="23.444274" lon="107.426498">
<time>2015-09-27T14:03:14Z</time></trkpt>
<trkpt lat="23.445123" lon="107.425466">
<time>2015-09-27T14:03:15Z</time></trkpt>
<trkpt lat="23.446351" lon="107.424005">
<time>2015-09-27T14:03:16Z</time></trkpt>
<trkpt lat="23.44715" lon="107.423054">
<time>2015-09-27T14:03:17Z</time></trkpt>
<trkpt lat="23.448438" lon="107.421592">
<time>2015-09-27T14:03:18Z</time></trkpt>
<trkpt lat="23.449457" lon="107.420522">
<time>2015-09-27T14:03:19Z</time></trkpt>
<trkpt lat="23.450276" lon="107.419681">
<time>2015-09-27T14:03:20Z</time></trkpt>
<trkpt lat="23.451295" lon="107.41861">
<time>2015-09-27T14:03:21Z</time></trkpt>
<trkpt lat="23.451774" lon="107.41811">
<time>2015-09-27T14:03:22Z</time></trkpt>
<trkpt lat="23.452683" lon="107.417149">
<time>2015-09-27T14:03:23Z</time></trkpt>
<trkpt lat="23.452973" lon="107.416829">
<time>2015-09-27T14:03:24Z</time></trkpt>
<trkpt lat="23.453063" lon="107.416739">
<time>2015-09-27T14:03:25Z</time></trkpt>
<trkpt lat="23.453213" lon="107.416558">
<time>2015-09-27T14:03:26Z</time></trkpt>
<trkpt lat="23.453353" lon="107.416368">
<time>2015-09-27T14:03:27Z</time></trkpt>
<trkpt lat="23.453882" lon="107.415668">
<time>2015-09-27T14:03:28Z</time></trkpt>
<trkpt lat="23.454322" lon="107.415108">
<time>2015-09-27T14:03:29Z</time></trkpt>
<trkpt lat="23.454681" lon="107.414627">
<time>2015-09-27T14:03:30Z</time></trkpt>
<trkpt lat="23.454991" lon="107.414217">
<time>2015-09-27T14:03:31Z</time></trkpt>
<trkpt lat="23.45549" lon="107.413577">
<time>2015-09-27T14:03:32Z</time></trkpt>
<trkpt lat="23.45563" lon="107.413417">
<time>2015-09-27T14:03:33Z</time></trkpt>
<trkpt lat="23.45619" lon="107.412736">
<time>2015-09-27T14:03:34Z</time></trkpt>
<trkpt lat="23.456799" lon="107.412046">
<time>2015-09-27T14:03:35Z</time></trkpt>
<trkpt lat="23.457599" lon="107.411106">
<time>2015-09-27T14:03:36Z</time></trkpt>
<trkpt lat="23.458448" lon="107.410125">
<time>2015-09-27T14:03:37Z</time></trkpt>
<trkpt lat="23.458988" lon="107.409495">
<time>2015-09-27T14:03:38Z</time></trkpt>
<trkpt lat="23.459128" lon="107.409325">
<time>2015-09-27T14:03:39Z</time></trkpt>
<trkpt lat="23.459327" lon="107.409125">
<time>2015-09-27T14:03:40Z</time></trkpt>
<trkpt lat="23.459467" lon="107.408985">
<time>2015-09-27T14:03:41Z</time></trkpt>
<trkpt lat="23.459977" lon="107.408525">
<time>2015-09-27T14:03:42Z</time></trkpt>
<trkpt lat="23.460247" lon="107.408255">
<time>2015-09-27T14:03:43Z</time></trkpt>
<trkpt lat="23.460327" lon="107.408185">
<time>2015-09-27T14:03:44Z</time></trkpt>
<trkpt lat="23.460967" lon="107.407604">
<time>2015-09-27T14:03:45Z</time></trkpt>
<trkpt lat="23.461886" lon="107.406784">
<time>2015-09-27T14:03:46Z</time></trkpt>
<trkpt lat="23.462446" lon="107.406294">
<time>2015-09-27T14:03:47Z</time></trkpt>
<trkpt lat="23.463006" lon="107.405794">
<time>2015-09-27T14:03:48Z</time></trkpt>
<trkpt lat="23.463366" lon="107.405444">
<time>2015-09-27T14:03:49Z</time></trkpt>
<trkpt lat="23.463765" lon="107.405024">
<time>2015-09-27T14:03:50Z</time></trkpt>
<trkpt lat="23.464175" lon="107.404574">
<time>2015-09-27T14:03:51Z</time></trkpt>
<trkpt lat="23.464345" lon="107.404384">
<time>2015-09-27T14:03:52Z</time></trkpt>
<trkpt lat="23.464505" lon="107.404184">
<time>2015-09-27T14:03:53Z</time></trkpt>
<trkpt lat="23.464745" lon="107.403874">
<time>2015-09-27T14:03:54Z</time></trkpt>
<trkpt lat="23.464935" lon="107.403614">
<time>2015-09-27T14:03:55Z</time></trkpt>
<trkpt lat="23.465155" lon="107.403314">
<time>2015-09-27T14:03:56Z</time></trkpt>
<trkpt lat="23.465875" lon="107.402234">
<time>2015-09-27T14:03:57Z</time></trkpt>
<trkpt lat="23.466494" lon="107.401324">
<time>2015-09-27T14:03:58Z</time></trkpt>
<trkpt lat="23.466584" lon="107.401204">
<time>2015-09-27T14:03:59Z</time></trkpt>
<trkpt lat="23.466834" lon="107.400824">
<time>2015-09-27T14:04:00Z</time></trkpt>
<trkpt lat="23.467074" lon="107.400514">
<time>2015-09-27T14:04:01Z</time></trkpt>
<trkpt lat="23.467234" lon="107.400314">
<time>2015-09-27T14:04:02Z</time></trkpt>
<trkpt lat="23.467404" lon="107.400144">
<time>2015-09-27T14:04:03Z</time></trkpt>
<trkpt lat="23.467414" lon="107.400134">
<time>2015-09-27T14:04:04Z</time></trkpt>
<trkpt lat="23.467974" lon="107.399594">
<time>2015-09-27T14:04:05Z</time></trkpt>
<trkpt lat="23.468714" lon="107.398874">
<time>2015-09-27T14:04:06Z</time></trkpt>
<trkpt lat="23.469464" lon="107.398135">
<time>2015-09-27T14:04:07Z</time></trkpt>
<trkpt lat="23.469884" lon="107.397685">
<time>2015-09-27T14:04:08Z</time></trkpt>
<trkpt lat="23.470164" lon="107.397375">
<time>2015-09-27T14:04:09Z</time></trkpt>
<trkpt lat="23.470184" lon="107.397355">
<time>2015-09-27T14:04:10Z</time></trkpt>
<trkpt lat="23.470314" lon="107.397205">
<time>2015-09-27T14:04:11Z</time></trkpt>
<trkpt lat="23.470854" lon="107.396555">
<time>2015-09-27T14:04:12Z</time></trkpt>
<trkpt lat="23.471624" lon="107.395635">
<time>2015-09-27T14:04:13Z</time></trkpt>
<trkpt lat="23.472404" lon="107.394706">
<time>2015-09-27T14:04:14Z</time></trkpt>
<trkpt lat="23.472894" lon="107.394126">
<time>2015-09-27T14:04:15Z</time></trkpt>
<trkpt lat="23.473684" lon="107.393176">
<time>2015-09-27T14:04:16Z</time></trkpt>
<trkpt lat="23.474244" lon="107.392507">
<time>2015-09-27T14:04:17Z</time></trkpt>
<trkpt lat="23.474454" lon="107.392247">
<time>2015-09-27T14:04:18Z</time></trkpt>
<trkpt lat="23.475184" lon="107.391377">
<time>2015-09-27T14:04:19Z</time></trkpt>
<trkpt lat="23.475915" lon="107.390508">
<time>2015-09-27T14:04:20Z</time></trkpt>
<trkpt lat="23.476435" lon="107.389878">
<time>2015-09-27T14:04:21Z</time></trkpt>
<trkpt lat="23.476795" lon="107.389459">
<time>2015-09-27T14:04:22Z</time></trkpt>
<trkpt lat="23.477055" lon="107.389139">
<time>2015-09-27T14:04:23Z</time></trkpt>
<trkpt lat="23.477325" lon="107.388819">
<time>2015-09-27T14:04:24Z</time></trkpt>
<trkpt lat="23.478035" lon="107.38796">
<time>2015-09-27T14:04:25Z</time></trkpt>
<trkpt lat="23.478536" lon="107.38735">
<time>2015-09-27T14:04:26Z</time></trkpt>
<trkpt lat="23.478696" lon="107.38714">
<time>2015-09-27T14:04:27Z</time></trkpt>
<trkpt lat="23.479286" lon="107.386391">
<time>2015-09-27T14:04:28Z</time></trkpt>
<trkpt lat="23.479666" lon="107.385901">
<time>2015-09-27T14:04:29Z</time></trkpt>
<trkpt lat="23.479856" lon="107.385631">
<time>2015-09-27T14:04:30Z</time></trkpt>
<trkpt lat="23.480277" lon="107.385032">
<time>2015-09-27T14:04:31Z</time></trkpt>
<trkpt lat="23.480787" lon="107.384343">
<time>2015-09-27T14:04:32Z</time></trkpt>
<trkpt lat="23.481037" lon="107.383993">
<time>2015-09-27T14:04:33Z</time></trkpt>
<trkpt lat="23.481167" lon="107.383793">
<time>2015-09-27T14:04:34Z</time></trkpt>
<trkpt lat="23.481278" lon="107.383643">
<time>2015-09-27T14:04:35Z</time></trkpt>
<trkpt lat="23.481288" lon="107.383633">
<time>2015-09-27T14:04:36Z</time></trkpt>
<trkpt lat="23.481358" lon="107.383513">
<time>2015-09-27T14:04:37Z</time></trkpt>
<trkpt lat="23.481548" lon="107.383214">
<time>2015-09-27T14:04:38Z</time></trkpt>
<trkpt lat="23.481738" lon="107.382894">
<time>2015-09-27T14:04:39Z</time></trkpt>
<trkpt lat="23.481798" lon="107.382784">
<time>2015-09-27T14:04:40Z</time></trkpt>
<trkpt lat="23.481998" lon="107.382424">
<time>2015-09-27T14:04:41Z</time></trkpt>
<trkpt lat="23.482389" lon="107.381735">
<time>2015-09-27T14:04:42Z</time></trkpt>
<trkpt lat="23.482839" lon="107.380966">
<time>2015-09-27T14:04:43Z</time></trkpt>
<trkpt lat="23.482849" lon="107.380946">
<time>2015-09-27T14:04:44Z</time></trkpt>
<trkpt lat="23.483019" lon="107.380676">
<time>2015-09-27T14:04:45Z</time></trkpt>
<trkpt lat="23.483119" lon="107.380506">
<time>2015-09-27T14:04:46Z</time></trkpt>
<trkpt lat="23.48318" lon="107.380397">
<time>2015-09-27T14:04:47Z</time></trkpt>
<trkpt lat="23.48333" lon="107.380097">
<time>2015-09-27T14:04:48Z</time></trkpt>
<trkpt lat="23.48346" lon="107.379837">
<time>2015-09-27T14:04:49Z</time></trkpt>
<trkpt lat="23.48359" lon="107.379597">
<time>2015-09-27T14:04:50Z</time></trkpt>
<trkpt lat="23.48384" lon="107.379168">
<time>2015-09-27T14:04:51Z</time></trkpt>
<trkpt lat="23.483971" lon="107.378948">
<time>2015-09-27T14:04:52Z</time></trkpt>
<trkpt lat="23.484171" lon="107.378638">
<time>2015-09-27T14:04:53Z</time></trkpt>
<trkpt lat="23.484351" lon="107.378339">
<time>2015-09-27T14:04:54Z</time></trkpt>
<trkpt lat="23.484581" lon="107.377949">
<time>2015-09-27T14:04:55Z</time></trkpt>
<trkpt lat="23.484702" lon="107.37775">
<time>2015-09-27T14:04:56Z</time></trkpt>
<trkpt lat="23.484912" lon="107.37745">
<time>2015-09-27T14:04:57Z</time></trkpt>
<trkpt lat="23.485192" lon="107.37706">
<time>2015-09-27T14:04:58Z</time></trkpt>
<trkpt lat="23.485553" lon="107.376591">
<time>2015-09-27T14:04:59Z</time></trkpt>
<trkpt lat="23.486073" lon="107.375952">
<time>2015-09-27T14:05:00Z</time></trkpt>
<trkpt lat="23.486363" lon="107.375602">
<time>2015-09-27T14:05:01Z</time></trkpt>
<trkpt lat="23.486874" lon="107.374993">
<time>2015-09-27T14:05:02Z</time></trkpt>
<trkpt lat="23.487725" lon="107.373974">
<time>2015-09-27T14:05:03Z</time></trkpt>
<trkpt lat="23.488245" lon="107.373345">
<time>2015-09-27T14:05:04Z</time></trkpt>
<trkpt lat="23.488756" lon="107.372706">
<time>2015-09-27T14:05:05Z</time></trkpt>
<trkpt lat="23.489126" lon="107.372267">
<time>2015-09-27T14:05:06Z</time></trkpt>
<trkpt lat="23.489697" lon="107.371578">
<time>2015-09-27T14:05:07Z</time></trkpt>
<trkpt lat="23.490208" lon="107.370959">
<time>2015-09-27T14:05:08Z</time></trkpt>
<trkpt lat="23.490718" lon="107.370339">
<time>2015-09-27T14:05:09Z</time></trkpt>
<trkpt lat="23.490909" lon="107.37011">
<time>2015-09-27T14:05:10Z</time></trkpt>
<trkpt lat="23.491189" lon="107.36974">
<time>2015-09-27T14:05:11Z</time></trkpt>
<trkpt lat="23.491449" lon="107.369391">
<time>2015-09-27T14:05:12Z</time></trkpt>
<trkpt lat="23.49168" lon="107.369081">
<time>2015-09-27T14:05:13Z</time></trkpt>
<trkpt lat="23.49188" lon="107.368802">
<time>2015-09-27T14:05:14Z</time></trkpt>
<trkpt lat="23.492421" lon="107.367963">
<time>2015-09-27T14:05:15Z</time></trkpt>
<trkpt lat="23.492742" lon="107.367454">
<time>2015-09-27T14:05:16Z</time></trkpt>
<trkpt lat="23.493363" lon="107.366476">
<time>2015-09-27T14:05:17Z</time></trkpt>
<trkpt lat="23.493804" lon="107.365777">
<time>2015-09-27T14:05:18Z</time></trkpt>
<trkpt lat="23.494605" lon="107.364499">
<time>2015-09-27T14:05:19Z</time></trkpt>
<trkpt lat="23.494906" lon="107.36404">
<time>2015-09-27T14:05:20Z</time></trkpt>
<trkpt lat="23.495036" lon="107.36386">
<time>2015-09-27T14:05:21Z</time></trkpt>
<trkpt lat="23.495146" lon="107.36371">
<time>2015-09-27T14:05:22Z</time></trkpt>
<trkpt lat="23.495306" lon="107.363521">
<time>2015-09-27T14:05:23Z</time></trkpt>
<trkpt lat="23.495447" lon="107.363371">
<time>2015-09-27T14:05:24Z</time></trkpt>
<trkpt lat="23.495777" lon="107.363041">
<time>2015-09-27T14:05:25Z</time></trkpt>
<trkpt lat="23.496378" lon="107.362542">
<time>2015-09-27T14:05:26Z</time></trkpt>
<trkpt lat="23.496758" lon="107.362253">
<time>2015-09-27T14:05:27Z</time></trkpt>
<trkpt lat="23.496978" lon="107.362043">
<time>2015-09-27T14:05:28Z</time></trkpt>
<trkpt lat="23.497229" lon="107.361823">
<time>2015-09-27T14:05:29Z</time></trkpt>
<trkpt lat="23.497399" lon="107.361634">
<time>2015-09-27T14:05:30Z</time></trkpt>
<trkpt lat="23.497579" lon="107.361394">
<time>2015-09-27T14:05:31Z</time></trkpt>
<trkpt lat="23.497699" lon="107.361215">
<time>2015-09-27T14:05:32Z</time></trkpt>
<trkpt lat="23.4978" lon="107.361035">
<time>2015-09-27T14:05:33Z</time></trkpt>
<trkpt lat="23.49791" lon="107.360785">
<time>2015-09-27T14:05:34Z</time></trkpt>
<trkpt lat="23.49801" lon="107.360526">
<time>2015-09-27T14:05:35Z</time></trkpt>
<trkpt lat="23.498081" lon="107.360316">
<time>2015-09-27T14:05:36Z</time></trkpt>
<trkpt lat="23.498131" lon="107.360067">
<time>2015-09-27T14:05:37Z</time></trkpt>
<trkpt lat="23.498161" lon="107.359907">
<time>2015-09-27T14:05:38Z</time></trkpt>
<trkpt lat="23.498192" lon="107.359697">
<time>2015-09-27T14:05:39Z</time></trkpt>
<trkpt lat="23.498212" lon="107.359518">
<time>2015-09-27T14:05:40Z</time></trkpt>
<trkpt lat="23.498222" lon="107.359358">
<time>2015-09-27T14:05:41Z</time></trkpt>
<trkpt lat="23.498232" lon="107.359089">
<time>2015-09-27T14:05:42Z</time></trkpt>
<trkpt lat="23.498243" lon="107.35855">
<time>2015-09-27T14:05:43Z</time></trkpt>
<trkpt lat="23.498244" lon="107.357931">
<time>2015-09-27T14:05:44Z</time></trkpt>
<trkpt lat="23.498265" lon="107.357631">
<time>2015-09-27T14:05:45Z</time></trkpt>
<trkpt lat="23.498295" lon="107.357412">
<time>2015-09-27T14:05:46Z</time></trkpt>
<trkpt lat="23.498335" lon="107.357132">
<time>2015-09-27T14:05:47Z</time></trkpt>
<trkpt lat="23.498376" lon="107.356953">
<time>2015-09-27T14:05:48Z</time></trkpt>
<trkpt lat="23.498426" lon="107.356743">
<time>2015-09-27T14:05:49Z</time></trkpt>
<trkpt lat="23.498496" lon="107.356504">
<time>2015-09-27T14:05:50Z</time></trkpt>
<trkpt lat="23.498546" lon="107.356344">
<time>2015-09-27T14:05:51Z</time></trkpt>
<trkpt lat="23.498637" lon="107.356094">
<time>2015-09-27T14:05:52Z</time></trkpt>
<trkpt lat="23.498717" lon="107.355905">
<time>2015-09-27T14:05:53Z</time></trkpt>
<trkpt lat="23.498807" lon="107.355685">
<time>2015-09-27T14:05:54Z</time></trkpt>
<trkpt lat="23.498908" lon="107.355486">
<time>2015-09-27T14:05:55Z</time></trkpt>
<trkpt lat="23.499028" lon="107.355226">
<time>2015-09-27T14:05:56Z</time></trkpt>
<trkpt lat="23.499439" lon="107.354408">
<time>2015-09-27T14:05:57Z</time></trkpt>
<trkpt lat="23.49963" lon="107.354038">
<time>2015-09-27T14:05:58Z</time></trkpt>
<trkpt lat="23.49975" lon="107.353789">
<time>2015-09-27T14:05:59Z</time></trkpt>
<trkpt lat="23.499841" lon="107.353589">
<time>2015-09-27T14:06:00Z</time></trkpt>
<trkpt lat="23.499931" lon="107.35336">
<time>2015-09-27T14:06:01Z</time></trkpt>
<trkpt lat="23.499991" lon="107.35314">
<time>2015-09-27T14:06:02Z</time></trkpt>
<trkpt lat="23.500052" lon="107.352931">
<time>2015-09-27T14:06:03Z</time></trkpt>
<trkpt lat="23.500102" lon="107.352731">
<time>2015-09-27T14:06:04Z</time></trkpt>
<trkpt lat="23.500132" lon="107.352552">
<time>2015-09-27T14:06:05Z</time></trkpt>
<trkpt lat="23.500153" lon="107.352372">
<time>2015-09-27T14:06:06Z</time></trkpt>
<trkpt lat="23.500163" lon="107.352232">
<time>2015-09-27T14:06:07Z</time></trkpt>
<trkpt lat="23.500173" lon="107.352112">
<time>2015-09-27T14:06:08Z</time></trkpt>
<trkpt lat="23.500173" lon="107.351983">
<time>2015-09-27T14:06:09Z</time></trkpt>
<trkpt lat="23.500183" lon="107.351863">
<time>2015-09-27T14:06:10Z</time></trkpt>
<trkpt lat="23.500184" lon="107.351743">
<time>2015-09-27T14:06:11Z</time></trkpt>
<trkpt lat="23.500184" lon="107.351663">
<time>2015-09-27T14:06:12Z</time></trkpt>
<trkpt lat="23.500174" lon="107.351544">
<time>2015-09-27T14:06:13Z</time></trkpt>
<trkpt lat="23.500164" lon="107.351354">
<time>2015-09-27T14:06:14Z</time></trkpt>
<trkpt lat="23.500135" lon="107.351095">
<time>2015-09-27T14:06:15Z</time></trkpt>
<trkpt lat="23.500075" lon="107.350745">
<time>2015-09-27T14:06:16Z</time></trkpt>
<trkpt lat="23.499996" lon="107.350376">
<time>2015-09-27T14:06:17Z</time></trkpt>
<trkpt lat="23.499966" lon="107.350226">
<time>2015-09-27T14:06:18Z</time></trkpt>
<trkpt lat="23.499907" lon="107.349817">
<time>2015-09-27T14:06:19Z</time></trkpt>
<trkpt lat="23.499669" lon="107.34843">
<time>2015-09-27T14:06:20Z</time></trkpt>
<trkpt lat="23.49955" lon="107.347582">
<time>2015-09-27T14:06:21Z</time></trkpt>
<trkpt lat="23.499511" lon="107.347303">
<time>2015-09-27T14:06:22Z</time></trkpt>
<trkpt lat="23.499442" lon="107.346894">
<time>2015-09-27T14:06:23Z</time></trkpt>
<trkpt lat="23.499392" lon="107.346654">
<time>2015-09-27T14:06:24Z</time></trkpt>
<trkpt lat="23.499352" lon="107.346445">
<time>2015-09-27T14:06:25Z</time></trkpt>
<trkpt lat="23.499293" lon="107.346225">
<time>2015-09-27T14:06:26Z</time></trkpt>
<trkpt lat="23.499213" lon="107.345946">
<time>2015-09-27T14:06:27Z</time></trkpt>
<trkpt lat="23.499114" lon="107.345716">
<time>2015-09-27T14:06:28Z</time></trkpt>
<trkpt lat="23.498984" lon="107.345427">
<time>2015-09-27T14:06:29Z</time></trkpt>
<trkpt lat="23.498585" lon="107.344699">
<time>2015-09-27T14:06:30Z</time></trkpt>
<trkpt lat="23.498446" lon="107.34439">
<time>2015-09-27T14:06:31Z</time></trkpt>
<trkpt lat="23.498376" lon="107.34422">
<time>2015-09-27T14:06:32Z</time></trkpt>
<trkpt lat="23.498327" lon="107.34403">
<time>2015-09-27T14:06:33Z</time></trkpt>
<trkpt lat="23.498307" lon="107.343891">
<time>2015-09-27T14:06:34Z</time></trkpt>
<trkpt lat="23.498287" lon="107.343741">
<time>2015-09-27T14:06:35Z</time></trkpt>
<trkpt lat="23.498297" lon="107.343561">
<time>2015-09-27T14:06:36Z</time></trkpt>
<trkpt lat="23.498328" lon="107.343352">
<time>2015-09-27T14:06:37Z</time></trkpt>
<trkpt lat="23.498358" lon="107.343202">
<time>2015-09-27T14:06:38Z</time></trkpt>
<trkpt lat="23.498428" lon="107.343023">
<time>2015-09-27T14:06:39Z</time></trkpt>
<trkpt lat="23.498529" lon="107.342833">
<time>2015-09-27T14:06:40Z</time></trkpt>
<trkpt lat="23.498609" lon="107.342713">
<time>2015-09-27T14:06:41Z</time></trkpt>
<trkpt lat="23.498739" lon="107.342554">
<time>2015-09-27T14:06:42Z</time></trkpt>
<trkpt lat="23.49894" lon="107.342374">
<time>2015-09-27T14:06:43Z</time></trkpt>
<trkpt lat="23.49924" lon="107.342155">
<time>2015-09-27T14:06:44Z</time></trkpt>
<trkpt lat="23.49956" lon="107.341945">
<time>2015-09-27T14:06:45Z</time></trkpt>
<trkpt lat="23.499991" lon="107.341676">
<time>2015-09-27T14:06:46Z</time></trkpt>
<trkpt lat="23.501362" lon="107.340798">
<time>2015-09-27T14:06:47Z</time></trkpt>
<trkpt lat="23.501593" lon="107.340648">
<time>2015-09-27T14:06:48Z</time></trkpt>
<trkpt lat="23.502013" lon="107.340379">
<time>2015-09-27T14:06:49Z</time></trkpt>
<trkpt lat="23.502283" lon="107.340209">
<time>2015-09-27T14:06:50Z</time></trkpt>
<trkpt lat="23.503875" lon="107.339211">
<time>2015-09-27T14:06:51Z</time></trkpt>
<trkpt lat="23.504486" lon="107.338742">
<time>2015-09-27T14:06:52Z</time></trkpt>
<trkpt lat="23.504526" lon="107.338702">
<time>2015-09-27T14:06:53Z</time></trkpt>
<trkpt lat="23.504716" lon="107.338523">
<time>2015-09-27T14:06:54Z</time></trkpt>
<trkpt lat="23.504887" lon="107.338373">
<time>2015-09-27T14:06:55Z</time></trkpt>
<trkpt lat="23.504927" lon="107.338343">
<time>2015-09-27T14:06:56Z</time></trkpt>
<trkpt lat="23.505007" lon="107.338273">
<time>2015-09-27T14:06:57Z</time></trkpt>
<trkpt lat="23.505828" lon="107.337505">
<time>2015-09-27T14:06:58Z</time></trkpt>
<trkpt lat="23.5068" lon="107.336627">
<time>2015-09-27T14:06:59Z</time></trkpt>
<trkpt lat="23.50685" lon="107.336587">
<time>2015-09-27T14:07:00Z</time></trkpt>
<trkpt lat="23.507671" lon="107.335969">
<time>2015-09-27T14:07:01Z</time></trkpt>
<trkpt lat="23.508923" lon="107.335021">
<time>2015-09-27T14:07:02Z</time></trkpt>
<trkpt lat="23.509073" lon="107.334911">
<time>2015-09-27T14:07:03Z</time></trkpt>
<trkpt lat="23.509103" lon="107.334881">
<time>2015-09-27T14:07:04Z</time></trkpt>
<trkpt lat="23.509283" lon="107.334752">
<time>2015-09-27T14:07:05Z</time></trkpt>
<trkpt lat="23.510305" lon="107.333983">
<time>2015-09-27T14:07:06Z</time></trkpt>
<trkpt lat="23.51408" lon="107.33112">
<time>2015-09-27T14:07:07Z</time></trkpt>
<trkpt lat="23.514951" lon="107.330472">
<time>2015-09-27T14:07:08Z</time></trkpt>
<trkpt lat="23.515452" lon="107.329993">
<time>2015-09-27T14:07:09Z</time></trkpt>
<trkpt lat="23.516133" lon="107.329334">
<time>2015-09-27T14:07:10Z</time></trkpt>
<trkpt lat="23.516494" lon="107.328906">
<time>2015-09-27T14:07:11Z</time></trkpt>
<trkpt lat="23.516835" lon="107.328586">
<time>2015-09-27T14:07:12Z</time></trkpt>
<trkpt lat="23.517175" lon="107.328217">
<time>2015-09-27T14:07:13Z</time></trkpt>
<trkpt lat="23.517626" lon="107.327788">
<time>2015-09-27T14:07:14Z</time></trkpt>
<trkpt lat="23.518428" lon="107.32706">
<time>2015-09-27T14:07:15Z</time></trkpt>
<trkpt lat="23.51975" lon="107.325853">
<time>2015-09-27T14:07:16Z</time></trkpt>
<trkpt lat="23.51985" lon="107.325773">
<time>2015-09-27T14:07:17Z</time></trkpt>
<trkpt lat="23.521623" lon="107.324167">
<time>2015-09-27T14:07:18Z</time></trkpt>
<trkpt lat="23.521944" lon="107.323878">
<time>2015-09-27T14:07:19Z</time></trkpt>
<trkpt lat="23.522194" lon="107.323618">
<time>2015-09-27T14:07:20Z</time></trkpt>
<trkpt lat="23.522465" lon="107.323259">
<time>2015-09-27T14:07:21Z</time></trkpt>
<trkpt lat="23.522776" lon="107.322711">
<time>2015-09-27T14:07:22Z</time></trkpt>
<trkpt lat="23.522886" lon="107.322541">
<time>2015-09-27T14:07:23Z</time></trkpt>
<trkpt lat="23.523699" lon="107.321204">
<time>2015-09-27T14:07:24Z</time></trkpt>
<trkpt lat="23.52399" lon="107.320755">
<time>2015-09-27T14:07:25Z</time></trkpt>
<trkpt lat="23.52415" lon="107.320546">
<time>2015-09-27T14:07:26Z</time></trkpt>
<trkpt lat="23.524511" lon="107.320147">
<time>2015-09-27T14:07:27Z</time></trkpt>
<trkpt lat="23.527176" lon="107.317463">
<time>2015-09-27T14:07:28Z</time></trkpt>
<trkpt lat="23.528619" lon="107.315957">
<time>2015-09-27T14:07:29Z</time></trkpt>
<trkpt lat="23.52908" lon="107.315299">
<time>2015-09-27T14:07:30Z</time></trkpt>
<trkpt lat="23.529371" lon="107.31484">
<time>2015-09-27T14:07:31Z</time></trkpt>
<trkpt lat="23.530434" lon="107.312944">
<time>2015-09-27T14:07:32Z</time></trkpt>
<trkpt lat="23.532902" lon="107.308665">
<time>2015-09-27T14:07:33Z</time></trkpt>
<trkpt lat="23.534598" lon="107.305801">
<time>2015-09-27T14:07:34Z</time></trkpt>
<trkpt lat="23.535811" lon="107.303736">
<time>2015-09-27T14:07:35Z</time></trkpt>
<trkpt lat="23.536082" lon="107.303347">
<time>2015-09-27T14:07:36Z</time></trkpt>
<trkpt lat="23.536122" lon="107.303297">
<time>2015-09-27T14:07:37Z</time></trkpt>
<trkpt lat="23.536322" lon="107.303078">
<time>2015-09-27T14:07:38Z</time></trkpt>
<trkpt lat="23.536513" lon="107.302888">
<time>2015-09-27T14:07:39Z</time></trkpt>
<trkpt lat="23.536903" lon="107.302559">
<time>2015-09-27T14:07:40Z</time></trkpt>
<trkpt lat="23.537895" lon="107.30178">
<time>2015-09-27T14:07:41Z</time></trkpt>
<trkpt lat="23.539176" lon="107.300773">
<time>2015-09-27T14:07:42Z</time></trkpt>
<trkpt lat="23.540478" lon="107.299675">
<time>2015-09-27T14:07:43Z</time></trkpt>
<trkpt lat="23.542652" lon="107.29751">
<time>2015-09-27T14:07:44Z</time></trkpt>
<trkpt lat="23.546298" lon="107.293908">
<time>2015-09-27T14:07:45Z</time></trkpt>
<trkpt lat="23.547319" lon="107.29293">
<time>2015-09-27T14:07:46Z</time></trkpt>
<trkpt lat="23.54803" lon="107.292291">
<time>2015-09-27T14:07:47Z</time></trkpt>
<trkpt lat="23.548781" lon="107.291702">
<time>2015-09-27T14:07:48Z</time></trkpt>
<trkpt lat="23.549542" lon="107.291183">
<time>2015-09-27T14:07:49Z</time></trkpt>
<trkpt lat="23.550673" lon="107.290415">
<time>2015-09-27T14:07:50Z</time></trkpt>
<trkpt lat="23.552155" lon="107.289397">
<time>2015-09-27T14:07:51Z</time></trkpt>
<trkpt lat="23.555658" lon="107.287021">
<time>2015-09-27T14:07:52Z</time></trkpt>
<trkpt lat="23.556629" lon="107.286383">
<time>2015-09-27T14:07:53Z</time></trkpt>
<trkpt lat="23.55703" lon="107.286113">
<time>2015-09-27T14:07:54Z</time></trkpt>
<trkpt lat="23.55723" lon="107.285993">
<time>2015-09-27T14:07:55Z</time></trkpt>
<trkpt lat="23.55741" lon="107.285884">
<time>2015-09-27T14:07:56Z</time></trkpt>
<trkpt lat="23.5577" lon="107.285764">
<time>2015-09-27T14:07:57Z</time></trkpt>
<trkpt lat="23.55789" lon="107.285724">
<time>2015-09-27T14:07:58Z</time></trkpt>
<trkpt lat="23.55801" lon="107.285704">
<time>2015-09-27T14:07:59Z</time></trkpt>
<trkpt lat="23.55815" lon="107.285694">
<time>2015-09-27T14:08:00Z</time></trkpt>
<trkpt lat="23.55828" lon="107.285694">
<time>2015-09-27T14:08:01Z</time></trkpt>
<trkpt lat="23.55842" lon="107.285694">
<time>2015-09-27T14:08:02Z</time></trkpt>
<trkpt lat="23.55855" lon="107.285714">
<time>2015-09-27T14:08:03Z</time></trkpt>
<trkpt lat="23.55869" lon="107.285744">
<time>2015-09-27T14:08:04Z</time></trkpt>
<trkpt lat="23.55887" lon="107.285784">
<time>2015-09-27T14:08:05Z</time></trkpt>
<trkpt lat="23.55914" lon="107.285853">
<time>2015-09-27T14:08:06Z</time></trkpt>
<trkpt lat="23.55956" lon="107.285943">
<time>2015-09-27T14:08:07Z</time></trkpt>
<trkpt lat="23.56012" lon="107.286003">
<time>2015-09-27T14:08:08Z</time></trkpt>
<trkpt lat="23.56047" lon="107.286013">
<time>2015-09-27T14:08:09Z</time></trkpt>
<trkpt lat="23.56071" lon="107.285983">
<time>2015-09-27T14:08:10Z</time></trkpt>
<trkpt lat="23.56097" lon="107.285893">
<time>2015-09-27T14:08:11Z</time></trkpt>
<trkpt lat="23.561311" lon="107.285724">
<time>2015-09-27T14:08:12Z</time></trkpt>
<trkpt lat="23.561701" lon="107.285474">
<time>2015-09-27T14:08:13Z</time></trkpt>
<trkpt lat="23.562111" lon="107.285125">
<time>2015-09-27T14:08:14Z</time></trkpt>
<trkpt lat="23.563073" lon="107.284236">
<time>2015-09-27T14:08:15Z</time></trkpt>
<trkpt lat="23.563263" lon="107.284067">
<time>2015-09-27T14:08:16Z</time></trkpt>
<trkpt lat="23.564244" lon="107.283218">
<time>2015-09-27T14:08:17Z</time></trkpt>
<trkpt lat="23.565375" lon="107.28217">
<time>2015-09-27T14:08:18Z</time></trkpt>
<trkpt lat="23.565796" lon="107.281721">
<time>2015-09-27T14:08:19Z</time></trkpt>
<trkpt lat="23.566066" lon="107.281411">
<time>2015-09-27T14:08:20Z</time></trkpt>
<trkpt lat="23.566357" lon="107.280982">
<time>2015-09-27T14:08:21Z</time></trkpt>
<trkpt lat="23.566818" lon="107.280273">
<time>2015-09-27T14:08:22Z</time></trkpt>
<trkpt lat="23.567519" lon="107.279235">
<time>2015-09-27T14:08:23Z</time></trkpt>
<trkpt lat="23.56816" lon="107.278447">
<time>2015-09-27T14:08:24Z</time></trkpt>
<trkpt lat="23.569192" lon="107.277189">
<time>2015-09-27T14:08:25Z</time></trkpt>
<trkpt lat="23.569752" lon="107.2765">
<time>2015-09-27T14:08:26Z</time></trkpt>
<trkpt lat="23.570143" lon="107.275991">
<time>2015-09-27T14:08:27Z</time></trkpt>
<trkpt lat="23.570413" lon="107.275561">
<time>2015-09-27T14:08:28Z</time></trkpt>
<trkpt lat="23.570574" lon="107.275292">
<time>2015-09-27T14:08:29Z</time></trkpt>
<trkpt lat="23.570804" lon="107.274872">
<time>2015-09-27T14:08:30Z</time></trkpt>
<trkpt lat="23.571145" lon="107.274213">
<time>2015-09-27T14:08:31Z</time></trkpt>
<trkpt lat="23.571425" lon="107.273724">
<time>2015-09-27T14:08:32Z</time></trkpt>
<trkpt lat="23.571686" lon="107.273315">
<time>2015-09-27T14:08:33Z</time></trkpt>
<trkpt lat="23.572146" lon="107.272716">
<time>2015-09-27T14:08:34Z</time></trkpt>
<trkpt lat="23.572407" lon="107.272416">
<time>2015-09-27T14:08:35Z</time></trkpt>
<trkpt lat="23.572937" lon="107.271807">
<time>2015-09-27T14:08:36Z</time></trkpt>
<trkpt lat="23.573598" lon="107.271038">
<time>2015-09-27T14:08:37Z</time></trkpt>
<trkpt lat="23.573909" lon="107.270559">
<time>2015-09-27T14:08:38Z</time></trkpt>
<trkpt lat="23.574139" lon="107.27007">
<time>2015-09-27T14:08:39Z</time></trkpt>
<trkpt lat="23.574289" lon="107.26964">
<time>2015-09-27T14:08:40Z</time></trkpt>
<trkpt lat="23.574289" lon="107.26963">
<time>2015-09-27T14:08:41Z</time></trkpt>
<trkpt lat="23.57447" lon="107.269071">
<time>2015-09-27T14:08:42Z</time></trkpt>
<trkpt lat="23.57457" lon="107.268612">
<time>2015-09-27T14:08:43Z</time></trkpt>
<trkpt lat="23.574651" lon="107.268022">
<time>2015-09-27T14:08:44Z</time></trkpt>
<trkpt lat="23.574652" lon="107.267064">
<time>2015-09-27T14:08:45Z</time></trkpt>
<trkpt lat="23.574662" lon="107.266804">
<time>2015-09-27T14:08:46Z</time></trkpt>
<trkpt lat="23.574703" lon="107.265106">
<time>2015-09-27T14:08:47Z</time></trkpt>
<trkpt lat="23.574693" lon="107.264657">
<time>2015-09-27T14:08:48Z</time></trkpt>
<trkpt lat="23.574634" lon="107.264068">
<time>2015-09-27T14:08:49Z</time></trkpt>
<trkpt lat="23.574424" lon="107.263079">
<time>2015-09-27T14:08:50Z</time></trkpt>
<trkpt lat="23.574235" lon="107.26213">
<time>2015-09-27T14:08:51Z</time></trkpt>
<trkpt lat="23.574175" lon="107.26172">
<time>2015-09-27T14:08:52Z</time></trkpt>
<trkpt lat="23.574155" lon="107.261361">
<time>2015-09-27T14:08:53Z</time></trkpt>
<trkpt lat="23.574166" lon="107.261081">
<time>2015-09-27T14:08:54Z</time></trkpt>
<trkpt lat="23.574176" lon="107.260851">
<time>2015-09-27T14:08:55Z</time></trkpt>
<trkpt lat="23.574226" lon="107.260572">
<time>2015-09-27T14:08:56Z</time></trkpt>
<trkpt lat="23.574296" lon="107.260312">
<time>2015-09-27T14:08:57Z</time></trkpt>
<trkpt lat="23.574406" lon="107.260012">
<time>2015-09-27T14:08:58Z</time></trkpt>
<trkpt lat="23.574727" lon="107.259303">
<time>2015-09-27T14:08:59Z</time></trkpt>
<trkpt lat="23.574917" lon="107.258873">
<time>2015-09-27T14:09:00Z</time></trkpt>
<trkpt lat="23.576519" lon="107.255247">
<time>2015-09-27T14:09:01Z</time></trkpt>
<trkpt lat="23.577129" lon="107.253898">
<time>2015-09-27T14:09:02Z</time></trkpt>
<trkpt lat="23.577449" lon="107.253188">
<time>2015-09-27T14:09:03Z</time></trkpt>
<trkpt lat="23.577739" lon="107.252529">
<time>2015-09-27T14:09:04Z</time></trkpt>
<trkpt lat="23.577779" lon="107.252459">
<time>2015-09-27T14:09:05Z</time></trkpt>
<trkpt lat="23.57826" lon="107.25144">
<time>2015-09-27T14:09:06Z</time></trkpt>
<trkpt lat="23.57899" lon="107.250001">
<time>2015-09-27T14:09:07Z</time></trkpt>
<trkpt lat="23.581211" lon="107.245673">
<time>2015-09-27T14:09:08Z</time></trkpt>
<trkpt lat="23.581851" lon="107.244424">
<time>2015-09-27T14:09:09Z</time></trkpt>
<trkpt lat="23.582421" lon="107.243334">
<time>2015-09-27T14:09:10Z</time></trkpt>
<trkpt lat="23.58334" lon="107.241095">
<time>2015-09-27T14:09:11Z</time></trkpt>
<trkpt lat="23.58374" lon="107.239835">
<time>2015-09-27T14:09:12Z</time></trkpt>
<trkpt lat="23.58419" lon="107.238296">
<time>2015-09-27T14:09:13Z</time></trkpt>
<trkpt lat="23.584549" lon="107.237016">
<time>2015-09-27T14:09:14Z</time></trkpt>
<trkpt lat="23.584689" lon="107.236026">
<time>2015-09-27T14:09:15Z</time></trkpt>
<trkpt lat="23.584878" lon="107.233576">
<time>2015-09-27T14:09:16Z</time></trkpt>
<trkpt lat="23.585017" lon="107.231846">
<time>2015-09-27T14:09:17Z</time></trkpt>
<trkpt lat="23.585097" lon="107.231166">
<time>2015-09-27T14:09:18Z</time></trkpt>
<trkpt lat="23.585107" lon="107.231086">
<time>2015-09-27T14:09:19Z</time></trkpt>
<trkpt lat="23.585147" lon="107.230866">
<time>2015-09-27T14:09:20Z</time></trkpt>
<trkpt lat="23.585566" lon="107.229246">
<time>2015-09-27T14:09:21Z</time></trkpt>
<trkpt lat="23.586144" lon="107.227225">
<time>2015-09-27T14:09:22Z</time></trkpt>
<trkpt lat="23.586324" lon="107.226735">
<time>2015-09-27T14:09:23Z</time></trkpt>
<trkpt lat="23.587013" lon="107.224835">
<time>2015-09-27T14:09:24Z</time></trkpt>
<trkpt lat="23.587432" lon="107.223704">
<time>2015-09-27T14:09:25Z</time></trkpt>
<trkpt lat="23.587931" lon="107.222354">
<time>2015-09-27T14:09:26Z</time></trkpt>
<trkpt lat="23.58812" lon="107.221834">
<time>2015-09-27T14:09:27Z</time></trkpt>
<trkpt lat="23.58847" lon="107.220913">
<time>2015-09-27T14:09:28Z</time></trkpt>
<trkpt lat="23.588539" lon="107.220633">
<time>2015-09-27T14:09:29Z</time></trkpt>
<trkpt lat="23.588589" lon="107.220383">
<time>2015-09-27T14:09:30Z</time></trkpt>
<trkpt lat="23.588788" lon="107.219202">
<time>2015-09-27T14:09:31Z</time></trkpt>
<trkpt lat="23.588828" lon="107.218982">
<time>2015-09-27T14:09:32Z</time></trkpt>
<trkpt lat="23.588878" lon="107.218722">
<time>2015-09-27T14:09:33Z</time></trkpt>
<trkpt lat="23.589316" lon="107.217041">
<time>2015-09-27T14:09:34Z</time></trkpt>
<trkpt lat="23.589475" lon="107.216521">
<time>2015-09-27T14:09:35Z</time></trkpt>
<trkpt lat="23.589695" lon="107.21592">
<time>2015-09-27T14:09:36Z</time></trkpt>
<trkpt lat="23.589874" lon="107.21551">
<time>2015-09-27T14:09:37Z</time></trkpt>
<trkpt lat="23.590792" lon="107.213709">
<time>2015-09-27T14:09:38Z</time></trkpt>
<trkpt lat="23.590832" lon="107.213629">
<time>2015-09-27T14:09:39Z</time></trkpt>
<trkpt lat="23.591002" lon="107.213249">
<time>2015-09-27T14:09:40Z</time></trkpt>
<trkpt lat="23.591052" lon="107.213088">
<time>2015-09-27T14:09:41Z</time></trkpt>
<trkpt lat="23.591102" lon="107.212888">
<time>2015-09-27T14:09:42Z</time></trkpt>
<trkpt lat="23.591121" lon="107.212748">
<time>2015-09-27T14:09:43Z</time></trkpt>
<trkpt lat="23.591151" lon="107.212538">
<time>2015-09-27T14:09:44Z</time></trkpt>
<trkpt lat="23.591171" lon="107.212328">
<time>2015-09-27T14:09:45Z</time></trkpt>
<trkpt lat="23.591181" lon="107.212028">
<time>2015-09-27T14:09:46Z</time></trkpt>
<trkpt lat="23.591159" lon="107.210817">
<time>2015-09-27T14:09:47Z</time></trkpt>
<trkpt lat="23.591126" lon="107.208665">
<time>2015-09-27T14:09:48Z</time></trkpt>
<trkpt lat="23.591146" lon="107.208425">
<time>2015-09-27T14:09:49Z</time></trkpt>
<trkpt lat="23.591175" lon="107.207834">
<time>2015-09-27T14:09:50Z</time></trkpt>
<trkpt lat="23.591185" lon="107.207654">
<time>2015-09-27T14:09:51Z</time></trkpt>
<trkpt lat="23.591224" lon="107.207034">
<time>2015-09-27T14:09:52Z</time></trkpt>
<trkpt lat="23.591254" lon="107.206513">
<time>2015-09-27T14:09:53Z</time></trkpt>
<trkpt lat="23.591253" lon="107.205923">
<time>2015-09-27T14:09:54Z</time></trkpt>
<trkpt lat="23.591253" lon="107.205902">
<time>2015-09-27T14:09:55Z</time></trkpt>
<trkpt lat="23.591241" lon="107.204711">
<time>2015-09-27T14:09:56Z</time></trkpt>
<trkpt lat="23.59124" lon="107.203881">
<time>2015-09-27T14:09:57Z</time></trkpt>
<trkpt lat="23.591278" lon="107.202769">
<time>2015-09-27T14:09:58Z</time></trkpt>
<trkpt lat="23.591307" lon="107.202029">
<time>2015-09-27T14:09:59Z</time></trkpt>
<trkpt lat="23.591748" lon="107.196032">
<time>2015-09-27T14:10:00Z</time></trkpt>
<trkpt lat="23.591758" lon="107.195902">
<time>2015-09-27T14:10:01Z</time></trkpt>
<trkpt lat="23.592222" lon="107.192288">
<time>2015-09-27T14:10:02Z</time></trkpt>
<trkpt lat="23.592459" lon="107.190405">
<time>2015-09-27T14:10:03Z</time></trkpt>
<trkpt lat="23.593277" lon="107.183766">
<time>2015-09-27T14:10:04Z</time></trkpt>
<trkpt lat="23.593494" lon="107.181954">
<time>2015-09-27T14:10:05Z</time></trkpt>
<trkpt lat="23.593829" lon="107.17921">
<time>2015-09-27T14:10:06Z</time></trkpt>
<trkpt lat="23.594263" lon="107.175625">
<time>2015-09-27T14:10:07Z</time></trkpt>
<trkpt lat="23.594538" lon="107.173311">
<time>2015-09-27T14:10:08Z</time></trkpt>
<trkpt lat="23.5951" lon="107.168674">
<time>2015-09-27T14:10:09Z</time></trkpt>
<trkpt lat="23.595208" lon="107.167803">
<time>2015-09-27T14:10:10Z</time></trkpt>
<trkpt lat="23.595385" lon="107.166371">
<time>2015-09-27T14:10:11Z</time></trkpt>
<trkpt lat="23.595592" lon="107.164649">
<time>2015-09-27T14:10:12Z</time></trkpt>
<trkpt lat="23.595996" lon="107.161354">
<time>2015-09-27T14:10:13Z</time></trkpt>
<trkpt lat="23.596006" lon="107.161234">
<time>2015-09-27T14:10:14Z</time></trkpt>
<trkpt lat="23.596075" lon="107.160683">
<time>2015-09-27T14:10:15Z</time></trkpt>
<trkpt lat="23.596094" lon="107.160492">
<time>2015-09-27T14:10:16Z</time></trkpt>
<trkpt lat="23.596252" lon="107.159231">
<time>2015-09-27T14:10:17Z</time></trkpt>
<trkpt lat="23.596301" lon="107.15887">
<time>2015-09-27T14:10:18Z</time></trkpt>
<trkpt lat="23.596508" lon="107.157268">
<time>2015-09-27T14:10:19Z</time></trkpt>
<trkpt lat="23.596844" lon="107.154714">
<time>2015-09-27T14:10:20Z</time></trkpt>
<trkpt lat="23.596942" lon="107.154043">
<time>2015-09-27T14:10:21Z</time></trkpt>
<trkpt lat="23.597002" lon="107.153753">
<time>2015-09-27T14:10:22Z</time></trkpt>
<trkpt lat="23.597062" lon="107.153523">
<time>2015-09-27T14:10:23Z</time></trkpt>
<trkpt lat="23.597151" lon="107.153212">
<time>2015-09-27T14:10:24Z</time></trkpt>
<trkpt lat="23.59724" lon="107.152952">
<time>2015-09-27T14:10:25Z</time></trkpt>
<trkpt lat="23.597609" lon="107.151961">
<time>2015-09-27T14:10:26Z</time></trkpt>
<trkpt lat="23.598096" lon="107.150609">
<time>2015-09-27T14:10:27Z</time></trkpt>
<trkpt lat="23.598345" lon="107.149758">
<time>2015-09-27T14:10:28Z</time></trkpt>
<trkpt lat="23.598444" lon="107.149267">
<time>2015-09-27T14:10:29Z</time></trkpt>
<trkpt lat="23.598503" lon="107.148906">
<time>2015-09-27T14:10:30Z</time></trkpt>
<trkpt lat="23.598731" lon="107.147515">
<time>2015-09-27T14:10:31Z</time></trkpt>
<trkpt lat="23.599177" lon="107.145302">
<time>2015-09-27T14:10:32Z</time></trkpt>
<trkpt lat="23.599474" lon="107.14355">
<time>2015-09-27T14:10:33Z</time></trkpt>
<trkpt lat="23.599583" lon="107.142849">
<time>2015-09-27T14:10:34Z</time></trkpt>
<trkpt lat="23.599633" lon="107.142468">
<time>2015-09-27T14:10:35Z</time></trkpt>
<trkpt lat="23.599672" lon="107.142188">
<time>2015-09-27T14:10:36Z</time></trkpt>
<trkpt lat="23.599712" lon="107.141908">
<time>2015-09-27T14:10:37Z</time></trkpt>
<trkpt lat="23.59993" lon="107.141117">
<time>2015-09-27T14:10:38Z</time></trkpt>
<trkpt lat="23.59994" lon="107.141097">
<time>2015-09-27T14:10:39Z</time></trkpt>
<trkpt lat="23.60004" lon="107.140746">
<time>2015-09-27T14:10:40Z</time></trkpt>
<trkpt lat="23.600129" lon="107.140386">
<time>2015-09-27T14:10:41Z</time></trkpt>
<trkpt lat="23.601033" lon="107.136001">
<time>2015-09-27T14:10:42Z</time></trkpt>
<trkpt lat="23.601102" lon="107.135641">
<time>2015-09-27T14:10:43Z</time></trkpt>
<trkpt lat="23.601122" lon="107.135591">
<time>2015-09-27T14:10:44Z</time></trkpt>
<trkpt lat="23.601192" lon="107.13529">
<time>2015-09-27T14:10:45Z</time></trkpt>
<trkpt lat="23.601241" lon="107.13505">
<time>2015-09-27T14:10:46Z</time></trkpt>
<trkpt lat="23.601321" lon="107.13465">
<time>2015-09-27T14:10:47Z</time></trkpt>
<trkpt lat="23.60143" lon="107.134139">
<time>2015-09-27T14:10:48Z</time></trkpt>
<trkpt lat="23.601489" lon="107.133809">
<time>2015-09-27T14:10:49Z</time></trkpt>
<trkpt lat="23.601618" lon="107.133178">
<time>2015-09-27T14:10:50Z</time></trkpt>
<trkpt lat="23.601797" lon="107.132338">
<time>2015-09-27T14:10:51Z</time></trkpt>
<trkpt lat="23.602125" lon="107.130716">
<time>2015-09-27T14:10:52Z</time></trkpt>
<trkpt lat="23.602185" lon="107.130406">
<time>2015-09-27T14:10:53Z</time></trkpt>
<trkpt lat="23.602373" lon="107.129475">
<time>2015-09-27T14:10:54Z</time></trkpt>
<trkpt lat="23.602443" lon="107.129135">
<time>2015-09-27T14:10:55Z</time></trkpt>
<trkpt lat="23.602522" lon="107.128725">
<time>2015-09-27T14:10:56Z</time></trkpt>
<trkpt lat="23.602711" lon="107.127794">
<time>2015-09-27T14:10:57Z</time></trkpt>
<trkpt lat="23.603029" lon="107.126183">
<time>2015-09-27T14:10:58Z</time></trkpt>
<trkpt lat="23.603268" lon="107.125002">
<time>2015-09-27T14:10:59Z</time></trkpt>
<trkpt lat="23.603407" lon="107.124241">
<time>2015-09-27T14:11:00Z</time></trkpt>
<trkpt lat="23.603407" lon="107.124231">
<time>2015-09-27T14:11:01Z</time></trkpt>
<trkpt lat="23.603477" lon="107.123821">
<time>2015-09-27T14:11:02Z</time></trkpt>
<trkpt lat="23.603516" lon="107.123511">
<time>2015-09-27T14:11:03Z</time></trkpt>
<trkpt lat="23.603546" lon="107.123271">
<time>2015-09-27T14:11:04Z</time></trkpt>
<trkpt lat="23.603624" lon="107.12187">
<time>2015-09-27T14:11:05Z</time></trkpt>
<trkpt lat="23.603654" lon="107.12151">
<time>2015-09-27T14:11:06Z</time></trkpt>
<trkpt lat="23.603664" lon="107.121279">
<time>2015-09-27T14:11:07Z</time></trkpt>
<trkpt lat="23.603674" lon="107.121179">
<time>2015-09-27T14:11:08Z</time></trkpt>
<trkpt lat="23.603684" lon="107.121129">
<time>2015-09-27T14:11:09Z</time></trkpt>
<trkpt lat="23.603802" lon="107.119929">
<time>2015-09-27T14:11:10Z</time></trkpt>
<trkpt lat="23.603822" lon="107.119539">
<time>2015-09-27T14:11:11Z</time></trkpt>
<trkpt lat="23.603832" lon="107.119388">
<time>2015-09-27T14:11:12Z</time></trkpt>
<trkpt lat="23.603842" lon="107.119238">
<time>2015-09-27T14:11:13Z</time></trkpt>
<trkpt lat="23.603871" lon="107.118718">
<time>2015-09-27T14:11:14Z</time></trkpt>
<trkpt lat="23.603871" lon="107.118638">
<time>2015-09-27T14:11:15Z</time></trkpt>
<trkpt lat="23.603881" lon="107.118428">
<time>2015-09-27T14:11:16Z</time></trkpt>
<trkpt lat="23.60391" lon="107.117778">
<time>2015-09-27T14:11:17Z</time></trkpt>
<trkpt lat="23.603959" lon="107.116937">
<time>2015-09-27T14:11:18Z</time></trkpt>
<trkpt lat="23.603959" lon="107.116437">
<time>2015-09-27T14:11:19Z</time></trkpt>
<trkpt lat="23.603968" lon="107.115237">
<time>2015-09-27T14:11:20Z</time></trkpt>
<trkpt lat="23.603987" lon="107.114627">
<time>2015-09-27T14:11:21Z</time></trkpt>
<trkpt lat="23.603987" lon="107.114617">
<time>2015-09-27T14:11:22Z</time></trkpt>
<trkpt lat="23.604007" lon="107.114337">
<time>2015-09-27T14:11:23Z</time></trkpt>
<trkpt lat="23.604017" lon="107.114197">
<time>2015-09-27T14:11:24Z</time></trkpt>
<trkpt lat="23.604047" lon="107.114007">
<time>2015-09-27T14:11:25Z</time></trkpt>
<trkpt lat="23.604336" lon="107.112466">
<time>2015-09-27T14:11:26Z</time></trkpt>
<trkpt lat="23.604545" lon="107.111336">
<time>2015-09-27T14:11:27Z</time></trkpt>
<trkpt lat="23.604804" lon="107.109896">
<time>2015-09-27T14:11:28Z</time></trkpt>
<trkpt lat="23.604904" lon="107.109376">
<time>2015-09-27T14:11:29Z</time></trkpt>
<trkpt lat="23.605233" lon="107.107656">
<time>2015-09-27T14:11:30Z</time></trkpt>
<trkpt lat="23.605332" lon="107.106966">
<time>2015-09-27T14:11:31Z</time></trkpt>
<trkpt lat="23.605432" lon="107.106286">
<time>2015-09-27T14:11:32Z</time></trkpt>
<trkpt lat="23.605561" lon="107.104986">
<time>2015-09-27T14:11:33Z</time></trkpt>
<trkpt lat="23.605581" lon="107.104786">
<time>2015-09-27T14:11:34Z</time></trkpt>
<trkpt lat="23.605621" lon="107.104706">
<time>2015-09-27T14:11:35Z</time></trkpt>
<trkpt lat="23.605701" lon="107.103716">
<time>2015-09-27T14:11:36Z</time></trkpt>
<trkpt lat="23.6058" lon="107.102916">
<time>2015-09-27T14:11:37Z</time></trkpt>
<trkpt lat="23.60583" lon="107.102536">
<time>2015-09-27T14:11:38Z</time></trkpt>
<trkpt lat="23.60587" lon="107.101956">
<time>2015-09-27T14:11:39Z</time></trkpt>
<trkpt lat="23.60588" lon="107.101477">
<time>2015-09-27T14:11:40Z</time></trkpt>
<trkpt lat="23.60585" lon="107.100707">
<time>2015-09-27T14:11:41Z</time></trkpt>
<trkpt lat="23.605779" lon="107.098977">
<time>2015-09-27T14:11:42Z</time></trkpt>
<trkpt lat="23.605699" lon="107.097448">
<time>2015-09-27T14:11:43Z</time></trkpt>
<trkpt lat="23.605699" lon="107.097328">
<time>2015-09-27T14:11:44Z</time></trkpt>
<trkpt lat="23.605709" lon="107.096848">
<time>2015-09-27T14:11:45Z</time></trkpt>
<trkpt lat="23.605749" lon="107.096259">
<time>2015-09-27T14:11:46Z</time></trkpt>
<trkpt lat="23.605959" lon="107.09396">
<time>2015-09-27T14:11:47Z</time></trkpt>
<trkpt lat="23.606059" lon="107.092791">
<time>2015-09-27T14:11:48Z</time></trkpt>
<trkpt lat="23.606159" lon="107.091632">
<time>2015-09-27T14:11:49Z</time></trkpt>
<trkpt lat="23.606259" lon="107.090672">
<time>2015-09-27T14:11:50Z</time></trkpt>
<trkpt lat="23.606369" lon="107.089403">
<time>2015-09-27T14:11:51Z</time></trkpt>
<trkpt lat="23.606429" lon="107.088774">
<time>2015-09-27T14:11:52Z</time></trkpt>
<trkpt lat="23.60649" lon="107.088015">
<time>2015-09-27T14:11:53Z</time></trkpt>
<trkpt lat="23.60653" lon="107.087445">
<time>2015-09-27T14:11:54Z</time></trkpt>
<trkpt lat="23.60655" lon="107.087046">
<time>2015-09-27T14:11:55Z</time></trkpt>
<trkpt lat="23.60656" lon="107.086426">
<time>2015-09-27T14:11:56Z</time></trkpt>
<trkpt lat="23.60656" lon="107.086336">
<time>2015-09-27T14:11:57Z</time></trkpt>
<trkpt lat="23.60654" lon="107.085587">
<time>2015-09-27T14:11:58Z</time></trkpt>
<trkpt lat="23.606511" lon="107.084179">
<time>2015-09-27T14:11:59Z</time></trkpt>
<trkpt lat="23.606511" lon="107.083729">
<time>2015-09-27T14:12:00Z</time></trkpt>
<trkpt lat="23.606472" lon="107.08273">
<time>2015-09-27T14:12:01Z</time></trkpt>
<trkpt lat="23.606452" lon="107.082311">
<time>2015-09-27T14:12:02Z</time></trkpt>
<trkpt lat="23.606462" lon="107.081722">
<time>2015-09-27T14:12:03Z</time></trkpt>
<trkpt lat="23.606443" lon="107.080843">
<time>2015-09-27T14:12:04Z</time></trkpt>
<trkpt lat="23.606384" lon="107.079035">
<time>2015-09-27T14:12:05Z</time></trkpt>
<trkpt lat="23.606374" lon="107.078087">
<time>2015-09-27T14:12:06Z</time></trkpt>
<trkpt lat="23.606335" lon="107.077427">
<time>2015-09-27T14:12:07Z</time></trkpt>
<trkpt lat="23.606306" lon="107.076159">
<time>2015-09-27T14:12:08Z</time></trkpt>
<trkpt lat="23.606296" lon="107.07603">
<time>2015-09-27T14:12:09Z</time></trkpt>
<trkpt lat="23.606296" lon="107.075381">
<time>2015-09-27T14:12:10Z</time></trkpt>
<trkpt lat="23.606287" lon="107.075251">
<time>2015-09-27T14:12:11Z</time></trkpt>
<trkpt lat="23.606287" lon="107.074422">
<time>2015-09-27T14:12:12Z</time></trkpt>
<trkpt lat="23.606308" lon="107.073923">
<time>2015-09-27T14:12:13Z</time></trkpt>
<trkpt lat="23.606348" lon="107.073623">
<time>2015-09-27T14:12:14Z</time></trkpt>
<trkpt lat="23.606368" lon="107.073524">
<time>2015-09-27T14:12:15Z</time></trkpt>
<trkpt lat="23.606398" lon="107.073384">
<time>2015-09-27T14:12:16Z</time></trkpt>
<trkpt lat="23.606438" lon="107.073234">
<time>2015-09-27T14:12:17Z</time></trkpt>
<trkpt lat="23.606499" lon="107.073024">
<time>2015-09-27T14:12:18Z</time></trkpt>
<trkpt lat="23.606619" lon="107.072735">
<time>2015-09-27T14:12:19Z</time></trkpt>
<trkpt lat="23.606749" lon="107.072485">
<time>2015-09-27T14:12:20Z</time></trkpt>
<trkpt lat="23.606939" lon="107.072196">
<time>2015-09-27T14:12:21Z</time></trkpt>
<trkpt lat="23.6072" lon="107.071836">
<time>2015-09-27T14:12:22Z</time></trkpt>
<trkpt lat="23.60743" lon="107.071557">
<time>2015-09-27T14:12:23Z</time></trkpt>
<trkpt lat="23.60763" lon="107.071337">
<time>2015-09-27T14:12:24Z</time></trkpt>
<trkpt lat="23.607821" lon="107.071138">
<time>2015-09-27T14:12:25Z</time></trkpt>
<trkpt lat="23.607901" lon="107.071048">
<time>2015-09-27T14:12:26Z</time></trkpt>
<trkpt lat="23.608351" lon="107.070559">
<time>2015-09-27T14:12:27Z</time></trkpt>
<trkpt lat="23.608702" lon="107.070169">
<time>2015-09-27T14:12:28Z</time></trkpt>
<trkpt lat="23.608772" lon="107.070089">
<time>2015-09-27T14:12:29Z</time></trkpt>
<trkpt lat="23.609383" lon="107.069411">
<time>2015-09-27T14:12:30Z</time></trkpt>
<trkpt lat="23.609803" lon="107.068932">
<time>2015-09-27T14:12:31Z</time></trkpt>
<trkpt lat="23.610915" lon="107.067654">
<time>2015-09-27T14:12:32Z</time></trkpt>
<trkpt lat="23.611496" lon="107.066985">
<time>2015-09-27T14:12:33Z</time></trkpt>
<trkpt lat="23.611636" lon="107.066816">
<time>2015-09-27T14:12:34Z</time></trkpt>
<trkpt lat="23.611706" lon="107.066726">
<time>2015-09-27T14:12:35Z</time></trkpt>
<trkpt lat="23.611736" lon="107.066676">
<time>2015-09-27T14:12:36Z</time></trkpt>
<trkpt lat="23.611826" lon="107.066536">
<time>2015-09-27T14:12:37Z</time></trkpt>
<trkpt lat="23.612187" lon="107.065997">
<time>2015-09-27T14:12:38Z</time></trkpt>
<trkpt lat="23.6133" lon="107.064131">
<time>2015-09-27T14:12:39Z</time></trkpt>
<trkpt lat="23.613931" lon="107.063123">
<time>2015-09-27T14:12:40Z</time></trkpt>
<trkpt lat="23.614061" lon="107.062933">
<time>2015-09-27T14:12:41Z</time></trkpt>
<trkpt lat="23.614131" lon="107.062844">
<time>2015-09-27T14:12:42Z</time></trkpt>
<trkpt lat="23.614983" lon="107.061846">
<time>2015-09-27T14:12:43Z</time></trkpt>
<trkpt lat="23.615704" lon="107.060968">
<time>2015-09-27T14:12:44Z</time></trkpt>
<trkpt lat="23.615915" lon="107.060688">
<time>2015-09-27T14:12:45Z</time></trkpt>
<trkpt lat="23.616135" lon="107.060379">
<time>2015-09-27T14:12:46Z</time></trkpt>
<trkpt lat="23.616235" lon="107.060209">
<time>2015-09-27T14:12:47Z</time></trkpt>
<trkpt lat="23.616296" lon="107.06011">
<time>2015-09-27T14:12:48Z</time></trkpt>
<trkpt lat="23.617068" lon="107.058703">
<time>2015-09-27T14:12:49Z</time></trkpt>
<trkpt lat="23.617981" lon="107.057087">
<time>2015-09-27T14:12:50Z</time></trkpt>
<trkpt lat="23.618713" lon="107.05579">
<time>2015-09-27T14:12:51Z</time></trkpt>
<trkpt lat="23.619174" lon="107.054942">
<time>2015-09-27T14:12:52Z</time></trkpt>
<trkpt lat="23.619315" lon="107.054703">
<time>2015-09-27T14:12:53Z</time></trkpt>
<trkpt lat="23.619806" lon="107.053815">
<time>2015-09-27T14:12:54Z</time></trkpt>
<trkpt lat="23.620569" lon="107.052448">
<time>2015-09-27T14:12:55Z</time></trkpt>
<trkpt lat="23.62081" lon="107.05201">
<time>2015-09-27T14:12:56Z</time></trkpt>
<trkpt lat="23.62097" lon="107.05168">
<time>2015-09-27T14:12:57Z</time></trkpt>
<trkpt lat="23.621141" lon="107.051351">
<time>2015-09-27T14:12:58Z</time></trkpt>
<trkpt lat="23.621382" lon="107.050803">
<time>2015-09-27T14:12:59Z</time></trkpt>
<trkpt lat="23.621493" lon="107.050514">
<time>2015-09-27T14:13:00Z</time></trkpt>
<trkpt lat="23.621754" lon="107.049815">
<time>2015-09-27T14:13:01Z</time></trkpt>
<trkpt lat="23.621814" lon="107.049676">
<time>2015-09-27T14:13:02Z</time></trkpt>
<trkpt lat="23.621905" lon="107.049427">
<time>2015-09-27T14:13:03Z</time></trkpt>
<trkpt lat="23.622035" lon="107.049068">
<time>2015-09-27T14:13:04Z</time></trkpt>
<trkpt lat="23.622317" lon="107.04831">
<time>2015-09-27T14:13:05Z</time></trkpt>
<trkpt lat="23.622548" lon="107.047691">
<time>2015-09-27T14:13:06Z</time></trkpt>
<trkpt lat="23.62284" lon="107.046874">
<time>2015-09-27T14:13:07Z</time></trkpt>
<trkpt lat="23.623282" lon="107.045657">
<time>2015-09-27T14:13:08Z</time></trkpt>
<trkpt lat="23.624168" lon="107.043234">
<time>2015-09-27T14:13:09Z</time></trkpt>
<trkpt lat="23.624278" lon="107.042935">
<time>2015-09-27T14:13:10Z</time></trkpt>
<trkpt lat="23.624379" lon="107.042676">
<time>2015-09-27T14:13:11Z</time></trkpt>
<trkpt lat="23.625184" lon="107.040463">
<time>2015-09-27T14:13:12Z</time></trkpt>
<trkpt lat="23.625727" lon="107.038978">
<time>2015-09-27T14:13:13Z</time></trkpt>
<trkpt lat="23.625979" lon="107.03836">
<time>2015-09-27T14:13:14Z</time></trkpt>
<trkpt lat="23.62615" lon="107.037951">
<time>2015-09-27T14:13:15Z</time></trkpt>
<trkpt lat="23.627647" lon="107.034951">
<time>2015-09-27T14:13:16Z</time></trkpt>
<trkpt lat="23.62816" lon="107.033944">
<time>2015-09-27T14:13:17Z</time></trkpt>
<trkpt lat="23.629316" lon="107.031652">
<time>2015-09-27T14:13:18Z</time></trkpt>
<trkpt lat="23.629366" lon="107.031552">
<time>2015-09-27T14:13:19Z</time></trkpt>
<trkpt lat="23.631718" lon="107.026868">
<time>2015-09-27T14:13:20Z</time></trkpt>
<trkpt lat="23.633257" lon="107.023819">
<time>2015-09-27T14:13:21Z</time></trkpt>
<trkpt lat="23.634595" lon="107.021069">
<time>2015-09-27T14:13:22Z</time></trkpt>
<trkpt lat="23.635108" lon="107.020013">
<time>2015-09-27T14:13:23Z</time></trkpt>
<trkpt lat="23.635872" lon="107.018558">
<time>2015-09-27T14:13:24Z</time></trkpt>
<trkpt lat="23.636645" lon="107.017343">
<time>2015-09-27T14:13:25Z</time></trkpt>
<trkpt lat="23.636736" lon="107.017214">
<time>2015-09-27T14:13:26Z</time></trkpt>
<trkpt lat="23.637288" lon="107.016387">
<time>2015-09-27T14:13:27Z</time></trkpt>
<trkpt lat="23.63779" lon="107.015629">
<time>2015-09-27T14:13:28Z</time></trkpt>
<trkpt lat="23.637891" lon="107.01548">
<time>2015-09-27T14:13:29Z</time></trkpt>
<trkpt lat="23.638192" lon="107.015022">
<time>2015-09-27T14:13:30Z</time></trkpt>
<trkpt lat="23.638423" lon="107.014633">
<time>2015-09-27T14:13:31Z</time></trkpt>
<trkpt lat="23.638544" lon="107.014404">
<time>2015-09-27T14:13:32Z</time></trkpt>
<trkpt lat="23.638655" lon="107.014135">
<time>2015-09-27T14:13:33Z</time></trkpt>
<trkpt lat="23.638756" lon="107.013866">
<time>2015-09-27T14:13:34Z</time></trkpt>
<trkpt lat="23.638826" lon="107.013637">
<time>2015-09-27T14:13:35Z</time></trkpt>
<trkpt lat="23.639059" lon="107.0128">
<time>2015-09-27T14:13:36Z</time></trkpt>
<trkpt lat="23.639352" lon="107.011705">
<time>2015-09-27T14:13:37Z</time></trkpt>
<trkpt lat="23.639504" lon="107.011027">
<time>2015-09-27T14:13:38Z</time></trkpt>
<trkpt lat="23.639787" lon="107.009991">
<time>2015-09-27T14:13:39Z</time></trkpt>
<trkpt lat="23.639838" lon="107.009822">
<time>2015-09-27T14:13:40Z</time></trkpt>
<trkpt lat="23.640131" lon="107.008736">
<time>2015-09-27T14:13:41Z</time></trkpt>
<trkpt lat="23.640273" lon="107.008198">
<time>2015-09-27T14:13:42Z</time></trkpt>
<trkpt lat="23.640313" lon="107.008019">
<time>2015-09-27T14:13:43Z</time></trkpt>
<trkpt lat="23.640364" lon="107.00786">
<time>2015-09-27T14:13:44Z</time></trkpt>
<trkpt lat="23.640424" lon="107.0077">
<time>2015-09-27T14:13:45Z</time></trkpt>
<trkpt lat="23.640495" lon="107.007521">
<time>2015-09-27T14:13:46Z</time></trkpt>
<trkpt lat="23.640575" lon="107.007361">
<time>2015-09-27T14:13:47Z</time></trkpt>
<trkpt lat="23.640585" lon="107.007352">
<time>2015-09-27T14:13:48Z</time></trkpt>
<trkpt lat="23.640676" lon="107.007172">
<time>2015-09-27T14:13:49Z</time></trkpt>
<trkpt lat="23.640716" lon="107.007112">
<time>2015-09-27T14:13:50Z</time></trkpt>
<trkpt lat="23.640746" lon="107.007073">
<time>2015-09-27T14:13:51Z</time></trkpt>
<trkpt lat="23.640877" lon="107.006933">
<time>2015-09-27T14:13:52Z</time></trkpt>
<trkpt lat="23.641087" lon="107.006724">
<time>2015-09-27T14:13:53Z</time></trkpt>
<trkpt lat="23.641368" lon="107.006405">
<time>2015-09-27T14:13:54Z</time></trkpt>
<trkpt lat="23.64184" lon="107.005897">
<time>2015-09-27T14:13:55Z</time></trkpt>
<trkpt lat="23.64192" lon="107.005798">
<time>2015-09-27T14:13:56Z</time></trkpt>
<trkpt lat="23.642612" lon="107.005041">
<time>2015-09-27T14:13:57Z</time></trkpt>
<trkpt lat="23.643345" lon="107.004283">
<time>2015-09-27T14:13:58Z</time></trkpt>
<trkpt lat="23.643897" lon="107.003716">
<time>2015-09-27T14:13:59Z</time></trkpt>
<trkpt lat="23.643977" lon="107.003626">
<time>2015-09-27T14:14:00Z</time></trkpt>
<trkpt lat="23.644107" lon="107.003507">
<time>2015-09-27T14:14:01Z</time></trkpt>
<trkpt lat="23.644258" lon="107.003327">
<time>2015-09-27T14:14:02Z</time></trkpt>
<trkpt lat="23.644429" lon="107.003138">
<time>2015-09-27T14:14:03Z</time></trkpt>
<trkpt lat="23.644609" lon="107.002879">
<time>2015-09-27T14:14:04Z</time></trkpt>
<trkpt lat="23.64477" lon="107.00261">
<time>2015-09-27T14:14:05Z</time></trkpt>
<trkpt lat="23.644961" lon="107.002222">
<time>2015-09-27T14:14:06Z</time></trkpt>
<trkpt lat="23.645072" lon="107.001933">
<time>2015-09-27T14:14:07Z</time></trkpt>
<trkpt lat="23.645224" lon="107.001405">
<time>2015-09-27T14:14:08Z</time></trkpt>
<trkpt lat="23.645426" lon="107.000877">
<time>2015-09-27T14:14:09Z</time></trkpt>
<trkpt lat="23.645576" lon="107.000568">
<time>2015-09-27T14:14:10Z</time></trkpt>
<trkpt lat="23.645697" lon="107.000349">
<time>2015-09-27T14:14:11Z</time></trkpt>
<trkpt lat="23.645818" lon="107.00018">
<time>2015-09-27T14:14:12Z</time></trkpt>
<trkpt lat="23.645968" lon="106.99999">
<time>2015-09-27T14:14:13Z</time></trkpt>
<trkpt lat="23.646219" lon="106.999731">
<time>2015-09-27T14:14:14Z</time></trkpt>
<trkpt lat="23.64664" lon="106.999403">
<time>2015-09-27T14:14:15Z</time></trkpt>
<trkpt lat="23.647101" lon="106.999064">
<time>2015-09-27T14:14:16Z</time></trkpt>
<trkpt lat="23.647592" lon="106.998795">
<time>2015-09-27T14:14:17Z</time></trkpt>
<trkpt lat="23.648083" lon="106.998616">
<time>2015-09-27T14:14:18Z</time></trkpt>
<trkpt lat="23.648463" lon="106.998536">
<time>2015-09-27T14:14:19Z</time></trkpt>
<trkpt lat="23.649464" lon="106.998436">
<time>2015-09-27T14:14:20Z</time></trkpt>
<trkpt lat="23.650014" lon="106.998327">
<time>2015-09-27T14:14:21Z</time></trkpt>
<trkpt lat="23.650625" lon="106.998148">
<time>2015-09-27T14:14:22Z</time></trkpt>
<trkpt lat="23.651045" lon="106.997978">
<time>2015-09-27T14:14:23Z</time></trkpt>
<trkpt lat="23.651115" lon="106.997948">
<time>2015-09-27T14:14:24Z</time></trkpt>
<trkpt lat="23.651466" lon="106.997779">
<time>2015-09-27T14:14:25Z</time></trkpt>
<trkpt lat="23.652307" lon="106.997371">
<time>2015-09-27T14:14:26Z</time></trkpt>
<trkpt lat="23.653329" lon="106.996962">
<time>2015-09-27T14:14:27Z</time></trkpt>
<trkpt lat="23.65432" lon="106.996633">
<time>2015-09-27T14:14:28Z</time></trkpt>
<trkpt lat="23.655371" lon="106.996404">
<time>2015-09-27T14:14:29Z</time></trkpt>
<trkpt lat="23.655941" lon="106.996295">
<time>2015-09-27T14:14:30Z</time></trkpt>
<trkpt lat="23.656782" lon="106.996135">
<time>2015-09-27T14:14:31Z</time></trkpt>
<trkpt lat="23.658223" lon="106.995936">
<time>2015-09-27T14:14:32Z</time></trkpt>
<trkpt lat="23.658993" lon="106.995826">
<time>2015-09-27T14:14:33Z</time></trkpt>
<trkpt lat="23.661284" lon="106.995488">
<time>2015-09-27T14:14:34Z</time></trkpt>
<trkpt lat="23.661735" lon="106.995418">
<time>2015-09-27T14:14:35Z</time></trkpt>
<trkpt lat="23.662155" lon="106.995358">
<time>2015-09-27T14:14:36Z</time></trkpt>
<trkpt lat="23.662415" lon="106.995298">
<time>2015-09-27T14:14:37Z</time></trkpt>
<trkpt lat="23.663146" lon="106.995159">
<time>2015-09-27T14:14:38Z</time></trkpt>
<trkpt lat="23.663536" lon="106.995059">
<time>2015-09-27T14:14:39Z</time></trkpt>
<trkpt lat="23.663887" lon="106.99497">
<time>2015-09-27T14:14:40Z</time></trkpt>
<trkpt lat="23.664607" lon="106.994711">
<time>2015-09-27T14:14:41Z</time></trkpt>
<trkpt lat="23.665248" lon="106.994452">
<time>2015-09-27T14:14:42Z</time></trkpt>
<trkpt lat="23.665409" lon="106.994372">
<time>2015-09-27T14:14:43Z</time></trkpt>
<trkpt lat="23.66611" lon="106.994003">
<time>2015-09-27T14:14:44Z</time></trkpt>
<trkpt lat="23.666661" lon="106.993665">
<time>2015-09-27T14:14:45Z</time></trkpt>
<trkpt lat="23.667934" lon="106.992858">
<time>2015-09-27T14:14:46Z</time></trkpt>
<trkpt lat="23.670329" lon="106.991174">
<time>2015-09-27T14:14:47Z</time></trkpt>
<trkpt lat="23.67051" lon="106.991055">
<time>2015-09-27T14:14:48Z</time></trkpt>
<trkpt lat="23.672314" lon="106.98978">
<time>2015-09-27T14:14:49Z</time></trkpt>
<trkpt lat="23.673226" lon="106.989122">
<time>2015-09-27T14:14:50Z</time></trkpt>
<trkpt lat="23.676413" lon="106.986821">
<time>2015-09-27T14:14:51Z</time></trkpt>
<trkpt lat="23.678859" lon="106.985058">
<time>2015-09-27T14:14:52Z</time></trkpt>
<trkpt lat="23.67912" lon="106.984869">
<time>2015-09-27T14:14:53Z</time></trkpt>
<trkpt lat="23.679441" lon="106.98465">
<time>2015-09-27T14:14:54Z</time></trkpt>
<trkpt lat="23.680272" lon="106.984082">
<time>2015-09-27T14:14:55Z</time></trkpt>
<trkpt lat="23.680303" lon="106.984052">
<time>2015-09-27T14:14:56Z</time></trkpt>
<trkpt lat="23.681505" lon="106.983176">
<time>2015-09-27T14:14:57Z</time></trkpt>
<trkpt lat="23.681586" lon="106.983126">
<time>2015-09-27T14:14:58Z</time></trkpt>
<trkpt lat="23.683079" lon="106.98212">
<time>2015-09-27T14:14:59Z</time></trkpt>
<trkpt lat="23.683199" lon="106.98203">
<time>2015-09-27T14:15:00Z</time></trkpt>
<trkpt lat="23.684432" lon="106.981143">
<time>2015-09-27T14:15:01Z</time></trkpt>
<trkpt lat="23.684783" lon="106.980874">
<time>2015-09-27T14:15:02Z</time></trkpt>
<trkpt lat="23.685525" lon="106.980317">
<time>2015-09-27T14:15:03Z</time></trkpt>
<trkpt lat="23.685966" lon="106.979988">
<time>2015-09-27T14:15:04Z</time></trkpt>
<trkpt lat="23.686186" lon="106.979858">
<time>2015-09-27T14:15:05Z</time></trkpt>
<trkpt lat="23.686487" lon="106.979689">
<time>2015-09-27T14:15:06Z</time></trkpt>
<trkpt lat="23.68842" lon="106.978713">
<time>2015-09-27T14:15:07Z</time></trkpt>
<trkpt lat="23.690513" lon="106.977716">
<time>2015-09-27T14:15:08Z</time></trkpt>
<trkpt lat="23.690974" lon="106.977497">
<time>2015-09-27T14:15:09Z</time></trkpt>
<trkpt lat="23.691865" lon="106.977069">
<time>2015-09-27T14:15:10Z</time></trkpt>
<trkpt lat="23.692917" lon="106.976531">
<time>2015-09-27T14:15:11Z</time></trkpt>
<trkpt lat="23.693889" lon="106.976092">
<time>2015-09-27T14:15:12Z</time></trkpt>
<trkpt lat="23.695171" lon="106.975515">
<time>2015-09-27T14:15:13Z</time></trkpt>
<trkpt lat="23.696212" lon="106.975046">
<time>2015-09-27T14:15:14Z</time></trkpt>
<trkpt lat="23.696352" lon="106.974987">
<time>2015-09-27T14:15:15Z</time></trkpt>
<trkpt lat="23.697194" lon="106.974598">
<time>2015-09-27T14:15:16Z</time></trkpt>
<trkpt lat="23.698215" lon="106.97414">
<time>2015-09-27T14:15:17Z</time></trkpt>
<trkpt lat="23.698465" lon="106.97403">
<time>2015-09-27T14:15:18Z</time></trkpt>
<trkpt lat="23.698706" lon="106.97392">
<time>2015-09-27T14:15:19Z</time></trkpt>
<trkpt lat="23.699337" lon="106.973641">
<time>2015-09-27T14:15:20Z</time></trkpt>
<trkpt lat="23.70153" lon="106.972765">
<time>2015-09-27T14:15:21Z</time></trkpt>
<trkpt lat="23.702311" lon="106.972446">
<time>2015-09-27T14:15:22Z</time></trkpt>
<trkpt lat="23.703703" lon="106.971868">
<time>2015-09-27T14:15:23Z</time></trkpt>
<trkpt lat="23.704664" lon="106.971459">
<time>2015-09-27T14:15:24Z</time></trkpt>
<trkpt lat="23.704874" lon="106.97135">
<time>2015-09-27T14:15:25Z</time></trkpt>
<trkpt lat="23.705375" lon="106.971031">
<time>2015-09-27T14:15:26Z</time></trkpt>
<trkpt lat="23.705646" lon="106.970832">
<time>2015-09-27T14:15:27Z</time></trkpt>
<trkpt lat="23.705847" lon="106.970642">
<time>2015-09-27T14:15:28Z</time></trkpt>
<trkpt lat="23.706338" lon="106.970114">
<time>2015-09-27T14:15:29Z</time></trkpt>
<trkpt lat="23.70682" lon="106.969606">
<time>2015-09-27T14:15:30Z</time></trkpt>
<trkpt lat="23.70692" lon="106.969497">
<time>2015-09-27T14:15:31Z</time></trkpt>
<trkpt lat="23.707953" lon="106.968381">
<time>2015-09-27T14:15:32Z</time></trkpt>
<trkpt lat="23.708505" lon="106.967773">
<time>2015-09-27T14:15:33Z</time></trkpt>
<trkpt lat="23.708696" lon="106.967564">
<time>2015-09-27T14:15:34Z</time></trkpt>
<trkpt lat="23.709368" lon="106.966816">
<time>2015-09-27T14:15:35Z</time></trkpt>
<trkpt lat="23.709559" lon="106.966567">
<time>2015-09-27T14:15:36Z</time></trkpt>
<trkpt lat="23.709699" lon="106.966378">
<time>2015-09-27T14:15:37Z</time></trkpt>
<trkpt lat="23.709769" lon="106.966238">
<time>2015-09-27T14:15:38Z</time></trkpt>
<trkpt lat="23.70985" lon="106.966099">
<time>2015-09-27T14:15:39Z</time></trkpt>
<trkpt lat="23.70996" lon="106.96588">
<time>2015-09-27T14:15:40Z</time></trkpt>
<trkpt lat="23.710041" lon="106.9657">
<time>2015-09-27T14:15:41Z</time></trkpt>
<trkpt lat="23.710142" lon="106.965421">
<time>2015-09-27T14:15:42Z</time></trkpt>
<trkpt lat="23.710283" lon="106.965023">
<time>2015-09-27T14:15:43Z</time></trkpt>
<trkpt lat="23.710444" lon="106.964514">
<time>2015-09-27T14:15:44Z</time></trkpt>
<trkpt lat="23.710848" lon="106.963269">
<time>2015-09-27T14:15:45Z</time></trkpt>
<trkpt lat="23.711523" lon="106.961096">
<time>2015-09-27T14:15:46Z</time></trkpt>
<trkpt lat="23.711695" lon="106.960578">
<time>2015-09-27T14:15:47Z</time></trkpt>
<trkpt lat="23.712209" lon="106.959014">
<time>2015-09-27T14:15:48Z</time></trkpt>
<trkpt lat="23.712471" lon="106.958276">
<time>2015-09-27T14:15:49Z</time></trkpt>
<trkpt lat="23.712652" lon="106.957837">
<time>2015-09-27T14:15:50Z</time></trkpt>
<trkpt lat="23.712833" lon="106.957489">
<time>2015-09-27T14:15:51Z</time></trkpt>
<trkpt lat="23.713013" lon="106.95722">
<time>2015-09-27T14:15:52Z</time></trkpt>
<trkpt lat="23.713164" lon="106.95701">
<time>2015-09-27T14:15:53Z</time></trkpt>
<trkpt lat="23.713284" lon="106.956871">
<time>2015-09-27T14:15:54Z</time></trkpt>
<trkpt lat="23.713364" lon="106.956781">
<time>2015-09-27T14:15:55Z</time></trkpt>
<trkpt lat="23.713545" lon="106.956592">
<time>2015-09-27T14:15:56Z</time></trkpt>
<trkpt lat="23.714938" lon="106.955256">
<time>2015-09-27T14:15:57Z</time></trkpt>
<trkpt lat="23.71553" lon="106.954708">
<time>2015-09-27T14:15:58Z</time></trkpt>
<trkpt lat="23.716111" lon="106.954179">
<time>2015-09-27T14:15:59Z</time></trkpt>
<trkpt lat="23.717384" lon="106.952903">
<time>2015-09-27T14:16:00Z</time></trkpt>
<trkpt lat="23.717415" lon="106.952874">
<time>2015-09-27T14:16:01Z</time></trkpt>
<trkpt lat="23.717445" lon="106.952844">
<time>2015-09-27T14:16:02Z</time></trkpt>
<trkpt lat="23.719189" lon="106.951179">
<time>2015-09-27T14:16:03Z</time></trkpt>
<trkpt lat="23.720392" lon="106.950052">
<time>2015-09-27T14:16:04Z</time></trkpt>
<trkpt lat="23.720853" lon="106.949683">
<time>2015-09-27T14:16:05Z</time></trkpt>
<trkpt lat="23.721093" lon="106.949534">
<time>2015-09-27T14:16:06Z</time></trkpt>
<trkpt lat="23.721363" lon="106.949384">
<time>2015-09-27T14:16:07Z</time></trkpt>
<trkpt lat="23.722645" lon="106.948746">
<time>2015-09-27T14:16:08Z</time></trkpt>
<trkpt lat="23.724317" lon="106.947929">
<time>2015-09-27T14:16:09Z</time></trkpt>
<trkpt lat="23.725078" lon="106.94753">
<time>2015-09-27T14:16:10Z</time></trkpt>
<trkpt lat="23.725429" lon="106.94731">
<time>2015-09-27T14:16:11Z</time></trkpt>
<trkpt lat="23.7264" lon="106.946652">
<time>2015-09-27T14:16:12Z</time></trkpt>
<trkpt lat="23.726981" lon="106.946293">
<time>2015-09-27T14:16:13Z</time></trkpt>
<trkpt lat="23.727252" lon="106.946164">
<time>2015-09-27T14:16:14Z</time></trkpt>
<trkpt lat="23.727542" lon="106.946064">
<time>2015-09-27T14:16:15Z</time></trkpt>
<trkpt lat="23.727932" lon="106.945944">
<time>2015-09-27T14:16:16Z</time></trkpt>
<trkpt lat="23.728312" lon="106.945854">
<time>2015-09-27T14:16:17Z</time></trkpt>
<trkpt lat="23.729363" lon="106.945645">
<time>2015-09-27T14:16:18Z</time></trkpt>
<trkpt lat="23.731264" lon="106.945326">
<time>2015-09-27T14:16:19Z</time></trkpt>
<trkpt lat="23.731825" lon="106.945196">
<time>2015-09-27T14:16:20Z</time></trkpt>
<trkpt lat="23.732205" lon="106.945077">
<time>2015-09-27T14:16:21Z</time></trkpt>
<trkpt lat="23.732265" lon="106.945057">
<time>2015-09-27T14:16:22Z</time></trkpt>
<trkpt lat="23.732575" lon="106.944937">
<time>2015-09-27T14:16:23Z</time></trkpt>
<trkpt lat="23.733076" lon="106.944668">
<time>2015-09-27T14:16:24Z</time></trkpt>
<trkpt lat="23.733757" lon="106.944219">
<time>2015-09-27T14:16:25Z</time></trkpt>
<trkpt lat="23.73547" lon="106.943042">
<time>2015-09-27T14:16:26Z</time></trkpt>
<trkpt lat="23.736411" lon="106.942394">
<time>2015-09-27T14:16:27Z</time></trkpt>
<trkpt lat="23.736772" lon="106.942155">
<time>2015-09-27T14:16:28Z</time></trkpt>
<trkpt lat="23.736842" lon="106.942105">
<time>2015-09-27T14:16:29Z</time></trkpt>
<trkpt lat="23.738324" lon="106.941087">
<time>2015-09-27T14:16:30Z</time></trkpt>
<trkpt lat="23.739877" lon="106.94005">
<time>2015-09-27T14:16:31Z</time></trkpt>
<trkpt lat="23.740498" lon="106.939641">
<time>2015-09-27T14:16:32Z</time></trkpt>
<trkpt lat="23.740708" lon="106.939532">
<time>2015-09-27T14:16:33Z</time></trkpt>
<trkpt lat="23.740888" lon="106.939462">
<time>2015-09-27T14:16:34Z</time></trkpt>
<trkpt lat="23.741078" lon="106.939412">
<time>2015-09-27T14:16:35Z</time></trkpt>
<trkpt lat="23.741308" lon="106.939372">
<time>2015-09-27T14:16:36Z</time></trkpt>
<trkpt lat="23.741608" lon="106.939342">
<time>2015-09-27T14:16:37Z</time></trkpt>
<trkpt lat="23.741868" lon="106.939322">
<time>2015-09-27T14:16:38Z</time></trkpt>
<trkpt lat="23.744009" lon="106.939422">
<time>2015-09-27T14:16:39Z</time></trkpt>
<trkpt lat="23.745189" lon="106.939462">
<time>2015-09-27T14:16:40Z</time></trkpt>
<trkpt lat="23.745539" lon="106.939471">
<time>2015-09-27T14:16:41Z</time></trkpt>
<trkpt lat="23.746069" lon="106.939491">
<time>2015-09-27T14:16:42Z</time></trkpt>
<trkpt lat="23.746319" lon="106.939471">
<time>2015-09-27T14:16:43Z</time></trkpt>
<trkpt lat="23.74663" lon="106.939412">
<time>2015-09-27T14:16:44Z</time></trkpt>
<trkpt lat="23.74704" lon="106.939312">
<time>2015-09-27T14:16:45Z</time></trkpt>
<trkpt lat="23.748811" lon="106.938773">
<time>2015-09-27T14:16:46Z</time></trkpt>
<trkpt lat="23.749642" lon="106.938534">
<time>2015-09-27T14:16:47Z</time></trkpt>
<trkpt lat="23.750002" lon="106.938424">
<time>2015-09-27T14:16:48Z</time></trkpt>
<trkpt lat="23.750673" lon="106.938205">
<time>2015-09-27T14:16:49Z</time></trkpt>
<trkpt lat="23.751093" lon="106.938065">
<time>2015-09-27T14:16:50Z</time></trkpt>
<trkpt lat="23.751363" lon="106.937975">
<time>2015-09-27T14:16:51Z</time></trkpt>
<trkpt lat="23.751584" lon="106.937885">
<time>2015-09-27T14:16:52Z</time></trkpt>
<trkpt lat="23.751734" lon="106.937796">
<time>2015-09-27T14:16:53Z</time></trkpt>
<trkpt lat="23.751934" lon="106.937636">
<time>2015-09-27T14:16:54Z</time></trkpt>
<trkpt lat="23.752064" lon="106.937506">
<time>2015-09-27T14:16:55Z</time></trkpt>
<trkpt lat="23.752114" lon="106.937437">
<time>2015-09-27T14:16:56Z</time></trkpt>
<trkpt lat="23.752155" lon="106.937387">
<time>2015-09-27T14:16:57Z</time></trkpt>
<trkpt lat="23.752185" lon="106.937347">
<time>2015-09-27T14:16:58Z</time></trkpt>
<trkpt lat="23.752235" lon="106.937267">
<time>2015-09-27T14:16:59Z</time></trkpt>
<trkpt lat="23.752275" lon="106.937177">
<time>2015-09-27T14:17:00Z</time></trkpt>
<trkpt lat="23.752315" lon="106.937077">
<time>2015-09-27T14:17:01Z</time></trkpt>
<trkpt lat="23.752355" lon="106.936988">
<time>2015-09-27T14:17:02Z</time></trkpt>
<trkpt lat="23.752375" lon="106.936918">
<time>2015-09-27T14:17:03Z</time></trkpt>
<trkpt lat="23.752375" lon="106.936918">
<time>2015-09-27T14:17:04Z</time></trkpt>
<trkpt lat="23.752676" lon="106.936898">
<time>2015-09-27T14:17:05Z</time></trkpt>
<trkpt lat="23.752726" lon="106.936888">
<time>2015-09-27T14:17:06Z</time></trkpt>
<trkpt lat="23.752756" lon="106.936888">
<time>2015-09-27T14:17:07Z</time></trkpt>
<trkpt lat="23.752826" lon="106.936858">
<time>2015-09-27T14:17:08Z</time></trkpt>
<trkpt lat="23.752826" lon="106.936848">
<time>2015-09-27T14:17:09Z</time></trkpt>
<trkpt lat="23.752826" lon="106.936848">
<time>2015-09-27T14:17:10Z</time></trkpt>
<trkpt lat="23.752806" lon="106.936818">
<time>2015-09-27T14:17:11Z</time></trkpt>
<trkpt lat="23.752786" lon="106.936748">
<time>2015-09-27T14:17:12Z</time></trkpt>
<trkpt lat="23.752766" lon="106.936629">
<time>2015-09-27T14:17:13Z</time></trkpt>
<trkpt lat="23.752787" lon="106.93604">
<time>2015-09-27T14:17:14Z</time></trkpt>
<trkpt lat="23.752759" lon="106.934883">
<time>2015-09-27T14:17:15Z</time></trkpt>
<trkpt lat="23.752759" lon="106.934883">
<time>2015-09-27T14:17:16Z</time></trkpt>
<trkpt lat="23.752879" lon="106.934873">
<time>2015-09-27T14:17:17Z</time></trkpt>
<trkpt lat="23.752989" lon="106.934873">
<time>2015-09-27T14:17:18Z</time></trkpt>
<trkpt lat="23.753499" lon="106.934843">
<time>2015-09-27T14:17:19Z</time></trkpt>
<trkpt lat="23.753859" lon="106.934813">
<time>2015-09-27T14:17:20Z</time></trkpt>
<trkpt lat="23.75452" lon="106.934753">
<time>2015-09-27T14:17:21Z</time></trkpt>
<trkpt lat="23.75524" lon="106.934663">
<time>2015-09-27T14:17:22Z</time></trkpt>
<trkpt lat="23.755212" lon="106.933596">
<time>2015-09-27T14:17:23Z</time></trkpt>
<trkpt lat="23.755193" lon="106.932548">
<time>2015-09-27T14:17:24Z</time></trkpt>
<trkpt lat="23.755184" lon="106.932369">
<time>2015-09-27T14:17:25Z</time></trkpt>
<trkpt lat="23.755164" lon="106.93198">
<time>2015-09-27T14:17:26Z</time></trkpt>
<trkpt lat="23.755164" lon="106.93198">
<time>2015-09-27T14:17:27Z</time></trkpt>
<trkpt lat="23.755384" lon="106.93195">
<time>2015-09-27T14:17:28Z</time></trkpt>
<trkpt lat="23.755964" lon="106.93187">
<time>2015-09-27T14:17:29Z</time></trkpt>
<trkpt lat="23.756145" lon="106.93185">
<time>2015-09-27T14:17:30Z</time></trkpt>
<trkpt lat="23.756205" lon="106.93184">
<time>2015-09-27T14:17:31Z</time></trkpt>
<trkpt lat="23.756205" lon="106.93184">
<time>2015-09-27T14:17:32Z</time></trkpt>
<trkpt lat="23.756245" lon="106.93178">
<time>2015-09-27T14:17:33Z</time></trkpt>
<trkpt lat="23.756255" lon="106.931401">
<time>2015-09-27T14:17:34Z</time></trkpt>
<trkpt lat="23.756277" lon="106.930453">
<time>2015-09-27T14:17:35Z</time></trkpt>
<trkpt lat="23.756331" lon="106.92713">
<time>2015-09-27T14:17:36Z</time></trkpt>
<trkpt lat="23.756363" lon="106.925923">
<time>2015-09-27T14:17:37Z</time></trkpt>
<trkpt lat="23.756121" lon="106.917618">
<time>2015-09-27T14:17:38Z</time></trkpt>
<trkpt lat="23.756083" lon="106.916241">
<time>2015-09-27T14:17:39Z</time></trkpt>
<trkpt lat="23.756063" lon="106.915831">
<time>2015-09-27T14:17:40Z</time></trkpt>
<trkpt lat="23.756003" lon="106.915442">
<time>2015-09-27T14:17:41Z</time></trkpt>
<trkpt lat="23.755973" lon="106.915302">
<time>2015-09-27T14:17:42Z</time></trkpt>
<trkpt lat="23.755903" lon="106.915003">
<time>2015-09-27T14:17:43Z</time></trkpt>
<trkpt lat="23.755864" lon="106.914863">
<time>2015-09-27T14:17:44Z</time></trkpt>
<trkpt lat="23.755824" lon="106.914753">
<time>2015-09-27T14:17:45Z</time></trkpt>
<trkpt lat="23.755704" lon="106.914473">
<time>2015-09-27T14:17:46Z</time></trkpt>
<trkpt lat="23.755284" lon="106.913684">
<time>2015-09-27T14:17:47Z</time></trkpt>
<trkpt lat="23.754954" lon="106.913245">
<time>2015-09-27T14:17:48Z</time></trkpt>
<trkpt lat="23.752816" lon="106.910429">
<time>2015-09-27T14:17:49Z</time></trkpt>
<trkpt lat="23.751866" lon="106.909161">
<time>2015-09-27T14:17:50Z</time></trkpt>
<trkpt lat="23.751446" lon="106.908561">
<time>2015-09-27T14:17:51Z</time></trkpt>
<trkpt lat="23.751416" lon="106.908512">
<time>2015-09-27T14:17:52Z</time></trkpt>
<trkpt lat="23.750007" lon="106.906364">
<time>2015-09-27T14:17:53Z</time></trkpt>
<trkpt lat="23.749127" lon="106.904896">
<time>2015-09-27T14:17:54Z</time></trkpt>
<trkpt lat="23.748277" lon="106.903637">
<time>2015-09-27T14:17:55Z</time></trkpt>
<trkpt lat="23.747607" lon="106.902498">
<time>2015-09-27T14:17:56Z</time></trkpt>
<trkpt lat="23.746687" lon="106.900999">
<time>2015-09-27T14:17:57Z</time></trkpt>
<trkpt lat="23.745997" lon="106.90015">
<time>2015-09-27T14:17:58Z</time></trkpt>
<trkpt lat="23.745997" lon="106.90015">
<time>2015-09-27T14:17:59Z</time></trkpt>
<trkpt lat="23.745957" lon="106.90001">
<time>2015-09-27T14:18:00Z</time></trkpt>
<trkpt lat="23.745647" lon="106.899631">
<time>2015-09-27T14:18:01Z</time></trkpt>
<trkpt lat="23.745567" lon="106.899511">
<time>2015-09-27T14:18:02Z</time></trkpt>
<trkpt lat="23.745517" lon="106.899381">
<time>2015-09-27T14:18:03Z</time></trkpt>
<trkpt lat="23.745497" lon="106.899251">
<time>2015-09-27T14:18:04Z</time></trkpt>
<trkpt lat="23.745497" lon="106.899121">
<time>2015-09-27T14:18:05Z</time></trkpt>
<trkpt lat="23.745497" lon="106.899121">
<time>2015-09-27T14:18:06Z</time></trkpt>
<trkpt lat="23.746167" lon="106.898391">
<time>2015-09-27T14:18:07Z</time></trkpt>
<trkpt lat="23.746197" lon="106.898321">
<time>2015-09-27T14:18:08Z</time></trkpt>
<trkpt lat="23.747317" lon="106.897152">
<time>2015-09-27T14:18:09Z</time></trkpt>
<trkpt lat="23.749458" lon="106.894903">
<time>2015-09-27T14:18:10Z</time></trkpt>
<trkpt lat="23.750008" lon="106.894344">
<time>2015-09-27T14:18:11Z</time></trkpt>
<trkpt lat="23.751108" lon="106.893034">
<time>2015-09-27T14:18:12Z</time></trkpt>
<trkpt lat="23.751668" lon="106.892255">
<time>2015-09-27T14:18:13Z</time></trkpt>
<trkpt lat="23.751958" lon="106.891805">
<time>2015-09-27T14:18:14Z</time></trkpt>
<trkpt lat="23.752958" lon="106.890075">
<time>2015-09-27T14:18:15Z</time></trkpt>
<trkpt lat="23.753897" lon="106.888456">
<time>2015-09-27T14:18:16Z</time></trkpt>
<trkpt lat="23.753927" lon="106.888416">
<time>2015-09-27T14:18:17Z</time></trkpt>
<trkpt lat="23.755576" lon="106.885626">
<time>2015-09-27T14:18:18Z</time></trkpt>
<trkpt lat="23.758014" lon="106.881516">
<time>2015-09-27T14:18:19Z</time></trkpt>
<trkpt lat="23.758434" lon="106.880806">
<time>2015-09-27T14:18:20Z</time></trkpt>
<trkpt lat="23.758454" lon="106.880776">
<time>2015-09-27T14:18:21Z</time></trkpt>
<trkpt lat="23.760112" lon="106.877966">
<time>2015-09-27T14:18:22Z</time></trkpt>
<trkpt lat="23.76187" lon="106.875005">
<time>2015-09-27T14:18:23Z</time></trkpt>
<trkpt lat="23.762559" lon="106.873804">
<time>2015-09-27T14:18:24Z</time></trkpt>
<trkpt lat="23.763987" lon="106.871343">
<time>2015-09-27T14:18:25Z</time></trkpt>
<trkpt lat="23.764426" lon="106.870583">
<time>2015-09-27T14:18:26Z</time></trkpt>
<trkpt lat="23.764826" lon="106.869902">
<time>2015-09-27T14:18:27Z</time></trkpt>
<trkpt lat="23.767112" lon="106.86598">
<time>2015-09-27T14:18:28Z</time></trkpt>
<trkpt lat="23.767162" lon="106.8659">
<time>2015-09-27T14:18:29Z</time></trkpt>
<trkpt lat="23.768349" lon="106.863859">
<time>2015-09-27T14:18:30Z</time></trkpt>
<trkpt lat="23.768759" lon="106.863158">
<time>2015-09-27T14:18:31Z</time></trkpt>
<trkpt lat="23.769717" lon="106.861487">
<time>2015-09-27T14:18:32Z</time></trkpt>
<trkpt lat="23.770455" lon="106.860256">
<time>2015-09-27T14:18:33Z</time></trkpt>
<trkpt lat="23.770555" lon="106.860106">
<time>2015-09-27T14:18:34Z</time></trkpt>
<trkpt lat="23.770645" lon="106.859945">
<time>2015-09-27T14:18:35Z</time></trkpt>
<trkpt lat="23.771124" lon="106.859035">
<time>2015-09-27T14:18:36Z</time></trkpt>
<trkpt lat="23.771154" lon="106.858985">
<time>2015-09-27T14:18:37Z</time></trkpt>
<trkpt lat="23.771363" lon="106.858504">
<time>2015-09-27T14:18:38Z</time></trkpt>
<trkpt lat="23.771383" lon="106.858444">
<time>2015-09-27T14:18:39Z</time></trkpt>
<trkpt lat="23.771502" lon="106.858154">
<time>2015-09-27T14:18:40Z</time></trkpt>
<trkpt lat="23.771791" lon="106.857233">
<time>2015-09-27T14:18:41Z</time></trkpt>
<trkpt lat="23.771831" lon="106.857093">
<time>2015-09-27T14:18:42Z</time></trkpt>
<trkpt lat="23.771851" lon="106.857023">
<time>2015-09-27T14:18:43Z</time></trkpt>
<trkpt lat="23.771961" lon="106.856733">
<time>2015-09-27T14:18:44Z</time></trkpt>
<trkpt lat="23.77212" lon="106.856292">
<time>2015-09-27T14:18:45Z</time></trkpt>
<trkpt lat="23.772468" lon="106.855251">
<time>2015-09-27T14:18:46Z</time></trkpt>
<trkpt lat="23.772608" lon="106.854821">
<time>2015-09-27T14:18:47Z</time></trkpt>
<trkpt lat="23.773185" lon="106.853089">
<time>2015-09-27T14:18:48Z</time></trkpt>
<trkpt lat="23.773962" lon="106.850646">
<time>2015-09-27T14:18:49Z</time></trkpt>
<trkpt lat="23.773992" lon="106.850576">
<time>2015-09-27T14:18:50Z</time></trkpt>
<trkpt lat="23.774639" lon="106.848774">
<time>2015-09-27T14:18:51Z</time></trkpt>
<trkpt lat="23.775754" lon="106.845841">
<time>2015-09-27T14:18:52Z</time></trkpt>
<trkpt lat="23.776501" lon="106.844159">
<time>2015-09-27T14:18:53Z</time></trkpt>
<trkpt lat="23.77681" lon="106.843448">
<time>2015-09-27T14:18:54Z</time></trkpt>
<trkpt lat="23.77688" lon="106.843318">
<time>2015-09-27T14:18:55Z</time></trkpt>
<trkpt lat="23.778654" lon="106.839673">
<time>2015-09-27T14:18:56Z</time></trkpt>
<trkpt lat="23.779272" lon="106.838371">
<time>2015-09-27T14:18:57Z</time></trkpt>
<trkpt lat="23.77996" lon="106.83692">
<time>2015-09-27T14:18:58Z</time></trkpt>
<trkpt lat="23.781225" lon="106.834256">
<time>2015-09-27T14:18:59Z</time></trkpt>
<trkpt lat="23.781424" lon="106.833835">
<time>2015-09-27T14:19:00Z</time></trkpt>
<trkpt lat="23.782092" lon="106.832464">
<time>2015-09-27T14:19:01Z</time></trkpt>
<trkpt lat="23.782241" lon="106.832153">
<time>2015-09-27T14:19:02Z</time></trkpt>
<trkpt lat="23.782401" lon="106.831823">
<time>2015-09-27T14:19:03Z</time></trkpt>
<trkpt lat="23.78257" lon="106.831462">
<time>2015-09-27T14:19:04Z</time></trkpt>
<trkpt lat="23.783417" lon="106.82968">
<time>2015-09-27T14:19:05Z</time></trkpt>
<trkpt lat="23.783935" lon="106.828668">
<time>2015-09-27T14:19:06Z</time></trkpt>
<trkpt lat="23.78522" lon="106.825874">
<time>2015-09-27T14:19:07Z</time></trkpt>
<trkpt lat="23.78527" lon="106.825764">
<time>2015-09-27T14:19:08Z</time></trkpt>
<trkpt lat="23.786436" lon="106.823241">
<time>2015-09-27T14:19:09Z</time></trkpt>
<trkpt lat="23.787293" lon="106.821498">
<time>2015-09-27T14:19:10Z</time></trkpt>
<trkpt lat="23.787363" lon="106.821338">
<time>2015-09-27T14:19:11Z</time></trkpt>
<trkpt lat="23.787662" lon="106.820807">
<time>2015-09-27T14:19:12Z</time></trkpt>
<trkpt lat="23.787841" lon="106.820547">
<time>2015-09-27T14:19:13Z</time></trkpt>
<trkpt lat="23.787981" lon="106.820367">
<time>2015-09-27T14:19:14Z</time></trkpt>
<trkpt lat="23.788111" lon="106.820197">
<time>2015-09-27T14:19:15Z</time></trkpt>
<trkpt lat="23.788789" lon="106.819435">
<time>2015-09-27T14:19:16Z</time></trkpt>
<trkpt lat="23.789847" lon="106.818054">
<time>2015-09-27T14:19:17Z</time></trkpt>
<trkpt lat="23.790705" lon="106.816922">
<time>2015-09-27T14:19:18Z</time></trkpt>
<trkpt lat="23.791703" lon="106.81563">
<time>2015-09-27T14:19:19Z</time></trkpt>
<trkpt lat="23.79318" lon="106.813627">
<time>2015-09-27T14:19:20Z</time></trkpt>
<trkpt lat="23.793609" lon="106.813107">
<time>2015-09-27T14:19:21Z</time></trkpt>
<trkpt lat="23.793679" lon="106.813017">
<time>2015-09-27T14:19:22Z</time></trkpt>
<trkpt lat="23.793769" lon="106.812876">
<time>2015-09-27T14:19:23Z</time></trkpt>
<trkpt lat="23.793878" lon="106.812716">
<time>2015-09-27T14:19:24Z</time></trkpt>
<trkpt lat="23.793968" lon="106.812576">
<time>2015-09-27T14:19:25Z</time></trkpt>
<trkpt lat="23.794128" lon="106.812376">
<time>2015-09-27T14:19:26Z</time></trkpt>
<trkpt lat="23.794238" lon="106.812256">
<time>2015-09-27T14:19:27Z</time></trkpt>
<trkpt lat="23.794298" lon="106.812165">
<time>2015-09-27T14:19:28Z</time></trkpt>
<trkpt lat="23.794357" lon="106.812075">
<time>2015-09-27T14:19:29Z</time></trkpt>
<trkpt lat="23.794597" lon="106.811705">
<time>2015-09-27T14:19:30Z</time></trkpt>
<trkpt lat="23.794736" lon="106.811444">
<time>2015-09-27T14:19:31Z</time></trkpt>
<trkpt lat="23.794836" lon="106.811254">
<time>2015-09-27T14:19:32Z</time></trkpt>
<trkpt lat="23.794936" lon="106.811024">
<time>2015-09-27T14:19:33Z</time></trkpt>
<trkpt lat="23.794985" lon="106.810844">
<time>2015-09-27T14:19:34Z</time></trkpt>
<trkpt lat="23.795015" lon="106.810714">
<time>2015-09-27T14:19:35Z</time></trkpt>
<trkpt lat="23.795035" lon="106.810613">
<time>2015-09-27T14:19:36Z</time></trkpt>
<trkpt lat="23.795055" lon="106.810423">
<time>2015-09-27T14:19:37Z</time></trkpt>
<trkpt lat="23.795074" lon="106.810103">
<time>2015-09-27T14:19:38Z</time></trkpt>
<trkpt lat="23.795074" lon="106.810033">
<time>2015-09-27T14:19:39Z</time></trkpt>
<trkpt lat="23.795074" lon="106.809792">
<time>2015-09-27T14:19:40Z</time></trkpt>
<trkpt lat="23.795063" lon="106.809602">
<time>2015-09-27T14:19:41Z</time></trkpt>
<trkpt lat="23.795033" lon="106.809352">
<time>2015-09-27T14:19:42Z</time></trkpt>
<trkpt lat="23.794992" lon="106.809091">
<time>2015-09-27T14:19:43Z</time></trkpt>
<trkpt lat="23.79473" lon="106.80783">
<time>2015-09-27T14:19:44Z</time></trkpt>
<trkpt lat="23.794639" lon="106.807329">
<time>2015-09-27T14:19:45Z</time></trkpt>
<trkpt lat="23.794437" lon="106.806218">
<time>2015-09-27T14:19:46Z</time></trkpt>
<trkpt lat="23.794336" lon="106.805647">
<time>2015-09-27T14:19:47Z</time></trkpt>
<trkpt lat="23.794305" lon="106.805387">
<time>2015-09-27T14:19:48Z</time></trkpt>
<trkpt lat="23.794285" lon="106.805167">
<time>2015-09-27T14:19:49Z</time></trkpt>
<trkpt lat="23.794275" lon="106.804976">
<time>2015-09-27T14:19:50Z</time></trkpt>
<trkpt lat="23.794284" lon="106.804776">
<time>2015-09-27T14:19:51Z</time></trkpt>
<trkpt lat="23.794304" lon="106.804636">
<time>2015-09-27T14:19:52Z</time></trkpt>
<trkpt lat="23.794373" lon="106.804255">
<time>2015-09-27T14:19:53Z</time></trkpt>
<trkpt lat="23.794582" lon="106.803294">
<time>2015-09-27T14:19:54Z</time></trkpt>
<trkpt lat="23.79485" lon="106.802083">
<time>2015-09-27T14:19:55Z</time></trkpt>
<trkpt lat="23.795356" lon="106.79991">
<time>2015-09-27T14:19:56Z</time></trkpt>
<trkpt lat="23.795426" lon="106.79961">
<time>2015-09-27T14:19:57Z</time></trkpt>
<trkpt lat="23.795555" lon="106.799009">
<time>2015-09-27T14:19:58Z</time></trkpt>
<trkpt lat="23.795654" lon="106.798569">
<time>2015-09-27T14:19:59Z</time></trkpt>
<trkpt lat="23.796061" lon="106.796336">
<time>2015-09-27T14:20:00Z</time></trkpt>
<trkpt lat="23.796537" lon="106.793684">
<time>2015-09-27T14:20:01Z</time></trkpt>
<trkpt lat="23.796815" lon="106.792162">
<time>2015-09-27T14:20:02Z</time></trkpt>
<trkpt lat="23.797023" lon="106.791341">
<time>2015-09-27T14:20:03Z</time></trkpt>
<trkpt lat="23.797163" lon="106.790831">
<time>2015-09-27T14:20:04Z</time></trkpt>
<trkpt lat="23.797302" lon="106.79032">
<time>2015-09-27T14:20:05Z</time></trkpt>
<trkpt lat="23.79764" lon="106.789109">
<time>2015-09-27T14:20:06Z</time></trkpt>
<trkpt lat="23.79771" lon="106.788809">
<time>2015-09-27T14:20:07Z</time></trkpt>
<trkpt lat="23.79777" lon="106.788569">
<time>2015-09-27T14:20:08Z</time></trkpt>
<trkpt lat="23.797879" lon="106.788098">
<time>2015-09-27T14:20:09Z</time></trkpt>
<trkpt lat="23.797929" lon="106.787918">
<time>2015-09-27T14:20:10Z</time></trkpt>
<trkpt lat="23.797998" lon="106.787528">
<time>2015-09-27T14:20:11Z</time></trkpt>
<trkpt lat="23.798058" lon="106.787057">
<time>2015-09-27T14:20:12Z</time></trkpt>
<trkpt lat="23.798265" lon="106.785036">
<time>2015-09-27T14:20:13Z</time></trkpt>
<trkpt lat="23.798532" lon="106.782754">
<time>2015-09-27T14:20:14Z</time></trkpt>
<trkpt lat="23.798601" lon="106.781884">
<time>2015-09-27T14:20:15Z</time></trkpt>
<trkpt lat="23.79861" lon="106.781363">
<time>2015-09-27T14:20:16Z</time></trkpt>
<trkpt lat="23.79861" lon="106.780733">
<time>2015-09-27T14:20:17Z</time></trkpt>
<trkpt lat="23.798488" lon="106.779162">
<time>2015-09-27T14:20:18Z</time></trkpt>
<trkpt lat="23.798478" lon="106.779032">
<time>2015-09-27T14:20:19Z</time></trkpt>
<trkpt lat="23.798387" lon="106.778271">
<time>2015-09-27T14:20:20Z</time></trkpt>
<trkpt lat="23.798346" lon="106.777281">
<time>2015-09-27T14:20:21Z</time></trkpt>
<trkpt lat="23.798142" lon="106.773989">
<time>2015-09-27T14:20:22Z</time></trkpt>
<trkpt lat="23.797868" lon="106.769978">
<time>2015-09-27T14:20:23Z</time></trkpt>
<trkpt lat="23.797858" lon="106.769788">
<time>2015-09-27T14:20:24Z</time></trkpt>
<trkpt lat="23.797858" lon="106.769698">
<time>2015-09-27T14:20:25Z</time></trkpt>
<trkpt lat="23.797848" lon="106.769648">
<time>2015-09-27T14:20:26Z</time></trkpt>
<trkpt lat="23.797695" lon="106.765997">
<time>2015-09-27T14:20:27Z</time></trkpt>
<trkpt lat="23.797594" lon="106.763677">
<time>2015-09-27T14:20:28Z</time></trkpt>
<trkpt lat="23.797573" lon="106.762767">
<time>2015-09-27T14:20:29Z</time></trkpt>
<trkpt lat="23.797573" lon="106.762637">
<time>2015-09-27T14:20:30Z</time></trkpt>
<trkpt lat="23.797583" lon="106.762497">
<time>2015-09-27T14:20:31Z</time></trkpt>
<trkpt lat="23.797613" lon="106.762307">
<time>2015-09-27T14:20:32Z</time></trkpt>
<trkpt lat="23.797653" lon="106.762157">
<time>2015-09-27T14:20:33Z</time></trkpt>
<trkpt lat="23.797713" lon="106.761967">
<time>2015-09-27T14:20:34Z</time></trkpt>
<trkpt lat="23.797812" lon="106.761657">
<time>2015-09-27T14:20:35Z</time></trkpt>
<trkpt lat="23.798292" lon="106.760067">
<time>2015-09-27T14:20:36Z</time></trkpt>
<trkpt lat="23.799021" lon="106.757747">
<time>2015-09-27T14:20:37Z</time></trkpt>
<trkpt lat="23.79947" lon="106.756358">
<time>2015-09-27T14:20:38Z</time></trkpt>
<trkpt lat="23.7998" lon="106.755548">
<time>2015-09-27T14:20:39Z</time></trkpt>
<trkpt lat="23.80006" lon="106.754988">
<time>2015-09-27T14:20:40Z</time></trkpt>
<trkpt lat="23.80047" lon="106.754088">
<time>2015-09-27T14:20:41Z</time></trkpt>
<trkpt lat="23.80087" lon="106.753188">
<time>2015-09-27T14:20:42Z</time></trkpt>
<trkpt lat="23.80141" lon="106.751929">
<time>2015-09-27T14:20:43Z</time></trkpt>
<trkpt lat="23.80178" lon="106.751099">
<time>2015-09-27T14:20:44Z</time></trkpt>
<trkpt lat="23.80187" lon="106.750879">
<time>2015-09-27T14:20:45Z</time></trkpt>
<trkpt lat="23.80195" lon="106.750699">
<time>2015-09-27T14:20:46Z</time></trkpt>
<trkpt lat="23.80226" lon="106.75">
<time>2015-09-27T14:20:47Z</time></trkpt>
<trkpt lat="23.80263" lon="106.7492">
<time>2015-09-27T14:20:48Z</time></trkpt>
<trkpt lat="23.80279" lon="106.74885">
<time>2015-09-27T14:20:49Z</time></trkpt>
<trkpt lat="23.80287" lon="106.74869">
<time>2015-09-27T14:20:50Z</time></trkpt>
<trkpt lat="23.8031" lon="106.748241">
<time>2015-09-27T14:20:51Z</time></trkpt>
<trkpt lat="23.80356" lon="106.747401">
<time>2015-09-27T14:20:52Z</time></trkpt>
<trkpt lat="23.80371" lon="106.747131">
<time>2015-09-27T14:20:53Z</time></trkpt>
<trkpt lat="23.80513" lon="106.744693">
<time>2015-09-27T14:20:54Z</time></trkpt>
<trkpt lat="23.805791" lon="106.743444">
<time>2015-09-27T14:20:55Z</time></trkpt>
<trkpt lat="23.806251" lon="106.742515">
<time>2015-09-27T14:20:56Z</time></trkpt>
<trkpt lat="23.806311" lon="106.742365">
<time>2015-09-27T14:20:57Z</time></trkpt>
<trkpt lat="23.806361" lon="106.742245">
<time>2015-09-27T14:20:58Z</time></trkpt>
<trkpt lat="23.806411" lon="106.742065">
<time>2015-09-27T14:20:59Z</time></trkpt>
<trkpt lat="23.806471" lon="106.741845">
<time>2015-09-27T14:21:00Z</time></trkpt>
<trkpt lat="23.806531" lon="106.741515">
<time>2015-09-27T14:21:01Z</time></trkpt>
<trkpt lat="23.806571" lon="106.741206">
<time>2015-09-27T14:21:02Z</time></trkpt>
<trkpt lat="23.806571" lon="106.741186">
<time>2015-09-27T14:21:03Z</time></trkpt>
<trkpt lat="23.806601" lon="106.740836">
<time>2015-09-27T14:21:04Z</time></trkpt>
<trkpt lat="23.806692" lon="106.739287">
<time>2015-09-27T14:21:05Z</time></trkpt>
<trkpt lat="23.807065" lon="106.731226">
<time>2015-09-27T14:21:06Z</time></trkpt>
<trkpt lat="23.807157" lon="106.728829">
<time>2015-09-27T14:21:07Z</time></trkpt>
<trkpt lat="23.807197" lon="106.72812">
<time>2015-09-27T14:21:08Z</time></trkpt>
<trkpt lat="23.807248" lon="106.727711">
<time>2015-09-27T14:21:09Z</time></trkpt>
<trkpt lat="23.807258" lon="106.727671">
<time>2015-09-27T14:21:10Z</time></trkpt>
<trkpt lat="23.807308" lon="106.727401">
<time>2015-09-27T14:21:11Z</time></trkpt>
<trkpt lat="23.807368" lon="106.727162">
<time>2015-09-27T14:21:12Z</time></trkpt>
<trkpt lat="23.807418" lon="106.726962">
<time>2015-09-27T14:21:13Z</time></trkpt>
<trkpt lat="23.807479" lon="106.726722">
<time>2015-09-27T14:21:14Z</time></trkpt>
<trkpt lat="23.807569" lon="106.726473">
<time>2015-09-27T14:21:15Z</time></trkpt>
<trkpt lat="23.807709" lon="106.726183">
<time>2015-09-27T14:21:16Z</time></trkpt>
<trkpt lat="23.807869" lon="106.725913">
<time>2015-09-27T14:21:17Z</time></trkpt>
<trkpt lat="23.808781" lon="106.724446">
<time>2015-09-27T14:21:18Z</time></trkpt>
<trkpt lat="23.809432" lon="106.723447">
<time>2015-09-27T14:21:19Z</time></trkpt>
<trkpt lat="23.810914" lon="106.721191">
<time>2015-09-27T14:21:20Z</time></trkpt>
<trkpt lat="23.811255" lon="106.720651">
<time>2015-09-27T14:21:21Z</time></trkpt>
<trkpt lat="23.811676" lon="106.719993">
<time>2015-09-27T14:21:22Z</time></trkpt>
<trkpt lat="23.811806" lon="106.719813">
<time>2015-09-27T14:21:23Z</time></trkpt>
<trkpt lat="23.812106" lon="106.719414">
<time>2015-09-27T14:21:24Z</time></trkpt>
<trkpt lat="23.812627" lon="106.718864">
<time>2015-09-27T14:21:25Z</time></trkpt>
<trkpt lat="23.813738" lon="106.717806">
<time>2015-09-27T14:21:26Z</time></trkpt>
<trkpt lat="23.814419" lon="106.717157">
<time>2015-09-27T14:21:27Z</time></trkpt>
<trkpt lat="23.81475" lon="106.716848">
<time>2015-09-27T14:21:28Z</time></trkpt>
<trkpt lat="23.816903" lon="106.714841">
<time>2015-09-27T14:21:29Z</time></trkpt>
<trkpt lat="23.819126" lon="106.712705">
<time>2015-09-27T14:21:30Z</time></trkpt>
<trkpt lat="23.819617" lon="106.712106">
<time>2015-09-27T14:21:31Z</time></trkpt>
<trkpt lat="23.820098" lon="106.711488">
<time>2015-09-27T14:21:32Z</time></trkpt>
<trkpt lat="23.820519" lon="106.710869">
<time>2015-09-27T14:21:33Z</time></trkpt>
<trkpt lat="23.82093" lon="106.71017">
<time>2015-09-27T14:21:34Z</time></trkpt>
<trkpt lat="23.821812" lon="106.708623">
<time>2015-09-27T14:21:35Z</time></trkpt>
<trkpt lat="23.822123" lon="106.708074">
<time>2015-09-27T14:21:36Z</time></trkpt>
<trkpt lat="23.824429" lon="106.703913">
<time>2015-09-27T14:21:37Z</time></trkpt>
<trkpt lat="23.825733" lon="106.701638">
<time>2015-09-27T14:21:38Z</time></trkpt>
<trkpt lat="23.827559" lon="106.698445">
<time>2015-09-27T14:21:39Z</time></trkpt>
<trkpt lat="23.829686" lon="106.694604">
<time>2015-09-27T14:21:40Z</time></trkpt>
<trkpt lat="23.832154" lon="106.690095">
<time>2015-09-27T14:21:41Z</time></trkpt>
<trkpt lat="23.832776" lon="106.688988">
<time>2015-09-27T14:21:42Z</time></trkpt>
<trkpt lat="23.832776" lon="106.688988">
<time>2015-09-27T14:21:43Z</time></trkpt>
<trkpt lat="23.832916" lon="106.688908">
<time>2015-09-27T14:21:44Z</time></trkpt>
<trkpt lat="23.833328" lon="106.68818">
<time>2015-09-27T14:21:45Z</time></trkpt>
<trkpt lat="23.835174" lon="106.685058">
<time>2015-09-27T14:21:46Z</time></trkpt>
<trkpt lat="23.836227" lon="106.683452">
<time>2015-09-27T14:21:47Z</time></trkpt>
<trkpt lat="23.836789" lon="106.682684">
<time>2015-09-27T14:21:48Z</time></trkpt>
<trkpt lat="23.836829" lon="106.682624">
<time>2015-09-27T14:21:49Z</time></trkpt>
<trkpt lat="23.837541" lon="106.681627">
<time>2015-09-27T14:21:50Z</time></trkpt>
<trkpt lat="23.838193" lon="106.680739">
<time>2015-09-27T14:21:51Z</time></trkpt>
<trkpt lat="23.838694" lon="106.680041">
<time>2015-09-27T14:21:52Z</time></trkpt>
<trkpt lat="23.839286" lon="106.679343">
<time>2015-09-27T14:21:53Z</time></trkpt>
<trkpt lat="23.839837" lon="106.678704">
<time>2015-09-27T14:21:54Z</time></trkpt>
<trkpt lat="23.840579" lon="106.677946">
<time>2015-09-27T14:21:55Z</time></trkpt>
<trkpt lat="23.84084" lon="106.677697">
<time>2015-09-27T14:21:56Z</time></trkpt>
<trkpt lat="23.841581" lon="106.676989">
<time>2015-09-27T14:21:57Z</time></trkpt>
<trkpt lat="23.841621" lon="106.676949">
<time>2015-09-27T14:21:58Z</time></trkpt>
<trkpt lat="23.842543" lon="106.676111">
<time>2015-09-27T14:21:59Z</time></trkpt>
<trkpt lat="23.842583" lon="106.676081">
<time>2015-09-27T14:22:00Z</time></trkpt>
<trkpt lat="23.842623" lon="106.676031">
<time>2015-09-27T14:22:01Z</time></trkpt>
<trkpt lat="23.842693" lon="106.675971">
<time>2015-09-27T14:22:02Z</time></trkpt>
<trkpt lat="23.843305" lon="106.675443">
<time>2015-09-27T14:22:03Z</time></trkpt>
<trkpt lat="23.843455" lon="106.675343">
<time>2015-09-27T14:22:04Z</time></trkpt>
<trkpt lat="23.843575" lon="106.675243">
<time>2015-09-27T14:22:05Z</time></trkpt>
<trkpt lat="23.844156" lon="106.674824">
<time>2015-09-27T14:22:06Z</time></trkpt>
<trkpt lat="23.844487" lon="106.674585">
<time>2015-09-27T14:22:07Z</time></trkpt>
<trkpt lat="23.844667" lon="106.674465">
<time>2015-09-27T14:22:08Z</time></trkpt>
<trkpt lat="23.845318" lon="106.674036">
<time>2015-09-27T14:22:09Z</time></trkpt>
<trkpt lat="23.845368" lon="106.674006">
<time>2015-09-27T14:22:10Z</time></trkpt>
<trkpt lat="23.845488" lon="106.673937">
<time>2015-09-27T14:22:11Z</time></trkpt>
<trkpt lat="23.845889" lon="106.673697">
<time>2015-09-27T14:22:12Z</time></trkpt>
<trkpt lat="23.845969" lon="106.673647">
<time>2015-09-27T14:22:13Z</time></trkpt>
<trkpt lat="23.847291" lon="106.672949">
<time>2015-09-27T14:22:14Z</time></trkpt>
<trkpt lat="23.848302" lon="106.672411">
<time>2015-09-27T14:22:15Z</time></trkpt>
<trkpt lat="23.849003" lon="106.672031">
<time>2015-09-27T14:22:16Z</time></trkpt>
<trkpt lat="23.849604" lon="106.671712">
<time>2015-09-27T14:22:17Z</time></trkpt>
<trkpt lat="23.849834" lon="106.671593">
<time>2015-09-27T14:22:18Z</time></trkpt>
<trkpt lat="23.850015" lon="106.671493">
<time>2015-09-27T14:22:19Z</time></trkpt>
<trkpt lat="23.850345" lon="106.671283">
<time>2015-09-27T14:22:20Z</time></trkpt>
<trkpt lat="23.850706" lon="106.671024">
<time>2015-09-27T14:22:21Z</time></trkpt>
<trkpt lat="23.851056" lon="106.670755">
<time>2015-09-27T14:22:22Z</time></trkpt>
<trkpt lat="23.851818" lon="106.670146">
<time>2015-09-27T14:22:23Z</time></trkpt>
<trkpt lat="23.851918" lon="106.670067">
<time>2015-09-27T14:22:24Z</time></trkpt>
<trkpt lat="23.852239" lon="106.669817">
<time>2015-09-27T14:22:25Z</time></trkpt>
<trkpt lat="23.852459" lon="106.669648">
<time>2015-09-27T14:22:26Z</time></trkpt>
<trkpt lat="23.854392" lon="106.668162">
<time>2015-09-27T14:22:27Z</time></trkpt>
<trkpt lat="23.854463" lon="106.668112">
<time>2015-09-27T14:22:28Z</time></trkpt>
<trkpt lat="23.854693" lon="106.667922">
<time>2015-09-27T14:22:29Z</time></trkpt>
<trkpt lat="23.854843" lon="106.667793">
<time>2015-09-27T14:22:30Z</time></trkpt>
<trkpt lat="23.854873" lon="106.667763">
<time>2015-09-27T14:22:31Z</time></trkpt>
<trkpt lat="23.857188" lon="106.665917">
<time>2015-09-27T14:22:32Z</time></trkpt>
<trkpt lat="23.857258" lon="106.665798">
<time>2015-09-27T14:22:33Z</time></trkpt>
<trkpt lat="23.857258" lon="106.665798">
<time>2015-09-27T14:22:34Z</time></trkpt>
<trkpt lat="23.857629" lon="106.665509">
<time>2015-09-27T14:22:35Z</time></trkpt>
<trkpt lat="23.85815" lon="106.66509">
<time>2015-09-27T14:22:36Z</time></trkpt>
<trkpt lat="23.85822" lon="106.66503">
<time>2015-09-27T14:22:37Z</time></trkpt>
<trkpt lat="23.85857" lon="106.66475">
<time>2015-09-27T14:22:38Z</time></trkpt>
<trkpt lat="23.859182" lon="106.664272">
<time>2015-09-27T14:22:39Z</time></trkpt>
<trkpt lat="23.859182" lon="106.664272">
<time>2015-09-27T14:22:40Z</time></trkpt>
<trkpt lat="23.859312" lon="106.664242">
<time>2015-09-27T14:22:41Z</time></trkpt>
<trkpt lat="23.859552" lon="106.664062">
<time>2015-09-27T14:22:42Z</time></trkpt>
<trkpt lat="23.860193" lon="106.663554">
<time>2015-09-27T14:22:43Z</time></trkpt>
<trkpt lat="23.860304" lon="106.663474">
<time>2015-09-27T14:22:44Z</time></trkpt>
<trkpt lat="23.860394" lon="106.663394">
<time>2015-09-27T14:22:45Z</time></trkpt>
<trkpt lat="23.861015" lon="106.662905">
<time>2015-09-27T14:22:46Z</time></trkpt>
<trkpt lat="23.861235" lon="106.662736">
<time>2015-09-27T14:22:47Z</time></trkpt>
<trkpt lat="23.862147" lon="106.662028">
<time>2015-09-27T14:22:48Z</time></trkpt>
<trkpt lat="23.862227" lon="106.661958">
<time>2015-09-27T14:22:49Z</time></trkpt>
<trkpt lat="23.863179" lon="106.66121">
<time>2015-09-27T14:22:50Z</time></trkpt>
<trkpt lat="23.863199" lon="106.66119">
<time>2015-09-27T14:22:51Z</time></trkpt>
<trkpt lat="23.863249" lon="106.66115">
<time>2015-09-27T14:22:52Z</time></trkpt>
<trkpt lat="23.863299" lon="106.66111">
<time>2015-09-27T14:22:53Z</time></trkpt>
<trkpt lat="23.864531" lon="106.660122">
<time>2015-09-27T14:22:54Z</time></trkpt>
<trkpt lat="23.864642" lon="106.660033">
<time>2015-09-27T14:22:55Z</time></trkpt>
<trkpt lat="23.864822" lon="106.659893">
<time>2015-09-27T14:22:56Z</time></trkpt>
<trkpt lat="23.865453" lon="106.659384">
<time>2015-09-27T14:22:57Z</time></trkpt>
<trkpt lat="23.866185" lon="106.658806">
<time>2015-09-27T14:22:58Z</time></trkpt>
<trkpt lat="23.866205" lon="106.658796">
<time>2015-09-27T14:22:59Z</time></trkpt>
<trkpt lat="23.867006" lon="106.658158">
<time>2015-09-27T14:23:00Z</time></trkpt>
<trkpt lat="23.868048" lon="106.65736">
<time>2015-09-27T14:23:01Z</time></trkpt>
<trkpt lat="23.868338" lon="106.65714">
<time>2015-09-27T14:23:02Z</time></trkpt>
<trkpt lat="23.868489" lon="106.65702">
<time>2015-09-27T14:23:03Z</time></trkpt>
<trkpt lat="23.868709" lon="106.656891">
<time>2015-09-27T14:23:04Z</time></trkpt>
<trkpt lat="23.868959" lon="106.656761">
<time>2015-09-27T14:23:05Z</time></trkpt>
<trkpt lat="23.86906" lon="106.656611">
<time>2015-09-27T14:23:06Z</time></trkpt>
<trkpt lat="23.86906" lon="106.656611">
<time>2015-09-27T14:23:07Z</time></trkpt>
<trkpt lat="23.86947" lon="106.656362">
<time>2015-09-27T14:23:08Z</time></trkpt>
<trkpt lat="23.870552" lon="106.655744">
<time>2015-09-27T14:23:09Z</time></trkpt>
<trkpt lat="23.871854" lon="106.655006">
<time>2015-09-27T14:23:10Z</time></trkpt>
<trkpt lat="23.872124" lon="106.654856">
<time>2015-09-27T14:23:11Z</time></trkpt>
<trkpt lat="23.872334" lon="106.654736">
<time>2015-09-27T14:23:12Z</time></trkpt>
<trkpt lat="23.873125" lon="106.654287">
<time>2015-09-27T14:23:13Z</time></trkpt>
<trkpt lat="23.873506" lon="106.654078">
<time>2015-09-27T14:23:14Z</time></trkpt>
<trkpt lat="23.874037" lon="106.653759">
<time>2015-09-27T14:23:15Z</time></trkpt>
<trkpt lat="23.875028" lon="106.65317">
<time>2015-09-27T14:23:16Z</time></trkpt>
<trkpt lat="23.875779" lon="106.652721">
<time>2015-09-27T14:23:17Z</time></trkpt>
<trkpt lat="23.87625" lon="106.652452">
<time>2015-09-27T14:23:18Z</time></trkpt>
<trkpt lat="23.876981" lon="106.651993">
<time>2015-09-27T14:23:19Z</time></trkpt>
<trkpt lat="23.877732" lon="106.651514">
<time>2015-09-27T14:23:20Z</time></trkpt>
<trkpt lat="23.878223" lon="106.651235">
<time>2015-09-27T14:23:21Z</time></trkpt>
<trkpt lat="23.878743" lon="106.651015">
<time>2015-09-27T14:23:22Z</time></trkpt>
<trkpt lat="23.879034" lon="106.650946">
<time>2015-09-27T14:23:23Z</time></trkpt>
<trkpt lat="23.879314" lon="106.650866">
<time>2015-09-27T14:23:24Z</time></trkpt>
<trkpt lat="23.879864" lon="106.650786">
<time>2015-09-27T14:23:25Z</time></trkpt>
<trkpt lat="23.880895" lon="106.650616">
<time>2015-09-27T14:23:26Z</time></trkpt>
<trkpt lat="23.881425" lon="106.650536">
<time>2015-09-27T14:23:27Z</time></trkpt>
<trkpt lat="23.881816" lon="106.650437">
<time>2015-09-27T14:23:28Z</time></trkpt>
<trkpt lat="23.881906" lon="106.650417">
<time>2015-09-27T14:23:29Z</time></trkpt>
<trkpt lat="23.882396" lon="106.650307">
<time>2015-09-27T14:23:30Z</time></trkpt>
<trkpt lat="23.882436" lon="106.650297">
<time>2015-09-27T14:23:31Z</time></trkpt>
<trkpt lat="23.882917" lon="106.650117">
<time>2015-09-27T14:23:32Z</time></trkpt>
<trkpt lat="23.882987" lon="106.650088">
<time>2015-09-27T14:23:33Z</time></trkpt>
<trkpt lat="23.883527" lon="106.649838">
<time>2015-09-27T14:23:34Z</time></trkpt>
<trkpt lat="23.884118" lon="106.649509">
<time>2015-09-27T14:23:35Z</time></trkpt>
<trkpt lat="23.884649" lon="106.64917">
<time>2015-09-27T14:23:36Z</time></trkpt>
<trkpt lat="23.885991" lon="106.648182">
<time>2015-09-27T14:23:37Z</time></trkpt>
<trkpt lat="23.888616" lon="106.646247">
<time>2015-09-27T14:23:38Z</time></trkpt>
<trkpt lat="23.892462" lon="106.643394">
<time>2015-09-27T14:23:39Z</time></trkpt>
<trkpt lat="23.892812" lon="106.643134">
<time>2015-09-27T14:23:40Z</time></trkpt>
<trkpt lat="23.894485" lon="106.641897">
<time>2015-09-27T14:23:41Z</time></trkpt>
<trkpt lat="23.894836" lon="106.641638">
<time>2015-09-27T14:23:42Z</time></trkpt>
<trkpt lat="23.895547" lon="106.641119">
<time>2015-09-27T14:23:43Z</time></trkpt>
<trkpt lat="23.895587" lon="106.641079">
<time>2015-09-27T14:23:44Z</time></trkpt>
<trkpt lat="23.895978" lon="106.640799">
<time>2015-09-27T14:23:45Z</time></trkpt>
<trkpt lat="23.896939" lon="106.640081">
<time>2015-09-27T14:23:46Z</time></trkpt>
<trkpt lat="23.89753" lon="106.639652">
<time>2015-09-27T14:23:47Z</time></trkpt>
<trkpt lat="23.898071" lon="106.639253">
<time>2015-09-27T14:23:48Z</time></trkpt>
<trkpt lat="23.899112" lon="106.638495">
<time>2015-09-27T14:23:49Z</time></trkpt>
<trkpt lat="23.899112" lon="106.638495">
<time>2015-09-27T14:23:50Z</time></trkpt>
<trkpt lat="23.899172" lon="106.638505">
<time>2015-09-27T14:23:51Z</time></trkpt>
<trkpt lat="23.899412" lon="106.638534">
<time>2015-09-27T14:23:52Z</time></trkpt>
<trkpt lat="23.899592" lon="106.638564">
<time>2015-09-27T14:23:53Z</time></trkpt>
<trkpt lat="23.899812" lon="106.638594">
<time>2015-09-27T14:23:54Z</time></trkpt>
<trkpt lat="23.900643" lon="106.638694">
<time>2015-09-27T14:23:55Z</time></trkpt>
<trkpt lat="23.900963" lon="106.638744">
<time>2015-09-27T14:23:56Z</time></trkpt>
<trkpt lat="23.901313" lon="106.638804">
<time>2015-09-27T14:23:57Z</time></trkpt>
<trkpt lat="23.901393" lon="106.638814">
<time>2015-09-27T14:23:58Z</time></trkpt>
<trkpt lat="23.901693" lon="106.638864">
<time>2015-09-27T14:23:59Z</time></trkpt>
<trkpt lat="23.902303" lon="106.638963">
<time>2015-09-27T14:24:00Z</time></trkpt>
<trkpt lat="23.902963" lon="106.639103">
<time>2015-09-27T14:24:01Z</time></trkpt>
<trkpt lat="23.903343" lon="106.639213">
<time>2015-09-27T14:24:02Z</time></trkpt>
<trkpt lat="23.903673" lon="106.639332">
<time>2015-09-27T14:24:03Z</time></trkpt>
<trkpt lat="23.905042" lon="106.639921">
<time>2015-09-27T14:24:04Z</time></trkpt>
<trkpt lat="23.905712" lon="106.64022">
<time>2015-09-27T14:24:05Z</time></trkpt>
<trkpt lat="23.906012" lon="106.64033">
<time>2015-09-27T14:24:06Z</time></trkpt>
<trkpt lat="23.906292" lon="106.64041">
<time>2015-09-27T14:24:07Z</time></trkpt>
<trkpt lat="23.906462" lon="106.64044">
<time>2015-09-27T14:24:08Z</time></trkpt>
<trkpt lat="23.906662" lon="106.64046">
<time>2015-09-27T14:24:09Z</time></trkpt>
<trkpt lat="23.906772" lon="106.64047">
<time>2015-09-27T14:24:10Z</time></trkpt>
<trkpt lat="23.906972" lon="106.64046">
<time>2015-09-27T14:24:11Z</time></trkpt>
<trkpt lat="23.907222" lon="106.64044">
<time>2015-09-27T14:24:12Z</time></trkpt>
<trkpt lat="23.907673" lon="106.64039">
<time>2015-09-27T14:24:13Z</time></trkpt>
<trkpt lat="23.908263" lon="106.64031">
<time>2015-09-27T14:24:14Z</time></trkpt>
<trkpt lat="23.908543" lon="106.64027">
<time>2015-09-27T14:24:15Z</time></trkpt>
<trkpt lat="23.908793" lon="106.64025">
<time>2015-09-27T14:24:16Z</time></trkpt>
<trkpt lat="23.909003" lon="106.64025">
<time>2015-09-27T14:24:17Z</time></trkpt>
<trkpt lat="23.909224" lon="106.64026">
<time>2015-09-27T14:24:18Z</time></trkpt>
<trkpt lat="23.909404" lon="106.64028">
<time>2015-09-27T14:24:19Z</time></trkpt>
<trkpt lat="23.909584" lon="106.64031">
<time>2015-09-27T14:24:20Z</time></trkpt>
<trkpt lat="23.910074" lon="106.64037">
<time>2015-09-27T14:24:21Z</time></trkpt>
<trkpt lat="23.910634" lon="106.64042">
<time>2015-09-27T14:24:22Z</time></trkpt>
<trkpt lat="23.911094" lon="106.64043">
<time>2015-09-27T14:24:23Z</time></trkpt>
<trkpt lat="23.911484" lon="106.64043">
<time>2015-09-27T14:24:24Z</time></trkpt>
<trkpt lat="23.911884" lon="106.6404">
<time>2015-09-27T14:24:25Z</time></trkpt>
<trkpt lat="23.912134" lon="106.64038">
<time>2015-09-27T14:24:26Z</time></trkpt>
<trkpt lat="23.912655" lon="106.6403">
<time>2015-09-27T14:24:27Z</time></trkpt>
<trkpt lat="23.913115" lon="106.6402">
<time>2015-09-27T14:24:28Z</time></trkpt>
<trkpt lat="23.913115" lon="106.6402">
<time>2015-09-27T14:24:29Z</time></trkpt>
<trkpt lat="23.913145" lon="106.64021">
<time>2015-09-27T14:24:30Z</time></trkpt>
<trkpt lat="23.914606" lon="106.639861">
<time>2015-09-27T14:24:31Z</time></trkpt>
<trkpt lat="23.914806" lon="106.639821">
<time>2015-09-27T14:24:32Z</time></trkpt>
<trkpt lat="23.915717" lon="106.639611">
<time>2015-09-27T14:24:33Z</time></trkpt>
<trkpt lat="23.915737" lon="106.639591">
<time>2015-09-27T14:24:34Z</time></trkpt>
<trkpt lat="23.916197" lon="106.639511">
<time>2015-09-27T14:24:35Z</time></trkpt>
<trkpt lat="23.916368" lon="106.639492">
<time>2015-09-27T14:24:36Z</time></trkpt>
<trkpt lat="23.916528" lon="106.639472">
<time>2015-09-27T14:24:37Z</time></trkpt>
<trkpt lat="23.916668" lon="106.639462">
<time>2015-09-27T14:24:38Z</time></trkpt>
<trkpt lat="23.916738" lon="106.639452">
<time>2015-09-27T14:24:39Z</time></trkpt>
<trkpt lat="23.916848" lon="106.639452">
<time>2015-09-27T14:24:40Z</time></trkpt>
<trkpt lat="23.916938" lon="106.639462">
<time>2015-09-27T14:24:41Z</time></trkpt>
<trkpt lat="23.917038" lon="106.639472">
<time>2015-09-27T14:24:42Z</time></trkpt>
<trkpt lat="23.917138" lon="106.639481">
<time>2015-09-27T14:24:43Z</time></trkpt>
<trkpt lat="23.917218" lon="106.639501">
<time>2015-09-27T14:24:44Z</time></trkpt>
<trkpt lat="23.917338" lon="106.639521">
<time>2015-09-27T14:24:45Z</time></trkpt>
<trkpt lat="23.917608" lon="106.639591">
<time>2015-09-27T14:24:46Z</time></trkpt>
<trkpt lat="23.917868" lon="106.639671">
<time>2015-09-27T14:24:47Z</time></trkpt>
<trkpt lat="23.918108" lon="106.639731">
<time>2015-09-27T14:24:48Z</time></trkpt>
<trkpt lat="23.918328" lon="106.639791">
<time>2015-09-27T14:24:49Z</time></trkpt>
<trkpt lat="23.918508" lon="106.639821">
<time>2015-09-27T14:24:50Z</time></trkpt>
<trkpt lat="23.918718" lon="106.639861">
<time>2015-09-27T14:24:51Z</time></trkpt>
<trkpt lat="23.918928" lon="106.63988">
<time>2015-09-27T14:24:52Z</time></trkpt>
<trkpt lat="23.919188" lon="106.6399">
<time>2015-09-27T14:24:53Z</time></trkpt>
<trkpt lat="23.919488" lon="106.6399">
<time>2015-09-27T14:24:54Z</time></trkpt>
<trkpt lat="23.919698" lon="106.63988">
<time>2015-09-27T14:24:55Z</time></trkpt>
<trkpt lat="23.919948" lon="106.639831">
<time>2015-09-27T14:24:56Z</time></trkpt>
<trkpt lat="23.920209" lon="106.639791">
<time>2015-09-27T14:24:57Z</time></trkpt>
<trkpt lat="23.92167" lon="106.639451">
<time>2015-09-27T14:24:58Z</time></trkpt>
<trkpt lat="23.92188" lon="106.639421">
<time>2015-09-27T14:24:59Z</time></trkpt>
<trkpt lat="23.92206" lon="106.639381">
<time>2015-09-27T14:25:00Z</time></trkpt>
<trkpt lat="23.92234" lon="106.639342">
<time>2015-09-27T14:25:01Z</time></trkpt>
<trkpt lat="23.92262" lon="106.639332">
<time>2015-09-27T14:25:02Z</time></trkpt>
<trkpt lat="23.92282" lon="106.639322">
<time>2015-09-27T14:25:03Z</time></trkpt>
<trkpt lat="23.92302" lon="106.639322">
<time>2015-09-27T14:25:04Z</time></trkpt>
<trkpt lat="23.92323" lon="106.639342">
<time>2015-09-27T14:25:05Z</time></trkpt>
<trkpt lat="23.923481" lon="106.639361">
<time>2015-09-27T14:25:06Z</time></trkpt>
<trkpt lat="23.923681" lon="106.639401">
<time>2015-09-27T14:25:07Z</time></trkpt>
<trkpt lat="23.923831" lon="106.639421">
<time>2015-09-27T14:25:08Z</time></trkpt>
<trkpt lat="23.923881" lon="106.639441">
<time>2015-09-27T14:25:09Z</time></trkpt>
<trkpt lat="23.924041" lon="106.639471">
<time>2015-09-27T14:25:10Z</time></trkpt>
<trkpt lat="23.924181" lon="106.639511">
<time>2015-09-27T14:25:11Z</time></trkpt>
<trkpt lat="23.92552" lon="106.63992">
<time>2015-09-27T14:25:12Z</time></trkpt>
<trkpt lat="23.92952" lon="106.641137">
<time>2015-09-27T14:25:13Z</time></trkpt>
<trkpt lat="23.9296" lon="106.641157">
<time>2015-09-27T14:25:14Z</time></trkpt>
<trkpt lat="23.92969" lon="106.641187">
<time>2015-09-27T14:25:15Z</time></trkpt>
<trkpt lat="23.92989" lon="106.641227">
<time>2015-09-27T14:25:16Z</time></trkpt>
<trkpt lat="23.93006" lon="106.641267">
<time>2015-09-27T14:25:17Z</time></trkpt>
<trkpt lat="23.93026" lon="106.641287">
<time>2015-09-27T14:25:18Z</time></trkpt>
<trkpt lat="23.93047" lon="106.641307">
<time>2015-09-27T14:25:19Z</time></trkpt>
<trkpt lat="23.9307" lon="106.641317">
<time>2015-09-27T14:25:20Z</time></trkpt>
<trkpt lat="23.93086" lon="106.641307">
<time>2015-09-27T14:25:21Z</time></trkpt>
<trkpt lat="23.931111" lon="106.641287">
<time>2015-09-27T14:25:22Z</time></trkpt>
<trkpt lat="23.931301" lon="106.641247">
<time>2015-09-27T14:25:23Z</time></trkpt>
<trkpt lat="23.931501" lon="106.641187">
<time>2015-09-27T14:25:24Z</time></trkpt>
<trkpt lat="23.931631" lon="106.641147">
<time>2015-09-27T14:25:25Z</time></trkpt>
<trkpt lat="23.931781" lon="106.641097">
<time>2015-09-27T14:25:26Z</time></trkpt>
<trkpt lat="23.931921" lon="106.641027">
<time>2015-09-27T14:25:27Z</time></trkpt>
<trkpt lat="23.932051" lon="106.640957">
<time>2015-09-27T14:25:28Z</time></trkpt>
<trkpt lat="23.932202" lon="106.640868">
<time>2015-09-27T14:25:29Z</time></trkpt>
<trkpt lat="23.932332" lon="106.640788">
<time>2015-09-27T14:25:30Z</time></trkpt>
<trkpt lat="23.932452" lon="106.640698">
<time>2015-09-27T14:25:31Z</time></trkpt>
<trkpt lat="23.932622" lon="106.640568">
<time>2015-09-27T14:25:32Z</time></trkpt>
<trkpt lat="23.932763" lon="106.640429">
<time>2015-09-27T14:25:33Z</time></trkpt>
<trkpt lat="23.932853" lon="106.640329">
<time>2015-09-27T14:25:34Z</time></trkpt>
<trkpt lat="23.933053" lon="106.640089">
<time>2015-09-27T14:25:35Z</time></trkpt>
<trkpt lat="23.933364" lon="106.63963">
<time>2015-09-27T14:25:36Z</time></trkpt>
<trkpt lat="23.933555" lon="106.639281">
<time>2015-09-27T14:25:37Z</time></trkpt>
<trkpt lat="23.934006" lon="106.638303">
<time>2015-09-27T14:25:38Z</time></trkpt>
<trkpt lat="23.934267" lon="106.637715">
<time>2015-09-27T14:25:39Z</time></trkpt>
<trkpt lat="23.934438" lon="106.637355">
<time>2015-09-27T14:25:40Z</time></trkpt>
<trkpt lat="23.934599" lon="106.637016">
<time>2015-09-27T14:25:41Z</time></trkpt>
<trkpt lat="23.934779" lon="106.636657">
<time>2015-09-27T14:25:42Z</time></trkpt>
<trkpt lat="23.93491" lon="106.636428">
<time>2015-09-27T14:25:43Z</time></trkpt>
<trkpt lat="23.93502" lon="106.636218">
<time>2015-09-27T14:25:44Z</time></trkpt>
<trkpt lat="23.93514" lon="106.635998">
<time>2015-09-27T14:25:45Z</time></trkpt>
<trkpt lat="23.935261" lon="106.635849">
<time>2015-09-27T14:25:46Z</time></trkpt>
<trkpt lat="23.935391" lon="106.635669">
<time>2015-09-27T14:25:47Z</time></trkpt>
<trkpt lat="23.935531" lon="106.635519">
<time>2015-09-27T14:25:48Z</time></trkpt>
<trkpt lat="23.935732" lon="106.63532">
<time>2015-09-27T14:25:49Z</time></trkpt>
<trkpt lat="23.935962" lon="106.63511">
<time>2015-09-27T14:25:50Z</time></trkpt>
<trkpt lat="23.936192" lon="106.634931">
<time>2015-09-27T14:25:51Z</time></trkpt>
<trkpt lat="23.936433" lon="106.634771">
<time>2015-09-27T14:25:52Z</time></trkpt>
<trkpt lat="23.936683" lon="106.634631">
<time>2015-09-27T14:25:53Z</time></trkpt>
<trkpt lat="23.936983" lon="106.634492">
<time>2015-09-27T14:25:54Z</time></trkpt>
<trkpt lat="23.937324" lon="106.634372">
<time>2015-09-27T14:25:55Z</time></trkpt>
<trkpt lat="23.937634" lon="106.634292">
<time>2015-09-27T14:25:56Z</time></trkpt>
<trkpt lat="23.937904" lon="106.634232">
<time>2015-09-27T14:25:57Z</time></trkpt>
<trkpt lat="23.938214" lon="106.634202">
<time>2015-09-27T14:25:58Z</time></trkpt>
<trkpt lat="23.938564" lon="106.634192">
<time>2015-09-27T14:25:59Z</time></trkpt>
<trkpt lat="23.938965" lon="106.634232">
<time>2015-09-27T14:26:00Z</time></trkpt>
<trkpt lat="23.939345" lon="106.634302">
<time>2015-09-27T14:26:01Z</time></trkpt>
<trkpt lat="23.939735" lon="106.634412">
<time>2015-09-27T14:26:02Z</time></trkpt>
<trkpt lat="23.940155" lon="106.634541">
<time>2015-09-27T14:26:03Z</time></trkpt>
<trkpt lat="23.941324" lon="106.63498">
<time>2015-09-27T14:26:04Z</time></trkpt>
<trkpt lat="23.941624" lon="106.63508">
<time>2015-09-27T14:26:05Z</time></trkpt>
<trkpt lat="23.941904" lon="106.63517">
<time>2015-09-27T14:26:06Z</time></trkpt>
<trkpt lat="23.942154" lon="106.63523">
<time>2015-09-27T14:26:07Z</time></trkpt>
<trkpt lat="23.942364" lon="106.63526">
<time>2015-09-27T14:26:08Z</time></trkpt>
<trkpt lat="23.942565" lon="106.63528">
<time>2015-09-27T14:26:09Z</time></trkpt>
<trkpt lat="23.942715" lon="106.63528">
<time>2015-09-27T14:26:10Z</time></trkpt>
<trkpt lat="23.942935" lon="106.63527">
<time>2015-09-27T14:26:11Z</time></trkpt>
<trkpt lat="23.943055" lon="106.63526">
<time>2015-09-27T14:26:12Z</time></trkpt>
<trkpt lat="23.943265" lon="106.63522">
<time>2015-09-27T14:26:13Z</time></trkpt>
<trkpt lat="23.943515" lon="106.63516">
<time>2015-09-27T14:26:14Z</time></trkpt>
<trkpt lat="23.943725" lon="106.63508">
<time>2015-09-27T14:26:15Z</time></trkpt>
<trkpt lat="23.943885" lon="106.63502">
<time>2015-09-27T14:26:16Z</time></trkpt>
<trkpt lat="23.944016" lon="106.63495">
<time>2015-09-27T14:26:17Z</time></trkpt>
<trkpt lat="23.944116" lon="106.6349">
<time>2015-09-27T14:26:18Z</time></trkpt>
<trkpt lat="23.944216" lon="106.634851">
<time>2015-09-27T14:26:19Z</time></trkpt>
<trkpt lat="23.944326" lon="106.634781">
<time>2015-09-27T14:26:20Z</time></trkpt>
<trkpt lat="23.944436" lon="106.634711">
<time>2015-09-27T14:26:21Z</time></trkpt>
<trkpt lat="23.944526" lon="106.634631">
<time>2015-09-27T14:26:22Z</time></trkpt>
<trkpt lat="23.944636" lon="106.634541">
<time>2015-09-27T14:26:23Z</time></trkpt>
<trkpt lat="23.944747" lon="106.634451">
<time>2015-09-27T14:26:24Z</time></trkpt>
<trkpt lat="23.944837" lon="106.634352">
<time>2015-09-27T14:26:25Z</time></trkpt>
<trkpt lat="23.944947" lon="106.634232">
<time>2015-09-27T14:26:26Z</time></trkpt>
<trkpt lat="23.945057" lon="106.634102">
<time>2015-09-27T14:26:27Z</time></trkpt>
<trkpt lat="23.945137" lon="106.633992">
<time>2015-09-27T14:26:28Z</time></trkpt>
<trkpt lat="23.945238" lon="106.633853">
<time>2015-09-27T14:26:29Z</time></trkpt>
<trkpt lat="23.945328" lon="106.633733">
<time>2015-09-27T14:26:30Z</time></trkpt>
<trkpt lat="23.945418" lon="106.633603">
<time>2015-09-27T14:26:31Z</time></trkpt>
<trkpt lat="23.947052" lon="106.631168">
<time>2015-09-27T14:26:32Z</time></trkpt>
<trkpt lat="23.947263" lon="106.630899">
<time>2015-09-27T14:26:33Z</time></trkpt>
<trkpt lat="23.947403" lon="106.630709">
<time>2015-09-27T14:26:34Z</time></trkpt>
<trkpt lat="23.947694" lon="106.63038">
<time>2015-09-27T14:26:35Z</time></trkpt>
<trkpt lat="23.947914" lon="106.63015">
<time>2015-09-27T14:26:36Z</time></trkpt>
<trkpt lat="23.948174" lon="106.629911">
<time>2015-09-27T14:26:37Z</time></trkpt>
<trkpt lat="23.948275" lon="106.629821">
<time>2015-09-27T14:26:38Z</time></trkpt>
<trkpt lat="23.948635" lon="106.629492">
<time>2015-09-27T14:26:39Z</time></trkpt>
<trkpt lat="23.949016" lon="106.629172">
<time>2015-09-27T14:26:40Z</time></trkpt>
<trkpt lat="23.949356" lon="106.628953">
<time>2015-09-27T14:26:41Z</time></trkpt>
<trkpt lat="23.949807" lon="106.628673">
<time>2015-09-27T14:26:42Z</time></trkpt>
<trkpt lat="23.950277" lon="106.628434">
<time>2015-09-27T14:26:43Z</time></trkpt>
<trkpt lat="23.950277" lon="106.628424">
<time>2015-09-27T14:26:44Z</time></trkpt>
<trkpt lat="23.950357" lon="106.628384">
<time>2015-09-27T14:26:45Z</time></trkpt>
<trkpt lat="23.950768" lon="106.628204">
<time>2015-09-27T14:26:46Z</time></trkpt>
<trkpt lat="23.951258" lon="106.628024">
<time>2015-09-27T14:26:47Z</time></trkpt>
<trkpt lat="23.951759" lon="106.627875">
<time>2015-09-27T14:26:48Z</time></trkpt>
<trkpt lat="23.951769" lon="106.627865">
<time>2015-09-27T14:26:49Z</time></trkpt>
<trkpt lat="23.952099" lon="106.627775">
<time>2015-09-27T14:26:50Z</time></trkpt>
<trkpt lat="23.952159" lon="106.627765">
<time>2015-09-27T14:26:51Z</time></trkpt>
<trkpt lat="23.952259" lon="106.627735">
<time>2015-09-27T14:26:52Z</time></trkpt>
<trkpt lat="23.952569" lon="106.627685">
<time>2015-09-27T14:26:53Z</time></trkpt>
<trkpt lat="23.952629" lon="106.627675">
<time>2015-09-27T14:26:54Z</time></trkpt>
<trkpt lat="23.95325" lon="106.627585">
<time>2015-09-27T14:26:55Z</time></trkpt>
<trkpt lat="23.95491" lon="106.627475">
<time>2015-09-27T14:26:56Z</time></trkpt>
<trkpt lat="23.955391" lon="106.627445">
<time>2015-09-27T14:26:57Z</time></trkpt>
<trkpt lat="23.955721" lon="106.627405">
<time>2015-09-27T14:26:58Z</time></trkpt>
<trkpt lat="23.956051" lon="106.627345">
<time>2015-09-27T14:26:59Z</time></trkpt>
<trkpt lat="23.956311" lon="106.627286">
<time>2015-09-27T14:27:00Z</time></trkpt>
<trkpt lat="23.956601" lon="106.627176">
<time>2015-09-27T14:27:01Z</time></trkpt>
<trkpt lat="23.956972" lon="106.627036">
<time>2015-09-27T14:27:02Z</time></trkpt>
<trkpt lat="23.957322" lon="106.626856">
<time>2015-09-27T14:27:03Z</time></trkpt>
<trkpt lat="23.957672" lon="106.626657">
<time>2015-09-27T14:27:04Z</time></trkpt>
<trkpt lat="23.957973" lon="106.626447">
<time>2015-09-27T14:27:05Z</time></trkpt>
<trkpt lat="23.958293" lon="106.626188">
<time>2015-09-27T14:27:06Z</time></trkpt>
<trkpt lat="23.958774" lon="106.625758">
<time>2015-09-27T14:27:07Z</time></trkpt>
<trkpt lat="23.959235" lon="106.625319">
<time>2015-09-27T14:27:08Z</time></trkpt>
<trkpt lat="23.959575" lon="106.625">
<time>2015-09-27T14:27:09Z</time></trkpt>
<trkpt lat="23.959695" lon="106.62489">
<time>2015-09-27T14:27:10Z</time></trkpt>
<trkpt lat="23.959956" lon="106.62466">
<time>2015-09-27T14:27:11Z</time></trkpt>
<trkpt lat="23.960346" lon="106.624301">
<time>2015-09-27T14:27:12Z</time></trkpt>
<trkpt lat="23.960867" lon="106.623822">
<time>2015-09-27T14:27:13Z</time></trkpt>
<trkpt lat="23.960897" lon="106.623792">
<time>2015-09-27T14:27:14Z</time></trkpt>
<trkpt lat="23.961368" lon="106.623363">
<time>2015-09-27T14:27:15Z</time></trkpt>
<trkpt lat="23.961839" lon="106.622953">
<time>2015-09-27T14:27:16Z</time></trkpt>
<trkpt lat="23.961939" lon="106.622863">
<time>2015-09-27T14:27:17Z</time></trkpt>
<trkpt lat="23.962139" lon="106.622694">
<time>2015-09-27T14:27:18Z</time></trkpt>
<trkpt lat="23.962339" lon="106.622534">
<time>2015-09-27T14:27:19Z</time></trkpt>
<trkpt lat="23.96257" lon="106.622354">
<time>2015-09-27T14:27:20Z</time></trkpt>
<trkpt lat="23.96282" lon="106.622165">
<time>2015-09-27T14:27:21Z</time></trkpt>
<trkpt lat="23.9631" lon="106.621955">
<time>2015-09-27T14:27:22Z</time></trkpt>
<trkpt lat="23.963391" lon="106.621745">
<time>2015-09-27T14:27:23Z</time></trkpt>
<trkpt lat="23.963891" lon="106.621426">
<time>2015-09-27T14:27:24Z</time></trkpt>
<trkpt lat="23.964402" lon="106.621106">
<time>2015-09-27T14:27:25Z</time></trkpt>
<trkpt lat="23.965263" lon="106.620577">
<time>2015-09-27T14:27:26Z</time></trkpt>
<trkpt lat="23.965873" lon="106.620198">
<time>2015-09-27T14:27:27Z</time></trkpt>
<trkpt lat="23.966164" lon="106.620018">
<time>2015-09-27T14:27:28Z</time></trkpt>
<trkpt lat="23.966374" lon="106.619898">
<time>2015-09-27T14:27:29Z</time></trkpt>
<trkpt lat="23.966564" lon="106.619779">
<time>2015-09-27T14:27:30Z</time></trkpt>
<trkpt lat="23.966704" lon="106.619689">
<time>2015-09-27T14:27:31Z</time></trkpt>
<trkpt lat="23.966934" lon="106.619549">
<time>2015-09-27T14:27:32Z</time></trkpt>
<trkpt lat="23.967315" lon="106.619309">
<time>2015-09-27T14:27:33Z</time></trkpt>
<trkpt lat="23.967545" lon="106.61915">
<time>2015-09-27T14:27:34Z</time></trkpt>
<trkpt lat="23.967745" lon="106.619">
<time>2015-09-27T14:27:35Z</time></trkpt>
<trkpt lat="23.967845" lon="106.61891">
<time>2015-09-27T14:27:36Z</time></trkpt>
<trkpt lat="23.967966" lon="106.61881">
<time>2015-09-27T14:27:37Z</time></trkpt>
<trkpt lat="23.968086" lon="106.61869">
<time>2015-09-27T14:27:38Z</time></trkpt>
<trkpt lat="23.968226" lon="106.61854">
<time>2015-09-27T14:27:39Z</time></trkpt>
<trkpt lat="23.968396" lon="106.618321">
<time>2015-09-27T14:27:40Z</time></trkpt>
<trkpt lat="23.968436" lon="106.618271">
<time>2015-09-27T14:27:41Z</time></trkpt>
<trkpt lat="23.968566" lon="106.618081">
<time>2015-09-27T14:27:42Z</time></trkpt>
<trkpt lat="23.968687" lon="106.617881">
<time>2015-09-27T14:27:43Z</time></trkpt>
<trkpt lat="23.968807" lon="106.617662">
<time>2015-09-27T14:27:44Z</time></trkpt>
<trkpt lat="23.968907" lon="106.617442">
<time>2015-09-27T14:27:45Z</time></trkpt>
<trkpt lat="23.968987" lon="106.617223">
<time>2015-09-27T14:27:46Z</time></trkpt>
<trkpt lat="23.969058" lon="106.617003">
<time>2015-09-27T14:27:47Z</time></trkpt>
<trkpt lat="23.969128" lon="106.616723">
<time>2015-09-27T14:27:48Z</time></trkpt>
<trkpt lat="23.969178" lon="106.616484">
<time>2015-09-27T14:27:49Z</time></trkpt>
<trkpt lat="23.969239" lon="106.616154">
<time>2015-09-27T14:27:50Z</time></trkpt>
<trkpt lat="23.969299" lon="106.615745">
<time>2015-09-27T14:27:51Z</time></trkpt>
<trkpt lat="23.9694" lon="106.614936">
<time>2015-09-27T14:27:52Z</time></trkpt>
<trkpt lat="23.96946" lon="106.614397">
<time>2015-09-27T14:27:53Z</time></trkpt>
<trkpt lat="23.969621" lon="106.613079">
<time>2015-09-27T14:27:54Z</time></trkpt>
<trkpt lat="23.969672" lon="106.612659">
<time>2015-09-27T14:27:55Z</time></trkpt>
<trkpt lat="23.969752" lon="106.61226">
<time>2015-09-27T14:27:56Z</time></trkpt>
<trkpt lat="23.969832" lon="106.61192">
<time>2015-09-27T14:27:57Z</time></trkpt>
<trkpt lat="23.969932" lon="106.611611">
<time>2015-09-27T14:27:58Z</time></trkpt>
<trkpt lat="23.970053" lon="106.611271">
<time>2015-09-27T14:27:59Z</time></trkpt>
<trkpt lat="23.970163" lon="106.611011">
<time>2015-09-27T14:28:00Z</time></trkpt>
<trkpt lat="23.970283" lon="106.610772">
<time>2015-09-27T14:28:01Z</time></trkpt>
<trkpt lat="23.970393" lon="106.610552">
<time>2015-09-27T14:28:02Z</time></trkpt>
<trkpt lat="23.970554" lon="106.610292">
<time>2015-09-27T14:28:03Z</time></trkpt>
<trkpt lat="23.970674" lon="106.610102">
<time>2015-09-27T14:28:04Z</time></trkpt>
<trkpt lat="23.970824" lon="106.609893">
<time>2015-09-27T14:28:05Z</time></trkpt>
<trkpt lat="23.970944" lon="106.609763">
<time>2015-09-27T14:28:06Z</time></trkpt>
<trkpt lat="23.971084" lon="106.609583">
<time>2015-09-27T14:28:07Z</time></trkpt>
<trkpt lat="23.971325" lon="106.609313">
<time>2015-09-27T14:28:08Z</time></trkpt>
<trkpt lat="23.971585" lon="106.609054">
<time>2015-09-27T14:28:09Z</time></trkpt>
<trkpt lat="23.972015" lon="106.608634">
<time>2015-09-27T14:28:10Z</time></trkpt>
<trkpt lat="23.972506" lon="106.608155">
<time>2015-09-27T14:28:11Z</time></trkpt>
<trkpt lat="23.972836" lon="106.607845">
<time>2015-09-27T14:28:12Z</time></trkpt>
<trkpt lat="23.973347" lon="106.607336">
<time>2015-09-27T14:28:13Z</time></trkpt>
<trkpt lat="23.973627" lon="106.607086">
<time>2015-09-27T14:28:14Z</time></trkpt>
<trkpt lat="23.973877" lon="106.606886">
<time>2015-09-27T14:28:15Z</time></trkpt>
<trkpt lat="23.974167" lon="106.606686">
<time>2015-09-27T14:28:16Z</time></trkpt>
<trkpt lat="23.974427" lon="106.606527">
<time>2015-09-27T14:28:17Z</time></trkpt>
<trkpt lat="23.974658" lon="106.606397">
<time>2015-09-27T14:28:18Z</time></trkpt>
<trkpt lat="23.975038" lon="106.606217">
<time>2015-09-27T14:28:19Z</time></trkpt>
<trkpt lat="23.975248" lon="106.606147">
<time>2015-09-27T14:28:20Z</time></trkpt>
<trkpt lat="23.975438" lon="106.606087">
<time>2015-09-27T14:28:21Z</time></trkpt>
<trkpt lat="23.975598" lon="106.606027">
<time>2015-09-27T14:28:22Z</time></trkpt>
<trkpt lat="23.976048" lon="106.605927">
<time>2015-09-27T14:28:23Z</time></trkpt>
<trkpt lat="23.976619" lon="106.605837">
<time>2015-09-27T14:28:24Z</time></trkpt>
<trkpt lat="23.97893" lon="106.605497">
<time>2015-09-27T14:28:25Z</time></trkpt>
<trkpt lat="23.97966" lon="106.605398">
<time>2015-09-27T14:28:26Z</time></trkpt>
<trkpt lat="23.97984" lon="106.605378">
<time>2015-09-27T14:28:27Z</time></trkpt>
<trkpt lat="23.97999" lon="106.605358">
<time>2015-09-27T14:28:28Z</time></trkpt>
<trkpt lat="23.9801" lon="106.605338">
<time>2015-09-27T14:28:29Z</time></trkpt>
<trkpt lat="23.980241" lon="106.605318">
<time>2015-09-27T14:28:30Z</time></trkpt>
<trkpt lat="23.980391" lon="106.605288">
<time>2015-09-27T14:28:31Z</time></trkpt>
<trkpt lat="23.980621" lon="106.605218">
<time>2015-09-27T14:28:32Z</time></trkpt>
<trkpt lat="23.980921" lon="106.605128">
<time>2015-09-27T14:28:33Z</time></trkpt>
<trkpt lat="23.981251" lon="106.605008">
<time>2015-09-27T14:28:34Z</time></trkpt>
<trkpt lat="23.981441" lon="106.604918">
<time>2015-09-27T14:28:35Z</time></trkpt>
<trkpt lat="23.981591" lon="106.604848">
<time>2015-09-27T14:28:36Z</time></trkpt>
<trkpt lat="23.981701" lon="106.604788">
<time>2015-09-27T14:28:37Z</time></trkpt>
<trkpt lat="23.981952" lon="106.604648">
<time>2015-09-27T14:28:38Z</time></trkpt>
<trkpt lat="23.982322" lon="106.604408">
<time>2015-09-27T14:28:39Z</time></trkpt>
<trkpt lat="23.982562" lon="106.604219">
<time>2015-09-27T14:28:40Z</time></trkpt>
<trkpt lat="23.982592" lon="106.604199">
<time>2015-09-27T14:28:41Z</time></trkpt>
<trkpt lat="23.982972" lon="106.603839">
<time>2015-09-27T14:28:42Z</time></trkpt>
<trkpt lat="23.983132" lon="106.603679">
<time>2015-09-27T14:28:43Z</time></trkpt>
<trkpt lat="23.983303" lon="106.603479">
<time>2015-09-27T14:28:44Z</time></trkpt>
<trkpt lat="23.983503" lon="106.603229">
<time>2015-09-27T14:28:45Z</time></trkpt>
<trkpt lat="23.983913" lon="106.60267">
<time>2015-09-27T14:28:46Z</time></trkpt>
<trkpt lat="23.984093" lon="106.6024">
<time>2015-09-27T14:28:47Z</time></trkpt>
<trkpt lat="23.984344" lon="106.602051">
<time>2015-09-27T14:28:48Z</time></trkpt>
<trkpt lat="23.984484" lon="106.601861">
<time>2015-09-27T14:28:49Z</time></trkpt>
<trkpt lat="23.984614" lon="106.601701">
<time>2015-09-27T14:28:50Z</time></trkpt>
<trkpt lat="23.984744" lon="106.601531">
<time>2015-09-27T14:28:51Z</time></trkpt>
<trkpt lat="23.984864" lon="106.601391">
<time>2015-09-27T14:28:52Z</time></trkpt>
<trkpt lat="23.985074" lon="106.601181">
<time>2015-09-27T14:28:53Z</time></trkpt>
<trkpt lat="23.985324" lon="106.600941">
<time>2015-09-27T14:28:54Z</time></trkpt>
<trkpt lat="23.985995" lon="106.600312">
<time>2015-09-27T14:28:55Z</time></trkpt>
<trkpt lat="23.986265" lon="106.600062">
<time>2015-09-27T14:28:56Z</time></trkpt>
<trkpt lat="23.987045" lon="106.599343">
<time>2015-09-27T14:28:57Z</time></trkpt>
<trkpt lat="23.987706" lon="106.598753">
<time>2015-09-27T14:28:58Z</time></trkpt>
<trkpt lat="23.988216" lon="106.598263">
<time>2015-09-27T14:28:59Z</time></trkpt>
<trkpt lat="23.988356" lon="106.598124">
<time>2015-09-27T14:29:00Z</time></trkpt>
<trkpt lat="23.988696" lon="106.597794">
<time>2015-09-27T14:29:01Z</time></trkpt>
<trkpt lat="23.988977" lon="106.597514">
<time>2015-09-27T14:29:02Z</time></trkpt>
<trkpt lat="23.989097" lon="106.597374">
<time>2015-09-27T14:29:03Z</time></trkpt>
<trkpt lat="23.989157" lon="106.597304">
<time>2015-09-27T14:29:04Z</time></trkpt>
<trkpt lat="23.989197" lon="106.597254">
<time>2015-09-27T14:29:05Z</time></trkpt>
<trkpt lat="23.989367" lon="106.597034">
<time>2015-09-27T14:29:06Z</time></trkpt>
<trkpt lat="23.989617" lon="106.596694">
<time>2015-09-27T14:29:07Z</time></trkpt>
<trkpt lat="23.989817" lon="106.596395">
<time>2015-09-27T14:29:08Z</time></trkpt>
<trkpt lat="23.990037" lon="106.596045">
<time>2015-09-27T14:29:09Z</time></trkpt>
<trkpt lat="23.990427" lon="106.595355">
<time>2015-09-27T14:29:10Z</time></trkpt>
<trkpt lat="23.990888" lon="106.594466">
<time>2015-09-27T14:29:11Z</time></trkpt>
<trkpt lat="23.991338" lon="106.593596">
<time>2015-09-27T14:29:12Z</time></trkpt>
<trkpt lat="23.991958" lon="106.592397">
<time>2015-09-27T14:29:13Z</time></trkpt>
<trkpt lat="23.992308" lon="106.591707">
<time>2015-09-27T14:29:14Z</time></trkpt>
<trkpt lat="23.992688" lon="106.590967">
<time>2015-09-27T14:29:15Z</time></trkpt>
<trkpt lat="23.992848" lon="106.590677">
<time>2015-09-27T14:29:16Z</time></trkpt>
<trkpt lat="23.992968" lon="106.590487">
<time>2015-09-27T14:29:17Z</time></trkpt>
<trkpt lat="23.993078" lon="106.590307">
<time>2015-09-27T14:29:18Z</time></trkpt>
<trkpt lat="23.993198" lon="106.590157">
<time>2015-09-27T14:29:19Z</time></trkpt>
<trkpt lat="23.993368" lon="106.589947">
<time>2015-09-27T14:29:20Z</time></trkpt>
<trkpt lat="23.993508" lon="106.589797">
<time>2015-09-27T14:29:21Z</time></trkpt>
<trkpt lat="23.993608" lon="106.589688">
<time>2015-09-27T14:29:22Z</time></trkpt>
<trkpt lat="23.993748" lon="106.589558">
<time>2015-09-27T14:29:23Z</time></trkpt>
<trkpt lat="23.993898" lon="106.589438">
<time>2015-09-27T14:29:24Z</time></trkpt>
<trkpt lat="23.994048" lon="106.589338">
<time>2015-09-27T14:29:25Z</time></trkpt>
<trkpt lat="23.994188" lon="106.589248">
<time>2015-09-27T14:29:26Z</time></trkpt>
<trkpt lat="23.994348" lon="106.589148">
<time>2015-09-27T14:29:27Z</time></trkpt>
<trkpt lat="23.994458" lon="106.589098">
<time>2015-09-27T14:29:28Z</time></trkpt>
<trkpt lat="23.994719" lon="106.588988">
<time>2015-09-27T14:29:29Z</time></trkpt>
<trkpt lat="23.995059" lon="106.588868">
<time>2015-09-27T14:29:30Z</time></trkpt>
<trkpt lat="23.995299" lon="106.588788">
<time>2015-09-27T14:29:31Z</time></trkpt>
<trkpt lat="23.995569" lon="106.588728">
<time>2015-09-27T14:29:32Z</time></trkpt>
<trkpt lat="23.996339" lon="106.588528">
<time>2015-09-27T14:29:33Z</time></trkpt>
<trkpt lat="23.996639" lon="106.588448">
<time>2015-09-27T14:29:34Z</time></trkpt>
<trkpt lat="23.996819" lon="106.588368">
<time>2015-09-27T14:29:35Z</time></trkpt>
<trkpt lat="23.996979" lon="106.588288">
<time>2015-09-27T14:29:36Z</time></trkpt>
<trkpt lat="23.997169" lon="106.588188">
<time>2015-09-27T14:29:37Z</time></trkpt>
<trkpt lat="23.997399" lon="106.588048">
<time>2015-09-27T14:29:38Z</time></trkpt>
<trkpt lat="23.997539" lon="106.587958">
<time>2015-09-27T14:29:39Z</time></trkpt>
<trkpt lat="23.99772" lon="106.587808">
<time>2015-09-27T14:29:40Z</time></trkpt>
<trkpt lat="23.9979" lon="106.587648">
<time>2015-09-27T14:29:41Z</time></trkpt>
<trkpt lat="23.99805" lon="106.587498">
<time>2015-09-27T14:29:42Z</time></trkpt>
<trkpt lat="23.99818" lon="106.587358">
<time>2015-09-27T14:29:43Z</time></trkpt>
<trkpt lat="23.99828" lon="106.587228">
<time>2015-09-27T14:29:44Z</time></trkpt>
<trkpt lat="23.9984" lon="106.587068">
<time>2015-09-27T14:29:45Z</time></trkpt>
<trkpt lat="23.99859" lon="106.586788">
<time>2015-09-27T14:29:46Z</time></trkpt>
<trkpt lat="23.99879" lon="106.586448">
<time>2015-09-27T14:29:47Z</time></trkpt>
<trkpt lat="23.999379" lon="106.585448">
<time>2015-09-27T14:29:48Z</time></trkpt>
<trkpt lat="23.999709" lon="106.584858">
<time>2015-09-27T14:29:49Z</time></trkpt>
<trkpt lat="23.999879" lon="106.584578">
<time>2015-09-27T14:29:50Z</time></trkpt>
<trkpt lat="24.000009" lon="106.584368">
<time>2015-09-27T14:29:51Z</time></trkpt>
<trkpt lat="24.000199" lon="106.584068">
<time>2015-09-27T14:29:52Z</time></trkpt>
<trkpt lat="24.000429" lon="106.583768">
<time>2015-09-27T14:29:53Z</time></trkpt>
<trkpt lat="24.000619" lon="106.583548">
<time>2015-09-27T14:29:54Z</time></trkpt>
<trkpt lat="24.000779" lon="106.583378">
<time>2015-09-27T14:29:55Z</time></trkpt>
<trkpt lat="24.000909" lon="106.583238">
<time>2015-09-27T14:29:56Z</time></trkpt>
<trkpt lat="24.001099" lon="106.583068">
<time>2015-09-27T14:29:57Z</time></trkpt>
<trkpt lat="24.001649" lon="106.582588">
<time>2015-09-27T14:29:58Z</time></trkpt>
<trkpt lat="24.002319" lon="106.582038">
<time>2015-09-27T14:29:59Z</time></trkpt>
<trkpt lat="24.003059" lon="106.581498">
<time>2015-09-27T14:30:00Z</time></trkpt>
<trkpt lat="24.003639" lon="106.581078">
<time>2015-09-27T14:30:01Z</time></trkpt>
<trkpt lat="24.004099" lon="106.580708">
<time>2015-09-27T14:30:02Z</time></trkpt>
<trkpt lat="24.004919" lon="106.579767">
<time>2015-09-27T14:30:03Z</time></trkpt>
<trkpt lat="24.005489" lon="106.579087">
<time>2015-09-27T14:30:04Z</time></trkpt>
<trkpt lat="24.005998" lon="106.578427">
<time>2015-09-27T14:30:05Z</time></trkpt>
<trkpt lat="24.006358" lon="106.577987">
<time>2015-09-27T14:30:06Z</time></trkpt>
<trkpt lat="24.007048" lon="106.577227">
<time>2015-09-27T14:30:07Z</time></trkpt>
<trkpt lat="24.007648" lon="106.576626">
<time>2015-09-27T14:30:08Z</time></trkpt>
<trkpt lat="24.008837" lon="106.575606">
<time>2015-09-27T14:30:09Z</time></trkpt>
<trkpt lat="24.009307" lon="106.575176">
<time>2015-09-27T14:30:10Z</time></trkpt>
<trkpt lat="24.009787" lon="106.574686">
<time>2015-09-27T14:30:11Z</time></trkpt>
<trkpt lat="24.009967" lon="106.574516">
<time>2015-09-27T14:30:12Z</time></trkpt>
<trkpt lat="24.010117" lon="106.574365">
<time>2015-09-27T14:30:13Z</time></trkpt>
<trkpt lat="24.010257" lon="106.574205">
<time>2015-09-27T14:30:14Z</time></trkpt>
<trkpt lat="24.010407" lon="106.574025">
<time>2015-09-27T14:30:15Z</time></trkpt>
<trkpt lat="24.011875" lon="106.572184">
<time>2015-09-27T14:30:16Z</time></trkpt>
<trkpt lat="24.012495" lon="106.571584">
<time>2015-09-27T14:30:17Z</time></trkpt>
<trkpt lat="24.012585" lon="106.571514">
<time>2015-09-27T14:30:18Z</time></trkpt>
<trkpt lat="24.012695" lon="106.571414">
<time>2015-09-27T14:30:19Z</time></trkpt>
<trkpt lat="24.012775" lon="106.571364">
<time>2015-09-27T14:30:20Z</time></trkpt>
<trkpt lat="24.012905" lon="106.571284">
<time>2015-09-27T14:30:21Z</time></trkpt>
<trkpt lat="24.013005" lon="106.571224">
<time>2015-09-27T14:30:22Z</time></trkpt>
<trkpt lat="24.013075" lon="106.571184">
<time>2015-09-27T14:30:23Z</time></trkpt>
<trkpt lat="24.013155" lon="106.571144">
<time>2015-09-27T14:30:24Z</time></trkpt>
<trkpt lat="24.013285" lon="106.571083">
<time>2015-09-27T14:30:25Z</time></trkpt>
<trkpt lat="24.013435" lon="106.571033">
<time>2015-09-27T14:30:26Z</time></trkpt>
<trkpt lat="24.013585" lon="106.570993">
<time>2015-09-27T14:30:27Z</time></trkpt>
<trkpt lat="24.013715" lon="106.570963">
<time>2015-09-27T14:30:28Z</time></trkpt>
<trkpt lat="24.013875" lon="106.570943">
<time>2015-09-27T14:30:29Z</time></trkpt>
<trkpt lat="24.014065" lon="106.570913">
<time>2015-09-27T14:30:30Z</time></trkpt>
<trkpt lat="24.014435" lon="106.570953">
<time>2015-09-27T14:30:31Z</time></trkpt>
<trkpt lat="24.014595" lon="106.570963">
<time>2015-09-27T14:30:32Z</time></trkpt>
<trkpt lat="24.014856" lon="106.571023">
<time>2015-09-27T14:30:33Z</time></trkpt>
<trkpt lat="24.014996" lon="106.571043">
<time>2015-09-27T14:30:34Z</time></trkpt>
<trkpt lat="24.015126" lon="106.571063">
<time>2015-09-27T14:30:35Z</time></trkpt>
<trkpt lat="24.015266" lon="106.571063">
<time>2015-09-27T14:30:36Z</time></trkpt>
<trkpt lat="24.015406" lon="106.571063">
<time>2015-09-27T14:30:37Z</time></trkpt>
<trkpt lat="24.015566" lon="106.571043">
<time>2015-09-27T14:30:38Z</time></trkpt>
<trkpt lat="24.015686" lon="106.571033">
<time>2015-09-27T14:30:39Z</time></trkpt>
<trkpt lat="24.015786" lon="106.571003">
<time>2015-09-27T14:30:40Z</time></trkpt>
<trkpt lat="24.015926" lon="106.570963">
<time>2015-09-27T14:30:41Z</time></trkpt>
<trkpt lat="24.016206" lon="106.570873">
<time>2015-09-27T14:30:42Z</time></trkpt>
<trkpt lat="24.016716" lon="106.570653">
<time>2015-09-27T14:30:43Z</time></trkpt>
<trkpt lat="24.017006" lon="106.570523">
<time>2015-09-27T14:30:44Z</time></trkpt>
<trkpt lat="24.018866" lon="106.569642">
<time>2015-09-27T14:30:45Z</time></trkpt>
<trkpt lat="24.018866" lon="106.569642">
<time>2015-09-27T14:30:46Z</time></trkpt>
<trkpt lat="24.019156" lon="106.569682">
<time>2015-09-27T14:30:47Z</time></trkpt>
<trkpt lat="24.019336" lon="106.569742">
<time>2015-09-27T14:30:48Z</time></trkpt>
<trkpt lat="24.019526" lon="106.569832">
<time>2015-09-27T14:30:49Z</time></trkpt>
<trkpt lat="24.019596" lon="106.569882">
<time>2015-09-27T14:30:50Z</time></trkpt>
<trkpt lat="24.019616" lon="106.569892">
<time>2015-09-27T14:30:51Z</time></trkpt>
<trkpt lat="24.019727" lon="106.569972">
<time>2015-09-27T14:30:52Z</time></trkpt>
<trkpt lat="24.020748" lon="106.570993">
<time>2015-09-27T14:30:53Z</time></trkpt>
<trkpt lat="24.02198" lon="106.572254">
<time>2015-09-27T14:30:54Z</time></trkpt>
<trkpt lat="24.022641" lon="106.572944">
<time>2015-09-27T14:30:55Z</time></trkpt>
<trkpt lat="24.022851" lon="106.573134">
<time>2015-09-27T14:30:56Z</time></trkpt>
<trkpt lat="24.022991" lon="106.573244">
<time>2015-09-27T14:30:57Z</time></trkpt>
<trkpt lat="24.023111" lon="106.573324">
<time>2015-09-27T14:30:58Z</time></trkpt>
<trkpt lat="24.023231" lon="106.573384">
<time>2015-09-27T14:30:59Z</time></trkpt>
<trkpt lat="24.023362" lon="106.573444">
<time>2015-09-27T14:31:00Z</time></trkpt>
<trkpt lat="24.023492" lon="106.573494">
<time>2015-09-27T14:31:01Z</time></trkpt>
<trkpt lat="24.023632" lon="106.573524">
<time>2015-09-27T14:31:02Z</time></trkpt>
<trkpt lat="24.023752" lon="106.573554">
<time>2015-09-27T14:31:03Z</time></trkpt>
<trkpt lat="24.023892" lon="106.573574">
<time>2015-09-27T14:31:04Z</time></trkpt>
<trkpt lat="24.025073" lon="106.573704">
<time>2015-09-27T14:31:05Z</time></trkpt>
<trkpt lat="24.025263" lon="106.573724">
<time>2015-09-27T14:31:06Z</time></trkpt>
<trkpt lat="24.025413" lon="106.573754">
<time>2015-09-27T14:31:07Z</time></trkpt>
<trkpt lat="24.025533" lon="106.573794">
<time>2015-09-27T14:31:08Z</time></trkpt>
<trkpt lat="24.025643" lon="106.573834">
<time>2015-09-27T14:31:09Z</time></trkpt>
<trkpt lat="24.025753" lon="106.573884">
<time>2015-09-27T14:31:10Z</time></trkpt>
<trkpt lat="24.025853" lon="106.573944">
<time>2015-09-27T14:31:11Z</time></trkpt>
<trkpt lat="24.025913" lon="106.573984">
<time>2015-09-27T14:31:12Z</time></trkpt>
<trkpt lat="24.025913" lon="106.573984">
<time>2015-09-27T14:31:13Z</time></trkpt>
<trkpt lat="24.026043" lon="106.574025">
<time>2015-09-27T14:31:14Z</time></trkpt>
<trkpt lat="24.026133" lon="106.574015">
<time>2015-09-27T14:31:15Z</time></trkpt>
<trkpt lat="24.026213" lon="106.574004">
<time>2015-09-27T14:31:16Z</time></trkpt>
<trkpt lat="24.026303" lon="106.573964">
<time>2015-09-27T14:31:17Z</time></trkpt>
<trkpt lat="24.026443" lon="106.573774">
<time>2015-09-27T14:31:18Z</time></trkpt>
<trkpt lat="24.026753" lon="106.573344">
<time>2015-09-27T14:31:19Z</time></trkpt>
<trkpt lat="24.026903" lon="106.573104">
<time>2015-09-27T14:31:20Z</time></trkpt>
<trkpt lat="24.026983" lon="106.572924">
<time>2015-09-27T14:31:21Z</time></trkpt>
<trkpt lat="24.027023" lon="106.572784">
<time>2015-09-27T14:31:22Z</time></trkpt>
<trkpt lat="24.027042" lon="106.572644">
<time>2015-09-27T14:31:23Z</time></trkpt>
<trkpt lat="24.027042" lon="106.572514">
<time>2015-09-27T14:31:24Z</time></trkpt>
<trkpt lat="24.027032" lon="106.572384">
<time>2015-09-27T14:31:25Z</time></trkpt>
<trkpt lat="24.026972" lon="106.572173">
<time>2015-09-27T14:31:26Z</time></trkpt>
<trkpt lat="24.026852" lon="106.571933">
<time>2015-09-27T14:31:27Z</time></trkpt>
<trkpt lat="24.026531" lon="106.571353">
<time>2015-09-27T14:31:28Z</time></trkpt>
<trkpt lat="24.026461" lon="106.571163">
<time>2015-09-27T14:31:29Z</time></trkpt>
<trkpt lat="24.02641" lon="106.570953">
<time>2015-09-27T14:31:30Z</time></trkpt>
<trkpt lat="24.02638" lon="106.570713">
<time>2015-09-27T14:31:31Z</time></trkpt>
<trkpt lat="24.02638" lon="106.570512">
<time>2015-09-27T14:31:32Z</time></trkpt>
<trkpt lat="24.0264" lon="106.570332">
<time>2015-09-27T14:31:33Z</time></trkpt>
<trkpt lat="24.02643" lon="106.570172">
<time>2015-09-27T14:31:34Z</time></trkpt>
<trkpt lat="24.026489" lon="106.569942">
<time>2015-09-27T14:31:35Z</time></trkpt>
<trkpt lat="24.026829" lon="106.569282">
<time>2015-09-27T14:31:36Z</time></trkpt>
<trkpt lat="24.027178" lon="106.568561">
<time>2015-09-27T14:31:37Z</time></trkpt>
<trkpt lat="24.027647" lon="106.56765">
<time>2015-09-27T14:31:38Z</time></trkpt>
<trkpt lat="24.027907" lon="106.56722">
<time>2015-09-27T14:31:39Z</time></trkpt>
<trkpt lat="24.028286" lon="106.56675">
<time>2015-09-27T14:31:40Z</time></trkpt>
<trkpt lat="24.028826" lon="106.566229">
<time>2015-09-27T14:31:41Z</time></trkpt>
<trkpt lat="24.029136" lon="106.565809">
<time>2015-09-27T14:31:42Z</time></trkpt>
<trkpt lat="24.029465" lon="106.565198">
<time>2015-09-27T14:31:43Z</time></trkpt>
<trkpt lat="24.029874" lon="106.564367">
<time>2015-09-27T14:31:44Z</time></trkpt>
<trkpt lat="24.030044" lon="106.564007">
<time>2015-09-27T14:31:45Z</time></trkpt>
<trkpt lat="24.030263" lon="106.563567">
<time>2015-09-27T14:31:46Z</time></trkpt>
<trkpt lat="24.030383" lon="106.563326">
<time>2015-09-27T14:31:47Z</time></trkpt>
<trkpt lat="24.030463" lon="106.563116">
<time>2015-09-27T14:31:48Z</time></trkpt>
<trkpt lat="24.030532" lon="106.562916">
<time>2015-09-27T14:31:49Z</time></trkpt>
<trkpt lat="24.030602" lon="106.562686">
<time>2015-09-27T14:31:50Z</time></trkpt>
<trkpt lat="24.030632" lon="106.562566">
<time>2015-09-27T14:31:51Z</time></trkpt>
<trkpt lat="24.030652" lon="106.562455">
<time>2015-09-27T14:31:52Z</time></trkpt>
<trkpt lat="24.030672" lon="106.562285">
<time>2015-09-27T14:31:53Z</time></trkpt>
<trkpt lat="24.030671" lon="106.562115">
<time>2015-09-27T14:31:54Z</time></trkpt>
<trkpt lat="24.030671" lon="106.562105">
<time>2015-09-27T14:31:55Z</time></trkpt>
<trkpt lat="24.030671" lon="106.562105">
<time>2015-09-27T14:31:56Z</time></trkpt>
<trkpt lat="24.030721" lon="106.562045">
<time>2015-09-27T14:31:57Z</time></trkpt>
<trkpt lat="24.030751" lon="106.561995">
<time>2015-09-27T14:31:58Z</time></trkpt>
<trkpt lat="24.030771" lon="106.561905">
<time>2015-09-27T14:31:59Z</time></trkpt>
<trkpt lat="24.03084" lon="106.561364">
<time>2015-09-27T14:32:00Z</time></trkpt>
<trkpt lat="24.03085" lon="106.561334">
<time>2015-09-27T14:32:01Z</time></trkpt>
<trkpt lat="24.03113" lon="106.560874">
<time>2015-09-27T14:32:02Z</time></trkpt>
<trkpt lat="24.03127" lon="106.560764">
<time>2015-09-27T14:32:03Z</time></trkpt>
<trkpt lat="24.03144" lon="106.560663">
<time>2015-09-27T14:32:04Z</time></trkpt>
<trkpt lat="24.031949" lon="106.560413">
<time>2015-09-27T14:32:05Z</time></trkpt>
<trkpt lat="24.032159" lon="106.560293">
<time>2015-09-27T14:32:06Z</time></trkpt>
<trkpt lat="24.032399" lon="106.560143">
<time>2015-09-27T14:32:07Z</time></trkpt>
<trkpt lat="24.032599" lon="106.559953">
<time>2015-09-27T14:32:08Z</time></trkpt>
<trkpt lat="24.032749" lon="106.559752">
<time>2015-09-27T14:32:09Z</time></trkpt>
<trkpt lat="24.032858" lon="106.559492">
<time>2015-09-27T14:32:10Z</time></trkpt>
<trkpt lat="24.032918" lon="106.559202">
<time>2015-09-27T14:32:11Z</time></trkpt>
<trkpt lat="24.032947" lon="106.558661">
<time>2015-09-27T14:32:12Z</time></trkpt>
<trkpt lat="24.032996" lon="106.55805">
<time>2015-09-27T14:32:13Z</time></trkpt>
<trkpt lat="24.032996" lon="106.55799">
<time>2015-09-27T14:32:14Z</time></trkpt>
<trkpt lat="24.033035" lon="106.557369">
<time>2015-09-27T14:32:15Z</time></trkpt>
<trkpt lat="24.033074" lon="106.556859">
<time>2015-09-27T14:32:16Z</time></trkpt>
<trkpt lat="24.033114" lon="106.556528">
<time>2015-09-27T14:32:17Z</time></trkpt>
<trkpt lat="24.033114" lon="106.556528">
<time>2015-09-27T14:32:18Z</time></trkpt>
<trkpt lat="24.033144" lon="106.556488">
<time>2015-09-27T14:32:19Z</time></trkpt>
<trkpt lat="24.033184" lon="106.556438">
<time>2015-09-27T14:32:20Z</time></trkpt>
<trkpt lat="24.033224" lon="106.556408">
<time>2015-09-27T14:32:21Z</time></trkpt>
<trkpt lat="24.033294" lon="106.556378">
<time>2015-09-27T14:32:22Z</time></trkpt>
<trkpt lat="24.033294" lon="106.556378">
<time>2015-09-27T14:32:23Z</time></trkpt>
<trkpt lat="24.033344" lon="106.556388">
<time>2015-09-27T14:32:24Z</time></trkpt>
<trkpt lat="24.033534" lon="106.556398">
<time>2015-09-27T14:32:25Z</time></trkpt>
<trkpt lat="24.033744" lon="106.556388">
<time>2015-09-27T14:32:26Z</time></trkpt>
<trkpt lat="24.033944" lon="106.556368">
<time>2015-09-27T14:32:27Z</time></trkpt>
<trkpt lat="24.034204" lon="106.556318">
<time>2015-09-27T14:32:28Z</time></trkpt>
<trkpt lat="24.034394" lon="106.556268">
<time>2015-09-27T14:32:29Z</time></trkpt>
<trkpt lat="24.034584" lon="106.556188">
<time>2015-09-27T14:32:30Z</time></trkpt>
<trkpt lat="24.034714" lon="106.556138">
<time>2015-09-27T14:32:31Z</time></trkpt>
<trkpt lat="24.034854" lon="106.556078">
<time>2015-09-27T14:32:32Z</time></trkpt>
<trkpt lat="24.034964" lon="106.556018">
<time>2015-09-27T14:32:33Z</time></trkpt>
<trkpt lat="24.035144" lon="106.555917">
<time>2015-09-27T14:32:34Z</time></trkpt>
<trkpt lat="24.035263" lon="106.555847">
<time>2015-09-27T14:32:35Z</time></trkpt>
<trkpt lat="24.036253" lon="106.555106">
<time>2015-09-27T14:32:36Z</time></trkpt>
<trkpt lat="24.037252" lon="106.554375">
<time>2015-09-27T14:32:37Z</time></trkpt>
<trkpt lat="24.037951" lon="106.553854">
<time>2015-09-27T14:32:38Z</time></trkpt>
<trkpt lat="24.038751" lon="106.553274">
<time>2015-09-27T14:32:39Z</time></trkpt>
<trkpt lat="24.0395" lon="106.552693">
<time>2015-09-27T14:32:40Z</time></trkpt>
<trkpt lat="24.03972" lon="106.552512">
<time>2015-09-27T14:32:41Z</time></trkpt>
<trkpt lat="24.039839" lon="106.552402">
<time>2015-09-27T14:32:42Z</time></trkpt>
<trkpt lat="24.039909" lon="106.552322">
<time>2015-09-27T14:32:43Z</time></trkpt>
<trkpt lat="24.040049" lon="106.552172">
<time>2015-09-27T14:32:44Z</time></trkpt>
<trkpt lat="24.040259" lon="106.551921">
<time>2015-09-27T14:32:45Z</time></trkpt>
<trkpt lat="24.040358" lon="106.551781">
<time>2015-09-27T14:32:46Z</time></trkpt>
<trkpt lat="24.040448" lon="106.551651">
<time>2015-09-27T14:32:47Z</time></trkpt>
<trkpt lat="24.040518" lon="106.551521">
<time>2015-09-27T14:32:48Z</time></trkpt>
<trkpt lat="24.040608" lon="106.551351">
<time>2015-09-27T14:32:49Z</time></trkpt>
<trkpt lat="24.040648" lon="106.55126">
<time>2015-09-27T14:32:50Z</time></trkpt>
<trkpt lat="24.040687" lon="106.55113">
<time>2015-09-27T14:32:51Z</time></trkpt>
<trkpt lat="24.040717" lon="106.55106">
<time>2015-09-27T14:32:52Z</time></trkpt>
<trkpt lat="24.040737" lon="106.55097">
<time>2015-09-27T14:32:53Z</time></trkpt>
<trkpt lat="24.040767" lon="106.55086">
<time>2015-09-27T14:32:54Z</time></trkpt>
<trkpt lat="24.040787" lon="106.55073">
<time>2015-09-27T14:32:55Z</time></trkpt>
<trkpt lat="24.040826" lon="106.550429">
<time>2015-09-27T14:32:56Z</time></trkpt>
<trkpt lat="24.040856" lon="106.550129">
<time>2015-09-27T14:32:57Z</time></trkpt>
<trkpt lat="24.040884" lon="106.549508">
<time>2015-09-27T14:32:58Z</time></trkpt>
<trkpt lat="24.040904" lon="106.549067">
<time>2015-09-27T14:32:59Z</time></trkpt>
<trkpt lat="24.040923" lon="106.548686">
<time>2015-09-27T14:33:00Z</time></trkpt>
<trkpt lat="24.040932" lon="106.548396">
<time>2015-09-27T14:33:01Z</time></trkpt>
<trkpt lat="24.040942" lon="106.548035">
<time>2015-09-27T14:33:02Z</time></trkpt>
<trkpt lat="24.040961" lon="106.547775">
<time>2015-09-27T14:33:03Z</time></trkpt>
<trkpt lat="24.04097" lon="106.547384">
<time>2015-09-27T14:33:04Z</time></trkpt>
<trkpt lat="24.04098" lon="106.547084">
<time>2015-09-27T14:33:05Z</time></trkpt>
<trkpt lat="24.04098" lon="106.547023">
<time>2015-09-27T14:33:06Z</time></trkpt>
<trkpt lat="24.040979" lon="106.546983">
<time>2015-09-27T14:33:07Z</time></trkpt>
<trkpt lat="24.040979" lon="106.546863">
<time>2015-09-27T14:33:08Z</time></trkpt>
<trkpt lat="24.040969" lon="106.546783">
<time>2015-09-27T14:33:09Z</time></trkpt>
<trkpt lat="24.040949" lon="106.546693">
<time>2015-09-27T14:33:10Z</time></trkpt>
<trkpt lat="24.040929" lon="106.546613">
<time>2015-09-27T14:33:11Z</time></trkpt>
<trkpt lat="24.040919" lon="106.546553">
<time>2015-09-27T14:33:12Z</time></trkpt>
<trkpt lat="24.040888" lon="106.546472">
<time>2015-09-27T14:33:13Z</time></trkpt>
<trkpt lat="24.040858" lon="106.546402">
<time>2015-09-27T14:33:14Z</time></trkpt>
<trkpt lat="24.040828" lon="106.546332">
<time>2015-09-27T14:33:15Z</time></trkpt>
<trkpt lat="24.040768" lon="106.546222">
<time>2015-09-27T14:33:16Z</time></trkpt>
<trkpt lat="24.040698" lon="106.546132">
<time>2015-09-27T14:33:17Z</time></trkpt>
<trkpt lat="24.040607" lon="106.546032">
<time>2015-09-27T14:33:18Z</time></trkpt>
<trkpt lat="24.040487" lon="106.545912">
<time>2015-09-27T14:33:19Z</time></trkpt>
<trkpt lat="24.040277" lon="106.545741">
<time>2015-09-27T14:33:20Z</time></trkpt>
<trkpt lat="24.039445" lon="106.54511">
<time>2015-09-27T14:33:21Z</time></trkpt>
<trkpt lat="24.038693" lon="106.544529">
<time>2015-09-27T14:33:22Z</time></trkpt>
<trkpt lat="24.038513" lon="106.544369">
<time>2015-09-27T14:33:23Z</time></trkpt>
<trkpt lat="24.038393" lon="106.544219">
<time>2015-09-27T14:33:24Z</time></trkpt>
<trkpt lat="24.038282" lon="106.544068">
<time>2015-09-27T14:33:25Z</time></trkpt>
<trkpt lat="24.038182" lon="106.543838">
<time>2015-09-27T14:33:26Z</time></trkpt>
<trkpt lat="24.038051" lon="106.543517">
<time>2015-09-27T14:33:27Z</time></trkpt>
<trkpt lat="24.03798" lon="106.543307">
<time>2015-09-27T14:33:28Z</time></trkpt>
<trkpt lat="24.03795" lon="106.543187">
<time>2015-09-27T14:33:29Z</time></trkpt>
<trkpt lat="24.03793" lon="106.543087">
<time>2015-09-27T14:33:30Z</time></trkpt>
<trkpt lat="24.03792" lon="106.542976">
<time>2015-09-27T14:33:31Z</time></trkpt>
<trkpt lat="24.037929" lon="106.542846">
<time>2015-09-27T14:33:32Z</time></trkpt>
<trkpt lat="24.037959" lon="106.542706">
<time>2015-09-27T14:33:33Z</time></trkpt>
<trkpt lat="24.038009" lon="106.542535">
<time>2015-09-27T14:33:34Z</time></trkpt>
<trkpt lat="24.038098" lon="106.542295">
<time>2015-09-27T14:33:35Z</time></trkpt>
<trkpt lat="24.038168" lon="106.542155">
<time>2015-09-27T14:33:36Z</time></trkpt>
<trkpt lat="24.038238" lon="106.542024">
<time>2015-09-27T14:33:37Z</time></trkpt>
<trkpt lat="24.038318" lon="106.541894">
<time>2015-09-27T14:33:38Z</time></trkpt>
<trkpt lat="24.038687" lon="106.541473">
<time>2015-09-27T14:33:39Z</time></trkpt>
<trkpt lat="24.039355" lon="106.540702">
<time>2015-09-27T14:33:40Z</time></trkpt>
<trkpt lat="24.039545" lon="106.540501">
<time>2015-09-27T14:33:41Z</time></trkpt>
<trkpt lat="24.039625" lon="106.540441">
<time>2015-09-27T14:33:42Z</time></trkpt>
<trkpt lat="24.039695" lon="106.540381">
<time>2015-09-27T14:33:43Z</time></trkpt>
<trkpt lat="24.039885" lon="106.540231">
<time>2015-09-27T14:33:44Z</time></trkpt>
<trkpt lat="24.040094" lon="106.540091">
<time>2015-09-27T14:33:45Z</time></trkpt>
<trkpt lat="24.040344" lon="106.53995">
<time>2015-09-27T14:33:46Z</time></trkpt>
<trkpt lat="24.040624" lon="106.53977">
<time>2015-09-27T14:33:47Z</time></trkpt>
<trkpt lat="24.040824" lon="106.53964">
<time>2015-09-27T14:33:48Z</time></trkpt>
<trkpt lat="24.040953" lon="106.539529">
<time>2015-09-27T14:33:49Z</time></trkpt>
<trkpt lat="24.041123" lon="106.539369">
<time>2015-09-27T14:33:50Z</time></trkpt>
<trkpt lat="24.041273" lon="106.539199">
<time>2015-09-27T14:33:51Z</time></trkpt>
<trkpt lat="24.041422" lon="106.538998">
<time>2015-09-27T14:33:52Z</time></trkpt>
<trkpt lat="24.041602" lon="106.538718">
<time>2015-09-27T14:33:53Z</time></trkpt>
<trkpt lat="24.041761" lon="106.538467">
<time>2015-09-27T14:33:54Z</time></trkpt>
<trkpt lat="24.041991" lon="106.538127">
<time>2015-09-27T14:33:55Z</time></trkpt>
<trkpt lat="24.04218" lon="106.537926">
<time>2015-09-27T14:33:56Z</time></trkpt>
<trkpt lat="24.04238" lon="106.537766">
<time>2015-09-27T14:33:57Z</time></trkpt>
<trkpt lat="24.04261" lon="106.537646">
<time>2015-09-27T14:33:58Z</time></trkpt>
<trkpt lat="24.04289" lon="106.537515">
<time>2015-09-27T14:33:59Z</time></trkpt>
<trkpt lat="24.043579" lon="106.537235">
<time>2015-09-27T14:34:00Z</time></trkpt>
<trkpt lat="24.044729" lon="106.536774">
<time>2015-09-27T14:34:01Z</time></trkpt>
<trkpt lat="24.045638" lon="106.536413">
<time>2015-09-27T14:34:02Z</time></trkpt>
<trkpt lat="24.045638" lon="106.536413">
<time>2015-09-27T14:34:03Z</time></trkpt>
<trkpt lat="24.045678" lon="106.536413">
<time>2015-09-27T14:34:04Z</time></trkpt>
<trkpt lat="24.045728" lon="106.536383">
<time>2015-09-27T14:34:05Z</time></trkpt>
<trkpt lat="24.045798" lon="106.536353">
<time>2015-09-27T14:34:06Z</time></trkpt>
<trkpt lat="24.045818" lon="106.536333">
<time>2015-09-27T14:34:07Z</time></trkpt>
<trkpt lat="24.045978" lon="106.536252">
<time>2015-09-27T14:34:08Z</time></trkpt>
<trkpt lat="24.046188" lon="106.536142">
<time>2015-09-27T14:34:09Z</time></trkpt>
<trkpt lat="24.046388" lon="106.536032">
<time>2015-09-27T14:34:10Z</time></trkpt>
<trkpt lat="24.046557" lon="106.535912">
<time>2015-09-27T14:34:11Z</time></trkpt>
<trkpt lat="24.046807" lon="106.535741">
<time>2015-09-27T14:34:12Z</time></trkpt>
<trkpt lat="24.046917" lon="106.535661">
<time>2015-09-27T14:34:13Z</time></trkpt>
<trkpt lat="24.047027" lon="106.535571">
<time>2015-09-27T14:34:14Z</time></trkpt>
<trkpt lat="24.047157" lon="106.535461">
<time>2015-09-27T14:34:15Z</time></trkpt>
<trkpt lat="24.047446" lon="106.53518">
<time>2015-09-27T14:34:16Z</time></trkpt>
<trkpt lat="24.047536" lon="106.53509">
<time>2015-09-27T14:34:17Z</time></trkpt>
<trkpt lat="24.047616" lon="106.53502">
<time>2015-09-27T14:34:18Z</time></trkpt>
<trkpt lat="24.047676" lon="106.53495">
<time>2015-09-27T14:34:19Z</time></trkpt>
<trkpt lat="24.047875" lon="106.534709">
<time>2015-09-27T14:34:20Z</time></trkpt>
<trkpt lat="24.047985" lon="106.534559">
<time>2015-09-27T14:34:21Z</time></trkpt>
<trkpt lat="24.048025" lon="106.534499">
<time>2015-09-27T14:34:22Z</time></trkpt>
<trkpt lat="24.048074" lon="106.534418">
<time>2015-09-27T14:34:23Z</time></trkpt>
<trkpt lat="24.048154" lon="106.534308">
<time>2015-09-27T14:34:24Z</time></trkpt>
<trkpt lat="24.048184" lon="106.534248">
<time>2015-09-27T14:34:25Z</time></trkpt>
<trkpt lat="24.048244" lon="106.534158">
<time>2015-09-27T14:34:26Z</time></trkpt>
<trkpt lat="24.048294" lon="106.534068">
<time>2015-09-27T14:34:27Z</time></trkpt>
<trkpt lat="24.048343" lon="106.533977">
<time>2015-09-27T14:34:28Z</time></trkpt>
<trkpt lat="24.048393" lon="106.533877">
<time>2015-09-27T14:34:29Z</time></trkpt>
<trkpt lat="24.048453" lon="106.533747">
<time>2015-09-27T14:34:30Z</time></trkpt>
<trkpt lat="24.048513" lon="106.533607">
<time>2015-09-27T14:34:31Z</time></trkpt>
<trkpt lat="24.048562" lon="106.533456">
<time>2015-09-27T14:34:32Z</time></trkpt>
<trkpt lat="24.048612" lon="106.533306">
<time>2015-09-27T14:34:33Z</time></trkpt>
<trkpt lat="24.048681" lon="106.533055">
<time>2015-09-27T14:34:34Z</time></trkpt>
<trkpt lat="24.0488" lon="106.532604">
<time>2015-09-27T14:34:35Z</time></trkpt>
<trkpt lat="24.049603" lon="106.529507">
<time>2015-09-27T14:34:36Z</time></trkpt>
<trkpt lat="24.04994" lon="106.528234">
<time>2015-09-27T14:34:37Z</time></trkpt>
<trkpt lat="24.050227" lon="106.527142">
<time>2015-09-27T14:34:38Z</time></trkpt>
<trkpt lat="24.050593" lon="106.525708">
<time>2015-09-27T14:34:39Z</time></trkpt>
<trkpt lat="24.050692" lon="106.525327">
<time>2015-09-27T14:34:40Z</time></trkpt>
<trkpt lat="24.050762" lon="106.525097">
<time>2015-09-27T14:34:41Z</time></trkpt>
<trkpt lat="24.050851" lon="106.524786">
<time>2015-09-27T14:34:42Z</time></trkpt>
<trkpt lat="24.05097" lon="106.524425">
<time>2015-09-27T14:34:43Z</time></trkpt>
<trkpt lat="24.051089" lon="106.524114">
<time>2015-09-27T14:34:44Z</time></trkpt>
<trkpt lat="24.051248" lon="106.523753">
<time>2015-09-27T14:34:45Z</time></trkpt>
<trkpt lat="24.051318" lon="106.523633">
<time>2015-09-27T14:34:46Z</time></trkpt>
<trkpt lat="24.051477" lon="106.523272">
<time>2015-09-27T14:34:47Z</time></trkpt>
<trkpt lat="24.051825" lon="106.52261">
<time>2015-09-27T14:34:48Z</time></trkpt>
<trkpt lat="24.052194" lon="106.521989">
<time>2015-09-27T14:34:49Z</time></trkpt>
<trkpt lat="24.052533" lon="106.521487">
<time>2015-09-27T14:34:50Z</time></trkpt>
<trkpt lat="24.052672" lon="106.521287">
<time>2015-09-27T14:34:51Z</time></trkpt>
<trkpt lat="24.052881" lon="106.521006">
<time>2015-09-27T14:34:52Z</time></trkpt>
<trkpt lat="24.053071" lon="106.520776">
<time>2015-09-27T14:34:53Z</time></trkpt>
<trkpt lat="24.05324" lon="106.520595">
<time>2015-09-27T14:34:54Z</time></trkpt>
<trkpt lat="24.05341" lon="106.520415">
<time>2015-09-27T14:34:55Z</time></trkpt>
<trkpt lat="24.05365" lon="106.520194">
<time>2015-09-27T14:34:56Z</time></trkpt>
<trkpt lat="24.055186" lon="106.51872">
<time>2015-09-27T14:34:57Z</time></trkpt>
<trkpt lat="24.056274" lon="106.517657">
<time>2015-09-27T14:34:58Z</time></trkpt>
<trkpt lat="24.058029" lon="106.515742">
<time>2015-09-27T14:34:59Z</time></trkpt>
<trkpt lat="24.058687" lon="106.515">
<time>2015-09-27T14:35:00Z</time></trkpt>
<trkpt lat="24.058797" lon="106.51486">
<time>2015-09-27T14:35:01Z</time></trkpt>
<trkpt lat="24.058866" lon="106.51477">
<time>2015-09-27T14:35:02Z</time></trkpt>
<trkpt lat="24.058926" lon="106.514669">
<time>2015-09-27T14:35:03Z</time></trkpt>
<trkpt lat="24.058976" lon="106.514559">
<time>2015-09-27T14:35:04Z</time></trkpt>
<trkpt lat="24.059026" lon="106.514429">
<time>2015-09-27T14:35:05Z</time></trkpt>
<trkpt lat="24.059055" lon="106.514298">
<time>2015-09-27T14:35:06Z</time></trkpt>
<trkpt lat="24.059085" lon="106.514108">
<time>2015-09-27T14:35:07Z</time></trkpt>
<trkpt lat="24.059143" lon="106.513596">
<time>2015-09-27T14:35:08Z</time></trkpt>
<trkpt lat="24.059202" lon="106.513085">
<time>2015-09-27T14:35:09Z</time></trkpt>
<trkpt lat="24.059347" lon="106.511431">
<time>2015-09-27T14:35:10Z</time></trkpt>
<trkpt lat="24.059406" lon="106.510909">
<time>2015-09-27T14:35:11Z</time></trkpt>
<trkpt lat="24.059445" lon="106.510689">
<time>2015-09-27T14:35:12Z</time></trkpt>
<trkpt lat="24.059445" lon="106.510679">
<time>2015-09-27T14:35:13Z</time></trkpt>
<trkpt lat="24.059484" lon="106.510518">
<time>2015-09-27T14:35:14Z</time></trkpt>
<trkpt lat="24.059534" lon="106.510348">
<time>2015-09-27T14:35:15Z</time></trkpt>
<trkpt lat="24.059603" lon="106.510157">
<time>2015-09-27T14:35:16Z</time></trkpt>
<trkpt lat="24.059703" lon="106.509947">
<time>2015-09-27T14:35:17Z</time></trkpt>
<trkpt lat="24.059822" lon="106.509736">
<time>2015-09-27T14:35:18Z</time></trkpt>
<trkpt lat="24.059932" lon="106.509575">
<time>2015-09-27T14:35:19Z</time></trkpt>
<trkpt lat="24.060081" lon="106.509405">
<time>2015-09-27T14:35:20Z</time></trkpt>
<trkpt lat="24.060221" lon="106.509255">
<time>2015-09-27T14:35:21Z</time></trkpt>
<trkpt lat="24.06049" lon="106.509004">
<time>2015-09-27T14:35:22Z</time></trkpt>
<trkpt lat="24.061049" lon="106.508523">
<time>2015-09-27T14:35:23Z</time></trkpt>
<trkpt lat="24.062197" lon="106.50752">
<time>2015-09-27T14:35:24Z</time></trkpt>
<trkpt lat="24.062306" lon="106.507409">
<time>2015-09-27T14:35:25Z</time></trkpt>
<trkpt lat="24.062386" lon="106.507329">
<time>2015-09-27T14:35:26Z</time></trkpt>
<trkpt lat="24.062456" lon="106.507249">
<time>2015-09-27T14:35:27Z</time></trkpt>
<trkpt lat="24.062516" lon="106.507159">
<time>2015-09-27T14:35:28Z</time></trkpt>
<trkpt lat="24.062585" lon="106.507038">
<time>2015-09-27T14:35:29Z</time></trkpt>
<trkpt lat="24.062625" lon="106.506958">
<time>2015-09-27T14:35:30Z</time></trkpt>
<trkpt lat="24.062675" lon="106.506848">
<time>2015-09-27T14:35:31Z</time></trkpt>
<trkpt lat="24.062774" lon="106.506547">
<time>2015-09-27T14:35:32Z</time></trkpt>
<trkpt lat="24.062893" lon="106.506186">
<time>2015-09-27T14:35:33Z</time></trkpt>
<trkpt lat="24.062943" lon="106.506066">
<time>2015-09-27T14:35:34Z</time></trkpt>
<trkpt lat="24.062983" lon="106.505975">
<time>2015-09-27T14:35:35Z</time></trkpt>
<trkpt lat="24.063042" lon="106.505885">
<time>2015-09-27T14:35:36Z</time></trkpt>
<trkpt lat="24.063112" lon="106.505785">
<time>2015-09-27T14:35:37Z</time></trkpt>
<trkpt lat="24.063192" lon="106.505695">
<time>2015-09-27T14:35:38Z</time></trkpt>
<trkpt lat="24.063282" lon="106.505614">
<time>2015-09-27T14:35:39Z</time></trkpt>
<trkpt lat="24.063381" lon="106.505534">
<time>2015-09-27T14:35:40Z</time></trkpt>
<trkpt lat="24.063471" lon="106.505464">
<time>2015-09-27T14:35:41Z</time></trkpt>
<trkpt lat="24.063581" lon="106.505404">
<time>2015-09-27T14:35:42Z</time></trkpt>
<trkpt lat="24.063861" lon="106.505253">
<time>2015-09-27T14:35:43Z</time></trkpt>
<trkpt lat="24.06407" lon="106.505143">
<time>2015-09-27T14:35:44Z</time></trkpt>
<trkpt lat="24.0642" lon="106.505053">
<time>2015-09-27T14:35:45Z</time></trkpt>
<trkpt lat="24.06432" lon="106.504972">
<time>2015-09-27T14:35:46Z</time></trkpt>
<trkpt lat="24.06442" lon="106.504902">
<time>2015-09-27T14:35:47Z</time></trkpt>
<trkpt lat="24.06452" lon="106.504822">
<time>2015-09-27T14:35:48Z</time></trkpt>
<trkpt lat="24.06462" lon="106.504732">
<time>2015-09-27T14:35:49Z</time></trkpt>
<trkpt lat="24.064689" lon="106.504642">
<time>2015-09-27T14:35:50Z</time></trkpt>
<trkpt lat="24.064779" lon="106.504531">
<time>2015-09-27T14:35:51Z</time></trkpt>
<trkpt lat="24.064869" lon="106.504391">
<time>2015-09-27T14:35:52Z</time></trkpt>
<trkpt lat="24.064958" lon="106.50423">
<time>2015-09-27T14:35:53Z</time></trkpt>
<trkpt lat="24.065038" lon="106.50405">
<time>2015-09-27T14:35:54Z</time></trkpt>
<trkpt lat="24.065117" lon="106.503879">
<time>2015-09-27T14:35:55Z</time></trkpt>
<trkpt lat="24.065664" lon="106.502696">
<time>2015-09-27T14:35:56Z</time></trkpt>
<trkpt lat="24.065733" lon="106.502536">
<time>2015-09-27T14:35:57Z</time></trkpt>
<trkpt lat="24.065863" lon="106.502215">
<time>2015-09-27T14:35:58Z</time></trkpt>
<trkpt lat="24.065942" lon="106.502014">
<time>2015-09-27T14:35:59Z</time></trkpt>
<trkpt lat="24.066011" lon="106.501824">
<time>2015-09-27T14:36:00Z</time></trkpt>
<trkpt lat="24.066021" lon="106.501773">
<time>2015-09-27T14:36:01Z</time></trkpt>
<trkpt lat="24.066111" lon="106.501503">
<time>2015-09-27T14:36:02Z</time></trkpt>
<trkpt lat="24.06618" lon="106.501282">
<time>2015-09-27T14:36:03Z</time></trkpt>
<trkpt lat="24.066289" lon="106.500881">
<time>2015-09-27T14:36:04Z</time></trkpt>
<trkpt lat="24.066378" lon="106.50054">
<time>2015-09-27T14:36:05Z</time></trkpt>
<trkpt lat="24.066506" lon="106.500018">
<time>2015-09-27T14:36:06Z</time></trkpt>
<trkpt lat="24.066724" lon="106.499086">
<time>2015-09-27T14:36:07Z</time></trkpt>
<trkpt lat="24.066901" lon="106.498293">
<time>2015-09-27T14:36:08Z</time></trkpt>
<trkpt lat="24.067059" lon="106.497612">
<time>2015-09-27T14:36:09Z</time></trkpt>
<trkpt lat="24.067178" lon="106.4971">
<time>2015-09-27T14:36:10Z</time></trkpt>
<trkpt lat="24.067257" lon="106.496749">
<time>2015-09-27T14:36:11Z</time></trkpt>
<trkpt lat="24.067336" lon="106.496398">
<time>2015-09-27T14:36:12Z</time></trkpt>
<trkpt lat="24.067395" lon="106.496167">
<time>2015-09-27T14:36:13Z</time></trkpt>
<trkpt lat="24.067445" lon="106.495997">
<time>2015-09-27T14:36:14Z</time></trkpt>
<trkpt lat="24.067514" lon="106.495786">
<time>2015-09-27T14:36:15Z</time></trkpt>
<trkpt lat="24.067752" lon="106.495265">
<time>2015-09-27T14:36:16Z</time></trkpt>
<trkpt lat="24.067931" lon="106.494894">
<time>2015-09-27T14:36:17Z</time></trkpt>
<trkpt lat="24.06826" lon="106.494332">
<time>2015-09-27T14:36:18Z</time></trkpt>
<trkpt lat="24.068558" lon="106.493801">
<time>2015-09-27T14:36:19Z</time></trkpt>
<trkpt lat="24.068688" lon="106.4936">
<time>2015-09-27T14:36:20Z</time></trkpt>
<trkpt lat="24.068758" lon="106.4935">
<time>2015-09-27T14:36:21Z</time></trkpt>
<trkpt lat="24.068817" lon="106.49343">
<time>2015-09-27T14:36:22Z</time></trkpt>
<trkpt lat="24.068887" lon="106.493359">
<time>2015-09-27T14:36:23Z</time></trkpt>
<trkpt lat="24.068947" lon="106.493299">
<time>2015-09-27T14:36:24Z</time></trkpt>
<trkpt lat="24.069017" lon="106.493249">
<time>2015-09-27T14:36:25Z</time></trkpt>
<trkpt lat="24.069077" lon="106.493189">
<time>2015-09-27T14:36:26Z</time></trkpt>
<trkpt lat="24.069177" lon="106.493129">
<time>2015-09-27T14:36:27Z</time></trkpt>
<trkpt lat="24.069326" lon="106.493038">
<time>2015-09-27T14:36:28Z</time></trkpt>
<trkpt lat="24.069456" lon="106.492968">
<time>2015-09-27T14:36:29Z</time></trkpt>
<trkpt lat="24.069766" lon="106.492808">
<time>2015-09-27T14:36:30Z</time></trkpt>
<trkpt lat="24.070066" lon="106.492667">
<time>2015-09-27T14:36:31Z</time></trkpt>
<trkpt lat="24.070335" lon="106.492537">
<time>2015-09-27T14:36:32Z</time></trkpt>
<trkpt lat="24.071384" lon="106.491995">
<time>2015-09-27T14:36:33Z</time></trkpt>
<trkpt lat="24.071654" lon="106.491855">
<time>2015-09-27T14:36:34Z</time></trkpt>
<trkpt lat="24.071824" lon="106.491765">
<time>2015-09-27T14:36:35Z</time></trkpt>
<trkpt lat="24.072093" lon="106.491574">
<time>2015-09-27T14:36:36Z</time></trkpt>
<trkpt lat="24.072313" lon="106.491394">
<time>2015-09-27T14:36:37Z</time></trkpt>
<trkpt lat="24.072462" lon="106.491253">
<time>2015-09-27T14:36:38Z</time></trkpt>
<trkpt lat="24.072602" lon="106.491093">
<time>2015-09-27T14:36:39Z</time></trkpt>
<trkpt lat="24.072791" lon="106.490872">
<time>2015-09-27T14:36:40Z</time></trkpt>
<trkpt lat="24.072901" lon="106.490742">
<time>2015-09-27T14:36:41Z</time></trkpt>
<trkpt lat="24.072971" lon="106.490662">
<time>2015-09-27T14:36:42Z</time></trkpt>
<trkpt lat="24.073051" lon="106.490601">
<time>2015-09-27T14:36:43Z</time></trkpt>
<trkpt lat="24.073121" lon="106.490541">
<time>2015-09-27T14:36:44Z</time></trkpt>
<trkpt lat="24.0732" lon="106.490491">
<time>2015-09-27T14:36:45Z</time></trkpt>
<trkpt lat="24.07329" lon="106.490451">
<time>2015-09-27T14:36:46Z</time></trkpt>
<trkpt lat="24.0735" lon="106.490351">
<time>2015-09-27T14:36:47Z</time></trkpt>
<trkpt lat="24.07379" lon="106.49022">
<time>2015-09-27T14:36:48Z</time></trkpt>
<trkpt lat="24.07392" lon="106.49015">
<time>2015-09-27T14:36:49Z</time></trkpt>
<trkpt lat="24.07403" lon="106.49008">
<time>2015-09-27T14:36:50Z</time></trkpt>
<trkpt lat="24.074129" lon="106.49002">
<time>2015-09-27T14:36:51Z</time></trkpt>
<trkpt lat="24.074239" lon="106.489939">
<time>2015-09-27T14:36:52Z</time></trkpt>
<trkpt lat="24.074319" lon="106.489869">
<time>2015-09-27T14:36:53Z</time></trkpt>
<trkpt lat="24.074389" lon="106.489799">
<time>2015-09-27T14:36:54Z</time></trkpt>
<trkpt lat="24.074489" lon="106.489699">
<time>2015-09-27T14:36:55Z</time></trkpt>
<trkpt lat="24.074987" lon="106.489037">
<time>2015-09-27T14:36:56Z</time></trkpt>
<trkpt lat="24.075286" lon="106.488666">
<time>2015-09-27T14:36:57Z</time></trkpt>
<trkpt lat="24.075475" lon="106.488445">
<time>2015-09-27T14:36:58Z</time></trkpt>
<trkpt lat="24.075605" lon="106.488295">
<time>2015-09-27T14:36:59Z</time></trkpt>
<trkpt lat="24.075844" lon="106.488044">
<time>2015-09-27T14:37:00Z</time></trkpt>
<trkpt lat="24.075924" lon="106.487964">
<time>2015-09-27T14:37:01Z</time></trkpt>
<trkpt lat="24.075984" lon="106.487904">
<time>2015-09-27T14:37:02Z</time></trkpt>
<trkpt lat="24.076094" lon="106.487803">
<time>2015-09-27T14:37:03Z</time></trkpt>
<trkpt lat="24.076293" lon="106.487653">
<time>2015-09-27T14:37:04Z</time></trkpt>
<trkpt lat="24.076613" lon="106.487402">
<time>2015-09-27T14:37:05Z</time></trkpt>
<trkpt lat="24.077271" lon="106.486891">
<time>2015-09-27T14:37:06Z</time></trkpt>
<trkpt lat="24.077501" lon="106.48671">
<time>2015-09-27T14:37:07Z</time></trkpt>
<trkpt lat="24.077661" lon="106.48657">
<time>2015-09-27T14:37:08Z</time></trkpt>
<trkpt lat="24.07781" lon="106.486429">
<time>2015-09-27T14:37:09Z</time></trkpt>
<trkpt lat="24.078" lon="106.486219">
<time>2015-09-27T14:37:10Z</time></trkpt>
<trkpt lat="24.078259" lon="106.485918">
<time>2015-09-27T14:37:11Z</time></trkpt>
<trkpt lat="24.078478" lon="106.485647">
<time>2015-09-27T14:37:12Z</time></trkpt>
<trkpt lat="24.078598" lon="106.485487">
<time>2015-09-27T14:37:13Z</time></trkpt>
<trkpt lat="24.078668" lon="106.485386">
<time>2015-09-27T14:37:14Z</time></trkpt>
<trkpt lat="24.078747" lon="106.485246">
<time>2015-09-27T14:37:15Z</time></trkpt>
<trkpt lat="24.078847" lon="106.485045">
<time>2015-09-27T14:37:16Z</time></trkpt>
<trkpt lat="24.078966" lon="106.484775">
<time>2015-09-27T14:37:17Z</time></trkpt>
<trkpt lat="24.079105" lon="106.484484">
<time>2015-09-27T14:37:18Z</time></trkpt>
<trkpt lat="24.079463" lon="106.483782">
<time>2015-09-27T14:37:19Z</time></trkpt>
<trkpt lat="24.079652" lon="106.483491">
<time>2015-09-27T14:37:20Z</time></trkpt>
<trkpt lat="24.079822" lon="106.48326">
<time>2015-09-27T14:37:21Z</time></trkpt>
<trkpt lat="24.079971" lon="106.48306">
<time>2015-09-27T14:37:22Z</time></trkpt>
<trkpt lat="24.080171" lon="106.482839">
<time>2015-09-27T14:37:23Z</time></trkpt>
<trkpt lat="24.08038" lon="106.482619">
<time>2015-09-27T14:37:24Z</time></trkpt>
<trkpt lat="24.0805" lon="106.482498">
<time>2015-09-27T14:37:25Z</time></trkpt>
<trkpt lat="24.08065" lon="106.482368">
<time>2015-09-27T14:37:26Z</time></trkpt>
<trkpt lat="24.080789" lon="106.482248">
<time>2015-09-27T14:37:27Z</time></trkpt>
<trkpt lat="24.080929" lon="106.482137">
<time>2015-09-27T14:37:28Z</time></trkpt>
<trkpt lat="24.081069" lon="106.482047">
<time>2015-09-27T14:37:29Z</time></trkpt>
<trkpt lat="24.081289" lon="106.481897">
<time>2015-09-27T14:37:30Z</time></trkpt>
<trkpt lat="24.081888" lon="106.481485">
<time>2015-09-27T14:37:31Z</time></trkpt>
<trkpt lat="24.082037" lon="106.481375">
<time>2015-09-27T14:37:32Z</time></trkpt>
<trkpt lat="24.082147" lon="106.481285">
<time>2015-09-27T14:37:33Z</time></trkpt>
<trkpt lat="24.082237" lon="106.481185">
<time>2015-09-27T14:37:34Z</time></trkpt>
<trkpt lat="24.082356" lon="106.481014">
<time>2015-09-27T14:37:35Z</time></trkpt>
<trkpt lat="24.082486" lon="106.480793">
<time>2015-09-27T14:37:36Z</time></trkpt>
<trkpt lat="24.082655" lon="106.480503">
<time>2015-09-27T14:37:37Z</time></trkpt>
<trkpt lat="24.082854" lon="106.480162">
<time>2015-09-27T14:37:38Z</time></trkpt>
<trkpt lat="24.083093" lon="106.479841">
<time>2015-09-27T14:37:39Z</time></trkpt>
<trkpt lat="24.083263" lon="106.47964">
<time>2015-09-27T14:37:40Z</time></trkpt>
<trkpt lat="24.083353" lon="106.47954">
<time>2015-09-27T14:37:41Z</time></trkpt>
<trkpt lat="24.083412" lon="106.47948">
<time>2015-09-27T14:37:42Z</time></trkpt>
<trkpt lat="24.083482" lon="106.47941">
<time>2015-09-27T14:37:43Z</time></trkpt>
<trkpt lat="24.083622" lon="106.479279">
<time>2015-09-27T14:37:44Z</time></trkpt>
<trkpt lat="24.083851" lon="106.479079">
<time>2015-09-27T14:37:45Z</time></trkpt>
<trkpt lat="24.084201" lon="106.478798">
<time>2015-09-27T14:37:46Z</time></trkpt>
<trkpt lat="24.085778" lon="106.477554">
<time>2015-09-27T14:37:47Z</time></trkpt>
<trkpt lat="24.085958" lon="106.477404">
<time>2015-09-27T14:37:48Z</time></trkpt>
<trkpt lat="24.086027" lon="106.477344">
<time>2015-09-27T14:37:49Z</time></trkpt>
<trkpt lat="24.086127" lon="106.477244">
<time>2015-09-27T14:37:50Z</time></trkpt>
<trkpt lat="24.086187" lon="106.477173">
<time>2015-09-27T14:37:51Z</time></trkpt>
<trkpt lat="24.086247" lon="106.477103">
<time>2015-09-27T14:37:52Z</time></trkpt>
<trkpt lat="24.086326" lon="106.476983">
<time>2015-09-27T14:37:53Z</time></trkpt>
<trkpt lat="24.086396" lon="106.476873">
<time>2015-09-27T14:37:54Z</time></trkpt>
<trkpt lat="24.086456" lon="106.476762">
<time>2015-09-27T14:37:55Z</time></trkpt>
<trkpt lat="24.086496" lon="106.476662">
<time>2015-09-27T14:37:56Z</time></trkpt>
<trkpt lat="24.086535" lon="106.476552">
<time>2015-09-27T14:37:57Z</time></trkpt>
<trkpt lat="24.086565" lon="106.476431">
<time>2015-09-27T14:37:58Z</time></trkpt>
<trkpt lat="24.086585" lon="106.476311">
<time>2015-09-27T14:37:59Z</time></trkpt>
<trkpt lat="24.086584" lon="106.476171">
<time>2015-09-27T14:38:00Z</time></trkpt>
<trkpt lat="24.086574" lon="106.47604">
<time>2015-09-27T14:38:01Z</time></trkpt>
<trkpt lat="24.086543" lon="106.47585">
<time>2015-09-27T14:38:02Z</time></trkpt>
<trkpt lat="24.086442" lon="106.475389">
<time>2015-09-27T14:38:03Z</time></trkpt>
<trkpt lat="24.086412" lon="106.475228">
<time>2015-09-27T14:38:04Z</time></trkpt>
<trkpt lat="24.086371" lon="106.475088">
<time>2015-09-27T14:38:05Z</time></trkpt>
<trkpt lat="24.086361" lon="106.474937">
<time>2015-09-27T14:38:06Z</time></trkpt>
<trkpt lat="24.08635" lon="106.474777">
<time>2015-09-27T14:38:07Z</time></trkpt>
<trkpt lat="24.08636" lon="106.474627">
<time>2015-09-27T14:38:08Z</time></trkpt>
<trkpt lat="24.086389" lon="106.474476">
<time>2015-09-27T14:38:09Z</time></trkpt>
<trkpt lat="24.086429" lon="106.474336">
<time>2015-09-27T14:38:10Z</time></trkpt>
<trkpt lat="24.086479" lon="106.474205">
<time>2015-09-27T14:38:11Z</time></trkpt>
<trkpt lat="24.086548" lon="106.474085">
<time>2015-09-27T14:38:12Z</time></trkpt>
<trkpt lat="24.086638" lon="106.473945">
<time>2015-09-27T14:38:13Z</time></trkpt>
<trkpt lat="24.086957" lon="106.473484">
<time>2015-09-27T14:38:14Z</time></trkpt>
<trkpt lat="24.087306" lon="106.473012">
<time>2015-09-27T14:38:15Z</time></trkpt>
<trkpt lat="24.087495" lon="106.472701">
<time>2015-09-27T14:38:16Z</time></trkpt>
<trkpt lat="24.087664" lon="106.472411">
<time>2015-09-27T14:38:17Z</time></trkpt>
<trkpt lat="24.087863" lon="106.47201">
<time>2015-09-27T14:38:18Z</time></trkpt>
<trkpt lat="24.088351" lon="106.471117">
<time>2015-09-27T14:38:19Z</time></trkpt>
<trkpt lat="24.08854" lon="106.470776">
<time>2015-09-27T14:38:20Z</time></trkpt>
<trkpt lat="24.088909" lon="106.470215">
<time>2015-09-27T14:38:21Z</time></trkpt>
<trkpt lat="24.089546" lon="106.469303">
<time>2015-09-27T14:38:22Z</time></trkpt>
<trkpt lat="24.090184" lon="106.46841">
<time>2015-09-27T14:38:23Z</time></trkpt>
<trkpt lat="24.090314" lon="106.46821">
<time>2015-09-27T14:38:24Z</time></trkpt>
<trkpt lat="24.090513" lon="106.467939">
<time>2015-09-27T14:38:25Z</time></trkpt>
<trkpt lat="24.090653" lon="106.467769">
<time>2015-09-27T14:38:26Z</time></trkpt>
<trkpt lat="24.090793" lon="106.467638">
<time>2015-09-27T14:38:27Z</time></trkpt>
<trkpt lat="24.090922" lon="106.467528">
<time>2015-09-27T14:38:28Z</time></trkpt>
<trkpt lat="24.091062" lon="106.467428">
<time>2015-09-27T14:38:29Z</time></trkpt>
<trkpt lat="24.091402" lon="106.467187">
<time>2015-09-27T14:38:30Z</time></trkpt>
<trkpt lat="24.091921" lon="106.466846">
<time>2015-09-27T14:38:31Z</time></trkpt>
<trkpt lat="24.09229" lon="106.466556">
<time>2015-09-27T14:38:32Z</time></trkpt>
<trkpt lat="24.09251" lon="106.466385">
<time>2015-09-27T14:38:33Z</time></trkpt>
<trkpt lat="24.0926" lon="106.466305">
<time>2015-09-27T14:38:34Z</time></trkpt>
<trkpt lat="24.092999" lon="106.465974">
<time>2015-09-27T14:38:35Z</time></trkpt>
<trkpt lat="24.093189" lon="106.465814">
<time>2015-09-27T14:38:36Z</time></trkpt>
<trkpt lat="24.093279" lon="106.465733">
<time>2015-09-27T14:38:37Z</time></trkpt>
<trkpt lat="24.093408" lon="106.465603">
<time>2015-09-27T14:38:38Z</time></trkpt>
<trkpt lat="24.093518" lon="106.465473">
<time>2015-09-27T14:38:39Z</time></trkpt>
<trkpt lat="24.093598" lon="106.465363">
<time>2015-09-27T14:38:40Z</time></trkpt>
<trkpt lat="24.093717" lon="106.465182">
<time>2015-09-27T14:38:41Z</time></trkpt>
<trkpt lat="24.093956" lon="106.464781">
<time>2015-09-27T14:38:42Z</time></trkpt>
<trkpt lat="24.094345" lon="106.464129">
<time>2015-09-27T14:38:43Z</time></trkpt>
<trkpt lat="24.094464" lon="106.463919">
<time>2015-09-27T14:38:44Z</time></trkpt>
<trkpt lat="24.094524" lon="106.463789">
<time>2015-09-27T14:38:45Z</time></trkpt>
<trkpt lat="24.094574" lon="106.463678">
<time>2015-09-27T14:38:46Z</time></trkpt>
<trkpt lat="24.094623" lon="106.463558">
<time>2015-09-27T14:38:47Z</time></trkpt>
<trkpt lat="24.094653" lon="106.463448">
<time>2015-09-27T14:38:48Z</time></trkpt>
<trkpt lat="24.094693" lon="106.463328">
<time>2015-09-27T14:38:49Z</time></trkpt>
<trkpt lat="24.09496" lon="106.462255">
<time>2015-09-27T14:38:50Z</time></trkpt>
<trkpt lat="24.09504" lon="106.461944">
<time>2015-09-27T14:38:51Z</time></trkpt>
<trkpt lat="24.095099" lon="106.461784">
<time>2015-09-27T14:38:52Z</time></trkpt>
<trkpt lat="24.095149" lon="106.461664">
<time>2015-09-27T14:38:53Z</time></trkpt>
<trkpt lat="24.095208" lon="106.461513">
<time>2015-09-27T14:38:54Z</time></trkpt>
<trkpt lat="24.095268" lon="106.461393">
<time>2015-09-27T14:38:55Z</time></trkpt>
<trkpt lat="24.095358" lon="106.461243">
<time>2015-09-27T14:38:56Z</time></trkpt>
<trkpt lat="24.095448" lon="106.461112">
<time>2015-09-27T14:38:57Z</time></trkpt>
<trkpt lat="24.095547" lon="106.460982">
<time>2015-09-27T14:38:58Z</time></trkpt>
<trkpt lat="24.095797" lon="106.460661">
<time>2015-09-27T14:38:59Z</time></trkpt>
<trkpt lat="24.095916" lon="106.460521">
<time>2015-09-27T14:39:00Z</time></trkpt>
<trkpt lat="24.096006" lon="106.460391">
<time>2015-09-27T14:39:01Z</time></trkpt>
<trkpt lat="24.096076" lon="106.4603">
<time>2015-09-27T14:39:02Z</time></trkpt>
<trkpt lat="24.096156" lon="106.46016">
<time>2015-09-27T14:39:03Z</time></trkpt>
<trkpt lat="24.096225" lon="106.46003">
<time>2015-09-27T14:39:04Z</time></trkpt>
<trkpt lat="24.096335" lon="106.459779">
<time>2015-09-27T14:39:05Z</time></trkpt>
<trkpt lat="24.096424" lon="106.459579">
<time>2015-09-27T14:39:06Z</time></trkpt>
<trkpt lat="24.097459" lon="106.457223">
<time>2015-09-27T14:39:07Z</time></trkpt>
<trkpt lat="24.097658" lon="106.456913">
<time>2015-09-27T14:39:08Z</time></trkpt>
<trkpt lat="24.097868" lon="106.456712">
<time>2015-09-27T14:39:09Z</time></trkpt>
<trkpt lat="24.098088" lon="106.456572">
<time>2015-09-27T14:39:10Z</time></trkpt>
<trkpt lat="24.098438" lon="106.456492">
<time>2015-09-27T14:39:11Z</time></trkpt>
<trkpt lat="24.098678" lon="106.456502">
<time>2015-09-27T14:39:12Z</time></trkpt>
<trkpt lat="24.098818" lon="106.456532">
<time>2015-09-27T14:39:13Z</time></trkpt>
<trkpt lat="24.099529" lon="106.456732">
<time>2015-09-27T14:39:14Z</time></trkpt>
<trkpt lat="24.099709" lon="106.456732">
<time>2015-09-27T14:39:15Z</time></trkpt>
<trkpt lat="24.099869" lon="106.456702">
<time>2015-09-27T14:39:16Z</time></trkpt>
<trkpt lat="24.100049" lon="106.456662">
<time>2015-09-27T14:39:17Z</time></trkpt>
<trkpt lat="24.100229" lon="106.456572">
<time>2015-09-27T14:39:18Z</time></trkpt>
<trkpt lat="24.100398" lon="106.456461">
<time>2015-09-27T14:39:19Z</time></trkpt>
<trkpt lat="24.100618" lon="106.456211">
<time>2015-09-27T14:39:20Z</time></trkpt>
<trkpt lat="24.100907" lon="106.45567">
<time>2015-09-27T14:39:21Z</time></trkpt>
<trkpt lat="24.101325" lon="106.454698">
<time>2015-09-27T14:39:22Z</time></trkpt>
<trkpt lat="24.101484" lon="106.454277">
<time>2015-09-27T14:39:23Z</time></trkpt>
<trkpt lat="24.101792" lon="106.453405">
<time>2015-09-27T14:39:24Z</time></trkpt>
<trkpt lat="24.101971" lon="106.453074">
<time>2015-09-27T14:39:25Z</time></trkpt>
<trkpt lat="24.102211" lon="106.452763">
<time>2015-09-27T14:39:26Z</time></trkpt>
<trkpt lat="24.10255" lon="106.452473">
<time>2015-09-27T14:39:27Z</time></trkpt>
<trkpt lat="24.103438" lon="106.451611">
<time>2015-09-27T14:39:28Z</time></trkpt>
<trkpt lat="24.104017" lon="106.450769">
<time>2015-09-27T14:39:29Z</time></trkpt>
<trkpt lat="24.107129" lon="106.446301">
<time>2015-09-27T14:39:30Z</time></trkpt>
<trkpt lat="24.107887" lon="106.445369">
<time>2015-09-27T14:39:31Z</time></trkpt>
<trkpt lat="24.108127" lon="106.445128">
<time>2015-09-27T14:39:32Z</time></trkpt>
<trkpt lat="24.108826" lon="106.444447">
<time>2015-09-27T14:39:33Z</time></trkpt>
<trkpt lat="24.109075" lon="106.444187">
<time>2015-09-27T14:39:34Z</time></trkpt>
<trkpt lat="24.109135" lon="106.444107">
<time>2015-09-27T14:39:35Z</time></trkpt>
<trkpt lat="24.109445" lon="106.443686">
<time>2015-09-27T14:39:36Z</time></trkpt>
<trkpt lat="24.111041" lon="106.441262">
<time>2015-09-27T14:39:37Z</time></trkpt>
<trkpt lat="24.11112" lon="106.441171">
<time>2015-09-27T14:39:38Z</time></trkpt>
<trkpt lat="24.1112" lon="106.441081">
<time>2015-09-27T14:39:39Z</time></trkpt>
<trkpt lat="24.11127" lon="106.440971">
<time>2015-09-27T14:39:40Z</time></trkpt>
<trkpt lat="24.11134" lon="106.440871">
<time>2015-09-27T14:39:41Z</time></trkpt>
<trkpt lat="24.11141" lon="106.440751">
<time>2015-09-27T14:39:42Z</time></trkpt>
<trkpt lat="24.11146" lon="106.440641">
<time>2015-09-27T14:39:43Z</time></trkpt>
<trkpt lat="24.111509" lon="106.44051">
<time>2015-09-27T14:39:44Z</time></trkpt>
<trkpt lat="24.111559" lon="106.44038">
<time>2015-09-27T14:39:45Z</time></trkpt>
<trkpt lat="24.111679" lon="106.43999">
<time>2015-09-27T14:39:46Z</time></trkpt>
<trkpt lat="24.112017" lon="106.438828">
<time>2015-09-27T14:39:47Z</time></trkpt>
<trkpt lat="24.112235" lon="106.438087">
<time>2015-09-27T14:39:48Z</time></trkpt>
<trkpt lat="24.112305" lon="106.437846">
<time>2015-09-27T14:39:49Z</time></trkpt>
<trkpt lat="24.112345" lon="106.437646">
<time>2015-09-27T14:39:50Z</time></trkpt>
<trkpt lat="24.112434" lon="106.437145">
<time>2015-09-27T14:39:51Z</time></trkpt>
<trkpt lat="24.112444" lon="106.436995">
<time>2015-09-27T14:39:52Z</time></trkpt>
<trkpt lat="24.112453" lon="106.436775">
<time>2015-09-27T14:39:53Z</time></trkpt>
<trkpt lat="24.112453" lon="106.436484">
<time>2015-09-27T14:39:54Z</time></trkpt>
<trkpt lat="24.112482" lon="106.436054">
<time>2015-09-27T14:39:55Z</time></trkpt>
<trkpt lat="24.112522" lon="106.435713">
<time>2015-09-27T14:39:56Z</time></trkpt>
<trkpt lat="24.112611" lon="106.435343">
<time>2015-09-27T14:39:57Z</time></trkpt>
<trkpt lat="24.11273" lon="106.435012">
<time>2015-09-27T14:39:58Z</time></trkpt>
<trkpt lat="24.11283" lon="106.434842">
<time>2015-09-27T14:39:59Z</time></trkpt>
<trkpt lat="24.11298" lon="106.434712">
<time>2015-09-27T14:40:00Z</time></trkpt>
<trkpt lat="24.11327" lon="106.434561">
<time>2015-09-27T14:40:01Z</time></trkpt>
<trkpt lat="24.11371" lon="106.434491">
<time>2015-09-27T14:40:02Z</time></trkpt>
<trkpt lat="24.1142" lon="106.434521">
<time>2015-09-27T14:40:03Z</time></trkpt>
<trkpt lat="24.11431" lon="106.434521">
<time>2015-09-27T14:40:04Z</time></trkpt>
<trkpt lat="24.11442" lon="106.434511">
<time>2015-09-27T14:40:05Z</time></trkpt>
<trkpt lat="24.1145" lon="106.434491">
<time>2015-09-27T14:40:06Z</time></trkpt>
<trkpt lat="24.11458" lon="106.434461">
<time>2015-09-27T14:40:07Z</time></trkpt>
<trkpt lat="24.11466" lon="106.434431">
<time>2015-09-27T14:40:08Z</time></trkpt>
<trkpt lat="24.11472" lon="106.434391">
<time>2015-09-27T14:40:09Z</time></trkpt>
<trkpt lat="24.11479" lon="106.434351">
<time>2015-09-27T14:40:10Z</time></trkpt>
<trkpt lat="24.11487" lon="106.434291">
<time>2015-09-27T14:40:11Z</time></trkpt>
<trkpt lat="24.11496" lon="106.434211">
<time>2015-09-27T14:40:12Z</time></trkpt>
<trkpt lat="24.11507" lon="106.434101">
<time>2015-09-27T14:40:13Z</time></trkpt>
<trkpt lat="24.11523" lon="106.433921">
<time>2015-09-27T14:40:14Z</time></trkpt>
<trkpt lat="24.1154" lon="106.4337">
<time>2015-09-27T14:40:15Z</time></trkpt>
<trkpt lat="24.117137" lon="106.431397">
<time>2015-09-27T14:40:16Z</time></trkpt>
<trkpt lat="24.117496" lon="106.430937">
<time>2015-09-27T14:40:17Z</time></trkpt>
<trkpt lat="24.117656" lon="106.430736">
<time>2015-09-27T14:40:18Z</time></trkpt>
<trkpt lat="24.117806" lon="106.430566">
<time>2015-09-27T14:40:19Z</time></trkpt>
<trkpt lat="24.118016" lon="106.430346">
<time>2015-09-27T14:40:20Z</time></trkpt>
<trkpt lat="24.118166" lon="106.430206">
<time>2015-09-27T14:40:21Z</time></trkpt>
<trkpt lat="24.118515" lon="106.429915">
<time>2015-09-27T14:40:22Z</time></trkpt>
<trkpt lat="24.118805" lon="106.429655">
<time>2015-09-27T14:40:23Z</time></trkpt>
<trkpt lat="24.119045" lon="106.429445">
<time>2015-09-27T14:40:24Z</time></trkpt>
<trkpt lat="24.119135" lon="106.429345">
<time>2015-09-27T14:40:25Z</time></trkpt>
<trkpt lat="24.119235" lon="106.429225">
<time>2015-09-27T14:40:26Z</time></trkpt>
<trkpt lat="24.119344" lon="106.429084">
<time>2015-09-27T14:40:27Z</time></trkpt>
<trkpt lat="24.119414" lon="106.428944">
<time>2015-09-27T14:40:28Z</time></trkpt>
<trkpt lat="24.119524" lon="106.428724">
<time>2015-09-27T14:40:29Z</time></trkpt>
<trkpt lat="24.120093" lon="106.427453">
<time>2015-09-27T14:40:30Z</time></trkpt>
<trkpt lat="24.120202" lon="106.427222">
<time>2015-09-27T14:40:31Z</time></trkpt>
<trkpt lat="24.120302" lon="106.427042">
<time>2015-09-27T14:40:32Z</time></trkpt>
<trkpt lat="24.120402" lon="106.426862">
<time>2015-09-27T14:40:33Z</time></trkpt>
<trkpt lat="24.120532" lon="106.426662">
<time>2015-09-27T14:40:34Z</time></trkpt>
<trkpt lat="24.120682" lon="106.426432">
<time>2015-09-27T14:40:35Z</time></trkpt>
<trkpt lat="24.120801" lon="106.426261">
<time>2015-09-27T14:40:36Z</time></trkpt>
<trkpt lat="24.120901" lon="106.426141">
<time>2015-09-27T14:40:37Z</time></trkpt>
<trkpt lat="24.121001" lon="106.426011">
<time>2015-09-27T14:40:38Z</time></trkpt>
<trkpt lat="24.121091" lon="106.425901">
<time>2015-09-27T14:40:39Z</time></trkpt>
<trkpt lat="24.121581" lon="106.425401">
<time>2015-09-27T14:40:40Z</time></trkpt>
<trkpt lat="24.121671" lon="106.4253">
<time>2015-09-27T14:40:41Z</time></trkpt>
<trkpt lat="24.121741" lon="106.42522">
<time>2015-09-27T14:40:42Z</time></trkpt>
<trkpt lat="24.12181" lon="106.42512">
<time>2015-09-27T14:40:43Z</time></trkpt>
<trkpt lat="24.12187" lon="106.42502">
<time>2015-09-27T14:40:44Z</time></trkpt>
<trkpt lat="24.12192" lon="106.42493">
<time>2015-09-27T14:40:45Z</time></trkpt>
<trkpt lat="24.12197" lon="106.42482">
<time>2015-09-27T14:40:46Z</time></trkpt>
<trkpt lat="24.12205" lon="106.42462">
<time>2015-09-27T14:40:47Z</time></trkpt>
<trkpt lat="24.12218" lon="106.424279">
<time>2015-09-27T14:40:48Z</time></trkpt>
<trkpt lat="24.122269" lon="106.424059">
<time>2015-09-27T14:40:49Z</time></trkpt>
<trkpt lat="24.122369" lon="106.423849">
<time>2015-09-27T14:40:50Z</time></trkpt>
<trkpt lat="24.122469" lon="106.423679">
<time>2015-09-27T14:40:51Z</time></trkpt>
<trkpt lat="24.122579" lon="106.423529">
<time>2015-09-27T14:40:52Z</time></trkpt>
<trkpt lat="24.122699" lon="106.423389">
<time>2015-09-27T14:40:53Z</time></trkpt>
<trkpt lat="24.122909" lon="106.423158">
<time>2015-09-27T14:40:54Z</time></trkpt>
<trkpt lat="24.123508" lon="106.422528">
<time>2015-09-27T14:40:55Z</time></trkpt>
<trkpt lat="24.123778" lon="106.422218">
<time>2015-09-27T14:40:56Z</time></trkpt>
<trkpt lat="24.124068" lon="106.421907">
<time>2015-09-27T14:40:57Z</time></trkpt>
<trkpt lat="24.124507" lon="106.421387">
<time>2015-09-27T14:40:58Z</time></trkpt>
<trkpt lat="24.125177" lon="106.420556">
<time>2015-09-27T14:40:59Z</time></trkpt>
<trkpt lat="24.125806" lon="106.419746">
<time>2015-09-27T14:41:00Z</time></trkpt>
<trkpt lat="24.127195" lon="106.418015">
<time>2015-09-27T14:41:01Z</time></trkpt>
<trkpt lat="24.128914" lon="106.415853">
<time>2015-09-27T14:41:02Z</time></trkpt>
<trkpt lat="24.130833" lon="106.413422">
<time>2015-09-27T14:41:03Z</time></trkpt>
<trkpt lat="24.131383" lon="106.412742">
<time>2015-09-27T14:41:04Z</time></trkpt>
<trkpt lat="24.131753" lon="106.412262">
<time>2015-09-27T14:41:05Z</time></trkpt>
<trkpt lat="24.131913" lon="106.412042">
<time>2015-09-27T14:41:06Z</time></trkpt>
<trkpt lat="24.132063" lon="106.411842">
<time>2015-09-27T14:41:07Z</time></trkpt>
<trkpt lat="24.132183" lon="106.411662">
<time>2015-09-27T14:41:08Z</time></trkpt>
<trkpt lat="24.132313" lon="106.411471">
<time>2015-09-27T14:41:09Z</time></trkpt>
<trkpt lat="24.132423" lon="106.411291">
<time>2015-09-27T14:41:10Z</time></trkpt>
<trkpt lat="24.132543" lon="106.411091">
<time>2015-09-27T14:41:11Z</time></trkpt>
<trkpt lat="24.132673" lon="106.410841">
<time>2015-09-27T14:41:12Z</time></trkpt>
<trkpt lat="24.132773" lon="106.410661">
<time>2015-09-27T14:41:13Z</time></trkpt>
<trkpt lat="24.133552" lon="106.408961">
<time>2015-09-27T14:41:14Z</time></trkpt>
<trkpt lat="24.133782" lon="106.408461">
<time>2015-09-27T14:41:15Z</time></trkpt>
<trkpt lat="24.133972" lon="106.408001">
<time>2015-09-27T14:41:16Z</time></trkpt>
<trkpt lat="24.134202" lon="106.407481">
<time>2015-09-27T14:41:17Z</time></trkpt>
<trkpt lat="24.134342" lon="106.407201">
<time>2015-09-27T14:41:18Z</time></trkpt>
<trkpt lat="24.134372" lon="106.407151">
<time>2015-09-27T14:41:19Z</time></trkpt>
<trkpt lat="24.134442" lon="106.407021">
<time>2015-09-27T14:41:20Z</time></trkpt>
<trkpt lat="24.134522" lon="106.406891">
<time>2015-09-27T14:41:21Z</time></trkpt>
<trkpt lat="24.134602" lon="106.406801">
<time>2015-09-27T14:41:22Z</time></trkpt>
<trkpt lat="24.134672" lon="106.406721">
<time>2015-09-27T14:41:23Z</time></trkpt>
<trkpt lat="24.134732" lon="106.406661">
<time>2015-09-27T14:41:24Z</time></trkpt>
<trkpt lat="24.134802" lon="106.406611">
<time>2015-09-27T14:41:25Z</time></trkpt>
<trkpt lat="24.134822" lon="106.406591">
<time>2015-09-27T14:41:26Z</time></trkpt>
<trkpt lat="24.134892" lon="106.406551">
<time>2015-09-27T14:41:27Z</time></trkpt>
<trkpt lat="24.134982" lon="106.406511">
<time>2015-09-27T14:41:28Z</time></trkpt>
<trkpt lat="24.135052" lon="106.406481">
<time>2015-09-27T14:41:29Z</time></trkpt>
<trkpt lat="24.135102" lon="106.406461">
<time>2015-09-27T14:41:30Z</time></trkpt>
<trkpt lat="24.135142" lon="106.406451">
<time>2015-09-27T14:41:31Z</time></trkpt>
<trkpt lat="24.135192" lon="106.406441">
<time>2015-09-27T14:41:32Z</time></trkpt>
<trkpt lat="24.135222" lon="106.406431">
<time>2015-09-27T14:41:33Z</time></trkpt>
<trkpt lat="24.135252" lon="106.406421">
<time>2015-09-27T14:41:34Z</time></trkpt>
<trkpt lat="24.135312" lon="106.406421">
<time>2015-09-27T14:41:35Z</time></trkpt>
<trkpt lat="24.135382" lon="106.406411">
<time>2015-09-27T14:41:36Z</time></trkpt>
<trkpt lat="24.135432" lon="106.406411">
<time>2015-09-27T14:41:37Z</time></trkpt>
<trkpt lat="24.135512" lon="106.406421">
<time>2015-09-27T14:41:38Z</time></trkpt>
<trkpt lat="24.135622" lon="106.40644">
<time>2015-09-27T14:41:39Z</time></trkpt>
<trkpt lat="24.135742" lon="106.40647">
<time>2015-09-27T14:41:40Z</time></trkpt>
<trkpt lat="24.135902" lon="106.40653">
<time>2015-09-27T14:41:41Z</time></trkpt>
<trkpt lat="24.136082" lon="106.4066">
<time>2015-09-27T14:41:42Z</time></trkpt>
<trkpt lat="24.136312" lon="106.40672">
<time>2015-09-27T14:41:43Z</time></trkpt>
<trkpt lat="24.136492" lon="106.40681">
<time>2015-09-27T14:41:44Z</time></trkpt>
<trkpt lat="24.136733" lon="106.40691">
<time>2015-09-27T14:41:45Z</time></trkpt>
<trkpt lat="24.136933" lon="106.40699">
<time>2015-09-27T14:41:46Z</time></trkpt>
<trkpt lat="24.137073" lon="106.40703">
<time>2015-09-27T14:41:47Z</time></trkpt>
<trkpt lat="24.137163" lon="106.40705">
<time>2015-09-27T14:41:48Z</time></trkpt>
<trkpt lat="24.137253" lon="106.40707">
<time>2015-09-27T14:41:49Z</time></trkpt>
<trkpt lat="24.137353" lon="106.40708">
<time>2015-09-27T14:41:50Z</time></trkpt>
<trkpt lat="24.137493" lon="106.40709">
<time>2015-09-27T14:41:51Z</time></trkpt>
<trkpt lat="24.137693" lon="106.40709">
<time>2015-09-27T14:41:52Z</time></trkpt>
<trkpt lat="24.137753" lon="106.40709">
<time>2015-09-27T14:41:53Z</time></trkpt>
<trkpt lat="24.137793" lon="106.40709">
<time>2015-09-27T14:41:54Z</time></trkpt>
<trkpt lat="24.137873" lon="106.40708">
<time>2015-09-27T14:41:55Z</time></trkpt>
<trkpt lat="24.137943" lon="106.40707">
<time>2015-09-27T14:41:56Z</time></trkpt>
<trkpt lat="24.138033" lon="106.40705">
<time>2015-09-27T14:41:57Z</time></trkpt>
<trkpt lat="24.138173" lon="106.40702">
<time>2015-09-27T14:41:58Z</time></trkpt>
<trkpt lat="24.138383" lon="106.40694">
<time>2015-09-27T14:41:59Z</time></trkpt>
<trkpt lat="24.138573" lon="106.40686">
<time>2015-09-27T14:42:00Z</time></trkpt>
<trkpt lat="24.138763" lon="106.40676">
<time>2015-09-27T14:42:01Z</time></trkpt>
<trkpt lat="24.139103" lon="106.40656">
<time>2015-09-27T14:42:02Z</time></trkpt>
<trkpt lat="24.139363" lon="106.4064">
<time>2015-09-27T14:42:03Z</time></trkpt>
<trkpt lat="24.139513" lon="106.40629">
<time>2015-09-27T14:42:04Z</time></trkpt>
<trkpt lat="24.139673" lon="106.40617">
<time>2015-09-27T14:42:05Z</time></trkpt>
<trkpt lat="24.139773" lon="106.40607">
<time>2015-09-27T14:42:06Z</time></trkpt>
<trkpt lat="24.139883" lon="106.40595">
<time>2015-09-27T14:42:07Z</time></trkpt>
<trkpt lat="24.140013" lon="106.4058">
<time>2015-09-27T14:42:08Z</time></trkpt>
<trkpt lat="24.140093" lon="106.40569">
<time>2015-09-27T14:42:09Z</time></trkpt>
<trkpt lat="24.140163" lon="106.40557">
<time>2015-09-27T14:42:10Z</time></trkpt>
<trkpt lat="24.140223" lon="106.40547">
<time>2015-09-27T14:42:11Z</time></trkpt>
<trkpt lat="24.140273" lon="106.40537">
<time>2015-09-27T14:42:12Z</time></trkpt>
<trkpt lat="24.140333" lon="106.40525">
<time>2015-09-27T14:42:13Z</time></trkpt>
<trkpt lat="24.140383" lon="106.40513">
<time>2015-09-27T14:42:14Z</time></trkpt>
<trkpt lat="24.140433" lon="106.40497">
<time>2015-09-27T14:42:15Z</time></trkpt>
<trkpt lat="24.140473" lon="106.4048">
<time>2015-09-27T14:42:16Z</time></trkpt>
<trkpt lat="24.140523" lon="106.40454">
<time>2015-09-27T14:42:17Z</time></trkpt>
<trkpt lat="24.140583" lon="106.40407">
<time>2015-09-27T14:42:18Z</time></trkpt>
<trkpt lat="24.140613" lon="106.40388">
<time>2015-09-27T14:42:19Z</time></trkpt>
<trkpt lat="24.140643" lon="106.40374">
<time>2015-09-27T14:42:20Z</time></trkpt>
<trkpt lat="24.140673" lon="106.40361">
<time>2015-09-27T14:42:21Z</time></trkpt>
<trkpt lat="24.140703" lon="106.40352">
<time>2015-09-27T14:42:22Z</time></trkpt>
<trkpt lat="24.140743" lon="106.40341">
<time>2015-09-27T14:42:23Z</time></trkpt>
<trkpt lat="24.140793" lon="106.40333">
<time>2015-09-27T14:42:24Z</time></trkpt>
<trkpt lat="24.140843" lon="106.40324">
<time>2015-09-27T14:42:25Z</time></trkpt>
<trkpt lat="24.140903" lon="106.40314">
<time>2015-09-27T14:42:26Z</time></trkpt>
<trkpt lat="24.140973" lon="106.40306">
<time>2015-09-27T14:42:27Z</time></trkpt>
<trkpt lat="24.141033" lon="106.40297">
<time>2015-09-27T14:42:28Z</time></trkpt>
<trkpt lat="24.141123" lon="106.40288">
<time>2015-09-27T14:42:29Z</time></trkpt>
<trkpt lat="24.141233" lon="106.40277">
<time>2015-09-27T14:42:30Z</time></trkpt>
<trkpt lat="24.141863" lon="106.40219">
<time>2015-09-27T14:42:31Z</time></trkpt>
<trkpt lat="24.142874" lon="106.401251">
<time>2015-09-27T14:42:32Z</time></trkpt>
<trkpt lat="24.143854" lon="106.400301">
<time>2015-09-27T14:42:33Z</time></trkpt>
<trkpt lat="24.144044" lon="106.400101">
<time>2015-09-27T14:42:34Z</time></trkpt>
<trkpt lat="24.144164" lon="106.399971">
<time>2015-09-27T14:42:35Z</time></trkpt>
<trkpt lat="24.144254" lon="106.399861">
<time>2015-09-27T14:42:36Z</time></trkpt>
<trkpt lat="24.144404" lon="106.399681">
<time>2015-09-27T14:42:37Z</time></trkpt>
<trkpt lat="24.144554" lon="106.399481">
<time>2015-09-27T14:42:38Z</time></trkpt>
<trkpt lat="24.144674" lon="106.399301">
<time>2015-09-27T14:42:39Z</time></trkpt>
<trkpt lat="24.144824" lon="106.399081">
<time>2015-09-27T14:42:40Z</time></trkpt>
<trkpt lat="24.145034" lon="106.398731">
<time>2015-09-27T14:42:41Z</time></trkpt>
<trkpt lat="24.145375" lon="106.398161">
<time>2015-09-27T14:42:42Z</time></trkpt>
<trkpt lat="24.145805" lon="106.397462">
<time>2015-09-27T14:42:43Z</time></trkpt>
<trkpt lat="24.145955" lon="106.397212">
<time>2015-09-27T14:42:44Z</time></trkpt>
<trkpt lat="24.146085" lon="106.396972">
<time>2015-09-27T14:42:45Z</time></trkpt>
<trkpt lat="24.146195" lon="106.396752">
<time>2015-09-27T14:42:46Z</time></trkpt>
<trkpt lat="24.146285" lon="106.396532">
<time>2015-09-27T14:42:47Z</time></trkpt>
<trkpt lat="24.146385" lon="106.396292">
<time>2015-09-27T14:42:48Z</time></trkpt>
<trkpt lat="24.146495" lon="106.395982">
<time>2015-09-27T14:42:49Z</time></trkpt>
<trkpt lat="24.146615" lon="106.395592">
<time>2015-09-27T14:42:50Z</time></trkpt>
<trkpt lat="24.146895" lon="106.394783">
<time>2015-09-27T14:42:51Z</time></trkpt>
<trkpt lat="24.147106" lon="106.394173">
<time>2015-09-27T14:42:52Z</time></trkpt>
<trkpt lat="24.147326" lon="106.393493">
<time>2015-09-27T14:42:53Z</time></trkpt>
<trkpt lat="24.147366" lon="106.393373">
<time>2015-09-27T14:42:54Z</time></trkpt>
<trkpt lat="24.147486" lon="106.393034">
<time>2015-09-27T14:42:55Z</time></trkpt>
<trkpt lat="24.147626" lon="106.392704">
<time>2015-09-27T14:42:56Z</time></trkpt>
<trkpt lat="24.147907" lon="106.392064">
<time>2015-09-27T14:42:57Z</time></trkpt>
<trkpt lat="24.148077" lon="106.391704">
<time>2015-09-27T14:42:58Z</time></trkpt>
<trkpt lat="24.148207" lon="106.391445">
<time>2015-09-27T14:42:59Z</time></trkpt>
<trkpt lat="24.148507" lon="106.390885">
<time>2015-09-27T14:43:00Z</time></trkpt>
<trkpt lat="24.148577" lon="106.390765">
<time>2015-09-27T14:43:01Z</time></trkpt>
<trkpt lat="24.148637" lon="106.390615">
<time>2015-09-27T14:43:02Z</time></trkpt>
<trkpt lat="24.148687" lon="106.390475">
<time>2015-09-27T14:43:03Z</time></trkpt>
<trkpt lat="24.148727" lon="106.390375">
<time>2015-09-27T14:43:04Z</time></trkpt>
<trkpt lat="24.148747" lon="106.390275">
<time>2015-09-27T14:43:05Z</time></trkpt>
<trkpt lat="24.148777" lon="106.390176">
<time>2015-09-27T14:43:06Z</time></trkpt>
<trkpt lat="24.148798" lon="106.390016">
<time>2015-09-27T14:43:07Z</time></trkpt>
<trkpt lat="24.148808" lon="106.389756">
<time>2015-09-27T14:43:08Z</time></trkpt>
<trkpt lat="24.148838" lon="106.389376">
<time>2015-09-27T14:43:09Z</time></trkpt>
<trkpt lat="24.148868" lon="106.389126">
<time>2015-09-27T14:43:10Z</time></trkpt>
<trkpt lat="24.148928" lon="106.388876">
<time>2015-09-27T14:43:11Z</time></trkpt>
<trkpt lat="24.148988" lon="106.388667">
<time>2015-09-27T14:43:12Z</time></trkpt>
<trkpt lat="24.149058" lon="106.388487">
<time>2015-09-27T14:43:13Z</time></trkpt>
<trkpt lat="24.149148" lon="106.388287">
<time>2015-09-27T14:43:14Z</time></trkpt>
<trkpt lat="24.149289" lon="106.388037">
<time>2015-09-27T14:43:15Z</time></trkpt>
<trkpt lat="24.149769" lon="106.387208">
<time>2015-09-27T14:43:16Z</time></trkpt>
<trkpt lat="24.150019" lon="106.386748">
<time>2015-09-27T14:43:17Z</time></trkpt>
<trkpt lat="24.1504" lon="106.386109">
<time>2015-09-27T14:43:18Z</time></trkpt>
<trkpt lat="24.15047" lon="106.385969">
<time>2015-09-27T14:43:19Z</time></trkpt>
<trkpt lat="24.15053" lon="106.385839">
<time>2015-09-27T14:43:20Z</time></trkpt>
<trkpt lat="24.1506" lon="106.385639">
<time>2015-09-27T14:43:21Z</time></trkpt>
<trkpt lat="24.15066" lon="106.385449">
<time>2015-09-27T14:43:22Z</time></trkpt>
<trkpt lat="24.150701" lon="106.385269">
<time>2015-09-27T14:43:23Z</time></trkpt>
<trkpt lat="24.150751" lon="106.38502">
<time>2015-09-27T14:43:24Z</time></trkpt>
<trkpt lat="24.150791" lon="106.38476">
<time>2015-09-27T14:43:25Z</time></trkpt>
<trkpt lat="24.150831" lon="106.38452">
<time>2015-09-27T14:43:26Z</time></trkpt>
<trkpt lat="24.150861" lon="106.3844">
<time>2015-09-27T14:43:27Z</time></trkpt>
<trkpt lat="24.150901" lon="106.38429">
<time>2015-09-27T14:43:28Z</time></trkpt>
<trkpt lat="24.150941" lon="106.384161">
<time>2015-09-27T14:43:29Z</time></trkpt>
<trkpt lat="24.151001" lon="106.384031">
<time>2015-09-27T14:43:30Z</time></trkpt>
<trkpt lat="24.151061" lon="106.383921">
<time>2015-09-27T14:43:31Z</time></trkpt>
<trkpt lat="24.151122" lon="106.383821">
<time>2015-09-27T14:43:32Z</time></trkpt>
<trkpt lat="24.151202" lon="106.383721">
<time>2015-09-27T14:43:33Z</time></trkpt>
<trkpt lat="24.151262" lon="106.383641">
<time>2015-09-27T14:43:34Z</time></trkpt>
<trkpt lat="24.151412" lon="106.383481">
<time>2015-09-27T14:43:35Z</time></trkpt>
<trkpt lat="24.151582" lon="106.383311">
<time>2015-09-27T14:43:36Z</time></trkpt>
<trkpt lat="24.151772" lon="106.383122">
<time>2015-09-27T14:43:37Z</time></trkpt>
<trkpt lat="24.151973" lon="106.382882">
<time>2015-09-27T14:43:38Z</time></trkpt>
<trkpt lat="24.152163" lon="106.382652">
<time>2015-09-27T14:43:39Z</time></trkpt>
<trkpt lat="24.152293" lon="106.382472">
<time>2015-09-27T14:43:40Z</time></trkpt>
<trkpt lat="24.152423" lon="106.382292">
<time>2015-09-27T14:43:41Z</time></trkpt>
<trkpt lat="24.152513" lon="106.382153">
<time>2015-09-27T14:43:42Z</time></trkpt>
<trkpt lat="24.152623" lon="106.381973">
<time>2015-09-27T14:43:43Z</time></trkpt>
<trkpt lat="24.152693" lon="106.381853">
<time>2015-09-27T14:43:44Z</time></trkpt>
<trkpt lat="24.152774" lon="106.381703">
<time>2015-09-27T14:43:45Z</time></trkpt>
<trkpt lat="24.152874" lon="106.381523">
<time>2015-09-27T14:43:46Z</time></trkpt>
<trkpt lat="24.152934" lon="106.381383">
<time>2015-09-27T14:43:47Z</time></trkpt>
<trkpt lat="24.153144" lon="106.380954">
<time>2015-09-27T14:43:48Z</time></trkpt>
<trkpt lat="24.153245" lon="106.380754">
<time>2015-09-27T14:43:49Z</time></trkpt>
<trkpt lat="24.153375" lon="106.380534">
<time>2015-09-27T14:43:50Z</time></trkpt>
<trkpt lat="24.153455" lon="106.380394">
<time>2015-09-27T14:43:51Z</time></trkpt>
<trkpt lat="24.153625" lon="106.380155">
<time>2015-09-27T14:43:52Z</time></trkpt>
<trkpt lat="24.153735" lon="106.379985">
<time>2015-09-27T14:43:53Z</time></trkpt>
<trkpt lat="24.153835" lon="106.379865">
<time>2015-09-27T14:43:54Z</time></trkpt>
<trkpt lat="24.153906" lon="106.379765">
<time>2015-09-27T14:43:55Z</time></trkpt>
<trkpt lat="24.154076" lon="106.379565">
<time>2015-09-27T14:43:56Z</time></trkpt>
<trkpt lat="24.154286" lon="106.379346">
<time>2015-09-27T14:43:57Z</time></trkpt>
<trkpt lat="24.154516" lon="106.379096">
<time>2015-09-27T14:43:58Z</time></trkpt>
<trkpt lat="24.155207" lon="106.378377">
<time>2015-09-27T14:43:59Z</time></trkpt>
<trkpt lat="24.156038" lon="106.377498">
<time>2015-09-27T14:44:00Z</time></trkpt>
<trkpt lat="24.156209" lon="106.377298">
<time>2015-09-27T14:44:01Z</time></trkpt>
<trkpt lat="24.156319" lon="106.377158">
<time>2015-09-27T14:44:02Z</time></trkpt>
<trkpt lat="24.156419" lon="106.377018">
<time>2015-09-27T14:44:03Z</time></trkpt>
<trkpt lat="24.156499" lon="106.376909">
<time>2015-09-27T14:44:04Z</time></trkpt>
<trkpt lat="24.156569" lon="106.376779">
<time>2015-09-27T14:44:05Z</time></trkpt>
<trkpt lat="24.156649" lon="106.376619">
<time>2015-09-27T14:44:06Z</time></trkpt>
<trkpt lat="24.15674" lon="106.376409">
<time>2015-09-27T14:44:07Z</time></trkpt>
<trkpt lat="24.15684" lon="106.37613">
<time>2015-09-27T14:44:08Z</time></trkpt>
<trkpt lat="24.15693" lon="106.37578">
<time>2015-09-27T14:44:09Z</time></trkpt>
<trkpt lat="24.157001" lon="106.37544">
<time>2015-09-27T14:44:10Z</time></trkpt>
<trkpt lat="24.157051" lon="106.375171">
<time>2015-09-27T14:44:11Z</time></trkpt>
<trkpt lat="24.157091" lon="106.375001">
<time>2015-09-27T14:44:12Z</time></trkpt>
<trkpt lat="24.157161" lon="106.374781">
<time>2015-09-27T14:44:13Z</time></trkpt>
<trkpt lat="24.157221" lon="106.374602">
<time>2015-09-27T14:44:14Z</time></trkpt>
<trkpt lat="24.157282" lon="106.374412">
<time>2015-09-27T14:44:15Z</time></trkpt>
<trkpt lat="24.157362" lon="106.374222">
<time>2015-09-27T14:44:16Z</time></trkpt>
<trkpt lat="24.157442" lon="106.374022">
<time>2015-09-27T14:44:17Z</time></trkpt>
<trkpt lat="24.157522" lon="106.373853">
<time>2015-09-27T14:44:18Z</time></trkpt>
<trkpt lat="24.157592" lon="106.373713">
<time>2015-09-27T14:44:19Z</time></trkpt>
<trkpt lat="24.157653" lon="106.373583">
<time>2015-09-27T14:44:20Z</time></trkpt>
<trkpt lat="24.157733" lon="106.373463">
<time>2015-09-27T14:44:21Z</time></trkpt>
<trkpt lat="24.157793" lon="106.373343">
<time>2015-09-27T14:44:22Z</time></trkpt>
<trkpt lat="24.157883" lon="106.373203">
<time>2015-09-27T14:44:23Z</time></trkpt>
<trkpt lat="24.158093" lon="106.372894">
<time>2015-09-27T14:44:24Z</time></trkpt>
<trkpt lat="24.158334" lon="106.372554">
<time>2015-09-27T14:44:25Z</time></trkpt>
<trkpt lat="24.158985" lon="106.371586">
<time>2015-09-27T14:44:26Z</time></trkpt>
<trkpt lat="24.159556" lon="106.370787">
<time>2015-09-27T14:44:27Z</time></trkpt>
<trkpt lat="24.160057" lon="106.370068">
<time>2015-09-27T14:44:28Z</time></trkpt>
<trkpt lat="24.160268" lon="106.369798">
<time>2015-09-27T14:44:29Z</time></trkpt>
<trkpt lat="24.160378" lon="106.369659">
<time>2015-09-27T14:44:30Z</time></trkpt>
<trkpt lat="24.160458" lon="106.369579">
<time>2015-09-27T14:44:31Z</time></trkpt>
<trkpt lat="24.160608" lon="106.369439">
<time>2015-09-27T14:44:32Z</time></trkpt>
<trkpt lat="24.160708" lon="106.369359">
<time>2015-09-27T14:44:33Z</time></trkpt>
<trkpt lat="24.160808" lon="106.369289">
<time>2015-09-27T14:44:34Z</time></trkpt>
<trkpt lat="24.160969" lon="106.369179">
<time>2015-09-27T14:44:35Z</time></trkpt>
<trkpt lat="24.161089" lon="106.369119">
<time>2015-09-27T14:44:36Z</time></trkpt>
<trkpt lat="24.161299" lon="106.36902">
<time>2015-09-27T14:44:37Z</time></trkpt>
<trkpt lat="24.161479" lon="106.36895">
<time>2015-09-27T14:44:38Z</time></trkpt>
<trkpt lat="24.161849" lon="106.36883">
<time>2015-09-27T14:44:39Z</time></trkpt>
<trkpt lat="24.16197" lon="106.36879">
<time>2015-09-27T14:44:40Z</time></trkpt>
<trkpt lat="24.16208" lon="106.36875">
<time>2015-09-27T14:44:41Z</time></trkpt>
<trkpt lat="24.16219" lon="106.36872">
<time>2015-09-27T14:44:42Z</time></trkpt>
<trkpt lat="24.16228" lon="106.36867">
<time>2015-09-27T14:44:43Z</time></trkpt>
<trkpt lat="24.16236" lon="106.36864">
<time>2015-09-27T14:44:44Z</time></trkpt>
<trkpt lat="24.16243" lon="106.3686">
<time>2015-09-27T14:44:45Z</time></trkpt>
<trkpt lat="24.16249" lon="106.36857">
<time>2015-09-27T14:44:46Z</time></trkpt>
<trkpt lat="24.16255" lon="106.36853">
<time>2015-09-27T14:44:47Z</time></trkpt>
<trkpt lat="24.16261" lon="106.36849">
<time>2015-09-27T14:44:48Z</time></trkpt>
<trkpt lat="24.16266" lon="106.36845">
<time>2015-09-27T14:44:49Z</time></trkpt>
<trkpt lat="24.16272" lon="106.3684">
<time>2015-09-27T14:44:50Z</time></trkpt>
<trkpt lat="24.1628" lon="106.368331">
<time>2015-09-27T14:44:51Z</time></trkpt>
<trkpt lat="24.162871" lon="106.368261">
<time>2015-09-27T14:44:52Z</time></trkpt>
<trkpt lat="24.162951" lon="106.368181">
<time>2015-09-27T14:44:53Z</time></trkpt>
<trkpt lat="24.163001" lon="106.368121">
<time>2015-09-27T14:44:54Z</time></trkpt>
<trkpt lat="24.163071" lon="106.368021">
<time>2015-09-27T14:44:55Z</time></trkpt>
<trkpt lat="24.163141" lon="106.367931">
<time>2015-09-27T14:44:56Z</time></trkpt>
<trkpt lat="24.163211" lon="106.367821">
<time>2015-09-27T14:44:57Z</time></trkpt>
<trkpt lat="24.163321" lon="106.367652">
<time>2015-09-27T14:44:58Z</time></trkpt>
<trkpt lat="24.163702" lon="106.367053">
<time>2015-09-27T14:44:59Z</time></trkpt>
<trkpt lat="24.163933" lon="106.366753">
<time>2015-09-27T14:45:00Z</time></trkpt>
<trkpt lat="24.164183" lon="106.366384">
<time>2015-09-27T14:45:01Z</time></trkpt>
<trkpt lat="24.164574" lon="106.365865">
<time>2015-09-27T14:45:02Z</time></trkpt>
<trkpt lat="24.165035" lon="106.365315">
<time>2015-09-27T14:45:03Z</time></trkpt>
<trkpt lat="24.166217" lon="106.363898">
<time>2015-09-27T14:45:04Z</time></trkpt>
<trkpt lat="24.166398" lon="106.363668">
<time>2015-09-27T14:45:05Z</time></trkpt>
<trkpt lat="24.166668" lon="106.363339">
<time>2015-09-27T14:45:06Z</time></trkpt>
<trkpt lat="24.166829" lon="106.363149">
<time>2015-09-27T14:45:07Z</time></trkpt>
<trkpt lat="24.167149" lon="106.36276">
<time>2015-09-27T14:45:08Z</time></trkpt>
<trkpt lat="24.16728" lon="106.3626">
<time>2015-09-27T14:45:09Z</time></trkpt>
<trkpt lat="24.16742" lon="106.36241">
<time>2015-09-27T14:45:10Z</time></trkpt>
<trkpt lat="24.16753" lon="106.362241">
<time>2015-09-27T14:45:11Z</time></trkpt>
<trkpt lat="24.16763" lon="106.362051">
<time>2015-09-27T14:45:12Z</time></trkpt>
<trkpt lat="24.167721" lon="106.361851">
<time>2015-09-27T14:45:13Z</time></trkpt>
<trkpt lat="24.167811" lon="106.361632">
<time>2015-09-27T14:45:14Z</time></trkpt>
<trkpt lat="24.167911" lon="106.361372">
<time>2015-09-27T14:45:15Z</time></trkpt>
<trkpt lat="24.168032" lon="106.361043">
<time>2015-09-27T14:45:16Z</time></trkpt>
<trkpt lat="24.168122" lon="106.360843">
<time>2015-09-27T14:45:17Z</time></trkpt>
<trkpt lat="24.168223" lon="106.360644">
<time>2015-09-27T14:45:18Z</time></trkpt>
<trkpt lat="24.168303" lon="106.360514">
<time>2015-09-27T14:45:19Z</time></trkpt>
<trkpt lat="24.168343" lon="106.360444">
<time>2015-09-27T14:45:20Z</time></trkpt>
<trkpt lat="24.168373" lon="106.360394">
<time>2015-09-27T14:45:21Z</time></trkpt>
<trkpt lat="24.168433" lon="106.360314">
<time>2015-09-27T14:45:22Z</time></trkpt>
<trkpt lat="24.168483" lon="106.360234">
<time>2015-09-27T14:45:23Z</time></trkpt>
<trkpt lat="24.168583" lon="106.360115">
<time>2015-09-27T14:45:24Z</time></trkpt>
<trkpt lat="24.168664" lon="106.360025">
<time>2015-09-27T14:45:25Z</time></trkpt>
<trkpt lat="24.168754" lon="106.359915">
<time>2015-09-27T14:45:26Z</time></trkpt>
<trkpt lat="24.169125" lon="106.359496">
<time>2015-09-27T14:45:27Z</time></trkpt>
<trkpt lat="24.169766" lon="106.358707">
<time>2015-09-27T14:45:28Z</time></trkpt>
<trkpt lat="24.169956" lon="106.358448">
<time>2015-09-27T14:45:29Z</time></trkpt>
<trkpt lat="24.170147" lon="106.358168">
<time>2015-09-27T14:45:30Z</time></trkpt>
<trkpt lat="24.170297" lon="106.357909">
<time>2015-09-27T14:45:31Z</time></trkpt>
<trkpt lat="24.170458" lon="106.357599">
<time>2015-09-27T14:45:32Z</time></trkpt>
<trkpt lat="24.170558" lon="106.35736">
<time>2015-09-27T14:45:33Z</time></trkpt>
<trkpt lat="24.170709" lon="106.357">
<time>2015-09-27T14:45:34Z</time></trkpt>
<trkpt lat="24.17089" lon="106.356551">
<time>2015-09-27T14:45:35Z</time></trkpt>
<trkpt lat="24.17096" lon="106.356372">
<time>2015-09-27T14:45:36Z</time></trkpt>
<trkpt lat="24.17107" lon="106.356142">
<time>2015-09-27T14:45:37Z</time></trkpt>
<trkpt lat="24.171191" lon="106.355902">
<time>2015-09-27T14:45:38Z</time></trkpt>
<trkpt lat="24.171331" lon="106.355633">
<time>2015-09-27T14:45:39Z</time></trkpt>
<trkpt lat="24.171552" lon="106.355284">
<time>2015-09-27T14:45:40Z</time></trkpt>
<trkpt lat="24.171752" lon="106.355014">
<time>2015-09-27T14:45:41Z</time></trkpt>
<trkpt lat="24.172113" lon="106.354565">
<time>2015-09-27T14:45:42Z</time></trkpt>
<trkpt lat="24.172484" lon="106.354116">
<time>2015-09-27T14:45:43Z</time></trkpt>
<trkpt lat="24.172654" lon="106.353896">
<time>2015-09-27T14:45:44Z</time></trkpt>
<trkpt lat="24.172945" lon="106.353547">
<time>2015-09-27T14:45:45Z</time></trkpt>
<trkpt lat="24.173166" lon="106.353288">
<time>2015-09-27T14:45:46Z</time></trkpt>
<trkpt lat="24.173296" lon="106.353158">
<time>2015-09-27T14:45:47Z</time></trkpt>
<trkpt lat="24.173396" lon="106.353058">
<time>2015-09-27T14:45:48Z</time></trkpt>
<trkpt lat="24.173476" lon="106.352988">
<time>2015-09-27T14:45:49Z</time></trkpt>
<trkpt lat="24.173546" lon="106.352928">
<time>2015-09-27T14:45:50Z</time></trkpt>
<trkpt lat="24.173637" lon="106.352858">
<time>2015-09-27T14:45:51Z</time></trkpt>
<trkpt lat="24.173747" lon="106.352789">
<time>2015-09-27T14:45:52Z</time></trkpt>
<trkpt lat="24.173817" lon="106.352749">
<time>2015-09-27T14:45:53Z</time></trkpt>
<trkpt lat="24.173897" lon="106.352699">
<time>2015-09-27T14:45:54Z</time></trkpt>
<trkpt lat="24.174007" lon="106.352649">
<time>2015-09-27T14:45:55Z</time></trkpt>
<trkpt lat="24.174137" lon="106.352599">
<time>2015-09-27T14:45:56Z</time></trkpt>
<trkpt lat="24.174608" lon="106.352419">
<time>2015-09-27T14:45:57Z</time></trkpt>
<trkpt lat="24.174798" lon="106.352359">
<time>2015-09-27T14:45:58Z</time></trkpt>
<trkpt lat="24.174938" lon="106.35231">
<time>2015-09-27T14:45:59Z</time></trkpt>
<trkpt lat="24.175248" lon="106.35219">
<time>2015-09-27T14:46:00Z</time></trkpt>
<trkpt lat="24.175458" lon="106.3521">
<time>2015-09-27T14:46:01Z</time></trkpt>
<trkpt lat="24.175769" lon="106.352">
<time>2015-09-27T14:46:02Z</time></trkpt>
<trkpt lat="24.175949" lon="106.35194">
<time>2015-09-27T14:46:03Z</time></trkpt>
<trkpt lat="24.176269" lon="106.35182">
<time>2015-09-27T14:46:04Z</time></trkpt>
<trkpt lat="24.176379" lon="106.351791">
<time>2015-09-27T14:46:05Z</time></trkpt>
<trkpt lat="24.176539" lon="106.351731">
<time>2015-09-27T14:46:06Z</time></trkpt>
<trkpt lat="24.17675" lon="106.351651">
<time>2015-09-27T14:46:07Z</time></trkpt>
<trkpt lat="24.17686" lon="106.351621">
<time>2015-09-27T14:46:08Z</time></trkpt>
<trkpt lat="24.17699" lon="106.351581">
<time>2015-09-27T14:46:09Z</time></trkpt>
<trkpt lat="24.17712" lon="106.351551">
<time>2015-09-27T14:46:10Z</time></trkpt>
<trkpt lat="24.17728" lon="106.351511">
<time>2015-09-27T14:46:11Z</time></trkpt>
<trkpt lat="24.1774" lon="106.351491">
<time>2015-09-27T14:46:12Z</time></trkpt>
<trkpt lat="24.17764" lon="106.351451">
<time>2015-09-27T14:46:13Z</time></trkpt>
<trkpt lat="24.17778" lon="106.351431">
<time>2015-09-27T14:46:14Z</time></trkpt>
<trkpt lat="24.177871" lon="106.351421">
<time>2015-09-27T14:46:15Z</time></trkpt>
<trkpt lat="24.178011" lon="106.351411">
<time>2015-09-27T14:46:16Z</time></trkpt>
<trkpt lat="24.178261" lon="106.351401">
<time>2015-09-27T14:46:17Z</time></trkpt>
<trkpt lat="24.178401" lon="106.351391">
<time>2015-09-27T14:46:18Z</time></trkpt>
<trkpt lat="24.178641" lon="106.351381">
<time>2015-09-27T14:46:19Z</time></trkpt>
<trkpt lat="24.178931" lon="106.351361">
<time>2015-09-27T14:46:20Z</time></trkpt>
<trkpt lat="24.179071" lon="106.351341">
<time>2015-09-27T14:46:21Z</time></trkpt>
<trkpt lat="24.179241" lon="106.351321">
<time>2015-09-27T14:46:22Z</time></trkpt>
<trkpt lat="24.179361" lon="106.351291">
<time>2015-09-27T14:46:23Z</time></trkpt>
<trkpt lat="24.179682" lon="106.351212">
<time>2015-09-27T14:46:24Z</time></trkpt>
<trkpt lat="24.180372" lon="106.351042">
<time>2015-09-27T14:46:25Z</time></trkpt>
<trkpt lat="24.181113" lon="106.350852">
<time>2015-09-27T14:46:26Z</time></trkpt>
<trkpt lat="24.181533" lon="106.350742">
<time>2015-09-27T14:46:27Z</time></trkpt>
<trkpt lat="24.181733" lon="106.350673">
<time>2015-09-27T14:46:28Z</time></trkpt>
<trkpt lat="24.181843" lon="106.350633">
<time>2015-09-27T14:46:29Z</time></trkpt>
<trkpt lat="24.182024" lon="106.350533">
<time>2015-09-27T14:46:30Z</time></trkpt>
<trkpt lat="24.182114" lon="106.350473">
<time>2015-09-27T14:46:31Z</time></trkpt>
<trkpt lat="24.182204" lon="106.350413">
<time>2015-09-27T14:46:32Z</time></trkpt>
<trkpt lat="24.182314" lon="106.350323">
<time>2015-09-27T14:46:33Z</time></trkpt>
<trkpt lat="24.182374" lon="106.350253">
<time>2015-09-27T14:46:34Z</time></trkpt>
<trkpt lat="24.182444" lon="106.350184">
<time>2015-09-27T14:46:35Z</time></trkpt>
<trkpt lat="24.182565" lon="106.350034">
<time>2015-09-27T14:46:36Z</time></trkpt>
<trkpt lat="24.182655" lon="106.349914">
<time>2015-09-27T14:46:37Z</time></trkpt>
<trkpt lat="24.182835" lon="106.349655">
<time>2015-09-27T14:46:38Z</time></trkpt>
<trkpt lat="24.183016" lon="106.349375">
<time>2015-09-27T14:46:39Z</time></trkpt>
<trkpt lat="24.183217" lon="106.349066">
<time>2015-09-27T14:46:40Z</time></trkpt>
<trkpt lat="24.183327" lon="106.348886">
<time>2015-09-27T14:46:41Z</time></trkpt>
<trkpt lat="24.183427" lon="106.348727">
<time>2015-09-27T14:46:42Z</time></trkpt>
<trkpt lat="24.183608" lon="106.348417">
<time>2015-09-27T14:46:43Z</time></trkpt>
<trkpt lat="24.183708" lon="106.348248">
<time>2015-09-27T14:46:44Z</time></trkpt>
<trkpt lat="24.183809" lon="106.348058">
<time>2015-09-27T14:46:45Z</time></trkpt>
<trkpt lat="24.183949" lon="106.347759">
<time>2015-09-27T14:46:46Z</time></trkpt>
<trkpt lat="24.184401" lon="106.346781">
<time>2015-09-27T14:46:47Z</time></trkpt>
<trkpt lat="24.184582" lon="106.346412">
<time>2015-09-27T14:46:48Z</time></trkpt>
<trkpt lat="24.184672" lon="106.346242">
<time>2015-09-27T14:46:49Z</time></trkpt>
<trkpt lat="24.184822" lon="106.345992">
<time>2015-09-27T14:46:50Z</time></trkpt>
<trkpt lat="24.184923" lon="106.345853">
<time>2015-09-27T14:46:51Z</time></trkpt>
<trkpt lat="24.185063" lon="106.345683">
<time>2015-09-27T14:46:52Z</time></trkpt>
<trkpt lat="24.185193" lon="106.345533">
<time>2015-09-27T14:46:53Z</time></trkpt>
<trkpt lat="24.185294" lon="106.345404">
<time>2015-09-27T14:46:54Z</time></trkpt>
<trkpt lat="24.185354" lon="106.345304">
<time>2015-09-27T14:46:55Z</time></trkpt>
<trkpt lat="24.185444" lon="106.345174">
<time>2015-09-27T14:46:56Z</time></trkpt>
<trkpt lat="24.185504" lon="106.345074">
<time>2015-09-27T14:46:57Z</time></trkpt>
<trkpt lat="24.185575" lon="106.344935">
<time>2015-09-27T14:46:58Z</time></trkpt>
<trkpt lat="24.185735" lon="106.344625">
<time>2015-09-27T14:46:59Z</time></trkpt>
<trkpt lat="24.186277" lon="106.343528">
<time>2015-09-27T14:47:00Z</time></trkpt>
<trkpt lat="24.186508" lon="106.343059">
<time>2015-09-27T14:47:01Z</time></trkpt>
<trkpt lat="24.18701" lon="106.342041">
<time>2015-09-27T14:47:02Z</time></trkpt>
<trkpt lat="24.187211" lon="106.341622">
<time>2015-09-27T14:47:03Z</time></trkpt>
<trkpt lat="24.187291" lon="106.341472">
<time>2015-09-27T14:47:04Z</time></trkpt>
<trkpt lat="24.187342" lon="106.341393">
<time>2015-09-27T14:47:05Z</time></trkpt>
<trkpt lat="24.187362" lon="106.341343">
<time>2015-09-27T14:47:06Z</time></trkpt>
<trkpt lat="24.187412" lon="106.341253">
<time>2015-09-27T14:47:07Z</time></trkpt>
<trkpt lat="24.187492" lon="106.341073">
<time>2015-09-27T14:47:08Z</time></trkpt>
<trkpt lat="24.187613" lon="106.340874">
<time>2015-09-27T14:47:09Z</time></trkpt>
<trkpt lat="24.187653" lon="106.340784">
<time>2015-09-27T14:47:10Z</time></trkpt>
<trkpt lat="24.187713" lon="106.340684">
<time>2015-09-27T14:47:11Z</time></trkpt>
<trkpt lat="24.187773" lon="106.340564">
<time>2015-09-27T14:47:12Z</time></trkpt>
<trkpt lat="24.187914" lon="106.340335">
<time>2015-09-27T14:47:13Z</time></trkpt>
<trkpt lat="24.188044" lon="106.340135">
<time>2015-09-27T14:47:14Z</time></trkpt>
<trkpt lat="24.188225" lon="106.339876">
<time>2015-09-27T14:47:15Z</time></trkpt>
<trkpt lat="24.188355" lon="106.339676">
<time>2015-09-27T14:47:16Z</time></trkpt>
<trkpt lat="24.188536" lon="106.339437">
<time>2015-09-27T14:47:17Z</time></trkpt>
<trkpt lat="24.188676" lon="106.339267">
<time>2015-09-27T14:47:18Z</time></trkpt>
<trkpt lat="24.188786" lon="106.339128">
<time>2015-09-27T14:47:19Z</time></trkpt>
<trkpt lat="24.188907" lon="106.338958">
<time>2015-09-27T14:47:20Z</time></trkpt>
<trkpt lat="24.189147" lon="106.338589">
<time>2015-09-27T14:47:21Z</time></trkpt>
<trkpt lat="24.189258" lon="106.338419">
<time>2015-09-27T14:47:22Z</time></trkpt>
<trkpt lat="24.189368" lon="106.33826">
<time>2015-09-27T14:47:23Z</time></trkpt>
<trkpt lat="24.189438" lon="106.33817">
<time>2015-09-27T14:47:24Z</time></trkpt>
<trkpt lat="24.189518" lon="106.33809">
<time>2015-09-27T14:47:25Z</time></trkpt>
<trkpt lat="24.189609" lon="106.338">
<time>2015-09-27T14:47:26Z</time></trkpt>
<trkpt lat="24.189669" lon="106.33795">
<time>2015-09-27T14:47:27Z</time></trkpt>
<trkpt lat="24.189789" lon="106.33786">
<time>2015-09-27T14:47:28Z</time></trkpt>
<trkpt lat="24.189949" lon="106.337751">
<time>2015-09-27T14:47:29Z</time></trkpt>
<trkpt lat="24.19024" lon="106.337571">
<time>2015-09-27T14:47:30Z</time></trkpt>
<trkpt lat="24.19065" lon="106.337332">
<time>2015-09-27T14:47:31Z</time></trkpt>
<trkpt lat="24.190941" lon="106.337172">
<time>2015-09-27T14:47:32Z</time></trkpt>
<trkpt lat="24.191442" lon="106.336873">
<time>2015-09-27T14:47:33Z</time></trkpt>
<trkpt lat="24.191862" lon="106.336653">
<time>2015-09-27T14:47:34Z</time></trkpt>
<trkpt lat="24.191992" lon="106.336583">
<time>2015-09-27T14:47:35Z</time></trkpt>
<trkpt lat="24.192082" lon="106.336543">
<time>2015-09-27T14:47:36Z</time></trkpt>
<trkpt lat="24.192172" lon="106.336513">
<time>2015-09-27T14:47:37Z</time></trkpt>
<trkpt lat="24.192253" lon="106.336493">
<time>2015-09-27T14:47:38Z</time></trkpt>
<trkpt lat="24.192313" lon="106.336474">
<time>2015-09-27T14:47:39Z</time></trkpt>
<trkpt lat="24.192423" lon="106.336454">
<time>2015-09-27T14:47:40Z</time></trkpt>
<trkpt lat="24.192613" lon="106.336434">
<time>2015-09-27T14:47:41Z</time></trkpt>
<trkpt lat="24.193143" lon="106.336394">
<time>2015-09-27T14:47:42Z</time></trkpt>
<trkpt lat="24.193483" lon="106.336354">
<time>2015-09-27T14:47:43Z</time></trkpt>
<trkpt lat="24.193613" lon="106.336334">
<time>2015-09-27T14:47:44Z</time></trkpt>
<trkpt lat="24.193723" lon="106.336314">
<time>2015-09-27T14:47:45Z</time></trkpt>
<trkpt lat="24.193834" lon="106.336284">
<time>2015-09-27T14:47:46Z</time></trkpt>
<trkpt lat="24.193934" lon="106.336254">
<time>2015-09-27T14:47:47Z</time></trkpt>
<trkpt lat="24.194074" lon="106.336194">
<time>2015-09-27T14:47:48Z</time></trkpt>
<trkpt lat="24.194204" lon="106.336134">
<time>2015-09-27T14:47:49Z</time></trkpt>
<trkpt lat="24.194354" lon="106.336074">
<time>2015-09-27T14:47:50Z</time></trkpt>
<trkpt lat="24.194474" lon="106.336004">
<time>2015-09-27T14:47:51Z</time></trkpt>
<trkpt lat="24.194695" lon="106.335885">
<time>2015-09-27T14:47:52Z</time></trkpt>
<trkpt lat="24.194825" lon="106.335805">
<time>2015-09-27T14:47:53Z</time></trkpt>
<trkpt lat="24.194945" lon="106.335725">
<time>2015-09-27T14:47:54Z</time></trkpt>
<trkpt lat="24.195045" lon="106.335655">
<time>2015-09-27T14:47:55Z</time></trkpt>
<trkpt lat="24.195125" lon="106.335595">
<time>2015-09-27T14:47:56Z</time></trkpt>
<trkpt lat="24.195165" lon="106.335555">
<time>2015-09-27T14:47:57Z</time></trkpt>
<trkpt lat="24.195246" lon="106.335506">
<time>2015-09-27T14:47:58Z</time></trkpt>
<trkpt lat="24.195336" lon="106.335426">
<time>2015-09-27T14:47:59Z</time></trkpt>
<trkpt lat="24.195456" lon="106.335326">
<time>2015-09-27T14:48:00Z</time></trkpt>
<trkpt lat="24.195596" lon="106.335186">
<time>2015-09-27T14:48:01Z</time></trkpt>
<trkpt lat="24.195676" lon="106.335116">
<time>2015-09-27T14:48:02Z</time></trkpt>
<trkpt lat="24.195737" lon="106.335027">
<time>2015-09-27T14:48:03Z</time></trkpt>
<trkpt lat="24.195807" lon="106.334917">
<time>2015-09-27T14:48:04Z</time></trkpt>
<trkpt lat="24.195877" lon="106.334777">
<time>2015-09-27T14:48:05Z</time></trkpt>
<trkpt lat="24.195917" lon="106.334628">
<time>2015-09-27T14:48:06Z</time></trkpt>
<trkpt lat="24.195958" lon="106.334488">
<time>2015-09-27T14:48:07Z</time></trkpt>
<trkpt lat="24.195978" lon="106.334358">
<time>2015-09-27T14:48:08Z</time></trkpt>
<trkpt lat="24.195988" lon="106.334248">
<time>2015-09-27T14:48:09Z</time></trkpt>
<trkpt lat="24.196049" lon="106.3336">
<time>2015-09-27T14:48:10Z</time></trkpt>
<trkpt lat="24.19606" lon="106.33355">
<time>2015-09-27T14:48:11Z</time></trkpt>
<trkpt lat="24.1961" lon="106.333121">
<time>2015-09-27T14:48:12Z</time></trkpt>
<trkpt lat="24.196121" lon="106.332882">
<time>2015-09-27T14:48:13Z</time></trkpt>
<trkpt lat="24.196131" lon="106.332612">
<time>2015-09-27T14:48:14Z</time></trkpt>
<trkpt lat="24.196112" lon="106.332363">
<time>2015-09-27T14:48:15Z</time></trkpt>
<trkpt lat="24.196112" lon="106.332353">
<time>2015-09-27T14:48:16Z</time></trkpt>
<trkpt lat="24.196092" lon="106.332173">
<time>2015-09-27T14:48:17Z</time></trkpt>
<trkpt lat="24.196092" lon="106.332123">
<time>2015-09-27T14:48:18Z</time></trkpt>
<trkpt lat="24.196063" lon="106.331724">
<time>2015-09-27T14:48:19Z</time></trkpt>
<trkpt lat="24.196033" lon="106.331495">
<time>2015-09-27T14:48:20Z</time></trkpt>
<trkpt lat="24.195994" lon="106.331046">
<time>2015-09-27T14:48:21Z</time></trkpt>
<trkpt lat="24.195985" lon="106.330617">
<time>2015-09-27T14:48:22Z</time></trkpt>
<trkpt lat="24.196006" lon="106.330288">
<time>2015-09-27T14:48:23Z</time></trkpt>
<trkpt lat="24.196056" lon="106.330058">
<time>2015-09-27T14:48:24Z</time></trkpt>
<trkpt lat="24.196117" lon="106.329829">
<time>2015-09-27T14:48:25Z</time></trkpt>
<trkpt lat="24.196207" lon="106.3295">
<time>2015-09-27T14:48:26Z</time></trkpt>
<trkpt lat="24.196318" lon="106.32926">
<time>2015-09-27T14:48:27Z</time></trkpt>
<trkpt lat="24.196508" lon="106.328931">
<time>2015-09-27T14:48:28Z</time></trkpt>
<trkpt lat="24.19693" lon="106.328282">
<time>2015-09-27T14:48:29Z</time></trkpt>
<trkpt lat="24.197572" lon="106.327315">
<time>2015-09-27T14:48:30Z</time></trkpt>
<trkpt lat="24.198365" lon="106.326098">
<time>2015-09-27T14:48:31Z</time></trkpt>
<trkpt lat="24.198706" lon="106.325539">
<time>2015-09-27T14:48:32Z</time></trkpt>
<trkpt lat="24.198967" lon="106.32514">
<time>2015-09-27T14:48:33Z</time></trkpt>
<trkpt lat="24.199187" lon="106.324801">
<time>2015-09-27T14:48:34Z</time></trkpt>
<trkpt lat="24.199348" lon="106.324591">
<time>2015-09-27T14:48:35Z</time></trkpt>
<trkpt lat="24.199448" lon="106.324451">
<time>2015-09-27T14:48:36Z</time></trkpt>
<trkpt lat="24.199558" lon="106.324332">
<time>2015-09-27T14:48:37Z</time></trkpt>
<trkpt lat="24.199669" lon="106.324222">
<time>2015-09-27T14:48:38Z</time></trkpt>
<trkpt lat="24.199789" lon="106.324102">
<time>2015-09-27T14:48:39Z</time></trkpt>
<trkpt lat="24.20005" lon="106.323883">
<time>2015-09-27T14:48:40Z</time></trkpt>
<trkpt lat="24.200841" lon="106.323204">
<time>2015-09-27T14:48:41Z</time></trkpt>
<trkpt lat="24.201031" lon="106.323085">
<time>2015-09-27T14:48:42Z</time></trkpt>
<trkpt lat="24.201122" lon="106.323035">
<time>2015-09-27T14:48:43Z</time></trkpt>
<trkpt lat="24.201202" lon="106.323005">
<time>2015-09-27T14:48:44Z</time></trkpt>
<trkpt lat="24.201282" lon="106.322985">
<time>2015-09-27T14:48:45Z</time></trkpt>
<trkpt lat="24.201392" lon="106.322985">
<time>2015-09-27T14:48:46Z</time></trkpt>
<trkpt lat="24.201492" lon="106.322985">
<time>2015-09-27T14:48:47Z</time></trkpt>
<trkpt lat="24.201532" lon="106.322995">
<time>2015-09-27T14:48:48Z</time></trkpt>
<trkpt lat="24.201592" lon="106.323005">
<time>2015-09-27T14:48:49Z</time></trkpt>
<trkpt lat="24.201672" lon="106.323025">
<time>2015-09-27T14:48:50Z</time></trkpt>
<trkpt lat="24.201742" lon="106.323055">
<time>2015-09-27T14:48:51Z</time></trkpt>
<trkpt lat="24.201792" lon="106.323085">
<time>2015-09-27T14:48:52Z</time></trkpt>
<trkpt lat="24.201862" lon="106.323114">
<time>2015-09-27T14:48:53Z</time></trkpt>
<trkpt lat="24.201922" lon="106.323154">
<time>2015-09-27T14:48:54Z</time></trkpt>
<trkpt lat="24.201982" lon="106.323214">
<time>2015-09-27T14:48:55Z</time></trkpt>
<trkpt lat="24.202031" lon="106.323284">
<time>2015-09-27T14:48:56Z</time></trkpt>
<trkpt lat="24.202241" lon="106.323543">
<time>2015-09-27T14:48:57Z</time></trkpt>
<trkpt lat="24.202291" lon="106.323613">
<time>2015-09-27T14:48:58Z</time></trkpt>
<trkpt lat="24.202361" lon="106.323723">
<time>2015-09-27T14:48:59Z</time></trkpt>
<trkpt lat="24.20279" lon="106.324431">
<time>2015-09-27T14:49:00Z</time></trkpt>
<trkpt lat="24.203129" lon="106.32488">
<time>2015-09-27T14:49:01Z</time></trkpt>
<trkpt lat="24.203558" lon="106.325299">
<time>2015-09-27T14:49:02Z</time></trkpt>
<trkpt lat="24.203738" lon="106.325449">
<time>2015-09-27T14:49:03Z</time></trkpt>
<trkpt lat="24.203908" lon="106.325579">
<time>2015-09-27T14:49:04Z</time></trkpt>
<trkpt lat="24.204048" lon="106.325668">
<time>2015-09-27T14:49:05Z</time></trkpt>
<trkpt lat="24.204268" lon="106.325768">
<time>2015-09-27T14:49:06Z</time></trkpt>
<trkpt lat="24.204457" lon="106.325858">
<time>2015-09-27T14:49:07Z</time></trkpt>
<trkpt lat="24.204567" lon="106.325898">
<time>2015-09-27T14:49:08Z</time></trkpt>
<trkpt lat="24.204667" lon="106.325928">
<time>2015-09-27T14:49:09Z</time></trkpt>
<trkpt lat="24.204747" lon="106.325958">
<time>2015-09-27T14:49:10Z</time></trkpt>
<trkpt lat="24.204867" lon="106.325987">
<time>2015-09-27T14:49:11Z</time></trkpt>
<trkpt lat="24.204957" lon="106.325997">
<time>2015-09-27T14:49:12Z</time></trkpt>
<trkpt lat="24.205057" lon="106.325987">
<time>2015-09-27T14:49:13Z</time></trkpt>
<trkpt lat="24.205198" lon="106.325968">
<time>2015-09-27T14:49:14Z</time></trkpt>
<trkpt lat="24.205388" lon="106.325928">
<time>2015-09-27T14:49:15Z</time></trkpt>
<trkpt lat="24.205578" lon="106.325858">
<time>2015-09-27T14:49:16Z</time></trkpt>
<trkpt lat="24.205878" lon="106.325728">
<time>2015-09-27T14:49:17Z</time></trkpt>
<trkpt lat="24.206269" lon="106.325568">
<time>2015-09-27T14:49:18Z</time></trkpt>
<trkpt lat="24.206399" lon="106.325509">
<time>2015-09-27T14:49:19Z</time></trkpt>
<trkpt lat="24.206659" lon="106.325399">
<time>2015-09-27T14:49:20Z</time></trkpt>
<trkpt lat="24.20689" lon="106.325269">
<time>2015-09-27T14:49:21Z</time></trkpt>
<trkpt lat="24.20713" lon="106.325119">
<time>2015-09-27T14:49:22Z</time></trkpt>
<trkpt lat="24.207721" lon="106.32472">
<time>2015-09-27T14:49:23Z</time></trkpt>
<trkpt lat="24.208482" lon="106.324212">
<time>2015-09-27T14:49:24Z</time></trkpt>
<trkpt lat="24.208973" lon="106.323882">
<time>2015-09-27T14:49:25Z</time></trkpt>
<trkpt lat="24.209193" lon="106.323723">
<time>2015-09-27T14:49:26Z</time></trkpt>
<trkpt lat="24.209424" lon="106.323483">
<time>2015-09-27T14:49:27Z</time></trkpt>
<trkpt lat="24.209624" lon="106.323244">
<time>2015-09-27T14:49:28Z</time></trkpt>
<trkpt lat="24.209825" lon="106.322984">
<time>2015-09-27T14:49:29Z</time></trkpt>
<trkpt lat="24.209966" lon="106.322765">
<time>2015-09-27T14:49:30Z</time></trkpt>
<trkpt lat="24.210056" lon="106.322635">
<time>2015-09-27T14:49:31Z</time></trkpt>
<trkpt lat="24.210156" lon="106.322446">
<time>2015-09-27T14:49:32Z</time></trkpt>
<trkpt lat="24.210237" lon="106.322296">
<time>2015-09-27T14:49:33Z</time></trkpt>
<trkpt lat="24.210367" lon="106.322037">
<time>2015-09-27T14:49:34Z</time></trkpt>
<trkpt lat="24.210427" lon="106.321907">
<time>2015-09-27T14:49:35Z</time></trkpt>
<trkpt lat="24.210478" lon="106.321777">
<time>2015-09-27T14:49:36Z</time></trkpt>
<trkpt lat="24.210548" lon="106.321598">
<time>2015-09-27T14:49:37Z</time></trkpt>
<trkpt lat="24.210578" lon="106.321468">
<time>2015-09-27T14:49:38Z</time></trkpt>
<trkpt lat="24.210609" lon="106.321338">
<time>2015-09-27T14:49:39Z</time></trkpt>
<trkpt lat="24.210629" lon="106.321218">
<time>2015-09-27T14:49:40Z</time></trkpt>
<trkpt lat="24.210649" lon="106.321019">
<time>2015-09-27T14:49:41Z</time></trkpt>
<trkpt lat="24.21066" lon="106.32077">
<time>2015-09-27T14:49:42Z</time></trkpt>
<trkpt lat="24.210681" lon="106.320261">
<time>2015-09-27T14:49:43Z</time></trkpt>
<trkpt lat="24.210672" lon="106.319512">
<time>2015-09-27T14:49:44Z</time></trkpt>
<trkpt lat="24.210653" lon="106.318824">
<time>2015-09-27T14:49:45Z</time></trkpt>
<trkpt lat="24.210664" lon="106.318385">
<time>2015-09-27T14:49:46Z</time></trkpt>
<trkpt lat="24.210695" lon="106.317976">
<time>2015-09-27T14:49:47Z</time></trkpt>
<trkpt lat="24.210706" lon="106.317557">
<time>2015-09-27T14:49:48Z</time></trkpt>
<trkpt lat="24.210708" lon="106.31651">
<time>2015-09-27T14:49:49Z</time></trkpt>
<trkpt lat="24.210709" lon="106.315961">
<time>2015-09-27T14:49:50Z</time></trkpt>
<trkpt lat="24.21073" lon="106.315203">
<time>2015-09-27T14:49:51Z</time></trkpt>
<trkpt lat="24.210741" lon="106.314714">
<time>2015-09-27T14:49:52Z</time></trkpt>
<trkpt lat="24.210712" lon="106.314305">
<time>2015-09-27T14:49:53Z</time></trkpt>
<trkpt lat="24.210692" lon="106.313975">
<time>2015-09-27T14:49:54Z</time></trkpt>
<trkpt lat="24.210673" lon="106.313646">
<time>2015-09-27T14:49:55Z</time></trkpt>
<trkpt lat="24.210644" lon="106.313267">
<time>2015-09-27T14:49:56Z</time></trkpt>
<trkpt lat="24.210516" lon="106.31193">
<time>2015-09-27T14:49:57Z</time></trkpt>
<trkpt lat="24.210477" lon="106.311521">
<time>2015-09-27T14:49:58Z</time></trkpt>
<trkpt lat="24.210418" lon="106.311222">
<time>2015-09-27T14:49:59Z</time></trkpt>
<trkpt lat="24.210338" lon="106.310932">
<time>2015-09-27T14:50:00Z</time></trkpt>
<trkpt lat="24.210258" lon="106.310703">
<time>2015-09-27T14:50:01Z</time></trkpt>
<trkpt lat="24.210019" lon="106.310074">
<time>2015-09-27T14:50:02Z</time></trkpt>
<trkpt lat="24.20994" lon="106.309865">
<time>2015-09-27T14:50:03Z</time></trkpt>
<trkpt lat="24.20984" lon="106.309585">
<time>2015-09-27T14:50:04Z</time></trkpt>
<trkpt lat="24.209781" lon="106.309356">
<time>2015-09-27T14:50:05Z</time></trkpt>
<trkpt lat="24.209751" lon="106.309246">
<time>2015-09-27T14:50:06Z</time></trkpt>
<trkpt lat="24.209721" lon="106.309047">
<time>2015-09-27T14:50:07Z</time></trkpt>
<trkpt lat="24.209622" lon="106.308338">
<time>2015-09-27T14:50:08Z</time></trkpt>
<trkpt lat="24.209553" lon="106.307889">
<time>2015-09-27T14:50:09Z</time></trkpt>
<trkpt lat="24.209494" lon="106.30745">
<time>2015-09-27T14:50:10Z</time></trkpt>
<trkpt lat="24.209445" lon="106.307061">
<time>2015-09-27T14:50:11Z</time></trkpt>
<trkpt lat="24.209435" lon="106.306792">
<time>2015-09-27T14:50:12Z</time></trkpt>
<trkpt lat="24.209446" lon="106.306562">
<time>2015-09-27T14:50:13Z</time></trkpt>
<trkpt lat="24.209486" lon="106.306113">
<time>2015-09-27T14:50:14Z</time></trkpt>
<trkpt lat="24.209557" lon="106.305644">
<time>2015-09-27T14:50:15Z</time></trkpt>
<trkpt lat="24.209608" lon="106.305415">
<time>2015-09-27T14:50:16Z</time></trkpt>
<trkpt lat="24.209668" lon="106.305155">
<time>2015-09-27T14:50:17Z</time></trkpt>
<trkpt lat="24.209779" lon="106.304836">
<time>2015-09-27T14:50:18Z</time></trkpt>
<trkpt lat="24.209869" lon="106.304607">
<time>2015-09-27T14:50:19Z</time></trkpt>
<trkpt lat="24.20997" lon="106.304387">
<time>2015-09-27T14:50:20Z</time></trkpt>
<trkpt lat="24.21008" lon="106.304197">
<time>2015-09-27T14:50:21Z</time></trkpt>
<trkpt lat="24.21018" lon="106.304058">
<time>2015-09-27T14:50:22Z</time></trkpt>
<trkpt lat="24.210291" lon="106.303908">
<time>2015-09-27T14:50:23Z</time></trkpt>
<trkpt lat="24.210752" lon="106.303319">
<time>2015-09-27T14:50:24Z</time></trkpt>
<trkpt lat="24.211414" lon="106.302431">
<time>2015-09-27T14:50:25Z</time></trkpt>
<trkpt lat="24.211745" lon="106.301982">
<time>2015-09-27T14:50:26Z</time></trkpt>
<trkpt lat="24.212065" lon="106.301593">
<time>2015-09-27T14:50:27Z</time></trkpt>
<trkpt lat="24.212176" lon="106.301483">
<time>2015-09-27T14:50:28Z</time></trkpt>
<trkpt lat="24.212296" lon="106.301383">
<time>2015-09-27T14:50:29Z</time></trkpt>
<trkpt lat="24.212456" lon="106.301274">
<time>2015-09-27T14:50:30Z</time></trkpt>
<trkpt lat="24.212636" lon="106.301184">
<time>2015-09-27T14:50:31Z</time></trkpt>
<trkpt lat="24.212776" lon="106.301134">
<time>2015-09-27T14:50:32Z</time></trkpt>
<trkpt lat="24.212927" lon="106.301084">
<time>2015-09-27T14:50:33Z</time></trkpt>
<trkpt lat="24.213107" lon="106.301054">
<time>2015-09-27T14:50:34Z</time></trkpt>
<trkpt lat="24.213267" lon="106.301054">
<time>2015-09-27T14:50:35Z</time></trkpt>
<trkpt lat="24.213437" lon="106.301074">
<time>2015-09-27T14:50:36Z</time></trkpt>
<trkpt lat="24.213597" lon="106.301114">
<time>2015-09-27T14:50:37Z</time></trkpt>
<trkpt lat="24.213757" lon="106.301184">
<time>2015-09-27T14:50:38Z</time></trkpt>
<trkpt lat="24.213847" lon="106.301244">
<time>2015-09-27T14:50:39Z</time></trkpt>
<trkpt lat="24.213927" lon="106.301313">
<time>2015-09-27T14:50:40Z</time></trkpt>
<trkpt lat="24.214056" lon="106.301483">
<time>2015-09-27T14:50:41Z</time></trkpt>
<trkpt lat="24.214106" lon="106.301553">
<time>2015-09-27T14:50:42Z</time></trkpt>
<trkpt lat="24.214376" lon="106.301952">
<time>2015-09-27T14:50:43Z</time></trkpt>
<trkpt lat="24.215193" lon="106.303359">
<time>2015-09-27T14:50:44Z</time></trkpt>
<trkpt lat="24.215782" lon="106.304217">
<time>2015-09-27T14:50:45Z</time></trkpt>
<trkpt lat="24.216431" lon="106.304926">
<time>2015-09-27T14:50:46Z</time></trkpt>
<trkpt lat="24.21707" lon="106.305554">
<time>2015-09-27T14:50:47Z</time></trkpt>
<trkpt lat="24.21784" lon="106.306183">
<time>2015-09-27T14:50:48Z</time></trkpt>
<trkpt lat="24.218249" lon="106.306482">
<time>2015-09-27T14:50:49Z</time></trkpt>
<trkpt lat="24.218569" lon="106.306741">
<time>2015-09-27T14:50:50Z</time></trkpt>
<trkpt lat="24.218839" lon="106.306951">
<time>2015-09-27T14:50:51Z</time></trkpt>
<trkpt lat="24.219048" lon="106.307101">
<time>2015-09-27T14:50:52Z</time></trkpt>
<trkpt lat="24.219248" lon="106.30722">
<time>2015-09-27T14:50:53Z</time></trkpt>
<trkpt lat="24.219418" lon="106.3073">
<time>2015-09-27T14:50:54Z</time></trkpt>
<trkpt lat="24.219628" lon="106.30737">
<time>2015-09-27T14:50:55Z</time></trkpt>
<trkpt lat="24.219828" lon="106.30742">
<time>2015-09-27T14:50:56Z</time></trkpt>
<trkpt lat="24.219988" lon="106.30744">
<time>2015-09-27T14:50:57Z</time></trkpt>
<trkpt lat="24.220178" lon="106.30745">
<time>2015-09-27T14:50:58Z</time></trkpt>
<trkpt lat="24.220418" lon="106.30744">
<time>2015-09-27T14:50:59Z</time></trkpt>
<trkpt lat="24.220768" lon="106.3074">
<time>2015-09-27T14:51:00Z</time></trkpt>
<trkpt lat="24.221699" lon="106.30725">
<time>2015-09-27T14:51:01Z</time></trkpt>
<trkpt lat="24.222019" lon="106.3072">
<time>2015-09-27T14:51:02Z</time></trkpt>
<trkpt lat="24.22232" lon="106.30714">
<time>2015-09-27T14:51:03Z</time></trkpt>
<trkpt lat="24.22254" lon="106.30708">
<time>2015-09-27T14:51:04Z</time></trkpt>
<trkpt lat="24.22283" lon="106.306971">
<time>2015-09-27T14:51:05Z</time></trkpt>
<trkpt lat="24.223" lon="106.306891">
<time>2015-09-27T14:51:06Z</time></trkpt>
<trkpt lat="24.223331" lon="106.306721">
<time>2015-09-27T14:51:07Z</time></trkpt>
<trkpt lat="24.223631" lon="106.306532">
<time>2015-09-27T14:51:08Z</time></trkpt>
<trkpt lat="24.223811" lon="106.306382">
<time>2015-09-27T14:51:09Z</time></trkpt>
<trkpt lat="24.224032" lon="106.306212">
<time>2015-09-27T14:51:10Z</time></trkpt>
<trkpt lat="24.224142" lon="106.306103">
<time>2015-09-27T14:51:11Z</time></trkpt>
<trkpt lat="24.224373" lon="106.305833">
<time>2015-09-27T14:51:12Z</time></trkpt>
<trkpt lat="24.224493" lon="106.305673">
<time>2015-09-27T14:51:13Z</time></trkpt>
<trkpt lat="24.224603" lon="106.305514">
<time>2015-09-27T14:51:14Z</time></trkpt>
<trkpt lat="24.224704" lon="106.305354">
<time>2015-09-27T14:51:15Z</time></trkpt>
<trkpt lat="24.224774" lon="106.305224">
<time>2015-09-27T14:51:16Z</time></trkpt>
<trkpt lat="24.224834" lon="106.305125">
<time>2015-09-27T14:51:17Z</time></trkpt>
<trkpt lat="24.224894" lon="106.304985">
<time>2015-09-27T14:51:18Z</time></trkpt>
<trkpt lat="24.224945" lon="106.304825">
<time>2015-09-27T14:51:19Z</time></trkpt>
<trkpt lat="24.225005" lon="106.304636">
<time>2015-09-27T14:51:20Z</time></trkpt>
<trkpt lat="24.225065" lon="106.304386">
<time>2015-09-27T14:51:21Z</time></trkpt>
<trkpt lat="24.225116" lon="106.304027">
<time>2015-09-27T14:51:22Z</time></trkpt>
<trkpt lat="24.225197" lon="106.303478">
<time>2015-09-27T14:51:23Z</time></trkpt>
<trkpt lat="24.225491" lon="106.301532">
<time>2015-09-27T14:51:24Z</time></trkpt>
<trkpt lat="24.225551" lon="106.301303">
<time>2015-09-27T14:51:25Z</time></trkpt>
<trkpt lat="24.225641" lon="106.301053">
<time>2015-09-27T14:51:26Z</time></trkpt>
<trkpt lat="24.225722" lon="106.300854">
<time>2015-09-27T14:51:27Z</time></trkpt>
<trkpt lat="24.225792" lon="106.300714">
<time>2015-09-27T14:51:28Z</time></trkpt>
<trkpt lat="24.225872" lon="106.300534">
<time>2015-09-27T14:51:29Z</time></trkpt>
<trkpt lat="24.225973" lon="106.300375">
<time>2015-09-27T14:51:30Z</time></trkpt>
<trkpt lat="24.226103" lon="106.300155">
<time>2015-09-27T14:51:31Z</time></trkpt>
<trkpt lat="24.226414" lon="106.299696">
<time>2015-09-27T14:51:32Z</time></trkpt>
<trkpt lat="24.226564" lon="106.299467">
<time>2015-09-27T14:51:33Z</time></trkpt>
<trkpt lat="24.226705" lon="106.299237">
<time>2015-09-27T14:51:34Z</time></trkpt>
<trkpt lat="24.226775" lon="106.299107">
<time>2015-09-27T14:51:35Z</time></trkpt>
<trkpt lat="24.226855" lon="106.298978">
<time>2015-09-27T14:51:36Z</time></trkpt>
<trkpt lat="24.226906" lon="106.298868">
<time>2015-09-27T14:51:37Z</time></trkpt>
<trkpt lat="24.227036" lon="106.298588">
<time>2015-09-27T14:51:38Z</time></trkpt>
<trkpt lat="24.227086" lon="106.298469">
<time>2015-09-27T14:51:39Z</time></trkpt>
<trkpt lat="24.227117" lon="106.298339">
<time>2015-09-27T14:51:40Z</time></trkpt>
<trkpt lat="24.227177" lon="106.298139">
<time>2015-09-27T14:51:41Z</time></trkpt>
<trkpt lat="24.227247" lon="106.29789">
<time>2015-09-27T14:51:42Z</time></trkpt>
<trkpt lat="24.227318" lon="106.29768">
<time>2015-09-27T14:51:43Z</time></trkpt>
<trkpt lat="24.227388" lon="106.297491">
<time>2015-09-27T14:51:44Z</time></trkpt>
<trkpt lat="24.227498" lon="106.297251">
<time>2015-09-27T14:51:45Z</time></trkpt>
<trkpt lat="24.227609" lon="106.297082">
<time>2015-09-27T14:51:46Z</time></trkpt>
<trkpt lat="24.227729" lon="106.296942">
<time>2015-09-27T14:51:47Z</time></trkpt>
<trkpt lat="24.227859" lon="106.296792">
<time>2015-09-27T14:51:48Z</time></trkpt>
<trkpt lat="24.22801" lon="106.296652">
<time>2015-09-27T14:51:49Z</time></trkpt>
<trkpt lat="24.2282" lon="106.296473">
<time>2015-09-27T14:51:50Z</time></trkpt>
<trkpt lat="24.229152" lon="106.295654">
<time>2015-09-27T14:51:51Z</time></trkpt>
<trkpt lat="24.229532" lon="106.295335">
<time>2015-09-27T14:51:52Z</time></trkpt>
<trkpt lat="24.229793" lon="106.295085">
<time>2015-09-27T14:51:53Z</time></trkpt>
<trkpt lat="24.229903" lon="106.294956">
<time>2015-09-27T14:51:54Z</time></trkpt>
<trkpt lat="24.230013" lon="106.294836">
<time>2015-09-27T14:51:55Z</time></trkpt>
<trkpt lat="24.230134" lon="106.294646">
<time>2015-09-27T14:51:56Z</time></trkpt>
<trkpt lat="24.230234" lon="106.294477">
<time>2015-09-27T14:51:57Z</time></trkpt>
<trkpt lat="24.230354" lon="106.294267">
<time>2015-09-27T14:51:58Z</time></trkpt>
<trkpt lat="24.230485" lon="106.294008">
<time>2015-09-27T14:51:59Z</time></trkpt>
<trkpt lat="24.230906" lon="106.293039">
<time>2015-09-27T14:52:00Z</time></trkpt>
<trkpt lat="24.231057" lon="106.29271">
<time>2015-09-27T14:52:01Z</time></trkpt>
<trkpt lat="24.231388" lon="106.292271">
<time>2015-09-27T14:52:02Z</time></trkpt>
<trkpt lat="24.231989" lon="106.291732">
<time>2015-09-27T14:52:03Z</time></trkpt>
<trkpt lat="24.233341" lon="106.290494">
<time>2015-09-27T14:52:04Z</time></trkpt>
<trkpt lat="24.234012" lon="106.289975">
<time>2015-09-27T14:52:05Z</time></trkpt>
<trkpt lat="24.234303" lon="106.289815">
<time>2015-09-27T14:52:06Z</time></trkpt>
<trkpt lat="24.234553" lon="106.289745">
<time>2015-09-27T14:52:07Z</time></trkpt>
<trkpt lat="24.234813" lon="106.289676">
<time>2015-09-27T14:52:08Z</time></trkpt>
<trkpt lat="24.235023" lon="106.289586">
<time>2015-09-27T14:52:09Z</time></trkpt>
<trkpt lat="24.235283" lon="106.289456">
<time>2015-09-27T14:52:10Z</time></trkpt>
<trkpt lat="24.235654" lon="106.289246">
<time>2015-09-27T14:52:11Z</time></trkpt>
<trkpt lat="24.235924" lon="106.289117">
<time>2015-09-27T14:52:12Z</time></trkpt>
<trkpt lat="24.236225" lon="106.288977">
<time>2015-09-27T14:52:13Z</time></trkpt>
<trkpt lat="24.236345" lon="106.288927">
<time>2015-09-27T14:52:14Z</time></trkpt>
<trkpt lat="24.236445" lon="106.288887">
<time>2015-09-27T14:52:15Z</time></trkpt>
<trkpt lat="24.236555" lon="106.288857">
<time>2015-09-27T14:52:16Z</time></trkpt>
<trkpt lat="24.236735" lon="106.288817">
<time>2015-09-27T14:52:17Z</time></trkpt>
<trkpt lat="24.236835" lon="106.288797">
<time>2015-09-27T14:52:18Z</time></trkpt>
<trkpt lat="24.237035" lon="106.288767">
<time>2015-09-27T14:52:19Z</time></trkpt>
<trkpt lat="24.237625" lon="106.288677">
<time>2015-09-27T14:52:20Z</time></trkpt>
<trkpt lat="24.237936" lon="106.288627">
<time>2015-09-27T14:52:21Z</time></trkpt>
<trkpt lat="24.238186" lon="106.288577">
<time>2015-09-27T14:52:22Z</time></trkpt>
<trkpt lat="24.238376" lon="106.288527">
<time>2015-09-27T14:52:23Z</time></trkpt>
<trkpt lat="24.238396" lon="106.288527">
<time>2015-09-27T14:52:24Z</time></trkpt>
<trkpt lat="24.238466" lon="106.288498">
<time>2015-09-27T14:52:25Z</time></trkpt>
<trkpt lat="24.238536" lon="106.288478">
<time>2015-09-27T14:52:26Z</time></trkpt>
<trkpt lat="24.238636" lon="106.288438">
<time>2015-09-27T14:52:27Z</time></trkpt>
<trkpt lat="24.238716" lon="106.288398">
<time>2015-09-27T14:52:28Z</time></trkpt>
<trkpt lat="24.238816" lon="106.288338">
<time>2015-09-27T14:52:29Z</time></trkpt>
<trkpt lat="24.238897" lon="106.288278">
<time>2015-09-27T14:52:30Z</time></trkpt>
<trkpt lat="24.239117" lon="106.288118">
<time>2015-09-27T14:52:31Z</time></trkpt>
<trkpt lat="24.239167" lon="106.288078">
<time>2015-09-27T14:52:32Z</time></trkpt>
<trkpt lat="24.239307" lon="106.287958">
<time>2015-09-27T14:52:33Z</time></trkpt>
<trkpt lat="24.239387" lon="106.287889">
<time>2015-09-27T14:52:34Z</time></trkpt>
<trkpt lat="24.239608" lon="106.287699">
<time>2015-09-27T14:52:35Z</time></trkpt>
<trkpt lat="24.239778" lon="106.287559">
<time>2015-09-27T14:52:36Z</time></trkpt>
<trkpt lat="24.239798" lon="106.287539">
<time>2015-09-27T14:52:37Z</time></trkpt>
<trkpt lat="24.239818" lon="106.287519">
<time>2015-09-27T14:52:38Z</time></trkpt>
<trkpt lat="24.239868" lon="106.287479">
<time>2015-09-27T14:52:39Z</time></trkpt>
<trkpt lat="24.239928" lon="106.287419">
<time>2015-09-27T14:52:40Z</time></trkpt>
<trkpt lat="24.239948" lon="106.287409">
<time>2015-09-27T14:52:41Z</time></trkpt>
<trkpt lat="24.239958" lon="106.287399">
<time>2015-09-27T14:52:42Z</time></trkpt>
<trkpt lat="24.239988" lon="106.287379">
<time>2015-09-27T14:52:43Z</time></trkpt>
<trkpt lat="24.240048" lon="106.28732">
<time>2015-09-27T14:52:44Z</time></trkpt>
<trkpt lat="24.240078" lon="106.28729">
<time>2015-09-27T14:52:45Z</time></trkpt>
<trkpt lat="24.240098" lon="106.28727">
<time>2015-09-27T14:52:46Z</time></trkpt>
<trkpt lat="24.240189" lon="106.28719">
<time>2015-09-27T14:52:47Z</time></trkpt>
<trkpt lat="24.240389" lon="106.28701">
<time>2015-09-27T14:52:48Z</time></trkpt>
<trkpt lat="24.240569" lon="106.28685">
<time>2015-09-27T14:52:49Z</time></trkpt>
<trkpt lat="24.240689" lon="106.28677">
<time>2015-09-27T14:52:50Z</time></trkpt>
<trkpt lat="24.24091" lon="106.286591">
<time>2015-09-27T14:52:51Z</time></trkpt>
<trkpt lat="24.24135" lon="106.286201">
<time>2015-09-27T14:52:52Z</time></trkpt>
<trkpt lat="24.241481" lon="106.286042">
<time>2015-09-27T14:52:53Z</time></trkpt>
<trkpt lat="24.241581" lon="106.285912">
<time>2015-09-27T14:52:54Z</time></trkpt>
<trkpt lat="24.241681" lon="106.285772">
<time>2015-09-27T14:52:55Z</time></trkpt>
<trkpt lat="24.241771" lon="106.285622">
<time>2015-09-27T14:52:56Z</time></trkpt>
<trkpt lat="24.241821" lon="106.285543">
<time>2015-09-27T14:52:57Z</time></trkpt>
<trkpt lat="24.241862" lon="106.285453">
<time>2015-09-27T14:52:58Z</time></trkpt>
<trkpt lat="24.241892" lon="106.285403">
<time>2015-09-27T14:52:59Z</time></trkpt>
<trkpt lat="24.241962" lon="106.285273">
<time>2015-09-27T14:53:00Z</time></trkpt>
<trkpt lat="24.242042" lon="106.285123">
<time>2015-09-27T14:53:01Z</time></trkpt>
<trkpt lat="24.242082" lon="106.285033">
<time>2015-09-27T14:53:02Z</time></trkpt>
<trkpt lat="24.242122" lon="106.284974">
<time>2015-09-27T14:53:03Z</time></trkpt>
<trkpt lat="24.242162" lon="106.284904">
<time>2015-09-27T14:53:04Z</time></trkpt>
<trkpt lat="24.242192" lon="106.284834">
<time>2015-09-27T14:53:05Z</time></trkpt>
<trkpt lat="24.242223" lon="106.284784">
<time>2015-09-27T14:53:06Z</time></trkpt>
<trkpt lat="24.242253" lon="106.284734">
<time>2015-09-27T14:53:07Z</time></trkpt>
<trkpt lat="24.242293" lon="106.284654">
<time>2015-09-27T14:53:08Z</time></trkpt>
<trkpt lat="24.242373" lon="106.284524">
<time>2015-09-27T14:53:09Z</time></trkpt>
<trkpt lat="24.242433" lon="106.284414">
<time>2015-09-27T14:53:10Z</time></trkpt>
<trkpt lat="24.242553" lon="106.284235">
<time>2015-09-27T14:53:11Z</time></trkpt>
<trkpt lat="24.242614" lon="106.284145">
<time>2015-09-27T14:53:12Z</time></trkpt>
<trkpt lat="24.242694" lon="106.284035">
<time>2015-09-27T14:53:13Z</time></trkpt>
<trkpt lat="24.242814" lon="106.283885">
<time>2015-09-27T14:53:14Z</time></trkpt>
<trkpt lat="24.243004" lon="106.283686">
<time>2015-09-27T14:53:15Z</time></trkpt>
<trkpt lat="24.243155" lon="106.283546">
<time>2015-09-27T14:53:16Z</time></trkpt>
<trkpt lat="24.243255" lon="106.283466">
<time>2015-09-27T14:53:17Z</time></trkpt>
<trkpt lat="24.243355" lon="106.283386">
<time>2015-09-27T14:53:18Z</time></trkpt>
<trkpt lat="24.243415" lon="106.283336">
<time>2015-09-27T14:53:19Z</time></trkpt>
<trkpt lat="24.243505" lon="106.283276">
<time>2015-09-27T14:53:20Z</time></trkpt>
<trkpt lat="24.243675" lon="106.283166">
<time>2015-09-27T14:53:21Z</time></trkpt>
<trkpt lat="24.243745" lon="106.283117">
<time>2015-09-27T14:53:22Z</time></trkpt>
<trkpt lat="24.243805" lon="106.283077">
<time>2015-09-27T14:53:23Z</time></trkpt>
<trkpt lat="24.243865" lon="106.283037">
<time>2015-09-27T14:53:24Z</time></trkpt>
<trkpt lat="24.244076" lon="106.282907">
<time>2015-09-27T14:53:25Z</time></trkpt>
<trkpt lat="24.244386" lon="106.282727">
<time>2015-09-27T14:53:26Z</time></trkpt>
<trkpt lat="24.244716" lon="106.282527">
<time>2015-09-27T14:53:27Z</time></trkpt>
<trkpt lat="24.245017" lon="106.282348">
<time>2015-09-27T14:53:28Z</time></trkpt>
<trkpt lat="24.245157" lon="106.282268">
<time>2015-09-27T14:53:29Z</time></trkpt>
<trkpt lat="24.245287" lon="106.282168">
<time>2015-09-27T14:53:30Z</time></trkpt>
<trkpt lat="24.245437" lon="106.282058">
<time>2015-09-27T14:53:31Z</time></trkpt>
<trkpt lat="24.245517" lon="106.281988">
<time>2015-09-27T14:53:32Z</time></trkpt>
<trkpt lat="24.245858" lon="106.281649">
<time>2015-09-27T14:53:33Z</time></trkpt>
<trkpt lat="24.246479" lon="106.28096">
<time>2015-09-27T14:53:34Z</time></trkpt>
<trkpt lat="24.2468" lon="106.280511">
<time>2015-09-27T14:53:35Z</time></trkpt>
<trkpt lat="24.24692" lon="106.280211">
<time>2015-09-27T14:53:36Z</time></trkpt>
<trkpt lat="24.247" lon="106.279991">
<time>2015-09-27T14:53:37Z</time></trkpt>
<trkpt lat="24.247041" lon="106.279812">
<time>2015-09-27T14:53:38Z</time></trkpt>
<trkpt lat="24.247111" lon="106.279462">
<time>2015-09-27T14:53:39Z</time></trkpt>
<trkpt lat="24.247151" lon="106.279143">
<time>2015-09-27T14:53:40Z</time></trkpt>
<trkpt lat="24.247192" lon="106.278713">
<time>2015-09-27T14:53:41Z</time></trkpt>
<trkpt lat="24.247212" lon="106.278294">
<time>2015-09-27T14:53:42Z</time></trkpt>
<trkpt lat="24.247203" lon="106.277825">
<time>2015-09-27T14:53:43Z</time></trkpt>
<trkpt lat="24.247203" lon="106.277405">
<time>2015-09-27T14:53:44Z</time></trkpt>
<trkpt lat="24.247204" lon="106.277285">
<time>2015-09-27T14:53:45Z</time></trkpt>
<trkpt lat="24.247214" lon="106.277166">
<time>2015-09-27T14:53:46Z</time></trkpt>
<trkpt lat="24.247234" lon="106.277046">
<time>2015-09-27T14:53:47Z</time></trkpt>
<trkpt lat="24.247254" lon="106.276956">
<time>2015-09-27T14:53:48Z</time></trkpt>
<trkpt lat="24.247284" lon="106.276876">
<time>2015-09-27T14:53:49Z</time></trkpt>
<trkpt lat="24.247324" lon="106.276806">
<time>2015-09-27T14:53:50Z</time></trkpt>
<trkpt lat="24.247384" lon="106.276726">
<time>2015-09-27T14:53:51Z</time></trkpt>
<trkpt lat="24.247444" lon="106.276656">
<time>2015-09-27T14:53:52Z</time></trkpt>
<trkpt lat="24.247534" lon="106.276586">
<time>2015-09-27T14:53:53Z</time></trkpt>
<trkpt lat="24.247625" lon="106.276536">
<time>2015-09-27T14:53:54Z</time></trkpt>
<trkpt lat="24.247735" lon="106.276497">
<time>2015-09-27T14:53:55Z</time></trkpt>
<trkpt lat="24.247875" lon="106.276457">
<time>2015-09-27T14:53:56Z</time></trkpt>
<trkpt lat="24.248075" lon="106.276407">
<time>2015-09-27T14:53:57Z</time></trkpt>
<trkpt lat="24.248525" lon="106.276327">
<time>2015-09-27T14:53:58Z</time></trkpt>
<trkpt lat="24.248885" lon="106.276267">
<time>2015-09-27T14:53:59Z</time></trkpt>
<trkpt lat="24.249286" lon="106.276207">
<time>2015-09-27T14:54:00Z</time></trkpt>
<trkpt lat="24.249996" lon="106.276097">
<time>2015-09-27T14:54:01Z</time></trkpt>
<trkpt lat="24.250756" lon="106.276067">
<time>2015-09-27T14:54:02Z</time></trkpt>
<trkpt lat="24.251617" lon="106.276067">
<time>2015-09-27T14:54:03Z</time></trkpt>
<trkpt lat="24.252187" lon="106.276077">
<time>2015-09-27T14:54:04Z</time></trkpt>
<trkpt lat="24.252507" lon="106.276057">
<time>2015-09-27T14:54:05Z</time></trkpt>
<trkpt lat="24.252687" lon="106.276027">
<time>2015-09-27T14:54:06Z</time></trkpt>
<trkpt lat="24.252877" lon="106.275977">
<time>2015-09-27T14:54:07Z</time></trkpt>
<trkpt lat="24.253137" lon="106.275857">
<time>2015-09-27T14:54:08Z</time></trkpt>
<trkpt lat="24.253458" lon="106.275657">
<time>2015-09-27T14:54:09Z</time></trkpt>
<trkpt lat="24.253968" lon="106.275338">
<time>2015-09-27T14:54:10Z</time></trkpt>
<trkpt lat="24.254248" lon="106.275138">
<time>2015-09-27T14:54:11Z</time></trkpt>
<trkpt lat="24.254389" lon="106.275018">
<time>2015-09-27T14:54:12Z</time></trkpt>
<trkpt lat="24.254459" lon="106.274938">
<time>2015-09-27T14:54:13Z</time></trkpt>
<trkpt lat="24.254509" lon="106.274858">
<time>2015-09-27T14:54:14Z</time></trkpt>
<trkpt lat="24.254559" lon="106.274769">
<time>2015-09-27T14:54:15Z</time></trkpt>
<trkpt lat="24.254609" lon="106.274639">
<time>2015-09-27T14:54:16Z</time></trkpt>
<trkpt lat="24.254659" lon="106.274449">
<time>2015-09-27T14:54:17Z</time></trkpt>
<trkpt lat="24.25472" lon="106.274129">
<time>2015-09-27T14:54:18Z</time></trkpt>
<trkpt lat="24.25485" lon="106.27354">
<time>2015-09-27T14:54:19Z</time></trkpt>
<trkpt lat="24.254931" lon="106.273231">
<time>2015-09-27T14:54:20Z</time></trkpt>
<trkpt lat="24.254991" lon="106.273061">
<time>2015-09-27T14:54:21Z</time></trkpt>
<trkpt lat="24.255041" lon="106.272931">
<time>2015-09-27T14:54:22Z</time></trkpt>
<trkpt lat="24.255121" lon="106.272761">
<time>2015-09-27T14:54:23Z</time></trkpt>
<trkpt lat="24.255211" lon="106.272591">
<time>2015-09-27T14:54:24Z</time></trkpt>
<trkpt lat="24.255392" lon="106.272302">
<time>2015-09-27T14:54:25Z</time></trkpt>
<trkpt lat="24.255582" lon="106.271982">
<time>2015-09-27T14:54:26Z</time></trkpt>
<trkpt lat="24.255712" lon="106.271752">
<time>2015-09-27T14:54:27Z</time></trkpt>
<trkpt lat="24.255803" lon="106.271543">
<time>2015-09-27T14:54:28Z</time></trkpt>
<trkpt lat="24.255883" lon="106.271363">
<time>2015-09-27T14:54:29Z</time></trkpt>
<trkpt lat="24.256033" lon="106.270914">
<time>2015-09-27T14:54:30Z</time></trkpt>
<trkpt lat="24.256083" lon="106.270814">
<time>2015-09-27T14:54:31Z</time></trkpt>
<trkpt lat="24.256224" lon="106.270494">
<time>2015-09-27T14:54:32Z</time></trkpt>
<trkpt lat="24.256304" lon="106.270344">
<time>2015-09-27T14:54:33Z</time></trkpt>
<trkpt lat="24.256384" lon="106.270194">
<time>2015-09-27T14:54:34Z</time></trkpt>
<trkpt lat="24.256474" lon="106.270065">
<time>2015-09-27T14:54:35Z</time></trkpt>
<trkpt lat="24.256564" lon="106.269965">
<time>2015-09-27T14:54:36Z</time></trkpt>
<trkpt lat="24.256684" lon="106.269845">
<time>2015-09-27T14:54:37Z</time></trkpt>
<trkpt lat="24.256875" lon="106.269715">
<time>2015-09-27T14:54:38Z</time></trkpt>
<trkpt lat="24.257035" lon="106.269625">
<time>2015-09-27T14:54:39Z</time></trkpt>
<trkpt lat="24.257205" lon="106.269555">
<time>2015-09-27T14:54:40Z</time></trkpt>
<trkpt lat="24.257375" lon="106.269505">
<time>2015-09-27T14:54:41Z</time></trkpt>
<trkpt lat="24.257665" lon="106.269455">
<time>2015-09-27T14:54:42Z</time></trkpt>
<trkpt lat="24.257885" lon="106.269445">
<time>2015-09-27T14:54:43Z</time></trkpt>
<trkpt lat="24.258405" lon="106.269425">
<time>2015-09-27T14:54:44Z</time></trkpt>
<trkpt lat="24.258826" lon="106.269415">
<time>2015-09-27T14:54:45Z</time></trkpt>
<trkpt lat="24.259526" lon="106.269395">
<time>2015-09-27T14:54:46Z</time></trkpt>
<trkpt lat="24.259946" lon="106.269355">
<time>2015-09-27T14:54:47Z</time></trkpt>
<trkpt lat="24.260316" lon="106.269285">
<time>2015-09-27T14:54:48Z</time></trkpt>
<trkpt lat="24.260646" lon="106.269165">
<time>2015-09-27T14:54:49Z</time></trkpt>
<trkpt lat="24.260917" lon="106.269065">
<time>2015-09-27T14:54:50Z</time></trkpt>
<trkpt lat="24.261077" lon="106.268986">
<time>2015-09-27T14:54:51Z</time></trkpt>
<trkpt lat="24.261217" lon="106.268906">
<time>2015-09-27T14:54:52Z</time></trkpt>
<trkpt lat="24.261577" lon="106.268686">
<time>2015-09-27T14:54:53Z</time></trkpt>
<trkpt lat="24.261987" lon="106.268436">
<time>2015-09-27T14:54:54Z</time></trkpt>
<trkpt lat="24.262478" lon="106.268136">
<time>2015-09-27T14:54:55Z</time></trkpt>
<trkpt lat="24.262748" lon="106.268007">
<time>2015-09-27T14:54:56Z</time></trkpt>
<trkpt lat="24.262938" lon="106.267927">
<time>2015-09-27T14:54:57Z</time></trkpt>
<trkpt lat="24.263399" lon="106.267787">
<time>2015-09-27T14:54:58Z</time></trkpt>
<trkpt lat="24.264239" lon="106.267557">
<time>2015-09-27T14:54:59Z</time></trkpt>
<trkpt lat="24.264489" lon="106.267487">
<time>2015-09-27T14:55:00Z</time></trkpt>
<trkpt lat="24.264809" lon="106.267377">
<time>2015-09-27T14:55:01Z</time></trkpt>
<trkpt lat="24.264959" lon="106.267307">
<time>2015-09-27T14:55:02Z</time></trkpt>
<trkpt lat="24.26513" lon="106.267217">
<time>2015-09-27T14:55:03Z</time></trkpt>
<trkpt lat="24.26529" lon="106.267107">
<time>2015-09-27T14:55:04Z</time></trkpt>
<trkpt lat="24.26541" lon="106.266988">
<time>2015-09-27T14:55:05Z</time></trkpt>
<trkpt lat="24.26552" lon="106.266868">
<time>2015-09-27T14:55:06Z</time></trkpt>
<trkpt lat="24.26562" lon="106.266698">
<time>2015-09-27T14:55:07Z</time></trkpt>
<trkpt lat="24.26567" lon="106.266568">
<time>2015-09-27T14:55:08Z</time></trkpt>
<trkpt lat="24.26571" lon="106.266448">
<time>2015-09-27T14:55:09Z</time></trkpt>
<trkpt lat="24.26573" lon="106.266328">
<time>2015-09-27T14:55:10Z</time></trkpt>
<trkpt lat="24.265741" lon="106.266218">
<time>2015-09-27T14:55:11Z</time></trkpt>
<trkpt lat="24.265731" lon="106.266069">
<time>2015-09-27T14:55:12Z</time></trkpt>
<trkpt lat="24.265711" lon="106.265919">
<time>2015-09-27T14:55:13Z</time></trkpt>
<trkpt lat="24.265661" lon="106.265779">
<time>2015-09-27T14:55:14Z</time></trkpt>
<trkpt lat="24.265601" lon="106.265619">
<time>2015-09-27T14:55:15Z</time></trkpt>
<trkpt lat="24.265521" lon="106.265469">
<time>2015-09-27T14:55:16Z</time></trkpt>
<trkpt lat="24.265431" lon="106.265319">
<time>2015-09-27T14:55:17Z</time></trkpt>
<trkpt lat="24.265321" lon="106.265179">
<time>2015-09-27T14:55:18Z</time></trkpt>
<trkpt lat="24.265181" lon="106.26501">
<time>2015-09-27T14:55:19Z</time></trkpt>
<trkpt lat="24.264841" lon="106.26466">
<time>2015-09-27T14:55:20Z</time></trkpt>
<trkpt lat="24.264731" lon="106.26452">
<time>2015-09-27T14:55:21Z</time></trkpt>
<trkpt lat="24.264631" lon="106.26439">
<time>2015-09-27T14:55:22Z</time></trkpt>
<trkpt lat="24.264552" lon="106.26425">
<time>2015-09-27T14:55:23Z</time></trkpt>
<trkpt lat="24.264502" lon="106.264091">
<time>2015-09-27T14:55:24Z</time></trkpt>
<trkpt lat="24.264462" lon="106.263861">
<time>2015-09-27T14:55:25Z</time></trkpt>
<trkpt lat="24.264452" lon="106.263691">
<time>2015-09-27T14:55:26Z</time></trkpt>
<trkpt lat="24.264492" lon="106.263521">
<time>2015-09-27T14:55:27Z</time></trkpt>
<trkpt lat="24.264542" lon="106.263331">
<time>2015-09-27T14:55:28Z</time></trkpt>
<trkpt lat="24.264632" lon="106.263131">
<time>2015-09-27T14:55:29Z</time></trkpt>
<trkpt lat="24.264782" lon="106.262912">
<time>2015-09-27T14:55:30Z</time></trkpt>
<trkpt lat="24.264933" lon="106.262712">
<time>2015-09-27T14:55:31Z</time></trkpt>
<trkpt lat="24.265443" lon="106.262092">
<time>2015-09-27T14:55:32Z</time></trkpt>
<trkpt lat="24.265774" lon="106.261723">
<time>2015-09-27T14:55:33Z</time></trkpt>
<trkpt lat="24.266094" lon="106.261323">
<time>2015-09-27T14:55:34Z</time></trkpt>
<trkpt lat="24.266384" lon="106.260923">
<time>2015-09-27T14:55:35Z</time></trkpt>
<trkpt lat="24.266985" lon="106.260004">
<time>2015-09-27T14:55:36Z</time></trkpt>
<trkpt lat="24.267345" lon="106.259414">
<time>2015-09-27T14:55:37Z</time></trkpt>
<trkpt lat="24.267826" lon="106.258715">
<time>2015-09-27T14:55:38Z</time></trkpt>
<trkpt lat="24.268146" lon="106.258325">
<time>2015-09-27T14:55:39Z</time></trkpt>
<trkpt lat="24.268356" lon="106.258115">
<time>2015-09-27T14:55:40Z</time></trkpt>
<trkpt lat="24.268957" lon="106.257626">
<time>2015-09-27T14:55:41Z</time></trkpt>
<trkpt lat="24.269197" lon="106.257446">
<time>2015-09-27T14:55:42Z</time></trkpt>
<trkpt lat="24.269487" lon="106.257176">
<time>2015-09-27T14:55:43Z</time></trkpt>
<trkpt lat="24.269947" lon="106.256716">
<time>2015-09-27T14:55:44Z</time></trkpt>
<trkpt lat="24.270468" lon="106.256177">
<time>2015-09-27T14:55:45Z</time></trkpt>
<trkpt lat="24.271178" lon="106.255477">
<time>2015-09-27T14:55:46Z</time></trkpt>
<trkpt lat="24.271869" lon="106.254847">
<time>2015-09-27T14:55:47Z</time></trkpt>
<trkpt lat="24.272619" lon="106.254158">
<time>2015-09-27T14:55:48Z</time></trkpt>
<trkpt lat="24.27336" lon="106.253478">
<time>2015-09-27T14:55:49Z</time></trkpt>
<trkpt lat="24.27386" lon="106.253028">
<time>2015-09-27T14:55:50Z</time></trkpt>
<trkpt lat="24.27435" lon="106.252628">
<time>2015-09-27T14:55:51Z</time></trkpt>
<trkpt lat="24.274891" lon="106.252209">
<time>2015-09-27T14:55:52Z</time></trkpt>
<trkpt lat="24.275281" lon="106.251899">
<time>2015-09-27T14:55:53Z</time></trkpt>
<trkpt lat="24.275581" lon="106.251649">
<time>2015-09-27T14:55:54Z</time></trkpt>
<trkpt lat="24.276121" lon="106.251129">
<time>2015-09-27T14:55:55Z</time></trkpt>
<trkpt lat="24.276341" lon="106.250919">
<time>2015-09-27T14:55:56Z</time></trkpt>
<trkpt lat="24.276541" lon="106.250679">
<time>2015-09-27T14:55:57Z</time></trkpt>
<trkpt lat="24.276832" lon="106.250309">
<time>2015-09-27T14:55:58Z</time></trkpt>
<trkpt lat="24.277052" lon="106.249999">
<time>2015-09-27T14:55:59Z</time></trkpt>
<trkpt lat="24.277162" lon="106.249839">
<time>2015-09-27T14:56:00Z</time></trkpt>
<trkpt lat="24.277502" lon="106.24933">
<time>2015-09-27T14:56:01Z</time></trkpt>
<trkpt lat="24.277892" lon="106.24881">
<time>2015-09-27T14:56:02Z</time></trkpt>
<trkpt lat="24.278122" lon="106.24854">
<time>2015-09-27T14:56:03Z</time></trkpt>
<trkpt lat="24.278522" lon="106.24817">
<time>2015-09-27T14:56:04Z</time></trkpt>
<trkpt lat="24.279113" lon="106.24769">
<time>2015-09-27T14:56:05Z</time></trkpt>
<trkpt lat="24.279833" lon="106.2471">
<time>2015-09-27T14:56:06Z</time></trkpt>
<trkpt lat="24.279863" lon="106.24708">
<time>2015-09-27T14:56:07Z</time></trkpt>
<trkpt lat="24.280023" lon="106.24696">
<time>2015-09-27T14:56:08Z</time></trkpt>
<trkpt lat="24.280323" lon="106.24679">
<time>2015-09-27T14:56:09Z</time></trkpt>
<trkpt lat="24.280683" lon="106.24664">
<time>2015-09-27T14:56:10Z</time></trkpt>
<trkpt lat="24.280903" lon="106.24652">
<time>2015-09-27T14:56:11Z</time></trkpt>
<trkpt lat="24.281113" lon="106.24639">
<time>2015-09-27T14:56:12Z</time></trkpt>
<trkpt lat="24.281534" lon="106.24608">
<time>2015-09-27T14:56:13Z</time></trkpt>
<trkpt lat="24.282014" lon="106.24569">
<time>2015-09-27T14:56:14Z</time></trkpt>
<trkpt lat="24.282664" lon="106.24518">
<time>2015-09-27T14:56:15Z</time></trkpt>
<trkpt lat="24.282864" lon="106.245">
<time>2015-09-27T14:56:16Z</time></trkpt>
<trkpt lat="24.283124" lon="106.24474">
<time>2015-09-27T14:56:17Z</time></trkpt>
<trkpt lat="24.283364" lon="106.244461">
<time>2015-09-27T14:56:18Z</time></trkpt>
<trkpt lat="24.283744" lon="106.243991">
<time>2015-09-27T14:56:19Z</time></trkpt>
<trkpt lat="24.284034" lon="106.243671">
<time>2015-09-27T14:56:20Z</time></trkpt>
<trkpt lat="24.285825" lon="106.241831">
<time>2015-09-27T14:56:21Z</time></trkpt>
<trkpt lat="24.286195" lon="106.241391">
<time>2015-09-27T14:56:22Z</time></trkpt>
<trkpt lat="24.286405" lon="106.241161">
<time>2015-09-27T14:56:23Z</time></trkpt>
<trkpt lat="24.286405" lon="106.241161">
<time>2015-09-27T14:56:24Z</time></trkpt>
<trkpt lat="24.286685" lon="106.240731">
<time>2015-09-27T14:56:25Z</time></trkpt>
<trkpt lat="24.286695" lon="106.240731">
<time>2015-09-27T14:56:26Z</time></trkpt>
<trkpt lat="24.286935" lon="106.240431">
<time>2015-09-27T14:56:27Z</time></trkpt>
<trkpt lat="24.287095" lon="106.240201">
<time>2015-09-27T14:56:28Z</time></trkpt>
<trkpt lat="24.287235" lon="106.240001">
<time>2015-09-27T14:56:29Z</time></trkpt>
<trkpt lat="24.287365" lon="106.239791">
<time>2015-09-27T14:56:30Z</time></trkpt>
<trkpt lat="24.287425" lon="106.239641">
<time>2015-09-27T14:56:31Z</time></trkpt>
<trkpt lat="24.287485" lon="106.239441">
<time>2015-09-27T14:56:32Z</time></trkpt>
<trkpt lat="24.287545" lon="106.23915">
<time>2015-09-27T14:56:33Z</time></trkpt>
<trkpt lat="24.287675" lon="106.23875">
<time>2015-09-27T14:56:34Z</time></trkpt>
<trkpt lat="24.287845" lon="106.2383">
<time>2015-09-27T14:56:35Z</time></trkpt>
<trkpt lat="24.288104" lon="106.23777">
<time>2015-09-27T14:56:36Z</time></trkpt>
<trkpt lat="24.288334" lon="106.23727">
<time>2015-09-27T14:56:37Z</time></trkpt>
<trkpt lat="24.288414" lon="106.23709">
<time>2015-09-27T14:56:38Z</time></trkpt>
<trkpt lat="24.288514" lon="106.23694">
<time>2015-09-27T14:56:39Z</time></trkpt>
<trkpt lat="24.288654" lon="106.23677">
<time>2015-09-27T14:56:40Z</time></trkpt>
<trkpt lat="24.288774" lon="106.23666">
<time>2015-09-27T14:56:41Z</time></trkpt>
<trkpt lat="24.288924" lon="106.23653">
<time>2015-09-27T14:56:42Z</time></trkpt>
<trkpt lat="24.289204" lon="106.23633">
<time>2015-09-27T14:56:43Z</time></trkpt>
<trkpt lat="24.289384" lon="106.23619">
<time>2015-09-27T14:56:44Z</time></trkpt>
<trkpt lat="24.289474" lon="106.2361">
<time>2015-09-27T14:56:45Z</time></trkpt>
<trkpt lat="24.289574" lon="106.23601">
<time>2015-09-27T14:56:46Z</time></trkpt>
<trkpt lat="24.289684" lon="106.23587">
<time>2015-09-27T14:56:47Z</time></trkpt>
<trkpt lat="24.289844" lon="106.23567">
<time>2015-09-27T14:56:48Z</time></trkpt>
<trkpt lat="24.289994" lon="106.23546">
<time>2015-09-27T14:56:49Z</time></trkpt>
<trkpt lat="24.290134" lon="106.23527">
<time>2015-09-27T14:56:50Z</time></trkpt>
<trkpt lat="24.290234" lon="106.23508">
<time>2015-09-27T14:56:51Z</time></trkpt>
<trkpt lat="24.290284" lon="106.23498">
<time>2015-09-27T14:56:52Z</time></trkpt>
<trkpt lat="24.290334" lon="106.23488">
<time>2015-09-27T14:56:53Z</time></trkpt>
<trkpt lat="24.290444" lon="106.23465">
<time>2015-09-27T14:56:54Z</time></trkpt>
<trkpt lat="24.290624" lon="106.234269">
<time>2015-09-27T14:56:55Z</time></trkpt>
<trkpt lat="24.290694" lon="106.234109">
<time>2015-09-27T14:56:56Z</time></trkpt>
<trkpt lat="24.290954" lon="106.233699">
<time>2015-09-27T14:56:57Z</time></trkpt>
<trkpt lat="24.291154" lon="106.233359">
<time>2015-09-27T14:56:58Z</time></trkpt>
<trkpt lat="24.291553" lon="106.232669">
<time>2015-09-27T14:56:59Z</time></trkpt>
<trkpt lat="24.291743" lon="106.232359">
<time>2015-09-27T14:57:00Z</time></trkpt>
<trkpt lat="24.291933" lon="106.232099">
<time>2015-09-27T14:57:01Z</time></trkpt>
<trkpt lat="24.292133" lon="106.231849">
<time>2015-09-27T14:57:02Z</time></trkpt>
<trkpt lat="24.292323" lon="106.231628">
<time>2015-09-27T14:57:03Z</time></trkpt>
<trkpt lat="24.292673" lon="106.231238">
<time>2015-09-27T14:57:04Z</time></trkpt>
<trkpt lat="24.292773" lon="106.231118">
<time>2015-09-27T14:57:05Z</time></trkpt>
<trkpt lat="24.292823" lon="106.231038">
<time>2015-09-27T14:57:06Z</time></trkpt>
<trkpt lat="24.293113" lon="106.230468">
<time>2015-09-27T14:57:07Z</time></trkpt>
<trkpt lat="24.293193" lon="106.230278">
<time>2015-09-27T14:57:08Z</time></trkpt>
<trkpt lat="24.293193" lon="106.230278">
<time>2015-09-27T14:57:09Z</time></trkpt>
<trkpt lat="24.293403" lon="106.229848">
<time>2015-09-27T14:57:10Z</time></trkpt>
<trkpt lat="24.293482" lon="106.229678">
<time>2015-09-27T14:57:11Z</time></trkpt>
<trkpt lat="24.293542" lon="106.229538">
<time>2015-09-27T14:57:12Z</time></trkpt>
<trkpt lat="24.293582" lon="106.229417">
<time>2015-09-27T14:57:13Z</time></trkpt>
<trkpt lat="24.293642" lon="106.229287">
<time>2015-09-27T14:57:14Z</time></trkpt>
<trkpt lat="24.293732" lon="106.229137">
<time>2015-09-27T14:57:15Z</time></trkpt>
<trkpt lat="24.293862" lon="106.228947">
<time>2015-09-27T14:57:16Z</time></trkpt>
<trkpt lat="24.294042" lon="106.228747">
<time>2015-09-27T14:57:17Z</time></trkpt>
<trkpt lat="24.294122" lon="106.228647">
<time>2015-09-27T14:57:18Z</time></trkpt>
<trkpt lat="24.294182" lon="106.228577">
<time>2015-09-27T14:57:19Z</time></trkpt>
<trkpt lat="24.294272" lon="106.228437">
<time>2015-09-27T14:57:20Z</time></trkpt>
<trkpt lat="24.294502" lon="106.228057">
<time>2015-09-27T14:57:21Z</time></trkpt>
<trkpt lat="24.294722" lon="106.227717">
<time>2015-09-27T14:57:22Z</time></trkpt>
<trkpt lat="24.294772" lon="106.227637">
<time>2015-09-27T14:57:23Z</time></trkpt>
<trkpt lat="24.294861" lon="106.227496">
<time>2015-09-27T14:57:24Z</time></trkpt>
<trkpt lat="24.294951" lon="106.227376">
<time>2015-09-27T14:57:25Z</time></trkpt>
<trkpt lat="24.295081" lon="106.227196">
<time>2015-09-27T14:57:26Z</time></trkpt>
<trkpt lat="24.295261" lon="106.226986">
<time>2015-09-27T14:57:27Z</time></trkpt>
<trkpt lat="24.295301" lon="106.226916">
<time>2015-09-27T14:57:28Z</time></trkpt>
<trkpt lat="24.295311" lon="106.226906">
<time>2015-09-27T14:57:29Z</time></trkpt>
<trkpt lat="24.295511" lon="106.226656">
<time>2015-09-27T14:57:30Z</time></trkpt>
<trkpt lat="24.295841" lon="106.226236">
<time>2015-09-27T14:57:31Z</time></trkpt>
<trkpt lat="24.295871" lon="106.226206">
<time>2015-09-27T14:57:32Z</time></trkpt>
<trkpt lat="24.296101" lon="106.225985">
<time>2015-09-27T14:57:33Z</time></trkpt>
<trkpt lat="24.296261" lon="106.225815">
<time>2015-09-27T14:57:34Z</time></trkpt>
<trkpt lat="24.296401" lon="106.225685">
<time>2015-09-27T14:57:35Z</time></trkpt>
<trkpt lat="24.296451" lon="106.225635">
<time>2015-09-27T14:57:36Z</time></trkpt>
<trkpt lat="24.296491" lon="106.225585">
<time>2015-09-27T14:57:37Z</time></trkpt>
<trkpt lat="24.296631" lon="106.225445">
<time>2015-09-27T14:57:38Z</time></trkpt>
<trkpt lat="24.29713" lon="106.224995">
<time>2015-09-27T14:57:39Z</time></trkpt>
<trkpt lat="24.2973" lon="106.224845">
<time>2015-09-27T14:57:40Z</time></trkpt>
<trkpt lat="24.2976" lon="106.224625">
<time>2015-09-27T14:57:41Z</time></trkpt>
<trkpt lat="24.29823" lon="106.224184">
<time>2015-09-27T14:57:42Z</time></trkpt>
<trkpt lat="24.29834" lon="106.224114">
<time>2015-09-27T14:57:43Z</time></trkpt>
<trkpt lat="24.29838" lon="106.224084">
<time>2015-09-27T14:57:44Z</time></trkpt>
<trkpt lat="24.29844" lon="106.224064">
<time>2015-09-27T14:57:45Z</time></trkpt>
<trkpt lat="24.29864" lon="106.224024">
<time>2015-09-27T14:57:46Z</time></trkpt>
<trkpt lat="24.29872" lon="106.224004">
<time>2015-09-27T14:57:47Z</time></trkpt>
<trkpt lat="24.29876" lon="106.223994">
<time>2015-09-27T14:57:48Z</time></trkpt>
<trkpt lat="24.29896" lon="106.223924">
<time>2015-09-27T14:57:49Z</time></trkpt>
<trkpt lat="24.29896" lon="106.223924">
<time>2015-09-27T14:57:50Z</time></trkpt>
<trkpt lat="24.298859" lon="106.222463">
<time>2015-09-27T14:57:51Z</time></trkpt>
<trkpt lat="24.298829" lon="106.222163">
<time>2015-09-27T14:57:52Z</time></trkpt>
<trkpt lat="24.298768" lon="106.221572">
<time>2015-09-27T14:57:53Z</time></trkpt>
<trkpt lat="24.298758" lon="106.221502">
<time>2015-09-27T14:57:54Z</time></trkpt>
<trkpt lat="24.298958" lon="106.221312">
<time>2015-09-27T14:57:55Z</time></trkpt>
<trkpt lat="24.299208" lon="106.221082">
<time>2015-09-27T14:57:56Z</time></trkpt>
<trkpt lat="24.300247" lon="106.220211">
<time>2015-09-27T14:57:57Z</time></trkpt>
<trkpt lat="24.301567" lon="106.21912">
<time>2015-09-27T14:57:58Z</time></trkpt>
<trkpt lat="24.303026" lon="106.218129">
<time>2015-09-27T14:57:59Z</time></trkpt>
<trkpt lat="24.303746" lon="106.217549">
<time>2015-09-27T14:58:00Z</time></trkpt>
<trkpt lat="24.304245" lon="106.217008">
<time>2015-09-27T14:58:01Z</time></trkpt>
<trkpt lat="24.304865" lon="106.216117">
<time>2015-09-27T14:58:02Z</time></trkpt>
<trkpt lat="24.304915" lon="106.216047">
<time>2015-09-27T14:58:03Z</time></trkpt>
<trkpt lat="24.305484" lon="106.215206">
<time>2015-09-27T14:58:04Z</time></trkpt>
<trkpt lat="24.305774" lon="106.214826">
<time>2015-09-27T14:58:05Z</time></trkpt>
<trkpt lat="24.306053" lon="106.214596">
<time>2015-09-27T14:58:06Z</time></trkpt>
<trkpt lat="24.306293" lon="106.214476">
<time>2015-09-27T14:58:07Z</time></trkpt>
<trkpt lat="24.306543" lon="106.214405">
<time>2015-09-27T14:58:08Z</time></trkpt>
<trkpt lat="24.306983" lon="106.214355">
<time>2015-09-27T14:58:09Z</time></trkpt>
<trkpt lat="24.307594" lon="106.214325">
<time>2015-09-27T14:58:10Z</time></trkpt>
<trkpt lat="24.308084" lon="106.214325">
<time>2015-09-27T14:58:11Z</time></trkpt>
<trkpt lat="24.308934" lon="106.214325">
<time>2015-09-27T14:58:12Z</time></trkpt>
<trkpt lat="24.309424" lon="106.214275">
<time>2015-09-27T14:58:13Z</time></trkpt>
<trkpt lat="24.309724" lon="106.214245">
<time>2015-09-27T14:58:14Z</time></trkpt>
<trkpt lat="24.310124" lon="106.214135">
<time>2015-09-27T14:58:15Z</time></trkpt>
<trkpt lat="24.310524" lon="106.213975">
<time>2015-09-27T14:58:16Z</time></trkpt>
<trkpt lat="24.310754" lon="106.213845">
<time>2015-09-27T14:58:17Z</time></trkpt>
<trkpt lat="24.311104" lon="106.213594">
<time>2015-09-27T14:58:18Z</time></trkpt>
<trkpt lat="24.311344" lon="106.213384">
<time>2015-09-27T14:58:19Z</time></trkpt>
<trkpt lat="24.311633" lon="106.213084">
<time>2015-09-27T14:58:20Z</time></trkpt>
<trkpt lat="24.312013" lon="106.212623">
<time>2015-09-27T14:58:21Z</time></trkpt>
<trkpt lat="24.312263" lon="106.212293">
<time>2015-09-27T14:58:22Z</time></trkpt>
<trkpt lat="24.312942" lon="106.211362">
<time>2015-09-27T14:58:23Z</time></trkpt>
<trkpt lat="24.313281" lon="106.210941">
<time>2015-09-27T14:58:24Z</time></trkpt>
<trkpt lat="24.313481" lon="106.210731">
<time>2015-09-27T14:58:25Z</time></trkpt>
<trkpt lat="24.313701" lon="106.210531">
<time>2015-09-27T14:58:26Z</time></trkpt>
<trkpt lat="24.313931" lon="106.210381">
<time>2015-09-27T14:58:27Z</time></trkpt>
<trkpt lat="24.314471" lon="106.21015">
<time>2015-09-27T14:58:28Z</time></trkpt>
<trkpt lat="24.314471" lon="106.21015">
<time>2015-09-27T14:58:29Z</time></trkpt>
<trkpt lat="24.315331" lon="106.20983">
<time>2015-09-27T14:58:30Z</time></trkpt>
<trkpt lat="24.316191" lon="106.20954">
<time>2015-09-27T14:58:31Z</time></trkpt>
<trkpt lat="24.316601" lon="106.209419">
<time>2015-09-27T14:58:32Z</time></trkpt>
<trkpt lat="24.317141" lon="106.209239">
<time>2015-09-27T14:58:33Z</time></trkpt>
<trkpt lat="24.31739" lon="106.209159">
<time>2015-09-27T14:58:34Z</time></trkpt>
<trkpt lat="24.31755" lon="106.209079">
<time>2015-09-27T14:58:35Z</time></trkpt>
<trkpt lat="24.31778" lon="106.208969">
<time>2015-09-27T14:58:36Z</time></trkpt>
<trkpt lat="24.31793" lon="106.208869">
<time>2015-09-27T14:58:37Z</time></trkpt>
<trkpt lat="24.31813" lon="106.208708">
<time>2015-09-27T14:58:38Z</time></trkpt>
<trkpt lat="24.31832" lon="106.208508">
<time>2015-09-27T14:58:39Z</time></trkpt>
<trkpt lat="24.31852" lon="106.208318">
<time>2015-09-27T14:58:40Z</time></trkpt>
<trkpt lat="24.318959" lon="106.207867">
<time>2015-09-27T14:58:41Z</time></trkpt>
<trkpt lat="24.319489" lon="106.207357">
<time>2015-09-27T14:58:42Z</time></trkpt>
<trkpt lat="24.320338" lon="106.206506">
<time>2015-09-27T14:58:43Z</time></trkpt>
<trkpt lat="24.320558" lon="106.206255">
<time>2015-09-27T14:58:44Z</time></trkpt>
<trkpt lat="24.320827" lon="106.205885">
<time>2015-09-27T14:58:45Z</time></trkpt>
<trkpt lat="24.321007" lon="106.205594">
<time>2015-09-27T14:58:46Z</time></trkpt>
<trkpt lat="24.321107" lon="106.205394">
<time>2015-09-27T14:58:47Z</time></trkpt>
<trkpt lat="24.321156" lon="106.205264">
<time>2015-09-27T14:58:48Z</time></trkpt>
<trkpt lat="24.321206" lon="106.205154">
<time>2015-09-27T14:58:49Z</time></trkpt>
<trkpt lat="24.321246" lon="106.205044">
<time>2015-09-27T14:58:50Z</time></trkpt>
<trkpt lat="24.321276" lon="106.204914">
<time>2015-09-27T14:58:51Z</time></trkpt>
<trkpt lat="24.321336" lon="106.204663">
<time>2015-09-27T14:58:52Z</time></trkpt>
<trkpt lat="24.321405" lon="106.204333">
<time>2015-09-27T14:58:53Z</time></trkpt>
<trkpt lat="24.321782" lon="106.201679">
<time>2015-09-27T14:58:54Z</time></trkpt>
<trkpt lat="24.32197" lon="106.200808">
<time>2015-09-27T14:58:55Z</time></trkpt>
<trkpt lat="24.322189" lon="106.200067">
<time>2015-09-27T14:58:56Z</time></trkpt>
<trkpt lat="24.322309" lon="106.199806">
<time>2015-09-27T14:58:57Z</time></trkpt>
<trkpt lat="24.322539" lon="106.199536">
<time>2015-09-27T14:58:58Z</time></trkpt>
<trkpt lat="24.322878" lon="106.199215">
<time>2015-09-27T14:58:59Z</time></trkpt>
<trkpt lat="24.323048" lon="106.199125">
<time>2015-09-27T14:59:00Z</time></trkpt>
<trkpt lat="24.323298" lon="106.199035">
<time>2015-09-27T14:59:01Z</time></trkpt>
<trkpt lat="24.323648" lon="106.198955">
<time>2015-09-27T14:59:02Z</time></trkpt>
<trkpt lat="24.323908" lon="106.198915">
<time>2015-09-27T14:59:03Z</time></trkpt>
<trkpt lat="24.324128" lon="106.198885">
<time>2015-09-27T14:59:04Z</time></trkpt>
<trkpt lat="24.325398" lon="106.198755">
<time>2015-09-27T14:59:05Z</time></trkpt>
<trkpt lat="24.325618" lon="106.198715">
<time>2015-09-27T14:59:06Z</time></trkpt>
<trkpt lat="24.325748" lon="106.198664">
<time>2015-09-27T14:59:07Z</time></trkpt>
<trkpt lat="24.325888" lon="106.198604">
<time>2015-09-27T14:59:08Z</time></trkpt>
<trkpt lat="24.326128" lon="106.198484">
<time>2015-09-27T14:59:09Z</time></trkpt>
<trkpt lat="24.326358" lon="106.198284">
<time>2015-09-27T14:59:10Z</time></trkpt>
<trkpt lat="24.326528" lon="106.198094">
<time>2015-09-27T14:59:11Z</time></trkpt>
<trkpt lat="24.326727" lon="106.197813">
<time>2015-09-27T14:59:12Z</time></trkpt>
<trkpt lat="24.326877" lon="106.197573">
<time>2015-09-27T14:59:13Z</time></trkpt>
<trkpt lat="24.327156" lon="106.197092">
<time>2015-09-27T14:59:14Z</time></trkpt>
<trkpt lat="24.327346" lon="106.196782">
<time>2015-09-27T14:59:15Z</time></trkpt>
<trkpt lat="24.327815" lon="106.19594">
<time>2015-09-27T14:59:16Z</time></trkpt>
<trkpt lat="24.327875" lon="106.19593">
<time>2015-09-27T14:59:17Z</time></trkpt>
<trkpt lat="24.328295" lon="106.19589">
<time>2015-09-27T14:59:18Z</time></trkpt>
<trkpt lat="24.328865" lon="106.19573">
<time>2015-09-27T14:59:19Z</time></trkpt>
<trkpt lat="24.329105" lon="106.19569">
<time>2015-09-27T14:59:20Z</time></trkpt>
<trkpt lat="24.329535" lon="106.19561">
<time>2015-09-27T14:59:21Z</time></trkpt>
<trkpt lat="24.329975" lon="106.195509">
<time>2015-09-27T14:59:22Z</time></trkpt>
<trkpt lat="24.330185" lon="106.195479">
<time>2015-09-27T14:59:23Z</time></trkpt>
<trkpt lat="24.330695" lon="106.195379">
<time>2015-09-27T14:59:24Z</time></trkpt>
<trkpt lat="24.330935" lon="106.195329">
<time>2015-09-27T14:59:25Z</time></trkpt>
<trkpt lat="24.331075" lon="106.195299">
<time>2015-09-27T14:59:26Z</time></trkpt>
<trkpt lat="24.331205" lon="106.195269">
<time>2015-09-27T14:59:27Z</time></trkpt>
<trkpt lat="24.331325" lon="106.195239">
<time>2015-09-27T14:59:28Z</time></trkpt>
<trkpt lat="24.331435" lon="106.195199">
<time>2015-09-27T14:59:29Z</time></trkpt>
<trkpt lat="24.331544" lon="106.195149">
<time>2015-09-27T14:59:30Z</time></trkpt>
<trkpt lat="24.331644" lon="106.195099">
<time>2015-09-27T14:59:31Z</time></trkpt>
<trkpt lat="24.331724" lon="106.195049">
<time>2015-09-27T14:59:32Z</time></trkpt>
<trkpt lat="24.331824" lon="106.194989">
<time>2015-09-27T14:59:33Z</time></trkpt>
<trkpt lat="24.331914" lon="106.194918">
<time>2015-09-27T14:59:34Z</time></trkpt>
<trkpt lat="24.331984" lon="106.194858">
<time>2015-09-27T14:59:35Z</time></trkpt>
<trkpt lat="24.332054" lon="106.194798">
<time>2015-09-27T14:59:36Z</time></trkpt>
<trkpt lat="24.332104" lon="106.194738">
<time>2015-09-27T14:59:37Z</time></trkpt>
<trkpt lat="24.332164" lon="106.194678">
<time>2015-09-27T14:59:38Z</time></trkpt>
<trkpt lat="24.332214" lon="106.194618">
<time>2015-09-27T14:59:39Z</time></trkpt>
<trkpt lat="24.332284" lon="106.194488">
<time>2015-09-27T14:59:40Z</time></trkpt>
<trkpt lat="24.332363" lon="106.194317">
<time>2015-09-27T14:59:41Z</time></trkpt>
<trkpt lat="24.332433" lon="106.194107">
<time>2015-09-27T14:59:42Z</time></trkpt>
<trkpt lat="24.332582" lon="106.193586">
<time>2015-09-27T14:59:43Z</time></trkpt>
<trkpt lat="24.332731" lon="106.193075">
<time>2015-09-27T14:59:44Z</time></trkpt>
<trkpt lat="24.332931" lon="106.192505">
<time>2015-09-27T14:59:45Z</time></trkpt>
<trkpt lat="24.33302" lon="106.192194">
<time>2015-09-27T14:59:46Z</time></trkpt>
<trkpt lat="24.33313" lon="106.191894">
<time>2015-09-27T14:59:47Z</time></trkpt>
<trkpt lat="24.333209" lon="106.191603">
<time>2015-09-27T14:59:48Z</time></trkpt>
<trkpt lat="24.333299" lon="106.191212">
<time>2015-09-27T14:59:49Z</time></trkpt>
<trkpt lat="24.333318" lon="106.191052">
<time>2015-09-27T14:59:50Z</time></trkpt>
<trkpt lat="24.333328" lon="106.190872">
<time>2015-09-27T14:59:51Z</time></trkpt>
<trkpt lat="24.333327" lon="106.190581">
<time>2015-09-27T14:59:52Z</time></trkpt>
<trkpt lat="24.333346" lon="106.18998">
<time>2015-09-27T14:59:53Z</time></trkpt>
<trkpt lat="24.333356" lon="106.18959">
<time>2015-09-27T14:59:54Z</time></trkpt>
<trkpt lat="24.333374" lon="106.188828">
<time>2015-09-27T14:59:55Z</time></trkpt>
<trkpt lat="24.333404" lon="106.188608">
<time>2015-09-27T14:59:56Z</time></trkpt>
<trkpt lat="24.333454" lon="106.188418">
<time>2015-09-27T14:59:57Z</time></trkpt>
<trkpt lat="24.333533" lon="106.188177">
<time>2015-09-27T14:59:58Z</time></trkpt>
<trkpt lat="24.333653" lon="106.187887">
<time>2015-09-27T14:59:59Z</time></trkpt>
<trkpt lat="24.33442" lon="106.186094">
<time>2015-09-27T15:00:00Z</time></trkpt>
<trkpt lat="24.334689" lon="106.185503">
<time>2015-09-27T15:00:01Z</time></trkpt>
<trkpt lat="24.334888" lon="106.185142">
<time>2015-09-27T15:00:02Z</time></trkpt>
<trkpt lat="24.334998" lon="106.185002">
<time>2015-09-27T15:00:03Z</time></trkpt>
<trkpt lat="24.335208" lon="106.184791">
<time>2015-09-27T15:00:04Z</time></trkpt>
<trkpt lat="24.335398" lon="106.184621">
<time>2015-09-27T15:00:05Z</time></trkpt>
<trkpt lat="24.335717" lon="106.184361">
<time>2015-09-27T15:00:06Z</time></trkpt>
<trkpt lat="24.335757" lon="106.18433">
<time>2015-09-27T15:00:07Z</time></trkpt>
<trkpt lat="24.335917" lon="106.1842">
<time>2015-09-27T15:00:08Z</time></trkpt>
<trkpt lat="24.336137" lon="106.18406">
<time>2015-09-27T15:00:09Z</time></trkpt>
<trkpt lat="24.336337" lon="106.18397">
<time>2015-09-27T15:00:10Z</time></trkpt>
<trkpt lat="24.336557" lon="106.18391">
<time>2015-09-27T15:00:11Z</time></trkpt>
<trkpt lat="24.336997" lon="106.18383">
<time>2015-09-27T15:00:12Z</time></trkpt>
<trkpt lat="24.337257" lon="106.183779">
<time>2015-09-27T15:00:13Z</time></trkpt>
<trkpt lat="24.337447" lon="106.183709">
<time>2015-09-27T15:00:14Z</time></trkpt>
<trkpt lat="24.337517" lon="106.183689">
<time>2015-09-27T15:00:15Z</time></trkpt>
<trkpt lat="24.337707" lon="106.183589">
<time>2015-09-27T15:00:16Z</time></trkpt>
<trkpt lat="24.337856" lon="106.183479">
<time>2015-09-27T15:00:17Z</time></trkpt>
<trkpt lat="24.337976" lon="106.183349">
<time>2015-09-27T15:00:18Z</time></trkpt>
<trkpt lat="24.338106" lon="106.183158">
<time>2015-09-27T15:00:19Z</time></trkpt>
<trkpt lat="24.338216" lon="106.182938">
<time>2015-09-27T15:00:20Z</time></trkpt>
<trkpt lat="24.338395" lon="106.182467">
<time>2015-09-27T15:00:21Z</time></trkpt>
<trkpt lat="24.338534" lon="106.182066">
<time>2015-09-27T15:00:22Z</time></trkpt>
<trkpt lat="24.338773" lon="106.181415">
<time>2015-09-27T15:00:23Z</time></trkpt>
<trkpt lat="24.338853" lon="106.181255">
<time>2015-09-27T15:00:24Z</time></trkpt>
<trkpt lat="24.338952" lon="106.181105">
<time>2015-09-27T15:00:25Z</time></trkpt>
<trkpt lat="24.339072" lon="106.180974">
<time>2015-09-27T15:00:26Z</time></trkpt>
<trkpt lat="24.339312" lon="106.180774">
<time>2015-09-27T15:00:27Z</time></trkpt>
<trkpt lat="24.339642" lon="106.180533">
<time>2015-09-27T15:00:28Z</time></trkpt>
<trkpt lat="24.340271" lon="106.180073">
<time>2015-09-27T15:00:29Z</time></trkpt>
<trkpt lat="24.34115" lon="106.179421">
<time>2015-09-27T15:00:30Z</time></trkpt>
<trkpt lat="24.34135" lon="106.179251">
<time>2015-09-27T15:00:31Z</time></trkpt>
<trkpt lat="24.341599" lon="106.178981">
<time>2015-09-27T15:00:32Z</time></trkpt>
<trkpt lat="24.341849" lon="106.17866">
<time>2015-09-27T15:00:33Z</time></trkpt>
<trkpt lat="24.342278" lon="106.178009">
<time>2015-09-27T15:00:34Z</time></trkpt>
<trkpt lat="24.342447" lon="106.177798">
<time>2015-09-27T15:00:35Z</time></trkpt>
<trkpt lat="24.342547" lon="106.177698">
<time>2015-09-27T15:00:36Z</time></trkpt>
<trkpt lat="24.342657" lon="106.177618">
<time>2015-09-27T15:00:37Z</time></trkpt>
<trkpt lat="24.342767" lon="106.177558">
<time>2015-09-27T15:00:38Z</time></trkpt>
<trkpt lat="24.342887" lon="106.177508">
<time>2015-09-27T15:00:39Z</time></trkpt>
<trkpt lat="24.342947" lon="106.177488">
<time>2015-09-27T15:00:40Z</time></trkpt>
<trkpt lat="24.343657" lon="106.177287">
<time>2015-09-27T15:00:41Z</time></trkpt>
<trkpt lat="24.343817" lon="106.177217">
<time>2015-09-27T15:00:42Z</time></trkpt>
<trkpt lat="24.343937" lon="106.177157">
<time>2015-09-27T15:00:43Z</time></trkpt>
<trkpt lat="24.344076" lon="106.177037">
<time>2015-09-27T15:00:44Z</time></trkpt>
<trkpt lat="24.344206" lon="106.176887">
<time>2015-09-27T15:00:45Z</time></trkpt>
<trkpt lat="24.344466" lon="106.176476">
<time>2015-09-27T15:00:46Z</time></trkpt>
<trkpt lat="24.344775" lon="106.175955">
<time>2015-09-27T15:00:47Z</time></trkpt>
<trkpt lat="24.345134" lon="106.175404">
<time>2015-09-27T15:00:48Z</time></trkpt>
<trkpt lat="24.345184" lon="106.175344">
<time>2015-09-27T15:00:49Z</time></trkpt>
<trkpt lat="24.345283" lon="106.175213">
<time>2015-09-27T15:00:50Z</time></trkpt>
<trkpt lat="24.345413" lon="106.175073">
<time>2015-09-27T15:00:51Z</time></trkpt>
<trkpt lat="24.345673" lon="106.174843">
<time>2015-09-27T15:00:52Z</time></trkpt>
<trkpt lat="24.345992" lon="106.174602">
<time>2015-09-27T15:00:53Z</time></trkpt>
<trkpt lat="24.346542" lon="106.174181">
<time>2015-09-27T15:00:54Z</time></trkpt>
<trkpt lat="24.346712" lon="106.174031">
<time>2015-09-27T15:00:55Z</time></trkpt>
<trkpt lat="24.346811" lon="106.173931">
<time>2015-09-27T15:00:56Z</time></trkpt>
<trkpt lat="24.346901" lon="106.173831">
<time>2015-09-27T15:00:57Z</time></trkpt>
<trkpt lat="24.346951" lon="106.173771">
<time>2015-09-27T15:00:58Z</time></trkpt>
<trkpt lat="24.347001" lon="106.17368">
<time>2015-09-27T15:00:59Z</time></trkpt>
<trkpt lat="24.347091" lon="106.17345">
<time>2015-09-27T15:01:00Z</time></trkpt>
<trkpt lat="24.34713" lon="106.17333">
<time>2015-09-27T15:01:01Z</time></trkpt>
<trkpt lat="24.34722" lon="106.173059">
<time>2015-09-27T15:01:02Z</time></trkpt>
<trkpt lat="24.347389" lon="106.172488">
<time>2015-09-27T15:01:03Z</time></trkpt>
<trkpt lat="24.347757" lon="106.171196">
<time>2015-09-27T15:01:04Z</time></trkpt>
<trkpt lat="24.347896" lon="106.170715">
<time>2015-09-27T15:01:05Z</time></trkpt>
<trkpt lat="24.347975" lon="106.170454">
<time>2015-09-27T15:01:06Z</time></trkpt>
<trkpt lat="24.348035" lon="106.170304">
<time>2015-09-27T15:01:07Z</time></trkpt>
<trkpt lat="24.348095" lon="106.170204">
<time>2015-09-27T15:01:08Z</time></trkpt>
<trkpt lat="24.348165" lon="106.170084">
<time>2015-09-27T15:01:09Z</time></trkpt>
<trkpt lat="24.348225" lon="106.170014">
<time>2015-09-27T15:01:10Z</time></trkpt>
<trkpt lat="24.348284" lon="106.169953">
<time>2015-09-27T15:01:11Z</time></trkpt>
<trkpt lat="24.348334" lon="106.169903">
<time>2015-09-27T15:01:12Z</time></trkpt>
<trkpt lat="24.348404" lon="106.169853">
<time>2015-09-27T15:01:13Z</time></trkpt>
<trkpt lat="24.348474" lon="106.169813">
<time>2015-09-27T15:01:14Z</time></trkpt>
<trkpt lat="24.348544" lon="106.169783">
<time>2015-09-27T15:01:15Z</time></trkpt>
<trkpt lat="24.348614" lon="106.169763">
<time>2015-09-27T15:01:16Z</time></trkpt>
<trkpt lat="24.348684" lon="106.169743">
<time>2015-09-27T15:01:17Z</time></trkpt>
<trkpt lat="24.348764" lon="106.169723">
<time>2015-09-27T15:01:18Z</time></trkpt>
<trkpt lat="24.348954" lon="106.169693">
<time>2015-09-27T15:01:19Z</time></trkpt>
<trkpt lat="24.349124" lon="106.169683">
<time>2015-09-27T15:01:20Z</time></trkpt>
<trkpt lat="24.349334" lon="106.169683">
<time>2015-09-27T15:01:21Z</time></trkpt>
<trkpt lat="24.349474" lon="106.169673">
<time>2015-09-27T15:01:22Z</time></trkpt>
<trkpt lat="24.349604" lon="106.169663">
<time>2015-09-27T15:01:23Z</time></trkpt>
<trkpt lat="24.349744" lon="106.169623">
<time>2015-09-27T15:01:24Z</time></trkpt>
<trkpt lat="24.349964" lon="106.169553">
<time>2015-09-27T15:01:25Z</time></trkpt>
<trkpt lat="24.350094" lon="106.169503">
<time>2015-09-27T15:01:26Z</time></trkpt>
<trkpt lat="24.350204" lon="106.169432">
<time>2015-09-27T15:01:27Z</time></trkpt>
<trkpt lat="24.350314" lon="106.169362">
<time>2015-09-27T15:01:28Z</time></trkpt>
<trkpt lat="24.350554" lon="106.169172">
<time>2015-09-27T15:01:29Z</time></trkpt>
<trkpt lat="24.351173" lon="106.168601">
<time>2015-09-27T15:01:30Z</time></trkpt>
<trkpt lat="24.351352" lon="106.16842">
<time>2015-09-27T15:01:31Z</time></trkpt>
<trkpt lat="24.351522" lon="106.16821">
<time>2015-09-27T15:01:32Z</time></trkpt>
<trkpt lat="24.351632" lon="106.16803">
<time>2015-09-27T15:01:33Z</time></trkpt>
<trkpt lat="24.351711" lon="106.167849">
<time>2015-09-27T15:01:34Z</time></trkpt>
<trkpt lat="24.351801" lon="106.167499">
<time>2015-09-27T15:01:35Z</time></trkpt>
<trkpt lat="24.351979" lon="106.166326">
<time>2015-09-27T15:01:36Z</time></trkpt>
<trkpt lat="24.352097" lon="106.165565">
<time>2015-09-27T15:01:37Z</time></trkpt>
<trkpt lat="24.352157" lon="106.165335">
<time>2015-09-27T15:01:38Z</time></trkpt>
<trkpt lat="24.352207" lon="106.165214">
<time>2015-09-27T15:01:39Z</time></trkpt>
<trkpt lat="24.352256" lon="106.165094">
<time>2015-09-27T15:01:40Z</time></trkpt>
<trkpt lat="24.352326" lon="106.164994">
<time>2015-09-27T15:01:41Z</time></trkpt>
<trkpt lat="24.352406" lon="106.164904">
<time>2015-09-27T15:01:42Z</time></trkpt>
<trkpt lat="24.352466" lon="106.164874">
<time>2015-09-27T15:01:43Z</time></trkpt>
<trkpt lat="24.352556" lon="106.164804">
<time>2015-09-27T15:01:44Z</time></trkpt>
<trkpt lat="24.352776" lon="106.164703">
<time>2015-09-27T15:01:45Z</time></trkpt>
<trkpt lat="24.354025" lon="106.164042">
<time>2015-09-27T15:01:46Z</time></trkpt>
<trkpt lat="24.354964" lon="106.163541">
<time>2015-09-27T15:01:47Z</time></trkpt>
<trkpt lat="24.355184" lon="106.163411">
<time>2015-09-27T15:01:48Z</time></trkpt>
<trkpt lat="24.355344" lon="106.163271">
<time>2015-09-27T15:01:49Z</time></trkpt>
<trkpt lat="24.355464" lon="106.16313">
<time>2015-09-27T15:01:50Z</time></trkpt>
<trkpt lat="24.355593" lon="106.16294">
<time>2015-09-27T15:01:51Z</time></trkpt>
<trkpt lat="24.355843" lon="106.162549">
<time>2015-09-27T15:01:52Z</time></trkpt>
<trkpt lat="24.356341" lon="106.161708">
<time>2015-09-27T15:01:53Z</time></trkpt>
<trkpt lat="24.356491" lon="106.161497">
<time>2015-09-27T15:01:54Z</time></trkpt>
<trkpt lat="24.356641" lon="106.161347">
<time>2015-09-27T15:01:55Z</time></trkpt>
<trkpt lat="24.35677" lon="106.161227">
<time>2015-09-27T15:01:56Z</time></trkpt>
<trkpt lat="24.35702" lon="106.161056">
<time>2015-09-27T15:01:57Z</time></trkpt>
<trkpt lat="24.35763" lon="106.160716">
<time>2015-09-27T15:01:58Z</time></trkpt>
<trkpt lat="24.358469" lon="106.160275">
<time>2015-09-27T15:01:59Z</time></trkpt>
<trkpt lat="24.358709" lon="106.160125">
<time>2015-09-27T15:02:00Z</time></trkpt>
<trkpt lat="24.359029" lon="106.159894">
<time>2015-09-27T15:02:01Z</time></trkpt>
<trkpt lat="24.359318" lon="106.159614">
<time>2015-09-27T15:02:02Z</time></trkpt>
<trkpt lat="24.359538" lon="106.159353">
<time>2015-09-27T15:02:03Z</time></trkpt>
<trkpt lat="24.359767" lon="106.159063">
<time>2015-09-27T15:02:04Z</time></trkpt>
<trkpt lat="24.359977" lon="106.158792">
<time>2015-09-27T15:02:05Z</time></trkpt>
<trkpt lat="24.360206" lon="106.158461">
<time>2015-09-27T15:02:06Z</time></trkpt>
<trkpt lat="24.360346" lon="106.158211">
<time>2015-09-27T15:02:07Z</time></trkpt>
<trkpt lat="24.360505" lon="106.15783">
<time>2015-09-27T15:02:08Z</time></trkpt>
<trkpt lat="24.360784" lon="106.157079">
<time>2015-09-27T15:02:09Z</time></trkpt>
<trkpt lat="24.361013" lon="106.156538">
<time>2015-09-27T15:02:10Z</time></trkpt>
<trkpt lat="24.361133" lon="106.156317">
<time>2015-09-27T15:02:11Z</time></trkpt>
<trkpt lat="24.361262" lon="106.156167">
<time>2015-09-27T15:02:12Z</time></trkpt>
<trkpt lat="24.36233" lon="106.154604">
<time>2015-09-27T15:02:13Z</time></trkpt>
<trkpt lat="24.363178" lon="106.153622">
<time>2015-09-27T15:02:14Z</time></trkpt>
<trkpt lat="24.364516" lon="106.15238">
<time>2015-09-27T15:02:15Z</time></trkpt>
<trkpt lat="24.365565" lon="106.151669">
<time>2015-09-27T15:02:16Z</time></trkpt>
<trkpt lat="24.368343" lon="106.149645">
<time>2015-09-27T15:02:17Z</time></trkpt>
<trkpt lat="24.368702" lon="106.149335">
<time>2015-09-27T15:02:18Z</time></trkpt>
<trkpt lat="24.368952" lon="106.148994">
<time>2015-09-27T15:02:19Z</time></trkpt>
<trkpt lat="24.369111" lon="106.148804">
<time>2015-09-27T15:02:20Z</time></trkpt>
<trkpt lat="24.369361" lon="106.148533">
<time>2015-09-27T15:02:21Z</time></trkpt>
<trkpt lat="24.369551" lon="106.148363">
<time>2015-09-27T15:02:22Z</time></trkpt>
<trkpt lat="24.36981" lon="106.148142">
<time>2015-09-27T15:02:23Z</time></trkpt>
<trkpt lat="24.36994" lon="106.148042">
<time>2015-09-27T15:02:24Z</time></trkpt>
<trkpt lat="24.37008" lon="106.147962">
<time>2015-09-27T15:02:25Z</time></trkpt>
<trkpt lat="24.37039" lon="106.147802">
<time>2015-09-27T15:02:26Z</time></trkpt>
<trkpt lat="24.37076" lon="106.147652">
<time>2015-09-27T15:02:27Z</time></trkpt>
<trkpt lat="24.37097" lon="106.147561">
<time>2015-09-27T15:02:28Z</time></trkpt>
<trkpt lat="24.37121" lon="106.147431">
<time>2015-09-27T15:02:29Z</time></trkpt>
<trkpt lat="24.371399" lon="106.147291">
<time>2015-09-27T15:02:30Z</time></trkpt>
<trkpt lat="24.371569" lon="106.147151">
<time>2015-09-27T15:02:31Z</time></trkpt>
<trkpt lat="24.371749" lon="106.14699">
<time>2015-09-27T15:02:32Z</time></trkpt>
<trkpt lat="24.371949" lon="106.14677">
<time>2015-09-27T15:02:33Z</time></trkpt>
<trkpt lat="24.372128" lon="106.14656">
<time>2015-09-27T15:02:34Z</time></trkpt>
<trkpt lat="24.372268" lon="106.146339">
<time>2015-09-27T15:02:35Z</time></trkpt>
<trkpt lat="24.372448" lon="106.146049">
<time>2015-09-27T15:02:36Z</time></trkpt>
<trkpt lat="24.372657" lon="106.145748">
<time>2015-09-27T15:02:37Z</time></trkpt>
<trkpt lat="24.37598" lon="106.14089">
<time>2015-09-27T15:02:38Z</time></trkpt>
<trkpt lat="24.37605" lon="106.1407">
<time>2015-09-27T15:02:39Z</time></trkpt>
<trkpt lat="24.37614" lon="106.14053">
<time>2015-09-27T15:02:40Z</time></trkpt>
<trkpt lat="24.376269" lon="106.140339">
<time>2015-09-27T15:02:41Z</time></trkpt>
<trkpt lat="24.376429" lon="106.140109">
<time>2015-09-27T15:02:42Z</time></trkpt>
<trkpt lat="24.376938" lon="106.139378">
<time>2015-09-27T15:02:43Z</time></trkpt>
<trkpt lat="24.377277" lon="106.138877">
<time>2015-09-27T15:02:44Z</time></trkpt>
<trkpt lat="24.377517" lon="106.138516">
<time>2015-09-27T15:02:45Z</time></trkpt>
<trkpt lat="24.377836" lon="106.137966">
<time>2015-09-27T15:02:46Z</time></trkpt>
<trkpt lat="24.378015" lon="106.137635">
<time>2015-09-27T15:02:47Z</time></trkpt>
<trkpt lat="24.378165" lon="106.137365">
<time>2015-09-27T15:02:48Z</time></trkpt>
<trkpt lat="24.378275" lon="106.137184">
<time>2015-09-27T15:02:49Z</time></trkpt>
<trkpt lat="24.378365" lon="106.137064">
<time>2015-09-27T15:02:50Z</time></trkpt>
<trkpt lat="24.378495" lon="106.136904">
<time>2015-09-27T15:02:51Z</time></trkpt>
<trkpt lat="24.378694" lon="106.136724">
<time>2015-09-27T15:02:52Z</time></trkpt>
<trkpt lat="24.387355" lon="106.128322">
<time>2015-09-27T15:02:53Z</time></trkpt>
<trkpt lat="24.387744" lon="106.127871">
<time>2015-09-27T15:02:54Z</time></trkpt>
<trkpt lat="24.387884" lon="106.127711">
<time>2015-09-27T15:02:55Z</time></trkpt>
<trkpt lat="24.388084" lon="106.127521">
<time>2015-09-27T15:02:56Z</time></trkpt>
<trkpt lat="24.388284" lon="106.127341">
<time>2015-09-27T15:02:57Z</time></trkpt>
<trkpt lat="24.388594" lon="106.1271">
<time>2015-09-27T15:02:58Z</time></trkpt>
<trkpt lat="24.389323" lon="106.12658">
<time>2015-09-27T15:02:59Z</time></trkpt>
<trkpt lat="24.389923" lon="106.126139">
<time>2015-09-27T15:03:00Z</time></trkpt>
<trkpt lat="24.390642" lon="106.125609">
<time>2015-09-27T15:03:01Z</time></trkpt>
<trkpt lat="24.390932" lon="106.125408">
<time>2015-09-27T15:03:02Z</time></trkpt>
<trkpt lat="24.391152" lon="106.125258">
<time>2015-09-27T15:03:03Z</time></trkpt>
<trkpt lat="24.391222" lon="106.125208">
<time>2015-09-27T15:03:04Z</time></trkpt>
<trkpt lat="24.391372" lon="106.125108">
<time>2015-09-27T15:03:05Z</time></trkpt>
<trkpt lat="24.391492" lon="106.125008">
<time>2015-09-27T15:03:06Z</time></trkpt>
<trkpt lat="24.391762" lon="106.124808">
<time>2015-09-27T15:03:07Z</time></trkpt>
<trkpt lat="24.392002" lon="106.124647">
<time>2015-09-27T15:03:08Z</time></trkpt>
<trkpt lat="24.392161" lon="106.124497">
<time>2015-09-27T15:03:09Z</time></trkpt>
<trkpt lat="24.392221" lon="106.124417">
<time>2015-09-27T15:03:10Z</time></trkpt>
<trkpt lat="24.392291" lon="106.124317">
<time>2015-09-27T15:03:11Z</time></trkpt>
<trkpt lat="24.392361" lon="106.124187">
<time>2015-09-27T15:03:12Z</time></trkpt>
<trkpt lat="24.392471" lon="106.123927">
<time>2015-09-27T15:03:13Z</time></trkpt>
<trkpt lat="24.39274" lon="106.123086">
<time>2015-09-27T15:03:14Z</time></trkpt>
<trkpt lat="24.39282" lon="106.122835">
<time>2015-09-27T15:03:15Z</time></trkpt>
<trkpt lat="24.392949" lon="106.122595">
<time>2015-09-27T15:03:16Z</time></trkpt>
<trkpt lat="24.393179" lon="106.122275">
<time>2015-09-27T15:03:17Z</time></trkpt>
<trkpt lat="24.393289" lon="106.122145">
<time>2015-09-27T15:03:18Z</time></trkpt>
<trkpt lat="24.393449" lon="106.121995">
<time>2015-09-27T15:03:19Z</time></trkpt>
<trkpt lat="24.393749" lon="106.121794">
<time>2015-09-27T15:03:20Z</time></trkpt>
<trkpt lat="24.394179" lon="106.121574">
<time>2015-09-27T15:03:21Z</time></trkpt>
<trkpt lat="24.394539" lon="106.121424">
<time>2015-09-27T15:03:22Z</time></trkpt>
<trkpt lat="24.394899" lon="106.121274">
<time>2015-09-27T15:03:23Z</time></trkpt>
<trkpt lat="24.395139" lon="106.121194">
<time>2015-09-27T15:03:24Z</time></trkpt>
<trkpt lat="24.395299" lon="106.121164">
<time>2015-09-27T15:03:25Z</time></trkpt>
<trkpt lat="24.395509" lon="106.121144">
<time>2015-09-27T15:03:26Z</time></trkpt>
<trkpt lat="24.395899" lon="106.121104">
<time>2015-09-27T15:03:27Z</time></trkpt>
<trkpt lat="24.396129" lon="106.121074">
<time>2015-09-27T15:03:28Z</time></trkpt>
<trkpt lat="24.396259" lon="106.121043">
<time>2015-09-27T15:03:29Z</time></trkpt>
<trkpt lat="24.396339" lon="106.121033">
<time>2015-09-27T15:03:30Z</time></trkpt>
<trkpt lat="24.396389" lon="106.121003">
<time>2015-09-27T15:03:31Z</time></trkpt>
<trkpt lat="24.396499" lon="106.120953">
<time>2015-09-27T15:03:32Z</time></trkpt>
<trkpt lat="24.396579" lon="106.120883">
<time>2015-09-27T15:03:33Z</time></trkpt>
<trkpt lat="24.396688" lon="106.120773">
<time>2015-09-27T15:03:34Z</time></trkpt>
<trkpt lat="24.397208" lon="106.120163">
<time>2015-09-27T15:03:35Z</time></trkpt>
<trkpt lat="24.397498" lon="106.119832">
<time>2015-09-27T15:03:36Z</time></trkpt>
<trkpt lat="24.397797" lon="106.119512">
<time>2015-09-27T15:03:37Z</time></trkpt>
<trkpt lat="24.398037" lon="106.119322">
<time>2015-09-27T15:03:38Z</time></trkpt>
<trkpt lat="24.398397" lon="106.119092">
<time>2015-09-27T15:03:39Z</time></trkpt>
<trkpt lat="24.398587" lon="106.118941">
<time>2015-09-27T15:03:40Z</time></trkpt>
<trkpt lat="24.398677" lon="106.118841">
<time>2015-09-27T15:03:41Z</time></trkpt>
<trkpt lat="24.398747" lon="106.118721">
<time>2015-09-27T15:03:42Z</time></trkpt>
<trkpt lat="24.398797" lon="106.118581">
<time>2015-09-27T15:03:43Z</time></trkpt>
<trkpt lat="24.398847" lon="106.118381">
<time>2015-09-27T15:03:44Z</time></trkpt>
<trkpt lat="24.399066" lon="106.11738">
<time>2015-09-27T15:03:45Z</time></trkpt>
<trkpt lat="24.399136" lon="106.11711">
<time>2015-09-27T15:03:46Z</time></trkpt>
<trkpt lat="24.399215" lon="106.11691">
<time>2015-09-27T15:03:47Z</time></trkpt>
<trkpt lat="24.399295" lon="106.116759">
<time>2015-09-27T15:03:48Z</time></trkpt>
<trkpt lat="24.399385" lon="106.116619">
<time>2015-09-27T15:03:49Z</time></trkpt>
<trkpt lat="24.399485" lon="106.116499">
<time>2015-09-27T15:03:50Z</time></trkpt>
<trkpt lat="24.399605" lon="106.116399">
<time>2015-09-27T15:03:51Z</time></trkpt>
<trkpt lat="24.400125" lon="106.115959">
<time>2015-09-27T15:03:52Z</time></trkpt>
<trkpt lat="24.400605" lon="106.115548">
<time>2015-09-27T15:03:53Z</time></trkpt>
<trkpt lat="24.400844" lon="106.115328">
<time>2015-09-27T15:03:54Z</time></trkpt>
<trkpt lat="24.401024" lon="106.115118">
<time>2015-09-27T15:03:55Z</time></trkpt>
<trkpt lat="24.401214" lon="106.114788">
<time>2015-09-27T15:03:56Z</time></trkpt>
<trkpt lat="24.401434" lon="106.114398">
<time>2015-09-27T15:03:57Z</time></trkpt>
<trkpt lat="24.401643" lon="106.113997">
<time>2015-09-27T15:03:58Z</time></trkpt>
<trkpt lat="24.401753" lon="106.113627">
<time>2015-09-27T15:03:59Z</time></trkpt>
<trkpt lat="24.401803" lon="106.113247">
<time>2015-09-27T15:04:00Z</time></trkpt>
<trkpt lat="24.401822" lon="106.112426">
<time>2015-09-27T15:04:01Z</time></trkpt>
<trkpt lat="24.401842" lon="106.112096">
<time>2015-09-27T15:04:02Z</time></trkpt>
<trkpt lat="24.401872" lon="106.111816">
<time>2015-09-27T15:04:03Z</time></trkpt>
<trkpt lat="24.401992" lon="106.111516">
<time>2015-09-27T15:04:04Z</time></trkpt>
<trkpt lat="24.402122" lon="106.111305">
<time>2015-09-27T15:04:05Z</time></trkpt>
<trkpt lat="24.402252" lon="106.111165">
<time>2015-09-27T15:04:06Z</time></trkpt>
<trkpt lat="24.402451" lon="106.110985">
<time>2015-09-27T15:04:07Z</time></trkpt>
<trkpt lat="24.402771" lon="106.110795">
<time>2015-09-27T15:04:08Z</time></trkpt>
<trkpt lat="24.403011" lon="106.110625">
<time>2015-09-27T15:04:09Z</time></trkpt>
<trkpt lat="24.403151" lon="106.110475">
<time>2015-09-27T15:04:10Z</time></trkpt>
<trkpt lat="24.403311" lon="106.110235">
<time>2015-09-27T15:04:11Z</time></trkpt>
<trkpt lat="24.403441" lon="106.109995">
<time>2015-09-27T15:04:12Z</time></trkpt>
<trkpt lat="24.403551" lon="106.109845">
<time>2015-09-27T15:04:13Z</time></trkpt>
<trkpt lat="24.403711" lon="106.109705">
<time>2015-09-27T15:04:14Z</time></trkpt>
<trkpt lat="24.403941" lon="106.109554">
<time>2015-09-27T15:04:15Z</time></trkpt>
<trkpt lat="24.404271" lon="106.109384">
<time>2015-09-27T15:04:16Z</time></trkpt>
<trkpt lat="24.404651" lon="106.109154">
<time>2015-09-27T15:04:17Z</time></trkpt>
<trkpt lat="24.405001" lon="106.108884">
<time>2015-09-27T15:04:18Z</time></trkpt>
<trkpt lat="24.405491" lon="106.108434">
<time>2015-09-27T15:04:19Z</time></trkpt>
<trkpt lat="24.40583" lon="106.108074">
<time>2015-09-27T15:04:20Z</time></trkpt>
<trkpt lat="24.40613" lon="106.107673">
<time>2015-09-27T15:04:21Z</time></trkpt>
<trkpt lat="24.40641" lon="106.107273">
<time>2015-09-27T15:04:22Z</time></trkpt>
<trkpt lat="24.40653" lon="106.107123">
<time>2015-09-27T15:04:23Z</time></trkpt>
<trkpt lat="24.40672" lon="106.106903">
<time>2015-09-27T15:04:24Z</time></trkpt>
<trkpt lat="24.40692" lon="106.106723">
<time>2015-09-27T15:04:25Z</time></trkpt>
<trkpt lat="24.40769" lon="106.106073">
<time>2015-09-27T15:04:26Z</time></trkpt>
<trkpt lat="24.40789" lon="106.105883">
<time>2015-09-27T15:04:27Z</time></trkpt>
<trkpt lat="24.40798" lon="106.105793">
<time>2015-09-27T15:04:28Z</time></trkpt>
<trkpt lat="24.40805" lon="106.105703">
<time>2015-09-27T15:04:29Z</time></trkpt>
<trkpt lat="24.40814" lon="106.105512">
<time>2015-09-27T15:04:30Z</time></trkpt>
<trkpt lat="24.4082" lon="106.105332">
<time>2015-09-27T15:04:31Z</time></trkpt>
<trkpt lat="24.408339" lon="106.104732">
<time>2015-09-27T15:04:32Z</time></trkpt>
<trkpt lat="24.408479" lon="106.104012">
<time>2015-09-27T15:04:33Z</time></trkpt>
<trkpt lat="24.408519" lon="106.103882">
<time>2015-09-27T15:04:34Z</time></trkpt>
<trkpt lat="24.408569" lon="106.103762">
<time>2015-09-27T15:04:35Z</time></trkpt>
<trkpt lat="24.408609" lon="106.103662">
<time>2015-09-27T15:04:36Z</time></trkpt>
<trkpt lat="24.408729" lon="106.103512">
<time>2015-09-27T15:04:37Z</time></trkpt>
<trkpt lat="24.408899" lon="106.103342">
<time>2015-09-27T15:04:38Z</time></trkpt>
<trkpt lat="24.409209" lon="106.103092">
<time>2015-09-27T15:04:39Z</time></trkpt>
<trkpt lat="24.410259" lon="106.102321">
<time>2015-09-27T15:04:40Z</time></trkpt>
<trkpt lat="24.410599" lon="106.102081">
<time>2015-09-27T15:04:41Z</time></trkpt>
<trkpt lat="24.411219" lon="106.101721">
<time>2015-09-27T15:04:42Z</time></trkpt>
<trkpt lat="24.411659" lon="106.101501">
<time>2015-09-27T15:04:43Z</time></trkpt>
<trkpt lat="24.412009" lon="106.101331">
<time>2015-09-27T15:04:44Z</time></trkpt>
<trkpt lat="24.412509" lon="106.101031">
<time>2015-09-27T15:04:45Z</time></trkpt>
<trkpt lat="24.412769" lon="106.100891">
<time>2015-09-27T15:04:46Z</time></trkpt>
<trkpt lat="24.413239" lon="106.100621">
<time>2015-09-27T15:04:47Z</time></trkpt>
<trkpt lat="24.413519" lon="106.100441">
<time>2015-09-27T15:04:48Z</time></trkpt>
<trkpt lat="24.413719" lon="106.100261">
<time>2015-09-27T15:04:49Z</time></trkpt>
<trkpt lat="24.413899" lon="106.100061">
<time>2015-09-27T15:04:50Z</time></trkpt>
<trkpt lat="24.414039" lon="106.099861">
<time>2015-09-27T15:04:51Z</time></trkpt>
<trkpt lat="24.414259" lon="106.099501">
<time>2015-09-27T15:04:52Z</time></trkpt>
<trkpt lat="24.415329" lon="106.097811">
<time>2015-09-27T15:04:53Z</time></trkpt>
<trkpt lat="24.415949" lon="106.096941">
<time>2015-09-27T15:04:54Z</time></trkpt>
<trkpt lat="24.416409" lon="106.096351">
<time>2015-09-27T15:04:55Z</time></trkpt>
<trkpt lat="24.416669" lon="106.096031">
<time>2015-09-27T15:04:56Z</time></trkpt>
<trkpt lat="24.417059" lon="106.095581">
<time>2015-09-27T15:04:57Z</time></trkpt>
<trkpt lat="24.417269" lon="106.095371">
<time>2015-09-27T15:04:58Z</time></trkpt>
<trkpt lat="24.417369" lon="106.095291">
<time>2015-09-27T15:04:59Z</time></trkpt>
<trkpt lat="24.417459" lon="106.095221">
<time>2015-09-27T15:05:00Z</time></trkpt>
<trkpt lat="24.417869" lon="106.094931">
<time>2015-09-27T15:05:01Z</time></trkpt>
<trkpt lat="24.418239" lon="106.094721">
<time>2015-09-27T15:05:02Z</time></trkpt>
<trkpt lat="24.41853" lon="106.094571">
<time>2015-09-27T15:05:03Z</time></trkpt>
<trkpt lat="24.41897" lon="106.094421">
<time>2015-09-27T15:05:04Z</time></trkpt>
<trkpt lat="24.41923" lon="106.094331">
<time>2015-09-27T15:05:05Z</time></trkpt>
<trkpt lat="24.41947" lon="106.094231">
<time>2015-09-27T15:05:06Z</time></trkpt>
<trkpt lat="24.41966" lon="106.094121">
<time>2015-09-27T15:05:07Z</time></trkpt>
<trkpt lat="24.41982" lon="106.094001">
<time>2015-09-27T15:05:08Z</time></trkpt>
<trkpt lat="24.41999" lon="106.093831">
<time>2015-09-27T15:05:09Z</time></trkpt>
<trkpt lat="24.42018" lon="106.093621">
<time>2015-09-27T15:05:10Z</time></trkpt>
<trkpt lat="24.42097" lon="106.092581">
<time>2015-09-27T15:05:11Z</time></trkpt>
<trkpt lat="24.42175" lon="106.091531">
<time>2015-09-27T15:05:12Z</time></trkpt>
<trkpt lat="24.422241" lon="106.090892">
<time>2015-09-27T15:05:13Z</time></trkpt>
<trkpt lat="24.423041" lon="106.089792">
<time>2015-09-27T15:05:14Z</time></trkpt>
<trkpt lat="24.423791" lon="106.088772">
<time>2015-09-27T15:05:15Z</time></trkpt>
<trkpt lat="24.424102" lon="106.088363">
<time>2015-09-27T15:05:16Z</time></trkpt>
<trkpt lat="24.424522" lon="106.087813">
<time>2015-09-27T15:05:17Z</time></trkpt>
<trkpt lat="24.424692" lon="106.087543">
<time>2015-09-27T15:05:18Z</time></trkpt>
<trkpt lat="24.424902" lon="106.087073">
<time>2015-09-27T15:05:19Z</time></trkpt>
<trkpt lat="24.425012" lon="106.086773">
<time>2015-09-27T15:05:20Z</time></trkpt>
<trkpt lat="24.425423" lon="106.085604">
<time>2015-09-27T15:05:21Z</time></trkpt>
<trkpt lat="24.425693" lon="106.084864">
<time>2015-09-27T15:05:22Z</time></trkpt>
<trkpt lat="24.426134" lon="106.083815">
<time>2015-09-27T15:05:23Z</time></trkpt>
<trkpt lat="24.426254" lon="106.083505">
<time>2015-09-27T15:05:24Z</time></trkpt>
<trkpt lat="24.426514" lon="106.082896">
<time>2015-09-27T15:05:25Z</time></trkpt>
<trkpt lat="24.426705" lon="106.082516">
<time>2015-09-27T15:05:26Z</time></trkpt>
<trkpt lat="24.426765" lon="106.082406">
<time>2015-09-27T15:05:27Z</time></trkpt>
<trkpt lat="24.426845" lon="106.082286">
<time>2015-09-27T15:05:28Z</time></trkpt>
<trkpt lat="24.426995" lon="106.082096">
<time>2015-09-27T15:05:29Z</time></trkpt>
<trkpt lat="24.427345" lon="106.081757">
<time>2015-09-27T15:05:30Z</time></trkpt>
<trkpt lat="24.428126" lon="106.081017">
<time>2015-09-27T15:05:31Z</time></trkpt>
<trkpt lat="24.428436" lon="106.080717">
<time>2015-09-27T15:05:32Z</time></trkpt>
<trkpt lat="24.429097" lon="106.080128">
<time>2015-09-27T15:05:33Z</time></trkpt>
<trkpt lat="24.430187" lon="106.079248">
<time>2015-09-27T15:05:34Z</time></trkpt>
<trkpt lat="24.430418" lon="106.079069">
<time>2015-09-27T15:05:35Z</time></trkpt>
<trkpt lat="24.430708" lon="106.078829">
<time>2015-09-27T15:05:36Z</time></trkpt>
<trkpt lat="24.430918" lon="106.078639">
<time>2015-09-27T15:05:37Z</time></trkpt>
<trkpt lat="24.431108" lon="106.078419">
<time>2015-09-27T15:05:38Z</time></trkpt>
<trkpt lat="24.431268" lon="106.078179">
<time>2015-09-27T15:05:39Z</time></trkpt>
<trkpt lat="24.431479" lon="106.07781">
<time>2015-09-27T15:05:40Z</time></trkpt>
<trkpt lat="24.431829" lon="106.07718">
<time>2015-09-27T15:05:41Z</time></trkpt>
<trkpt lat="24.43206" lon="106.076791">
<time>2015-09-27T15:05:42Z</time></trkpt>
<trkpt lat="24.43233" lon="106.076321">
<time>2015-09-27T15:05:43Z</time></trkpt>
<trkpt lat="24.432651" lon="106.075812">
<time>2015-09-27T15:05:44Z</time></trkpt>
<trkpt lat="24.433081" lon="106.075202">
<time>2015-09-27T15:05:45Z</time></trkpt>
<trkpt lat="24.433572" lon="106.074583">
<time>2015-09-27T15:05:46Z</time></trkpt>
<trkpt lat="24.434513" lon="106.073504">
<time>2015-09-27T15:05:47Z</time></trkpt>
<trkpt lat="24.435274" lon="106.072565">
<time>2015-09-27T15:05:48Z</time></trkpt>
<trkpt lat="24.435965" lon="106.071677">
<time>2015-09-27T15:05:49Z</time></trkpt>
<trkpt lat="24.436766" lon="106.070718">
<time>2015-09-27T15:05:50Z</time></trkpt>
<trkpt lat="24.437367" lon="106.070069">
<time>2015-09-27T15:05:51Z</time></trkpt>
<trkpt lat="24.437678" lon="106.069729">
<time>2015-09-27T15:05:52Z</time></trkpt>
<trkpt lat="24.437878" lon="106.069519">
<time>2015-09-27T15:05:53Z</time></trkpt>
<trkpt lat="24.437898" lon="106.069499">
<time>2015-09-27T15:05:54Z</time></trkpt>
<trkpt lat="24.438068" lon="106.06931">
<time>2015-09-27T15:05:55Z</time></trkpt>
<trkpt lat="24.438599" lon="106.06874">
<time>2015-09-27T15:05:56Z</time></trkpt>
<trkpt lat="24.43967" lon="106.067622">
<time>2015-09-27T15:05:57Z</time></trkpt>
<trkpt lat="24.440401" lon="106.066933">
<time>2015-09-27T15:05:58Z</time></trkpt>
<trkpt lat="24.440582" lon="106.066763">
<time>2015-09-27T15:05:59Z</time></trkpt>
<trkpt lat="24.440892" lon="106.066484">
<time>2015-09-27T15:06:00Z</time></trkpt>
<trkpt lat="24.441102" lon="106.066274">
<time>2015-09-27T15:06:01Z</time></trkpt>
<trkpt lat="24.441793" lon="106.065665">
<time>2015-09-27T15:06:02Z</time></trkpt>
<trkpt lat="24.442124" lon="106.065375">
<time>2015-09-27T15:06:03Z</time></trkpt>
<trkpt lat="24.442364" lon="106.065235">
<time>2015-09-27T15:06:04Z</time></trkpt>
<trkpt lat="24.442544" lon="106.065126">
<time>2015-09-27T15:06:05Z</time></trkpt>
<trkpt lat="24.442724" lon="106.065046">
<time>2015-09-27T15:06:06Z</time></trkpt>
<trkpt lat="24.443035" lon="106.064936">
<time>2015-09-27T15:06:07Z</time></trkpt>
<trkpt lat="24.444175" lon="106.064606">
<time>2015-09-27T15:06:08Z</time></trkpt>
<trkpt lat="24.444465" lon="106.064487">
<time>2015-09-27T15:06:09Z</time></trkpt>
<trkpt lat="24.444596" lon="106.064387">
<time>2015-09-27T15:06:10Z</time></trkpt>
<trkpt lat="24.444716" lon="106.064267">
<time>2015-09-27T15:06:11Z</time></trkpt>
<trkpt lat="24.444806" lon="106.064137">
<time>2015-09-27T15:06:12Z</time></trkpt>
<trkpt lat="24.444876" lon="106.063997">
<time>2015-09-27T15:06:13Z</time></trkpt>
<trkpt lat="24.444926" lon="106.063848">
<time>2015-09-27T15:06:14Z</time></trkpt>
<trkpt lat="24.444936" lon="106.063798">
<time>2015-09-27T15:06:15Z</time></trkpt>
<trkpt lat="24.444967" lon="106.063688">
<time>2015-09-27T15:06:16Z</time></trkpt>
<trkpt lat="24.444967" lon="106.063498">
<time>2015-09-27T15:06:17Z</time></trkpt>
<trkpt lat="24.444928" lon="106.063029">
<time>2015-09-27T15:06:18Z</time></trkpt>
<trkpt lat="24.444868" lon="106.06266">
<time>2015-09-27T15:06:19Z</time></trkpt>
<trkpt lat="24.444749" lon="106.06218">
<time>2015-09-27T15:06:20Z</time></trkpt>
<trkpt lat="24.444719" lon="106.062081">
<time>2015-09-27T15:06:21Z</time></trkpt>
<trkpt lat="24.444579" lon="106.061701">
<time>2015-09-27T15:06:22Z</time></trkpt>
<trkpt lat="24.44434" lon="106.061162">
<time>2015-09-27T15:06:23Z</time></trkpt>
<trkpt lat="24.444081" lon="106.060623">
<time>2015-09-27T15:06:24Z</time></trkpt>
<trkpt lat="24.443911" lon="106.060254">
<time>2015-09-27T15:06:25Z</time></trkpt>
<trkpt lat="24.443822" lon="106.060064">
<time>2015-09-27T15:06:26Z</time></trkpt>
<trkpt lat="24.443772" lon="106.059964">
<time>2015-09-27T15:06:27Z</time></trkpt>
<trkpt lat="24.443772" lon="106.059944">
<time>2015-09-27T15:06:28Z</time></trkpt>
<trkpt lat="24.443712" lon="106.059805">
<time>2015-09-27T15:06:29Z</time></trkpt>
<trkpt lat="24.443612" lon="106.059585">
<time>2015-09-27T15:06:30Z</time></trkpt>
<trkpt lat="24.443553" lon="106.059346">
<time>2015-09-27T15:06:31Z</time></trkpt>
<trkpt lat="24.443533" lon="106.059146">
<time>2015-09-27T15:06:32Z</time></trkpt>
<trkpt lat="24.443543" lon="106.058926">
<time>2015-09-27T15:06:33Z</time></trkpt>
<trkpt lat="24.443614" lon="106.058697">
<time>2015-09-27T15:06:34Z</time></trkpt>
<trkpt lat="24.443704" lon="106.058487">
<time>2015-09-27T15:06:35Z</time></trkpt>
<trkpt lat="24.443804" lon="106.058337">
<time>2015-09-27T15:06:36Z</time></trkpt>
<trkpt lat="24.443905" lon="106.058208">
<time>2015-09-27T15:06:37Z</time></trkpt>
<trkpt lat="24.444015" lon="106.058078">
<time>2015-09-27T15:06:38Z</time></trkpt>
<trkpt lat="24.444285" lon="106.057789">
<time>2015-09-27T15:06:39Z</time></trkpt>
<trkpt lat="24.444606" lon="106.057419">
<time>2015-09-27T15:06:40Z</time></trkpt>
<trkpt lat="24.444847" lon="106.05711">
<time>2015-09-27T15:06:41Z</time></trkpt>
<trkpt lat="24.445027" lon="106.05683">
<time>2015-09-27T15:06:42Z</time></trkpt>
<trkpt lat="24.445488" lon="106.056132">
<time>2015-09-27T15:06:43Z</time></trkpt>
<trkpt lat="24.445649" lon="106.055902">
<time>2015-09-27T15:06:44Z</time></trkpt>
<trkpt lat="24.446" lon="106.055473">
<time>2015-09-27T15:06:45Z</time></trkpt>
<trkpt lat="24.44622" lon="106.055214">
<time>2015-09-27T15:06:46Z</time></trkpt>
<trkpt lat="24.44644" lon="106.054994">
<time>2015-09-27T15:06:47Z</time></trkpt>
<trkpt lat="24.446661" lon="106.054735">
<time>2015-09-27T15:06:48Z</time></trkpt>
<trkpt lat="24.446821" lon="106.054535">
<time>2015-09-27T15:06:49Z</time></trkpt>
<trkpt lat="24.446922" lon="106.054385">
<time>2015-09-27T15:06:50Z</time></trkpt>
<trkpt lat="24.447042" lon="106.054176">
<time>2015-09-27T15:06:51Z</time></trkpt>
<trkpt lat="24.447152" lon="106.053966">
<time>2015-09-27T15:06:52Z</time></trkpt>
<trkpt lat="24.447283" lon="106.053697">
<time>2015-09-27T15:06:53Z</time></trkpt>
<trkpt lat="24.447685" lon="106.052709">
<time>2015-09-27T15:06:54Z</time></trkpt>
<trkpt lat="24.447946" lon="106.05211">
<time>2015-09-27T15:06:55Z</time></trkpt>
<trkpt lat="24.448127" lon="106.051721">
<time>2015-09-27T15:06:56Z</time></trkpt>
<trkpt lat="24.448468" lon="106.051112">
<time>2015-09-27T15:06:57Z</time></trkpt>
<trkpt lat="24.448789" lon="106.050613">
<time>2015-09-27T15:06:58Z</time></trkpt>
<trkpt lat="24.4492" lon="106.050035">
<time>2015-09-27T15:06:59Z</time></trkpt>
<trkpt lat="24.449541" lon="106.049626">
<time>2015-09-27T15:07:00Z</time></trkpt>
<trkpt lat="24.449842" lon="106.049336">
<time>2015-09-27T15:07:01Z</time></trkpt>
<trkpt lat="24.450212" lon="106.048997">
<time>2015-09-27T15:07:02Z</time></trkpt>
<trkpt lat="24.450623" lon="106.048618">
<time>2015-09-27T15:07:03Z</time></trkpt>
<trkpt lat="24.450904" lon="106.048299">
<time>2015-09-27T15:07:04Z</time></trkpt>
<trkpt lat="24.451064" lon="106.048049">
<time>2015-09-27T15:07:05Z</time></trkpt>
<trkpt lat="24.451155" lon="106.047889">
<time>2015-09-27T15:07:06Z</time></trkpt>
<trkpt lat="24.451305" lon="106.04757">
<time>2015-09-27T15:07:07Z</time></trkpt>
<trkpt lat="24.451577" lon="106.046892">
<time>2015-09-27T15:07:08Z</time></trkpt>
<trkpt lat="24.451758" lon="106.046453">
<time>2015-09-27T15:07:09Z</time></trkpt>
<trkpt lat="24.451999" lon="106.046024">
<time>2015-09-27T15:07:10Z</time></trkpt>
<trkpt lat="24.45224" lon="106.045665">
<time>2015-09-27T15:07:11Z</time></trkpt>
<trkpt lat="24.45245" lon="106.045346">
<time>2015-09-27T15:07:12Z</time></trkpt>
<trkpt lat="24.453133" lon="106.044338">
<time>2015-09-27T15:07:13Z</time></trkpt>
<trkpt lat="24.454206" lon="106.042772">
<time>2015-09-27T15:07:14Z</time></trkpt>
<trkpt lat="24.454878" lon="106.041765">
<time>2015-09-27T15:07:15Z</time></trkpt>
<trkpt lat="24.455541" lon="106.040907">
<time>2015-09-27T15:07:16Z</time></trkpt>
<trkpt lat="24.456082" lon="106.040268">
<time>2015-09-27T15:07:17Z</time></trkpt>
<trkpt lat="24.456543" lon="106.0397">
<time>2015-09-27T15:07:18Z</time></trkpt>
<trkpt lat="24.456885" lon="106.039141">
<time>2015-09-27T15:07:19Z</time></trkpt>
<trkpt lat="24.457206" lon="106.038603">
<time>2015-09-27T15:07:20Z</time></trkpt>
<trkpt lat="24.457477" lon="106.038144">
<time>2015-09-27T15:07:21Z</time></trkpt>
<trkpt lat="24.457769" lon="106.037645">
<time>2015-09-27T15:07:22Z</time></trkpt>
<trkpt lat="24.45808" lon="106.037137">
<time>2015-09-27T15:07:23Z</time></trkpt>
<trkpt lat="24.458261" lon="106.036818">
<time>2015-09-27T15:07:24Z</time></trkpt>
<trkpt lat="24.458451" lon="106.036479">
<time>2015-09-27T15:07:25Z</time></trkpt>
<trkpt lat="24.458642" lon="106.036149">
<time>2015-09-27T15:07:26Z</time></trkpt>
<trkpt lat="24.458843" lon="106.03585">
<time>2015-09-27T15:07:27Z</time></trkpt>
<trkpt lat="24.459054" lon="106.035571">
<time>2015-09-27T15:07:28Z</time></trkpt>
<trkpt lat="24.459284" lon="106.035292">
<time>2015-09-27T15:07:29Z</time></trkpt>
<trkpt lat="24.459615" lon="106.034933">
<time>2015-09-27T15:07:30Z</time></trkpt>
<trkpt lat="24.460007" lon="106.034484">
<time>2015-09-27T15:07:31Z</time></trkpt>
<trkpt lat="24.460368" lon="106.033986">
<time>2015-09-27T15:07:32Z</time></trkpt>
<trkpt lat="24.460739" lon="106.033457">
<time>2015-09-27T15:07:33Z</time></trkpt>
<trkpt lat="24.46087" lon="106.033278">
<time>2015-09-27T15:07:34Z</time></trkpt>
<trkpt lat="24.46107" lon="106.032988">
<time>2015-09-27T15:07:35Z</time></trkpt>
<trkpt lat="24.461241" lon="106.032739">
<time>2015-09-27T15:07:36Z</time></trkpt>
<trkpt lat="24.461382" lon="106.03249">
<time>2015-09-27T15:07:37Z</time></trkpt>
<trkpt lat="24.461482" lon="106.03226">
<time>2015-09-27T15:07:38Z</time></trkpt>
<trkpt lat="24.461633" lon="106.031872">
<time>2015-09-27T15:07:39Z</time></trkpt>
<trkpt lat="24.461734" lon="106.031652">
<time>2015-09-27T15:07:40Z</time></trkpt>
<trkpt lat="24.461865" lon="106.031413">
<time>2015-09-27T15:07:41Z</time></trkpt>
<trkpt lat="24.461975" lon="106.031233">
<time>2015-09-27T15:07:42Z</time></trkpt>
<trkpt lat="24.462075" lon="106.031104">
<time>2015-09-27T15:07:43Z</time></trkpt>
<trkpt lat="24.462216" lon="106.030954">
<time>2015-09-27T15:07:44Z</time></trkpt>
<trkpt lat="24.462808" lon="106.030336">
<time>2015-09-27T15:07:45Z</time></trkpt>
<trkpt lat="24.463138" lon="106.030037">
<time>2015-09-27T15:07:46Z</time></trkpt>
<trkpt lat="24.463429" lon="106.029768">
<time>2015-09-27T15:07:47Z</time></trkpt>
<trkpt lat="24.464472" lon="106.02891">
<time>2015-09-27T15:07:48Z</time></trkpt>
<trkpt lat="24.464853" lon="106.028571">
<time>2015-09-27T15:07:49Z</time></trkpt>
<trkpt lat="24.464923" lon="106.028492">
<time>2015-09-27T15:07:50Z</time></trkpt>
<trkpt lat="24.464973" lon="106.028422">
<time>2015-09-27T15:07:51Z</time></trkpt>
<trkpt lat="24.465013" lon="106.028342">
<time>2015-09-27T15:07:52Z</time></trkpt>
<trkpt lat="24.465144" lon="106.028033">
<time>2015-09-27T15:07:53Z</time></trkpt>
<trkpt lat="24.465265" lon="106.027784">
<time>2015-09-27T15:07:54Z</time></trkpt>
<trkpt lat="24.465375" lon="106.027614">
<time>2015-09-27T15:07:55Z</time></trkpt>
<trkpt lat="24.465656" lon="106.027305">
<time>2015-09-27T15:07:56Z</time></trkpt>
<trkpt lat="24.466368" lon="106.026637">
<time>2015-09-27T15:07:57Z</time></trkpt>
<trkpt lat="24.46699" lon="106.026059">
<time>2015-09-27T15:07:58Z</time></trkpt>
<trkpt lat="24.467451" lon="106.02563">
<time>2015-09-27T15:07:59Z</time></trkpt>
<trkpt lat="24.467762" lon="106.025331">
<time>2015-09-27T15:08:00Z</time></trkpt>
<trkpt lat="24.468032" lon="106.025102">
<time>2015-09-27T15:08:01Z</time></trkpt>
<trkpt lat="24.468263" lon="106.024942">
<time>2015-09-27T15:08:02Z</time></trkpt>
<trkpt lat="24.468493" lon="106.024833">
<time>2015-09-27T15:08:03Z</time></trkpt>
<trkpt lat="24.468633" lon="106.024763">
<time>2015-09-27T15:08:04Z</time></trkpt>
<trkpt lat="24.468874" lon="106.024693">
<time>2015-09-27T15:08:05Z</time></trkpt>
<trkpt lat="24.469054" lon="106.024623">
<time>2015-09-27T15:08:06Z</time></trkpt>
<trkpt lat="24.469194" lon="106.024553">
<time>2015-09-27T15:08:07Z</time></trkpt>
<trkpt lat="24.469364" lon="106.024444">
<time>2015-09-27T15:08:08Z</time></trkpt>
<trkpt lat="24.469445" lon="106.024384">
<time>2015-09-27T15:08:09Z</time></trkpt>
<trkpt lat="24.469515" lon="106.024294">
<time>2015-09-27T15:08:10Z</time></trkpt>
<trkpt lat="24.469565" lon="106.024195">
<time>2015-09-27T15:08:11Z</time></trkpt>
<trkpt lat="24.469616" lon="106.023995">
<time>2015-09-27T15:08:12Z</time></trkpt>
<trkpt lat="24.469727" lon="106.023407">
<time>2015-09-27T15:08:13Z</time></trkpt>
<trkpt lat="24.469778" lon="106.023248">
<time>2015-09-27T15:08:14Z</time></trkpt>
<trkpt lat="24.469828" lon="106.023108">
<time>2015-09-27T15:08:15Z</time></trkpt>
<trkpt lat="24.469929" lon="106.022978">
<time>2015-09-27T15:08:16Z</time></trkpt>
<trkpt lat="24.470129" lon="106.022729">
<time>2015-09-27T15:08:17Z</time></trkpt>
<trkpt lat="24.47022" lon="106.022639">
<time>2015-09-27T15:08:18Z</time></trkpt>
<trkpt lat="24.4703" lon="106.02255">
<time>2015-09-27T15:08:19Z</time></trkpt>
<trkpt lat="24.47042" lon="106.02238">
<time>2015-09-27T15:08:20Z</time></trkpt>
<trkpt lat="24.470631" lon="106.022051">
<time>2015-09-27T15:08:21Z</time></trkpt>
<trkpt lat="24.470802" lon="106.021653">
<time>2015-09-27T15:08:22Z</time></trkpt>
<trkpt lat="24.470963" lon="106.021334">
<time>2015-09-27T15:08:23Z</time></trkpt>
<trkpt lat="24.471134" lon="106.021055">
<time>2015-09-27T15:08:24Z</time></trkpt>
<trkpt lat="24.471707" lon="106.020197">
<time>2015-09-27T15:08:25Z</time></trkpt>
<trkpt lat="24.471877" lon="106.019978">
<time>2015-09-27T15:08:26Z</time></trkpt>
<trkpt lat="24.472199" lon="106.019549">
<time>2015-09-27T15:08:27Z</time></trkpt>
<trkpt lat="24.47267" lon="106.018991">
<time>2015-09-27T15:08:28Z</time></trkpt>
<trkpt lat="24.473613" lon="106.017984">
<time>2015-09-27T15:08:29Z</time></trkpt>
<trkpt lat="24.474366" lon="106.017167">
<time>2015-09-27T15:08:30Z</time></trkpt>
<trkpt lat="24.475028" lon="106.016489">
<time>2015-09-27T15:08:31Z</time></trkpt>
<trkpt lat="24.475509" lon="106.015981">
<time>2015-09-27T15:08:32Z</time></trkpt>
<trkpt lat="24.475891" lon="106.015572">
<time>2015-09-27T15:08:33Z</time></trkpt>
<trkpt lat="24.476122" lon="106.015243">
<time>2015-09-27T15:08:34Z</time></trkpt>
<trkpt lat="24.476242" lon="106.015014">
<time>2015-09-27T15:08:35Z</time></trkpt>
<trkpt lat="24.476393" lon="106.014685">
<time>2015-09-27T15:08:36Z</time></trkpt>
<trkpt lat="24.476585" lon="106.014207">
<time>2015-09-27T15:08:37Z</time></trkpt>
<trkpt lat="24.476696" lon="106.013878">
<time>2015-09-27T15:08:38Z</time></trkpt>
<trkpt lat="24.477028" lon="106.012931">
<time>2015-09-27T15:08:39Z</time></trkpt>
<trkpt lat="24.477694" lon="106.010988">
<time>2015-09-27T15:08:40Z</time></trkpt>
<trkpt lat="24.477886" lon="106.010469">
<time>2015-09-27T15:08:41Z</time></trkpt>
<trkpt lat="24.477977" lon="106.01024">
<time>2015-09-27T15:08:42Z</time></trkpt>
<trkpt lat="24.478097" lon="106.010031">
<time>2015-09-27T15:08:43Z</time></trkpt>
<trkpt lat="24.478178" lon="106.009921">
<time>2015-09-27T15:08:44Z</time></trkpt>
<trkpt lat="24.478278" lon="106.009812">
<time>2015-09-27T15:08:45Z</time></trkpt>
<trkpt lat="24.478388" lon="106.009702">
<time>2015-09-27T15:08:46Z</time></trkpt>
<trkpt lat="24.478509" lon="106.009582">
<time>2015-09-27T15:08:47Z</time></trkpt>
<trkpt lat="24.478719" lon="106.009413">
<time>2015-09-27T15:08:48Z</time></trkpt>
<trkpt lat="24.478839" lon="106.009303">
<time>2015-09-27T15:08:49Z</time></trkpt>
<trkpt lat="24.47922" lon="106.008984">
<time>2015-09-27T15:08:50Z</time></trkpt>
<trkpt lat="24.479481" lon="106.008775">
<time>2015-09-27T15:08:51Z</time></trkpt>
<trkpt lat="24.479642" lon="106.008665">
<time>2015-09-27T15:08:52Z</time></trkpt>
<trkpt lat="24.479762" lon="106.008606">
<time>2015-09-27T15:08:53Z</time></trkpt>
<trkpt lat="24.479972" lon="106.008526">
<time>2015-09-27T15:08:54Z</time></trkpt>
<trkpt lat="24.480202" lon="106.008446">
<time>2015-09-27T15:08:55Z</time></trkpt>
<trkpt lat="24.480723" lon="106.008346">
<time>2015-09-27T15:08:56Z</time></trkpt>
<trkpt lat="24.481003" lon="106.008307">
<time>2015-09-27T15:08:57Z</time></trkpt>
<trkpt lat="24.481143" lon="106.008267">
<time>2015-09-27T15:08:58Z</time></trkpt>
<trkpt lat="24.481293" lon="106.008197">
<time>2015-09-27T15:08:59Z</time></trkpt>
<trkpt lat="24.481373" lon="106.008127">
<time>2015-09-27T15:09:00Z</time></trkpt>
<trkpt lat="24.481454" lon="106.008047">
<time>2015-09-27T15:09:01Z</time></trkpt>
<trkpt lat="24.481504" lon="106.007978">
<time>2015-09-27T15:09:02Z</time></trkpt>
<trkpt lat="24.481544" lon="106.007888">
<time>2015-09-27T15:09:03Z</time></trkpt>
<trkpt lat="24.481584" lon="106.007778">
<time>2015-09-27T15:09:04Z</time></trkpt>
<trkpt lat="24.481605" lon="106.007669">
<time>2015-09-27T15:09:05Z</time></trkpt>
<trkpt lat="24.481606" lon="106.00743">
<time>2015-09-27T15:09:06Z</time></trkpt>
<trkpt lat="24.481617" lon="106.007051">
<time>2015-09-27T15:09:07Z</time></trkpt>
<trkpt lat="24.481608" lon="106.006672">
<time>2015-09-27T15:09:08Z</time></trkpt>
<trkpt lat="24.481619" lon="106.006323">
<time>2015-09-27T15:09:09Z</time></trkpt>
<trkpt lat="24.481629" lon="106.006204">
<time>2015-09-27T15:09:10Z</time></trkpt>
<trkpt lat="24.48165" lon="106.006084">
<time>2015-09-27T15:09:11Z</time></trkpt>
<trkpt lat="24.48168" lon="106.006004">
<time>2015-09-27T15:09:12Z</time></trkpt>
<trkpt lat="24.48171" lon="106.005915">
<time>2015-09-27T15:09:13Z</time></trkpt>
<trkpt lat="24.48175" lon="106.005835">
<time>2015-09-27T15:09:14Z</time></trkpt>
<trkpt lat="24.481801" lon="106.005765">
<time>2015-09-27T15:09:15Z</time></trkpt>
<trkpt lat="24.481881" lon="106.005656">
<time>2015-09-27T15:09:16Z</time></trkpt>
<trkpt lat="24.482011" lon="106.005496">
<time>2015-09-27T15:09:17Z</time></trkpt>
<trkpt lat="24.482072" lon="106.005397">
<time>2015-09-27T15:09:18Z</time></trkpt>
<trkpt lat="24.482122" lon="106.005297">
<time>2015-09-27T15:09:19Z</time></trkpt>
<trkpt lat="24.482142" lon="106.005217">
<time>2015-09-27T15:09:20Z</time></trkpt>
<trkpt lat="24.482173" lon="106.005058">
<time>2015-09-27T15:09:21Z</time></trkpt>
<trkpt lat="24.482205" lon="106.0044">
<time>2015-09-27T15:09:22Z</time></trkpt>
<trkpt lat="24.482235" lon="106.00428">
<time>2015-09-27T15:09:23Z</time></trkpt>
<trkpt lat="24.482275" lon="106.004191">
<time>2015-09-27T15:09:24Z</time></trkpt>
<trkpt lat="24.482326" lon="106.004141">
<time>2015-09-27T15:09:25Z</time></trkpt>
<trkpt lat="24.482366" lon="106.004111">
<time>2015-09-27T15:09:26Z</time></trkpt>
<trkpt lat="24.482416" lon="106.004091">
<time>2015-09-27T15:09:27Z</time></trkpt>
<trkpt lat="24.482466" lon="106.004081">
<time>2015-09-27T15:09:28Z</time></trkpt>
<trkpt lat="24.482526" lon="106.004081">
<time>2015-09-27T15:09:29Z</time></trkpt>
<trkpt lat="24.482586" lon="106.004101">
<time>2015-09-27T15:09:30Z</time></trkpt>
<trkpt lat="24.482676" lon="106.004151">
<time>2015-09-27T15:09:31Z</time></trkpt>
<trkpt lat="24.482835" lon="106.00426">
<time>2015-09-27T15:09:32Z</time></trkpt>
<trkpt lat="24.483075" lon="106.00442">
<time>2015-09-27T15:09:33Z</time></trkpt>
<trkpt lat="24.483245" lon="106.00453">
<time>2015-09-27T15:09:34Z</time></trkpt>
<trkpt lat="24.483314" lon="106.004569">
<time>2015-09-27T15:09:35Z</time></trkpt>
<trkpt lat="24.483404" lon="106.004589">
<time>2015-09-27T15:09:36Z</time></trkpt>
<trkpt lat="24.483534" lon="106.004599">
<time>2015-09-27T15:09:37Z</time></trkpt>
<trkpt lat="24.483654" lon="106.004579">
<time>2015-09-27T15:09:38Z</time></trkpt>
<trkpt lat="24.483745" lon="106.004559">
<time>2015-09-27T15:09:39Z</time></trkpt>
<trkpt lat="24.483815" lon="106.00453">
<time>2015-09-27T15:09:40Z</time></trkpt>
<trkpt lat="24.483925" lon="106.00448">
<time>2015-09-27T15:09:41Z</time></trkpt>
<trkpt lat="24.484005" lon="106.00441">
<time>2015-09-27T15:09:42Z</time></trkpt>
<trkpt lat="24.484075" lon="106.00434">
<time>2015-09-27T15:09:43Z</time></trkpt>
<trkpt lat="24.484136" lon="106.00424">
<time>2015-09-27T15:09:44Z</time></trkpt>
<trkpt lat="24.484206" lon="106.004081">
<time>2015-09-27T15:09:45Z</time></trkpt>
<trkpt lat="24.484267" lon="106.003892">
<time>2015-09-27T15:09:46Z</time></trkpt>
<trkpt lat="24.484569" lon="106.003025">
<time>2015-09-27T15:09:47Z</time></trkpt>
<trkpt lat="24.484831" lon="106.002347">
<time>2015-09-27T15:09:48Z</time></trkpt>
<trkpt lat="24.484972" lon="106.002078">
<time>2015-09-27T15:09:49Z</time></trkpt>
<trkpt lat="24.485214" lon="106.001649">
<time>2015-09-27T15:09:50Z</time></trkpt>
<trkpt lat="24.485384" lon="106.00138">
<time>2015-09-27T15:09:51Z</time></trkpt>
<trkpt lat="24.485626" lon="106.001042">
<time>2015-09-27T15:09:52Z</time></trkpt>
<trkpt lat="24.485987" lon="106.000633">
<time>2015-09-27T15:09:53Z</time></trkpt>
<trkpt lat="24.486408" lon="106.000105">
<time>2015-09-27T15:09:54Z</time></trkpt>
<trkpt lat="24.486489" lon="106.000005">
<time>2015-09-27T15:09:55Z</time></trkpt>
<trkpt lat="24.486499" lon="105.999995">
<time>2015-09-27T15:09:56Z</time></trkpt>
<trkpt lat="24.486619" lon="105.999846">
<time>2015-09-27T15:09:57Z</time></trkpt>
<trkpt lat="24.48696" lon="105.999477">
<time>2015-09-27T15:09:58Z</time></trkpt>
<trkpt lat="24.487442" lon="105.998969">
<time>2015-09-27T15:09:59Z</time></trkpt>
<trkpt lat="24.487843" lon="105.99856">
<time>2015-09-27T15:10:00Z</time></trkpt>
<trkpt lat="24.488245" lon="105.998171">
<time>2015-09-27T15:10:01Z</time></trkpt>
<trkpt lat="24.488435" lon="105.997942">
<time>2015-09-27T15:10:02Z</time></trkpt>
<trkpt lat="24.488536" lon="105.997793">
<time>2015-09-27T15:10:03Z</time></trkpt>
<trkpt lat="24.488596" lon="105.997663">
<time>2015-09-27T15:10:04Z</time></trkpt>
<trkpt lat="24.488637" lon="105.997564">
<time>2015-09-27T15:10:05Z</time></trkpt>
<trkpt lat="24.488667" lon="105.997454">
<time>2015-09-27T15:10:06Z</time></trkpt>
<trkpt lat="24.488697" lon="105.997324">
<time>2015-09-27T15:10:07Z</time></trkpt>
<trkpt lat="24.488718" lon="105.997245">
<time>2015-09-27T15:10:08Z</time></trkpt>
<trkpt lat="24.488728" lon="105.997155">
<time>2015-09-27T15:10:09Z</time></trkpt>
<trkpt lat="24.488728" lon="105.997065">
<time>2015-09-27T15:10:10Z</time></trkpt>
<trkpt lat="24.488718" lon="105.996946">
<time>2015-09-27T15:10:11Z</time></trkpt>
<trkpt lat="24.488699" lon="105.996876">
<time>2015-09-27T15:10:12Z</time></trkpt>
<trkpt lat="24.488669" lon="105.996786">
<time>2015-09-27T15:10:13Z</time></trkpt>
<trkpt lat="24.488639" lon="105.996717">
<time>2015-09-27T15:10:14Z</time></trkpt>
<trkpt lat="24.488609" lon="105.996657">
<time>2015-09-27T15:10:15Z</time></trkpt>
<trkpt lat="24.48856" lon="105.996597">
<time>2015-09-27T15:10:16Z</time></trkpt>
<trkpt lat="24.48851" lon="105.996557">
<time>2015-09-27T15:10:17Z</time></trkpt>
<trkpt lat="24.48846" lon="105.996517">
<time>2015-09-27T15:10:18Z</time></trkpt>
<trkpt lat="24.48839" lon="105.996487">
<time>2015-09-27T15:10:19Z</time></trkpt>
<trkpt lat="24.48834" lon="105.996467">
<time>2015-09-27T15:10:20Z</time></trkpt>
<trkpt lat="24.48828" lon="105.996447">
<time>2015-09-27T15:10:21Z</time></trkpt>
<trkpt lat="24.48819" lon="105.996438">
<time>2015-09-27T15:10:22Z</time></trkpt>
<trkpt lat="24.48805" lon="105.996438">
<time>2015-09-27T15:10:23Z</time></trkpt>
<trkpt lat="24.48787" lon="105.996438">
<time>2015-09-27T15:10:24Z</time></trkpt>
<trkpt lat="24.48742" lon="105.996438">
<time>2015-09-27T15:10:25Z</time></trkpt>
<trkpt lat="24.48705" lon="105.996438">
<time>2015-09-27T15:10:26Z</time></trkpt>
<trkpt lat="24.48677" lon="105.996438">
<time>2015-09-27T15:10:27Z</time></trkpt>
<trkpt lat="24.4866" lon="105.996448">
<time>2015-09-27T15:10:28Z</time></trkpt>
<trkpt lat="24.48644" lon="105.996438">
<time>2015-09-27T15:10:29Z</time></trkpt>
<trkpt lat="24.48632" lon="105.996418">
<time>2015-09-27T15:10:30Z</time></trkpt>
<trkpt lat="24.48621" lon="105.996388">
<time>2015-09-27T15:10:31Z</time></trkpt>
<trkpt lat="24.48612" lon="105.996348">
<time>2015-09-27T15:10:32Z</time></trkpt>
<trkpt lat="24.48603" lon="105.996288">
<time>2015-09-27T15:10:33Z</time></trkpt>
<trkpt lat="24.48594" lon="105.996208">
<time>2015-09-27T15:10:34Z</time></trkpt>
<trkpt lat="24.48588" lon="105.996129">
<time>2015-09-27T15:10:35Z</time></trkpt>
<trkpt lat="24.485821" lon="105.996029">
<time>2015-09-27T15:10:36Z</time></trkpt>
<trkpt lat="24.485751" lon="105.99589">
<time>2015-09-27T15:10:37Z</time></trkpt>
<trkpt lat="24.485712" lon="105.99578">
<time>2015-09-27T15:10:38Z</time></trkpt>
<trkpt lat="24.485682" lon="105.99566">
<time>2015-09-27T15:10:39Z</time></trkpt>
<trkpt lat="24.485672" lon="105.995541">
<time>2015-09-27T15:10:40Z</time></trkpt>
<trkpt lat="24.485683" lon="105.995451">
<time>2015-09-27T15:10:41Z</time></trkpt>
<trkpt lat="24.485703" lon="105.995351">
<time>2015-09-27T15:10:42Z</time></trkpt>
<trkpt lat="24.485733" lon="105.995252">
<time>2015-09-27T15:10:43Z</time></trkpt>
<trkpt lat="24.485774" lon="105.995122">
<time>2015-09-27T15:10:44Z</time></trkpt>
<trkpt lat="24.485884" lon="105.994853">
<time>2015-09-27T15:10:45Z</time></trkpt>
<trkpt lat="24.486096" lon="105.994385">
<time>2015-09-27T15:10:46Z</time></trkpt>
<trkpt lat="24.486156" lon="105.994255">
<time>2015-09-27T15:10:47Z</time></trkpt>
<trkpt lat="24.486196" lon="105.994176">
<time>2015-09-27T15:10:48Z</time></trkpt>
<trkpt lat="24.486257" lon="105.994096">
<time>2015-09-27T15:10:49Z</time></trkpt>
<trkpt lat="24.486337" lon="105.993996">
<time>2015-09-27T15:10:50Z</time></trkpt>
<trkpt lat="24.486457" lon="105.993896">
<time>2015-09-27T15:10:51Z</time></trkpt>
<trkpt lat="24.486578" lon="105.993827">
<time>2015-09-27T15:10:52Z</time></trkpt>
<trkpt lat="24.486698" lon="105.993797">
<time>2015-09-27T15:10:53Z</time></trkpt>
<trkpt lat="24.486818" lon="105.993767">
<time>2015-09-27T15:10:54Z</time></trkpt>
<trkpt lat="24.487358" lon="105.993767">
<time>2015-09-27T15:10:55Z</time></trkpt>
<trkpt lat="24.487778" lon="105.993787">
<time>2015-09-27T15:10:56Z</time></trkpt>
<trkpt lat="24.487938" lon="105.993777">
<time>2015-09-27T15:10:57Z</time></trkpt>
<trkpt lat="24.488088" lon="105.993757">
<time>2015-09-27T15:10:58Z</time></trkpt>
<trkpt lat="24.488198" lon="105.993727">
<time>2015-09-27T15:10:59Z</time></trkpt>
<trkpt lat="24.488288" lon="105.993687">
<time>2015-09-27T15:11:00Z</time></trkpt>
<trkpt lat="24.488689" lon="105.993498">
<time>2015-09-27T15:11:01Z</time></trkpt>
<trkpt lat="24.48923" lon="105.993219">
<time>2015-09-27T15:11:02Z</time></trkpt>
<trkpt lat="24.490051" lon="105.99284">
<time>2015-09-27T15:11:03Z</time></trkpt>
<trkpt lat="24.491033" lon="105.992382">
<time>2015-09-27T15:11:04Z</time></trkpt>
<trkpt lat="24.491343" lon="105.992262">
<time>2015-09-27T15:11:05Z</time></trkpt>
<trkpt lat="24.491633" lon="105.992172">
<time>2015-09-27T15:11:06Z</time></trkpt>
<trkpt lat="24.492334" lon="105.992003">
<time>2015-09-27T15:11:07Z</time></trkpt>
<trkpt lat="24.492444" lon="105.991973">
<time>2015-09-27T15:11:08Z</time></trkpt>
<trkpt lat="24.492544" lon="105.991933">
<time>2015-09-27T15:11:09Z</time></trkpt>
<trkpt lat="24.492634" lon="105.991903">
<time>2015-09-27T15:11:10Z</time></trkpt>
<trkpt lat="24.492715" lon="105.991863">
<time>2015-09-27T15:11:11Z</time></trkpt>
<trkpt lat="24.492835" lon="105.991804">
<time>2015-09-27T15:11:12Z</time></trkpt>
<trkpt lat="24.492955" lon="105.991734">
<time>2015-09-27T15:11:13Z</time></trkpt>
<trkpt lat="24.493035" lon="105.991664">
<time>2015-09-27T15:11:14Z</time></trkpt>
<trkpt lat="24.493125" lon="105.991594">
<time>2015-09-27T15:11:15Z</time></trkpt>
<trkpt lat="24.493196" lon="105.991534">
<time>2015-09-27T15:11:16Z</time></trkpt>
<trkpt lat="24.493286" lon="105.991455">
<time>2015-09-27T15:11:17Z</time></trkpt>
<trkpt lat="24.493366" lon="105.991365">
<time>2015-09-27T15:11:18Z</time></trkpt>
<trkpt lat="24.493477" lon="105.991245">
<time>2015-09-27T15:11:19Z</time></trkpt>
<trkpt lat="24.493527" lon="105.991176">
<time>2015-09-27T15:11:20Z</time></trkpt>
<trkpt lat="24.493597" lon="105.991056">
<time>2015-09-27T15:11:21Z</time></trkpt>
<trkpt lat="24.493678" lon="105.990936">
<time>2015-09-27T15:11:22Z</time></trkpt>
<trkpt lat="24.493728" lon="105.990827">
<time>2015-09-27T15:11:23Z</time></trkpt>
<trkpt lat="24.493788" lon="105.990707">
<time>2015-09-27T15:11:24Z</time></trkpt>
<trkpt lat="24.493859" lon="105.990538">
<time>2015-09-27T15:11:25Z</time></trkpt>
<trkpt lat="24.49397" lon="105.990309">
<time>2015-09-27T15:11:26Z</time></trkpt>
<trkpt lat="24.49403" lon="105.990199">
<time>2015-09-27T15:11:27Z</time></trkpt>
<trkpt lat="24.49411" lon="105.990079">
<time>2015-09-27T15:11:28Z</time></trkpt>
<trkpt lat="24.494221" lon="105.98997">
<time>2015-09-27T15:11:29Z</time></trkpt>
<trkpt lat="24.494341" lon="105.98988">
<time>2015-09-27T15:11:30Z</time></trkpt>
<trkpt lat="24.494441" lon="105.98982">
<time>2015-09-27T15:11:31Z</time></trkpt>
<trkpt lat="24.494581" lon="105.989771">
<time>2015-09-27T15:11:32Z</time></trkpt>
<trkpt lat="24.494721" lon="105.989751">
<time>2015-09-27T15:11:33Z</time></trkpt>
<trkpt lat="24.494841" lon="105.989751">
<time>2015-09-27T15:11:34Z</time></trkpt>
<trkpt lat="24.494971" lon="105.98977">
<time>2015-09-27T15:11:35Z</time></trkpt>
<trkpt lat="24.495101" lon="105.9898">
<time>2015-09-27T15:11:36Z</time></trkpt>
<trkpt lat="24.495211" lon="105.98986">
<time>2015-09-27T15:11:37Z</time></trkpt>
<trkpt lat="24.495311" lon="105.98992">
<time>2015-09-27T15:11:38Z</time></trkpt>
<trkpt lat="24.495451" lon="105.99003">
<time>2015-09-27T15:11:39Z</time></trkpt>
<trkpt lat="24.496488" lon="105.991066">
<time>2015-09-27T15:11:40Z</time></trkpt>
<trkpt lat="24.496557" lon="105.991136">
<time>2015-09-27T15:11:41Z</time></trkpt>
<trkpt lat="24.496657" lon="105.991205">
<time>2015-09-27T15:11:42Z</time></trkpt>
<trkpt lat="24.496757" lon="105.991255">
<time>2015-09-27T15:11:43Z</time></trkpt>
<trkpt lat="24.496837" lon="105.991295">
<time>2015-09-27T15:11:44Z</time></trkpt>
<trkpt lat="24.496987" lon="105.991335">
<time>2015-09-27T15:11:45Z</time></trkpt>
<trkpt lat="24.497107" lon="105.991355">
<time>2015-09-27T15:11:46Z</time></trkpt>
<trkpt lat="24.497237" lon="105.991335">
<time>2015-09-27T15:11:47Z</time></trkpt>
<trkpt lat="24.497377" lon="105.991305">
<time>2015-09-27T15:11:48Z</time></trkpt>
<trkpt lat="24.497497" lon="105.991265">
<time>2015-09-27T15:11:49Z</time></trkpt>
<trkpt lat="24.497647" lon="105.991175">
<time>2015-09-27T15:11:50Z</time></trkpt>
<trkpt lat="24.497768" lon="105.991076">
<time>2015-09-27T15:11:51Z</time></trkpt>
<trkpt lat="24.497888" lon="105.990936">
<time>2015-09-27T15:11:52Z</time></trkpt>
<trkpt lat="24.499114" lon="105.989202">
<time>2015-09-27T15:11:53Z</time></trkpt>
<trkpt lat="24.499666" lon="105.988405">
<time>2015-09-27T15:11:54Z</time></trkpt>
<trkpt lat="24.499988" lon="105.987877">
<time>2015-09-27T15:11:55Z</time></trkpt>
<trkpt lat="24.499998" lon="105.987877">
<time>2015-09-27T15:11:56Z</time></trkpt>
<trkpt lat="24.5003" lon="105.987319">
<time>2015-09-27T15:11:57Z</time></trkpt>
<trkpt lat="24.500641" lon="105.986691">
<time>2015-09-27T15:11:58Z</time></trkpt>
<trkpt lat="24.500863" lon="105.986322">
<time>2015-09-27T15:11:59Z</time></trkpt>
<trkpt lat="24.500993" lon="105.986123">
<time>2015-09-27T15:12:00Z</time></trkpt>
<trkpt lat="24.501144" lon="105.985904">
<time>2015-09-27T15:12:01Z</time></trkpt>
<trkpt lat="24.501335" lon="105.985654">
<time>2015-09-27T15:12:02Z</time></trkpt>
<trkpt lat="24.501515" lon="105.985455">
<time>2015-09-27T15:12:03Z</time></trkpt>
<trkpt lat="24.501726" lon="105.985246">
<time>2015-09-27T15:12:04Z</time></trkpt>
<trkpt lat="24.501967" lon="105.985027">
<time>2015-09-27T15:12:05Z</time></trkpt>
<trkpt lat="24.502047" lon="105.984967">
<time>2015-09-27T15:12:06Z</time></trkpt>
<trkpt lat="24.502107" lon="105.984917">
<time>2015-09-27T15:12:07Z</time></trkpt>
<trkpt lat="24.502327" lon="105.984787">
<time>2015-09-27T15:12:08Z</time></trkpt>
<trkpt lat="24.502688" lon="105.984548">
<time>2015-09-27T15:12:09Z</time></trkpt>
<trkpt lat="24.502768" lon="105.984498">
<time>2015-09-27T15:12:10Z</time></trkpt>
<trkpt lat="24.502869" lon="105.984429">
<time>2015-09-27T15:12:11Z</time></trkpt>
<trkpt lat="24.502989" lon="105.984339">
<time>2015-09-27T15:12:12Z</time></trkpt>
<trkpt lat="24.503129" lon="105.984219">
<time>2015-09-27T15:12:13Z</time></trkpt>
<trkpt lat="24.50325" lon="105.9841">
<time>2015-09-27T15:12:14Z</time></trkpt>
<trkpt lat="24.50339" lon="105.98395">
<time>2015-09-27T15:12:15Z</time></trkpt>
<trkpt lat="24.503551" lon="105.983771">
<time>2015-09-27T15:12:16Z</time></trkpt>
<trkpt lat="24.504544" lon="105.982525">
<time>2015-09-27T15:12:17Z</time></trkpt>
<trkpt lat="24.504635" lon="105.982435">
<time>2015-09-27T15:12:18Z</time></trkpt>
<trkpt lat="24.504745" lon="105.982356">
<time>2015-09-27T15:12:19Z</time></trkpt>
<trkpt lat="24.504855" lon="105.982286">
<time>2015-09-27T15:12:20Z</time></trkpt>
<trkpt lat="24.504965" lon="105.982216">
<time>2015-09-27T15:12:21Z</time></trkpt>
<trkpt lat="24.505116" lon="105.982166">
<time>2015-09-27T15:12:22Z</time></trkpt>
<trkpt lat="24.505706" lon="105.981967">
<time>2015-09-27T15:12:23Z</time></trkpt>
<trkpt lat="24.507148" lon="105.981469">
<time>2015-09-27T15:12:24Z</time></trkpt>
<trkpt lat="24.507348" lon="105.981419">
<time>2015-09-27T15:12:25Z</time></trkpt>
<trkpt lat="24.507568" lon="105.981399">
<time>2015-09-27T15:12:26Z</time></trkpt>
<trkpt lat="24.508549" lon="105.981339">
<time>2015-09-27T15:12:27Z</time></trkpt>
<trkpt lat="24.508799" lon="105.981309">
<time>2015-09-27T15:12:28Z</time></trkpt>
<trkpt lat="24.508989" lon="105.981259">
<time>2015-09-27T15:12:29Z</time></trkpt>
<trkpt lat="24.509179" lon="105.981189">
<time>2015-09-27T15:12:30Z</time></trkpt>
<trkpt lat="24.509409" lon="105.98108">
<time>2015-09-27T15:12:31Z</time></trkpt>
<trkpt lat="24.510652" lon="105.980322">
<time>2015-09-27T15:12:32Z</time></trkpt>
<trkpt lat="24.511965" lon="105.979485">
<time>2015-09-27T15:12:33Z</time></trkpt>
<trkpt lat="24.512445" lon="105.979196">
<time>2015-09-27T15:12:34Z</time></trkpt>
<trkpt lat="24.512736" lon="105.978997">
<time>2015-09-27T15:12:35Z</time></trkpt>
<trkpt lat="24.512977" lon="105.978787">
<time>2015-09-27T15:12:36Z</time></trkpt>
<trkpt lat="24.51394" lon="105.977801">
<time>2015-09-27T15:12:37Z</time></trkpt>
<trkpt lat="24.515153" lon="105.976555">
<time>2015-09-27T15:12:38Z</time></trkpt>
<trkpt lat="24.516327" lon="105.975339">
<time>2015-09-27T15:12:39Z</time></trkpt>
<trkpt lat="24.516548" lon="105.975129">
<time>2015-09-27T15:12:40Z</time></trkpt>
<trkpt lat="24.516939" lon="105.97483">
<time>2015-09-27T15:12:41Z</time></trkpt>
<trkpt lat="24.518161" lon="105.973933">
<time>2015-09-27T15:12:42Z</time></trkpt>
<trkpt lat="24.518572" lon="105.973594">
<time>2015-09-27T15:12:43Z</time></trkpt>
<trkpt lat="24.518833" lon="105.973395">
<time>2015-09-27T15:12:44Z</time></trkpt>
<trkpt lat="24.519063" lon="105.973235">
<time>2015-09-27T15:12:45Z</time></trkpt>
<trkpt lat="24.519204" lon="105.973156">
<time>2015-09-27T15:12:46Z</time></trkpt>
<trkpt lat="24.519314" lon="105.973106">
<time>2015-09-27T15:12:47Z</time></trkpt>
<trkpt lat="24.519414" lon="105.973066">
<time>2015-09-27T15:12:48Z</time></trkpt>
<trkpt lat="24.519544" lon="105.973036">
<time>2015-09-27T15:12:49Z</time></trkpt>
<trkpt lat="24.519694" lon="105.973016">
<time>2015-09-27T15:12:50Z</time></trkpt>
<trkpt lat="24.519904" lon="105.972996">
<time>2015-09-27T15:12:51Z</time></trkpt>
<trkpt lat="24.520204" lon="105.972976">
<time>2015-09-27T15:12:52Z</time></trkpt>
<trkpt lat="24.520304" lon="105.972976">
<time>2015-09-27T15:12:53Z</time></trkpt>
<trkpt lat="24.520334" lon="105.972976">
<time>2015-09-27T15:12:54Z</time></trkpt>
<trkpt lat="24.520544" lon="105.972966">
<time>2015-09-27T15:12:55Z</time></trkpt>
<trkpt lat="24.520694" lon="105.972956">
<time>2015-09-27T15:12:56Z</time></trkpt>
<trkpt lat="24.521115" lon="105.972926">
<time>2015-09-27T15:12:57Z</time></trkpt>
<trkpt lat="24.521285" lon="105.972926">
<time>2015-09-27T15:12:58Z</time></trkpt>
<trkpt lat="24.521555" lon="105.972956">
<time>2015-09-27T15:12:59Z</time></trkpt>
<trkpt lat="24.521824" lon="105.973016">
<time>2015-09-27T15:13:00Z</time></trkpt>
<trkpt lat="24.522254" lon="105.973086">
<time>2015-09-27T15:13:01Z</time></trkpt>
<trkpt lat="24.522394" lon="105.973116">
<time>2015-09-27T15:13:02Z</time></trkpt>
<trkpt lat="24.522404" lon="105.973116">
<time>2015-09-27T15:13:03Z</time></trkpt>
<trkpt lat="24.522514" lon="105.973136">
<time>2015-09-27T15:13:04Z</time></trkpt>
<trkpt lat="24.522694" lon="105.973155">
<time>2015-09-27T15:13:05Z</time></trkpt>
<trkpt lat="24.522784" lon="105.973155">
<time>2015-09-27T15:13:06Z</time></trkpt>
<trkpt lat="24.522874" lon="105.973146">
<time>2015-09-27T15:13:07Z</time></trkpt>
<trkpt lat="24.523685" lon="105.973036">
<time>2015-09-27T15:13:08Z</time></trkpt>
<trkpt lat="24.523845" lon="105.973006">
<time>2015-09-27T15:13:09Z</time></trkpt>
<trkpt lat="24.524005" lon="105.972956">
<time>2015-09-27T15:13:10Z</time></trkpt>
<trkpt lat="24.524946" lon="105.972617">
<time>2015-09-27T15:13:11Z</time></trkpt>
<trkpt lat="24.525086" lon="105.972547">
<time>2015-09-27T15:13:12Z</time></trkpt>
<trkpt lat="24.525216" lon="105.972458">
<time>2015-09-27T15:13:13Z</time></trkpt>
<trkpt lat="24.525307" lon="105.972378">
<time>2015-09-27T15:13:14Z</time></trkpt>
<trkpt lat="24.525999" lon="105.97159">
<time>2015-09-27T15:13:15Z</time></trkpt>
<trkpt lat="24.526079" lon="105.971491">
<time>2015-09-27T15:13:16Z</time></trkpt>
<trkpt lat="24.526119" lon="105.971411">
<time>2015-09-27T15:13:17Z</time></trkpt>
<trkpt lat="24.52616" lon="105.971331">
<time>2015-09-27T15:13:18Z</time></trkpt>
<trkpt lat="24.52619" lon="105.971232">
<time>2015-09-27T15:13:19Z</time></trkpt>
<trkpt lat="24.526241" lon="105.971002">
<time>2015-09-27T15:13:20Z</time></trkpt>
<trkpt lat="24.526362" lon="105.970484">
<time>2015-09-27T15:13:21Z</time></trkpt>
<trkpt lat="24.526392" lon="105.970364">
<time>2015-09-27T15:13:22Z</time></trkpt>
<trkpt lat="24.526453" lon="105.970215">
<time>2015-09-27T15:13:23Z</time></trkpt>
<trkpt lat="24.526533" lon="105.970045">
<time>2015-09-27T15:13:24Z</time></trkpt>
<trkpt lat="24.526684" lon="105.969806">
<time>2015-09-27T15:13:25Z</time></trkpt>
<trkpt lat="24.526945" lon="105.969367">
<time>2015-09-27T15:13:26Z</time></trkpt>
<trkpt lat="24.526995" lon="105.969298">
<time>2015-09-27T15:13:27Z</time></trkpt>
<trkpt lat="24.527046" lon="105.969238">
<time>2015-09-27T15:13:28Z</time></trkpt>
<trkpt lat="24.527116" lon="105.969178">
<time>2015-09-27T15:13:29Z</time></trkpt>
<trkpt lat="24.527196" lon="105.969118">
<time>2015-09-27T15:13:30Z</time></trkpt>
<trkpt lat="24.527326" lon="105.969019">
<time>2015-09-27T15:13:31Z</time></trkpt>
<trkpt lat="24.527567" lon="105.968879">
<time>2015-09-27T15:13:32Z</time></trkpt>
<trkpt lat="24.527697" lon="105.968809">
<time>2015-09-27T15:13:33Z</time></trkpt>
<trkpt lat="24.527757" lon="105.968769">
<time>2015-09-27T15:13:34Z</time></trkpt>
<trkpt lat="24.527797" lon="105.968739">
<time>2015-09-27T15:13:35Z</time></trkpt>
<trkpt lat="24.527837" lon="105.9687">
<time>2015-09-27T15:13:36Z</time></trkpt>
<trkpt lat="24.527877" lon="105.96865">
<time>2015-09-27T15:13:37Z</time></trkpt>
<trkpt lat="24.527907" lon="105.96859">
<time>2015-09-27T15:13:38Z</time></trkpt>
<trkpt lat="24.527948" lon="105.96853">
<time>2015-09-27T15:13:39Z</time></trkpt>
<trkpt lat="24.528078" lon="105.968241">
<time>2015-09-27T15:13:40Z</time></trkpt>
<trkpt lat="24.52833" lon="105.967543">
<time>2015-09-27T15:13:41Z</time></trkpt>
<trkpt lat="24.528371" lon="105.967384">
<time>2015-09-27T15:13:42Z</time></trkpt>
<trkpt lat="24.528391" lon="105.967274">
<time>2015-09-27T15:13:43Z</time></trkpt>
<trkpt lat="24.528391" lon="105.967164">
<time>2015-09-27T15:13:44Z</time></trkpt>
<trkpt lat="24.528382" lon="105.967055">
<time>2015-09-27T15:13:45Z</time></trkpt>
<trkpt lat="24.528352" lon="105.966945">
<time>2015-09-27T15:13:46Z</time></trkpt>
<trkpt lat="24.528312" lon="105.966845">
<time>2015-09-27T15:13:47Z</time></trkpt>
<trkpt lat="24.528262" lon="105.966756">
<time>2015-09-27T15:13:48Z</time></trkpt>
<trkpt lat="24.528063" lon="105.966387">
<time>2015-09-27T15:13:49Z</time></trkpt>
<trkpt lat="24.528004" lon="105.966247">
<time>2015-09-27T15:13:50Z</time></trkpt>
<trkpt lat="24.527944" lon="105.966058">
<time>2015-09-27T15:13:51Z</time></trkpt>
<trkpt lat="24.527945" lon="105.965978">
<time>2015-09-27T15:13:52Z</time></trkpt>
<trkpt lat="24.527955" lon="105.965898">
<time>2015-09-27T15:13:53Z</time></trkpt>
<trkpt lat="24.527965" lon="105.965819">
<time>2015-09-27T15:13:54Z</time></trkpt>
<trkpt lat="24.528005" lon="105.965739">
<time>2015-09-27T15:13:55Z</time></trkpt>
<trkpt lat="24.528045" lon="105.965679">
<time>2015-09-27T15:13:56Z</time></trkpt>
<trkpt lat="24.528095" lon="105.965619">
<time>2015-09-27T15:13:57Z</time></trkpt>
<trkpt lat="24.528547" lon="105.965161">
<time>2015-09-27T15:13:58Z</time></trkpt>
<trkpt lat="24.528818" lon="105.964871">
<time>2015-09-27T15:13:59Z</time></trkpt>
<trkpt lat="24.529721" lon="105.963755">
<time>2015-09-27T15:14:00Z</time></trkpt>
<trkpt lat="24.529791" lon="105.963675">
<time>2015-09-27T15:14:01Z</time></trkpt>
<trkpt lat="24.529851" lon="105.963625">
<time>2015-09-27T15:14:02Z</time></trkpt>
<trkpt lat="24.529901" lon="105.963585">
<time>2015-09-27T15:14:03Z</time></trkpt>
<trkpt lat="24.529991" lon="105.963535">
<time>2015-09-27T15:14:04Z</time></trkpt>
<trkpt lat="24.530051" lon="105.963505">
<time>2015-09-27T15:14:05Z</time></trkpt>
<trkpt lat="24.530111" lon="105.963486">
<time>2015-09-27T15:14:06Z</time></trkpt>
<trkpt lat="24.530171" lon="105.963476">
<time>2015-09-27T15:14:07Z</time></trkpt>
<trkpt lat="24.530221" lon="105.963466">
<time>2015-09-27T15:14:08Z</time></trkpt>
<trkpt lat="24.530331" lon="105.963466">
<time>2015-09-27T15:14:09Z</time></trkpt>
<trkpt lat="24.530401" lon="105.963476">
<time>2015-09-27T15:14:10Z</time></trkpt>
<trkpt lat="24.530461" lon="105.963486">
<time>2015-09-27T15:14:11Z</time></trkpt>
<trkpt lat="24.530611" lon="105.963545">
<time>2015-09-27T15:14:12Z</time></trkpt>
<trkpt lat="24.530901" lon="105.963655">
<time>2015-09-27T15:14:13Z</time></trkpt>
<trkpt lat="24.531061" lon="105.963695">
<time>2015-09-27T15:14:14Z</time></trkpt>
<trkpt lat="24.531141" lon="105.963705">
<time>2015-09-27T15:14:15Z</time></trkpt>
<trkpt lat="24.531231" lon="105.963705">
<time>2015-09-27T15:14:16Z</time></trkpt>
<trkpt lat="24.531331" lon="105.963685">
<time>2015-09-27T15:14:17Z</time></trkpt>
<trkpt lat="24.531391" lon="105.963675">
<time>2015-09-27T15:14:18Z</time></trkpt>
<trkpt lat="24.531461" lon="105.963655">
<time>2015-09-27T15:14:19Z</time></trkpt>
<trkpt lat="24.531511" lon="105.963625">
<time>2015-09-27T15:14:20Z</time></trkpt>
<trkpt lat="24.531591" lon="105.963595">
<time>2015-09-27T15:14:21Z</time></trkpt>
<trkpt lat="24.531671" lon="105.963555">
<time>2015-09-27T15:14:22Z</time></trkpt>
<trkpt lat="24.531762" lon="105.963485">
<time>2015-09-27T15:14:23Z</time></trkpt>
<trkpt lat="24.531912" lon="105.963356">
<time>2015-09-27T15:14:24Z</time></trkpt>
<trkpt lat="24.533165" lon="105.962339">
<time>2015-09-27T15:14:25Z</time></trkpt>
<trkpt lat="24.534658" lon="105.961162">
<time>2015-09-27T15:14:26Z</time></trkpt>
<trkpt lat="24.535009" lon="105.960923">
<time>2015-09-27T15:14:27Z</time></trkpt>
<trkpt lat="24.535169" lon="105.960763">
<time>2015-09-27T15:14:28Z</time></trkpt>
<trkpt lat="24.53533" lon="105.960514">
<time>2015-09-27T15:14:29Z</time></trkpt>
<trkpt lat="24.535561" lon="105.960105">
<time>2015-09-27T15:14:30Z</time></trkpt>
<trkpt lat="24.535752" lon="105.959687">
<time>2015-09-27T15:14:31Z</time></trkpt>
<trkpt lat="24.535963" lon="105.959158">
<time>2015-09-27T15:14:32Z</time></trkpt>
<trkpt lat="24.536316" lon="105.958091">
<time>2015-09-27T15:14:33Z</time></trkpt>
<trkpt lat="24.536386" lon="105.957922">
<time>2015-09-27T15:14:34Z</time></trkpt>
<trkpt lat="24.536467" lon="105.957732">
<time>2015-09-27T15:14:35Z</time></trkpt>
<trkpt lat="24.536577" lon="105.957573">
<time>2015-09-27T15:14:36Z</time></trkpt>
<trkpt lat="24.536687" lon="105.957453">
<time>2015-09-27T15:14:37Z</time></trkpt>
<trkpt lat="24.536818" lon="105.957343">
<time>2015-09-27T15:14:38Z</time></trkpt>
<trkpt lat="24.536988" lon="105.957234">
<time>2015-09-27T15:14:39Z</time></trkpt>
<trkpt lat="24.537429" lon="105.956974">
<time>2015-09-27T15:14:40Z</time></trkpt>
<trkpt lat="24.537629" lon="105.956825">
<time>2015-09-27T15:14:41Z</time></trkpt>
<trkpt lat="24.537829" lon="105.956625">
<time>2015-09-27T15:14:42Z</time></trkpt>
<trkpt lat="24.538942" lon="105.955468">
<time>2015-09-27T15:14:43Z</time></trkpt>
<trkpt lat="24.539143" lon="105.955259">
<time>2015-09-27T15:14:44Z</time></trkpt>
<trkpt lat="24.539424" lon="105.9549">
<time>2015-09-27T15:14:45Z</time></trkpt>
<trkpt lat="24.539865" lon="105.954331">
<time>2015-09-27T15:14:46Z</time></trkpt>
<trkpt lat="24.540056" lon="105.954092">
<time>2015-09-27T15:14:47Z</time></trkpt>
<trkpt lat="24.540216" lon="105.953913">
<time>2015-09-27T15:14:48Z</time></trkpt>
<trkpt lat="24.540437" lon="105.953703">
<time>2015-09-27T15:14:49Z</time></trkpt>
<trkpt lat="24.542551" lon="105.951718">
<time>2015-09-27T15:14:50Z</time></trkpt>
<trkpt lat="24.542742" lon="105.951519">
<time>2015-09-27T15:14:51Z</time></trkpt>
<trkpt lat="24.542952" lon="105.951299">
<time>2015-09-27T15:14:52Z</time></trkpt>
<trkpt lat="24.543083" lon="105.95114">
<time>2015-09-27T15:14:53Z</time></trkpt>
<trkpt lat="24.543313" lon="105.950841">
<time>2015-09-27T15:14:54Z</time></trkpt>
<trkpt lat="24.544868" lon="105.948676">
<time>2015-09-27T15:14:55Z</time></trkpt>
<trkpt lat="24.545099" lon="105.948357">
<time>2015-09-27T15:14:56Z</time></trkpt>
<trkpt lat="24.54538" lon="105.948048">
<time>2015-09-27T15:14:57Z</time></trkpt>
<trkpt lat="24.54571" lon="105.947718">
<time>2015-09-27T15:14:58Z</time></trkpt>
<trkpt lat="24.546703" lon="105.946581">
<time>2015-09-27T15:14:59Z</time></trkpt>
<trkpt lat="24.546893" lon="105.946392">
<time>2015-09-27T15:15:00Z</time></trkpt>
<trkpt lat="24.547094" lon="105.946222">
<time>2015-09-27T15:15:01Z</time></trkpt>
<trkpt lat="24.547364" lon="105.945953">
<time>2015-09-27T15:15:02Z</time></trkpt>
<trkpt lat="24.547565" lon="105.945803">
<time>2015-09-27T15:15:03Z</time></trkpt>
<trkpt lat="24.547755" lon="105.945693">
<time>2015-09-27T15:15:04Z</time></trkpt>
<trkpt lat="24.547925" lon="105.945614">
<time>2015-09-27T15:15:05Z</time></trkpt>
<trkpt lat="24.548075" lon="105.945554">
<time>2015-09-27T15:15:06Z</time></trkpt>
<trkpt lat="24.548265" lon="105.945494">
<time>2015-09-27T15:15:07Z</time></trkpt>
<trkpt lat="24.548495" lon="105.945464">
<time>2015-09-27T15:15:08Z</time></trkpt>
<trkpt lat="24.548775" lon="105.945414">
<time>2015-09-27T15:15:09Z</time></trkpt>
<trkpt lat="24.548906" lon="105.945364">
<time>2015-09-27T15:15:10Z</time></trkpt>
<trkpt lat="24.549036" lon="105.945294">
<time>2015-09-27T15:15:11Z</time></trkpt>
<trkpt lat="24.549216" lon="105.945185">
<time>2015-09-27T15:15:12Z</time></trkpt>
<trkpt lat="24.549737" lon="105.944825">
<time>2015-09-27T15:15:13Z</time></trkpt>
<trkpt lat="24.550127" lon="105.944576">
<time>2015-09-27T15:15:14Z</time></trkpt>
<trkpt lat="24.550368" lon="105.944416">
<time>2015-09-27T15:15:15Z</time></trkpt>
<trkpt lat="24.550508" lon="105.944277">
<time>2015-09-27T15:15:16Z</time></trkpt>
<trkpt lat="24.550648" lon="105.944097">
<time>2015-09-27T15:15:17Z</time></trkpt>
<trkpt lat="24.55116" lon="105.943389">
<time>2015-09-27T15:15:18Z</time></trkpt>
<trkpt lat="24.551461" lon="105.943009">
<time>2015-09-27T15:15:19Z</time></trkpt>
<trkpt lat="24.551581" lon="105.94287">
<time>2015-09-27T15:15:20Z</time></trkpt>
<trkpt lat="24.551721" lon="105.94272">
<time>2015-09-27T15:15:21Z</time></trkpt>
<trkpt lat="24.552522" lon="105.942111">
<time>2015-09-27T15:15:22Z</time></trkpt>
<trkpt lat="24.552683" lon="105.941992">
<time>2015-09-27T15:15:23Z</time></trkpt>
<trkpt lat="24.552823" lon="105.941862">
<time>2015-09-27T15:15:24Z</time></trkpt>
<trkpt lat="24.552933" lon="105.941742">
<time>2015-09-27T15:15:25Z</time></trkpt>
<trkpt lat="24.553023" lon="105.941633">
<time>2015-09-27T15:15:26Z</time></trkpt>
<trkpt lat="24.553344" lon="105.941124">
<time>2015-09-27T15:15:27Z</time></trkpt>
<trkpt lat="24.554517" lon="105.939577">
<time>2015-09-27T15:15:28Z</time></trkpt>
<trkpt lat="24.554748" lon="105.939328">
<time>2015-09-27T15:15:29Z</time></trkpt>
<trkpt lat="24.554898" lon="105.939168">
<time>2015-09-27T15:15:30Z</time></trkpt>
<trkpt lat="24.555018" lon="105.939058">
<time>2015-09-27T15:15:31Z</time></trkpt>
<trkpt lat="24.555158" lon="105.938958">
<time>2015-09-27T15:15:32Z</time></trkpt>
<trkpt lat="24.555279" lon="105.938878">
<time>2015-09-27T15:15:33Z</time></trkpt>
<trkpt lat="24.555769" lon="105.938579">
<time>2015-09-27T15:15:34Z</time></trkpt>
<trkpt lat="24.555919" lon="105.938469">
<time>2015-09-27T15:15:35Z</time></trkpt>
<trkpt lat="24.55604" lon="105.93834">
<time>2015-09-27T15:15:36Z</time></trkpt>
<trkpt lat="24.55612" lon="105.93824">
<time>2015-09-27T15:15:37Z</time></trkpt>
<trkpt lat="24.55619" lon="105.93809">
<time>2015-09-27T15:15:38Z</time></trkpt>
<trkpt lat="24.55625" lon="105.937881">
<time>2015-09-27T15:15:39Z</time></trkpt>
<trkpt lat="24.556331" lon="105.937561">
<time>2015-09-27T15:15:40Z</time></trkpt>
<trkpt lat="24.556402" lon="105.937132">
<time>2015-09-27T15:15:41Z</time></trkpt>
<trkpt lat="24.556452" lon="105.936893">
<time>2015-09-27T15:15:42Z</time></trkpt>
<trkpt lat="24.556502" lon="105.936743">
<time>2015-09-27T15:15:43Z</time></trkpt>
<trkpt lat="24.556563" lon="105.936613">
<time>2015-09-27T15:15:44Z</time></trkpt>
<trkpt lat="24.556653" lon="105.936453">
<time>2015-09-27T15:15:45Z</time></trkpt>
<trkpt lat="24.556783" lon="105.936304">
<time>2015-09-27T15:15:46Z</time></trkpt>
<trkpt lat="24.556883" lon="105.936194">
<time>2015-09-27T15:15:47Z</time></trkpt>
<trkpt lat="24.557054" lon="105.936064">
<time>2015-09-27T15:15:48Z</time></trkpt>
<trkpt lat="24.557284" lon="105.935924">
<time>2015-09-27T15:15:49Z</time></trkpt>
<trkpt lat="24.557614" lon="105.935785">
<time>2015-09-27T15:15:50Z</time></trkpt>
<trkpt lat="24.558425" lon="105.935445">
<time>2015-09-27T15:15:51Z</time></trkpt>
<trkpt lat="24.558605" lon="105.935356">
<time>2015-09-27T15:15:52Z</time></trkpt>
<trkpt lat="24.558745" lon="105.935276">
<time>2015-09-27T15:15:53Z</time></trkpt>
<trkpt lat="24.558855" lon="105.935176">
<time>2015-09-27T15:15:54Z</time></trkpt>
<trkpt lat="24.558975" lon="105.935046">
<time>2015-09-27T15:15:55Z</time></trkpt>
<trkpt lat="24.559266" lon="105.934617">
<time>2015-09-27T15:15:56Z</time></trkpt>
<trkpt lat="24.559727" lon="105.933918">
<time>2015-09-27T15:15:57Z</time></trkpt>
<trkpt lat="24.560068" lon="105.933479">
<time>2015-09-27T15:15:58Z</time></trkpt>
<trkpt lat="24.560298" lon="105.93321">
<time>2015-09-27T15:15:59Z</time></trkpt>
<trkpt lat="24.560659" lon="105.9328">
<time>2015-09-27T15:16:00Z</time></trkpt>
<trkpt lat="24.560729" lon="105.93272">
<time>2015-09-27T15:16:01Z</time></trkpt>
<trkpt lat="24.56104" lon="105.932361">
<time>2015-09-27T15:16:02Z</time></trkpt>
<trkpt lat="24.56123" lon="105.932152">
<time>2015-09-27T15:16:03Z</time></trkpt>
<trkpt lat="24.56137" lon="105.932022">
<time>2015-09-27T15:16:04Z</time></trkpt>
<trkpt lat="24.562101" lon="105.931413">
<time>2015-09-27T15:16:05Z</time></trkpt>
<trkpt lat="24.562282" lon="105.931263">
<time>2015-09-27T15:16:06Z</time></trkpt>
<trkpt lat="24.562412" lon="105.931143">
<time>2015-09-27T15:16:07Z</time></trkpt>
<trkpt lat="24.562522" lon="105.931013">
<time>2015-09-27T15:16:08Z</time></trkpt>
<trkpt lat="24.562642" lon="105.930864">
<time>2015-09-27T15:16:09Z</time></trkpt>
<trkpt lat="24.563314" lon="105.929925">
<time>2015-09-27T15:16:10Z</time></trkpt>
<trkpt lat="24.563464" lon="105.929656">
<time>2015-09-27T15:16:11Z</time></trkpt>
<trkpt lat="24.563634" lon="105.929286">
<time>2015-09-27T15:16:12Z</time></trkpt>
<trkpt lat="24.563735" lon="105.929137">
<time>2015-09-27T15:16:13Z</time></trkpt>
<trkpt lat="24.563825" lon="105.929007">
<time>2015-09-27T15:16:14Z</time></trkpt>
<trkpt lat="24.563925" lon="105.928897">
<time>2015-09-27T15:16:15Z</time></trkpt>
<trkpt lat="24.564035" lon="105.928807">
<time>2015-09-27T15:16:16Z</time></trkpt>
<trkpt lat="24.564185" lon="105.928727">
<time>2015-09-27T15:16:17Z</time></trkpt>
<trkpt lat="24.564435" lon="105.928628">
<time>2015-09-27T15:16:18Z</time></trkpt>
<trkpt lat="24.564676" lon="105.928538">
<time>2015-09-27T15:16:19Z</time></trkpt>
<trkpt lat="24.564876" lon="105.928468">
<time>2015-09-27T15:16:20Z</time></trkpt>
<trkpt lat="24.565016" lon="105.928398">
<time>2015-09-27T15:16:21Z</time></trkpt>
<trkpt lat="24.565146" lon="105.928308">
<time>2015-09-27T15:16:22Z</time></trkpt>
<trkpt lat="24.565266" lon="105.928188">
<time>2015-09-27T15:16:23Z</time></trkpt>
<trkpt lat="24.565346" lon="105.928048">
<time>2015-09-27T15:16:24Z</time></trkpt>
<trkpt lat="24.565437" lon="105.927839">
<time>2015-09-27T15:16:25Z</time></trkpt>
<trkpt lat="24.565647" lon="105.92719">
<time>2015-09-27T15:16:26Z</time></trkpt>
<trkpt lat="24.565758" lon="105.92698">
<time>2015-09-27T15:16:27Z</time></trkpt>
<trkpt lat="24.565868" lon="105.9268">
<time>2015-09-27T15:16:28Z</time></trkpt>
<trkpt lat="24.566028" lon="105.926621">
<time>2015-09-27T15:16:29Z</time></trkpt>
<trkpt lat="24.566218" lon="105.926401">
<time>2015-09-27T15:16:30Z</time></trkpt>
<trkpt lat="24.56743" lon="105.925213">
<time>2015-09-27T15:16:31Z</time></trkpt>
<trkpt lat="24.568571" lon="105.924164">
<time>2015-09-27T15:16:32Z</time></trkpt>
<trkpt lat="24.568792" lon="105.924005">
<time>2015-09-27T15:16:33Z</time></trkpt>
<trkpt lat="24.568972" lon="105.923875">
<time>2015-09-27T15:16:34Z</time></trkpt>
<trkpt lat="24.569122" lon="105.923755">
<time>2015-09-27T15:16:35Z</time></trkpt>
<trkpt lat="24.569252" lon="105.923625">
<time>2015-09-27T15:16:36Z</time></trkpt>
<trkpt lat="24.569422" lon="105.923335">
<time>2015-09-27T15:16:37Z</time></trkpt>
<trkpt lat="24.570234" lon="105.921778">
<time>2015-09-27T15:16:38Z</time></trkpt>
<trkpt lat="24.570324" lon="105.921578">
<time>2015-09-27T15:16:39Z</time></trkpt>
<trkpt lat="24.570394" lon="105.921398">
<time>2015-09-27T15:16:40Z</time></trkpt>
<trkpt lat="24.570605" lon="105.920719">
<time>2015-09-27T15:16:41Z</time></trkpt>
<trkpt lat="24.570655" lon="105.920599">
<time>2015-09-27T15:16:42Z</time></trkpt>
<trkpt lat="24.570705" lon="105.920499">
<time>2015-09-27T15:16:43Z</time></trkpt>
<trkpt lat="24.570756" lon="105.920399">
<time>2015-09-27T15:16:44Z</time></trkpt>
<trkpt lat="24.570836" lon="105.920299">
<time>2015-09-27T15:16:45Z</time></trkpt>
<trkpt lat="24.570916" lon="105.92021">
<time>2015-09-27T15:16:46Z</time></trkpt>
<trkpt lat="24.570996" lon="105.92014">
<time>2015-09-27T15:16:47Z</time></trkpt>
<trkpt lat="24.571226" lon="105.91998">
<time>2015-09-27T15:16:48Z</time></trkpt>
<trkpt lat="24.571346" lon="105.91989">
<time>2015-09-27T15:16:49Z</time></trkpt>
<trkpt lat="24.571446" lon="105.91981">
<time>2015-09-27T15:16:50Z</time></trkpt>
<trkpt lat="24.571526" lon="105.91974">
<time>2015-09-27T15:16:51Z</time></trkpt>
<trkpt lat="24.571616" lon="105.91965">
<time>2015-09-27T15:16:52Z</time></trkpt>
<trkpt lat="24.571696" lon="105.91955">
<time>2015-09-27T15:16:53Z</time></trkpt>
<trkpt lat="24.571847" lon="105.919341">
<time>2015-09-27T15:16:54Z</time></trkpt>
<trkpt lat="24.572377" lon="105.918581">
<time>2015-09-27T15:16:55Z</time></trkpt>
<trkpt lat="24.572608" lon="105.918282">
<time>2015-09-27T15:16:56Z</time></trkpt>
<trkpt lat="24.572708" lon="105.918162">
<time>2015-09-27T15:16:57Z</time></trkpt>
<trkpt lat="24.572858" lon="105.918012">
<time>2015-09-27T15:16:58Z</time></trkpt>
<trkpt lat="24.573348" lon="105.917593">
<time>2015-09-27T15:16:59Z</time></trkpt>
<trkpt lat="24.574019" lon="105.917043">
<time>2015-09-27T15:17:00Z</time></trkpt>
<trkpt lat="24.574949" lon="105.916414">
<time>2015-09-27T15:17:01Z</time></trkpt>
<trkpt lat="24.57519" lon="105.916244">
<time>2015-09-27T15:17:02Z</time></trkpt>
<trkpt lat="24.57535" lon="105.916144">
<time>2015-09-27T15:17:03Z</time></trkpt>
<trkpt lat="24.57553" lon="105.915994">
<time>2015-09-27T15:17:04Z</time></trkpt>
<trkpt lat="24.577011" lon="105.914596">
<time>2015-09-27T15:17:05Z</time></trkpt>
<trkpt lat="24.577411" lon="105.914176">
<time>2015-09-27T15:17:06Z</time></trkpt>
<trkpt lat="24.577692" lon="105.913816">
<time>2015-09-27T15:17:07Z</time></trkpt>
<trkpt lat="24.577872" lon="105.913627">
<time>2015-09-27T15:17:08Z</time></trkpt>
<trkpt lat="24.577992" lon="105.913527">
<time>2015-09-27T15:17:09Z</time></trkpt>
<trkpt lat="24.578182" lon="105.913407">
<time>2015-09-27T15:17:10Z</time></trkpt>
<trkpt lat="24.578332" lon="105.913347">
<time>2015-09-27T15:17:11Z</time></trkpt>
<trkpt lat="24.578472" lon="105.913297">
<time>2015-09-27T15:17:12Z</time></trkpt>
<trkpt lat="24.578602" lon="105.913277">
<time>2015-09-27T15:17:13Z</time></trkpt>
<trkpt lat="24.578712" lon="105.913267">
<time>2015-09-27T15:17:14Z</time></trkpt>
<trkpt lat="24.578822" lon="105.913277">
<time>2015-09-27T15:17:15Z</time></trkpt>
<trkpt lat="24.578942" lon="105.913307">
<time>2015-09-27T15:17:16Z</time></trkpt>
<trkpt lat="24.579092" lon="105.913347">
<time>2015-09-27T15:17:17Z</time></trkpt>
<trkpt lat="24.579252" lon="105.913407">
<time>2015-09-27T15:17:18Z</time></trkpt>
<trkpt lat="24.579372" lon="105.913457">
<time>2015-09-27T15:17:19Z</time></trkpt>
<trkpt lat="24.579462" lon="105.913517">
<time>2015-09-27T15:17:20Z</time></trkpt>
<trkpt lat="24.579542" lon="105.913576">
<time>2015-09-27T15:17:21Z</time></trkpt>
<trkpt lat="24.579622" lon="105.913646">
<time>2015-09-27T15:17:22Z</time></trkpt>
<trkpt lat="24.579682" lon="105.913746">
<time>2015-09-27T15:17:23Z</time></trkpt>
<trkpt lat="24.579732" lon="105.913836">
<time>2015-09-27T15:17:24Z</time></trkpt>
<trkpt lat="24.579762" lon="105.913966">
<time>2015-09-27T15:17:25Z</time></trkpt>
<trkpt lat="24.579772" lon="105.914056">
<time>2015-09-27T15:17:26Z</time></trkpt>
<trkpt lat="24.579791" lon="105.914226">
<time>2015-09-27T15:17:27Z</time></trkpt>
<trkpt lat="24.579801" lon="105.914356">
<time>2015-09-27T15:17:28Z</time></trkpt>
<trkpt lat="24.579841" lon="105.914466">
<time>2015-09-27T15:17:29Z</time></trkpt>
<trkpt lat="24.579871" lon="105.914536">
<time>2015-09-27T15:17:30Z</time></trkpt>
<trkpt lat="24.579911" lon="105.914595">
<time>2015-09-27T15:17:31Z</time></trkpt>
<trkpt lat="24.579971" lon="105.914665">
<time>2015-09-27T15:17:32Z</time></trkpt>
<trkpt lat="24.580031" lon="105.914715">
<time>2015-09-27T15:17:33Z</time></trkpt>
<trkpt lat="24.580091" lon="105.914765">
<time>2015-09-27T15:17:34Z</time></trkpt>
<trkpt lat="24.580161" lon="105.914805">
<time>2015-09-27T15:17:35Z</time></trkpt>
<trkpt lat="24.580221" lon="105.914825">
<time>2015-09-27T15:17:36Z</time></trkpt>
<trkpt lat="24.580281" lon="105.914845">
<time>2015-09-27T15:17:37Z</time></trkpt>
<trkpt lat="24.580341" lon="105.914855">
<time>2015-09-27T15:17:38Z</time></trkpt>
<trkpt lat="24.580391" lon="105.914855">
<time>2015-09-27T15:17:39Z</time></trkpt>
<trkpt lat="24.580781" lon="105.914785">
<time>2015-09-27T15:17:40Z</time></trkpt>
<trkpt lat="24.580901" lon="105.914775">
<time>2015-09-27T15:17:41Z</time></trkpt>
<trkpt lat="24.581021" lon="105.914765">
<time>2015-09-27T15:17:42Z</time></trkpt>
<trkpt lat="24.581121" lon="105.914765">
<time>2015-09-27T15:17:43Z</time></trkpt>
<trkpt lat="24.581211" lon="105.914775">
<time>2015-09-27T15:17:44Z</time></trkpt>
<trkpt lat="24.581311" lon="105.914795">
<time>2015-09-27T15:17:45Z</time></trkpt>
<trkpt lat="24.582121" lon="105.914995">
<time>2015-09-27T15:17:46Z</time></trkpt>
<trkpt lat="24.582431" lon="105.915075">
<time>2015-09-27T15:17:47Z</time></trkpt>
<trkpt lat="24.582571" lon="105.915095">
<time>2015-09-27T15:17:48Z</time></trkpt>
<trkpt lat="24.582671" lon="105.915105">
<time>2015-09-27T15:17:49Z</time></trkpt>
<trkpt lat="24.582751" lon="105.915105">
<time>2015-09-27T15:17:50Z</time></trkpt>
<trkpt lat="24.582851" lon="105.915085">
<time>2015-09-27T15:17:51Z</time></trkpt>
<trkpt lat="24.582931" lon="105.915065">
<time>2015-09-27T15:17:52Z</time></trkpt>
<trkpt lat="24.583021" lon="105.915015">
<time>2015-09-27T15:17:53Z</time></trkpt>
<trkpt lat="24.583211" lon="105.914905">
<time>2015-09-27T15:17:54Z</time></trkpt>
<trkpt lat="24.583331" lon="105.914825">
<time>2015-09-27T15:17:55Z</time></trkpt>
<trkpt lat="24.583842" lon="105.914435">
<time>2015-09-27T15:17:56Z</time></trkpt>
<trkpt lat="24.583942" lon="105.914366">
<time>2015-09-27T15:17:57Z</time></trkpt>
<trkpt lat="24.584022" lon="105.914306">
<time>2015-09-27T15:17:58Z</time></trkpt>
<trkpt lat="24.584162" lon="105.914236">
<time>2015-09-27T15:17:59Z</time></trkpt>
<trkpt lat="24.584302" lon="105.914186">
<time>2015-09-27T15:18:00Z</time></trkpt>
<trkpt lat="24.584452" lon="105.914136">
<time>2015-09-27T15:18:01Z</time></trkpt>
<trkpt lat="24.585462" lon="105.913946">
<time>2015-09-27T15:18:02Z</time></trkpt>
<trkpt lat="24.585592" lon="105.913916">
<time>2015-09-27T15:18:03Z</time></trkpt>
<trkpt lat="24.585712" lon="105.913866">
<time>2015-09-27T15:18:04Z</time></trkpt>
<trkpt lat="24.585842" lon="105.913806">
<time>2015-09-27T15:18:05Z</time></trkpt>
<trkpt lat="24.585942" lon="105.913746">
<time>2015-09-27T15:18:06Z</time></trkpt>
<trkpt lat="24.586052" lon="105.913666">
<time>2015-09-27T15:18:07Z</time></trkpt>
<trkpt lat="24.586162" lon="105.913556">
<time>2015-09-27T15:18:08Z</time></trkpt>
<trkpt lat="24.586793" lon="105.912917">
<time>2015-09-27T15:18:09Z</time></trkpt>
<trkpt lat="24.587393" lon="105.912307">
<time>2015-09-27T15:18:10Z</time></trkpt>
<trkpt lat="24.587724" lon="105.911958">
<time>2015-09-27T15:18:11Z</time></trkpt>
<trkpt lat="24.588274" lon="105.911398">
<time>2015-09-27T15:18:12Z</time></trkpt>
<trkpt lat="24.588354" lon="105.911318">
<time>2015-09-27T15:18:13Z</time></trkpt>
<trkpt lat="24.588424" lon="105.911228">
<time>2015-09-27T15:18:14Z</time></trkpt>
<trkpt lat="24.588484" lon="105.911118">
<time>2015-09-27T15:18:15Z</time></trkpt>
<trkpt lat="24.588544" lon="105.911008">
<time>2015-09-27T15:18:16Z</time></trkpt>
<trkpt lat="24.588604" lon="105.910838">
<time>2015-09-27T15:18:17Z</time></trkpt>
<trkpt lat="24.588694" lon="105.910599">
<time>2015-09-27T15:18:18Z</time></trkpt>
<trkpt lat="24.588764" lon="105.910479">
<time>2015-09-27T15:18:19Z</time></trkpt>
<trkpt lat="24.588844" lon="105.910369">
<time>2015-09-27T15:18:20Z</time></trkpt>
<trkpt lat="24.588945" lon="105.910269">
<time>2015-09-27T15:18:21Z</time></trkpt>
<trkpt lat="24.589085" lon="105.910169">
<time>2015-09-27T15:18:22Z</time></trkpt>
<trkpt lat="24.589375" lon="105.909969">
<time>2015-09-27T15:18:23Z</time></trkpt>
<trkpt lat="24.589535" lon="105.909839">
<time>2015-09-27T15:18:24Z</time></trkpt>
<trkpt lat="24.589665" lon="105.909709">
<time>2015-09-27T15:18:25Z</time></trkpt>
<trkpt lat="24.589785" lon="105.909569">
<time>2015-09-27T15:18:26Z</time></trkpt>
<trkpt lat="24.590015" lon="105.90926">
<time>2015-09-27T15:18:27Z</time></trkpt>
<trkpt lat="24.590145" lon="105.90906">
<time>2015-09-27T15:18:28Z</time></trkpt>
<trkpt lat="24.590285" lon="105.90888">
<time>2015-09-27T15:18:29Z</time></trkpt>
<trkpt lat="24.590385" lon="105.90874">
<time>2015-09-27T15:18:30Z</time></trkpt>
<trkpt lat="24.590465" lon="105.90865">
<time>2015-09-27T15:18:31Z</time></trkpt>
<trkpt lat="24.590545" lon="105.90856">
<time>2015-09-27T15:18:32Z</time></trkpt>
<trkpt lat="24.590646" lon="105.90846">
<time>2015-09-27T15:18:33Z</time></trkpt>
<trkpt lat="24.590776" lon="105.90835">
<time>2015-09-27T15:18:34Z</time></trkpt>
<trkpt lat="24.591406" lon="105.90789">
<time>2015-09-27T15:18:35Z</time></trkpt>
<trkpt lat="24.591526" lon="105.907791">
<time>2015-09-27T15:18:36Z</time></trkpt>
<trkpt lat="24.591636" lon="105.907691">
<time>2015-09-27T15:18:37Z</time></trkpt>
<trkpt lat="24.591716" lon="105.907581">
<time>2015-09-27T15:18:38Z</time></trkpt>
<trkpt lat="24.591786" lon="105.907491">
<time>2015-09-27T15:18:39Z</time></trkpt>
<trkpt lat="24.591846" lon="105.907361">
<time>2015-09-27T15:18:40Z</time></trkpt>
<trkpt lat="24.591886" lon="105.907221">
<time>2015-09-27T15:18:41Z</time></trkpt>
<trkpt lat="24.591926" lon="105.907021">
<time>2015-09-27T15:18:42Z</time></trkpt>
<trkpt lat="24.592067" lon="105.905842">
<time>2015-09-27T15:18:43Z</time></trkpt>
<trkpt lat="24.592117" lon="105.905462">
<time>2015-09-27T15:18:44Z</time></trkpt>
<trkpt lat="24.592147" lon="105.905332">
<time>2015-09-27T15:18:45Z</time></trkpt>
<trkpt lat="24.592177" lon="105.905202">
<time>2015-09-27T15:18:46Z</time></trkpt>
<trkpt lat="24.592227" lon="105.905072">
<time>2015-09-27T15:18:47Z</time></trkpt>
<trkpt lat="24.592287" lon="105.904972">
<time>2015-09-27T15:18:48Z</time></trkpt>
<trkpt lat="24.592347" lon="105.904882">
<time>2015-09-27T15:18:49Z</time></trkpt>
<trkpt lat="24.592427" lon="105.904802">
<time>2015-09-27T15:18:50Z</time></trkpt>
<trkpt lat="24.592507" lon="105.904722">
<time>2015-09-27T15:18:51Z</time></trkpt>
<trkpt lat="24.592587" lon="105.904662">
<time>2015-09-27T15:18:52Z</time></trkpt>
<trkpt lat="24.592687" lon="105.904602">
<time>2015-09-27T15:18:53Z</time></trkpt>
<trkpt lat="24.592787" lon="105.904572">
<time>2015-09-27T15:18:54Z</time></trkpt>
<trkpt lat="24.592917" lon="105.904522">
<time>2015-09-27T15:18:55Z</time></trkpt>
<trkpt lat="24.593167" lon="105.904452">
<time>2015-09-27T15:18:56Z</time></trkpt>
<trkpt lat="24.593317" lon="105.904392">
<time>2015-09-27T15:18:57Z</time></trkpt>
<trkpt lat="24.593397" lon="105.904362">
<time>2015-09-27T15:18:58Z</time></trkpt>
<trkpt lat="24.593487" lon="105.904302">
<time>2015-09-27T15:18:59Z</time></trkpt>
<trkpt lat="24.593547" lon="105.904252">
<time>2015-09-27T15:19:00Z</time></trkpt>
<trkpt lat="24.593607" lon="105.904193">
<time>2015-09-27T15:19:01Z</time></trkpt>
<trkpt lat="24.593667" lon="105.904113">
<time>2015-09-27T15:19:02Z</time></trkpt>
<trkpt lat="24.593717" lon="105.904013">
<time>2015-09-27T15:19:03Z</time></trkpt>
<trkpt lat="24.593737" lon="105.903933">
<time>2015-09-27T15:19:04Z</time></trkpt>
<trkpt lat="24.593757" lon="105.903853">
<time>2015-09-27T15:19:05Z</time></trkpt>
<trkpt lat="24.593767" lon="105.903773">
<time>2015-09-27T15:19:06Z</time></trkpt>
<trkpt lat="24.593767" lon="105.903693">
<time>2015-09-27T15:19:07Z</time></trkpt>
<trkpt lat="24.593767" lon="105.903623">
<time>2015-09-27T15:19:08Z</time></trkpt>
<trkpt lat="24.593747" lon="105.903533">
<time>2015-09-27T15:19:09Z</time></trkpt>
<trkpt lat="24.593707" lon="105.903423">
<time>2015-09-27T15:19:10Z</time></trkpt>
<trkpt lat="24.593667" lon="105.903333">
<time>2015-09-27T15:19:11Z</time></trkpt>
<trkpt lat="24.593587" lon="105.903203">
<time>2015-09-27T15:19:12Z</time></trkpt>
<trkpt lat="24.593527" lon="105.903083">
<time>2015-09-27T15:19:13Z</time></trkpt>
<trkpt lat="24.593487" lon="105.902993">
<time>2015-09-27T15:19:14Z</time></trkpt>
<trkpt lat="24.593457" lon="105.902893">
<time>2015-09-27T15:19:15Z</time></trkpt>
<trkpt lat="24.593447" lon="105.902813">
<time>2015-09-27T15:19:16Z</time></trkpt>
<trkpt lat="24.593447" lon="105.902733">
<time>2015-09-27T15:19:17Z</time></trkpt>
<trkpt lat="24.593458" lon="105.902653">
<time>2015-09-27T15:19:18Z</time></trkpt>
<trkpt lat="24.593498" lon="105.902573">
<time>2015-09-27T15:19:19Z</time></trkpt>
<trkpt lat="24.593538" lon="105.902513">
<time>2015-09-27T15:19:20Z</time></trkpt>
<trkpt lat="24.593608" lon="105.902473">
<time>2015-09-27T15:19:21Z</time></trkpt>
<trkpt lat="24.593698" lon="105.902443">
<time>2015-09-27T15:19:22Z</time></trkpt>
<trkpt lat="24.593768" lon="105.902433">
<time>2015-09-27T15:19:23Z</time></trkpt>
<trkpt lat="24.593858" lon="105.902443">
<time>2015-09-27T15:19:24Z</time></trkpt>
<trkpt lat="24.593958" lon="105.902463">
<time>2015-09-27T15:19:25Z</time></trkpt>
<trkpt lat="24.594128" lon="105.902503">
<time>2015-09-27T15:19:26Z</time></trkpt>
<trkpt lat="24.594258" lon="105.902523">
<time>2015-09-27T15:19:27Z</time></trkpt>
<trkpt lat="24.594358" lon="105.902523">
<time>2015-09-27T15:19:28Z</time></trkpt>
<trkpt lat="24.594428" lon="105.902513">
<time>2015-09-27T15:19:29Z</time></trkpt>
<trkpt lat="24.594518" lon="105.902493">
<time>2015-09-27T15:19:30Z</time></trkpt>
<trkpt lat="24.594598" lon="105.902453">
<time>2015-09-27T15:19:31Z</time></trkpt>
<trkpt lat="24.594668" lon="105.902403">
<time>2015-09-27T15:19:32Z</time></trkpt>
<trkpt lat="24.594758" lon="105.902333">
<time>2015-09-27T15:19:33Z</time></trkpt>
<trkpt lat="24.594918" lon="105.902163">
<time>2015-09-27T15:19:34Z</time></trkpt>
<trkpt lat="24.595408" lon="105.901673">
<time>2015-09-27T15:19:35Z</time></trkpt>
<trkpt lat="24.595578" lon="105.901474">
<time>2015-09-27T15:19:36Z</time></trkpt>
<trkpt lat="24.595658" lon="105.901364">
<time>2015-09-27T15:19:37Z</time></trkpt>
<trkpt lat="24.595728" lon="105.901264">
<time>2015-09-27T15:19:38Z</time></trkpt>
<trkpt lat="24.595788" lon="105.901134">
<time>2015-09-27T15:19:39Z</time></trkpt>
<trkpt lat="24.595818" lon="105.901004">
<time>2015-09-27T15:19:40Z</time></trkpt>
<trkpt lat="24.595838" lon="105.900864">
<time>2015-09-27T15:19:41Z</time></trkpt>
<trkpt lat="24.595838" lon="105.900714">
<time>2015-09-27T15:19:42Z</time></trkpt>
<trkpt lat="24.595828" lon="105.900584">
<time>2015-09-27T15:19:43Z</time></trkpt>
<trkpt lat="24.595798" lon="105.900444">
<time>2015-09-27T15:19:44Z</time></trkpt>
<trkpt lat="24.595728" lon="105.900164">
<time>2015-09-27T15:19:45Z</time></trkpt>
<trkpt lat="24.595638" lon="105.899784">
<time>2015-09-27T15:19:46Z</time></trkpt>
<trkpt lat="24.595568" lon="105.899454">
<time>2015-09-27T15:19:47Z</time></trkpt>
<trkpt lat="24.595548" lon="105.899274">
<time>2015-09-27T15:19:48Z</time></trkpt>
<trkpt lat="24.595548" lon="105.899114">
<time>2015-09-27T15:19:49Z</time></trkpt>
<trkpt lat="24.595558" lon="105.898974">
<time>2015-09-27T15:19:50Z</time></trkpt>
<trkpt lat="24.595588" lon="105.898834">
<time>2015-09-27T15:19:51Z</time></trkpt>
<trkpt lat="24.595618" lon="105.898724">
<time>2015-09-27T15:19:52Z</time></trkpt>
<trkpt lat="24.595688" lon="105.898524">
<time>2015-09-27T15:19:53Z</time></trkpt>
<trkpt lat="24.595898" lon="105.898064">
<time>2015-09-27T15:19:54Z</time></trkpt>
<trkpt lat="24.596198" lon="105.897465">
<time>2015-09-27T15:19:55Z</time></trkpt>
<trkpt lat="24.596548" lon="105.896745">
<time>2015-09-27T15:19:56Z</time></trkpt>
<trkpt lat="24.596618" lon="105.896645">
<time>2015-09-27T15:19:57Z</time></trkpt>
<trkpt lat="24.596688" lon="105.896545">
<time>2015-09-27T15:19:58Z</time></trkpt>
<trkpt lat="24.596788" lon="105.896465">
<time>2015-09-27T15:19:59Z</time></trkpt>
<trkpt lat="24.596888" lon="105.896395">
<time>2015-09-27T15:20:00Z</time></trkpt>
<trkpt lat="24.597018" lon="105.896325">
<time>2015-09-27T15:20:01Z</time></trkpt>
<trkpt lat="24.597168" lon="105.896255">
<time>2015-09-27T15:20:02Z</time></trkpt>
<trkpt lat="24.598008" lon="105.895955">
<time>2015-09-27T15:20:03Z</time></trkpt>
<trkpt lat="24.598078" lon="105.895915">
<time>2015-09-27T15:20:04Z</time></trkpt>
<trkpt lat="24.598158" lon="105.895875">
<time>2015-09-27T15:20:05Z</time></trkpt>
<trkpt lat="24.598238" lon="105.895805">
<time>2015-09-27T15:20:06Z</time></trkpt>
<trkpt lat="24.598308" lon="105.895725">
<time>2015-09-27T15:20:07Z</time></trkpt>
<trkpt lat="24.598348" lon="105.895645">
<time>2015-09-27T15:20:08Z</time></trkpt>
<trkpt lat="24.598388" lon="105.895555">
<time>2015-09-27T15:20:09Z</time></trkpt>
<trkpt lat="24.598428" lon="105.895435">
<time>2015-09-27T15:20:10Z</time></trkpt>
<trkpt lat="24.598458" lon="105.895315">
<time>2015-09-27T15:20:11Z</time></trkpt>
<trkpt lat="24.598528" lon="105.894985">
<time>2015-09-27T15:20:12Z</time></trkpt>
<trkpt lat="24.598598" lon="105.894515">
<time>2015-09-27T15:20:13Z</time></trkpt>
<trkpt lat="24.598688" lon="105.893945">
<time>2015-09-27T15:20:14Z</time></trkpt>
<trkpt lat="24.598748" lon="105.893345">
<time>2015-09-27T15:20:15Z</time></trkpt>
<trkpt lat="24.598838" lon="105.892995">
<time>2015-09-27T15:20:16Z</time></trkpt>
<trkpt lat="24.599057" lon="105.892595">
<time>2015-09-27T15:20:17Z</time></trkpt>
<trkpt lat="24.599507" lon="105.891865">
<time>2015-09-27T15:20:18Z</time></trkpt>
<trkpt lat="24.599677" lon="105.891675">
<time>2015-09-27T15:20:19Z</time></trkpt>
<trkpt lat="24.599857" lon="105.891565">
<time>2015-09-27T15:20:20Z</time></trkpt>
<trkpt lat="24.600117" lon="105.891505">
<time>2015-09-27T15:20:21Z</time></trkpt>
<trkpt lat="24.600287" lon="105.891505">
<time>2015-09-27T15:20:22Z</time></trkpt>
<trkpt lat="24.600547" lon="105.891565">
<time>2015-09-27T15:20:23Z</time></trkpt>
<trkpt lat="24.600647" lon="105.891585">
<time>2015-09-27T15:20:24Z</time></trkpt>
<trkpt lat="24.600727" lon="105.891595">
<time>2015-09-27T15:20:25Z</time></trkpt>
<trkpt lat="24.600827" lon="105.891595">
<time>2015-09-27T15:20:26Z</time></trkpt>
<trkpt lat="24.600917" lon="105.891574">
<time>2015-09-27T15:20:27Z</time></trkpt>
<trkpt lat="24.600997" lon="105.891544">
<time>2015-09-27T15:20:28Z</time></trkpt>
<trkpt lat="24.601077" lon="105.891504">
<time>2015-09-27T15:20:29Z</time></trkpt>
<trkpt lat="24.601147" lon="105.891454">
<time>2015-09-27T15:20:30Z</time></trkpt>
<trkpt lat="24.601637" lon="105.891074">
<time>2015-09-27T15:20:31Z</time></trkpt>
<trkpt lat="24.602217" lon="105.890584">
<time>2015-09-27T15:20:32Z</time></trkpt>
<trkpt lat="24.602887" lon="105.890084">
<time>2015-09-27T15:20:33Z</time></trkpt>
<trkpt lat="24.602957" lon="105.890024">
<time>2015-09-27T15:20:34Z</time></trkpt>
<trkpt lat="24.603027" lon="105.889954">
<time>2015-09-27T15:20:35Z</time></trkpt>
<trkpt lat="24.603077" lon="105.889904">
<time>2015-09-27T15:20:36Z</time></trkpt>
<trkpt lat="24.603137" lon="105.889834">
<time>2015-09-27T15:20:37Z</time></trkpt>
<trkpt lat="24.603177" lon="105.889784">
<time>2015-09-27T15:20:38Z</time></trkpt>
<trkpt lat="24.603207" lon="105.889734">
<time>2015-09-27T15:20:39Z</time></trkpt>
<trkpt lat="24.603237" lon="105.889684">
<time>2015-09-27T15:20:40Z</time></trkpt>
<trkpt lat="24.603267" lon="105.889634">
<time>2015-09-27T15:20:41Z</time></trkpt>
<trkpt lat="24.603287" lon="105.889564">
<time>2015-09-27T15:20:42Z</time></trkpt>
<trkpt lat="24.603317" lon="105.889474">
<time>2015-09-27T15:20:43Z</time></trkpt>
<trkpt lat="24.603347" lon="105.889344">
<time>2015-09-27T15:20:44Z</time></trkpt>
<trkpt lat="24.603466" lon="105.888794">
<time>2015-09-27T15:20:45Z</time></trkpt>
<trkpt lat="24.603506" lon="105.888534">
<time>2015-09-27T15:20:46Z</time></trkpt>
<trkpt lat="24.603546" lon="105.888364">
<time>2015-09-27T15:20:47Z</time></trkpt>
<trkpt lat="24.603596" lon="105.888184">
<time>2015-09-27T15:20:48Z</time></trkpt>
<trkpt lat="24.603676" lon="105.888004">
<time>2015-09-27T15:20:49Z</time></trkpt>
<trkpt lat="24.603766" lon="105.887844">
<time>2015-09-27T15:20:50Z</time></trkpt>
<trkpt lat="24.603846" lon="105.887704">
<time>2015-09-27T15:20:51Z</time></trkpt>
<trkpt lat="24.603916" lon="105.887604">
<time>2015-09-27T15:20:52Z</time></trkpt>
<trkpt lat="24.604036" lon="105.887454">
<time>2015-09-27T15:20:53Z</time></trkpt>
<trkpt lat="24.604825" lon="105.886503">
<time>2015-09-27T15:20:54Z</time></trkpt>
<trkpt lat="24.604885" lon="105.886423">
<time>2015-09-27T15:20:55Z</time></trkpt>
<trkpt lat="24.604935" lon="105.886353">
<time>2015-09-27T15:20:56Z</time></trkpt>
<trkpt lat="24.604985" lon="105.886273">
<time>2015-09-27T15:20:57Z</time></trkpt>
<trkpt lat="24.605015" lon="105.886183">
<time>2015-09-27T15:20:58Z</time></trkpt>
<trkpt lat="24.605045" lon="105.886103">
<time>2015-09-27T15:20:59Z</time></trkpt>
<trkpt lat="24.605065" lon="105.886013">
<time>2015-09-27T15:21:00Z</time></trkpt>
<trkpt lat="24.605075" lon="105.885903">
<time>2015-09-27T15:21:01Z</time></trkpt>
<trkpt lat="24.605085" lon="105.885803">
<time>2015-09-27T15:21:02Z</time></trkpt>
<trkpt lat="24.605095" lon="105.885633">
<time>2015-09-27T15:21:03Z</time></trkpt>
<trkpt lat="24.605115" lon="105.885123">
<time>2015-09-27T15:21:04Z</time></trkpt>
<trkpt lat="24.605135" lon="105.884883">
<time>2015-09-27T15:21:05Z</time></trkpt>
<trkpt lat="24.605144" lon="105.884733">
<time>2015-09-27T15:21:06Z</time></trkpt>
<trkpt lat="24.605164" lon="105.884632">
<time>2015-09-27T15:21:07Z</time></trkpt>
<trkpt lat="24.605174" lon="105.884532">
<time>2015-09-27T15:21:08Z</time></trkpt>
<trkpt lat="24.605204" lon="105.884442">
<time>2015-09-27T15:21:09Z</time></trkpt>
<trkpt lat="24.605224" lon="105.884362">
<time>2015-09-27T15:21:10Z</time></trkpt>
<trkpt lat="24.605254" lon="105.884282">
<time>2015-09-27T15:21:11Z</time></trkpt>
<trkpt lat="24.605294" lon="105.884192">
<time>2015-09-27T15:21:12Z</time></trkpt>
<trkpt lat="24.605344" lon="105.884092">
<time>2015-09-27T15:21:13Z</time></trkpt>
<trkpt lat="24.605404" lon="105.884002">
<time>2015-09-27T15:21:14Z</time></trkpt>
<trkpt lat="24.605454" lon="105.883932">
<time>2015-09-27T15:21:15Z</time></trkpt>
<trkpt lat="24.605514" lon="105.883862">
<time>2015-09-27T15:21:16Z</time></trkpt>
<trkpt lat="24.605564" lon="105.883812">
<time>2015-09-27T15:21:17Z</time></trkpt>
<trkpt lat="24.605744" lon="105.883662">
<time>2015-09-27T15:21:18Z</time></trkpt>
<trkpt lat="24.606264" lon="105.883302">
<time>2015-09-27T15:21:19Z</time></trkpt>
<trkpt lat="24.606374" lon="105.883232">
<time>2015-09-27T15:21:20Z</time></trkpt>
<trkpt lat="24.606474" lon="105.883172">
<time>2015-09-27T15:21:21Z</time></trkpt>
<trkpt lat="24.606584" lon="105.883132">
<time>2015-09-27T15:21:22Z</time></trkpt>
<trkpt lat="24.607143" lon="105.882912">
<time>2015-09-27T15:21:23Z</time></trkpt>
<trkpt lat="24.607373" lon="105.882792">
<time>2015-09-27T15:21:24Z</time></trkpt>
<trkpt lat="24.607533" lon="105.882701">
<time>2015-09-27T15:21:25Z</time></trkpt>
<trkpt lat="24.607633" lon="105.882621">
<time>2015-09-27T15:21:26Z</time></trkpt>
<trkpt lat="24.607643" lon="105.882621">
<time>2015-09-27T15:21:27Z</time></trkpt>
<trkpt lat="24.607703" lon="105.882561">
<time>2015-09-27T15:21:28Z</time></trkpt>
<trkpt lat="24.607733" lon="105.882531">
<time>2015-09-27T15:21:29Z</time></trkpt>
<trkpt lat="24.607773" lon="105.882481">
<time>2015-09-27T15:21:30Z</time></trkpt>
<trkpt lat="24.607813" lon="105.882431">
<time>2015-09-27T15:21:31Z</time></trkpt>
<trkpt lat="24.607833" lon="105.882391">
<time>2015-09-27T15:21:32Z</time></trkpt>
<trkpt lat="24.607863" lon="105.882341">
<time>2015-09-27T15:21:33Z</time></trkpt>
<trkpt lat="24.607893" lon="105.882291">
<time>2015-09-27T15:21:34Z</time></trkpt>
<trkpt lat="24.607913" lon="105.882231">
<time>2015-09-27T15:21:35Z</time></trkpt>
<trkpt lat="24.607923" lon="105.882171">
<time>2015-09-27T15:21:36Z</time></trkpt>
<trkpt lat="24.607943" lon="105.882111">
<time>2015-09-27T15:21:37Z</time></trkpt>
<trkpt lat="24.607953" lon="105.882041">
<time>2015-09-27T15:21:38Z</time></trkpt>
<trkpt lat="24.607963" lon="105.881971">
<time>2015-09-27T15:21:39Z</time></trkpt>
<trkpt lat="24.607983" lon="105.881511">
<time>2015-09-27T15:21:40Z</time></trkpt>
<trkpt lat="24.608002" lon="105.881341">
<time>2015-09-27T15:21:41Z</time></trkpt>
<trkpt lat="24.608022" lon="105.881231">
<time>2015-09-27T15:21:42Z</time></trkpt>
<trkpt lat="24.608062" lon="105.881131">
<time>2015-09-27T15:21:43Z</time></trkpt>
<trkpt lat="24.608112" lon="105.881031">
<time>2015-09-27T15:21:44Z</time></trkpt>
<trkpt lat="24.608192" lon="105.880951">
<time>2015-09-27T15:21:45Z</time></trkpt>
<trkpt lat="24.608282" lon="105.88089">
<time>2015-09-27T15:21:46Z</time></trkpt>
<trkpt lat="24.608372" lon="105.88085">
<time>2015-09-27T15:21:47Z</time></trkpt>
<trkpt lat="24.608492" lon="105.88083">
<time>2015-09-27T15:21:48Z</time></trkpt>
<trkpt lat="24.608622" lon="105.88082">
<time>2015-09-27T15:21:49Z</time></trkpt>
<trkpt lat="24.608762" lon="105.88083">
<time>2015-09-27T15:21:50Z</time></trkpt>
<trkpt lat="24.608942" lon="105.88084">
<time>2015-09-27T15:21:51Z</time></trkpt>
<trkpt lat="24.609572" lon="105.88093">
<time>2015-09-27T15:21:52Z</time></trkpt>
<trkpt lat="24.610202" lon="105.88104">
<time>2015-09-27T15:21:53Z</time></trkpt>
<trkpt lat="24.610742" lon="105.88113">
<time>2015-09-27T15:21:54Z</time></trkpt>
<trkpt lat="24.611122" lon="105.88117">
<time>2015-09-27T15:21:55Z</time></trkpt>
<trkpt lat="24.611292" lon="105.88118">
<time>2015-09-27T15:21:56Z</time></trkpt>
<trkpt lat="24.611412" lon="105.88117">
<time>2015-09-27T15:21:57Z</time></trkpt>
<trkpt lat="24.611512" lon="105.88116">
<time>2015-09-27T15:21:58Z</time></trkpt>
<trkpt lat="24.611602" lon="105.88113">
<time>2015-09-27T15:21:59Z</time></trkpt>
<trkpt lat="24.611692" lon="105.88109">
<time>2015-09-27T15:22:00Z</time></trkpt>
<trkpt lat="24.611792" lon="105.88102">
<time>2015-09-27T15:22:01Z</time></trkpt>
<trkpt lat="24.611872" lon="105.88096">
<time>2015-09-27T15:22:02Z</time></trkpt>
<trkpt lat="24.611972" lon="105.88086">
<time>2015-09-27T15:22:03Z</time></trkpt>
<trkpt lat="24.612042" lon="105.88076">
<time>2015-09-27T15:22:04Z</time></trkpt>
<trkpt lat="24.612112" lon="105.88067">
<time>2015-09-27T15:22:05Z</time></trkpt>
<trkpt lat="24.612202" lon="105.88055">
<time>2015-09-27T15:22:06Z</time></trkpt>
<trkpt lat="24.612611" lon="105.8798">
<time>2015-09-27T15:22:07Z</time></trkpt>
<trkpt lat="24.612811" lon="105.879399">
<time>2015-09-27T15:22:08Z</time></trkpt>
<trkpt lat="24.613091" lon="105.878909">
<time>2015-09-27T15:22:09Z</time></trkpt>
<trkpt lat="24.613231" lon="105.878699">
<time>2015-09-27T15:22:10Z</time></trkpt>
<trkpt lat="24.613281" lon="105.878639">
<time>2015-09-27T15:22:11Z</time></trkpt>
<trkpt lat="24.613331" lon="105.878589">
<time>2015-09-27T15:22:12Z</time></trkpt>
<trkpt lat="24.613381" lon="105.878549">
<time>2015-09-27T15:22:13Z</time></trkpt>
<trkpt lat="24.61345" lon="105.878499">
<time>2015-09-27T15:22:14Z</time></trkpt>
<trkpt lat="24.61368" lon="105.878359">
<time>2015-09-27T15:22:15Z</time></trkpt>
<trkpt lat="24.61402" lon="105.878168">
<time>2015-09-27T15:22:16Z</time></trkpt>
<trkpt lat="24.61429" lon="105.878028">
<time>2015-09-27T15:22:17Z</time></trkpt>
<trkpt lat="24.61439" lon="105.877978">
<time>2015-09-27T15:22:18Z</time></trkpt>
<trkpt lat="24.61448" lon="105.877918">
<time>2015-09-27T15:22:19Z</time></trkpt>
<trkpt lat="24.61457" lon="105.877848">
<time>2015-09-27T15:22:20Z</time></trkpt>
<trkpt lat="24.61465" lon="105.877758">
<time>2015-09-27T15:22:21Z</time></trkpt>
<trkpt lat="24.61473" lon="105.877668">
<time>2015-09-27T15:22:22Z</time></trkpt>
<trkpt lat="24.61478" lon="105.877588">
<time>2015-09-27T15:22:23Z</time></trkpt>
<trkpt lat="24.61484" lon="105.877478">
<time>2015-09-27T15:22:24Z</time></trkpt>
<trkpt lat="24.6149" lon="105.877338">
<time>2015-09-27T15:22:25Z</time></trkpt>
<trkpt lat="24.615069" lon="105.876878">
<time>2015-09-27T15:22:26Z</time></trkpt>
<trkpt lat="24.615229" lon="105.876407">
<time>2015-09-27T15:22:27Z</time></trkpt>
<trkpt lat="24.615378" lon="105.875997">
<time>2015-09-27T15:22:28Z</time></trkpt>
<trkpt lat="24.615568" lon="105.875557">
<time>2015-09-27T15:22:29Z</time></trkpt>
<trkpt lat="24.615738" lon="105.875316">
<time>2015-09-27T15:22:30Z</time></trkpt>
<trkpt lat="24.615828" lon="105.875186">
<time>2015-09-27T15:22:31Z</time></trkpt>
<trkpt lat="24.615918" lon="105.875076">
<time>2015-09-27T15:22:32Z</time></trkpt>
<trkpt lat="24.616008" lon="105.875006">
<time>2015-09-27T15:22:33Z</time></trkpt>
<trkpt lat="24.616217" lon="105.874746">
<time>2015-09-27T15:22:34Z</time></trkpt>
<trkpt lat="24.616647" lon="105.874365">
<time>2015-09-27T15:22:35Z</time></trkpt>
<trkpt lat="24.617056" lon="105.873845">
<time>2015-09-27T15:22:36Z</time></trkpt>
<trkpt lat="24.617396" lon="105.873405">
<time>2015-09-27T15:22:37Z</time></trkpt>
<trkpt lat="24.617636" lon="105.872974">
<time>2015-09-27T15:22:38Z</time></trkpt>
<trkpt lat="24.618095" lon="105.872174">
<time>2015-09-27T15:22:39Z</time></trkpt>
<trkpt lat="24.618454" lon="105.871603">
<time>2015-09-27T15:22:40Z</time></trkpt>
<trkpt lat="24.618794" lon="105.871263">
<time>2015-09-27T15:22:41Z</time></trkpt>
<trkpt lat="24.619173" lon="105.870892">
<time>2015-09-27T15:22:42Z</time></trkpt>
<trkpt lat="24.619243" lon="105.870822">
<time>2015-09-27T15:22:43Z</time></trkpt>
<trkpt lat="24.619443" lon="105.870602">
<time>2015-09-27T15:22:44Z</time></trkpt>
<trkpt lat="24.619563" lon="105.870332">
<time>2015-09-27T15:22:45Z</time></trkpt>
<trkpt lat="24.619613" lon="105.870152">
<time>2015-09-27T15:22:46Z</time></trkpt>
<trkpt lat="24.619682" lon="105.869881">
<time>2015-09-27T15:22:47Z</time></trkpt>
<trkpt lat="24.619752" lon="105.869611">
<time>2015-09-27T15:22:48Z</time></trkpt>
<trkpt lat="24.619832" lon="105.869351">
<time>2015-09-27T15:22:49Z</time></trkpt>
<trkpt lat="24.619951" lon="105.86903">
<time>2015-09-27T15:22:50Z</time></trkpt>
<trkpt lat="24.620171" lon="105.86851">
<time>2015-09-27T15:22:51Z</time></trkpt>
<trkpt lat="24.62037" lon="105.868059">
<time>2015-09-27T15:22:52Z</time></trkpt>
<trkpt lat="24.62059" lon="105.867649">
<time>2015-09-27T15:22:53Z</time></trkpt>
<trkpt lat="24.62077" lon="105.867419">
<time>2015-09-27T15:22:54Z</time></trkpt>
<trkpt lat="24.621019" lon="105.867158">
<time>2015-09-27T15:22:55Z</time></trkpt>
<trkpt lat="24.621429" lon="105.866828">
<time>2015-09-27T15:22:56Z</time></trkpt>
<trkpt lat="24.621649" lon="105.866628">
<time>2015-09-27T15:22:57Z</time></trkpt>
<trkpt lat="24.621928" lon="105.866357">
<time>2015-09-27T15:22:58Z</time></trkpt>
<trkpt lat="24.622048" lon="105.866187">
<time>2015-09-27T15:22:59Z</time></trkpt>
<trkpt lat="24.622108" lon="105.866117">
<time>2015-09-27T15:23:00Z</time></trkpt>
<trkpt lat="24.622158" lon="105.866017">
<time>2015-09-27T15:23:01Z</time></trkpt>
<trkpt lat="24.622198" lon="105.865887">
<time>2015-09-27T15:23:02Z</time></trkpt>
<trkpt lat="24.622197" lon="105.865687">
<time>2015-09-27T15:23:03Z</time></trkpt>
<trkpt lat="24.622177" lon="105.865496">
<time>2015-09-27T15:23:04Z</time></trkpt>
<trkpt lat="24.622117" lon="105.865366">
<time>2015-09-27T15:23:05Z</time></trkpt>
<trkpt lat="24.622047" lon="105.865246">
<time>2015-09-27T15:23:06Z</time></trkpt>
<trkpt lat="24.621947" lon="105.865106">
<time>2015-09-27T15:23:07Z</time></trkpt>
<trkpt lat="24.621897" lon="105.865016">
<time>2015-09-27T15:23:08Z</time></trkpt>
<trkpt lat="24.621837" lon="105.864936">
<time>2015-09-27T15:23:09Z</time></trkpt>
<trkpt lat="24.621706" lon="105.864786">
<time>2015-09-27T15:23:10Z</time></trkpt>
<trkpt lat="24.621536" lon="105.864605">
<time>2015-09-27T15:23:11Z</time></trkpt>
<trkpt lat="24.621476" lon="105.864515">
<time>2015-09-27T15:23:12Z</time></trkpt>
<trkpt lat="24.621436" lon="105.864435">
<time>2015-09-27T15:23:13Z</time></trkpt>
<trkpt lat="24.621406" lon="105.864365">
<time>2015-09-27T15:23:14Z</time></trkpt>
<trkpt lat="24.621386" lon="105.864285">
<time>2015-09-27T15:23:15Z</time></trkpt>
<trkpt lat="24.621376" lon="105.864215">
<time>2015-09-27T15:23:16Z</time></trkpt>
<trkpt lat="24.621385" lon="105.864135">
<time>2015-09-27T15:23:17Z</time></trkpt>
<trkpt lat="24.621405" lon="105.864055">
<time>2015-09-27T15:23:18Z</time></trkpt>
<trkpt lat="24.621425" lon="105.863985">
<time>2015-09-27T15:23:19Z</time></trkpt>
<trkpt lat="24.621475" lon="105.863915">
<time>2015-09-27T15:23:20Z</time></trkpt>
<trkpt lat="24.621515" lon="105.863875">
<time>2015-09-27T15:23:21Z</time></trkpt>
<trkpt lat="24.621565" lon="105.863825">
<time>2015-09-27T15:23:22Z</time></trkpt>
<trkpt lat="24.621615" lon="105.863805">
<time>2015-09-27T15:23:23Z</time></trkpt>
<trkpt lat="24.621685" lon="105.863775">
<time>2015-09-27T15:23:24Z</time></trkpt>
<trkpt lat="24.621755" lon="105.863764">
<time>2015-09-27T15:23:25Z</time></trkpt>
<trkpt lat="24.621805" lon="105.863754">
<time>2015-09-27T15:23:26Z</time></trkpt>
<trkpt lat="24.621875" lon="105.863754">
<time>2015-09-27T15:23:27Z</time></trkpt>
<trkpt lat="24.622065" lon="105.863754">
<time>2015-09-27T15:23:28Z</time></trkpt>
<trkpt lat="24.622515" lon="105.863774">
<time>2015-09-27T15:23:29Z</time></trkpt>
<trkpt lat="24.622715" lon="105.863734">
<time>2015-09-27T15:23:30Z</time></trkpt>
<trkpt lat="24.622935" lon="105.863664">
<time>2015-09-27T15:23:31Z</time></trkpt>
<trkpt lat="24.623125" lon="105.863524">
<time>2015-09-27T15:23:32Z</time></trkpt>
<trkpt lat="24.623265" lon="105.863364">
<time>2015-09-27T15:23:33Z</time></trkpt>
<trkpt lat="24.623484" lon="105.863024">
<time>2015-09-27T15:23:34Z</time></trkpt>
<trkpt lat="24.623783" lon="105.862473">
<time>2015-09-27T15:23:35Z</time></trkpt>
<trkpt lat="24.624212" lon="105.861692">
<time>2015-09-27T15:23:36Z</time></trkpt>
<trkpt lat="24.624791" lon="105.860661">
<time>2015-09-27T15:23:37Z</time></trkpt>
<trkpt lat="24.624961" lon="105.86037">
<time>2015-09-27T15:23:38Z</time></trkpt>
<trkpt lat="24.62532" lon="105.859779">
<time>2015-09-27T15:23:39Z</time></trkpt>
<trkpt lat="24.626188" lon="105.858678">
<time>2015-09-27T15:23:40Z</time></trkpt>
<trkpt lat="24.628095" lon="105.856345">
<time>2015-09-27T15:23:41Z</time></trkpt>
<trkpt lat="24.628224" lon="105.856124">
<time>2015-09-27T15:23:42Z</time></trkpt>
<trkpt lat="24.628284" lon="105.855914">
<time>2015-09-27T15:23:43Z</time></trkpt>
<trkpt lat="24.628333" lon="105.855453">
<time>2015-09-27T15:23:44Z</time></trkpt>
<trkpt lat="24.628423" lon="105.854943">
<time>2015-09-27T15:23:45Z</time></trkpt>
<trkpt lat="24.628462" lon="105.854342">
<time>2015-09-27T15:23:46Z</time></trkpt>
<trkpt lat="24.628718" lon="105.852028">
<time>2015-09-27T15:23:47Z</time></trkpt>
<trkpt lat="24.628797" lon="105.851417">
<time>2015-09-27T15:23:48Z</time></trkpt>
<trkpt lat="24.628817" lon="105.851287">
<time>2015-09-27T15:23:49Z</time></trkpt>
<trkpt lat="24.628837" lon="105.851187">
<time>2015-09-27T15:23:50Z</time></trkpt>
<trkpt lat="24.628867" lon="105.851107">
<time>2015-09-27T15:23:51Z</time></trkpt>
<trkpt lat="24.628906" lon="105.851007">
<time>2015-09-27T15:23:52Z</time></trkpt>
<trkpt lat="24.628956" lon="105.850917">
<time>2015-09-27T15:23:53Z</time></trkpt>
<trkpt lat="24.629056" lon="105.850776">
<time>2015-09-27T15:23:54Z</time></trkpt>
<trkpt lat="24.629774" lon="105.849785">
<time>2015-09-27T15:23:55Z</time></trkpt>
<trkpt lat="24.630124" lon="105.849314">
<time>2015-09-27T15:23:56Z</time></trkpt>
<trkpt lat="24.630253" lon="105.849174">
<time>2015-09-27T15:23:57Z</time></trkpt>
<trkpt lat="24.630393" lon="105.849044">
<time>2015-09-27T15:23:58Z</time></trkpt>
<trkpt lat="24.630563" lon="105.848903">
<time>2015-09-27T15:23:59Z</time></trkpt>
<trkpt lat="24.630683" lon="105.848823">
<time>2015-09-27T15:24:00Z</time></trkpt>
<trkpt lat="24.630803" lon="105.848753">
<time>2015-09-27T15:24:01Z</time></trkpt>
<trkpt lat="24.630933" lon="105.848693">
<time>2015-09-27T15:24:02Z</time></trkpt>
<trkpt lat="24.631462" lon="105.848503">
<time>2015-09-27T15:24:03Z</time></trkpt>
<trkpt lat="24.631642" lon="105.848443">
<time>2015-09-27T15:24:04Z</time></trkpt>
<trkpt lat="24.631782" lon="105.848373">
<time>2015-09-27T15:24:05Z</time></trkpt>
<trkpt lat="24.631902" lon="105.848292">
<time>2015-09-27T15:24:06Z</time></trkpt>
<trkpt lat="24.632032" lon="105.848182">
<time>2015-09-27T15:24:07Z</time></trkpt>
<trkpt lat="24.632132" lon="105.848082">
<time>2015-09-27T15:24:08Z</time></trkpt>
<trkpt lat="24.632211" lon="105.847942">
<time>2015-09-27T15:24:09Z</time></trkpt>
<trkpt lat="24.632301" lon="105.847731">
<time>2015-09-27T15:24:10Z</time></trkpt>
<trkpt lat="24.632411" lon="105.847401">
<time>2015-09-27T15:24:11Z</time></trkpt>
<trkpt lat="24.632599" lon="105.84672">
<time>2015-09-27T15:24:12Z</time></trkpt>
<trkpt lat="24.632728" lon="105.846089">
<time>2015-09-27T15:24:13Z</time></trkpt>
<trkpt lat="24.632867" lon="105.845448">
<time>2015-09-27T15:24:14Z</time></trkpt>
<trkpt lat="24.632927" lon="105.845157">
<time>2015-09-27T15:24:15Z</time></trkpt>
<trkpt lat="24.632957" lon="105.845057">
<time>2015-09-27T15:24:16Z</time></trkpt>
<trkpt lat="24.632976" lon="105.844977">
<time>2015-09-27T15:24:17Z</time></trkpt>
<trkpt lat="24.633006" lon="105.844867">
<time>2015-09-27T15:24:18Z</time></trkpt>
<trkpt lat="24.633046" lon="105.844757">
<time>2015-09-27T15:24:19Z</time></trkpt>
<trkpt lat="24.633076" lon="105.844676">
<time>2015-09-27T15:24:20Z</time></trkpt>
<trkpt lat="24.633126" lon="105.844576">
<time>2015-09-27T15:24:21Z</time></trkpt>
<trkpt lat="24.633196" lon="105.844446">
<time>2015-09-27T15:24:22Z</time></trkpt>
<trkpt lat="24.633275" lon="105.844296">
<time>2015-09-27T15:24:23Z</time></trkpt>
<trkpt lat="24.633385" lon="105.844146">
<time>2015-09-27T15:24:24Z</time></trkpt>
<trkpt lat="24.633475" lon="105.844025">
<time>2015-09-27T15:24:25Z</time></trkpt>
<trkpt lat="24.633575" lon="105.843915">
<time>2015-09-27T15:24:26Z</time></trkpt>
<trkpt lat="24.633664" lon="105.843825">
<time>2015-09-27T15:24:27Z</time></trkpt>
<trkpt lat="24.633784" lon="105.843735">
<time>2015-09-27T15:24:28Z</time></trkpt>
<trkpt lat="24.633924" lon="105.843635">
<time>2015-09-27T15:24:29Z</time></trkpt>
<trkpt lat="24.634064" lon="105.843555">
<time>2015-09-27T15:24:30Z</time></trkpt>
<trkpt lat="24.634244" lon="105.843444">
<time>2015-09-27T15:24:31Z</time></trkpt>
<trkpt lat="24.634424" lon="105.843324">
<time>2015-09-27T15:24:32Z</time></trkpt>
<trkpt lat="24.634583" lon="105.843194">
<time>2015-09-27T15:24:33Z</time></trkpt>
<trkpt lat="24.634763" lon="105.843044">
<time>2015-09-27T15:24:34Z</time></trkpt>
<trkpt lat="24.634903" lon="105.842913">
<time>2015-09-27T15:24:35Z</time></trkpt>
<trkpt lat="24.634983" lon="105.842823">
<time>2015-09-27T15:24:36Z</time></trkpt>
<trkpt lat="24.635063" lon="105.842723">
<time>2015-09-27T15:24:37Z</time></trkpt>
<trkpt lat="24.635132" lon="105.842623">
<time>2015-09-27T15:24:38Z</time></trkpt>
<trkpt lat="24.635212" lon="105.842493">
<time>2015-09-27T15:24:39Z</time></trkpt>
<trkpt lat="24.635481" lon="105.841932">
<time>2015-09-27T15:24:40Z</time></trkpt>
<trkpt lat="24.63573" lon="105.841441">
<time>2015-09-27T15:24:41Z</time></trkpt>
<trkpt lat="24.63586" lon="105.84111">
<time>2015-09-27T15:24:42Z</time></trkpt>
<trkpt lat="24.635939" lon="105.84093">
<time>2015-09-27T15:24:43Z</time></trkpt>
<trkpt lat="24.636009" lon="105.84073">
<time>2015-09-27T15:24:44Z</time></trkpt>
<trkpt lat="24.636079" lon="105.840499">
<time>2015-09-27T15:24:45Z</time></trkpt>
<trkpt lat="24.636108" lon="105.840369">
<time>2015-09-27T15:24:46Z</time></trkpt>
<trkpt lat="24.636138" lon="105.840169">
<time>2015-09-27T15:24:47Z</time></trkpt>
<trkpt lat="24.636168" lon="105.840019">
<time>2015-09-27T15:24:48Z</time></trkpt>
<trkpt lat="24.636218" lon="105.839858">
<time>2015-09-27T15:24:49Z</time></trkpt>
<trkpt lat="24.636267" lon="105.839708">
<time>2015-09-27T15:24:50Z</time></trkpt>
<trkpt lat="24.636317" lon="105.839598">
<time>2015-09-27T15:24:51Z</time></trkpt>
<trkpt lat="24.636367" lon="105.839498">
<time>2015-09-27T15:24:52Z</time></trkpt>
<trkpt lat="24.636437" lon="105.839407">
<time>2015-09-27T15:24:53Z</time></trkpt>
<trkpt lat="24.636756" lon="105.838997">
<time>2015-09-27T15:24:54Z</time></trkpt>
<trkpt lat="24.637095" lon="105.838596">
<time>2015-09-27T15:24:55Z</time></trkpt>
<trkpt lat="24.637345" lon="105.838306">
<time>2015-09-27T15:24:56Z</time></trkpt>
<trkpt lat="24.637524" lon="105.838105">
<time>2015-09-27T15:24:57Z</time></trkpt>
<trkpt lat="24.637624" lon="105.838005">
<time>2015-09-27T15:24:58Z</time></trkpt>
<trkpt lat="24.637734" lon="105.837915">
<time>2015-09-27T15:24:59Z</time></trkpt>
<trkpt lat="24.637844" lon="105.837835">
<time>2015-09-27T15:25:00Z</time></trkpt>
<trkpt lat="24.638154" lon="105.837644">
<time>2015-09-27T15:25:01Z</time></trkpt>
<trkpt lat="24.638283" lon="105.837574">
<time>2015-09-27T15:25:02Z</time></trkpt>
<trkpt lat="24.638423" lon="105.837474">
<time>2015-09-27T15:25:03Z</time></trkpt>
<trkpt lat="24.638523" lon="105.837404">
<time>2015-09-27T15:25:04Z</time></trkpt>
<trkpt lat="24.638663" lon="105.837264">
<time>2015-09-27T15:25:05Z</time></trkpt>
<trkpt lat="24.639072" lon="105.836813">
<time>2015-09-27T15:25:06Z</time></trkpt>
<trkpt lat="24.63983" lon="105.835941">
<time>2015-09-27T15:25:07Z</time></trkpt>
<trkpt lat="24.640279" lon="105.8354">
<time>2015-09-27T15:25:08Z</time></trkpt>
<trkpt lat="24.640459" lon="105.83514">
<time>2015-09-27T15:25:09Z</time></trkpt>
<trkpt lat="24.640609" lon="105.834879">
<time>2015-09-27T15:25:10Z</time></trkpt>
<trkpt lat="24.640758" lon="105.834519">
<time>2015-09-27T15:25:11Z</time></trkpt>
<trkpt lat="24.640937" lon="105.833988">
<time>2015-09-27T15:25:12Z</time></trkpt>
<trkpt lat="24.641145" lon="105.832996">
<time>2015-09-27T15:25:13Z</time></trkpt>
<trkpt lat="24.641443" lon="105.831664">
<time>2015-09-27T15:25:14Z</time></trkpt>
<trkpt lat="24.641601" lon="105.830692">
<time>2015-09-27T15:25:15Z</time></trkpt>
<trkpt lat="24.64163" lon="105.830552">
<time>2015-09-27T15:25:16Z</time></trkpt>
<trkpt lat="24.64165" lon="105.830391">
<time>2015-09-27T15:25:17Z</time></trkpt>
<trkpt lat="24.64164" lon="105.830211">
<time>2015-09-27T15:25:18Z</time></trkpt>
<trkpt lat="24.6416" lon="105.830071">
<time>2015-09-27T15:25:19Z</time></trkpt>
<trkpt lat="24.641479" lon="105.82981">
<time>2015-09-27T15:25:20Z</time></trkpt>
<trkpt lat="24.641319" lon="105.82964">
<time>2015-09-27T15:25:21Z</time></trkpt>
<trkpt lat="24.640918" lon="105.829179">
<time>2015-09-27T15:25:22Z</time></trkpt>
<trkpt lat="24.640747" lon="105.828939">
<time>2015-09-27T15:25:23Z</time></trkpt>
<trkpt lat="24.640667" lon="105.828799">
<time>2015-09-27T15:25:24Z</time></trkpt>
<trkpt lat="24.640567" lon="105.828638">
<time>2015-09-27T15:25:25Z</time></trkpt>
<trkpt lat="24.640517" lon="105.828538">
<time>2015-09-27T15:25:26Z</time></trkpt>
<trkpt lat="24.640486" lon="105.828448">
<time>2015-09-27T15:25:27Z</time></trkpt>
<trkpt lat="24.640456" lon="105.828348">
<time>2015-09-27T15:25:28Z</time></trkpt>
<trkpt lat="24.640446" lon="105.828218">
<time>2015-09-27T15:25:29Z</time></trkpt>
<trkpt lat="24.640446" lon="105.828027">
<time>2015-09-27T15:25:30Z</time></trkpt>
<trkpt lat="24.640455" lon="105.827837">
<time>2015-09-27T15:25:31Z</time></trkpt>
<trkpt lat="24.640475" lon="105.827606">
<time>2015-09-27T15:25:32Z</time></trkpt>
<trkpt lat="24.640563" lon="105.826805">
<time>2015-09-27T15:25:33Z</time></trkpt>
<trkpt lat="24.640612" lon="105.826294">
<time>2015-09-27T15:25:34Z</time></trkpt>
<trkpt lat="24.640622" lon="105.826234">
<time>2015-09-27T15:25:35Z</time></trkpt>
<trkpt lat="24.640642" lon="105.826154">
<time>2015-09-27T15:25:36Z</time></trkpt>
<trkpt lat="24.640662" lon="105.826084">
<time>2015-09-27T15:25:37Z</time></trkpt>
<trkpt lat="24.640702" lon="105.825994">
<time>2015-09-27T15:25:38Z</time></trkpt>
<trkpt lat="24.640772" lon="105.825843">
<time>2015-09-27T15:25:39Z</time></trkpt>
<trkpt lat="24.640851" lon="105.825703">
<time>2015-09-27T15:25:40Z</time></trkpt>
<trkpt lat="24.640901" lon="105.825623">
<time>2015-09-27T15:25:41Z</time></trkpt>
<trkpt lat="24.640961" lon="105.825563">
<time>2015-09-27T15:25:42Z</time></trkpt>
<trkpt lat="24.641041" lon="105.825483">
<time>2015-09-27T15:25:43Z</time></trkpt>
<trkpt lat="24.641171" lon="105.825372">
<time>2015-09-27T15:25:44Z</time></trkpt>
<trkpt lat="24.64134" lon="105.825242">
<time>2015-09-27T15:25:45Z</time></trkpt>
<trkpt lat="24.64202" lon="105.824761">
<time>2015-09-27T15:25:46Z</time></trkpt>
<trkpt lat="24.642139" lon="105.824671">
<time>2015-09-27T15:25:47Z</time></trkpt>
<trkpt lat="24.642239" lon="105.824591">
<time>2015-09-27T15:25:48Z</time></trkpt>
<trkpt lat="24.642319" lon="105.824501">
<time>2015-09-27T15:25:49Z</time></trkpt>
<trkpt lat="24.642399" lon="105.824401">
<time>2015-09-27T15:25:50Z</time></trkpt>
<trkpt lat="24.642479" lon="105.8243">
<time>2015-09-27T15:25:51Z</time></trkpt>
<trkpt lat="24.642539" lon="105.82421">
<time>2015-09-27T15:25:52Z</time></trkpt>
<trkpt lat="24.642598" lon="105.82409">
<time>2015-09-27T15:25:53Z</time></trkpt>
<trkpt lat="24.642658" lon="105.82398">
<time>2015-09-27T15:25:54Z</time></trkpt>
<trkpt lat="24.642708" lon="105.82387">
<time>2015-09-27T15:25:55Z</time></trkpt>
<trkpt lat="24.642768" lon="105.823739">
<time>2015-09-27T15:25:56Z</time></trkpt>
<trkpt lat="24.642857" lon="105.823449">
<time>2015-09-27T15:25:57Z</time></trkpt>
<trkpt lat="24.643086" lon="105.822718">
<time>2015-09-27T15:25:58Z</time></trkpt>
<trkpt lat="24.643344" lon="105.821976">
<time>2015-09-27T15:25:59Z</time></trkpt>
<trkpt lat="24.643533" lon="105.821475">
<time>2015-09-27T15:26:00Z</time></trkpt>
<trkpt lat="24.643722" lon="105.820924">
<time>2015-09-27T15:26:01Z</time></trkpt>
<trkpt lat="24.643981" lon="105.820283">
<time>2015-09-27T15:26:02Z</time></trkpt>
<trkpt lat="24.64418" lon="105.819812">
<time>2015-09-27T15:26:03Z</time></trkpt>
<trkpt lat="24.644399" lon="105.819331">
<time>2015-09-27T15:26:04Z</time></trkpt>
<trkpt lat="24.645545" lon="105.816877">
<time>2015-09-27T15:26:05Z</time></trkpt>
<trkpt lat="24.646302" lon="105.815174">
<time>2015-09-27T15:26:06Z</time></trkpt>
<trkpt lat="24.646411" lon="105.814934">
<time>2015-09-27T15:26:07Z</time></trkpt>
<trkpt lat="24.646491" lon="105.814733">
<time>2015-09-27T15:26:08Z</time></trkpt>
<trkpt lat="24.64657" lon="105.814483">
<time>2015-09-27T15:26:09Z</time></trkpt>
<trkpt lat="24.64664" lon="105.814162">
<time>2015-09-27T15:26:10Z</time></trkpt>
<trkpt lat="24.646679" lon="105.813862">
<time>2015-09-27T15:26:11Z</time></trkpt>
<trkpt lat="24.646709" lon="105.813571">
<time>2015-09-27T15:26:12Z</time></trkpt>
<trkpt lat="24.646718" lon="105.813331">
<time>2015-09-27T15:26:13Z</time></trkpt>
<trkpt lat="24.646737" lon="105.81284">
<time>2015-09-27T15:26:14Z</time></trkpt>
<trkpt lat="24.646767" lon="105.812499">
<time>2015-09-27T15:26:15Z</time></trkpt>
<trkpt lat="24.646826" lon="105.812139">
<time>2015-09-27T15:26:16Z</time></trkpt>
<trkpt lat="24.646886" lon="105.811858">
<time>2015-09-27T15:26:17Z</time></trkpt>
<trkpt lat="24.646975" lon="105.811528">
<time>2015-09-27T15:26:18Z</time></trkpt>
<trkpt lat="24.647045" lon="105.811307">
<time>2015-09-27T15:26:19Z</time></trkpt>
<trkpt lat="24.647094" lon="105.811167">
<time>2015-09-27T15:26:20Z</time></trkpt>
<trkpt lat="24.647154" lon="105.811037">
<time>2015-09-27T15:26:21Z</time></trkpt>
<trkpt lat="24.647323" lon="105.810706">
<time>2015-09-27T15:26:22Z</time></trkpt>
<trkpt lat="24.648081" lon="105.809214">
<time>2015-09-27T15:26:23Z</time></trkpt>
<trkpt lat="24.648509" lon="105.808282">
<time>2015-09-27T15:26:24Z</time></trkpt>
<trkpt lat="24.649077" lon="105.8071">
<time>2015-09-27T15:26:25Z</time></trkpt>
<trkpt lat="24.649207" lon="105.80686">
<time>2015-09-27T15:26:26Z</time></trkpt>
<trkpt lat="24.649316" lon="105.80666">
<time>2015-09-27T15:26:27Z</time></trkpt>
<trkpt lat="24.649396" lon="105.806499">
<time>2015-09-27T15:26:28Z</time></trkpt>
<trkpt lat="24.649396" lon="105.806499">
<time>2015-09-27T15:26:29Z</time></trkpt>
<trkpt lat="24.650123" lon="105.804977">
<time>2015-09-27T15:26:30Z</time></trkpt>
<trkpt lat="24.650283" lon="105.804786">
<time>2015-09-27T15:26:31Z</time></trkpt>
<trkpt lat="24.650333" lon="105.804726">
<time>2015-09-27T15:26:32Z</time></trkpt>
<trkpt lat="24.650393" lon="105.804666">
<time>2015-09-27T15:26:33Z</time></trkpt>
<trkpt lat="24.650463" lon="105.804596">
<time>2015-09-27T15:26:34Z</time></trkpt>
<trkpt lat="24.650503" lon="105.804566">
<time>2015-09-27T15:26:35Z</time></trkpt>
<trkpt lat="24.650563" lon="105.804526">
<time>2015-09-27T15:26:36Z</time></trkpt>
<trkpt lat="24.650633" lon="105.804486">
<time>2015-09-27T15:26:37Z</time></trkpt>
<trkpt lat="24.650702" lon="105.804456">
<time>2015-09-27T15:26:38Z</time></trkpt>
<trkpt lat="24.650762" lon="105.804436">
<time>2015-09-27T15:26:39Z</time></trkpt>
<trkpt lat="24.650822" lon="105.804426">
<time>2015-09-27T15:26:40Z</time></trkpt>
<trkpt lat="24.650882" lon="105.804416">
<time>2015-09-27T15:26:41Z</time></trkpt>
<trkpt lat="24.650932" lon="105.804426">
<time>2015-09-27T15:26:42Z</time></trkpt>
<trkpt lat="24.650992" lon="105.804436">
<time>2015-09-27T15:26:43Z</time></trkpt>
<trkpt lat="24.651072" lon="105.804456">
<time>2015-09-27T15:26:44Z</time></trkpt>
<trkpt lat="24.651413" lon="105.804546">
<time>2015-09-27T15:26:45Z</time></trkpt>
<trkpt lat="24.651603" lon="105.804606">
<time>2015-09-27T15:26:46Z</time></trkpt>
<trkpt lat="24.651783" lon="105.804666">
<time>2015-09-27T15:26:47Z</time></trkpt>
<trkpt lat="24.651813" lon="105.804676">
<time>2015-09-27T15:26:48Z</time></trkpt>
<trkpt lat="24.651843" lon="105.804686">
<time>2015-09-27T15:26:49Z</time></trkpt>
<trkpt lat="24.651893" lon="105.804686">
<time>2015-09-27T15:26:50Z</time></trkpt>
<trkpt lat="24.651963" lon="105.804696">
<time>2015-09-27T15:26:51Z</time></trkpt>
<trkpt lat="24.652033" lon="105.804706">
<time>2015-09-27T15:26:52Z</time></trkpt>
<trkpt lat="24.652283" lon="105.804696">
<time>2015-09-27T15:26:53Z</time></trkpt>
<trkpt lat="24.652373" lon="105.804696">
<time>2015-09-27T15:26:54Z</time></trkpt>
<trkpt lat="24.652453" lon="105.804706">
<time>2015-09-27T15:26:55Z</time></trkpt>
<trkpt lat="24.652643" lon="105.804756">
<time>2015-09-27T15:26:56Z</time></trkpt>
<trkpt lat="24.652803" lon="105.804796">
<time>2015-09-27T15:26:57Z</time></trkpt>
<trkpt lat="24.652893" lon="105.804806">
<time>2015-09-27T15:26:58Z</time></trkpt>
<trkpt lat="24.653003" lon="105.804816">
<time>2015-09-27T15:26:59Z</time></trkpt>
<trkpt lat="24.653093" lon="105.804796">
<time>2015-09-27T15:27:00Z</time></trkpt>
<trkpt lat="24.653183" lon="105.804776">
<time>2015-09-27T15:27:01Z</time></trkpt>
<trkpt lat="24.653263" lon="105.804746">
<time>2015-09-27T15:27:02Z</time></trkpt>
<trkpt lat="24.653353" lon="105.804686">
<time>2015-09-27T15:27:03Z</time></trkpt>
<trkpt lat="24.653443" lon="105.804616">
<time>2015-09-27T15:27:04Z</time></trkpt>
<trkpt lat="24.653503" lon="105.804556">
<time>2015-09-27T15:27:05Z</time></trkpt>
<trkpt lat="24.653593" lon="105.804456">
<time>2015-09-27T15:27:06Z</time></trkpt>
<trkpt lat="24.653782" lon="105.804185">
<time>2015-09-27T15:27:07Z</time></trkpt>
<trkpt lat="24.654071" lon="105.803795">
<time>2015-09-27T15:27:08Z</time></trkpt>
<trkpt lat="24.654181" lon="105.803654">
<time>2015-09-27T15:27:09Z</time></trkpt>
<trkpt lat="24.654431" lon="105.803304">
<time>2015-09-27T15:27:10Z</time></trkpt>
<trkpt lat="24.65457" lon="105.803134">
<time>2015-09-27T15:27:11Z</time></trkpt>
<trkpt lat="24.65478" lon="105.802893">
<time>2015-09-27T15:27:12Z</time></trkpt>
<trkpt lat="24.65484" lon="105.802823">
<time>2015-09-27T15:27:13Z</time></trkpt>
<trkpt lat="24.65487" lon="105.802763">
<time>2015-09-27T15:27:14Z</time></trkpt>
<trkpt lat="24.65491" lon="105.802703">
<time>2015-09-27T15:27:15Z</time></trkpt>
<trkpt lat="24.654969" lon="105.802583">
<time>2015-09-27T15:27:16Z</time></trkpt>
<trkpt lat="24.655019" lon="105.802473">
<time>2015-09-27T15:27:17Z</time></trkpt>
<trkpt lat="24.655079" lon="105.802332">
<time>2015-09-27T15:27:18Z</time></trkpt>
<trkpt lat="24.655119" lon="105.802242">
<time>2015-09-27T15:27:19Z</time></trkpt>
<trkpt lat="24.655179" lon="105.802132">
<time>2015-09-27T15:27:20Z</time></trkpt>
<trkpt lat="24.655248" lon="105.802012">
<time>2015-09-27T15:27:21Z</time></trkpt>
<trkpt lat="24.655338" lon="105.801882">
<time>2015-09-27T15:27:22Z</time></trkpt>
<trkpt lat="24.655508" lon="105.801671">
<time>2015-09-27T15:27:23Z</time></trkpt>
<trkpt lat="24.655737" lon="105.801391">
<time>2015-09-27T15:27:24Z</time></trkpt>
<trkpt lat="24.655827" lon="105.801271">
<time>2015-09-27T15:27:25Z</time></trkpt>
<trkpt lat="24.655997" lon="105.80108">
<time>2015-09-27T15:27:26Z</time></trkpt>
<trkpt lat="24.656107" lon="105.80096">
<time>2015-09-27T15:27:27Z</time></trkpt>
<trkpt lat="24.656246" lon="105.80075">
<time>2015-09-27T15:27:28Z</time></trkpt>
<trkpt lat="24.656436" lon="105.800509">
<time>2015-09-27T15:27:29Z</time></trkpt>
<trkpt lat="24.656596" lon="105.800339">
<time>2015-09-27T15:27:30Z</time></trkpt>
<trkpt lat="24.656665" lon="105.800279">
<time>2015-09-27T15:27:31Z</time></trkpt>
<trkpt lat="24.656745" lon="105.800219">
<time>2015-09-27T15:27:32Z</time></trkpt>
<trkpt lat="24.656845" lon="105.800169">
<time>2015-09-27T15:27:33Z</time></trkpt>
<trkpt lat="24.656925" lon="105.800129">
<time>2015-09-27T15:27:34Z</time></trkpt>
<trkpt lat="24.657115" lon="105.800049">
<time>2015-09-27T15:27:35Z</time></trkpt>
<trkpt lat="24.657605" lon="105.799868">
<time>2015-09-27T15:27:36Z</time></trkpt>
<trkpt lat="24.658294" lon="105.799598">
<time>2015-09-27T15:27:37Z</time></trkpt>
<trkpt lat="24.658774" lon="105.799428">
<time>2015-09-27T15:27:38Z</time></trkpt>
<trkpt lat="24.659134" lon="105.799287">
<time>2015-09-27T15:27:39Z</time></trkpt>
<trkpt lat="24.660223" lon="105.798867">
<time>2015-09-27T15:27:40Z</time></trkpt>
<trkpt lat="24.660653" lon="105.798707">
<time>2015-09-27T15:27:41Z</time></trkpt>
<trkpt lat="24.661003" lon="105.798576">
<time>2015-09-27T15:27:42Z</time></trkpt>
<trkpt lat="24.661183" lon="105.798526">
<time>2015-09-27T15:27:43Z</time></trkpt>
<trkpt lat="24.661273" lon="105.798506">
<time>2015-09-27T15:27:44Z</time></trkpt>
<trkpt lat="24.661373" lon="105.798496">
<time>2015-09-27T15:27:45Z</time></trkpt>
<trkpt lat="24.661523" lon="105.798496">
<time>2015-09-27T15:27:46Z</time></trkpt>
<trkpt lat="24.661643" lon="105.798496">
<time>2015-09-27T15:27:47Z</time></trkpt>
<trkpt lat="24.661733" lon="105.798516">
<time>2015-09-27T15:27:48Z</time></trkpt>
<trkpt lat="24.661793" lon="105.798526">
<time>2015-09-27T15:27:49Z</time></trkpt>
<trkpt lat="24.661863" lon="105.798536">
<time>2015-09-27T15:27:50Z</time></trkpt>
<trkpt lat="24.661973" lon="105.798576">
<time>2015-09-27T15:27:51Z</time></trkpt>
<trkpt lat="24.662113" lon="105.798636">
<time>2015-09-27T15:27:52Z</time></trkpt>
<trkpt lat="24.662213" lon="105.798676">
<time>2015-09-27T15:27:53Z</time></trkpt>
<trkpt lat="24.662293" lon="105.798676">
<time>2015-09-27T15:27:54Z</time></trkpt>
<trkpt lat="24.662373" lon="105.798676">
<time>2015-09-27T15:27:55Z</time></trkpt>
<trkpt lat="24.662443" lon="105.798656">
<time>2015-09-27T15:27:56Z</time></trkpt>
<trkpt lat="24.662523" lon="105.798626">
<time>2015-09-27T15:27:57Z</time></trkpt>
<trkpt lat="24.662603" lon="105.798576">
<time>2015-09-27T15:27:58Z</time></trkpt>
<trkpt lat="24.662703" lon="105.798466">
<time>2015-09-27T15:27:59Z</time></trkpt>
<trkpt lat="24.662782" lon="105.798366">
<time>2015-09-27T15:28:00Z</time></trkpt>
<trkpt lat="24.662852" lon="105.798266">
<time>2015-09-27T15:28:01Z</time></trkpt>
<trkpt lat="24.662892" lon="105.798186">
<time>2015-09-27T15:28:02Z</time></trkpt>
<trkpt lat="24.662932" lon="105.798095">
<time>2015-09-27T15:28:03Z</time></trkpt>
<trkpt lat="24.662982" lon="105.797945">
<time>2015-09-27T15:28:04Z</time></trkpt>
<trkpt lat="24.663141" lon="105.797485">
<time>2015-09-27T15:28:05Z</time></trkpt>
<trkpt lat="24.663191" lon="105.797284">
<time>2015-09-27T15:28:06Z</time></trkpt>
<trkpt lat="24.66332" lon="105.796703">
<time>2015-09-27T15:28:07Z</time></trkpt>
<trkpt lat="24.663369" lon="105.796563">
<time>2015-09-27T15:28:08Z</time></trkpt>
<trkpt lat="24.663449" lon="105.796453">
<time>2015-09-27T15:28:09Z</time></trkpt>
<trkpt lat="24.663549" lon="105.796313">
<time>2015-09-27T15:28:10Z</time></trkpt>
<trkpt lat="24.663649" lon="105.796183">
<time>2015-09-27T15:28:11Z</time></trkpt>
<trkpt lat="24.663759" lon="105.796042">
<time>2015-09-27T15:28:12Z</time></trkpt>
<trkpt lat="24.663858" lon="105.795912">
<time>2015-09-27T15:28:13Z</time></trkpt>
<trkpt lat="24.664068" lon="105.795732">
<time>2015-09-27T15:28:14Z</time></trkpt>
<trkpt lat="24.664308" lon="105.795582">
<time>2015-09-27T15:28:15Z</time></trkpt>
<trkpt lat="24.664538" lon="105.795462">
<time>2015-09-27T15:28:16Z</time></trkpt>
<trkpt lat="24.664748" lon="105.795351">
<time>2015-09-27T15:28:17Z</time></trkpt>
<trkpt lat="24.664937" lon="105.795281">
<time>2015-09-27T15:28:18Z</time></trkpt>
<trkpt lat="24.665187" lon="105.795221">
<time>2015-09-27T15:28:19Z</time></trkpt>
<trkpt lat="24.665497" lon="105.795161">
<time>2015-09-27T15:28:20Z</time></trkpt>
<trkpt lat="24.665747" lon="105.795091">
<time>2015-09-27T15:28:21Z</time></trkpt>
<trkpt lat="24.665827" lon="105.795081">
<time>2015-09-27T15:28:22Z</time></trkpt>
<trkpt lat="24.665917" lon="105.795051">
<time>2015-09-27T15:28:23Z</time></trkpt>
<trkpt lat="24.665997" lon="105.795021">
<time>2015-09-27T15:28:24Z</time></trkpt>
<trkpt lat="24.666057" lon="105.794981">
<time>2015-09-27T15:28:25Z</time></trkpt>
<trkpt lat="24.666117" lon="105.794941">
<time>2015-09-27T15:28:26Z</time></trkpt>
<trkpt lat="24.666177" lon="105.794891">
<time>2015-09-27T15:28:27Z</time></trkpt>
<trkpt lat="24.666227" lon="105.794841">
<time>2015-09-27T15:28:28Z</time></trkpt>
<trkpt lat="24.666287" lon="105.794771">
<time>2015-09-27T15:28:29Z</time></trkpt>
<trkpt lat="24.666346" lon="105.79468">
<time>2015-09-27T15:28:30Z</time></trkpt>
<trkpt lat="24.666396" lon="105.7946">
<time>2015-09-27T15:28:31Z</time></trkpt>
<trkpt lat="24.666446" lon="105.7945">
<time>2015-09-27T15:28:32Z</time></trkpt>
<trkpt lat="24.666506" lon="105.79439">
<time>2015-09-27T15:28:33Z</time></trkpt>
<trkpt lat="24.666676" lon="105.79407">
<time>2015-09-27T15:28:34Z</time></trkpt>
<trkpt lat="24.666865" lon="105.793669">
<time>2015-09-27T15:28:35Z</time></trkpt>
<trkpt lat="24.667064" lon="105.793369">
<time>2015-09-27T15:28:36Z</time></trkpt>
<trkpt lat="24.667254" lon="105.793158">
<time>2015-09-27T15:28:37Z</time></trkpt>
<trkpt lat="24.667494" lon="105.792978">
<time>2015-09-27T15:28:38Z</time></trkpt>
<trkpt lat="24.667744" lon="105.792818">
<time>2015-09-27T15:28:39Z</time></trkpt>
<trkpt lat="24.668033" lon="105.792708">
<time>2015-09-27T15:28:40Z</time></trkpt>
<trkpt lat="24.668073" lon="105.792708">
<time>2015-09-27T15:28:41Z</time></trkpt>
<trkpt lat="24.668243" lon="105.792668">
<time>2015-09-27T15:28:42Z</time></trkpt>
<trkpt lat="24.668483" lon="105.792638">
<time>2015-09-27T15:28:43Z</time></trkpt>
<trkpt lat="24.669473" lon="105.792547">
<time>2015-09-27T15:28:44Z</time></trkpt>
<trkpt lat="24.669493" lon="105.792537">
<time>2015-09-27T15:28:45Z</time></trkpt>
<trkpt lat="24.669493" lon="105.792537">
<time>2015-09-27T15:28:46Z</time></trkpt>
<trkpt lat="24.669533" lon="105.792527">
<time>2015-09-27T15:28:47Z</time></trkpt>
<trkpt lat="24.669543" lon="105.792517">
<time>2015-09-27T15:28:48Z</time></trkpt>
<trkpt lat="24.669553" lon="105.792507">
<time>2015-09-27T15:28:49Z</time></trkpt>
<trkpt lat="24.669553" lon="105.792497">
<time>2015-09-27T15:28:50Z</time></trkpt>
<trkpt lat="24.669583" lon="105.792457">
<time>2015-09-27T15:28:51Z</time></trkpt>
<trkpt lat="24.669583" lon="105.792427">
<time>2015-09-27T15:28:52Z</time></trkpt>
<trkpt lat="24.669593" lon="105.792407">
<time>2015-09-27T15:28:53Z</time></trkpt>
<trkpt lat="24.669603" lon="105.792377">
<time>2015-09-27T15:28:54Z</time></trkpt>
<trkpt lat="24.669603" lon="105.792347">
<time>2015-09-27T15:28:55Z</time></trkpt>
<trkpt lat="24.669603" lon="105.792307">
<time>2015-09-27T15:28:56Z</time></trkpt>
<trkpt lat="24.669512" lon="105.791696">
<time>2015-09-27T15:28:57Z</time></trkpt>
<trkpt lat="24.669381" lon="105.791105">
<time>2015-09-27T15:28:58Z</time></trkpt>
<trkpt lat="24.66926" lon="105.790635">
<time>2015-09-27T15:28:59Z</time></trkpt>
<trkpt lat="24.669098" lon="105.789233">
<time>2015-09-27T15:29:00Z</time></trkpt>
<trkpt lat="24.669087" lon="105.788572">
<time>2015-09-27T15:29:01Z</time></trkpt>
<trkpt lat="24.669137" lon="105.788342">
<time>2015-09-27T15:29:02Z</time></trkpt>
<trkpt lat="24.669317" lon="105.787952">
<time>2015-09-27T15:29:03Z</time></trkpt>
<trkpt lat="24.669436" lon="105.787641">
<time>2015-09-27T15:29:04Z</time></trkpt>
<trkpt lat="24.669595" lon="105.787151">
<time>2015-09-27T15:29:05Z</time></trkpt>
<trkpt lat="24.669725" lon="105.78687">
<time>2015-09-27T15:29:06Z</time></trkpt>
<trkpt lat="24.669885" lon="105.78667">
<time>2015-09-27T15:29:07Z</time></trkpt>
<trkpt lat="24.670055" lon="105.78643">
<time>2015-09-27T15:29:08Z</time></trkpt>
<trkpt lat="24.670264" lon="105.786129">
<time>2015-09-27T15:29:09Z</time></trkpt>
<trkpt lat="24.670424" lon="105.785769">
<time>2015-09-27T15:29:10Z</time></trkpt>
<trkpt lat="24.670613" lon="105.785248">
<time>2015-09-27T15:29:11Z</time></trkpt>
<trkpt lat="24.670892" lon="105.784457">
<time>2015-09-27T15:29:12Z</time></trkpt>
<trkpt lat="24.670962" lon="105.784157">
<time>2015-09-27T15:29:13Z</time></trkpt>
<trkpt lat="24.671001" lon="105.783927">
<time>2015-09-27T15:29:14Z</time></trkpt>
<trkpt lat="24.671011" lon="105.783677">
<time>2015-09-27T15:29:15Z</time></trkpt>
<trkpt lat="24.670981" lon="105.783466">
<time>2015-09-27T15:29:16Z</time></trkpt>
<trkpt lat="24.6709" lon="105.783076">
<time>2015-09-27T15:29:17Z</time></trkpt>
<trkpt lat="24.67083" lon="105.782605">
<time>2015-09-27T15:29:18Z</time></trkpt>
<trkpt lat="24.670809" lon="105.782195">
<time>2015-09-27T15:29:19Z</time></trkpt>
<trkpt lat="24.670829" lon="105.781785">
<time>2015-09-27T15:29:20Z</time></trkpt>
<trkpt lat="24.670898" lon="105.781304">
<time>2015-09-27T15:29:21Z</time></trkpt>
<trkpt lat="24.670988" lon="105.780944">
<time>2015-09-27T15:29:22Z</time></trkpt>
<trkpt lat="24.671057" lon="105.780653">
<time>2015-09-27T15:29:23Z</time></trkpt>
<trkpt lat="24.671177" lon="105.780433">
<time>2015-09-27T15:29:24Z</time></trkpt>
<trkpt lat="24.671357" lon="105.780113">
<time>2015-09-27T15:29:25Z</time></trkpt>
<trkpt lat="24.671496" lon="105.779893">
<time>2015-09-27T15:29:26Z</time></trkpt>
<trkpt lat="24.671526" lon="105.779793">
<time>2015-09-27T15:29:27Z</time></trkpt>
<trkpt lat="24.671586" lon="105.779572">
<time>2015-09-27T15:29:28Z</time></trkpt>
<trkpt lat="24.671626" lon="105.779252">
<time>2015-09-27T15:29:29Z</time></trkpt>
<trkpt lat="24.671695" lon="105.779002">
<time>2015-09-27T15:29:30Z</time></trkpt>
<trkpt lat="24.671954" lon="105.778321">
<time>2015-09-27T15:29:31Z</time></trkpt>
<trkpt lat="24.672054" lon="105.778041">
<time>2015-09-27T15:29:32Z</time></trkpt>
<trkpt lat="24.672094" lon="105.777781">
<time>2015-09-27T15:29:33Z</time></trkpt>
<trkpt lat="24.672173" lon="105.77724">
<time>2015-09-27T15:29:34Z</time></trkpt>
<trkpt lat="24.672183" lon="105.77707">
<time>2015-09-27T15:29:35Z</time></trkpt>
<trkpt lat="24.672183" lon="105.77683">
<time>2015-09-27T15:29:36Z</time></trkpt>
<trkpt lat="24.672173" lon="105.77669">
<time>2015-09-27T15:29:37Z</time></trkpt>
<trkpt lat="24.672173" lon="105.77656">
<time>2015-09-27T15:29:38Z</time></trkpt>
<trkpt lat="24.672182" lon="105.776309">
<time>2015-09-27T15:29:39Z</time></trkpt>
<trkpt lat="24.672222" lon="105.776069">
<time>2015-09-27T15:29:40Z</time></trkpt>
<trkpt lat="24.672222" lon="105.775929">
<time>2015-09-27T15:29:41Z</time></trkpt>
<trkpt lat="24.672202" lon="105.775779">
<time>2015-09-27T15:29:42Z</time></trkpt>
<trkpt lat="24.672121" lon="105.775479">
<time>2015-09-27T15:29:43Z</time></trkpt>
<trkpt lat="24.672091" lon="105.775179">
<time>2015-09-27T15:29:44Z</time></trkpt>
<trkpt lat="24.672091" lon="105.774978">
<time>2015-09-27T15:29:45Z</time></trkpt>
<trkpt lat="24.672171" lon="105.774708">
<time>2015-09-27T15:29:46Z</time></trkpt>
<trkpt lat="24.67226" lon="105.774418">
<time>2015-09-27T15:29:47Z</time></trkpt>
<trkpt lat="24.67234" lon="105.774168">
<time>2015-09-27T15:29:48Z</time></trkpt>
<trkpt lat="24.67239" lon="105.773908">
<time>2015-09-27T15:29:49Z</time></trkpt>
<trkpt lat="24.672469" lon="105.773497">
<time>2015-09-27T15:29:50Z</time></trkpt>
<trkpt lat="24.672649" lon="105.772687">
<time>2015-09-27T15:29:51Z</time></trkpt>
<trkpt lat="24.672828" lon="105.771946">
<time>2015-09-27T15:29:52Z</time></trkpt>
<trkpt lat="24.672898" lon="105.771746">
<time>2015-09-27T15:29:53Z</time></trkpt>
<trkpt lat="24.673018" lon="105.771526">
<time>2015-09-27T15:29:54Z</time></trkpt>
<trkpt lat="24.673167" lon="105.771296">
<time>2015-09-27T15:29:55Z</time></trkpt>
<trkpt lat="24.673217" lon="105.771146">
<time>2015-09-27T15:29:56Z</time></trkpt>
<trkpt lat="24.673237" lon="105.770985">
<time>2015-09-27T15:29:57Z</time></trkpt>
<trkpt lat="24.673247" lon="105.770765">
<time>2015-09-27T15:29:58Z</time></trkpt>
<trkpt lat="24.673247" lon="105.770575">
<time>2015-09-27T15:29:59Z</time></trkpt>
<trkpt lat="24.673257" lon="105.770365">
<time>2015-09-27T15:30:00Z</time></trkpt>
<trkpt lat="24.673326" lon="105.769975">
<time>2015-09-27T15:30:01Z</time></trkpt>
<trkpt lat="24.673326" lon="105.769925">
<time>2015-09-27T15:30:02Z</time></trkpt>
<trkpt lat="24.673326" lon="105.769855">
<time>2015-09-27T15:30:03Z</time></trkpt>
<trkpt lat="24.673316" lon="105.769755">
<time>2015-09-27T15:30:04Z</time></trkpt>
<trkpt lat="24.673286" lon="105.769665">
<time>2015-09-27T15:30:05Z</time></trkpt>
<trkpt lat="24.673256" lon="105.769595">
<time>2015-09-27T15:30:06Z</time></trkpt>
<trkpt lat="24.673206" lon="105.769515">
<time>2015-09-27T15:30:07Z</time></trkpt>
<trkpt lat="24.673156" lon="105.769435">
<time>2015-09-27T15:30:08Z</time></trkpt>
<trkpt lat="24.672936" lon="105.769204">
<time>2015-09-27T15:30:09Z</time></trkpt>
<trkpt lat="24.672866" lon="105.769134">
<time>2015-09-27T15:30:10Z</time></trkpt>
<trkpt lat="24.672836" lon="105.769084">
<time>2015-09-27T15:30:11Z</time></trkpt>
<trkpt lat="24.672805" lon="105.769024">
<time>2015-09-27T15:30:12Z</time></trkpt>
<trkpt lat="24.672795" lon="105.768974">
<time>2015-09-27T15:30:13Z</time></trkpt>
<trkpt lat="24.672775" lon="105.768924">
<time>2015-09-27T15:30:14Z</time></trkpt>
<trkpt lat="24.672765" lon="105.768854">
<time>2015-09-27T15:30:15Z</time></trkpt>
<trkpt lat="24.672735" lon="105.768244">
<time>2015-09-27T15:30:16Z</time></trkpt>
<trkpt lat="24.672694" lon="105.767393">
<time>2015-09-27T15:30:17Z</time></trkpt>
<trkpt lat="24.672694" lon="105.767393">
<time>2015-09-27T15:30:18Z</time></trkpt>
<trkpt lat="24.672724" lon="105.767373">
<time>2015-09-27T15:30:19Z</time></trkpt>
<trkpt lat="24.672794" lon="105.767293">
<time>2015-09-27T15:30:20Z</time></trkpt>
<trkpt lat="24.672874" lon="105.767173">
<time>2015-09-27T15:30:21Z</time></trkpt>
<trkpt lat="24.672944" lon="105.766983">
<time>2015-09-27T15:30:22Z</time></trkpt>
<trkpt lat="24.673004" lon="105.766723">
<time>2015-09-27T15:30:23Z</time></trkpt>
<trkpt lat="24.673133" lon="105.766193">
<time>2015-09-27T15:30:24Z</time></trkpt>
<trkpt lat="24.673173" lon="105.766093">
<time>2015-09-27T15:30:25Z</time></trkpt>
<trkpt lat="24.673263" lon="105.765783">
<time>2015-09-27T15:30:26Z</time></trkpt>
<trkpt lat="24.673333" lon="105.765603">
<time>2015-09-27T15:30:27Z</time></trkpt>
<trkpt lat="24.673403" lon="105.765473">
<time>2015-09-27T15:30:28Z</time></trkpt>
<trkpt lat="24.673493" lon="105.765362">
<time>2015-09-27T15:30:29Z</time></trkpt>
<trkpt lat="24.673653" lon="105.765172">
<time>2015-09-27T15:30:30Z</time></trkpt>
<trkpt lat="24.674042" lon="105.764702">
<time>2015-09-27T15:30:31Z</time></trkpt>
<trkpt lat="24.674382" lon="105.764252">
<time>2015-09-27T15:30:32Z</time></trkpt>
<trkpt lat="24.674881" lon="105.763422">
<time>2015-09-27T15:30:33Z</time></trkpt>
<trkpt lat="24.67601" lon="105.761511">
<time>2015-09-27T15:30:34Z</time></trkpt>
<trkpt lat="24.67674" lon="105.760311">
<time>2015-09-27T15:30:35Z</time></trkpt>
<trkpt lat="24.677459" lon="105.75929">
<time>2015-09-27T15:30:36Z</time></trkpt>
<trkpt lat="24.677699" lon="105.7589">
<time>2015-09-27T15:30:37Z</time></trkpt>
<trkpt lat="24.677859" lon="105.75858">
<time>2015-09-27T15:30:38Z</time></trkpt>
<trkpt lat="24.678119" lon="105.75797">
<time>2015-09-27T15:30:39Z</time></trkpt>
<trkpt lat="24.678308" lon="105.75746">
<time>2015-09-27T15:30:40Z</time></trkpt>
<trkpt lat="24.678418" lon="105.75699">
<time>2015-09-27T15:30:41Z</time></trkpt>
<trkpt lat="24.678548" lon="105.75595">
<time>2015-09-27T15:30:42Z</time></trkpt>
<trkpt lat="24.678628" lon="105.75554">
<time>2015-09-27T15:30:43Z</time></trkpt>
<trkpt lat="24.678678" lon="105.75542">
<time>2015-09-27T15:30:44Z</time></trkpt>
<trkpt lat="24.678738" lon="105.75533">
<time>2015-09-27T15:30:45Z</time></trkpt>
<trkpt lat="24.678808" lon="105.75522">
<time>2015-09-27T15:30:46Z</time></trkpt>
<trkpt lat="24.678908" lon="105.75512">
<time>2015-09-27T15:30:47Z</time></trkpt>
<trkpt lat="24.679018" lon="105.75504">
<time>2015-09-27T15:30:48Z</time></trkpt>
<trkpt lat="24.679178" lon="105.75495">
<time>2015-09-27T15:30:49Z</time></trkpt>
<trkpt lat="24.680347" lon="105.75445">
<time>2015-09-27T15:30:50Z</time></trkpt>
<trkpt lat="24.680937" lon="105.75419">
<time>2015-09-27T15:30:51Z</time></trkpt>
<trkpt lat="24.681077" lon="105.7541">
<time>2015-09-27T15:30:52Z</time></trkpt>
<trkpt lat="24.681177" lon="105.75401">
<time>2015-09-27T15:30:53Z</time></trkpt>
<trkpt lat="24.681267" lon="105.75389">
<time>2015-09-27T15:30:54Z</time></trkpt>
<trkpt lat="24.681317" lon="105.75376">
<time>2015-09-27T15:30:55Z</time></trkpt>
<trkpt lat="24.681357" lon="105.75361">
<time>2015-09-27T15:30:56Z</time></trkpt>
<trkpt lat="24.681367" lon="105.75343">
<time>2015-09-27T15:30:57Z</time></trkpt>
<trkpt lat="24.681377" lon="105.75305">
<time>2015-09-27T15:30:58Z</time></trkpt>
<trkpt lat="24.681357" lon="105.75244">
<time>2015-09-27T15:30:59Z</time></trkpt>
<trkpt lat="24.681347" lon="105.75207">
<time>2015-09-27T15:31:00Z</time></trkpt>
<trkpt lat="24.681367" lon="105.75169">
<time>2015-09-27T15:31:01Z</time></trkpt>
<trkpt lat="24.681437" lon="105.75146">
<time>2015-09-27T15:31:02Z</time></trkpt>
<trkpt lat="24.681497" lon="105.75131">
<time>2015-09-27T15:31:03Z</time></trkpt>
<trkpt lat="24.681627" lon="105.75108">
<time>2015-09-27T15:31:04Z</time></trkpt>
<trkpt lat="24.681757" lon="105.75084">
<time>2015-09-27T15:31:05Z</time></trkpt>
<trkpt lat="24.681817" lon="105.75072">
<time>2015-09-27T15:31:06Z</time></trkpt>
<trkpt lat="24.681897" lon="105.75059">
<time>2015-09-27T15:31:07Z</time></trkpt>
<trkpt lat="24.681976" lon="105.75042">
<time>2015-09-27T15:31:08Z</time></trkpt>
<trkpt lat="24.682016" lon="105.75033">
<time>2015-09-27T15:31:09Z</time></trkpt>
<trkpt lat="24.682076" lon="105.75018">
<time>2015-09-27T15:31:10Z</time></trkpt>
<trkpt lat="24.682096" lon="105.75011">
<time>2015-09-27T15:31:11Z</time></trkpt>
<trkpt lat="24.682116" lon="105.75001">
<time>2015-09-27T15:31:12Z</time></trkpt>
<trkpt lat="24.682186" lon="105.749751">
<time>2015-09-27T15:31:13Z</time></trkpt>
<trkpt lat="24.682226" lon="105.749511">
<time>2015-09-27T15:31:14Z</time></trkpt>
<trkpt lat="24.682296" lon="105.749021">
<time>2015-09-27T15:31:15Z</time></trkpt>
<trkpt lat="24.682366" lon="105.748761">
<time>2015-09-27T15:31:16Z</time></trkpt>
<trkpt lat="24.682416" lon="105.748541">
<time>2015-09-27T15:31:17Z</time></trkpt>
<trkpt lat="24.682506" lon="105.748291">
<time>2015-09-27T15:31:18Z</time></trkpt>
<trkpt lat="24.682726" lon="105.747891">
<time>2015-09-27T15:31:19Z</time></trkpt>
<trkpt lat="24.682906" lon="105.747671">
<time>2015-09-27T15:31:20Z</time></trkpt>
<trkpt lat="24.683036" lon="105.747531">
<time>2015-09-27T15:31:21Z</time></trkpt>
<trkpt lat="24.683986" lon="105.746481">
<time>2015-09-27T15:31:22Z</time></trkpt>
<trkpt lat="24.684496" lon="105.745992">
<time>2015-09-27T15:31:23Z</time></trkpt>
<trkpt lat="24.684916" lon="105.745612">
<time>2015-09-27T15:31:24Z</time></trkpt>
<trkpt lat="24.685196" lon="105.745412">
<time>2015-09-27T15:31:25Z</time></trkpt>
<trkpt lat="24.685556" lon="105.745202">
<time>2015-09-27T15:31:26Z</time></trkpt>
<trkpt lat="24.686026" lon="105.744962">
<time>2015-09-27T15:31:27Z</time></trkpt>
<trkpt lat="24.686766" lon="105.744682">
<time>2015-09-27T15:31:28Z</time></trkpt>
<trkpt lat="24.687916" lon="105.744212">
<time>2015-09-27T15:31:29Z</time></trkpt>
<trkpt lat="24.688356" lon="105.744012">
<time>2015-09-27T15:31:30Z</time></trkpt>
<trkpt lat="24.688586" lon="105.743872">
<time>2015-09-27T15:31:31Z</time></trkpt>
<trkpt lat="24.688776" lon="105.743732">
<time>2015-09-27T15:31:32Z</time></trkpt>
<trkpt lat="24.688876" lon="105.743632">
<time>2015-09-27T15:31:33Z</time></trkpt>
<trkpt lat="24.688996" lon="105.743512">
<time>2015-09-27T15:31:34Z</time></trkpt>
<trkpt lat="24.689096" lon="105.743373">
<time>2015-09-27T15:31:35Z</time></trkpt>
<trkpt lat="24.689206" lon="105.743193">
<time>2015-09-27T15:31:36Z</time></trkpt>
<trkpt lat="24.689316" lon="105.742993">
<time>2015-09-27T15:31:37Z</time></trkpt>
<trkpt lat="24.689456" lon="105.742663">
<time>2015-09-27T15:31:38Z</time></trkpt>
<trkpt lat="24.689757" lon="105.741943">
<time>2015-09-27T15:31:39Z</time></trkpt>
<trkpt lat="24.689947" lon="105.741583">
<time>2015-09-27T15:31:40Z</time></trkpt>
<trkpt lat="24.690067" lon="105.741384">
<time>2015-09-27T15:31:41Z</time></trkpt>
<trkpt lat="24.690187" lon="105.741224">
<time>2015-09-27T15:31:42Z</time></trkpt>
<trkpt lat="24.690487" lon="105.740884">
<time>2015-09-27T15:31:43Z</time></trkpt>
<trkpt lat="24.691267" lon="105.740004">
<time>2015-09-27T15:31:44Z</time></trkpt>
<trkpt lat="24.691537" lon="105.739665">
<time>2015-09-27T15:31:45Z</time></trkpt>
<trkpt lat="24.691627" lon="105.739525">
<time>2015-09-27T15:31:46Z</time></trkpt>
<trkpt lat="24.691657" lon="105.739415">
<time>2015-09-27T15:31:47Z</time></trkpt>
<trkpt lat="24.691657" lon="105.739295">
<time>2015-09-27T15:31:48Z</time></trkpt>
<trkpt lat="24.691657" lon="105.739155">
<time>2015-09-27T15:31:49Z</time></trkpt>
<trkpt lat="24.691627" lon="105.739025">
<time>2015-09-27T15:31:50Z</time></trkpt>
<trkpt lat="24.691547" lon="105.738845">
<time>2015-09-27T15:31:51Z</time></trkpt>
<trkpt lat="24.691447" lon="105.738655">
<time>2015-09-27T15:31:52Z</time></trkpt>
<trkpt lat="24.691377" lon="105.738505">
<time>2015-09-27T15:31:53Z</time></trkpt>
<trkpt lat="24.690418" lon="105.736787">
<time>2015-09-27T15:31:54Z</time></trkpt>
<trkpt lat="24.690328" lon="105.736607">
<time>2015-09-27T15:31:55Z</time></trkpt>
<trkpt lat="24.690278" lon="105.736457">
<time>2015-09-27T15:31:56Z</time></trkpt>
<trkpt lat="24.690248" lon="105.736317">
<time>2015-09-27T15:31:57Z</time></trkpt>
<trkpt lat="24.690248" lon="105.736197">
<time>2015-09-27T15:31:58Z</time></trkpt>
<trkpt lat="24.690268" lon="105.736047">
<time>2015-09-27T15:31:59Z</time></trkpt>
<trkpt lat="24.69089" lon="105.73269">
<time>2015-09-27T15:32:00Z</time></trkpt>
<trkpt lat="24.69092" lon="105.732371">
<time>2015-09-27T15:32:01Z</time></trkpt>
<trkpt lat="24.69092" lon="105.732081">
<time>2015-09-27T15:32:02Z</time></trkpt>
<trkpt lat="24.69088" lon="105.731761">
<time>2015-09-27T15:32:03Z</time></trkpt>
<trkpt lat="24.690811" lon="105.731392">
<time>2015-09-27T15:32:04Z</time></trkpt>
<trkpt lat="24.690701" lon="105.731062">
<time>2015-09-27T15:32:05Z</time></trkpt>
<trkpt lat="24.690611" lon="105.730742">
<time>2015-09-27T15:32:06Z</time></trkpt>
<trkpt lat="24.690461" lon="105.730203">
<time>2015-09-27T15:32:07Z</time></trkpt>
<trkpt lat="24.690401" lon="105.729973">
<time>2015-09-27T15:32:08Z</time></trkpt>
<trkpt lat="24.690292" lon="105.729523">
<time>2015-09-27T15:32:09Z</time></trkpt>
<trkpt lat="24.690272" lon="105.729374">
<time>2015-09-27T15:32:10Z</time></trkpt>
<trkpt lat="24.690282" lon="105.729234">
<time>2015-09-27T15:32:11Z</time></trkpt>
<trkpt lat="24.690312" lon="105.729084">
<time>2015-09-27T15:32:12Z</time></trkpt>
<trkpt lat="24.690342" lon="105.728974">
<time>2015-09-27T15:32:13Z</time></trkpt>
<trkpt lat="24.690412" lon="105.728864">
<time>2015-09-27T15:32:14Z</time></trkpt>
<trkpt lat="24.690522" lon="105.728714">
<time>2015-09-27T15:32:15Z</time></trkpt>
<trkpt lat="24.690622" lon="105.728644">
<time>2015-09-27T15:32:16Z</time></trkpt>
<trkpt lat="24.690732" lon="105.728585">
<time>2015-09-27T15:32:17Z</time></trkpt>
<trkpt lat="24.690982" lon="105.728495">
<time>2015-09-27T15:32:18Z</time></trkpt>
<trkpt lat="24.691823" lon="105.728285">
<time>2015-09-27T15:32:19Z</time></trkpt>
<trkpt lat="24.692293" lon="105.728125">
<time>2015-09-27T15:32:20Z</time></trkpt>
<trkpt lat="24.692473" lon="105.728045">
<time>2015-09-27T15:32:21Z</time></trkpt>
<trkpt lat="24.692583" lon="105.727975">
<time>2015-09-27T15:32:22Z</time></trkpt>
<trkpt lat="24.692713" lon="105.727865">
<time>2015-09-27T15:32:23Z</time></trkpt>
<trkpt lat="24.692833" lon="105.727745">
<time>2015-09-27T15:32:24Z</time></trkpt>
<trkpt lat="24.693083" lon="105.727466">
<time>2015-09-27T15:32:25Z</time></trkpt>
<trkpt lat="24.693483" lon="105.726966">
<time>2015-09-27T15:32:26Z</time></trkpt>
<trkpt lat="24.693654" lon="105.726796">
<time>2015-09-27T15:32:27Z</time></trkpt>
<trkpt lat="24.693754" lon="105.726697">
<time>2015-09-27T15:32:28Z</time></trkpt>
<trkpt lat="24.693904" lon="105.726617">
<time>2015-09-27T15:32:29Z</time></trkpt>
<trkpt lat="24.694014" lon="105.726577">
<time>2015-09-27T15:32:30Z</time></trkpt>
<trkpt lat="24.694124" lon="105.726547">
<time>2015-09-27T15:32:31Z</time></trkpt>
<trkpt lat="24.694254" lon="105.726537">
<time>2015-09-27T15:32:32Z</time></trkpt>
<trkpt lat="24.694374" lon="105.726537">
<time>2015-09-27T15:32:33Z</time></trkpt>
<trkpt lat="24.694564" lon="105.726577">
<time>2015-09-27T15:32:34Z</time></trkpt>
<trkpt lat="24.694754" lon="105.726607">
<time>2015-09-27T15:32:35Z</time></trkpt>
<trkpt lat="24.694934" lon="105.726607">
<time>2015-09-27T15:32:36Z</time></trkpt>
<trkpt lat="24.695024" lon="105.726587">
<time>2015-09-27T15:32:37Z</time></trkpt>
<trkpt lat="24.695174" lon="105.726557">
<time>2015-09-27T15:32:38Z</time></trkpt>
<trkpt lat="24.695274" lon="105.726497">
<time>2015-09-27T15:32:39Z</time></trkpt>
<trkpt lat="24.695354" lon="105.726447">
<time>2015-09-27T15:32:40Z</time></trkpt>
<trkpt lat="24.695414" lon="105.726417">
<time>2015-09-27T15:32:41Z</time></trkpt>
<trkpt lat="24.695474" lon="105.726357">
<time>2015-09-27T15:32:42Z</time></trkpt>
<trkpt lat="24.695514" lon="105.726297">
<time>2015-09-27T15:32:43Z</time></trkpt>
<trkpt lat="24.695564" lon="105.726227">
<time>2015-09-27T15:32:44Z</time></trkpt>
<trkpt lat="24.695604" lon="105.726157">
<time>2015-09-27T15:32:45Z</time></trkpt>
<trkpt lat="24.695644" lon="105.726047">
<time>2015-09-27T15:32:46Z</time></trkpt>
<trkpt lat="24.695674" lon="105.725917">
<time>2015-09-27T15:32:47Z</time></trkpt>
<trkpt lat="24.695694" lon="105.725788">
<time>2015-09-27T15:32:48Z</time></trkpt>
<trkpt lat="24.695694" lon="105.725628">
<time>2015-09-27T15:32:49Z</time></trkpt>
<trkpt lat="24.695685" lon="105.725408">
<time>2015-09-27T15:32:50Z</time></trkpt>
<trkpt lat="24.695665" lon="105.725128">
<time>2015-09-27T15:32:51Z</time></trkpt>
<trkpt lat="24.695516" lon="105.72422">
<time>2015-09-27T15:32:52Z</time></trkpt>
<trkpt lat="24.695307" lon="105.722921">
<time>2015-09-27T15:32:53Z</time></trkpt>
<trkpt lat="24.695237" lon="105.722462">
<time>2015-09-27T15:32:54Z</time></trkpt>
<trkpt lat="24.695217" lon="105.722352">
<time>2015-09-27T15:32:55Z</time></trkpt>
<trkpt lat="24.695187" lon="105.722082">
<time>2015-09-27T15:32:56Z</time></trkpt>
<trkpt lat="24.695198" lon="105.721923">
<time>2015-09-27T15:32:57Z</time></trkpt>
<trkpt lat="24.695218" lon="105.721783">
<time>2015-09-27T15:32:58Z</time></trkpt>
<trkpt lat="24.695248" lon="105.721653">
<time>2015-09-27T15:32:59Z</time></trkpt>
<trkpt lat="24.695318" lon="105.721493">
<time>2015-09-27T15:33:00Z</time></trkpt>
<trkpt lat="24.695418" lon="105.721284">
<time>2015-09-27T15:33:01Z</time></trkpt>
<trkpt lat="24.695769" lon="105.720644">
<time>2015-09-27T15:33:02Z</time></trkpt>
<trkpt lat="24.69628" lon="105.719626">
<time>2015-09-27T15:33:03Z</time></trkpt>
<trkpt lat="24.69639" lon="105.719366">
<time>2015-09-27T15:33:04Z</time></trkpt>
<trkpt lat="24.69649" lon="105.719017">
<time>2015-09-27T15:33:05Z</time></trkpt>
<trkpt lat="24.696531" lon="105.718807">
<time>2015-09-27T15:33:06Z</time></trkpt>
<trkpt lat="24.696581" lon="105.718537">
<time>2015-09-27T15:33:07Z</time></trkpt>
<trkpt lat="24.696611" lon="105.718138">
<time>2015-09-27T15:33:08Z</time></trkpt>
<trkpt lat="24.696703" lon="105.71699">
<time>2015-09-27T15:33:09Z</time></trkpt>
<trkpt lat="24.696723" lon="105.716421">
<time>2015-09-27T15:33:10Z</time></trkpt>
<trkpt lat="24.696674" lon="105.715732">
<time>2015-09-27T15:33:11Z</time></trkpt>
<trkpt lat="24.696615" lon="105.714714">
<time>2015-09-27T15:33:12Z</time></trkpt>
<trkpt lat="24.696616" lon="105.713725">
<time>2015-09-27T15:33:13Z</time></trkpt>
<trkpt lat="24.696687" lon="105.712707">
<time>2015-09-27T15:33:14Z</time></trkpt>
<trkpt lat="24.696718" lon="105.712158">
<time>2015-09-27T15:33:15Z</time></trkpt>
<trkpt lat="24.69679" lon="105.71076">
<time>2015-09-27T15:33:16Z</time></trkpt>
<trkpt lat="24.696921" lon="105.709872">
<time>2015-09-27T15:33:17Z</time></trkpt>
<trkpt lat="24.697032" lon="105.709373">
<time>2015-09-27T15:33:18Z</time></trkpt>
<trkpt lat="24.697112" lon="105.709163">
<time>2015-09-27T15:33:19Z</time></trkpt>
<trkpt lat="24.697393" lon="105.708494">
<time>2015-09-27T15:33:20Z</time></trkpt>
<trkpt lat="24.697463" lon="105.708235">
<time>2015-09-27T15:33:21Z</time></trkpt>
<trkpt lat="24.697483" lon="105.708045">
<time>2015-09-27T15:33:22Z</time></trkpt>
<trkpt lat="24.697494" lon="105.707846">
<time>2015-09-27T15:33:23Z</time></trkpt>
<trkpt lat="24.697464" lon="105.707556">
<time>2015-09-27T15:33:24Z</time></trkpt>
<trkpt lat="24.697365" lon="105.706748">
<time>2015-09-27T15:33:25Z</time></trkpt>
<trkpt lat="24.697296" lon="105.706259">
<time>2015-09-27T15:33:26Z</time></trkpt>
<trkpt lat="24.697286" lon="105.705879">
<time>2015-09-27T15:33:27Z</time></trkpt>
<trkpt lat="24.697317" lon="105.70555">
<time>2015-09-27T15:33:28Z</time></trkpt>
<trkpt lat="24.697438" lon="105.704732">
<time>2015-09-27T15:33:29Z</time></trkpt>
<trkpt lat="24.697569" lon="105.703923">
<time>2015-09-27T15:33:30Z</time></trkpt>
<trkpt lat="24.697639" lon="105.703634">
<time>2015-09-27T15:33:31Z</time></trkpt>
<trkpt lat="24.69771" lon="105.703434">
<time>2015-09-27T15:33:32Z</time></trkpt>
<trkpt lat="24.69779" lon="105.703304">
<time>2015-09-27T15:33:33Z</time></trkpt>
<trkpt lat="24.69795" lon="105.703085">
<time>2015-09-27T15:33:34Z</time></trkpt>
<trkpt lat="24.698241" lon="105.702775">
<time>2015-09-27T15:33:35Z</time></trkpt>
<trkpt lat="24.698391" lon="105.702586">
<time>2015-09-27T15:33:36Z</time></trkpt>
<trkpt lat="24.698551" lon="105.702356">
<time>2015-09-27T15:33:37Z</time></trkpt>
<trkpt lat="24.698662" lon="105.702167">
<time>2015-09-27T15:33:38Z</time></trkpt>
<trkpt lat="24.698782" lon="105.701827">
<time>2015-09-27T15:33:39Z</time></trkpt>
<trkpt lat="24.699435" lon="105.699792">
<time>2015-09-27T15:33:40Z</time></trkpt>
<trkpt lat="24.699767" lon="105.698834">
<time>2015-09-27T15:33:41Z</time></trkpt>
<trkpt lat="24.700139" lon="105.697676">
<time>2015-09-27T15:33:42Z</time></trkpt>
<trkpt lat="24.700359" lon="105.697127">
<time>2015-09-27T15:33:43Z</time></trkpt>
<trkpt lat="24.70044" lon="105.696987">
<time>2015-09-27T15:33:44Z</time></trkpt>
<trkpt lat="24.70055" lon="105.696848">
<time>2015-09-27T15:33:45Z</time></trkpt>
<trkpt lat="24.7007" lon="105.696688">
<time>2015-09-27T15:33:46Z</time></trkpt>
<trkpt lat="24.70087" lon="105.696508">
<time>2015-09-27T15:33:47Z</time></trkpt>
<trkpt lat="24.700931" lon="105.696389">
<time>2015-09-27T15:33:48Z</time></trkpt>
<trkpt lat="24.700971" lon="105.696289">
<time>2015-09-27T15:33:49Z</time></trkpt>
<trkpt lat="24.700991" lon="105.696209">
<time>2015-09-27T15:33:50Z</time></trkpt>
<trkpt lat="24.701001" lon="105.696119">
<time>2015-09-27T15:33:51Z</time></trkpt>
<trkpt lat="24.701001" lon="105.69604">
<time>2015-09-27T15:33:52Z</time></trkpt>
<trkpt lat="24.700991" lon="105.69595">
<time>2015-09-27T15:33:53Z</time></trkpt>
<trkpt lat="24.700962" lon="105.69579">
<time>2015-09-27T15:33:54Z</time></trkpt>
<trkpt lat="24.700922" lon="105.69566">
<time>2015-09-27T15:33:55Z</time></trkpt>
<trkpt lat="24.700822" lon="105.695401">
<time>2015-09-27T15:33:56Z</time></trkpt>
<trkpt lat="24.700603" lon="105.694922">
<time>2015-09-27T15:33:57Z</time></trkpt>
<trkpt lat="24.700513" lon="105.694613">
<time>2015-09-27T15:33:58Z</time></trkpt>
<trkpt lat="24.700484" lon="105.694423">
<time>2015-09-27T15:33:59Z</time></trkpt>
<trkpt lat="24.700474" lon="105.694253">
<time>2015-09-27T15:34:00Z</time></trkpt>
<trkpt lat="24.700495" lon="105.693884">
<time>2015-09-27T15:34:01Z</time></trkpt>
<trkpt lat="24.700627" lon="105.692647">
<time>2015-09-27T15:34:02Z</time></trkpt>
<trkpt lat="24.700667" lon="105.692428">
<time>2015-09-27T15:34:03Z</time></trkpt>
<trkpt lat="24.700698" lon="105.692208">
<time>2015-09-27T15:34:04Z</time></trkpt>
<trkpt lat="24.700788" lon="105.691879">
<time>2015-09-27T15:34:05Z</time></trkpt>
<trkpt lat="24.700889" lon="105.691599">
<time>2015-09-27T15:34:06Z</time></trkpt>
<trkpt lat="24.700969" lon="105.69141">
<time>2015-09-27T15:34:07Z</time></trkpt>
<trkpt lat="24.701079" lon="105.69117">
<time>2015-09-27T15:34:08Z</time></trkpt>
<trkpt lat="24.70126" lon="105.690831">
<time>2015-09-27T15:34:09Z</time></trkpt>
<trkpt lat="24.702544" lon="105.688507">
<time>2015-09-27T15:34:10Z</time></trkpt>
<trkpt lat="24.703226" lon="105.68719">
<time>2015-09-27T15:34:11Z</time></trkpt>
<trkpt lat="24.703327" lon="105.68692">
<time>2015-09-27T15:34:12Z</time></trkpt>
<trkpt lat="24.703387" lon="105.686721">
<time>2015-09-27T15:34:13Z</time></trkpt>
<trkpt lat="24.703407" lon="105.686621">
<time>2015-09-27T15:34:14Z</time></trkpt>
<trkpt lat="24.703428" lon="105.686402">
<time>2015-09-27T15:34:15Z</time></trkpt>
<trkpt lat="24.703459" lon="105.685813">
<time>2015-09-27T15:34:16Z</time></trkpt>
<trkpt lat="24.703489" lon="105.685514">
<time>2015-09-27T15:34:17Z</time></trkpt>
<trkpt lat="24.70354" lon="105.685304">
<time>2015-09-27T15:34:18Z</time></trkpt>
<trkpt lat="24.7036" lon="105.685105">
<time>2015-09-27T15:34:19Z</time></trkpt>
<trkpt lat="24.703901" lon="105.684426">
<time>2015-09-27T15:34:20Z</time></trkpt>
<trkpt lat="24.703992" lon="105.684217">
<time>2015-09-27T15:34:21Z</time></trkpt>
<trkpt lat="24.704252" lon="105.683698">
<time>2015-09-27T15:34:22Z</time></trkpt>
<trkpt lat="24.704563" lon="105.683229">
<time>2015-09-27T15:34:23Z</time></trkpt>
<trkpt lat="24.705235" lon="105.682311">
<time>2015-09-27T15:34:24Z</time></trkpt>
<trkpt lat="24.705516" lon="105.681972">
<time>2015-09-27T15:34:25Z</time></trkpt>
<trkpt lat="24.705816" lon="105.681523">
<time>2015-09-27T15:34:26Z</time></trkpt>
<trkpt lat="24.706298" lon="105.680765">
<time>2015-09-27T15:34:27Z</time></trkpt>
<trkpt lat="24.706529" lon="105.680366">
<time>2015-09-27T15:34:28Z</time></trkpt>
<trkpt lat="24.706539" lon="105.680346">
<time>2015-09-27T15:34:29Z</time></trkpt>
<trkpt lat="24.706789" lon="105.679977">
<time>2015-09-27T15:34:30Z</time></trkpt>
<trkpt lat="24.70696" lon="105.679728">
<time>2015-09-27T15:34:31Z</time></trkpt>
<trkpt lat="24.70717" lon="105.679379">
<time>2015-09-27T15:34:32Z</time></trkpt>
<trkpt lat="24.707261" lon="105.679259">
<time>2015-09-27T15:34:33Z</time></trkpt>
<trkpt lat="24.707341" lon="105.679179">
<time>2015-09-27T15:34:34Z</time></trkpt>
<trkpt lat="24.707421" lon="105.679119">
<time>2015-09-27T15:34:35Z</time></trkpt>
<trkpt lat="24.707471" lon="105.679089">
<time>2015-09-27T15:34:36Z</time></trkpt>
<trkpt lat="24.707491" lon="105.679079">
<time>2015-09-27T15:34:37Z</time></trkpt>
<trkpt lat="24.707571" lon="105.679039">
<time>2015-09-27T15:34:38Z</time></trkpt>
<trkpt lat="24.707741" lon="105.678979">
<time>2015-09-27T15:34:39Z</time></trkpt>
<trkpt lat="24.707911" lon="105.67893">
<time>2015-09-27T15:34:40Z</time></trkpt>
<trkpt lat="24.708001" lon="105.67889">
<time>2015-09-27T15:34:41Z</time></trkpt>
<trkpt lat="24.708111" lon="105.67881">
<time>2015-09-27T15:34:42Z</time></trkpt>
<trkpt lat="24.708192" lon="105.67873">
<time>2015-09-27T15:34:43Z</time></trkpt>
<trkpt lat="24.708242" lon="105.67866">
<time>2015-09-27T15:34:44Z</time></trkpt>
<trkpt lat="24.708272" lon="105.67859">
<time>2015-09-27T15:34:45Z</time></trkpt>
<trkpt lat="24.708282" lon="105.67857">
<time>2015-09-27T15:34:46Z</time></trkpt>
<trkpt lat="24.708302" lon="105.678491">
<time>2015-09-27T15:34:47Z</time></trkpt>
<trkpt lat="24.708302" lon="105.678391">
<time>2015-09-27T15:34:48Z</time></trkpt>
<trkpt lat="24.708302" lon="105.678301">
<time>2015-09-27T15:34:49Z</time></trkpt>
<trkpt lat="24.708273" lon="105.678211">
<time>2015-09-27T15:34:50Z</time></trkpt>
<trkpt lat="24.708233" lon="105.678122">
<time>2015-09-27T15:34:51Z</time></trkpt>
<trkpt lat="24.708093" lon="105.677912">
<time>2015-09-27T15:34:52Z</time></trkpt>
<trkpt lat="24.707923" lon="105.677713">
<time>2015-09-27T15:34:53Z</time></trkpt>
<trkpt lat="24.707854" lon="105.677603">
<time>2015-09-27T15:34:54Z</time></trkpt>
<trkpt lat="24.707814" lon="105.677523">
<time>2015-09-27T15:34:55Z</time></trkpt>
<trkpt lat="24.707794" lon="105.677443">
<time>2015-09-27T15:34:56Z</time></trkpt>
<trkpt lat="24.707784" lon="105.677354">
<time>2015-09-27T15:34:57Z</time></trkpt>
<trkpt lat="24.707794" lon="105.677284">
<time>2015-09-27T15:34:58Z</time></trkpt>
<trkpt lat="24.707824" lon="105.677184">
<time>2015-09-27T15:34:59Z</time></trkpt>
<trkpt lat="24.707925" lon="105.676974">
<time>2015-09-27T15:35:00Z</time></trkpt>
<trkpt lat="24.708055" lon="105.676795">
<time>2015-09-27T15:35:01Z</time></trkpt>
<trkpt lat="24.708135" lon="105.676665">
<time>2015-09-27T15:35:02Z</time></trkpt>
<trkpt lat="24.708196" lon="105.676506">
<time>2015-09-27T15:35:03Z</time></trkpt>
<trkpt lat="24.708216" lon="105.676366">
<time>2015-09-27T15:35:04Z</time></trkpt>
<trkpt lat="24.708216" lon="105.676226">
<time>2015-09-27T15:35:05Z</time></trkpt>
<trkpt lat="24.708187" lon="105.675997">
<time>2015-09-27T15:35:06Z</time></trkpt>
<trkpt lat="24.708117" lon="105.675777">
<time>2015-09-27T15:35:07Z</time></trkpt>
<trkpt lat="24.708028" lon="105.675538">
<time>2015-09-27T15:35:08Z</time></trkpt>
<trkpt lat="24.707958" lon="105.675219">
<time>2015-09-27T15:35:09Z</time></trkpt>
<trkpt lat="24.707879" lon="105.67488">
<time>2015-09-27T15:35:10Z</time></trkpt>
<trkpt lat="24.707809" lon="105.67468">
<time>2015-09-27T15:35:11Z</time></trkpt>
<trkpt lat="24.70778" lon="105.674491">
<time>2015-09-27T15:35:12Z</time></trkpt>
<trkpt lat="24.70777" lon="105.674311">
<time>2015-09-27T15:35:13Z</time></trkpt>
<trkpt lat="24.70779" lon="105.674112">
<time>2015-09-27T15:35:14Z</time></trkpt>
<trkpt lat="24.707881" lon="105.673743">
<time>2015-09-27T15:35:15Z</time></trkpt>
<trkpt lat="24.707942" lon="105.673413">
<time>2015-09-27T15:35:16Z</time></trkpt>
<trkpt lat="24.707972" lon="105.673174">
<time>2015-09-27T15:35:17Z</time></trkpt>
<trkpt lat="24.707983" lon="105.672765">
<time>2015-09-27T15:35:18Z</time></trkpt>
<trkpt lat="24.708014" lon="105.672007">
<time>2015-09-27T15:35:19Z</time></trkpt>
<trkpt lat="24.707985" lon="105.671818">
<time>2015-09-27T15:35:20Z</time></trkpt>
<trkpt lat="24.707985" lon="105.671658">
<time>2015-09-27T15:35:21Z</time></trkpt>
<trkpt lat="24.707995" lon="105.671518">
<time>2015-09-27T15:35:22Z</time></trkpt>
<trkpt lat="24.708015" lon="105.671399">
<time>2015-09-27T15:35:23Z</time></trkpt>
<trkpt lat="24.708056" lon="105.671269">
<time>2015-09-27T15:35:24Z</time></trkpt>
<trkpt lat="24.708096" lon="105.671189">
<time>2015-09-27T15:35:25Z</time></trkpt>
<trkpt lat="24.708166" lon="105.671119">
<time>2015-09-27T15:35:26Z</time></trkpt>
<trkpt lat="24.708216" lon="105.671059">
<time>2015-09-27T15:35:27Z</time></trkpt>
<trkpt lat="24.708286" lon="105.67101">
<time>2015-09-27T15:35:28Z</time></trkpt>
<trkpt lat="24.708346" lon="105.67097">
<time>2015-09-27T15:35:29Z</time></trkpt>
<trkpt lat="24.708576" lon="105.67088">
<time>2015-09-27T15:35:30Z</time></trkpt>
<trkpt lat="24.708787" lon="105.67077">
<time>2015-09-27T15:35:31Z</time></trkpt>
<trkpt lat="24.708897" lon="105.67068">
<time>2015-09-27T15:35:32Z</time></trkpt>
<trkpt lat="24.708957" lon="105.670621">
<time>2015-09-27T15:35:33Z</time></trkpt>
<trkpt lat="24.709017" lon="105.670521">
<time>2015-09-27T15:35:34Z</time></trkpt>
<trkpt lat="24.709107" lon="105.670321">
<time>2015-09-27T15:35:35Z</time></trkpt>
<trkpt lat="24.709198" lon="105.670152">
<time>2015-09-27T15:35:36Z</time></trkpt>
<trkpt lat="24.709258" lon="105.670062">
<time>2015-09-27T15:35:37Z</time></trkpt>
<trkpt lat="24.709298" lon="105.670012">
<time>2015-09-27T15:35:38Z</time></trkpt>
<trkpt lat="24.709358" lon="105.669962">
<time>2015-09-27T15:35:39Z</time></trkpt>
<trkpt lat="24.709418" lon="105.669932">
<time>2015-09-27T15:35:40Z</time></trkpt>
<trkpt lat="24.709478" lon="105.669912">
<time>2015-09-27T15:35:41Z</time></trkpt>
<trkpt lat="24.709548" lon="105.669902">
<time>2015-09-27T15:35:42Z</time></trkpt>
<trkpt lat="24.709648" lon="105.669892">
<time>2015-09-27T15:35:43Z</time></trkpt>
<trkpt lat="24.709828" lon="105.669882">
<time>2015-09-27T15:35:44Z</time></trkpt>
<trkpt lat="24.709958" lon="105.669882">
<time>2015-09-27T15:35:45Z</time></trkpt>
<trkpt lat="24.710018" lon="105.669862">
<time>2015-09-27T15:35:46Z</time></trkpt>
<trkpt lat="24.710068" lon="105.669832">
<time>2015-09-27T15:35:47Z</time></trkpt>
<trkpt lat="24.710118" lon="105.669793">
<time>2015-09-27T15:35:48Z</time></trkpt>
<trkpt lat="24.710149" lon="105.669753">
<time>2015-09-27T15:35:49Z</time></trkpt>
<trkpt lat="24.710189" lon="105.669663">
<time>2015-09-27T15:35:50Z</time></trkpt>
<trkpt lat="24.710199" lon="105.669593">
<time>2015-09-27T15:35:51Z</time></trkpt>
<trkpt lat="24.710199" lon="105.669513">
<time>2015-09-27T15:35:52Z</time></trkpt>
<trkpt lat="24.710179" lon="105.669404">
<time>2015-09-27T15:35:53Z</time></trkpt>
<trkpt lat="24.710139" lon="105.669284">
<time>2015-09-27T15:35:54Z</time></trkpt>
<trkpt lat="24.71001" lon="105.669054">
<time>2015-09-27T15:35:55Z</time></trkpt>
<trkpt lat="24.709791" lon="105.668636">
<time>2015-09-27T15:35:56Z</time></trkpt>
<trkpt lat="24.709671" lon="105.668376">
<time>2015-09-27T15:35:57Z</time></trkpt>
<trkpt lat="24.709621" lon="105.668237">
<time>2015-09-27T15:35:58Z</time></trkpt>
<trkpt lat="24.709612" lon="105.668097">
<time>2015-09-27T15:35:59Z</time></trkpt>
<trkpt lat="24.709612" lon="105.667987">
<time>2015-09-27T15:36:00Z</time></trkpt>
<trkpt lat="24.709632" lon="105.667907">
<time>2015-09-27T15:36:01Z</time></trkpt>
<trkpt lat="24.709662" lon="105.667838">
<time>2015-09-27T15:36:02Z</time></trkpt>
<trkpt lat="24.709702" lon="105.667758">
<time>2015-09-27T15:36:03Z</time></trkpt>
<trkpt lat="24.709743" lon="105.667698">
<time>2015-09-27T15:36:04Z</time></trkpt>
<trkpt lat="24.709793" lon="105.667628">
<time>2015-09-27T15:36:05Z</time></trkpt>
<trkpt lat="24.709993" lon="105.667399">
<time>2015-09-27T15:36:06Z</time></trkpt>
<trkpt lat="24.710874" lon="105.666651">
<time>2015-09-27T15:36:07Z</time></trkpt>
<trkpt lat="24.711165" lon="105.666371">
<time>2015-09-27T15:36:08Z</time></trkpt>
<trkpt lat="24.711255" lon="105.666262">
<time>2015-09-27T15:36:09Z</time></trkpt>
<trkpt lat="24.711336" lon="105.666072">
<time>2015-09-27T15:36:10Z</time></trkpt>
<trkpt lat="24.711396" lon="105.665922">
<time>2015-09-27T15:36:11Z</time></trkpt>
<trkpt lat="24.711426" lon="105.665733">
<time>2015-09-27T15:36:12Z</time></trkpt>
<trkpt lat="24.711457" lon="105.665474">
<time>2015-09-27T15:36:13Z</time></trkpt>
<trkpt lat="24.711488" lon="105.664815">
<time>2015-09-27T15:36:14Z</time></trkpt>
<trkpt lat="24.711508" lon="105.664646">
<time>2015-09-27T15:36:15Z</time></trkpt>
<trkpt lat="24.711549" lon="105.664446">
<time>2015-09-27T15:36:16Z</time></trkpt>
<trkpt lat="24.711639" lon="105.664207">
<time>2015-09-27T15:36:17Z</time></trkpt>
<trkpt lat="24.711759" lon="105.664037">
<time>2015-09-27T15:36:18Z</time></trkpt>
<trkpt lat="24.71188" lon="105.663888">
<time>2015-09-27T15:36:19Z</time></trkpt>
<trkpt lat="24.71223" lon="105.663588">
<time>2015-09-27T15:36:20Z</time></trkpt>
<trkpt lat="24.712581" lon="105.663309">
<time>2015-09-27T15:36:21Z</time></trkpt>
<trkpt lat="24.712581" lon="105.663309">
<time>2015-09-27T15:36:22Z</time></trkpt>
<trkpt lat="24.712432" lon="105.662591">
<time>2015-09-27T15:36:23Z</time></trkpt>
<trkpt lat="24.712422" lon="105.662551">
<time>2015-09-27T15:36:24Z</time></trkpt>
<trkpt lat="24.712402" lon="105.662501">
<time>2015-09-27T15:36:25Z</time></trkpt>
<trkpt lat="24.712382" lon="105.662461">
<time>2015-09-27T15:36:26Z</time></trkpt>
<trkpt lat="24.712353" lon="105.662411">
<time>2015-09-27T15:36:27Z</time></trkpt>
<trkpt lat="24.712313" lon="105.662351">
<time>2015-09-27T15:36:28Z</time></trkpt>
<trkpt lat="24.712273" lon="105.662312">
<time>2015-09-27T15:36:29Z</time></trkpt>
<trkpt lat="24.712223" lon="105.662262">
<time>2015-09-27T15:36:30Z</time></trkpt>
<trkpt lat="24.712183" lon="105.662222">
<time>2015-09-27T15:36:31Z</time></trkpt>
<trkpt lat="24.712133" lon="105.662172">
<time>2015-09-27T15:36:32Z</time></trkpt>
<trkpt lat="24.712093" lon="105.662122">
<time>2015-09-27T15:36:33Z</time></trkpt>
<trkpt lat="24.712053" lon="105.662072">
<time>2015-09-27T15:36:34Z</time></trkpt>
<trkpt lat="24.712023" lon="105.662032">
<time>2015-09-27T15:36:35Z</time></trkpt>
<trkpt lat="24.712003" lon="105.661982">
<time>2015-09-27T15:36:36Z</time></trkpt>
<trkpt lat="24.711983" lon="105.661932">
<time>2015-09-27T15:36:37Z</time></trkpt>
<trkpt lat="24.711964" lon="105.661873">
<time>2015-09-27T15:36:38Z</time></trkpt>
<trkpt lat="24.711954" lon="105.661823">
<time>2015-09-27T15:36:39Z</time></trkpt>
<trkpt lat="24.711944" lon="105.661763">
<time>2015-09-27T15:36:40Z</time></trkpt>
<trkpt lat="24.711934" lon="105.661703">
<time>2015-09-27T15:36:41Z</time></trkpt>
<trkpt lat="24.711924" lon="105.661643">
<time>2015-09-27T15:36:42Z</time></trkpt>
<trkpt lat="24.711924" lon="105.661563">
<time>2015-09-27T15:36:43Z</time></trkpt>
<trkpt lat="24.711914" lon="105.661524">
<time>2015-09-27T15:36:44Z</time></trkpt>
<trkpt lat="24.711914" lon="105.661484">
<time>2015-09-27T15:36:45Z</time></trkpt>
<trkpt lat="24.711904" lon="105.661444">
<time>2015-09-27T15:36:46Z</time></trkpt>
<trkpt lat="24.711894" lon="105.661414">
<time>2015-09-27T15:36:47Z</time></trkpt>
<trkpt lat="24.711884" lon="105.661374">
<time>2015-09-27T15:36:48Z</time></trkpt>
<trkpt lat="24.711865" lon="105.661344">
<time>2015-09-27T15:36:49Z</time></trkpt>
<trkpt lat="24.711835" lon="105.661314">
<time>2015-09-27T15:36:50Z</time></trkpt>
<trkpt lat="24.711805" lon="105.661294">
<time>2015-09-27T15:36:51Z</time></trkpt>
<trkpt lat="24.711765" lon="105.661274">
<time>2015-09-27T15:36:52Z</time></trkpt>
<trkpt lat="24.711725" lon="105.661254">
<time>2015-09-27T15:36:53Z</time></trkpt>
<trkpt lat="24.711685" lon="105.661234">
<time>2015-09-27T15:36:54Z</time></trkpt>
<trkpt lat="24.711635" lon="105.661224">
<time>2015-09-27T15:36:55Z</time></trkpt>
<trkpt lat="24.711595" lon="105.661214">
<time>2015-09-27T15:36:56Z</time></trkpt>
<trkpt lat="24.711495" lon="105.661194">
<time>2015-09-27T15:36:57Z</time></trkpt>
<trkpt lat="24.711435" lon="105.661184">
<time>2015-09-27T15:36:58Z</time></trkpt>
<trkpt lat="24.711385" lon="105.661164">
<time>2015-09-27T15:36:59Z</time></trkpt>
<trkpt lat="24.711335" lon="105.661154">
<time>2015-09-27T15:37:00Z</time></trkpt>
<trkpt lat="24.711285" lon="105.661145">
<time>2015-09-27T15:37:01Z</time></trkpt>
<trkpt lat="24.711235" lon="105.661125">
<time>2015-09-27T15:37:02Z</time></trkpt>
<trkpt lat="24.711185" lon="105.661115">
<time>2015-09-27T15:37:03Z</time></trkpt>
<trkpt lat="24.711135" lon="105.661095">
<time>2015-09-27T15:37:04Z</time></trkpt>
<trkpt lat="24.711095" lon="105.661075">
<time>2015-09-27T15:37:05Z</time></trkpt>
<trkpt lat="24.711055" lon="105.661055">
<time>2015-09-27T15:37:06Z</time></trkpt>
<trkpt lat="24.711005" lon="105.661035">
<time>2015-09-27T15:37:07Z</time></trkpt>
<trkpt lat="24.710965" lon="105.661015">
<time>2015-09-27T15:37:08Z</time></trkpt>
<trkpt lat="24.710925" lon="105.660985">
<time>2015-09-27T15:37:09Z</time></trkpt>
<trkpt lat="24.710885" lon="105.660965">
<time>2015-09-27T15:37:10Z</time></trkpt>
<trkpt lat="24.710845" lon="105.660935">
<time>2015-09-27T15:37:11Z</time></trkpt>
<trkpt lat="24.710805" lon="105.660905">
<time>2015-09-27T15:37:12Z</time></trkpt>
<trkpt lat="24.710775" lon="105.660875">
<time>2015-09-27T15:37:13Z</time></trkpt>
<trkpt lat="24.710746" lon="105.660845">
<time>2015-09-27T15:37:14Z</time></trkpt>
<trkpt lat="24.710716" lon="105.660815">
<time>2015-09-27T15:37:15Z</time></trkpt>
<trkpt lat="24.710686" lon="105.660785">
<time>2015-09-27T15:37:16Z</time></trkpt>
<trkpt lat="24.710656" lon="105.660756">
<time>2015-09-27T15:37:17Z</time></trkpt>
<trkpt lat="24.710636" lon="105.660726">
<time>2015-09-27T15:37:18Z</time></trkpt>
<trkpt lat="24.710606" lon="105.660686">
<time>2015-09-27T15:37:19Z</time></trkpt>
<trkpt lat="24.710586" lon="105.660656">
<time>2015-09-27T15:37:20Z</time></trkpt>
<trkpt lat="24.710566" lon="105.660616">
<time>2015-09-27T15:37:21Z</time></trkpt>
<trkpt lat="24.710546" lon="105.660576">
<time>2015-09-27T15:37:22Z</time></trkpt>
<trkpt lat="24.710526" lon="105.660536">
<time>2015-09-27T15:37:23Z</time></trkpt>
<trkpt lat="24.710506" lon="105.660496">
<time>2015-09-27T15:37:24Z</time></trkpt>
<trkpt lat="24.710496" lon="105.660456">
<time>2015-09-27T15:37:25Z</time></trkpt>
<trkpt lat="24.710476" lon="105.660416">
<time>2015-09-27T15:37:26Z</time></trkpt>
<trkpt lat="24.710466" lon="105.660377">
<time>2015-09-27T15:37:27Z</time></trkpt>
<trkpt lat="24.710457" lon="105.660337">
<time>2015-09-27T15:37:28Z</time></trkpt>
<trkpt lat="24.710457" lon="105.660297">
<time>2015-09-27T15:37:29Z</time></trkpt>
<trkpt lat="24.710457" lon="105.660257">
<time>2015-09-27T15:37:30Z</time></trkpt>
<trkpt lat="24.710447" lon="105.660217">
<time>2015-09-27T15:37:31Z</time></trkpt>
<trkpt lat="24.710447" lon="105.660177">
<time>2015-09-27T15:37:32Z</time></trkpt>
<trkpt lat="24.710457" lon="105.660137">
<time>2015-09-27T15:37:33Z</time></trkpt>
<trkpt lat="24.710457" lon="105.660097">
<time>2015-09-27T15:37:34Z</time></trkpt>
<trkpt lat="24.710467" lon="105.660057">
<time>2015-09-27T15:37:35Z</time></trkpt>
<trkpt lat="24.710477" lon="105.660017">
<time>2015-09-27T15:37:36Z</time></trkpt>
<trkpt lat="24.710477" lon="105.659987">
<time>2015-09-27T15:37:37Z</time></trkpt>
<trkpt lat="24.710487" lon="105.659948">
<time>2015-09-27T15:37:38Z</time></trkpt>
<trkpt lat="24.710497" lon="105.659918">
<time>2015-09-27T15:37:39Z</time></trkpt>
<trkpt lat="24.710517" lon="105.659878">
<time>2015-09-27T15:37:40Z</time></trkpt>
<trkpt lat="24.710527" lon="105.659848">
<time>2015-09-27T15:37:41Z</time></trkpt>
<trkpt lat="24.710537" lon="105.659818">
<time>2015-09-27T15:37:42Z</time></trkpt>
<trkpt lat="24.710558" lon="105.659778">
<time>2015-09-27T15:37:43Z</time></trkpt>
<trkpt lat="24.710578" lon="105.659748">
<time>2015-09-27T15:37:44Z</time></trkpt>
<trkpt lat="24.710598" lon="105.659708">
<time>2015-09-27T15:37:45Z</time></trkpt>
<trkpt lat="24.710628" lon="105.659658">
<time>2015-09-27T15:37:46Z</time></trkpt>
<trkpt lat="24.710648" lon="105.659618">
<time>2015-09-27T15:37:47Z</time></trkpt>
<trkpt lat="24.710678" lon="105.659579">
<time>2015-09-27T15:37:48Z</time></trkpt>
<trkpt lat="24.710708" lon="105.659549">
<time>2015-09-27T15:37:49Z</time></trkpt>
<trkpt lat="24.710738" lon="105.659509">
<time>2015-09-27T15:37:50Z</time></trkpt>
<trkpt lat="24.710778" lon="105.659479">
<time>2015-09-27T15:37:51Z</time></trkpt>
<trkpt lat="24.710808" lon="105.659439">
<time>2015-09-27T15:37:52Z</time></trkpt>
<trkpt lat="24.710868" lon="105.659399">
<time>2015-09-27T15:37:53Z</time></trkpt>
<trkpt lat="24.710918" lon="105.659359">
<time>2015-09-27T15:37:54Z</time></trkpt>
<trkpt lat="24.710978" lon="105.659329">
<time>2015-09-27T15:37:55Z</time></trkpt>
<trkpt lat="24.711038" lon="105.659289">
<time>2015-09-27T15:37:56Z</time></trkpt>
<trkpt lat="24.711098" lon="105.659269">
<time>2015-09-27T15:37:57Z</time></trkpt>
<trkpt lat="24.711159" lon="105.659239">
<time>2015-09-27T15:37:58Z</time></trkpt>
<trkpt lat="24.711219" lon="105.659219">
<time>2015-09-27T15:37:59Z</time></trkpt>
<trkpt lat="24.711279" lon="105.659199">
<time>2015-09-27T15:38:00Z</time></trkpt>
<trkpt lat="24.711349" lon="105.659179">
<time>2015-09-27T15:38:01Z</time></trkpt>
<trkpt lat="24.711409" lon="105.65916">
<time>2015-09-27T15:38:02Z</time></trkpt>
<trkpt lat="24.711469" lon="105.65915">
<time>2015-09-27T15:38:03Z</time></trkpt>
<trkpt lat="24.711599" lon="105.65912">
<time>2015-09-27T15:38:04Z</time></trkpt>
<trkpt lat="24.711669" lon="105.6591">
<time>2015-09-27T15:38:05Z</time></trkpt>
<trkpt lat="24.711729" lon="105.65909">
<time>2015-09-27T15:38:06Z</time></trkpt>
<trkpt lat="24.711789" lon="105.65907">
<time>2015-09-27T15:38:07Z</time></trkpt>
<trkpt lat="24.711849" lon="105.65905">
<time>2015-09-27T15:38:08Z</time></trkpt>
<trkpt lat="24.711919" lon="105.65903">
<time>2015-09-27T15:38:09Z</time></trkpt>
<trkpt lat="24.711979" lon="105.65901">
<time>2015-09-27T15:38:10Z</time></trkpt>
<trkpt lat="24.712039" lon="105.65898">
<time>2015-09-27T15:38:11Z</time></trkpt>
<trkpt lat="24.712099" lon="105.65895">
<time>2015-09-27T15:38:12Z</time></trkpt>
<trkpt lat="24.712159" lon="105.65892">
<time>2015-09-27T15:38:13Z</time></trkpt>
<trkpt lat="24.712209" lon="105.65889">
<time>2015-09-27T15:38:14Z</time></trkpt>
<trkpt lat="24.712269" lon="105.65885">
<time>2015-09-27T15:38:15Z</time></trkpt>
<trkpt lat="24.712319" lon="105.65881">
<time>2015-09-27T15:38:16Z</time></trkpt>
<trkpt lat="24.712359" lon="105.65878">
<time>2015-09-27T15:38:17Z</time></trkpt>
<trkpt lat="24.712409" lon="105.658731">
<time>2015-09-27T15:38:18Z</time></trkpt>
<trkpt lat="24.71245" lon="105.658691">
<time>2015-09-27T15:38:19Z</time></trkpt>
<trkpt lat="24.7125" lon="105.658651">
<time>2015-09-27T15:38:20Z</time></trkpt>
<trkpt lat="24.71254" lon="105.658601">
<time>2015-09-27T15:38:21Z</time></trkpt>
<trkpt lat="24.71258" lon="105.658551">
<time>2015-09-27T15:38:22Z</time></trkpt>
<trkpt lat="24.71262" lon="105.658511">
<time>2015-09-27T15:38:23Z</time></trkpt>
<trkpt lat="24.71266" lon="105.658461">
<time>2015-09-27T15:38:24Z</time></trkpt>
<trkpt lat="24.7127" lon="105.658411">
<time>2015-09-27T15:38:25Z</time></trkpt>
<trkpt lat="24.71274" lon="105.658361">
<time>2015-09-27T15:38:26Z</time></trkpt>
<trkpt lat="24.71278" lon="105.658322">
<time>2015-09-27T15:38:27Z</time></trkpt>
<trkpt lat="24.71282" lon="105.658272">
<time>2015-09-27T15:38:28Z</time></trkpt>
<trkpt lat="24.71285" lon="105.658222">
<time>2015-09-27T15:38:29Z</time></trkpt>
<trkpt lat="24.712951" lon="105.658092">
<time>2015-09-27T15:38:30Z</time></trkpt>
<trkpt lat="24.712981" lon="105.658062">
<time>2015-09-27T15:38:31Z</time></trkpt>
<trkpt lat="24.713001" lon="105.658032">
<time>2015-09-27T15:38:32Z</time></trkpt>
<trkpt lat="24.713021" lon="105.658012">
<time>2015-09-27T15:38:33Z</time></trkpt>
<trkpt lat="24.713051" lon="105.657982">
<time>2015-09-27T15:38:34Z</time></trkpt>
<trkpt lat="24.713081" lon="105.657952">
<time>2015-09-27T15:38:35Z</time></trkpt>
<trkpt lat="24.713101" lon="105.657933">
<time>2015-09-27T15:38:36Z</time></trkpt>
<trkpt lat="24.713131" lon="105.657913">
<time>2015-09-27T15:38:37Z</time></trkpt>
<trkpt lat="24.713181" lon="105.657883">
<time>2015-09-27T15:38:38Z</time></trkpt>
<trkpt lat="24.713241" lon="105.657863">
<time>2015-09-27T15:38:39Z</time></trkpt>
<trkpt lat="24.713301" lon="105.657843">
<time>2015-09-27T15:38:40Z</time></trkpt>
<trkpt lat="24.713361" lon="105.657833">
<time>2015-09-27T15:38:41Z</time></trkpt>
<trkpt lat="24.713421" lon="105.657823">
<time>2015-09-27T15:38:42Z</time></trkpt>
<trkpt lat="24.713481" lon="105.657813">
<time>2015-09-27T15:38:43Z</time></trkpt>
<trkpt lat="24.713601" lon="105.657803">
<time>2015-09-27T15:38:44Z</time></trkpt>
<trkpt lat="24.713671" lon="105.657803">
<time>2015-09-27T15:38:45Z</time></trkpt>
<trkpt lat="24.713741" lon="105.657793">
<time>2015-09-27T15:38:46Z</time></trkpt>
<trkpt lat="24.713811" lon="105.657783">
<time>2015-09-27T15:38:47Z</time></trkpt>
<trkpt lat="24.713871" lon="105.657773">
<time>2015-09-27T15:38:48Z</time></trkpt>
<trkpt lat="24.713941" lon="105.657763">
<time>2015-09-27T15:38:49Z</time></trkpt>
<trkpt lat="24.714001" lon="105.657743">
<time>2015-09-27T15:38:50Z</time></trkpt>
<trkpt lat="24.714071" lon="105.657733">
<time>2015-09-27T15:38:51Z</time></trkpt>
<trkpt lat="24.714131" lon="105.657723">
<time>2015-09-27T15:38:52Z</time></trkpt>
<trkpt lat="24.714161" lon="105.657713">
<time>2015-09-27T15:38:53Z</time></trkpt>
<trkpt lat="24.714201" lon="105.657703">
<time>2015-09-27T15:38:54Z</time></trkpt>
<trkpt lat="24.714231" lon="105.657693">
<time>2015-09-27T15:38:55Z</time></trkpt>
<trkpt lat="24.714271" lon="105.657683">
<time>2015-09-27T15:38:56Z</time></trkpt>
<trkpt lat="24.714301" lon="105.657673">
<time>2015-09-27T15:38:57Z</time></trkpt>
<trkpt lat="24.714341" lon="105.657663">
<time>2015-09-27T15:38:58Z</time></trkpt>
<trkpt lat="24.714371" lon="105.657643">
<time>2015-09-27T15:38:59Z</time></trkpt>
<trkpt lat="24.714401" lon="105.657623">
<time>2015-09-27T15:39:00Z</time></trkpt>
<trkpt lat="24.714442" lon="105.657593">
<time>2015-09-27T15:39:01Z</time></trkpt>
<trkpt lat="24.714482" lon="105.657563">
<time>2015-09-27T15:39:02Z</time></trkpt>
<trkpt lat="24.714512" lon="105.657533">
<time>2015-09-27T15:39:03Z</time></trkpt>
<trkpt lat="24.714542" lon="105.657494">
<time>2015-09-27T15:39:04Z</time></trkpt>
<trkpt lat="24.714562" lon="105.657464">
<time>2015-09-27T15:39:05Z</time></trkpt>
<trkpt lat="24.714582" lon="105.657424">
<time>2015-09-27T15:39:06Z</time></trkpt>
<trkpt lat="24.714602" lon="105.657374">
<time>2015-09-27T15:39:07Z</time></trkpt>
<trkpt lat="24.714602" lon="105.657334">
<time>2015-09-27T15:39:08Z</time></trkpt>
<trkpt lat="24.714612" lon="105.657294">
<time>2015-09-27T15:39:09Z</time></trkpt>
<trkpt lat="24.714602" lon="105.657254">
<time>2015-09-27T15:39:10Z</time></trkpt>
<trkpt lat="24.714592" lon="105.657214">
<time>2015-09-27T15:39:11Z</time></trkpt>
<trkpt lat="24.714582" lon="105.657174">
<time>2015-09-27T15:39:12Z</time></trkpt>
<trkpt lat="24.714562" lon="105.657134">
<time>2015-09-27T15:39:13Z</time></trkpt>
<trkpt lat="24.714542" lon="105.657095">
<time>2015-09-27T15:39:14Z</time></trkpt>
<trkpt lat="24.714523" lon="105.657055">
<time>2015-09-27T15:39:15Z</time></trkpt>
<trkpt lat="24.714503" lon="105.657015">
<time>2015-09-27T15:39:16Z</time></trkpt>
<trkpt lat="24.714463" lon="105.656965">
<time>2015-09-27T15:39:17Z</time></trkpt>
<trkpt lat="24.714433" lon="105.656915">
<time>2015-09-27T15:39:18Z</time></trkpt>
<trkpt lat="24.714393" lon="105.656865">
<time>2015-09-27T15:39:19Z</time></trkpt>
<trkpt lat="24.714363" lon="105.656815">
<time>2015-09-27T15:39:20Z</time></trkpt>
<trkpt lat="24.714333" lon="105.656765">
<time>2015-09-27T15:39:21Z</time></trkpt>
<trkpt lat="24.714303" lon="105.656716">
<time>2015-09-27T15:39:22Z</time></trkpt>
<trkpt lat="24.714283" lon="105.656666">
<time>2015-09-27T15:39:23Z</time></trkpt>
<trkpt lat="24.714253" lon="105.656606">
<time>2015-09-27T15:39:24Z</time></trkpt>
<trkpt lat="24.714233" lon="105.656556">
<time>2015-09-27T15:39:25Z</time></trkpt>
<trkpt lat="24.714224" lon="105.656506">
<time>2015-09-27T15:39:26Z</time></trkpt>
<trkpt lat="24.714214" lon="105.656456">
<time>2015-09-27T15:39:27Z</time></trkpt>
<trkpt lat="24.714204" lon="105.656396">
<time>2015-09-27T15:39:28Z</time></trkpt>
<trkpt lat="24.714194" lon="105.656346">
<time>2015-09-27T15:39:29Z</time></trkpt>
<trkpt lat="24.714194" lon="105.656287">
<time>2015-09-27T15:39:30Z</time></trkpt>
<trkpt lat="24.714194" lon="105.656237">
<time>2015-09-27T15:39:31Z</time></trkpt>
<trkpt lat="24.714194" lon="105.656177">
<time>2015-09-27T15:39:32Z</time></trkpt>
<trkpt lat="24.714194" lon="105.656137">
<time>2015-09-27T15:39:33Z</time></trkpt>
<trkpt lat="24.714204" lon="105.656087">
<time>2015-09-27T15:39:34Z</time></trkpt>
<trkpt lat="24.714204" lon="105.656047">
<time>2015-09-27T15:39:35Z</time></trkpt>
<trkpt lat="24.714214" lon="105.656007">
<time>2015-09-27T15:39:36Z</time></trkpt>
<trkpt lat="24.714225" lon="105.655967">
<time>2015-09-27T15:39:37Z</time></trkpt>
<trkpt lat="24.714235" lon="105.655918">
<time>2015-09-27T15:39:38Z</time></trkpt>
<trkpt lat="24.714255" lon="105.655878">
<time>2015-09-27T15:39:39Z</time></trkpt>
<trkpt lat="24.714265" lon="105.655838">
<time>2015-09-27T15:39:40Z</time></trkpt>
<trkpt lat="24.714285" lon="105.655798">
<time>2015-09-27T15:39:41Z</time></trkpt>
<trkpt lat="24.714305" lon="105.655758">
<time>2015-09-27T15:39:42Z</time></trkpt>
<trkpt lat="24.714335" lon="105.655718">
<time>2015-09-27T15:39:43Z</time></trkpt>
<trkpt lat="24.714365" lon="105.655688">
<time>2015-09-27T15:39:44Z</time></trkpt>
<trkpt lat="24.714395" lon="105.655648">
<time>2015-09-27T15:39:45Z</time></trkpt>
<trkpt lat="24.714425" lon="105.655618">
<time>2015-09-27T15:39:46Z</time></trkpt>
<trkpt lat="24.714455" lon="105.655588">
<time>2015-09-27T15:39:47Z</time></trkpt>
<trkpt lat="24.714495" lon="105.655568">
<time>2015-09-27T15:39:48Z</time></trkpt>
<trkpt lat="24.714535" lon="105.655548">
<time>2015-09-27T15:39:49Z</time></trkpt>
<trkpt lat="24.714565" lon="105.655528">
<time>2015-09-27T15:39:50Z</time></trkpt>
<trkpt lat="24.714605" lon="105.655509">
<time>2015-09-27T15:39:51Z</time></trkpt>
<trkpt lat="24.714645" lon="105.655499">
<time>2015-09-27T15:39:52Z</time></trkpt>
<trkpt lat="24.714685" lon="105.655489">
<time>2015-09-27T15:39:53Z</time></trkpt>
<trkpt lat="24.714735" lon="105.655479">
<time>2015-09-27T15:39:54Z</time></trkpt>
<trkpt lat="24.714775" lon="105.655469">
<time>2015-09-27T15:39:55Z</time></trkpt>
<trkpt lat="24.714815" lon="105.655459">
<time>2015-09-27T15:39:56Z</time></trkpt>
<trkpt lat="24.714886" lon="105.655439">
<time>2015-09-27T15:39:57Z</time></trkpt>
<trkpt lat="24.714946" lon="105.655419">
<time>2015-09-27T15:39:58Z</time></trkpt>
<trkpt lat="24.715016" lon="105.655399">
<time>2015-09-27T15:39:59Z</time></trkpt>
<trkpt lat="24.715086" lon="105.655369">
<time>2015-09-27T15:40:00Z</time></trkpt>
<trkpt lat="24.715156" lon="105.655349">
<time>2015-09-27T15:40:01Z</time></trkpt>
<trkpt lat="24.715286" lon="105.655299">
<time>2015-09-27T15:40:02Z</time></trkpt>
<trkpt lat="24.715346" lon="105.655269">
<time>2015-09-27T15:40:03Z</time></trkpt>
<trkpt lat="24.715456" lon="105.655229">
<time>2015-09-27T15:40:04Z</time></trkpt>
<trkpt lat="24.715516" lon="105.655209">
<time>2015-09-27T15:40:05Z</time></trkpt>
<trkpt lat="24.715566" lon="105.655189">
<time>2015-09-27T15:40:06Z</time></trkpt>
<trkpt lat="24.715626" lon="105.655169">
<time>2015-09-27T15:40:07Z</time></trkpt>
<trkpt lat="24.715676" lon="105.655139">
<time>2015-09-27T15:40:08Z</time></trkpt>
<trkpt lat="24.715726" lon="105.655109">
<time>2015-09-27T15:40:09Z</time></trkpt>
<trkpt lat="24.715776" lon="105.65508">
<time>2015-09-27T15:40:10Z</time></trkpt>
<trkpt lat="24.715826" lon="105.65505">
<time>2015-09-27T15:40:11Z</time></trkpt>
<trkpt lat="24.715866" lon="105.65502">
<time>2015-09-27T15:40:12Z</time></trkpt>
<trkpt lat="24.715916" lon="105.65499">
<time>2015-09-27T15:40:13Z</time></trkpt>
<trkpt lat="24.715996" lon="105.65492">
<time>2015-09-27T15:40:14Z</time></trkpt>
<trkpt lat="24.716046" lon="105.65488">
<time>2015-09-27T15:40:15Z</time></trkpt>
<trkpt lat="24.716087" lon="105.65485">
<time>2015-09-27T15:40:16Z</time></trkpt>
<trkpt lat="24.716137" lon="105.65482">
<time>2015-09-27T15:40:17Z</time></trkpt>
<trkpt lat="24.716187" lon="105.65479">
<time>2015-09-27T15:40:18Z</time></trkpt>
<trkpt lat="24.716237" lon="105.65476">
<time>2015-09-27T15:40:19Z</time></trkpt>
<trkpt lat="24.716287" lon="105.65474">
<time>2015-09-27T15:40:20Z</time></trkpt>
<trkpt lat="24.716337" lon="105.65471">
<time>2015-09-27T15:40:21Z</time></trkpt>
<trkpt lat="24.716387" lon="105.65469">
<time>2015-09-27T15:40:22Z</time></trkpt>
<trkpt lat="24.716437" lon="105.654671">
<time>2015-09-27T15:40:23Z</time></trkpt>
<trkpt lat="24.716497" lon="105.654651">
<time>2015-09-27T15:40:24Z</time></trkpt>
<trkpt lat="24.716507" lon="105.654651">
<time>2015-09-27T15:40:25Z</time></trkpt>
<trkpt lat="24.716547" lon="105.654631">
<time>2015-09-27T15:40:26Z</time></trkpt>
<trkpt lat="24.716597" lon="105.654621">
<time>2015-09-27T15:40:27Z</time></trkpt>
<trkpt lat="24.716647" lon="105.654601">
<time>2015-09-27T15:40:28Z</time></trkpt>
<trkpt lat="24.716697" lon="105.654591">
<time>2015-09-27T15:40:29Z</time></trkpt>
<trkpt lat="24.716747" lon="105.654571">
<time>2015-09-27T15:40:30Z</time></trkpt>
<trkpt lat="24.716797" lon="105.654571">
<time>2015-09-27T15:40:31Z</time></trkpt>
<trkpt lat="24.716847" lon="105.654561">
<time>2015-09-27T15:40:32Z</time></trkpt>
<trkpt lat="24.716897" lon="105.654561">
<time>2015-09-27T15:40:33Z</time></trkpt>
<trkpt lat="24.716947" lon="105.654561">
<time>2015-09-27T15:40:34Z</time></trkpt>
<trkpt lat="24.717007" lon="105.654571">
<time>2015-09-27T15:40:35Z</time></trkpt>
<trkpt lat="24.717057" lon="105.654601">
<time>2015-09-27T15:40:36Z</time></trkpt>
<trkpt lat="24.717117" lon="105.654621">
<time>2015-09-27T15:40:37Z</time></trkpt>
<trkpt lat="24.717177" lon="105.654661">
<time>2015-09-27T15:40:38Z</time></trkpt>
<trkpt lat="24.717237" lon="105.65469">
<time>2015-09-27T15:40:39Z</time></trkpt>
<trkpt lat="24.717287" lon="105.65473">
<time>2015-09-27T15:40:40Z</time></trkpt>
<trkpt lat="24.717337" lon="105.65478">
<time>2015-09-27T15:40:41Z</time></trkpt>
<trkpt lat="24.717387" lon="105.65482">
<time>2015-09-27T15:40:42Z</time></trkpt>
<trkpt lat="24.717426" lon="105.65487">
<time>2015-09-27T15:40:43Z</time></trkpt>
<trkpt lat="24.717476" lon="105.65491">
<time>2015-09-27T15:40:44Z</time></trkpt>
<trkpt lat="24.717516" lon="105.65495">
<time>2015-09-27T15:40:45Z</time></trkpt>
<trkpt lat="24.717556" lon="105.65499">
<time>2015-09-27T15:40:46Z</time></trkpt>
<trkpt lat="24.717606" lon="105.65504">
<time>2015-09-27T15:40:47Z</time></trkpt>
<trkpt lat="24.717646" lon="105.655079">
<time>2015-09-27T15:40:48Z</time></trkpt>
<trkpt lat="24.717696" lon="105.655119">
<time>2015-09-27T15:40:49Z</time></trkpt>
<trkpt lat="24.717736" lon="105.655149">
<time>2015-09-27T15:40:50Z</time></trkpt>
<trkpt lat="24.717766" lon="105.655169">
<time>2015-09-27T15:40:51Z</time></trkpt>
<trkpt lat="24.717796" lon="105.655189">
<time>2015-09-27T15:40:52Z</time></trkpt>
<trkpt lat="24.717816" lon="105.655209">
<time>2015-09-27T15:40:53Z</time></trkpt>
<trkpt lat="24.717846" lon="105.655219">
<time>2015-09-27T15:40:54Z</time></trkpt>
<trkpt lat="24.717876" lon="105.655239">
<time>2015-09-27T15:40:55Z</time></trkpt>
<trkpt lat="24.717906" lon="105.655249">
<time>2015-09-27T15:40:56Z</time></trkpt>
<trkpt lat="24.717926" lon="105.655249">
<time>2015-09-27T15:40:57Z</time></trkpt>
<trkpt lat="24.717956" lon="105.655259">
<time>2015-09-27T15:40:58Z</time></trkpt>
<trkpt lat="24.717996" lon="105.655259">
<time>2015-09-27T15:40:59Z</time></trkpt>
<trkpt lat="24.718026" lon="105.655249">
<time>2015-09-27T15:41:00Z</time></trkpt>
<trkpt lat="24.718056" lon="105.655239">
<time>2015-09-27T15:41:01Z</time></trkpt>
<trkpt lat="24.718096" lon="105.655229">
<time>2015-09-27T15:41:02Z</time></trkpt>
<trkpt lat="24.718126" lon="105.655209">
<time>2015-09-27T15:41:03Z</time></trkpt>
<trkpt lat="24.718166" lon="105.655189">
<time>2015-09-27T15:41:04Z</time></trkpt>
<trkpt lat="24.718196" lon="105.655169">
<time>2015-09-27T15:41:05Z</time></trkpt>
<trkpt lat="24.718226" lon="105.655159">
<time>2015-09-27T15:41:06Z</time></trkpt>
<trkpt lat="24.718266" lon="105.655139">
<time>2015-09-27T15:41:07Z</time></trkpt>
<trkpt lat="24.718306" lon="105.655119">
<time>2015-09-27T15:41:08Z</time></trkpt>
<trkpt lat="24.718346" lon="105.655109">
<time>2015-09-27T15:41:09Z</time></trkpt>
<trkpt lat="24.718376" lon="105.655089">
<time>2015-09-27T15:41:10Z</time></trkpt>
<trkpt lat="24.718416" lon="105.655079">
<time>2015-09-27T15:41:11Z</time></trkpt>
<trkpt lat="24.718456" lon="105.655059">
<time>2015-09-27T15:41:12Z</time></trkpt>
<trkpt lat="24.718526" lon="105.65504">
<time>2015-09-27T15:41:13Z</time></trkpt>
<trkpt lat="24.718646" lon="105.655">
<time>2015-09-27T15:41:14Z</time></trkpt>
<trkpt lat="24.718706" lon="105.65497">
<time>2015-09-27T15:41:15Z</time></trkpt>
<trkpt lat="24.718766" lon="105.65495">
<time>2015-09-27T15:41:16Z</time></trkpt>
<trkpt lat="24.718826" lon="105.65493">
<time>2015-09-27T15:41:17Z</time></trkpt>
<trkpt lat="24.718886" lon="105.65491">
<time>2015-09-27T15:41:18Z</time></trkpt>
<trkpt lat="24.718946" lon="105.6549">
<time>2015-09-27T15:41:19Z</time></trkpt>
<trkpt lat="24.719006" lon="105.65488">
<time>2015-09-27T15:41:20Z</time></trkpt>
<trkpt lat="24.719036" lon="105.65488">
<time>2015-09-27T15:41:21Z</time></trkpt>
<trkpt lat="24.719066" lon="105.65487">
<time>2015-09-27T15:41:22Z</time></trkpt>
<trkpt lat="24.719096" lon="105.65487">
<time>2015-09-27T15:41:23Z</time></trkpt>
<trkpt lat="24.719126" lon="105.65486">
<time>2015-09-27T15:41:24Z</time></trkpt>
<trkpt lat="24.719156" lon="105.65486">
<time>2015-09-27T15:41:25Z</time></trkpt>
<trkpt lat="24.719186" lon="105.65486">
<time>2015-09-27T15:41:26Z</time></trkpt>
<trkpt lat="24.719216" lon="105.65487">
<time>2015-09-27T15:41:27Z</time></trkpt>
<trkpt lat="24.719236" lon="105.65488">
<time>2015-09-27T15:41:28Z</time></trkpt>
<trkpt lat="24.719266" lon="105.65489">
<time>2015-09-27T15:41:29Z</time></trkpt>
<trkpt lat="24.719296" lon="105.65491">
<time>2015-09-27T15:41:30Z</time></trkpt>
<trkpt lat="24.719326" lon="105.65493">
<time>2015-09-27T15:41:31Z</time></trkpt>
<trkpt lat="24.719356" lon="105.65495">
<time>2015-09-27T15:41:32Z</time></trkpt>
<trkpt lat="24.719376" lon="105.65498">
<time>2015-09-27T15:41:33Z</time></trkpt>
<trkpt lat="24.719406" lon="105.65501">
<time>2015-09-27T15:41:34Z</time></trkpt>
<trkpt lat="24.719426" lon="105.655039">
<time>2015-09-27T15:41:35Z</time></trkpt>
<trkpt lat="24.719446" lon="105.655069">
<time>2015-09-27T15:41:36Z</time></trkpt>
<trkpt lat="24.719476" lon="105.655119">
<time>2015-09-27T15:41:37Z</time></trkpt>
<trkpt lat="24.719496" lon="105.655159">
<time>2015-09-27T15:41:38Z</time></trkpt>
<trkpt lat="24.719516" lon="105.655209">
<time>2015-09-27T15:41:39Z</time></trkpt>
<trkpt lat="24.719536" lon="105.655249">
<time>2015-09-27T15:41:40Z</time></trkpt>
<trkpt lat="24.719546" lon="105.655299">
<time>2015-09-27T15:41:41Z</time></trkpt>
<trkpt lat="24.719565" lon="105.655349">
<time>2015-09-27T15:41:42Z</time></trkpt>
<trkpt lat="24.719575" lon="105.655389">
<time>2015-09-27T15:41:43Z</time></trkpt>
<trkpt lat="24.719595" lon="105.655438">
<time>2015-09-27T15:41:44Z</time></trkpt>
<trkpt lat="24.719605" lon="105.655488">
<time>2015-09-27T15:41:45Z</time></trkpt>
<trkpt lat="24.719615" lon="105.655538">
<time>2015-09-27T15:41:46Z</time></trkpt>
<trkpt lat="24.719635" lon="105.655648">
<time>2015-09-27T15:41:47Z</time></trkpt>
<trkpt lat="24.719645" lon="105.655698">
<time>2015-09-27T15:41:48Z</time></trkpt>
<trkpt lat="24.719665" lon="105.655748">
<time>2015-09-27T15:41:49Z</time></trkpt>
<trkpt lat="24.719675" lon="105.655798">
<time>2015-09-27T15:41:50Z</time></trkpt>
<trkpt lat="24.719685" lon="105.655847">
<time>2015-09-27T15:41:51Z</time></trkpt>
<trkpt lat="24.719704" lon="105.655907">
<time>2015-09-27T15:41:52Z</time></trkpt>
<trkpt lat="24.719724" lon="105.655957">
<time>2015-09-27T15:41:53Z</time></trkpt>
<trkpt lat="24.719744" lon="105.656007">
<time>2015-09-27T15:41:54Z</time></trkpt>
<trkpt lat="24.719774" lon="105.656057">
<time>2015-09-27T15:41:55Z</time></trkpt>
<trkpt lat="24.719804" lon="105.656097">
<time>2015-09-27T15:41:56Z</time></trkpt>
<trkpt lat="24.719834" lon="105.656137">
<time>2015-09-27T15:41:57Z</time></trkpt>
<trkpt lat="24.719864" lon="105.656177">
<time>2015-09-27T15:41:58Z</time></trkpt>
<trkpt lat="24.719904" lon="105.656207">
<time>2015-09-27T15:41:59Z</time></trkpt>
<trkpt lat="24.719934" lon="105.656236">
<time>2015-09-27T15:42:00Z</time></trkpt>
<trkpt lat="24.719974" lon="105.656256">
<time>2015-09-27T15:42:01Z</time></trkpt>
<trkpt lat="24.720014" lon="105.656266">
<time>2015-09-27T15:42:02Z</time></trkpt>
<trkpt lat="24.720054" lon="105.656286">
<time>2015-09-27T15:42:03Z</time></trkpt>
<trkpt lat="24.720094" lon="105.656296">
<time>2015-09-27T15:42:04Z</time></trkpt>
<trkpt lat="24.720134" lon="105.656306">
<time>2015-09-27T15:42:05Z</time></trkpt>
<trkpt lat="24.720184" lon="105.656316">
<time>2015-09-27T15:42:06Z</time></trkpt>
<trkpt lat="24.720224" lon="105.656316">
<time>2015-09-27T15:42:07Z</time></trkpt>
<trkpt lat="24.720274" lon="105.656326">
<time>2015-09-27T15:42:08Z</time></trkpt>
<trkpt lat="24.720314" lon="105.656336">
<time>2015-09-27T15:42:09Z</time></trkpt>
<trkpt lat="24.720364" lon="105.656346">
<time>2015-09-27T15:42:10Z</time></trkpt>
<trkpt lat="24.720414" lon="105.656346">
<time>2015-09-27T15:42:11Z</time></trkpt>
<trkpt lat="24.720464" lon="105.656346">
<time>2015-09-27T15:42:12Z</time></trkpt>
<trkpt lat="24.720504" lon="105.656356">
<time>2015-09-27T15:42:13Z</time></trkpt>
<trkpt lat="24.720554" lon="105.656356">
<time>2015-09-27T15:42:14Z</time></trkpt>
<trkpt lat="24.720604" lon="105.656356">
<time>2015-09-27T15:42:15Z</time></trkpt>
<trkpt lat="24.720664" lon="105.656346">
<time>2015-09-27T15:42:16Z</time></trkpt>
<trkpt lat="24.720724" lon="105.656336">
<time>2015-09-27T15:42:17Z</time></trkpt>
<trkpt lat="24.720844" lon="105.656326">
<time>2015-09-27T15:42:18Z</time></trkpt>
<trkpt lat="24.720904" lon="105.656316">
<time>2015-09-27T15:42:19Z</time></trkpt>
<trkpt lat="24.720964" lon="105.656316">
<time>2015-09-27T15:42:20Z</time></trkpt>
<trkpt lat="24.721024" lon="105.656316">
<time>2015-09-27T15:42:21Z</time></trkpt>
<trkpt lat="24.721074" lon="105.656316">
<time>2015-09-27T15:42:22Z</time></trkpt>
<trkpt lat="24.721134" lon="105.656326">
<time>2015-09-27T15:42:23Z</time></trkpt>
<trkpt lat="24.721194" lon="105.656336">
<time>2015-09-27T15:42:24Z</time></trkpt>
<trkpt lat="24.721254" lon="105.656356">
<time>2015-09-27T15:42:25Z</time></trkpt>
<trkpt lat="24.721304" lon="105.656376">
<time>2015-09-27T15:42:26Z</time></trkpt>
<trkpt lat="24.721363" lon="105.656406">
<time>2015-09-27T15:42:27Z</time></trkpt>
<trkpt lat="24.721413" lon="105.656426">
<time>2015-09-27T15:42:28Z</time></trkpt>
<trkpt lat="24.721473" lon="105.656456">
<time>2015-09-27T15:42:29Z</time></trkpt>
<trkpt lat="24.721533" lon="105.656486">
<time>2015-09-27T15:42:30Z</time></trkpt>
<trkpt lat="24.721583" lon="105.656506">
<time>2015-09-27T15:42:31Z</time></trkpt>
<trkpt lat="24.721633" lon="105.656536">
<time>2015-09-27T15:42:32Z</time></trkpt>
<trkpt lat="24.721693" lon="105.656556">
<time>2015-09-27T15:42:33Z</time></trkpt>
<trkpt lat="24.721743" lon="105.656576">
<time>2015-09-27T15:42:34Z</time></trkpt>
<trkpt lat="24.721793" lon="105.656595">
<time>2015-09-27T15:42:35Z</time></trkpt>
<trkpt lat="24.721853" lon="105.656615">
<time>2015-09-27T15:42:36Z</time></trkpt>
<trkpt lat="24.721913" lon="105.656625">
<time>2015-09-27T15:42:37Z</time></trkpt>
<trkpt lat="24.721963" lon="105.656625">
<time>2015-09-27T15:42:38Z</time></trkpt>
<trkpt lat="24.722003" lon="105.656635">
<time>2015-09-27T15:42:39Z</time></trkpt>
<trkpt lat="24.722053" lon="105.656635">
<time>2015-09-27T15:42:40Z</time></trkpt>
<trkpt lat="24.722093" lon="105.656625">
<time>2015-09-27T15:42:41Z</time></trkpt>
<trkpt lat="24.722133" lon="105.656625">
<time>2015-09-27T15:42:42Z</time></trkpt>
<trkpt lat="24.722183" lon="105.656615">
<time>2015-09-27T15:42:43Z</time></trkpt>
<trkpt lat="24.722223" lon="105.656605">
<time>2015-09-27T15:42:44Z</time></trkpt>
<trkpt lat="24.722263" lon="105.656595">
<time>2015-09-27T15:42:45Z</time></trkpt>
<trkpt lat="24.722303" lon="105.656576">
<time>2015-09-27T15:42:46Z</time></trkpt>
<trkpt lat="24.722353" lon="105.656556">
<time>2015-09-27T15:42:47Z</time></trkpt>
<trkpt lat="24.722393" lon="105.656536">
<time>2015-09-27T15:42:48Z</time></trkpt>
<trkpt lat="24.722443" lon="105.656506">
<time>2015-09-27T15:42:49Z</time></trkpt>
<trkpt lat="24.722483" lon="105.656476">
<time>2015-09-27T15:42:50Z</time></trkpt>
<trkpt lat="24.722523" lon="105.656446">
<time>2015-09-27T15:42:51Z</time></trkpt>
<trkpt lat="24.722573" lon="105.656416">
<time>2015-09-27T15:42:52Z</time></trkpt>
<trkpt lat="24.722613" lon="105.656376">
<time>2015-09-27T15:42:53Z</time></trkpt>
<trkpt lat="24.722714" lon="105.656296">
<time>2015-09-27T15:42:54Z</time></trkpt>
<trkpt lat="24.722764" lon="105.656256">
<time>2015-09-27T15:42:55Z</time></trkpt>
<trkpt lat="24.722814" lon="105.656216">
<time>2015-09-27T15:42:56Z</time></trkpt>
<trkpt lat="24.722874" lon="105.656186">
<time>2015-09-27T15:42:57Z</time></trkpt>
<trkpt lat="24.722934" lon="105.656147">
<time>2015-09-27T15:42:58Z</time></trkpt>
<trkpt lat="24.722984" lon="105.656127">
<time>2015-09-27T15:42:59Z</time></trkpt>
<trkpt lat="24.723044" lon="105.656107">
<time>2015-09-27T15:43:00Z</time></trkpt>
<trkpt lat="24.723104" lon="105.656097">
<time>2015-09-27T15:43:01Z</time></trkpt>
<trkpt lat="24.723164" lon="105.656097">
<time>2015-09-27T15:43:02Z</time></trkpt>
<trkpt lat="24.723214" lon="105.656107">
<time>2015-09-27T15:43:03Z</time></trkpt>
<trkpt lat="24.723274" lon="105.656127">
<time>2015-09-27T15:43:04Z</time></trkpt>
<trkpt lat="24.723334" lon="105.656147">
<time>2015-09-27T15:43:05Z</time></trkpt>
<trkpt lat="24.723394" lon="105.656176">
<time>2015-09-27T15:43:06Z</time></trkpt>
<trkpt lat="24.723454" lon="105.656206">
<time>2015-09-27T15:43:07Z</time></trkpt>
<trkpt lat="24.723504" lon="105.656236">
<time>2015-09-27T15:43:08Z</time></trkpt>
<trkpt lat="24.723564" lon="105.656256">
<time>2015-09-27T15:43:09Z</time></trkpt>
<trkpt lat="24.723624" lon="105.656286">
<time>2015-09-27T15:43:10Z</time></trkpt>
<trkpt lat="24.723694" lon="105.656306">
<time>2015-09-27T15:43:11Z</time></trkpt>
<trkpt lat="24.723754" lon="105.656326">
<time>2015-09-27T15:43:12Z</time></trkpt>
<trkpt lat="24.723813" lon="105.656346">
<time>2015-09-27T15:43:13Z</time></trkpt>
<trkpt lat="24.723883" lon="105.656356">
<time>2015-09-27T15:43:14Z</time></trkpt>
<trkpt lat="24.723943" lon="105.656366">
<time>2015-09-27T15:43:15Z</time></trkpt>
<trkpt lat="24.724013" lon="105.656376">
<time>2015-09-27T15:43:16Z</time></trkpt>
<trkpt lat="24.724073" lon="105.656386">
<time>2015-09-27T15:43:17Z</time></trkpt>
<trkpt lat="24.724143" lon="105.656386">
<time>2015-09-27T15:43:18Z</time></trkpt>
<trkpt lat="24.724213" lon="105.656386">
<time>2015-09-27T15:43:19Z</time></trkpt>
<trkpt lat="24.724283" lon="105.656376">
<time>2015-09-27T15:43:20Z</time></trkpt>
<trkpt lat="24.724413" lon="105.656376">
<time>2015-09-27T15:43:21Z</time></trkpt>
<trkpt lat="24.724483" lon="105.656376">
<time>2015-09-27T15:43:22Z</time></trkpt>
<trkpt lat="24.724553" lon="105.656376">
<time>2015-09-27T15:43:23Z</time></trkpt>
<trkpt lat="24.724623" lon="105.656376">
<time>2015-09-27T15:43:24Z</time></trkpt>
<trkpt lat="24.724693" lon="105.656376">
<time>2015-09-27T15:43:25Z</time></trkpt>
<trkpt lat="24.724763" lon="105.656386">
<time>2015-09-27T15:43:26Z</time></trkpt>
<trkpt lat="24.724823" lon="105.656386">
<time>2015-09-27T15:43:27Z</time></trkpt>
<trkpt lat="24.724893" lon="105.656396">
<time>2015-09-27T15:43:28Z</time></trkpt>
<trkpt lat="24.724963" lon="105.656396">
<time>2015-09-27T15:43:29Z</time></trkpt>
<trkpt lat="24.725023" lon="105.656386">
<time>2015-09-27T15:43:30Z</time></trkpt>
<trkpt lat="24.725093" lon="105.656366">
<time>2015-09-27T15:43:31Z</time></trkpt>
<trkpt lat="24.725163" lon="105.656336">
<time>2015-09-27T15:43:32Z</time></trkpt>
<trkpt lat="24.725183" lon="105.656326">
<time>2015-09-27T15:43:33Z</time></trkpt>
<trkpt lat="24.725193" lon="105.656316">
<time>2015-09-27T15:43:34Z</time></trkpt>
<trkpt lat="24.725213" lon="105.656306">
<time>2015-09-27T15:43:35Z</time></trkpt>
<trkpt lat="24.725233" lon="105.656296">
<time>2015-09-27T15:43:36Z</time></trkpt>
<trkpt lat="24.725244" lon="105.656286">
<time>2015-09-27T15:43:37Z</time></trkpt>
<trkpt lat="24.725254" lon="105.656266">
<time>2015-09-27T15:43:38Z</time></trkpt>
<trkpt lat="24.725264" lon="105.656256">
<time>2015-09-27T15:43:39Z</time></trkpt>
<trkpt lat="24.725274" lon="105.656236">
<time>2015-09-27T15:43:40Z</time></trkpt>
<trkpt lat="24.725274" lon="105.656206">
<time>2015-09-27T15:43:41Z</time></trkpt>
<trkpt lat="24.725274" lon="105.656186">
<time>2015-09-27T15:43:42Z</time></trkpt>
<trkpt lat="24.725264" lon="105.656156">
<time>2015-09-27T15:43:43Z</time></trkpt>
<trkpt lat="24.725254" lon="105.656127">
<time>2015-09-27T15:43:44Z</time></trkpt>
<trkpt lat="24.725234" lon="105.656097">
<time>2015-09-27T15:43:45Z</time></trkpt>
<trkpt lat="24.725214" lon="105.656067">
<time>2015-09-27T15:43:46Z</time></trkpt>
<trkpt lat="24.725194" lon="105.656047">
<time>2015-09-27T15:43:47Z</time></trkpt>
<trkpt lat="24.725174" lon="105.656017">
<time>2015-09-27T15:43:48Z</time></trkpt>
<trkpt lat="24.725124" lon="105.655987">
<time>2015-09-27T15:43:49Z</time></trkpt>
<trkpt lat="24.725084" lon="105.655957">
<time>2015-09-27T15:43:50Z</time></trkpt>
<trkpt lat="24.725034" lon="105.655937">
<time>2015-09-27T15:43:51Z</time></trkpt>
<trkpt lat="24.724984" lon="105.655927">
<time>2015-09-27T15:43:52Z</time></trkpt>
<trkpt lat="24.724934" lon="105.655927">
<time>2015-09-27T15:43:53Z</time></trkpt>
<trkpt lat="24.724874" lon="105.655917">
<time>2015-09-27T15:43:54Z</time></trkpt>
<trkpt lat="24.724774" lon="105.655917">
<time>2015-09-27T15:43:55Z</time></trkpt>
<trkpt lat="24.724694" lon="105.655907">
<time>2015-09-27T15:43:56Z</time></trkpt>
<trkpt lat="24.724614" lon="105.655897">
<time>2015-09-27T15:43:57Z</time></trkpt>
<trkpt lat="24.724534" lon="105.655887">
<time>2015-09-27T15:43:58Z</time></trkpt>
<trkpt lat="24.724454" lon="105.655867">
<time>2015-09-27T15:43:59Z</time></trkpt>
<trkpt lat="24.724374" lon="105.655847">
<time>2015-09-27T15:44:00Z</time></trkpt>
<trkpt lat="24.724294" lon="105.655817">
<time>2015-09-27T15:44:01Z</time></trkpt>
<trkpt lat="24.724214" lon="105.655797">
<time>2015-09-27T15:44:02Z</time></trkpt>
<trkpt lat="24.724135" lon="105.655767">
<time>2015-09-27T15:44:03Z</time></trkpt>
<trkpt lat="24.724075" lon="105.655738">
<time>2015-09-27T15:44:04Z</time></trkpt>
<trkpt lat="24.724005" lon="105.655708">
<time>2015-09-27T15:44:05Z</time></trkpt>
<trkpt lat="24.723945" lon="105.655688">
<time>2015-09-27T15:44:06Z</time></trkpt>
<trkpt lat="24.723875" lon="105.655658">
<time>2015-09-27T15:44:07Z</time></trkpt>
<trkpt lat="24.723815" lon="105.655618">
<time>2015-09-27T15:44:08Z</time></trkpt>
<trkpt lat="24.723755" lon="105.655588">
<time>2015-09-27T15:44:09Z</time></trkpt>
<trkpt lat="24.723695" lon="105.655548">
<time>2015-09-27T15:44:10Z</time></trkpt>
<trkpt lat="24.723645" lon="105.655518">
<time>2015-09-27T15:44:11Z</time></trkpt>
<trkpt lat="24.723595" lon="105.655478">
<time>2015-09-27T15:44:12Z</time></trkpt>
<trkpt lat="24.723555" lon="105.655448">
<time>2015-09-27T15:44:13Z</time></trkpt>
<trkpt lat="24.723505" lon="105.655418">
<time>2015-09-27T15:44:14Z</time></trkpt>
<trkpt lat="24.723465" lon="105.655378">
<time>2015-09-27T15:44:15Z</time></trkpt>
<trkpt lat="24.723415" lon="105.655349">
<time>2015-09-27T15:44:16Z</time></trkpt>
<trkpt lat="24.723355" lon="105.655319">
<time>2015-09-27T15:44:17Z</time></trkpt>
<trkpt lat="24.723305" lon="105.655279">
<time>2015-09-27T15:44:18Z</time></trkpt>
<trkpt lat="24.723246" lon="105.655249">
<time>2015-09-27T15:44:19Z</time></trkpt>
<trkpt lat="24.723186" lon="105.655229">
<time>2015-09-27T15:44:20Z</time></trkpt>
<trkpt lat="24.723166" lon="105.655219">
<time>2015-09-27T15:44:21Z</time></trkpt>
<trkpt lat="24.723146" lon="105.655209">
<time>2015-09-27T15:44:22Z</time></trkpt>
<trkpt lat="24.723126" lon="105.655199">
<time>2015-09-27T15:44:23Z</time></trkpt>
<trkpt lat="24.723106" lon="105.655179">
<time>2015-09-27T15:44:24Z</time></trkpt>
<trkpt lat="24.723106" lon="105.655159">
<time>2015-09-27T15:44:25Z</time></trkpt>
<trkpt lat="24.723096" lon="105.655139">
<time>2015-09-27T15:44:26Z</time></trkpt>
<trkpt lat="24.723096" lon="105.655129">
<time>2015-09-27T15:44:27Z</time></trkpt>
<trkpt lat="24.723106" lon="105.655119">
<time>2015-09-27T15:44:28Z</time></trkpt>
<trkpt lat="24.723106" lon="105.655109">
<time>2015-09-27T15:44:29Z</time></trkpt>
<trkpt lat="24.723106" lon="105.655099">
<time>2015-09-27T15:44:30Z</time></trkpt>
<trkpt lat="24.723116" lon="105.655089">
<time>2015-09-27T15:44:31Z</time></trkpt>
<trkpt lat="24.723116" lon="105.655079">
<time>2015-09-27T15:44:32Z</time></trkpt>
<trkpt lat="24.723126" lon="105.655069">
<time>2015-09-27T15:44:33Z</time></trkpt>
<trkpt lat="24.723136" lon="105.655059">
<time>2015-09-27T15:44:34Z</time></trkpt>
<trkpt lat="24.723156" lon="105.655039">
<time>2015-09-27T15:44:35Z</time></trkpt>
<trkpt lat="24.723176" lon="105.655029">
<time>2015-09-27T15:44:36Z</time></trkpt>
<trkpt lat="24.723196" lon="105.655019">
<time>2015-09-27T15:44:37Z</time></trkpt>
<trkpt lat="24.723226" lon="105.655019">
<time>2015-09-27T15:44:38Z</time></trkpt>
<trkpt lat="24.723246" lon="105.655019">
<time>2015-09-27T15:44:39Z</time></trkpt>
<trkpt lat="24.723266" lon="105.655009">
<time>2015-09-27T15:44:40Z</time></trkpt>
<trkpt lat="24.723286" lon="105.655009">
<time>2015-09-27T15:44:41Z</time></trkpt>
<trkpt lat="24.723346" lon="105.655019">
<time>2015-09-27T15:44:42Z</time></trkpt>
<trkpt lat="24.723396" lon="105.655019">
<time>2015-09-27T15:44:43Z</time></trkpt>
<trkpt lat="24.723446" lon="105.655029">
<time>2015-09-27T15:44:44Z</time></trkpt>
<trkpt lat="24.723486" lon="105.655039">
<time>2015-09-27T15:44:45Z</time></trkpt>
<trkpt lat="24.723536" lon="105.655049">
<time>2015-09-27T15:44:46Z</time></trkpt>
<trkpt lat="24.723586" lon="105.655069">
<time>2015-09-27T15:44:47Z</time></trkpt>
<trkpt lat="24.723636" lon="105.655089">
<time>2015-09-27T15:44:48Z</time></trkpt>
<trkpt lat="24.723676" lon="105.655109">
<time>2015-09-27T15:44:49Z</time></trkpt>
<trkpt lat="24.723726" lon="105.655129">
<time>2015-09-27T15:44:50Z</time></trkpt>
<trkpt lat="24.723776" lon="105.655149">
<time>2015-09-27T15:44:51Z</time></trkpt>
<trkpt lat="24.723876" lon="105.655199">
<time>2015-09-27T15:44:52Z</time></trkpt>
<trkpt lat="24.723916" lon="105.655219">
<time>2015-09-27T15:44:53Z</time></trkpt>
<trkpt lat="24.723966" lon="105.655239">
<time>2015-09-27T15:44:54Z</time></trkpt>
<trkpt lat="24.724015" lon="105.655259">
<time>2015-09-27T15:44:55Z</time></trkpt>
<trkpt lat="24.724065" lon="105.655279">
<time>2015-09-27T15:44:56Z</time></trkpt>
<trkpt lat="24.724125" lon="105.655299">
<time>2015-09-27T15:44:57Z</time></trkpt>
<trkpt lat="24.724185" lon="105.655309">
<time>2015-09-27T15:44:58Z</time></trkpt>
<trkpt lat="24.724255" lon="105.655329">
<time>2015-09-27T15:44:59Z</time></trkpt>
<trkpt lat="24.724315" lon="105.655339">
<time>2015-09-27T15:45:00Z</time></trkpt>
<trkpt lat="24.724375" lon="105.655348">
<time>2015-09-27T15:45:01Z</time></trkpt>
<trkpt lat="24.724435" lon="105.655358">
<time>2015-09-27T15:45:02Z</time></trkpt>
<trkpt lat="24.724505" lon="105.655368">
<time>2015-09-27T15:45:03Z</time></trkpt>
<trkpt lat="24.724565" lon="105.655378">
<time>2015-09-27T15:45:04Z</time></trkpt>
<trkpt lat="24.724625" lon="105.655388">
<time>2015-09-27T15:45:05Z</time></trkpt>
<trkpt lat="24.724675" lon="105.655398">
<time>2015-09-27T15:45:06Z</time></trkpt>
<trkpt lat="24.724725" lon="105.655398">
<time>2015-09-27T15:45:07Z</time></trkpt>
<trkpt lat="24.724775" lon="105.655408">
<time>2015-09-27T15:45:08Z</time></trkpt>
<trkpt lat="24.724835" lon="105.655408">
<time>2015-09-27T15:45:09Z</time></trkpt>
<trkpt lat="24.724885" lon="105.655408">
<time>2015-09-27T15:45:10Z</time></trkpt>
<trkpt lat="24.724935" lon="105.655398">
<time>2015-09-27T15:45:11Z</time></trkpt>
<trkpt lat="24.724985" lon="105.655388">
<time>2015-09-27T15:45:12Z</time></trkpt>
<trkpt lat="24.725045" lon="105.655378">
<time>2015-09-27T15:45:13Z</time></trkpt>
<trkpt lat="24.725105" lon="105.655348">
<time>2015-09-27T15:45:14Z</time></trkpt>
<trkpt lat="24.725155" lon="105.655329">
<time>2015-09-27T15:45:15Z</time></trkpt>
<trkpt lat="24.725215" lon="105.655299">
<time>2015-09-27T15:45:16Z</time></trkpt>
<trkpt lat="24.725275" lon="105.655269">
<time>2015-09-27T15:45:17Z</time></trkpt>
<trkpt lat="24.725335" lon="105.655239">
<time>2015-09-27T15:45:18Z</time></trkpt>
<trkpt lat="24.725395" lon="105.655209">
<time>2015-09-27T15:45:19Z</time></trkpt>
<trkpt lat="24.725456" lon="105.655189">
<time>2015-09-27T15:45:20Z</time></trkpt>
<trkpt lat="24.725496" lon="105.655179">
<time>2015-09-27T15:45:21Z</time></trkpt>
<trkpt lat="24.725526" lon="105.655169">
<time>2015-09-27T15:45:22Z</time></trkpt>
<trkpt lat="24.725556" lon="105.655159">
<time>2015-09-27T15:45:23Z</time></trkpt>
<trkpt lat="24.725586" lon="105.655139">
<time>2015-09-27T15:45:24Z</time></trkpt>
<trkpt lat="24.725616" lon="105.655129">
<time>2015-09-27T15:45:25Z</time></trkpt>
<trkpt lat="24.725646" lon="105.655119">
<time>2015-09-27T15:45:26Z</time></trkpt>
<trkpt lat="24.725676" lon="105.655099">
<time>2015-09-27T15:45:27Z</time></trkpt>
<trkpt lat="24.725696" lon="105.655079">
<time>2015-09-27T15:45:28Z</time></trkpt>
<trkpt lat="24.725716" lon="105.655049">
<time>2015-09-27T15:45:29Z</time></trkpt>
<trkpt lat="24.725726" lon="105.655019">
<time>2015-09-27T15:45:30Z</time></trkpt>
<trkpt lat="24.725736" lon="105.654989">
<time>2015-09-27T15:45:31Z</time></trkpt>
<trkpt lat="24.725746" lon="105.654959">
<time>2015-09-27T15:45:32Z</time></trkpt>
<trkpt lat="24.725756" lon="105.654919">
<time>2015-09-27T15:45:33Z</time></trkpt>
<trkpt lat="24.725756" lon="105.65488">
<time>2015-09-27T15:45:34Z</time></trkpt>
<trkpt lat="24.725766" lon="105.65485">
<time>2015-09-27T15:45:35Z</time></trkpt>
<trkpt lat="24.725766" lon="105.65481">
<time>2015-09-27T15:45:36Z</time></trkpt>
<trkpt lat="24.725776" lon="105.65473">
<time>2015-09-27T15:45:37Z</time></trkpt>
<trkpt lat="24.725786" lon="105.65466">
<time>2015-09-27T15:45:38Z</time></trkpt>
<trkpt lat="24.725787" lon="105.65459">
<time>2015-09-27T15:45:39Z</time></trkpt>
<trkpt lat="24.725787" lon="105.65452">
<time>2015-09-27T15:45:40Z</time></trkpt>
<trkpt lat="24.725797" lon="105.654451">
<time>2015-09-27T15:45:41Z</time></trkpt>
<trkpt lat="24.725787" lon="105.654381">
<time>2015-09-27T15:45:42Z</time></trkpt>
<trkpt lat="24.725787" lon="105.654311">
<time>2015-09-27T15:45:43Z</time></trkpt>
<trkpt lat="24.725767" lon="105.654241">
<time>2015-09-27T15:45:44Z</time></trkpt>
<trkpt lat="24.725757" lon="105.654181">
<time>2015-09-27T15:45:45Z</time></trkpt>
<trkpt lat="24.725747" lon="105.654131">
<time>2015-09-27T15:45:46Z</time></trkpt>
<trkpt lat="24.725728" lon="105.654072">
<time>2015-09-27T15:45:47Z</time></trkpt>
<trkpt lat="24.725688" lon="105.653962">
<time>2015-09-27T15:45:48Z</time></trkpt>
<trkpt lat="24.725678" lon="105.653902">
<time>2015-09-27T15:45:49Z</time></trkpt>
<trkpt lat="24.725658" lon="105.653852">
<time>2015-09-27T15:45:50Z</time></trkpt>
<trkpt lat="24.725648" lon="105.653792">
<time>2015-09-27T15:45:51Z</time></trkpt>
<trkpt lat="24.725638" lon="105.653732">
<time>2015-09-27T15:45:52Z</time></trkpt>
<trkpt lat="24.725628" lon="105.653663">
<time>2015-09-27T15:45:53Z</time></trkpt>
<trkpt lat="24.725628" lon="105.653593">
<time>2015-09-27T15:45:54Z</time></trkpt>
<trkpt lat="24.725629" lon="105.653533">
<time>2015-09-27T15:45:55Z</time></trkpt>
<trkpt lat="24.725639" lon="105.653463">
<time>2015-09-27T15:45:56Z</time></trkpt>
<trkpt lat="24.725639" lon="105.653393">
<time>2015-09-27T15:45:57Z</time></trkpt>
<trkpt lat="24.725649" lon="105.653333">
<time>2015-09-27T15:45:58Z</time></trkpt>
<trkpt lat="24.725659" lon="105.653264">
<time>2015-09-27T15:45:59Z</time></trkpt>
<trkpt lat="24.725669" lon="105.653194">
<time>2015-09-27T15:46:00Z</time></trkpt>
<trkpt lat="24.725679" lon="105.653124">
<time>2015-09-27T15:46:01Z</time></trkpt>
<trkpt lat="24.725699" lon="105.653054">
<time>2015-09-27T15:46:02Z</time></trkpt>
<trkpt lat="24.72571" lon="105.652984">
<time>2015-09-27T15:46:03Z</time></trkpt>
<trkpt lat="24.72572" lon="105.652914">
<time>2015-09-27T15:46:04Z</time></trkpt>
<trkpt lat="24.72574" lon="105.652845">
<time>2015-09-27T15:46:05Z</time></trkpt>
<trkpt lat="24.72577" lon="105.652705">
<time>2015-09-27T15:46:06Z</time></trkpt>
<trkpt lat="24.72578" lon="105.652655">
<time>2015-09-27T15:46:07Z</time></trkpt>
<trkpt lat="24.72579" lon="105.652605">
<time>2015-09-27T15:46:08Z</time></trkpt>
<trkpt lat="24.72579" lon="105.652565">
<time>2015-09-27T15:46:09Z</time></trkpt>
<trkpt lat="24.7258" lon="105.652515">
<time>2015-09-27T15:46:10Z</time></trkpt>
<trkpt lat="24.7258" lon="105.652476">
<time>2015-09-27T15:46:11Z</time></trkpt>
<trkpt lat="24.725801" lon="105.652426">
<time>2015-09-27T15:46:12Z</time></trkpt>
<trkpt lat="24.725801" lon="105.652386">
<time>2015-09-27T15:46:13Z</time></trkpt>
<trkpt lat="24.725791" lon="105.652346">
<time>2015-09-27T15:46:14Z</time></trkpt>
<trkpt lat="24.725771" lon="105.652296">
<time>2015-09-27T15:46:15Z</time></trkpt>
<trkpt lat="24.725751" lon="105.652246">
<time>2015-09-27T15:46:16Z</time></trkpt>
<trkpt lat="24.725721" lon="105.652206">
<time>2015-09-27T15:46:17Z</time></trkpt>
<trkpt lat="24.725691" lon="105.652166">
<time>2015-09-27T15:46:18Z</time></trkpt>
<trkpt lat="24.725661" lon="105.652116">
<time>2015-09-27T15:46:19Z</time></trkpt>
<trkpt lat="24.725631" lon="105.652077">
<time>2015-09-27T15:46:20Z</time></trkpt>
<trkpt lat="24.725591" lon="105.652037">
<time>2015-09-27T15:46:21Z</time></trkpt>
<trkpt lat="24.725561" lon="105.651997">
<time>2015-09-27T15:46:22Z</time></trkpt>
<trkpt lat="24.725531" lon="105.651957">
<time>2015-09-27T15:46:23Z</time></trkpt>
<trkpt lat="24.725512" lon="105.651917">
<time>2015-09-27T15:46:24Z</time></trkpt>
<trkpt lat="24.725482" lon="105.651877">
<time>2015-09-27T15:46:25Z</time></trkpt>
<trkpt lat="24.725462" lon="105.651827">
<time>2015-09-27T15:46:26Z</time></trkpt>
<trkpt lat="24.725442" lon="105.651787">
<time>2015-09-27T15:46:27Z</time></trkpt>
<trkpt lat="24.725432" lon="105.651747">
<time>2015-09-27T15:46:28Z</time></trkpt>
<trkpt lat="24.725412" lon="105.651697">
<time>2015-09-27T15:46:29Z</time></trkpt>
<trkpt lat="24.725402" lon="105.651658">
<time>2015-09-27T15:46:30Z</time></trkpt>
<trkpt lat="24.725392" lon="105.651618">
<time>2015-09-27T15:46:31Z</time></trkpt>
<trkpt lat="24.725382" lon="105.651578">
<time>2015-09-27T15:46:32Z</time></trkpt>
<trkpt lat="24.725382" lon="105.651538">
<time>2015-09-27T15:46:33Z</time></trkpt>
<trkpt lat="24.725372" lon="105.651498">
<time>2015-09-27T15:46:34Z</time></trkpt>
<trkpt lat="24.725372" lon="105.651458">
<time>2015-09-27T15:46:35Z</time></trkpt>
<trkpt lat="24.725362" lon="105.651418">
<time>2015-09-27T15:46:36Z</time></trkpt>
<trkpt lat="24.725362" lon="105.651378">
<time>2015-09-27T15:46:37Z</time></trkpt>
<trkpt lat="24.725363" lon="105.651338">
<time>2015-09-27T15:46:38Z</time></trkpt>
<trkpt lat="24.725363" lon="105.651298">
<time>2015-09-27T15:46:39Z</time></trkpt>
<trkpt lat="24.725363" lon="105.651229">
<time>2015-09-27T15:46:40Z</time></trkpt>
<trkpt lat="24.725373" lon="105.651189">
<time>2015-09-27T15:46:41Z</time></trkpt>
<trkpt lat="24.725373" lon="105.651159">
<time>2015-09-27T15:46:42Z</time></trkpt>
<trkpt lat="24.725363" lon="105.651119">
<time>2015-09-27T15:46:43Z</time></trkpt>
<trkpt lat="24.725363" lon="105.651079">
<time>2015-09-27T15:46:44Z</time></trkpt>
<trkpt lat="24.725363" lon="105.651049">
<time>2015-09-27T15:46:45Z</time></trkpt>
<trkpt lat="24.725353" lon="105.651009">
<time>2015-09-27T15:46:46Z</time></trkpt>
<trkpt lat="24.725343" lon="105.650959">
<time>2015-09-27T15:46:47Z</time></trkpt>
<trkpt lat="24.725323" lon="105.650919">
<time>2015-09-27T15:46:48Z</time></trkpt>
<trkpt lat="24.725313" lon="105.650879">
<time>2015-09-27T15:46:49Z</time></trkpt>
<trkpt lat="24.725293" lon="105.65084">
<time>2015-09-27T15:46:50Z</time></trkpt>
<trkpt lat="24.725274" lon="105.6508">
<time>2015-09-27T15:46:51Z</time></trkpt>
<trkpt lat="24.725244" lon="105.65076">
<time>2015-09-27T15:46:52Z</time></trkpt>
<trkpt lat="24.725224" lon="105.65072">
<time>2015-09-27T15:46:53Z</time></trkpt>
<trkpt lat="24.725184" lon="105.65065">
<time>2015-09-27T15:46:54Z</time></trkpt>
<trkpt lat="24.725154" lon="105.65061">
<time>2015-09-27T15:46:55Z</time></trkpt>
<trkpt lat="24.725134" lon="105.65057">
<time>2015-09-27T15:46:56Z</time></trkpt>
<trkpt lat="24.725114" lon="105.65054">
<time>2015-09-27T15:46:57Z</time></trkpt>
<trkpt lat="24.725104" lon="105.6505">
<time>2015-09-27T15:46:58Z</time></trkpt>
<trkpt lat="24.725094" lon="105.65046">
<time>2015-09-27T15:46:59Z</time></trkpt>
<trkpt lat="24.725084" lon="105.650421">
<time>2015-09-27T15:47:00Z</time></trkpt>
<trkpt lat="24.725074" lon="105.650381">
<time>2015-09-27T15:47:01Z</time></trkpt>
<trkpt lat="24.725074" lon="105.650341">
<time>2015-09-27T15:47:02Z</time></trkpt>
<trkpt lat="24.725084" lon="105.650301">
<time>2015-09-27T15:47:03Z</time></trkpt>
<trkpt lat="24.725084" lon="105.650261">
<time>2015-09-27T15:47:04Z</time></trkpt>
<trkpt lat="24.725095" lon="105.650221">
<time>2015-09-27T15:47:05Z</time></trkpt>
<trkpt lat="24.725105" lon="105.650181">
<time>2015-09-27T15:47:06Z</time></trkpt>
<trkpt lat="24.725115" lon="105.650141">
<time>2015-09-27T15:47:07Z</time></trkpt>
<trkpt lat="24.725125" lon="105.650101">
<time>2015-09-27T15:47:08Z</time></trkpt>
<trkpt lat="24.725145" lon="105.650051">
<time>2015-09-27T15:47:09Z</time></trkpt>
<trkpt lat="24.725165" lon="105.649992">
<time>2015-09-27T15:47:10Z</time></trkpt>
<trkpt lat="24.725185" lon="105.649932">
<time>2015-09-27T15:47:11Z</time></trkpt>
<trkpt lat="24.725215" lon="105.649882">
<time>2015-09-27T15:47:12Z</time></trkpt>
<trkpt lat="24.725235" lon="105.649832">
<time>2015-09-27T15:47:13Z</time></trkpt>
<trkpt lat="24.725265" lon="105.649782">
<time>2015-09-27T15:47:14Z</time></trkpt>
<trkpt lat="24.725295" lon="105.649732">
<time>2015-09-27T15:47:15Z</time></trkpt>
<trkpt lat="24.725326" lon="105.649682">
<time>2015-09-27T15:47:16Z</time></trkpt>
<trkpt lat="24.725386" lon="105.649613">
<time>2015-09-27T15:47:17Z</time></trkpt>
<trkpt lat="24.725446" lon="105.649543">
<time>2015-09-27T15:47:18Z</time></trkpt>
<trkpt lat="24.725506" lon="105.649483">
<time>2015-09-27T15:47:19Z</time></trkpt>
<trkpt lat="24.725576" lon="105.649413">
<time>2015-09-27T15:47:20Z</time></trkpt>
<trkpt lat="24.725646" lon="105.649353">
<time>2015-09-27T15:47:21Z</time></trkpt>
<trkpt lat="24.725716" lon="105.649293">
<time>2015-09-27T15:47:22Z</time></trkpt>
<trkpt lat="24.725786" lon="105.649233">
<time>2015-09-27T15:47:23Z</time></trkpt>
<trkpt lat="24.725846" lon="105.649174">
<time>2015-09-27T15:47:24Z</time></trkpt>
<trkpt lat="24.725886" lon="105.649134">
<time>2015-09-27T15:47:25Z</time></trkpt>
<trkpt lat="24.725917" lon="105.649104">
<time>2015-09-27T15:47:26Z</time></trkpt>
<trkpt lat="24.725947" lon="105.649074">
<time>2015-09-27T15:47:27Z</time></trkpt>
<trkpt lat="24.725977" lon="105.649034">
<time>2015-09-27T15:47:28Z</time></trkpt>
<trkpt lat="24.726007" lon="105.648994">
<time>2015-09-27T15:47:29Z</time></trkpt>
<trkpt lat="24.726047" lon="105.648964">
<time>2015-09-27T15:47:30Z</time></trkpt>
<trkpt lat="24.726077" lon="105.648924">
<time>2015-09-27T15:47:31Z</time></trkpt>
<trkpt lat="24.726107" lon="105.648884">
<time>2015-09-27T15:47:32Z</time></trkpt>
<trkpt lat="24.726137" lon="105.648834">
<time>2015-09-27T15:47:33Z</time></trkpt>
<trkpt lat="24.726177" lon="105.648784">
<time>2015-09-27T15:47:34Z</time></trkpt>
<trkpt lat="24.726217" lon="105.648735">
<time>2015-09-27T15:47:35Z</time></trkpt>
<trkpt lat="24.726247" lon="105.648675">
<time>2015-09-27T15:47:36Z</time></trkpt>
<trkpt lat="24.726277" lon="105.648625">
<time>2015-09-27T15:47:37Z</time></trkpt>
<trkpt lat="24.726307" lon="105.648565">
<time>2015-09-27T15:47:38Z</time></trkpt>
<trkpt lat="24.726328" lon="105.648505">
<time>2015-09-27T15:47:39Z</time></trkpt>
<trkpt lat="24.726338" lon="105.648445">
<time>2015-09-27T15:47:40Z</time></trkpt>
<trkpt lat="24.726348" lon="105.648405">
<time>2015-09-27T15:47:41Z</time></trkpt>
<trkpt lat="24.726358" lon="105.648356">
<time>2015-09-27T15:47:42Z</time></trkpt>
<trkpt lat="24.726368" lon="105.648306">
<time>2015-09-27T15:47:43Z</time></trkpt>
<trkpt lat="24.726368" lon="105.648256">
<time>2015-09-27T15:47:44Z</time></trkpt>
<trkpt lat="24.726368" lon="105.648206">
<time>2015-09-27T15:47:45Z</time></trkpt>
<trkpt lat="24.726368" lon="105.648156">
<time>2015-09-27T15:47:46Z</time></trkpt>
<trkpt lat="24.726368" lon="105.648106">
<time>2015-09-27T15:47:47Z</time></trkpt>
<trkpt lat="24.726358" lon="105.648056">
<time>2015-09-27T15:47:48Z</time></trkpt>
<trkpt lat="24.726358" lon="105.647986">
<time>2015-09-27T15:47:49Z</time></trkpt>
<trkpt lat="24.726359" lon="105.647927">
<time>2015-09-27T15:47:50Z</time></trkpt>
<trkpt lat="24.726349" lon="105.647867">
<time>2015-09-27T15:47:51Z</time></trkpt>
<trkpt lat="24.726349" lon="105.647807">
<time>2015-09-27T15:47:52Z</time></trkpt>
<trkpt lat="24.726339" lon="105.647747">
<time>2015-09-27T15:47:53Z</time></trkpt>
<trkpt lat="24.726339" lon="105.647687">
<time>2015-09-27T15:47:54Z</time></trkpt>
<trkpt lat="24.726329" lon="105.647627">
<time>2015-09-27T15:47:55Z</time></trkpt>
<trkpt lat="24.726329" lon="105.647567">
<time>2015-09-27T15:47:56Z</time></trkpt>
<trkpt lat="24.726319" lon="105.647478">
<time>2015-09-27T15:47:57Z</time></trkpt>
<trkpt lat="24.726309" lon="105.647398">
<time>2015-09-27T15:47:58Z</time></trkpt>
<trkpt lat="24.72629" lon="105.647318">
<time>2015-09-27T15:47:59Z</time></trkpt>
<trkpt lat="24.72628" lon="105.647238">
<time>2015-09-27T15:48:00Z</time></trkpt>
<trkpt lat="24.72627" lon="105.647158">
<time>2015-09-27T15:48:01Z</time></trkpt>
<trkpt lat="24.72624" lon="105.646989">
<time>2015-09-27T15:48:02Z</time></trkpt>
<trkpt lat="24.72623" lon="105.646909">
<time>2015-09-27T15:48:03Z</time></trkpt>
<trkpt lat="24.72622" lon="105.646849">
<time>2015-09-27T15:48:04Z</time></trkpt>
<trkpt lat="24.726211" lon="105.646799">
<time>2015-09-27T15:48:05Z</time></trkpt>
<trkpt lat="24.726201" lon="105.646739">
<time>2015-09-27T15:48:06Z</time></trkpt>
<trkpt lat="24.726201" lon="105.646689">
<time>2015-09-27T15:48:07Z</time></trkpt>
<trkpt lat="24.726191" lon="105.64663">
<time>2015-09-27T15:48:08Z</time></trkpt>
<trkpt lat="24.726191" lon="105.64658">
<time>2015-09-27T15:48:09Z</time></trkpt>
<trkpt lat="24.726191" lon="105.64652">
<time>2015-09-27T15:48:10Z</time></trkpt>
<trkpt lat="24.726201" lon="105.64647">
<time>2015-09-27T15:48:11Z</time></trkpt>
<trkpt lat="24.726211" lon="105.64638">
<time>2015-09-27T15:48:12Z</time></trkpt>
<trkpt lat="24.726231" lon="105.64629">
<time>2015-09-27T15:48:13Z</time></trkpt>
<trkpt lat="24.726262" lon="105.646201">
<time>2015-09-27T15:48:14Z</time></trkpt>
<trkpt lat="24.726292" lon="105.646111">
<time>2015-09-27T15:48:15Z</time></trkpt>
<trkpt lat="24.726322" lon="105.646021">
<time>2015-09-27T15:48:16Z</time></trkpt>
<trkpt lat="24.726362" lon="105.645931">
<time>2015-09-27T15:48:17Z</time></trkpt>
<trkpt lat="24.726402" lon="105.645841">
<time>2015-09-27T15:48:18Z</time></trkpt>
<trkpt lat="24.726432" lon="105.645752">
<time>2015-09-27T15:48:19Z</time></trkpt>
<trkpt lat="24.726472" lon="105.645672">
<time>2015-09-27T15:48:20Z</time></trkpt>
<trkpt lat="24.726503" lon="105.645582">
<time>2015-09-27T15:48:21Z</time></trkpt>
<trkpt lat="24.726533" lon="105.645492">
<time>2015-09-27T15:48:22Z</time></trkpt>
<trkpt lat="24.726563" lon="105.645403">
<time>2015-09-27T15:48:23Z</time></trkpt>
<trkpt lat="24.726593" lon="105.645323">
<time>2015-09-27T15:48:24Z</time></trkpt>
<trkpt lat="24.726633" lon="105.645233">
<time>2015-09-27T15:48:25Z</time></trkpt>
<trkpt lat="24.726673" lon="105.645153">
<time>2015-09-27T15:48:26Z</time></trkpt>
<trkpt lat="24.726713" lon="105.645073">
<time>2015-09-27T15:48:27Z</time></trkpt>
<trkpt lat="24.726744" lon="105.645013">
<time>2015-09-27T15:48:28Z</time></trkpt>
<trkpt lat="24.726784" lon="105.644954">
<time>2015-09-27T15:48:29Z</time></trkpt>
<trkpt lat="24.726824" lon="105.644894">
<time>2015-09-27T15:48:30Z</time></trkpt>
<trkpt lat="24.726864" lon="105.644834">
<time>2015-09-27T15:48:31Z</time></trkpt>
<trkpt lat="24.726914" lon="105.644784">
<time>2015-09-27T15:48:32Z</time></trkpt>
<trkpt lat="24.726954" lon="105.644724">
<time>2015-09-27T15:48:33Z</time></trkpt>
<trkpt lat="24.727004" lon="105.644674">
<time>2015-09-27T15:48:34Z</time></trkpt>
<trkpt lat="24.727054" lon="105.644624">
<time>2015-09-27T15:48:35Z</time></trkpt>
<trkpt lat="24.727124" lon="105.644554">
<time>2015-09-27T15:48:36Z</time></trkpt>
<trkpt lat="24.727255" lon="105.644425">
<time>2015-09-27T15:48:37Z</time></trkpt>
<trkpt lat="24.727325" lon="105.644365">
<time>2015-09-27T15:48:38Z</time></trkpt>
<trkpt lat="24.727385" lon="105.644295">
<time>2015-09-27T15:48:39Z</time></trkpt>
<trkpt lat="24.727455" lon="105.644225">
<time>2015-09-27T15:48:40Z</time></trkpt>
<trkpt lat="24.727505" lon="105.644155">
<time>2015-09-27T15:48:41Z</time></trkpt>
<trkpt lat="24.727555" lon="105.644086">
<time>2015-09-27T15:48:42Z</time></trkpt>
<trkpt lat="24.727595" lon="105.644026">
<time>2015-09-27T15:48:43Z</time></trkpt>
<trkpt lat="24.727625" lon="105.643956">
<time>2015-09-27T15:48:44Z</time></trkpt>
<trkpt lat="24.727655" lon="105.643896">
<time>2015-09-27T15:48:45Z</time></trkpt>
<trkpt lat="24.727686" lon="105.643826">
<time>2015-09-27T15:48:46Z</time></trkpt>
<trkpt lat="24.727716" lon="105.643766">
<time>2015-09-27T15:48:47Z</time></trkpt>
<trkpt lat="24.727746" lon="105.643696">
<time>2015-09-27T15:48:48Z</time></trkpt>
<trkpt lat="24.727776" lon="105.643627">
<time>2015-09-27T15:48:49Z</time></trkpt>
<trkpt lat="24.727816" lon="105.643567">
<time>2015-09-27T15:48:50Z</time></trkpt>
<trkpt lat="24.727836" lon="105.643537">
<time>2015-09-27T15:48:51Z</time></trkpt>
<trkpt lat="24.727856" lon="105.643497">
<time>2015-09-27T15:48:52Z</time></trkpt>
<trkpt lat="24.727876" lon="105.643467">
<time>2015-09-27T15:48:53Z</time></trkpt>
<trkpt lat="24.727896" lon="105.643437">
<time>2015-09-27T15:48:54Z</time></trkpt>
<trkpt lat="24.727916" lon="105.643417">
<time>2015-09-27T15:48:55Z</time></trkpt>
<trkpt lat="24.727946" lon="105.643387">
<time>2015-09-27T15:48:56Z</time></trkpt>
<trkpt lat="24.727966" lon="105.643367">
<time>2015-09-27T15:48:57Z</time></trkpt>
<trkpt lat="24.727996" lon="105.643347">
<time>2015-09-27T15:48:58Z</time></trkpt>
<trkpt lat="24.728046" lon="105.643327">
<time>2015-09-27T15:48:59Z</time></trkpt>
<trkpt lat="24.728086" lon="105.643307">
<time>2015-09-27T15:49:00Z</time></trkpt>
<trkpt lat="24.728136" lon="105.643297">
<time>2015-09-27T15:49:01Z</time></trkpt>
<trkpt lat="24.728186" lon="105.643297">
<time>2015-09-27T15:49:02Z</time></trkpt>
<trkpt lat="24.728236" lon="105.643287">
<time>2015-09-27T15:49:03Z</time></trkpt>
<trkpt lat="24.728296" lon="105.643287">
<time>2015-09-27T15:49:04Z</time></trkpt>
<trkpt lat="24.728346" lon="105.643277">
<time>2015-09-27T15:49:05Z</time></trkpt>
<trkpt lat="24.728396" lon="105.643267">
<time>2015-09-27T15:49:06Z</time></trkpt>
<trkpt lat="24.728436" lon="105.643257">
<time>2015-09-27T15:49:07Z</time></trkpt>
<trkpt lat="24.728476" lon="105.643247">
<time>2015-09-27T15:49:08Z</time></trkpt>
<trkpt lat="24.728516" lon="105.643237">
<time>2015-09-27T15:49:09Z</time></trkpt>
<trkpt lat="24.728556" lon="105.643217">
<time>2015-09-27T15:49:10Z</time></trkpt>
<trkpt lat="24.728597" lon="105.643198">
<time>2015-09-27T15:49:11Z</time></trkpt>
<trkpt lat="24.728637" lon="105.643178">
<time>2015-09-27T15:49:12Z</time></trkpt>
<trkpt lat="24.728677" lon="105.643148">
<time>2015-09-27T15:49:13Z</time></trkpt>
<trkpt lat="24.728707" lon="105.643118">
<time>2015-09-27T15:49:14Z</time></trkpt>
<trkpt lat="24.728757" lon="105.643078">
<time>2015-09-27T15:49:15Z</time></trkpt>
<trkpt lat="24.728797" lon="105.643038">
<time>2015-09-27T15:49:16Z</time></trkpt>
<trkpt lat="24.728837" lon="105.642998">
<time>2015-09-27T15:49:17Z</time></trkpt>
<trkpt lat="24.728887" lon="105.642948">
<time>2015-09-27T15:49:18Z</time></trkpt>
<trkpt lat="24.728927" lon="105.642898">
<time>2015-09-27T15:49:19Z</time></trkpt>
<trkpt lat="24.728967" lon="105.642858">
<time>2015-09-27T15:49:20Z</time></trkpt>
<trkpt lat="24.729017" lon="105.642818">
<time>2015-09-27T15:49:21Z</time></trkpt>
<trkpt lat="24.729067" lon="105.642788">
<time>2015-09-27T15:49:22Z</time></trkpt>
<trkpt lat="24.729097" lon="105.642769">
<time>2015-09-27T15:49:23Z</time></trkpt>
<trkpt lat="24.729137" lon="105.642749">
<time>2015-09-27T15:49:24Z</time></trkpt>
<trkpt lat="24.729177" lon="105.642729">
<time>2015-09-27T15:49:25Z</time></trkpt>
<trkpt lat="24.729207" lon="105.642709">
<time>2015-09-27T15:49:26Z</time></trkpt>
<trkpt lat="24.729247" lon="105.642689">
<time>2015-09-27T15:49:27Z</time></trkpt>
<trkpt lat="24.729287" lon="105.642669">
<time>2015-09-27T15:49:28Z</time></trkpt>
<trkpt lat="24.729317" lon="105.642649">
<time>2015-09-27T15:49:29Z</time></trkpt>
<trkpt lat="24.729357" lon="105.642629">
<time>2015-09-27T15:49:30Z</time></trkpt>
<trkpt lat="24.729377" lon="105.642609">
<time>2015-09-27T15:49:31Z</time></trkpt>
<trkpt lat="24.729407" lon="105.642579">
<time>2015-09-27T15:49:32Z</time></trkpt>
<trkpt lat="24.729438" lon="105.642549">
<time>2015-09-27T15:49:33Z</time></trkpt>
<trkpt lat="24.729458" lon="105.642519">
<time>2015-09-27T15:49:34Z</time></trkpt>
<trkpt lat="24.729478" lon="105.642489">
<time>2015-09-27T15:49:35Z</time></trkpt>
<trkpt lat="24.729498" lon="105.642449">
<time>2015-09-27T15:49:36Z</time></trkpt>
<trkpt lat="24.729518" lon="105.642419">
<time>2015-09-27T15:49:37Z</time></trkpt>
<trkpt lat="24.729538" lon="105.642379">
<time>2015-09-27T15:49:38Z</time></trkpt>
<trkpt lat="24.729558" lon="105.642339">
<time>2015-09-27T15:49:39Z</time></trkpt>
<trkpt lat="24.729578" lon="105.64229">
<time>2015-09-27T15:49:40Z</time></trkpt>
<trkpt lat="24.729588" lon="105.64225">
<time>2015-09-27T15:49:41Z</time></trkpt>
<trkpt lat="24.729608" lon="105.64221">
<time>2015-09-27T15:49:42Z</time></trkpt>
<trkpt lat="24.729628" lon="105.64217">
<time>2015-09-27T15:49:43Z</time></trkpt>
<trkpt lat="24.729658" lon="105.64213">
<time>2015-09-27T15:49:44Z</time></trkpt>
<trkpt lat="24.729678" lon="105.6421">
<time>2015-09-27T15:49:45Z</time></trkpt>
<trkpt lat="24.729708" lon="105.64207">
<time>2015-09-27T15:49:46Z</time></trkpt>
<trkpt lat="24.729738" lon="105.64206">
<time>2015-09-27T15:49:47Z</time></trkpt>
<trkpt lat="24.729768" lon="105.64204">
<time>2015-09-27T15:49:48Z</time></trkpt>
<trkpt lat="24.729798" lon="105.64203">
<time>2015-09-27T15:49:49Z</time></trkpt>
<trkpt lat="24.729828" lon="105.64202">
<time>2015-09-27T15:49:50Z</time></trkpt>
<trkpt lat="24.729858" lon="105.64202">
<time>2015-09-27T15:49:51Z</time></trkpt>
<trkpt lat="24.729888" lon="105.64201">
<time>2015-09-27T15:49:52Z</time></trkpt>
<trkpt lat="24.729958" lon="105.64201">
<time>2015-09-27T15:49:53Z</time></trkpt>
<trkpt lat="24.729988" lon="105.642">
<time>2015-09-27T15:49:54Z</time></trkpt>
<trkpt lat="24.730028" lon="105.642">
<time>2015-09-27T15:49:55Z</time></trkpt>
<trkpt lat="24.730158" lon="105.64197">
<time>2015-09-27T15:49:56Z</time></trkpt>
<trkpt lat="24.730188" lon="105.64197">
<time>2015-09-27T15:49:57Z</time></trkpt>
<trkpt lat="24.730218" lon="105.64196">
<time>2015-09-27T15:49:58Z</time></trkpt>
<trkpt lat="24.730268" lon="105.64196">
<time>2015-09-27T15:49:59Z</time></trkpt>
<trkpt lat="24.730298" lon="105.64195">
<time>2015-09-27T15:50:00Z</time></trkpt>
<trkpt lat="24.730318" lon="105.64195">
<time>2015-09-27T15:50:01Z</time></trkpt>
<trkpt lat="24.730349" lon="105.64194">
<time>2015-09-27T15:50:02Z</time></trkpt>
<trkpt lat="24.730369" lon="105.64194">
<time>2015-09-27T15:50:03Z</time></trkpt>
<trkpt lat="24.730389" lon="105.64193">
<time>2015-09-27T15:50:04Z</time></trkpt>
<trkpt lat="24.730409" lon="105.64192">
<time>2015-09-27T15:50:05Z</time></trkpt>
<trkpt lat="24.730439" lon="105.64189">
<time>2015-09-27T15:50:06Z</time></trkpt>
<trkpt lat="24.730469" lon="105.641861">
<time>2015-09-27T15:50:07Z</time></trkpt>
<trkpt lat="24.730499" lon="105.641831">
<time>2015-09-27T15:50:08Z</time></trkpt>
<trkpt lat="24.730519" lon="105.641791">
<time>2015-09-27T15:50:09Z</time></trkpt>
<trkpt lat="24.730569" lon="105.641711">
<time>2015-09-27T15:50:10Z</time></trkpt>
<trkpt lat="24.730599" lon="105.641671">
<time>2015-09-27T15:50:11Z</time></trkpt>
<trkpt lat="24.730619" lon="105.641641">
<time>2015-09-27T15:50:12Z</time></trkpt>
<trkpt lat="24.730669" lon="105.641591">
<time>2015-09-27T15:50:13Z</time></trkpt>
<trkpt lat="24.730729" lon="105.641551">
<time>2015-09-27T15:50:14Z</time></trkpt>
<trkpt lat="24.730799" lon="105.641521">
<time>2015-09-27T15:50:15Z</time></trkpt>
<trkpt lat="24.730869" lon="105.641501">
<time>2015-09-27T15:50:16Z</time></trkpt>
<trkpt lat="24.730939" lon="105.641481">
<time>2015-09-27T15:50:17Z</time></trkpt>
<trkpt lat="24.731019" lon="105.641471">
<time>2015-09-27T15:50:18Z</time></trkpt>
<trkpt lat="24.731099" lon="105.641471">
<time>2015-09-27T15:50:19Z</time></trkpt>
<trkpt lat="24.731179" lon="105.641471">
<time>2015-09-27T15:50:20Z</time></trkpt>
<trkpt lat="24.731229" lon="105.641471">
<time>2015-09-27T15:50:21Z</time></trkpt>
<trkpt lat="24.731269" lon="105.641481">
<time>2015-09-27T15:50:22Z</time></trkpt>
<trkpt lat="24.731319" lon="105.641481">
<time>2015-09-27T15:50:23Z</time></trkpt>
<trkpt lat="24.731369" lon="105.641481">
<time>2015-09-27T15:50:24Z</time></trkpt>
<trkpt lat="24.731419" lon="105.641481">
<time>2015-09-27T15:50:25Z</time></trkpt>
<trkpt lat="24.731459" lon="105.641481">
<time>2015-09-27T15:50:26Z</time></trkpt>
<trkpt lat="24.731509" lon="105.641471">
<time>2015-09-27T15:50:27Z</time></trkpt>
<trkpt lat="24.731549" lon="105.641461">
<time>2015-09-27T15:50:28Z</time></trkpt>
<trkpt lat="24.731609" lon="105.641431">
<time>2015-09-27T15:50:29Z</time></trkpt>
<trkpt lat="24.731659" lon="105.641402">
<time>2015-09-27T15:50:30Z</time></trkpt>
<trkpt lat="24.731719" lon="105.641362">
<time>2015-09-27T15:50:31Z</time></trkpt>
<trkpt lat="24.731769" lon="105.641312">
<time>2015-09-27T15:50:32Z</time></trkpt>
<trkpt lat="24.73182" lon="105.641272">
<time>2015-09-27T15:50:33Z</time></trkpt>
<trkpt lat="24.73187" lon="105.641222">
<time>2015-09-27T15:50:34Z</time></trkpt>
<trkpt lat="24.73192" lon="105.641172">
<time>2015-09-27T15:50:35Z</time></trkpt>
<trkpt lat="24.73198" lon="105.641132">
<time>2015-09-27T15:50:36Z</time></trkpt>
<trkpt lat="24.73203" lon="105.641092">
<time>2015-09-27T15:50:37Z</time></trkpt>
<trkpt lat="24.73208" lon="105.641062">
<time>2015-09-27T15:50:38Z</time></trkpt>
<trkpt lat="24.73213" lon="105.641022">
<time>2015-09-27T15:50:39Z</time></trkpt>
<trkpt lat="24.73218" lon="105.640992">
<time>2015-09-27T15:50:40Z</time></trkpt>
<trkpt lat="24.73223" lon="105.640962">
<time>2015-09-27T15:50:41Z</time></trkpt>
<trkpt lat="24.73234" lon="105.640913">
<time>2015-09-27T15:50:42Z</time></trkpt>
<trkpt lat="24.7324" lon="105.640883">
<time>2015-09-27T15:50:43Z</time></trkpt>
<trkpt lat="24.73247" lon="105.640843">
<time>2015-09-27T15:50:44Z</time></trkpt>
<trkpt lat="24.73254" lon="105.640803">
<time>2015-09-27T15:50:45Z</time></trkpt>
<trkpt lat="24.73261" lon="105.640753">
<time>2015-09-27T15:50:46Z</time></trkpt>
<trkpt lat="24.73268" lon="105.640703">
<time>2015-09-27T15:50:47Z</time></trkpt>
<trkpt lat="24.73274" lon="105.640653">
<time>2015-09-27T15:50:48Z</time></trkpt>
<trkpt lat="24.732801" lon="105.640603">
<time>2015-09-27T15:50:49Z</time></trkpt>
<trkpt lat="24.732861" lon="105.640543">
<time>2015-09-27T15:50:50Z</time></trkpt>
<trkpt lat="24.732921" lon="105.640484">
<time>2015-09-27T15:50:51Z</time></trkpt>
<trkpt lat="24.732991" lon="105.640404">
<time>2015-09-27T15:50:52Z</time></trkpt>
<trkpt lat="24.733061" lon="105.640304">
<time>2015-09-27T15:50:53Z</time></trkpt>
<trkpt lat="24.733121" lon="105.640204">
<time>2015-09-27T15:50:54Z</time></trkpt>
<trkpt lat="24.733181" lon="105.640104">
<time>2015-09-27T15:50:55Z</time></trkpt>
<trkpt lat="24.733231" lon="105.640005">
<time>2015-09-27T15:50:56Z</time></trkpt>
<trkpt lat="24.733282" lon="105.639895">
<time>2015-09-27T15:50:57Z</time></trkpt>
<trkpt lat="24.733332" lon="105.639775">
<time>2015-09-27T15:50:58Z</time></trkpt>
<trkpt lat="24.733382" lon="105.639665">
<time>2015-09-27T15:50:59Z</time></trkpt>
<trkpt lat="24.733412" lon="105.639595">
<time>2015-09-27T15:51:00Z</time></trkpt>
<trkpt lat="24.733442" lon="105.639526">
<time>2015-09-27T15:51:01Z</time></trkpt>
<trkpt lat="24.733472" lon="105.639456">
<time>2015-09-27T15:51:02Z</time></trkpt>
<trkpt lat="24.733492" lon="105.639376">
<time>2015-09-27T15:51:03Z</time></trkpt>
<trkpt lat="24.733513" lon="105.639306">
<time>2015-09-27T15:51:04Z</time></trkpt>
<trkpt lat="24.733523" lon="105.639236">
<time>2015-09-27T15:51:05Z</time></trkpt>
<trkpt lat="24.733533" lon="105.639166">
<time>2015-09-27T15:51:06Z</time></trkpt>
<trkpt lat="24.733543" lon="105.639087">
<time>2015-09-27T15:51:07Z</time></trkpt>
<trkpt lat="24.733533" lon="105.639017">
<time>2015-09-27T15:51:08Z</time></trkpt>
<trkpt lat="24.733523" lon="105.638947">
<time>2015-09-27T15:51:09Z</time></trkpt>
<trkpt lat="24.733503" lon="105.638867">
<time>2015-09-27T15:51:10Z</time></trkpt>
<trkpt lat="24.733503" lon="105.638847">
<time>2015-09-27T15:51:11Z</time></trkpt>
<trkpt lat="24.733483" lon="105.638797">
<time>2015-09-27T15:51:12Z</time></trkpt>
<trkpt lat="24.733463" lon="105.638727">
<time>2015-09-27T15:51:13Z</time></trkpt>
<trkpt lat="24.733434" lon="105.638658">
<time>2015-09-27T15:51:14Z</time></trkpt>
<trkpt lat="24.733404" lon="105.638578">
<time>2015-09-27T15:51:15Z</time></trkpt>
<trkpt lat="24.733364" lon="105.638518">
<time>2015-09-27T15:51:16Z</time></trkpt>
<trkpt lat="24.733324" lon="105.638428">
<time>2015-09-27T15:51:17Z</time></trkpt>
<trkpt lat="24.733314" lon="105.638388">
<time>2015-09-27T15:51:18Z</time></trkpt>
<trkpt lat="24.733294" lon="105.638348">
<time>2015-09-27T15:51:19Z</time></trkpt>
<trkpt lat="24.733274" lon="105.638308">
<time>2015-09-27T15:51:20Z</time></trkpt>
<trkpt lat="24.733264" lon="105.638278">
<time>2015-09-27T15:51:21Z</time></trkpt>
<trkpt lat="24.733264" lon="105.638258">
<time>2015-09-27T15:51:22Z</time></trkpt>
<trkpt lat="24.733244" lon="105.638219">
<time>2015-09-27T15:51:23Z</time></trkpt>
<trkpt lat="24.733234" lon="105.638179">
<time>2015-09-27T15:51:24Z</time></trkpt>
<trkpt lat="24.733224" lon="105.638139">
<time>2015-09-27T15:51:25Z</time></trkpt>
<trkpt lat="24.733224" lon="105.638099">
<time>2015-09-27T15:51:26Z</time></trkpt>
<trkpt lat="24.733215" lon="105.638049">
<time>2015-09-27T15:51:27Z</time></trkpt>
<trkpt lat="24.733215" lon="105.638009">
<time>2015-09-27T15:51:28Z</time></trkpt>
<trkpt lat="24.733215" lon="105.637969">
<time>2015-09-27T15:51:29Z</time></trkpt>
<trkpt lat="24.733215" lon="105.637929">
<time>2015-09-27T15:51:30Z</time></trkpt>
<trkpt lat="24.733215" lon="105.637889">
<time>2015-09-27T15:51:31Z</time></trkpt>
<trkpt lat="24.733215" lon="105.637849">
<time>2015-09-27T15:51:32Z</time></trkpt>
<trkpt lat="24.733225" lon="105.637799">
<time>2015-09-27T15:51:33Z</time></trkpt>
<trkpt lat="24.733225" lon="105.63776">
<time>2015-09-27T15:51:34Z</time></trkpt>
<trkpt lat="24.733235" lon="105.63771">
<time>2015-09-27T15:51:35Z</time></trkpt>
<trkpt lat="24.733245" lon="105.63766">
<time>2015-09-27T15:51:36Z</time></trkpt>
<trkpt lat="24.733255" lon="105.63762">
<time>2015-09-27T15:51:37Z</time></trkpt>
<trkpt lat="24.733265" lon="105.63757">
<time>2015-09-27T15:51:38Z</time></trkpt>
<trkpt lat="24.733285" lon="105.63753">
<time>2015-09-27T15:51:39Z</time></trkpt>
<trkpt lat="24.733295" lon="105.63749">
<time>2015-09-27T15:51:40Z</time></trkpt>
<trkpt lat="24.733315" lon="105.63745">
<time>2015-09-27T15:51:41Z</time></trkpt>
<trkpt lat="24.733346" lon="105.63738">
<time>2015-09-27T15:51:42Z</time></trkpt>
<trkpt lat="24.733356" lon="105.63735">
<time>2015-09-27T15:51:43Z</time></trkpt>
<trkpt lat="24.733366" lon="105.63731">
<time>2015-09-27T15:51:44Z</time></trkpt>
<trkpt lat="24.733376" lon="105.637281">
<time>2015-09-27T15:51:45Z</time></trkpt>
<trkpt lat="24.733386" lon="105.637241">
<time>2015-09-27T15:51:46Z</time></trkpt>
<trkpt lat="24.733396" lon="105.637211">
<time>2015-09-27T15:51:47Z</time></trkpt>
<trkpt lat="24.733396" lon="105.637161">
<time>2015-09-27T15:51:48Z</time></trkpt>
<trkpt lat="24.733396" lon="105.637101">
<time>2015-09-27T15:51:49Z</time></trkpt>
<trkpt lat="24.733386" lon="105.637051">
<time>2015-09-27T15:51:50Z</time></trkpt>
<trkpt lat="24.733386" lon="105.637001">
<time>2015-09-27T15:51:51Z</time></trkpt>
<trkpt lat="24.733366" lon="105.636891">
<time>2015-09-27T15:51:52Z</time></trkpt>
<trkpt lat="24.733356" lon="105.636842">
<time>2015-09-27T15:51:53Z</time></trkpt>
<trkpt lat="24.733346" lon="105.636782">
<time>2015-09-27T15:51:54Z</time></trkpt>
<trkpt lat="24.733347" lon="105.636742">
<time>2015-09-27T15:51:55Z</time></trkpt>
<trkpt lat="24.733347" lon="105.636702">
<time>2015-09-27T15:51:56Z</time></trkpt>
<trkpt lat="24.733347" lon="105.636652">
<time>2015-09-27T15:51:57Z</time></trkpt>
<trkpt lat="24.733347" lon="105.636612">
<time>2015-09-27T15:51:58Z</time></trkpt>
<trkpt lat="24.733357" lon="105.636572">
<time>2015-09-27T15:51:59Z</time></trkpt>
<trkpt lat="24.733367" lon="105.636532">
<time>2015-09-27T15:52:00Z</time></trkpt>
<trkpt lat="24.733377" lon="105.636492">
<time>2015-09-27T15:52:01Z</time></trkpt>
<trkpt lat="24.733387" lon="105.636442">
<time>2015-09-27T15:52:02Z</time></trkpt>
<trkpt lat="24.733397" lon="105.636392">
<time>2015-09-27T15:52:03Z</time></trkpt>
<trkpt lat="24.733417" lon="105.636353">
<time>2015-09-27T15:52:04Z</time></trkpt>
<trkpt lat="24.733437" lon="105.636303">
<time>2015-09-27T15:52:05Z</time></trkpt>
<trkpt lat="24.733457" lon="105.636253">
<time>2015-09-27T15:52:06Z</time></trkpt>
<trkpt lat="24.733467" lon="105.636203">
<time>2015-09-27T15:52:07Z</time></trkpt>
<trkpt lat="24.733477" lon="105.636153">
<time>2015-09-27T15:52:08Z</time></trkpt>
<trkpt lat="24.733488" lon="105.636103">
<time>2015-09-27T15:52:09Z</time></trkpt>
<trkpt lat="24.733498" lon="105.636053">
<time>2015-09-27T15:52:10Z</time></trkpt>
<trkpt lat="24.733498" lon="105.635993">
<time>2015-09-27T15:52:11Z</time></trkpt>
<trkpt lat="24.733498" lon="105.635933">
<time>2015-09-27T15:52:12Z</time></trkpt>
<trkpt lat="24.733478" lon="105.635874">
<time>2015-09-27T15:52:13Z</time></trkpt>
<trkpt lat="24.733468" lon="105.635824">
<time>2015-09-27T15:52:14Z</time></trkpt>
<trkpt lat="24.733438" lon="105.635764">
<time>2015-09-27T15:52:15Z</time></trkpt>
<trkpt lat="24.733418" lon="105.635704">
<time>2015-09-27T15:52:16Z</time></trkpt>
<trkpt lat="24.733378" lon="105.635654">
<time>2015-09-27T15:52:17Z</time></trkpt>
<trkpt lat="24.733348" lon="105.635604">
<time>2015-09-27T15:52:18Z</time></trkpt>
<trkpt lat="24.733318" lon="105.635574">
<time>2015-09-27T15:52:19Z</time></trkpt>
<trkpt lat="24.733288" lon="105.635544">
<time>2015-09-27T15:52:20Z</time></trkpt>
<trkpt lat="24.733258" lon="105.635524">
<time>2015-09-27T15:52:21Z</time></trkpt>
<trkpt lat="24.733238" lon="105.635494">
<time>2015-09-27T15:52:22Z</time></trkpt>
<trkpt lat="24.733208" lon="105.635464">
<time>2015-09-27T15:52:23Z</time></trkpt>
<trkpt lat="24.733189" lon="105.635435">
<time>2015-09-27T15:52:24Z</time></trkpt>
<trkpt lat="24.733169" lon="105.635405">
<time>2015-09-27T15:52:25Z</time></trkpt>
<trkpt lat="24.733149" lon="105.635375">
<time>2015-09-27T15:52:26Z</time></trkpt>
<trkpt lat="24.733129" lon="105.635335">
<time>2015-09-27T15:52:27Z</time></trkpt>
<trkpt lat="24.733119" lon="105.635295">
<time>2015-09-27T15:52:28Z</time></trkpt>
<trkpt lat="24.733119" lon="105.635255">
<time>2015-09-27T15:52:29Z</time></trkpt>
<trkpt lat="24.733119" lon="105.635205">
<time>2015-09-27T15:52:30Z</time></trkpt>
<trkpt lat="24.733119" lon="105.635165">
<time>2015-09-27T15:52:31Z</time></trkpt>
<trkpt lat="24.733119" lon="105.635125">
<time>2015-09-27T15:52:32Z</time></trkpt>
<trkpt lat="24.733119" lon="105.635075">
<time>2015-09-27T15:52:33Z</time></trkpt>
<trkpt lat="24.733129" lon="105.635035">
<time>2015-09-27T15:52:34Z</time></trkpt>
<trkpt lat="24.733139" lon="105.634985">
<time>2015-09-27T15:52:35Z</time></trkpt>
<trkpt lat="24.733139" lon="105.634936">
<time>2015-09-27T15:52:36Z</time></trkpt>
<trkpt lat="24.733149" lon="105.634886">
<time>2015-09-27T15:52:37Z</time></trkpt>
<trkpt lat="24.733169" lon="105.634836">
<time>2015-09-27T15:52:38Z</time></trkpt>
<trkpt lat="24.733179" lon="105.634786">
<time>2015-09-27T15:52:39Z</time></trkpt>
<trkpt lat="24.73319" lon="105.634746">
<time>2015-09-27T15:52:40Z</time></trkpt>
<trkpt lat="24.73321" lon="105.634696">
<time>2015-09-27T15:52:41Z</time></trkpt>
<trkpt lat="24.73322" lon="105.634656">
<time>2015-09-27T15:52:42Z</time></trkpt>
<trkpt lat="24.73324" lon="105.634616">
<time>2015-09-27T15:52:43Z</time></trkpt>
<trkpt lat="24.73325" lon="105.634576">
<time>2015-09-27T15:52:44Z</time></trkpt>
<trkpt lat="24.73327" lon="105.634536">
<time>2015-09-27T15:52:45Z</time></trkpt>
<trkpt lat="24.73329" lon="105.634497">
<time>2015-09-27T15:52:46Z</time></trkpt>
<trkpt lat="24.7333" lon="105.634457">
<time>2015-09-27T15:52:47Z</time></trkpt>
<trkpt lat="24.73332" lon="105.634417">
<time>2015-09-27T15:52:48Z</time></trkpt>
<trkpt lat="24.73333" lon="105.634377">
<time>2015-09-27T15:52:49Z</time></trkpt>
<trkpt lat="24.73334" lon="105.634337">
<time>2015-09-27T15:52:50Z</time></trkpt>
<trkpt lat="24.73335" lon="105.634297">
<time>2015-09-27T15:52:51Z</time></trkpt>
<trkpt lat="24.73335" lon="105.634257">
<time>2015-09-27T15:52:52Z</time></trkpt>
<trkpt lat="24.73335" lon="105.634217">
<time>2015-09-27T15:52:53Z</time></trkpt>
<trkpt lat="24.73335" lon="105.634177">
<time>2015-09-27T15:52:54Z</time></trkpt>
<trkpt lat="24.73335" lon="105.634137">
<time>2015-09-27T15:52:55Z</time></trkpt>
<trkpt lat="24.73335" lon="105.634097">
<time>2015-09-27T15:52:56Z</time></trkpt>
<trkpt lat="24.733351" lon="105.634047">
<time>2015-09-27T15:52:57Z</time></trkpt>
<trkpt lat="24.733341" lon="105.634008">
<time>2015-09-27T15:52:58Z</time></trkpt>
<trkpt lat="24.733341" lon="105.633978">
<time>2015-09-27T15:52:59Z</time></trkpt>
<trkpt lat="24.733331" lon="105.633938">
<time>2015-09-27T15:53:00Z</time></trkpt>
<trkpt lat="24.733331" lon="105.633908">
<time>2015-09-27T15:53:01Z</time></trkpt>
<trkpt lat="24.733321" lon="105.633878">
<time>2015-09-27T15:53:02Z</time></trkpt>
<trkpt lat="24.733311" lon="105.633848">
<time>2015-09-27T15:53:03Z</time></trkpt>
<trkpt lat="24.733301" lon="105.633818">
<time>2015-09-27T15:53:04Z</time></trkpt>
<trkpt lat="24.733291" lon="105.633798">
<time>2015-09-27T15:53:05Z</time></trkpt>
<trkpt lat="24.733271" lon="105.633768">
<time>2015-09-27T15:53:06Z</time></trkpt>
<trkpt lat="24.733251" lon="105.633748">
<time>2015-09-27T15:53:07Z</time></trkpt>
<trkpt lat="24.733241" lon="105.633738">
<time>2015-09-27T15:53:08Z</time></trkpt>
<trkpt lat="24.733221" lon="105.633718">
<time>2015-09-27T15:53:09Z</time></trkpt>
<trkpt lat="24.733191" lon="105.633708">
<time>2015-09-27T15:53:10Z</time></trkpt>
<trkpt lat="24.733171" lon="105.633698">
<time>2015-09-27T15:53:11Z</time></trkpt>
<trkpt lat="24.733151" lon="105.633688">
<time>2015-09-27T15:53:12Z</time></trkpt>
<trkpt lat="24.733121" lon="105.633688">
<time>2015-09-27T15:53:13Z</time></trkpt>
<trkpt lat="24.733101" lon="105.633678">
<time>2015-09-27T15:53:14Z</time></trkpt>
<trkpt lat="24.733071" lon="105.633678">
<time>2015-09-27T15:53:15Z</time></trkpt>
<trkpt lat="24.733031" lon="105.633668">
<time>2015-09-27T15:53:16Z</time></trkpt>
<trkpt lat="24.733001" lon="105.633668">
<time>2015-09-27T15:53:17Z</time></trkpt>
<trkpt lat="24.732971" lon="105.633678">
<time>2015-09-27T15:53:18Z</time></trkpt>
<trkpt lat="24.732941" lon="105.633678">
<time>2015-09-27T15:53:19Z</time></trkpt>
<trkpt lat="24.732911" lon="105.633688">
<time>2015-09-27T15:53:20Z</time></trkpt>
<trkpt lat="24.732881" lon="105.633708">
<time>2015-09-27T15:53:21Z</time></trkpt>
<trkpt lat="24.732851" lon="105.633718">
<time>2015-09-27T15:53:22Z</time></trkpt>
<trkpt lat="24.732821" lon="105.633748">
<time>2015-09-27T15:53:23Z</time></trkpt>
<trkpt lat="24.732791" lon="105.633778">
<time>2015-09-27T15:53:24Z</time></trkpt>
<trkpt lat="24.732761" lon="105.633808">
<time>2015-09-27T15:53:25Z</time></trkpt>
<trkpt lat="24.732731" lon="105.633848">
<time>2015-09-27T15:53:26Z</time></trkpt>
<trkpt lat="24.732711" lon="105.633878">
<time>2015-09-27T15:53:27Z</time></trkpt>
<trkpt lat="24.732681" lon="105.633918">
<time>2015-09-27T15:53:28Z</time></trkpt>
<trkpt lat="24.732661" lon="105.633968">
<time>2015-09-27T15:53:29Z</time></trkpt>
<trkpt lat="24.732631" lon="105.634008">
<time>2015-09-27T15:53:30Z</time></trkpt>
<trkpt lat="24.732611" lon="105.634047">
<time>2015-09-27T15:53:31Z</time></trkpt>
<trkpt lat="24.732581" lon="105.634087">
<time>2015-09-27T15:53:32Z</time></trkpt>
<trkpt lat="24.73255" lon="105.634117">
<time>2015-09-27T15:53:33Z</time></trkpt>
<trkpt lat="24.73253" lon="105.634157">
<time>2015-09-27T15:53:34Z</time></trkpt>
<trkpt lat="24.73249" lon="105.634187">
<time>2015-09-27T15:53:35Z</time></trkpt>
<trkpt lat="24.73246" lon="105.634217">
<time>2015-09-27T15:53:36Z</time></trkpt>
<trkpt lat="24.73242" lon="105.634237">
<time>2015-09-27T15:53:37Z</time></trkpt>
<trkpt lat="24.73239" lon="105.634257">
<time>2015-09-27T15:53:38Z</time></trkpt>
<trkpt lat="24.73236" lon="105.634277">
<time>2015-09-27T15:53:39Z</time></trkpt>
<trkpt lat="24.73232" lon="105.634287">
<time>2015-09-27T15:53:40Z</time></trkpt>
<trkpt lat="24.73229" lon="105.634287">
<time>2015-09-27T15:53:41Z</time></trkpt>
<trkpt lat="24.73226" lon="105.634287">
<time>2015-09-27T15:53:42Z</time></trkpt>
<trkpt lat="24.73222" lon="105.634287">
<time>2015-09-27T15:53:43Z</time></trkpt>
<trkpt lat="24.73219" lon="105.634287">
<time>2015-09-27T15:53:44Z</time></trkpt>
<trkpt lat="24.73216" lon="105.634277">
<time>2015-09-27T15:53:45Z</time></trkpt>
<trkpt lat="24.73213" lon="105.634257">
<time>2015-09-27T15:53:46Z</time></trkpt>
<trkpt lat="24.73211" lon="105.634247">
<time>2015-09-27T15:53:47Z</time></trkpt>
<trkpt lat="24.73209" lon="105.634237">
<time>2015-09-27T15:53:48Z</time></trkpt>
<trkpt lat="24.73207" lon="105.634227">
<time>2015-09-27T15:53:49Z</time></trkpt>
<trkpt lat="24.73205" lon="105.634207">
<time>2015-09-27T15:53:50Z</time></trkpt>
<trkpt lat="24.73204" lon="105.634187">
<time>2015-09-27T15:53:51Z</time></trkpt>
<trkpt lat="24.73202" lon="105.634167">
<time>2015-09-27T15:53:52Z</time></trkpt>
<trkpt lat="24.73201" lon="105.634147">
<time>2015-09-27T15:53:53Z</time></trkpt>
<trkpt lat="24.732001" lon="105.634127">
<time>2015-09-27T15:53:54Z</time></trkpt>
<trkpt lat="24.731981" lon="105.634097">
<time>2015-09-27T15:53:55Z</time></trkpt>
<trkpt lat="24.731971" lon="105.634048">
<time>2015-09-27T15:53:56Z</time></trkpt>
<trkpt lat="24.731971" lon="105.634008">
<time>2015-09-27T15:53:57Z</time></trkpt>
<trkpt lat="24.731971" lon="105.633968">
<time>2015-09-27T15:53:58Z</time></trkpt>
<trkpt lat="24.731971" lon="105.633918">
<time>2015-09-27T15:53:59Z</time></trkpt>
<trkpt lat="24.731981" lon="105.633878">
<time>2015-09-27T15:54:00Z</time></trkpt>
<trkpt lat="24.731991" lon="105.633828">
<time>2015-09-27T15:54:01Z</time></trkpt>
<trkpt lat="24.732001" lon="105.633778">
<time>2015-09-27T15:54:02Z</time></trkpt>
<trkpt lat="24.732021" lon="105.633718">
<time>2015-09-27T15:54:03Z</time></trkpt>
<trkpt lat="24.732031" lon="105.633658">
<time>2015-09-27T15:54:04Z</time></trkpt>
<trkpt lat="24.732051" lon="105.633608">
<time>2015-09-27T15:54:05Z</time></trkpt>
<trkpt lat="24.732071" lon="105.633549">
<time>2015-09-27T15:54:06Z</time></trkpt>
<trkpt lat="24.732101" lon="105.633499">
<time>2015-09-27T15:54:07Z</time></trkpt>
<trkpt lat="24.732121" lon="105.633449">
<time>2015-09-27T15:54:08Z</time></trkpt>
<trkpt lat="24.732152" lon="105.633399">
<time>2015-09-27T15:54:09Z</time></trkpt>
<trkpt lat="24.732182" lon="105.633349">
<time>2015-09-27T15:54:10Z</time></trkpt>
<trkpt lat="24.732232" lon="105.633289">
<time>2015-09-27T15:54:11Z</time></trkpt>
<trkpt lat="24.732282" lon="105.633229">
<time>2015-09-27T15:54:12Z</time></trkpt>
<trkpt lat="24.732332" lon="105.633179">
<time>2015-09-27T15:54:13Z</time></trkpt>
<trkpt lat="24.732392" lon="105.633129">
<time>2015-09-27T15:54:14Z</time></trkpt>
<trkpt lat="24.732452" lon="105.633079">
<time>2015-09-27T15:54:15Z</time></trkpt>
<trkpt lat="24.732512" lon="105.63303">
<time>2015-09-27T15:54:16Z</time></trkpt>
<trkpt lat="24.732582" lon="105.63299">
<time>2015-09-27T15:54:17Z</time></trkpt>
<trkpt lat="24.732642" lon="105.63294">
<time>2015-09-27T15:54:18Z</time></trkpt>
<trkpt lat="24.732692" lon="105.63291">
<time>2015-09-27T15:54:19Z</time></trkpt>
<trkpt lat="24.732742" lon="105.63287">
<time>2015-09-27T15:54:20Z</time></trkpt>
<trkpt lat="24.732792" lon="105.63283">
<time>2015-09-27T15:54:21Z</time></trkpt>
<trkpt lat="24.732832" lon="105.63279">
<time>2015-09-27T15:54:22Z</time></trkpt>
<trkpt lat="24.732872" lon="105.63275">
<time>2015-09-27T15:54:23Z</time></trkpt>
<trkpt lat="24.732912" lon="105.63271">
<time>2015-09-27T15:54:24Z</time></trkpt>
<trkpt lat="24.732943" lon="105.63266">
<time>2015-09-27T15:54:25Z</time></trkpt>
<trkpt lat="24.732963" lon="105.63261">
<time>2015-09-27T15:54:26Z</time></trkpt>
<trkpt lat="24.732983" lon="105.632561">
<time>2015-09-27T15:54:27Z</time></trkpt>
<trkpt lat="24.732993" lon="105.632511">
<time>2015-09-27T15:54:28Z</time></trkpt>
<trkpt lat="24.733003" lon="105.632451">
<time>2015-09-27T15:54:29Z</time></trkpt>
<trkpt lat="24.733003" lon="105.632401">
<time>2015-09-27T15:54:30Z</time></trkpt>
<trkpt lat="24.733003" lon="105.632341">
<time>2015-09-27T15:54:31Z</time></trkpt>
<trkpt lat="24.733003" lon="105.632281">
<time>2015-09-27T15:54:32Z</time></trkpt>
<trkpt lat="24.732993" lon="105.632161">
<time>2015-09-27T15:54:33Z</time></trkpt>
<trkpt lat="24.732993" lon="105.632091">
<time>2015-09-27T15:54:34Z</time></trkpt>
<trkpt lat="24.732993" lon="105.632022">
<time>2015-09-27T15:54:35Z</time></trkpt>
<trkpt lat="24.732994" lon="105.631962">
<time>2015-09-27T15:54:36Z</time></trkpt>
<trkpt lat="24.732994" lon="105.631892">
<time>2015-09-27T15:54:37Z</time></trkpt>
<trkpt lat="24.732994" lon="105.631832">
<time>2015-09-27T15:54:38Z</time></trkpt>
<trkpt lat="24.732994" lon="105.631772">
<time>2015-09-27T15:54:39Z</time></trkpt>
<trkpt lat="24.733004" lon="105.631702">
<time>2015-09-27T15:54:40Z</time></trkpt>
<trkpt lat="24.733004" lon="105.631642">
<time>2015-09-27T15:54:41Z</time></trkpt>
<trkpt lat="24.733024" lon="105.631563">
<time>2015-09-27T15:54:42Z</time></trkpt>
<trkpt lat="24.733034" lon="105.631483">
<time>2015-09-27T15:54:43Z</time></trkpt>
<trkpt lat="24.733054" lon="105.631393">
<time>2015-09-27T15:54:44Z</time></trkpt>
<trkpt lat="24.733074" lon="105.631313">
<time>2015-09-27T15:54:45Z</time></trkpt>
<trkpt lat="24.733095" lon="105.631233">
<time>2015-09-27T15:54:46Z</time></trkpt>
<trkpt lat="24.733125" lon="105.631153">
<time>2015-09-27T15:54:47Z</time></trkpt>
<trkpt lat="24.733155" lon="105.631084">
<time>2015-09-27T15:54:48Z</time></trkpt>
<trkpt lat="24.733185" lon="105.631004">
<time>2015-09-27T15:54:49Z</time></trkpt>
<trkpt lat="24.733225" lon="105.630914">
<time>2015-09-27T15:54:50Z</time></trkpt>
<trkpt lat="24.733275" lon="105.630824">
<time>2015-09-27T15:54:51Z</time></trkpt>
<trkpt lat="24.733325" lon="105.630734">
<time>2015-09-27T15:54:52Z</time></trkpt>
<trkpt lat="24.733375" lon="105.630654">
<time>2015-09-27T15:54:53Z</time></trkpt>
<trkpt lat="24.733435" lon="105.630575">
<time>2015-09-27T15:54:54Z</time></trkpt>
<trkpt lat="24.733496" lon="105.630485">
<time>2015-09-27T15:54:55Z</time></trkpt>
<trkpt lat="24.733546" lon="105.630405">
<time>2015-09-27T15:54:56Z</time></trkpt>
<trkpt lat="24.733606" lon="105.630325">
<time>2015-09-27T15:54:57Z</time></trkpt>
<trkpt lat="24.733666" lon="105.630235">
<time>2015-09-27T15:54:58Z</time></trkpt>
<trkpt lat="24.733726" lon="105.630145">
<time>2015-09-27T15:54:59Z</time></trkpt>
<trkpt lat="24.733786" lon="105.630056">
<time>2015-09-27T15:55:00Z</time></trkpt>
<trkpt lat="24.733836" lon="105.629966">
<time>2015-09-27T15:55:01Z</time></trkpt>
<trkpt lat="24.733896" lon="105.629876">
<time>2015-09-27T15:55:02Z</time></trkpt>
<trkpt lat="24.734007" lon="105.629696">
<time>2015-09-27T15:55:03Z</time></trkpt>
<trkpt lat="24.734067" lon="105.629606">
<time>2015-09-27T15:55:04Z</time></trkpt>
<trkpt lat="24.734127" lon="105.629507">
<time>2015-09-27T15:55:05Z</time></trkpt>
<trkpt lat="24.734197" lon="105.629417">
<time>2015-09-27T15:55:06Z</time></trkpt>
<trkpt lat="24.734257" lon="105.629317">
<time>2015-09-27T15:55:07Z</time></trkpt>
<trkpt lat="24.734317" lon="105.629217">
<time>2015-09-27T15:55:08Z</time></trkpt>
<trkpt lat="24.734387" lon="105.629127">
<time>2015-09-27T15:55:09Z</time></trkpt>
<trkpt lat="24.734447" lon="105.629037">
<time>2015-09-27T15:55:10Z</time></trkpt>
<trkpt lat="24.734518" lon="105.628938">
<time>2015-09-27T15:55:11Z</time></trkpt>
<trkpt lat="24.734578" lon="105.628848">
<time>2015-09-27T15:55:12Z</time></trkpt>
<trkpt lat="24.734638" lon="105.628768">
<time>2015-09-27T15:55:13Z</time></trkpt>
<trkpt lat="24.734698" lon="105.628688">
<time>2015-09-27T15:55:14Z</time></trkpt>
<trkpt lat="24.734758" lon="105.628608">
<time>2015-09-27T15:55:15Z</time></trkpt>
<trkpt lat="24.734818" lon="105.628538">
<time>2015-09-27T15:55:16Z</time></trkpt>
<trkpt lat="24.734878" lon="105.628459">
<time>2015-09-27T15:55:17Z</time></trkpt>
<trkpt lat="24.734938" lon="105.628389">
<time>2015-09-27T15:55:18Z</time></trkpt>
<trkpt lat="24.735008" lon="105.628309">
<time>2015-09-27T15:55:19Z</time></trkpt>
<trkpt lat="24.735068" lon="105.628229">
<time>2015-09-27T15:55:20Z</time></trkpt>
<trkpt lat="24.735129" lon="105.628149">
<time>2015-09-27T15:55:21Z</time></trkpt>
<trkpt lat="24.735199" lon="105.628069">
<time>2015-09-27T15:55:22Z</time></trkpt>
<trkpt lat="24.735269" lon="105.627989">
<time>2015-09-27T15:55:23Z</time></trkpt>
<trkpt lat="24.735339" lon="105.62791">
<time>2015-09-27T15:55:24Z</time></trkpt>
<trkpt lat="24.735409" lon="105.62783">
<time>2015-09-27T15:55:25Z</time></trkpt>
<trkpt lat="24.735479" lon="105.62775">
<time>2015-09-27T15:55:26Z</time></trkpt>
<trkpt lat="24.735559" lon="105.62768">
<time>2015-09-27T15:55:27Z</time></trkpt>
<trkpt lat="24.735629" lon="105.62761">
<time>2015-09-27T15:55:28Z</time></trkpt>
<trkpt lat="24.735699" lon="105.62755">
<time>2015-09-27T15:55:29Z</time></trkpt>
<trkpt lat="24.735769" lon="105.62749">
<time>2015-09-27T15:55:30Z</time></trkpt>
<trkpt lat="24.735839" lon="105.62743">
<time>2015-09-27T15:55:31Z</time></trkpt>
<trkpt lat="24.73598" lon="105.627311">
<time>2015-09-27T15:55:32Z</time></trkpt>
<trkpt lat="24.73605" lon="105.627251">
<time>2015-09-27T15:55:33Z</time></trkpt>
<trkpt lat="24.73612" lon="105.627191">
<time>2015-09-27T15:55:34Z</time></trkpt>
<trkpt lat="24.73619" lon="105.627131">
<time>2015-09-27T15:55:35Z</time></trkpt>
<trkpt lat="24.73627" lon="105.627051">
<time>2015-09-27T15:55:36Z</time></trkpt>
<trkpt lat="24.73635" lon="105.626971">
<time>2015-09-27T15:55:37Z</time></trkpt>
<trkpt lat="24.73644" lon="105.626881">
<time>2015-09-27T15:55:38Z</time></trkpt>
<trkpt lat="24.73652" lon="105.626792">
<time>2015-09-27T15:55:39Z</time></trkpt>
<trkpt lat="24.73659" lon="105.626702">
<time>2015-09-27T15:55:40Z</time></trkpt>
<trkpt lat="24.73667" lon="105.626612">
<time>2015-09-27T15:55:41Z</time></trkpt>
<trkpt lat="24.73675" lon="105.626522">
<time>2015-09-27T15:55:42Z</time></trkpt>
<trkpt lat="24.736911" lon="105.626332">
<time>2015-09-27T15:55:43Z</time></trkpt>
<trkpt lat="24.736991" lon="105.626233">
<time>2015-09-27T15:55:44Z</time></trkpt>
<trkpt lat="24.737071" lon="105.626133">
<time>2015-09-27T15:55:45Z</time></trkpt>
<trkpt lat="24.737161" lon="105.626033">
<time>2015-09-27T15:55:46Z</time></trkpt>
<trkpt lat="24.737241" lon="105.625933">
<time>2015-09-27T15:55:47Z</time></trkpt>
<trkpt lat="24.737311" lon="105.625833">
<time>2015-09-27T15:55:48Z</time></trkpt>
<trkpt lat="24.737391" lon="105.625724">
<time>2015-09-27T15:55:49Z</time></trkpt>
<trkpt lat="24.737462" lon="105.625614">
<time>2015-09-27T15:55:50Z</time></trkpt>
<trkpt lat="24.737542" lon="105.625494">
<time>2015-09-27T15:55:51Z</time></trkpt>
<trkpt lat="24.737622" lon="105.625374">
<time>2015-09-27T15:55:52Z</time></trkpt>
<trkpt lat="24.737702" lon="105.625244">
<time>2015-09-27T15:55:53Z</time></trkpt>
<trkpt lat="24.737772" lon="105.625115">
<time>2015-09-27T15:55:54Z</time></trkpt>
<trkpt lat="24.737822" lon="105.625005">
<time>2015-09-27T15:55:55Z</time></trkpt>
<trkpt lat="24.737842" lon="105.624985">
<time>2015-09-27T15:55:56Z</time></trkpt>
<trkpt lat="24.737912" lon="105.624855">
<time>2015-09-27T15:55:57Z</time></trkpt>
<trkpt lat="24.737983" lon="105.624715">
<time>2015-09-27T15:55:58Z</time></trkpt>
<trkpt lat="24.738053" lon="105.624586">
<time>2015-09-27T15:55:59Z</time></trkpt>
<trkpt lat="24.738103" lon="105.624496">
<time>2015-09-27T15:56:00Z</time></trkpt>
<trkpt lat="24.738153" lon="105.624396">
<time>2015-09-27T15:56:01Z</time></trkpt>
<trkpt lat="24.738203" lon="105.624306">
<time>2015-09-27T15:56:02Z</time></trkpt>
<trkpt lat="24.738253" lon="105.624216">
<time>2015-09-27T15:56:03Z</time></trkpt>
<trkpt lat="24.738313" lon="105.624126">
<time>2015-09-27T15:56:04Z</time></trkpt>
<trkpt lat="24.738373" lon="105.624037">
<time>2015-09-27T15:56:05Z</time></trkpt>
<trkpt lat="24.738423" lon="105.623947">
<time>2015-09-27T15:56:06Z</time></trkpt>
<trkpt lat="24.738494" lon="105.623867">
<time>2015-09-27T15:56:07Z</time></trkpt>
<trkpt lat="24.738534" lon="105.623807">
<time>2015-09-27T15:56:08Z</time></trkpt>
<trkpt lat="24.738574" lon="105.623757">
<time>2015-09-27T15:56:09Z</time></trkpt>
<trkpt lat="24.738654" lon="105.623657">
<time>2015-09-27T15:56:10Z</time></trkpt>
<trkpt lat="24.738694" lon="105.623597">
<time>2015-09-27T15:56:11Z</time></trkpt>
<trkpt lat="24.738734" lon="105.623547">
<time>2015-09-27T15:56:12Z</time></trkpt>
<trkpt lat="24.738774" lon="105.623498">
<time>2015-09-27T15:56:13Z</time></trkpt>
<trkpt lat="24.738814" lon="105.623438">
<time>2015-09-27T15:56:14Z</time></trkpt>
<trkpt lat="24.738864" lon="105.623358">
<time>2015-09-27T15:56:15Z</time></trkpt>
<trkpt lat="24.738904" lon="105.623268">
<time>2015-09-27T15:56:16Z</time></trkpt>
<trkpt lat="24.738954" lon="105.623178">
<time>2015-09-27T15:56:17Z</time></trkpt>
<trkpt lat="24.738994" lon="105.623088">
<time>2015-09-27T15:56:18Z</time></trkpt>
<trkpt lat="24.739025" lon="105.622988">
<time>2015-09-27T15:56:19Z</time></trkpt>
<trkpt lat="24.739065" lon="105.622899">
<time>2015-09-27T15:56:20Z</time></trkpt>
<trkpt lat="24.739095" lon="105.622799">
<time>2015-09-27T15:56:21Z</time></trkpt>
<trkpt lat="24.739125" lon="105.622699">
<time>2015-09-27T15:56:22Z</time></trkpt>
<trkpt lat="24.739145" lon="105.622609">
<time>2015-09-27T15:56:23Z</time></trkpt>
<trkpt lat="24.739195" lon="105.622429">
<time>2015-09-27T15:56:24Z</time></trkpt>
<trkpt lat="24.739225" lon="105.62234">
<time>2015-09-27T15:56:25Z</time></trkpt>
<trkpt lat="24.739255" lon="105.62225">
<time>2015-09-27T15:56:26Z</time></trkpt>
<trkpt lat="24.739285" lon="105.62216">
<time>2015-09-27T15:56:27Z</time></trkpt>
<trkpt lat="24.739316" lon="105.62207">
<time>2015-09-27T15:56:28Z</time></trkpt>
<trkpt lat="24.739356" lon="105.62199">
<time>2015-09-27T15:56:29Z</time></trkpt>
<trkpt lat="24.739396" lon="105.6219">
<time>2015-09-27T15:56:30Z</time></trkpt>
<trkpt lat="24.739446" lon="105.62181">
<time>2015-09-27T15:56:31Z</time></trkpt>
<trkpt lat="24.739506" lon="105.621721">
<time>2015-09-27T15:56:32Z</time></trkpt>
<trkpt lat="24.739566" lon="105.621641">
<time>2015-09-27T15:56:33Z</time></trkpt>
<trkpt lat="24.739626" lon="105.621551">
<time>2015-09-27T15:56:34Z</time></trkpt>
<trkpt lat="24.739686" lon="105.621471">
<time>2015-09-27T15:56:35Z</time></trkpt>
<trkpt lat="24.739756" lon="105.621391">
<time>2015-09-27T15:56:36Z</time></trkpt>
<trkpt lat="24.739786" lon="105.621361">
<time>2015-09-27T15:56:37Z</time></trkpt>
<trkpt lat="24.739826" lon="105.621311">
<time>2015-09-27T15:56:38Z</time></trkpt>
<trkpt lat="24.739936" lon="105.621191">
<time>2015-09-27T15:56:39Z</time></trkpt>
<trkpt lat="24.739997" lon="105.621122">
<time>2015-09-27T15:56:40Z</time></trkpt>
<trkpt lat="24.740047" lon="105.621062">
<time>2015-09-27T15:56:41Z</time></trkpt>
<trkpt lat="24.740107" lon="105.620992">
<time>2015-09-27T15:56:42Z</time></trkpt>
<trkpt lat="24.740157" lon="105.620922">
<time>2015-09-27T15:56:43Z</time></trkpt>
<trkpt lat="24.740207" lon="105.620862">
<time>2015-09-27T15:56:44Z</time></trkpt>
<trkpt lat="24.740257" lon="105.620792">
<time>2015-09-27T15:56:45Z</time></trkpt>
<trkpt lat="24.740297" lon="105.620722">
<time>2015-09-27T15:56:46Z</time></trkpt>
<trkpt lat="24.740347" lon="105.620642">
<time>2015-09-27T15:56:47Z</time></trkpt>
<trkpt lat="24.740387" lon="105.620572">
<time>2015-09-27T15:56:48Z</time></trkpt>
<trkpt lat="24.740427" lon="105.620493">
<time>2015-09-27T15:56:49Z</time></trkpt>
<trkpt lat="24.740457" lon="105.620413">
<time>2015-09-27T15:56:50Z</time></trkpt>
<trkpt lat="24.740487" lon="105.620333">
<time>2015-09-27T15:56:51Z</time></trkpt>
<trkpt lat="24.740517" lon="105.620253">
<time>2015-09-27T15:56:52Z</time></trkpt>
<trkpt lat="24.740547" lon="105.620173">
<time>2015-09-27T15:56:53Z</time></trkpt>
<trkpt lat="24.740568" lon="105.620103">
<time>2015-09-27T15:56:54Z</time></trkpt>
<trkpt lat="24.740588" lon="105.620033">
<time>2015-09-27T15:56:55Z</time></trkpt>
<trkpt lat="24.740618" lon="105.619894">
<time>2015-09-27T15:56:56Z</time></trkpt>
<trkpt lat="24.740638" lon="105.619834">
<time>2015-09-27T15:56:57Z</time></trkpt>
<trkpt lat="24.740658" lon="105.619764">
<time>2015-09-27T15:56:58Z</time></trkpt>
<trkpt lat="24.740678" lon="105.619694">
<time>2015-09-27T15:56:59Z</time></trkpt>
<trkpt lat="24.740708" lon="105.619634">
<time>2015-09-27T15:57:00Z</time></trkpt>
<trkpt lat="24.740738" lon="105.619554">
<time>2015-09-27T15:57:01Z</time></trkpt>
<trkpt lat="24.740768" lon="105.619474">
<time>2015-09-27T15:57:02Z</time></trkpt>
<trkpt lat="24.740858" lon="105.619354">
<time>2015-09-27T15:57:03Z</time></trkpt>
<trkpt lat="24.740948" lon="105.619275">
<time>2015-09-27T15:57:04Z</time></trkpt>
<trkpt lat="24.741108" lon="105.619125">
<time>2015-09-27T15:57:05Z</time></trkpt>
<trkpt lat="24.741108" lon="105.619125">
<time>2015-09-27T15:57:06Z</time></trkpt>
<trkpt lat="24.741059" lon="105.619015">
<time>2015-09-27T15:57:07Z</time></trkpt>
<trkpt lat="24.741039" lon="105.618925">
<time>2015-09-27T15:57:08Z</time></trkpt>
<trkpt lat="24.741019" lon="105.618795">
<time>2015-09-27T15:57:09Z</time></trkpt>
<trkpt lat="24.741009" lon="105.618705">
<time>2015-09-27T15:57:10Z</time></trkpt>
<trkpt lat="24.741009" lon="105.618655">
<time>2015-09-27T15:57:11Z</time></trkpt>
<trkpt lat="24.741019" lon="105.618596">
<time>2015-09-27T15:57:12Z</time></trkpt>
<trkpt lat="24.741029" lon="105.618546">
<time>2015-09-27T15:57:13Z</time></trkpt>
<trkpt lat="24.741049" lon="105.618486">
<time>2015-09-27T15:57:14Z</time></trkpt>
<trkpt lat="24.741099" lon="105.618366">
<time>2015-09-27T15:57:15Z</time></trkpt>
<trkpt lat="24.741209" lon="105.618166">
<time>2015-09-27T15:57:16Z</time></trkpt>
<trkpt lat="24.74164" lon="105.617397">
<time>2015-09-27T15:57:17Z</time></trkpt>
<trkpt lat="24.74183" lon="105.617018">
<time>2015-09-27T15:57:18Z</time></trkpt>
<trkpt lat="24.741911" lon="105.616798">
<time>2015-09-27T15:57:19Z</time></trkpt>
<trkpt lat="24.741941" lon="105.616639">
<time>2015-09-27T15:57:20Z</time></trkpt>
<trkpt lat="24.741961" lon="105.616499">
<time>2015-09-27T15:57:21Z</time></trkpt>
<trkpt lat="24.741961" lon="105.616369">
<time>2015-09-27T15:57:22Z</time></trkpt>
<trkpt lat="24.741941" lon="105.616249">
<time>2015-09-27T15:57:23Z</time></trkpt>
<trkpt lat="24.741921" lon="105.616159">
<time>2015-09-27T15:57:24Z</time></trkpt>
<trkpt lat="24.741881" lon="105.616059">
<time>2015-09-27T15:57:25Z</time></trkpt>
<trkpt lat="24.741831" lon="105.61596">
<time>2015-09-27T15:57:26Z</time></trkpt>
<trkpt lat="24.741762" lon="105.61584">
<time>2015-09-27T15:57:27Z</time></trkpt>
<trkpt lat="24.741692" lon="105.61576">
<time>2015-09-27T15:57:28Z</time></trkpt>
<trkpt lat="24.741612" lon="105.61569">
<time>2015-09-27T15:57:29Z</time></trkpt>
<trkpt lat="24.741532" lon="105.61563">
<time>2015-09-27T15:57:30Z</time></trkpt>
<trkpt lat="24.741432" lon="105.61559">
<time>2015-09-27T15:57:31Z</time></trkpt>
<trkpt lat="24.741342" lon="105.61556">
<time>2015-09-27T15:57:32Z</time></trkpt>
<trkpt lat="24.741232" lon="105.61555">
<time>2015-09-27T15:57:33Z</time></trkpt>
<trkpt lat="24.741112" lon="105.61556">
<time>2015-09-27T15:57:34Z</time></trkpt>
<trkpt lat="24.740652" lon="105.61564">
<time>2015-09-27T15:57:35Z</time></trkpt>
<trkpt lat="24.740462" lon="105.61564">
<time>2015-09-27T15:57:36Z</time></trkpt>
<trkpt lat="24.740292" lon="105.61562">
<time>2015-09-27T15:57:37Z</time></trkpt>
<trkpt lat="24.740172" lon="105.61558">
<time>2015-09-27T15:57:38Z</time></trkpt>
<trkpt lat="24.739902" lon="105.61548">
<time>2015-09-27T15:57:39Z</time></trkpt>
<trkpt lat="24.739732" lon="105.615371">
<time>2015-09-27T15:57:40Z</time></trkpt>
<trkpt lat="24.739532" lon="105.615211">
<time>2015-09-27T15:57:41Z</time></trkpt>
<trkpt lat="24.739412" lon="105.615071">
<time>2015-09-27T15:57:42Z</time></trkpt>
<trkpt lat="24.739292" lon="105.614931">
<time>2015-09-27T15:57:43Z</time></trkpt>
<trkpt lat="24.739193" lon="105.614751">
<time>2015-09-27T15:57:44Z</time></trkpt>
<trkpt lat="24.739083" lon="105.614492">
<time>2015-09-27T15:57:45Z</time></trkpt>
<trkpt lat="24.738883" lon="105.614003">
<time>2015-09-27T15:57:46Z</time></trkpt>
<trkpt lat="24.738853" lon="105.613923">
<time>2015-09-27T15:57:47Z</time></trkpt>
<trkpt lat="24.738833" lon="105.613843">
<time>2015-09-27T15:57:48Z</time></trkpt>
<trkpt lat="24.738823" lon="105.613773">
<time>2015-09-27T15:57:49Z</time></trkpt>
<trkpt lat="24.738823" lon="105.613653">
<time>2015-09-27T15:57:50Z</time></trkpt>
<trkpt lat="24.738824" lon="105.613613">
<time>2015-09-27T15:57:51Z</time></trkpt>
<trkpt lat="24.738834" lon="105.613533">
<time>2015-09-27T15:57:52Z</time></trkpt>
<trkpt lat="24.738844" lon="105.613453">
<time>2015-09-27T15:57:53Z</time></trkpt>
<trkpt lat="24.738864" lon="105.613363">
<time>2015-09-27T15:57:54Z</time></trkpt>
<trkpt lat="24.738894" lon="105.613304">
<time>2015-09-27T15:57:55Z</time></trkpt>
<trkpt lat="24.738954" lon="105.613184">
<time>2015-09-27T15:57:56Z</time></trkpt>
<trkpt lat="24.739024" lon="105.613064">
<time>2015-09-27T15:57:57Z</time></trkpt>
<trkpt lat="24.739084" lon="105.612954">
<time>2015-09-27T15:57:58Z</time></trkpt>
<trkpt lat="24.739114" lon="105.612894">
<time>2015-09-27T15:57:59Z</time></trkpt>
<trkpt lat="24.739134" lon="105.612824">
<time>2015-09-27T15:58:00Z</time></trkpt>
<trkpt lat="24.739154" lon="105.612734">
<time>2015-09-27T15:58:01Z</time></trkpt>
<trkpt lat="24.739174" lon="105.612624">
<time>2015-09-27T15:58:02Z</time></trkpt>
<trkpt lat="24.739174" lon="105.612564">
<time>2015-09-27T15:58:03Z</time></trkpt>
<trkpt lat="24.739164" lon="105.612465">
<time>2015-09-27T15:58:04Z</time></trkpt>
<trkpt lat="24.739144" lon="105.612365">
<time>2015-09-27T15:58:05Z</time></trkpt>
<trkpt lat="24.739115" lon="105.612275">
<time>2015-09-27T15:58:06Z</time></trkpt>
<trkpt lat="24.739075" lon="105.612185">
<time>2015-09-27T15:58:07Z</time></trkpt>
<trkpt lat="24.739015" lon="105.612075">
<time>2015-09-27T15:58:08Z</time></trkpt>
<trkpt lat="24.738885" lon="105.611835">
<time>2015-09-27T15:58:09Z</time></trkpt>
<trkpt lat="24.738645" lon="105.611436">
<time>2015-09-27T15:58:10Z</time></trkpt>
<trkpt lat="24.738405" lon="105.610997">
<time>2015-09-27T15:58:11Z</time></trkpt>
<trkpt lat="24.738236" lon="105.610607">
<time>2015-09-27T15:58:12Z</time></trkpt>
<trkpt lat="24.737886" lon="105.609598">
<time>2015-09-27T15:58:13Z</time></trkpt>
<trkpt lat="24.737826" lon="105.609449">
<time>2015-09-27T15:58:14Z</time></trkpt>
<trkpt lat="24.737757" lon="105.609339">
<time>2015-09-27T15:58:15Z</time></trkpt>
<trkpt lat="24.737647" lon="105.609179">
<time>2015-09-27T15:58:16Z</time></trkpt>
<trkpt lat="24.737507" lon="105.609039">
<time>2015-09-27T15:58:17Z</time></trkpt>
<trkpt lat="24.737347" lon="105.608899">
<time>2015-09-27T15:58:18Z</time></trkpt>
<trkpt lat="24.737127" lon="105.608709">
<time>2015-09-27T15:58:19Z</time></trkpt>
<trkpt lat="24.737017" lon="105.60857">
<time>2015-09-27T15:58:20Z</time></trkpt>
<trkpt lat="24.736947" lon="105.60845">
<time>2015-09-27T15:58:21Z</time></trkpt>
<trkpt lat="24.736897" lon="105.60835">
<time>2015-09-27T15:58:22Z</time></trkpt>
<trkpt lat="24.736648" lon="105.607741">
<time>2015-09-27T15:58:23Z</time></trkpt>
<trkpt lat="24.736558" lon="105.607521">
<time>2015-09-27T15:58:24Z</time></trkpt>
<trkpt lat="24.736478" lon="105.607371">
<time>2015-09-27T15:58:25Z</time></trkpt>
<trkpt lat="24.736378" lon="105.607231">
<time>2015-09-27T15:58:26Z</time></trkpt>
<trkpt lat="24.736278" lon="105.607111">
<time>2015-09-27T15:58:27Z</time></trkpt>
<trkpt lat="24.736138" lon="105.606991">
<time>2015-09-27T15:58:28Z</time></trkpt>
<trkpt lat="24.736018" lon="105.606892">
<time>2015-09-27T15:58:29Z</time></trkpt>
<trkpt lat="24.735968" lon="105.606842">
<time>2015-09-27T15:58:30Z</time></trkpt>
<trkpt lat="24.735938" lon="105.606802">
<time>2015-09-27T15:58:31Z</time></trkpt>
<trkpt lat="24.735918" lon="105.606762">
<time>2015-09-27T15:58:32Z</time></trkpt>
<trkpt lat="24.735898" lon="105.606712">
<time>2015-09-27T15:58:33Z</time></trkpt>
<trkpt lat="24.735888" lon="105.606672">
<time>2015-09-27T15:58:34Z</time></trkpt>
<trkpt lat="24.735878" lon="105.606612">
<time>2015-09-27T15:58:35Z</time></trkpt>
<trkpt lat="24.735878" lon="105.606572">
<time>2015-09-27T15:58:36Z</time></trkpt>
<trkpt lat="24.735878" lon="105.606562">
<time>2015-09-27T15:58:37Z</time></trkpt>
<trkpt lat="24.735878" lon="105.606562">
<time>2015-09-27T15:58:38Z</time></trkpt>
<trkpt lat="24.735508" lon="105.606482">
<time>2015-09-27T15:58:39Z</time></trkpt>
<trkpt lat="24.735328" lon="105.606432">
<time>2015-09-27T15:58:40Z</time></trkpt>
<trkpt lat="24.735188" lon="105.606362">
<time>2015-09-27T15:58:41Z</time></trkpt>
<trkpt lat="24.735108" lon="105.606312">
<time>2015-09-27T15:58:42Z</time></trkpt>
<trkpt lat="24.735068" lon="105.606272">
<time>2015-09-27T15:58:43Z</time></trkpt>
<trkpt lat="24.735048" lon="105.606222">
<time>2015-09-27T15:58:44Z</time></trkpt>
<trkpt lat="24.735038" lon="105.606172">
<time>2015-09-27T15:58:45Z</time></trkpt>
<trkpt lat="24.735029" lon="105.606122">
<time>2015-09-27T15:58:46Z</time></trkpt>
<trkpt lat="24.735019" lon="105.606063">
<time>2015-09-27T15:58:47Z</time></trkpt>
<trkpt lat="24.735009" lon="105.606013">
<time>2015-09-27T15:58:48Z</time></trkpt>
<trkpt lat="24.734999" lon="105.605943">
<time>2015-09-27T15:58:49Z</time></trkpt>
<trkpt lat="24.734989" lon="105.605883">
<time>2015-09-27T15:58:50Z</time></trkpt>
<trkpt lat="24.734979" lon="105.605823">
<time>2015-09-27T15:58:51Z</time></trkpt>
<trkpt lat="24.734979" lon="105.605763">
<time>2015-09-27T15:58:52Z</time></trkpt>
<trkpt lat="24.734969" lon="105.605703">
<time>2015-09-27T15:58:53Z</time></trkpt>
<trkpt lat="24.734959" lon="105.605633">
<time>2015-09-27T15:58:54Z</time></trkpt>
<trkpt lat="24.734949" lon="105.605573">
<time>2015-09-27T15:58:55Z</time></trkpt>
<trkpt lat="24.734939" lon="105.605513">
<time>2015-09-27T15:58:56Z</time></trkpt>
<trkpt lat="24.734929" lon="105.605463">
<time>2015-09-27T15:58:57Z</time></trkpt>
<trkpt lat="24.734919" lon="105.605413">
<time>2015-09-27T15:58:58Z</time></trkpt>
<trkpt lat="24.734909" lon="105.605363">
<time>2015-09-27T15:58:59Z</time></trkpt>
<trkpt lat="24.734869" lon="105.605213">
<time>2015-09-27T15:59:00Z</time></trkpt>
<trkpt lat="24.734859" lon="105.605163">
<time>2015-09-27T15:59:01Z</time></trkpt>
<trkpt lat="24.734849" lon="105.605114">
<time>2015-09-27T15:59:02Z</time></trkpt>
<trkpt lat="24.734829" lon="105.605034">
<time>2015-09-27T15:59:03Z</time></trkpt>
<trkpt lat="24.734809" lon="105.604954">
<time>2015-09-27T15:59:04Z</time></trkpt>
<trkpt lat="24.734799" lon="105.604864">
<time>2015-09-27T15:59:05Z</time></trkpt>
<trkpt lat="24.734789" lon="105.604784">
<time>2015-09-27T15:59:06Z</time></trkpt>
<trkpt lat="24.734779" lon="105.604704">
<time>2015-09-27T15:59:07Z</time></trkpt>
<trkpt lat="24.734769" lon="105.604614">
<time>2015-09-27T15:59:08Z</time></trkpt>
<trkpt lat="24.734759" lon="105.604574">
<time>2015-09-27T15:59:09Z</time></trkpt>
<trkpt lat="24.734759" lon="105.604534">
<time>2015-09-27T15:59:10Z</time></trkpt>
<trkpt lat="24.734739" lon="105.604444">
<time>2015-09-27T15:59:11Z</time></trkpt>
<trkpt lat="24.734729" lon="105.604394">
<time>2015-09-27T15:59:12Z</time></trkpt>
<trkpt lat="24.734719" lon="105.604334">
<time>2015-09-27T15:59:13Z</time></trkpt>
<trkpt lat="24.734699" lon="105.604274">
<time>2015-09-27T15:59:14Z</time></trkpt>
<trkpt lat="24.734689" lon="105.604224">
<time>2015-09-27T15:59:15Z</time></trkpt>
<trkpt lat="24.734669" lon="105.604175">
<time>2015-09-27T15:59:16Z</time></trkpt>
<trkpt lat="24.734639" lon="105.604115">
<time>2015-09-27T15:59:17Z</time></trkpt>
<trkpt lat="24.734619" lon="105.604065">
<time>2015-09-27T15:59:18Z</time></trkpt>
<trkpt lat="24.734589" lon="105.604025">
<time>2015-09-27T15:59:19Z</time></trkpt>
<trkpt lat="24.734559" lon="105.603985">
<time>2015-09-27T15:59:20Z</time></trkpt>
<trkpt lat="24.734539" lon="105.603955">
<time>2015-09-27T15:59:21Z</time></trkpt>
<trkpt lat="24.73451" lon="105.603915">
<time>2015-09-27T15:59:22Z</time></trkpt>
<trkpt lat="24.73448" lon="105.603885">
<time>2015-09-27T15:59:23Z</time></trkpt>
<trkpt lat="24.73445" lon="105.603845">
<time>2015-09-27T15:59:24Z</time></trkpt>
<trkpt lat="24.73443" lon="105.603815">
<time>2015-09-27T15:59:25Z</time></trkpt>
<trkpt lat="24.7344" lon="105.603775">
<time>2015-09-27T15:59:26Z</time></trkpt>
<trkpt lat="24.73438" lon="105.603745">
<time>2015-09-27T15:59:27Z</time></trkpt>
<trkpt lat="24.73436" lon="105.603705">
<time>2015-09-27T15:59:28Z</time></trkpt>
<trkpt lat="24.73435" lon="105.603665">
<time>2015-09-27T15:59:29Z</time></trkpt>
<trkpt lat="24.73434" lon="105.603635">
<time>2015-09-27T15:59:30Z</time></trkpt>
<trkpt lat="24.73433" lon="105.603595">
<time>2015-09-27T15:59:31Z</time></trkpt>
<trkpt lat="24.73432" lon="105.603555">
<time>2015-09-27T15:59:32Z</time></trkpt>
<trkpt lat="24.7343" lon="105.603475">
<time>2015-09-27T15:59:33Z</time></trkpt>
<trkpt lat="24.73429" lon="105.603435">
<time>2015-09-27T15:59:34Z</time></trkpt>
<trkpt lat="24.73427" lon="105.603365">
<time>2015-09-27T15:59:35Z</time></trkpt>
<trkpt lat="24.73425" lon="105.603305">
<time>2015-09-27T15:59:36Z</time></trkpt>
<trkpt lat="24.73423" lon="105.603245">
<time>2015-09-27T15:59:37Z</time></trkpt>
<trkpt lat="24.73422" lon="105.603185">
<time>2015-09-27T15:59:38Z</time></trkpt>
<trkpt lat="24.7342" lon="105.603126">
<time>2015-09-27T15:59:39Z</time></trkpt>
<trkpt lat="24.73418" lon="105.603066">
<time>2015-09-27T15:59:40Z</time></trkpt>
<trkpt lat="24.73416" lon="105.603006">
<time>2015-09-27T15:59:41Z</time></trkpt>
<trkpt lat="24.73415" lon="105.602946">
<time>2015-09-27T15:59:42Z</time></trkpt>
<trkpt lat="24.73413" lon="105.602866">
<time>2015-09-27T15:59:43Z</time></trkpt>
<trkpt lat="24.73412" lon="105.602796">
<time>2015-09-27T15:59:44Z</time></trkpt>
<trkpt lat="24.73411" lon="105.602716">
<time>2015-09-27T15:59:45Z</time></trkpt>
<trkpt lat="24.73411" lon="105.602646">
<time>2015-09-27T15:59:46Z</time></trkpt>
<trkpt lat="24.7341" lon="105.602566">
<time>2015-09-27T15:59:47Z</time></trkpt>
<trkpt lat="24.7341" lon="105.602486">
<time>2015-09-27T15:59:48Z</time></trkpt>
<trkpt lat="24.7341" lon="105.602416">
<time>2015-09-27T15:59:49Z</time></trkpt>
<trkpt lat="24.7341" lon="105.602336">
<time>2015-09-27T15:59:50Z</time></trkpt>
<trkpt lat="24.73411" lon="105.602296">
<time>2015-09-27T15:59:51Z</time></trkpt>
<trkpt lat="24.73411" lon="105.602256">
<time>2015-09-27T15:59:52Z</time></trkpt>
<trkpt lat="24.73411" lon="105.602206">
<time>2015-09-27T15:59:53Z</time></trkpt>
<trkpt lat="24.73412" lon="105.602166">
<time>2015-09-27T15:59:54Z</time></trkpt>
<trkpt lat="24.73412" lon="105.602126">
<time>2015-09-27T15:59:55Z</time></trkpt>
<trkpt lat="24.73413" lon="105.602086">
<time>2015-09-27T15:59:56Z</time></trkpt>
<trkpt lat="24.73415" lon="105.602037">
<time>2015-09-27T15:59:57Z</time></trkpt>
<trkpt lat="24.73417" lon="105.601997">
<time>2015-09-27T15:59:58Z</time></trkpt>
<trkpt lat="24.73418" lon="105.601987">
<time>2015-09-27T15:59:59Z</time></trkpt>
<trkpt lat="24.73419" lon="105.601967">
<time>2015-09-27T16:00:00Z</time></trkpt>
<trkpt lat="24.7342" lon="105.601947">
<time>2015-09-27T16:00:01Z</time></trkpt>
<trkpt lat="24.73421" lon="105.601937">
<time>2015-09-27T16:00:02Z</time></trkpt>
<trkpt lat="24.73422" lon="105.601917">
<time>2015-09-27T16:00:03Z</time></trkpt>
<trkpt lat="24.73424" lon="105.601907">
<time>2015-09-27T16:00:04Z</time></trkpt>
<trkpt lat="24.73425" lon="105.601897">
<time>2015-09-27T16:00:05Z</time></trkpt>
<trkpt lat="24.73427" lon="105.601887">
<time>2015-09-27T16:00:06Z</time></trkpt>
<trkpt lat="24.73429" lon="105.601887">
<time>2015-09-27T16:00:07Z</time></trkpt>
<trkpt lat="24.73431" lon="105.601887">
<time>2015-09-27T16:00:08Z</time></trkpt>
<trkpt lat="24.73433" lon="105.601897">
<time>2015-09-27T16:00:09Z</time></trkpt>
<trkpt lat="24.73436" lon="105.601907">
<time>2015-09-27T16:00:10Z</time></trkpt>
<trkpt lat="24.73438" lon="105.601917">
<time>2015-09-27T16:00:11Z</time></trkpt>
<trkpt lat="24.7344" lon="105.601937">
<time>2015-09-27T16:00:12Z</time></trkpt>
<trkpt lat="24.73442" lon="105.601957">
<time>2015-09-27T16:00:13Z</time></trkpt>
<trkpt lat="24.73444" lon="105.601967">
<time>2015-09-27T16:00:14Z</time></trkpt>
<trkpt lat="24.73447" lon="105.602007">
<time>2015-09-27T16:00:15Z</time></trkpt>
<trkpt lat="24.73449" lon="105.602037">
<time>2015-09-27T16:00:16Z</time></trkpt>
<trkpt lat="24.73452" lon="105.602076">
<time>2015-09-27T16:00:17Z</time></trkpt>
<trkpt lat="24.73454" lon="105.602116">
<time>2015-09-27T16:00:18Z</time></trkpt>
<trkpt lat="24.73456" lon="105.602146">
<time>2015-09-27T16:00:19Z</time></trkpt>
<trkpt lat="24.73458" lon="105.602186">
<time>2015-09-27T16:00:20Z</time></trkpt>
<trkpt lat="24.7346" lon="105.602216">
<time>2015-09-27T16:00:21Z</time></trkpt>
<trkpt lat="24.73462" lon="105.602246">
<time>2015-09-27T16:00:22Z</time></trkpt>
<trkpt lat="24.73464" lon="105.602276">
<time>2015-09-27T16:00:23Z</time></trkpt>
<trkpt lat="24.73467" lon="105.602306">
<time>2015-09-27T16:00:24Z</time></trkpt>
<trkpt lat="24.7347" lon="105.602326">
<time>2015-09-27T16:00:25Z</time></trkpt>
<trkpt lat="24.73473" lon="105.602346">
<time>2015-09-27T16:00:26Z</time></trkpt>
<trkpt lat="24.73476" lon="105.602366">
<time>2015-09-27T16:00:27Z</time></trkpt>
<trkpt lat="24.73479" lon="105.602376">
<time>2015-09-27T16:00:28Z</time></trkpt>
<trkpt lat="24.73483" lon="105.602396">
<time>2015-09-27T16:00:29Z</time></trkpt>
<trkpt lat="24.73487" lon="105.602406">
<time>2015-09-27T16:00:30Z</time></trkpt>
<trkpt lat="24.73488" lon="105.602406">
<time>2015-09-27T16:00:31Z</time></trkpt>
<trkpt lat="24.73489" lon="105.602406">
<time>2015-09-27T16:00:32Z</time></trkpt>
<trkpt lat="24.73491" lon="105.602406">
<time>2015-09-27T16:00:33Z</time></trkpt>
<trkpt lat="24.73492" lon="105.602406">
<time>2015-09-27T16:00:34Z</time></trkpt>
<trkpt lat="24.73494" lon="105.602406">
<time>2015-09-27T16:00:35Z</time></trkpt>
<trkpt lat="24.73495" lon="105.602406">
<time>2015-09-27T16:00:36Z</time></trkpt>
<trkpt lat="24.73496" lon="105.602406">
<time>2015-09-27T16:00:37Z</time></trkpt>
<trkpt lat="24.73498" lon="105.602406">
<time>2015-09-27T16:00:38Z</time></trkpt>
<trkpt lat="24.735" lon="105.602386">
<time>2015-09-27T16:00:39Z</time></trkpt>
<trkpt lat="24.73502" lon="105.602366">
<time>2015-09-27T16:00:40Z</time></trkpt>
<trkpt lat="24.73504" lon="105.602326">
<time>2015-09-27T16:00:41Z</time></trkpt>
<trkpt lat="24.73505" lon="105.602296">
<time>2015-09-27T16:00:42Z</time></trkpt>
<trkpt lat="24.73506" lon="105.602256">
<time>2015-09-27T16:00:43Z</time></trkpt>
<trkpt lat="24.73506" lon="105.602206">
<time>2015-09-27T16:00:44Z</time></trkpt>
<trkpt lat="24.73507" lon="105.602166">
<time>2015-09-27T16:00:45Z</time></trkpt>
<trkpt lat="24.73507" lon="105.602126">
<time>2015-09-27T16:00:46Z</time></trkpt>
<trkpt lat="24.73506" lon="105.602086">
<time>2015-09-27T16:00:47Z</time></trkpt>
<trkpt lat="24.73506" lon="105.602036">
<time>2015-09-27T16:00:48Z</time></trkpt>
<trkpt lat="24.73506" lon="105.602007">
<time>2015-09-27T16:00:49Z</time></trkpt>
<trkpt lat="24.73505" lon="105.601967">
<time>2015-09-27T16:00:50Z</time></trkpt>
<trkpt lat="24.73504" lon="105.601927">
<time>2015-09-27T16:00:51Z</time></trkpt>
<trkpt lat="24.73504" lon="105.601887">
<time>2015-09-27T16:00:52Z</time></trkpt>
<trkpt lat="24.73504" lon="105.601857">
<time>2015-09-27T16:00:53Z</time></trkpt>
<trkpt lat="24.73503" lon="105.601817">
<time>2015-09-27T16:00:54Z</time></trkpt>
<trkpt lat="24.73503" lon="105.601747">
<time>2015-09-27T16:00:55Z</time></trkpt>
<trkpt lat="24.73504" lon="105.601667">
<time>2015-09-27T16:00:56Z</time></trkpt>
<trkpt lat="24.73505" lon="105.601597">
<time>2015-09-27T16:00:57Z</time></trkpt>
<trkpt lat="24.73507" lon="105.601517">
<time>2015-09-27T16:00:58Z</time></trkpt>
<trkpt lat="24.73509" lon="105.601447">
<time>2015-09-27T16:00:59Z</time></trkpt>
<trkpt lat="24.73512" lon="105.601377">
<time>2015-09-27T16:01:00Z</time></trkpt>
<trkpt lat="24.73516" lon="105.601307">
<time>2015-09-27T16:01:01Z</time></trkpt>
<trkpt lat="24.7352" lon="105.601247">
<time>2015-09-27T16:01:02Z</time></trkpt>
<trkpt lat="24.73524" lon="105.601197">
<time>2015-09-27T16:01:03Z</time></trkpt>
<trkpt lat="24.73529" lon="105.601147">
<time>2015-09-27T16:01:04Z</time></trkpt>
<trkpt lat="24.73533" lon="105.601097">
<time>2015-09-27T16:01:05Z</time></trkpt>
<trkpt lat="24.73539" lon="105.601057">
<time>2015-09-27T16:01:06Z</time></trkpt>
<trkpt lat="24.73544" lon="105.601017">
<time>2015-09-27T16:01:07Z</time></trkpt>
<trkpt lat="24.73549" lon="105.600967">
<time>2015-09-27T16:01:08Z</time></trkpt>
<trkpt lat="24.73555" lon="105.600927">
<time>2015-09-27T16:01:09Z</time></trkpt>
<trkpt lat="24.7356" lon="105.600887">
<time>2015-09-27T16:01:10Z</time></trkpt>
<trkpt lat="24.73565" lon="105.600838">
<time>2015-09-27T16:01:11Z</time></trkpt>
<trkpt lat="24.73569" lon="105.600798">
<time>2015-09-27T16:01:12Z</time></trkpt>
<trkpt lat="24.735731" lon="105.600748">
<time>2015-09-27T16:01:13Z</time></trkpt>
<trkpt lat="24.735771" lon="105.600698">
<time>2015-09-27T16:01:14Z</time></trkpt>
<trkpt lat="24.735811" lon="105.600648">
<time>2015-09-27T16:01:15Z</time></trkpt>
<trkpt lat="24.735841" lon="105.600588">
<time>2015-09-27T16:01:16Z</time></trkpt>
<trkpt lat="24.735871" lon="105.600538">
<time>2015-09-27T16:01:17Z</time></trkpt>
<trkpt lat="24.735891" lon="105.600478">
<time>2015-09-27T16:01:18Z</time></trkpt>
<trkpt lat="24.735901" lon="105.600438">
<time>2015-09-27T16:01:19Z</time></trkpt>
<trkpt lat="24.735911" lon="105.600388">
<time>2015-09-27T16:01:20Z</time></trkpt>
<trkpt lat="24.735921" lon="105.600348">
<time>2015-09-27T16:01:21Z</time></trkpt>
<trkpt lat="24.735921" lon="105.600308">
<time>2015-09-27T16:01:22Z</time></trkpt>
<trkpt lat="24.735921" lon="105.600258">
<time>2015-09-27T16:01:23Z</time></trkpt>
<trkpt lat="24.735921" lon="105.600218">
<time>2015-09-27T16:01:24Z</time></trkpt>
<trkpt lat="24.735921" lon="105.600168">
<time>2015-09-27T16:01:25Z</time></trkpt>
<trkpt lat="24.735921" lon="105.600128">
<time>2015-09-27T16:01:26Z</time></trkpt>
<trkpt lat="24.735911" lon="105.600078">
<time>2015-09-27T16:01:27Z</time></trkpt>
<trkpt lat="24.735901" lon="105.600028">
<time>2015-09-27T16:01:28Z</time></trkpt>
<trkpt lat="24.735891" lon="105.599978">
<time>2015-09-27T16:01:29Z</time></trkpt>
<trkpt lat="24.735871" lon="105.599928">
<time>2015-09-27T16:01:30Z</time></trkpt>
<trkpt lat="24.735851" lon="105.599878">
<time>2015-09-27T16:01:31Z</time></trkpt>
<trkpt lat="24.735841" lon="105.599828">
<time>2015-09-27T16:01:32Z</time></trkpt>
<trkpt lat="24.735821" lon="105.599778">
<time>2015-09-27T16:01:33Z</time></trkpt>
<trkpt lat="24.735811" lon="105.599728">
<time>2015-09-27T16:01:34Z</time></trkpt>
<trkpt lat="24.735801" lon="105.599688">
<time>2015-09-27T16:01:35Z</time></trkpt>
<trkpt lat="24.735791" lon="105.599648">
<time>2015-09-27T16:01:36Z</time></trkpt>
<trkpt lat="24.735781" lon="105.599608">
<time>2015-09-27T16:01:37Z</time></trkpt>
<trkpt lat="24.735781" lon="105.599569">
<time>2015-09-27T16:01:38Z</time></trkpt>
<trkpt lat="24.735771" lon="105.599529">
<time>2015-09-27T16:01:39Z</time></trkpt>
<trkpt lat="24.735761" lon="105.599489">
<time>2015-09-27T16:01:40Z</time></trkpt>
<trkpt lat="24.735761" lon="105.599449">
<time>2015-09-27T16:01:41Z</time></trkpt>
<trkpt lat="24.735761" lon="105.599409">
<time>2015-09-27T16:01:42Z</time></trkpt>
<trkpt lat="24.735761" lon="105.599369">
<time>2015-09-27T16:01:43Z</time></trkpt>
<trkpt lat="24.735761" lon="105.599329">
<time>2015-09-27T16:01:44Z</time></trkpt>
<trkpt lat="24.735761" lon="105.599299">
<time>2015-09-27T16:01:45Z</time></trkpt>
<trkpt lat="24.735761" lon="105.599219">
<time>2015-09-27T16:01:46Z</time></trkpt>
<trkpt lat="24.735761" lon="105.599189">
<time>2015-09-27T16:01:47Z</time></trkpt>
<trkpt lat="24.735761" lon="105.599149">
<time>2015-09-27T16:01:48Z</time></trkpt>
<trkpt lat="24.735761" lon="105.599119">
<time>2015-09-27T16:01:49Z</time></trkpt>
<trkpt lat="24.735761" lon="105.599059">
<time>2015-09-27T16:01:50Z</time></trkpt>
<trkpt lat="24.735751" lon="105.599009">
<time>2015-09-27T16:01:51Z</time></trkpt>
<trkpt lat="24.735751" lon="105.598959">
<time>2015-09-27T16:01:52Z</time></trkpt>
<trkpt lat="24.735741" lon="105.598909">
<time>2015-09-27T16:01:53Z</time></trkpt>
<trkpt lat="24.735731" lon="105.598859">
<time>2015-09-27T16:01:54Z</time></trkpt>
<trkpt lat="24.735721" lon="105.598799">
<time>2015-09-27T16:01:55Z</time></trkpt>
<trkpt lat="24.735701" lon="105.598749">
<time>2015-09-27T16:01:56Z</time></trkpt>
<trkpt lat="24.735691" lon="105.598709">
<time>2015-09-27T16:01:57Z</time></trkpt>
<trkpt lat="24.735661" lon="105.598639">
<time>2015-09-27T16:01:58Z</time></trkpt>
<trkpt lat="24.735641" lon="105.598579">
<time>2015-09-27T16:01:59Z</time></trkpt>
<trkpt lat="24.735611" lon="105.598519">
<time>2015-09-27T16:02:00Z</time></trkpt>
<trkpt lat="24.735581" lon="105.598459">
<time>2015-09-27T16:02:01Z</time></trkpt>
<trkpt lat="24.735541" lon="105.598399">
<time>2015-09-27T16:02:02Z</time></trkpt>
<trkpt lat="24.735511" lon="105.598339">
<time>2015-09-27T16:02:03Z</time></trkpt>
<trkpt lat="24.735481" lon="105.59828">
<time>2015-09-27T16:02:04Z</time></trkpt>
<trkpt lat="24.735441" lon="105.59822">
<time>2015-09-27T16:02:05Z</time></trkpt>
<trkpt lat="24.735411" lon="105.59816">
<time>2015-09-27T16:02:06Z</time></trkpt>
<trkpt lat="24.735381" lon="105.5981">
<time>2015-09-27T16:02:07Z</time></trkpt>
<trkpt lat="24.735361" lon="105.59804">
<time>2015-09-27T16:02:08Z</time></trkpt>
<trkpt lat="24.735331" lon="105.59798">
<time>2015-09-27T16:02:09Z</time></trkpt>
<trkpt lat="24.735311" lon="105.59792">
<time>2015-09-27T16:02:10Z</time></trkpt>
<trkpt lat="24.735291" lon="105.59786">
<time>2015-09-27T16:02:11Z</time></trkpt>
<trkpt lat="24.735271" lon="105.59779">
<time>2015-09-27T16:02:12Z</time></trkpt>
<trkpt lat="24.735261" lon="105.59773">
<time>2015-09-27T16:02:13Z</time></trkpt>
<trkpt lat="24.735261" lon="105.59765">
<time>2015-09-27T16:02:14Z</time></trkpt>
<trkpt lat="24.735271" lon="105.59757">
<time>2015-09-27T16:02:15Z</time></trkpt>
<trkpt lat="24.735271" lon="105.59748">
<time>2015-09-27T16:02:16Z</time></trkpt>
<trkpt lat="24.735281" lon="105.5974">
<time>2015-09-27T16:02:17Z</time></trkpt>
<trkpt lat="24.735301" lon="105.59732">
<time>2015-09-27T16:02:18Z</time></trkpt>
<trkpt lat="24.735311" lon="105.59723">
<time>2015-09-27T16:02:19Z</time></trkpt>
<trkpt lat="24.735311" lon="105.59715">
<time>2015-09-27T16:02:20Z</time></trkpt>
<trkpt lat="24.735311" lon="105.59707">
<time>2015-09-27T16:02:21Z</time></trkpt>
<trkpt lat="24.735301" lon="105.59699">
<time>2015-09-27T16:02:22Z</time></trkpt>
<trkpt lat="24.735291" lon="105.5969">
<time>2015-09-27T16:02:23Z</time></trkpt>
<trkpt lat="24.735271" lon="105.596821">
<time>2015-09-27T16:02:24Z</time></trkpt>
<trkpt lat="24.735251" lon="105.596741">
<time>2015-09-27T16:02:25Z</time></trkpt>
<trkpt lat="24.735221" lon="105.596661">
<time>2015-09-27T16:02:26Z</time></trkpt>
<trkpt lat="24.735201" lon="105.596571">
<time>2015-09-27T16:02:27Z</time></trkpt>
<trkpt lat="24.735181" lon="105.596491">
<time>2015-09-27T16:02:28Z</time></trkpt>
<trkpt lat="24.735161" lon="105.596401">
<time>2015-09-27T16:02:29Z</time></trkpt>
<trkpt lat="24.735151" lon="105.596351">
<time>2015-09-27T16:02:30Z</time></trkpt>
<trkpt lat="24.735151" lon="105.596301">
<time>2015-09-27T16:02:31Z</time></trkpt>
<trkpt lat="24.735151" lon="105.596261">
<time>2015-09-27T16:02:32Z</time></trkpt>
<trkpt lat="24.735151" lon="105.596211">
<time>2015-09-27T16:02:33Z</time></trkpt>
<trkpt lat="24.735161" lon="105.596161">
<time>2015-09-27T16:02:34Z</time></trkpt>
<trkpt lat="24.735161" lon="105.596121">
<time>2015-09-27T16:02:35Z</time></trkpt>
<trkpt lat="24.735171" lon="105.596081">
<time>2015-09-27T16:02:36Z</time></trkpt>
<trkpt lat="24.735191" lon="105.596041">
<time>2015-09-27T16:02:37Z</time></trkpt>
<trkpt lat="24.735221" lon="105.595981">
<time>2015-09-27T16:02:38Z</time></trkpt>
<trkpt lat="24.735261" lon="105.595921">
<time>2015-09-27T16:02:39Z</time></trkpt>
<trkpt lat="24.735311" lon="105.595871">
<time>2015-09-27T16:02:40Z</time></trkpt>
<trkpt lat="24.735371" lon="105.595831">
<time>2015-09-27T16:02:41Z</time></trkpt>
<trkpt lat="24.735431" lon="105.595791">
<time>2015-09-27T16:02:42Z</time></trkpt>
<trkpt lat="24.735491" lon="105.595761">
<time>2015-09-27T16:02:43Z</time></trkpt>
<trkpt lat="24.735561" lon="105.595731">
<time>2015-09-27T16:02:44Z</time></trkpt>
<trkpt lat="24.735631" lon="105.595711">
<time>2015-09-27T16:02:45Z</time></trkpt>
<trkpt lat="24.735691" lon="105.595691">
<time>2015-09-27T16:02:46Z</time></trkpt>
<trkpt lat="24.735761" lon="105.595681">
<time>2015-09-27T16:02:47Z</time></trkpt>
<trkpt lat="24.735831" lon="105.595671">
<time>2015-09-27T16:02:48Z</time></trkpt>
<trkpt lat="24.735961" lon="105.595651">
<time>2015-09-27T16:02:49Z</time></trkpt>
<trkpt lat="24.736031" lon="105.595641">
<time>2015-09-27T16:02:50Z</time></trkpt>
<trkpt lat="24.736091" lon="105.595621">
<time>2015-09-27T16:02:51Z</time></trkpt>
<trkpt lat="24.736161" lon="105.595611">
<time>2015-09-27T16:02:52Z</time></trkpt>
<trkpt lat="24.736241" lon="105.595581">
<time>2015-09-27T16:02:53Z</time></trkpt>
<trkpt lat="24.736311" lon="105.595551">
<time>2015-09-27T16:02:54Z</time></trkpt>
<trkpt lat="24.736391" lon="105.595511">
<time>2015-09-27T16:02:55Z</time></trkpt>
<trkpt lat="24.736461" lon="105.595461">
<time>2015-09-27T16:02:56Z</time></trkpt>
<trkpt lat="24.736541" lon="105.595411">
<time>2015-09-27T16:02:57Z</time></trkpt>
<trkpt lat="24.736601" lon="105.595361">
<time>2015-09-27T16:02:58Z</time></trkpt>
<trkpt lat="24.736671" lon="105.595291">
<time>2015-09-27T16:02:59Z</time></trkpt>
<trkpt lat="24.736731" lon="105.595231">
<time>2015-09-27T16:03:00Z</time></trkpt>
<trkpt lat="24.736781" lon="105.595171">
<time>2015-09-27T16:03:01Z</time></trkpt>
<trkpt lat="24.736821" lon="105.595102">
<time>2015-09-27T16:03:02Z</time></trkpt>
<trkpt lat="24.736861" lon="105.595032">
<time>2015-09-27T16:03:03Z</time></trkpt>
<trkpt lat="24.736901" lon="105.594962">
<time>2015-09-27T16:03:04Z</time></trkpt>
<trkpt lat="24.736931" lon="105.594892">
<time>2015-09-27T16:03:05Z</time></trkpt>
<trkpt lat="24.736961" lon="105.594822">
<time>2015-09-27T16:03:06Z</time></trkpt>
<trkpt lat="24.736981" lon="105.594742">
<time>2015-09-27T16:03:07Z</time></trkpt>
<trkpt lat="24.737001" lon="105.594672">
<time>2015-09-27T16:03:08Z</time></trkpt>
<trkpt lat="24.737021" lon="105.594602">
<time>2015-09-27T16:03:09Z</time></trkpt>
<trkpt lat="24.737031" lon="105.594542">
<time>2015-09-27T16:03:10Z</time></trkpt>
<trkpt lat="24.737041" lon="105.594482">
<time>2015-09-27T16:03:11Z</time></trkpt>
<trkpt lat="24.737051" lon="105.594422">
<time>2015-09-27T16:03:12Z</time></trkpt>
<trkpt lat="24.737051" lon="105.594362">
<time>2015-09-27T16:03:13Z</time></trkpt>
<trkpt lat="24.737061" lon="105.594292">
<time>2015-09-27T16:03:14Z</time></trkpt>
<trkpt lat="24.737061" lon="105.594232">
<time>2015-09-27T16:03:15Z</time></trkpt>
<trkpt lat="24.737071" lon="105.594172">
<time>2015-09-27T16:03:16Z</time></trkpt>
<trkpt lat="24.737071" lon="105.594092">
<time>2015-09-27T16:03:17Z</time></trkpt>
<trkpt lat="24.737071" lon="105.594022">
<time>2015-09-27T16:03:18Z</time></trkpt>
<trkpt lat="24.737071" lon="105.593952">
<time>2015-09-27T16:03:19Z</time></trkpt>
<trkpt lat="24.737071" lon="105.593882">
<time>2015-09-27T16:03:20Z</time></trkpt>
<trkpt lat="24.737061" lon="105.593812">
<time>2015-09-27T16:03:21Z</time></trkpt>
<trkpt lat="24.737051" lon="105.593742">
<time>2015-09-27T16:03:22Z</time></trkpt>
<trkpt lat="24.737041" lon="105.593672">
<time>2015-09-27T16:03:23Z</time></trkpt>
<trkpt lat="24.737021" lon="105.593602">
<time>2015-09-27T16:03:24Z</time></trkpt>
<trkpt lat="24.736991" lon="105.593532">
<time>2015-09-27T16:03:25Z</time></trkpt>
<trkpt lat="24.736961" lon="105.593472">
<time>2015-09-27T16:03:26Z</time></trkpt>
<trkpt lat="24.736921" lon="105.593412">
<time>2015-09-27T16:03:27Z</time></trkpt>
<trkpt lat="24.736881" lon="105.593362">
<time>2015-09-27T16:03:28Z</time></trkpt>
<trkpt lat="24.736841" lon="105.593302">
<time>2015-09-27T16:03:29Z</time></trkpt>
<trkpt lat="24.736791" lon="105.593262">
<time>2015-09-27T16:03:30Z</time></trkpt>
<trkpt lat="24.736741" lon="105.593223">
<time>2015-09-27T16:03:31Z</time></trkpt>
<trkpt lat="24.736691" lon="105.593183">
<time>2015-09-27T16:03:32Z</time></trkpt>
<trkpt lat="24.736631" lon="105.593153">
<time>2015-09-27T16:03:33Z</time></trkpt>
<trkpt lat="24.736581" lon="105.593133">
<time>2015-09-27T16:03:34Z</time></trkpt>
<trkpt lat="24.736511" lon="105.593113">
<time>2015-09-27T16:03:35Z</time></trkpt>
<trkpt lat="24.736451" lon="105.593093">
<time>2015-09-27T16:03:36Z</time></trkpt>
<trkpt lat="24.736391" lon="105.593083">
<time>2015-09-27T16:03:37Z</time></trkpt>
<trkpt lat="24.736321" lon="105.593073">
<time>2015-09-27T16:03:38Z</time></trkpt>
<trkpt lat="24.736261" lon="105.593073">
<time>2015-09-27T16:03:39Z</time></trkpt>
<trkpt lat="24.736191" lon="105.593063">
<time>2015-09-27T16:03:40Z</time></trkpt>
<trkpt lat="24.736111" lon="105.593053">
<time>2015-09-27T16:03:41Z</time></trkpt>
<trkpt lat="24.736021" lon="105.593043">
<time>2015-09-27T16:03:42Z</time></trkpt>
<trkpt lat="24.735941" lon="105.593033">
<time>2015-09-27T16:03:43Z</time></trkpt>
<trkpt lat="24.735861" lon="105.593023">
<time>2015-09-27T16:03:44Z</time></trkpt>
<trkpt lat="24.735781" lon="105.593003">
<time>2015-09-27T16:03:45Z</time></trkpt>
<trkpt lat="24.735691" lon="105.592983">
<time>2015-09-27T16:03:46Z</time></trkpt>
<trkpt lat="24.735621" lon="105.592963">
<time>2015-09-27T16:03:47Z</time></trkpt>
<trkpt lat="24.735541" lon="105.592943">
<time>2015-09-27T16:03:48Z</time></trkpt>
<trkpt lat="24.735501" lon="105.592923">
<time>2015-09-27T16:03:49Z</time></trkpt>
<trkpt lat="24.735471" lon="105.592913">
<time>2015-09-27T16:03:50Z</time></trkpt>
<trkpt lat="24.735441" lon="105.592903">
<time>2015-09-27T16:03:51Z</time></trkpt>
<trkpt lat="24.735401" lon="105.592883">
<time>2015-09-27T16:03:52Z</time></trkpt>
<trkpt lat="24.735371" lon="105.592873">
<time>2015-09-27T16:03:53Z</time></trkpt>
<trkpt lat="24.735331" lon="105.592853">
<time>2015-09-27T16:03:54Z</time></trkpt>
<trkpt lat="24.735291" lon="105.592833">
<time>2015-09-27T16:03:55Z</time></trkpt>
<trkpt lat="24.735261" lon="105.592823">
<time>2015-09-27T16:03:56Z</time></trkpt>
<trkpt lat="24.735221" lon="105.592793">
<time>2015-09-27T16:03:57Z</time></trkpt>
<trkpt lat="24.735181" lon="105.592773">
<time>2015-09-27T16:03:58Z</time></trkpt>
<trkpt lat="24.735141" lon="105.592753">
<time>2015-09-27T16:03:59Z</time></trkpt>
<trkpt lat="24.735101" lon="105.592723">
<time>2015-09-27T16:04:00Z</time></trkpt>
<trkpt lat="24.735071" lon="105.592703">
<time>2015-09-27T16:04:01Z</time></trkpt>
<trkpt lat="24.735051" lon="105.592673">
<time>2015-09-27T16:04:02Z</time></trkpt>
<trkpt lat="24.735031" lon="105.592633">
<time>2015-09-27T16:04:03Z</time></trkpt>
<trkpt lat="24.735011" lon="105.592603">
<time>2015-09-27T16:04:04Z</time></trkpt>
<trkpt lat="24.735011" lon="105.592573">
<time>2015-09-27T16:04:05Z</time></trkpt>
<trkpt lat="24.735011" lon="105.592543">
<time>2015-09-27T16:04:06Z</time></trkpt>
<trkpt lat="24.735021" lon="105.592513">
<time>2015-09-27T16:04:07Z</time></trkpt>
<trkpt lat="24.735031" lon="105.592473">
<time>2015-09-27T16:04:08Z</time></trkpt>
<trkpt lat="24.735041" lon="105.592443">
<time>2015-09-27T16:04:09Z</time></trkpt>
<trkpt lat="24.735061" lon="105.592413">
<time>2015-09-27T16:04:10Z</time></trkpt>
<trkpt lat="24.735071" lon="105.592383">
<time>2015-09-27T16:04:11Z</time></trkpt>
<trkpt lat="24.735091" lon="105.592363">
<time>2015-09-27T16:04:12Z</time></trkpt>
<trkpt lat="24.735131" lon="105.592323">
<time>2015-09-27T16:04:13Z</time></trkpt>
<trkpt lat="24.735161" lon="105.592293">
<time>2015-09-27T16:04:14Z</time></trkpt>
<trkpt lat="24.735201" lon="105.592263">
<time>2015-09-27T16:04:15Z</time></trkpt>
<trkpt lat="24.735231" lon="105.592233">
<time>2015-09-27T16:04:16Z</time></trkpt>
<trkpt lat="24.735261" lon="105.592203">
<time>2015-09-27T16:04:17Z</time></trkpt>
<trkpt lat="24.735291" lon="105.592173">
<time>2015-09-27T16:04:18Z</time></trkpt>
<trkpt lat="24.735311" lon="105.592143">
<time>2015-09-27T16:04:19Z</time></trkpt>
<trkpt lat="24.735331" lon="105.592113">
<time>2015-09-27T16:04:20Z</time></trkpt>
<trkpt lat="24.735331" lon="105.592083">
<time>2015-09-27T16:04:21Z</time></trkpt>
<trkpt lat="24.735331" lon="105.592043">
<time>2015-09-27T16:04:22Z</time></trkpt>
<trkpt lat="24.735331" lon="105.592013">
<time>2015-09-27T16:04:23Z</time></trkpt>
<trkpt lat="24.735321" lon="105.591973">
<time>2015-09-27T16:04:24Z</time></trkpt>
<trkpt lat="24.735321" lon="105.591933">
<time>2015-09-27T16:04:25Z</time></trkpt>
<trkpt lat="24.735301" lon="105.591903">
<time>2015-09-27T16:04:26Z</time></trkpt>
<trkpt lat="24.735291" lon="105.591863">
<time>2015-09-27T16:04:27Z</time></trkpt>
<trkpt lat="24.735261" lon="105.591763">
<time>2015-09-27T16:04:28Z</time></trkpt>
<trkpt lat="24.735241" lon="105.591713">
<time>2015-09-27T16:04:29Z</time></trkpt>
<trkpt lat="24.735221" lon="105.591653">
<time>2015-09-27T16:04:30Z</time></trkpt>
<trkpt lat="24.735211" lon="105.591603">
<time>2015-09-27T16:04:31Z</time></trkpt>
<trkpt lat="24.735191" lon="105.591553">
<time>2015-09-27T16:04:32Z</time></trkpt>
<trkpt lat="24.735181" lon="105.591493">
<time>2015-09-27T16:04:33Z</time></trkpt>
<trkpt lat="24.735161" lon="105.591443">
<time>2015-09-27T16:04:34Z</time></trkpt>
<trkpt lat="24.735151" lon="105.591383">
<time>2015-09-27T16:04:35Z</time></trkpt>
<trkpt lat="24.735151" lon="105.591353">
<time>2015-09-27T16:04:36Z</time></trkpt>
<trkpt lat="24.735141" lon="105.591313">
<time>2015-09-27T16:04:37Z</time></trkpt>
<trkpt lat="24.735141" lon="105.591283">
<time>2015-09-27T16:04:38Z</time></trkpt>
<trkpt lat="24.735141" lon="105.591243">
<time>2015-09-27T16:04:39Z</time></trkpt>
<trkpt lat="24.735141" lon="105.591213">
<time>2015-09-27T16:04:40Z</time></trkpt>
<trkpt lat="24.735141" lon="105.591173">
<time>2015-09-27T16:04:41Z</time></trkpt>
<trkpt lat="24.735151" lon="105.591143">
<time>2015-09-27T16:04:42Z</time></trkpt>
<trkpt lat="24.735151" lon="105.591104">
<time>2015-09-27T16:04:43Z</time></trkpt>
<trkpt lat="24.735171" lon="105.591064">
<time>2015-09-27T16:04:44Z</time></trkpt>
<trkpt lat="24.735201" lon="105.591014">
<time>2015-09-27T16:04:45Z</time></trkpt>
<trkpt lat="24.735231" lon="105.590974">
<time>2015-09-27T16:04:46Z</time></trkpt>
<trkpt lat="24.735261" lon="105.590934">
<time>2015-09-27T16:04:47Z</time></trkpt>
<trkpt lat="24.735301" lon="105.590904">
<time>2015-09-27T16:04:48Z</time></trkpt>
<trkpt lat="24.735341" lon="105.590874">
<time>2015-09-27T16:04:49Z</time></trkpt>
<trkpt lat="24.735391" lon="105.590844">
<time>2015-09-27T16:04:50Z</time></trkpt>
<trkpt lat="24.735431" lon="105.590824">
<time>2015-09-27T16:04:51Z</time></trkpt>
<trkpt lat="24.735481" lon="105.590794">
<time>2015-09-27T16:04:52Z</time></trkpt>
<trkpt lat="24.735541" lon="105.590784">
<time>2015-09-27T16:04:53Z</time></trkpt>
<trkpt lat="24.735591" lon="105.590764">
<time>2015-09-27T16:04:54Z</time></trkpt>
<trkpt lat="24.735651" lon="105.590764">
<time>2015-09-27T16:04:55Z</time></trkpt>
<trkpt lat="24.735711" lon="105.590754">
<time>2015-09-27T16:04:56Z</time></trkpt>
<trkpt lat="24.735761" lon="105.590754">
<time>2015-09-27T16:04:57Z</time></trkpt>
<trkpt lat="24.735821" lon="105.590744">
<time>2015-09-27T16:04:58Z</time></trkpt>
<trkpt lat="24.735871" lon="105.590744">
<time>2015-09-27T16:04:59Z</time></trkpt>
<trkpt lat="24.735921" lon="105.590744">
<time>2015-09-27T16:05:00Z</time></trkpt>
<trkpt lat="24.735971" lon="105.590734">
<time>2015-09-27T16:05:01Z</time></trkpt>
<trkpt lat="24.736021" lon="105.590734">
<time>2015-09-27T16:05:02Z</time></trkpt>
<trkpt lat="24.736071" lon="105.590724">
<time>2015-09-27T16:05:03Z</time></trkpt>
<trkpt lat="24.736121" lon="105.590724">
<time>2015-09-27T16:05:04Z</time></trkpt>
<trkpt lat="24.736171" lon="105.590714">
<time>2015-09-27T16:05:05Z</time></trkpt>
<trkpt lat="24.736221" lon="105.590704">
<time>2015-09-27T16:05:06Z</time></trkpt>
<trkpt lat="24.736271" lon="105.590694">
<time>2015-09-27T16:05:07Z</time></trkpt>
<trkpt lat="24.736301" lon="105.590684">
<time>2015-09-27T16:05:08Z</time></trkpt>
<trkpt lat="24.736341" lon="105.590674">
<time>2015-09-27T16:05:09Z</time></trkpt>
<trkpt lat="24.736381" lon="105.590664">
<time>2015-09-27T16:05:10Z</time></trkpt>
<trkpt lat="24.736421" lon="105.590644">
<time>2015-09-27T16:05:11Z</time></trkpt>
<trkpt lat="24.736461" lon="105.590634">
<time>2015-09-27T16:05:12Z</time></trkpt>
<trkpt lat="24.736491" lon="105.590614">
<time>2015-09-27T16:05:13Z</time></trkpt>
<trkpt lat="24.736531" lon="105.590594">
<time>2015-09-27T16:05:14Z</time></trkpt>
<trkpt lat="24.736561" lon="105.590564">
<time>2015-09-27T16:05:15Z</time></trkpt>
<trkpt lat="24.736591" lon="105.590544">
<time>2015-09-27T16:05:16Z</time></trkpt>
<trkpt lat="24.736621" lon="105.590524">
<time>2015-09-27T16:05:17Z</time></trkpt>
<trkpt lat="24.736641" lon="105.590504">
<time>2015-09-27T16:05:18Z</time></trkpt>
<trkpt lat="24.736661" lon="105.590474">
<time>2015-09-27T16:05:19Z</time></trkpt>
<trkpt lat="24.736681" lon="105.590444">
<time>2015-09-27T16:05:20Z</time></trkpt>
<trkpt lat="24.736701" lon="105.590424">
<time>2015-09-27T16:05:21Z</time></trkpt>
<trkpt lat="24.736721" lon="105.590394">
<time>2015-09-27T16:05:22Z</time></trkpt>
<trkpt lat="24.736731" lon="105.590364">
<time>2015-09-27T16:05:23Z</time></trkpt>
<trkpt lat="24.736741" lon="105.590314">
<time>2015-09-27T16:05:24Z</time></trkpt>
<trkpt lat="24.736751" lon="105.590274">
<time>2015-09-27T16:05:25Z</time></trkpt>
<trkpt lat="24.736751" lon="105.590234">
<time>2015-09-27T16:05:26Z</time></trkpt>
<trkpt lat="24.736741" lon="105.590184">
<time>2015-09-27T16:05:27Z</time></trkpt>
<trkpt lat="24.736731" lon="105.590144">
<time>2015-09-27T16:05:28Z</time></trkpt>
<trkpt lat="24.736721" lon="105.590094">
<time>2015-09-27T16:05:29Z</time></trkpt>
<trkpt lat="24.736711" lon="105.590054">
<time>2015-09-27T16:05:30Z</time></trkpt>
<trkpt lat="24.736691" lon="105.590014">
<time>2015-09-27T16:05:31Z</time></trkpt>
<trkpt lat="24.736661" lon="105.589964">
<time>2015-09-27T16:05:32Z</time></trkpt>
<trkpt lat="24.736631" lon="105.589914">
<time>2015-09-27T16:05:33Z</time></trkpt>
<trkpt lat="24.736601" lon="105.589874">
<time>2015-09-27T16:05:34Z</time></trkpt>
<trkpt lat="24.736571" lon="105.589834">
<time>2015-09-27T16:05:35Z</time></trkpt>
<trkpt lat="24.736531" lon="105.589804">
<time>2015-09-27T16:05:36Z</time></trkpt>
<trkpt lat="24.736491" lon="105.589764">
<time>2015-09-27T16:05:37Z</time></trkpt>
<trkpt lat="24.736451" lon="105.589734">
<time>2015-09-27T16:05:38Z</time></trkpt>
<trkpt lat="24.736411" lon="105.589704">
<time>2015-09-27T16:05:39Z</time></trkpt>
<trkpt lat="24.736371" lon="105.589674">
<time>2015-09-27T16:05:40Z</time></trkpt>
<trkpt lat="24.736331" lon="105.589644">
<time>2015-09-27T16:05:41Z</time></trkpt>
<trkpt lat="24.736291" lon="105.589614">
<time>2015-09-27T16:05:42Z</time></trkpt>
<trkpt lat="24.736251" lon="105.589584">
<time>2015-09-27T16:05:43Z</time></trkpt>
<trkpt lat="24.736211" lon="105.589554">
<time>2015-09-27T16:05:44Z</time></trkpt>
<trkpt lat="24.736181" lon="105.589524">
<time>2015-09-27T16:05:45Z</time></trkpt>
<trkpt lat="24.736141" lon="105.589494">
<time>2015-09-27T16:05:46Z</time></trkpt>
<trkpt lat="24.736121" lon="105.589454">
<time>2015-09-27T16:05:47Z</time></trkpt>
<trkpt lat="24.736091" lon="105.589414">
<time>2015-09-27T16:05:48Z</time></trkpt>
<trkpt lat="24.736071" lon="105.589374">
<time>2015-09-27T16:05:49Z</time></trkpt>
<trkpt lat="24.736061" lon="105.589334">
<time>2015-09-27T16:05:50Z</time></trkpt>
<trkpt lat="24.736041" lon="105.589294">
<time>2015-09-27T16:05:51Z</time></trkpt>
<trkpt lat="24.736031" lon="105.589254">
<time>2015-09-27T16:05:52Z</time></trkpt>
<trkpt lat="24.736021" lon="105.589204">
<time>2015-09-27T16:05:53Z</time></trkpt>
<trkpt lat="24.736011" lon="105.589154">
<time>2015-09-27T16:05:54Z</time></trkpt>
<trkpt lat="24.736011" lon="105.589114">
<time>2015-09-27T16:05:55Z</time></trkpt>
<trkpt lat="24.736001" lon="105.589054">
<time>2015-09-27T16:05:56Z</time></trkpt>
<trkpt lat="24.736001" lon="105.589004">
<time>2015-09-27T16:05:57Z</time></trkpt>
<trkpt lat="24.736001" lon="105.588954">
<time>2015-09-27T16:05:58Z</time></trkpt>
<trkpt lat="24.736001" lon="105.588894">
<time>2015-09-27T16:05:59Z</time></trkpt>
<trkpt lat="24.736011" lon="105.588844">
<time>2015-09-27T16:06:00Z</time></trkpt>
<trkpt lat="24.736021" lon="105.588794">
<time>2015-09-27T16:06:01Z</time></trkpt>
<trkpt lat="24.736031" lon="105.588744">
<time>2015-09-27T16:06:02Z</time></trkpt>
<trkpt lat="24.736051" lon="105.588694">
<time>2015-09-27T16:06:03Z</time></trkpt>
<trkpt lat="24.736081" lon="105.588624">
<time>2015-09-27T16:06:04Z</time></trkpt>
<trkpt lat="24.73611" lon="105.588564">
<time>2015-09-27T16:06:05Z</time></trkpt>
<trkpt lat="24.73616" lon="105.588504">
<time>2015-09-27T16:06:06Z</time></trkpt>
<trkpt lat="24.7362" lon="105.588444">
<time>2015-09-27T16:06:07Z</time></trkpt>
<trkpt lat="24.73625" lon="105.588394">
<time>2015-09-27T16:06:08Z</time></trkpt>
<trkpt lat="24.73631" lon="105.588344">
<time>2015-09-27T16:06:09Z</time></trkpt>
<trkpt lat="24.73636" lon="105.588294">
<time>2015-09-27T16:06:10Z</time></trkpt>
<trkpt lat="24.73641" lon="105.588234">
<time>2015-09-27T16:06:11Z</time></trkpt>
<trkpt lat="24.73659" lon="105.588074">
<time>2015-09-27T16:06:12Z</time></trkpt>
<trkpt lat="24.73671" lon="105.587964">
<time>2015-09-27T16:06:13Z</time></trkpt>
<trkpt lat="24.73676" lon="105.587914">
<time>2015-09-27T16:06:14Z</time></trkpt>
<trkpt lat="24.73682" lon="105.587864">
<time>2015-09-27T16:06:15Z</time></trkpt>
<trkpt lat="24.73692" lon="105.587774">
<time>2015-09-27T16:06:16Z</time></trkpt>
<trkpt lat="24.73696" lon="105.587744">
<time>2015-09-27T16:06:17Z</time></trkpt>
<trkpt lat="24.73699" lon="105.587704">
<time>2015-09-27T16:06:18Z</time></trkpt>
<trkpt lat="24.73702" lon="105.587674">
<time>2015-09-27T16:06:19Z</time></trkpt>
<trkpt lat="24.73705" lon="105.587634">
<time>2015-09-27T16:06:20Z</time></trkpt>
<trkpt lat="24.73708" lon="105.587604">
<time>2015-09-27T16:06:21Z</time></trkpt>
<trkpt lat="24.7371" lon="105.587564">
<time>2015-09-27T16:06:22Z</time></trkpt>
<trkpt lat="24.73712" lon="105.587514">
<time>2015-09-27T16:06:23Z</time></trkpt>
<trkpt lat="24.73713" lon="105.587485">
<time>2015-09-27T16:06:24Z</time></trkpt>
<trkpt lat="24.73713" lon="105.587455">
<time>2015-09-27T16:06:25Z</time></trkpt>
<trkpt lat="24.73714" lon="105.587415">
<time>2015-09-27T16:06:26Z</time></trkpt>
<trkpt lat="24.73714" lon="105.587385">
<time>2015-09-27T16:06:27Z</time></trkpt>
<trkpt lat="24.73714" lon="105.587355">
<time>2015-09-27T16:06:28Z</time></trkpt>
<trkpt lat="24.73713" lon="105.587315">
<time>2015-09-27T16:06:29Z</time></trkpt>
<trkpt lat="24.73713" lon="105.587285">
<time>2015-09-27T16:06:30Z</time></trkpt>
<trkpt lat="24.73712" lon="105.587255">
<time>2015-09-27T16:06:31Z</time></trkpt>
<trkpt lat="24.7371" lon="105.587215">
<time>2015-09-27T16:06:32Z</time></trkpt>
<trkpt lat="24.73709" lon="105.587175">
<time>2015-09-27T16:06:33Z</time></trkpt>
<trkpt lat="24.73707" lon="105.587145">
<time>2015-09-27T16:06:34Z</time></trkpt>
<trkpt lat="24.73704" lon="105.587075">
<time>2015-09-27T16:06:35Z</time></trkpt>
<trkpt lat="24.73702" lon="105.587045">
<time>2015-09-27T16:06:36Z</time></trkpt>
<trkpt lat="24.73701" lon="105.587005">
<time>2015-09-27T16:06:37Z</time></trkpt>
<trkpt lat="24.73699" lon="105.586975">
<time>2015-09-27T16:06:38Z</time></trkpt>
<trkpt lat="24.73698" lon="105.586935">
<time>2015-09-27T16:06:39Z</time></trkpt>
<trkpt lat="24.73698" lon="105.586905">
<time>2015-09-27T16:06:40Z</time></trkpt>
<trkpt lat="24.73697" lon="105.586865">
<time>2015-09-27T16:06:41Z</time></trkpt>
<trkpt lat="24.73697" lon="105.586825">
<time>2015-09-27T16:06:42Z</time></trkpt>
<trkpt lat="24.73697" lon="105.586785">
<time>2015-09-27T16:06:43Z</time></trkpt>
<trkpt lat="24.73698" lon="105.586755">
<time>2015-09-27T16:06:44Z</time></trkpt>
<trkpt lat="24.73698" lon="105.586715">
<time>2015-09-27T16:06:45Z</time></trkpt>
<trkpt lat="24.73699" lon="105.586685">
<time>2015-09-27T16:06:46Z</time></trkpt>
<trkpt lat="24.73702" lon="105.586635">
<time>2015-09-27T16:06:47Z</time></trkpt>
<trkpt lat="24.73704" lon="105.586585">
<time>2015-09-27T16:06:48Z</time></trkpt>
<trkpt lat="24.73708" lon="105.586545">
<time>2015-09-27T16:06:49Z</time></trkpt>
<trkpt lat="24.73712" lon="105.586505">
<time>2015-09-27T16:06:50Z</time></trkpt>
<trkpt lat="24.73716" lon="105.586465">
<time>2015-09-27T16:06:51Z</time></trkpt>
<trkpt lat="24.7372" lon="105.586425">
<time>2015-09-27T16:06:52Z</time></trkpt>
<trkpt lat="24.73725" lon="105.586395">
<time>2015-09-27T16:06:53Z</time></trkpt>
<trkpt lat="24.73729" lon="105.586355">
<time>2015-09-27T16:06:54Z</time></trkpt>
<trkpt lat="24.73734" lon="105.586325">
<time>2015-09-27T16:06:55Z</time></trkpt>
<trkpt lat="24.73738" lon="105.586285">
<time>2015-09-27T16:06:56Z</time></trkpt>
<trkpt lat="24.7375" lon="105.586185">
<time>2015-09-27T16:06:57Z</time></trkpt>
<trkpt lat="24.73755" lon="105.586155">
<time>2015-09-27T16:06:58Z</time></trkpt>
<trkpt lat="24.73759" lon="105.586125">
<time>2015-09-27T16:06:59Z</time></trkpt>
<trkpt lat="24.73763" lon="105.586085">
<time>2015-09-27T16:07:00Z</time></trkpt>
<trkpt lat="24.73767" lon="105.586065">
<time>2015-09-27T16:07:01Z</time></trkpt>
<trkpt lat="24.73775" lon="105.586005">
<time>2015-09-27T16:07:02Z</time></trkpt>
<trkpt lat="24.73779" lon="105.585975">
<time>2015-09-27T16:07:03Z</time></trkpt>
<trkpt lat="24.73783" lon="105.585945">
<time>2015-09-27T16:07:04Z</time></trkpt>
<trkpt lat="24.73787" lon="105.585915">
<time>2015-09-27T16:07:05Z</time></trkpt>
<trkpt lat="24.7379" lon="105.585885">
<time>2015-09-27T16:07:06Z</time></trkpt>
<trkpt lat="24.73794" lon="105.585855">
<time>2015-09-27T16:07:07Z</time></trkpt>
<trkpt lat="24.737969" lon="105.585825">
<time>2015-09-27T16:07:08Z</time></trkpt>
<trkpt lat="24.737999" lon="105.585795">
<time>2015-09-27T16:07:09Z</time></trkpt>
<trkpt lat="24.738019" lon="105.585765">
<time>2015-09-27T16:07:10Z</time></trkpt>
<trkpt lat="24.738049" lon="105.585735">
<time>2015-09-27T16:07:11Z</time></trkpt>
<trkpt lat="24.738069" lon="105.585705">
<time>2015-09-27T16:07:12Z</time></trkpt>
<trkpt lat="24.738089" lon="105.585665">
<time>2015-09-27T16:07:13Z</time></trkpt>
<trkpt lat="24.738109" lon="105.585635">
<time>2015-09-27T16:07:14Z</time></trkpt>
<trkpt lat="24.738119" lon="105.585595">
<time>2015-09-27T16:07:15Z</time></trkpt>
<trkpt lat="24.738139" lon="105.585555">
<time>2015-09-27T16:07:16Z</time></trkpt>
<trkpt lat="24.738139" lon="105.585525">
<time>2015-09-27T16:07:17Z</time></trkpt>
<trkpt lat="24.738149" lon="105.585485">
<time>2015-09-27T16:07:18Z</time></trkpt>
<trkpt lat="24.738159" lon="105.585445">
<time>2015-09-27T16:07:19Z</time></trkpt>
<trkpt lat="24.738159" lon="105.585405">
<time>2015-09-27T16:07:20Z</time></trkpt>
<trkpt lat="24.738169" lon="105.585365">
<time>2015-09-27T16:07:21Z</time></trkpt>
<trkpt lat="24.738169" lon="105.585325">
<time>2015-09-27T16:07:22Z</time></trkpt>
<trkpt lat="24.738169" lon="105.585245">
<time>2015-09-27T16:07:23Z</time></trkpt>
<trkpt lat="24.738179" lon="105.585205">
<time>2015-09-27T16:07:24Z</time></trkpt>
<trkpt lat="24.738179" lon="105.585155">
<time>2015-09-27T16:07:25Z</time></trkpt>
<trkpt lat="24.738179" lon="105.585115">
<time>2015-09-27T16:07:26Z</time></trkpt>
<trkpt lat="24.738189" lon="105.585075">
<time>2015-09-27T16:07:27Z</time></trkpt>
<trkpt lat="24.738199" lon="105.585035">
<time>2015-09-27T16:07:28Z</time></trkpt>
<trkpt lat="24.738209" lon="105.585005">
<time>2015-09-27T16:07:29Z</time></trkpt>
<trkpt lat="24.738229" lon="105.584965">
<time>2015-09-27T16:07:30Z</time></trkpt>
<trkpt lat="24.738259" lon="105.584915">
<time>2015-09-27T16:07:31Z</time></trkpt>
<trkpt lat="24.738299" lon="105.584865">
<time>2015-09-27T16:07:32Z</time></trkpt>
<trkpt lat="24.738349" lon="105.584825">
<time>2015-09-27T16:07:33Z</time></trkpt>
<trkpt lat="24.738409" lon="105.584785">
<time>2015-09-27T16:07:34Z</time></trkpt>
<trkpt lat="24.738459" lon="105.584745">
<time>2015-09-27T16:07:35Z</time></trkpt>
<trkpt lat="24.738529" lon="105.584715">
<time>2015-09-27T16:07:36Z</time></trkpt>
<trkpt lat="24.738589" lon="105.584685">
<time>2015-09-27T16:07:37Z</time></trkpt>
<trkpt lat="24.738649" lon="105.584655">
<time>2015-09-27T16:07:38Z</time></trkpt>
<trkpt lat="24.738699" lon="105.584625">
<time>2015-09-27T16:07:39Z</time></trkpt>
<trkpt lat="24.738759" lon="105.584605">
<time>2015-09-27T16:07:40Z</time></trkpt>
<trkpt lat="24.738799" lon="105.584575">
<time>2015-09-27T16:07:41Z</time></trkpt>
<trkpt lat="24.738849" lon="105.584545">
<time>2015-09-27T16:07:42Z</time></trkpt>
<trkpt lat="24.738899" lon="105.584515">
<time>2015-09-27T16:07:43Z</time></trkpt>
<trkpt lat="24.738939" lon="105.584475">
<time>2015-09-27T16:07:44Z</time></trkpt>
<trkpt lat="24.738979" lon="105.584445">
<time>2015-09-27T16:07:45Z</time></trkpt>
<trkpt lat="24.739019" lon="105.584405">
<time>2015-09-27T16:07:46Z</time></trkpt>
<trkpt lat="24.739059" lon="105.584355">
<time>2015-09-27T16:07:47Z</time></trkpt>
<trkpt lat="24.739099" lon="105.584295">
<time>2015-09-27T16:07:48Z</time></trkpt>
<trkpt lat="24.739129" lon="105.584245">
<time>2015-09-27T16:07:49Z</time></trkpt>
<trkpt lat="24.739169" lon="105.584185">
<time>2015-09-27T16:07:50Z</time></trkpt>
<trkpt lat="24.739199" lon="105.584115">
<time>2015-09-27T16:07:51Z</time></trkpt>
<trkpt lat="24.739219" lon="105.584055">
<time>2015-09-27T16:07:52Z</time></trkpt>
<trkpt lat="24.739249" lon="105.583985">
<time>2015-09-27T16:07:53Z</time></trkpt>
<trkpt lat="24.739269" lon="105.583925">
<time>2015-09-27T16:07:54Z</time></trkpt>
<trkpt lat="24.739309" lon="105.583815">
<time>2015-09-27T16:07:55Z</time></trkpt>
<trkpt lat="24.739338" lon="105.583715">
<time>2015-09-27T16:07:56Z</time></trkpt>
<trkpt lat="24.739368" lon="105.583615">
<time>2015-09-27T16:07:57Z</time></trkpt>
<trkpt lat="24.739398" lon="105.583505">
<time>2015-09-27T16:07:58Z</time></trkpt>
<trkpt lat="24.739428" lon="105.583405">
<time>2015-09-27T16:07:59Z</time></trkpt>
<trkpt lat="24.739478" lon="105.583195">
<time>2015-09-27T16:08:00Z</time></trkpt>
<trkpt lat="24.739498" lon="105.583095">
<time>2015-09-27T16:08:01Z</time></trkpt>
<trkpt lat="24.739528" lon="105.582995">
<time>2015-09-27T16:08:02Z</time></trkpt>
<trkpt lat="24.739558" lon="105.582905">
<time>2015-09-27T16:08:03Z</time></trkpt>
<trkpt lat="24.739578" lon="105.582805">
<time>2015-09-27T16:08:04Z</time></trkpt>
<trkpt lat="24.739608" lon="105.582715">
<time>2015-09-27T16:08:05Z</time></trkpt>
<trkpt lat="24.739648" lon="105.582625">
<time>2015-09-27T16:08:06Z</time></trkpt>
<trkpt lat="24.739678" lon="105.582535">
<time>2015-09-27T16:08:07Z</time></trkpt>
<trkpt lat="24.739718" lon="105.582445">
<time>2015-09-27T16:08:08Z</time></trkpt>
<trkpt lat="24.739758" lon="105.582355">
<time>2015-09-27T16:08:09Z</time></trkpt>
<trkpt lat="24.739798" lon="105.582275">
<time>2015-09-27T16:08:10Z</time></trkpt>
<trkpt lat="24.739848" lon="105.582195">
<time>2015-09-27T16:08:11Z</time></trkpt>
<trkpt lat="24.739888" lon="105.582125">
<time>2015-09-27T16:08:12Z</time></trkpt>
<trkpt lat="24.739938" lon="105.582055">
<time>2015-09-27T16:08:13Z</time></trkpt>
<trkpt lat="24.739988" lon="105.581985">
<time>2015-09-27T16:08:14Z</time></trkpt>
<trkpt lat="24.740048" lon="105.581925">
<time>2015-09-27T16:08:15Z</time></trkpt>
<trkpt lat="24.740107" lon="105.581855">
<time>2015-09-27T16:08:16Z</time></trkpt>
<trkpt lat="24.740167" lon="105.581795">
<time>2015-09-27T16:08:17Z</time></trkpt>
<trkpt lat="24.740217" lon="105.581745">
<time>2015-09-27T16:08:18Z</time></trkpt>
<trkpt lat="24.740277" lon="105.581705">
<time>2015-09-27T16:08:19Z</time></trkpt>
<trkpt lat="24.740327" lon="105.581655">
<time>2015-09-27T16:08:20Z</time></trkpt>
<trkpt lat="24.740387" lon="105.581615">
<time>2015-09-27T16:08:21Z</time></trkpt>
<trkpt lat="24.740447" lon="105.581565">
<time>2015-09-27T16:08:22Z</time></trkpt>
<trkpt lat="24.740507" lon="105.581525">
<time>2015-09-27T16:08:23Z</time></trkpt>
<trkpt lat="24.740567" lon="105.581485">
<time>2015-09-27T16:08:24Z</time></trkpt>
<trkpt lat="24.740627" lon="105.581455">
<time>2015-09-27T16:08:25Z</time></trkpt>
<trkpt lat="24.740677" lon="105.581415">
<time>2015-09-27T16:08:26Z</time></trkpt>
<trkpt lat="24.740727" lon="105.581385">
<time>2015-09-27T16:08:27Z</time></trkpt>
<trkpt lat="24.740787" lon="105.581355">
<time>2015-09-27T16:08:28Z</time></trkpt>
<trkpt lat="24.740837" lon="105.581325">
<time>2015-09-27T16:08:29Z</time></trkpt>
<trkpt lat="24.740887" lon="105.581305">
<time>2015-09-27T16:08:30Z</time></trkpt>
<trkpt lat="24.740947" lon="105.581275">
<time>2015-09-27T16:08:31Z</time></trkpt>
<trkpt lat="24.740997" lon="105.581255">
<time>2015-09-27T16:08:32Z</time></trkpt>
<trkpt lat="24.741057" lon="105.581235">
<time>2015-09-27T16:08:33Z</time></trkpt>
<trkpt lat="24.741117" lon="105.581215">
<time>2015-09-27T16:08:34Z</time></trkpt>
<trkpt lat="24.741177" lon="105.581205">
<time>2015-09-27T16:08:35Z</time></trkpt>
<trkpt lat="24.741247" lon="105.581185">
<time>2015-09-27T16:08:36Z</time></trkpt>
<trkpt lat="24.741307" lon="105.581175">
<time>2015-09-27T16:08:37Z</time></trkpt>
<trkpt lat="24.741377" lon="105.581175">
<time>2015-09-27T16:08:38Z</time></trkpt>
<trkpt lat="24.741507" lon="105.581155">
<time>2015-09-27T16:08:39Z</time></trkpt>
<trkpt lat="24.741577" lon="105.581145">
<time>2015-09-27T16:08:40Z</time></trkpt>
<trkpt lat="24.741607" lon="105.581145">
<time>2015-09-27T16:08:41Z</time></trkpt>
<trkpt lat="24.741647" lon="105.581135">
<time>2015-09-27T16:08:42Z</time></trkpt>
<trkpt lat="24.741677" lon="105.581125">
<time>2015-09-27T16:08:43Z</time></trkpt>
<trkpt lat="24.741717" lon="105.581125">
<time>2015-09-27T16:08:44Z</time></trkpt>
<trkpt lat="24.741747" lon="105.581115">
<time>2015-09-27T16:08:45Z</time></trkpt>
<trkpt lat="24.741787" lon="105.581095">
<time>2015-09-27T16:08:46Z</time></trkpt>
<trkpt lat="24.741817" lon="105.581085">
<time>2015-09-27T16:08:47Z</time></trkpt>
<trkpt lat="24.741857" lon="105.581065">
<time>2015-09-27T16:08:48Z</time></trkpt>
<trkpt lat="24.741887" lon="105.581055">
<time>2015-09-27T16:08:49Z</time></trkpt>
<trkpt lat="24.741917" lon="105.581025">
<time>2015-09-27T16:08:50Z</time></trkpt>
<trkpt lat="24.741947" lon="105.581005">
<time>2015-09-27T16:08:51Z</time></trkpt>
<trkpt lat="24.741977" lon="105.580985">
<time>2015-09-27T16:08:52Z</time></trkpt>
<trkpt lat="24.742007" lon="105.580955">
<time>2015-09-27T16:08:53Z</time></trkpt>
<trkpt lat="24.742027" lon="105.580925">
<time>2015-09-27T16:08:54Z</time></trkpt>
<trkpt lat="24.742047" lon="105.580895">
<time>2015-09-27T16:08:55Z</time></trkpt>
<trkpt lat="24.742067" lon="105.580855">
<time>2015-09-27T16:08:56Z</time></trkpt>
<trkpt lat="24.742077" lon="105.580815">
<time>2015-09-27T16:08:57Z</time></trkpt>
<trkpt lat="24.742087" lon="105.580775">
<time>2015-09-27T16:08:58Z</time></trkpt>
<trkpt lat="24.742087" lon="105.580735">
<time>2015-09-27T16:08:59Z</time></trkpt>
<trkpt lat="24.742087" lon="105.580685">
<time>2015-09-27T16:09:00Z</time></trkpt>
<trkpt lat="24.742077" lon="105.580645">
<time>2015-09-27T16:09:01Z</time></trkpt>
<trkpt lat="24.742077" lon="105.580595">
<time>2015-09-27T16:09:02Z</time></trkpt>
<trkpt lat="24.742067" lon="105.580545">
<time>2015-09-27T16:09:03Z</time></trkpt>
<trkpt lat="24.742047" lon="105.580445">
<time>2015-09-27T16:09:04Z</time></trkpt>
<trkpt lat="24.742036" lon="105.580395">
<time>2015-09-27T16:09:05Z</time></trkpt>
<trkpt lat="24.742026" lon="105.580335">
<time>2015-09-27T16:09:06Z</time></trkpt>
<trkpt lat="24.742016" lon="105.580285">
<time>2015-09-27T16:09:07Z</time></trkpt>
<trkpt lat="24.742016" lon="105.580235">
<time>2015-09-27T16:09:08Z</time></trkpt>
<trkpt lat="24.742016" lon="105.580185">
<time>2015-09-27T16:09:09Z</time></trkpt>
<trkpt lat="24.742016" lon="105.580135">
<time>2015-09-27T16:09:10Z</time></trkpt>
<trkpt lat="24.742026" lon="105.580095">
<time>2015-09-27T16:09:11Z</time></trkpt>
<trkpt lat="24.742056" lon="105.580025">
<time>2015-09-27T16:09:12Z</time></trkpt>
<trkpt lat="24.742096" lon="105.579965">
<time>2015-09-27T16:09:13Z</time></trkpt>
<trkpt lat="24.742156" lon="105.579905">
<time>2015-09-27T16:09:14Z</time></trkpt>
<trkpt lat="24.742216" lon="105.579855">
<time>2015-09-27T16:09:15Z</time></trkpt>
<trkpt lat="24.742286" lon="105.579815">
<time>2015-09-27T16:09:16Z</time></trkpt>
<trkpt lat="24.742356" lon="105.579764">
<time>2015-09-27T16:09:17Z</time></trkpt>
<trkpt lat="24.742436" lon="105.579724">
<time>2015-09-27T16:09:18Z</time></trkpt>
<trkpt lat="24.742516" lon="105.579684">
<time>2015-09-27T16:09:19Z</time></trkpt>
<trkpt lat="24.742606" lon="105.579644">
<time>2015-09-27T16:09:20Z</time></trkpt>
<trkpt lat="24.742686" lon="105.579604">
<time>2015-09-27T16:09:21Z</time></trkpt>
<trkpt lat="24.742776" lon="105.579554">
<time>2015-09-27T16:09:22Z</time></trkpt>
<trkpt lat="24.742856" lon="105.579514">
<time>2015-09-27T16:09:23Z</time></trkpt>
<trkpt lat="24.742936" lon="105.579464">
<time>2015-09-27T16:09:24Z</time></trkpt>
<trkpt lat="24.743006" lon="105.579414">
<time>2015-09-27T16:09:25Z</time></trkpt>
<trkpt lat="24.743086" lon="105.579364">
<time>2015-09-27T16:09:26Z</time></trkpt>
<trkpt lat="24.743146" lon="105.579304">
<time>2015-09-27T16:09:27Z</time></trkpt>
<trkpt lat="24.743216" lon="105.579234">
<time>2015-09-27T16:09:28Z</time></trkpt>
<trkpt lat="24.743276" lon="105.579164">
<time>2015-09-27T16:09:29Z</time></trkpt>
<trkpt lat="24.743336" lon="105.579084">
<time>2015-09-27T16:09:30Z</time></trkpt>
<trkpt lat="24.743395" lon="105.579004">
<time>2015-09-27T16:09:31Z</time></trkpt>
<trkpt lat="24.743455" lon="105.578924">
<time>2015-09-27T16:09:32Z</time></trkpt>
<trkpt lat="24.743505" lon="105.578834">
<time>2015-09-27T16:09:33Z</time></trkpt>
<trkpt lat="24.743565" lon="105.578744">
<time>2015-09-27T16:09:34Z</time></trkpt>
<trkpt lat="24.743655" lon="105.578594">
<time>2015-09-27T16:09:35Z</time></trkpt>
<trkpt lat="24.743695" lon="105.578534">
<time>2015-09-27T16:09:36Z</time></trkpt>
<trkpt lat="24.743735" lon="105.578474">
<time>2015-09-27T16:09:37Z</time></trkpt>
<trkpt lat="24.743775" lon="105.578404">
<time>2015-09-27T16:09:38Z</time></trkpt>
<trkpt lat="24.743815" lon="105.578354">
<time>2015-09-27T16:09:39Z</time></trkpt>
<trkpt lat="24.743855" lon="105.578294">
<time>2015-09-27T16:09:40Z</time></trkpt>
<trkpt lat="24.743905" lon="105.578234">
<time>2015-09-27T16:09:41Z</time></trkpt>
<trkpt lat="24.743955" lon="105.578184">
<time>2015-09-27T16:09:42Z</time></trkpt>
<trkpt lat="24.744015" lon="105.578124">
<time>2015-09-27T16:09:43Z</time></trkpt>
<trkpt lat="24.744085" lon="105.578064">
<time>2015-09-27T16:09:44Z</time></trkpt>
<trkpt lat="24.744155" lon="105.578014">
<time>2015-09-27T16:09:45Z</time></trkpt>
<trkpt lat="24.744225" lon="105.577954">
<time>2015-09-27T16:09:46Z</time></trkpt>
<trkpt lat="24.744305" lon="105.577904">
<time>2015-09-27T16:09:47Z</time></trkpt>
<trkpt lat="24.744375" lon="105.577854">
<time>2015-09-27T16:09:48Z</time></trkpt>
<trkpt lat="24.744445" lon="105.577794">
<time>2015-09-27T16:09:49Z</time></trkpt>
<trkpt lat="24.744514" lon="105.577744">
<time>2015-09-27T16:09:50Z</time></trkpt>
<trkpt lat="24.744574" lon="105.577694">
<time>2015-09-27T16:09:51Z</time></trkpt>
<trkpt lat="24.744624" lon="105.577644">
<time>2015-09-27T16:09:52Z</time></trkpt>
<trkpt lat="24.744734" lon="105.577544">
<time>2015-09-27T16:09:53Z</time></trkpt>
<trkpt lat="24.744784" lon="105.577494">
<time>2015-09-27T16:09:54Z</time></trkpt>
<trkpt lat="24.744844" lon="105.577444">
<time>2015-09-27T16:09:55Z</time></trkpt>
<trkpt lat="24.744894" lon="105.577394">
<time>2015-09-27T16:09:56Z</time></trkpt>
<trkpt lat="24.744954" lon="105.577354">
<time>2015-09-27T16:09:57Z</time></trkpt>
<trkpt lat="24.744984" lon="105.577334">
<time>2015-09-27T16:09:58Z</time></trkpt>
<trkpt lat="24.745024" lon="105.577314">
<time>2015-09-27T16:09:59Z</time></trkpt>
<trkpt lat="24.745054" lon="105.577294">
<time>2015-09-27T16:10:00Z</time></trkpt>
<trkpt lat="24.745094" lon="105.577284">
<time>2015-09-27T16:10:01Z</time></trkpt>
<trkpt lat="24.745124" lon="105.577264">
<time>2015-09-27T16:10:02Z</time></trkpt>
<trkpt lat="24.745164" lon="105.577254">
<time>2015-09-27T16:10:03Z</time></trkpt>
<trkpt lat="24.745194" lon="105.577234">
<time>2015-09-27T16:10:04Z</time></trkpt>
<trkpt lat="24.745234" lon="105.577224">
<time>2015-09-27T16:10:05Z</time></trkpt>
<trkpt lat="24.745314" lon="105.577204">
<time>2015-09-27T16:10:06Z</time></trkpt>
<trkpt lat="24.745394" lon="105.577174">
<time>2015-09-27T16:10:07Z</time></trkpt>
<trkpt lat="24.745484" lon="105.577164">
<time>2015-09-27T16:10:08Z</time></trkpt>
<trkpt lat="24.745564" lon="105.577144">
<time>2015-09-27T16:10:09Z</time></trkpt>
<trkpt lat="24.745654" lon="105.577134">
<time>2015-09-27T16:10:10Z</time></trkpt>
<trkpt lat="24.745824" lon="105.577104">
<time>2015-09-27T16:10:11Z</time></trkpt>
<trkpt lat="24.745904" lon="105.577094">
<time>2015-09-27T16:10:12Z</time></trkpt>
<trkpt lat="24.746004" lon="105.577074">
<time>2015-09-27T16:10:13Z</time></trkpt>
<trkpt lat="24.746114" lon="105.577054">
<time>2015-09-27T16:10:14Z</time></trkpt>
<trkpt lat="24.746214" lon="105.577024">
<time>2015-09-27T16:10:15Z</time></trkpt>
<trkpt lat="24.746314" lon="105.577004">
<time>2015-09-27T16:10:16Z</time></trkpt>
<trkpt lat="24.746414" lon="105.576974">
<time>2015-09-27T16:10:17Z</time></trkpt>
<trkpt lat="24.746514" lon="105.576944">
<time>2015-09-27T16:10:18Z</time></trkpt>
<trkpt lat="24.746614" lon="105.576914">
<time>2015-09-27T16:10:19Z</time></trkpt>
<trkpt lat="24.746714" lon="105.576874">
<time>2015-09-27T16:10:20Z</time></trkpt>
<trkpt lat="24.746814" lon="105.576834">
<time>2015-09-27T16:10:21Z</time></trkpt>
<trkpt lat="24.746904" lon="105.576794">
<time>2015-09-27T16:10:22Z</time></trkpt>
<trkpt lat="24.747004" lon="105.576754">
<time>2015-09-27T16:10:23Z</time></trkpt>
<trkpt lat="24.747104" lon="105.576704">
<time>2015-09-27T16:10:24Z</time></trkpt>
<trkpt lat="24.747193" lon="105.576654">
<time>2015-09-27T16:10:25Z</time></trkpt>
<trkpt lat="24.747283" lon="105.576594">
<time>2015-09-27T16:10:26Z</time></trkpt>
<trkpt lat="24.747373" lon="105.576544">
<time>2015-09-27T16:10:27Z</time></trkpt>
<trkpt lat="24.747463" lon="105.576483">
<time>2015-09-27T16:10:28Z</time></trkpt>
<trkpt lat="24.747553" lon="105.576423">
<time>2015-09-27T16:10:29Z</time></trkpt>
<trkpt lat="24.747633" lon="105.576363">
<time>2015-09-27T16:10:30Z</time></trkpt>
<trkpt lat="24.747713" lon="105.576303">
<time>2015-09-27T16:10:31Z</time></trkpt>
<trkpt lat="24.747793" lon="105.576243">
<time>2015-09-27T16:10:32Z</time></trkpt>
<trkpt lat="24.747873" lon="105.576193">
<time>2015-09-27T16:10:33Z</time></trkpt>
<trkpt lat="24.747963" lon="105.576133">
<time>2015-09-27T16:10:34Z</time></trkpt>
<trkpt lat="24.748043" lon="105.576093">
<time>2015-09-27T16:10:35Z</time></trkpt>
<trkpt lat="24.748133" lon="105.576043">
<time>2015-09-27T16:10:36Z</time></trkpt>
<trkpt lat="24.748193" lon="105.576023">
<time>2015-09-27T16:10:37Z</time></trkpt>
<trkpt lat="24.748263" lon="105.575993">
<time>2015-09-27T16:10:38Z</time></trkpt>
<trkpt lat="24.748333" lon="105.575973">
<time>2015-09-27T16:10:39Z</time></trkpt>
<trkpt lat="24.748403" lon="105.575963">
<time>2015-09-27T16:10:40Z</time></trkpt>
<trkpt lat="24.748463" lon="105.575943">
<time>2015-09-27T16:10:41Z</time></trkpt>
<trkpt lat="24.748533" lon="105.575923">
<time>2015-09-27T16:10:42Z</time></trkpt>
<trkpt lat="24.748753" lon="105.575883">
<time>2015-09-27T16:10:43Z</time></trkpt>
<trkpt lat="24.748833" lon="105.575863">
<time>2015-09-27T16:10:44Z</time></trkpt>
<trkpt lat="24.748913" lon="105.575843">
<time>2015-09-27T16:10:45Z</time></trkpt>
<trkpt lat="24.748993" lon="105.575833">
<time>2015-09-27T16:10:46Z</time></trkpt>
<trkpt lat="24.749073" lon="105.575813">
<time>2015-09-27T16:10:47Z</time></trkpt>
<trkpt lat="24.749153" lon="105.575793">
<time>2015-09-27T16:10:48Z</time></trkpt>
<trkpt lat="24.749233" lon="105.575763">
<time>2015-09-27T16:10:49Z</time></trkpt>
<trkpt lat="24.749313" lon="105.575743">
<time>2015-09-27T16:10:50Z</time></trkpt>
<trkpt lat="24.749403" lon="105.575713">
<time>2015-09-27T16:10:51Z</time></trkpt>
<trkpt lat="24.749493" lon="105.575683">
<time>2015-09-27T16:10:52Z</time></trkpt>
<trkpt lat="24.749573" lon="105.575653">
<time>2015-09-27T16:10:53Z</time></trkpt>
<trkpt lat="24.749662" lon="105.575623">
<time>2015-09-27T16:10:54Z</time></trkpt>
<trkpt lat="24.749752" lon="105.575593">
<time>2015-09-27T16:10:55Z</time></trkpt>
<trkpt lat="24.749832" lon="105.575553">
<time>2015-09-27T16:10:56Z</time></trkpt>
<trkpt lat="24.749922" lon="105.575513">
<time>2015-09-27T16:10:57Z</time></trkpt>
<trkpt lat="24.750002" lon="105.575473">
<time>2015-09-27T16:10:58Z</time></trkpt>
<trkpt lat="24.750012" lon="105.575473">
<time>2015-09-27T16:10:59Z</time></trkpt>
<trkpt lat="24.750092" lon="105.575433">
<time>2015-09-27T16:11:00Z</time></trkpt>
<trkpt lat="24.750192" lon="105.575383">
<time>2015-09-27T16:11:01Z</time></trkpt>
<trkpt lat="24.750282" lon="105.575333">
<time>2015-09-27T16:11:02Z</time></trkpt>
<trkpt lat="24.750372" lon="105.575293">
<time>2015-09-27T16:11:03Z</time></trkpt>
<trkpt lat="24.750552" lon="105.575193">
<time>2015-09-27T16:11:04Z</time></trkpt>
<trkpt lat="24.750642" lon="105.575143">
<time>2015-09-27T16:11:05Z</time></trkpt>
<trkpt lat="24.750732" lon="105.575093">
<time>2015-09-27T16:11:06Z</time></trkpt>
<trkpt lat="24.750862" lon="105.575023">
<time>2015-09-27T16:11:07Z</time></trkpt>
<trkpt lat="24.750922" lon="105.574993">
<time>2015-09-27T16:11:08Z</time></trkpt>
<trkpt lat="24.750992" lon="105.574953">
<time>2015-09-27T16:11:09Z</time></trkpt>
<trkpt lat="24.751282" lon="105.574853">
<time>2015-09-27T16:11:10Z</time></trkpt>
<trkpt lat="24.751332" lon="105.574833">
<time>2015-09-27T16:11:11Z</time></trkpt>
<trkpt lat="24.751332" lon="105.574833">
<time>2015-09-27T16:11:12Z</time></trkpt>
<trkpt lat="24.751322" lon="105.574783">
<time>2015-09-27T16:11:13Z</time></trkpt>
<trkpt lat="24.751322" lon="105.574723">
<time>2015-09-27T16:11:14Z</time></trkpt>
<trkpt lat="24.751322" lon="105.574663">
<time>2015-09-27T16:11:15Z</time></trkpt>
<trkpt lat="24.751341" lon="105.574573">
<time>2015-09-27T16:11:16Z</time></trkpt>
<trkpt lat="24.751371" lon="105.574503">
<time>2015-09-27T16:11:17Z</time></trkpt>
<trkpt lat="24.751411" lon="105.574423">
<time>2015-09-27T16:11:18Z</time></trkpt>
<trkpt lat="24.751481" lon="105.574323">
<time>2015-09-27T16:11:19Z</time></trkpt>
<trkpt lat="24.751511" lon="105.574283">
<time>2015-09-27T16:11:20Z</time></trkpt>
<trkpt lat="24.751581" lon="105.574242">
<time>2015-09-27T16:11:21Z</time></trkpt>
<trkpt lat="24.751641" lon="105.574202">
<time>2015-09-27T16:11:22Z</time></trkpt>
<trkpt lat="24.751731" lon="105.574162">
<time>2015-09-27T16:11:23Z</time></trkpt>
<trkpt lat="24.751821" lon="105.574132">
<time>2015-09-27T16:11:24Z</time></trkpt>
<trkpt lat="24.751951" lon="105.574102">
<time>2015-09-27T16:11:25Z</time></trkpt>
<trkpt lat="24.752141" lon="105.574042">
<time>2015-09-27T16:11:26Z</time></trkpt>
<trkpt lat="24.752291" lon="105.573982">
<time>2015-09-27T16:11:27Z</time></trkpt>
<trkpt lat="24.752451" lon="105.573902">
<time>2015-09-27T16:11:28Z</time></trkpt>
<trkpt lat="24.752571" lon="105.573822">
<time>2015-09-27T16:11:29Z</time></trkpt>
<trkpt lat="24.752631" lon="105.573782">
<time>2015-09-27T16:11:30Z</time></trkpt>
<trkpt lat="24.752681" lon="105.573732">
<time>2015-09-27T16:11:31Z</time></trkpt>
<trkpt lat="24.752731" lon="105.573672">
<time>2015-09-27T16:11:32Z</time></trkpt>
<trkpt lat="24.75278" lon="105.573602">
<time>2015-09-27T16:11:33Z</time></trkpt>
<trkpt lat="24.75281" lon="105.573552">
<time>2015-09-27T16:11:34Z</time></trkpt>
<trkpt lat="24.75286" lon="105.573462">
<time>2015-09-27T16:11:35Z</time></trkpt>
<trkpt lat="24.75302" lon="105.573122">
<time>2015-09-27T16:11:36Z</time></trkpt>
<trkpt lat="24.75307" lon="105.572992">
<time>2015-09-27T16:11:37Z</time></trkpt>
<trkpt lat="24.75311" lon="105.572862">
<time>2015-09-27T16:11:38Z</time></trkpt>
<trkpt lat="24.75314" lon="105.572702">
<time>2015-09-27T16:11:39Z</time></trkpt>
<trkpt lat="24.753149" lon="105.572502">
<time>2015-09-27T16:11:40Z</time></trkpt>
<trkpt lat="24.753139" lon="105.572352">
<time>2015-09-27T16:11:41Z</time></trkpt>
<trkpt lat="24.753139" lon="105.572281">
<time>2015-09-27T16:11:42Z</time></trkpt>
<trkpt lat="24.753048" lon="105.570781">
<time>2015-09-27T16:11:43Z</time></trkpt>
<trkpt lat="24.753027" lon="105.57041">
<time>2015-09-27T16:11:44Z</time></trkpt>
<trkpt lat="24.753017" lon="105.57033">
<time>2015-09-27T16:11:45Z</time></trkpt>
<trkpt lat="24.753007" lon="105.57023">
<time>2015-09-27T16:11:46Z</time></trkpt>
<trkpt lat="24.752876" lon="105.56973">
<time>2015-09-27T16:11:47Z</time></trkpt>
<trkpt lat="24.752816" lon="105.56944">
<time>2015-09-27T16:11:48Z</time></trkpt>
<trkpt lat="24.752776" lon="105.56919">
<time>2015-09-27T16:11:49Z</time></trkpt>
<trkpt lat="24.752776" lon="105.56912">
<time>2015-09-27T16:11:50Z</time></trkpt>
<trkpt lat="24.752776" lon="105.56906">
<time>2015-09-27T16:11:51Z</time></trkpt>
<trkpt lat="24.752796" lon="105.569">
<time>2015-09-27T16:11:52Z</time></trkpt>
<trkpt lat="24.752826" lon="105.56893">
<time>2015-09-27T16:11:53Z</time></trkpt>
<trkpt lat="24.752856" lon="105.568879">
<time>2015-09-27T16:11:54Z</time></trkpt>
<trkpt lat="24.752895" lon="105.568819">
<time>2015-09-27T16:11:55Z</time></trkpt>
<trkpt lat="24.752945" lon="105.568769">
<time>2015-09-27T16:11:56Z</time></trkpt>
<trkpt lat="24.753075" lon="105.568649">
<time>2015-09-27T16:11:57Z</time></trkpt>
<trkpt lat="24.753765" lon="105.568169">
<time>2015-09-27T16:11:58Z</time></trkpt>
<trkpt lat="24.754354" lon="105.567749">
<time>2015-09-27T16:11:59Z</time></trkpt>
<trkpt lat="24.754604" lon="105.567528">
<time>2015-09-27T16:12:00Z</time></trkpt>
<trkpt lat="24.754724" lon="105.567398">
<time>2015-09-27T16:12:01Z</time></trkpt>
<trkpt lat="24.754774" lon="105.567318">
<time>2015-09-27T16:12:02Z</time></trkpt>
<trkpt lat="24.754813" lon="105.567238">
<time>2015-09-27T16:12:03Z</time></trkpt>
<trkpt lat="24.754843" lon="105.567178">
<time>2015-09-27T16:12:04Z</time></trkpt>
<trkpt lat="24.754863" lon="105.567118">
<time>2015-09-27T16:12:05Z</time></trkpt>
<trkpt lat="24.754883" lon="105.566988">
<time>2015-09-27T16:12:06Z</time></trkpt>
<trkpt lat="24.754933" lon="105.566518">
<time>2015-09-27T16:12:07Z</time></trkpt>
<trkpt lat="24.754952" lon="105.566027">
<time>2015-09-27T16:12:08Z</time></trkpt>
<trkpt lat="24.754961" lon="105.565617">
<time>2015-09-27T16:12:09Z</time></trkpt>
<trkpt lat="24.754931" lon="105.565377">
<time>2015-09-27T16:12:10Z</time></trkpt>
<trkpt lat="24.754811" lon="105.565067">
<time>2015-09-27T16:12:11Z</time></trkpt>
<trkpt lat="24.75445" lon="105.564436">
<time>2015-09-27T16:12:12Z</time></trkpt>
<trkpt lat="24.75435" lon="105.564206">
<time>2015-09-27T16:12:13Z</time></trkpt>
<trkpt lat="24.754329" lon="105.564126">
<time>2015-09-27T16:12:14Z</time></trkpt>
<trkpt lat="24.754309" lon="105.564056">
<time>2015-09-27T16:12:15Z</time></trkpt>
<trkpt lat="24.754299" lon="105.563956">
<time>2015-09-27T16:12:16Z</time></trkpt>
<trkpt lat="24.754309" lon="105.563885">
<time>2015-09-27T16:12:17Z</time></trkpt>
<trkpt lat="24.754329" lon="105.563815">
<time>2015-09-27T16:12:18Z</time></trkpt>
<trkpt lat="24.754349" lon="105.563755">
<time>2015-09-27T16:12:19Z</time></trkpt>
<trkpt lat="24.754389" lon="105.563695">
<time>2015-09-27T16:12:20Z</time></trkpt>
<trkpt lat="24.754419" lon="105.563645">
<time>2015-09-27T16:12:21Z</time></trkpt>
<trkpt lat="24.754499" lon="105.563565">
<time>2015-09-27T16:12:22Z</time></trkpt>
<trkpt lat="24.754569" lon="105.563505">
<time>2015-09-27T16:12:23Z</time></trkpt>
<trkpt lat="24.755008" lon="105.563175">
<time>2015-09-27T16:12:24Z</time></trkpt>
<trkpt lat="24.755268" lon="105.562965">
<time>2015-09-27T16:12:25Z</time></trkpt>
<trkpt lat="24.755398" lon="105.562834">
<time>2015-09-27T16:12:26Z</time></trkpt>
<trkpt lat="24.755507" lon="105.562654">
<time>2015-09-27T16:12:27Z</time></trkpt>
<trkpt lat="24.755597" lon="105.562444">
<time>2015-09-27T16:12:28Z</time></trkpt>
<trkpt lat="24.755667" lon="105.562224">
<time>2015-09-27T16:12:29Z</time></trkpt>
<trkpt lat="24.755856" lon="105.561483">
<time>2015-09-27T16:12:30Z</time></trkpt>
<trkpt lat="24.756055" lon="105.560953">
<time>2015-09-27T16:12:31Z</time></trkpt>
<trkpt lat="24.756493" lon="105.559861">
<time>2015-09-27T16:12:32Z</time></trkpt>
<trkpt lat="24.756861" lon="105.55858">
<time>2015-09-27T16:12:33Z</time></trkpt>
<trkpt lat="24.75704" lon="105.558099">
<time>2015-09-27T16:12:34Z</time></trkpt>
<trkpt lat="24.757319" lon="105.557569">
<time>2015-09-27T16:12:35Z</time></trkpt>
<trkpt lat="24.757629" lon="105.557018">
<time>2015-09-27T16:12:36Z</time></trkpt>
<trkpt lat="24.757937" lon="105.556317">
<time>2015-09-27T16:12:37Z</time></trkpt>
<trkpt lat="24.757977" lon="105.556217">
<time>2015-09-27T16:12:38Z</time></trkpt>
<trkpt lat="24.758037" lon="105.556057">
<time>2015-09-27T16:12:39Z</time></trkpt>
<trkpt lat="24.758077" lon="105.555887">
<time>2015-09-27T16:12:40Z</time></trkpt>
<trkpt lat="24.758106" lon="105.555716">
<time>2015-09-27T16:12:41Z</time></trkpt>
<trkpt lat="24.758126" lon="105.555506">
<time>2015-09-27T16:12:42Z</time></trkpt>
<trkpt lat="24.758136" lon="105.555306">
<time>2015-09-27T16:12:43Z</time></trkpt>
<trkpt lat="24.758115" lon="105.555006">
<time>2015-09-27T16:12:44Z</time></trkpt>
<trkpt lat="24.758054" lon="105.554395">
<time>2015-09-27T16:12:45Z</time></trkpt>
<trkpt lat="24.757993" lon="105.553854">
<time>2015-09-27T16:12:46Z</time></trkpt>
<trkpt lat="24.757943" lon="105.553624">
<time>2015-09-27T16:12:47Z</time></trkpt>
<trkpt lat="24.757902" lon="105.553454">
<time>2015-09-27T16:12:48Z</time></trkpt>
<trkpt lat="24.757842" lon="105.553313">
<time>2015-09-27T16:12:49Z</time></trkpt>
<trkpt lat="24.757772" lon="105.553183">
<time>2015-09-27T16:12:50Z</time></trkpt>
<trkpt lat="24.757682" lon="105.553083">
<time>2015-09-27T16:12:51Z</time></trkpt>
<trkpt lat="24.757572" lon="105.552973">
<time>2015-09-27T16:12:52Z</time></trkpt>
<trkpt lat="24.757241" lon="105.552673">
<time>2015-09-27T16:12:53Z</time></trkpt>
<trkpt lat="24.757181" lon="105.552602">
<time>2015-09-27T16:12:54Z</time></trkpt>
<trkpt lat="24.757061" lon="105.552442">
<time>2015-09-27T16:12:55Z</time></trkpt>
<trkpt lat="24.757" lon="105.552332">
<time>2015-09-27T16:12:56Z</time></trkpt>
<trkpt lat="24.75696" lon="105.552262">
<time>2015-09-27T16:12:57Z</time></trkpt>
<trkpt lat="24.75693" lon="105.552172">
<time>2015-09-27T16:12:58Z</time></trkpt>
<trkpt lat="24.75692" lon="105.552112">
<time>2015-09-27T16:12:59Z</time></trkpt>
<trkpt lat="24.75691" lon="105.552032">
<time>2015-09-27T16:13:00Z</time></trkpt>
<trkpt lat="24.75691" lon="105.551972">
<time>2015-09-27T16:13:01Z</time></trkpt>
<trkpt lat="24.75692" lon="105.551901">
<time>2015-09-27T16:13:02Z</time></trkpt>
<trkpt lat="24.756949" lon="105.551811">
<time>2015-09-27T16:13:03Z</time></trkpt>
<trkpt lat="24.756979" lon="105.551741">
<time>2015-09-27T16:13:04Z</time></trkpt>
<trkpt lat="24.757079" lon="105.551561">
<time>2015-09-27T16:13:05Z</time></trkpt>
<trkpt lat="24.757278" lon="105.551291">
<time>2015-09-27T16:13:06Z</time></trkpt>
<trkpt lat="24.757448" lon="105.5511">
<time>2015-09-27T16:13:07Z</time></trkpt>
<trkpt lat="24.757638" lon="105.55089">
<time>2015-09-27T16:13:08Z</time></trkpt>
<trkpt lat="24.757857" lon="105.55071">
<time>2015-09-27T16:13:09Z</time></trkpt>
<trkpt lat="24.758127" lon="105.550509">
<time>2015-09-27T16:13:10Z</time></trkpt>
<trkpt lat="24.758417" lon="105.550339">
<time>2015-09-27T16:13:11Z</time></trkpt>
<trkpt lat="24.758816" lon="105.550139">
<time>2015-09-27T16:13:12Z</time></trkpt>
<trkpt lat="24.758916" lon="105.550069">
<time>2015-09-27T16:13:13Z</time></trkpt>
<trkpt lat="24.758956" lon="105.550029">
<time>2015-09-27T16:13:14Z</time></trkpt>
<trkpt lat="24.759006" lon="105.549979">
<time>2015-09-27T16:13:15Z</time></trkpt>
<trkpt lat="24.759056" lon="105.549908">
<time>2015-09-27T16:13:16Z</time></trkpt>
<trkpt lat="24.759106" lon="105.549838">
<time>2015-09-27T16:13:17Z</time></trkpt>
<trkpt lat="24.759125" lon="105.549778">
<time>2015-09-27T16:13:18Z</time></trkpt>
<trkpt lat="24.759145" lon="105.549718">
<time>2015-09-27T16:13:19Z</time></trkpt>
<trkpt lat="24.759155" lon="105.549638">
<time>2015-09-27T16:13:20Z</time></trkpt>
<trkpt lat="24.759155" lon="105.549558">
<time>2015-09-27T16:13:21Z</time></trkpt>
<trkpt lat="24.759145" lon="105.549468">
<time>2015-09-27T16:13:22Z</time></trkpt>
<trkpt lat="24.759125" lon="105.549358">
<time>2015-09-27T16:13:23Z</time></trkpt>
<trkpt lat="24.758933" lon="105.548376">
<time>2015-09-27T16:13:24Z</time></trkpt>
<trkpt lat="24.758802" lon="105.547875">
<time>2015-09-27T16:13:25Z</time></trkpt>
<trkpt lat="24.758611" lon="105.547355">
<time>2015-09-27T16:13:26Z</time></trkpt>
<trkpt lat="24.75841" lon="105.546954">
<time>2015-09-27T16:13:27Z</time></trkpt>
<trkpt lat="24.75834" lon="105.546854">
<time>2015-09-27T16:13:28Z</time></trkpt>
<trkpt lat="24.757999" lon="105.546513">
<time>2015-09-27T16:13:29Z</time></trkpt>
<trkpt lat="24.757658" lon="105.546213">
<time>2015-09-27T16:13:30Z</time></trkpt>
<trkpt lat="24.757288" lon="105.545942">
<time>2015-09-27T16:13:31Z</time></trkpt>
<trkpt lat="24.756817" lon="105.545562">
<time>2015-09-27T16:13:32Z</time></trkpt>
<trkpt lat="24.756537" lon="105.545301">
<time>2015-09-27T16:13:33Z</time></trkpt>
<trkpt lat="24.756416" lon="105.545161">
<time>2015-09-27T16:13:34Z</time></trkpt>
<trkpt lat="24.756306" lon="105.545001">
<time>2015-09-27T16:13:35Z</time></trkpt>
<trkpt lat="24.756266" lon="105.544901">
<time>2015-09-27T16:13:36Z</time></trkpt>
<trkpt lat="24.756246" lon="105.54482">
<time>2015-09-27T16:13:37Z</time></trkpt>
<trkpt lat="24.756235" lon="105.54475">
<time>2015-09-27T16:13:38Z</time></trkpt>
<trkpt lat="24.756235" lon="105.54468">
<time>2015-09-27T16:13:39Z</time></trkpt>
<trkpt lat="24.756255" lon="105.5446">
<time>2015-09-27T16:13:40Z</time></trkpt>
<trkpt lat="24.756285" lon="105.5445">
<time>2015-09-27T16:13:41Z</time></trkpt>
<trkpt lat="24.756335" lon="105.5444">
<time>2015-09-27T16:13:42Z</time></trkpt>
<trkpt lat="24.756414" lon="105.54429">
<time>2015-09-27T16:13:43Z</time></trkpt>
<trkpt lat="24.756504" lon="105.544199">
<time>2015-09-27T16:13:44Z</time></trkpt>
<trkpt lat="24.756644" lon="105.544079">
<time>2015-09-27T16:13:45Z</time></trkpt>
<trkpt lat="24.756704" lon="105.544029">
<time>2015-09-27T16:13:46Z</time></trkpt>
<trkpt lat="24.756774" lon="105.543949">
<time>2015-09-27T16:13:47Z</time></trkpt>
<trkpt lat="24.756824" lon="105.543859">
<time>2015-09-27T16:13:48Z</time></trkpt>
<trkpt lat="24.756883" lon="105.543739">
<time>2015-09-27T16:13:49Z</time></trkpt>
<trkpt lat="24.757022" lon="105.543368">
<time>2015-09-27T16:13:50Z</time></trkpt>
<trkpt lat="24.757142" lon="105.543007">
<time>2015-09-27T16:13:51Z</time></trkpt>
<trkpt lat="24.757271" lon="105.542536">
<time>2015-09-27T16:13:52Z</time></trkpt>
<trkpt lat="24.7573" lon="105.542416">
<time>2015-09-27T16:13:53Z</time></trkpt>
<trkpt lat="24.75734" lon="105.542176">
<time>2015-09-27T16:13:54Z</time></trkpt>
<trkpt lat="24.75735" lon="105.542026">
<time>2015-09-27T16:13:55Z</time></trkpt>
<trkpt lat="24.757349" lon="105.541895">
<time>2015-09-27T16:13:56Z</time></trkpt>
<trkpt lat="24.757359" lon="105.541635">
<time>2015-09-27T16:13:57Z</time></trkpt>
<trkpt lat="24.757368" lon="105.541525">
<time>2015-09-27T16:13:58Z</time></trkpt>
<trkpt lat="24.757388" lon="105.541414">
<time>2015-09-27T16:13:59Z</time></trkpt>
<trkpt lat="24.757428" lon="105.541314">
<time>2015-09-27T16:14:00Z</time></trkpt>
<trkpt lat="24.757458" lon="105.541264">
<time>2015-09-27T16:14:01Z</time></trkpt>
<trkpt lat="24.757478" lon="105.541244">
<time>2015-09-27T16:14:02Z</time></trkpt>
<trkpt lat="24.757478" lon="105.541244">
<time>2015-09-27T16:14:03Z</time></trkpt>
<trkpt lat="24.757207" lon="105.540954">
<time>2015-09-27T16:14:04Z</time></trkpt>
<trkpt lat="24.756946" lon="105.540613">
<time>2015-09-27T16:14:05Z</time></trkpt>
<trkpt lat="24.756906" lon="105.540543">
<time>2015-09-27T16:14:06Z</time></trkpt>
<trkpt lat="24.756866" lon="105.540463">
<time>2015-09-27T16:14:07Z</time></trkpt>
<trkpt lat="24.756826" lon="105.540393">
<time>2015-09-27T16:14:08Z</time></trkpt>
<trkpt lat="24.756776" lon="105.540322">
<time>2015-09-27T16:14:09Z</time></trkpt>
<trkpt lat="24.756736" lon="105.540252">
<time>2015-09-27T16:14:10Z</time></trkpt>
<trkpt lat="24.756695" lon="105.540182">
<time>2015-09-27T16:14:11Z</time></trkpt>
<trkpt lat="24.756645" lon="105.540112">
<time>2015-09-27T16:14:12Z</time></trkpt>
<trkpt lat="24.756595" lon="105.540052">
<time>2015-09-27T16:14:13Z</time></trkpt>
<trkpt lat="24.756555" lon="105.539992">
<time>2015-09-27T16:14:14Z</time></trkpt>
<trkpt lat="24.756505" lon="105.539942">
<time>2015-09-27T16:14:15Z</time></trkpt>
<trkpt lat="24.756465" lon="105.539882">
<time>2015-09-27T16:14:16Z</time></trkpt>
<trkpt lat="24.756415" lon="105.539832">
<time>2015-09-27T16:14:17Z</time></trkpt>
<trkpt lat="24.756365" lon="105.539781">
<time>2015-09-27T16:14:18Z</time></trkpt>
<trkpt lat="24.756314" lon="105.539741">
<time>2015-09-27T16:14:19Z</time></trkpt>
<trkpt lat="24.756264" lon="105.539691">
<time>2015-09-27T16:14:20Z</time></trkpt>
<trkpt lat="24.756204" lon="105.539651">
<time>2015-09-27T16:14:21Z</time></trkpt>
<trkpt lat="24.756154" lon="105.539611">
<time>2015-09-27T16:14:22Z</time></trkpt>
<trkpt lat="24.756104" lon="105.539571">
<time>2015-09-27T16:14:23Z</time></trkpt>
<trkpt lat="24.756044" lon="105.539531">
<time>2015-09-27T16:14:24Z</time></trkpt>
<trkpt lat="24.755994" lon="105.539491">
<time>2015-09-27T16:14:25Z</time></trkpt>
<trkpt lat="24.755944" lon="105.539461">
<time>2015-09-27T16:14:26Z</time></trkpt>
<trkpt lat="24.755884" lon="105.539421">
<time>2015-09-27T16:14:27Z</time></trkpt>
<trkpt lat="24.755834" lon="105.539381">
<time>2015-09-27T16:14:28Z</time></trkpt>
<trkpt lat="24.755784" lon="105.539341">
<time>2015-09-27T16:14:29Z</time></trkpt>
<trkpt lat="24.755743" lon="105.539301">
<time>2015-09-27T16:14:30Z</time></trkpt>
<trkpt lat="24.755703" lon="105.539261">
<time>2015-09-27T16:14:31Z</time></trkpt>
<trkpt lat="24.755663" lon="105.53922">
<time>2015-09-27T16:14:32Z</time></trkpt>
<trkpt lat="24.755623" lon="105.53918">
<time>2015-09-27T16:14:33Z</time></trkpt>
<trkpt lat="24.755583" lon="105.53914">
<time>2015-09-27T16:14:34Z</time></trkpt>
<trkpt lat="24.755553" lon="105.5391">
<time>2015-09-27T16:14:35Z</time></trkpt>
<trkpt lat="24.755473" lon="105.53901">
<time>2015-09-27T16:14:36Z</time></trkpt>
<trkpt lat="24.755423" lon="105.53895">
<time>2015-09-27T16:14:37Z</time></trkpt>
<trkpt lat="24.755383" lon="105.5389">
<time>2015-09-27T16:14:38Z</time></trkpt>
<trkpt lat="24.755332" lon="105.53885">
<time>2015-09-27T16:14:39Z</time></trkpt>
<trkpt lat="24.755272" lon="105.5388">
<time>2015-09-27T16:14:40Z</time></trkpt>
<trkpt lat="24.755222" lon="105.53875">
<time>2015-09-27T16:14:41Z</time></trkpt>
<trkpt lat="24.755172" lon="105.538699">
<time>2015-09-27T16:14:42Z</time></trkpt>
<trkpt lat="24.755112" lon="105.538659">
<time>2015-09-27T16:14:43Z</time></trkpt>
<trkpt lat="24.755052" lon="105.538629">
<time>2015-09-27T16:14:44Z</time></trkpt>
<trkpt lat="24.755012" lon="105.538609">
<time>2015-09-27T16:14:45Z</time></trkpt>
<trkpt lat="24.754972" lon="105.538589">
<time>2015-09-27T16:14:46Z</time></trkpt>
<trkpt lat="24.754932" lon="105.538579">
<time>2015-09-27T16:14:47Z</time></trkpt>
<trkpt lat="24.754892" lon="105.538559">
<time>2015-09-27T16:14:48Z</time></trkpt>
<trkpt lat="24.754852" lon="105.538549">
<time>2015-09-27T16:14:49Z</time></trkpt>
<trkpt lat="24.754772" lon="105.538519">
<time>2015-09-27T16:14:50Z</time></trkpt>
<trkpt lat="24.754732" lon="105.538509">
<time>2015-09-27T16:14:51Z</time></trkpt>
<trkpt lat="24.754672" lon="105.538489">
<time>2015-09-27T16:14:52Z</time></trkpt>
<trkpt lat="24.754612" lon="105.538459">
<time>2015-09-27T16:14:53Z</time></trkpt>
<trkpt lat="24.754542" lon="105.538429">
<time>2015-09-27T16:14:54Z</time></trkpt>
<trkpt lat="24.754491" lon="105.538399">
<time>2015-09-27T16:14:55Z</time></trkpt>
<trkpt lat="24.754431" lon="105.538359">
<time>2015-09-27T16:14:56Z</time></trkpt>
<trkpt lat="24.754381" lon="105.538319">
<time>2015-09-27T16:14:57Z</time></trkpt>
<trkpt lat="24.754331" lon="105.538279">
<time>2015-09-27T16:14:58Z</time></trkpt>
<trkpt lat="24.754291" lon="105.538229">
<time>2015-09-27T16:14:59Z</time></trkpt>
<trkpt lat="24.754241" lon="105.538158">
<time>2015-09-27T16:15:00Z</time></trkpt>
<trkpt lat="24.754201" lon="105.538088">
<time>2015-09-27T16:15:01Z</time></trkpt>
<trkpt lat="24.754171" lon="105.538008">
<time>2015-09-27T16:15:02Z</time></trkpt>
<trkpt lat="24.75414" lon="105.537918">
<time>2015-09-27T16:15:03Z</time></trkpt>
<trkpt lat="24.75412" lon="105.537828">
<time>2015-09-27T16:15:04Z</time></trkpt>
<trkpt lat="24.7541" lon="105.537738">
<time>2015-09-27T16:15:05Z</time></trkpt>
<trkpt lat="24.75408" lon="105.537648">
<time>2015-09-27T16:15:06Z</time></trkpt>
<trkpt lat="24.75405" lon="105.537557">
<time>2015-09-27T16:15:07Z</time></trkpt>
<trkpt lat="24.754019" lon="105.537447">
<time>2015-09-27T16:15:08Z</time></trkpt>
<trkpt lat="24.753989" lon="105.537337">
<time>2015-09-27T16:15:09Z</time></trkpt>
<trkpt lat="24.753959" lon="105.537227">
<time>2015-09-27T16:15:10Z</time></trkpt>
<trkpt lat="24.753919" lon="105.537116">
<time>2015-09-27T16:15:11Z</time></trkpt>
<trkpt lat="24.753888" lon="105.537006">
<time>2015-09-27T16:15:12Z</time></trkpt>
<trkpt lat="24.753848" lon="105.536896">
<time>2015-09-27T16:15:13Z</time></trkpt>
<trkpt lat="24.753818" lon="105.536786">
<time>2015-09-27T16:15:14Z</time></trkpt>
<trkpt lat="24.753797" lon="105.536676">
<time>2015-09-27T16:15:15Z</time></trkpt>
<trkpt lat="24.753767" lon="105.536545">
<time>2015-09-27T16:15:16Z</time></trkpt>
<trkpt lat="24.753747" lon="105.536405">
<time>2015-09-27T16:15:17Z</time></trkpt>
<trkpt lat="24.753737" lon="105.536275">
<time>2015-09-27T16:15:18Z</time></trkpt>
<trkpt lat="24.753716" lon="105.536135">
<time>2015-09-27T16:15:19Z</time></trkpt>
<trkpt lat="24.753706" lon="105.535994">
<time>2015-09-27T16:15:20Z</time></trkpt>
<trkpt lat="24.753686" lon="105.535864">
<time>2015-09-27T16:15:21Z</time></trkpt>
<trkpt lat="24.753665" lon="105.535724">
<time>2015-09-27T16:15:22Z</time></trkpt>
<trkpt lat="24.753645" lon="105.535593">
<time>2015-09-27T16:15:23Z</time></trkpt>
<trkpt lat="24.753635" lon="105.535513">
<time>2015-09-27T16:15:24Z</time></trkpt>
<trkpt lat="24.753615" lon="105.535443">
<time>2015-09-27T16:15:25Z</time></trkpt>
<trkpt lat="24.753594" lon="105.535373">
<time>2015-09-27T16:15:26Z</time></trkpt>
<trkpt lat="24.753574" lon="105.535303">
<time>2015-09-27T16:15:27Z</time></trkpt>
<trkpt lat="24.753564" lon="105.535243">
<time>2015-09-27T16:15:28Z</time></trkpt>
<trkpt lat="24.753534" lon="105.535173">
<time>2015-09-27T16:15:29Z</time></trkpt>
<trkpt lat="24.753514" lon="105.535103">
<time>2015-09-27T16:15:30Z</time></trkpt>
<trkpt lat="24.753494" lon="105.535032">
<time>2015-09-27T16:15:31Z</time></trkpt>
<trkpt lat="24.753463" lon="105.534942">
<time>2015-09-27T16:15:32Z</time></trkpt>
<trkpt lat="24.753423" lon="105.534852">
<time>2015-09-27T16:15:33Z</time></trkpt>
<trkpt lat="24.753383" lon="105.534762">
<time>2015-09-27T16:15:34Z</time></trkpt>
<trkpt lat="24.753353" lon="105.534672">
<time>2015-09-27T16:15:35Z</time></trkpt>
<trkpt lat="24.753302" lon="105.534581">
<time>2015-09-27T16:15:36Z</time></trkpt>
<trkpt lat="24.753262" lon="105.534501">
<time>2015-09-27T16:15:37Z</time></trkpt>
<trkpt lat="24.753212" lon="105.534411">
<time>2015-09-27T16:15:38Z</time></trkpt>
<trkpt lat="24.753162" lon="105.534331">
<time>2015-09-27T16:15:39Z</time></trkpt>
<trkpt lat="24.753122" lon="105.534281">
<time>2015-09-27T16:15:40Z</time></trkpt>
<trkpt lat="24.753082" lon="105.534231">
<time>2015-09-27T16:15:41Z</time></trkpt>
<trkpt lat="24.753052" lon="105.534181">
<time>2015-09-27T16:15:42Z</time></trkpt>
<trkpt lat="24.753011" lon="105.534131">
<time>2015-09-27T16:15:43Z</time></trkpt>
<trkpt lat="24.752971" lon="105.53408">
<time>2015-09-27T16:15:44Z</time></trkpt>
<trkpt lat="24.752941" lon="105.53403">
<time>2015-09-27T16:15:45Z</time></trkpt>
<trkpt lat="24.752911" lon="105.53397">
<time>2015-09-27T16:15:46Z</time></trkpt>
<trkpt lat="24.752881" lon="105.53392">
<time>2015-09-27T16:15:47Z</time></trkpt>
<trkpt lat="24.752851" lon="105.53386">
<time>2015-09-27T16:15:48Z</time></trkpt>
<trkpt lat="24.752831" lon="105.5338">
<time>2015-09-27T16:15:49Z</time></trkpt>
<trkpt lat="24.75282" lon="105.53374">
<time>2015-09-27T16:15:50Z</time></trkpt>
<trkpt lat="24.75281" lon="105.53368">
<time>2015-09-27T16:15:51Z</time></trkpt>
<trkpt lat="24.7528" lon="105.533609">
<time>2015-09-27T16:15:52Z</time></trkpt>
<trkpt lat="24.75279" lon="105.533549">
<time>2015-09-27T16:15:53Z</time></trkpt>
<trkpt lat="24.75279" lon="105.533489">
<time>2015-09-27T16:15:54Z</time></trkpt>
<trkpt lat="24.75279" lon="105.533419">
<time>2015-09-27T16:15:55Z</time></trkpt>
<trkpt lat="24.75279" lon="105.533369">
<time>2015-09-27T16:15:56Z</time></trkpt>
<trkpt lat="24.752789" lon="105.533329">
<time>2015-09-27T16:15:57Z</time></trkpt>
<trkpt lat="24.752799" lon="105.533279">
<time>2015-09-27T16:15:58Z</time></trkpt>
<trkpt lat="24.752799" lon="105.533239">
<time>2015-09-27T16:15:59Z</time></trkpt>
<trkpt lat="24.752809" lon="105.533189">
<time>2015-09-27T16:16:00Z</time></trkpt>
<trkpt lat="24.752819" lon="105.533098">
<time>2015-09-27T16:16:01Z</time></trkpt>
<trkpt lat="24.752829" lon="105.533048">
<time>2015-09-27T16:16:02Z</time></trkpt>
<trkpt lat="24.752829" lon="105.533008">
<time>2015-09-27T16:16:03Z</time></trkpt>
<trkpt lat="24.752839" lon="105.532958">
<time>2015-09-27T16:16:04Z</time></trkpt>
<trkpt lat="24.752838" lon="105.532918">
<time>2015-09-27T16:16:05Z</time></trkpt>
<trkpt lat="24.752838" lon="105.532878">
<time>2015-09-27T16:16:06Z</time></trkpt>
<trkpt lat="24.752848" lon="105.532828">
<time>2015-09-27T16:16:07Z</time></trkpt>
<trkpt lat="24.752848" lon="105.532788">
<time>2015-09-27T16:16:08Z</time></trkpt>
<trkpt lat="24.752838" lon="105.532738">
<time>2015-09-27T16:16:09Z</time></trkpt>
<trkpt lat="24.752838" lon="105.532698">
<time>2015-09-27T16:16:10Z</time></trkpt>
<trkpt lat="24.752828" lon="105.532647">
<time>2015-09-27T16:16:11Z</time></trkpt>
<trkpt lat="24.752828" lon="105.532597">
<time>2015-09-27T16:16:12Z</time></trkpt>
<trkpt lat="24.752817" lon="105.532537">
<time>2015-09-27T16:16:13Z</time></trkpt>
<trkpt lat="24.752807" lon="105.532487">
<time>2015-09-27T16:16:14Z</time></trkpt>
<trkpt lat="24.752797" lon="105.532437">
<time>2015-09-27T16:16:15Z</time></trkpt>
<trkpt lat="24.752787" lon="105.532387">
<time>2015-09-27T16:16:16Z</time></trkpt>
<trkpt lat="24.752777" lon="105.532337">
<time>2015-09-27T16:16:17Z</time></trkpt>
<trkpt lat="24.752777" lon="105.532287">
<time>2015-09-27T16:16:18Z</time></trkpt>
<trkpt lat="24.752777" lon="105.532237">
<time>2015-09-27T16:16:19Z</time></trkpt>
<trkpt lat="24.752777" lon="105.532197">
<time>2015-09-27T16:16:20Z</time></trkpt>
<trkpt lat="24.752786" lon="105.532106">
<time>2015-09-27T16:16:21Z</time></trkpt>
<trkpt lat="24.752786" lon="105.532066">
<time>2015-09-27T16:16:22Z</time></trkpt>
<trkpt lat="24.752786" lon="105.532016">
<time>2015-09-27T16:16:23Z</time></trkpt>
<trkpt lat="24.752786" lon="105.531976">
<time>2015-09-27T16:16:24Z</time></trkpt>
<trkpt lat="24.752776" lon="105.531936">
<time>2015-09-27T16:16:25Z</time></trkpt>
<trkpt lat="24.752766" lon="105.531896">
<time>2015-09-27T16:16:26Z</time></trkpt>
<trkpt lat="24.752756" lon="105.531846">
<time>2015-09-27T16:16:27Z</time></trkpt>
<trkpt lat="24.752736" lon="105.531806">
<time>2015-09-27T16:16:28Z</time></trkpt>
<trkpt lat="24.752716" lon="105.531766">
<time>2015-09-27T16:16:29Z</time></trkpt>
<trkpt lat="24.752695" lon="105.531726">
<time>2015-09-27T16:16:30Z</time></trkpt>
<trkpt lat="24.752675" lon="105.531685">
<time>2015-09-27T16:16:31Z</time></trkpt>
<trkpt lat="24.752625" lon="105.531605">
<time>2015-09-27T16:16:32Z</time></trkpt>
<trkpt lat="24.752585" lon="105.531535">
<time>2015-09-27T16:16:33Z</time></trkpt>
<trkpt lat="24.752535" lon="105.531465">
<time>2015-09-27T16:16:34Z</time></trkpt>
<trkpt lat="24.752505" lon="105.531385">
<time>2015-09-27T16:16:35Z</time></trkpt>
<trkpt lat="24.752464" lon="105.531315">
<time>2015-09-27T16:16:36Z</time></trkpt>
<trkpt lat="24.752384" lon="105.531164">
<time>2015-09-27T16:16:37Z</time></trkpt>
<trkpt lat="24.752344" lon="105.531094">
<time>2015-09-27T16:16:38Z</time></trkpt>
<trkpt lat="24.752314" lon="105.531024">
<time>2015-09-27T16:16:39Z</time></trkpt>
<trkpt lat="24.752253" lon="105.530924">
<time>2015-09-27T16:16:40Z</time></trkpt>
<trkpt lat="24.752203" lon="105.530824">
<time>2015-09-27T16:16:41Z</time></trkpt>
<trkpt lat="24.752093" lon="105.530633">
<time>2015-09-27T16:16:42Z</time></trkpt>
<trkpt lat="24.752032" lon="105.530533">
<time>2015-09-27T16:16:43Z</time></trkpt>
<trkpt lat="24.751982" lon="105.530433">
<time>2015-09-27T16:16:44Z</time></trkpt>
<trkpt lat="24.751932" lon="105.530333">
<time>2015-09-27T16:16:45Z</time></trkpt>
<trkpt lat="24.751882" lon="105.530232">
<time>2015-09-27T16:16:46Z</time></trkpt>
<trkpt lat="24.751852" lon="105.530172">
<time>2015-09-27T16:16:47Z</time></trkpt>
<trkpt lat="24.751831" lon="105.530112">
<time>2015-09-27T16:16:48Z</time></trkpt>
<trkpt lat="24.751801" lon="105.530042">
<time>2015-09-27T16:16:49Z</time></trkpt>
<trkpt lat="24.751781" lon="105.529982">
<time>2015-09-27T16:16:50Z</time></trkpt>
<trkpt lat="24.751761" lon="105.529912">
<time>2015-09-27T16:16:51Z</time></trkpt>
<trkpt lat="24.751751" lon="105.529852">
<time>2015-09-27T16:16:52Z</time></trkpt>
<trkpt lat="24.751741" lon="105.529781">
<time>2015-09-27T16:16:53Z</time></trkpt>
<trkpt lat="24.75173" lon="105.529711">
<time>2015-09-27T16:16:54Z</time></trkpt>
<trkpt lat="24.75173" lon="105.529651">
<time>2015-09-27T16:16:55Z</time></trkpt>
<trkpt lat="24.75173" lon="105.529591">
<time>2015-09-27T16:16:56Z</time></trkpt>
<trkpt lat="24.75174" lon="105.529531">
<time>2015-09-27T16:16:57Z</time></trkpt>
<trkpt lat="24.75174" lon="105.529461">
<time>2015-09-27T16:16:58Z</time></trkpt>
<trkpt lat="24.75176" lon="105.529401">
<time>2015-09-27T16:16:59Z</time></trkpt>
<trkpt lat="24.751769" lon="105.52934">
<time>2015-09-27T16:17:00Z</time></trkpt>
<trkpt lat="24.751789" lon="105.52928">
<time>2015-09-27T16:17:01Z</time></trkpt>
<trkpt lat="24.751809" lon="105.52922">
<time>2015-09-27T16:17:02Z</time></trkpt>
<trkpt lat="24.751839" lon="105.52913">
<time>2015-09-27T16:17:03Z</time></trkpt>
<trkpt lat="24.751869" lon="105.52905">
<time>2015-09-27T16:17:04Z</time></trkpt>
<trkpt lat="24.751908" lon="105.52897">
<time>2015-09-27T16:17:05Z</time></trkpt>
<trkpt lat="24.751948" lon="105.528889">
<time>2015-09-27T16:17:06Z</time></trkpt>
<trkpt lat="24.751998" lon="105.528809">
<time>2015-09-27T16:17:07Z</time></trkpt>
<trkpt lat="24.752038" lon="105.528739">
<time>2015-09-27T16:17:08Z</time></trkpt>
<trkpt lat="24.752088" lon="105.528659">
<time>2015-09-27T16:17:09Z</time></trkpt>
<trkpt lat="24.752147" lon="105.528589">
<time>2015-09-27T16:17:10Z</time></trkpt>
<trkpt lat="24.752197" lon="105.528529">
<time>2015-09-27T16:17:11Z</time></trkpt>
<trkpt lat="24.752247" lon="105.528469">
<time>2015-09-27T16:17:12Z</time></trkpt>
<trkpt lat="24.752297" lon="105.528408">
<time>2015-09-27T16:17:13Z</time></trkpt>
<trkpt lat="24.752347" lon="105.528348">
<time>2015-09-27T16:17:14Z</time></trkpt>
<trkpt lat="24.752407" lon="105.528288">
<time>2015-09-27T16:17:15Z</time></trkpt>
<trkpt lat="24.752466" lon="105.528228">
<time>2015-09-27T16:17:16Z</time></trkpt>
<trkpt lat="24.752516" lon="105.528168">
<time>2015-09-27T16:17:17Z</time></trkpt>
<trkpt lat="24.752716" lon="105.527967">
<time>2015-09-27T16:17:18Z</time></trkpt>
<trkpt lat="24.752786" lon="105.527897">
<time>2015-09-27T16:17:19Z</time></trkpt>
<trkpt lat="24.752855" lon="105.527827">
<time>2015-09-27T16:17:20Z</time></trkpt>
<trkpt lat="24.752915" lon="105.527757">
<time>2015-09-27T16:17:21Z</time></trkpt>
<trkpt lat="24.752985" lon="105.527687">
<time>2015-09-27T16:17:22Z</time></trkpt>
<trkpt lat="24.753055" lon="105.527617">
<time>2015-09-27T16:17:23Z</time></trkpt>
<trkpt lat="24.753125" lon="105.527556">
<time>2015-09-27T16:17:24Z</time></trkpt>
<trkpt lat="24.753204" lon="105.527486">
<time>2015-09-27T16:17:25Z</time></trkpt>
<trkpt lat="24.753274" lon="105.527426">
<time>2015-09-27T16:17:26Z</time></trkpt>
<trkpt lat="24.753354" lon="105.527366">
<time>2015-09-27T16:17:27Z</time></trkpt>
<trkpt lat="24.753424" lon="105.527296">
<time>2015-09-27T16:17:28Z</time></trkpt>
<trkpt lat="24.753504" lon="105.527236">
<time>2015-09-27T16:17:29Z</time></trkpt>
<trkpt lat="24.753584" lon="105.527166">
<time>2015-09-27T16:17:30Z</time></trkpt>
<trkpt lat="24.753663" lon="105.527085">
<time>2015-09-27T16:17:31Z</time></trkpt>
<trkpt lat="24.753753" lon="105.526995">
<time>2015-09-27T16:17:32Z</time></trkpt>
<trkpt lat="24.753773" lon="105.526965">
<time>2015-09-27T16:17:33Z</time></trkpt>
<trkpt lat="24.753803" lon="105.526945">
<time>2015-09-27T16:17:34Z</time></trkpt>
<trkpt lat="24.753833" lon="105.526915">
<time>2015-09-27T16:17:35Z</time></trkpt>
<trkpt lat="24.753853" lon="105.526895">
<time>2015-09-27T16:17:36Z</time></trkpt>
<trkpt lat="24.753883" lon="105.526875">
<time>2015-09-27T16:17:37Z</time></trkpt>
<trkpt lat="24.753913" lon="105.526865">
<time>2015-09-27T16:17:38Z</time></trkpt>
<trkpt lat="24.753933" lon="105.526855">
<time>2015-09-27T16:17:39Z</time></trkpt>
<trkpt lat="24.753963" lon="105.526855">
<time>2015-09-27T16:17:40Z</time></trkpt>
<trkpt lat="24.753983" lon="105.526865">
<time>2015-09-27T16:17:41Z</time></trkpt>
<trkpt lat="24.753993" lon="105.526875">
<time>2015-09-27T16:17:42Z</time></trkpt>
<trkpt lat="24.754013" lon="105.526885">
<time>2015-09-27T16:17:43Z</time></trkpt>
<trkpt lat="24.754023" lon="105.526895">
<time>2015-09-27T16:17:44Z</time></trkpt>
<trkpt lat="24.754033" lon="105.526915">
<time>2015-09-27T16:17:45Z</time></trkpt>
<trkpt lat="24.754053" lon="105.526925">
<time>2015-09-27T16:17:46Z</time></trkpt>
<trkpt lat="24.754063" lon="105.526945">
<time>2015-09-27T16:17:47Z</time></trkpt>
<trkpt lat="24.754063" lon="105.526965">
<time>2015-09-27T16:17:48Z</time></trkpt>
<trkpt lat="24.754083" lon="105.527005">
<time>2015-09-27T16:17:49Z</time></trkpt>
<trkpt lat="24.754083" lon="105.527045">
<time>2015-09-27T16:17:50Z</time></trkpt>
<trkpt lat="24.754083" lon="105.527085">
<time>2015-09-27T16:17:51Z</time></trkpt>
<trkpt lat="24.754084" lon="105.527135">
<time>2015-09-27T16:17:52Z</time></trkpt>
<trkpt lat="24.754064" lon="105.527176">
<time>2015-09-27T16:17:53Z</time></trkpt>
<trkpt lat="24.754054" lon="105.527226">
<time>2015-09-27T16:17:54Z</time></trkpt>
<trkpt lat="24.754034" lon="105.527266">
<time>2015-09-27T16:17:55Z</time></trkpt>
<trkpt lat="24.754014" lon="105.527306">
<time>2015-09-27T16:17:56Z</time></trkpt>
<trkpt lat="24.753994" lon="105.527376">
<time>2015-09-27T16:17:57Z</time></trkpt>
<trkpt lat="24.753964" lon="105.527436">
<time>2015-09-27T16:17:58Z</time></trkpt>
<trkpt lat="24.753934" lon="105.527496">
<time>2015-09-27T16:17:59Z</time></trkpt>
<trkpt lat="24.753905" lon="105.527556">
<time>2015-09-27T16:18:00Z</time></trkpt>
<trkpt lat="24.753875" lon="105.527617">
<time>2015-09-27T16:18:01Z</time></trkpt>
<trkpt lat="24.753835" lon="105.527677">
<time>2015-09-27T16:18:02Z</time></trkpt>
<trkpt lat="24.753805" lon="105.527747">
<time>2015-09-27T16:18:03Z</time></trkpt>
<trkpt lat="24.753765" lon="105.527817">
<time>2015-09-27T16:18:04Z</time></trkpt>
<trkpt lat="24.753735" lon="105.527857">
<time>2015-09-27T16:18:05Z</time></trkpt>
<trkpt lat="24.753716" lon="105.527897">
<time>2015-09-27T16:18:06Z</time></trkpt>
<trkpt lat="24.753686" lon="105.527947">
<time>2015-09-27T16:18:07Z</time></trkpt>
<trkpt lat="24.753666" lon="105.527987">
<time>2015-09-27T16:18:08Z</time></trkpt>
<trkpt lat="24.753656" lon="105.528038">
<time>2015-09-27T16:18:09Z</time></trkpt>
<trkpt lat="24.753646" lon="105.528078">
<time>2015-09-27T16:18:10Z</time></trkpt>
<trkpt lat="24.753646" lon="105.528118">
<time>2015-09-27T16:18:11Z</time></trkpt>
<trkpt lat="24.753666" lon="105.528148">
<time>2015-09-27T16:18:12Z</time></trkpt>
<trkpt lat="24.753676" lon="105.528168">
<time>2015-09-27T16:18:13Z</time></trkpt>
<trkpt lat="24.753686" lon="105.528188">
<time>2015-09-27T16:18:14Z</time></trkpt>
<trkpt lat="24.753706" lon="105.528198">
<time>2015-09-27T16:18:15Z</time></trkpt>
<trkpt lat="24.753726" lon="105.528208">
<time>2015-09-27T16:18:16Z</time></trkpt>
<trkpt lat="24.753746" lon="105.528218">
<time>2015-09-27T16:18:17Z</time></trkpt>
<trkpt lat="24.753766" lon="105.528228">
<time>2015-09-27T16:18:18Z</time></trkpt>
<trkpt lat="24.753786" lon="105.528238">
<time>2015-09-27T16:18:19Z</time></trkpt>
<trkpt lat="24.753806" lon="105.528238">
<time>2015-09-27T16:18:20Z</time></trkpt>
<trkpt lat="24.753856" lon="105.528248">
<time>2015-09-27T16:18:21Z</time></trkpt>
<trkpt lat="24.753906" lon="105.528228">
<time>2015-09-27T16:18:22Z</time></trkpt>
<trkpt lat="24.753946" lon="105.528208">
<time>2015-09-27T16:18:23Z</time></trkpt>
<trkpt lat="24.753996" lon="105.528178">
<time>2015-09-27T16:18:24Z</time></trkpt>
<trkpt lat="24.754036" lon="105.528138">
<time>2015-09-27T16:18:25Z</time></trkpt>
<trkpt lat="24.754076" lon="105.528098">
<time>2015-09-27T16:18:26Z</time></trkpt>
<trkpt lat="24.754116" lon="105.528058">
<time>2015-09-27T16:18:27Z</time></trkpt>
<trkpt lat="24.754156" lon="105.528007">
<time>2015-09-27T16:18:28Z</time></trkpt>
<trkpt lat="24.754216" lon="105.527917">
<time>2015-09-27T16:18:29Z</time></trkpt>
<trkpt lat="24.754285" lon="105.527837">
<time>2015-09-27T16:18:30Z</time></trkpt>
<trkpt lat="24.754345" lon="105.527757">
<time>2015-09-27T16:18:31Z</time></trkpt>
<trkpt lat="24.754395" lon="105.527667">
<time>2015-09-27T16:18:32Z</time></trkpt>
<trkpt lat="24.754455" lon="105.527586">
<time>2015-09-27T16:18:33Z</time></trkpt>
<trkpt lat="24.754504" lon="105.527506">
<time>2015-09-27T16:18:34Z</time></trkpt>
<trkpt lat="24.754554" lon="105.527416">
<time>2015-09-27T16:18:35Z</time></trkpt>
<trkpt lat="24.754604" lon="105.527336">
<time>2015-09-27T16:18:36Z</time></trkpt>
<trkpt lat="24.754644" lon="105.527256">
<time>2015-09-27T16:18:37Z</time></trkpt>
<trkpt lat="24.754684" lon="105.527186">
<time>2015-09-27T16:18:38Z</time></trkpt>
<trkpt lat="24.754713" lon="105.527105">
<time>2015-09-27T16:18:39Z</time></trkpt>
<trkpt lat="24.754753" lon="105.527025">
<time>2015-09-27T16:18:40Z</time></trkpt>
<trkpt lat="24.754783" lon="105.526945">
<time>2015-09-27T16:18:41Z</time></trkpt>
<trkpt lat="24.754813" lon="105.526865">
<time>2015-09-27T16:18:42Z</time></trkpt>
<trkpt lat="24.754843" lon="105.526785">
<time>2015-09-27T16:18:43Z</time></trkpt>
<trkpt lat="24.754862" lon="105.526704">
<time>2015-09-27T16:18:44Z</time></trkpt>
<trkpt lat="24.754892" lon="105.526614">
<time>2015-09-27T16:18:45Z</time></trkpt>
<trkpt lat="24.754912" lon="105.526524">
<time>2015-09-27T16:18:46Z</time></trkpt>
<trkpt lat="24.754932" lon="105.526424">
<time>2015-09-27T16:18:47Z</time></trkpt>
<trkpt lat="24.754951" lon="105.526334">
<time>2015-09-27T16:18:48Z</time></trkpt>
<trkpt lat="24.754971" lon="105.526243">
<time>2015-09-27T16:18:49Z</time></trkpt>
<trkpt lat="24.755001" lon="105.526153">
<time>2015-09-27T16:18:50Z</time></trkpt>
<trkpt lat="24.755031" lon="105.526063">
<time>2015-09-27T16:18:51Z</time></trkpt>
<trkpt lat="24.75508" lon="105.525973">
<time>2015-09-27T16:18:52Z</time></trkpt>
<trkpt lat="24.75509" lon="105.525943">
<time>2015-09-27T16:18:53Z</time></trkpt>
<trkpt lat="24.75511" lon="105.525913">
<time>2015-09-27T16:18:54Z</time></trkpt>
<trkpt lat="24.75513" lon="105.525883">
<time>2015-09-27T16:18:55Z</time></trkpt>
<trkpt lat="24.75515" lon="105.525863">
<time>2015-09-27T16:18:56Z</time></trkpt>
<trkpt lat="24.75517" lon="105.525843">
<time>2015-09-27T16:18:57Z</time></trkpt>
<trkpt lat="24.75519" lon="105.525822">
<time>2015-09-27T16:18:58Z</time></trkpt>
<trkpt lat="24.75522" lon="105.525802">
<time>2015-09-27T16:18:59Z</time></trkpt>
<trkpt lat="24.75524" lon="105.525792">
<time>2015-09-27T16:19:00Z</time></trkpt>
<trkpt lat="24.75526" lon="105.525792">
<time>2015-09-27T16:19:01Z</time></trkpt>
<trkpt lat="24.75529" lon="105.525782">
<time>2015-09-27T16:19:02Z</time></trkpt>
<trkpt lat="24.75531" lon="105.525782">
<time>2015-09-27T16:19:03Z</time></trkpt>
<trkpt lat="24.75533" lon="105.525782">
<time>2015-09-27T16:19:04Z</time></trkpt>
<trkpt lat="24.75535" lon="105.525792">
<time>2015-09-27T16:19:05Z</time></trkpt>
<trkpt lat="24.75538" lon="105.525792">
<time>2015-09-27T16:19:06Z</time></trkpt>
<trkpt lat="24.7554" lon="105.525802">
<time>2015-09-27T16:19:07Z</time></trkpt>
<trkpt lat="24.75541" lon="105.525812">
<time>2015-09-27T16:19:08Z</time></trkpt>
<trkpt lat="24.75545" lon="105.525843">
<time>2015-09-27T16:19:09Z</time></trkpt>
<trkpt lat="24.75548" lon="105.525893">
<time>2015-09-27T16:19:10Z</time></trkpt>
<trkpt lat="24.75549" lon="105.525943">
<time>2015-09-27T16:19:11Z</time></trkpt>
<trkpt lat="24.7555" lon="105.526003">
<time>2015-09-27T16:19:12Z</time></trkpt>
<trkpt lat="24.755501" lon="105.526063">
<time>2015-09-27T16:19:13Z</time></trkpt>
<trkpt lat="24.755501" lon="105.526133">
<time>2015-09-27T16:19:14Z</time></trkpt>
<trkpt lat="24.755491" lon="105.526203">
<time>2015-09-27T16:19:15Z</time></trkpt>
<trkpt lat="24.755481" lon="105.526273">
<time>2015-09-27T16:19:16Z</time></trkpt>
<trkpt lat="24.755471" lon="105.526404">
<time>2015-09-27T16:19:17Z</time></trkpt>
<trkpt lat="24.755452" lon="105.526524">
<time>2015-09-27T16:19:18Z</time></trkpt>
<trkpt lat="24.755432" lon="105.526634">
<time>2015-09-27T16:19:19Z</time></trkpt>
<trkpt lat="24.755402" lon="105.526745">
<time>2015-09-27T16:19:20Z</time></trkpt>
<trkpt lat="24.755383" lon="105.526855">
<time>2015-09-27T16:19:21Z</time></trkpt>
<trkpt lat="24.755363" lon="105.526955">
<time>2015-09-27T16:19:22Z</time></trkpt>
<trkpt lat="24.755333" lon="105.527065">
<time>2015-09-27T16:19:23Z</time></trkpt>
<trkpt lat="24.755304" lon="105.527166">
<time>2015-09-27T16:19:24Z</time></trkpt>
<trkpt lat="24.755264" lon="105.527286">
<time>2015-09-27T16:19:25Z</time></trkpt>
<trkpt lat="24.755214" lon="105.527406">
<time>2015-09-27T16:19:26Z</time></trkpt>
<trkpt lat="24.755174" lon="105.527536">
<time>2015-09-27T16:19:27Z</time></trkpt>
<trkpt lat="24.755125" lon="105.527657">
<time>2015-09-27T16:19:28Z</time></trkpt>
<trkpt lat="24.755075" lon="105.527777">
<time>2015-09-27T16:19:29Z</time></trkpt>
<trkpt lat="24.755025" lon="105.527907">
<time>2015-09-27T16:19:30Z</time></trkpt>
<trkpt lat="24.754976" lon="105.528017">
<time>2015-09-27T16:19:31Z</time></trkpt>
<trkpt lat="24.754926" lon="105.528138">
<time>2015-09-27T16:19:32Z</time></trkpt>
<trkpt lat="24.754896" lon="105.528208">
<time>2015-09-27T16:19:33Z</time></trkpt>
<trkpt lat="24.754866" lon="105.528268">
<time>2015-09-27T16:19:34Z</time></trkpt>
<trkpt lat="24.754837" lon="105.528338">
<time>2015-09-27T16:19:35Z</time></trkpt>
<trkpt lat="24.754817" lon="105.528408">
<time>2015-09-27T16:19:36Z</time></trkpt>
<trkpt lat="24.754787" lon="105.528478">
<time>2015-09-27T16:19:37Z</time></trkpt>
<trkpt lat="24.754767" lon="105.528549">
<time>2015-09-27T16:19:38Z</time></trkpt>
<trkpt lat="24.754747" lon="105.528629">
<time>2015-09-27T16:19:39Z</time></trkpt>
<trkpt lat="24.754728" lon="105.528719">
<time>2015-09-27T16:19:40Z</time></trkpt>
<trkpt lat="24.754718" lon="105.528759">
<time>2015-09-27T16:19:41Z</time></trkpt>
<trkpt lat="24.754708" lon="105.528799">
<time>2015-09-27T16:19:42Z</time></trkpt>
<trkpt lat="24.754708" lon="105.528849">
<time>2015-09-27T16:19:43Z</time></trkpt>
<trkpt lat="24.754698" lon="105.528889">
<time>2015-09-27T16:19:44Z</time></trkpt>
<trkpt lat="24.754708" lon="105.528929">
<time>2015-09-27T16:19:45Z</time></trkpt>
<trkpt lat="24.754708" lon="105.52896">
<time>2015-09-27T16:19:46Z</time></trkpt>
<trkpt lat="24.754718" lon="105.52899">
<time>2015-09-27T16:19:47Z</time></trkpt>
<trkpt lat="24.754738" lon="105.52901">
<time>2015-09-27T16:19:48Z</time></trkpt>
<trkpt lat="24.754758" lon="105.52903">
<time>2015-09-27T16:19:49Z</time></trkpt>
<trkpt lat="24.754778" lon="105.52903">
<time>2015-09-27T16:19:50Z</time></trkpt>
<trkpt lat="24.754798" lon="105.52904">
<time>2015-09-27T16:19:51Z</time></trkpt>
<trkpt lat="24.754828" lon="105.52904">
<time>2015-09-27T16:19:52Z</time></trkpt>
<trkpt lat="24.754858" lon="105.52904">
<time>2015-09-27T16:19:53Z</time></trkpt>
<trkpt lat="24.754878" lon="105.52904">
<time>2015-09-27T16:19:54Z</time></trkpt>
<trkpt lat="24.754908" lon="105.52904">
<time>2015-09-27T16:19:55Z</time></trkpt>
<trkpt lat="24.754938" lon="105.52903">
<time>2015-09-27T16:19:56Z</time></trkpt>
<trkpt lat="24.754988" lon="105.52902">
<time>2015-09-27T16:19:57Z</time></trkpt>
<trkpt lat="24.755028" lon="105.52901">
<time>2015-09-27T16:19:58Z</time></trkpt>
<trkpt lat="24.755068" lon="105.529">
<time>2015-09-27T16:19:59Z</time></trkpt>
<trkpt lat="24.755108" lon="105.52898">
<time>2015-09-27T16:20:00Z</time></trkpt>
<trkpt lat="24.755148" lon="105.528959">
<time>2015-09-27T16:20:01Z</time></trkpt>
<trkpt lat="24.755188" lon="105.528939">
<time>2015-09-27T16:20:02Z</time></trkpt>
<trkpt lat="24.755218" lon="105.528919">
<time>2015-09-27T16:20:03Z</time></trkpt>
<trkpt lat="24.755258" lon="105.528899">
<time>2015-09-27T16:20:04Z</time></trkpt>
<trkpt lat="24.755318" lon="105.528859">
<time>2015-09-27T16:20:05Z</time></trkpt>
<trkpt lat="24.755368" lon="105.528809">
<time>2015-09-27T16:20:06Z</time></trkpt>
<trkpt lat="24.755418" lon="105.528769">
<time>2015-09-27T16:20:07Z</time></trkpt>
<trkpt lat="24.755468" lon="105.528719">
<time>2015-09-27T16:20:08Z</time></trkpt>
<trkpt lat="24.755517" lon="105.528669">
<time>2015-09-27T16:20:09Z</time></trkpt>
<trkpt lat="24.755567" lon="105.528609">
<time>2015-09-27T16:20:10Z</time></trkpt>
<trkpt lat="24.755617" lon="105.528559">
<time>2015-09-27T16:20:11Z</time></trkpt>
<trkpt lat="24.755657" lon="105.528498">
<time>2015-09-27T16:20:12Z</time></trkpt>
<trkpt lat="24.755717" lon="105.528418">
<time>2015-09-27T16:20:13Z</time></trkpt>
<trkpt lat="24.755767" lon="105.528328">
<time>2015-09-27T16:20:14Z</time></trkpt>
<trkpt lat="24.755806" lon="105.528238">
<time>2015-09-27T16:20:15Z</time></trkpt>
<trkpt lat="24.755856" lon="105.528148">
<time>2015-09-27T16:20:16Z</time></trkpt>
<trkpt lat="24.755886" lon="105.528057">
<time>2015-09-27T16:20:17Z</time></trkpt>
<trkpt lat="24.755926" lon="105.527957">
<time>2015-09-27T16:20:18Z</time></trkpt>
<trkpt lat="24.755955" lon="105.527867">
<time>2015-09-27T16:20:19Z</time></trkpt>
<trkpt lat="24.755985" lon="105.527767">
<time>2015-09-27T16:20:20Z</time></trkpt>
<trkpt lat="24.755995" lon="105.527687">
<time>2015-09-27T16:20:21Z</time></trkpt>
<trkpt lat="24.756015" lon="105.527616">
<time>2015-09-27T16:20:22Z</time></trkpt>
<trkpt lat="24.756034" lon="105.527536">
<time>2015-09-27T16:20:23Z</time></trkpt>
<trkpt lat="24.756044" lon="105.527466">
<time>2015-09-27T16:20:24Z</time></trkpt>
<trkpt lat="24.756064" lon="105.527386">
<time>2015-09-27T16:20:25Z</time></trkpt>
<trkpt lat="24.756084" lon="105.527316">
<time>2015-09-27T16:20:26Z</time></trkpt>
<trkpt lat="24.756114" lon="105.527246">
<time>2015-09-27T16:20:27Z</time></trkpt>
<trkpt lat="24.756133" lon="105.527165">
<time>2015-09-27T16:20:28Z</time></trkpt>
<trkpt lat="24.756163" lon="105.527105">
<time>2015-09-27T16:20:29Z</time></trkpt>
<trkpt lat="24.756193" lon="105.527055">
<time>2015-09-27T16:20:30Z</time></trkpt>
<trkpt lat="24.756223" lon="105.526995">
<time>2015-09-27T16:20:31Z</time></trkpt>
<trkpt lat="24.756253" lon="105.526935">
<time>2015-09-27T16:20:32Z</time></trkpt>
<trkpt lat="24.756293" lon="105.526885">
<time>2015-09-27T16:20:33Z</time></trkpt>
<trkpt lat="24.756333" lon="105.526835">
<time>2015-09-27T16:20:34Z</time></trkpt>
<trkpt lat="24.756372" lon="105.526785">
<time>2015-09-27T16:20:35Z</time></trkpt>
<trkpt lat="24.756412" lon="105.526734">
<time>2015-09-27T16:20:36Z</time></trkpt>
<trkpt lat="24.756452" lon="105.526684">
<time>2015-09-27T16:20:37Z</time></trkpt>
<trkpt lat="24.756492" lon="105.526644">
<time>2015-09-27T16:20:38Z</time></trkpt>
<trkpt lat="24.756532" lon="105.526604">
<time>2015-09-27T16:20:39Z</time></trkpt>
<trkpt lat="24.756572" lon="105.526564">
<time>2015-09-27T16:20:40Z</time></trkpt>
<trkpt lat="24.756622" lon="105.526524">
<time>2015-09-27T16:20:41Z</time></trkpt>
<trkpt lat="24.756662" lon="105.526484">
<time>2015-09-27T16:20:42Z</time></trkpt>
<trkpt lat="24.756712" lon="105.526454">
<time>2015-09-27T16:20:43Z</time></trkpt>
<trkpt lat="24.756761" lon="105.526424">
<time>2015-09-27T16:20:44Z</time></trkpt>
<trkpt lat="24.756811" lon="105.526404">
<time>2015-09-27T16:20:45Z</time></trkpt>
<trkpt lat="24.756851" lon="105.526374">
<time>2015-09-27T16:20:46Z</time></trkpt>
<trkpt lat="24.756901" lon="105.526354">
<time>2015-09-27T16:20:47Z</time></trkpt>
<trkpt lat="24.756941" lon="105.526324">
<time>2015-09-27T16:20:48Z</time></trkpt>
<trkpt lat="24.756981" lon="105.526303">
<time>2015-09-27T16:20:49Z</time></trkpt>
<trkpt lat="24.757031" lon="105.526273">
<time>2015-09-27T16:20:50Z</time></trkpt>
<trkpt lat="24.757061" lon="105.526243">
<time>2015-09-27T16:20:51Z</time></trkpt>
<trkpt lat="24.757101" lon="105.526203">
<time>2015-09-27T16:20:52Z</time></trkpt>
<trkpt lat="24.757131" lon="105.526173">
<time>2015-09-27T16:20:53Z</time></trkpt>
<trkpt lat="24.757161" lon="105.526123">
<time>2015-09-27T16:20:54Z</time></trkpt>
<trkpt lat="24.757191" lon="105.526083">
<time>2015-09-27T16:20:55Z</time></trkpt>
<trkpt lat="24.75721" lon="105.526033">
<time>2015-09-27T16:20:56Z</time></trkpt>
<trkpt lat="24.75723" lon="105.525983">
<time>2015-09-27T16:20:57Z</time></trkpt>
<trkpt lat="24.75725" lon="105.525923">
<time>2015-09-27T16:20:58Z</time></trkpt>
<trkpt lat="24.75726" lon="105.525873">
<time>2015-09-27T16:20:59Z</time></trkpt>
<trkpt lat="24.75728" lon="105.525822">
<time>2015-09-27T16:21:00Z</time></trkpt>
<trkpt lat="24.75729" lon="105.525772">
<time>2015-09-27T16:21:01Z</time></trkpt>
<trkpt lat="24.7573" lon="105.525722">
<time>2015-09-27T16:21:02Z</time></trkpt>
<trkpt lat="24.757309" lon="105.525672">
<time>2015-09-27T16:21:03Z</time></trkpt>
<trkpt lat="24.757319" lon="105.525622">
<time>2015-09-27T16:21:04Z</time></trkpt>
<trkpt lat="24.757329" lon="105.525562">
<time>2015-09-27T16:21:05Z</time></trkpt>
<trkpt lat="24.757339" lon="105.525512">
<time>2015-09-27T16:21:06Z</time></trkpt>
<trkpt lat="24.757339" lon="105.525462">
<time>2015-09-27T16:21:07Z</time></trkpt>
<trkpt lat="24.757339" lon="105.525411">
<time>2015-09-27T16:21:08Z</time></trkpt>
<trkpt lat="24.757339" lon="105.525351">
<time>2015-09-27T16:21:09Z</time></trkpt>
<trkpt lat="24.757338" lon="105.525281">
<time>2015-09-27T16:21:10Z</time></trkpt>
<trkpt lat="24.757338" lon="105.525221">
<time>2015-09-27T16:21:11Z</time></trkpt>
<trkpt lat="24.757338" lon="105.525161">
<time>2015-09-27T16:21:12Z</time></trkpt>
<trkpt lat="24.757338" lon="105.525091">
<time>2015-09-27T16:21:13Z</time></trkpt>
<trkpt lat="24.757348" lon="105.525031">
<time>2015-09-27T16:21:14Z</time></trkpt>
<trkpt lat="24.757358" lon="105.52497">
<time>2015-09-27T16:21:15Z</time></trkpt>
<trkpt lat="24.757367" lon="105.52492">
<time>2015-09-27T16:21:16Z</time></trkpt>
<trkpt lat="24.757387" lon="105.52487">
<time>2015-09-27T16:21:17Z</time></trkpt>
<trkpt lat="24.757407" lon="105.52483">
<time>2015-09-27T16:21:18Z</time></trkpt>
<trkpt lat="24.757427" lon="105.52479">
<time>2015-09-27T16:21:19Z</time></trkpt>
<trkpt lat="24.757447" lon="105.52475">
<time>2015-09-27T16:21:20Z</time></trkpt>
<trkpt lat="24.757467" lon="105.52471">
<time>2015-09-27T16:21:21Z</time></trkpt>
<trkpt lat="24.757487" lon="105.52467">
<time>2015-09-27T16:21:22Z</time></trkpt>
<trkpt lat="24.757497" lon="105.52462">
<time>2015-09-27T16:21:23Z</time></trkpt>
<trkpt lat="24.757516" lon="105.52458">
<time>2015-09-27T16:21:24Z</time></trkpt>
<trkpt lat="24.757526" lon="105.524529">
<time>2015-09-27T16:21:25Z</time></trkpt>
<trkpt lat="24.757536" lon="105.524489">
<time>2015-09-27T16:21:26Z</time></trkpt>
<trkpt lat="24.757536" lon="105.524439">
<time>2015-09-27T16:21:27Z</time></trkpt>
<trkpt lat="24.757536" lon="105.524389">
<time>2015-09-27T16:21:28Z</time></trkpt>
<trkpt lat="24.757526" lon="105.524349">
<time>2015-09-27T16:21:29Z</time></trkpt>
<trkpt lat="24.757516" lon="105.524309">
<time>2015-09-27T16:21:30Z</time></trkpt>
<trkpt lat="24.757506" lon="105.524269">
<time>2015-09-27T16:21:31Z</time></trkpt>
<trkpt lat="24.757486" lon="105.524229">
<time>2015-09-27T16:21:32Z</time></trkpt>
<trkpt lat="24.757455" lon="105.524199">
<time>2015-09-27T16:21:33Z</time></trkpt>
<trkpt lat="24.757425" lon="105.524179">
<time>2015-09-27T16:21:34Z</time></trkpt>
<trkpt lat="24.757385" lon="105.524159">
<time>2015-09-27T16:21:35Z</time></trkpt>
<trkpt lat="24.757345" lon="105.524139">
<time>2015-09-27T16:21:36Z</time></trkpt>
<trkpt lat="24.757295" lon="105.524129">
<time>2015-09-27T16:21:37Z</time></trkpt>
<trkpt lat="24.757255" lon="105.524118">
<time>2015-09-27T16:21:38Z</time></trkpt>
<trkpt lat="24.757205" lon="105.524108">
<time>2015-09-27T16:21:39Z</time></trkpt>
<trkpt lat="24.757165" lon="105.524098">
<time>2015-09-27T16:21:40Z</time></trkpt>
<trkpt lat="24.757105" lon="105.524088">
<time>2015-09-27T16:21:41Z</time></trkpt>
<trkpt lat="24.757055" lon="105.524078">
<time>2015-09-27T16:21:42Z</time></trkpt>
<trkpt lat="24.757005" lon="105.524078">
<time>2015-09-27T16:21:43Z</time></trkpt>
<trkpt lat="24.756955" lon="105.524068">
<time>2015-09-27T16:21:44Z</time></trkpt>
<trkpt lat="24.756905" lon="105.524058">
<time>2015-09-27T16:21:45Z</time></trkpt>
<trkpt lat="24.756855" lon="105.524058">
<time>2015-09-27T16:21:46Z</time></trkpt>
<trkpt lat="24.756805" lon="105.524058">
<time>2015-09-27T16:21:47Z</time></trkpt>
<trkpt lat="24.756755" lon="105.524058">
<time>2015-09-27T16:21:48Z</time></trkpt>
<trkpt lat="24.756705" lon="105.524068">
<time>2015-09-27T16:21:49Z</time></trkpt>
<trkpt lat="24.756655" lon="105.524068">
<time>2015-09-27T16:21:50Z</time></trkpt>
<trkpt lat="24.756595" lon="105.524078">
<time>2015-09-27T16:21:51Z</time></trkpt>
<trkpt lat="24.756545" lon="105.524088">
<time>2015-09-27T16:21:52Z</time></trkpt>
<trkpt lat="24.756495" lon="105.524098">
<time>2015-09-27T16:21:53Z</time></trkpt>
<trkpt lat="24.756445" lon="105.524109">
<time>2015-09-27T16:21:54Z</time></trkpt>
<trkpt lat="24.756335" lon="105.524139">
<time>2015-09-27T16:21:55Z</time></trkpt>
<trkpt lat="24.756275" lon="105.524149">
<time>2015-09-27T16:21:56Z</time></trkpt>
<trkpt lat="24.756215" lon="105.524169">
<time>2015-09-27T16:21:57Z</time></trkpt>
<trkpt lat="24.756046" lon="105.524199">
<time>2015-09-27T16:21:58Z</time></trkpt>
<trkpt lat="24.755986" lon="105.524219">
<time>2015-09-27T16:21:59Z</time></trkpt>
<trkpt lat="24.755926" lon="105.524229">
<time>2015-09-27T16:22:00Z</time></trkpt>
<trkpt lat="24.755866" lon="105.524249">
<time>2015-09-27T16:22:01Z</time></trkpt>
<trkpt lat="24.755806" lon="105.524259">
<time>2015-09-27T16:22:02Z</time></trkpt>
<trkpt lat="24.755746" lon="105.524279">
<time>2015-09-27T16:22:03Z</time></trkpt>
<trkpt lat="24.755686" lon="105.524289">
<time>2015-09-27T16:22:04Z</time></trkpt>
<trkpt lat="24.755626" lon="105.524309">
<time>2015-09-27T16:22:05Z</time></trkpt>
<trkpt lat="24.755566" lon="105.524329">
<time>2015-09-27T16:22:06Z</time></trkpt>
<trkpt lat="24.755506" lon="105.524349">
<time>2015-09-27T16:22:07Z</time></trkpt>
<trkpt lat="24.755446" lon="105.524369">
<time>2015-09-27T16:22:08Z</time></trkpt>
<trkpt lat="24.755386" lon="105.524389">
<time>2015-09-27T16:22:09Z</time></trkpt>
<trkpt lat="24.755306" lon="105.524419">
<time>2015-09-27T16:22:10Z</time></trkpt>
<trkpt lat="24.755236" lon="105.524449">
<time>2015-09-27T16:22:11Z</time></trkpt>
<trkpt lat="24.755156" lon="105.524489">
<time>2015-09-27T16:22:12Z</time></trkpt>
<trkpt lat="24.755076" lon="105.52452">
<time>2015-09-27T16:22:13Z</time></trkpt>
<trkpt lat="24.755007" lon="105.52455">
<time>2015-09-27T16:22:14Z</time></trkpt>
<trkpt lat="24.754927" lon="105.52458">
<time>2015-09-27T16:22:15Z</time></trkpt>
<trkpt lat="24.754847" lon="105.5246">
<time>2015-09-27T16:22:16Z</time></trkpt>
<trkpt lat="24.754777" lon="105.52463">
<time>2015-09-27T16:22:17Z</time></trkpt>
<trkpt lat="24.754727" lon="105.52464">
<time>2015-09-27T16:22:18Z</time></trkpt>
<trkpt lat="24.754677" lon="105.52465">
<time>2015-09-27T16:22:19Z</time></trkpt>
<trkpt lat="24.754637" lon="105.52466">
<time>2015-09-27T16:22:20Z</time></trkpt>
<trkpt lat="24.754537" lon="105.52468">
<time>2015-09-27T16:22:21Z</time></trkpt>
<trkpt lat="24.754497" lon="105.52469">
<time>2015-09-27T16:22:22Z</time></trkpt>
<trkpt lat="24.754447" lon="105.5247">
<time>2015-09-27T16:22:23Z</time></trkpt>
<trkpt lat="24.754397" lon="105.52472">
<time>2015-09-27T16:22:24Z</time></trkpt>
<trkpt lat="24.754347" lon="105.52473">
<time>2015-09-27T16:22:25Z</time></trkpt>
<trkpt lat="24.754287" lon="105.52475">
<time>2015-09-27T16:22:26Z</time></trkpt>
<trkpt lat="24.754237" lon="105.52477">
<time>2015-09-27T16:22:27Z</time></trkpt>
<trkpt lat="24.754177" lon="105.52479">
<time>2015-09-27T16:22:28Z</time></trkpt>
<trkpt lat="24.754127" lon="105.52481">
<time>2015-09-27T16:22:29Z</time></trkpt>
<trkpt lat="24.754077" lon="105.52483">
<time>2015-09-27T16:22:30Z</time></trkpt>
<trkpt lat="24.754017" lon="105.52486">
<time>2015-09-27T16:22:31Z</time></trkpt>
<trkpt lat="24.753968" lon="105.52488">
<time>2015-09-27T16:22:32Z</time></trkpt>
<trkpt lat="24.753918" lon="105.5249">
<time>2015-09-27T16:22:33Z</time></trkpt>
<trkpt lat="24.753868" lon="105.524931">
<time>2015-09-27T16:22:34Z</time></trkpt>
<trkpt lat="24.753818" lon="105.524951">
<time>2015-09-27T16:22:35Z</time></trkpt>
<trkpt lat="24.753778" lon="105.524971">
<time>2015-09-27T16:22:36Z</time></trkpt>
<trkpt lat="24.753728" lon="105.525001">
<time>2015-09-27T16:22:37Z</time></trkpt>
<trkpt lat="24.753678" lon="105.525021">
<time>2015-09-27T16:22:38Z</time></trkpt>
<trkpt lat="24.753638" lon="105.525051">
<time>2015-09-27T16:22:39Z</time></trkpt>
<trkpt lat="24.753588" lon="105.525081">
<time>2015-09-27T16:22:40Z</time></trkpt>
<trkpt lat="24.753528" lon="105.525121">
<time>2015-09-27T16:22:41Z</time></trkpt>
<trkpt lat="24.753468" lon="105.525161">
<time>2015-09-27T16:22:42Z</time></trkpt>
<trkpt lat="24.753408" lon="105.525211">
<time>2015-09-27T16:22:43Z</time></trkpt>
<trkpt lat="24.753349" lon="105.525251">
<time>2015-09-27T16:22:44Z</time></trkpt>
<trkpt lat="24.753289" lon="105.525301">
<time>2015-09-27T16:22:45Z</time></trkpt>
<trkpt lat="24.753219" lon="105.525341">
<time>2015-09-27T16:22:46Z</time></trkpt>
<trkpt lat="24.753159" lon="105.525382">
<time>2015-09-27T16:22:47Z</time></trkpt>
<trkpt lat="24.753099" lon="105.525422">
<time>2015-09-27T16:22:48Z</time></trkpt>
<trkpt lat="24.753039" lon="105.525452">
<time>2015-09-27T16:22:49Z</time></trkpt>
<trkpt lat="24.752989" lon="105.525482">
<time>2015-09-27T16:22:50Z</time></trkpt>
<trkpt lat="24.752929" lon="105.525512">
<time>2015-09-27T16:22:51Z</time></trkpt>
<trkpt lat="24.752869" lon="105.525532">
<time>2015-09-27T16:22:52Z</time></trkpt>
<trkpt lat="24.752809" lon="105.525562">
<time>2015-09-27T16:22:53Z</time></trkpt>
<trkpt lat="24.752749" lon="105.525582">
<time>2015-09-27T16:22:54Z</time></trkpt>
<trkpt lat="24.75269" lon="105.525602">
<time>2015-09-27T16:22:55Z</time></trkpt>
<trkpt lat="24.75263" lon="105.525612">
<time>2015-09-27T16:22:56Z</time></trkpt>
<trkpt lat="24.7526" lon="105.525622">
<time>2015-09-27T16:22:57Z</time></trkpt>
<trkpt lat="24.75257" lon="105.525632">
<time>2015-09-27T16:22:58Z</time></trkpt>
<trkpt lat="24.75254" lon="105.525632">
<time>2015-09-27T16:22:59Z</time></trkpt>
<trkpt lat="24.75251" lon="105.525642">
<time>2015-09-27T16:23:00Z</time></trkpt>
<trkpt lat="24.75248" lon="105.525642">
<time>2015-09-27T16:23:01Z</time></trkpt>
<trkpt lat="24.75245" lon="105.525642">
<time>2015-09-27T16:23:02Z</time></trkpt>
<trkpt lat="24.75242" lon="105.525642">
<time>2015-09-27T16:23:03Z</time></trkpt>
<trkpt lat="24.75239" lon="105.525642">
<time>2015-09-27T16:23:04Z</time></trkpt>
<trkpt lat="24.75234" lon="105.525632">
<time>2015-09-27T16:23:05Z</time></trkpt>
<trkpt lat="24.75228" lon="105.525622">
<time>2015-09-27T16:23:06Z</time></trkpt>
<trkpt lat="24.75223" lon="105.525602">
<time>2015-09-27T16:23:07Z</time></trkpt>
<trkpt lat="24.75218" lon="105.525582">
<time>2015-09-27T16:23:08Z</time></trkpt>
<trkpt lat="24.752129" lon="105.525552">
<time>2015-09-27T16:23:09Z</time></trkpt>
<trkpt lat="24.752079" lon="105.525522">
<time>2015-09-27T16:23:10Z</time></trkpt>
<trkpt lat="24.752039" lon="105.525482">
<time>2015-09-27T16:23:11Z</time></trkpt>
<trkpt lat="24.751999" lon="105.525442">
<time>2015-09-27T16:23:12Z</time></trkpt>
<trkpt lat="24.751969" lon="105.525402">
<time>2015-09-27T16:23:13Z</time></trkpt>
<trkpt lat="24.751939" lon="105.525372">
<time>2015-09-27T16:23:14Z</time></trkpt>
<trkpt lat="24.751919" lon="105.525332">
<time>2015-09-27T16:23:15Z</time></trkpt>
<trkpt lat="24.751899" lon="105.525281">
<time>2015-09-27T16:23:16Z</time></trkpt>
<trkpt lat="24.751869" lon="105.525241">
<time>2015-09-27T16:23:17Z</time></trkpt>
<trkpt lat="24.751849" lon="105.525201">
<time>2015-09-27T16:23:18Z</time></trkpt>
<trkpt lat="24.751828" lon="105.525151">
<time>2015-09-27T16:23:19Z</time></trkpt>
<trkpt lat="24.751808" lon="105.525111">
<time>2015-09-27T16:23:20Z</time></trkpt>
<trkpt lat="24.751798" lon="105.525081">
<time>2015-09-27T16:23:21Z</time></trkpt>
<trkpt lat="24.751788" lon="105.525041">
<time>2015-09-27T16:23:22Z</time></trkpt>
<trkpt lat="24.751768" lon="105.525011">
<time>2015-09-27T16:23:23Z</time></trkpt>
<trkpt lat="24.751758" lon="105.524971">
<time>2015-09-27T16:23:24Z</time></trkpt>
<trkpt lat="24.751748" lon="105.524941">
<time>2015-09-27T16:23:25Z</time></trkpt>
<trkpt lat="24.751738" lon="105.524901">
<time>2015-09-27T16:23:26Z</time></trkpt>
<trkpt lat="24.751728" lon="105.52487">
<time>2015-09-27T16:23:27Z</time></trkpt>
<trkpt lat="24.751718" lon="105.52483">
<time>2015-09-27T16:23:28Z</time></trkpt>
<trkpt lat="24.751717" lon="105.52479">
<time>2015-09-27T16:23:29Z</time></trkpt>
<trkpt lat="24.751717" lon="105.52475">
<time>2015-09-27T16:23:30Z</time></trkpt>
<trkpt lat="24.751717" lon="105.52471">
<time>2015-09-27T16:23:31Z</time></trkpt>
<trkpt lat="24.751717" lon="105.52467">
<time>2015-09-27T16:23:32Z</time></trkpt>
<trkpt lat="24.751727" lon="105.52463">
<time>2015-09-27T16:23:33Z</time></trkpt>
<trkpt lat="24.751727" lon="105.52459">
<time>2015-09-27T16:23:34Z</time></trkpt>
<trkpt lat="24.751737" lon="105.52455">
<time>2015-09-27T16:23:35Z</time></trkpt>
<trkpt lat="24.751747" lon="105.52452">
<time>2015-09-27T16:23:36Z</time></trkpt>
<trkpt lat="24.751767" lon="105.52447">
<time>2015-09-27T16:23:37Z</time></trkpt>
<trkpt lat="24.751796" lon="105.524419">
<time>2015-09-27T16:23:38Z</time></trkpt>
<trkpt lat="24.751816" lon="105.524369">
<time>2015-09-27T16:23:39Z</time></trkpt>
<trkpt lat="24.751856" lon="105.524329">
<time>2015-09-27T16:23:40Z</time></trkpt>
<trkpt lat="24.751886" lon="105.524279">
<time>2015-09-27T16:23:41Z</time></trkpt>
<trkpt lat="24.751966" lon="105.524179">
<time>2015-09-27T16:23:42Z</time></trkpt>
<trkpt lat="24.752006" lon="105.524129">
<time>2015-09-27T16:23:43Z</time></trkpt>
<trkpt lat="24.752045" lon="105.524069">
<time>2015-09-27T16:23:44Z</time></trkpt>
<trkpt lat="24.752085" lon="105.524018">
<time>2015-09-27T16:23:45Z</time></trkpt>
<trkpt lat="24.752115" lon="105.523958">
<time>2015-09-27T16:23:46Z</time></trkpt>
<trkpt lat="24.752155" lon="105.523898">
<time>2015-09-27T16:23:47Z</time></trkpt>
<trkpt lat="24.752175" lon="105.523848">
<time>2015-09-27T16:23:48Z</time></trkpt>
<trkpt lat="24.752195" lon="105.523808">
<time>2015-09-27T16:23:49Z</time></trkpt>
<trkpt lat="24.752205" lon="105.523778">
<time>2015-09-27T16:23:50Z</time></trkpt>
<trkpt lat="24.752195" lon="105.523748">
<time>2015-09-27T16:23:51Z</time></trkpt>
<trkpt lat="24.752185" lon="105.523748">
<time>2015-09-27T16:23:52Z</time></trkpt>
<trkpt lat="24.752155" lon="105.523748">
<time>2015-09-27T16:23:53Z</time></trkpt>
<trkpt lat="24.752115" lon="105.523758">
<time>2015-09-27T16:23:54Z</time></trkpt>
<trkpt lat="24.752075" lon="105.523768">
<time>2015-09-27T16:23:55Z</time></trkpt>
<trkpt lat="24.752025" lon="105.523788">
<time>2015-09-27T16:23:56Z</time></trkpt>
<trkpt lat="24.751965" lon="105.523818">
<time>2015-09-27T16:23:57Z</time></trkpt>
<trkpt lat="24.751915" lon="105.523838">
<time>2015-09-27T16:23:58Z</time></trkpt>
<trkpt lat="24.751855" lon="105.523858">
<time>2015-09-27T16:23:59Z</time></trkpt>
<trkpt lat="24.751825" lon="105.523868">
<time>2015-09-27T16:24:00Z</time></trkpt>
<trkpt lat="24.751805" lon="105.523868">
<time>2015-09-27T16:24:01Z</time></trkpt>
<trkpt lat="24.751785" lon="105.523878">
<time>2015-09-27T16:24:02Z</time></trkpt>
<trkpt lat="24.751765" lon="105.523878">
<time>2015-09-27T16:24:03Z</time></trkpt>
<trkpt lat="24.751745" lon="105.523878">
<time>2015-09-27T16:24:04Z</time></trkpt>
<trkpt lat="24.751735" lon="105.523878">
<time>2015-09-27T16:24:05Z</time></trkpt>
<trkpt lat="24.751725" lon="105.523878">
<time>2015-09-27T16:24:06Z</time></trkpt>
<trkpt lat="24.751715" lon="105.523868">
<time>2015-09-27T16:24:07Z</time></trkpt>
<trkpt lat="24.751715" lon="105.523858">
<time>2015-09-27T16:24:08Z</time></trkpt>
<trkpt lat="24.751715" lon="105.523848">
<time>2015-09-27T16:24:09Z</time></trkpt>
<trkpt lat="24.751715" lon="105.523838">
<time>2015-09-27T16:24:10Z</time></trkpt>
<trkpt lat="24.751725" lon="105.523818">
<time>2015-09-27T16:24:11Z</time></trkpt>
<trkpt lat="24.751725" lon="105.523798">
<time>2015-09-27T16:24:12Z</time></trkpt>
<trkpt lat="24.751735" lon="105.523788">
<time>2015-09-27T16:24:13Z</time></trkpt>
<trkpt lat="24.751745" lon="105.523768">
<time>2015-09-27T16:24:14Z</time></trkpt>
<trkpt lat="24.751755" lon="105.523748">
<time>2015-09-27T16:24:15Z</time></trkpt>
<trkpt lat="24.751784" lon="105.523698">
<time>2015-09-27T16:24:16Z</time></trkpt>
<trkpt lat="24.751814" lon="105.523648">
<time>2015-09-27T16:24:17Z</time></trkpt>
<trkpt lat="24.751854" lon="105.523598">
<time>2015-09-27T16:24:18Z</time></trkpt>
<trkpt lat="24.751884" lon="105.523567">
<time>2015-09-27T16:24:19Z</time></trkpt>
<trkpt lat="24.751914" lon="105.523527">
<time>2015-09-27T16:24:20Z</time></trkpt>
<trkpt lat="24.751954" lon="105.523497">
<time>2015-09-27T16:24:21Z</time></trkpt>
<trkpt lat="24.751994" lon="105.523467">
<time>2015-09-27T16:24:22Z</time></trkpt>
<trkpt lat="24.752024" lon="105.523427">
<time>2015-09-27T16:24:23Z</time></trkpt>
<trkpt lat="24.752074" lon="105.523387">
<time>2015-09-27T16:24:24Z</time></trkpt>
<trkpt lat="24.752123" lon="105.523347">
<time>2015-09-27T16:24:25Z</time></trkpt>
<trkpt lat="24.752173" lon="105.523297">
<time>2015-09-27T16:24:26Z</time></trkpt>
<trkpt lat="24.752223" lon="105.523257">
<time>2015-09-27T16:24:27Z</time></trkpt>
<trkpt lat="24.752273" lon="105.523207">
<time>2015-09-27T16:24:28Z</time></trkpt>
<trkpt lat="24.752323" lon="105.523156">
<time>2015-09-27T16:24:29Z</time></trkpt>
<trkpt lat="24.752363" lon="105.523096">
<time>2015-09-27T16:24:30Z</time></trkpt>
<trkpt lat="24.752413" lon="105.523046">
<time>2015-09-27T16:24:31Z</time></trkpt>
<trkpt lat="24.752443" lon="105.522996">
<time>2015-09-27T16:24:32Z</time></trkpt>
<trkpt lat="24.752512" lon="105.522906">
<time>2015-09-27T16:24:33Z</time></trkpt>
<trkpt lat="24.752542" lon="105.522856">
<time>2015-09-27T16:24:34Z</time></trkpt>
<trkpt lat="24.752572" lon="105.522816">
<time>2015-09-27T16:24:35Z</time></trkpt>
<trkpt lat="24.752612" lon="105.522776">
<time>2015-09-27T16:24:36Z</time></trkpt>
<trkpt lat="24.752652" lon="105.522735">
<time>2015-09-27T16:24:37Z</time></trkpt>
<trkpt lat="24.752692" lon="105.522705">
<time>2015-09-27T16:24:38Z</time></trkpt>
<trkpt lat="24.752732" lon="105.522685">
<time>2015-09-27T16:24:39Z</time></trkpt>
<trkpt lat="24.752772" lon="105.522675">
<time>2015-09-27T16:24:40Z</time></trkpt>
<trkpt lat="24.752812" lon="105.522655">
<time>2015-09-27T16:24:41Z</time></trkpt>
<trkpt lat="24.752852" lon="105.522645">
<time>2015-09-27T16:24:42Z</time></trkpt>
<trkpt lat="24.752892" lon="105.522645">
<time>2015-09-27T16:24:43Z</time></trkpt>
<trkpt lat="24.752931" lon="105.522635">
<time>2015-09-27T16:24:44Z</time></trkpt>
<trkpt lat="24.752981" lon="105.522635">
<time>2015-09-27T16:24:45Z</time></trkpt>
<trkpt lat="24.753022" lon="105.522645">
<time>2015-09-27T16:24:46Z</time></trkpt>
<trkpt lat="24.753082" lon="105.522655">
<time>2015-09-27T16:24:47Z</time></trkpt>
<trkpt lat="24.753132" lon="105.522665">
<time>2015-09-27T16:24:48Z</time></trkpt>
<trkpt lat="24.753192" lon="105.522685">
<time>2015-09-27T16:24:49Z</time></trkpt>
<trkpt lat="24.753242" lon="105.522705">
<time>2015-09-27T16:24:50Z</time></trkpt>
<trkpt lat="24.753302" lon="105.522725">
<time>2015-09-27T16:24:51Z</time></trkpt>
<trkpt lat="24.753352" lon="105.522745">
<time>2015-09-27T16:24:52Z</time></trkpt>
<trkpt lat="24.753412" lon="105.522766">
<time>2015-09-27T16:24:53Z</time></trkpt>
<trkpt lat="24.753462" lon="105.522786">
<time>2015-09-27T16:24:54Z</time></trkpt>
<trkpt lat="24.753502" lon="105.522786">
<time>2015-09-27T16:24:55Z</time></trkpt>
<trkpt lat="24.753542" lon="105.522796">
<time>2015-09-27T16:24:56Z</time></trkpt>
<trkpt lat="24.753582" lon="105.522796">
<time>2015-09-27T16:24:57Z</time></trkpt>
<trkpt lat="24.753612" lon="105.522806">
<time>2015-09-27T16:24:58Z</time></trkpt>
<trkpt lat="24.753652" lon="105.522806">
<time>2015-09-27T16:24:59Z</time></trkpt>
<trkpt lat="24.753692" lon="105.522796">
<time>2015-09-27T16:25:00Z</time></trkpt>
<trkpt lat="24.753732" lon="105.522796">
<time>2015-09-27T16:25:01Z</time></trkpt>
<trkpt lat="24.753772" lon="105.522796">
<time>2015-09-27T16:25:02Z</time></trkpt>
<trkpt lat="24.753812" lon="105.522786">
<time>2015-09-27T16:25:03Z</time></trkpt>
<trkpt lat="24.753852" lon="105.522786">
<time>2015-09-27T16:25:04Z</time></trkpt>
<trkpt lat="24.753892" lon="105.522776">
<time>2015-09-27T16:25:05Z</time></trkpt>
<trkpt lat="24.753932" lon="105.522765">
<time>2015-09-27T16:25:06Z</time></trkpt>
<trkpt lat="24.753962" lon="105.522745">
<time>2015-09-27T16:25:07Z</time></trkpt>
<trkpt lat="24.754002" lon="105.522735">
<time>2015-09-27T16:25:08Z</time></trkpt>
<trkpt lat="24.754032" lon="105.522715">
<time>2015-09-27T16:25:09Z</time></trkpt>
<trkpt lat="24.754062" lon="105.522695">
<time>2015-09-27T16:25:10Z</time></trkpt>
<trkpt lat="24.754101" lon="105.522655">
<time>2015-09-27T16:25:11Z</time></trkpt>
<trkpt lat="24.754131" lon="105.522615">
<time>2015-09-27T16:25:12Z</time></trkpt>
<trkpt lat="24.754161" lon="105.522565">
<time>2015-09-27T16:25:13Z</time></trkpt>
<trkpt lat="24.754191" lon="105.522515">
<time>2015-09-27T16:25:14Z</time></trkpt>
<trkpt lat="24.754211" lon="105.522465">
<time>2015-09-27T16:25:15Z</time></trkpt>
<trkpt lat="24.754231" lon="105.522405">
<time>2015-09-27T16:25:16Z</time></trkpt>
<trkpt lat="24.754241" lon="105.522344">
<time>2015-09-27T16:25:17Z</time></trkpt>
<trkpt lat="24.75426" lon="105.522284">
<time>2015-09-27T16:25:18Z</time></trkpt>
<trkpt lat="24.75428" lon="105.522194">
<time>2015-09-27T16:25:19Z</time></trkpt>
<trkpt lat="24.75429" lon="105.522094">
<time>2015-09-27T16:25:20Z</time></trkpt>
<trkpt lat="24.75431" lon="105.522004">
<time>2015-09-27T16:25:21Z</time></trkpt>
<trkpt lat="24.754319" lon="105.521903">
<time>2015-09-27T16:25:22Z</time></trkpt>
<trkpt lat="24.754329" lon="105.521813">
<time>2015-09-27T16:25:23Z</time></trkpt>
<trkpt lat="24.754349" lon="105.521723">
<time>2015-09-27T16:25:24Z</time></trkpt>
<trkpt lat="24.754359" lon="105.521623">
<time>2015-09-27T16:25:25Z</time></trkpt>
<trkpt lat="24.754378" lon="105.521533">
<time>2015-09-27T16:25:26Z</time></trkpt>
<trkpt lat="24.754388" lon="105.521452">
<time>2015-09-27T16:25:27Z</time></trkpt>
<trkpt lat="24.754408" lon="105.521382">
<time>2015-09-27T16:25:28Z</time></trkpt>
<trkpt lat="24.754428" lon="105.521302">
<time>2015-09-27T16:25:29Z</time></trkpt>
<trkpt lat="24.754448" lon="105.521222">
<time>2015-09-27T16:25:30Z</time></trkpt>
<trkpt lat="24.754477" lon="105.521152">
<time>2015-09-27T16:25:31Z</time></trkpt>
<trkpt lat="24.754507" lon="105.521082">
<time>2015-09-27T16:25:32Z</time></trkpt>
<trkpt lat="24.754537" lon="105.521011">
<time>2015-09-27T16:25:33Z</time></trkpt>
<trkpt lat="24.754577" lon="105.520951">
<time>2015-09-27T16:25:34Z</time></trkpt>
<trkpt lat="24.754617" lon="105.520891">
<time>2015-09-27T16:25:35Z</time></trkpt>
<trkpt lat="24.754646" lon="105.520841">
<time>2015-09-27T16:25:36Z</time></trkpt>
<trkpt lat="24.754686" lon="105.520791">
<time>2015-09-27T16:25:37Z</time></trkpt>
<trkpt lat="24.754776" lon="105.520691">
<time>2015-09-27T16:25:38Z</time></trkpt>
<trkpt lat="24.754816" lon="105.52064">
<time>2015-09-27T16:25:39Z</time></trkpt>
<trkpt lat="24.754846" lon="105.52059">
<time>2015-09-27T16:25:40Z</time></trkpt>
<trkpt lat="24.754886" lon="105.52054">
<time>2015-09-27T16:25:41Z</time></trkpt>
<trkpt lat="24.754925" lon="105.52048">
<time>2015-09-27T16:25:42Z</time></trkpt>
<trkpt lat="24.754955" lon="105.52042">
<time>2015-09-27T16:25:43Z</time></trkpt>
<trkpt lat="24.754995" lon="105.52035">
<time>2015-09-27T16:25:44Z</time></trkpt>
<trkpt lat="24.755055" lon="105.520219">
<time>2015-09-27T16:25:45Z</time></trkpt>
<trkpt lat="24.755084" lon="105.520149">
<time>2015-09-27T16:25:46Z</time></trkpt>
<trkpt lat="24.755124" lon="105.520089">
<time>2015-09-27T16:25:47Z</time></trkpt>
<trkpt lat="24.755164" lon="105.520029">
<time>2015-09-27T16:25:48Z</time></trkpt>
<trkpt lat="24.755194" lon="105.519989">
<time>2015-09-27T16:25:49Z</time></trkpt>
<trkpt lat="24.755224" lon="105.519949">
<time>2015-09-27T16:25:50Z</time></trkpt>
<trkpt lat="24.755244" lon="105.519909">
<time>2015-09-27T16:25:51Z</time></trkpt>
<trkpt lat="24.755274" lon="105.519869">
<time>2015-09-27T16:25:52Z</time></trkpt>
<trkpt lat="24.755304" lon="105.519828">
<time>2015-09-27T16:25:53Z</time></trkpt>
<trkpt lat="24.755323" lon="105.519788">
<time>2015-09-27T16:25:54Z</time></trkpt>
<trkpt lat="24.755343" lon="105.519748">
<time>2015-09-27T16:25:55Z</time></trkpt>
<trkpt lat="24.755363" lon="105.519708">
<time>2015-09-27T16:25:56Z</time></trkpt>
<trkpt lat="24.755373" lon="105.519658">
<time>2015-09-27T16:25:57Z</time></trkpt>
<trkpt lat="24.755383" lon="105.519618">
<time>2015-09-27T16:25:58Z</time></trkpt>
<trkpt lat="24.755383" lon="105.519568">
<time>2015-09-27T16:25:59Z</time></trkpt>
<trkpt lat="24.755383" lon="105.519518">
<time>2015-09-27T16:26:00Z</time></trkpt>
<trkpt lat="24.755383" lon="105.519468">
<time>2015-09-27T16:26:01Z</time></trkpt>
<trkpt lat="24.755382" lon="105.519417">
<time>2015-09-27T16:26:02Z</time></trkpt>
<trkpt lat="24.755382" lon="105.519367">
<time>2015-09-27T16:26:03Z</time></trkpt>
<trkpt lat="24.755382" lon="105.519317">
<time>2015-09-27T16:26:04Z</time></trkpt>
<trkpt lat="24.755382" lon="105.519267">
<time>2015-09-27T16:26:05Z</time></trkpt>
<trkpt lat="24.755382" lon="105.519227">
<time>2015-09-27T16:26:06Z</time></trkpt>
<trkpt lat="24.755392" lon="105.519177">
<time>2015-09-27T16:26:07Z</time></trkpt>
<trkpt lat="24.755392" lon="105.519127">
<time>2015-09-27T16:26:08Z</time></trkpt>
<trkpt lat="24.755382" lon="105.519087">
<time>2015-09-27T16:26:09Z</time></trkpt>
<trkpt lat="24.755381" lon="105.519037">
<time>2015-09-27T16:26:10Z</time></trkpt>
<trkpt lat="24.755371" lon="105.518996">
<time>2015-09-27T16:26:11Z</time></trkpt>
<trkpt lat="24.755351" lon="105.518946">
<time>2015-09-27T16:26:12Z</time></trkpt>
<trkpt lat="24.755341" lon="105.518936">
<time>2015-09-27T16:26:13Z</time></trkpt>
<trkpt lat="24.755341" lon="105.518926">
<time>2015-09-27T16:26:14Z</time></trkpt>
<trkpt lat="24.755331" lon="105.518916">
<time>2015-09-27T16:26:15Z</time></trkpt>
<trkpt lat="24.755321" lon="105.518906">
<time>2015-09-27T16:26:16Z</time></trkpt>
<trkpt lat="24.755311" lon="105.518896">
<time>2015-09-27T16:26:17Z</time></trkpt>
<trkpt lat="24.755301" lon="105.518886">
<time>2015-09-27T16:26:18Z</time></trkpt>
<trkpt lat="24.755291" lon="105.518886">
<time>2015-09-27T16:26:19Z</time></trkpt>
<trkpt lat="24.755281" lon="105.518876">
<time>2015-09-27T16:26:20Z</time></trkpt>
<trkpt lat="24.755261" lon="105.518876">
<time>2015-09-27T16:26:21Z</time></trkpt>
<trkpt lat="24.755241" lon="105.518876">
<time>2015-09-27T16:26:22Z</time></trkpt>
<trkpt lat="24.755221" lon="105.518876">
<time>2015-09-27T16:26:23Z</time></trkpt>
<trkpt lat="24.755201" lon="105.518886">
<time>2015-09-27T16:26:24Z</time></trkpt>
<trkpt lat="24.755181" lon="105.518896">
<time>2015-09-27T16:26:25Z</time></trkpt>
<trkpt lat="24.755161" lon="105.518906">
<time>2015-09-27T16:26:26Z</time></trkpt>
<trkpt lat="24.755141" lon="105.518916">
<time>2015-09-27T16:26:27Z</time></trkpt>
<trkpt lat="24.755081" lon="105.518966">
<time>2015-09-27T16:26:28Z</time></trkpt>
<trkpt lat="24.755021" lon="105.519007">
<time>2015-09-27T16:26:29Z</time></trkpt>
<trkpt lat="24.754971" lon="105.519057">
<time>2015-09-27T16:26:30Z</time></trkpt>
<trkpt lat="24.754932" lon="105.519107">
<time>2015-09-27T16:26:31Z</time></trkpt>
<trkpt lat="24.754882" lon="105.519167">
<time>2015-09-27T16:26:32Z</time></trkpt>
<trkpt lat="24.754842" lon="105.519217">
<time>2015-09-27T16:26:33Z</time></trkpt>
<trkpt lat="24.754802" lon="105.519277">
<time>2015-09-27T16:26:34Z</time></trkpt>
<trkpt lat="24.754762" lon="105.519327">
<time>2015-09-27T16:26:35Z</time></trkpt>
<trkpt lat="24.754712" lon="105.519377">
<time>2015-09-27T16:26:36Z</time></trkpt>
<trkpt lat="24.754663" lon="105.519428">
<time>2015-09-27T16:26:37Z</time></trkpt>
<trkpt lat="24.754613" lon="105.519478">
<time>2015-09-27T16:26:38Z</time></trkpt>
<trkpt lat="24.754563" lon="105.519528">
<time>2015-09-27T16:26:39Z</time></trkpt>
<trkpt lat="24.754503" lon="105.519568">
<time>2015-09-27T16:26:40Z</time></trkpt>
<trkpt lat="24.754453" lon="105.519608">
<time>2015-09-27T16:26:41Z</time></trkpt>
<trkpt lat="24.754393" lon="105.519648">
<time>2015-09-27T16:26:42Z</time></trkpt>
<trkpt lat="24.754333" lon="105.519678">
<time>2015-09-27T16:26:43Z</time></trkpt>
<trkpt lat="24.754263" lon="105.519728">
<time>2015-09-27T16:26:44Z</time></trkpt>
<trkpt lat="24.754104" lon="105.519808">
<time>2015-09-27T16:26:45Z</time></trkpt>
<trkpt lat="24.754024" lon="105.519859">
<time>2015-09-27T16:26:46Z</time></trkpt>
<trkpt lat="24.753954" lon="105.519909">
<time>2015-09-27T16:26:47Z</time></trkpt>
<trkpt lat="24.753874" lon="105.519969">
<time>2015-09-27T16:26:48Z</time></trkpt>
<trkpt lat="24.753794" lon="105.520039">
<time>2015-09-27T16:26:49Z</time></trkpt>
<trkpt lat="24.753705" lon="105.520129">
<time>2015-09-27T16:26:50Z</time></trkpt>
<trkpt lat="24.753675" lon="105.520159">
<time>2015-09-27T16:26:51Z</time></trkpt>
<trkpt lat="24.753645" lon="105.520199">
<time>2015-09-27T16:26:52Z</time></trkpt>
<trkpt lat="24.753615" lon="105.52023">
<time>2015-09-27T16:26:53Z</time></trkpt>
<trkpt lat="24.753595" lon="105.52027">
<time>2015-09-27T16:26:54Z</time></trkpt>
<trkpt lat="24.753565" lon="105.52029">
<time>2015-09-27T16:26:55Z</time></trkpt>
<trkpt lat="24.753545" lon="105.52031">
<time>2015-09-27T16:26:56Z</time></trkpt>
<trkpt lat="24.753515" lon="105.52032">
<time>2015-09-27T16:26:57Z</time></trkpt>
<trkpt lat="24.753505" lon="105.52031">
<time>2015-09-27T16:26:58Z</time></trkpt>
<trkpt lat="24.753485" lon="105.5203">
<time>2015-09-27T16:26:59Z</time></trkpt>
<trkpt lat="24.753475" lon="105.52028">
<time>2015-09-27T16:27:00Z</time></trkpt>
<trkpt lat="24.753465" lon="105.52025">
<time>2015-09-27T16:27:01Z</time></trkpt>
<trkpt lat="24.753465" lon="105.520219">
<time>2015-09-27T16:27:02Z</time></trkpt>
<trkpt lat="24.753465" lon="105.520179">
<time>2015-09-27T16:27:03Z</time></trkpt>
<trkpt lat="24.753455" lon="105.520139">
<time>2015-09-27T16:27:04Z</time></trkpt>
<trkpt lat="24.753464" lon="105.520109">
<time>2015-09-27T16:27:05Z</time></trkpt>
<trkpt lat="24.753464" lon="105.520069">
<time>2015-09-27T16:27:06Z</time></trkpt>
<trkpt lat="24.753474" lon="105.519999">
<time>2015-09-27T16:27:07Z</time></trkpt>
<trkpt lat="24.753494" lon="105.519939">
<time>2015-09-27T16:27:08Z</time></trkpt>
<trkpt lat="24.753524" lon="105.519889">
<time>2015-09-27T16:27:09Z</time></trkpt>
<trkpt lat="24.753554" lon="105.519839">
<time>2015-09-27T16:27:10Z</time></trkpt>
<trkpt lat="24.753594" lon="105.519788">
<time>2015-09-27T16:27:11Z</time></trkpt>
<trkpt lat="24.753633" lon="105.519748">
<time>2015-09-27T16:27:12Z</time></trkpt>
<trkpt lat="24.753673" lon="105.519708">
<time>2015-09-27T16:27:13Z</time></trkpt>
<trkpt lat="24.753713" lon="105.519668">
<time>2015-09-27T16:27:14Z</time></trkpt>
<trkpt lat="24.753753" lon="105.519618">
<time>2015-09-27T16:27:15Z</time></trkpt>
<trkpt lat="24.753803" lon="105.519568">
<time>2015-09-27T16:27:16Z</time></trkpt>
<trkpt lat="24.753853" lon="105.519518">
<time>2015-09-27T16:27:17Z</time></trkpt>
<trkpt lat="24.753893" lon="105.519468">
<time>2015-09-27T16:27:18Z</time></trkpt>
<trkpt lat="24.753932" lon="105.519408">
<time>2015-09-27T16:27:19Z</time></trkpt>
<trkpt lat="24.753972" lon="105.519357">
<time>2015-09-27T16:27:20Z</time></trkpt>
<trkpt lat="24.754012" lon="105.519297">
<time>2015-09-27T16:27:21Z</time></trkpt>
<trkpt lat="24.754052" lon="105.519237">
<time>2015-09-27T16:27:22Z</time></trkpt>
<trkpt lat="24.754092" lon="105.519147">
<time>2015-09-27T16:27:23Z</time></trkpt>
<trkpt lat="24.754132" lon="105.519067">
<time>2015-09-27T16:27:24Z</time></trkpt>
<trkpt lat="24.754161" lon="105.518987">
<time>2015-09-27T16:27:25Z</time></trkpt>
<trkpt lat="24.754201" lon="105.518896">
<time>2015-09-27T16:27:26Z</time></trkpt>
<trkpt lat="24.754231" lon="105.518806">
<time>2015-09-27T16:27:27Z</time></trkpt>
<trkpt lat="24.754271" lon="105.518726">
<time>2015-09-27T16:27:28Z</time></trkpt>
<trkpt lat="24.75432" lon="105.518646">
<time>2015-09-27T16:27:29Z</time></trkpt>
<trkpt lat="24.75437" lon="105.518565">
<time>2015-09-27T16:27:30Z</time></trkpt>
<trkpt lat="24.7544" lon="105.518525">
<time>2015-09-27T16:27:31Z</time></trkpt>
<trkpt lat="24.75444" lon="105.518485">
<time>2015-09-27T16:27:32Z</time></trkpt>
<trkpt lat="24.75447" lon="105.518445">
<time>2015-09-27T16:27:33Z</time></trkpt>
<trkpt lat="24.7545" lon="105.518395">
<time>2015-09-27T16:27:34Z</time></trkpt>
<trkpt lat="24.75453" lon="105.518355">
<time>2015-09-27T16:27:35Z</time></trkpt>
<trkpt lat="24.754559" lon="105.518305">
<time>2015-09-27T16:27:36Z</time></trkpt>
<trkpt lat="24.754579" lon="105.518245">
<time>2015-09-27T16:27:37Z</time></trkpt>
<trkpt lat="24.754589" lon="105.518195">
<time>2015-09-27T16:27:38Z</time></trkpt>
<trkpt lat="24.754589" lon="105.518175">
<time>2015-09-27T16:27:39Z</time></trkpt>
<trkpt lat="24.754589" lon="105.518164">
<time>2015-09-27T16:27:40Z</time></trkpt>
<trkpt lat="24.754589" lon="105.518144">
<time>2015-09-27T16:27:41Z</time></trkpt>
<trkpt lat="24.754589" lon="105.518134">
<time>2015-09-27T16:27:42Z</time></trkpt>
<trkpt lat="24.754589" lon="105.518114">
<time>2015-09-27T16:27:43Z</time></trkpt>
<trkpt lat="24.754579" lon="105.518104">
<time>2015-09-27T16:27:44Z</time></trkpt>
<trkpt lat="24.754579" lon="105.518094">
<time>2015-09-27T16:27:45Z</time></trkpt>
<trkpt lat="24.754569" lon="105.518084">
<time>2015-09-27T16:27:46Z</time></trkpt>
<trkpt lat="24.754559" lon="105.518074">
<time>2015-09-27T16:27:47Z</time></trkpt>
<trkpt lat="24.754549" lon="105.518064">
<time>2015-09-27T16:27:48Z</time></trkpt>
<trkpt lat="24.754539" lon="105.518064">
<time>2015-09-27T16:27:49Z</time></trkpt>
<trkpt lat="24.754529" lon="105.518054">
<time>2015-09-27T16:27:50Z</time></trkpt>
<trkpt lat="24.754509" lon="105.518054">
<time>2015-09-27T16:27:51Z</time></trkpt>
<trkpt lat="24.754499" lon="105.518054">
<time>2015-09-27T16:27:52Z</time></trkpt>
<trkpt lat="24.754489" lon="105.518054">
<time>2015-09-27T16:27:53Z</time></trkpt>
<trkpt lat="24.754469" lon="105.518054">
<time>2015-09-27T16:27:54Z</time></trkpt>
<trkpt lat="24.754439" lon="105.518054">
<time>2015-09-27T16:27:55Z</time></trkpt>
<trkpt lat="24.754409" lon="105.518064">
<time>2015-09-27T16:27:56Z</time></trkpt>
<trkpt lat="24.754379" lon="105.518084">
<time>2015-09-27T16:27:57Z</time></trkpt>
<trkpt lat="24.754349" lon="105.518094">
<time>2015-09-27T16:27:58Z</time></trkpt>
<trkpt lat="24.754329" lon="105.518114">
<time>2015-09-27T16:27:59Z</time></trkpt>
<trkpt lat="24.754299" lon="105.518144">
<time>2015-09-27T16:28:00Z</time></trkpt>
<trkpt lat="24.754249" lon="105.518185">
<time>2015-09-27T16:28:01Z</time></trkpt>
<trkpt lat="24.754189" lon="105.518235">
<time>2015-09-27T16:28:02Z</time></trkpt>
<trkpt lat="24.754129" lon="105.518275">
<time>2015-09-27T16:28:03Z</time></trkpt>
<trkpt lat="24.754059" lon="105.518315">
<time>2015-09-27T16:28:04Z</time></trkpt>
<trkpt lat="24.75399" lon="105.518355">
<time>2015-09-27T16:28:05Z</time></trkpt>
<trkpt lat="24.75392" lon="105.518395">
<time>2015-09-27T16:28:06Z</time></trkpt>
<trkpt lat="24.75391" lon="105.518405">
<time>2015-09-27T16:28:07Z</time></trkpt>
<trkpt lat="24.75385" lon="105.518435">
<time>2015-09-27T16:28:08Z</time></trkpt>
<trkpt lat="24.75377" lon="105.518485">
<time>2015-09-27T16:28:09Z</time></trkpt>
<trkpt lat="24.75369" lon="105.518535">
<time>2015-09-27T16:28:10Z</time></trkpt>
<trkpt lat="24.75362" lon="105.518586">
<time>2015-09-27T16:28:11Z</time></trkpt>
<trkpt lat="24.75359" lon="105.518606">
<time>2015-09-27T16:28:12Z</time></trkpt>
<trkpt lat="24.75356" lon="105.518626">
<time>2015-09-27T16:28:13Z</time></trkpt>
<trkpt lat="24.75353" lon="105.518636">
<time>2015-09-27T16:28:14Z</time></trkpt>
<trkpt lat="24.7535" lon="105.518646">
<time>2015-09-27T16:28:15Z</time></trkpt>
<trkpt lat="24.75347" lon="105.518646">
<time>2015-09-27T16:28:16Z</time></trkpt>
<trkpt lat="24.75345" lon="105.518636">
<time>2015-09-27T16:28:17Z</time></trkpt>
<trkpt lat="24.75344" lon="105.518626">
<time>2015-09-27T16:28:18Z</time></trkpt>
<trkpt lat="24.75343" lon="105.518606">
<time>2015-09-27T16:28:19Z</time></trkpt>
<trkpt lat="24.75341" lon="105.518586">
<time>2015-09-27T16:28:20Z</time></trkpt>
<trkpt lat="24.75341" lon="105.518555">
<time>2015-09-27T16:28:21Z</time></trkpt>
<trkpt lat="24.7534" lon="105.518535">
<time>2015-09-27T16:28:22Z</time></trkpt>
<trkpt lat="24.75339" lon="105.518505">
<time>2015-09-27T16:28:23Z</time></trkpt>
<trkpt lat="24.75339" lon="105.518475">
<time>2015-09-27T16:28:24Z</time></trkpt>
<trkpt lat="24.75339" lon="105.518445">
<time>2015-09-27T16:28:25Z</time></trkpt>
<trkpt lat="24.75339" lon="105.518405">
<time>2015-09-27T16:28:26Z</time></trkpt>
<trkpt lat="24.75339" lon="105.518365">
<time>2015-09-27T16:28:27Z</time></trkpt>
<trkpt lat="24.75339" lon="105.518335">
<time>2015-09-27T16:28:28Z</time></trkpt>
<trkpt lat="24.753389" lon="105.518295">
<time>2015-09-27T16:28:29Z</time></trkpt>
<trkpt lat="24.753399" lon="105.518265">
<time>2015-09-27T16:28:30Z</time></trkpt>
<trkpt lat="24.753399" lon="105.518225">
<time>2015-09-27T16:28:31Z</time></trkpt>
<trkpt lat="24.753409" lon="105.518195">
<time>2015-09-27T16:28:32Z</time></trkpt>
<trkpt lat="24.753409" lon="105.518155">
<time>2015-09-27T16:28:33Z</time></trkpt>
<trkpt lat="24.753409" lon="105.518134">
<time>2015-09-27T16:28:34Z</time></trkpt>
<trkpt lat="24.753399" lon="105.518104">
<time>2015-09-27T16:28:35Z</time></trkpt>
<trkpt lat="24.753399" lon="105.518074">
<time>2015-09-27T16:28:36Z</time></trkpt>
<trkpt lat="24.753399" lon="105.518054">
<time>2015-09-27T16:28:37Z</time></trkpt>
<trkpt lat="24.753389" lon="105.518024">
<time>2015-09-27T16:28:38Z</time></trkpt>
<trkpt lat="24.753379" lon="105.518004">
<time>2015-09-27T16:28:39Z</time></trkpt>
<trkpt lat="24.753369" lon="105.517984">
<time>2015-09-27T16:28:40Z</time></trkpt>
<trkpt lat="24.753358" lon="105.517964">
<time>2015-09-27T16:28:41Z</time></trkpt>
<trkpt lat="24.753338" lon="105.517954">
<time>2015-09-27T16:28:42Z</time></trkpt>
<trkpt lat="24.753318" lon="105.517944">
<time>2015-09-27T16:28:43Z</time></trkpt>
<trkpt lat="24.753298" lon="105.517934">
<time>2015-09-27T16:28:44Z</time></trkpt>
<trkpt lat="24.753278" lon="105.517934">
<time>2015-09-27T16:28:45Z</time></trkpt>
<trkpt lat="24.753258" lon="105.517924">
<time>2015-09-27T16:28:46Z</time></trkpt>
<trkpt lat="24.753238" lon="105.517924">
<time>2015-09-27T16:28:47Z</time></trkpt>
<trkpt lat="24.753208" lon="105.517924">
<time>2015-09-27T16:28:48Z</time></trkpt>
<trkpt lat="24.753188" lon="105.517924">
<time>2015-09-27T16:28:49Z</time></trkpt>
<trkpt lat="24.753158" lon="105.517934">
<time>2015-09-27T16:28:50Z</time></trkpt>
<trkpt lat="24.753128" lon="105.517934">
<time>2015-09-27T16:28:51Z</time></trkpt>
<trkpt lat="24.753098" lon="105.517944">
<time>2015-09-27T16:28:52Z</time></trkpt>
<trkpt lat="24.753078" lon="105.517954">
<time>2015-09-27T16:28:53Z</time></trkpt>
<trkpt lat="24.753048" lon="105.517954">
<time>2015-09-27T16:28:54Z</time></trkpt>
<trkpt lat="24.753018" lon="105.517964">
<time>2015-09-27T16:28:55Z</time></trkpt>
<trkpt lat="24.752988" lon="105.517964">
<time>2015-09-27T16:28:56Z</time></trkpt>
<trkpt lat="24.752968" lon="105.517964">
<time>2015-09-27T16:28:57Z</time></trkpt>
<trkpt lat="24.752929" lon="105.517964">
<time>2015-09-27T16:28:58Z</time></trkpt>
<trkpt lat="24.752888" lon="105.517954">
<time>2015-09-27T16:28:59Z</time></trkpt>
<trkpt lat="24.752858" lon="105.517944">
<time>2015-09-27T16:29:00Z</time></trkpt>
<trkpt lat="24.752818" lon="105.517934">
<time>2015-09-27T16:29:01Z</time></trkpt>
<trkpt lat="24.752788" lon="105.517914">
<time>2015-09-27T16:29:02Z</time></trkpt>
<trkpt lat="24.752748" lon="105.517894">
<time>2015-09-27T16:29:03Z</time></trkpt>
<trkpt lat="24.752718" lon="105.517864">
<time>2015-09-27T16:29:04Z</time></trkpt>
<trkpt lat="24.752678" lon="105.517844">
<time>2015-09-27T16:29:05Z</time></trkpt>
<trkpt lat="24.752618" lon="105.517794">
<time>2015-09-27T16:29:06Z</time></trkpt>
<trkpt lat="24.752558" lon="105.517744">
<time>2015-09-27T16:29:07Z</time></trkpt>
<trkpt lat="24.752498" lon="105.517693">
<time>2015-09-27T16:29:08Z</time></trkpt>
<trkpt lat="24.752438" lon="105.517633">
<time>2015-09-27T16:29:09Z</time></trkpt>
<trkpt lat="24.752387" lon="105.517573">
<time>2015-09-27T16:29:10Z</time></trkpt>
<trkpt lat="24.752337" lon="105.517513">
<time>2015-09-27T16:29:11Z</time></trkpt>
<trkpt lat="24.752287" lon="105.517453">
<time>2015-09-27T16:29:12Z</time></trkpt>
<trkpt lat="24.752237" lon="105.517393">
<time>2015-09-27T16:29:13Z</time></trkpt>
<trkpt lat="24.752187" lon="105.517323">
<time>2015-09-27T16:29:14Z</time></trkpt>
<trkpt lat="24.752147" lon="105.517262">
<time>2015-09-27T16:29:15Z</time></trkpt>
<trkpt lat="24.752096" lon="105.517192">
<time>2015-09-27T16:29:16Z</time></trkpt>
<trkpt lat="24.752056" lon="105.517132">
<time>2015-09-27T16:29:17Z</time></trkpt>
<trkpt lat="24.751966" lon="105.517002">
<time>2015-09-27T16:29:18Z</time></trkpt>
<trkpt lat="24.751926" lon="105.516932">
<time>2015-09-27T16:29:19Z</time></trkpt>
<trkpt lat="24.751875" lon="105.516871">
<time>2015-09-27T16:29:20Z</time></trkpt>
<trkpt lat="24.751825" lon="105.516791">
<time>2015-09-27T16:29:21Z</time></trkpt>
<trkpt lat="24.751765" lon="105.516721">
<time>2015-09-27T16:29:22Z</time></trkpt>
<trkpt lat="24.751715" lon="105.516651">
<time>2015-09-27T16:29:23Z</time></trkpt>
<trkpt lat="24.751655" lon="105.516581">
<time>2015-09-27T16:29:24Z</time></trkpt>
<trkpt lat="24.751584" lon="105.516521">
<time>2015-09-27T16:29:25Z</time></trkpt>
<trkpt lat="24.751524" lon="105.51646">
<time>2015-09-27T16:29:26Z</time></trkpt>
<trkpt lat="24.751444" lon="105.51641">
<time>2015-09-27T16:29:27Z</time></trkpt>
<trkpt lat="24.751374" lon="105.51637">
<time>2015-09-27T16:29:28Z</time></trkpt>
<trkpt lat="24.751324" lon="105.51635">
<time>2015-09-27T16:29:29Z</time></trkpt>
<trkpt lat="24.751284" lon="105.51634">
<time>2015-09-27T16:29:30Z</time></trkpt>
<trkpt lat="24.751234" lon="105.51632">
<time>2015-09-27T16:29:31Z</time></trkpt>
<trkpt lat="24.751194" lon="105.51631">
<time>2015-09-27T16:29:32Z</time></trkpt>
<trkpt lat="24.751144" lon="105.51631">
<time>2015-09-27T16:29:33Z</time></trkpt>
<trkpt lat="24.751104" lon="105.51631">
<time>2015-09-27T16:29:34Z</time></trkpt>
<trkpt lat="24.751054" lon="105.51632">
<time>2015-09-27T16:29:35Z</time></trkpt>
<trkpt lat="24.751014" lon="105.51633">
<time>2015-09-27T16:29:36Z</time></trkpt>
<trkpt lat="24.750974" lon="105.51634">
<time>2015-09-27T16:29:37Z</time></trkpt>
<trkpt lat="24.750934" lon="105.51637">
<time>2015-09-27T16:29:38Z</time></trkpt>
<trkpt lat="24.750904" lon="105.51639">
<time>2015-09-27T16:29:39Z</time></trkpt>
<trkpt lat="24.750864" lon="105.51642">
<time>2015-09-27T16:29:40Z</time></trkpt>
<trkpt lat="24.750834" lon="105.516461">
<time>2015-09-27T16:29:41Z</time></trkpt>
<trkpt lat="24.750794" lon="105.516491">
<time>2015-09-27T16:29:42Z</time></trkpt>
<trkpt lat="24.750765" lon="105.516521">
<time>2015-09-27T16:29:43Z</time></trkpt>
<trkpt lat="24.750725" lon="105.516551">
<time>2015-09-27T16:29:44Z</time></trkpt>
<trkpt lat="24.750675" lon="105.516591">
<time>2015-09-27T16:29:45Z</time></trkpt>
<trkpt lat="24.750625" lon="105.516631">
<time>2015-09-27T16:29:46Z</time></trkpt>
<trkpt lat="24.750575" lon="105.516661">
<time>2015-09-27T16:29:47Z</time></trkpt>
<trkpt lat="24.750525" lon="105.516681">
<time>2015-09-27T16:29:48Z</time></trkpt>
<trkpt lat="24.750475" lon="105.516711">
<time>2015-09-27T16:29:49Z</time></trkpt>
<trkpt lat="24.750415" lon="105.516721">
<time>2015-09-27T16:29:50Z</time></trkpt>
<trkpt lat="24.750365" lon="105.516741">
<time>2015-09-27T16:29:51Z</time></trkpt>
<trkpt lat="24.750305" lon="105.516751">
<time>2015-09-27T16:29:52Z</time></trkpt>
<trkpt lat="24.750265" lon="105.516761">
<time>2015-09-27T16:29:53Z</time></trkpt>
<trkpt lat="24.750225" lon="105.516761">
<time>2015-09-27T16:29:54Z</time></trkpt>
<trkpt lat="24.750185" lon="105.516761">
<time>2015-09-27T16:29:55Z</time></trkpt>
<trkpt lat="24.750145" lon="105.516771">
<time>2015-09-27T16:29:56Z</time></trkpt>
<trkpt lat="24.750105" lon="105.516771">
<time>2015-09-27T16:29:57Z</time></trkpt>
<trkpt lat="24.750065" lon="105.516771">
<time>2015-09-27T16:29:58Z</time></trkpt>
<trkpt lat="24.750025" lon="105.516761">
<time>2015-09-27T16:29:59Z</time></trkpt>
<trkpt lat="24.750015" lon="105.516761">
<time>2015-09-27T16:30:00Z</time></trkpt>
<trkpt lat="24.749925" lon="105.516761">
<time>2015-09-27T16:30:01Z</time></trkpt>
<trkpt lat="24.749865" lon="105.516751">
<time>2015-09-27T16:30:02Z</time></trkpt>
<trkpt lat="24.749805" lon="105.516751">
<time>2015-09-27T16:30:03Z</time></trkpt>
<trkpt lat="24.749745" lon="105.516751">
<time>2015-09-27T16:30:04Z</time></trkpt>
<trkpt lat="24.749685" lon="105.516751">
<time>2015-09-27T16:30:05Z</time></trkpt>
<trkpt lat="24.749625" lon="105.516751">
<time>2015-09-27T16:30:06Z</time></trkpt>
<trkpt lat="24.749565" lon="105.516751">
<time>2015-09-27T16:30:07Z</time></trkpt>
<trkpt lat="24.749505" lon="105.516761">
<time>2015-09-27T16:30:08Z</time></trkpt>
<trkpt lat="24.749455" lon="105.516771">
<time>2015-09-27T16:30:09Z</time></trkpt>
<trkpt lat="24.749395" lon="105.516781">
<time>2015-09-27T16:30:10Z</time></trkpt>
<trkpt lat="24.749345" lon="105.516791">
<time>2015-09-27T16:30:11Z</time></trkpt>
<trkpt lat="24.749295" lon="105.516811">
<time>2015-09-27T16:30:12Z</time></trkpt>
<trkpt lat="24.749246" lon="105.516831">
<time>2015-09-27T16:30:13Z</time></trkpt>
<trkpt lat="24.749196" lon="105.516862">
<time>2015-09-27T16:30:14Z</time></trkpt>
<trkpt lat="24.749146" lon="105.516892">
<time>2015-09-27T16:30:15Z</time></trkpt>
<trkpt lat="24.749106" lon="105.516932">
<time>2015-09-27T16:30:16Z</time></trkpt>
<trkpt lat="24.749076" lon="105.516962">
<time>2015-09-27T16:30:17Z</time></trkpt>
<trkpt lat="24.749066" lon="105.516962">
<time>2015-09-27T16:30:18Z</time></trkpt>
<trkpt lat="24.749036" lon="105.517002">
<time>2015-09-27T16:30:19Z</time></trkpt>
<trkpt lat="24.749006" lon="105.517052">
<time>2015-09-27T16:30:20Z</time></trkpt>
<trkpt lat="24.748986" lon="105.517092">
<time>2015-09-27T16:30:21Z</time></trkpt>
<trkpt lat="24.748956" lon="105.517142">
<time>2015-09-27T16:30:22Z</time></trkpt>
<trkpt lat="24.748937" lon="105.517192">
<time>2015-09-27T16:30:23Z</time></trkpt>
<trkpt lat="24.748907" lon="105.517243">
<time>2015-09-27T16:30:24Z</time></trkpt>
<trkpt lat="24.748887" lon="105.517293">
<time>2015-09-27T16:30:25Z</time></trkpt>
<trkpt lat="24.748867" lon="105.517343">
<time>2015-09-27T16:30:26Z</time></trkpt>
<trkpt lat="24.748847" lon="105.517393">
<time>2015-09-27T16:30:27Z</time></trkpt>
<trkpt lat="24.748827" lon="105.517453">
<time>2015-09-27T16:30:28Z</time></trkpt>
<trkpt lat="24.748807" lon="105.517503">
<time>2015-09-27T16:30:29Z</time></trkpt>
<trkpt lat="24.748788" lon="105.517553">
<time>2015-09-27T16:30:30Z</time></trkpt>
<trkpt lat="24.748768" lon="105.517613">
<time>2015-09-27T16:30:31Z</time></trkpt>
<trkpt lat="24.748758" lon="105.517664">
<time>2015-09-27T16:30:32Z</time></trkpt>
<trkpt lat="24.748738" lon="105.517724">
<time>2015-09-27T16:30:33Z</time></trkpt>
<trkpt lat="24.748728" lon="105.517794">
<time>2015-09-27T16:30:34Z</time></trkpt>
<trkpt lat="24.748719" lon="105.517874">
<time>2015-09-27T16:30:35Z</time></trkpt>
<trkpt lat="24.748709" lon="105.517954">
<time>2015-09-27T16:30:36Z</time></trkpt>
<trkpt lat="24.748699" lon="105.518034">
<time>2015-09-27T16:30:37Z</time></trkpt>
<trkpt lat="24.748679" lon="105.518105">
<time>2015-09-27T16:30:38Z</time></trkpt>
<trkpt lat="24.748669" lon="105.518185">
<time>2015-09-27T16:30:39Z</time></trkpt>
<trkpt lat="24.74864" lon="105.518255">
<time>2015-09-27T16:30:40Z</time></trkpt>
<trkpt lat="24.74861" lon="105.518315">
<time>2015-09-27T16:30:41Z</time></trkpt>
<trkpt lat="24.74859" lon="105.518355">
<time>2015-09-27T16:30:42Z</time></trkpt>
<trkpt lat="24.74856" lon="105.518385">
<time>2015-09-27T16:30:43Z</time></trkpt>
<trkpt lat="24.74854" lon="105.518415">
<time>2015-09-27T16:30:44Z</time></trkpt>
<trkpt lat="24.74851" lon="105.518445">
<time>2015-09-27T16:30:45Z</time></trkpt>
<trkpt lat="24.74848" lon="105.518476">
<time>2015-09-27T16:30:46Z</time></trkpt>
<trkpt lat="24.74844" lon="105.518506">
<time>2015-09-27T16:30:47Z</time></trkpt>
<trkpt lat="24.74841" lon="105.518526">
<time>2015-09-27T16:30:48Z</time></trkpt>
<trkpt lat="24.74838" lon="105.518556">
<time>2015-09-27T16:30:49Z</time></trkpt>
<trkpt lat="24.748341" lon="105.518576">
<time>2015-09-27T16:30:50Z</time></trkpt>
<trkpt lat="24.748311" lon="105.518596">
<time>2015-09-27T16:30:51Z</time></trkpt>
<trkpt lat="24.748271" lon="105.518616">
<time>2015-09-27T16:30:52Z</time></trkpt>
<trkpt lat="24.748241" lon="105.518636">
<time>2015-09-27T16:30:53Z</time></trkpt>
<trkpt lat="24.748201" lon="105.518646">
<time>2015-09-27T16:30:54Z</time></trkpt>
<trkpt lat="24.748171" lon="105.518666">
<time>2015-09-27T16:30:55Z</time></trkpt>
<trkpt lat="24.748131" lon="105.518676">
<time>2015-09-27T16:30:56Z</time></trkpt>
<trkpt lat="24.748091" lon="105.518686">
<time>2015-09-27T16:30:57Z</time></trkpt>
<trkpt lat="24.748041" lon="105.518706">
<time>2015-09-27T16:30:58Z</time></trkpt>
<trkpt lat="24.747981" lon="105.518726">
<time>2015-09-27T16:30:59Z</time></trkpt>
<trkpt lat="24.747921" lon="105.518736">
<time>2015-09-27T16:31:00Z</time></trkpt>
<trkpt lat="24.747861" lon="105.518756">
<time>2015-09-27T16:31:01Z</time></trkpt>
<trkpt lat="24.747801" lon="105.518766">
<time>2015-09-27T16:31:02Z</time></trkpt>
<trkpt lat="24.747681" lon="105.518786">
<time>2015-09-27T16:31:03Z</time></trkpt>
<trkpt lat="24.747621" lon="105.518796">
<time>2015-09-27T16:31:04Z</time></trkpt>
<trkpt lat="24.747551" lon="105.518816">
<time>2015-09-27T16:31:05Z</time></trkpt>
<trkpt lat="24.747481" lon="105.518836">
<time>2015-09-27T16:31:06Z</time></trkpt>
<trkpt lat="24.747411" lon="105.518856">
<time>2015-09-27T16:31:07Z</time></trkpt>
<trkpt lat="24.747351" lon="105.518877">
<time>2015-09-27T16:31:08Z</time></trkpt>
<trkpt lat="24.747292" lon="105.518907">
<time>2015-09-27T16:31:09Z</time></trkpt>
<trkpt lat="24.747242" lon="105.518947">
<time>2015-09-27T16:31:10Z</time></trkpt>
<trkpt lat="24.747192" lon="105.518997">
<time>2015-09-27T16:31:11Z</time></trkpt>
<trkpt lat="24.747152" lon="105.519047">
<time>2015-09-27T16:31:12Z</time></trkpt>
<trkpt lat="24.747132" lon="105.519107">
<time>2015-09-27T16:31:13Z</time></trkpt>
<trkpt lat="24.747112" lon="105.519177">
<time>2015-09-27T16:31:14Z</time></trkpt>
<trkpt lat="24.747102" lon="105.519247">
<time>2015-09-27T16:31:15Z</time></trkpt>
<trkpt lat="24.747093" lon="105.519318">
<time>2015-09-27T16:31:16Z</time></trkpt>
<trkpt lat="24.747073" lon="105.519388">
<time>2015-09-27T16:31:17Z</time></trkpt>
<trkpt lat="24.747053" lon="105.519458">
<time>2015-09-27T16:31:18Z</time></trkpt>
<trkpt lat="24.747033" lon="105.519518">
<time>2015-09-27T16:31:19Z</time></trkpt>
<trkpt lat="24.746993" lon="105.519558">
<time>2015-09-27T16:31:20Z</time></trkpt>
<trkpt lat="24.746973" lon="105.519578">
<time>2015-09-27T16:31:21Z</time></trkpt>
<trkpt lat="24.746953" lon="105.519588">
<time>2015-09-27T16:31:22Z</time></trkpt>
<trkpt lat="24.746933" lon="105.519598">
<time>2015-09-27T16:31:23Z</time></trkpt>
<trkpt lat="24.746913" lon="105.519608">
<time>2015-09-27T16:31:24Z</time></trkpt>
<trkpt lat="24.746884" lon="105.519618">
<time>2015-09-27T16:31:25Z</time></trkpt>
<trkpt lat="24.746864" lon="105.519628">
<time>2015-09-27T16:31:26Z</time></trkpt>
<trkpt lat="24.746834" lon="105.519628">
<time>2015-09-27T16:31:27Z</time></trkpt>
<trkpt lat="24.746814" lon="105.519628">
<time>2015-09-27T16:31:28Z</time></trkpt>
<trkpt lat="24.746764" lon="105.519628">
<time>2015-09-27T16:31:29Z</time></trkpt>
<trkpt lat="24.746714" lon="105.519628">
<time>2015-09-27T16:31:30Z</time></trkpt>
<trkpt lat="24.746674" lon="105.519618">
<time>2015-09-27T16:31:31Z</time></trkpt>
<trkpt lat="24.746623" lon="105.519598">
<time>2015-09-27T16:31:32Z</time></trkpt>
<trkpt lat="24.746583" lon="105.519588">
<time>2015-09-27T16:31:33Z</time></trkpt>
<trkpt lat="24.746533" lon="105.519568">
<time>2015-09-27T16:31:34Z</time></trkpt>
<trkpt lat="24.746493" lon="105.519548">
<time>2015-09-27T16:31:35Z</time></trkpt>
<trkpt lat="24.746443" lon="105.519538">
<time>2015-09-27T16:31:36Z</time></trkpt>
<trkpt lat="24.746393" lon="105.519528">
<time>2015-09-27T16:31:37Z</time></trkpt>
<trkpt lat="24.746343" lon="105.519528">
<time>2015-09-27T16:31:38Z</time></trkpt>
<trkpt lat="24.746293" lon="105.519518">
<time>2015-09-27T16:31:39Z</time></trkpt>
<trkpt lat="24.746243" lon="105.519518">
<time>2015-09-27T16:31:40Z</time></trkpt>
<trkpt lat="24.746193" lon="105.519518">
<time>2015-09-27T16:31:41Z</time></trkpt>
<trkpt lat="24.746143" lon="105.519518">
<time>2015-09-27T16:31:42Z</time></trkpt>
<trkpt lat="24.746093" lon="105.519518">
<time>2015-09-27T16:31:43Z</time></trkpt>
<trkpt lat="24.746043" lon="105.519508">
<time>2015-09-27T16:31:44Z</time></trkpt>
<trkpt lat="24.745983" lon="105.519498">
<time>2015-09-27T16:31:45Z</time></trkpt>
<trkpt lat="24.745933" lon="105.519488">
<time>2015-09-27T16:31:46Z</time></trkpt>
<trkpt lat="24.745883" lon="105.519478">
<time>2015-09-27T16:31:47Z</time></trkpt>
<trkpt lat="24.745833" lon="105.519458">
<time>2015-09-27T16:31:48Z</time></trkpt>
<trkpt lat="24.745783" lon="105.519438">
<time>2015-09-27T16:31:49Z</time></trkpt>
<trkpt lat="24.745743" lon="105.519408">
<time>2015-09-27T16:31:50Z</time></trkpt>
<trkpt lat="24.745693" lon="105.519388">
<time>2015-09-27T16:31:51Z</time></trkpt>
<trkpt lat="24.745653" lon="105.519358">
<time>2015-09-27T16:31:52Z</time></trkpt>
<trkpt lat="24.745613" lon="105.519328">
<time>2015-09-27T16:31:53Z</time></trkpt>
<trkpt lat="24.745573" lon="105.519308">
<time>2015-09-27T16:31:54Z</time></trkpt>
<trkpt lat="24.745543" lon="105.519278">
<time>2015-09-27T16:31:55Z</time></trkpt>
<trkpt lat="24.745513" lon="105.519248">
<time>2015-09-27T16:31:56Z</time></trkpt>
<trkpt lat="24.745482" lon="105.519217">
<time>2015-09-27T16:31:57Z</time></trkpt>
<trkpt lat="24.745452" lon="105.519187">
<time>2015-09-27T16:31:58Z</time></trkpt>
<trkpt lat="24.745432" lon="105.519167">
<time>2015-09-27T16:31:59Z</time></trkpt>
<trkpt lat="24.745422" lon="105.519157">
<time>2015-09-27T16:32:00Z</time></trkpt>
<trkpt lat="24.745392" lon="105.519117">
<time>2015-09-27T16:32:01Z</time></trkpt>
<trkpt lat="24.745372" lon="105.519087">
<time>2015-09-27T16:32:02Z</time></trkpt>
<trkpt lat="24.745352" lon="105.519047">
<time>2015-09-27T16:32:03Z</time></trkpt>
<trkpt lat="24.745332" lon="105.519017">
<time>2015-09-27T16:32:04Z</time></trkpt>
<trkpt lat="24.745322" lon="105.518977">
<time>2015-09-27T16:32:05Z</time></trkpt>
<trkpt lat="24.745302" lon="105.518937">
<time>2015-09-27T16:32:06Z</time></trkpt>
<trkpt lat="24.745292" lon="105.518897">
<time>2015-09-27T16:32:07Z</time></trkpt>
<trkpt lat="24.745282" lon="105.518867">
<time>2015-09-27T16:32:08Z</time></trkpt>
<trkpt lat="24.745271" lon="105.518827">
<time>2015-09-27T16:32:09Z</time></trkpt>
<trkpt lat="24.745271" lon="105.518786">
<time>2015-09-27T16:32:10Z</time></trkpt>
<trkpt lat="24.745271" lon="105.518756">
<time>2015-09-27T16:32:11Z</time></trkpt>
<trkpt lat="24.745271" lon="105.518726">
<time>2015-09-27T16:32:12Z</time></trkpt>
<trkpt lat="24.745271" lon="105.518696">
<time>2015-09-27T16:32:13Z</time></trkpt>
<trkpt lat="24.745281" lon="105.518666">
<time>2015-09-27T16:32:14Z</time></trkpt>
<trkpt lat="24.745281" lon="105.518636">
<time>2015-09-27T16:32:15Z</time></trkpt>
<trkpt lat="24.745291" lon="105.518596">
<time>2015-09-27T16:32:16Z</time></trkpt>
<trkpt lat="24.745301" lon="105.518566">
<time>2015-09-27T16:32:17Z</time></trkpt>
<trkpt lat="24.74532" lon="105.518486">
<time>2015-09-27T16:32:18Z</time></trkpt>
<trkpt lat="24.74536" lon="105.518406">
<time>2015-09-27T16:32:19Z</time></trkpt>
<trkpt lat="24.7454" lon="105.518325">
<time>2015-09-27T16:32:20Z</time></trkpt>
<trkpt lat="24.74545" lon="105.518245">
<time>2015-09-27T16:32:21Z</time></trkpt>
<trkpt lat="24.7455" lon="105.518175">
<time>2015-09-27T16:32:22Z</time></trkpt>
<trkpt lat="24.745559" lon="105.518105">
<time>2015-09-27T16:32:23Z</time></trkpt>
<trkpt lat="24.745619" lon="105.518045">
<time>2015-09-27T16:32:24Z</time></trkpt>
<trkpt lat="24.745679" lon="105.517974">
<time>2015-09-27T16:32:25Z</time></trkpt>
<trkpt lat="24.745749" lon="105.517904">
<time>2015-09-27T16:32:26Z</time></trkpt>
<trkpt lat="24.745819" lon="105.517844">
<time>2015-09-27T16:32:27Z</time></trkpt>
<trkpt lat="24.745888" lon="105.517774">
<time>2015-09-27T16:32:28Z</time></trkpt>
<trkpt lat="24.745958" lon="105.517714">
<time>2015-09-27T16:32:29Z</time></trkpt>
<trkpt lat="24.746028" lon="105.517654">
<time>2015-09-27T16:32:30Z</time></trkpt>
<trkpt lat="24.746098" lon="105.517583">
<time>2015-09-27T16:32:31Z</time></trkpt>
<trkpt lat="24.746168" lon="105.517523">
<time>2015-09-27T16:32:32Z</time></trkpt>
<trkpt lat="24.746307" lon="105.517403">
<time>2015-09-27T16:32:33Z</time></trkpt>
<trkpt lat="24.746377" lon="105.517353">
<time>2015-09-27T16:32:34Z</time></trkpt>
<trkpt lat="24.746437" lon="105.517293">
<time>2015-09-27T16:32:35Z</time></trkpt>
<trkpt lat="24.746497" lon="105.517233">
<time>2015-09-27T16:32:36Z</time></trkpt>
<trkpt lat="24.746557" lon="105.517172">
<time>2015-09-27T16:32:37Z</time></trkpt>
<trkpt lat="24.746616" lon="105.517102">
<time>2015-09-27T16:32:38Z</time></trkpt>
<trkpt lat="24.746656" lon="105.517032">
<time>2015-09-27T16:32:39Z</time></trkpt>
<trkpt lat="24.746696" lon="105.516952">
<time>2015-09-27T16:32:40Z</time></trkpt>
<trkpt lat="24.746726" lon="105.516902">
<time>2015-09-27T16:32:41Z</time></trkpt>
<trkpt lat="24.746746" lon="105.516852">
<time>2015-09-27T16:32:42Z</time></trkpt>
<trkpt lat="24.746756" lon="105.516792">
<time>2015-09-27T16:32:43Z</time></trkpt>
<trkpt lat="24.746775" lon="105.516741">
<time>2015-09-27T16:32:44Z</time></trkpt>
<trkpt lat="24.746785" lon="105.516681">
<time>2015-09-27T16:32:45Z</time></trkpt>
<trkpt lat="24.746795" lon="105.516621">
<time>2015-09-27T16:32:46Z</time></trkpt>
<trkpt lat="24.746825" lon="105.516511">
<time>2015-09-27T16:32:47Z</time></trkpt>
<trkpt lat="24.746835" lon="105.516451">
<time>2015-09-27T16:32:48Z</time></trkpt>
<trkpt lat="24.746864" lon="105.51632">
<time>2015-09-27T16:32:49Z</time></trkpt>
<trkpt lat="24.746874" lon="105.51626">
<time>2015-09-27T16:32:50Z</time></trkpt>
<trkpt lat="24.746884" lon="105.51619">
<time>2015-09-27T16:32:51Z</time></trkpt>
<trkpt lat="24.746894" lon="105.51613">
<time>2015-09-27T16:32:52Z</time></trkpt>
<trkpt lat="24.746903" lon="105.51607">
<time>2015-09-27T16:32:53Z</time></trkpt>
<trkpt lat="24.746913" lon="105.516">
<time>2015-09-27T16:32:54Z</time></trkpt>
<trkpt lat="24.746913" lon="105.515929">
<time>2015-09-27T16:32:55Z</time></trkpt>
<trkpt lat="24.746913" lon="105.515849">
<time>2015-09-27T16:32:56Z</time></trkpt>
<trkpt lat="24.746923" lon="105.515779">
<time>2015-09-27T16:32:57Z</time></trkpt>
<trkpt lat="24.746922" lon="105.515699">
<time>2015-09-27T16:32:58Z</time></trkpt>
<trkpt lat="24.746922" lon="105.515629">
<time>2015-09-27T16:32:59Z</time></trkpt>
<trkpt lat="24.746932" lon="105.515558">
<time>2015-09-27T16:33:00Z</time></trkpt>
<trkpt lat="24.746942" lon="105.515488">
<time>2015-09-27T16:33:01Z</time></trkpt>
<trkpt lat="24.746962" lon="105.515418">
<time>2015-09-27T16:33:02Z</time></trkpt>
<trkpt lat="24.746971" lon="105.515368">
<time>2015-09-27T16:33:03Z</time></trkpt>
<trkpt lat="24.746991" lon="105.515328">
<time>2015-09-27T16:33:04Z</time></trkpt>
<trkpt lat="24.747021" lon="105.515288">
<time>2015-09-27T16:33:05Z</time></trkpt>
<trkpt lat="24.747041" lon="105.515248">
<time>2015-09-27T16:33:06Z</time></trkpt>
<trkpt lat="24.747071" lon="105.515208">
<time>2015-09-27T16:33:07Z</time></trkpt>
<trkpt lat="24.747091" lon="105.515167">
<time>2015-09-27T16:33:08Z</time></trkpt>
<trkpt lat="24.747121" lon="105.515127">
<time>2015-09-27T16:33:09Z</time></trkpt>
<trkpt lat="24.747151" lon="105.515087">
<time>2015-09-27T16:33:10Z</time></trkpt>
<trkpt lat="24.747181" lon="105.515057">
<time>2015-09-27T16:33:11Z</time></trkpt>
<trkpt lat="24.7472" lon="105.515027">
<time>2015-09-27T16:33:12Z</time></trkpt>
<trkpt lat="24.74723" lon="105.514997">
<time>2015-09-27T16:33:13Z</time></trkpt>
<trkpt lat="24.74725" lon="105.514977">
<time>2015-09-27T16:33:14Z</time></trkpt>
<trkpt lat="24.74728" lon="105.514947">
<time>2015-09-27T16:33:15Z</time></trkpt>
<trkpt lat="24.74731" lon="105.514927">
<time>2015-09-27T16:33:16Z</time></trkpt>
<trkpt lat="24.74734" lon="105.514907">
<time>2015-09-27T16:33:17Z</time></trkpt>
<trkpt lat="24.74737" lon="105.514887">
<time>2015-09-27T16:33:18Z</time></trkpt>
<trkpt lat="24.7474" lon="105.514887">
<time>2015-09-27T16:33:19Z</time></trkpt>
<trkpt lat="24.74742" lon="105.514877">
<time>2015-09-27T16:33:20Z</time></trkpt>
<trkpt lat="24.74745" lon="105.514867">
<time>2015-09-27T16:33:21Z</time></trkpt>
<trkpt lat="24.74748" lon="105.514867">
<time>2015-09-27T16:33:22Z</time></trkpt>
<trkpt lat="24.74751" lon="105.514857">
<time>2015-09-27T16:33:23Z</time></trkpt>
<trkpt lat="24.74754" lon="105.514857">
<time>2015-09-27T16:33:24Z</time></trkpt>
<trkpt lat="24.74756" lon="105.514847">
<time>2015-09-27T16:33:25Z</time></trkpt>
<trkpt lat="24.74759" lon="105.514837">
<time>2015-09-27T16:33:26Z</time></trkpt>
<trkpt lat="24.74761" lon="105.514817">
<time>2015-09-27T16:33:27Z</time></trkpt>
<trkpt lat="24.74764" lon="105.514787">
<time>2015-09-27T16:33:28Z</time></trkpt>
<trkpt lat="24.74766" lon="105.514766">
<time>2015-09-27T16:33:29Z</time></trkpt>
<trkpt lat="24.74767" lon="105.514736">
<time>2015-09-27T16:33:30Z</time></trkpt>
<trkpt lat="24.74769" lon="105.514696">
<time>2015-09-27T16:33:31Z</time></trkpt>
<trkpt lat="24.747699" lon="105.514666">
<time>2015-09-27T16:33:32Z</time></trkpt>
<trkpt lat="24.747709" lon="105.514626">
<time>2015-09-27T16:33:33Z</time></trkpt>
<trkpt lat="24.747719" lon="105.514596">
<time>2015-09-27T16:33:34Z</time></trkpt>
<trkpt lat="24.747719" lon="105.514546">
<time>2015-09-27T16:33:35Z</time></trkpt>
<trkpt lat="24.747729" lon="105.514486">
<time>2015-09-27T16:33:36Z</time></trkpt>
<trkpt lat="24.747729" lon="105.514436">
<time>2015-09-27T16:33:37Z</time></trkpt>
<trkpt lat="24.747719" lon="105.514396">
<time>2015-09-27T16:33:38Z</time></trkpt>
<trkpt lat="24.747708" lon="105.514345">
<time>2015-09-27T16:33:39Z</time></trkpt>
<trkpt lat="24.747698" lon="105.514295">
<time>2015-09-27T16:33:40Z</time></trkpt>
<trkpt lat="24.747678" lon="105.514245">
<time>2015-09-27T16:33:41Z</time></trkpt>
<trkpt lat="24.747668" lon="105.514205">
<time>2015-09-27T16:33:42Z</time></trkpt>
<trkpt lat="24.747628" lon="105.514125">
<time>2015-09-27T16:33:43Z</time></trkpt>
<trkpt lat="24.747578" lon="105.514045">
<time>2015-09-27T16:33:44Z</time></trkpt>
<trkpt lat="24.747527" lon="105.513975">
<time>2015-09-27T16:33:45Z</time></trkpt>
<trkpt lat="24.747467" lon="105.513904">
<time>2015-09-27T16:33:46Z</time></trkpt>
<trkpt lat="24.747407" lon="105.513844">
<time>2015-09-27T16:33:47Z</time></trkpt>
<trkpt lat="24.747337" lon="105.513774">
<time>2015-09-27T16:33:48Z</time></trkpt>
<trkpt lat="24.747277" lon="105.513714">
<time>2015-09-27T16:33:49Z</time></trkpt>
<trkpt lat="24.747217" lon="105.513644">
<time>2015-09-27T16:33:50Z</time></trkpt>
<trkpt lat="24.747156" lon="105.513584">
<time>2015-09-27T16:33:51Z</time></trkpt>
<trkpt lat="24.747096" lon="105.513523">
<time>2015-09-27T16:33:52Z</time></trkpt>
<trkpt lat="24.746986" lon="105.513403">
<time>2015-09-27T16:33:53Z</time></trkpt>
<trkpt lat="24.746926" lon="105.513343">
<time>2015-09-27T16:33:54Z</time></trkpt>
<trkpt lat="24.746875" lon="105.513283">
<time>2015-09-27T16:33:55Z</time></trkpt>
<trkpt lat="24.746815" lon="105.513223">
<time>2015-09-27T16:33:56Z</time></trkpt>
<trkpt lat="24.746755" lon="105.513173">
<time>2015-09-27T16:33:57Z</time></trkpt>
<trkpt lat="24.746685" lon="105.513092">
<time>2015-09-27T16:33:58Z</time></trkpt>
<trkpt lat="24.746605" lon="105.513022">
<time>2015-09-27T16:33:59Z</time></trkpt>
<trkpt lat="24.746525" lon="105.512952">
<time>2015-09-27T16:34:00Z</time></trkpt>
<trkpt lat="24.746444" lon="105.512892">
<time>2015-09-27T16:34:01Z</time></trkpt>
<trkpt lat="24.746364" lon="105.512822">
<time>2015-09-27T16:34:02Z</time></trkpt>
<trkpt lat="24.746294" lon="105.512751">
<time>2015-09-27T16:34:03Z</time></trkpt>
<trkpt lat="24.746214" lon="105.512671">
<time>2015-09-27T16:34:04Z</time></trkpt>
<trkpt lat="24.746144" lon="105.512601">
<time>2015-09-27T16:34:05Z</time></trkpt>
<trkpt lat="24.746103" lon="105.512541">
<time>2015-09-27T16:34:06Z</time></trkpt>
<trkpt lat="24.746053" lon="105.512491">
<time>2015-09-27T16:34:07Z</time></trkpt>
<trkpt lat="24.746013" lon="105.512431">
<time>2015-09-27T16:34:08Z</time></trkpt>
<trkpt lat="24.745973" lon="105.512381">
<time>2015-09-27T16:34:09Z</time></trkpt>
<trkpt lat="24.745933" lon="105.51232">
<time>2015-09-27T16:34:10Z</time></trkpt>
<trkpt lat="24.745893" lon="105.51226">
<time>2015-09-27T16:34:11Z</time></trkpt>
<trkpt lat="24.745852" lon="105.51219">
<time>2015-09-27T16:34:12Z</time></trkpt>
<trkpt lat="24.745822" lon="105.51213">
<time>2015-09-27T16:34:13Z</time></trkpt>
<trkpt lat="24.745792" lon="105.51207">
<time>2015-09-27T16:34:14Z</time></trkpt>
<trkpt lat="24.745762" lon="105.51202">
<time>2015-09-27T16:34:15Z</time></trkpt>
<trkpt lat="24.745742" lon="105.51196">
<time>2015-09-27T16:34:16Z</time></trkpt>
<trkpt lat="24.745712" lon="105.511899">
<time>2015-09-27T16:34:17Z</time></trkpt>
<trkpt lat="24.745691" lon="105.511839">
<time>2015-09-27T16:34:18Z</time></trkpt>
<trkpt lat="24.745681" lon="105.511779">
<time>2015-09-27T16:34:19Z</time></trkpt>
<trkpt lat="24.745671" lon="105.511719">
<time>2015-09-27T16:34:20Z</time></trkpt>
<trkpt lat="24.745661" lon="105.511649">
<time>2015-09-27T16:34:21Z</time></trkpt>
<trkpt lat="24.745661" lon="105.511569">
<time>2015-09-27T16:34:22Z</time></trkpt>
<trkpt lat="24.74567" lon="105.511478">
<time>2015-09-27T16:34:23Z</time></trkpt>
<trkpt lat="24.74569" lon="105.511388">
<time>2015-09-27T16:34:24Z</time></trkpt>
<trkpt lat="24.74571" lon="105.511298">
<time>2015-09-27T16:34:25Z</time></trkpt>
<trkpt lat="24.74574" lon="105.511208">
<time>2015-09-27T16:34:26Z</time></trkpt>
<trkpt lat="24.745769" lon="105.511127">
<time>2015-09-27T16:34:27Z</time></trkpt>
<trkpt lat="24.745789" lon="105.511037">
<time>2015-09-27T16:34:28Z</time></trkpt>
<trkpt lat="24.745819" lon="105.510947">
<time>2015-09-27T16:34:29Z</time></trkpt>
<trkpt lat="24.745829" lon="105.510887">
<time>2015-09-27T16:34:30Z</time></trkpt>
<trkpt lat="24.745838" lon="105.510827">
<time>2015-09-27T16:34:31Z</time></trkpt>
<trkpt lat="24.745848" lon="105.510767">
<time>2015-09-27T16:34:32Z</time></trkpt>
<trkpt lat="24.745858" lon="105.510706">
<time>2015-09-27T16:34:33Z</time></trkpt>
<trkpt lat="24.745868" lon="105.510646">
<time>2015-09-27T16:34:34Z</time></trkpt>
<trkpt lat="24.745878" lon="105.510586">
<time>2015-09-27T16:34:35Z</time></trkpt>
<trkpt lat="24.745897" lon="105.510466">
<time>2015-09-27T16:34:36Z</time></trkpt>
<trkpt lat="24.745907" lon="105.510365">
<time>2015-09-27T16:34:37Z</time></trkpt>
<trkpt lat="24.745927" lon="105.510265">
<time>2015-09-27T16:34:38Z</time></trkpt>
<trkpt lat="24.745946" lon="105.510165">
<time>2015-09-27T16:34:39Z</time></trkpt>
<trkpt lat="24.745956" lon="105.510065">
<time>2015-09-27T16:34:40Z</time></trkpt>
<trkpt lat="24.745986" lon="105.509964">
<time>2015-09-27T16:34:41Z</time></trkpt>
<trkpt lat="24.746006" lon="105.509864">
<time>2015-09-27T16:34:42Z</time></trkpt>
<trkpt lat="24.746035" lon="105.509774">
<time>2015-09-27T16:34:43Z</time></trkpt>
<trkpt lat="24.746065" lon="105.509674">
<time>2015-09-27T16:34:44Z</time></trkpt>
<trkpt lat="24.746085" lon="105.509604">
<time>2015-09-27T16:34:45Z</time></trkpt>
<trkpt lat="24.746115" lon="105.509533">
<time>2015-09-27T16:34:46Z</time></trkpt>
<trkpt lat="24.746144" lon="105.509463">
<time>2015-09-27T16:34:47Z</time></trkpt>
<trkpt lat="24.746174" lon="105.509393">
<time>2015-09-27T16:34:48Z</time></trkpt>
<trkpt lat="24.746214" lon="105.509333">
<time>2015-09-27T16:34:49Z</time></trkpt>
<trkpt lat="24.746244" lon="105.509263">
<time>2015-09-27T16:34:50Z</time></trkpt>
<trkpt lat="24.746284" lon="105.509203">
<time>2015-09-27T16:34:51Z</time></trkpt>
<trkpt lat="24.746333" lon="105.509132">
<time>2015-09-27T16:34:52Z</time></trkpt>
<trkpt lat="24.746363" lon="105.509082">
<time>2015-09-27T16:34:53Z</time></trkpt>
<trkpt lat="24.746403" lon="105.509032">
<time>2015-09-27T16:34:54Z</time></trkpt>
<trkpt lat="24.746453" lon="105.508992">
<time>2015-09-27T16:34:55Z</time></trkpt>
<trkpt lat="24.746493" lon="105.508942">
<time>2015-09-27T16:34:56Z</time></trkpt>
<trkpt lat="24.746543" lon="105.508902">
<time>2015-09-27T16:34:57Z</time></trkpt>
<trkpt lat="24.746593" lon="105.508862">
<time>2015-09-27T16:34:58Z</time></trkpt>
<trkpt lat="24.746642" lon="105.508832">
<time>2015-09-27T16:34:59Z</time></trkpt>
<trkpt lat="24.746692" lon="105.508812">
<time>2015-09-27T16:35:00Z</time></trkpt>
<trkpt lat="24.746742" lon="105.508801">
<time>2015-09-27T16:35:01Z</time></trkpt>
<trkpt lat="24.746782" lon="105.508781">
<time>2015-09-27T16:35:02Z</time></trkpt>
<trkpt lat="24.746832" lon="105.508781">
<time>2015-09-27T16:35:03Z</time></trkpt>
<trkpt lat="24.746872" lon="105.508771">
<time>2015-09-27T16:35:04Z</time></trkpt>
<trkpt lat="24.746922" lon="105.508771">
<time>2015-09-27T16:35:05Z</time></trkpt>
<trkpt lat="24.747012" lon="105.508761">
<time>2015-09-27T16:35:06Z</time></trkpt>
<trkpt lat="24.747062" lon="105.508751">
<time>2015-09-27T16:35:07Z</time></trkpt>
<trkpt lat="24.747102" lon="105.508751">
<time>2015-09-27T16:35:08Z</time></trkpt>
<trkpt lat="24.747132" lon="105.508741">
<time>2015-09-27T16:35:09Z</time></trkpt>
<trkpt lat="24.747162" lon="105.508731">
<time>2015-09-27T16:35:10Z</time></trkpt>
<trkpt lat="24.747192" lon="105.508731">
<time>2015-09-27T16:35:11Z</time></trkpt>
<trkpt lat="24.747232" lon="105.508721">
<time>2015-09-27T16:35:12Z</time></trkpt>
<trkpt lat="24.747262" lon="105.508701">
<time>2015-09-27T16:35:13Z</time></trkpt>
<trkpt lat="24.747292" lon="105.508691">
<time>2015-09-27T16:35:14Z</time></trkpt>
<trkpt lat="24.747322" lon="105.508671">
<time>2015-09-27T16:35:15Z</time></trkpt>
<trkpt lat="24.747342" lon="105.508661">
<time>2015-09-27T16:35:16Z</time></trkpt>
<trkpt lat="24.747362" lon="105.508641">
<time>2015-09-27T16:35:17Z</time></trkpt>
<trkpt lat="24.747382" lon="105.508631">
<time>2015-09-27T16:35:18Z</time></trkpt>
<trkpt lat="24.747402" lon="105.508611">
<time>2015-09-27T16:35:19Z</time></trkpt>
<trkpt lat="24.747422" lon="105.508591">
<time>2015-09-27T16:35:20Z</time></trkpt>
<trkpt lat="24.747442" lon="105.508571">
<time>2015-09-27T16:35:21Z</time></trkpt>
<trkpt lat="24.747452" lon="105.508551">
<time>2015-09-27T16:35:22Z</time></trkpt>
<trkpt lat="24.747472" lon="105.508521">
<time>2015-09-27T16:35:23Z</time></trkpt>
<trkpt lat="24.747481" lon="105.508501">
<time>2015-09-27T16:35:24Z</time></trkpt>
<trkpt lat="24.747491" lon="105.508481">
<time>2015-09-27T16:35:25Z</time></trkpt>
<trkpt lat="24.747491" lon="105.508451">
<time>2015-09-27T16:35:26Z</time></trkpt>
<trkpt lat="24.747501" lon="105.50843">
<time>2015-09-27T16:35:27Z</time></trkpt>
<trkpt lat="24.747511" lon="105.5084">
<time>2015-09-27T16:35:28Z</time></trkpt>
<trkpt lat="24.747511" lon="105.50837">
<time>2015-09-27T16:35:29Z</time></trkpt>
<trkpt lat="24.747511" lon="105.50835">
<time>2015-09-27T16:35:30Z</time></trkpt>
<trkpt lat="24.747511" lon="105.50832">
<time>2015-09-27T16:35:31Z</time></trkpt>
<trkpt lat="24.747511" lon="105.50828">
<time>2015-09-27T16:35:32Z</time></trkpt>
<trkpt lat="24.747511" lon="105.50823">
<time>2015-09-27T16:35:33Z</time></trkpt>
<trkpt lat="24.747501" lon="105.50819">
<time>2015-09-27T16:35:34Z</time></trkpt>
<trkpt lat="24.74749" lon="105.50815">
<time>2015-09-27T16:35:35Z</time></trkpt>
<trkpt lat="24.74748" lon="105.50811">
<time>2015-09-27T16:35:36Z</time></trkpt>
<trkpt lat="24.74747" lon="105.50806">
<time>2015-09-27T16:35:37Z</time></trkpt>
<trkpt lat="24.74746" lon="105.508019">
<time>2015-09-27T16:35:38Z</time></trkpt>
<trkpt lat="24.74744" lon="105.507979">
<time>2015-09-27T16:35:39Z</time></trkpt>
<trkpt lat="24.74742" lon="105.507919">
<time>2015-09-27T16:35:40Z</time></trkpt>
<trkpt lat="24.7474" lon="105.507859">
<time>2015-09-27T16:35:41Z</time></trkpt>
<trkpt lat="24.747379" lon="105.507799">
<time>2015-09-27T16:35:42Z</time></trkpt>
<trkpt lat="24.747349" lon="105.507739">
<time>2015-09-27T16:35:43Z</time></trkpt>
<trkpt lat="24.747329" lon="105.507689">
<time>2015-09-27T16:35:44Z</time></trkpt>
<trkpt lat="24.747299" lon="105.507628">
<time>2015-09-27T16:35:45Z</time></trkpt>
<trkpt lat="24.747269" lon="105.507578">
<time>2015-09-27T16:35:46Z</time></trkpt>
<trkpt lat="24.747239" lon="105.507518">
<time>2015-09-27T16:35:47Z</time></trkpt>
<trkpt lat="24.747198" lon="105.507448">
<time>2015-09-27T16:35:48Z</time></trkpt>
<trkpt lat="24.747148" lon="105.507388">
<time>2015-09-27T16:35:49Z</time></trkpt>
<trkpt lat="24.747098" lon="105.507318">
<time>2015-09-27T16:35:50Z</time></trkpt>
<trkpt lat="24.747048" lon="105.507258">
<time>2015-09-27T16:35:51Z</time></trkpt>
<trkpt lat="24.746998" lon="105.507187">
<time>2015-09-27T16:35:52Z</time></trkpt>
<trkpt lat="24.746947" lon="105.507127">
<time>2015-09-27T16:35:53Z</time></trkpt>
<trkpt lat="24.746897" lon="105.507067">
<time>2015-09-27T16:35:54Z</time></trkpt>
<trkpt lat="24.746847" lon="105.507007">
<time>2015-09-27T16:35:55Z</time></trkpt>
<trkpt lat="24.746787" lon="105.506937">
<time>2015-09-27T16:35:56Z</time></trkpt>
<trkpt lat="24.746737" lon="105.506877">
<time>2015-09-27T16:35:57Z</time></trkpt>
<trkpt lat="24.746686" lon="105.506806">
<time>2015-09-27T16:35:58Z</time></trkpt>
<trkpt lat="24.746636" lon="105.506736">
<time>2015-09-27T16:35:59Z</time></trkpt>
<trkpt lat="24.746576" lon="105.506666">
<time>2015-09-27T16:36:00Z</time></trkpt>
<trkpt lat="24.746526" lon="105.506606">
<time>2015-09-27T16:36:01Z</time></trkpt>
<trkpt lat="24.746375" lon="105.506405">
<time>2015-09-27T16:36:02Z</time></trkpt>
<trkpt lat="24.746335" lon="105.506335">
<time>2015-09-27T16:36:03Z</time></trkpt>
<trkpt lat="24.746285" lon="105.506275">
<time>2015-09-27T16:36:04Z</time></trkpt>
<trkpt lat="24.746235" lon="105.506215">
<time>2015-09-27T16:36:05Z</time></trkpt>
<trkpt lat="24.746185" lon="105.506145">
<time>2015-09-27T16:36:06Z</time></trkpt>
<trkpt lat="24.746134" lon="105.506085">
<time>2015-09-27T16:36:07Z</time></trkpt>
<trkpt lat="24.746084" lon="105.506024">
<time>2015-09-27T16:36:08Z</time></trkpt>
<trkpt lat="24.745994" lon="105.505894">
<time>2015-09-27T16:36:09Z</time></trkpt>
<trkpt lat="24.745944" lon="105.505844">
<time>2015-09-27T16:36:10Z</time></trkpt>
<trkpt lat="24.745904" lon="105.505784">
<time>2015-09-27T16:36:11Z</time></trkpt>
<trkpt lat="24.745863" lon="105.505714">
<time>2015-09-27T16:36:12Z</time></trkpt>
<trkpt lat="24.745833" lon="105.505653">
<time>2015-09-27T16:36:13Z</time></trkpt>
<trkpt lat="24.745803" lon="105.505583">
<time>2015-09-27T16:36:14Z</time></trkpt>
<trkpt lat="24.745773" lon="105.505513">
<time>2015-09-27T16:36:15Z</time></trkpt>
<trkpt lat="24.745762" lon="105.505433">
<time>2015-09-27T16:36:16Z</time></trkpt>
<trkpt lat="24.745752" lon="105.505363">
<time>2015-09-27T16:36:17Z</time></trkpt>
<trkpt lat="24.745752" lon="105.505293">
<time>2015-09-27T16:36:18Z</time></trkpt>
<trkpt lat="24.745762" lon="105.505232">
<time>2015-09-27T16:36:19Z</time></trkpt>
<trkpt lat="24.745772" lon="105.505162">
<time>2015-09-27T16:36:20Z</time></trkpt>
<trkpt lat="24.745791" lon="105.505102">
<time>2015-09-27T16:36:21Z</time></trkpt>
<trkpt lat="24.745821" lon="105.505052">
<time>2015-09-27T16:36:22Z</time></trkpt>
<trkpt lat="24.745851" lon="105.505002">
<time>2015-09-27T16:36:23Z</time></trkpt>
<trkpt lat="24.745891" lon="105.504972">
<time>2015-09-27T16:36:24Z</time></trkpt>
<trkpt lat="24.745921" lon="105.504952">
<time>2015-09-27T16:36:25Z</time></trkpt>
<trkpt lat="24.745971" lon="105.504942">
<time>2015-09-27T16:36:26Z</time></trkpt>
<trkpt lat="24.746021" lon="105.504942">
<time>2015-09-27T16:36:27Z</time></trkpt>
<trkpt lat="24.746061" lon="105.504942">
<time>2015-09-27T16:36:28Z</time></trkpt>
<trkpt lat="24.746121" lon="105.504942">
<time>2015-09-27T16:36:29Z</time></trkpt>
<trkpt lat="24.746171" lon="105.504952">
<time>2015-09-27T16:36:30Z</time></trkpt>
<trkpt lat="24.746221" lon="105.504962">
<time>2015-09-27T16:36:31Z</time></trkpt>
<trkpt lat="24.746271" lon="105.504972">
<time>2015-09-27T16:36:32Z</time></trkpt>
<trkpt lat="24.746291" lon="105.504972">
<time>2015-09-27T16:36:33Z</time></trkpt>
<trkpt lat="24.746311" lon="105.504982">
<time>2015-09-27T16:36:34Z</time></trkpt>
<trkpt lat="24.746341" lon="105.504982">
<time>2015-09-27T16:36:35Z</time></trkpt>
<trkpt lat="24.746361" lon="105.504982">
<time>2015-09-27T16:36:36Z</time></trkpt>
<trkpt lat="24.746381" lon="105.504982">
<time>2015-09-27T16:36:37Z</time></trkpt>
<trkpt lat="24.746401" lon="105.504982">
<time>2015-09-27T16:36:38Z</time></trkpt>
<trkpt lat="24.746431" lon="105.504982">
<time>2015-09-27T16:36:39Z</time></trkpt>
<trkpt lat="24.746451" lon="105.504972">
<time>2015-09-27T16:36:40Z</time></trkpt>
<trkpt lat="24.746471" lon="105.504972">
<time>2015-09-27T16:36:41Z</time></trkpt>
<trkpt lat="24.746491" lon="105.504962">
<time>2015-09-27T16:36:42Z</time></trkpt>
<trkpt lat="24.746511" lon="105.504952">
<time>2015-09-27T16:36:43Z</time></trkpt>
<trkpt lat="24.746531" lon="105.504942">
<time>2015-09-27T16:36:44Z</time></trkpt>
<trkpt lat="24.746551" lon="105.504932">
<time>2015-09-27T16:36:45Z</time></trkpt>
<trkpt lat="24.746571" lon="105.504922">
<time>2015-09-27T16:36:46Z</time></trkpt>
<trkpt lat="24.746581" lon="105.504901">
<time>2015-09-27T16:36:47Z</time></trkpt>
<trkpt lat="24.746591" lon="105.504891">
<time>2015-09-27T16:36:48Z</time></trkpt>
<trkpt lat="24.746611" lon="105.504861">
<time>2015-09-27T16:36:49Z</time></trkpt>
<trkpt lat="24.746611" lon="105.504821">
<time>2015-09-27T16:36:50Z</time></trkpt>
<trkpt lat="24.74661" lon="105.504781">
<time>2015-09-27T16:36:51Z</time></trkpt>
<trkpt lat="24.7466" lon="105.504731">
<time>2015-09-27T16:36:52Z</time></trkpt>
<trkpt lat="24.74658" lon="105.504691">
<time>2015-09-27T16:36:53Z</time></trkpt>
<trkpt lat="24.74656" lon="105.504641">
<time>2015-09-27T16:36:54Z</time></trkpt>
<trkpt lat="24.74653" lon="105.504601">
<time>2015-09-27T16:36:55Z</time></trkpt>
<trkpt lat="24.74651" lon="105.504551">
<time>2015-09-27T16:36:56Z</time></trkpt>
<trkpt lat="24.74645" lon="105.50447">
<time>2015-09-27T16:36:57Z</time></trkpt>
<trkpt lat="24.746389" lon="105.50439">
<time>2015-09-27T16:36:58Z</time></trkpt>
<trkpt lat="24.746339" lon="105.50432">
<time>2015-09-27T16:36:59Z</time></trkpt>
<trkpt lat="24.746279" lon="105.50425">
<time>2015-09-27T16:37:00Z</time></trkpt>
<trkpt lat="24.746219" lon="105.50419">
<time>2015-09-27T16:37:01Z</time></trkpt>
<trkpt lat="24.746169" lon="105.504129">
<time>2015-09-27T16:37:02Z</time></trkpt>
<trkpt lat="24.746108" lon="105.504059">
<time>2015-09-27T16:37:03Z</time></trkpt>
<trkpt lat="24.746058" lon="105.503929">
<time>2015-09-27T16:37:04Z</time></trkpt>
<trkpt lat="24.746028" lon="105.503849">
<time>2015-09-27T16:37:05Z</time></trkpt>
<trkpt lat="24.746017" lon="105.503738">
<time>2015-09-27T16:37:06Z</time></trkpt>
<trkpt lat="24.746027" lon="105.503658">
<time>2015-09-27T16:37:07Z</time></trkpt>
<trkpt lat="24.745997" lon="105.503578">
<time>2015-09-27T16:37:08Z</time></trkpt>
<trkpt lat="24.745957" lon="105.503508">
<time>2015-09-27T16:37:09Z</time></trkpt>
<trkpt lat="24.745906" lon="105.503388">
<time>2015-09-27T16:37:10Z</time></trkpt>
<trkpt lat="24.745896" lon="105.503287">
<time>2015-09-27T16:37:11Z</time></trkpt>
<trkpt lat="24.745886" lon="105.503147">
<time>2015-09-27T16:37:12Z</time></trkpt>
<trkpt lat="24.745875" lon="105.502977">
<time>2015-09-27T16:37:13Z</time></trkpt>
<trkpt lat="24.745903" lon="105.502325">
<time>2015-09-27T16:37:14Z</time></trkpt>
<trkpt lat="24.745892" lon="105.501874">
<time>2015-09-27T16:37:15Z</time></trkpt>
<trkpt lat="24.745881" lon="105.501623">
<time>2015-09-27T16:37:16Z</time></trkpt>
<trkpt lat="24.74588" lon="105.501412">
<time>2015-09-27T16:37:17Z</time></trkpt>
<trkpt lat="24.745869" lon="105.500921">
<time>2015-09-27T16:37:18Z</time></trkpt>
<trkpt lat="24.745878" lon="105.500721">
<time>2015-09-27T16:37:19Z</time></trkpt>
<trkpt lat="24.745888" lon="105.50055">
<time>2015-09-27T16:37:20Z</time></trkpt>
<trkpt lat="24.745907" lon="105.5004">
<time>2015-09-27T16:37:21Z</time></trkpt>
<trkpt lat="24.745947" lon="105.500249">
<time>2015-09-27T16:37:22Z</time></trkpt>
<trkpt lat="24.746036" lon="105.500019">
<time>2015-09-27T16:37:23Z</time></trkpt>
<trkpt lat="24.746185" lon="105.499668">
<time>2015-09-27T16:37:24Z</time></trkpt>
<trkpt lat="24.746265" lon="105.499447">
<time>2015-09-27T16:37:25Z</time></trkpt>
<trkpt lat="24.746274" lon="105.499347">
<time>2015-09-27T16:37:26Z</time></trkpt>
<trkpt lat="24.746264" lon="105.499217">
<time>2015-09-27T16:37:27Z</time></trkpt>
<trkpt lat="24.746234" lon="105.499116">
<time>2015-09-27T16:37:28Z</time></trkpt>
<trkpt lat="24.746203" lon="105.499056">
<time>2015-09-27T16:37:29Z</time></trkpt>
<trkpt lat="24.746153" lon="105.498956">
<time>2015-09-27T16:37:30Z</time></trkpt>
<trkpt lat="24.746163" lon="105.498916">
<time>2015-09-27T16:37:31Z</time></trkpt>
<trkpt lat="24.746402" lon="105.498465">
<time>2015-09-27T16:37:32Z</time></trkpt>
<trkpt lat="24.74669" lon="105.498004">
<time>2015-09-27T16:37:33Z</time></trkpt>
<trkpt lat="24.746899" lon="105.497623">
<time>2015-09-27T16:37:34Z</time></trkpt>
<trkpt lat="24.747038" lon="105.497432">
<time>2015-09-27T16:37:35Z</time></trkpt>
<trkpt lat="24.747217" lon="105.497101">
<time>2015-09-27T16:37:36Z</time></trkpt>
<trkpt lat="24.747337" lon="105.496861">
<time>2015-09-27T16:37:37Z</time></trkpt>
<trkpt lat="24.747495" lon="105.496269">
<time>2015-09-27T16:37:38Z</time></trkpt>
<trkpt lat="24.747534" lon="105.495928">
<time>2015-09-27T16:37:39Z</time></trkpt>
<trkpt lat="24.747553" lon="105.495547">
<time>2015-09-27T16:37:40Z</time></trkpt>
<trkpt lat="24.747471" lon="105.494825">
<time>2015-09-27T16:37:41Z</time></trkpt>
<trkpt lat="24.747158" lon="105.493883">
<time>2015-09-27T16:37:42Z</time></trkpt>
<trkpt lat="24.746795" lon="105.493041">
<time>2015-09-27T16:37:43Z</time></trkpt>
<trkpt lat="24.746574" lon="105.49264">
<time>2015-09-27T16:37:44Z</time></trkpt>
<trkpt lat="24.746202" lon="105.492088">
<time>2015-09-27T16:37:45Z</time></trkpt>
<trkpt lat="24.745831" lon="105.491707">
<time>2015-09-27T16:37:46Z</time></trkpt>
<trkpt lat="24.74539" lon="105.491326">
<time>2015-09-27T16:37:47Z</time></trkpt>
<trkpt lat="24.744929" lon="105.490955">
<time>2015-09-27T16:37:48Z</time></trkpt>
<trkpt lat="24.744528" lon="105.490564">
<time>2015-09-27T16:37:49Z</time></trkpt>
<trkpt lat="24.744237" lon="105.490264">
<time>2015-09-27T16:37:50Z</time></trkpt>
<trkpt lat="24.743916" lon="105.489863">
<time>2015-09-27T16:37:51Z</time></trkpt>
<trkpt lat="24.743665" lon="105.489482">
<time>2015-09-27T16:37:52Z</time></trkpt>
<trkpt lat="24.743534" lon="105.489181">
<time>2015-09-27T16:37:53Z</time></trkpt>
<trkpt lat="24.743443" lon="105.48881">
<time>2015-09-27T16:37:54Z</time></trkpt>
<trkpt lat="24.743382" lon="105.488419">
<time>2015-09-27T16:37:55Z</time></trkpt>
<trkpt lat="24.74337" lon="105.488018">
<time>2015-09-27T16:37:56Z</time></trkpt>
<trkpt lat="24.743409" lon="105.487707">
<time>2015-09-27T16:37:57Z</time></trkpt>
<trkpt lat="24.743508" lon="105.487266">
<time>2015-09-27T16:37:58Z</time></trkpt>
<trkpt lat="24.743845" lon="105.486133">
<time>2015-09-27T16:37:59Z</time></trkpt>
<trkpt lat="24.744003" lon="105.485431">
<time>2015-09-27T16:38:00Z</time></trkpt>
<trkpt lat="24.744119" lon="105.484188">
<time>2015-09-27T16:38:01Z</time></trkpt>
<trkpt lat="24.744306" lon="105.483256">
<time>2015-09-27T16:38:02Z</time></trkpt>
<trkpt lat="24.744734" lon="105.482414">
<time>2015-09-27T16:38:03Z</time></trkpt>
<trkpt lat="24.746279" lon="105.480669">
<time>2015-09-27T16:38:04Z</time></trkpt>
<trkpt lat="24.747315" lon="105.479476">
<time>2015-09-27T16:38:05Z</time></trkpt>
<trkpt lat="24.747505" lon="105.479306">
<time>2015-09-27T16:38:06Z</time></trkpt>
<trkpt lat="24.747854" lon="105.478985">
<time>2015-09-27T16:38:07Z</time></trkpt>
<trkpt lat="24.748343" lon="105.478714">
<time>2015-09-27T16:38:08Z</time></trkpt>
<trkpt lat="24.749012" lon="105.478504">
<time>2015-09-27T16:38:09Z</time></trkpt>
<trkpt lat="24.749671" lon="105.478263">
<time>2015-09-27T16:38:10Z</time></trkpt>
<trkpt lat="24.750021" lon="105.478113">
<time>2015-09-27T16:38:11Z</time></trkpt>
<trkpt lat="24.750201" lon="105.478013">
<time>2015-09-27T16:38:12Z</time></trkpt>
<trkpt lat="24.75038" lon="105.477902">
<time>2015-09-27T16:38:13Z</time></trkpt>
<trkpt lat="24.75052" lon="105.477782">
<time>2015-09-27T16:38:14Z</time></trkpt>
<trkpt lat="24.75064" lon="105.477692">
<time>2015-09-27T16:38:15Z</time></trkpt>
<trkpt lat="24.750739" lon="105.477592">
<time>2015-09-27T16:38:16Z</time></trkpt>
<trkpt lat="24.750849" lon="105.477481">
<time>2015-09-27T16:38:17Z</time></trkpt>
<trkpt lat="24.750959" lon="105.477341">
<time>2015-09-27T16:38:18Z</time></trkpt>
<trkpt lat="24.751108" lon="105.47715">
<time>2015-09-27T16:38:19Z</time></trkpt>
<trkpt lat="24.751218" lon="105.47699">
<time>2015-09-27T16:38:20Z</time></trkpt>
<trkpt lat="24.751367" lon="105.476729">
<time>2015-09-27T16:38:21Z</time></trkpt>
<trkpt lat="24.751576" lon="105.476369">
<time>2015-09-27T16:38:22Z</time></trkpt>
<trkpt lat="24.751795" lon="105.476018">
<time>2015-09-27T16:38:23Z</time></trkpt>
<trkpt lat="24.752044" lon="105.475637">
<time>2015-09-27T16:38:24Z</time></trkpt>
<trkpt lat="24.752203" lon="105.475406">
<time>2015-09-27T16:38:25Z</time></trkpt>
<trkpt lat="24.752393" lon="105.475166">
<time>2015-09-27T16:38:26Z</time></trkpt>
<trkpt lat="24.752642" lon="105.474875">
<time>2015-09-27T16:38:27Z</time></trkpt>
<trkpt lat="24.752971" lon="105.474554">
<time>2015-09-27T16:38:28Z</time></trkpt>
<trkpt lat="24.75316" lon="105.474384">
<time>2015-09-27T16:38:29Z</time></trkpt>
<trkpt lat="24.75339" lon="105.474203">
<time>2015-09-27T16:38:30Z</time></trkpt>
<trkpt lat="24.753759" lon="105.473943">
<time>2015-09-27T16:38:31Z</time></trkpt>
<trkpt lat="24.754088" lon="105.473752">
<time>2015-09-27T16:38:32Z</time></trkpt>
<trkpt lat="24.754658" lon="105.473472">
<time>2015-09-27T16:38:33Z</time></trkpt>
<trkpt lat="24.755367" lon="105.473181">
<time>2015-09-27T16:38:34Z</time></trkpt>
<trkpt lat="24.755786" lon="105.473">
<time>2015-09-27T16:38:35Z</time></trkpt>
<trkpt lat="24.756056" lon="105.47287">
<time>2015-09-27T16:38:36Z</time></trkpt>
<trkpt lat="24.756305" lon="105.47274">
<time>2015-09-27T16:38:37Z</time></trkpt>
<trkpt lat="24.756495" lon="105.47262">
<time>2015-09-27T16:38:38Z</time></trkpt>
<trkpt lat="24.756695" lon="105.472469">
<time>2015-09-27T16:38:39Z</time></trkpt>
<trkpt lat="24.756854" lon="105.472329">
<time>2015-09-27T16:38:40Z</time></trkpt>
<trkpt lat="24.757014" lon="105.472168">
<time>2015-09-27T16:38:41Z</time></trkpt>
<trkpt lat="24.757143" lon="105.472028">
<time>2015-09-27T16:38:42Z</time></trkpt>
<trkpt lat="24.757273" lon="105.471858">
<time>2015-09-27T16:38:43Z</time></trkpt>
<trkpt lat="24.757373" lon="105.471707">
<time>2015-09-27T16:38:44Z</time></trkpt>
<trkpt lat="24.757472" lon="105.471557">
<time>2015-09-27T16:38:45Z</time></trkpt>
<trkpt lat="24.757661" lon="105.471196">
<time>2015-09-27T16:38:46Z</time></trkpt>
<trkpt lat="24.75784" lon="105.470775">
<time>2015-09-27T16:38:47Z</time></trkpt>
<trkpt lat="24.758038" lon="105.470244">
<time>2015-09-27T16:38:48Z</time></trkpt>
<trkpt lat="24.758207" lon="105.469793">
<time>2015-09-27T16:38:49Z</time></trkpt>
<trkpt lat="24.758326" lon="105.469492">
<time>2015-09-27T16:38:50Z</time></trkpt>
<trkpt lat="24.758496" lon="105.469152">
<time>2015-09-27T16:38:51Z</time></trkpt>
<trkpt lat="24.758645" lon="105.468891">
<time>2015-09-27T16:38:52Z</time></trkpt>
<trkpt lat="24.758844" lon="105.46857">
<time>2015-09-27T16:38:53Z</time></trkpt>
<trkpt lat="24.759113" lon="105.46824">
<time>2015-09-27T16:38:54Z</time></trkpt>
<trkpt lat="24.759332" lon="105.467999">
<time>2015-09-27T16:38:55Z</time></trkpt>
<trkpt lat="24.759552" lon="105.467768">
<time>2015-09-27T16:38:56Z</time></trkpt>
<trkpt lat="24.759971" lon="105.467398">
<time>2015-09-27T16:38:57Z</time></trkpt>
<trkpt lat="24.76039" lon="105.467067">
<time>2015-09-27T16:38:58Z</time></trkpt>
<trkpt lat="24.761018" lon="105.466556">
<time>2015-09-27T16:38:59Z</time></trkpt>
<trkpt lat="24.761587" lon="105.466075">
<time>2015-09-27T16:39:00Z</time></trkpt>
<trkpt lat="24.761916" lon="105.465784">
<time>2015-09-27T16:39:01Z</time></trkpt>
<trkpt lat="24.762076" lon="105.465604">
<time>2015-09-27T16:39:02Z</time></trkpt>
<trkpt lat="24.762205" lon="105.465413">
<time>2015-09-27T16:39:03Z</time></trkpt>
<trkpt lat="24.762365" lon="105.465143">
<time>2015-09-27T16:39:04Z</time></trkpt>
<trkpt lat="24.762494" lon="105.464822">
<time>2015-09-27T16:39:05Z</time></trkpt>
<trkpt lat="24.762563" lon="105.464571">
<time>2015-09-27T16:39:06Z</time></trkpt>
<trkpt lat="24.762593" lon="105.464341">
<time>2015-09-27T16:39:07Z</time></trkpt>
<trkpt lat="24.762612" lon="105.46399">
<time>2015-09-27T16:39:08Z</time></trkpt>
<trkpt lat="24.762611" lon="105.46366">
<time>2015-09-27T16:39:09Z</time></trkpt>
<trkpt lat="24.762559" lon="105.462878">
<time>2015-09-27T16:39:10Z</time></trkpt>
<trkpt lat="24.762538" lon="105.462698">
<time>2015-09-27T16:39:11Z</time></trkpt>
<trkpt lat="24.762498" lon="105.462527">
<time>2015-09-27T16:39:12Z</time></trkpt>
<trkpt lat="24.762447" lon="105.462307">
<time>2015-09-27T16:39:13Z</time></trkpt>
<trkpt lat="24.762377" lon="105.462126">
<time>2015-09-27T16:39:14Z</time></trkpt>
<trkpt lat="24.762226" lon="105.461806">
<time>2015-09-27T16:39:15Z</time></trkpt>
<trkpt lat="24.762086" lon="105.461585">
<time>2015-09-27T16:39:16Z</time></trkpt>
<trkpt lat="24.761955" lon="105.461395">
<time>2015-09-27T16:39:17Z</time></trkpt>
<trkpt lat="24.761775" lon="105.461185">
<time>2015-09-27T16:39:18Z</time></trkpt>
<trkpt lat="24.761253" lon="105.460563">
<time>2015-09-27T16:39:19Z</time></trkpt>
<trkpt lat="24.760852" lon="105.459972">
<time>2015-09-27T16:39:20Z</time></trkpt>
<trkpt lat="24.760631" lon="105.459591">
<time>2015-09-27T16:39:21Z</time></trkpt>
<trkpt lat="24.7605" lon="105.459191">
<time>2015-09-27T16:39:22Z</time></trkpt>
<trkpt lat="24.760419" lon="105.45886">
<time>2015-09-27T16:39:23Z</time></trkpt>
<trkpt lat="24.760338" lon="105.458349">
<time>2015-09-27T16:39:24Z</time></trkpt>
<trkpt lat="24.760316" lon="105.457788">
<time>2015-09-27T16:39:25Z</time></trkpt>
<trkpt lat="24.760425" lon="105.457097">
<time>2015-09-27T16:39:26Z</time></trkpt>
<trkpt lat="24.760673" lon="105.456285">
<time>2015-09-27T16:39:27Z</time></trkpt>
<trkpt lat="24.760673" lon="105.456285">
<time>2015-09-27T16:39:28Z</time></trkpt>
<trkpt lat="24.761001" lon="105.455414">
<time>2015-09-27T16:39:29Z</time></trkpt>
<trkpt lat="24.761299" lon="105.454692">
<time>2015-09-27T16:39:30Z</time></trkpt>
<trkpt lat="24.761458" lon="105.454262">
<time>2015-09-27T16:39:31Z</time></trkpt>
<trkpt lat="24.761736" lon="105.45338">
<time>2015-09-27T16:39:32Z</time></trkpt>
<trkpt lat="24.761825" lon="105.453059">
<time>2015-09-27T16:39:33Z</time></trkpt>
<trkpt lat="24.761845" lon="105.452879">
<time>2015-09-27T16:39:34Z</time></trkpt>
<trkpt lat="24.761844" lon="105.452709">
<time>2015-09-27T16:39:35Z</time></trkpt>
<trkpt lat="24.761824" lon="105.452549">
<time>2015-09-27T16:39:36Z</time></trkpt>
<trkpt lat="24.761804" lon="105.452408">
<time>2015-09-27T16:39:37Z</time></trkpt>
<trkpt lat="24.761743" lon="105.452278">
<time>2015-09-27T16:39:38Z</time></trkpt>
<trkpt lat="24.761643" lon="105.452128">
<time>2015-09-27T16:39:39Z</time></trkpt>
<trkpt lat="24.761543" lon="105.452008">
<time>2015-09-27T16:39:40Z</time></trkpt>
<trkpt lat="24.761272" lon="105.451777">
<time>2015-09-27T16:39:41Z</time></trkpt>
<trkpt lat="24.760852" lon="105.451457">
<time>2015-09-27T16:39:42Z</time></trkpt>
<trkpt lat="24.760671" lon="105.451337">
<time>2015-09-27T16:39:43Z</time></trkpt>
<trkpt lat="24.760501" lon="105.451256">
<time>2015-09-27T16:39:44Z</time></trkpt>
<trkpt lat="24.760291" lon="105.451136">
<time>2015-09-27T16:39:45Z</time></trkpt>
<trkpt lat="24.7595" lon="105.450786">
<time>2015-09-27T16:39:46Z</time></trkpt>
<trkpt lat="24.75936" lon="105.450686">
<time>2015-09-27T16:39:47Z</time></trkpt>
<trkpt lat="24.75919" lon="105.450555">
<time>2015-09-27T16:39:48Z</time></trkpt>
<trkpt lat="24.75919" lon="105.450555">
<time>2015-09-27T16:39:49Z</time></trkpt>
<trkpt lat="24.758999" lon="105.450345">
<time>2015-09-27T16:39:50Z</time></trkpt>
<trkpt lat="24.758929" lon="105.450235">
<time>2015-09-27T16:39:51Z</time></trkpt>
<trkpt lat="24.758869" lon="105.450115">
<time>2015-09-27T16:39:52Z</time></trkpt>
<trkpt lat="24.758798" lon="105.449954">
<time>2015-09-27T16:39:53Z</time></trkpt>
<trkpt lat="24.758748" lon="105.449774">
<time>2015-09-27T16:39:54Z</time></trkpt>
<trkpt lat="24.758698" lon="105.449554">
<time>2015-09-27T16:39:55Z</time></trkpt>
<trkpt lat="24.758677" lon="105.449424">
<time>2015-09-27T16:39:56Z</time></trkpt>
<trkpt lat="24.758657" lon="105.449153">
<time>2015-09-27T16:39:57Z</time></trkpt>
<trkpt lat="24.758657" lon="105.449023">
<time>2015-09-27T16:39:58Z</time></trkpt>
<trkpt lat="24.758666" lon="105.448903">
<time>2015-09-27T16:39:59Z</time></trkpt>
<trkpt lat="24.758696" lon="105.448682">
<time>2015-09-27T16:40:00Z</time></trkpt>
<trkpt lat="24.758725" lon="105.448542">
<time>2015-09-27T16:40:01Z</time></trkpt>
<trkpt lat="24.758755" lon="105.448422">
<time>2015-09-27T16:40:02Z</time></trkpt>
<trkpt lat="24.758795" lon="105.448302">
<time>2015-09-27T16:40:03Z</time></trkpt>
<trkpt lat="24.758795" lon="105.448302">
<time>2015-09-27T16:40:04Z</time></trkpt>
<trkpt lat="24.758835" lon="105.448212">
<time>2015-09-27T16:40:05Z</time></trkpt>
<trkpt lat="24.758994" lon="105.447951">
<time>2015-09-27T16:40:06Z</time></trkpt>
<trkpt lat="24.759254" lon="105.447671">
<time>2015-09-27T16:40:07Z</time></trkpt>
<trkpt lat="24.759603" lon="105.4474">
<time>2015-09-27T16:40:08Z</time></trkpt>
<trkpt lat="24.760392" lon="105.44693">
<time>2015-09-27T16:40:09Z</time></trkpt>
<trkpt lat="24.761091" lon="105.446469">
<time>2015-09-27T16:40:10Z</time></trkpt>
<trkpt lat="24.7619" lon="105.445968">
<time>2015-09-27T16:40:11Z</time></trkpt>
<trkpt lat="24.762499" lon="105.445638">
<time>2015-09-27T16:40:12Z</time></trkpt>
<trkpt lat="24.762939" lon="105.445427">
<time>2015-09-27T16:40:13Z</time></trkpt>
<trkpt lat="24.763289" lon="105.445287">
<time>2015-09-27T16:40:14Z</time></trkpt>
<trkpt lat="24.763648" lon="105.445117">
<time>2015-09-27T16:40:15Z</time></trkpt>
<trkpt lat="24.763988" lon="105.444937">
<time>2015-09-27T16:40:16Z</time></trkpt>
<trkpt lat="24.764177" lon="105.444736">
<time>2015-09-27T16:40:17Z</time></trkpt>
<trkpt lat="24.764327" lon="105.444476">
<time>2015-09-27T16:40:18Z</time></trkpt>
<trkpt lat="24.764436" lon="105.444276">
<time>2015-09-27T16:40:19Z</time></trkpt>
<trkpt lat="24.764516" lon="105.444085">
<time>2015-09-27T16:40:20Z</time></trkpt>
<trkpt lat="24.764605" lon="105.443775">
<time>2015-09-27T16:40:21Z</time></trkpt>
<trkpt lat="24.764734" lon="105.443144">
<time>2015-09-27T16:40:22Z</time></trkpt>
<trkpt lat="24.765061" lon="105.441542">
<time>2015-09-27T16:40:23Z</time></trkpt>
<trkpt lat="24.76521" lon="105.440821">
<time>2015-09-27T16:40:24Z</time></trkpt>
<trkpt lat="24.765389" lon="105.440451">
<time>2015-09-27T16:40:25Z</time></trkpt>
<trkpt lat="24.765619" lon="105.44009">
<time>2015-09-27T16:40:26Z</time></trkpt>
<trkpt lat="24.765848" lon="105.43986">
<time>2015-09-27T16:40:27Z</time></trkpt>
<trkpt lat="24.766188" lon="105.43963">
<time>2015-09-27T16:40:28Z</time></trkpt>
<trkpt lat="24.766447" lon="105.4395">
<time>2015-09-27T16:40:29Z</time></trkpt>
<trkpt lat="24.766737" lon="105.439349">
<time>2015-09-27T16:40:30Z</time></trkpt>
<trkpt lat="24.767017" lon="105.439099">
<time>2015-09-27T16:40:31Z</time></trkpt>
<trkpt lat="24.767176" lon="105.438909">
<time>2015-09-27T16:40:32Z</time></trkpt>
<trkpt lat="24.767416" lon="105.438488">
<time>2015-09-27T16:40:33Z</time></trkpt>
<trkpt lat="24.767416" lon="105.438488">
<time>2015-09-27T16:40:34Z</time></trkpt>
<trkpt lat="24.767444" lon="105.437427">
<time>2015-09-27T16:40:35Z</time></trkpt>
<trkpt lat="24.767483" lon="105.436756">
<time>2015-09-27T16:40:36Z</time></trkpt>
<trkpt lat="24.767532" lon="105.436496">
<time>2015-09-27T16:40:37Z</time></trkpt>
<trkpt lat="24.767572" lon="105.436316">
<time>2015-09-27T16:40:38Z</time></trkpt>
<trkpt lat="24.767651" lon="105.436066">
<time>2015-09-27T16:40:39Z</time></trkpt>
<trkpt lat="24.767801" lon="105.435725">
<time>2015-09-27T16:40:40Z</time></trkpt>
<trkpt lat="24.768578" lon="105.434254">
<time>2015-09-27T16:40:41Z</time></trkpt>
<trkpt lat="24.768818" lon="105.433824">
<time>2015-09-27T16:40:42Z</time></trkpt>
<trkpt lat="24.769007" lon="105.433533">
<time>2015-09-27T16:40:43Z</time></trkpt>
<trkpt lat="24.769147" lon="105.433333">
<time>2015-09-27T16:40:44Z</time></trkpt>
<trkpt lat="24.769247" lon="105.433223">
<time>2015-09-27T16:40:45Z</time></trkpt>
<trkpt lat="24.769427" lon="105.433063">
<time>2015-09-27T16:40:46Z</time></trkpt>
<trkpt lat="24.769846" lon="105.432753">
<time>2015-09-27T16:40:47Z</time></trkpt>
<trkpt lat="24.771065" lon="105.431952">
<time>2015-09-27T16:40:48Z</time></trkpt>
<trkpt lat="24.771624" lon="105.431501">
<time>2015-09-27T16:40:49Z</time></trkpt>
<trkpt lat="24.771844" lon="105.431281">
<time>2015-09-27T16:40:50Z</time></trkpt>
<trkpt lat="24.772033" lon="105.431051">
<time>2015-09-27T16:40:51Z</time></trkpt>
<trkpt lat="24.772173" lon="105.430761">
<time>2015-09-27T16:40:52Z</time></trkpt>
<trkpt lat="24.772293" lon="105.430431">
<time>2015-09-27T16:40:53Z</time></trkpt>
<trkpt lat="24.772372" lon="105.43012">
<time>2015-09-27T16:40:54Z</time></trkpt>
<trkpt lat="24.772441" lon="105.42949">
<time>2015-09-27T16:40:55Z</time></trkpt>
<trkpt lat="24.772441" lon="105.42947">
<time>2015-09-27T16:40:56Z</time></trkpt>
<trkpt lat="24.772389" lon="105.428039">
<time>2015-09-27T16:40:57Z</time></trkpt>
<trkpt lat="24.772378" lon="105.426998">
<time>2015-09-27T16:40:58Z</time></trkpt>
<trkpt lat="24.772407" lon="105.426488">
<time>2015-09-27T16:40:59Z</time></trkpt>
<trkpt lat="24.772567" lon="105.426088">
<time>2015-09-27T16:41:00Z</time></trkpt>
<trkpt lat="24.772716" lon="105.425778">
<time>2015-09-27T16:41:01Z</time></trkpt>
<trkpt lat="24.772946" lon="105.425387">
<time>2015-09-27T16:41:02Z</time></trkpt>
<trkpt lat="24.773815" lon="105.424337">
<time>2015-09-27T16:41:03Z</time></trkpt>
<trkpt lat="24.774334" lon="105.423767">
<time>2015-09-27T16:41:04Z</time></trkpt>
<trkpt lat="24.774943" lon="105.423026">
<time>2015-09-27T16:41:05Z</time></trkpt>
<trkpt lat="24.775123" lon="105.422646">
<time>2015-09-27T16:41:06Z</time></trkpt>
<trkpt lat="24.775212" lon="105.422326">
<time>2015-09-27T16:41:07Z</time></trkpt>
<trkpt lat="24.775232" lon="105.421966">
<time>2015-09-27T16:41:08Z</time></trkpt>
<trkpt lat="24.775192" lon="105.421686">
<time>2015-09-27T16:41:09Z</time></trkpt>
<trkpt lat="24.775091" lon="105.421426">
<time>2015-09-27T16:41:10Z</time></trkpt>
<trkpt lat="24.774861" lon="105.421036">
<time>2015-09-27T16:41:11Z</time></trkpt>
<trkpt lat="24.77368" lon="105.419495">
<time>2015-09-27T16:41:12Z</time></trkpt>
<trkpt lat="24.773269" lon="105.418935">
<time>2015-09-27T16:41:13Z</time></trkpt>
<trkpt lat="24.773069" lon="105.418645">
<time>2015-09-27T16:41:14Z</time></trkpt>
<trkpt lat="24.772869" lon="105.418215">
<time>2015-09-27T16:41:15Z</time></trkpt>
<trkpt lat="24.772067" lon="105.416335">
<time>2015-09-27T16:41:16Z</time></trkpt>
<trkpt lat="24.771847" lon="105.415895">
<time>2015-09-27T16:41:17Z</time></trkpt>
<trkpt lat="24.771637" lon="105.415585">
<time>2015-09-27T16:41:18Z</time></trkpt>
<trkpt lat="24.771436" lon="105.415365">
<time>2015-09-27T16:41:19Z</time></trkpt>
<trkpt lat="24.770796" lon="105.414865">
<time>2015-09-27T16:41:20Z</time></trkpt>
<trkpt lat="24.770486" lon="105.414565">
<time>2015-09-27T16:41:21Z</time></trkpt>
<trkpt lat="24.770316" lon="105.414275">
<time>2015-09-27T16:41:22Z</time></trkpt>
<trkpt lat="24.770246" lon="105.414065">
<time>2015-09-27T16:41:23Z</time></trkpt>
<trkpt lat="24.770195" lon="105.413785">
<time>2015-09-27T16:41:24Z</time></trkpt>
<trkpt lat="24.770215" lon="105.413515">
<time>2015-09-27T16:41:25Z</time></trkpt>
<trkpt lat="24.770355" lon="105.413145">
<time>2015-09-27T16:41:26Z</time></trkpt>
<trkpt lat="24.770665" lon="105.412585">
<time>2015-09-27T16:41:27Z</time></trkpt>
<trkpt lat="24.770864" lon="105.412115">
<time>2015-09-27T16:41:28Z</time></trkpt>
<trkpt lat="24.770934" lon="105.411765">
<time>2015-09-27T16:41:29Z</time></trkpt>
<trkpt lat="24.770964" lon="105.411405">
<time>2015-09-27T16:41:30Z</time></trkpt>
<trkpt lat="24.770874" lon="105.411035">
<time>2015-09-27T16:41:31Z</time></trkpt>
<trkpt lat="24.770774" lon="105.410745">
<time>2015-09-27T16:41:32Z</time></trkpt>
<trkpt lat="24.770133" lon="105.409476">
<time>2015-09-27T16:41:33Z</time></trkpt>
<trkpt lat="24.769412" lon="105.408116">
<time>2015-09-27T16:41:34Z</time></trkpt>
<trkpt lat="24.769352" lon="105.407876">
<time>2015-09-27T16:41:35Z</time></trkpt>
<trkpt lat="24.769312" lon="105.407597">
<time>2015-09-27T16:41:36Z</time></trkpt>
<trkpt lat="24.769352" lon="105.407267">
<time>2015-09-27T16:41:37Z</time></trkpt>
<trkpt lat="24.769512" lon="105.406887">
<time>2015-09-27T16:41:38Z</time></trkpt>
<trkpt lat="24.769692" lon="105.406607">
<time>2015-09-27T16:41:39Z</time></trkpt>
<trkpt lat="24.770142" lon="105.406137">
<time>2015-09-27T16:41:40Z</time></trkpt>
<trkpt lat="24.770352" lon="105.405867">
<time>2015-09-27T16:41:41Z</time></trkpt>
<trkpt lat="24.770491" lon="105.405627">
<time>2015-09-27T16:41:42Z</time></trkpt>
<trkpt lat="24.770631" lon="105.405327">
<time>2015-09-27T16:41:43Z</time></trkpt>
<trkpt lat="24.770731" lon="105.405078">
<time>2015-09-27T16:41:44Z</time></trkpt>
<trkpt lat="24.770851" lon="105.404538">
<time>2015-09-27T16:41:45Z</time></trkpt>
<trkpt lat="24.77206" lon="105.398132">
<time>2015-09-27T16:41:46Z</time></trkpt>
<trkpt lat="24.77211" lon="105.397653">
<time>2015-09-27T16:41:47Z</time></trkpt>
<trkpt lat="24.77214" lon="105.397263">
<time>2015-09-27T16:41:48Z</time></trkpt>
<trkpt lat="24.77211" lon="105.396923">
<time>2015-09-27T16:41:49Z</time></trkpt>
<trkpt lat="24.77205" lon="105.396634">
<time>2015-09-27T16:41:50Z</time></trkpt>
<trkpt lat="24.77189" lon="105.396174">
<time>2015-09-27T16:41:51Z</time></trkpt>
<trkpt lat="24.770941" lon="105.393847">
<time>2015-09-27T16:41:52Z</time></trkpt>
<trkpt lat="24.770771" lon="105.393217">
<time>2015-09-27T16:41:53Z</time></trkpt>
<trkpt lat="24.770711" lon="105.392858">
<time>2015-09-27T16:41:54Z</time></trkpt>
<trkpt lat="24.770691" lon="105.392518">
<time>2015-09-27T16:41:55Z</time></trkpt>
<trkpt lat="24.770681" lon="105.392169">
<time>2015-09-27T16:41:56Z</time></trkpt>
<trkpt lat="24.770752" lon="105.39112">
<time>2015-09-27T16:41:57Z</time></trkpt>
<trkpt lat="24.771023" lon="105.387445">
<time>2015-09-27T16:41:58Z</time></trkpt>
<trkpt lat="24.771225" lon="105.38379">
<time>2015-09-27T16:41:59Z</time></trkpt>
<trkpt lat="24.771186" lon="105.382851">
<time>2015-09-27T16:42:00Z</time></trkpt>
<trkpt lat="24.770986" lon="105.382162">
<time>2015-09-27T16:42:01Z</time></trkpt>
<trkpt lat="24.770287" lon="105.380875">
<time>2015-09-27T16:42:02Z</time></trkpt>
<trkpt lat="24.769619" lon="105.379287">
<time>2015-09-27T16:42:03Z</time></trkpt>
<trkpt lat="24.769459" lon="105.378489">
<time>2015-09-27T16:42:04Z</time></trkpt>
<trkpt lat="24.76943" lon="105.37788">
<time>2015-09-27T16:42:05Z</time></trkpt>
<trkpt lat="24.76954" lon="105.377341">
<time>2015-09-27T16:42:06Z</time></trkpt>
<trkpt lat="24.769861" lon="105.376872">
<time>2015-09-27T16:42:07Z</time></trkpt>
<trkpt lat="24.771122" lon="105.375574">
<time>2015-09-27T16:42:08Z</time></trkpt>
<trkpt lat="24.771272" lon="105.375394">
<time>2015-09-27T16:42:09Z</time></trkpt>
<trkpt lat="24.771372" lon="105.375255">
<time>2015-09-27T16:42:10Z</time></trkpt>
<trkpt lat="24.771512" lon="105.375005">
<time>2015-09-27T16:42:11Z</time></trkpt>
<trkpt lat="24.771592" lon="105.374905">
<time>2015-09-27T16:42:12Z</time></trkpt>
<trkpt lat="24.771663" lon="105.374776">
<time>2015-09-27T16:42:13Z</time></trkpt>
<trkpt lat="24.771713" lon="105.374656">
<time>2015-09-27T16:42:14Z</time></trkpt>
<trkpt lat="24.771763" lon="105.374516">
<time>2015-09-27T16:42:15Z</time></trkpt>
<trkpt lat="24.771823" lon="105.374257">
<time>2015-09-27T16:42:16Z</time></trkpt>
<trkpt lat="24.771823" lon="105.374257">
<time>2015-09-27T16:42:17Z</time></trkpt>
<trkpt lat="24.771863" lon="105.373917">
<time>2015-09-27T16:42:18Z</time></trkpt>
<trkpt lat="24.772004" lon="105.373209">
<time>2015-09-27T16:42:19Z</time></trkpt>
<trkpt lat="24.772145" lon="105.37269">
<time>2015-09-27T16:42:20Z</time></trkpt>
<trkpt lat="24.772305" lon="105.3723">
<time>2015-09-27T16:42:21Z</time></trkpt>
<trkpt lat="24.772495" lon="105.371931">
<time>2015-09-27T16:42:22Z</time></trkpt>
<trkpt lat="24.772776" lon="105.371492">
<time>2015-09-27T16:42:23Z</time></trkpt>
<trkpt lat="24.773307" lon="105.370744">
<time>2015-09-27T16:42:24Z</time></trkpt>
<trkpt lat="24.773587" lon="105.370275">
<time>2015-09-27T16:42:25Z</time></trkpt>
<trkpt lat="24.773717" lon="105.370025">
<time>2015-09-27T16:42:26Z</time></trkpt>
<trkpt lat="24.773828" lon="105.369776">
<time>2015-09-27T16:42:27Z</time></trkpt>
<trkpt lat="24.773918" lon="105.369496">
<time>2015-09-27T16:42:28Z</time></trkpt>
<trkpt lat="24.774048" lon="105.369087">
<time>2015-09-27T16:42:29Z</time></trkpt>
<trkpt lat="24.774119" lon="105.368828">
<time>2015-09-27T16:42:30Z</time></trkpt>
<trkpt lat="24.774119" lon="105.368578">
<time>2015-09-27T16:42:31Z</time></trkpt>
<trkpt lat="24.774099" lon="105.368359">
<time>2015-09-27T16:42:32Z</time></trkpt>
<trkpt lat="24.77406" lon="105.368149">
<time>2015-09-27T16:42:33Z</time></trkpt>
<trkpt lat="24.77398" lon="105.36794">
<time>2015-09-27T16:42:34Z</time></trkpt>
<trkpt lat="24.77388" lon="105.36776">
<time>2015-09-27T16:42:35Z</time></trkpt>
<trkpt lat="24.77377" lon="105.36759">
<time>2015-09-27T16:42:36Z</time></trkpt>
<trkpt lat="24.773461" lon="105.367181">
<time>2015-09-27T16:42:37Z</time></trkpt>
<trkpt lat="24.773291" lon="105.366952">
<time>2015-09-27T16:42:38Z</time></trkpt>
<trkpt lat="24.773181" lon="105.366722">
<time>2015-09-27T16:42:39Z</time></trkpt>
<trkpt lat="24.773112" lon="105.366553">
<time>2015-09-27T16:42:40Z</time></trkpt>
<trkpt lat="24.773062" lon="105.366383">
<time>2015-09-27T16:42:41Z</time></trkpt>
<trkpt lat="24.773032" lon="105.366193">
<time>2015-09-27T16:42:42Z</time></trkpt>
<trkpt lat="24.773032" lon="105.365944">
<time>2015-09-27T16:42:43Z</time></trkpt>
<trkpt lat="24.773053" lon="105.365784">
<time>2015-09-27T16:42:44Z</time></trkpt>
<trkpt lat="24.773133" lon="105.365595">
<time>2015-09-27T16:42:45Z</time></trkpt>
<trkpt lat="24.773233" lon="105.365425">
<time>2015-09-27T16:42:46Z</time></trkpt>
<trkpt lat="24.773353" lon="105.365266">
<time>2015-09-27T16:42:47Z</time></trkpt>
<trkpt lat="24.773473" lon="105.365156">
<time>2015-09-27T16:42:48Z</time></trkpt>
<trkpt lat="24.773874" lon="105.364866">
<time>2015-09-27T16:42:49Z</time></trkpt>
<trkpt lat="24.775205" lon="105.363899">
<time>2015-09-27T16:42:50Z</time></trkpt>
<trkpt lat="24.775505" lon="105.363629">
<time>2015-09-27T16:42:51Z</time></trkpt>
<trkpt lat="24.775525" lon="105.363609">
<time>2015-09-27T16:42:52Z</time></trkpt>
<trkpt lat="24.776286" lon="105.362771">
<time>2015-09-27T16:42:53Z</time></trkpt>
<trkpt lat="24.776456" lon="105.362612">
<time>2015-09-27T16:42:54Z</time></trkpt>
<trkpt lat="24.776637" lon="105.362482">
<time>2015-09-27T16:42:55Z</time></trkpt>
<trkpt lat="24.776877" lon="105.362352">
<time>2015-09-27T16:42:56Z</time></trkpt>
<trkpt lat="24.777067" lon="105.362282">
<time>2015-09-27T16:42:57Z</time></trkpt>
<trkpt lat="24.777437" lon="105.362183">
<time>2015-09-27T16:42:58Z</time></trkpt>
<trkpt lat="24.778847" lon="105.361873">
<time>2015-09-27T16:42:59Z</time></trkpt>
<trkpt lat="24.779267" lon="105.361754">
<time>2015-09-27T16:43:00Z</time></trkpt>
<trkpt lat="24.779498" lon="105.361624">
<time>2015-09-27T16:43:01Z</time></trkpt>
<trkpt lat="24.779688" lon="105.361484">
<time>2015-09-27T16:43:02Z</time></trkpt>
<trkpt lat="24.779808" lon="105.361335">
<time>2015-09-27T16:43:03Z</time></trkpt>
<trkpt lat="24.779858" lon="105.361275">
<time>2015-09-27T16:43:04Z</time></trkpt>
<trkpt lat="24.779978" lon="105.361045">
<time>2015-09-27T16:43:05Z</time></trkpt>
<trkpt lat="24.780049" lon="105.360806">
<time>2015-09-27T16:43:06Z</time></trkpt>
<trkpt lat="24.780099" lon="105.360546">
<time>2015-09-27T16:43:07Z</time></trkpt>
<trkpt lat="24.780089" lon="105.360257">
<time>2015-09-27T16:43:08Z</time></trkpt>
<trkpt lat="24.78001" lon="105.359968">
<time>2015-09-27T16:43:09Z</time></trkpt>
<trkpt lat="24.779701" lon="105.35918">
<time>2015-09-27T16:43:10Z</time></trkpt>
<trkpt lat="24.778884" lon="105.357205">
<time>2015-09-27T16:43:11Z</time></trkpt>
<trkpt lat="24.778575" lon="105.356556">
<time>2015-09-27T16:43:12Z</time></trkpt>
<trkpt lat="24.778535" lon="105.356417">
<time>2015-09-27T16:43:13Z</time></trkpt>
<trkpt lat="24.778515" lon="105.356307">
<time>2015-09-27T16:43:14Z</time></trkpt>
<trkpt lat="24.778496" lon="105.356207">
<time>2015-09-27T16:43:15Z</time></trkpt>
<trkpt lat="24.778496" lon="105.356207">
<time>2015-09-27T16:43:16Z</time></trkpt>
<trkpt lat="24.778556" lon="105.356187">
<time>2015-09-27T16:43:17Z</time></trkpt>
<trkpt lat="24.778556" lon="105.356187">
<time>2015-09-27T16:43:18Z</time></trkpt>
<trkpt lat="24.778556" lon="105.356177">
<time>2015-09-27T16:43:19Z</time></trkpt>
<trkpt lat="24.778536" lon="105.356018">
<time>2015-09-27T16:43:20Z</time></trkpt>
<trkpt lat="24.778526" lon="105.355888">
<time>2015-09-27T16:43:21Z</time></trkpt>
<trkpt lat="24.778526" lon="105.355719">
<time>2015-09-27T16:43:22Z</time></trkpt>
<trkpt lat="24.778526" lon="105.355619">
<time>2015-09-27T16:43:23Z</time></trkpt>
<trkpt lat="24.778517" lon="105.355469">
<time>2015-09-27T16:43:24Z</time></trkpt>
<trkpt lat="24.778507" lon="105.35513">
<time>2015-09-27T16:43:25Z</time></trkpt>
<trkpt lat="24.778488" lon="105.354572">
<time>2015-09-27T16:43:26Z</time></trkpt>
<trkpt lat="24.778488" lon="105.354572">
<time>2015-09-27T16:43:27Z</time></trkpt>
<trkpt lat="24.778678" lon="105.354562">
<time>2015-09-27T16:43:28Z</time></trkpt>
<trkpt lat="24.778968" lon="105.354532">
<time>2015-09-27T16:43:29Z</time></trkpt>
<trkpt lat="24.778968" lon="105.354532">
<time>2015-09-27T16:43:30Z</time></trkpt>
<trkpt lat="24.778873" lon="105.351689">
<time>2015-09-27T16:43:31Z</time></trkpt>
<trkpt lat="24.778825" lon="105.350413">
<time>2015-09-27T16:43:32Z</time></trkpt>
<trkpt lat="24.778805" lon="105.350094">
<time>2015-09-27T16:43:33Z</time></trkpt>
<trkpt lat="24.778805" lon="105.350094">
<time>2015-09-27T16:43:34Z</time></trkpt>
<trkpt lat="24.778486" lon="105.349934">
<time>2015-09-27T16:43:35Z</time></trkpt>
<trkpt lat="24.778486" lon="105.349934">
<time>2015-09-27T16:43:36Z</time></trkpt>
<trkpt lat="24.778486" lon="105.349914">
<time>2015-09-27T16:43:37Z</time></trkpt>
<trkpt lat="24.778496" lon="105.349874">
<time>2015-09-27T16:43:38Z</time></trkpt>
<trkpt lat="24.778496" lon="105.349824">
<time>2015-09-27T16:43:39Z</time></trkpt>
<trkpt lat="24.778486" lon="105.349794">
<time>2015-09-27T16:43:40Z</time></trkpt>
<trkpt lat="24.778476" lon="105.349755">
<time>2015-09-27T16:43:41Z</time></trkpt>
<trkpt lat="24.778456" lon="105.349715">
<time>2015-09-27T16:43:42Z</time></trkpt>
<trkpt lat="24.778426" lon="105.349685">
<time>2015-09-27T16:43:43Z</time></trkpt>
<trkpt lat="24.778406" lon="105.349665">
<time>2015-09-27T16:43:44Z</time></trkpt>
<trkpt lat="24.778376" lon="105.349655">
<time>2015-09-27T16:43:45Z</time></trkpt>
<trkpt lat="24.778346" lon="105.349645">
<time>2015-09-27T16:43:46Z</time></trkpt>
<trkpt lat="24.779218" lon="105.348747">
<time>2015-09-27T16:43:47Z</time></trkpt>
<trkpt lat="24.78111" lon="105.347082">
<time>2015-09-27T16:43:48Z</time></trkpt>
<trkpt lat="24.781641" lon="105.346603">
<time>2015-09-27T16:43:49Z</time></trkpt>
<trkpt lat="24.781811" lon="105.346414">
<time>2015-09-27T16:43:50Z</time></trkpt>
<trkpt lat="24.781982" lon="105.346254">
<time>2015-09-27T16:43:51Z</time></trkpt>
<trkpt lat="24.782232" lon="105.346025">
<time>2015-09-27T16:43:52Z</time></trkpt>
<trkpt lat="24.782993" lon="105.345337">
<time>2015-09-27T16:43:53Z</time></trkpt>
<trkpt lat="24.783624" lon="105.344748">
<time>2015-09-27T16:43:54Z</time></trkpt>
<trkpt lat="24.783834" lon="105.344539">
<time>2015-09-27T16:43:55Z</time></trkpt>
<trkpt lat="24.783925" lon="105.344399">
<time>2015-09-27T16:43:56Z</time></trkpt>
<trkpt lat="24.783945" lon="105.344309">
<time>2015-09-27T16:43:57Z</time></trkpt>
<trkpt lat="24.784005" lon="105.34406">
<time>2015-09-27T16:43:58Z</time></trkpt>
<trkpt lat="24.784026" lon="105.343771">
<time>2015-09-27T16:43:59Z</time></trkpt>
<trkpt lat="24.784117" lon="105.342953">
<time>2015-09-27T16:44:00Z</time></trkpt>
<trkpt lat="24.784168" lon="105.342325">
<time>2015-09-27T16:44:01Z</time></trkpt>
<trkpt lat="24.784261" lon="105.341069">
<time>2015-09-27T16:44:02Z</time></trkpt>
<trkpt lat="24.784332" lon="105.340201">
<time>2015-09-27T16:44:03Z</time></trkpt>
<trkpt lat="24.784342" lon="105.340141">
<time>2015-09-27T16:44:04Z</time></trkpt>
<trkpt lat="24.784414" lon="105.339184">
<time>2015-09-27T16:44:05Z</time></trkpt>
<trkpt lat="24.784456" lon="105.338397">
<time>2015-09-27T16:44:06Z</time></trkpt>
<trkpt lat="24.784466" lon="105.338177">
<time>2015-09-27T16:44:07Z</time></trkpt>
<trkpt lat="24.784466" lon="105.338117">
<time>2015-09-27T16:44:08Z</time></trkpt>
<trkpt lat="24.784487" lon="105.337748">
<time>2015-09-27T16:44:09Z</time></trkpt>
<trkpt lat="24.784561" lon="105.335435">
<time>2015-09-27T16:44:10Z</time></trkpt>
<trkpt lat="24.784602" lon="105.334917">
<time>2015-09-27T16:44:11Z</time></trkpt>
<trkpt lat="24.784714" lon="105.33378">
<time>2015-09-27T16:44:12Z</time></trkpt>
<trkpt lat="24.784877" lon="105.332135">
<time>2015-09-27T16:44:13Z</time></trkpt>
<trkpt lat="24.784877" lon="105.332115">
<time>2015-09-27T16:44:14Z</time></trkpt>
<trkpt lat="24.785172" lon="105.329842">
<time>2015-09-27T16:44:15Z</time></trkpt>
<trkpt lat="24.785971" lon="105.324857">
<time>2015-09-27T16:44:16Z</time></trkpt>
<trkpt lat="24.786021" lon="105.324847">
<time>2015-09-27T16:44:17Z</time></trkpt>
<trkpt lat="24.786081" lon="105.324817">
<time>2015-09-27T16:44:18Z</time></trkpt>
<trkpt lat="24.786121" lon="105.324777">
<time>2015-09-27T16:44:19Z</time></trkpt>
<trkpt lat="24.786171" lon="105.324707">
<time>2015-09-27T16:44:20Z</time></trkpt>
<trkpt lat="24.786191" lon="105.324658">
<time>2015-09-27T16:44:21Z</time></trkpt>
<trkpt lat="24.786201" lon="105.324618">
<time>2015-09-27T16:44:22Z</time></trkpt>
<trkpt lat="24.786202" lon="105.324568">
<time>2015-09-27T16:44:23Z</time></trkpt>
<trkpt lat="24.786192" lon="105.324528">
<time>2015-09-27T16:44:24Z</time></trkpt>
<trkpt lat="24.786192" lon="105.324498">
<time>2015-09-27T16:44:25Z</time></trkpt>
<trkpt lat="24.786182" lon="105.324468">
<time>2015-09-27T16:44:26Z</time></trkpt>
<trkpt lat="24.786162" lon="105.324438">
<time>2015-09-27T16:44:27Z</time></trkpt>
<trkpt lat="24.786142" lon="105.324408">
<time>2015-09-27T16:44:28Z</time></trkpt>
<trkpt lat="24.786112" lon="105.324378">
<time>2015-09-27T16:44:29Z</time></trkpt>
<trkpt lat="24.786092" lon="105.324359">
<time>2015-09-27T16:44:30Z</time></trkpt>
<trkpt lat="24.786052" lon="105.324349">
<time>2015-09-27T16:44:31Z</time></trkpt>
<trkpt lat="24.786032" lon="105.324339">
<time>2015-09-27T16:44:32Z</time></trkpt>
<trkpt lat="24.786245" lon="105.322873">
<time>2015-09-27T16:44:33Z</time></trkpt>
<trkpt lat="24.78667" lon="105.320321">
<time>2015-09-27T16:44:34Z</time></trkpt>
<trkpt lat="24.7867" lon="105.320101">
<time>2015-09-27T16:44:35Z</time></trkpt>
<trkpt lat="24.786721" lon="105.319852">
<time>2015-09-27T16:44:36Z</time></trkpt>
<trkpt lat="24.786721" lon="105.319623">
<time>2015-09-27T16:44:37Z</time></trkpt>
<trkpt lat="24.786721" lon="105.319374">
<time>2015-09-27T16:44:38Z</time></trkpt>
<trkpt lat="24.786712" lon="105.319224">
<time>2015-09-27T16:44:39Z</time></trkpt>
<trkpt lat="24.786692" lon="105.319104">
<time>2015-09-27T16:44:40Z</time></trkpt>
<trkpt lat="24.786652" lon="105.318975">
<time>2015-09-27T16:44:41Z</time></trkpt>
<trkpt lat="24.786563" lon="105.318805">
<time>2015-09-27T16:44:42Z</time></trkpt>
<trkpt lat="24.786453" lon="105.318686">
<time>2015-09-27T16:44:43Z</time></trkpt>
<trkpt lat="24.786333" lon="105.318596">
<time>2015-09-27T16:44:44Z</time></trkpt>
<trkpt lat="24.786193" lon="105.318506">
<time>2015-09-27T16:44:45Z</time></trkpt>
<trkpt lat="24.785823" lon="105.318367">
<time>2015-09-27T16:44:46Z</time></trkpt>
<trkpt lat="24.785254" lon="105.318107">
<time>2015-09-27T16:44:47Z</time></trkpt>
<trkpt lat="24.785064" lon="105.317998">
<time>2015-09-27T16:44:48Z</time></trkpt>
<trkpt lat="24.784825" lon="105.317828">
<time>2015-09-27T16:44:49Z</time></trkpt>
<trkpt lat="24.784246" lon="105.31729">
<time>2015-09-27T16:44:50Z</time></trkpt>
<trkpt lat="24.78216" lon="105.315216">
<time>2015-09-27T16:44:51Z</time></trkpt>
<trkpt lat="24.781341" lon="105.314399">
<time>2015-09-27T16:44:52Z</time></trkpt>
<trkpt lat="24.781202" lon="105.314299">
<time>2015-09-27T16:44:53Z</time></trkpt>
<trkpt lat="24.781082" lon="105.314189">
<time>2015-09-27T16:44:54Z</time></trkpt>
<trkpt lat="24.780942" lon="105.31411">
<time>2015-09-27T16:44:55Z</time></trkpt>
<trkpt lat="24.780742" lon="105.31402">
<time>2015-09-27T16:44:56Z</time></trkpt>
<trkpt lat="24.780472" lon="105.31388">
<time>2015-09-27T16:44:57Z</time></trkpt>
<trkpt lat="24.780353" lon="105.313801">
<time>2015-09-27T16:44:58Z</time></trkpt>
<trkpt lat="24.780253" lon="105.313711">
<time>2015-09-27T16:44:59Z</time></trkpt>
<trkpt lat="24.780183" lon="105.313591">
<time>2015-09-27T16:45:00Z</time></trkpt>
<trkpt lat="24.780123" lon="105.313432">
<time>2015-09-27T16:45:01Z</time></trkpt>
<trkpt lat="24.780113" lon="105.313292">
<time>2015-09-27T16:45:02Z</time></trkpt>
<trkpt lat="24.780134" lon="105.313153">
<time>2015-09-27T16:45:03Z</time></trkpt>
<trkpt lat="24.780184" lon="105.312923">
<time>2015-09-27T16:45:04Z</time></trkpt>
<trkpt lat="24.780365" lon="105.312385">
<time>2015-09-27T16:45:05Z</time></trkpt>
<trkpt lat="24.780878" lon="105.310869">
<time>2015-09-27T16:45:06Z</time></trkpt>
<trkpt lat="24.781452" lon="105.308875">
<time>2015-09-27T16:45:07Z</time></trkpt>
<trkpt lat="24.781714" lon="105.307689">
<time>2015-09-27T16:45:08Z</time></trkpt>
<trkpt lat="24.781794" lon="105.30732">
<time>2015-09-27T16:45:09Z</time></trkpt>
<trkpt lat="24.782409" lon="105.304468">
<time>2015-09-27T16:45:10Z</time></trkpt>
<trkpt lat="24.7825" lon="105.304059">
<time>2015-09-27T16:45:11Z</time></trkpt>
<trkpt lat="24.78253" lon="105.3039">
<time>2015-09-27T16:45:12Z</time></trkpt>
<trkpt lat="24.782551" lon="105.30376">
<time>2015-09-27T16:45:13Z</time></trkpt>
<trkpt lat="24.782551" lon="105.30364">
<time>2015-09-27T16:45:14Z</time></trkpt>
<trkpt lat="24.782541" lon="105.303541">
<time>2015-09-27T16:45:15Z</time></trkpt>
<trkpt lat="24.782531" lon="105.303441">
<time>2015-09-27T16:45:16Z</time></trkpt>
<trkpt lat="24.782491" lon="105.303361">
<time>2015-09-27T16:45:17Z</time></trkpt>
<trkpt lat="24.782431" lon="105.303251">
<time>2015-09-27T16:45:18Z</time></trkpt>
<trkpt lat="24.782332" lon="105.303122">
<time>2015-09-27T16:45:19Z</time></trkpt>
<trkpt lat="24.782202" lon="105.303012">
<time>2015-09-27T16:45:20Z</time></trkpt>
<trkpt lat="24.782052" lon="105.302902">
<time>2015-09-27T16:45:21Z</time></trkpt>
<trkpt lat="24.781143" lon="105.302314">
<time>2015-09-27T16:45:22Z</time></trkpt>
<trkpt lat="24.780134" lon="105.301706">
<time>2015-09-27T16:45:23Z</time></trkpt>
<trkpt lat="24.779865" lon="105.301507">
<time>2015-09-27T16:45:24Z</time></trkpt>
<trkpt lat="24.779725" lon="105.301357">
<time>2015-09-27T16:45:25Z</time></trkpt>
<trkpt lat="24.779645" lon="105.301247">
<time>2015-09-27T16:45:26Z</time></trkpt>
<trkpt lat="24.779585" lon="105.301088">
<time>2015-09-27T16:45:27Z</time></trkpt>
<trkpt lat="24.779546" lon="105.300908">
<time>2015-09-27T16:45:28Z</time></trkpt>
<trkpt lat="24.779546" lon="105.300659">
<time>2015-09-27T16:45:29Z</time></trkpt>
<trkpt lat="24.779627" lon="105.30024">
<time>2015-09-27T16:45:30Z</time></trkpt>
<trkpt lat="24.779869" lon="105.298954">
<time>2015-09-27T16:45:31Z</time></trkpt>
<trkpt lat="24.77997" lon="105.298465">
<time>2015-09-27T16:45:32Z</time></trkpt>
<trkpt lat="24.780131" lon="105.297937">
<time>2015-09-27T16:45:33Z</time></trkpt>
<trkpt lat="24.780693" lon="105.296181">
<time>2015-09-27T16:45:34Z</time></trkpt>
<trkpt lat="24.780844" lon="105.295713">
<time>2015-09-27T16:45:35Z</time></trkpt>
<trkpt lat="24.781075" lon="105.295124">
<time>2015-09-27T16:45:36Z</time></trkpt>
<trkpt lat="24.781346" lon="105.294586">
<time>2015-09-27T16:45:37Z</time></trkpt>
<trkpt lat="24.781607" lon="105.294107">
<time>2015-09-27T16:45:38Z</time></trkpt>
<trkpt lat="24.781687" lon="105.293917">
<time>2015-09-27T16:45:39Z</time></trkpt>
<trkpt lat="24.781727" lon="105.293698">
<time>2015-09-27T16:45:40Z</time></trkpt>
<trkpt lat="24.781738" lon="105.293479">
<time>2015-09-27T16:45:41Z</time></trkpt>
<trkpt lat="24.781728" lon="105.29306">
<time>2015-09-27T16:45:42Z</time></trkpt>
<trkpt lat="24.781621" lon="105.290955">
<time>2015-09-27T16:45:43Z</time></trkpt>
<trkpt lat="24.781592" lon="105.290257">
<time>2015-09-27T16:45:44Z</time></trkpt>
<trkpt lat="24.781613" lon="105.289998">
<time>2015-09-27T16:45:45Z</time></trkpt>
<trkpt lat="24.781613" lon="105.289858">
<time>2015-09-27T16:45:46Z</time></trkpt>
<trkpt lat="24.781633" lon="105.289748">
<time>2015-09-27T16:45:47Z</time></trkpt>
<trkpt lat="24.781674" lon="105.289479">
<time>2015-09-27T16:45:48Z</time></trkpt>
<trkpt lat="24.781754" lon="105.28899">
<time>2015-09-27T16:45:49Z</time></trkpt>
<trkpt lat="24.781835" lon="105.288442">
<time>2015-09-27T16:45:50Z</time></trkpt>
<trkpt lat="24.781845" lon="105.288222">
<time>2015-09-27T16:45:51Z</time></trkpt>
<trkpt lat="24.781826" lon="105.287923">
<time>2015-09-27T16:45:52Z</time></trkpt>
<trkpt lat="24.781766" lon="105.287524">
<time>2015-09-27T16:45:53Z</time></trkpt>
<trkpt lat="24.781667" lon="105.286945">
<time>2015-09-27T16:45:54Z</time></trkpt>
<trkpt lat="24.781647" lon="105.286736">
<time>2015-09-27T16:45:55Z</time></trkpt>
<trkpt lat="24.781628" lon="105.286526">
<time>2015-09-27T16:45:56Z</time></trkpt>
<trkpt lat="24.781668" lon="105.286287">
<time>2015-09-27T16:45:57Z</time></trkpt>
<trkpt lat="24.781718" lon="105.286068">
<time>2015-09-27T16:45:58Z</time></trkpt>
<trkpt lat="24.781768" lon="105.285948">
<time>2015-09-27T16:45:59Z</time></trkpt>
<trkpt lat="24.781829" lon="105.285798">
<time>2015-09-27T16:46:00Z</time></trkpt>
<trkpt lat="24.781919" lon="105.285668">
<time>2015-09-27T16:46:01Z</time></trkpt>
<trkpt lat="24.782099" lon="105.285429">
<time>2015-09-27T16:46:02Z</time></trkpt>
<trkpt lat="24.782299" lon="105.285249">
<time>2015-09-27T16:46:03Z</time></trkpt>
<trkpt lat="24.78249" lon="105.28507">
<time>2015-09-27T16:46:04Z</time></trkpt>
<trkpt lat="24.78263" lon="105.2849">
<time>2015-09-27T16:46:05Z</time></trkpt>
<trkpt lat="24.78277" lon="105.284671">
<time>2015-09-27T16:46:06Z</time></trkpt>
<trkpt lat="24.78286" lon="105.284402">
<time>2015-09-27T16:46:07Z</time></trkpt>
<trkpt lat="24.783052" lon="105.283593">
<time>2015-09-27T16:46:08Z</time></trkpt>
<trkpt lat="24.783062" lon="105.283394">
<time>2015-09-27T16:46:09Z</time></trkpt>
<trkpt lat="24.783052" lon="105.283224">
<time>2015-09-27T16:46:10Z</time></trkpt>
<trkpt lat="24.783022" lon="105.283085">
<time>2015-09-27T16:46:11Z</time></trkpt>
<trkpt lat="24.782972" lon="105.282935">
<time>2015-09-27T16:46:12Z</time></trkpt>
<trkpt lat="24.782803" lon="105.282566">
<time>2015-09-27T16:46:13Z</time></trkpt>
<trkpt lat="24.782673" lon="105.282267">
<time>2015-09-27T16:46:14Z</time></trkpt>
<trkpt lat="24.782633" lon="105.282067">
<time>2015-09-27T16:46:15Z</time></trkpt>
<trkpt lat="24.782614" lon="105.281808">
<time>2015-09-27T16:46:16Z</time></trkpt>
<trkpt lat="24.782644" lon="105.281548">
<time>2015-09-27T16:46:17Z</time></trkpt>
<trkpt lat="24.782835" lon="105.281079">
<time>2015-09-27T16:46:18Z</time></trkpt>
<trkpt lat="24.783226" lon="105.280122">
<time>2015-09-27T16:46:19Z</time></trkpt>
<trkpt lat="24.783286" lon="105.279902">
<time>2015-09-27T16:46:20Z</time></trkpt>
<trkpt lat="24.783286" lon="105.279653">
<time>2015-09-27T16:46:21Z</time></trkpt>
<trkpt lat="24.783237" lon="105.279403">
<time>2015-09-27T16:46:22Z</time></trkpt>
<trkpt lat="24.783117" lon="105.279174">
<time>2015-09-27T16:46:23Z</time></trkpt>
<trkpt lat="24.782897" lon="105.278884">
<time>2015-09-27T16:46:24Z</time></trkpt>
<trkpt lat="24.782048" lon="105.277917">
<time>2015-09-27T16:46:25Z</time></trkpt>
<trkpt lat="24.781989" lon="105.277817">
<time>2015-09-27T16:46:26Z</time></trkpt>
<trkpt lat="24.781959" lon="105.277757">
<time>2015-09-27T16:46:27Z</time></trkpt>
<trkpt lat="24.781899" lon="105.277557">
<time>2015-09-27T16:46:28Z</time></trkpt>
<trkpt lat="24.781929" lon="105.277258">
<time>2015-09-27T16:46:29Z</time></trkpt>
<trkpt lat="24.781999" lon="105.277058">
<time>2015-09-27T16:46:30Z</time></trkpt>
<trkpt lat="24.78218" lon="105.276809">
<time>2015-09-27T16:46:31Z</time></trkpt>
<trkpt lat="24.78236" lon="105.27655">
<time>2015-09-27T16:46:32Z</time></trkpt>
<trkpt lat="24.78245" lon="105.27635">
<time>2015-09-27T16:46:33Z</time></trkpt>
<trkpt lat="24.78252" lon="105.276091">
<time>2015-09-27T16:46:34Z</time></trkpt>
<trkpt lat="24.782541" lon="105.275851">
<time>2015-09-27T16:46:35Z</time></trkpt>
<trkpt lat="24.782541" lon="105.275592">
<time>2015-09-27T16:46:36Z</time></trkpt>
<trkpt lat="24.782511" lon="105.275342">
<time>2015-09-27T16:46:37Z</time></trkpt>
<trkpt lat="24.782442" lon="105.275003">
<time>2015-09-27T16:46:38Z</time></trkpt>
<trkpt lat="24.782432" lon="105.274833">
<time>2015-09-27T16:46:39Z</time></trkpt>
<trkpt lat="24.782442" lon="105.274674">
<time>2015-09-27T16:46:40Z</time></trkpt>
<trkpt lat="24.782512" lon="105.274474">
<time>2015-09-27T16:46:41Z</time></trkpt>
<trkpt lat="24.782652" lon="105.274244">
<time>2015-09-27T16:46:42Z</time></trkpt>
<trkpt lat="24.782802" lon="105.274005">
<time>2015-09-27T16:46:43Z</time></trkpt>
<trkpt lat="24.782893" lon="105.273795">
<time>2015-09-27T16:46:44Z</time></trkpt>
<trkpt lat="24.782933" lon="105.273576">
<time>2015-09-27T16:46:45Z</time></trkpt>
<trkpt lat="24.782983" lon="105.273117">
<time>2015-09-27T16:46:46Z</time></trkpt>
<trkpt lat="24.783024" lon="105.272518">
<time>2015-09-27T16:46:47Z</time></trkpt>
<trkpt lat="24.783044" lon="105.272388">
<time>2015-09-27T16:46:48Z</time></trkpt>
<trkpt lat="24.783094" lon="105.272239">
<time>2015-09-27T16:46:49Z</time></trkpt>
<trkpt lat="24.783134" lon="105.272129">
<time>2015-09-27T16:46:50Z</time></trkpt>
<trkpt lat="24.783184" lon="105.272039">
<time>2015-09-27T16:46:51Z</time></trkpt>
<trkpt lat="24.783254" lon="105.271959">
<time>2015-09-27T16:46:52Z</time></trkpt>
<trkpt lat="24.783324" lon="105.271899">
<time>2015-09-27T16:46:53Z</time></trkpt>
<trkpt lat="24.783635" lon="105.27171">
<time>2015-09-27T16:46:54Z</time></trkpt>
<trkpt lat="24.784025" lon="105.27152">
<time>2015-09-27T16:46:55Z</time></trkpt>
<trkpt lat="24.784145" lon="105.27144">
<time>2015-09-27T16:46:56Z</time></trkpt>
<trkpt lat="24.784205" lon="105.27138">
<time>2015-09-27T16:46:57Z</time></trkpt>
<trkpt lat="24.784285" lon="105.27128">
<time>2015-09-27T16:46:58Z</time></trkpt>
<trkpt lat="24.784315" lon="105.271211">
<time>2015-09-27T16:46:59Z</time></trkpt>
<trkpt lat="24.784345" lon="105.271121">
<time>2015-09-27T16:47:00Z</time></trkpt>
<trkpt lat="24.784355" lon="105.271031">
<time>2015-09-27T16:47:01Z</time></trkpt>
<trkpt lat="24.784345" lon="105.270941">
<time>2015-09-27T16:47:02Z</time></trkpt>
<trkpt lat="24.784325" lon="105.270861">
<time>2015-09-27T16:47:03Z</time></trkpt>
<trkpt lat="24.784285" lon="105.270771">
<time>2015-09-27T16:47:04Z</time></trkpt>
<trkpt lat="24.784216" lon="105.270672">
<time>2015-09-27T16:47:05Z</time></trkpt>
<trkpt lat="24.783976" lon="105.270432">
<time>2015-09-27T16:47:06Z</time></trkpt>
<trkpt lat="24.783326" lon="105.269863">
<time>2015-09-27T16:47:07Z</time></trkpt>
<trkpt lat="24.783146" lon="105.269713">
<time>2015-09-27T16:47:08Z</time></trkpt>
<trkpt lat="24.783076" lon="105.269654">
<time>2015-09-27T16:47:09Z</time></trkpt>
<trkpt lat="24.783037" lon="105.269604">
<time>2015-09-27T16:47:10Z</time></trkpt>
<trkpt lat="24.782997" lon="105.269544">
<time>2015-09-27T16:47:11Z</time></trkpt>
<trkpt lat="24.782967" lon="105.269474">
<time>2015-09-27T16:47:12Z</time></trkpt>
<trkpt lat="24.782957" lon="105.269384">
<time>2015-09-27T16:47:13Z</time></trkpt>
<trkpt lat="24.782957" lon="105.269314">
<time>2015-09-27T16:47:14Z</time></trkpt>
<trkpt lat="24.782977" lon="105.269244">
<time>2015-09-27T16:47:15Z</time></trkpt>
<trkpt lat="24.782997" lon="105.269185">
<time>2015-09-27T16:47:16Z</time></trkpt>
<trkpt lat="24.783037" lon="105.269115">
<time>2015-09-27T16:47:17Z</time></trkpt>
<trkpt lat="24.783277" lon="105.268815">
<time>2015-09-27T16:47:18Z</time></trkpt>
<trkpt lat="24.783498" lon="105.268296">
<time>2015-09-27T16:47:19Z</time></trkpt>
<trkpt lat="24.783558" lon="105.268206">
<time>2015-09-27T16:47:20Z</time></trkpt>
<trkpt lat="24.783608" lon="105.268146">
<time>2015-09-27T16:47:21Z</time></trkpt>
<trkpt lat="24.783678" lon="105.268087">
<time>2015-09-27T16:47:22Z</time></trkpt>
<trkpt lat="24.783718" lon="105.268057">
<time>2015-09-27T16:47:23Z</time></trkpt>
<trkpt lat="24.783758" lon="105.268047">
<time>2015-09-27T16:47:24Z</time></trkpt>
<trkpt lat="24.783798" lon="105.268047">
<time>2015-09-27T16:47:25Z</time></trkpt>
<trkpt lat="24.783838" lon="105.268047">
<time>2015-09-27T16:47:26Z</time></trkpt>
<trkpt lat="24.783888" lon="105.268067">
<time>2015-09-27T16:47:27Z</time></trkpt>
<trkpt lat="24.783948" lon="105.268097">
<time>2015-09-27T16:47:28Z</time></trkpt>
<trkpt lat="24.783988" lon="105.268136">
<time>2015-09-27T16:47:29Z</time></trkpt>
<trkpt lat="24.784088" lon="105.268256">
<time>2015-09-27T16:47:30Z</time></trkpt>
<trkpt lat="24.784167" lon="105.268346">
<time>2015-09-27T16:47:31Z</time></trkpt>
<trkpt lat="24.784297" lon="105.268446">
<time>2015-09-27T16:47:32Z</time></trkpt>
<trkpt lat="24.784397" lon="105.268476">
<time>2015-09-27T16:47:33Z</time></trkpt>
<trkpt lat="24.784767" lon="105.268496">
<time>2015-09-27T16:47:34Z</time></trkpt>
<trkpt lat="24.785077" lon="105.268496">
<time>2015-09-27T16:47:35Z</time></trkpt>
<trkpt lat="24.785217" lon="105.268486">
<time>2015-09-27T16:47:36Z</time></trkpt>
<trkpt lat="24.785287" lon="105.268456">
<time>2015-09-27T16:47:37Z</time></trkpt>
<trkpt lat="24.785407" lon="105.268406">
<time>2015-09-27T16:47:38Z</time></trkpt>
<trkpt lat="24.785557" lon="105.268326">
<time>2015-09-27T16:47:39Z</time></trkpt>
<trkpt lat="24.785697" lon="105.268196">
<time>2015-09-27T16:47:40Z</time></trkpt>
<trkpt lat="24.785828" lon="105.268056">
<time>2015-09-27T16:47:41Z</time></trkpt>
<trkpt lat="24.785958" lon="105.267887">
<time>2015-09-27T16:47:42Z</time></trkpt>
<trkpt lat="24.786088" lon="105.267667">
<time>2015-09-27T16:47:43Z</time></trkpt>
<trkpt lat="24.786158" lon="105.267527">
<time>2015-09-27T16:47:44Z</time></trkpt>
<trkpt lat="24.786338" lon="105.267088">
<time>2015-09-27T16:47:45Z</time></trkpt>
<trkpt lat="24.786749" lon="105.26612">
<time>2015-09-27T16:47:46Z</time></trkpt>
<trkpt lat="24.78724" lon="105.265082">
<time>2015-09-27T16:47:47Z</time></trkpt>
<trkpt lat="24.78739" lon="105.264752">
<time>2015-09-27T16:47:48Z</time></trkpt>
<trkpt lat="24.78746" lon="105.264663">
<time>2015-09-27T16:47:49Z</time></trkpt>
<trkpt lat="24.78757" lon="105.264543">
<time>2015-09-27T16:47:50Z</time></trkpt>
<trkpt lat="24.7878" lon="105.264313">
<time>2015-09-27T16:47:51Z</time></trkpt>
<trkpt lat="24.78812" lon="105.264004">
<time>2015-09-27T16:47:52Z</time></trkpt>
<trkpt lat="24.78818" lon="105.263924">
<time>2015-09-27T16:47:53Z</time></trkpt>
<trkpt lat="24.78825" lon="105.263774">
<time>2015-09-27T16:47:54Z</time></trkpt>
<trkpt lat="24.788301" lon="105.263624">
<time>2015-09-27T16:47:55Z</time></trkpt>
<trkpt lat="24.788371" lon="105.263395">
<time>2015-09-27T16:47:56Z</time></trkpt>
<trkpt lat="24.788391" lon="105.263325">
<time>2015-09-27T16:47:57Z</time></trkpt>
<trkpt lat="24.788461" lon="105.263185">
<time>2015-09-27T16:47:58Z</time></trkpt>
<trkpt lat="24.788551" lon="105.263045">
<time>2015-09-27T16:47:59Z</time></trkpt>
<trkpt lat="24.788651" lon="105.262925">
<time>2015-09-27T16:48:00Z</time></trkpt>
<trkpt lat="24.788821" lon="105.262746">
<time>2015-09-27T16:48:01Z</time></trkpt>
<trkpt lat="24.789001" lon="105.262616">
<time>2015-09-27T16:48:02Z</time></trkpt>
<trkpt lat="24.789341" lon="105.262476">
<time>2015-09-27T16:48:03Z</time></trkpt>
<trkpt lat="24.789521" lon="105.262386">
<time>2015-09-27T16:48:04Z</time></trkpt>
<trkpt lat="24.789591" lon="105.262336">
<time>2015-09-27T16:48:05Z</time></trkpt>
<trkpt lat="24.789681" lon="105.262266">
<time>2015-09-27T16:48:06Z</time></trkpt>
<trkpt lat="24.789841" lon="105.262137">
<time>2015-09-27T16:48:07Z</time></trkpt>
<trkpt lat="24.790281" lon="105.261797">
<time>2015-09-27T16:48:08Z</time></trkpt>
<trkpt lat="24.790391" lon="105.261737">
<time>2015-09-27T16:48:09Z</time></trkpt>
<trkpt lat="24.790531" lon="105.261697">
<time>2015-09-27T16:48:10Z</time></trkpt>
<trkpt lat="24.790711" lon="105.261667">
<time>2015-09-27T16:48:11Z</time></trkpt>
<trkpt lat="24.790981" lon="105.261657">
<time>2015-09-27T16:48:12Z</time></trkpt>
<trkpt lat="24.791241" lon="105.261667">
<time>2015-09-27T16:48:13Z</time></trkpt>
<trkpt lat="24.791381" lon="105.261687">
<time>2015-09-27T16:48:14Z</time></trkpt>
<trkpt lat="24.791461" lon="105.261727">
<time>2015-09-27T16:48:15Z</time></trkpt>
<trkpt lat="24.791551" lon="105.261777">
<time>2015-09-27T16:48:16Z</time></trkpt>
<trkpt lat="24.791651" lon="105.261867">
<time>2015-09-27T16:48:17Z</time></trkpt>
<trkpt lat="24.791731" lon="105.261947">
<time>2015-09-27T16:48:18Z</time></trkpt>
<trkpt lat="24.791841" lon="105.262037">
<time>2015-09-27T16:48:19Z</time></trkpt>
<trkpt lat="24.791931" lon="105.262077">
<time>2015-09-27T16:48:20Z</time></trkpt>
<trkpt lat="24.792031" lon="105.262097">
<time>2015-09-27T16:48:21Z</time></trkpt>
<trkpt lat="24.792141" lon="105.262087">
<time>2015-09-27T16:48:22Z</time></trkpt>
<trkpt lat="24.792191" lon="105.262087">
<time>2015-09-27T16:48:23Z</time></trkpt>
<trkpt lat="24.792391" lon="105.262037">
<time>2015-09-27T16:48:24Z</time></trkpt>
<trkpt lat="24.792891" lon="105.261857">
<time>2015-09-27T16:48:25Z</time></trkpt>
<trkpt lat="24.793041" lon="105.261807">
<time>2015-09-27T16:48:26Z</time></trkpt>
<trkpt lat="24.793351" lon="105.261687">
<time>2015-09-27T16:48:27Z</time></trkpt>
<trkpt lat="24.793461" lon="105.261657">
<time>2015-09-27T16:48:28Z</time></trkpt>
<trkpt lat="24.793571" lon="105.261637">
<time>2015-09-27T16:48:29Z</time></trkpt>
<trkpt lat="24.793641" lon="105.261637">
<time>2015-09-27T16:48:30Z</time></trkpt>
<trkpt lat="24.793731" lon="105.261647">
<time>2015-09-27T16:48:31Z</time></trkpt>
<trkpt lat="24.793861" lon="105.261687">
<time>2015-09-27T16:48:32Z</time></trkpt>
<trkpt lat="24.793961" lon="105.261727">
<time>2015-09-27T16:48:33Z</time></trkpt>
<trkpt lat="24.794071" lon="105.261797">
<time>2015-09-27T16:48:34Z</time></trkpt>
<trkpt lat="24.794271" lon="105.261967">
<time>2015-09-27T16:48:35Z</time></trkpt>
<trkpt lat="24.794431" lon="105.262117">
<time>2015-09-27T16:48:36Z</time></trkpt>
<trkpt lat="24.794541" lon="105.262206">
<time>2015-09-27T16:48:37Z</time></trkpt>
<trkpt lat="24.794641" lon="105.262256">
<time>2015-09-27T16:48:38Z</time></trkpt>
<trkpt lat="24.794741" lon="105.262276">
<time>2015-09-27T16:48:39Z</time></trkpt>
<trkpt lat="24.794931" lon="105.262266">
<time>2015-09-27T16:48:40Z</time></trkpt>
<trkpt lat="24.795271" lon="105.262196">
<time>2015-09-27T16:48:41Z</time></trkpt>
<trkpt lat="24.795451" lon="105.262116">
<time>2015-09-27T16:48:42Z</time></trkpt>
<trkpt lat="24.795551" lon="105.262037">
<time>2015-09-27T16:48:43Z</time></trkpt>
<trkpt lat="24.795641" lon="105.261927">
<time>2015-09-27T16:48:44Z</time></trkpt>
<trkpt lat="24.795751" lon="105.261767">
<time>2015-09-27T16:48:45Z</time></trkpt>
<trkpt lat="24.795851" lon="105.261667">
<time>2015-09-27T16:48:46Z</time></trkpt>
<trkpt lat="24.795991" lon="105.261577">
<time>2015-09-27T16:48:47Z</time></trkpt>
<trkpt lat="24.796171" lon="105.261527">
<time>2015-09-27T16:48:48Z</time></trkpt>
<trkpt lat="24.796331" lon="105.261507">
<time>2015-09-27T16:48:49Z</time></trkpt>
<trkpt lat="24.796441" lon="105.261457">
<time>2015-09-27T16:48:50Z</time></trkpt>
<trkpt lat="24.796521" lon="105.261368">
<time>2015-09-27T16:48:51Z</time></trkpt>
<trkpt lat="24.796611" lon="105.261238">
<time>2015-09-27T16:48:52Z</time></trkpt>
<trkpt lat="24.796681" lon="105.261078">
<time>2015-09-27T16:48:53Z</time></trkpt>
<trkpt lat="24.796771" lon="105.260938">
<time>2015-09-27T16:48:54Z</time></trkpt>
<trkpt lat="24.796841" lon="105.260858">
<time>2015-09-27T16:48:55Z</time></trkpt>
<trkpt lat="24.796941" lon="105.260779">
<time>2015-09-27T16:48:56Z</time></trkpt>
<trkpt lat="24.797031" lon="105.260719">
<time>2015-09-27T16:48:57Z</time></trkpt>
<trkpt lat="24.797161" lon="105.260679">
<time>2015-09-27T16:48:58Z</time></trkpt>
<trkpt lat="24.797271" lon="105.260669">
<time>2015-09-27T16:48:59Z</time></trkpt>
<trkpt lat="24.797371" lon="105.260679">
<time>2015-09-27T16:49:00Z</time></trkpt>
<trkpt lat="24.797521" lon="105.260709">
<time>2015-09-27T16:49:01Z</time></trkpt>
<trkpt lat="24.797691" lon="105.260779">
<time>2015-09-27T16:49:02Z</time></trkpt>
<trkpt lat="24.797871" lon="105.260838">
<time>2015-09-27T16:49:03Z</time></trkpt>
<trkpt lat="24.797971" lon="105.260868">
<time>2015-09-27T16:49:04Z</time></trkpt>
<trkpt lat="24.798061" lon="105.260868">
<time>2015-09-27T16:49:05Z</time></trkpt>
<trkpt lat="24.798171" lon="105.260858">
<time>2015-09-27T16:49:06Z</time></trkpt>
<trkpt lat="24.798271" lon="105.260828">
<time>2015-09-27T16:49:07Z</time></trkpt>
<trkpt lat="24.798481" lon="105.260729">
<time>2015-09-27T16:49:08Z</time></trkpt>
<trkpt lat="24.798641" lon="105.260679">
<time>2015-09-27T16:49:09Z</time></trkpt>
<trkpt lat="24.798751" lon="105.260659">
<time>2015-09-27T16:49:10Z</time></trkpt>
<trkpt lat="24.798831" lon="105.260649">
<time>2015-09-27T16:49:11Z</time></trkpt>
<trkpt lat="24.798951" lon="105.260669">
<time>2015-09-27T16:49:12Z</time></trkpt>
<trkpt lat="24.799071" lon="105.260709">
<time>2015-09-27T16:49:13Z</time></trkpt>
<trkpt lat="24.799161" lon="105.260758">
<time>2015-09-27T16:49:14Z</time></trkpt>
<trkpt lat="24.799261" lon="105.260818">
<time>2015-09-27T16:49:15Z</time></trkpt>
<trkpt lat="24.799461" lon="105.260958">
<time>2015-09-27T16:49:16Z</time></trkpt>
<trkpt lat="24.799611" lon="105.261048">
<time>2015-09-27T16:49:17Z</time></trkpt>
<trkpt lat="24.799741" lon="105.261098">
<time>2015-09-27T16:49:18Z</time></trkpt>
<trkpt lat="24.799871" lon="105.261128">
<time>2015-09-27T16:49:19Z</time></trkpt>
<trkpt lat="24.799981" lon="105.261148">
<time>2015-09-27T16:49:20Z</time></trkpt>
<trkpt lat="24.800141" lon="105.261148">
<time>2015-09-27T16:49:21Z</time></trkpt>
<trkpt lat="24.800341" lon="105.261138">
<time>2015-09-27T16:49:22Z</time></trkpt>
<trkpt lat="24.800611" lon="105.261138">
<time>2015-09-27T16:49:23Z</time></trkpt>
<trkpt lat="24.800791" lon="105.261158">
<time>2015-09-27T16:49:24Z</time></trkpt>
<trkpt lat="24.801041" lon="105.261198">
<time>2015-09-27T16:49:25Z</time></trkpt>
<trkpt lat="24.801231" lon="105.261258">
<time>2015-09-27T16:49:26Z</time></trkpt>
<trkpt lat="24.801431" lon="105.261317">
<time>2015-09-27T16:49:27Z</time></trkpt>
<trkpt lat="24.801521" lon="105.261337">
<time>2015-09-27T16:49:28Z</time></trkpt>
<trkpt lat="24.801591" lon="105.261347">
<time>2015-09-27T16:49:29Z</time></trkpt>
<trkpt lat="24.801641" lon="105.261347">
<time>2015-09-27T16:49:30Z</time></trkpt>
<trkpt lat="24.801701" lon="105.261347">
<time>2015-09-27T16:49:31Z</time></trkpt>
<trkpt lat="24.801761" lon="105.261337">
<time>2015-09-27T16:49:32Z</time></trkpt>
<trkpt lat="24.801811" lon="105.261317">
<time>2015-09-27T16:49:33Z</time></trkpt>
<trkpt lat="24.801861" lon="105.261298">
<time>2015-09-27T16:49:34Z</time></trkpt>
<trkpt lat="24.801911" lon="105.261258">
<time>2015-09-27T16:49:35Z</time></trkpt>
<trkpt lat="24.801971" lon="105.261218">
<time>2015-09-27T16:49:36Z</time></trkpt>
<trkpt lat="24.802131" lon="105.261048">
<time>2015-09-27T16:49:37Z</time></trkpt>
<trkpt lat="24.802281" lon="105.260928">
<time>2015-09-27T16:49:38Z</time></trkpt>
<trkpt lat="24.802401" lon="105.260848">
<time>2015-09-27T16:49:39Z</time></trkpt>
<trkpt lat="24.802571" lon="105.260778">
<time>2015-09-27T16:49:40Z</time></trkpt>
<trkpt lat="24.802731" lon="105.260748">
<time>2015-09-27T16:49:41Z</time></trkpt>
<trkpt lat="24.802881" lon="105.260758">
<time>2015-09-27T16:49:42Z</time></trkpt>
<trkpt lat="24.803091" lon="105.260788">
<time>2015-09-27T16:49:43Z</time></trkpt>
<trkpt lat="24.803461" lon="105.260868">
<time>2015-09-27T16:49:44Z</time></trkpt>
<trkpt lat="24.803631" lon="105.260888">
<time>2015-09-27T16:49:45Z</time></trkpt>
<trkpt lat="24.803721" lon="105.260898">
<time>2015-09-27T16:49:46Z</time></trkpt>
<trkpt lat="24.803821" lon="105.260898">
<time>2015-09-27T16:49:47Z</time></trkpt>
<trkpt lat="24.803931" lon="105.260878">
<time>2015-09-27T16:49:48Z</time></trkpt>
<trkpt lat="24.804041" lon="105.260848">
<time>2015-09-27T16:49:49Z</time></trkpt>
<trkpt lat="24.804131" lon="105.260808">
<time>2015-09-27T16:49:50Z</time></trkpt>
<trkpt lat="24.804201" lon="105.260778">
<time>2015-09-27T16:49:51Z</time></trkpt>
<trkpt lat="24.804261" lon="105.260738">
<time>2015-09-27T16:49:52Z</time></trkpt>
<trkpt lat="24.804301" lon="105.260698">
<time>2015-09-27T16:49:53Z</time></trkpt>
<trkpt lat="24.804371" lon="105.260628">
<time>2015-09-27T16:49:54Z</time></trkpt>
<trkpt lat="24.804601" lon="105.260389">
<time>2015-09-27T16:49:55Z</time></trkpt>
<trkpt lat="24.805261" lon="105.25982">
<time>2015-09-27T16:49:56Z</time></trkpt>
<trkpt lat="24.805791" lon="105.25935">
<time>2015-09-27T16:49:57Z</time></trkpt>
<trkpt lat="24.805891" lon="105.259261">
<time>2015-09-27T16:49:58Z</time></trkpt>
<trkpt lat="24.805961" lon="105.259221">
<time>2015-09-27T16:49:59Z</time></trkpt>
<trkpt lat="24.806021" lon="105.259181">
<time>2015-09-27T16:50:00Z</time></trkpt>
<trkpt lat="24.806081" lon="105.259151">
<time>2015-09-27T16:50:01Z</time></trkpt>
<trkpt lat="24.806151" lon="105.259121">
<time>2015-09-27T16:50:02Z</time></trkpt>
<trkpt lat="24.806271" lon="105.259101">
<time>2015-09-27T16:50:03Z</time></trkpt>
<trkpt lat="24.806401" lon="105.259081">
<time>2015-09-27T16:50:04Z</time></trkpt>
<trkpt lat="24.806481" lon="105.259061">
<time>2015-09-27T16:50:05Z</time></trkpt>
<trkpt lat="24.806561" lon="105.259041">
<time>2015-09-27T16:50:06Z</time></trkpt>
<trkpt lat="24.806641" lon="105.259001">
<time>2015-09-27T16:50:07Z</time></trkpt>
<trkpt lat="24.806691" lon="105.258971">
<time>2015-09-27T16:50:08Z</time></trkpt>
<trkpt lat="24.806761" lon="105.258921">
<time>2015-09-27T16:50:09Z</time></trkpt>
<trkpt lat="24.806811" lon="105.258881">
<time>2015-09-27T16:50:10Z</time></trkpt>
<trkpt lat="24.806851" lon="105.258851">
<time>2015-09-27T16:50:11Z</time></trkpt>
<trkpt lat="24.806932" lon="105.258781">
<time>2015-09-27T16:50:12Z</time></trkpt>
<trkpt lat="24.807022" lon="105.258671">
<time>2015-09-27T16:50:13Z</time></trkpt>
<trkpt lat="24.807132" lon="105.258542">
<time>2015-09-27T16:50:14Z</time></trkpt>
<trkpt lat="24.807172" lon="105.258472">
<time>2015-09-27T16:50:15Z</time></trkpt>
<trkpt lat="24.807222" lon="105.258382">
<time>2015-09-27T16:50:16Z</time></trkpt>
<trkpt lat="24.807272" lon="105.258272">
<time>2015-09-27T16:50:17Z</time></trkpt>
<trkpt lat="24.807322" lon="105.258142">
<time>2015-09-27T16:50:18Z</time></trkpt>
<trkpt lat="24.807492" lon="105.257513">
<time>2015-09-27T16:50:19Z</time></trkpt>
<trkpt lat="24.807532" lon="105.257403">
<time>2015-09-27T16:50:20Z</time></trkpt>
<trkpt lat="24.807572" lon="105.257343">
<time>2015-09-27T16:50:21Z</time></trkpt>
<trkpt lat="24.807622" lon="105.257253">
<time>2015-09-27T16:50:22Z</time></trkpt>
<trkpt lat="24.807682" lon="105.257184">
<time>2015-09-27T16:50:23Z</time></trkpt>
<trkpt lat="24.807762" lon="105.257124">
<time>2015-09-27T16:50:24Z</time></trkpt>
<trkpt lat="24.807872" lon="105.257044">
<time>2015-09-27T16:50:25Z</time></trkpt>
<trkpt lat="24.808052" lon="105.256944">
<time>2015-09-27T16:50:26Z</time></trkpt>
<trkpt lat="24.808312" lon="105.256824">
<time>2015-09-27T16:50:27Z</time></trkpt>
<trkpt lat="24.808392" lon="105.256794">
<time>2015-09-27T16:50:28Z</time></trkpt>
<trkpt lat="24.808472" lon="105.256764">
<time>2015-09-27T16:50:29Z</time></trkpt>
<trkpt lat="24.808562" lon="105.256764">
<time>2015-09-27T16:50:30Z</time></trkpt>
<trkpt lat="24.808652" lon="105.256774">
<time>2015-09-27T16:50:31Z</time></trkpt>
<trkpt lat="24.808762" lon="105.256794">
<time>2015-09-27T16:50:32Z</time></trkpt>
<trkpt lat="24.808972" lon="105.256894">
<time>2015-09-27T16:50:33Z</time></trkpt>
<trkpt lat="24.809122" lon="105.256944">
<time>2015-09-27T16:50:34Z</time></trkpt>
<trkpt lat="24.809182" lon="105.256954">
<time>2015-09-27T16:50:35Z</time></trkpt>
<trkpt lat="24.809242" lon="105.256964">
<time>2015-09-27T16:50:36Z</time></trkpt>
<trkpt lat="24.809332" lon="105.256964">
<time>2015-09-27T16:50:37Z</time></trkpt>
<trkpt lat="24.809422" lon="105.256954">
<time>2015-09-27T16:50:38Z</time></trkpt>
<trkpt lat="24.809472" lon="105.256944">
<time>2015-09-27T16:50:39Z</time></trkpt>
<trkpt lat="24.809572" lon="105.256924">
<time>2015-09-27T16:50:40Z</time></trkpt>
<trkpt lat="24.809692" lon="105.256874">
<time>2015-09-27T16:50:41Z</time></trkpt>
<trkpt lat="24.809822" lon="105.256794">
<time>2015-09-27T16:50:42Z</time></trkpt>
<trkpt lat="24.810062" lon="105.256624">
<time>2015-09-27T16:50:43Z</time></trkpt>
<trkpt lat="24.810222" lon="105.256494">
<time>2015-09-27T16:50:44Z</time></trkpt>
<trkpt lat="24.810322" lon="105.256414">
<time>2015-09-27T16:50:45Z</time></trkpt>
<trkpt lat="24.810442" lon="105.256305">
<time>2015-09-27T16:50:46Z</time></trkpt>
<trkpt lat="24.810502" lon="105.256225">
<time>2015-09-27T16:50:47Z</time></trkpt>
<trkpt lat="24.810562" lon="105.256135">
<time>2015-09-27T16:50:48Z</time></trkpt>
<trkpt lat="24.810612" lon="105.256055">
<time>2015-09-27T16:50:49Z</time></trkpt>
<trkpt lat="24.810662" lon="105.255955">
<time>2015-09-27T16:50:50Z</time></trkpt>
<trkpt lat="24.810702" lon="105.255865">
<time>2015-09-27T16:50:51Z</time></trkpt>
<trkpt lat="24.810752" lon="105.255765">
<time>2015-09-27T16:50:52Z</time></trkpt>
<trkpt lat="24.810782" lon="105.255676">
<time>2015-09-27T16:50:53Z</time></trkpt>
<trkpt lat="24.810812" lon="105.255586">
<time>2015-09-27T16:50:54Z</time></trkpt>
<trkpt lat="24.810832" lon="105.255516">
<time>2015-09-27T16:50:55Z</time></trkpt>
<trkpt lat="24.810852" lon="105.255386">
<time>2015-09-27T16:50:56Z</time></trkpt>
<trkpt lat="24.810883" lon="105.255256">
<time>2015-09-27T16:50:57Z</time></trkpt>
<trkpt lat="24.810903" lon="105.255176">
<time>2015-09-27T16:50:58Z</time></trkpt>
<trkpt lat="24.810923" lon="105.255106">
<time>2015-09-27T16:50:59Z</time></trkpt>
<trkpt lat="24.810943" lon="105.255036">
<time>2015-09-27T16:51:00Z</time></trkpt>
<trkpt lat="24.810983" lon="105.254956">
<time>2015-09-27T16:51:01Z</time></trkpt>
<trkpt lat="24.811063" lon="105.254837">
<time>2015-09-27T16:51:02Z</time></trkpt>
<trkpt lat="24.811103" lon="105.254777">
<time>2015-09-27T16:51:03Z</time></trkpt>
<trkpt lat="24.811283" lon="105.254567">
<time>2015-09-27T16:51:04Z</time></trkpt>
<trkpt lat="24.811343" lon="105.254467">
<time>2015-09-27T16:51:05Z</time></trkpt>
<trkpt lat="24.811383" lon="105.254387">
<time>2015-09-27T16:51:06Z</time></trkpt>
<trkpt lat="24.811413" lon="105.254277">
<time>2015-09-27T16:51:07Z</time></trkpt>
<trkpt lat="24.811433" lon="105.254158">
<time>2015-09-27T16:51:08Z</time></trkpt>
<trkpt lat="24.811483" lon="105.253678">
<time>2015-09-27T16:51:09Z</time></trkpt>
<trkpt lat="24.811503" lon="105.253588">
<time>2015-09-27T16:51:10Z</time></trkpt>
<trkpt lat="24.811523" lon="105.253518">
<time>2015-09-27T16:51:11Z</time></trkpt>
<trkpt lat="24.811553" lon="105.253448">
<time>2015-09-27T16:51:12Z</time></trkpt>
<trkpt lat="24.811583" lon="105.253369">
<time>2015-09-27T16:51:13Z</time></trkpt>
<trkpt lat="24.811633" lon="105.253309">
<time>2015-09-27T16:51:14Z</time></trkpt>
<trkpt lat="24.811703" lon="105.253239">
<time>2015-09-27T16:51:15Z</time></trkpt>
<trkpt lat="24.811763" lon="105.253189">
<time>2015-09-27T16:51:16Z</time></trkpt>
<trkpt lat="24.811823" lon="105.253149">
<time>2015-09-27T16:51:17Z</time></trkpt>
<trkpt lat="24.811873" lon="105.253119">
<time>2015-09-27T16:51:18Z</time></trkpt>
<trkpt lat="24.811963" lon="105.253089">
<time>2015-09-27T16:51:19Z</time></trkpt>
<trkpt lat="24.812193" lon="105.253059">
<time>2015-09-27T16:51:20Z</time></trkpt>
<trkpt lat="24.812303" lon="105.253039">
<time>2015-09-27T16:51:21Z</time></trkpt>
<trkpt lat="24.812413" lon="105.253009">
<time>2015-09-27T16:51:22Z</time></trkpt>
<trkpt lat="24.812493" lon="105.252979">
<time>2015-09-27T16:51:23Z</time></trkpt>
<trkpt lat="24.812603" lon="105.252939">
<time>2015-09-27T16:51:24Z</time></trkpt>
<trkpt lat="24.812693" lon="105.252899">
<time>2015-09-27T16:51:25Z</time></trkpt>
<trkpt lat="24.812773" lon="105.252859">
<time>2015-09-27T16:51:26Z</time></trkpt>
<trkpt lat="24.812873" lon="105.252789">
<time>2015-09-27T16:51:27Z</time></trkpt>
<trkpt lat="24.812953" lon="105.252719">
<time>2015-09-27T16:51:28Z</time></trkpt>
<trkpt lat="24.813013" lon="105.252659">
<time>2015-09-27T16:51:29Z</time></trkpt>
<trkpt lat="24.813053" lon="105.252619">
<time>2015-09-27T16:51:30Z</time></trkpt>
<trkpt lat="24.813113" lon="105.25253">
<time>2015-09-27T16:51:31Z</time></trkpt>
<trkpt lat="24.813243" lon="105.2523">
<time>2015-09-27T16:51:32Z</time></trkpt>
<trkpt lat="24.813293" lon="105.25224">
<time>2015-09-27T16:51:33Z</time></trkpt>
<trkpt lat="24.813343" lon="105.25218">
<time>2015-09-27T16:51:34Z</time></trkpt>
<trkpt lat="24.813393" lon="105.25214">
<time>2015-09-27T16:51:35Z</time></trkpt>
<trkpt lat="24.813463" lon="105.25212">
<time>2015-09-27T16:51:36Z</time></trkpt>
<trkpt lat="24.813523" lon="105.2521">
<time>2015-09-27T16:51:37Z</time></trkpt>
<trkpt lat="24.813593" lon="105.25209">
<time>2015-09-27T16:51:38Z</time></trkpt>
<trkpt lat="24.813693" lon="105.2521">
<time>2015-09-27T16:51:39Z</time></trkpt>
<trkpt lat="24.813893" lon="105.25209">
<time>2015-09-27T16:51:40Z</time></trkpt>
<trkpt lat="24.813983" lon="105.25208">
<time>2015-09-27T16:51:41Z</time></trkpt>
<trkpt lat="24.814063" lon="105.25206">
<time>2015-09-27T16:51:42Z</time></trkpt>
<trkpt lat="24.814183" lon="105.25201">
<time>2015-09-27T16:51:43Z</time></trkpt>
<trkpt lat="24.814283" lon="105.25196">
<time>2015-09-27T16:51:44Z</time></trkpt>
<trkpt lat="24.814393" lon="105.25189">
<time>2015-09-27T16:51:45Z</time></trkpt>
<trkpt lat="24.814633" lon="105.25172">
<time>2015-09-27T16:51:46Z</time></trkpt>
<trkpt lat="24.814833" lon="105.251581">
<time>2015-09-27T16:51:47Z</time></trkpt>
<trkpt lat="24.814913" lon="105.251531">
<time>2015-09-27T16:51:48Z</time></trkpt>
<trkpt lat="24.814983" lon="105.251491">
<time>2015-09-27T16:51:49Z</time></trkpt>
<trkpt lat="24.815063" lon="105.251471">
<time>2015-09-27T16:51:50Z</time></trkpt>
<trkpt lat="24.815153" lon="105.251451">
<time>2015-09-27T16:51:51Z</time></trkpt>
<trkpt lat="24.815273" lon="105.251451">
<time>2015-09-27T16:51:52Z</time></trkpt>
<trkpt lat="24.815643" lon="105.251451">
<time>2015-09-27T16:51:53Z</time></trkpt>
<trkpt lat="24.816143" lon="105.251451">
<time>2015-09-27T16:51:54Z</time></trkpt>
<trkpt lat="24.816343" lon="105.251441">
<time>2015-09-27T16:51:55Z</time></trkpt>
<trkpt lat="24.816653" lon="105.251441">
<time>2015-09-27T16:51:56Z</time></trkpt>
<trkpt lat="24.816733" lon="105.251451">
<time>2015-09-27T16:51:57Z</time></trkpt>
<trkpt lat="24.816793" lon="105.251471">
<time>2015-09-27T16:51:58Z</time></trkpt>
<trkpt lat="24.816923" lon="105.251491">
<time>2015-09-27T16:51:59Z</time></trkpt>
<trkpt lat="24.817033" lon="105.251521">
<time>2015-09-27T16:52:00Z</time></trkpt>
<trkpt lat="24.817073" lon="105.251541">
<time>2015-09-27T16:52:01Z</time></trkpt>
<trkpt lat="24.817243" lon="105.251601">
<time>2015-09-27T16:52:02Z</time></trkpt>
<trkpt lat="24.817433" lon="105.25168">
<time>2015-09-27T16:52:03Z</time></trkpt>
<trkpt lat="24.817663" lon="105.25178">
<time>2015-09-27T16:52:04Z</time></trkpt>
<trkpt lat="24.817833" lon="105.25186">
<time>2015-09-27T16:52:05Z</time></trkpt>
<trkpt lat="24.817893" lon="105.25188">
<time>2015-09-27T16:52:06Z</time></trkpt>
<trkpt lat="24.817933" lon="105.25189">
<time>2015-09-27T16:52:07Z</time></trkpt>
<trkpt lat="24.818013" lon="105.25191">
<time>2015-09-27T16:52:08Z</time></trkpt>
<trkpt lat="24.818053" lon="105.25192">
<time>2015-09-27T16:52:09Z</time></trkpt>
<trkpt lat="24.818103" lon="105.25193">
<time>2015-09-27T16:52:10Z</time></trkpt>
<trkpt lat="24.818183" lon="105.25194">
<time>2015-09-27T16:52:11Z</time></trkpt>
<trkpt lat="24.818233" lon="105.25194">
<time>2015-09-27T16:52:12Z</time></trkpt>
<trkpt lat="24.818303" lon="105.25193">
<time>2015-09-27T16:52:13Z</time></trkpt>
<trkpt lat="24.818353" lon="105.25192">
<time>2015-09-27T16:52:14Z</time></trkpt>
<trkpt lat="24.818433" lon="105.2519">
<time>2015-09-27T16:52:15Z</time></trkpt>
<trkpt lat="24.818503" lon="105.25188">
<time>2015-09-27T16:52:16Z</time></trkpt>
<trkpt lat="24.818573" lon="105.25185">
<time>2015-09-27T16:52:17Z</time></trkpt>
<trkpt lat="24.818663" lon="105.2518">
<time>2015-09-27T16:52:18Z</time></trkpt>
<trkpt lat="24.818853" lon="105.25171">
<time>2015-09-27T16:52:19Z</time></trkpt>
<trkpt lat="24.818983" lon="105.25164">
<time>2015-09-27T16:52:20Z</time></trkpt>
<trkpt lat="24.819073" lon="105.25158">
<time>2015-09-27T16:52:21Z</time></trkpt>
<trkpt lat="24.819133" lon="105.251531">
<time>2015-09-27T16:52:22Z</time></trkpt>
<trkpt lat="24.819193" lon="105.251471">
<time>2015-09-27T16:52:23Z</time></trkpt>
<trkpt lat="24.819233" lon="105.251411">
<time>2015-09-27T16:52:24Z</time></trkpt>
<trkpt lat="24.819263" lon="105.251361">
<time>2015-09-27T16:52:25Z</time></trkpt>
<trkpt lat="24.819283" lon="105.251281">
<time>2015-09-27T16:52:26Z</time></trkpt>
<trkpt lat="24.819303" lon="105.251171">
<time>2015-09-27T16:52:27Z</time></trkpt>
<trkpt lat="24.819373" lon="105.250422">
<time>2015-09-27T16:52:28Z</time></trkpt>
<trkpt lat="24.819403" lon="105.250012">
<time>2015-09-27T16:52:29Z</time></trkpt>
<trkpt lat="24.819423" lon="105.249832">
<time>2015-09-27T16:52:30Z</time></trkpt>
<trkpt lat="24.819433" lon="105.249763">
<time>2015-09-27T16:52:31Z</time></trkpt>
<trkpt lat="24.819453" lon="105.249693">
<time>2015-09-27T16:52:32Z</time></trkpt>
<trkpt lat="24.819473" lon="105.249623">
<time>2015-09-27T16:52:33Z</time></trkpt>
<trkpt lat="24.819493" lon="105.249553">
<time>2015-09-27T16:52:34Z</time></trkpt>
<trkpt lat="24.819523" lon="105.249503">
<time>2015-09-27T16:52:35Z</time></trkpt>
<trkpt lat="24.819553" lon="105.249443">
<time>2015-09-27T16:52:36Z</time></trkpt>
<trkpt lat="24.819583" lon="105.249393">
<time>2015-09-27T16:52:37Z</time></trkpt>
<trkpt lat="24.819633" lon="105.249333">
<time>2015-09-27T16:52:38Z</time></trkpt>
<trkpt lat="24.819683" lon="105.249273">
<time>2015-09-27T16:52:39Z</time></trkpt>
<trkpt lat="24.819763" lon="105.249203">
<time>2015-09-27T16:52:40Z</time></trkpt>
<trkpt lat="24.819973" lon="105.249033">
<time>2015-09-27T16:52:41Z</time></trkpt>
<trkpt lat="24.820213" lon="105.248834">
<time>2015-09-27T16:52:42Z</time></trkpt>
<trkpt lat="24.820323" lon="105.248764">
<time>2015-09-27T16:52:43Z</time></trkpt>
<trkpt lat="24.820403" lon="105.248724">
<time>2015-09-27T16:52:44Z</time></trkpt>
<trkpt lat="24.820473" lon="105.248694">
<time>2015-09-27T16:52:45Z</time></trkpt>
<trkpt lat="24.820523" lon="105.248684">
<time>2015-09-27T16:52:46Z</time></trkpt>
<trkpt lat="24.820573" lon="105.248684">
<time>2015-09-27T16:52:47Z</time></trkpt>
<trkpt lat="24.820613" lon="105.248684">
<time>2015-09-27T16:52:48Z</time></trkpt>
<trkpt lat="24.820683" lon="105.248694">
<time>2015-09-27T16:52:49Z</time></trkpt>
<trkpt lat="24.820733" lon="105.248714">
<time>2015-09-27T16:52:50Z</time></trkpt>
<trkpt lat="24.820793" lon="105.248744">
<time>2015-09-27T16:52:51Z</time></trkpt>
<trkpt lat="24.820933" lon="105.248794">
<time>2015-09-27T16:52:52Z</time></trkpt>
<trkpt lat="24.821523" lon="105.249083">
<time>2015-09-27T16:52:53Z</time></trkpt>
<trkpt lat="24.822173" lon="105.249373">
<time>2015-09-27T16:52:54Z</time></trkpt>
<trkpt lat="24.822393" lon="105.249483">
<time>2015-09-27T16:52:55Z</time></trkpt>
<trkpt lat="24.822513" lon="105.249533">
<time>2015-09-27T16:52:56Z</time></trkpt>
<trkpt lat="24.822603" lon="105.249563">
<time>2015-09-27T16:52:57Z</time></trkpt>
<trkpt lat="24.822683" lon="105.249583">
<time>2015-09-27T16:52:58Z</time></trkpt>
<trkpt lat="24.822763" lon="105.249593">
<time>2015-09-27T16:52:59Z</time></trkpt>
<trkpt lat="24.822813" lon="105.249603">
<time>2015-09-27T16:53:00Z</time></trkpt>
<trkpt lat="24.822893" lon="105.249603">
<time>2015-09-27T16:53:01Z</time></trkpt>
<trkpt lat="24.822993" lon="105.249593">
<time>2015-09-27T16:53:02Z</time></trkpt>
<trkpt lat="24.823413" lon="105.249543">
<time>2015-09-27T16:53:03Z</time></trkpt>
<trkpt lat="24.823653" lon="105.249513">
<time>2015-09-27T16:53:04Z</time></trkpt>
<trkpt lat="24.823763" lon="105.249503">
<time>2015-09-27T16:53:05Z</time></trkpt>
<trkpt lat="24.823823" lon="105.249503">
<time>2015-09-27T16:53:06Z</time></trkpt>
<trkpt lat="24.823882" lon="105.249513">
<time>2015-09-27T16:53:07Z</time></trkpt>
<trkpt lat="24.823942" lon="105.249523">
<time>2015-09-27T16:53:08Z</time></trkpt>
<trkpt lat="24.823992" lon="105.249543">
<time>2015-09-27T16:53:09Z</time></trkpt>
<trkpt lat="24.824062" lon="105.249573">
<time>2015-09-27T16:53:10Z</time></trkpt>
<trkpt lat="24.824162" lon="105.249643">
<time>2015-09-27T16:53:11Z</time></trkpt>
<trkpt lat="24.824392" lon="105.249812">
<time>2015-09-27T16:53:12Z</time></trkpt>
<trkpt lat="24.824472" lon="105.249862">
<time>2015-09-27T16:53:13Z</time></trkpt>
<trkpt lat="24.824542" lon="105.249882">
<time>2015-09-27T16:53:14Z</time></trkpt>
<trkpt lat="24.824602" lon="105.249892">
<time>2015-09-27T16:53:15Z</time></trkpt>
<trkpt lat="24.824672" lon="105.249902">
<time>2015-09-27T16:53:16Z</time></trkpt>
<trkpt lat="24.824732" lon="105.249902">
<time>2015-09-27T16:53:17Z</time></trkpt>
<trkpt lat="24.824792" lon="105.249882">
<time>2015-09-27T16:53:18Z</time></trkpt>
<trkpt lat="24.824902" lon="105.249842">
<time>2015-09-27T16:53:19Z</time></trkpt>
<trkpt lat="24.825352" lon="105.249662">
<time>2015-09-27T16:53:20Z</time></trkpt>
<trkpt lat="24.825552" lon="105.249573">
<time>2015-09-27T16:53:21Z</time></trkpt>
<trkpt lat="24.825892" lon="105.249403">
<time>2015-09-27T16:53:22Z</time></trkpt>
<trkpt lat="24.826062" lon="105.249323">
<time>2015-09-27T16:53:23Z</time></trkpt>
<trkpt lat="24.826212" lon="105.249223">
<time>2015-09-27T16:53:24Z</time></trkpt>
<trkpt lat="24.826362" lon="105.249093">
<time>2015-09-27T16:53:25Z</time></trkpt>
<trkpt lat="24.826762" lon="105.248703">
<time>2015-09-27T16:53:26Z</time></trkpt>
<trkpt lat="24.826882" lon="105.248564">
<time>2015-09-27T16:53:27Z</time></trkpt>
<trkpt lat="24.826942" lon="105.248484">
<time>2015-09-27T16:53:28Z</time></trkpt>
<trkpt lat="24.826992" lon="105.248384">
<time>2015-09-27T16:53:29Z</time></trkpt>
<trkpt lat="24.827022" lon="105.248284">
<time>2015-09-27T16:53:30Z</time></trkpt>
<trkpt lat="24.827032" lon="105.248204">
<time>2015-09-27T16:53:31Z</time></trkpt>
<trkpt lat="24.827032" lon="105.248094">
<time>2015-09-27T16:53:32Z</time></trkpt>
<trkpt lat="24.827022" lon="105.248014">
<time>2015-09-27T16:53:33Z</time></trkpt>
<trkpt lat="24.827002" lon="105.247934">
<time>2015-09-27T16:53:34Z</time></trkpt>
<trkpt lat="24.826962" lon="105.247834">
<time>2015-09-27T16:53:35Z</time></trkpt>
<trkpt lat="24.826812" lon="105.247535">
<time>2015-09-27T16:53:36Z</time></trkpt>
<trkpt lat="24.826742" lon="105.247375">
<time>2015-09-27T16:53:37Z</time></trkpt>
<trkpt lat="24.826702" lon="105.247275">
<time>2015-09-27T16:53:38Z</time></trkpt>
<trkpt lat="24.826692" lon="105.247165">
<time>2015-09-27T16:53:39Z</time></trkpt>
<trkpt lat="24.826692" lon="105.247055">
<time>2015-09-27T16:53:40Z</time></trkpt>
<trkpt lat="24.826722" lon="105.246955">
<time>2015-09-27T16:53:41Z</time></trkpt>
<trkpt lat="24.826752" lon="105.246875">
<time>2015-09-27T16:53:42Z</time></trkpt>
<trkpt lat="24.826812" lon="105.246795">
<time>2015-09-27T16:53:43Z</time></trkpt>
<trkpt lat="24.826862" lon="105.246746">
<time>2015-09-27T16:53:44Z</time></trkpt>
<trkpt lat="24.826932" lon="105.246706">
<time>2015-09-27T16:53:45Z</time></trkpt>
<trkpt lat="24.827002" lon="105.246676">
<time>2015-09-27T16:53:46Z</time></trkpt>
<trkpt lat="24.827072" lon="105.246666">
<time>2015-09-27T16:53:47Z</time></trkpt>
<trkpt lat="24.827132" lon="105.246656">
<time>2015-09-27T16:53:48Z</time></trkpt>
<trkpt lat="24.827282" lon="105.246666">
<time>2015-09-27T16:53:49Z</time></trkpt>
<trkpt lat="24.827522" lon="105.246656">
<time>2015-09-27T16:53:50Z</time></trkpt>
<trkpt lat="24.827642" lon="105.246646">
<time>2015-09-27T16:53:51Z</time></trkpt>
<trkpt lat="24.827732" lon="105.246626">
<time>2015-09-27T16:53:52Z</time></trkpt>
<trkpt lat="24.827812" lon="105.246586">
<time>2015-09-27T16:53:53Z</time></trkpt>
<trkpt lat="24.827892" lon="105.246546">
<time>2015-09-27T16:53:54Z</time></trkpt>
<trkpt lat="24.827972" lon="105.246486">
<time>2015-09-27T16:53:55Z</time></trkpt>
<trkpt lat="24.828142" lon="105.246316">
<time>2015-09-27T16:53:56Z</time></trkpt>
<trkpt lat="24.828382" lon="105.246086">
<time>2015-09-27T16:53:57Z</time></trkpt>
<trkpt lat="24.828582" lon="105.245886">
<time>2015-09-27T16:53:58Z</time></trkpt>
<trkpt lat="24.828722" lon="105.245726">
<time>2015-09-27T16:53:59Z</time></trkpt>
<trkpt lat="24.828832" lon="105.245567">
<time>2015-09-27T16:54:00Z</time></trkpt>
<trkpt lat="24.828912" lon="105.245417">
<time>2015-09-27T16:54:01Z</time></trkpt>
<trkpt lat="24.829092" lon="105.245057">
<time>2015-09-27T16:54:02Z</time></trkpt>
<trkpt lat="24.829182" lon="105.244887">
<time>2015-09-27T16:54:03Z</time></trkpt>
<trkpt lat="24.829262" lon="105.244757">
<time>2015-09-27T16:54:04Z</time></trkpt>
<trkpt lat="24.829332" lon="105.244647">
<time>2015-09-27T16:54:05Z</time></trkpt>
<trkpt lat="24.829502" lon="105.244418">
<time>2015-09-27T16:54:06Z</time></trkpt>
<trkpt lat="24.829622" lon="105.244248">
<time>2015-09-27T16:54:07Z</time></trkpt>
<trkpt lat="24.829762" lon="105.244088">
<time>2015-09-27T16:54:08Z</time></trkpt>
<trkpt lat="24.829882" lon="105.243948">
<time>2015-09-27T16:54:09Z</time></trkpt>
<trkpt lat="24.829992" lon="105.243858">
<time>2015-09-27T16:54:10Z</time></trkpt>
<trkpt lat="24.830102" lon="105.243768">
<time>2015-09-27T16:54:11Z</time></trkpt>
<trkpt lat="24.830222" lon="105.243698">
<time>2015-09-27T16:54:12Z</time></trkpt>
<trkpt lat="24.830342" lon="105.243628">
<time>2015-09-27T16:54:13Z</time></trkpt>
<trkpt lat="24.830942" lon="105.243369">
<time>2015-09-27T16:54:14Z</time></trkpt>
<trkpt lat="24.831082" lon="105.243299">
<time>2015-09-27T16:54:15Z</time></trkpt>
<trkpt lat="24.831162" lon="105.243249">
<time>2015-09-27T16:54:16Z</time></trkpt>
<trkpt lat="24.831192" lon="105.243229">
<time>2015-09-27T16:54:17Z</time></trkpt>
<trkpt lat="24.831222" lon="105.243199">
<time>2015-09-27T16:54:18Z</time></trkpt>
<trkpt lat="24.831252" lon="105.243169">
<time>2015-09-27T16:54:19Z</time></trkpt>
<trkpt lat="24.831292" lon="105.243119">
<time>2015-09-27T16:54:20Z</time></trkpt>
<trkpt lat="24.831322" lon="105.243069">
<time>2015-09-27T16:54:21Z</time></trkpt>
<trkpt lat="24.831342" lon="105.243019">
<time>2015-09-27T16:54:22Z</time></trkpt>
<trkpt lat="24.831362" lon="105.242979">
<time>2015-09-27T16:54:23Z</time></trkpt>
<trkpt lat="24.831372" lon="105.242929">
<time>2015-09-27T16:54:24Z</time></trkpt>
<trkpt lat="24.831372" lon="105.242879">
<time>2015-09-27T16:54:25Z</time></trkpt>
<trkpt lat="24.831372" lon="105.242829">
<time>2015-09-27T16:54:26Z</time></trkpt>
<trkpt lat="24.831372" lon="105.242789">
<time>2015-09-27T16:54:27Z</time></trkpt>
<trkpt lat="24.831362" lon="105.242739">
<time>2015-09-27T16:54:28Z</time></trkpt>
<trkpt lat="24.831342" lon="105.242689">
<time>2015-09-27T16:54:29Z</time></trkpt>
<trkpt lat="24.831322" lon="105.242649">
<time>2015-09-27T16:54:30Z</time></trkpt>
<trkpt lat="24.831312" lon="105.242609">
<time>2015-09-27T16:54:31Z</time></trkpt>
<trkpt lat="24.831282" lon="105.242559">
<time>2015-09-27T16:54:32Z</time></trkpt>
<trkpt lat="24.831242" lon="105.242509">
<time>2015-09-27T16:54:33Z</time></trkpt>
<trkpt lat="24.831202" lon="105.242459">
<time>2015-09-27T16:54:34Z</time></trkpt>
<trkpt lat="24.831142" lon="105.242399">
<time>2015-09-27T16:54:35Z</time></trkpt>
<trkpt lat="24.830802" lon="105.24207">
<time>2015-09-27T16:54:36Z</time></trkpt>
<trkpt lat="24.830452" lon="105.24173">
<time>2015-09-27T16:54:37Z</time></trkpt>
<trkpt lat="24.830301" lon="105.24156">
<time>2015-09-27T16:54:38Z</time></trkpt>
<trkpt lat="24.830211" lon="105.24137">
<time>2015-09-27T16:54:39Z</time></trkpt>
<trkpt lat="24.830181" lon="105.24128">
<time>2015-09-27T16:54:40Z</time></trkpt>
<trkpt lat="24.830161" lon="105.24117">
<time>2015-09-27T16:54:41Z</time></trkpt>
<trkpt lat="24.830161" lon="105.241051">
<time>2015-09-27T16:54:42Z</time></trkpt>
<trkpt lat="24.830171" lon="105.240901">
<time>2015-09-27T16:54:43Z</time></trkpt>
<trkpt lat="24.830201" lon="105.240781">
<time>2015-09-27T16:54:44Z</time></trkpt>
<trkpt lat="24.830251" lon="105.240661">
<time>2015-09-27T16:54:45Z</time></trkpt>
<trkpt lat="24.830321" lon="105.240561">
<time>2015-09-27T16:54:46Z</time></trkpt>
<trkpt lat="24.830401" lon="105.240471">
<time>2015-09-27T16:54:47Z</time></trkpt>
<trkpt lat="24.830481" lon="105.240401">
<time>2015-09-27T16:54:48Z</time></trkpt>
<trkpt lat="24.830591" lon="105.240341">
<time>2015-09-27T16:54:49Z</time></trkpt>
<trkpt lat="24.830671" lon="105.240291">
<time>2015-09-27T16:54:50Z</time></trkpt>
<trkpt lat="24.830751" lon="105.240261">
<time>2015-09-27T16:54:51Z</time></trkpt>
<trkpt lat="24.831131" lon="105.240131">
<time>2015-09-27T16:54:52Z</time></trkpt>
<trkpt lat="24.831221" lon="105.240101">
<time>2015-09-27T16:54:53Z</time></trkpt>
<trkpt lat="24.831491" lon="105.240011">
<time>2015-09-27T16:54:54Z</time></trkpt>
<trkpt lat="24.831591" lon="105.239971">
<time>2015-09-27T16:54:55Z</time></trkpt>
<trkpt lat="24.831681" lon="105.239931">
<time>2015-09-27T16:54:56Z</time></trkpt>
<trkpt lat="24.831771" lon="105.239891">
<time>2015-09-27T16:54:57Z</time></trkpt>
<trkpt lat="24.831851" lon="105.239831">
<time>2015-09-27T16:54:58Z</time></trkpt>
<trkpt lat="24.831971" lon="105.239751">
<time>2015-09-27T16:54:59Z</time></trkpt>
<trkpt lat="24.832061" lon="105.239671">
<time>2015-09-27T16:55:00Z</time></trkpt>
<trkpt lat="24.832261" lon="105.239512">
<time>2015-09-27T16:55:01Z</time></trkpt>
<trkpt lat="24.832351" lon="105.239452">
<time>2015-09-27T16:55:02Z</time></trkpt>
<trkpt lat="24.832461" lon="105.239392">
<time>2015-09-27T16:55:03Z</time></trkpt>
<trkpt lat="24.832561" lon="105.239342">
<time>2015-09-27T16:55:04Z</time></trkpt>
<trkpt lat="24.832681" lon="105.239322">
<time>2015-09-27T16:55:05Z</time></trkpt>
<trkpt lat="24.832791" lon="105.239302">
<time>2015-09-27T16:55:06Z</time></trkpt>
<trkpt lat="24.832871" lon="105.239302">
<time>2015-09-27T16:55:07Z</time></trkpt>
<trkpt lat="24.833011" lon="105.239302">
<time>2015-09-27T16:55:08Z</time></trkpt>
<trkpt lat="24.833141" lon="105.239322">
<time>2015-09-27T16:55:09Z</time></trkpt>
<trkpt lat="24.833231" lon="105.239332">
<time>2015-09-27T16:55:10Z</time></trkpt>
<trkpt lat="24.833341" lon="105.239352">
<time>2015-09-27T16:55:11Z</time></trkpt>
<trkpt lat="24.833401" lon="105.239362">
<time>2015-09-27T16:55:12Z</time></trkpt>
<trkpt lat="24.833431" lon="105.239362">
<time>2015-09-27T16:55:13Z</time></trkpt>
<trkpt lat="24.833471" lon="105.239362">
<time>2015-09-27T16:55:14Z</time></trkpt>
<trkpt lat="24.833511" lon="105.239352">
<time>2015-09-27T16:55:15Z</time></trkpt>
<trkpt lat="24.833551" lon="105.239352">
<time>2015-09-27T16:55:16Z</time></trkpt>
<trkpt lat="24.833631" lon="105.239332">
<time>2015-09-27T16:55:17Z</time></trkpt>
<trkpt lat="24.833711" lon="105.239302">
<time>2015-09-27T16:55:18Z</time></trkpt>
<trkpt lat="24.833741" lon="105.239282">
<time>2015-09-27T16:55:19Z</time></trkpt>
<trkpt lat="24.833801" lon="105.239252">
<time>2015-09-27T16:55:20Z</time></trkpt>
<trkpt lat="24.833911" lon="105.239162">
<time>2015-09-27T16:55:21Z</time></trkpt>
<trkpt lat="24.83435" lon="105.238732">
<time>2015-09-27T16:55:22Z</time></trkpt>
<trkpt lat="24.83456" lon="105.238562">
<time>2015-09-27T16:55:23Z</time></trkpt>
<trkpt lat="24.83474" lon="105.238432">
<time>2015-09-27T16:55:24Z</time></trkpt>
<trkpt lat="24.83505" lon="105.238252">
<time>2015-09-27T16:55:25Z</time></trkpt>
<trkpt lat="24.83522" lon="105.238162">
<time>2015-09-27T16:55:26Z</time></trkpt>
<trkpt lat="24.83538" lon="105.238082">
<time>2015-09-27T16:55:27Z</time></trkpt>
<trkpt lat="24.8355" lon="105.238032">
<time>2015-09-27T16:55:28Z</time></trkpt>
<trkpt lat="24.8356" lon="105.238002">
<time>2015-09-27T16:55:29Z</time></trkpt>
<trkpt lat="24.83563" lon="105.238002">
<time>2015-09-27T16:55:30Z</time></trkpt>
<trkpt lat="24.83571" lon="105.237982">
<time>2015-09-27T16:55:31Z</time></trkpt>
<trkpt lat="24.8358" lon="105.237972">
<time>2015-09-27T16:55:32Z</time></trkpt>
<trkpt lat="24.83589" lon="105.237982">
<time>2015-09-27T16:55:33Z</time></trkpt>
<trkpt lat="24.83609" lon="105.237982">
<time>2015-09-27T16:55:34Z</time></trkpt>
<trkpt lat="24.83616" lon="105.237972">
<time>2015-09-27T16:55:35Z</time></trkpt>
<trkpt lat="24.83623" lon="105.237952">
<time>2015-09-27T16:55:36Z</time></trkpt>
<trkpt lat="24.83629" lon="105.237922">
<time>2015-09-27T16:55:37Z</time></trkpt>
<trkpt lat="24.83633" lon="105.237893">
<time>2015-09-27T16:55:38Z</time></trkpt>
<trkpt lat="24.83637" lon="105.237853">
<time>2015-09-27T16:55:39Z</time></trkpt>
<trkpt lat="24.8364" lon="105.237803">
<time>2015-09-27T16:55:40Z</time></trkpt>
<trkpt lat="24.83643" lon="105.237713">
<time>2015-09-27T16:55:41Z</time></trkpt>
<trkpt lat="24.83644" lon="105.237683">
<time>2015-09-27T16:55:42Z</time></trkpt>
<trkpt lat="24.83647" lon="105.237553">
<time>2015-09-27T16:55:43Z</time></trkpt>
<trkpt lat="24.83649" lon="105.237363">
<time>2015-09-27T16:55:44Z</time></trkpt>
<trkpt lat="24.83652" lon="105.237243">
<time>2015-09-27T16:55:45Z</time></trkpt>
<trkpt lat="24.83655" lon="105.237143">
<time>2015-09-27T16:55:46Z</time></trkpt>
<trkpt lat="24.8366" lon="105.237063">
<time>2015-09-27T16:55:47Z</time></trkpt>
<trkpt lat="24.83665" lon="105.237003">
<time>2015-09-27T16:55:48Z</time></trkpt>
<trkpt lat="24.83672" lon="105.236933">
<time>2015-09-27T16:55:49Z</time></trkpt>
<trkpt lat="24.836789" lon="105.236883">
<time>2015-09-27T16:55:50Z</time></trkpt>
<trkpt lat="24.836979" lon="105.236793">
<time>2015-09-27T16:55:51Z</time></trkpt>
<trkpt lat="24.837169" lon="105.236713">
<time>2015-09-27T16:55:52Z</time></trkpt>
<trkpt lat="24.837239" lon="105.236683">
<time>2015-09-27T16:55:53Z</time></trkpt>
<trkpt lat="24.837289" lon="105.236643">
<time>2015-09-27T16:55:54Z</time></trkpt>
<trkpt lat="24.837379" lon="105.236543">
<time>2015-09-27T16:55:55Z</time></trkpt>
<trkpt lat="24.837429" lon="105.236453">
<time>2015-09-27T16:55:56Z</time></trkpt>
<trkpt lat="24.837479" lon="105.236353">
<time>2015-09-27T16:55:57Z</time></trkpt>
<trkpt lat="24.837679" lon="105.235824">
<time>2015-09-27T16:55:58Z</time></trkpt>
<trkpt lat="24.837789" lon="105.235564">
<time>2015-09-27T16:55:59Z</time></trkpt>
<trkpt lat="24.837859" lon="105.235444">
<time>2015-09-27T16:56:00Z</time></trkpt>
<trkpt lat="24.837929" lon="105.235354">
<time>2015-09-27T16:56:01Z</time></trkpt>
<trkpt lat="24.838009" lon="105.235284">
<time>2015-09-27T16:56:02Z</time></trkpt>
<trkpt lat="24.838089" lon="105.235234">
<time>2015-09-27T16:56:03Z</time></trkpt>
<trkpt lat="24.838339" lon="105.235174">
<time>2015-09-27T16:56:04Z</time></trkpt>
<trkpt lat="24.838439" lon="105.235134">
<time>2015-09-27T16:56:05Z</time></trkpt>
<trkpt lat="24.838519" lon="105.235094">
<time>2015-09-27T16:56:06Z</time></trkpt>
<trkpt lat="24.838589" lon="105.235044">
<time>2015-09-27T16:56:07Z</time></trkpt>
<trkpt lat="24.838708" lon="105.234894">
<time>2015-09-27T16:56:08Z</time></trkpt>
<trkpt lat="24.838798" lon="105.234744">
<time>2015-09-27T16:56:09Z</time></trkpt>
<trkpt lat="24.838908" lon="105.234584">
<time>2015-09-27T16:56:10Z</time></trkpt>
<trkpt lat="24.839028" lon="105.234434">
<time>2015-09-27T16:56:11Z</time></trkpt>
<trkpt lat="24.839208" lon="105.234275">
<time>2015-09-27T16:56:12Z</time></trkpt>
<trkpt lat="24.839478" lon="105.234055">
<time>2015-09-27T16:56:13Z</time></trkpt>
<trkpt lat="24.839608" lon="105.233925">
<time>2015-09-27T16:56:14Z</time></trkpt>
<trkpt lat="24.839698" lon="105.233785">
<time>2015-09-27T16:56:15Z</time></trkpt>
<trkpt lat="24.839748" lon="105.233685">
<time>2015-09-27T16:56:16Z</time></trkpt>
<trkpt lat="24.839798" lon="105.233555">
<time>2015-09-27T16:56:17Z</time></trkpt>
<trkpt lat="24.839828" lon="105.233415">
<time>2015-09-27T16:56:18Z</time></trkpt>
<trkpt lat="24.839868" lon="105.233245">
<time>2015-09-27T16:56:19Z</time></trkpt>
<trkpt lat="24.839907" lon="105.233085">
<time>2015-09-27T16:56:20Z</time></trkpt>
<trkpt lat="24.839967" lon="105.232955">
<time>2015-09-27T16:56:21Z</time></trkpt>
<trkpt lat="24.840037" lon="105.232855">
<time>2015-09-27T16:56:22Z</time></trkpt>
<trkpt lat="24.840117" lon="105.232775">
<time>2015-09-27T16:56:23Z</time></trkpt>
<trkpt lat="24.840267" lon="105.232675">
<time>2015-09-27T16:56:24Z</time></trkpt>
<trkpt lat="24.840497" lon="105.232565">
<time>2015-09-27T16:56:25Z</time></trkpt>
<trkpt lat="24.840627" lon="105.232505">
<time>2015-09-27T16:56:26Z</time></trkpt>
<trkpt lat="24.840727" lon="105.232435">
<time>2015-09-27T16:56:27Z</time></trkpt>
<trkpt lat="24.840797" lon="105.232385">
<time>2015-09-27T16:56:28Z</time></trkpt>
<trkpt lat="24.840857" lon="105.232295">
<time>2015-09-27T16:56:29Z</time></trkpt>
<trkpt lat="24.840917" lon="105.232195">
<time>2015-09-27T16:56:30Z</time></trkpt>
<trkpt lat="24.841287" lon="105.231546">
<time>2015-09-27T16:56:31Z</time></trkpt>
<trkpt lat="24.841566" lon="105.231126">
<time>2015-09-27T16:56:32Z</time></trkpt>
<trkpt lat="24.841666" lon="105.231006">
<time>2015-09-27T16:56:33Z</time></trkpt>
<trkpt lat="24.841836" lon="105.230846">
<time>2015-09-27T16:56:34Z</time></trkpt>
<trkpt lat="24.842066" lon="105.230646">
<time>2015-09-27T16:56:35Z</time></trkpt>
<trkpt lat="24.842156" lon="105.230546">
<time>2015-09-27T16:56:36Z</time></trkpt>
<trkpt lat="24.842216" lon="105.230456">
<time>2015-09-27T16:56:37Z</time></trkpt>
<trkpt lat="24.842266" lon="105.230376">
<time>2015-09-27T16:56:38Z</time></trkpt>
<trkpt lat="24.842286" lon="105.230326">
<time>2015-09-27T16:56:39Z</time></trkpt>
<trkpt lat="24.842316" lon="105.230236">
<time>2015-09-27T16:56:40Z</time></trkpt>
<trkpt lat="24.842395" lon="105.229996">
<time>2015-09-27T16:56:41Z</time></trkpt>
<trkpt lat="24.842435" lon="105.229886">
<time>2015-09-27T16:56:42Z</time></trkpt>
<trkpt lat="24.842485" lon="105.229806">
<time>2015-09-27T16:56:43Z</time></trkpt>
<trkpt lat="24.842545" lon="105.229746">
<time>2015-09-27T16:56:44Z</time></trkpt>
<trkpt lat="24.842635" lon="105.229686">
<time>2015-09-27T16:56:45Z</time></trkpt>
<trkpt lat="24.842695" lon="105.229666">
<time>2015-09-27T16:56:46Z</time></trkpt>
<trkpt lat="24.842765" lon="105.229646">
<time>2015-09-27T16:56:47Z</time></trkpt>
<trkpt lat="24.842825" lon="105.229646">
<time>2015-09-27T16:56:48Z</time></trkpt>
<trkpt lat="24.842885" lon="105.229636">
<time>2015-09-27T16:56:49Z</time></trkpt>
<trkpt lat="24.843115" lon="105.229646">
<time>2015-09-27T16:56:50Z</time></trkpt>
<trkpt lat="24.843335" lon="105.229656">
<time>2015-09-27T16:56:51Z</time></trkpt>
<trkpt lat="24.843545" lon="105.229616">
<time>2015-09-27T16:56:52Z</time></trkpt>
<trkpt lat="24.843665" lon="105.229576">
<time>2015-09-27T16:56:53Z</time></trkpt>
<trkpt lat="24.843815" lon="105.229496">
<time>2015-09-27T16:56:54Z</time></trkpt>
<trkpt lat="24.844115" lon="105.229346">
<time>2015-09-27T16:56:55Z</time></trkpt>
<trkpt lat="24.844205" lon="105.229306">
<time>2015-09-27T16:56:56Z</time></trkpt>
<trkpt lat="24.844275" lon="105.229286">
<time>2015-09-27T16:56:57Z</time></trkpt>
<trkpt lat="24.844365" lon="105.229246">
<time>2015-09-27T16:56:58Z</time></trkpt>
<trkpt lat="24.844495" lon="105.229216">
<time>2015-09-27T16:56:59Z</time></trkpt>
<trkpt lat="24.844605" lon="105.229206">
<time>2015-09-27T16:57:00Z</time></trkpt>
<trkpt lat="24.844745" lon="105.229196">
<time>2015-09-27T16:57:01Z</time></trkpt>
<trkpt lat="24.844855" lon="105.229206">
<time>2015-09-27T16:57:02Z</time></trkpt>
<trkpt lat="24.844995" lon="105.229236">
<time>2015-09-27T16:57:03Z</time></trkpt>
<trkpt lat="24.845095" lon="105.229246">
<time>2015-09-27T16:57:04Z</time></trkpt>
<trkpt lat="24.845365" lon="105.229326">
<time>2015-09-27T16:57:05Z</time></trkpt>
<trkpt lat="24.845435" lon="105.229336">
<time>2015-09-27T16:57:06Z</time></trkpt>
<trkpt lat="24.845505" lon="105.229346">
<time>2015-09-27T16:57:07Z</time></trkpt>
<trkpt lat="24.845565" lon="105.229346">
<time>2015-09-27T16:57:08Z</time></trkpt>
<trkpt lat="24.845625" lon="105.229346">
<time>2015-09-27T16:57:09Z</time></trkpt>
<trkpt lat="24.845685" lon="105.229326">
<time>2015-09-27T16:57:10Z</time></trkpt>
<trkpt lat="24.845745" lon="105.229306">
<time>2015-09-27T16:57:11Z</time></trkpt>
<trkpt lat="24.845785" lon="105.229276">
<time>2015-09-27T16:57:12Z</time></trkpt>
<trkpt lat="24.845825" lon="105.229246">
<time>2015-09-27T16:57:13Z</time></trkpt>
<trkpt lat="24.845855" lon="105.229216">
<time>2015-09-27T16:57:14Z</time></trkpt>
<trkpt lat="24.845875" lon="105.229186">
<time>2015-09-27T16:57:15Z</time></trkpt>
<trkpt lat="24.845895" lon="105.229136">
<time>2015-09-27T16:57:16Z</time></trkpt>
<trkpt lat="24.845914" lon="105.229076">
<time>2015-09-27T16:57:17Z</time></trkpt>
<trkpt lat="24.845954" lon="105.228936">
<time>2015-09-27T16:57:18Z</time></trkpt>
<trkpt lat="24.846004" lon="105.228736">
<time>2015-09-27T16:57:19Z</time></trkpt>
<trkpt lat="24.846054" lon="105.228597">
<time>2015-09-27T16:57:20Z</time></trkpt>
<trkpt lat="24.846164" lon="105.228417">
<time>2015-09-27T16:57:21Z</time></trkpt>
<trkpt lat="24.846324" lon="105.228217">
<time>2015-09-27T16:57:22Z</time></trkpt>
<trkpt lat="24.846454" lon="105.228027">
<time>2015-09-27T16:57:23Z</time></trkpt>
<trkpt lat="24.846524" lon="105.227847">
<time>2015-09-27T16:57:24Z</time></trkpt>
<trkpt lat="24.846823" lon="105.226747">
<time>2015-09-27T16:57:25Z</time></trkpt>
<trkpt lat="24.846992" lon="105.226287">
<time>2015-09-27T16:57:26Z</time></trkpt>
<trkpt lat="24.847192" lon="105.225807">
<time>2015-09-27T16:57:27Z</time></trkpt>
<trkpt lat="24.847232" lon="105.225537">
<time>2015-09-27T16:57:28Z</time></trkpt>
<trkpt lat="24.847232" lon="105.225377">
<time>2015-09-27T16:57:29Z</time></trkpt>
<trkpt lat="24.847222" lon="105.225207">
<time>2015-09-27T16:57:30Z</time></trkpt>
<trkpt lat="24.847221" lon="105.225027">
<time>2015-09-27T16:57:31Z</time></trkpt>
<trkpt lat="24.847251" lon="105.224837">
<time>2015-09-27T16:57:32Z</time></trkpt>
<trkpt lat="24.847291" lon="105.224687">
<time>2015-09-27T16:57:33Z</time></trkpt>
<trkpt lat="24.847351" lon="105.224547">
<time>2015-09-27T16:57:34Z</time></trkpt>
<trkpt lat="24.847471" lon="105.224347">
<time>2015-09-27T16:57:35Z</time></trkpt>
<trkpt lat="24.847571" lon="105.224227">
<time>2015-09-27T16:57:36Z</time></trkpt>
<trkpt lat="24.847631" lon="105.224107">
<time>2015-09-27T16:57:37Z</time></trkpt>
<trkpt lat="24.847671" lon="105.224027">
<time>2015-09-27T16:57:38Z</time></trkpt>
<trkpt lat="24.84769" lon="105.223977">
<time>2015-09-27T16:57:39Z</time></trkpt>
<trkpt lat="24.8477" lon="105.223917">
<time>2015-09-27T16:57:40Z</time></trkpt>
<trkpt lat="24.84771" lon="105.223847">
<time>2015-09-27T16:57:41Z</time></trkpt>
<trkpt lat="24.84772" lon="105.223787">
<time>2015-09-27T16:57:42Z</time></trkpt>
<trkpt lat="24.84772" lon="105.223727">
<time>2015-09-27T16:57:43Z</time></trkpt>
<trkpt lat="24.84772" lon="105.223677">
<time>2015-09-27T16:57:44Z</time></trkpt>
<trkpt lat="24.84772" lon="105.223577">
<time>2015-09-27T16:57:45Z</time></trkpt>
<trkpt lat="24.84771" lon="105.223487">
<time>2015-09-27T16:57:46Z</time></trkpt>
<trkpt lat="24.84771" lon="105.223427">
<time>2015-09-27T16:57:47Z</time></trkpt>
<trkpt lat="24.84771" lon="105.223377">
<time>2015-09-27T16:57:48Z</time></trkpt>
<trkpt lat="24.84771" lon="105.223347">
<time>2015-09-27T16:57:49Z</time></trkpt>
<trkpt lat="24.84771" lon="105.223327">
<time>2015-09-27T16:57:50Z</time></trkpt>
<trkpt lat="24.84772" lon="105.223317">
<time>2015-09-27T16:57:51Z</time></trkpt>
<trkpt lat="24.84772" lon="105.223277">
<time>2015-09-27T16:57:52Z</time></trkpt>
<trkpt lat="24.84773" lon="105.223257">
<time>2015-09-27T16:57:53Z</time></trkpt>
<trkpt lat="24.84773" lon="105.223247">
<time>2015-09-27T16:57:54Z</time></trkpt>
<trkpt lat="24.84773" lon="105.223237">
<time>2015-09-27T16:57:55Z</time></trkpt>
<trkpt lat="24.84774" lon="105.223227">
<time>2015-09-27T16:57:56Z</time></trkpt>
<trkpt lat="24.84774" lon="105.223207">
<time>2015-09-27T16:57:57Z</time></trkpt>
<trkpt lat="24.84775" lon="105.223167">
<time>2015-09-27T16:57:58Z</time></trkpt>
<trkpt lat="24.84776" lon="105.223137">
<time>2015-09-27T16:57:59Z</time></trkpt>
<trkpt lat="24.84778" lon="105.223117">
<time>2015-09-27T16:58:00Z</time></trkpt>
<trkpt lat="24.8478" lon="105.223078">
<time>2015-09-27T16:58:01Z</time></trkpt>
<trkpt lat="24.84781" lon="105.223048">
<time>2015-09-27T16:58:02Z</time></trkpt>
<trkpt lat="24.84787" lon="105.222968">
<time>2015-09-27T16:58:03Z</time></trkpt>
<trkpt lat="24.84794" lon="105.222878">
<time>2015-09-27T16:58:04Z</time></trkpt>
<trkpt lat="24.847969" lon="105.222828">
<time>2015-09-27T16:58:05Z</time></trkpt>
<trkpt lat="24.848009" lon="105.222768">
<time>2015-09-27T16:58:06Z</time></trkpt>
<trkpt lat="24.848039" lon="105.222708">
<time>2015-09-27T16:58:07Z</time></trkpt>
<trkpt lat="24.848069" lon="105.222648">
<time>2015-09-27T16:58:08Z</time></trkpt>
<trkpt lat="24.848109" lon="105.222558">
<time>2015-09-27T16:58:09Z</time></trkpt>
<trkpt lat="24.848139" lon="105.222458">
<time>2015-09-27T16:58:10Z</time></trkpt>
<trkpt lat="24.848169" lon="105.222288">
<time>2015-09-27T16:58:11Z</time></trkpt>
<trkpt lat="24.848219" lon="105.222038">
<time>2015-09-27T16:58:12Z</time></trkpt>
<trkpt lat="24.848298" lon="105.221588">
<time>2015-09-27T16:58:13Z</time></trkpt>
<trkpt lat="24.848398" lon="105.221018">
<time>2015-09-27T16:58:14Z</time></trkpt>
<trkpt lat="24.848457" lon="105.220698">
<time>2015-09-27T16:58:15Z</time></trkpt>
<trkpt lat="24.848527" lon="105.220438">
<time>2015-09-27T16:58:16Z</time></trkpt>
<trkpt lat="24.848677" lon="105.219938">
<time>2015-09-27T16:58:17Z</time></trkpt>
<trkpt lat="24.848816" lon="105.219518">
<time>2015-09-27T16:58:18Z</time></trkpt>
<trkpt lat="24.848956" lon="105.219158">
<time>2015-09-27T16:58:19Z</time></trkpt>
<trkpt lat="24.849016" lon="105.219058">
<time>2015-09-27T16:58:20Z</time></trkpt>
<trkpt lat="24.849066" lon="105.218958">
<time>2015-09-27T16:58:21Z</time></trkpt>
<trkpt lat="24.849146" lon="105.218848">
<time>2015-09-27T16:58:22Z</time></trkpt>
<trkpt lat="24.849315" lon="105.218627">
<time>2015-09-27T16:58:23Z</time></trkpt>
<trkpt lat="24.849645" lon="105.218227">
<time>2015-09-27T16:58:24Z</time></trkpt>
<trkpt lat="24.849775" lon="105.218027">
<time>2015-09-27T16:58:25Z</time></trkpt>
<trkpt lat="24.849865" lon="105.217877">
<time>2015-09-27T16:58:26Z</time></trkpt>
<trkpt lat="24.849964" lon="105.217687">
<time>2015-09-27T16:58:27Z</time></trkpt>
<trkpt lat="24.850353" lon="105.216777">
<time>2015-09-27T16:58:28Z</time></trkpt>
<trkpt lat="24.850493" lon="105.216437">
<time>2015-09-27T16:58:29Z</time></trkpt>
<trkpt lat="24.850583" lon="105.216277">
<time>2015-09-27T16:58:30Z</time></trkpt>
<trkpt lat="24.850643" lon="105.216187">
<time>2015-09-27T16:58:31Z</time></trkpt>
<trkpt lat="24.850733" lon="105.216067">
<time>2015-09-27T16:58:32Z</time></trkpt>
<trkpt lat="24.850852" lon="105.215977">
<time>2015-09-27T16:58:33Z</time></trkpt>
<trkpt lat="24.850962" lon="105.215907">
<time>2015-09-27T16:58:34Z</time></trkpt>
<trkpt lat="24.851052" lon="105.215877">
<time>2015-09-27T16:58:35Z</time></trkpt>
<trkpt lat="24.851182" lon="105.215837">
<time>2015-09-27T16:58:36Z</time></trkpt>
<trkpt lat="24.851352" lon="105.215817">
<time>2015-09-27T16:58:37Z</time></trkpt>
<trkpt lat="24.851512" lon="105.215777">
<time>2015-09-27T16:58:38Z</time></trkpt>
<trkpt lat="24.851612" lon="105.215737">
<time>2015-09-27T16:58:39Z</time></trkpt>
<trkpt lat="24.851702" lon="105.215667">
<time>2015-09-27T16:58:40Z</time></trkpt>
<trkpt lat="24.851772" lon="105.215567">
<time>2015-09-27T16:58:41Z</time></trkpt>
<trkpt lat="24.851832" lon="105.215447">
<time>2015-09-27T16:58:42Z</time></trkpt>
<trkpt lat="24.851872" lon="105.215327">
<time>2015-09-27T16:58:43Z</time></trkpt>
<trkpt lat="24.851961" lon="105.215007">
<time>2015-09-27T16:58:44Z</time></trkpt>
<trkpt lat="24.852091" lon="105.214637">
<time>2015-09-27T16:58:45Z</time></trkpt>
<trkpt lat="24.852171" lon="105.214477">
<time>2015-09-27T16:58:46Z</time></trkpt>
<trkpt lat="24.85228" lon="105.214317">
<time>2015-09-27T16:58:47Z</time></trkpt>
<trkpt lat="24.85237" lon="105.214227">
<time>2015-09-27T16:58:48Z</time></trkpt>
<trkpt lat="24.85245" lon="105.214137">
<time>2015-09-27T16:58:49Z</time></trkpt>
<trkpt lat="24.85258" lon="105.214017">
<time>2015-09-27T16:58:50Z</time></trkpt>
<trkpt lat="24.85269" lon="105.213907">
<time>2015-09-27T16:58:51Z</time></trkpt>
<trkpt lat="24.85277" lon="105.213817">
<time>2015-09-27T16:58:52Z</time></trkpt>
<trkpt lat="24.85286" lon="105.213697">
<time>2015-09-27T16:58:53Z</time></trkpt>
<trkpt lat="24.852959" lon="105.213527">
<time>2015-09-27T16:58:54Z</time></trkpt>
<trkpt lat="24.853059" lon="105.213317">
<time>2015-09-27T16:58:55Z</time></trkpt>
<trkpt lat="24.853069" lon="105.213286">
<time>2015-09-27T16:58:56Z</time></trkpt>
<trkpt lat="24.853378" lon="105.212546">
<time>2015-09-27T16:58:57Z</time></trkpt>
<trkpt lat="24.853488" lon="105.212286">
<time>2015-09-27T16:58:58Z</time></trkpt>
<trkpt lat="24.853548" lon="105.212086">
<time>2015-09-27T16:58:59Z</time></trkpt>
<trkpt lat="24.853617" lon="105.211816">
<time>2015-09-27T16:59:00Z</time></trkpt>
<trkpt lat="24.853667" lon="105.211556">
<time>2015-09-27T16:59:01Z</time></trkpt>
<trkpt lat="24.853707" lon="105.211406">
<time>2015-09-27T16:59:02Z</time></trkpt>
<trkpt lat="24.853747" lon="105.211276">
<time>2015-09-27T16:59:03Z</time></trkpt>
<trkpt lat="24.853816" lon="105.211136">
<time>2015-09-27T16:59:04Z</time></trkpt>
<trkpt lat="24.853916" lon="105.211016">
<time>2015-09-27T16:59:05Z</time></trkpt>
<trkpt lat="24.854116" lon="105.210796">
<time>2015-09-27T16:59:06Z</time></trkpt>
<trkpt lat="24.854156" lon="105.210756">
<time>2015-09-27T16:59:07Z</time></trkpt>
<trkpt lat="24.854196" lon="105.210706">
<time>2015-09-27T16:59:08Z</time></trkpt>
<trkpt lat="24.854226" lon="105.210666">
<time>2015-09-27T16:59:09Z</time></trkpt>
<trkpt lat="24.854246" lon="105.210616">
<time>2015-09-27T16:59:10Z</time></trkpt>
<trkpt lat="24.854286" lon="105.210526">
<time>2015-09-27T16:59:11Z</time></trkpt>
<trkpt lat="24.854316" lon="105.210446">
<time>2015-09-27T16:59:12Z</time></trkpt>
<trkpt lat="24.854315" lon="105.210406">
<time>2015-09-27T16:59:13Z</time></trkpt>
<trkpt lat="24.854325" lon="105.210356">
<time>2015-09-27T16:59:14Z</time></trkpt>
<trkpt lat="24.854325" lon="105.210296">
<time>2015-09-27T16:59:15Z</time></trkpt>
<trkpt lat="24.854315" lon="105.210236">
<time>2015-09-27T16:59:16Z</time></trkpt>
<trkpt lat="24.854295" lon="105.210186">
<time>2015-09-27T16:59:17Z</time></trkpt>
<trkpt lat="24.854275" lon="105.210106">
<time>2015-09-27T16:59:18Z</time></trkpt>
<trkpt lat="24.854185" lon="105.209865">
<time>2015-09-27T16:59:19Z</time></trkpt>
<trkpt lat="24.854125" lon="105.209655">
<time>2015-09-27T16:59:20Z</time></trkpt>
<trkpt lat="24.854104" lon="105.209585">
<time>2015-09-27T16:59:21Z</time></trkpt>
<trkpt lat="24.854094" lon="105.209555">
<time>2015-09-27T16:59:22Z</time></trkpt>
<trkpt lat="24.854084" lon="105.209505">
<time>2015-09-27T16:59:23Z</time></trkpt>
<trkpt lat="24.854084" lon="105.209465">
<time>2015-09-27T16:59:24Z</time></trkpt>
<trkpt lat="24.854094" lon="105.209415">
<time>2015-09-27T16:59:25Z</time></trkpt>
<trkpt lat="24.854104" lon="105.209365">
<time>2015-09-27T16:59:26Z</time></trkpt>
<trkpt lat="24.854124" lon="105.209315">
<time>2015-09-27T16:59:27Z</time></trkpt>
<trkpt lat="24.854144" lon="105.209275">
<time>2015-09-27T16:59:28Z</time></trkpt>
<trkpt lat="24.854174" lon="105.209235">
<time>2015-09-27T16:59:29Z</time></trkpt>
<trkpt lat="24.854204" lon="105.209215">
<time>2015-09-27T16:59:30Z</time></trkpt>
<trkpt lat="24.854224" lon="105.209185">
<time>2015-09-27T16:59:31Z</time></trkpt>
<trkpt lat="24.854264" lon="105.209175">
<time>2015-09-27T16:59:32Z</time></trkpt>
<trkpt lat="24.854304" lon="105.209155">
<time>2015-09-27T16:59:33Z</time></trkpt>
<trkpt lat="24.854354" lon="105.209145">
<time>2015-09-27T16:59:34Z</time></trkpt>
<trkpt lat="24.854414" lon="105.209135">
<time>2015-09-27T16:59:35Z</time></trkpt>
<trkpt lat="24.854604" lon="105.209125">
<time>2015-09-27T16:59:36Z</time></trkpt>
<trkpt lat="24.854874" lon="105.209095">
<time>2015-09-27T16:59:37Z</time></trkpt>
<trkpt lat="24.855024" lon="105.209065">
<time>2015-09-27T16:59:38Z</time></trkpt>
<trkpt lat="24.855084" lon="105.209045">
<time>2015-09-27T16:59:39Z</time></trkpt>
<trkpt lat="24.855224" lon="105.208995">
<time>2015-09-27T16:59:40Z</time></trkpt>
<trkpt lat="24.855473" lon="105.208905">
<time>2015-09-27T16:59:41Z</time></trkpt>
<trkpt lat="24.857162" lon="105.208115">
<time>2015-09-27T16:59:42Z</time></trkpt>
<trkpt lat="24.858052" lon="105.207684">
<time>2015-09-27T16:59:43Z</time></trkpt>
<trkpt lat="24.858791" lon="105.207344">
<time>2015-09-27T16:59:44Z</time></trkpt>
<trkpt lat="24.859041" lon="105.207224">
<time>2015-09-27T16:59:45Z</time></trkpt>
<trkpt lat="24.859091" lon="105.207194">
<time>2015-09-27T16:59:46Z</time></trkpt>
<trkpt lat="24.859141" lon="105.207164">
<time>2015-09-27T16:59:47Z</time></trkpt>
<trkpt lat="24.859191" lon="105.207134">
<time>2015-09-27T16:59:48Z</time></trkpt>
<trkpt lat="24.859201" lon="105.207134">
<time>2015-09-27T16:59:49Z</time></trkpt>
<trkpt lat="24.859221" lon="105.207114">
<time>2015-09-27T16:59:50Z</time></trkpt>
<trkpt lat="24.859231" lon="105.207114">
<time>2015-09-27T16:59:51Z</time></trkpt>
<trkpt lat="24.85936" lon="105.207024">
<time>2015-09-27T16:59:52Z</time></trkpt>
<trkpt lat="24.85944" lon="105.206964">
<time>2015-09-27T16:59:53Z</time></trkpt>
<trkpt lat="24.85961" lon="105.206844">
<time>2015-09-27T16:59:54Z</time></trkpt>
<trkpt lat="24.85979" lon="105.206664">
<time>2015-09-27T16:59:55Z</time></trkpt>
<trkpt lat="24.85987" lon="105.206574">
<time>2015-09-27T16:59:56Z</time></trkpt>
<trkpt lat="24.85998" lon="105.206454">
<time>2015-09-27T16:59:57Z</time></trkpt>
<trkpt lat="24.860089" lon="105.206334">
<time>2015-09-27T16:59:58Z</time></trkpt>
<trkpt lat="24.860289" lon="105.206074">
<time>2015-09-27T16:59:59Z</time></trkpt>
<trkpt lat="24.860558" lon="105.205673">
<time>2015-09-27T17:00:00Z</time></trkpt>
<trkpt lat="24.861367" lon="105.204523">
<time>2015-09-27T17:00:01Z</time></trkpt>
<trkpt lat="24.861995" lon="105.203622">
<time>2015-09-27T17:00:02Z</time></trkpt>
<trkpt lat="24.862215" lon="105.203302">
<time>2015-09-27T17:00:03Z</time></trkpt>
<trkpt lat="24.862335" lon="105.203122">
<time>2015-09-27T17:00:04Z</time></trkpt>
<trkpt lat="24.862464" lon="105.202952">
<time>2015-09-27T17:00:05Z</time></trkpt>
<trkpt lat="24.863243" lon="105.201861">
<time>2015-09-27T17:00:06Z</time></trkpt>
<trkpt lat="24.863313" lon="105.201761">
<time>2015-09-27T17:00:07Z</time></trkpt>
<trkpt lat="24.863632" lon="105.201311">
<time>2015-09-27T17:00:08Z</time></trkpt>
<trkpt lat="24.863762" lon="105.201131">
<time>2015-09-27T17:00:09Z</time></trkpt>
<trkpt lat="24.86454" lon="105.20004">
<time>2015-09-27T17:00:10Z</time></trkpt>
<trkpt lat="24.864959" lon="105.19946">
<time>2015-09-27T17:00:11Z</time></trkpt>
<trkpt lat="24.865099" lon="105.19926">
<time>2015-09-27T17:00:12Z</time></trkpt>
<trkpt lat="24.865158" lon="105.19917">
<time>2015-09-27T17:00:13Z</time></trkpt>
<trkpt lat="24.865208" lon="105.19908">
<time>2015-09-27T17:00:14Z</time></trkpt>
<trkpt lat="24.865238" lon="105.19903">
<time>2015-09-27T17:00:15Z</time></trkpt>
<trkpt lat="24.865278" lon="105.198929">
<time>2015-09-27T17:00:16Z</time></trkpt>
<trkpt lat="24.865288" lon="105.198879">
<time>2015-09-27T17:00:17Z</time></trkpt>
<trkpt lat="24.865308" lon="105.198799">
<time>2015-09-27T17:00:18Z</time></trkpt>
<trkpt lat="24.865328" lon="105.198639">
<time>2015-09-27T17:00:19Z</time></trkpt>
<trkpt lat="24.865327" lon="105.198509">
<time>2015-09-27T17:00:20Z</time></trkpt>
<trkpt lat="24.865307" lon="105.198319">
<time>2015-09-27T17:00:21Z</time></trkpt>
<trkpt lat="24.865257" lon="105.198189">
<time>2015-09-27T17:00:22Z</time></trkpt>
<trkpt lat="24.865187" lon="105.197999">
<time>2015-09-27T17:00:23Z</time></trkpt>
<trkpt lat="24.864976" lon="105.197599">
<time>2015-09-27T17:00:24Z</time></trkpt>
<trkpt lat="24.864645" lon="105.196898">
<time>2015-09-27T17:00:25Z</time></trkpt>
<trkpt lat="24.864504" lon="105.196618">
<time>2015-09-27T17:00:26Z</time></trkpt>
<trkpt lat="24.864354" lon="105.196388">
<time>2015-09-27T17:00:27Z</time></trkpt>
<trkpt lat="24.864344" lon="105.196378">
<time>2015-09-27T17:00:28Z</time></trkpt>
<trkpt lat="24.864214" lon="105.196218">
<time>2015-09-27T17:00:29Z</time></trkpt>
<trkpt lat="24.863903" lon="105.195898">
<time>2015-09-27T17:00:30Z</time></trkpt>
<trkpt lat="24.863082" lon="105.195077">
<time>2015-09-27T17:00:31Z</time></trkpt>
<trkpt lat="24.862702" lon="105.194687">
<time>2015-09-27T17:00:32Z</time></trkpt>
<trkpt lat="24.862611" lon="105.194577">
<time>2015-09-27T17:00:33Z</time></trkpt>
<trkpt lat="24.862571" lon="105.194507">
<time>2015-09-27T17:00:34Z</time></trkpt>
<trkpt lat="24.862541" lon="105.194427">
<time>2015-09-27T17:00:35Z</time></trkpt>
<trkpt lat="24.862491" lon="105.194326">
<time>2015-09-27T17:00:36Z</time></trkpt>
<trkpt lat="24.862451" lon="105.194206">
<time>2015-09-27T17:00:37Z</time></trkpt>
<trkpt lat="24.86239" lon="105.193936">
<time>2015-09-27T17:00:38Z</time></trkpt>
<trkpt lat="24.862209" lon="105.192935">
<time>2015-09-27T17:00:39Z</time></trkpt>
<trkpt lat="24.862098" lon="105.192355">
<time>2015-09-27T17:00:40Z</time></trkpt>
<trkpt lat="24.862058" lon="105.192215">
<time>2015-09-27T17:00:41Z</time></trkpt>
<trkpt lat="24.862027" lon="105.192105">
<time>2015-09-27T17:00:42Z</time></trkpt>
<trkpt lat="24.861987" lon="105.191995">
<time>2015-09-27T17:00:43Z</time></trkpt>
<trkpt lat="24.861947" lon="105.191905">
<time>2015-09-27T17:00:44Z</time></trkpt>
<trkpt lat="24.861907" lon="105.191855">
<time>2015-09-27T17:00:45Z</time></trkpt>
<trkpt lat="24.861867" lon="105.191795">
<time>2015-09-27T17:00:46Z</time></trkpt>
<trkpt lat="24.861807" lon="105.191734">
<time>2015-09-27T17:00:47Z</time></trkpt>
<trkpt lat="24.861737" lon="105.191674">
<time>2015-09-27T17:00:48Z</time></trkpt>
<trkpt lat="24.861667" lon="105.191624">
<time>2015-09-27T17:00:49Z</time></trkpt>
<trkpt lat="24.861587" lon="105.191574">
<time>2015-09-27T17:00:50Z</time></trkpt>
<trkpt lat="24.861366" lon="105.191474">
<time>2015-09-27T17:00:51Z</time></trkpt>
<trkpt lat="24.861186" lon="105.191374">
<time>2015-09-27T17:00:52Z</time></trkpt>
<trkpt lat="24.860826" lon="105.191164">
<time>2015-09-27T17:00:53Z</time></trkpt>
<trkpt lat="24.860606" lon="105.190954">
<time>2015-09-27T17:00:54Z</time></trkpt>
<trkpt lat="24.860205" lon="105.190554">
<time>2015-09-27T17:00:55Z</time></trkpt>
<trkpt lat="24.859373" lon="105.189433">
<time>2015-09-27T17:00:56Z</time></trkpt>
<trkpt lat="24.859052" lon="105.188972">
<time>2015-09-27T17:00:57Z</time></trkpt>
<trkpt lat="24.858982" lon="105.188872">
<time>2015-09-27T17:00:58Z</time></trkpt>
<trkpt lat="24.858922" lon="105.188782">
<time>2015-09-27T17:00:59Z</time></trkpt>
<trkpt lat="24.858872" lon="105.188692">
<time>2015-09-27T17:01:00Z</time></trkpt>
<trkpt lat="24.858842" lon="105.188602">
<time>2015-09-27T17:01:01Z</time></trkpt>
<trkpt lat="24.858822" lon="105.188502">
<time>2015-09-27T17:01:02Z</time></trkpt>
<trkpt lat="24.858821" lon="105.188402">
<time>2015-09-27T17:01:03Z</time></trkpt>
<trkpt lat="24.858831" lon="105.188212">
<time>2015-09-27T17:01:04Z</time></trkpt>
<trkpt lat="24.85897" lon="105.187441">
<time>2015-09-27T17:01:05Z</time></trkpt>
<trkpt lat="24.859178" lon="105.18635">
<time>2015-09-27T17:01:06Z</time></trkpt>
<trkpt lat="24.859435" lon="105.185009">
<time>2015-09-27T17:01:07Z</time></trkpt>
<trkpt lat="24.859564" lon="105.184378">
<time>2015-09-27T17:01:08Z</time></trkpt>
<trkpt lat="24.859624" lon="105.184178">
<time>2015-09-27T17:01:09Z</time></trkpt>
<trkpt lat="24.859674" lon="105.184038">
<time>2015-09-27T17:01:10Z</time></trkpt>
<trkpt lat="24.859763" lon="105.183828">
<time>2015-09-27T17:01:11Z</time></trkpt>
<trkpt lat="24.860012" lon="105.183277">
<time>2015-09-27T17:01:12Z</time></trkpt>
<trkpt lat="24.860411" lon="105.182437">
<time>2015-09-27T17:01:13Z</time></trkpt>
<trkpt lat="24.86055" lon="105.182176">
<time>2015-09-27T17:01:14Z</time></trkpt>
<trkpt lat="24.86063" lon="105.181996">
<time>2015-09-27T17:01:15Z</time></trkpt>
<trkpt lat="24.860709" lon="105.181766">
<time>2015-09-27T17:01:16Z</time></trkpt>
<trkpt lat="24.860729" lon="105.181656">
<time>2015-09-27T17:01:17Z</time></trkpt>
<trkpt lat="24.860729" lon="105.181586">
<time>2015-09-27T17:01:18Z</time></trkpt>
<trkpt lat="24.860739" lon="105.181546">
<time>2015-09-27T17:01:19Z</time></trkpt>
<trkpt lat="24.860729" lon="105.181406">
<time>2015-09-27T17:01:20Z</time></trkpt>
<trkpt lat="24.860688" lon="105.181025">
<time>2015-09-27T17:01:21Z</time></trkpt>
<trkpt lat="24.860688" lon="105.180825">
<time>2015-09-27T17:01:22Z</time></trkpt>
<trkpt lat="24.860707" lon="105.180625">
<time>2015-09-27T17:01:23Z</time></trkpt>
<trkpt lat="24.860747" lon="105.180445">
<time>2015-09-27T17:01:24Z</time></trkpt>
<trkpt lat="24.860797" lon="105.180295">
<time>2015-09-27T17:01:25Z</time></trkpt>
<trkpt lat="24.860886" lon="105.180084">
<time>2015-09-27T17:01:26Z</time></trkpt>
<trkpt lat="24.861305" lon="105.179224">
<time>2015-09-27T17:01:27Z</time></trkpt>
<trkpt lat="24.861474" lon="105.178863">
<time>2015-09-27T17:01:28Z</time></trkpt>
<trkpt lat="24.861544" lon="105.178733">
<time>2015-09-27T17:01:29Z</time></trkpt>
<trkpt lat="24.861653" lon="105.178563">
<time>2015-09-27T17:01:30Z</time></trkpt>
<trkpt lat="24.861763" lon="105.178413">
<time>2015-09-27T17:01:31Z</time></trkpt>
<trkpt lat="24.861943" lon="105.178183">
<time>2015-09-27T17:01:32Z</time></trkpt>
<trkpt lat="24.862102" lon="105.177942">
<time>2015-09-27T17:01:33Z</time></trkpt>
<trkpt lat="24.862242" lon="105.177692">
<time>2015-09-27T17:01:34Z</time></trkpt>
<trkpt lat="24.862331" lon="105.177552">
<time>2015-09-27T17:01:35Z</time></trkpt>
<trkpt lat="24.862421" lon="105.177442">
<time>2015-09-27T17:01:36Z</time></trkpt>
<trkpt lat="24.862551" lon="105.177292">
<time>2015-09-27T17:01:37Z</time></trkpt>
<trkpt lat="24.8628" lon="105.177071">
<time>2015-09-27T17:01:38Z</time></trkpt>
<trkpt lat="24.86299" lon="105.176891">
<time>2015-09-27T17:01:39Z</time></trkpt>
<trkpt lat="24.86312" lon="105.176721">
<time>2015-09-27T17:01:40Z</time></trkpt>
<trkpt lat="24.86318" lon="105.176621">
<time>2015-09-27T17:01:41Z</time></trkpt>
<trkpt lat="24.863219" lon="105.176541">
<time>2015-09-27T17:01:42Z</time></trkpt>
<trkpt lat="24.863299" lon="105.176341">
<time>2015-09-27T17:01:43Z</time></trkpt>
<trkpt lat="24.863538" lon="105.17574">
<time>2015-09-27T17:01:44Z</time></trkpt>
<trkpt lat="24.863618" lon="105.17558">
<time>2015-09-27T17:01:45Z</time></trkpt>
<trkpt lat="24.863687" lon="105.17547">
<time>2015-09-27T17:01:46Z</time></trkpt>
<trkpt lat="24.863777" lon="105.17535">
<time>2015-09-27T17:01:47Z</time></trkpt>
<trkpt lat="24.863877" lon="105.17524">
<time>2015-09-27T17:01:48Z</time></trkpt>
<trkpt lat="24.863997" lon="105.175129">
<time>2015-09-27T17:01:49Z</time></trkpt>
<trkpt lat="24.864286" lon="105.174899">
<time>2015-09-27T17:01:50Z</time></trkpt>
<trkpt lat="24.864506" lon="105.174669">
<time>2015-09-27T17:01:51Z</time></trkpt>
<trkpt lat="24.864675" lon="105.174469">
<time>2015-09-27T17:01:52Z</time></trkpt>
<trkpt lat="24.865334" lon="105.173548">
<time>2015-09-27T17:01:53Z</time></trkpt>
<trkpt lat="24.865982" lon="105.172647">
<time>2015-09-27T17:01:54Z</time></trkpt>
<trkpt lat="24.86672" lon="105.171676">
<time>2015-09-27T17:01:55Z</time></trkpt>
<trkpt lat="24.867109" lon="105.171195">
<time>2015-09-27T17:01:56Z</time></trkpt>
<trkpt lat="24.867298" lon="105.170965">
<time>2015-09-27T17:01:57Z</time></trkpt>
<trkpt lat="24.867408" lon="105.170765">
<time>2015-09-27T17:01:58Z</time></trkpt>
<trkpt lat="24.867468" lon="105.170575">
<time>2015-09-27T17:01:59Z</time></trkpt>
<trkpt lat="24.867507" lon="105.170345">
<time>2015-09-27T17:02:00Z</time></trkpt>
<trkpt lat="24.867556" lon="105.169894">
<time>2015-09-27T17:02:01Z</time></trkpt>
<trkpt lat="24.867616" lon="105.169454">
<time>2015-09-27T17:02:02Z</time></trkpt>
<trkpt lat="24.867695" lon="105.169183">
<time>2015-09-27T17:02:03Z</time></trkpt>
<trkpt lat="24.867804" lon="105.168873">
<time>2015-09-27T17:02:04Z</time></trkpt>
<trkpt lat="24.867964" lon="105.168443">
<time>2015-09-27T17:02:05Z</time></trkpt>
<trkpt lat="24.868043" lon="105.168182">
<time>2015-09-27T17:02:06Z</time></trkpt>
<trkpt lat="24.868083" lon="105.167932">
<time>2015-09-27T17:02:07Z</time></trkpt>
<trkpt lat="24.868102" lon="105.167642">
<time>2015-09-27T17:02:08Z</time></trkpt>
<trkpt lat="24.868151" lon="105.167252">
<time>2015-09-27T17:02:09Z</time></trkpt>
<trkpt lat="24.868211" lon="105.166881">
<time>2015-09-27T17:02:10Z</time></trkpt>
<trkpt lat="24.868419" lon="105.166271">
<time>2015-09-27T17:02:11Z</time></trkpt>
<trkpt lat="24.868529" lon="105.16599">
<time>2015-09-27T17:02:12Z</time></trkpt>
<trkpt lat="24.868698" lon="105.16571">
<time>2015-09-27T17:02:13Z</time></trkpt>
<trkpt lat="24.868898" lon="105.16544">
<time>2015-09-27T17:02:14Z</time></trkpt>
<trkpt lat="24.869347" lon="105.164909">
<time>2015-09-27T17:02:15Z</time></trkpt>
<trkpt lat="24.869606" lon="105.164609">
<time>2015-09-27T17:02:16Z</time></trkpt>
<trkpt lat="24.869696" lon="105.164509">
<time>2015-09-27T17:02:17Z</time></trkpt>
<trkpt lat="24.869786" lon="105.164389">
<time>2015-09-27T17:02:18Z</time></trkpt>
<trkpt lat="24.869846" lon="105.164279">
<time>2015-09-27T17:02:19Z</time></trkpt>
<trkpt lat="24.869915" lon="105.164128">
<time>2015-09-27T17:02:20Z</time></trkpt>
<trkpt lat="24.869965" lon="105.163988">
<time>2015-09-27T17:02:21Z</time></trkpt>
<trkpt lat="24.870005" lon="105.163808">
<time>2015-09-27T17:02:22Z</time></trkpt>
<trkpt lat="24.870084" lon="105.163358">
<time>2015-09-27T17:02:23Z</time></trkpt>
<trkpt lat="24.870133" lon="105.163027">
<time>2015-09-27T17:02:24Z</time></trkpt>
<trkpt lat="24.870153" lon="105.162927">
<time>2015-09-27T17:02:25Z</time></trkpt>
<trkpt lat="24.870163" lon="105.162807">
<time>2015-09-27T17:02:26Z</time></trkpt>
<trkpt lat="24.870163" lon="105.162697">
<time>2015-09-27T17:02:27Z</time></trkpt>
<trkpt lat="24.870162" lon="105.162607">
<time>2015-09-27T17:02:28Z</time></trkpt>
<trkpt lat="24.870142" lon="105.162507">
<time>2015-09-27T17:02:29Z</time></trkpt>
<trkpt lat="24.870092" lon="105.162357">
<time>2015-09-27T17:02:30Z</time></trkpt>
<trkpt lat="24.870042" lon="105.162257">
<time>2015-09-27T17:02:31Z</time></trkpt>
<trkpt lat="24.869781" lon="105.161836">
<time>2015-09-27T17:02:32Z</time></trkpt>
<trkpt lat="24.869269" lon="105.161025">
<time>2015-09-27T17:02:33Z</time></trkpt>
<trkpt lat="24.869169" lon="105.160825">
<time>2015-09-27T17:02:34Z</time></trkpt>
<trkpt lat="24.869139" lon="105.160745">
<time>2015-09-27T17:02:35Z</time></trkpt>
<trkpt lat="24.869109" lon="105.160655">
<time>2015-09-27T17:02:36Z</time></trkpt>
<trkpt lat="24.869089" lon="105.160545">
<time>2015-09-27T17:02:37Z</time></trkpt>
<trkpt lat="24.869068" lon="105.160375">
<time>2015-09-27T17:02:38Z</time></trkpt>
<trkpt lat="24.869037" lon="105.159914">
<time>2015-09-27T17:02:39Z</time></trkpt>
<trkpt lat="24.869037" lon="105.159634">
<time>2015-09-27T17:02:40Z</time></trkpt>
<trkpt lat="24.869066" lon="105.159364">
<time>2015-09-27T17:02:41Z</time></trkpt>
<trkpt lat="24.869216" lon="105.158873">
<time>2015-09-27T17:02:42Z</time></trkpt>
<trkpt lat="24.869643" lon="105.157482">
<time>2015-09-27T17:02:43Z</time></trkpt>
<trkpt lat="24.869812" lon="105.156982">
<time>2015-09-27T17:02:44Z</time></trkpt>
<trkpt lat="24.870121" lon="105.156361">
<time>2015-09-27T17:02:45Z</time></trkpt>
<trkpt lat="24.87033" lon="105.155861">
<time>2015-09-27T17:02:46Z</time></trkpt>
<trkpt lat="24.870688" lon="105.15481">
<time>2015-09-27T17:02:47Z</time></trkpt>
<trkpt lat="24.871265" lon="105.153518">
<time>2015-09-27T17:02:48Z</time></trkpt>
<trkpt lat="24.871335" lon="105.153388">
<time>2015-09-27T17:02:49Z</time></trkpt>
<trkpt lat="24.871445" lon="105.153208">
<time>2015-09-27T17:02:50Z</time></trkpt>
<trkpt lat="24.871525" lon="105.153028">
<time>2015-09-27T17:02:51Z</time></trkpt>
<trkpt lat="24.871584" lon="105.152858">
<time>2015-09-27T17:02:52Z</time></trkpt>
<trkpt lat="24.871694" lon="105.152688">
<time>2015-09-27T17:02:53Z</time></trkpt>
<trkpt lat="24.871834" lon="105.152507">
<time>2015-09-27T17:02:54Z</time></trkpt>
<trkpt lat="24.871943" lon="105.152397">
<time>2015-09-27T17:02:55Z</time></trkpt>
<trkpt lat="24.872283" lon="105.152147">
<time>2015-09-27T17:02:56Z</time></trkpt>
<trkpt lat="24.872622" lon="105.151907">
<time>2015-09-27T17:02:57Z</time></trkpt>
<trkpt lat="24.872812" lon="105.151717">
<time>2015-09-27T17:02:58Z</time></trkpt>
<trkpt lat="24.872992" lon="105.151527">
<time>2015-09-27T17:02:59Z</time></trkpt>
<trkpt lat="24.873381" lon="105.150896">
<time>2015-09-27T17:03:00Z</time></trkpt>
<trkpt lat="24.87355" lon="105.150666">
<time>2015-09-27T17:03:01Z</time></trkpt>
<trkpt lat="24.873829" lon="105.150316">
<time>2015-09-27T17:03:02Z</time></trkpt>
<trkpt lat="24.873979" lon="105.150105">
<time>2015-09-27T17:03:03Z</time></trkpt>
<trkpt lat="24.874099" lon="105.149905">
<time>2015-09-27T17:03:04Z</time></trkpt>
<trkpt lat="24.874188" lon="105.149725">
<time>2015-09-27T17:03:05Z</time></trkpt>
<trkpt lat="24.874338" lon="105.149475">
<time>2015-09-27T17:03:06Z</time></trkpt>
<trkpt lat="24.874448" lon="105.149325">
<time>2015-09-27T17:03:07Z</time></trkpt>
<trkpt lat="24.874597" lon="105.149205">
<time>2015-09-27T17:03:08Z</time></trkpt>
<trkpt lat="24.874707" lon="105.149125">
<time>2015-09-27T17:03:09Z</time></trkpt>
<trkpt lat="24.874877" lon="105.149024">
<time>2015-09-27T17:03:10Z</time></trkpt>
<trkpt lat="24.875406" lon="105.148704">
<time>2015-09-27T17:03:11Z</time></trkpt>
<trkpt lat="24.875496" lon="105.148634">
<time>2015-09-27T17:03:12Z</time></trkpt>
<trkpt lat="24.875576" lon="105.148574">
<time>2015-09-27T17:03:13Z</time></trkpt>
<trkpt lat="24.875656" lon="105.148494">
<time>2015-09-27T17:03:14Z</time></trkpt>
<trkpt lat="24.875726" lon="105.148364">
<time>2015-09-27T17:03:15Z</time></trkpt>
<trkpt lat="24.875786" lon="105.148214">
<time>2015-09-27T17:03:16Z</time></trkpt>
<trkpt lat="24.875815" lon="105.148004">
<time>2015-09-27T17:03:17Z</time></trkpt>
<trkpt lat="24.875815" lon="105.147743">
<time>2015-09-27T17:03:18Z</time></trkpt>
<trkpt lat="24.875804" lon="105.147563">
<time>2015-09-27T17:03:19Z</time></trkpt>
<trkpt lat="24.875784" lon="105.147253">
<time>2015-09-27T17:03:20Z</time></trkpt>
<trkpt lat="24.875804" lon="105.147183">
<time>2015-09-27T17:03:21Z</time></trkpt>
<trkpt lat="24.875834" lon="105.147113">
<time>2015-09-27T17:03:22Z</time></trkpt>
<trkpt lat="24.875844" lon="105.147093">
<time>2015-09-27T17:03:23Z</time></trkpt>
<trkpt lat="24.875864" lon="105.147033">
<time>2015-09-27T17:03:24Z</time></trkpt>
<trkpt lat="24.875903" lon="105.146973">
<time>2015-09-27T17:03:25Z</time></trkpt>
<trkpt lat="24.875943" lon="105.146903">
<time>2015-09-27T17:03:26Z</time></trkpt>
<trkpt lat="24.876043" lon="105.146783">
<time>2015-09-27T17:03:27Z</time></trkpt>
<trkpt lat="24.876183" lon="105.146622">
<time>2015-09-27T17:03:28Z</time></trkpt>
<trkpt lat="24.876283" lon="105.146502">
<time>2015-09-27T17:03:29Z</time></trkpt>
<trkpt lat="24.876362" lon="105.146362">
<time>2015-09-27T17:03:30Z</time></trkpt>
<trkpt lat="24.876442" lon="105.146202">
<time>2015-09-27T17:03:31Z</time></trkpt>
<trkpt lat="24.876602" lon="105.145862">
<time>2015-09-27T17:03:32Z</time></trkpt>
<trkpt lat="24.87692" lon="105.145181">
<time>2015-09-27T17:03:33Z</time></trkpt>
<trkpt lat="24.87704" lon="105.144981">
<time>2015-09-27T17:03:34Z</time></trkpt>
<trkpt lat="24.8772" lon="105.144781">
<time>2015-09-27T17:03:35Z</time></trkpt>
<trkpt lat="24.877379" lon="105.144581">
<time>2015-09-27T17:03:36Z</time></trkpt>
<trkpt lat="24.877519" lon="105.144401">
<time>2015-09-27T17:03:37Z</time></trkpt>
<trkpt lat="24.877629" lon="105.144241">
<time>2015-09-27T17:03:38Z</time></trkpt>
<trkpt lat="24.877698" lon="105.144081">
<time>2015-09-27T17:03:39Z</time></trkpt>
<trkpt lat="24.877788" lon="105.14385">
<time>2015-09-27T17:03:40Z</time></trkpt>
<trkpt lat="24.877897" lon="105.14337">
<time>2015-09-27T17:03:41Z</time></trkpt>
<trkpt lat="24.877947" lon="105.14321">
<time>2015-09-27T17:03:42Z</time></trkpt>
<trkpt lat="24.878007" lon="105.1431">
<time>2015-09-27T17:03:43Z</time></trkpt>
<trkpt lat="24.878047" lon="105.14304">
<time>2015-09-27T17:03:44Z</time></trkpt>
<trkpt lat="24.878097" lon="105.143">
<time>2015-09-27T17:03:45Z</time></trkpt>
<trkpt lat="24.878167" lon="105.14296">
<time>2015-09-27T17:03:46Z</time></trkpt>
<trkpt lat="24.878246" lon="105.14294">
<time>2015-09-27T17:03:47Z</time></trkpt>
<trkpt lat="24.878296" lon="105.14294">
<time>2015-09-27T17:03:48Z</time></trkpt>
<trkpt lat="24.878346" lon="105.14294">
<time>2015-09-27T17:03:49Z</time></trkpt>
<trkpt lat="24.878386" lon="105.14294">
<time>2015-09-27T17:03:50Z</time></trkpt>
<trkpt lat="24.878736" lon="105.14299">
<time>2015-09-27T17:03:51Z</time></trkpt>
<trkpt lat="24.879277" lon="105.14309">
<time>2015-09-27T17:03:52Z</time></trkpt>
<trkpt lat="24.879407" lon="105.14311">
<time>2015-09-27T17:03:53Z</time></trkpt>
<trkpt lat="24.879457" lon="105.14311">
<time>2015-09-27T17:03:54Z</time></trkpt>
<trkpt lat="24.879517" lon="105.14311">
<time>2015-09-27T17:03:55Z</time></trkpt>
<trkpt lat="24.879587" lon="105.14309">
<time>2015-09-27T17:03:56Z</time></trkpt>
<trkpt lat="24.879656" lon="105.14305">
<time>2015-09-27T17:03:57Z</time></trkpt>
<trkpt lat="24.879706" lon="105.14302">
<time>2015-09-27T17:03:58Z</time></trkpt>
<trkpt lat="24.879746" lon="105.14299">
<time>2015-09-27T17:03:59Z</time></trkpt>
<trkpt lat="24.879796" lon="105.14294">
<time>2015-09-27T17:04:00Z</time></trkpt>
<trkpt lat="24.879836" lon="105.1429">
<time>2015-09-27T17:04:01Z</time></trkpt>
<trkpt lat="24.879876" lon="105.14283">
<time>2015-09-27T17:04:02Z</time></trkpt>
<trkpt lat="24.879916" lon="105.14277">
<time>2015-09-27T17:04:03Z</time></trkpt>
<trkpt lat="24.879966" lon="105.142669">
<time>2015-09-27T17:04:04Z</time></trkpt>
<trkpt lat="24.880016" lon="105.142539">
<time>2015-09-27T17:04:05Z</time></trkpt>
<trkpt lat="24.880026" lon="105.142529">
<time>2015-09-27T17:04:06Z</time></trkpt>
<trkpt lat="24.880514" lon="105.141299">
<time>2015-09-27T17:04:07Z</time></trkpt>
<trkpt lat="24.880603" lon="105.141078">
<time>2015-09-27T17:04:08Z</time></trkpt>
<trkpt lat="24.880693" lon="105.140908">
<time>2015-09-27T17:04:09Z</time></trkpt>
<trkpt lat="24.880842" lon="105.140648">
<time>2015-09-27T17:04:10Z</time></trkpt>
<trkpt lat="24.880972" lon="105.140418">
<time>2015-09-27T17:04:11Z</time></trkpt>
<trkpt lat="24.881012" lon="105.140348">
<time>2015-09-27T17:04:12Z</time></trkpt>
<trkpt lat="24.881102" lon="105.140158">
<time>2015-09-27T17:04:13Z</time></trkpt>
<trkpt lat="24.881181" lon="105.139978">
<time>2015-09-27T17:04:14Z</time></trkpt>
<trkpt lat="24.881271" lon="105.139748">
<time>2015-09-27T17:04:15Z</time></trkpt>
<trkpt lat="24.8814" lon="105.139377">
<time>2015-09-27T17:04:16Z</time></trkpt>
<trkpt lat="24.88155" lon="105.139047">
<time>2015-09-27T17:04:17Z</time></trkpt>
<trkpt lat="24.881699" lon="105.138767">
<time>2015-09-27T17:04:18Z</time></trkpt>
<trkpt lat="24.881899" lon="105.138477">
<time>2015-09-27T17:04:19Z</time></trkpt>
<trkpt lat="24.882089" lon="105.138217">
<time>2015-09-27T17:04:20Z</time></trkpt>
<trkpt lat="24.882807" lon="105.137396">
<time>2015-09-27T17:04:21Z</time></trkpt>
<trkpt lat="24.883087" lon="105.137086">
<time>2015-09-27T17:04:22Z</time></trkpt>
<trkpt lat="24.883296" lon="105.136876">
<time>2015-09-27T17:04:23Z</time></trkpt>
<trkpt lat="24.883416" lon="105.136766">
<time>2015-09-27T17:04:24Z</time></trkpt>
<trkpt lat="24.883666" lon="105.136566">
<time>2015-09-27T17:04:25Z</time></trkpt>
<trkpt lat="24.883886" lon="105.136406">
<time>2015-09-27T17:04:26Z</time></trkpt>
<trkpt lat="24.884095" lon="105.136255">
<time>2015-09-27T17:04:27Z</time></trkpt>
<trkpt lat="24.884445" lon="105.136045">
<time>2015-09-27T17:04:28Z</time></trkpt>
<trkpt lat="24.884765" lon="105.135865">
<time>2015-09-27T17:04:29Z</time></trkpt>
<trkpt lat="24.884935" lon="105.135785">
<time>2015-09-27T17:04:30Z</time></trkpt>
<trkpt lat="24.885224" lon="105.135655">
<time>2015-09-27T17:04:31Z</time></trkpt>
<trkpt lat="24.885444" lon="105.135535">
<time>2015-09-27T17:04:32Z</time></trkpt>
<trkpt lat="24.885544" lon="105.135485">
<time>2015-09-27T17:04:33Z</time></trkpt>
<trkpt lat="24.885644" lon="105.135425">
<time>2015-09-27T17:04:34Z</time></trkpt>
<trkpt lat="24.885734" lon="105.135365">
<time>2015-09-27T17:04:35Z</time></trkpt>
<trkpt lat="24.885824" lon="105.135285">
<time>2015-09-27T17:04:36Z</time></trkpt>
<trkpt lat="24.885924" lon="105.135175">
<time>2015-09-27T17:04:37Z</time></trkpt>
<trkpt lat="24.886023" lon="105.135035">
<time>2015-09-27T17:04:38Z</time></trkpt>
<trkpt lat="24.886103" lon="105.134925">
<time>2015-09-27T17:04:39Z</time></trkpt>
<trkpt lat="24.886193" lon="105.134785">
<time>2015-09-27T17:04:40Z</time></trkpt>
<trkpt lat="24.886333" lon="105.134514">
<time>2015-09-27T17:04:41Z</time></trkpt>
<trkpt lat="24.887011" lon="105.133124">
<time>2015-09-27T17:04:42Z</time></trkpt>
<trkpt lat="24.887539" lon="105.132073">
<time>2015-09-27T17:04:43Z</time></trkpt>
<trkpt lat="24.887609" lon="105.131933">
<time>2015-09-27T17:04:44Z</time></trkpt>
<trkpt lat="24.887689" lon="105.131803">
<time>2015-09-27T17:04:45Z</time></trkpt>
<trkpt lat="24.887768" lon="105.131673">
<time>2015-09-27T17:04:46Z</time></trkpt>
<trkpt lat="24.887898" lon="105.131503">
<time>2015-09-27T17:04:47Z</time></trkpt>
<trkpt lat="24.888248" lon="105.131063">
<time>2015-09-27T17:04:48Z</time></trkpt>
<trkpt lat="24.888437" lon="105.130843">
<time>2015-09-27T17:04:49Z</time></trkpt>
<trkpt lat="24.888537" lon="105.130743">
<time>2015-09-27T17:04:50Z</time></trkpt>
<trkpt lat="24.888627" lon="105.130673">
<time>2015-09-27T17:04:51Z</time></trkpt>
<trkpt lat="24.888747" lon="105.130603">
<time>2015-09-27T17:04:52Z</time></trkpt>
<trkpt lat="24.888837" lon="105.130573">
<time>2015-09-27T17:04:53Z</time></trkpt>
<trkpt lat="24.888957" lon="105.130553">
<time>2015-09-27T17:04:54Z</time></trkpt>
<trkpt lat="24.889097" lon="105.130543">
<time>2015-09-27T17:04:55Z</time></trkpt>
<trkpt lat="24.889297" lon="105.130513">
<time>2015-09-27T17:04:56Z</time></trkpt>
<trkpt lat="24.889417" lon="105.130473">
<time>2015-09-27T17:04:57Z</time></trkpt>
<trkpt lat="24.889517" lon="105.130433">
<time>2015-09-27T17:04:58Z</time></trkpt>
<trkpt lat="24.889616" lon="105.130353">
<time>2015-09-27T17:04:59Z</time></trkpt>
<trkpt lat="24.889696" lon="105.130263">
<time>2015-09-27T17:05:00Z</time></trkpt>
<trkpt lat="24.889756" lon="105.130143">
<time>2015-09-27T17:05:01Z</time></trkpt>
<trkpt lat="24.889806" lon="105.130043">
<time>2015-09-27T17:05:02Z</time></trkpt>
<trkpt lat="24.889836" lon="105.129912">
<time>2015-09-27T17:05:03Z</time></trkpt>
<trkpt lat="24.889876" lon="105.129732">
<time>2015-09-27T17:05:04Z</time></trkpt>
<trkpt lat="24.889925" lon="105.129352">
<time>2015-09-27T17:05:05Z</time></trkpt>
<trkpt lat="24.890223" lon="105.127422">
<time>2015-09-27T17:05:06Z</time></trkpt>
<trkpt lat="24.890302" lon="105.126942">
<time>2015-09-27T17:05:07Z</time></trkpt>
<trkpt lat="24.890411" lon="105.126522">
<time>2015-09-27T17:05:08Z</time></trkpt>
<trkpt lat="24.89095" lon="105.125011">
<time>2015-09-27T17:05:09Z</time></trkpt>
<trkpt lat="24.891189" lon="105.124231">
<time>2015-09-27T17:05:10Z</time></trkpt>
<trkpt lat="24.891328" lon="105.123871">
<time>2015-09-27T17:05:11Z</time></trkpt>
<trkpt lat="24.891478" lon="105.123591">
<time>2015-09-27T17:05:12Z</time></trkpt>
<trkpt lat="24.892177" lon="105.122651">
<time>2015-09-27T17:05:13Z</time></trkpt>
<trkpt lat="24.892327" lon="105.122441">
<time>2015-09-27T17:05:14Z</time></trkpt>
<trkpt lat="24.892366" lon="105.122361">
<time>2015-09-27T17:05:15Z</time></trkpt>
<trkpt lat="24.892366" lon="105.122291">
<time>2015-09-27T17:05:16Z</time></trkpt>
<trkpt lat="24.892366" lon="105.122171">
<time>2015-09-27T17:05:17Z</time></trkpt>
<trkpt lat="24.892356" lon="105.122101">
<time>2015-09-27T17:05:18Z</time></trkpt>
<trkpt lat="24.892316" lon="105.122011">
<time>2015-09-27T17:05:19Z</time></trkpt>
<trkpt lat="24.892236" lon="105.121841">
<time>2015-09-27T17:05:20Z</time></trkpt>
<trkpt lat="24.892026" lon="105.121511">
<time>2015-09-27T17:05:21Z</time></trkpt>
<trkpt lat="24.891915" lon="105.121301">
<time>2015-09-27T17:05:22Z</time></trkpt>
<trkpt lat="24.891815" lon="105.121111">
<time>2015-09-27T17:05:23Z</time></trkpt>
<trkpt lat="24.891765" lon="105.120991">
<time>2015-09-27T17:05:24Z</time></trkpt>
<trkpt lat="24.891745" lon="105.120911">
<time>2015-09-27T17:05:25Z</time></trkpt>
<trkpt lat="24.891735" lon="105.120821">
<time>2015-09-27T17:05:26Z</time></trkpt>
<trkpt lat="24.891755" lon="105.120711">
<time>2015-09-27T17:05:27Z</time></trkpt>
<trkpt lat="24.891785" lon="105.120611">
<time>2015-09-27T17:05:28Z</time></trkpt>
<trkpt lat="24.891835" lon="105.120511">
<time>2015-09-27T17:05:29Z</time></trkpt>
<trkpt lat="24.891895" lon="105.120451">
<time>2015-09-27T17:05:30Z</time></trkpt>
<trkpt lat="24.891964" lon="105.120391">
<time>2015-09-27T17:05:31Z</time></trkpt>
<trkpt lat="24.892054" lon="105.120341">
<time>2015-09-27T17:05:32Z</time></trkpt>
<trkpt lat="24.892204" lon="105.120311">
<time>2015-09-27T17:05:33Z</time></trkpt>
<trkpt lat="24.892324" lon="105.120301">
<time>2015-09-27T17:05:34Z</time></trkpt>
<trkpt lat="24.892474" lon="105.120291">
<time>2015-09-27T17:05:35Z</time></trkpt>
<trkpt lat="24.893254" lon="105.120281">
<time>2015-09-27T17:05:36Z</time></trkpt>
<trkpt lat="24.893654" lon="105.120291">
<time>2015-09-27T17:05:37Z</time></trkpt>
<trkpt lat="24.893834" lon="105.120271">
<time>2015-09-27T17:05:38Z</time></trkpt>
<trkpt lat="24.893984" lon="105.120231">
<time>2015-09-27T17:05:39Z</time></trkpt>
<trkpt lat="24.894104" lon="105.120191">
<time>2015-09-27T17:05:40Z</time></trkpt>
<trkpt lat="24.894204" lon="105.120141">
<time>2015-09-27T17:05:41Z</time></trkpt>
<trkpt lat="24.894284" lon="105.120071">
<time>2015-09-27T17:05:42Z</time></trkpt>
<trkpt lat="24.894384" lon="105.119991">
<time>2015-09-27T17:05:43Z</time></trkpt>
<trkpt lat="24.894434" lon="105.119921">
<time>2015-09-27T17:05:44Z</time></trkpt>
<trkpt lat="24.894484" lon="105.119821">
<time>2015-09-27T17:05:45Z</time></trkpt>
<trkpt lat="24.894514" lon="105.119721">
<time>2015-09-27T17:05:46Z</time></trkpt>
<trkpt lat="24.894533" lon="105.119611">
<time>2015-09-27T17:05:47Z</time></trkpt>
<trkpt lat="24.894553" lon="105.119441">
<time>2015-09-27T17:05:48Z</time></trkpt>
<trkpt lat="24.894553" lon="105.118871">
<time>2015-09-27T17:05:49Z</time></trkpt>
<trkpt lat="24.894562" lon="105.118671">
<time>2015-09-27T17:05:50Z</time></trkpt>
<trkpt lat="24.894572" lon="105.118581">
<time>2015-09-27T17:05:51Z</time></trkpt>
<trkpt lat="24.894612" lon="105.118471">
<time>2015-09-27T17:05:52Z</time></trkpt>
<trkpt lat="24.894662" lon="105.118371">
<time>2015-09-27T17:05:53Z</time></trkpt>
<trkpt lat="24.894742" lon="105.118281">
<time>2015-09-27T17:05:54Z</time></trkpt>
<trkpt lat="24.894822" lon="105.118221">
<time>2015-09-27T17:05:55Z</time></trkpt>
<trkpt lat="24.894922" lon="105.118161">
<time>2015-09-27T17:05:56Z</time></trkpt>
<trkpt lat="24.895032" lon="105.118121">
<time>2015-09-27T17:05:57Z</time></trkpt>
<trkpt lat="24.895981" lon="105.117791">
<time>2015-09-27T17:05:58Z</time></trkpt>
<trkpt lat="24.896071" lon="105.117741">
<time>2015-09-27T17:05:59Z</time></trkpt>
<trkpt lat="24.896141" lon="105.117691">
<time>2015-09-27T17:06:00Z</time></trkpt>
<trkpt lat="24.896201" lon="105.117641">
<time>2015-09-27T17:06:01Z</time></trkpt>
<trkpt lat="24.896231" lon="105.117561">
<time>2015-09-27T17:06:02Z</time></trkpt>
<trkpt lat="24.896261" lon="105.117481">
<time>2015-09-27T17:06:03Z</time></trkpt>
<trkpt lat="24.896261" lon="105.117401">
<time>2015-09-27T17:06:04Z</time></trkpt>
<trkpt lat="24.896241" lon="105.117321">
<time>2015-09-27T17:06:05Z</time></trkpt>
<trkpt lat="24.896201" lon="105.117241">
<time>2015-09-27T17:06:06Z</time></trkpt>
<trkpt lat="24.896141" lon="105.117151">
<time>2015-09-27T17:06:07Z</time></trkpt>
<trkpt lat="24.89568" lon="105.116621">
<time>2015-09-27T17:06:08Z</time></trkpt>
<trkpt lat="24.89561" lon="105.116521">
<time>2015-09-27T17:06:09Z</time></trkpt>
<trkpt lat="24.89557" lon="105.116441">
<time>2015-09-27T17:06:10Z</time></trkpt>
<trkpt lat="24.89555" lon="105.116351">
<time>2015-09-27T17:06:11Z</time></trkpt>
<trkpt lat="24.89555" lon="105.116281">
<time>2015-09-27T17:06:12Z</time></trkpt>
<trkpt lat="24.89557" lon="105.116201">
<time>2015-09-27T17:06:13Z</time></trkpt>
<trkpt lat="24.8956" lon="105.116121">
<time>2015-09-27T17:06:14Z</time></trkpt>
<trkpt lat="24.89566" lon="105.116041">
<time>2015-09-27T17:06:15Z</time></trkpt>
<trkpt lat="24.89574" lon="105.115971">
<time>2015-09-27T17:06:16Z</time></trkpt>
<trkpt lat="24.89597" lon="105.115801">
<time>2015-09-27T17:06:17Z</time></trkpt>
<trkpt lat="24.896689" lon="105.115291">
<time>2015-09-27T17:06:18Z</time></trkpt>
<trkpt lat="24.896789" lon="105.115221">
<time>2015-09-27T17:06:19Z</time></trkpt>
<trkpt lat="24.896859" lon="105.115131">
<time>2015-09-27T17:06:20Z</time></trkpt>
<trkpt lat="24.896909" lon="105.115051">
<time>2015-09-27T17:06:21Z</time></trkpt>
<trkpt lat="24.896949" lon="105.114961">
<time>2015-09-27T17:06:22Z</time></trkpt>
<trkpt lat="24.896969" lon="105.114851">
<time>2015-09-27T17:06:23Z</time></trkpt>
<trkpt lat="24.896979" lon="105.114711">
<time>2015-09-27T17:06:24Z</time></trkpt>
<trkpt lat="24.896979" lon="105.114581">
<time>2015-09-27T17:06:25Z</time></trkpt>
<trkpt lat="24.896939" lon="105.114441">
<time>2015-09-27T17:06:26Z</time></trkpt>
<trkpt lat="24.896888" lon="105.114291">
<time>2015-09-27T17:06:27Z</time></trkpt>
<trkpt lat="24.896808" lon="105.114101">
<time>2015-09-27T17:06:28Z</time></trkpt>
<trkpt lat="24.896688" lon="105.113832">
<time>2015-09-27T17:06:29Z</time></trkpt>
<trkpt lat="24.896558" lon="105.113582">
<time>2015-09-27T17:06:30Z</time></trkpt>
<trkpt lat="24.896498" lon="105.113402">
<time>2015-09-27T17:06:31Z</time></trkpt>
<trkpt lat="24.896458" lon="105.113252">
<time>2015-09-27T17:06:32Z</time></trkpt>
<trkpt lat="24.896438" lon="105.113102">
<time>2015-09-27T17:06:33Z</time></trkpt>
<trkpt lat="24.896447" lon="105.112972">
<time>2015-09-27T17:06:34Z</time></trkpt>
<trkpt lat="24.896477" lon="105.112842">
<time>2015-09-27T17:06:35Z</time></trkpt>
<trkpt lat="24.896517" lon="105.112762">
<time>2015-09-27T17:06:36Z</time></trkpt>
<trkpt lat="24.896567" lon="105.112662">
<time>2015-09-27T17:06:37Z</time></trkpt>
<trkpt lat="24.896647" lon="105.112562">
<time>2015-09-27T17:06:38Z</time></trkpt>
<trkpt lat="24.896717" lon="105.112492">
<time>2015-09-27T17:06:39Z</time></trkpt>
<trkpt lat="24.897527" lon="105.111942">
<time>2015-09-27T17:06:40Z</time></trkpt>
<trkpt lat="24.897716" lon="105.111802">
<time>2015-09-27T17:06:41Z</time></trkpt>
<trkpt lat="24.897836" lon="105.111702">
<time>2015-09-27T17:06:42Z</time></trkpt>
<trkpt lat="24.897906" lon="105.111632">
<time>2015-09-27T17:06:43Z</time></trkpt>
<trkpt lat="24.897966" lon="105.111522">
<time>2015-09-27T17:06:44Z</time></trkpt>
<trkpt lat="24.898006" lon="105.111412">
<time>2015-09-27T17:06:45Z</time></trkpt>
<trkpt lat="24.898026" lon="105.111292">
<time>2015-09-27T17:06:46Z</time></trkpt>
<trkpt lat="24.898036" lon="105.111152">
<time>2015-09-27T17:06:47Z</time></trkpt>
<trkpt lat="24.898026" lon="105.111052">
<time>2015-09-27T17:06:48Z</time></trkpt>
<trkpt lat="24.897996" lon="105.110932">
<time>2015-09-27T17:06:49Z</time></trkpt>
<trkpt lat="24.897946" lon="105.110802">
<time>2015-09-27T17:06:50Z</time></trkpt>
<trkpt lat="24.897655" lon="105.110243">
<time>2015-09-27T17:06:51Z</time></trkpt>
<trkpt lat="24.897365" lon="105.109673">
<time>2015-09-27T17:06:52Z</time></trkpt>
<trkpt lat="24.897245" lon="105.109423">
<time>2015-09-27T17:06:53Z</time></trkpt>
<trkpt lat="24.897195" lon="105.109283">
<time>2015-09-27T17:06:54Z</time></trkpt>
<trkpt lat="24.897175" lon="105.109183">
<time>2015-09-27T17:06:55Z</time></trkpt>
<trkpt lat="24.897165" lon="105.109083">
<time>2015-09-27T17:06:56Z</time></trkpt>
<trkpt lat="24.897175" lon="105.108973">
<time>2015-09-27T17:06:57Z</time></trkpt>
<trkpt lat="24.897195" lon="105.108863">
<time>2015-09-27T17:06:58Z</time></trkpt>
<trkpt lat="24.897245" lon="105.108743">
<time>2015-09-27T17:06:59Z</time></trkpt>
<trkpt lat="24.897354" lon="105.108584">
<time>2015-09-27T17:07:00Z</time></trkpt>
<trkpt lat="24.897484" lon="105.108434">
<time>2015-09-27T17:07:01Z</time></trkpt>
<trkpt lat="24.897704" lon="105.108254">
<time>2015-09-27T17:07:02Z</time></trkpt>
<trkpt lat="24.898074" lon="105.107934">
<time>2015-09-27T17:07:03Z</time></trkpt>
<trkpt lat="24.899483" lon="105.106714">
<time>2015-09-27T17:07:04Z</time></trkpt>
<trkpt lat="24.899953" lon="105.106325">
<time>2015-09-27T17:07:05Z</time></trkpt>
<trkpt lat="24.900443" lon="105.105945">
<time>2015-09-27T17:07:06Z</time></trkpt>
<trkpt lat="24.900753" lon="105.105705">
<time>2015-09-27T17:07:07Z</time></trkpt>
<trkpt lat="24.901002" lon="105.105535">
<time>2015-09-27T17:07:08Z</time></trkpt>
<trkpt lat="24.901272" lon="105.105395">
<time>2015-09-27T17:07:09Z</time></trkpt>
<trkpt lat="24.901482" lon="105.105335">
<time>2015-09-27T17:07:10Z</time></trkpt>
<trkpt lat="24.901582" lon="105.105315">
<time>2015-09-27T17:07:11Z</time></trkpt>
<trkpt lat="24.901692" lon="105.105295">
<time>2015-09-27T17:07:12Z</time></trkpt>
<trkpt lat="24.901792" lon="105.105275">
<time>2015-09-27T17:07:13Z</time></trkpt>
<trkpt lat="24.902062" lon="105.105265">
<time>2015-09-27T17:07:14Z</time></trkpt>
<trkpt lat="24.902262" lon="105.105235">
<time>2015-09-27T17:07:15Z</time></trkpt>
<trkpt lat="24.902432" lon="105.105205">
<time>2015-09-27T17:07:16Z</time></trkpt>
<trkpt lat="24.902592" lon="105.105145">
<time>2015-09-27T17:07:17Z</time></trkpt>
<trkpt lat="24.902712" lon="105.105085">
<time>2015-09-27T17:07:18Z</time></trkpt>
<trkpt lat="24.902822" lon="105.105015">
<time>2015-09-27T17:07:19Z</time></trkpt>
<trkpt lat="24.902962" lon="105.104895">
<time>2015-09-27T17:07:20Z</time></trkpt>
<trkpt lat="24.904071" lon="105.103936">
<time>2015-09-27T17:07:21Z</time></trkpt>
<trkpt lat="24.904301" lon="105.103726">
<time>2015-09-27T17:07:22Z</time></trkpt>
<trkpt lat="24.904531" lon="105.103486">
<time>2015-09-27T17:07:23Z</time></trkpt>
<trkpt lat="24.904531" lon="105.103237">
<time>2015-09-27T17:07:24Z</time></trkpt>
<trkpt lat="24.904531" lon="105.103087">
<time>2015-09-27T17:07:25Z</time></trkpt>
<trkpt lat="24.904501" lon="105.102877">
<time>2015-09-27T17:07:26Z</time></trkpt>
<trkpt lat="24.904401" lon="105.102187">
<time>2015-09-27T17:07:27Z</time></trkpt>
<trkpt lat="24.904361" lon="105.101898">
<time>2015-09-27T17:07:28Z</time></trkpt>
<trkpt lat="24.904361" lon="105.101768">
<time>2015-09-27T17:07:29Z</time></trkpt>
<trkpt lat="24.904361" lon="105.101648">
<time>2015-09-27T17:07:30Z</time></trkpt>
<trkpt lat="24.904391" lon="105.101528">
<time>2015-09-27T17:07:31Z</time></trkpt>
<trkpt lat="24.904431" lon="105.101408">
<time>2015-09-27T17:07:32Z</time></trkpt>
<trkpt lat="24.904481" lon="105.101308">
<time>2015-09-27T17:07:33Z</time></trkpt>
<trkpt lat="24.90455" lon="105.101218">
<time>2015-09-27T17:07:34Z</time></trkpt>
<trkpt lat="24.90464" lon="105.101118">
<time>2015-09-27T17:07:35Z</time></trkpt>
<trkpt lat="24.90472" lon="105.101048">
<time>2015-09-27T17:07:36Z</time></trkpt>
<trkpt lat="24.90482" lon="105.100988">
<time>2015-09-27T17:07:37Z</time></trkpt>
<trkpt lat="24.90492" lon="105.100938">
<time>2015-09-27T17:07:38Z</time></trkpt>
<trkpt lat="24.90499" lon="105.100928">
<time>2015-09-27T17:07:39Z</time></trkpt>
<trkpt lat="24.90505" lon="105.100908">
<time>2015-09-27T17:07:40Z</time></trkpt>
<trkpt lat="24.90518" lon="105.100908">
<time>2015-09-27T17:07:41Z</time></trkpt>
<trkpt lat="24.90526" lon="105.100908">
<time>2015-09-27T17:07:42Z</time></trkpt>
<trkpt lat="24.90542" lon="105.100928">
<time>2015-09-27T17:07:43Z</time></trkpt>
<trkpt lat="24.90572" lon="105.100998">
<time>2015-09-27T17:07:44Z</time></trkpt>
<trkpt lat="24.90626" lon="105.101108">
<time>2015-09-27T17:07:45Z</time></trkpt>
<trkpt lat="24.90646" lon="105.101148">
<time>2015-09-27T17:07:46Z</time></trkpt>
<trkpt lat="24.90659" lon="105.101188">
<time>2015-09-27T17:07:47Z</time></trkpt>
<trkpt lat="24.90673" lon="105.101238">
<time>2015-09-27T17:07:48Z</time></trkpt>
<trkpt lat="24.90686" lon="105.101288">
<time>2015-09-27T17:07:49Z</time></trkpt>
<trkpt lat="24.907" lon="105.101348">
<time>2015-09-27T17:07:50Z</time></trkpt>
<trkpt lat="24.90795" lon="105.101887">
<time>2015-09-27T17:07:51Z</time></trkpt>
<trkpt lat="24.9081" lon="105.101967">
<time>2015-09-27T17:07:52Z</time></trkpt>
<trkpt lat="24.90821" lon="105.102007">
<time>2015-09-27T17:07:53Z</time></trkpt>
<trkpt lat="24.90835" lon="105.102047">
<time>2015-09-27T17:07:54Z</time></trkpt>
<trkpt lat="24.90851" lon="105.102077">
<time>2015-09-27T17:07:55Z</time></trkpt>
<trkpt lat="24.9087" lon="105.102097">
<time>2015-09-27T17:07:56Z</time></trkpt>
<trkpt lat="24.90891" lon="105.102117">
<time>2015-09-27T17:07:57Z</time></trkpt>
<trkpt lat="24.90924" lon="105.102157">
<time>2015-09-27T17:07:58Z</time></trkpt>
<trkpt lat="24.90937" lon="105.102187">
<time>2015-09-27T17:07:59Z</time></trkpt>
<trkpt lat="24.90949" lon="105.102217">
<time>2015-09-27T17:08:00Z</time></trkpt>
<trkpt lat="24.90959" lon="105.102247">
<time>2015-09-27T17:08:01Z</time></trkpt>
<trkpt lat="24.90971" lon="105.102307">
<time>2015-09-27T17:08:02Z</time></trkpt>
<trkpt lat="24.90987" lon="105.102397">
<time>2015-09-27T17:08:03Z</time></trkpt>
<trkpt lat="24.91002" lon="105.102477">
<time>2015-09-27T17:08:04Z</time></trkpt>
<trkpt lat="24.91013" lon="105.102517">
<time>2015-09-27T17:08:05Z</time></trkpt>
<trkpt lat="24.91024" lon="105.102557">
<time>2015-09-27T17:08:06Z</time></trkpt>
<trkpt lat="24.91034" lon="105.102577">
<time>2015-09-27T17:08:07Z</time></trkpt>
<trkpt lat="24.91045" lon="105.102567">
<time>2015-09-27T17:08:08Z</time></trkpt>
<trkpt lat="24.91057" lon="105.102547">
<time>2015-09-27T17:08:09Z</time></trkpt>
<trkpt lat="24.9107" lon="105.102507">
<time>2015-09-27T17:08:10Z</time></trkpt>
<trkpt lat="24.91094" lon="105.102407">
<time>2015-09-27T17:08:11Z</time></trkpt>
<trkpt lat="24.91119" lon="105.102287">
<time>2015-09-27T17:08:12Z</time></trkpt>
<trkpt lat="24.91133" lon="105.102227">
<time>2015-09-27T17:08:13Z</time></trkpt>
<trkpt lat="24.91142" lon="105.102207">
<time>2015-09-27T17:08:14Z</time></trkpt>
<trkpt lat="24.91151" lon="105.102197">
<time>2015-09-27T17:08:15Z</time></trkpt>
<trkpt lat="24.91165" lon="105.102187">
<time>2015-09-27T17:08:16Z</time></trkpt>
<trkpt lat="24.91174" lon="105.102157">
<time>2015-09-27T17:08:17Z</time></trkpt>
<trkpt lat="24.91185" lon="105.102097">
<time>2015-09-27T17:08:18Z</time></trkpt>
<trkpt lat="24.91202" lon="105.101997">
<time>2015-09-27T17:08:19Z</time></trkpt>
<trkpt lat="24.91219" lon="105.101887">
<time>2015-09-27T17:08:20Z</time></trkpt>
<trkpt lat="24.91239" lon="105.101797">
<time>2015-09-27T17:08:21Z</time></trkpt>
<trkpt lat="24.91254" lon="105.101747">
<time>2015-09-27T17:08:22Z</time></trkpt>
<trkpt lat="24.91267" lon="105.101707">
<time>2015-09-27T17:08:23Z</time></trkpt>
<trkpt lat="24.91277" lon="105.101707">
<time>2015-09-27T17:08:24Z</time></trkpt>
<trkpt lat="24.91286" lon="105.101707">
<time>2015-09-27T17:08:25Z</time></trkpt>
<trkpt lat="24.91296" lon="105.101727">
<time>2015-09-27T17:08:26Z</time></trkpt>
<trkpt lat="24.91316" lon="105.101747">
<time>2015-09-27T17:08:27Z</time></trkpt>
<trkpt lat="24.9133" lon="105.101757">
<time>2015-09-27T17:08:28Z</time></trkpt>
<trkpt lat="24.91352" lon="105.101737">
<time>2015-09-27T17:08:29Z</time></trkpt>
<trkpt lat="24.913819" lon="105.101687">
<time>2015-09-27T17:08:30Z</time></trkpt>
<trkpt lat="24.914319" lon="105.101607">
<time>2015-09-27T17:08:31Z</time></trkpt>
<trkpt lat="24.914549" lon="105.101557">
<time>2015-09-27T17:08:32Z</time></trkpt>
<trkpt lat="24.914679" lon="105.101537">
<time>2015-09-27T17:08:33Z</time></trkpt>
<trkpt lat="24.914779" lon="105.101557">
<time>2015-09-27T17:08:34Z</time></trkpt>
<trkpt lat="24.914849" lon="105.101577">
<time>2015-09-27T17:08:35Z</time></trkpt>
<trkpt lat="24.914919" lon="105.101607">
<time>2015-09-27T17:08:36Z</time></trkpt>
<trkpt lat="24.914989" lon="105.101657">
<time>2015-09-27T17:08:37Z</time></trkpt>
<trkpt lat="24.915269" lon="105.101917">
<time>2015-09-27T17:08:38Z</time></trkpt>
<trkpt lat="24.915389" lon="105.102047">
<time>2015-09-27T17:08:39Z</time></trkpt>
<trkpt lat="24.915449" lon="105.102137">
<time>2015-09-27T17:08:40Z</time></trkpt>
<trkpt lat="24.915479" lon="105.102187">
<time>2015-09-27T17:08:41Z</time></trkpt>
<trkpt lat="24.915519" lon="105.102267">
<time>2015-09-27T17:08:42Z</time></trkpt>
<trkpt lat="24.915569" lon="105.102387">
<time>2015-09-27T17:08:43Z</time></trkpt>
<trkpt lat="24.915589" lon="105.102467">
<time>2015-09-27T17:08:44Z</time></trkpt>
<trkpt lat="24.915619" lon="105.102517">
<time>2015-09-27T17:08:45Z</time></trkpt>
<trkpt lat="24.915649" lon="105.102567">
<time>2015-09-27T17:08:46Z</time></trkpt>
<trkpt lat="24.915679" lon="105.102596">
<time>2015-09-27T17:08:47Z</time></trkpt>
<trkpt lat="24.915719" lon="105.102616">
<time>2015-09-27T17:08:48Z</time></trkpt>
<trkpt lat="24.915759" lon="105.102636">
<time>2015-09-27T17:08:49Z</time></trkpt>
<trkpt lat="24.915809" lon="105.102626">
<time>2015-09-27T17:08:50Z</time></trkpt>
<trkpt lat="24.915869" lon="105.102606">
<time>2015-09-27T17:08:51Z</time></trkpt>
<trkpt lat="24.915919" lon="105.102576">
<time>2015-09-27T17:08:52Z</time></trkpt>
<trkpt lat="24.915949" lon="105.102517">
<time>2015-09-27T17:08:53Z</time></trkpt>
<trkpt lat="24.915989" lon="105.102437">
<time>2015-09-27T17:08:54Z</time></trkpt>
<trkpt lat="24.916019" lon="105.102347">
<time>2015-09-27T17:08:55Z</time></trkpt>
<trkpt lat="24.916059" lon="105.102207">
<time>2015-09-27T17:08:56Z</time></trkpt>
<trkpt lat="24.916109" lon="105.102097">
<time>2015-09-27T17:08:57Z</time></trkpt>
<trkpt lat="24.916169" lon="105.101987">
<time>2015-09-27T17:08:58Z</time></trkpt>
<trkpt lat="24.916229" lon="105.101917">
<time>2015-09-27T17:08:59Z</time></trkpt>
<trkpt lat="24.916319" lon="105.101847">
<time>2015-09-27T17:09:00Z</time></trkpt>
<trkpt lat="24.916409" lon="105.101807">
<time>2015-09-27T17:09:01Z</time></trkpt>
<trkpt lat="24.916479" lon="105.101797">
<time>2015-09-27T17:09:02Z</time></trkpt>
<trkpt lat="24.916549" lon="105.101787">
<time>2015-09-27T17:09:03Z</time></trkpt>
<trkpt lat="24.916679" lon="105.101807">
<time>2015-09-27T17:09:04Z</time></trkpt>
<trkpt lat="24.916749" lon="105.101827">
<time>2015-09-27T17:09:05Z</time></trkpt>
<trkpt lat="24.916819" lon="105.101837">
<time>2015-09-27T17:09:06Z</time></trkpt>
<trkpt lat="24.916889" lon="105.101847">
<time>2015-09-27T17:09:07Z</time></trkpt>
<trkpt lat="24.916939" lon="105.101837">
<time>2015-09-27T17:09:08Z</time></trkpt>
<trkpt lat="24.916989" lon="105.101817">
<time>2015-09-27T17:09:09Z</time></trkpt>
<trkpt lat="24.917039" lon="105.101807">
<time>2015-09-27T17:09:10Z</time></trkpt>
<trkpt lat="24.917219" lon="105.101717">
<time>2015-09-27T17:09:11Z</time></trkpt>
<trkpt lat="24.917269" lon="105.101697">
<time>2015-09-27T17:09:12Z</time></trkpt>
<trkpt lat="24.917319" lon="105.101677">
<time>2015-09-27T17:09:13Z</time></trkpt>
<trkpt lat="24.917349" lon="105.101677">
<time>2015-09-27T17:09:14Z</time></trkpt>
<trkpt lat="24.917379" lon="105.101677">
<time>2015-09-27T17:09:15Z</time></trkpt>
<trkpt lat="24.917409" lon="105.101677">
<time>2015-09-27T17:09:16Z</time></trkpt>
<trkpt lat="24.917439" lon="105.101677">
<time>2015-09-27T17:09:17Z</time></trkpt>
<trkpt lat="24.917459" lon="105.101687">
<time>2015-09-27T17:09:18Z</time></trkpt>
<trkpt lat="24.917489" lon="105.101697">
<time>2015-09-27T17:09:19Z</time></trkpt>
<trkpt lat="24.917519" lon="105.101717">
<time>2015-09-27T17:09:20Z</time></trkpt>
<trkpt lat="24.917539" lon="105.101737">
<time>2015-09-27T17:09:21Z</time></trkpt>
<trkpt lat="24.917669" lon="105.101847">
<time>2015-09-27T17:09:22Z</time></trkpt>
<trkpt lat="24.917719" lon="105.101887">
<time>2015-09-27T17:09:23Z</time></trkpt>
<trkpt lat="24.917759" lon="105.101917">
<time>2015-09-27T17:09:24Z</time></trkpt>
<trkpt lat="24.917779" lon="105.101917">
<time>2015-09-27T17:09:25Z</time></trkpt>
<trkpt lat="24.917799" lon="105.101927">
<time>2015-09-27T17:09:26Z</time></trkpt>
<trkpt lat="24.917839" lon="105.101927">
<time>2015-09-27T17:09:27Z</time></trkpt>
<trkpt lat="24.917869" lon="105.101927">
<time>2015-09-27T17:09:28Z</time></trkpt>
<trkpt lat="24.917909" lon="105.101927">
<time>2015-09-27T17:09:29Z</time></trkpt>
<trkpt lat="24.917999" lon="105.101897">
<time>2015-09-27T17:09:30Z</time></trkpt>
<trkpt lat="24.918139" lon="105.101857">
<time>2015-09-27T17:09:31Z</time></trkpt>
<trkpt lat="24.918179" lon="105.101847">
<time>2015-09-27T17:09:32Z</time></trkpt>
<trkpt lat="24.918209" lon="105.101847">
<time>2015-09-27T17:09:33Z</time></trkpt>
<trkpt lat="24.918229" lon="105.101847">
<time>2015-09-27T17:09:34Z</time></trkpt>
<trkpt lat="24.918259" lon="105.101847">
<time>2015-09-27T17:09:35Z</time></trkpt>
<trkpt lat="24.918289" lon="105.101847">
<time>2015-09-27T17:09:36Z</time></trkpt>
<trkpt lat="24.918309" lon="105.101857">
<time>2015-09-27T17:09:37Z</time></trkpt>
<trkpt lat="24.918339" lon="105.101867">
<time>2015-09-27T17:09:38Z</time></trkpt>
<trkpt lat="24.918359" lon="105.101877">
<time>2015-09-27T17:09:39Z</time></trkpt>
<trkpt lat="24.918419" lon="105.101927">
<time>2015-09-27T17:09:40Z</time></trkpt>
<trkpt lat="24.918489" lon="105.101987">
<time>2015-09-27T17:09:41Z</time></trkpt>
<trkpt lat="24.918559" lon="105.102037">
<time>2015-09-27T17:09:42Z</time></trkpt>
<trkpt lat="24.918609" lon="105.102057">
<time>2015-09-27T17:09:43Z</time></trkpt>
<trkpt lat="24.918659" lon="105.102057">
<time>2015-09-27T17:09:44Z</time></trkpt>
<trkpt lat="24.918739" lon="105.102047">
<time>2015-09-27T17:09:45Z</time></trkpt>
<trkpt lat="24.919019" lon="105.102007">
<time>2015-09-27T17:09:46Z</time></trkpt>
<trkpt lat="24.919129" lon="105.101997">
<time>2015-09-27T17:09:47Z</time></trkpt>
<trkpt lat="24.919379" lon="105.101977">
<time>2015-09-27T17:09:48Z</time></trkpt>
<trkpt lat="24.919599" lon="105.101937">
<time>2015-09-27T17:09:49Z</time></trkpt>
<trkpt lat="24.919809" lon="105.101927">
<time>2015-09-27T17:09:50Z</time></trkpt>
<trkpt lat="24.919949" lon="105.101937">
<time>2015-09-27T17:09:51Z</time></trkpt>
<trkpt lat="24.920089" lon="105.101957">
<time>2015-09-27T17:09:52Z</time></trkpt>
<trkpt lat="24.920429" lon="105.102027">
<time>2015-09-27T17:09:53Z</time></trkpt>
<trkpt lat="24.920599" lon="105.102047">
<time>2015-09-27T17:09:54Z</time></trkpt>
<trkpt lat="24.920699" lon="105.102057">
<time>2015-09-27T17:09:55Z</time></trkpt>
<trkpt lat="24.920729" lon="105.102057">
<time>2015-09-27T17:09:56Z</time></trkpt>
<trkpt lat="24.920769" lon="105.102057">
<time>2015-09-27T17:09:57Z</time></trkpt>
<trkpt lat="24.920809" lon="105.102047">
<time>2015-09-27T17:09:58Z</time></trkpt>
<trkpt lat="24.920859" lon="105.102037">
<time>2015-09-27T17:09:59Z</time></trkpt>
<trkpt lat="24.920919" lon="105.102007">
<time>2015-09-27T17:10:00Z</time></trkpt>
<trkpt lat="24.921099" lon="105.101927">
<time>2015-09-27T17:10:01Z</time></trkpt>
<trkpt lat="24.921099" lon="105.101927">
<time>2015-09-27T17:10:02Z</time></trkpt>
<trkpt lat="24.921159" lon="105.101957">
<time>2015-09-27T17:10:03Z</time></trkpt>
<trkpt lat="24.921259" lon="105.101987">
<time>2015-09-27T17:10:04Z</time></trkpt>
<trkpt lat="24.921429" lon="105.102017">
<time>2015-09-27T17:10:05Z</time></trkpt>
<trkpt lat="24.921809" lon="105.102027">
<time>2015-09-27T17:10:06Z</time></trkpt>
<trkpt lat="24.922858" lon="105.101977">
<time>2015-09-27T17:10:07Z</time></trkpt>
<trkpt lat="24.923098" lon="105.101987">
<time>2015-09-27T17:10:08Z</time></trkpt>
<trkpt lat="24.923218" lon="105.101957">
<time>2015-09-27T17:10:09Z</time></trkpt>
<trkpt lat="24.923308" lon="105.101937">
<time>2015-09-27T17:10:10Z</time></trkpt>
<trkpt lat="24.923638" lon="105.101857">
<time>2015-09-27T17:10:11Z</time></trkpt>
<trkpt lat="24.924068" lon="105.101727">
<time>2015-09-27T17:10:12Z</time></trkpt>
<trkpt lat="24.924078" lon="105.101727">
<time>2015-09-27T17:10:13Z</time></trkpt>
<trkpt lat="24.924208" lon="105.101737">
<time>2015-09-27T17:10:14Z</time></trkpt>
<trkpt lat="24.924518" lon="105.101827">
<time>2015-09-27T17:10:15Z</time></trkpt>
<trkpt lat="24.924778" lon="105.101897">
<time>2015-09-27T17:10:16Z</time></trkpt>
<trkpt lat="24.924878" lon="105.101997">
<time>2015-09-27T17:10:17Z</time></trkpt>
<trkpt lat="24.925048" lon="105.102476">
<time>2015-09-27T17:10:18Z</time></trkpt>
<trkpt lat="24.925028" lon="105.102686">
<time>2015-09-27T17:10:19Z</time></trkpt>
<trkpt lat="24.925048" lon="105.103066">
<time>2015-09-27T17:10:20Z</time></trkpt>
<trkpt lat="24.925099" lon="105.103286">
<time>2015-09-27T17:10:21Z</time></trkpt>
<trkpt lat="24.925139" lon="105.103435">
<time>2015-09-27T17:10:22Z</time></trkpt>
<trkpt lat="24.925179" lon="105.103595">
<time>2015-09-27T17:10:23Z</time></trkpt>
<trkpt lat="24.925279" lon="105.103845">
<time>2015-09-27T17:10:24Z</time></trkpt>
<trkpt lat="24.925299" lon="105.103895">
<time>2015-09-27T17:10:25Z</time></trkpt>
<trkpt lat="24.925309" lon="105.103945">
<time>2015-09-27T17:10:26Z</time></trkpt>
<trkpt lat="24.925309" lon="105.104015">
<time>2015-09-27T17:10:27Z</time></trkpt>
<trkpt lat="24.925299" lon="105.104065">
<time>2015-09-27T17:10:28Z</time></trkpt>
<trkpt lat="24.925269" lon="105.104135">
<time>2015-09-27T17:10:29Z</time></trkpt>
<trkpt lat="24.925229" lon="105.104185">
<time>2015-09-27T17:10:30Z</time></trkpt>
<trkpt lat="24.925139" lon="105.104255">
<time>2015-09-27T17:10:31Z</time></trkpt>
<trkpt lat="24.925009" lon="105.104355">
<time>2015-09-27T17:10:32Z</time></trkpt>
<trkpt lat="24.924879" lon="105.104495">
<time>2015-09-27T17:10:33Z</time></trkpt>
<trkpt lat="24.924769" lon="105.104635">
<time>2015-09-27T17:10:34Z</time></trkpt>
<trkpt lat="24.924679" lon="105.104765">
<time>2015-09-27T17:10:35Z</time></trkpt>
<trkpt lat="24.924599" lon="105.104844">
<time>2015-09-27T17:10:36Z</time></trkpt>
<trkpt lat="24.924579" lon="105.104884">
<time>2015-09-27T17:10:37Z</time></trkpt>
<trkpt lat="24.924579" lon="105.104924">
<time>2015-09-27T17:10:38Z</time></trkpt>
<trkpt lat="24.924579" lon="105.104944">
<time>2015-09-27T17:10:39Z</time></trkpt>
<trkpt lat="24.924599" lon="105.104954">
<time>2015-09-27T17:10:40Z</time></trkpt>
<trkpt lat="24.924629" lon="105.104954">
<time>2015-09-27T17:10:41Z</time></trkpt>
<trkpt lat="24.924729" lon="105.104904">
<time>2015-09-27T17:10:42Z</time></trkpt>
<trkpt lat="24.924809" lon="105.104884">
<time>2015-09-27T17:10:43Z</time></trkpt>
<trkpt lat="24.924999" lon="105.104854">
<time>2015-09-27T17:10:44Z</time></trkpt>
<trkpt lat="24.925149" lon="105.104834">
<time>2015-09-27T17:10:45Z</time></trkpt>
<trkpt lat="24.925209" lon="105.104814">
<time>2015-09-27T17:10:46Z</time></trkpt>
<trkpt lat="24.925289" lon="105.104774">
<time>2015-09-27T17:10:47Z</time></trkpt>
<trkpt lat="24.925349" lon="105.104735">
<time>2015-09-27T17:10:48Z</time></trkpt>
<trkpt lat="24.925389" lon="105.104715">
<time>2015-09-27T17:10:49Z</time></trkpt>
<trkpt lat="24.925399" lon="105.104725">
<time>2015-09-27T17:10:50Z</time></trkpt>
<trkpt lat="24.925409" lon="105.104745">
<time>2015-09-27T17:10:51Z</time></trkpt>
<trkpt lat="24.925399" lon="105.104784">
<time>2015-09-27T17:10:52Z</time></trkpt>
<trkpt lat="24.925359" lon="105.104844">
<time>2015-09-27T17:10:53Z</time></trkpt>
<trkpt lat="24.925229" lon="105.105034">
<time>2015-09-27T17:10:54Z</time></trkpt>
<trkpt lat="24.925179" lon="105.105144">
<time>2015-09-27T17:10:55Z</time></trkpt>
<trkpt lat="24.925149" lon="105.105204">
<time>2015-09-27T17:10:56Z</time></trkpt>
<trkpt lat="24.925139" lon="105.105274">
<time>2015-09-27T17:10:57Z</time></trkpt>
<trkpt lat="24.925139" lon="105.105324">
<time>2015-09-27T17:10:58Z</time></trkpt>
<trkpt lat="24.925149" lon="105.105394">
<time>2015-09-27T17:10:59Z</time></trkpt>
<trkpt lat="24.925169" lon="105.105424">
<time>2015-09-27T17:11:00Z</time></trkpt>
<trkpt lat="24.925209" lon="105.105464">
<time>2015-09-27T17:11:01Z</time></trkpt>
<trkpt lat="24.925259" lon="105.105464">
<time>2015-09-27T17:11:02Z</time></trkpt>
<trkpt lat="24.925299" lon="105.105454">
<time>2015-09-27T17:11:03Z</time></trkpt>
<trkpt lat="24.925319" lon="105.105434">
<time>2015-09-27T17:11:04Z</time></trkpt>
<trkpt lat="24.925329" lon="105.105374">
<time>2015-09-27T17:11:05Z</time></trkpt>
<trkpt lat="24.925349" lon="105.105284">
<time>2015-09-27T17:11:06Z</time></trkpt>
<trkpt lat="24.925379" lon="105.105214">
<time>2015-09-27T17:11:07Z</time></trkpt>
<trkpt lat="24.925459" lon="105.105164">
<time>2015-09-27T17:11:08Z</time></trkpt>
<trkpt lat="24.925849" lon="105.104994">
<time>2015-09-27T17:11:09Z</time></trkpt>
<trkpt lat="24.925949" lon="105.104914">
<time>2015-09-27T17:11:10Z</time></trkpt>
<trkpt lat="24.926109" lon="105.104794">
<time>2015-09-27T17:11:11Z</time></trkpt>
<trkpt lat="24.926189" lon="105.104744">
<time>2015-09-27T17:11:12Z</time></trkpt>
<trkpt lat="24.926409" lon="105.104704">
<time>2015-09-27T17:11:13Z</time></trkpt>
<trkpt lat="24.926549" lon="105.104675">
<time>2015-09-27T17:11:14Z</time></trkpt>
<trkpt lat="24.926589" lon="105.104684">
<time>2015-09-27T17:11:15Z</time></trkpt>
<trkpt lat="24.926819" lon="105.104724">
<time>2015-09-27T17:11:16Z</time></trkpt>
<trkpt lat="24.926819" lon="105.104724">
<time>2015-09-27T17:11:17Z</time></trkpt>
<trkpt lat="24.926829" lon="105.104804">
<time>2015-09-27T17:11:18Z</time></trkpt>
<trkpt lat="24.926849" lon="105.104904">
<time>2015-09-27T17:11:19Z</time></trkpt>
<trkpt lat="24.926859" lon="105.104974">
<time>2015-09-27T17:11:20Z</time></trkpt>
<trkpt lat="24.926869" lon="105.105044">
<time>2015-09-27T17:11:21Z</time></trkpt>
<trkpt lat="24.926929" lon="105.105274">
<time>2015-09-27T17:11:22Z</time></trkpt>
<trkpt lat="24.926979" lon="105.105444">
<time>2015-09-27T17:11:23Z</time></trkpt>
<trkpt lat="24.927059" lon="105.105734">
<time>2015-09-27T17:11:24Z</time></trkpt>
<trkpt lat="24.927099" lon="105.105854">
<time>2015-09-27T17:11:25Z</time></trkpt>
<trkpt lat="24.927139" lon="105.106024">
<time>2015-09-27T17:11:26Z</time></trkpt>
<trkpt lat="24.927149" lon="105.106064">
<time>2015-09-27T17:11:27Z</time></trkpt>
<trkpt lat="24.927159" lon="105.106104">
<time>2015-09-27T17:11:28Z</time></trkpt>
<trkpt lat="24.927199" lon="105.106174">
<time>2015-09-27T17:11:29Z</time></trkpt>
<trkpt lat="24.927229" lon="105.106243">
<time>2015-09-27T17:11:30Z</time></trkpt>
<trkpt lat="24.927269" lon="105.106313">
<time>2015-09-27T17:11:31Z</time></trkpt>
<trkpt lat="24.92732" lon="105.106383">
<time>2015-09-27T17:11:32Z</time></trkpt>
<trkpt lat="24.92739" lon="105.106473">
<time>2015-09-27T17:11:33Z</time></trkpt>
<trkpt lat="24.92742" lon="105.106503">
<time>2015-09-27T17:11:34Z</time></trkpt>
<trkpt lat="24.92745" lon="105.106533">
<time>2015-09-27T17:11:35Z</time></trkpt>
<trkpt lat="24.92748" lon="105.106563">
<time>2015-09-27T17:11:36Z</time></trkpt>
<trkpt lat="24.92751" lon="105.106583">
<time>2015-09-27T17:11:37Z</time></trkpt>
<trkpt lat="24.92754" lon="105.106603">
<time>2015-09-27T17:11:38Z</time></trkpt>
<trkpt lat="24.92756" lon="105.106623">
<time>2015-09-27T17:11:39Z</time></trkpt>
<trkpt lat="24.92759" lon="105.106633">
<time>2015-09-27T17:11:40Z</time></trkpt>
<trkpt lat="24.92763" lon="105.106643">
<time>2015-09-27T17:11:41Z</time></trkpt>
<trkpt lat="24.92766" lon="105.106653">
<time>2015-09-27T17:11:42Z</time></trkpt>
<trkpt lat="24.92775" lon="105.106653">
<time>2015-09-27T17:11:43Z</time></trkpt>
<trkpt lat="24.92783" lon="105.106663">
<time>2015-09-27T17:11:44Z</time></trkpt>
<trkpt lat="24.92788" lon="105.106673">
<time>2015-09-27T17:11:45Z</time></trkpt>
<trkpt lat="24.92792" lon="105.106673">
<time>2015-09-27T17:11:46Z</time></trkpt>
<trkpt lat="24.92797" lon="105.106673">
<time>2015-09-27T17:11:47Z</time></trkpt>
<trkpt lat="24.92803" lon="105.106663">
<time>2015-09-27T17:11:48Z</time></trkpt>
<trkpt lat="24.92806" lon="105.106663">
<time>2015-09-27T17:11:49Z</time></trkpt>
<trkpt lat="24.92809" lon="105.106653">
<time>2015-09-27T17:11:50Z</time></trkpt>
<trkpt lat="24.92811" lon="105.106633">
<time>2015-09-27T17:11:51Z</time></trkpt>
<trkpt lat="24.92814" lon="105.106613">
<time>2015-09-27T17:11:52Z</time></trkpt>
<trkpt lat="24.928169" lon="105.106583">
<time>2015-09-27T17:11:53Z</time></trkpt>
<trkpt lat="24.928199" lon="105.106553">
<time>2015-09-27T17:11:54Z</time></trkpt>
<trkpt lat="24.928219" lon="105.106523">
<time>2015-09-27T17:11:55Z</time></trkpt>
<trkpt lat="24.928229" lon="105.106503">
<time>2015-09-27T17:11:56Z</time></trkpt>
<trkpt lat="24.928239" lon="105.106473">
<time>2015-09-27T17:11:57Z</time></trkpt>
<trkpt lat="24.928249" lon="105.106373">
<time>2015-09-27T17:11:58Z</time></trkpt>
<trkpt lat="24.928259" lon="105.106343">
<time>2015-09-27T17:11:59Z</time></trkpt>
<trkpt lat="24.928289" lon="105.106263">
<time>2015-09-27T17:12:00Z</time></trkpt>
<trkpt lat="24.928299" lon="105.106243">
<time>2015-09-27T17:12:01Z</time></trkpt>
<trkpt lat="24.928309" lon="105.106223">
<time>2015-09-27T17:12:02Z</time></trkpt>
<trkpt lat="24.928329" lon="105.106203">
<time>2015-09-27T17:12:03Z</time></trkpt>
<trkpt lat="24.928359" lon="105.106183">
<time>2015-09-27T17:12:04Z</time></trkpt>
<trkpt lat="24.928389" lon="105.106163">
<time>2015-09-27T17:12:05Z</time></trkpt>
<trkpt lat="24.928459" lon="105.106133">
<time>2015-09-27T17:12:06Z</time></trkpt>
<trkpt lat="24.928529" lon="105.106074">
<time>2015-09-27T17:12:07Z</time></trkpt>
<trkpt lat="24.928569" lon="105.106054">
<time>2015-09-27T17:12:08Z</time></trkpt>
<trkpt lat="24.928609" lon="105.106044">
<time>2015-09-27T17:12:09Z</time></trkpt>
<trkpt lat="24.928639" lon="105.106034">
<time>2015-09-27T17:12:10Z</time></trkpt>
<trkpt lat="24.928679" lon="105.106024">
<time>2015-09-27T17:12:11Z</time></trkpt>
<trkpt lat="24.928709" lon="105.106024">
<time>2015-09-27T17:12:12Z</time></trkpt>
<trkpt lat="24.928749" lon="105.106034">
<time>2015-09-27T17:12:13Z</time></trkpt>
<trkpt lat="24.928789" lon="105.106044">
<time>2015-09-27T17:12:14Z</time></trkpt>
<trkpt lat="24.928819" lon="105.106064">
<time>2015-09-27T17:12:15Z</time></trkpt>
<trkpt lat="24.928839" lon="105.106074">
<time>2015-09-27T17:12:16Z</time></trkpt>
<trkpt lat="24.928949" lon="105.106143">
<time>2015-09-27T17:12:17Z</time></trkpt>
<trkpt lat="24.929039" lon="105.106213">
<time>2015-09-27T17:12:18Z</time></trkpt>
<trkpt lat="24.929059" lon="105.106223">
<time>2015-09-27T17:12:19Z</time></trkpt>
<trkpt lat="24.929089" lon="105.106233">
<time>2015-09-27T17:12:20Z</time></trkpt>
<trkpt lat="24.929139" lon="105.106253">
<time>2015-09-27T17:12:21Z</time></trkpt>
<trkpt lat="24.929159" lon="105.106263">
<time>2015-09-27T17:12:22Z</time></trkpt>
<trkpt lat="24.929179" lon="105.106263">
<time>2015-09-27T17:12:23Z</time></trkpt>
<trkpt lat="24.929209" lon="105.106273">
<time>2015-09-27T17:12:24Z</time></trkpt>
<trkpt lat="24.929239" lon="105.106273">
<time>2015-09-27T17:12:25Z</time></trkpt>
<trkpt lat="24.929259" lon="105.106263">
<time>2015-09-27T17:12:26Z</time></trkpt>
<trkpt lat="24.929289" lon="105.106263">
<time>2015-09-27T17:12:27Z</time></trkpt>
<trkpt lat="24.929309" lon="105.106253">
<time>2015-09-27T17:12:28Z</time></trkpt>
<trkpt lat="24.929339" lon="105.106233">
<time>2015-09-27T17:12:29Z</time></trkpt>
<trkpt lat="24.929359" lon="105.106223">
<time>2015-09-27T17:12:30Z</time></trkpt>
<trkpt lat="24.929399" lon="105.106193">
<time>2015-09-27T17:12:31Z</time></trkpt>
<trkpt lat="24.929419" lon="105.106183">
<time>2015-09-27T17:12:32Z</time></trkpt>
<trkpt lat="24.929449" lon="105.106163">
<time>2015-09-27T17:12:33Z</time></trkpt>
<trkpt lat="24.929469" lon="105.106163">
<time>2015-09-27T17:12:34Z</time></trkpt>
<trkpt lat="24.929479" lon="105.106163">
<time>2015-09-27T17:12:35Z</time></trkpt>
<trkpt lat="24.929489" lon="105.106163">
<time>2015-09-27T17:12:36Z</time></trkpt>
<trkpt lat="24.929499" lon="105.106173">
<time>2015-09-27T17:12:37Z</time></trkpt>
<trkpt lat="24.929509" lon="105.106173">
<time>2015-09-27T17:12:38Z</time></trkpt>
<trkpt lat="24.929519" lon="105.106183">
<time>2015-09-27T17:12:39Z</time></trkpt>
<trkpt lat="24.929529" lon="105.106203">
<time>2015-09-27T17:12:40Z</time></trkpt>
<trkpt lat="24.929549" lon="105.106253">
<time>2015-09-27T17:12:41Z</time></trkpt>
<trkpt lat="24.929569" lon="105.106293">
<time>2015-09-27T17:12:42Z</time></trkpt>
<trkpt lat="24.929599" lon="105.106383">
<time>2015-09-27T17:12:43Z</time></trkpt>
<trkpt lat="24.929609" lon="105.106423">
<time>2015-09-27T17:12:44Z</time></trkpt>
<trkpt lat="24.929629" lon="105.106463">
<time>2015-09-27T17:12:45Z</time></trkpt>
<trkpt lat="24.929659" lon="105.106513">
<time>2015-09-27T17:12:46Z</time></trkpt>
<trkpt lat="24.929739" lon="105.106693">
<time>2015-09-27T17:12:47Z</time></trkpt>
<trkpt lat="24.929829" lon="105.106863">
<time>2015-09-27T17:12:48Z</time></trkpt>
<trkpt lat="24.929889" lon="105.106983">
<time>2015-09-27T17:12:49Z</time></trkpt>
<trkpt lat="24.929919" lon="105.107043">
<time>2015-09-27T17:12:50Z</time></trkpt>
<trkpt lat="24.92997" lon="105.107123">
<time>2015-09-27T17:12:51Z</time></trkpt>
<trkpt lat="24.92999" lon="105.107163">
<time>2015-09-27T17:12:52Z</time></trkpt>
<trkpt lat="24.93001" lon="105.107193">
<time>2015-09-27T17:12:53Z</time></trkpt>
<trkpt lat="24.93004" lon="105.107273">
<time>2015-09-27T17:12:54Z</time></trkpt>
<trkpt lat="24.93005" lon="105.107303">
<time>2015-09-27T17:12:55Z</time></trkpt>
<trkpt lat="24.93005" lon="105.107343">
<time>2015-09-27T17:12:56Z</time></trkpt>
<trkpt lat="24.93006" lon="105.107363">
<time>2015-09-27T17:12:57Z</time></trkpt>
<trkpt lat="24.93006" lon="105.107383">
<time>2015-09-27T17:12:58Z</time></trkpt>
<trkpt lat="24.93005" lon="105.107473">
<time>2015-09-27T17:12:59Z</time></trkpt>
<trkpt lat="24.93006" lon="105.107513">
<time>2015-09-27T17:13:00Z</time></trkpt>
<trkpt lat="24.93007" lon="105.107543">
<time>2015-09-27T17:13:01Z</time></trkpt>
<trkpt lat="24.93008" lon="105.107583">
<time>2015-09-27T17:13:02Z</time></trkpt>
<trkpt lat="24.93009" lon="105.107623">
<time>2015-09-27T17:13:03Z</time></trkpt>
<trkpt lat="24.93011" lon="105.107653">
<time>2015-09-27T17:13:04Z</time></trkpt>
<trkpt lat="24.93013" lon="105.107673">
<time>2015-09-27T17:13:05Z</time></trkpt>
<trkpt lat="24.93015" lon="105.107703">
<time>2015-09-27T17:13:06Z</time></trkpt>
<trkpt lat="24.93017" lon="105.107732">
<time>2015-09-27T17:13:07Z</time></trkpt>
<trkpt lat="24.93019" lon="105.107752">
<time>2015-09-27T17:13:08Z</time></trkpt>
<trkpt lat="24.93021" lon="105.107772">
<time>2015-09-27T17:13:09Z</time></trkpt>
<trkpt lat="24.93024" lon="105.107792">
<time>2015-09-27T17:13:10Z</time></trkpt>
<trkpt lat="24.93031" lon="105.107832">
<time>2015-09-27T17:13:11Z</time></trkpt>
<trkpt lat="24.93037" lon="105.107872">
<time>2015-09-27T17:13:12Z</time></trkpt>
<trkpt lat="24.93042" lon="105.107892">
<time>2015-09-27T17:13:13Z</time></trkpt>
<trkpt lat="24.93048" lon="105.107922">
<time>2015-09-27T17:13:14Z</time></trkpt>
<trkpt lat="24.93054" lon="105.107942">
<time>2015-09-27T17:13:15Z</time></trkpt>
<trkpt lat="24.93063" lon="105.107932">
<time>2015-09-27T17:13:16Z</time></trkpt>
<trkpt lat="24.93075" lon="105.107892">
<time>2015-09-27T17:13:17Z</time></trkpt>
<trkpt lat="24.93075" lon="105.107892">
<time>2015-09-27T17:13:18Z</time></trkpt>
<trkpt lat="24.93085" lon="105.107952">
<time>2015-09-27T17:13:19Z</time></trkpt>
<trkpt lat="24.93141" lon="105.108232">
<time>2015-09-27T17:13:20Z</time></trkpt>
<trkpt lat="24.93159" lon="105.108322">
<time>2015-09-27T17:13:21Z</time></trkpt>
<trkpt lat="24.93172" lon="105.108422">
<time>2015-09-27T17:13:22Z</time></trkpt>
<trkpt lat="24.93181" lon="105.108522">
<time>2015-09-27T17:13:23Z</time></trkpt>
<trkpt lat="24.9319" lon="105.108652">
<time>2015-09-27T17:13:24Z</time></trkpt>
<trkpt lat="24.932" lon="105.108812">
<time>2015-09-27T17:13:25Z</time></trkpt>
<trkpt lat="24.93209" lon="105.109002">
<time>2015-09-27T17:13:26Z</time></trkpt>
<trkpt lat="24.932501" lon="105.109971">
<time>2015-09-27T17:13:27Z</time></trkpt>
<trkpt lat="24.932721" lon="105.110511">
<time>2015-09-27T17:13:28Z</time></trkpt>
<trkpt lat="24.932781" lon="105.110671">
<time>2015-09-27T17:13:29Z</time></trkpt>
<trkpt lat="24.932811" lon="105.110761">
<time>2015-09-27T17:13:30Z</time></trkpt>
<trkpt lat="24.932831" lon="105.110871">
<time>2015-09-27T17:13:31Z</time></trkpt>
<trkpt lat="24.932882" lon="105.111131">
<time>2015-09-27T17:13:32Z</time></trkpt>
<trkpt lat="24.932922" lon="105.111231">
<time>2015-09-27T17:13:33Z</time></trkpt>
<trkpt lat="24.932972" lon="105.111331">
<time>2015-09-27T17:13:34Z</time></trkpt>
<trkpt lat="24.933032" lon="105.111431">
<time>2015-09-27T17:13:35Z</time></trkpt>
<trkpt lat="24.933102" lon="105.111531">
<time>2015-09-27T17:13:36Z</time></trkpt>
<trkpt lat="24.933152" lon="105.111601">
<time>2015-09-27T17:13:37Z</time></trkpt>
<trkpt lat="24.933242" lon="105.111681">
<time>2015-09-27T17:13:38Z</time></trkpt>
<trkpt lat="24.933362" lon="105.111771">
<time>2015-09-27T17:13:39Z</time></trkpt>
<trkpt lat="24.933602" lon="105.11192">
<time>2015-09-27T17:13:40Z</time></trkpt>
<trkpt lat="24.933762" lon="105.11202">
<time>2015-09-27T17:13:41Z</time></trkpt>
<trkpt lat="24.933872" lon="105.1121">
<time>2015-09-27T17:13:42Z</time></trkpt>
<trkpt lat="24.934012" lon="105.11226">
<time>2015-09-27T17:13:43Z</time></trkpt>
<trkpt lat="24.934192" lon="105.11244">
<time>2015-09-27T17:13:44Z</time></trkpt>
<trkpt lat="24.934372" lon="105.11268">
<time>2015-09-27T17:13:45Z</time></trkpt>
<trkpt lat="24.934803" lon="105.11339">
<time>2015-09-27T17:13:46Z</time></trkpt>
<trkpt lat="24.934923" lon="105.11358">
<time>2015-09-27T17:13:47Z</time></trkpt>
<trkpt lat="24.935023" lon="105.11367">
<time>2015-09-27T17:13:48Z</time></trkpt>
<trkpt lat="24.935073" lon="105.11371">
<time>2015-09-27T17:13:49Z</time></trkpt>
<trkpt lat="24.935133" lon="105.11374">
<time>2015-09-27T17:13:50Z</time></trkpt>
<trkpt lat="24.935283" lon="105.11377">
<time>2015-09-27T17:13:51Z</time></trkpt>
<trkpt lat="24.935363" lon="105.11379">
<time>2015-09-27T17:13:52Z</time></trkpt>
<trkpt lat="24.935453" lon="105.1138">
<time>2015-09-27T17:13:53Z</time></trkpt>
<trkpt lat="24.935523" lon="105.11382">
<time>2015-09-27T17:13:54Z</time></trkpt>
<trkpt lat="24.935593" lon="105.11385">
<time>2015-09-27T17:13:55Z</time></trkpt>
<trkpt lat="24.935763" lon="105.11396">
<time>2015-09-27T17:13:56Z</time></trkpt>
<trkpt lat="24.936363" lon="105.11438">
<time>2015-09-27T17:13:57Z</time></trkpt>
<trkpt lat="24.936824" lon="105.11469">
<time>2015-09-27T17:13:58Z</time></trkpt>
<trkpt lat="24.937244" lon="105.114999">
<time>2015-09-27T17:13:59Z</time></trkpt>
<trkpt lat="24.937534" lon="105.115239">
<time>2015-09-27T17:14:00Z</time></trkpt>
<trkpt lat="24.937734" lon="105.115419">
<time>2015-09-27T17:14:01Z</time></trkpt>
<trkpt lat="24.937734" lon="105.115419">
<time>2015-09-27T17:14:02Z</time></trkpt>
<trkpt lat="24.937754" lon="105.115439">
<time>2015-09-27T17:14:03Z</time></trkpt>
<trkpt lat="24.937814" lon="105.115459">
<time>2015-09-27T17:14:04Z</time></trkpt>
<trkpt lat="24.937864" lon="105.115469">
<time>2015-09-27T17:14:05Z</time></trkpt>
<trkpt lat="24.937914" lon="105.115489">
<time>2015-09-27T17:14:06Z</time></trkpt>
<trkpt lat="24.937964" lon="105.115489">
<time>2015-09-27T17:14:07Z</time></trkpt>
<trkpt lat="24.938004" lon="105.115499">
<time>2015-09-27T17:14:08Z</time></trkpt>
<trkpt lat="24.938044" lon="105.115499">
<time>2015-09-27T17:14:09Z</time></trkpt>
<trkpt lat="24.938084" lon="105.115499">
<time>2015-09-27T17:14:10Z</time></trkpt>
<trkpt lat="24.938114" lon="105.115489">
<time>2015-09-27T17:14:11Z</time></trkpt>
<trkpt lat="24.938154" lon="105.115479">
<time>2015-09-27T17:14:12Z</time></trkpt>
<trkpt lat="24.938194" lon="105.115469">
<time>2015-09-27T17:14:13Z</time></trkpt>
<trkpt lat="24.938234" lon="105.115459">
<time>2015-09-27T17:14:14Z</time></trkpt>
<trkpt lat="24.938264" lon="105.115439">
<time>2015-09-27T17:14:15Z</time></trkpt>
<trkpt lat="24.938304" lon="105.115419">
<time>2015-09-27T17:14:16Z</time></trkpt>
<trkpt lat="24.938344" lon="105.115379">
<time>2015-09-27T17:14:17Z</time></trkpt>
<trkpt lat="24.938384" lon="105.115339">
<time>2015-09-27T17:14:18Z</time></trkpt>
<trkpt lat="24.938414" lon="105.115319">
<time>2015-09-27T17:14:19Z</time></trkpt>
<trkpt lat="24.938434" lon="105.115289">
<time>2015-09-27T17:14:20Z</time></trkpt>
<trkpt lat="24.938534" lon="105.115179">
<time>2015-09-27T17:14:21Z</time></trkpt>
<trkpt lat="24.938542" lon="105.113">
<time>2015-09-27T17:14:22Z</time></trkpt>
<trkpt lat="24.938532" lon="105.11293">
<time>2015-09-27T17:14:23Z</time></trkpt>
<trkpt lat="24.938282" lon="105.11249">
<time>2015-09-27T17:14:24Z</time></trkpt>
<trkpt lat="24.937531" lon="105.111151">
<time>2015-09-27T17:14:25Z</time></trkpt>
<trkpt lat="24.93684" lon="105.109681">
<time>2015-09-27T17:14:26Z</time></trkpt>
<trkpt lat="24.93655" lon="105.108872">
<time>2015-09-27T17:14:27Z</time></trkpt>
<trkpt lat="24.936429" lon="105.108382">
<time>2015-09-27T17:14:28Z</time></trkpt>
<trkpt lat="24.936149" lon="105.107113">
<time>2015-09-27T17:14:29Z</time></trkpt>
<trkpt lat="24.936149" lon="105.107113">
<time>2015-09-27T17:14:30Z</time></trkpt>
<trkpt lat="24.936679" lon="105.106913">
<time>2015-09-27T17:14:31Z</time></trkpt>
<trkpt lat="24.937678" lon="105.106563">
<time>2015-09-27T17:14:32Z</time></trkpt>
<trkpt lat="24.938768" lon="105.106203">
<time>2015-09-27T17:14:33Z</time></trkpt>
<trkpt lat="24.939888" lon="105.105873">
<time>2015-09-27T17:14:34Z</time></trkpt>
<trkpt lat="24.940997" lon="105.105553">
<time>2015-09-27T17:14:35Z</time></trkpt>
<trkpt lat="24.941747" lon="105.105333">
<time>2015-09-27T17:14:36Z</time></trkpt>
<trkpt lat="24.942137" lon="105.105223">
<time>2015-09-27T17:14:37Z</time></trkpt>
<trkpt lat="24.943277" lon="105.104894">
<time>2015-09-27T17:14:38Z</time></trkpt>
<trkpt lat="24.944396" lon="105.104554">
<time>2015-09-27T17:14:39Z</time></trkpt>
<trkpt lat="24.945546" lon="105.104214">
<time>2015-09-27T17:14:40Z</time></trkpt>
<trkpt lat="24.946506" lon="105.103964">
<time>2015-09-27T17:14:41Z</time></trkpt>
<trkpt lat="24.946506" lon="105.103964">
<time>2015-09-27T17:14:42Z</time></trkpt>
<trkpt lat="24.946486" lon="105.103854">
<time>2015-09-27T17:14:43Z</time></trkpt>
<trkpt lat="24.946486" lon="105.103754">
<time>2015-09-27T17:14:44Z</time></trkpt>
<trkpt lat="24.946486" lon="105.103674">
<time>2015-09-27T17:14:45Z</time></trkpt>
<trkpt lat="24.946496" lon="105.103574">
<time>2015-09-27T17:14:46Z</time></trkpt>
<trkpt lat="24.946516" lon="105.103464">
<time>2015-09-27T17:14:47Z</time></trkpt>
<trkpt lat="24.946546" lon="105.103345">
<time>2015-09-27T17:14:48Z</time></trkpt>
<trkpt lat="24.946586" lon="105.103235">
<time>2015-09-27T17:14:49Z</time></trkpt>
<trkpt lat="24.946726" lon="105.102965">
<time>2015-09-27T17:14:50Z</time></trkpt>
<trkpt lat="24.946875" lon="105.102735">
<time>2015-09-27T17:14:51Z</time></trkpt>
<trkpt lat="24.947055" lon="105.102515">
<time>2015-09-27T17:14:52Z</time></trkpt>
<trkpt lat="24.947245" lon="105.102325">
<time>2015-09-27T17:14:53Z</time></trkpt>
<trkpt lat="24.947605" lon="105.102006">
<time>2015-09-27T17:14:54Z</time></trkpt>
<trkpt lat="24.947675" lon="105.101926">
<time>2015-09-27T17:14:55Z</time></trkpt>
<trkpt lat="24.947725" lon="105.101846">
<time>2015-09-27T17:14:56Z</time></trkpt>
<trkpt lat="24.947755" lon="105.101766">
<time>2015-09-27T17:14:57Z</time></trkpt>
<trkpt lat="24.947765" lon="105.101696">
<time>2015-09-27T17:14:58Z</time></trkpt>
<trkpt lat="24.947755" lon="105.101616">
<time>2015-09-27T17:14:59Z</time></trkpt>
<trkpt lat="24.947745" lon="105.101556">
<time>2015-09-27T17:15:00Z</time></trkpt>
<trkpt lat="24.947705" lon="105.101466">
<time>2015-09-27T17:15:01Z</time></trkpt>
<trkpt lat="24.947655" lon="105.101406">
<time>2015-09-27T17:15:02Z</time></trkpt>
<trkpt lat="24.947615" lon="105.101366">
<time>2015-09-27T17:15:03Z</time></trkpt>
<trkpt lat="24.947535" lon="105.101316">
<time>2015-09-27T17:15:04Z</time></trkpt>
<trkpt lat="24.947475" lon="105.101286">
<time>2015-09-27T17:15:05Z</time></trkpt>
<trkpt lat="24.947385" lon="105.101266">
<time>2015-09-27T17:15:06Z</time></trkpt>
<trkpt lat="24.947155" lon="105.101216">
<time>2015-09-27T17:15:07Z</time></trkpt>
<trkpt lat="24.946975" lon="105.101196">
<time>2015-09-27T17:15:08Z</time></trkpt>
<trkpt lat="24.946695" lon="105.101116">
<time>2015-09-27T17:15:09Z</time></trkpt>
<trkpt lat="24.946555" lon="105.101066">
<time>2015-09-27T17:15:10Z</time></trkpt>
<trkpt lat="24.946465" lon="105.101016">
<time>2015-09-27T17:15:11Z</time></trkpt>
<trkpt lat="24.946365" lon="105.100926">
<time>2015-09-27T17:15:12Z</time></trkpt>
<trkpt lat="24.946285" lon="105.100817">
<time>2015-09-27T17:15:13Z</time></trkpt>
<trkpt lat="24.946235" lon="105.100697">
<time>2015-09-27T17:15:14Z</time></trkpt>
<trkpt lat="24.946195" lon="105.100567">
<time>2015-09-27T17:15:15Z</time></trkpt>
<trkpt lat="24.946195" lon="105.100437">
<time>2015-09-27T17:15:16Z</time></trkpt>
<trkpt lat="24.946225" lon="105.100297">
<time>2015-09-27T17:15:17Z</time></trkpt>
<trkpt lat="24.946275" lon="105.100157">
<time>2015-09-27T17:15:18Z</time></trkpt>
<trkpt lat="24.946335" lon="105.100057">
<time>2015-09-27T17:15:19Z</time></trkpt>
<trkpt lat="24.946625" lon="105.099767">
<time>2015-09-27T17:15:20Z</time></trkpt>
<trkpt lat="24.946855" lon="105.099548">
<time>2015-09-27T17:15:21Z</time></trkpt>
<trkpt lat="24.947075" lon="105.099378">
<time>2015-09-27T17:15:22Z</time></trkpt>
<trkpt lat="24.947285" lon="105.099248">
<time>2015-09-27T17:15:23Z</time></trkpt>
<trkpt lat="24.947385" lon="105.099168">
<time>2015-09-27T17:15:24Z</time></trkpt>
<trkpt lat="24.947445" lon="105.099098">
<time>2015-09-27T17:15:25Z</time></trkpt>
<trkpt lat="24.947494" lon="105.099018">
<time>2015-09-27T17:15:26Z</time></trkpt>
<trkpt lat="24.947574" lon="105.098868">
<time>2015-09-27T17:15:27Z</time></trkpt>
<trkpt lat="24.947704" lon="105.098648">
<time>2015-09-27T17:15:28Z</time></trkpt>
<trkpt lat="24.947904" lon="105.098379">
<time>2015-09-27T17:15:29Z</time></trkpt>
<trkpt lat="24.947934" lon="105.098319">
<time>2015-09-27T17:15:30Z</time></trkpt>
<trkpt lat="24.947954" lon="105.098249">
<time>2015-09-27T17:15:31Z</time></trkpt>
<trkpt lat="24.947954" lon="105.098189">
<time>2015-09-27T17:15:32Z</time></trkpt>
<trkpt lat="24.947944" lon="105.098109">
<time>2015-09-27T17:15:33Z</time></trkpt>
<trkpt lat="24.947924" lon="105.098049">
<time>2015-09-27T17:15:34Z</time></trkpt>
<trkpt lat="24.947894" lon="105.097999">
<time>2015-09-27T17:15:35Z</time></trkpt>
<trkpt lat="24.947854" lon="105.097959">
<time>2015-09-27T17:15:36Z</time></trkpt>
<trkpt lat="24.947804" lon="105.097929">
<time>2015-09-27T17:15:37Z</time></trkpt>
<trkpt lat="24.947744" lon="105.097899">
<time>2015-09-27T17:15:38Z</time></trkpt>
<trkpt lat="24.947674" lon="105.097889">
<time>2015-09-27T17:15:39Z</time></trkpt>
<trkpt lat="24.947574" lon="105.097879">
<time>2015-09-27T17:15:40Z</time></trkpt>
<trkpt lat="24.947444" lon="105.097869">
<time>2015-09-27T17:15:41Z</time></trkpt>
<trkpt lat="24.947214" lon="105.097849">
<time>2015-09-27T17:15:42Z</time></trkpt>
<trkpt lat="24.947154" lon="105.097839">
<time>2015-09-27T17:15:43Z</time></trkpt>
<trkpt lat="24.947114" lon="105.097829">
<time>2015-09-27T17:15:44Z</time></trkpt>
<trkpt lat="24.947054" lon="105.097799">
<time>2015-09-27T17:15:45Z</time></trkpt>
<trkpt lat="24.947034" lon="105.097779">
<time>2015-09-27T17:15:46Z</time></trkpt>
<trkpt lat="24.947014" lon="105.097749">
<time>2015-09-27T17:15:47Z</time></trkpt>
<trkpt lat="24.946994" lon="105.097699">
<time>2015-09-27T17:15:48Z</time></trkpt>
<trkpt lat="24.946974" lon="105.097639">
<time>2015-09-27T17:15:49Z</time></trkpt>
<trkpt lat="24.946974" lon="105.09759">
<time>2015-09-27T17:15:50Z</time></trkpt>
<trkpt lat="24.946964" lon="105.09753">
<time>2015-09-27T17:15:51Z</time></trkpt>
<trkpt lat="24.946974" lon="105.09747">
<time>2015-09-27T17:15:52Z</time></trkpt>
<trkpt lat="24.946994" lon="105.09739">
<time>2015-09-27T17:15:53Z</time></trkpt>
<trkpt lat="24.947044" lon="105.0972">
<time>2015-09-27T17:15:54Z</time></trkpt>
<trkpt lat="24.947074" lon="105.09709">
<time>2015-09-27T17:15:55Z</time></trkpt>
<trkpt lat="24.947084" lon="105.09706">
<time>2015-09-27T17:15:56Z</time></trkpt>
<trkpt lat="24.947094" lon="105.09698">
<time>2015-09-27T17:15:57Z</time></trkpt>
<trkpt lat="24.947094" lon="105.09692">
<time>2015-09-27T17:15:58Z</time></trkpt>
<trkpt lat="24.947074" lon="105.09685">
<time>2015-09-27T17:15:59Z</time></trkpt>
<trkpt lat="24.947054" lon="105.09677">
<time>2015-09-27T17:16:00Z</time></trkpt>
<trkpt lat="24.946974" lon="105.096591">
<time>2015-09-27T17:16:01Z</time></trkpt>
<trkpt lat="24.946974" lon="105.096581">
<time>2015-09-27T17:16:02Z</time></trkpt>
<trkpt lat="24.946894" lon="105.096391">
<time>2015-09-27T17:16:03Z</time></trkpt>
<trkpt lat="24.946794" lon="105.096121">
<time>2015-09-27T17:16:04Z</time></trkpt>
<trkpt lat="24.946654" lon="105.095811">
<time>2015-09-27T17:16:05Z</time></trkpt>
<trkpt lat="24.946484" lon="105.095442">
<time>2015-09-27T17:16:06Z</time></trkpt>
<trkpt lat="24.946324" lon="105.095162">
<time>2015-09-27T17:16:07Z</time></trkpt>
<trkpt lat="24.946224" lon="105.095042">
<time>2015-09-27T17:16:08Z</time></trkpt>
<trkpt lat="24.946074" lon="105.094922">
<time>2015-09-27T17:16:09Z</time></trkpt>
<trkpt lat="24.945754" lon="105.094723">
<time>2015-09-27T17:16:10Z</time></trkpt>
<trkpt lat="24.945554" lon="105.094613">
<time>2015-09-27T17:16:11Z</time></trkpt>
<trkpt lat="24.945314" lon="105.094483">
<time>2015-09-27T17:16:12Z</time></trkpt>
<trkpt lat="24.945005" lon="105.094303">
<time>2015-09-27T17:16:13Z</time></trkpt>
<trkpt lat="24.944785" lon="105.094133">
<time>2015-09-27T17:16:14Z</time></trkpt>
<trkpt lat="24.944585" lon="105.093964">
<time>2015-09-27T17:16:15Z</time></trkpt>
<trkpt lat="24.944255" lon="105.093564">
<time>2015-09-27T17:16:16Z</time></trkpt>
<trkpt lat="24.943975" lon="105.093225">
<time>2015-09-27T17:16:17Z</time></trkpt>
<trkpt lat="24.943725" lon="105.092915">
<time>2015-09-27T17:16:18Z</time></trkpt>
<trkpt lat="24.943605" lon="105.092735">
<time>2015-09-27T17:16:19Z</time></trkpt>
<trkpt lat="24.943515" lon="105.092555">
<time>2015-09-27T17:16:20Z</time></trkpt>
<trkpt lat="24.943475" lon="105.092446">
<time>2015-09-27T17:16:21Z</time></trkpt>
<trkpt lat="24.943445" lon="105.092306">
<time>2015-09-27T17:16:22Z</time></trkpt>
<trkpt lat="24.943435" lon="105.092136">
<time>2015-09-27T17:16:23Z</time></trkpt>
<trkpt lat="24.943435" lon="105.092036">
<time>2015-09-27T17:16:24Z</time></trkpt>
<trkpt lat="24.943455" lon="105.091956">
<time>2015-09-27T17:16:25Z</time></trkpt>
<trkpt lat="24.943475" lon="105.091856">
<time>2015-09-27T17:16:26Z</time></trkpt>
<trkpt lat="24.943505" lon="105.091796">
<time>2015-09-27T17:16:27Z</time></trkpt>
<trkpt lat="24.943575" lon="105.091647">
<time>2015-09-27T17:16:28Z</time></trkpt>
<trkpt lat="24.943705" lon="105.091457">
<time>2015-09-27T17:16:29Z</time></trkpt>
<trkpt lat="24.944285" lon="105.090738">
<time>2015-09-27T17:16:30Z</time></trkpt>
<trkpt lat="24.944405" lon="105.090598">
<time>2015-09-27T17:16:31Z</time></trkpt>
<trkpt lat="24.944595" lon="105.090428">
<time>2015-09-27T17:16:32Z</time></trkpt>
<trkpt lat="24.944755" lon="105.090308">
<time>2015-09-27T17:16:33Z</time></trkpt>
<trkpt lat="24.945075" lon="105.090168">
<time>2015-09-27T17:16:34Z</time></trkpt>
<trkpt lat="24.945775" lon="105.089829">
<time>2015-09-27T17:16:35Z</time></trkpt>
<trkpt lat="24.945965" lon="105.089759">
<time>2015-09-27T17:16:36Z</time></trkpt>
<trkpt lat="24.946095" lon="105.089719">
<time>2015-09-27T17:16:37Z</time></trkpt>
<trkpt lat="24.946245" lon="105.089689">
<time>2015-09-27T17:16:38Z</time></trkpt>
<trkpt lat="24.946365" lon="105.089689">
<time>2015-09-27T17:16:39Z</time></trkpt>
<trkpt lat="24.946535" lon="105.089679">
<time>2015-09-27T17:16:40Z</time></trkpt>
<trkpt lat="24.946945" lon="105.089689">
<time>2015-09-27T17:16:41Z</time></trkpt>
<trkpt lat="24.947235" lon="105.089579">
<time>2015-09-27T17:16:42Z</time></trkpt>
<trkpt lat="24.947505" lon="105.089439">
<time>2015-09-27T17:16:43Z</time></trkpt>
<trkpt lat="24.948145" lon="105.0889">
<time>2015-09-27T17:16:44Z</time></trkpt>
<trkpt lat="24.948345" lon="105.08875">
<time>2015-09-27T17:16:45Z</time></trkpt>
<trkpt lat="24.948735" lon="105.088491">
<time>2015-09-27T17:16:46Z</time></trkpt>
<trkpt lat="24.949305" lon="105.088491">
<time>2015-09-27T17:16:47Z</time></trkpt>
<trkpt lat="24.949835" lon="105.08861">
<time>2015-09-27T17:16:48Z</time></trkpt>
<trkpt lat="24.950365" lon="105.0887">
<time>2015-09-27T17:16:49Z</time></trkpt>
<trkpt lat="24.950585" lon="105.088491">
<time>2015-09-27T17:16:50Z</time></trkpt>
<trkpt lat="24.950675" lon="105.088301">
<time>2015-09-27T17:16:51Z</time></trkpt>
<trkpt lat="24.950745" lon="105.088191">
<time>2015-09-27T17:16:52Z</time></trkpt>
<trkpt lat="24.950825" lon="105.088051">
<time>2015-09-27T17:16:53Z</time></trkpt>
<trkpt lat="24.951085" lon="105.087372">
<time>2015-09-27T17:16:54Z</time></trkpt>
<trkpt lat="24.951455" lon="105.086963">
<time>2015-09-27T17:16:55Z</time></trkpt>
<trkpt lat="24.953025" lon="105.087083">
<time>2015-09-27T17:16:56Z</time></trkpt>
<trkpt lat="24.953675" lon="105.087003">
<time>2015-09-27T17:16:57Z</time></trkpt>
<trkpt lat="24.954545" lon="105.086593">
<time>2015-09-27T17:16:58Z</time></trkpt>
<trkpt lat="24.955405" lon="105.086214">
<time>2015-09-27T17:16:59Z</time></trkpt>
<trkpt lat="24.955685" lon="105.085884">
<time>2015-09-27T17:17:00Z</time></trkpt>
<trkpt lat="24.955965" lon="105.085565">
<time>2015-09-27T17:17:01Z</time></trkpt>
<trkpt lat="24.956365" lon="105.085046">
<time>2015-09-27T17:17:02Z</time></trkpt>
<trkpt lat="24.956975" lon="105.084816">
<time>2015-09-27T17:17:03Z</time></trkpt>
<trkpt lat="24.958335" lon="105.084496">
<time>2015-09-27T17:17:04Z</time></trkpt>
<trkpt lat="24.959105" lon="105.084287">
<time>2015-09-27T17:17:05Z</time></trkpt>
<trkpt lat="24.959425" lon="105.084227">
<time>2015-09-27T17:17:06Z</time></trkpt>
<trkpt lat="24.960015" lon="105.084407">
<time>2015-09-27T17:17:07Z</time></trkpt>
<trkpt lat="24.960575" lon="105.084546">
<time>2015-09-27T17:17:08Z</time></trkpt>
<trkpt lat="24.961205" lon="105.084576">
<time>2015-09-27T17:17:09Z</time></trkpt>
<trkpt lat="24.961825" lon="105.084227">
<time>2015-09-27T17:17:10Z</time></trkpt>
<trkpt lat="24.962865" lon="105.083668">
<time>2015-09-27T17:17:11Z</time></trkpt>
<trkpt lat="24.963985" lon="105.083378">
<time>2015-09-27T17:17:12Z</time></trkpt>
<trkpt lat="24.964245" lon="105.083298">
<time>2015-09-27T17:17:13Z</time></trkpt>
<trkpt lat="24.965315" lon="105.082969">
<time>2015-09-27T17:17:14Z</time></trkpt>
<trkpt lat="24.965605" lon="105.082889">
<time>2015-09-27T17:17:15Z</time></trkpt>
<trkpt lat="24.966165" lon="105.082699">
<time>2015-09-27T17:17:16Z</time></trkpt>
<trkpt lat="24.966355" lon="105.082589">
<time>2015-09-27T17:17:17Z</time></trkpt>
<trkpt lat="24.966355" lon="105.082579">
<time>2015-09-27T17:17:18Z</time></trkpt>
<trkpt lat="24.966365" lon="105.082579">
<time>2015-09-27T17:17:19Z</time></trkpt>
<trkpt lat="24.966365" lon="105.082579">
<time>2015-09-27T17:17:20Z</time></trkpt>
<trkpt lat="24.966645" lon="105.0822">
<time>2015-09-27T17:17:21Z</time></trkpt>
<trkpt lat="24.967106" lon="105.081551">
<time>2015-09-27T17:17:22Z</time></trkpt>
<trkpt lat="24.967156" lon="105.081222">
<time>2015-09-27T17:17:23Z</time></trkpt>
<trkpt lat="24.967236" lon="105.080962">
<time>2015-09-27T17:17:24Z</time></trkpt>
<trkpt lat="24.967376" lon="105.080543">
<time>2015-09-27T17:17:25Z</time></trkpt>
<trkpt lat="24.967107" lon="105.079176">
<time>2015-09-27T17:17:26Z</time></trkpt>
<trkpt lat="24.966699" lon="105.077499">
<time>2015-09-27T17:17:27Z</time></trkpt>
<trkpt lat="24.966489" lon="105.07712">
<time>2015-09-27T17:17:28Z</time></trkpt>
<trkpt lat="24.966259" lon="105.076681">
<time>2015-09-27T17:17:29Z</time></trkpt>
<trkpt lat="24.96612" lon="105.075862">
<time>2015-09-27T17:17:30Z</time></trkpt>
<trkpt lat="24.965831" lon="105.075333">
<time>2015-09-27T17:17:31Z</time></trkpt>
<trkpt lat="24.965531" lon="105.074695">
<time>2015-09-27T17:17:32Z</time></trkpt>
<trkpt lat="24.965462" lon="105.073906">
<time>2015-09-27T17:17:33Z</time></trkpt>
<trkpt lat="24.965452" lon="105.073767">
<time>2015-09-27T17:17:34Z</time></trkpt>
<trkpt lat="24.965383" lon="105.073268">
<time>2015-09-27T17:17:35Z</time></trkpt>
<trkpt lat="24.965323" lon="105.072969">
<time>2015-09-27T17:17:36Z</time></trkpt>
<trkpt lat="24.965243" lon="105.072619">
<time>2015-09-27T17:17:37Z</time></trkpt>
<trkpt lat="24.965204" lon="105.07236">
<time>2015-09-27T17:17:38Z</time></trkpt>
<trkpt lat="24.965244" lon="105.0722">
<time>2015-09-27T17:17:39Z</time></trkpt>
<trkpt lat="24.965374" lon="105.071981">
<time>2015-09-27T17:17:40Z</time></trkpt>
<trkpt lat="24.965494" lon="105.071821">
<time>2015-09-27T17:17:41Z</time></trkpt>
<trkpt lat="24.965644" lon="105.071651">
<time>2015-09-27T17:17:42Z</time></trkpt>
<trkpt lat="24.965694" lon="105.071552">
<time>2015-09-27T17:17:43Z</time></trkpt>
<trkpt lat="24.965694" lon="105.071372">
<time>2015-09-27T17:17:44Z</time></trkpt>
<trkpt lat="24.965455" lon="105.070784">
<time>2015-09-27T17:17:45Z</time></trkpt>
<trkpt lat="24.965276" lon="105.070394">
<time>2015-09-27T17:17:46Z</time></trkpt>
<trkpt lat="24.965506" lon="105.069846">
<time>2015-09-27T17:17:47Z</time></trkpt>
<trkpt lat="24.965537" lon="105.069526">
<time>2015-09-27T17:17:48Z</time></trkpt>
<trkpt lat="24.965377" lon="105.068988">
<time>2015-09-27T17:17:49Z</time></trkpt>
<trkpt lat="24.964898" lon="105.068349">
<time>2015-09-27T17:17:50Z</time></trkpt>
<trkpt lat="24.964628" lon="105.06815">
<time>2015-09-27T17:17:51Z</time></trkpt>
<trkpt lat="24.964368" lon="105.06823">
<time>2015-09-27T17:17:52Z</time></trkpt>
<trkpt lat="24.964128" lon="105.068559">
<time>2015-09-27T17:17:53Z</time></trkpt>
<trkpt lat="24.963887" lon="105.068908">
<time>2015-09-27T17:17:54Z</time></trkpt>
<trkpt lat="24.963507" lon="105.069287">
<time>2015-09-27T17:17:55Z</time></trkpt>
<trkpt lat="24.963297" lon="105.069666">
<time>2015-09-27T17:17:56Z</time></trkpt>
<trkpt lat="24.963186" lon="105.070105">
<time>2015-09-27T17:17:57Z</time></trkpt>
<trkpt lat="24.963026" lon="105.070195">
<time>2015-09-27T17:17:58Z</time></trkpt>
<trkpt lat="24.962896" lon="105.070165">
<time>2015-09-27T17:17:59Z</time></trkpt>
<trkpt lat="24.962896" lon="105.069966">
<time>2015-09-27T17:18:00Z</time></trkpt>
<trkpt lat="24.963027" lon="105.069557">
<time>2015-09-27T17:18:01Z</time></trkpt>
<trkpt lat="24.963137" lon="105.069227">
<time>2015-09-27T17:18:02Z</time></trkpt>
<trkpt lat="24.963168" lon="105.068848">
<time>2015-09-27T17:18:03Z</time></trkpt>
<trkpt lat="24.963028" lon="105.068649">
<time>2015-09-27T17:18:04Z</time></trkpt>
<trkpt lat="24.962898" lon="105.06832">
<time>2015-09-27T17:18:05Z</time></trkpt>
<trkpt lat="24.962899" lon="105.067911">
<time>2015-09-27T17:18:06Z</time></trkpt>
<trkpt lat="24.96338" lon="105.066793">
<time>2015-09-27T17:18:07Z</time></trkpt>
<trkpt lat="24.9634" lon="105.066743">
<time>2015-09-27T17:18:08Z</time></trkpt>
<trkpt lat="24.96361" lon="105.066554">
<time>2015-09-27T17:18:09Z</time></trkpt>
<trkpt lat="24.964051" lon="105.066165">
<time>2015-09-27T17:18:10Z</time></trkpt>
<trkpt lat="24.964761" lon="105.065985">
<time>2015-09-27T17:18:11Z</time></trkpt>
<trkpt lat="24.965411" lon="105.066095">
<time>2015-09-27T17:18:12Z</time></trkpt>
<trkpt lat="24.965771" lon="105.066155">
<time>2015-09-27T17:18:13Z</time></trkpt>
<trkpt lat="24.965941" lon="105.066185">
<time>2015-09-27T17:18:14Z</time></trkpt>
<trkpt lat="24.966231" lon="105.065955">
<time>2015-09-27T17:18:15Z</time></trkpt>
<trkpt lat="24.966391" lon="105.065516">
<time>2015-09-27T17:18:16Z</time></trkpt>
<trkpt lat="24.966702" lon="105.065317">
<time>2015-09-27T17:18:17Z</time></trkpt>
<trkpt lat="24.967062" lon="105.065137">
<time>2015-09-27T17:18:18Z</time></trkpt>
<trkpt lat="24.967242" lon="105.064818">
<time>2015-09-27T17:18:19Z</time></trkpt>
<trkpt lat="24.967273" lon="105.06418">
<time>2015-09-27T17:18:20Z</time></trkpt>
<trkpt lat="24.967595" lon="105.063113">
<time>2015-09-27T17:18:21Z</time></trkpt>
<trkpt lat="24.967915" lon="105.062953">
<time>2015-09-27T17:18:22Z</time></trkpt>
<trkpt lat="24.968045" lon="105.062774">
<time>2015-09-27T17:18:23Z</time></trkpt>
<trkpt lat="24.968205" lon="105.062544">
<time>2015-09-27T17:18:24Z</time></trkpt>
<trkpt lat="24.968826" lon="105.061976">
<time>2015-09-27T17:18:25Z</time></trkpt>
<trkpt lat="24.968976" lon="105.061806">
<time>2015-09-27T17:18:26Z</time></trkpt>
<trkpt lat="24.969347" lon="105.061427">
<time>2015-09-27T17:18:27Z</time></trkpt>
<trkpt lat="24.969857" lon="105.060979">
<time>2015-09-27T17:18:28Z</time></trkpt>
<trkpt lat="24.970367" lon="105.061108">
<time>2015-09-27T17:18:29Z</time></trkpt>
<trkpt lat="24.970817" lon="105.061158">
<time>2015-09-27T17:18:30Z</time></trkpt>
<trkpt lat="24.970997" lon="105.061078">
<time>2015-09-27T17:18:31Z</time></trkpt>
<trkpt lat="24.971077" lon="105.061048">
<time>2015-09-27T17:18:32Z</time></trkpt>
<trkpt lat="24.971318" lon="105.060161">
<time>2015-09-27T17:18:33Z</time></trkpt>
<trkpt lat="24.971399" lon="105.059523">
<time>2015-09-27T17:18:34Z</time></trkpt>
<trkpt lat="24.97158" lon="105.059044">
<time>2015-09-27T17:18:35Z</time></trkpt>
<trkpt lat="24.971691" lon="105.058735">
<time>2015-09-27T17:18:36Z</time></trkpt>
<trkpt lat="24.971752" lon="105.057997">
<time>2015-09-27T17:18:37Z</time></trkpt>
<trkpt lat="24.971643" lon="105.05707">
<time>2015-09-27T17:18:38Z</time></trkpt>
<trkpt lat="24.971435" lon="105.056183">
<time>2015-09-27T17:18:39Z</time></trkpt>
<trkpt lat="24.971596" lon="105.055754">
<time>2015-09-27T17:18:40Z</time></trkpt>
<trkpt lat="24.971976" lon="105.055614">
<time>2015-09-27T17:18:41Z</time></trkpt>
<trkpt lat="24.972206" lon="105.055524">
<time>2015-09-27T17:18:42Z</time></trkpt>
<trkpt lat="24.972686" lon="105.055405">
<time>2015-09-27T17:18:43Z</time></trkpt>
<trkpt lat="24.972977" lon="105.055026">
<time>2015-09-27T17:18:44Z</time></trkpt>
<trkpt lat="24.972987" lon="105.054976">
<time>2015-09-27T17:18:45Z</time></trkpt>
<trkpt lat="24.973188" lon="105.054268">
<time>2015-09-27T17:18:46Z</time></trkpt>
<trkpt lat="24.97308" lon="105.053092">
<time>2015-09-27T17:18:47Z</time></trkpt>
<trkpt lat="24.972662" lon="105.052215">
<time>2015-09-27T17:18:48Z</time></trkpt>
<trkpt lat="24.972682" lon="105.052005">
<time>2015-09-27T17:18:49Z</time></trkpt>
<trkpt lat="24.972893" lon="105.051776">
<time>2015-09-27T17:18:50Z</time></trkpt>
<trkpt lat="24.973123" lon="105.051776">
<time>2015-09-27T17:18:51Z</time></trkpt>
<trkpt lat="24.973323" lon="105.051776">
<time>2015-09-27T17:18:52Z</time></trkpt>
<trkpt lat="24.973752" lon="105.051886">
<time>2015-09-27T17:18:53Z</time></trkpt>
<trkpt lat="24.974122" lon="105.051836">
<time>2015-09-27T17:18:54Z</time></trkpt>
<trkpt lat="24.974603" lon="105.051746">
<time>2015-09-27T17:18:55Z</time></trkpt>
<trkpt lat="24.974953" lon="105.051746">
<time>2015-09-27T17:18:56Z</time></trkpt>
<trkpt lat="24.975511" lon="105.052504">
<time>2015-09-27T17:18:57Z</time></trkpt>
<trkpt lat="24.976309" lon="105.053471">
<time>2015-09-27T17:18:58Z</time></trkpt>
<trkpt lat="24.976999" lon="105.05379">
<time>2015-09-27T17:18:59Z</time></trkpt>
<trkpt lat="24.977959" lon="105.053411">
<time>2015-09-27T17:19:00Z</time></trkpt>
<trkpt lat="24.97849" lon="105.052862">
<time>2015-09-27T17:19:01Z</time></trkpt>
<trkpt lat="24.978922" lon="105.051975">
<time>2015-09-27T17:19:02Z</time></trkpt>
<trkpt lat="24.980273" lon="105.051108">
<time>2015-09-27T17:19:03Z</time></trkpt>
<trkpt lat="24.980734" lon="105.05047">
<time>2015-09-27T17:19:04Z</time></trkpt>
<trkpt lat="24.981265" lon="105.049822">
<time>2015-09-27T17:19:05Z</time></trkpt>
<trkpt lat="24.981505" lon="105.049842">
<time>2015-09-27T17:19:06Z</time></trkpt>
<trkpt lat="24.981875" lon="105.050111">
<time>2015-09-27T17:19:07Z</time></trkpt>
<trkpt lat="24.982365" lon="105.050201">
<time>2015-09-27T17:19:08Z</time></trkpt>
<trkpt lat="24.982625" lon="105.050201">
<time>2015-09-27T17:19:09Z</time></trkpt>
<trkpt lat="24.983024" lon="105.050201">
<time>2015-09-27T17:19:10Z</time></trkpt>
<trkpt lat="24.983185" lon="105.049972">
<time>2015-09-27T17:19:11Z</time></trkpt>
<trkpt lat="24.983506" lon="105.049583">
<time>2015-09-27T17:19:12Z</time></trkpt>
<trkpt lat="24.983826" lon="105.049384">
<time>2015-09-27T17:19:13Z</time></trkpt>
<trkpt lat="24.984176" lon="105.049354">
<time>2015-09-27T17:19:14Z</time></trkpt>
<trkpt lat="24.984306" lon="105.049284">
<time>2015-09-27T17:19:15Z</time></trkpt>
<trkpt lat="24.984356" lon="105.049264">
<time>2015-09-27T17:19:16Z</time></trkpt>
<trkpt lat="24.984356" lon="105.049264">
<time>2015-09-27T17:19:17Z</time></trkpt>
<trkpt lat="24.984406" lon="105.049244">
<time>2015-09-27T17:19:18Z</time></trkpt>
<trkpt lat="24.984456" lon="105.049144">
<time>2015-09-27T17:19:19Z</time></trkpt>
<trkpt lat="24.984517" lon="105.049035">
<time>2015-09-27T17:19:20Z</time></trkpt>
<trkpt lat="24.984408" lon="105.048247">
<time>2015-09-27T17:19:21Z</time></trkpt>
<trkpt lat="24.983721" lon="105.047041">
<time>2015-09-27T17:19:22Z</time></trkpt>
<trkpt lat="24.983004" lon="105.045756">
<time>2015-09-27T17:19:23Z</time></trkpt>
<trkpt lat="24.982836" lon="105.044759">
<time>2015-09-27T17:19:24Z</time></trkpt>
<trkpt lat="24.982967" lon="105.044122">
<time>2015-09-27T17:19:25Z</time></trkpt>
<trkpt lat="24.983448" lon="105.043643">
<time>2015-09-27T17:19:26Z</time></trkpt>
<trkpt lat="24.984569" lon="105.043304">
<time>2015-09-27T17:19:27Z</time></trkpt>
<trkpt lat="24.984939" lon="105.042976">
<time>2015-09-27T17:19:28Z</time></trkpt>
<trkpt lat="24.984891" lon="105.042129">
<time>2015-09-27T17:19:29Z</time></trkpt>
<trkpt lat="24.984733" lon="105.041571">
<time>2015-09-27T17:19:30Z</time></trkpt>
<trkpt lat="24.985044" lon="105.040684">
<time>2015-09-27T17:19:31Z</time></trkpt>
<trkpt lat="24.985075" lon="105.040604">
<time>2015-09-27T17:19:32Z</time></trkpt>
<trkpt lat="24.985156" lon="105.039877">
<time>2015-09-27T17:19:33Z</time></trkpt>
<trkpt lat="24.985138" lon="105.03912">
<time>2015-09-27T17:19:34Z</time></trkpt>
<trkpt lat="24.98585" lon="105.038183">
<time>2015-09-27T17:19:35Z</time></trkpt>
<trkpt lat="24.986091" lon="105.037974">
<time>2015-09-27T17:19:36Z</time></trkpt>
<trkpt lat="24.986161" lon="105.037864">
<time>2015-09-27T17:19:37Z</time></trkpt>
<trkpt lat="24.986211" lon="105.037745">
<time>2015-09-27T17:19:38Z</time></trkpt>
<trkpt lat="24.986172" lon="105.037575">
<time>2015-09-27T17:19:39Z</time></trkpt>
<trkpt lat="24.986012" lon="105.037306">
<time>2015-09-27T17:19:40Z</time></trkpt>
<trkpt lat="24.985813" lon="105.037028">
<time>2015-09-27T17:19:41Z</time></trkpt>
<trkpt lat="24.985774" lon="105.036788">
<time>2015-09-27T17:19:42Z</time></trkpt>
<trkpt lat="24.985894" lon="105.036519">
<time>2015-09-27T17:19:43Z</time></trkpt>
<trkpt lat="24.986145" lon="105.036081">
<time>2015-09-27T17:19:44Z</time></trkpt>
<trkpt lat="24.986307" lon="105.035264">
<time>2015-09-27T17:19:45Z</time></trkpt>
<trkpt lat="24.986358" lon="105.034995">
<time>2015-09-27T17:19:46Z</time></trkpt>
<trkpt lat="24.986951" lon="105.03365">
<time>2015-09-27T17:19:47Z</time></trkpt>
<trkpt lat="24.987663" lon="105.032983">
<time>2015-09-27T17:19:48Z</time></trkpt>
<trkpt lat="24.988153" lon="105.032824">
<time>2015-09-27T17:19:49Z</time></trkpt>
<trkpt lat="24.988574" lon="105.032545">
<time>2015-09-27T17:19:50Z</time></trkpt>
<trkpt lat="24.988995" lon="105.032077">
<time>2015-09-27T17:19:51Z</time></trkpt>
<trkpt lat="24.989266" lon="105.031668">
<time>2015-09-27T17:19:52Z</time></trkpt>
<trkpt lat="24.989897" lon="105.031369">
<time>2015-09-27T17:19:53Z</time></trkpt>
<trkpt lat="24.990358" lon="105.030692">
<time>2015-09-27T17:19:54Z</time></trkpt>
<trkpt lat="24.990419" lon="105.030373">
<time>2015-09-27T17:19:55Z</time></trkpt>
<trkpt lat="24.990519" lon="105.030284">
<time>2015-09-27T17:19:56Z</time></trkpt>
<trkpt lat="24.990809" lon="105.030493">
<time>2015-09-27T17:19:57Z</time></trkpt>
<trkpt lat="24.991407" lon="105.03125">
<time>2015-09-27T17:19:58Z</time></trkpt>
<trkpt lat="24.991666" lon="105.031399">
<time>2015-09-27T17:19:59Z</time></trkpt>
<trkpt lat="24.992036" lon="105.031399">
<time>2015-09-27T17:20:00Z</time></trkpt>
<trkpt lat="24.992437" lon="105.0311">
<time>2015-09-27T17:20:01Z</time></trkpt>
<trkpt lat="24.993237" lon="105.030961">
<time>2015-09-27T17:20:02Z</time></trkpt>
<trkpt lat="24.993716" lon="105.03123">
<time>2015-09-27T17:20:03Z</time></trkpt>
<trkpt lat="24.994255" lon="105.031578">
<time>2015-09-27T17:20:04Z</time></trkpt>
<trkpt lat="24.994675" lon="105.031628">
<time>2015-09-27T17:20:05Z</time></trkpt>
<trkpt lat="24.994705" lon="105.031638">
<time>2015-09-27T17:20:06Z</time></trkpt>
<trkpt lat="24.995176" lon="105.031429">
<time>2015-09-27T17:20:07Z</time></trkpt>
<trkpt lat="24.995326" lon="105.031279">
<time>2015-09-27T17:20:08Z</time></trkpt>
<trkpt lat="24.995416" lon="105.03123">
<time>2015-09-27T17:20:09Z</time></trkpt>
<trkpt lat="24.996378" lon="105.030642">
<time>2015-09-27T17:20:10Z</time></trkpt>
<trkpt lat="24.996528" lon="105.030572">
<time>2015-09-27T17:20:11Z</time></trkpt>
<trkpt lat="24.997038" lon="105.030323">
<time>2015-09-27T17:20:12Z</time></trkpt>
<trkpt lat="24.997688" lon="105.030323">
<time>2015-09-27T17:20:13Z</time></trkpt>
<trkpt lat="24.998219" lon="105.029994">
<time>2015-09-27T17:20:14Z</time></trkpt>
<trkpt lat="24.998891" lon="105.029357">
<time>2015-09-27T17:20:15Z</time></trkpt>
<trkpt lat="24.999503" lon="105.0286">
<time>2015-09-27T17:20:16Z</time></trkpt>
<trkpt lat="24.999904" lon="105.028052">
<time>2015-09-27T17:20:17Z</time></trkpt>
<trkpt lat="25.000004" lon="105.027903">
<time>2015-09-27T17:20:18Z</time></trkpt>
<trkpt lat="25.000055" lon="105.027813">
<time>2015-09-27T17:20:19Z</time></trkpt>
<trkpt lat="25.000205" lon="105.027684">
<time>2015-09-27T17:20:20Z</time></trkpt>
<trkpt lat="25.000345" lon="105.027564">
<time>2015-09-27T17:20:21Z</time></trkpt>
<trkpt lat="25.000365" lon="105.027554">
<time>2015-09-27T17:20:22Z</time></trkpt>
<trkpt lat="25.000445" lon="105.027494">
<time>2015-09-27T17:20:23Z</time></trkpt>
<trkpt lat="25.000535" lon="105.027475">
<time>2015-09-27T17:20:24Z</time></trkpt>
<trkpt lat="25.000616" lon="105.027445">
<time>2015-09-27T17:20:25Z</time></trkpt>
<trkpt lat="25.000786" lon="105.027365">
<time>2015-09-27T17:20:26Z</time></trkpt>
<trkpt lat="25.000896" lon="105.027275">
<time>2015-09-27T17:20:27Z</time></trkpt>
<trkpt lat="25.001047" lon="105.027026">
<time>2015-09-27T17:20:28Z</time></trkpt>
<trkpt lat="25.001047" lon="105.027026">
<time>2015-09-27T17:20:29Z</time></trkpt>
<trkpt lat="25.001127" lon="105.026947">
<time>2015-09-27T17:20:30Z</time></trkpt>
<trkpt lat="25.001217" lon="105.026847">
<time>2015-09-27T17:20:31Z</time></trkpt>
<trkpt lat="25.001297" lon="105.026787">
<time>2015-09-27T17:20:32Z</time></trkpt>
<trkpt lat="25.001367" lon="105.026708">
<time>2015-09-27T17:20:33Z</time></trkpt>
<trkpt lat="25.001458" lon="105.026618">
<time>2015-09-27T17:20:34Z</time></trkpt>
<trkpt lat="25.001588" lon="105.026498">
<time>2015-09-27T17:20:35Z</time></trkpt>
<trkpt lat="25.001989" lon="105.0261">
<time>2015-09-27T17:20:36Z</time></trkpt>
<trkpt lat="25.002279" lon="105.025891">
<time>2015-09-27T17:20:37Z</time></trkpt>
<trkpt lat="25.00285" lon="105.025692">
<time>2015-09-27T17:20:38Z</time></trkpt>
<trkpt lat="25.00336" lon="105.025503">
<time>2015-09-27T17:20:39Z</time></trkpt>
<trkpt lat="25.003921" lon="105.025333">
<time>2015-09-27T17:20:40Z</time></trkpt>
<trkpt lat="25.004411" lon="105.025224">
<time>2015-09-27T17:20:41Z</time></trkpt>
<trkpt lat="25.004551" lon="105.025214">
<time>2015-09-27T17:20:42Z</time></trkpt>
<trkpt lat="25.004691" lon="105.025244">
<time>2015-09-27T17:20:43Z</time></trkpt>
<trkpt lat="25.004891" lon="105.025293">
<time>2015-09-27T17:20:44Z</time></trkpt>
<trkpt lat="25.004941" lon="105.025323">
<time>2015-09-27T17:20:45Z</time></trkpt>
<trkpt lat="25.004991" lon="105.025363">
<time>2015-09-27T17:20:46Z</time></trkpt>
<trkpt lat="25.00505" lon="105.025413">
<time>2015-09-27T17:20:47Z</time></trkpt>
<trkpt lat="25.0051" lon="105.025463">
<time>2015-09-27T17:20:48Z</time></trkpt>
<trkpt lat="25.00515" lon="105.025522">
<time>2015-09-27T17:20:49Z</time></trkpt>
<trkpt lat="25.0052" lon="105.025592">
<time>2015-09-27T17:20:50Z</time></trkpt>
<trkpt lat="25.00525" lon="105.025662">
<time>2015-09-27T17:20:51Z</time></trkpt>
<trkpt lat="25.0053" lon="105.025731">
<time>2015-09-27T17:20:52Z</time></trkpt>
<trkpt lat="25.005349" lon="105.025801">
<time>2015-09-27T17:20:53Z</time></trkpt>
<trkpt lat="25.005399" lon="105.025861">
<time>2015-09-27T17:20:54Z</time></trkpt>
<trkpt lat="25.005439" lon="105.025931">
<time>2015-09-27T17:20:55Z</time></trkpt>
<trkpt lat="25.005489" lon="105.02598">
<time>2015-09-27T17:20:56Z</time></trkpt>
<trkpt lat="25.005509" lon="105.026">
<time>2015-09-27T17:20:57Z</time></trkpt>
<trkpt lat="25.005739" lon="105.02597">
<time>2015-09-27T17:20:58Z</time></trkpt>
<trkpt lat="25.005889" lon="105.025931">
<time>2015-09-27T17:20:59Z</time></trkpt>
<trkpt lat="25.006099" lon="105.025751">
<time>2015-09-27T17:21:00Z</time></trkpt>
<trkpt lat="25.00617" lon="105.025492">
<time>2015-09-27T17:21:01Z</time></trkpt>
<trkpt lat="25.00618" lon="105.025473">
<time>2015-09-27T17:21:02Z</time></trkpt>
<trkpt lat="25.006191" lon="105.025313">
<time>2015-09-27T17:21:03Z</time></trkpt>
<trkpt lat="25.006181" lon="105.025154">
<time>2015-09-27T17:21:04Z</time></trkpt>
<trkpt lat="25.006151" lon="105.024994">
<time>2015-09-27T17:21:05Z</time></trkpt>
<trkpt lat="25.006122" lon="105.024835">
<time>2015-09-27T17:21:06Z</time></trkpt>
<trkpt lat="25.006072" lon="105.024686">
<time>2015-09-27T17:21:07Z</time></trkpt>
<trkpt lat="25.006023" lon="105.024526">
<time>2015-09-27T17:21:08Z</time></trkpt>
<trkpt lat="25.005933" lon="105.024287">
<time>2015-09-27T17:21:09Z</time></trkpt>
<trkpt lat="25.005844" lon="105.024058">
<time>2015-09-27T17:21:10Z</time></trkpt>
<trkpt lat="25.005765" lon="105.023829">
<time>2015-09-27T17:21:11Z</time></trkpt>
<trkpt lat="25.005685" lon="105.02359">
<time>2015-09-27T17:21:12Z</time></trkpt>
<trkpt lat="25.005606" lon="105.023351">
<time>2015-09-27T17:21:13Z</time></trkpt>
<trkpt lat="25.005547" lon="105.023102">
<time>2015-09-27T17:21:14Z</time></trkpt>
<trkpt lat="25.005507" lon="105.022834">
<time>2015-09-27T17:21:15Z</time></trkpt>
<trkpt lat="25.005478" lon="105.022535">
<time>2015-09-27T17:21:16Z</time></trkpt>
<trkpt lat="25.005469" lon="105.022276">
<time>2015-09-27T17:21:17Z</time></trkpt>
<trkpt lat="25.00548" lon="105.022007">
<time>2015-09-27T17:21:18Z</time></trkpt>
<trkpt lat="25.005501" lon="105.021738">
<time>2015-09-27T17:21:19Z</time></trkpt>
<trkpt lat="25.005551" lon="105.021499">
<time>2015-09-27T17:21:20Z</time></trkpt>
<trkpt lat="25.005632" lon="105.02128">
<time>2015-09-27T17:21:21Z</time></trkpt>
<trkpt lat="25.005742" lon="105.021111">
<time>2015-09-27T17:21:22Z</time></trkpt>
<trkpt lat="25.005873" lon="105.020991">
<time>2015-09-27T17:21:23Z</time></trkpt>
<trkpt lat="25.006053" lon="105.020942">
<time>2015-09-27T17:21:24Z</time></trkpt>
<trkpt lat="25.006063" lon="105.020942">
<time>2015-09-27T17:21:25Z</time></trkpt>
<trkpt lat="25.006073" lon="105.020942">
<time>2015-09-27T17:21:26Z</time></trkpt>
<trkpt lat="25.006083" lon="105.020942">
<time>2015-09-27T17:21:27Z</time></trkpt>
<trkpt lat="25.006093" lon="105.020942">
<time>2015-09-27T17:21:28Z</time></trkpt>
<trkpt lat="25.006163" lon="105.020951">
<time>2015-09-27T17:21:29Z</time></trkpt>
<trkpt lat="25.006223" lon="105.020981">
<time>2015-09-27T17:21:30Z</time></trkpt>
<trkpt lat="25.006272" lon="105.021011">
<time>2015-09-27T17:21:31Z</time></trkpt>
<trkpt lat="25.006332" lon="105.021051">
<time>2015-09-27T17:21:32Z</time></trkpt>
<trkpt lat="25.006382" lon="105.021091">
<time>2015-09-27T17:21:33Z</time></trkpt>
<trkpt lat="25.006432" lon="105.021141">
<time>2015-09-27T17:21:34Z</time></trkpt>
<trkpt lat="25.006482" lon="105.0212">
<time>2015-09-27T17:21:35Z</time></trkpt>
<trkpt lat="25.006532" lon="105.02126">
<time>2015-09-27T17:21:36Z</time></trkpt>
<trkpt lat="25.006671" lon="105.021429">
<time>2015-09-27T17:21:37Z</time></trkpt>
<trkpt lat="25.006801" lon="105.021609">
<time>2015-09-27T17:21:38Z</time></trkpt>
<trkpt lat="25.00693" lon="105.021778">
<time>2015-09-27T17:21:39Z</time></trkpt>
<trkpt lat="25.00705" lon="105.021947">
<time>2015-09-27T17:21:40Z</time></trkpt>
<trkpt lat="25.007179" lon="105.022107">
<time>2015-09-27T17:21:41Z</time></trkpt>
<trkpt lat="25.007309" lon="105.022266">
<time>2015-09-27T17:21:42Z</time></trkpt>
<trkpt lat="25.007458" lon="105.022415">
<time>2015-09-27T17:21:43Z</time></trkpt>
<trkpt lat="25.007608" lon="105.022555">
<time>2015-09-27T17:21:44Z</time></trkpt>
<trkpt lat="25.007648" lon="105.022584">
<time>2015-09-27T17:21:45Z</time></trkpt>
<trkpt lat="25.007698" lon="105.022624">
<time>2015-09-27T17:21:46Z</time></trkpt>
<trkpt lat="25.007738" lon="105.022654">
<time>2015-09-27T17:21:47Z</time></trkpt>
<trkpt lat="25.007788" lon="105.022684">
<time>2015-09-27T17:21:48Z</time></trkpt>
<trkpt lat="25.007838" lon="105.022714">
<time>2015-09-27T17:21:49Z</time></trkpt>
<trkpt lat="25.007877" lon="105.022744">
<time>2015-09-27T17:21:50Z</time></trkpt>
<trkpt lat="25.007927" lon="105.022764">
<time>2015-09-27T17:21:51Z</time></trkpt>
<trkpt lat="25.007967" lon="105.022774">
<time>2015-09-27T17:21:52Z</time></trkpt>
<trkpt lat="25.007977" lon="105.022784">
<time>2015-09-27T17:21:53Z</time></trkpt>
<trkpt lat="25.008107" lon="105.022823">
<time>2015-09-27T17:21:54Z</time></trkpt>
<trkpt lat="25.008247" lon="105.022843">
<time>2015-09-27T17:21:55Z</time></trkpt>
<trkpt lat="25.008377" lon="105.022843">
<time>2015-09-27T17:21:56Z</time></trkpt>
<trkpt lat="25.008517" lon="105.022843">
<time>2015-09-27T17:21:57Z</time></trkpt>
<trkpt lat="25.008657" lon="105.022823">
<time>2015-09-27T17:21:58Z</time></trkpt>
<trkpt lat="25.008807" lon="105.022794">
<time>2015-09-27T17:21:59Z</time></trkpt>
<trkpt lat="25.008947" lon="105.022754">
<time>2015-09-27T17:22:00Z</time></trkpt>
<trkpt lat="25.009087" lon="105.022724">
<time>2015-09-27T17:22:01Z</time></trkpt>
<trkpt lat="25.009327" lon="105.022664">
<time>2015-09-27T17:22:02Z</time></trkpt>
<trkpt lat="25.009558" lon="105.022604">
<time>2015-09-27T17:22:03Z</time></trkpt>
<trkpt lat="25.009778" lon="105.022535">
<time>2015-09-27T17:22:04Z</time></trkpt>
<trkpt lat="25.009998" lon="105.022445">
<time>2015-09-27T17:22:05Z</time></trkpt>
<trkpt lat="25.010208" lon="105.022355">
<time>2015-09-27T17:22:06Z</time></trkpt>
<trkpt lat="25.010228" lon="105.022345">
<time>2015-09-27T17:22:07Z</time></trkpt>
<trkpt lat="25.010409" lon="105.022246">
<time>2015-09-27T17:22:08Z</time></trkpt>
<trkpt lat="25.010589" lon="105.022106">
<time>2015-09-27T17:22:09Z</time></trkpt>
<trkpt lat="25.010759" lon="105.021947">
<time>2015-09-27T17:22:10Z</time></trkpt>
<trkpt lat="25.010819" lon="105.021877">
<time>2015-09-27T17:22:11Z</time></trkpt>
<trkpt lat="25.01087" lon="105.021798">
<time>2015-09-27T17:22:12Z</time></trkpt>
<trkpt lat="25.0109" lon="105.021768">
<time>2015-09-27T17:22:13Z</time></trkpt>
<trkpt lat="25.011282" lon="105.020852">
<time>2015-09-27T17:22:14Z</time></trkpt>
<trkpt lat="25.011302" lon="105.020812">
<time>2015-09-27T17:22:15Z</time></trkpt>
<trkpt lat="25.011614" lon="105.020155">
<time>2015-09-27T17:22:16Z</time></trkpt>
<trkpt lat="25.011664" lon="105.020135">
<time>2015-09-27T17:22:17Z</time></trkpt>
<trkpt lat="25.011734" lon="105.020105">
<time>2015-09-27T17:22:18Z</time></trkpt>
<trkpt lat="25.011854" lon="105.020055">
<time>2015-09-27T17:22:19Z</time></trkpt>
<trkpt lat="25.011985" lon="105.020015">
<time>2015-09-27T17:22:20Z</time></trkpt>
<trkpt lat="25.012115" lon="105.019975">
<time>2015-09-27T17:22:21Z</time></trkpt>
<trkpt lat="25.012245" lon="105.019945">
<time>2015-09-27T17:22:22Z</time></trkpt>
<trkpt lat="25.012375" lon="105.019936">
<time>2015-09-27T17:22:23Z</time></trkpt>
<trkpt lat="25.012495" lon="105.019926">
<time>2015-09-27T17:22:24Z</time></trkpt>
<trkpt lat="25.012625" lon="105.019926">
<time>2015-09-27T17:22:25Z</time></trkpt>
<trkpt lat="25.012745" lon="105.019935">
<time>2015-09-27T17:22:26Z</time></trkpt>
<trkpt lat="25.012925" lon="105.019975">
<time>2015-09-27T17:22:27Z</time></trkpt>
<trkpt lat="25.013094" lon="105.020035">
<time>2015-09-27T17:22:28Z</time></trkpt>
<trkpt lat="25.013264" lon="105.020105">
<time>2015-09-27T17:22:29Z</time></trkpt>
<trkpt lat="25.013424" lon="105.020194">
<time>2015-09-27T17:22:30Z</time></trkpt>
<trkpt lat="25.013494" lon="105.020224">
<time>2015-09-27T17:22:31Z</time></trkpt>
<trkpt lat="25.013763" lon="105.020364">
<time>2015-09-27T17:22:32Z</time></trkpt>
<trkpt lat="25.013933" lon="105.020443">
<time>2015-09-27T17:22:33Z</time></trkpt>
<trkpt lat="25.014093" lon="105.020513">
<time>2015-09-27T17:22:34Z</time></trkpt>
<trkpt lat="25.014263" lon="105.020573">
<time>2015-09-27T17:22:35Z</time></trkpt>
<trkpt lat="25.014423" lon="105.020622">
<time>2015-09-27T17:22:36Z</time></trkpt>
<trkpt lat="25.014582" lon="105.020662">
<time>2015-09-27T17:22:37Z</time></trkpt>
<trkpt lat="25.014752" lon="105.020692">
<time>2015-09-27T17:22:38Z</time></trkpt>
<trkpt lat="25.014922" lon="105.020732">
<time>2015-09-27T17:22:39Z</time></trkpt>
<trkpt lat="25.015092" lon="105.020762">
<time>2015-09-27T17:22:40Z</time></trkpt>
<trkpt lat="25.015272" lon="105.020802">
<time>2015-09-27T17:22:41Z</time></trkpt>
<trkpt lat="25.015442" lon="105.020851">
<time>2015-09-27T17:22:42Z</time></trkpt>
<trkpt lat="25.015522" lon="105.020871">
<time>2015-09-27T17:22:43Z</time></trkpt>
<trkpt lat="25.015592" lon="105.020891">
<time>2015-09-27T17:22:44Z</time></trkpt>
<trkpt lat="25.015662" lon="105.020921">
<time>2015-09-27T17:22:45Z</time></trkpt>
<trkpt lat="25.015731" lon="105.020951">
<time>2015-09-27T17:22:46Z</time></trkpt>
<trkpt lat="25.015801" lon="105.020991">
<time>2015-09-27T17:22:47Z</time></trkpt>
<trkpt lat="25.015861" lon="105.021031">
<time>2015-09-27T17:22:48Z</time></trkpt>
<trkpt lat="25.015921" lon="105.021071">
<time>2015-09-27T17:22:49Z</time></trkpt>
<trkpt lat="25.015961" lon="105.02113">
<time>2015-09-27T17:22:50Z</time></trkpt>
<trkpt lat="25.016011" lon="105.0212">
<time>2015-09-27T17:22:51Z</time></trkpt>
<trkpt lat="25.016051" lon="105.02128">
<time>2015-09-27T17:22:52Z</time></trkpt>
<trkpt lat="25.01608" lon="105.021369">
<time>2015-09-27T17:22:53Z</time></trkpt>
<trkpt lat="25.0161" lon="105.021459">
<time>2015-09-27T17:22:54Z</time></trkpt>
<trkpt lat="25.01612" lon="105.021558">
<time>2015-09-27T17:22:55Z</time></trkpt>
<trkpt lat="25.016139" lon="105.021648">
<time>2015-09-27T17:22:56Z</time></trkpt>
<trkpt lat="25.016159" lon="105.021748">
<time>2015-09-27T17:22:57Z</time></trkpt>
<trkpt lat="25.016179" lon="105.021847">
<time>2015-09-27T17:22:58Z</time></trkpt>
<trkpt lat="25.016209" lon="105.021987">
<time>2015-09-27T17:22:59Z</time></trkpt>
<trkpt lat="25.016258" lon="105.022116">
<time>2015-09-27T17:23:00Z</time></trkpt>
<trkpt lat="25.016308" lon="105.022236">
<time>2015-09-27T17:23:01Z</time></trkpt>
<trkpt lat="25.016367" lon="105.022355">
<time>2015-09-27T17:23:02Z</time></trkpt>
<trkpt lat="25.016437" lon="105.022475">
<time>2015-09-27T17:23:03Z</time></trkpt>
<trkpt lat="25.016507" lon="105.022584">
<time>2015-09-27T17:23:04Z</time></trkpt>
<trkpt lat="25.016557" lon="105.022674">
<time>2015-09-27T17:23:05Z</time></trkpt>
<trkpt lat="25.016576" lon="105.022694">
<time>2015-09-27T17:23:06Z</time></trkpt>
<trkpt lat="25.016656" lon="105.022803">
<time>2015-09-27T17:23:07Z</time></trkpt>
<trkpt lat="25.016726" lon="105.022893">
<time>2015-09-27T17:23:08Z</time></trkpt>
<trkpt lat="25.016796" lon="105.022982">
<time>2015-09-27T17:23:09Z</time></trkpt>
<trkpt lat="25.016865" lon="105.023072">
<time>2015-09-27T17:23:10Z</time></trkpt>
<trkpt lat="25.016935" lon="105.023152">
<time>2015-09-27T17:23:11Z</time></trkpt>
<trkpt lat="25.017015" lon="105.023231">
<time>2015-09-27T17:23:12Z</time></trkpt>
<trkpt lat="25.017095" lon="105.023311">
<time>2015-09-27T17:23:13Z</time></trkpt>
<trkpt lat="25.017174" lon="105.023391">
<time>2015-09-27T17:23:14Z</time></trkpt>
<trkpt lat="25.017254" lon="105.02346">
<time>2015-09-27T17:23:15Z</time></trkpt>
<trkpt lat="25.017404" lon="105.02358">
<time>2015-09-27T17:23:16Z</time></trkpt>
<trkpt lat="25.017554" lon="105.023689">
<time>2015-09-27T17:23:17Z</time></trkpt>
<trkpt lat="25.017713" lon="105.023789">
<time>2015-09-27T17:23:18Z</time></trkpt>
<trkpt lat="25.017883" lon="105.023869">
<time>2015-09-27T17:23:19Z</time></trkpt>
<trkpt lat="25.018053" lon="105.023938">
<time>2015-09-27T17:23:20Z</time></trkpt>
<trkpt lat="25.018233" lon="105.024008">
<time>2015-09-27T17:23:21Z</time></trkpt>
<trkpt lat="25.018403" lon="105.024048">
<time>2015-09-27T17:23:22Z</time></trkpt>
<trkpt lat="25.018572" lon="105.024078">
<time>2015-09-27T17:23:23Z</time></trkpt>
<trkpt lat="25.018582" lon="105.024088">
<time>2015-09-27T17:23:24Z</time></trkpt>
<trkpt lat="25.018672" lon="105.024098">
<time>2015-09-27T17:23:25Z</time></trkpt>
<trkpt lat="25.018762" lon="105.024108">
<time>2015-09-27T17:23:26Z</time></trkpt>
<trkpt lat="25.018852" lon="105.024108">
<time>2015-09-27T17:23:27Z</time></trkpt>
<trkpt lat="25.018942" lon="105.024108">
<time>2015-09-27T17:23:28Z</time></trkpt>
<trkpt lat="25.019032" lon="105.024098">
<time>2015-09-27T17:23:29Z</time></trkpt>
<trkpt lat="25.019122" lon="105.024088">
<time>2015-09-27T17:23:30Z</time></trkpt>
<trkpt lat="25.019212" lon="105.024078">
<time>2015-09-27T17:23:31Z</time></trkpt>
<trkpt lat="25.019292" lon="105.024058">
<time>2015-09-27T17:23:32Z</time></trkpt>
<trkpt lat="25.019352" lon="105.024038">
<time>2015-09-27T17:23:33Z</time></trkpt>
<trkpt lat="25.019443" lon="105.024008">
<time>2015-09-27T17:23:34Z</time></trkpt>
<trkpt lat="25.019583" lon="105.023938">
<time>2015-09-27T17:23:35Z</time></trkpt>
<trkpt lat="25.019713" lon="105.023859">
<time>2015-09-27T17:23:36Z</time></trkpt>
<trkpt lat="25.019843" lon="105.023759">
<time>2015-09-27T17:23:37Z</time></trkpt>
<trkpt lat="25.019963" lon="105.023649">
<time>2015-09-27T17:23:38Z</time></trkpt>
<trkpt lat="25.020074" lon="105.02354">
<time>2015-09-27T17:23:39Z</time></trkpt>
<trkpt lat="25.020184" lon="105.02341">
<time>2015-09-27T17:23:40Z</time></trkpt>
<trkpt lat="25.020204" lon="105.023381">
<time>2015-09-27T17:23:41Z</time></trkpt>
<trkpt lat="25.020284" lon="105.023281">
<time>2015-09-27T17:23:42Z</time></trkpt>
<trkpt lat="25.020385" lon="105.023122">
<time>2015-09-27T17:23:43Z</time></trkpt>
<trkpt lat="25.020485" lon="105.022942">
<time>2015-09-27T17:23:44Z</time></trkpt>
<trkpt lat="25.020566" lon="105.022773">
<time>2015-09-27T17:23:45Z</time></trkpt>
<trkpt lat="25.020646" lon="105.022594">
<time>2015-09-27T17:23:46Z</time></trkpt>
<trkpt lat="25.020727" lon="105.022405">
<time>2015-09-27T17:23:47Z</time></trkpt>
<trkpt lat="25.020797" lon="105.022225">
<time>2015-09-27T17:23:48Z</time></trkpt>
<trkpt lat="25.020878" lon="105.022036">
<time>2015-09-27T17:23:49Z</time></trkpt>
<trkpt lat="25.020958" lon="105.021847">
<time>2015-09-27T17:23:50Z</time></trkpt>
<trkpt lat="25.020989" lon="105.021767">
<time>2015-09-27T17:23:51Z</time></trkpt>
<trkpt lat="25.021009" lon="105.021728">
<time>2015-09-27T17:23:52Z</time></trkpt>
<trkpt lat="25.021029" lon="105.021688">
<time>2015-09-27T17:23:53Z</time></trkpt>
<trkpt lat="25.021059" lon="105.021608">
<time>2015-09-27T17:23:54Z</time></trkpt>
<trkpt lat="25.021099" lon="105.021518">
<time>2015-09-27T17:23:55Z</time></trkpt>
<trkpt lat="25.021129" lon="105.021439">
<time>2015-09-27T17:23:56Z</time></trkpt>
<trkpt lat="25.02116" lon="105.021359">
<time>2015-09-27T17:23:57Z</time></trkpt>
<trkpt lat="25.02118" lon="105.021269">
<time>2015-09-27T17:23:58Z</time></trkpt>
<trkpt lat="25.0212" lon="105.02119">
<time>2015-09-27T17:23:59Z</time></trkpt>
<trkpt lat="25.021211" lon="105.02103">
<time>2015-09-27T17:24:00Z</time></trkpt>
<trkpt lat="25.021211" lon="105.020861">
<time>2015-09-27T17:24:01Z</time></trkpt>
<trkpt lat="25.021202" lon="105.020702">
<time>2015-09-27T17:24:02Z</time></trkpt>
<trkpt lat="25.021172" lon="105.020533">
<time>2015-09-27T17:24:03Z</time></trkpt>
<trkpt lat="25.021152" lon="105.020363">
<time>2015-09-27T17:24:04Z</time></trkpt>
<trkpt lat="25.021123" lon="105.020194">
<time>2015-09-27T17:24:05Z</time></trkpt>
<trkpt lat="25.021113" lon="105.020025">
<time>2015-09-27T17:24:06Z</time></trkpt>
<trkpt lat="25.021104" lon="105.019855">
<time>2015-09-27T17:24:07Z</time></trkpt>
<trkpt lat="25.021114" lon="105.019746">
<time>2015-09-27T17:24:08Z</time></trkpt>
<trkpt lat="25.021125" lon="105.019626">
<time>2015-09-27T17:24:09Z</time></trkpt>
<trkpt lat="25.021155" lon="105.019507">
<time>2015-09-27T17:24:10Z</time></trkpt>
<trkpt lat="25.021185" lon="105.019397">
<time>2015-09-27T17:24:11Z</time></trkpt>
<trkpt lat="25.021226" lon="105.019288">
<time>2015-09-27T17:24:12Z</time></trkpt>
<trkpt lat="25.021276" lon="105.019178">
<time>2015-09-27T17:24:13Z</time></trkpt>
<trkpt lat="25.021326" lon="105.019069">
<time>2015-09-27T17:24:14Z</time></trkpt>
<trkpt lat="25.021386" lon="105.018969">
<time>2015-09-27T17:24:15Z</time></trkpt>
<trkpt lat="25.021457" lon="105.01888">
<time>2015-09-27T17:24:16Z</time></trkpt>
<trkpt lat="25.021527" lon="105.01879">
<time>2015-09-27T17:24:17Z</time></trkpt>
<trkpt lat="25.021597" lon="105.0187">
<time>2015-09-27T17:24:18Z</time></trkpt>
<trkpt lat="25.021657" lon="105.018611">
<time>2015-09-27T17:24:19Z</time></trkpt>
<trkpt lat="25.021718" lon="105.018521">
<time>2015-09-27T17:24:20Z</time></trkpt>
<trkpt lat="25.021768" lon="105.018432">
<time>2015-09-27T17:24:21Z</time></trkpt>
<trkpt lat="25.021808" lon="105.018332">
<time>2015-09-27T17:24:22Z</time></trkpt>
<trkpt lat="25.021818" lon="105.018222">
<time>2015-09-27T17:24:23Z</time></trkpt>
<trkpt lat="25.021819" lon="105.018153">
<time>2015-09-27T17:24:24Z</time></trkpt>
<trkpt lat="25.021819" lon="105.018093">
<time>2015-09-27T17:24:25Z</time></trkpt>
<trkpt lat="25.021819" lon="105.018023">
<time>2015-09-27T17:24:26Z</time></trkpt>
<trkpt lat="25.021809" lon="105.017954">
<time>2015-09-27T17:24:27Z</time></trkpt>
<trkpt lat="25.021809" lon="105.017894">
<time>2015-09-27T17:24:28Z</time></trkpt>
<trkpt lat="25.0218" lon="105.017834">
<time>2015-09-27T17:24:29Z</time></trkpt>
<trkpt lat="25.02181" lon="105.017774">
<time>2015-09-27T17:24:30Z</time></trkpt>
<trkpt lat="25.02182" lon="105.017725">
<time>2015-09-27T17:24:31Z</time></trkpt>
<trkpt lat="25.02186" lon="105.017655">
<time>2015-09-27T17:24:32Z</time></trkpt>
<trkpt lat="25.02191" lon="105.017595">
<time>2015-09-27T17:24:33Z</time></trkpt>
<trkpt lat="25.02198" lon="105.017555">
<time>2015-09-27T17:24:34Z</time></trkpt>
<trkpt lat="25.02206" lon="105.017515">
<time>2015-09-27T17:24:35Z</time></trkpt>
<trkpt lat="25.022161" lon="105.017486">
<time>2015-09-27T17:24:36Z</time></trkpt>
<trkpt lat="25.022251" lon="105.017466">
<time>2015-09-27T17:24:37Z</time></trkpt>
<trkpt lat="25.022351" lon="105.017446">
<time>2015-09-27T17:24:38Z</time></trkpt>
<trkpt lat="25.022451" lon="105.017426">
<time>2015-09-27T17:24:39Z</time></trkpt>
<trkpt lat="25.022581" lon="105.017396">
<time>2015-09-27T17:24:40Z</time></trkpt>
<trkpt lat="25.022701" lon="105.017366">
<time>2015-09-27T17:24:41Z</time></trkpt>
<trkpt lat="25.022811" lon="105.017336">
<time>2015-09-27T17:24:42Z</time></trkpt>
<trkpt lat="25.023341" lon="105.017147">
<time>2015-09-27T17:24:43Z</time></trkpt>
<trkpt lat="25.023883" lon="105.01647">
<time>2015-09-27T17:24:44Z</time></trkpt>
<trkpt lat="25.024285" lon="105.015992">
<time>2015-09-27T17:24:45Z</time></trkpt>
<trkpt lat="25.024325" lon="105.015982">
<time>2015-09-27T17:24:46Z</time></trkpt>
<trkpt lat="25.024415" lon="105.015962">
<time>2015-09-27T17:24:47Z</time></trkpt>
<trkpt lat="25.024505" lon="105.015952">
<time>2015-09-27T17:24:48Z</time></trkpt>
<trkpt lat="25.024595" lon="105.015942">
<time>2015-09-27T17:24:49Z</time></trkpt>
<trkpt lat="25.024645" lon="105.015932">
<time>2015-09-27T17:24:50Z</time></trkpt>
<trkpt lat="25.025565" lon="105.015813">
<time>2015-09-27T17:24:51Z</time></trkpt>
<trkpt lat="25.025585" lon="105.015803">
<time>2015-09-27T17:24:52Z</time></trkpt>
<trkpt lat="25.025625" lon="105.015793">
<time>2015-09-27T17:24:53Z</time></trkpt>
<trkpt lat="25.025986" lon="105.015594">
<time>2015-09-27T17:24:54Z</time></trkpt>
<trkpt lat="25.026056" lon="105.015554">
<time>2015-09-27T17:24:55Z</time></trkpt>
<trkpt lat="25.026448" lon="105.014847">
<time>2015-09-27T17:24:56Z</time></trkpt>
<trkpt lat="25.026669" lon="105.014449">
<time>2015-09-27T17:24:57Z</time></trkpt>
<trkpt lat="25.02672" lon="105.01421">
<time>2015-09-27T17:24:58Z</time></trkpt>
<trkpt lat="25.026831" lon="105.013712">
<time>2015-09-27T17:24:59Z</time></trkpt>
<trkpt lat="25.026892" lon="105.013443">
<time>2015-09-27T17:25:00Z</time></trkpt>
<trkpt lat="25.026953" lon="105.013184">
<time>2015-09-27T17:25:01Z</time></trkpt>
<trkpt lat="25.027074" lon="105.012686">
<time>2015-09-27T17:25:02Z</time></trkpt>
<trkpt lat="25.027135" lon="105.012437">
<time>2015-09-27T17:25:03Z</time></trkpt>
<trkpt lat="25.027185" lon="105.012198">
<time>2015-09-27T17:25:04Z</time></trkpt>
<trkpt lat="25.027236" lon="105.01195">
<time>2015-09-27T17:25:05Z</time></trkpt>
<trkpt lat="25.027277" lon="105.011701">
<time>2015-09-27T17:25:06Z</time></trkpt>
<trkpt lat="25.027318" lon="105.011412">
<time>2015-09-27T17:25:07Z</time></trkpt>
<trkpt lat="25.027349" lon="105.011123">
<time>2015-09-27T17:25:08Z</time></trkpt>
<trkpt lat="25.027369" lon="105.010824">
<time>2015-09-27T17:25:09Z</time></trkpt>
<trkpt lat="25.02739" lon="105.010526">
<time>2015-09-27T17:25:10Z</time></trkpt>
<trkpt lat="25.027411" lon="105.010227">
<time>2015-09-27T17:25:11Z</time></trkpt>
<trkpt lat="25.027432" lon="105.009918">
<time>2015-09-27T17:25:12Z</time></trkpt>
<trkpt lat="25.027473" lon="105.00961">
<time>2015-09-27T17:25:13Z</time></trkpt>
<trkpt lat="25.027514" lon="105.009311">
<time>2015-09-27T17:25:14Z</time></trkpt>
<trkpt lat="25.027544" lon="105.009172">
<time>2015-09-27T17:25:15Z</time></trkpt>
<trkpt lat="25.027575" lon="105.009032">
<time>2015-09-27T17:25:16Z</time></trkpt>
<trkpt lat="25.027605" lon="105.008903">
<time>2015-09-27T17:25:17Z</time></trkpt>
<trkpt lat="25.027646" lon="105.008774">
<time>2015-09-27T17:25:18Z</time></trkpt>
<trkpt lat="25.027696" lon="105.008644">
<time>2015-09-27T17:25:19Z</time></trkpt>
<trkpt lat="25.027746" lon="105.008525">
<time>2015-09-27T17:25:20Z</time></trkpt>
<trkpt lat="25.027807" lon="105.008415">
<time>2015-09-27T17:25:21Z</time></trkpt>
<trkpt lat="25.027877" lon="105.008316">
<time>2015-09-27T17:25:22Z</time></trkpt>
<trkpt lat="25.027957" lon="105.008216">
<time>2015-09-27T17:25:23Z</time></trkpt>
<trkpt lat="25.028047" lon="105.008126">
<time>2015-09-27T17:25:24Z</time></trkpt>
<trkpt lat="25.028148" lon="105.008047">
<time>2015-09-27T17:25:25Z</time></trkpt>
<trkpt lat="25.028248" lon="105.007977">
<time>2015-09-27T17:25:26Z</time></trkpt>
<trkpt lat="25.028358" lon="105.007907">
<time>2015-09-27T17:25:27Z</time></trkpt>
<trkpt lat="25.028478" lon="105.007848">
<time>2015-09-27T17:25:28Z</time></trkpt>
<trkpt lat="25.028598" lon="105.007788">
<time>2015-09-27T17:25:29Z</time></trkpt>
<trkpt lat="25.028719" lon="105.007728">
<time>2015-09-27T17:25:30Z</time></trkpt>
<trkpt lat="25.028919" lon="105.007629">
<time>2015-09-27T17:25:31Z</time></trkpt>
<trkpt lat="25.029119" lon="105.007529">
<time>2015-09-27T17:25:32Z</time></trkpt>
<trkpt lat="25.029319" lon="105.007429">
<time>2015-09-27T17:25:33Z</time></trkpt>
<trkpt lat="25.0295" lon="105.00732">
<time>2015-09-27T17:25:34Z</time></trkpt>
<trkpt lat="25.02967" lon="105.0072">
<time>2015-09-27T17:25:35Z</time></trkpt>
<trkpt lat="25.02982" lon="105.007061">
<time>2015-09-27T17:25:36Z</time></trkpt>
<trkpt lat="25.029941" lon="105.006902">
<time>2015-09-27T17:25:37Z</time></trkpt>
<trkpt lat="25.030031" lon="105.006733">
<time>2015-09-27T17:25:38Z</time></trkpt>
<trkpt lat="25.030072" lon="105.006613">
<time>2015-09-27T17:25:39Z</time></trkpt>
<trkpt lat="25.030102" lon="105.006484">
<time>2015-09-27T17:25:40Z</time></trkpt>
<trkpt lat="25.030123" lon="105.006354">
<time>2015-09-27T17:25:41Z</time></trkpt>
<trkpt lat="25.030133" lon="105.006215">
<time>2015-09-27T17:25:42Z</time></trkpt>
<trkpt lat="25.030154" lon="105.005936">
<time>2015-09-27T17:25:43Z</time></trkpt>
<trkpt lat="25.030174" lon="105.005797">
<time>2015-09-27T17:25:44Z</time></trkpt>
<trkpt lat="25.030195" lon="105.005647">
<time>2015-09-27T17:25:45Z</time></trkpt>
<trkpt lat="25.030225" lon="105.005498">
<time>2015-09-27T17:25:46Z</time></trkpt>
<trkpt lat="25.030256" lon="105.005349">
<time>2015-09-27T17:25:47Z</time></trkpt>
<trkpt lat="25.030296" lon="105.005209">
<time>2015-09-27T17:25:48Z</time></trkpt>
<trkpt lat="25.030316" lon="105.00514">
<time>2015-09-27T17:25:49Z</time></trkpt>
<trkpt lat="25.030336" lon="105.00506">
<time>2015-09-27T17:25:50Z</time></trkpt>
<trkpt lat="25.030367" lon="105.004921">
<time>2015-09-27T17:25:51Z</time></trkpt>
<trkpt lat="25.030397" lon="105.004771">
<time>2015-09-27T17:25:52Z</time></trkpt>
<trkpt lat="25.030408" lon="105.004632">
<time>2015-09-27T17:25:53Z</time></trkpt>
<trkpt lat="25.030398" lon="105.004493">
<time>2015-09-27T17:25:54Z</time></trkpt>
<trkpt lat="25.030378" lon="105.004413">
<time>2015-09-27T17:25:55Z</time></trkpt>
<trkpt lat="25.030359" lon="105.004323">
<time>2015-09-27T17:25:56Z</time></trkpt>
<trkpt lat="25.030329" lon="105.004234">
<time>2015-09-27T17:25:57Z</time></trkpt>
<trkpt lat="25.030289" lon="105.004144">
<time>2015-09-27T17:25:58Z</time></trkpt>
<trkpt lat="25.030249" lon="105.004064">
<time>2015-09-27T17:25:59Z</time></trkpt>
<trkpt lat="25.03021" lon="105.003975">
<time>2015-09-27T17:26:00Z</time></trkpt>
<trkpt lat="25.03017" lon="105.003895">
<time>2015-09-27T17:26:01Z</time></trkpt>
<trkpt lat="25.03012" lon="105.003816">
<time>2015-09-27T17:26:02Z</time></trkpt>
<trkpt lat="25.030041" lon="105.003656">
<time>2015-09-27T17:26:03Z</time></trkpt>
<trkpt lat="25.029971" lon="105.003507">
<time>2015-09-27T17:26:04Z</time></trkpt>
<trkpt lat="25.029902" lon="105.003358">
<time>2015-09-27T17:26:05Z</time></trkpt>
<trkpt lat="25.029832" lon="105.003208">
<time>2015-09-27T17:26:06Z</time></trkpt>
<trkpt lat="25.029773" lon="105.003049">
<time>2015-09-27T17:26:07Z</time></trkpt>
<trkpt lat="25.029723" lon="105.00288">
<time>2015-09-27T17:26:08Z</time></trkpt>
<trkpt lat="25.029684" lon="105.002711">
<time>2015-09-27T17:26:09Z</time></trkpt>
<trkpt lat="25.029644" lon="105.002531">
<time>2015-09-27T17:26:10Z</time></trkpt>
<trkpt lat="25.029625" lon="105.002362">
<time>2015-09-27T17:26:11Z</time></trkpt>
<trkpt lat="25.029615" lon="105.002193">
<time>2015-09-27T17:26:12Z</time></trkpt>
<trkpt lat="25.029616" lon="105.002024">
<time>2015-09-27T17:26:13Z</time></trkpt>
<trkpt lat="25.029636" lon="105.001854">
<time>2015-09-27T17:26:14Z</time></trkpt>
<trkpt lat="25.029667" lon="105.001705">
<time>2015-09-27T17:26:15Z</time></trkpt>
<trkpt lat="25.029717" lon="105.001556">
<time>2015-09-27T17:26:16Z</time></trkpt>
<trkpt lat="25.029778" lon="105.001436">
<time>2015-09-27T17:26:17Z</time></trkpt>
<trkpt lat="25.029868" lon="105.001337">
<time>2015-09-27T17:26:18Z</time></trkpt>
<trkpt lat="25.029948" lon="105.001277">
<time>2015-09-27T17:26:19Z</time></trkpt>
<trkpt lat="25.030048" lon="105.001227">
<time>2015-09-27T17:26:20Z</time></trkpt>
<trkpt lat="25.030148" lon="105.001197">
<time>2015-09-27T17:26:21Z</time></trkpt>
<trkpt lat="25.030258" lon="105.001167">
<time>2015-09-27T17:26:22Z</time></trkpt>
<trkpt lat="25.030378" lon="105.001148">
<time>2015-09-27T17:26:23Z</time></trkpt>
<trkpt lat="25.030498" lon="105.001118">
<time>2015-09-27T17:26:24Z</time></trkpt>
<trkpt lat="25.030609" lon="105.001088">
<time>2015-09-27T17:26:25Z</time></trkpt>
<trkpt lat="25.030729" lon="105.001048">
<time>2015-09-27T17:26:26Z</time></trkpt>
<trkpt lat="25.030809" lon="105.001018">
<time>2015-09-27T17:26:27Z</time></trkpt>
<trkpt lat="25.030879" lon="105.000978">
<time>2015-09-27T17:26:28Z</time></trkpt>
<trkpt lat="25.030959" lon="105.000928">
<time>2015-09-27T17:26:29Z</time></trkpt>
<trkpt lat="25.031029" lon="105.000869">
<time>2015-09-27T17:26:30Z</time></trkpt>
<trkpt lat="25.031089" lon="105.000819">
<time>2015-09-27T17:26:31Z</time></trkpt>
<trkpt lat="25.031159" lon="105.000749">
<time>2015-09-27T17:26:32Z</time></trkpt>
<trkpt lat="25.03121" lon="105.00069">
<time>2015-09-27T17:26:33Z</time></trkpt>
<trkpt lat="25.03127" lon="105.00062">
<time>2015-09-27T17:26:34Z</time></trkpt>
<trkpt lat="25.03134" lon="105.00051">
<time>2015-09-27T17:26:35Z</time></trkpt>
<trkpt lat="25.031391" lon="105.000401">
<time>2015-09-27T17:26:36Z</time></trkpt>
<trkpt lat="25.031441" lon="105.000281">
<time>2015-09-27T17:26:37Z</time></trkpt>
<trkpt lat="25.031441" lon="105.000271">
<time>2015-09-27T17:26:38Z</time></trkpt>
<trkpt lat="25.031562" lon="104.999993">
<time>2015-09-27T17:26:39Z</time></trkpt>
<trkpt lat="25.031683" lon="104.999724">
<time>2015-09-27T17:26:40Z</time></trkpt>
<trkpt lat="25.031884" lon="104.999216">
<time>2015-09-27T17:26:41Z</time></trkpt>
<trkpt lat="25.031965" lon="104.998808">
<time>2015-09-27T17:26:42Z</time></trkpt>
<trkpt lat="25.032176" lon="104.998549">
<time>2015-09-27T17:26:43Z</time></trkpt>
<trkpt lat="25.032297" lon="104.99838">
<time>2015-09-27T17:26:44Z</time></trkpt>
<trkpt lat="25.032658" lon="104.997952">
<time>2015-09-27T17:26:45Z</time></trkpt>
<trkpt lat="25.03335" lon="104.997295">
<time>2015-09-27T17:26:46Z</time></trkpt>
<trkpt lat="25.034031" lon="104.996807">
<time>2015-09-27T17:26:47Z</time></trkpt>
<trkpt lat="25.034362" lon="104.996687">
<time>2015-09-27T17:26:48Z</time></trkpt>
<trkpt lat="25.034962" lon="104.996379">
<time>2015-09-27T17:26:49Z</time></trkpt>
<trkpt lat="25.035293" lon="104.99609">
<time>2015-09-27T17:26:50Z</time></trkpt>
<trkpt lat="25.035514" lon="104.995881">
<time>2015-09-27T17:26:51Z</time></trkpt>
<trkpt lat="25.036174" lon="104.995752">
<time>2015-09-27T17:26:52Z</time></trkpt>
<trkpt lat="25.036904" lon="104.995742">
<time>2015-09-27T17:26:53Z</time></trkpt>
<trkpt lat="25.037264" lon="104.995811">
<time>2015-09-27T17:26:54Z</time></trkpt>
<trkpt lat="25.038142" lon="104.996239">
<time>2015-09-27T17:26:55Z</time></trkpt>
<trkpt lat="25.038382" lon="104.996478">
<time>2015-09-27T17:26:56Z</time></trkpt>
<trkpt lat="25.038491" lon="104.996568">
<time>2015-09-27T17:26:57Z</time></trkpt>
<trkpt lat="25.038621" lon="104.996588">
<time>2015-09-27T17:26:58Z</time></trkpt>
<trkpt lat="25.038671" lon="104.996548">
<time>2015-09-27T17:26:59Z</time></trkpt>
<trkpt lat="25.038672" lon="104.996468">
<time>2015-09-27T17:27:00Z</time></trkpt>
<trkpt lat="25.038402" lon="104.996219">
<time>2015-09-27T17:27:01Z</time></trkpt>
<trkpt lat="25.038223" lon="104.99605">
<time>2015-09-27T17:27:02Z</time></trkpt>
<trkpt lat="25.038073" lon="104.995931">
<time>2015-09-27T17:27:03Z</time></trkpt>
<trkpt lat="25.037994" lon="104.995811">
<time>2015-09-27T17:27:04Z</time></trkpt>
<trkpt lat="25.037974" lon="104.995602">
<time>2015-09-27T17:27:05Z</time></trkpt>
<trkpt lat="25.037995" lon="104.995443">
<time>2015-09-27T17:27:06Z</time></trkpt>
<trkpt lat="25.038065" lon="104.995234">
<time>2015-09-27T17:27:07Z</time></trkpt>
<trkpt lat="25.038457" lon="104.994756">
<time>2015-09-27T17:27:08Z</time></trkpt>
<trkpt lat="25.038788" lon="104.994537">
<time>2015-09-27T17:27:09Z</time></trkpt>
<trkpt lat="25.038948" lon="104.994398">
<time>2015-09-27T17:27:10Z</time></trkpt>
<trkpt lat="25.038958" lon="104.994398">
<time>2015-09-27T17:27:11Z</time></trkpt>
<trkpt lat="25.038958" lon="104.994398">
<time>2015-09-27T17:27:12Z</time></trkpt>
<trkpt lat="25.039099" lon="104.994019">
<time>2015-09-27T17:27:13Z</time></trkpt>
<trkpt lat="25.03917" lon="104.993551">
<time>2015-09-27T17:27:14Z</time></trkpt>
<trkpt lat="25.039181" lon="104.993362">
<time>2015-09-27T17:27:15Z</time></trkpt>
<trkpt lat="25.039162" lon="104.993163">
<time>2015-09-27T17:27:16Z</time></trkpt>
<trkpt lat="25.039003" lon="104.992625">
<time>2015-09-27T17:27:17Z</time></trkpt>
<trkpt lat="25.038725" lon="104.991998">
<time>2015-09-27T17:27:18Z</time></trkpt>
<trkpt lat="25.038626" lon="104.99169">
<time>2015-09-27T17:27:19Z</time></trkpt>
<trkpt lat="25.038557" lon="104.991351">
<time>2015-09-27T17:27:20Z</time></trkpt>
<trkpt lat="25.038538" lon="104.991182">
<time>2015-09-27T17:27:21Z</time></trkpt>
<trkpt lat="25.038538" lon="104.991003">
<time>2015-09-27T17:27:22Z</time></trkpt>
<trkpt lat="25.038609" lon="104.990834">
<time>2015-09-27T17:27:23Z</time></trkpt>
<trkpt lat="25.038739" lon="104.990704">
<time>2015-09-27T17:27:24Z</time></trkpt>
<trkpt lat="25.038889" lon="104.990614">
<time>2015-09-27T17:27:25Z</time></trkpt>
<trkpt lat="25.03923" lon="104.990525">
<time>2015-09-27T17:27:26Z</time></trkpt>
<trkpt lat="25.039699" lon="104.990614">
<time>2015-09-27T17:27:27Z</time></trkpt>
<trkpt lat="25.040019" lon="104.990714">
<time>2015-09-27T17:27:28Z</time></trkpt>
<trkpt lat="25.040547" lon="104.991192">
<time>2015-09-27T17:27:29Z</time></trkpt>
<trkpt lat="25.040996" lon="104.9917">
<time>2015-09-27T17:27:30Z</time></trkpt>
<trkpt lat="25.041444" lon="104.992207">
<time>2015-09-27T17:27:31Z</time></trkpt>
<trkpt lat="25.041883" lon="104.992705">
<time>2015-09-27T17:27:32Z</time></trkpt>
<trkpt lat="25.042351" lon="104.993332">
<time>2015-09-27T17:27:33Z</time></trkpt>
<trkpt lat="25.04261" lon="104.993601">
<time>2015-09-27T17:27:34Z</time></trkpt>
<trkpt lat="25.043119" lon="104.99389">
<time>2015-09-27T17:27:35Z</time></trkpt>
<trkpt lat="25.043548" lon="104.994069">
<time>2015-09-27T17:27:36Z</time></trkpt>
<trkpt lat="25.043978" lon="104.994248">
<time>2015-09-27T17:27:37Z</time></trkpt>
<trkpt lat="25.044606" lon="104.994706">
<time>2015-09-27T17:27:38Z</time></trkpt>
<trkpt lat="25.044866" lon="104.994875">
<time>2015-09-27T17:27:39Z</time></trkpt>
<trkpt lat="25.045354" lon="104.995343">
<time>2015-09-27T17:27:40Z</time></trkpt>
<trkpt lat="25.045843" lon="104.995811">
<time>2015-09-27T17:27:41Z</time></trkpt>
<trkpt lat="25.046152" lon="104.99602">
<time>2015-09-27T17:27:42Z</time></trkpt>
<trkpt lat="25.046512" lon="104.996179">
<time>2015-09-27T17:27:43Z</time></trkpt>
<trkpt lat="25.046512" lon="104.996179">
<time>2015-09-27T17:27:44Z</time></trkpt>
<trkpt lat="25.046512" lon="104.996149">
<time>2015-09-27T17:27:45Z</time></trkpt>
<trkpt lat="25.046562" lon="104.99609">
<time>2015-09-27T17:27:46Z</time></trkpt>
<trkpt lat="25.046612" lon="104.99609">
<time>2015-09-27T17:27:47Z</time></trkpt>
<trkpt lat="25.046692" lon="104.996129">
<time>2015-09-27T17:27:48Z</time></trkpt>
<trkpt lat="25.046762" lon="104.996199">
<time>2015-09-27T17:27:49Z</time></trkpt>
<trkpt lat="25.047081" lon="104.996368">
<time>2015-09-27T17:27:50Z</time></trkpt>
<trkpt lat="25.047541" lon="104.996518">
<time>2015-09-27T17:27:51Z</time></trkpt>
<trkpt lat="25.04771" lon="104.996538">
<time>2015-09-27T17:27:52Z</time></trkpt>
<trkpt lat="25.04818" lon="104.996607">
<time>2015-09-27T17:27:53Z</time></trkpt>
<trkpt lat="25.04859" lon="104.996607">
<time>2015-09-27T17:27:54Z</time></trkpt>
<trkpt lat="25.04899" lon="104.996687">
<time>2015-09-27T17:27:55Z</time></trkpt>
<trkpt lat="25.049749" lon="104.996946">
<time>2015-09-27T17:27:56Z</time></trkpt>
<trkpt lat="25.050039" lon="104.997075">
<time>2015-09-27T17:27:57Z</time></trkpt>
<trkpt lat="25.050218" lon="104.997294">
<time>2015-09-27T17:27:58Z</time></trkpt>
<trkpt lat="25.050427" lon="104.997443">
<time>2015-09-27T17:27:59Z</time></trkpt>
<trkpt lat="25.050767" lon="104.997702">
<time>2015-09-27T17:28:00Z</time></trkpt>
<trkpt lat="25.051216" lon="104.997971">
<time>2015-09-27T17:28:01Z</time></trkpt>
<trkpt lat="25.051585" lon="104.9982">
<time>2015-09-27T17:28:02Z</time></trkpt>
<trkpt lat="25.052162" lon="104.999066">
<time>2015-09-27T17:28:03Z</time></trkpt>
<trkpt lat="25.052511" lon="104.999394">
<time>2015-09-27T17:28:04Z</time></trkpt>
<trkpt lat="25.052761" lon="104.999434">
<time>2015-09-27T17:28:05Z</time></trkpt>
<trkpt lat="25.052931" lon="104.999295">
<time>2015-09-27T17:28:06Z</time></trkpt>
<trkpt lat="25.053042" lon="104.999175">
<time>2015-09-27T17:28:07Z</time></trkpt>
<trkpt lat="25.053172" lon="104.998986">
<time>2015-09-27T17:28:08Z</time></trkpt>
<trkpt lat="25.053114" lon="104.998479">
<time>2015-09-27T17:28:09Z</time></trkpt>
<trkpt lat="25.053114" lon="104.998469">
<time>2015-09-27T17:28:10Z</time></trkpt>
<trkpt lat="25.052845" lon="104.99814">
<time>2015-09-27T17:28:11Z</time></trkpt>
<trkpt lat="25.052546" lon="104.997931">
<time>2015-09-27T17:28:12Z</time></trkpt>
<trkpt lat="25.051797" lon="104.997483">
<time>2015-09-27T17:28:13Z</time></trkpt>
<trkpt lat="25.051198" lon="104.997145">
<time>2015-09-27T17:28:14Z</time></trkpt>
<trkpt lat="25.051019" lon="104.996946">
<time>2015-09-27T17:28:15Z</time></trkpt>
<trkpt lat="25.050919" lon="104.996756">
<time>2015-09-27T17:28:16Z</time></trkpt>
<trkpt lat="25.05081" lon="104.996557">
<time>2015-09-27T17:28:17Z</time></trkpt>
<trkpt lat="25.05073" lon="104.996428">
<time>2015-09-27T17:28:18Z</time></trkpt>
<trkpt lat="25.050611" lon="104.996328">
<time>2015-09-27T17:28:19Z</time></trkpt>
<trkpt lat="25.050431" lon="104.996259">
<time>2015-09-27T17:28:20Z</time></trkpt>
<trkpt lat="25.049692" lon="104.99604">
<time>2015-09-27T17:28:21Z</time></trkpt>
<trkpt lat="25.048104" lon="104.995373">
<time>2015-09-27T17:28:22Z</time></trkpt>
<trkpt lat="25.047635" lon="104.995184">
<time>2015-09-27T17:28:23Z</time></trkpt>
<trkpt lat="25.047575" lon="104.995154">
<time>2015-09-27T17:28:24Z</time></trkpt>
<trkpt lat="25.047135" lon="104.995044">
<time>2015-09-27T17:28:25Z</time></trkpt>
<trkpt lat="25.046855" lon="104.995024">
<time>2015-09-27T17:28:26Z</time></trkpt>
<trkpt lat="25.046665" lon="104.994995">
<time>2015-09-27T17:28:27Z</time></trkpt>
<trkpt lat="25.046106" lon="104.994835">
<time>2015-09-27T17:28:28Z</time></trkpt>
<trkpt lat="25.045746" lon="104.994616">
<time>2015-09-27T17:28:29Z</time></trkpt>
<trkpt lat="25.045737" lon="104.994596">
<time>2015-09-27T17:28:30Z</time></trkpt>
<trkpt lat="25.045717" lon="104.994407">
<time>2015-09-27T17:28:31Z</time></trkpt>
<trkpt lat="25.045767" lon="104.994347">
<time>2015-09-27T17:28:32Z</time></trkpt>
<trkpt lat="25.045847" lon="104.994298">
<time>2015-09-27T17:28:33Z</time></trkpt>
<trkpt lat="25.045917" lon="104.994288">
<time>2015-09-27T17:28:34Z</time></trkpt>
<trkpt lat="25.046017" lon="104.994288">
<time>2015-09-27T17:28:35Z</time></trkpt>
<trkpt lat="25.046137" lon="104.994298">
<time>2015-09-27T17:28:36Z</time></trkpt>
<trkpt lat="25.046277" lon="104.994337">
<time>2015-09-27T17:28:37Z</time></trkpt>
<trkpt lat="25.046957" lon="104.994527">
<time>2015-09-27T17:28:38Z</time></trkpt>
<trkpt lat="25.047226" lon="104.994586">
<time>2015-09-27T17:28:39Z</time></trkpt>
<trkpt lat="25.047486" lon="104.994676">
<time>2015-09-27T17:28:40Z</time></trkpt>
<trkpt lat="25.047676" lon="104.994716">
<time>2015-09-27T17:28:41Z</time></trkpt>
<trkpt lat="25.048046" lon="104.994815">
<time>2015-09-27T17:28:42Z</time></trkpt>
<trkpt lat="25.048305" lon="104.994865">
<time>2015-09-27T17:28:43Z</time></trkpt>
<trkpt lat="25.048436" lon="104.994815">
<time>2015-09-27T17:28:44Z</time></trkpt>
<trkpt lat="25.048576" lon="104.994736">
<time>2015-09-27T17:28:45Z</time></trkpt>
<trkpt lat="25.048726" lon="104.994676">
<time>2015-09-27T17:28:46Z</time></trkpt>
<trkpt lat="25.049006" lon="104.994676">
<time>2015-09-27T17:28:47Z</time></trkpt>
<trkpt lat="25.049186" lon="104.994736">
<time>2015-09-27T17:28:48Z</time></trkpt>
<trkpt lat="25.049475" lon="104.994965">
<time>2015-09-27T17:28:49Z</time></trkpt>
<trkpt lat="25.049655" lon="104.995044">
<time>2015-09-27T17:28:50Z</time></trkpt>
<trkpt lat="25.049685" lon="104.994994">
<time>2015-09-27T17:28:51Z</time></trkpt>
<trkpt lat="25.049685" lon="104.994875">
<time>2015-09-27T17:28:52Z</time></trkpt>
<trkpt lat="25.049635" lon="104.994795">
<time>2015-09-27T17:28:53Z</time></trkpt>
<trkpt lat="25.049576" lon="104.994736">
<time>2015-09-27T17:28:54Z</time></trkpt>
<trkpt lat="25.049436" lon="104.994616">
<time>2015-09-27T17:28:55Z</time></trkpt>
<trkpt lat="25.049107" lon="104.994347">
<time>2015-09-27T17:28:56Z</time></trkpt>
<trkpt lat="25.048867" lon="104.994238">
<time>2015-09-27T17:28:57Z</time></trkpt>
<trkpt lat="25.048637" lon="104.994198">
<time>2015-09-27T17:28:58Z</time></trkpt>
<trkpt lat="25.048447" lon="104.994188">
<time>2015-09-27T17:28:59Z</time></trkpt>
<trkpt lat="25.048268" lon="104.994158">
<time>2015-09-27T17:29:00Z</time></trkpt>
<trkpt lat="25.048198" lon="104.994098">
<time>2015-09-27T17:29:01Z</time></trkpt>
<trkpt lat="25.048098" lon="104.993919">
<time>2015-09-27T17:29:02Z</time></trkpt>
<trkpt lat="25.048089" lon="104.99378">
<time>2015-09-27T17:29:03Z</time></trkpt>
<trkpt lat="25.0481" lon="104.993422">
<time>2015-09-27T17:29:04Z</time></trkpt>
<trkpt lat="25.047853" lon="104.992476">
<time>2015-09-27T17:29:05Z</time></trkpt>
<trkpt lat="25.047724" lon="104.992137">
<time>2015-09-27T17:29:06Z</time></trkpt>
<trkpt lat="25.047704" lon="104.992078">
<time>2015-09-27T17:29:07Z</time></trkpt>
<trkpt lat="25.047525" lon="104.991789">
<time>2015-09-27T17:29:08Z</time></trkpt>
<trkpt lat="25.047605" lon="104.991739">
<time>2015-09-27T17:29:09Z</time></trkpt>
<trkpt lat="25.047706" lon="104.99151">
<time>2015-09-27T17:29:10Z</time></trkpt>
<trkpt lat="25.047776" lon="104.991411">
<time>2015-09-27T17:29:11Z</time></trkpt>
<trkpt lat="25.047966" lon="104.991231">
<time>2015-09-27T17:29:12Z</time></trkpt>
<trkpt lat="25.048147" lon="104.991201">
<time>2015-09-27T17:29:13Z</time></trkpt>
<trkpt lat="25.048787" lon="104.991162">
<time>2015-09-27T17:29:14Z</time></trkpt>
<trkpt lat="25.049486" lon="104.991361">
<time>2015-09-27T17:29:15Z</time></trkpt>
<trkpt lat="25.050116" lon="104.991361">
<time>2015-09-27T17:29:16Z</time></trkpt>
<trkpt lat="25.050996" lon="104.991301">
<time>2015-09-27T17:29:17Z</time></trkpt>
<trkpt lat="25.051166" lon="104.991122">
<time>2015-09-27T17:29:18Z</time></trkpt>
<trkpt lat="25.050908" lon="104.990584">
<time>2015-09-27T17:29:19Z</time></trkpt>
<trkpt lat="25.050569" lon="104.990276">
<time>2015-09-27T17:29:20Z</time></trkpt>
<trkpt lat="25.05053" lon="104.990086">
<time>2015-09-27T17:29:21Z</time></trkpt>
<trkpt lat="25.05024" lon="104.989847">
<time>2015-09-27T17:29:22Z</time></trkpt>
<trkpt lat="25.049523" lon="104.988922">
<time>2015-09-27T17:29:23Z</time></trkpt>
<trkpt lat="25.049065" lon="104.988215">
<time>2015-09-27T17:29:24Z</time></trkpt>
<trkpt lat="25.048727" lon="104.987617">
<time>2015-09-27T17:29:25Z</time></trkpt>
<trkpt lat="25.048598" lon="104.987309">
<time>2015-09-27T17:29:26Z</time></trkpt>
<trkpt lat="25.048739" lon="104.98701">
<time>2015-09-27T17:29:27Z</time></trkpt>
<trkpt lat="25.048972" lon="104.986124">
<time>2015-09-27T17:29:28Z</time></trkpt>
<trkpt lat="25.049245" lon="104.985029">
<time>2015-09-27T17:29:29Z</time></trkpt>
<trkpt lat="25.049417" lon="104.984402">
<time>2015-09-27T17:29:30Z</time></trkpt>
<trkpt lat="25.049527" lon="104.984193">
<time>2015-09-27T17:29:31Z</time></trkpt>
<trkpt lat="25.049799" lon="104.983685">
<time>2015-09-27T17:29:32Z</time></trkpt>
<trkpt lat="25.049969" lon="104.983476">
<time>2015-09-27T17:29:33Z</time></trkpt>
<trkpt lat="25.050451" lon="104.983018">
<time>2015-09-27T17:29:34Z</time></trkpt>
<trkpt lat="25.050601" lon="104.982868">
<time>2015-09-27T17:29:35Z</time></trkpt>
<trkpt lat="25.050762" lon="104.982639">
<time>2015-09-27T17:29:36Z</time></trkpt>
<trkpt lat="25.051054" lon="104.981932">
<time>2015-09-27T17:29:37Z</time></trkpt>
<trkpt lat="25.051347" lon="104.980987">
<time>2015-09-27T17:29:38Z</time></trkpt>
<trkpt lat="25.051448" lon="104.980549">
<time>2015-09-27T17:29:39Z</time></trkpt>
<trkpt lat="25.052139" lon="104.98026">
<time>2015-09-27T17:29:40Z</time></trkpt>
<trkpt lat="25.052389" lon="104.98017">
<time>2015-09-27T17:29:41Z</time></trkpt>
<trkpt lat="25.052401" lon="104.979593">
<time>2015-09-27T17:29:42Z</time></trkpt>
<trkpt lat="25.052532" lon="104.979085">
<time>2015-09-27T17:29:43Z</time></trkpt>
<trkpt lat="25.052703" lon="104.978766">
<time>2015-09-27T17:29:44Z</time></trkpt>
<trkpt lat="25.053084" lon="104.978278">
<time>2015-09-27T17:29:45Z</time></trkpt>
<trkpt lat="25.053405" lon="104.978059">
<time>2015-09-27T17:29:46Z</time></trkpt>
<trkpt lat="25.053695" lon="104.97785">
<time>2015-09-27T17:29:47Z</time></trkpt>
<trkpt lat="25.054127" lon="104.977422">
<time>2015-09-27T17:29:48Z</time></trkpt>
<trkpt lat="25.054428" lon="104.976914">
<time>2015-09-27T17:29:49Z</time></trkpt>
<trkpt lat="25.054509" lon="104.976615">
<time>2015-09-27T17:29:50Z</time></trkpt>
<trkpt lat="25.05454" lon="104.976367">
<time>2015-09-27T17:29:51Z</time></trkpt>
<trkpt lat="25.05452" lon="104.976217">
<time>2015-09-27T17:29:52Z</time></trkpt>
<trkpt lat="25.05478" lon="104.976157">
<time>2015-09-27T17:29:53Z</time></trkpt>
<trkpt lat="25.05501" lon="104.976167">
<time>2015-09-27T17:29:54Z</time></trkpt>
<trkpt lat="25.05521" lon="104.976197">
<time>2015-09-27T17:29:55Z</time></trkpt>
<trkpt lat="25.05537" lon="104.976167">
<time>2015-09-27T17:29:56Z</time></trkpt>
<trkpt lat="25.056132" lon="104.975341">
<time>2015-09-27T17:29:57Z</time></trkpt>
<trkpt lat="25.056763" lon="104.974933">
<time>2015-09-27T17:29:58Z</time></trkpt>
<trkpt lat="25.057264" lon="104.974664">
<time>2015-09-27T17:29:59Z</time></trkpt>
<trkpt lat="25.058505" lon="104.974156">
<time>2015-09-27T17:30:00Z</time></trkpt>
<trkpt lat="25.059076" lon="104.973887">
<time>2015-09-27T17:30:01Z</time></trkpt>
<trkpt lat="25.059316" lon="104.973777">
<time>2015-09-27T17:30:02Z</time></trkpt>
<trkpt lat="25.059877" lon="104.973668">
<time>2015-09-27T17:30:03Z</time></trkpt>
<trkpt lat="25.060047" lon="104.973678">
<time>2015-09-27T17:30:04Z</time></trkpt>
<trkpt lat="25.060077" lon="104.973638">
<time>2015-09-27T17:30:05Z</time></trkpt>
<trkpt lat="25.060437" lon="104.973718">
<time>2015-09-27T17:30:06Z</time></trkpt>
<trkpt lat="25.060726" lon="104.973797">
<time>2015-09-27T17:30:07Z</time></trkpt>
<trkpt lat="25.060796" lon="104.973837">
<time>2015-09-27T17:30:08Z</time></trkpt>
<trkpt lat="25.060836" lon="104.973877">
<time>2015-09-27T17:30:09Z</time></trkpt>
<trkpt lat="25.060946" lon="104.973917">
<time>2015-09-27T17:30:10Z</time></trkpt>
<trkpt lat="25.061016" lon="104.973917">
<time>2015-09-27T17:30:11Z</time></trkpt>
<trkpt lat="25.061056" lon="104.973957">
<time>2015-09-27T17:30:12Z</time></trkpt>
<trkpt lat="25.061805" lon="104.974046">
<time>2015-09-27T17:30:13Z</time></trkpt>
<trkpt lat="25.062355" lon="104.974056">
<time>2015-09-27T17:30:14Z</time></trkpt>
<trkpt lat="25.063196" lon="104.973827">
<time>2015-09-27T17:30:15Z</time></trkpt>
<trkpt lat="25.063947" lon="104.973488">
<time>2015-09-27T17:30:16Z</time></trkpt>
<trkpt lat="25.064588" lon="104.972901">
<time>2015-09-27T17:30:17Z</time></trkpt>
<trkpt lat="25.06518" lon="104.972393">
<time>2015-09-27T17:30:18Z</time></trkpt>
<trkpt lat="25.065061" lon="104.972084">
<time>2015-09-27T17:30:19Z</time></trkpt>
<trkpt lat="25.064981" lon="104.971865">
<time>2015-09-27T17:30:20Z</time></trkpt>
<trkpt lat="25.064843" lon="104.971367">
<time>2015-09-27T17:30:21Z</time></trkpt>
<trkpt lat="25.064854" lon="104.97079">
<time>2015-09-27T17:30:22Z</time></trkpt>
<trkpt lat="25.064856" lon="104.970063">
<time>2015-09-27T17:30:23Z</time></trkpt>
<trkpt lat="25.064857" lon="104.969595">
<time>2015-09-27T17:30:24Z</time></trkpt>
<trkpt lat="25.064971" lon="104.96829">
<time>2015-09-27T17:30:25Z</time></trkpt>
<trkpt lat="25.065032" lon="104.967882">
<time>2015-09-27T17:30:26Z</time></trkpt>
<trkpt lat="25.065132" lon="104.967772">
<time>2015-09-27T17:30:27Z</time></trkpt>
<trkpt lat="25.065053" lon="104.967463">
<time>2015-09-27T17:30:28Z</time></trkpt>
<trkpt lat="25.064885" lon="104.966717">
<time>2015-09-27T17:30:29Z</time></trkpt>
<trkpt lat="25.064885" lon="104.966637">
<time>2015-09-27T17:30:30Z</time></trkpt>
<trkpt lat="25.064866" lon="104.966338">
<time>2015-09-27T17:30:31Z</time></trkpt>
<trkpt lat="25.064599" lon="104.965342">
<time>2015-09-27T17:30:32Z</time></trkpt>
<trkpt lat="25.064599" lon="104.965342">
<time>2015-09-27T17:30:33Z</time></trkpt>
<trkpt lat="25.064819" lon="104.965312">
<time>2015-09-27T17:30:34Z</time></trkpt>
<trkpt lat="25.064979" lon="104.965272">
<time>2015-09-27T17:30:35Z</time></trkpt>
<trkpt lat="25.065069" lon="104.965203">
<time>2015-09-27T17:30:36Z</time></trkpt>
<trkpt lat="25.065219" lon="104.965073">
<time>2015-09-27T17:30:37Z</time></trkpt>
<trkpt lat="25.06523" lon="104.965053">
<time>2015-09-27T17:30:38Z</time></trkpt>
<trkpt lat="25.065601" lon="104.964635">
<time>2015-09-27T17:30:39Z</time></trkpt>
<trkpt lat="25.065711" lon="104.964476">
<time>2015-09-27T17:30:40Z</time></trkpt>
<trkpt lat="25.065831" lon="104.964276">
<time>2015-09-27T17:30:41Z</time></trkpt>
<trkpt lat="25.066002" lon="104.964067">
<time>2015-09-27T17:30:42Z</time></trkpt>
<trkpt lat="25.066203" lon="104.963788">
<time>2015-09-27T17:30:43Z</time></trkpt>
<trkpt lat="25.066373" lon="104.963559">
<time>2015-09-27T17:30:44Z</time></trkpt>
<trkpt lat="25.066464" lon="104.96339">
<time>2015-09-27T17:30:45Z</time></trkpt>
<trkpt lat="25.066544" lon="104.96326">
<time>2015-09-27T17:30:46Z</time></trkpt>
<trkpt lat="25.066614" lon="104.963171">
<time>2015-09-27T17:30:47Z</time></trkpt>
<trkpt lat="25.066925" lon="104.962792">
<time>2015-09-27T17:30:48Z</time></trkpt>
<trkpt lat="25.066996" lon="104.962643">
<time>2015-09-27T17:30:49Z</time></trkpt>
<trkpt lat="25.067026" lon="104.962583">
<time>2015-09-27T17:30:50Z</time></trkpt>
<trkpt lat="25.067056" lon="104.962414">
<time>2015-09-27T17:30:51Z</time></trkpt>
<trkpt lat="25.067107" lon="104.961985">
<time>2015-09-27T17:30:52Z</time></trkpt>
<trkpt lat="25.067117" lon="104.961906">
<time>2015-09-27T17:30:53Z</time></trkpt>
<trkpt lat="25.067138" lon="104.961816">
<time>2015-09-27T17:30:54Z</time></trkpt>
<trkpt lat="25.067198" lon="104.961677">
<time>2015-09-27T17:30:55Z</time></trkpt>
<trkpt lat="25.067248" lon="104.961607">
<time>2015-09-27T17:30:56Z</time></trkpt>
<trkpt lat="25.067359" lon="104.961457">
<time>2015-09-27T17:30:57Z</time></trkpt>
<trkpt lat="25.067599" lon="104.961298">
<time>2015-09-27T17:30:58Z</time></trkpt>
<trkpt lat="25.067729" lon="104.961169">
<time>2015-09-27T17:30:59Z</time></trkpt>
<trkpt lat="25.06782" lon="104.960989">
<time>2015-09-27T17:31:00Z</time></trkpt>
<trkpt lat="25.06791" lon="104.96069">
<time>2015-09-27T17:31:01Z</time></trkpt>
<trkpt lat="25.067971" lon="104.960292">
<time>2015-09-27T17:31:02Z</time></trkpt>
<trkpt lat="25.068052" lon="104.959933">
<time>2015-09-27T17:31:03Z</time></trkpt>
<trkpt lat="25.068113" lon="104.959754">
<time>2015-09-27T17:31:04Z</time></trkpt>
<trkpt lat="25.068314" lon="104.959356">
<time>2015-09-27T17:31:05Z</time></trkpt>
<trkpt lat="25.068324" lon="104.959326">
<time>2015-09-27T17:31:06Z</time></trkpt>
<trkpt lat="25.068354" lon="104.959206">
<time>2015-09-27T17:31:07Z</time></trkpt>
<trkpt lat="25.068334" lon="104.959047">
<time>2015-09-27T17:31:08Z</time></trkpt>
<trkpt lat="25.068285" lon="104.958857">
<time>2015-09-27T17:31:09Z</time></trkpt>
<trkpt lat="25.068235" lon="104.958638">
<time>2015-09-27T17:31:10Z</time></trkpt>
<trkpt lat="25.068147" lon="104.957911">
<time>2015-09-27T17:31:11Z</time></trkpt>
<trkpt lat="25.068118" lon="104.957722">
<time>2015-09-27T17:31:12Z</time></trkpt>
<trkpt lat="25.068059" lon="104.957323">
<time>2015-09-27T17:31:13Z</time></trkpt>
<trkpt lat="25.06808" lon="104.956915">
<time>2015-09-27T17:31:14Z</time></trkpt>
<trkpt lat="25.06816" lon="104.956716">
<time>2015-09-27T17:31:15Z</time></trkpt>
<trkpt lat="25.06821" lon="104.956626">
<time>2015-09-27T17:31:16Z</time></trkpt>
<trkpt lat="25.068331" lon="104.956427">
<time>2015-09-27T17:31:17Z</time></trkpt>
<trkpt lat="25.068481" lon="104.956158">
<time>2015-09-27T17:31:18Z</time></trkpt>
<trkpt lat="25.068722" lon="104.955699">
<time>2015-09-27T17:31:19Z</time></trkpt>
<trkpt lat="25.068733" lon="104.9556">
<time>2015-09-27T17:31:20Z</time></trkpt>
<trkpt lat="25.068753" lon="104.95544">
<time>2015-09-27T17:31:21Z</time></trkpt>
<trkpt lat="25.068694" lon="104.955062">
<time>2015-09-27T17:31:22Z</time></trkpt>
<trkpt lat="25.068594" lon="104.954843">
<time>2015-09-27T17:31:23Z</time></trkpt>
<trkpt lat="25.068555" lon="104.954733">
<time>2015-09-27T17:31:24Z</time></trkpt>
<trkpt lat="25.068525" lon="104.954603">
<time>2015-09-27T17:31:25Z</time></trkpt>
<trkpt lat="25.068525" lon="104.954454">
<time>2015-09-27T17:31:26Z</time></trkpt>
<trkpt lat="25.068525" lon="104.954394">
<time>2015-09-27T17:31:27Z</time></trkpt>
<trkpt lat="25.068536" lon="104.954344">
<time>2015-09-27T17:31:28Z</time></trkpt>
<trkpt lat="25.068606" lon="104.954075">
<time>2015-09-27T17:31:29Z</time></trkpt>
<trkpt lat="25.068777" lon="104.953697">
<time>2015-09-27T17:31:30Z</time></trkpt>
<trkpt lat="25.068918" lon="104.953458">
<time>2015-09-27T17:31:31Z</time></trkpt>
<trkpt lat="25.068988" lon="104.953378">
<time>2015-09-27T17:31:32Z</time></trkpt>
<trkpt lat="25.069168" lon="104.953059">
<time>2015-09-27T17:31:33Z</time></trkpt>
<trkpt lat="25.069389" lon="104.95275">
<time>2015-09-27T17:31:34Z</time></trkpt>
<trkpt lat="25.069419" lon="104.95269">
<time>2015-09-27T17:31:35Z</time></trkpt>
<trkpt lat="25.069641" lon="104.952043">
<time>2015-09-27T17:31:36Z</time></trkpt>
<trkpt lat="25.069751" lon="104.951794">
<time>2015-09-27T17:31:37Z</time></trkpt>
<trkpt lat="25.069882" lon="104.951614">
<time>2015-09-27T17:31:38Z</time></trkpt>
<trkpt lat="25.070112" lon="104.951266">
<time>2015-09-27T17:31:39Z</time></trkpt>
<trkpt lat="25.070213" lon="104.951116">
<time>2015-09-27T17:31:40Z</time></trkpt>
<trkpt lat="25.070383" lon="104.950847">
<time>2015-09-27T17:31:41Z</time></trkpt>
<trkpt lat="25.070926" lon="104.949581">
<time>2015-09-27T17:31:42Z</time></trkpt>
<trkpt lat="25.071257" lon="104.948994">
<time>2015-09-27T17:31:43Z</time></trkpt>
<trkpt lat="25.071458" lon="104.948585">
<time>2015-09-27T17:31:44Z</time></trkpt>
<trkpt lat="25.071669" lon="104.948256">
<time>2015-09-27T17:31:45Z</time></trkpt>
<trkpt lat="25.071859" lon="104.948087">
<time>2015-09-27T17:31:46Z</time></trkpt>
<trkpt lat="25.07227" lon="104.947688">
<time>2015-09-27T17:31:47Z</time></trkpt>
<trkpt lat="25.07247" lon="104.947459">
<time>2015-09-27T17:31:48Z</time></trkpt>
<trkpt lat="25.07249" lon="104.947439">
<time>2015-09-27T17:31:49Z</time></trkpt>
<trkpt lat="25.07256" lon="104.947339">
<time>2015-09-27T17:31:50Z</time></trkpt>
<trkpt lat="25.072781" lon="104.94699">
<time>2015-09-27T17:31:51Z</time></trkpt>
<trkpt lat="25.072921" lon="104.946841">
<time>2015-09-27T17:31:52Z</time></trkpt>
<trkpt lat="25.073142" lon="104.946522">
<time>2015-09-27T17:31:53Z</time></trkpt>
<trkpt lat="25.073212" lon="104.946442">
<time>2015-09-27T17:31:54Z</time></trkpt>
<trkpt lat="25.073363" lon="104.946203">
<time>2015-09-27T17:31:55Z</time></trkpt>
<trkpt lat="25.073613" lon="104.945884">
<time>2015-09-27T17:31:56Z</time></trkpt>
<trkpt lat="25.073774" lon="104.945744">
<time>2015-09-27T17:31:57Z</time></trkpt>
<trkpt lat="25.073814" lon="104.945715">
<time>2015-09-27T17:31:58Z</time></trkpt>
<trkpt lat="25.073934" lon="104.945605">
<time>2015-09-27T17:31:59Z</time></trkpt>
<trkpt lat="25.074194" lon="104.945455">
<time>2015-09-27T17:32:00Z</time></trkpt>
<trkpt lat="25.074334" lon="104.945336">
<time>2015-09-27T17:32:01Z</time></trkpt>
<trkpt lat="25.074394" lon="104.945266">
<time>2015-09-27T17:32:02Z</time></trkpt>
<trkpt lat="25.074404" lon="104.945256">
<time>2015-09-27T17:32:03Z</time></trkpt>
<trkpt lat="25.074986" lon="104.944618">
<time>2015-09-27T17:32:04Z</time></trkpt>
<trkpt lat="25.075016" lon="104.944538">
<time>2015-09-27T17:32:05Z</time></trkpt>
<trkpt lat="25.075166" lon="104.944379">
<time>2015-09-27T17:32:06Z</time></trkpt>
<trkpt lat="25.075487" lon="104.94398">
<time>2015-09-27T17:32:07Z</time></trkpt>
<trkpt lat="25.075958" lon="104.943462">
<time>2015-09-27T17:32:08Z</time></trkpt>
<trkpt lat="25.076449" lon="104.942914">
<time>2015-09-27T17:32:09Z</time></trkpt>
<trkpt lat="25.0767" lon="104.942495">
<time>2015-09-27T17:32:10Z</time></trkpt>
<trkpt lat="25.07684" lon="104.942316">
<time>2015-09-27T17:32:11Z</time></trkpt>
<trkpt lat="25.07694" lon="104.942096">
<time>2015-09-27T17:32:12Z</time></trkpt>
<trkpt lat="25.077091" lon="104.941638">
<time>2015-09-27T17:32:13Z</time></trkpt>
<trkpt lat="25.077142" lon="104.941389">
<time>2015-09-27T17:32:14Z</time></trkpt>
<trkpt lat="25.077173" lon="104.940681">
<time>2015-09-27T17:32:15Z</time></trkpt>
<trkpt lat="25.077173" lon="104.940611">
<time>2015-09-27T17:32:16Z</time></trkpt>
<trkpt lat="25.077153" lon="104.940412">
<time>2015-09-27T17:32:17Z</time></trkpt>
<trkpt lat="25.077134" lon="104.939813">
<time>2015-09-27T17:32:18Z</time></trkpt>
<trkpt lat="25.077145" lon="104.939564">
<time>2015-09-27T17:32:19Z</time></trkpt>
<trkpt lat="25.077175" lon="104.939435">
<time>2015-09-27T17:32:20Z</time></trkpt>
<trkpt lat="25.077245" lon="104.939255">
<time>2015-09-27T17:32:21Z</time></trkpt>
<trkpt lat="25.077316" lon="104.939076">
<time>2015-09-27T17:32:22Z</time></trkpt>
<trkpt lat="25.077567" lon="104.938537">
<time>2015-09-27T17:32:23Z</time></trkpt>
<trkpt lat="25.077717" lon="104.938119">
<time>2015-09-27T17:32:24Z</time></trkpt>
<trkpt lat="25.077718" lon="104.938019">
<time>2015-09-27T17:32:25Z</time></trkpt>
<trkpt lat="25.077718" lon="104.937879">
<time>2015-09-27T17:32:26Z</time></trkpt>
<trkpt lat="25.077688" lon="104.93778">
<time>2015-09-27T17:32:27Z</time></trkpt>
<trkpt lat="25.077658" lon="104.93767">
<time>2015-09-27T17:32:28Z</time></trkpt>
<trkpt lat="25.077568" lon="104.937491">
<time>2015-09-27T17:32:29Z</time></trkpt>
<trkpt lat="25.077289" lon="104.937002">
<time>2015-09-27T17:32:30Z</time></trkpt>
<trkpt lat="25.077209" lon="104.936862">
<time>2015-09-27T17:32:31Z</time></trkpt>
<trkpt lat="25.07716" lon="104.936753">
<time>2015-09-27T17:32:32Z</time></trkpt>
<trkpt lat="25.07715" lon="104.936623">
<time>2015-09-27T17:32:33Z</time></trkpt>
<trkpt lat="25.07716" lon="104.936284">
<time>2015-09-27T17:32:34Z</time></trkpt>
<trkpt lat="25.077311" lon="104.935636">
<time>2015-09-27T17:32:35Z</time></trkpt>
<trkpt lat="25.077392" lon="104.935237">
<time>2015-09-27T17:32:36Z</time></trkpt>
<trkpt lat="25.077422" lon="104.935018">
<time>2015-09-27T17:32:37Z</time></trkpt>
<trkpt lat="25.077575" lon="104.933333">
<time>2015-09-27T17:32:38Z</time></trkpt>
<trkpt lat="25.077575" lon="104.933333">
<time>2015-09-27T17:32:39Z</time></trkpt>
<trkpt lat="25.078016" lon="104.932764">
<time>2015-09-27T17:32:40Z</time></trkpt>
<trkpt lat="25.078947" lon="104.931587">
<time>2015-09-27T17:32:41Z</time></trkpt>
<trkpt lat="25.079378" lon="104.931019">
<time>2015-09-27T17:32:42Z</time></trkpt>
<trkpt lat="25.079579" lon="104.930779">
<time>2015-09-27T17:32:43Z</time></trkpt>
<trkpt lat="25.079679" lon="104.93067">
<time>2015-09-27T17:32:44Z</time></trkpt>
<trkpt lat="25.079739" lon="104.93061">
<time>2015-09-27T17:32:45Z</time></trkpt>
<trkpt lat="25.079819" lon="104.93055">
<time>2015-09-27T17:32:46Z</time></trkpt>
<trkpt lat="25.080109" lon="104.930341">
<time>2015-09-27T17:32:47Z</time></trkpt>
<trkpt lat="25.0814" lon="104.929423">
<time>2015-09-27T17:32:48Z</time></trkpt>
<trkpt lat="25.082121" lon="104.928944">
<time>2015-09-27T17:32:49Z</time></trkpt>
<trkpt lat="25.082211" lon="104.928884">
<time>2015-09-27T17:32:50Z</time></trkpt>
<trkpt lat="25.083342" lon="104.928076">
<time>2015-09-27T17:32:51Z</time></trkpt>
<trkpt lat="25.084673" lon="104.927149">
<time>2015-09-27T17:32:52Z</time></trkpt>
<trkpt lat="25.085443" lon="104.92663">
<time>2015-09-27T17:32:53Z</time></trkpt>
<trkpt lat="25.085624" lon="104.92652">
<time>2015-09-27T17:32:54Z</time></trkpt>
<trkpt lat="25.085814" lon="104.92642">
<time>2015-09-27T17:32:55Z</time></trkpt>
<trkpt lat="25.086264" lon="104.926181">
<time>2015-09-27T17:32:56Z</time></trkpt>
<trkpt lat="25.086394" lon="104.926101">
<time>2015-09-27T17:32:57Z</time></trkpt>
<trkpt lat="25.086554" lon="104.926001">
<time>2015-09-27T17:32:58Z</time></trkpt>
<trkpt lat="25.086664" lon="104.925922">
<time>2015-09-27T17:32:59Z</time></trkpt>
<trkpt lat="25.086774" lon="104.925822">
<time>2015-09-27T17:33:00Z</time></trkpt>
<trkpt lat="25.086904" lon="104.925672">
<time>2015-09-27T17:33:01Z</time></trkpt>
<trkpt lat="25.086975" lon="104.925573">
<time>2015-09-27T17:33:02Z</time></trkpt>
<trkpt lat="25.087035" lon="104.925463">
<time>2015-09-27T17:33:03Z</time></trkpt>
<trkpt lat="25.087085" lon="104.925373">
<time>2015-09-27T17:33:04Z</time></trkpt>
<trkpt lat="25.087135" lon="104.925263">
<time>2015-09-27T17:33:05Z</time></trkpt>
<trkpt lat="25.087145" lon="104.925253">
<time>2015-09-27T17:33:06Z</time></trkpt>
<trkpt lat="25.087175" lon="104.925154">
<time>2015-09-27T17:33:07Z</time></trkpt>
<trkpt lat="25.087215" lon="104.925024">
<time>2015-09-27T17:33:08Z</time></trkpt>
<trkpt lat="25.087245" lon="104.924904">
<time>2015-09-27T17:33:09Z</time></trkpt>
<trkpt lat="25.087255" lon="104.924804">
<time>2015-09-27T17:33:10Z</time></trkpt>
<trkpt lat="25.087286" lon="104.924595">
<time>2015-09-27T17:33:11Z</time></trkpt>
<trkpt lat="25.087326" lon="104.924355">
<time>2015-09-27T17:33:12Z</time></trkpt>
<trkpt lat="25.087346" lon="104.924146">
<time>2015-09-27T17:33:13Z</time></trkpt>
<trkpt lat="25.087346" lon="104.924146">
<time>2015-09-27T17:33:14Z</time></trkpt>
<trkpt lat="25.087446" lon="104.924086">
<time>2015-09-27T17:33:15Z</time></trkpt>
<trkpt lat="25.087496" lon="104.924046">
<time>2015-09-27T17:33:16Z</time></trkpt>
<trkpt lat="25.087546" lon="104.924006">
<time>2015-09-27T17:33:17Z</time></trkpt>
<trkpt lat="25.087586" lon="104.923966">
<time>2015-09-27T17:33:18Z</time></trkpt>
<trkpt lat="25.087636" lon="104.923916">
<time>2015-09-27T17:33:19Z</time></trkpt>
<trkpt lat="25.087696" lon="104.923847">
<time>2015-09-27T17:33:20Z</time></trkpt>
<trkpt lat="25.087746" lon="104.923787">
<time>2015-09-27T17:33:21Z</time></trkpt>
<trkpt lat="25.087756" lon="104.923767">
<time>2015-09-27T17:33:22Z</time></trkpt>
<trkpt lat="25.087787" lon="104.923737">
<time>2015-09-27T17:33:23Z</time></trkpt>
<trkpt lat="25.088137" lon="104.923268">
<time>2015-09-27T17:33:24Z</time></trkpt>
<trkpt lat="25.088217" lon="104.923158">
<time>2015-09-27T17:33:25Z</time></trkpt>
<trkpt lat="25.088808" lon="104.92233">
<time>2015-09-27T17:33:26Z</time></trkpt>
<trkpt lat="25.089118" lon="104.921891">
<time>2015-09-27T17:33:27Z</time></trkpt>
<trkpt lat="25.089118" lon="104.921891">
<time>2015-09-27T17:33:28Z</time></trkpt>
<trkpt lat="25.088409" lon="104.921243">
<time>2015-09-27T17:33:29Z</time></trkpt>
<trkpt lat="25.088219" lon="104.921033">
<time>2015-09-27T17:33:30Z</time></trkpt>
<trkpt lat="25.088179" lon="104.920983">
<time>2015-09-27T17:33:31Z</time></trkpt>
<trkpt lat="25.088129" lon="104.920933">
<time>2015-09-27T17:33:32Z</time></trkpt>
<trkpt lat="25.088129" lon="104.920933">
<time>2015-09-27T17:33:33Z</time></trkpt>
<trkpt lat="25.0884" lon="104.920544">
<time>2015-09-27T17:33:34Z</time></trkpt>
<trkpt lat="25.08842" lon="104.920504">
<time>2015-09-27T17:33:35Z</time></trkpt>
<trkpt lat="25.08843" lon="104.920494">
<time>2015-09-27T17:33:36Z</time></trkpt>
<trkpt lat="25.08845" lon="104.920484">
<time>2015-09-27T17:33:37Z</time></trkpt>
<trkpt lat="25.08846" lon="104.920474">
<time>2015-09-27T17:33:38Z</time></trkpt>
<trkpt lat="25.08848" lon="104.920454">
<time>2015-09-27T17:33:39Z</time></trkpt>
<trkpt lat="25.0885" lon="104.920444">
<time>2015-09-27T17:33:40Z</time></trkpt>
<trkpt lat="25.08856" lon="104.920384">
<time>2015-09-27T17:33:41Z</time></trkpt>
<trkpt lat="25.08861" lon="104.920334">
<time>2015-09-27T17:33:42Z</time></trkpt>
<trkpt lat="25.08864" lon="104.920305">
<time>2015-09-27T17:33:43Z</time></trkpt>
<trkpt lat="25.08866" lon="104.920265">
<time>2015-09-27T17:33:44Z</time></trkpt>
<trkpt lat="25.08874" lon="104.920165">
<time>2015-09-27T17:33:45Z</time></trkpt>
<trkpt lat="25.08907" lon="104.919636">
<time>2015-09-27T17:33:46Z</time></trkpt>
<trkpt lat="25.089201" lon="104.919426">
<time>2015-09-27T17:33:47Z</time></trkpt>
<trkpt lat="25.089361" lon="104.919147">
<time>2015-09-27T17:33:48Z</time></trkpt>
<trkpt lat="25.090502" lon="104.917311">
<time>2015-09-27T17:33:49Z</time></trkpt>
<trkpt lat="25.090873" lon="104.916712">
<time>2015-09-27T17:33:50Z</time></trkpt>
<trkpt lat="25.091133" lon="104.916303">
<time>2015-09-27T17:33:51Z</time></trkpt>
<trkpt lat="25.091303" lon="104.916003">
<time>2015-09-27T17:33:52Z</time></trkpt>
<trkpt lat="25.091383" lon="104.915904">
<time>2015-09-27T17:33:53Z</time></trkpt>
<trkpt lat="25.091433" lon="104.915794">
<time>2015-09-27T17:33:54Z</time></trkpt>
<trkpt lat="25.091884" lon="104.914965">
<time>2015-09-27T17:33:55Z</time></trkpt>
<trkpt lat="25.092204" lon="104.914386">
<time>2015-09-27T17:33:56Z</time></trkpt>
<trkpt lat="25.092204" lon="104.914386">
<time>2015-09-27T17:33:57Z</time></trkpt>
<trkpt lat="25.091555" lon="104.913957">
<time>2015-09-27T17:33:58Z</time></trkpt>
<trkpt lat="25.091545" lon="104.913947">
<time>2015-09-27T17:33:59Z</time></trkpt>
<trkpt lat="25.091545" lon="104.913917">
<time>2015-09-27T17:34:00Z</time></trkpt>
<trkpt lat="25.091565" lon="104.913877">
<time>2015-09-27T17:34:01Z</time></trkpt>
<trkpt lat="25.091755" lon="104.913149">
<time>2015-09-27T17:34:02Z</time></trkpt>
<trkpt lat="25.091895" lon="104.91265">
<time>2015-09-27T17:34:03Z</time></trkpt>
<trkpt lat="25.092126" lon="104.912091">
<time>2015-09-27T17:34:04Z</time></trkpt>
<trkpt lat="25.092406" lon="104.911422">
<time>2015-09-27T17:34:05Z</time></trkpt>
<trkpt lat="25.092406" lon="104.911422">
<time>2015-09-27T17:34:06Z</time></trkpt>
<trkpt lat="25.092346" lon="104.911302">
<time>2015-09-27T17:34:07Z</time></trkpt>
<trkpt lat="25.092286" lon="104.911092">
<time>2015-09-27T17:34:08Z</time></trkpt>
<trkpt lat="25.092256" lon="104.910972">
<time>2015-09-27T17:34:09Z</time></trkpt>
<trkpt lat="25.092236" lon="104.910853">
<time>2015-09-27T17:34:10Z</time></trkpt>
<trkpt lat="25.092226" lon="104.910753">
<time>2015-09-27T17:34:11Z</time></trkpt>
<trkpt lat="25.092217" lon="104.910563">
<time>2015-09-27T17:34:12Z</time></trkpt>
<trkpt lat="25.092227" lon="104.910453">
<time>2015-09-27T17:34:13Z</time></trkpt>
<trkpt lat="25.092237" lon="104.910354">
<time>2015-09-27T17:34:14Z</time></trkpt>
<trkpt lat="25.092267" lon="104.910214">
<time>2015-09-27T17:34:15Z</time></trkpt>
<trkpt lat="25.092297" lon="104.910094">
<time>2015-09-27T17:34:16Z</time></trkpt>
<trkpt lat="25.092367" lon="104.909874">
<time>2015-09-27T17:34:17Z</time></trkpt>
<trkpt lat="25.092387" lon="104.909794">
<time>2015-09-27T17:34:18Z</time></trkpt>
<trkpt lat="25.092677" lon="104.908996">
<time>2015-09-27T17:34:19Z</time></trkpt>
<trkpt lat="25.092788" lon="104.908317">
<time>2015-09-27T17:34:20Z</time></trkpt>
<trkpt lat="25.092848" lon="104.908067">
<time>2015-09-27T17:34:21Z</time></trkpt>
<trkpt lat="25.092928" lon="104.907538">
<time>2015-09-27T17:34:22Z</time></trkpt>
<trkpt lat="25.092928" lon="104.907488">
<time>2015-09-27T17:34:23Z</time></trkpt>
<trkpt lat="25.092908" lon="104.906659">
<time>2015-09-27T17:34:24Z</time></trkpt>
<trkpt lat="25.092908" lon="104.906659">
<time>2015-09-27T17:34:25Z</time></trkpt>
<trkpt lat="25.092718" lon="104.90622">
<time>2015-09-27T17:34:26Z</time></trkpt>
<trkpt lat="25.092598" lon="104.90609">
<time>2015-09-27T17:34:27Z</time></trkpt>
<trkpt lat="25.092528" lon="104.90603">
<time>2015-09-27T17:34:28Z</time></trkpt>
<trkpt lat="25.092288" lon="104.905781">
<time>2015-09-27T17:34:29Z</time></trkpt>
<trkpt lat="25.092118" lon="104.905621">
<time>2015-09-27T17:34:30Z</time></trkpt>
<trkpt lat="25.091599" lon="104.905122">
<time>2015-09-27T17:34:31Z</time></trkpt>
<trkpt lat="25.091539" lon="104.905062">
<time>2015-09-27T17:34:32Z</time></trkpt>
<trkpt lat="25.090939" lon="104.904513">
<time>2015-09-27T17:34:33Z</time></trkpt>
<trkpt lat="25.090899" lon="104.904363">
<time>2015-09-27T17:34:34Z</time></trkpt>
<trkpt lat="25.089479" lon="104.903065">
<time>2015-09-27T17:34:35Z</time></trkpt>
<trkpt lat="25.089409" lon="104.902965">
<time>2015-09-27T17:34:36Z</time></trkpt>
<trkpt lat="25.089409" lon="104.902965">
<time>2015-09-27T17:34:37Z</time></trkpt>
<trkpt lat="25.089049" lon="104.902635">
<time>2015-09-27T17:34:38Z</time></trkpt>
<trkpt lat="25.089009" lon="104.902605">
<time>2015-09-27T17:34:39Z</time></trkpt>
<trkpt lat="25.08631" lon="104.900068">
<time>2015-09-27T17:34:40Z</time></trkpt>
<trkpt lat="25.08577" lon="104.899559">
<time>2015-09-27T17:34:41Z</time></trkpt>
<trkpt lat="25.08566" lon="104.899449">
<time>2015-09-27T17:34:42Z</time></trkpt>
<trkpt lat="25.08562" lon="104.899399">
<time>2015-09-27T17:34:43Z</time></trkpt>
<trkpt lat="25.08544" lon="104.899169">
<time>2015-09-27T17:34:44Z</time></trkpt>
<trkpt lat="25.0853" lon="104.89898">
<time>2015-09-27T17:34:45Z</time></trkpt>
<trkpt lat="25.08478" lon="104.89823">
<time>2015-09-27T17:34:46Z</time></trkpt>
<trkpt lat="25.08457" lon="104.897921">
<time>2015-09-27T17:34:47Z</time></trkpt>
<trkpt lat="25.08426" lon="104.897481">
<time>2015-09-27T17:34:48Z</time></trkpt>
<trkpt lat="25.08422" lon="104.897431">
<time>2015-09-27T17:34:49Z</time></trkpt>
<trkpt lat="25.08365" lon="104.896622">
<time>2015-09-27T17:34:50Z</time></trkpt>
<trkpt lat="25.08365" lon="104.896622">
<time>2015-09-27T17:34:51Z</time></trkpt>
<trkpt lat="25.0836" lon="104.896552">
<time>2015-09-27T17:34:52Z</time></trkpt>
<trkpt lat="25.08334" lon="104.896183">
<time>2015-09-27T17:34:53Z</time></trkpt>
<trkpt lat="25.08308" lon="104.895823">
<time>2015-09-27T17:34:54Z</time></trkpt>
<trkpt lat="25.08275" lon="104.895363">
<time>2015-09-27T17:34:55Z</time></trkpt>
<trkpt lat="25.08243" lon="104.894864">
<time>2015-09-27T17:34:56Z</time></trkpt>
<trkpt lat="25.08232" lon="104.894644">
<time>2015-09-27T17:34:57Z</time></trkpt>
<trkpt lat="25.08227" lon="104.894544">
<time>2015-09-27T17:34:58Z</time></trkpt>
<trkpt lat="25.08219" lon="104.894404">
<time>2015-09-27T17:34:59Z</time></trkpt>
<trkpt lat="25.0821" lon="104.894145">
<time>2015-09-27T17:35:00Z</time></trkpt>
<trkpt lat="25.08201" lon="104.893825">
<time>2015-09-27T17:35:01Z</time></trkpt>
<trkpt lat="25.08197" lon="104.893615">
<time>2015-09-27T17:35:02Z</time></trkpt>
<trkpt lat="25.08196" lon="104.893415">
<time>2015-09-27T17:35:03Z</time></trkpt>
<trkpt lat="25.081979" lon="104.893125">
<time>2015-09-27T17:35:04Z</time></trkpt>
<trkpt lat="25.081999" lon="104.892796">
<time>2015-09-27T17:35:05Z</time></trkpt>
<trkpt lat="25.082029" lon="104.892556">
<time>2015-09-27T17:35:06Z</time></trkpt>
<trkpt lat="25.082079" lon="104.892326">
<time>2015-09-27T17:35:07Z</time></trkpt>
<trkpt lat="25.082159" lon="104.892036">
<time>2015-09-27T17:35:08Z</time></trkpt>
<trkpt lat="25.082359" lon="104.891407">
<time>2015-09-27T17:35:09Z</time></trkpt>
<trkpt lat="25.082609" lon="104.890617">
<time>2015-09-27T17:35:10Z</time></trkpt>
<trkpt lat="25.083078" lon="104.889188">
<time>2015-09-27T17:35:11Z</time></trkpt>
<trkpt lat="25.083338" lon="104.888289">
<time>2015-09-27T17:35:12Z</time></trkpt>
<trkpt lat="25.083637" lon="104.887359">
<time>2015-09-27T17:35:13Z</time></trkpt>
<trkpt lat="25.084106" lon="104.88594">
<time>2015-09-27T17:35:14Z</time></trkpt>
<trkpt lat="25.084126" lon="104.88588">
<time>2015-09-27T17:35:15Z</time></trkpt>
<trkpt lat="25.084126" lon="104.88588">
<time>2015-09-27T17:35:16Z</time></trkpt>
<trkpt lat="25.084106" lon="104.88586">
<time>2015-09-27T17:35:17Z</time></trkpt>
<trkpt lat="25.084096" lon="104.88585">
<time>2015-09-27T17:35:18Z</time></trkpt>
<trkpt lat="25.084096" lon="104.88584">
<time>2015-09-27T17:35:19Z</time></trkpt>
<trkpt lat="25.084086" lon="104.88583">
<time>2015-09-27T17:35:20Z</time></trkpt>
<trkpt lat="25.084086" lon="104.88582">
<time>2015-09-27T17:35:21Z</time></trkpt>
<trkpt lat="25.084086" lon="104.88581">
<time>2015-09-27T17:35:22Z</time></trkpt>
<trkpt lat="25.084076" lon="104.88579">
<time>2015-09-27T17:35:23Z</time></trkpt>
<trkpt lat="25.084076" lon="104.88577">
<time>2015-09-27T17:35:24Z</time></trkpt>
<trkpt lat="25.084066" lon="104.88575">
<time>2015-09-27T17:35:25Z</time></trkpt>
<trkpt lat="25.084066" lon="104.88572">
<time>2015-09-27T17:35:26Z</time></trkpt>
<trkpt lat="25.084046" lon="104.88563">
<time>2015-09-27T17:35:27Z</time></trkpt>
<trkpt lat="25.084036" lon="104.88555">
<time>2015-09-27T17:35:28Z</time></trkpt>
<trkpt lat="25.083825" lon="104.884531">
<time>2015-09-27T17:35:29Z</time></trkpt>
<trkpt lat="25.083645" lon="104.883751">
<time>2015-09-27T17:35:30Z</time></trkpt>
<trkpt lat="25.083555" lon="104.883361">
<time>2015-09-27T17:35:31Z</time></trkpt>
<trkpt lat="25.083344" lon="104.882502">
<time>2015-09-27T17:35:32Z</time></trkpt>
<trkpt lat="25.083204" lon="104.881892">
<time>2015-09-27T17:35:33Z</time></trkpt>
<trkpt lat="25.083103" lon="104.881492">
<time>2015-09-27T17:35:34Z</time></trkpt>
<trkpt lat="25.083023" lon="104.881082">
<time>2015-09-27T17:35:35Z</time></trkpt>
<trkpt lat="25.082943" lon="104.880652">
<time>2015-09-27T17:35:36Z</time></trkpt>
<trkpt lat="25.082913" lon="104.880522">
<time>2015-09-27T17:35:37Z</time></trkpt>
<trkpt lat="25.082722" lon="104.879772">
<time>2015-09-27T17:35:38Z</time></trkpt>
<trkpt lat="25.082692" lon="104.879652">
<time>2015-09-27T17:35:39Z</time></trkpt>
<trkpt lat="25.082672" lon="104.879552">
<time>2015-09-27T17:35:40Z</time></trkpt>
<trkpt lat="25.082662" lon="104.879412">
<time>2015-09-27T17:35:41Z</time></trkpt>
<trkpt lat="25.082662" lon="104.879283">
<time>2015-09-27T17:35:42Z</time></trkpt>
<trkpt lat="25.082661" lon="104.879013">
<time>2015-09-27T17:35:43Z</time></trkpt>
<trkpt lat="25.082671" lon="104.878843">
<time>2015-09-27T17:35:44Z</time></trkpt>
<trkpt lat="25.082681" lon="104.878793">
<time>2015-09-27T17:35:45Z</time></trkpt>
<trkpt lat="25.082691" lon="104.878753">
<time>2015-09-27T17:35:46Z</time></trkpt>
<trkpt lat="25.082711" lon="104.878643">
<time>2015-09-27T17:35:47Z</time></trkpt>
<trkpt lat="25.082781" lon="104.878423">
<time>2015-09-27T17:35:48Z</time></trkpt>
<trkpt lat="25.082791" lon="104.878383">
<time>2015-09-27T17:35:49Z</time></trkpt>
<trkpt lat="25.082791" lon="104.878353">
<time>2015-09-27T17:35:50Z</time></trkpt>
<trkpt lat="25.082801" lon="104.878323">
<time>2015-09-27T17:35:51Z</time></trkpt>
<trkpt lat="25.082801" lon="104.878283">
<time>2015-09-27T17:35:52Z</time></trkpt>
<trkpt lat="25.082801" lon="104.878193">
<time>2015-09-27T17:35:53Z</time></trkpt>
<trkpt lat="25.082801" lon="104.878143">
<time>2015-09-27T17:35:54Z</time></trkpt>
<trkpt lat="25.082801" lon="104.878103">
<time>2015-09-27T17:35:55Z</time></trkpt>
<trkpt lat="25.08274" lon="104.877703">
<time>2015-09-27T17:35:56Z</time></trkpt>
<trkpt lat="25.08273" lon="104.877643">
<time>2015-09-27T17:35:57Z</time></trkpt>
<trkpt lat="25.08272" lon="104.877573">
<time>2015-09-27T17:35:58Z</time></trkpt>
<trkpt lat="25.0827" lon="104.877503">
<time>2015-09-27T17:35:59Z</time></trkpt>
<trkpt lat="25.08268" lon="104.877443">
<time>2015-09-27T17:36:00Z</time></trkpt>
<trkpt lat="25.0825" lon="104.877093">
<time>2015-09-27T17:36:01Z</time></trkpt>
<trkpt lat="25.08248" lon="104.877043">
<time>2015-09-27T17:36:02Z</time></trkpt>
<trkpt lat="25.08247" lon="104.876993">
<time>2015-09-27T17:36:03Z</time></trkpt>
<trkpt lat="25.08246" lon="104.876943">
<time>2015-09-27T17:36:04Z</time></trkpt>
<trkpt lat="25.08245" lon="104.876893">
<time>2015-09-27T17:36:05Z</time></trkpt>
<trkpt lat="25.08244" lon="104.876853">
<time>2015-09-27T17:36:06Z</time></trkpt>
<trkpt lat="25.08244" lon="104.876813">
<time>2015-09-27T17:36:07Z</time></trkpt>
<trkpt lat="25.082409" lon="104.876513">
<time>2015-09-27T17:36:08Z</time></trkpt>
<trkpt lat="25.082399" lon="104.876433">
<time>2015-09-27T17:36:09Z</time></trkpt>
<trkpt lat="25.082369" lon="104.876273">
<time>2015-09-27T17:36:10Z</time></trkpt>
<trkpt lat="25.082359" lon="104.876213">
<time>2015-09-27T17:36:11Z</time></trkpt>
<trkpt lat="25.082359" lon="104.876163">
<time>2015-09-27T17:36:12Z</time></trkpt>
<trkpt lat="25.082359" lon="104.876133">
<time>2015-09-27T17:36:13Z</time></trkpt>
<trkpt lat="25.082359" lon="104.876093">
<time>2015-09-27T17:36:14Z</time></trkpt>
<trkpt lat="25.082379" lon="104.875993">
<time>2015-09-27T17:36:15Z</time></trkpt>
<trkpt lat="25.082389" lon="104.875973">
<time>2015-09-27T17:36:16Z</time></trkpt>
<trkpt lat="25.082389" lon="104.875943">
<time>2015-09-27T17:36:17Z</time></trkpt>
<trkpt lat="25.082419" lon="104.875883">
<time>2015-09-27T17:36:18Z</time></trkpt>
<trkpt lat="25.082469" lon="104.875763">
<time>2015-09-27T17:36:19Z</time></trkpt>
<trkpt lat="25.082499" lon="104.875663">
<time>2015-09-27T17:36:20Z</time></trkpt>
<trkpt lat="25.082528" lon="104.875593">
<time>2015-09-27T17:36:21Z</time></trkpt>
<trkpt lat="25.082528" lon="104.875583">
<time>2015-09-27T17:36:22Z</time></trkpt>
<trkpt lat="25.082528" lon="104.875573">
<time>2015-09-27T17:36:23Z</time></trkpt>
<trkpt lat="25.082538" lon="104.875563">
<time>2015-09-27T17:36:24Z</time></trkpt>
<trkpt lat="25.082538" lon="104.875543">
<time>2015-09-27T17:36:25Z</time></trkpt>
<trkpt lat="25.082538" lon="104.875493">
<time>2015-09-27T17:36:26Z</time></trkpt>
<trkpt lat="25.082528" lon="104.875413">
<time>2015-09-27T17:36:27Z</time></trkpt>
<trkpt lat="25.082498" lon="104.875323">
<time>2015-09-27T17:36:28Z</time></trkpt>
<trkpt lat="25.082438" lon="104.875183">
<time>2015-09-27T17:36:29Z</time></trkpt>
<trkpt lat="25.082348" lon="104.875003">
<time>2015-09-27T17:36:30Z</time></trkpt>
<trkpt lat="25.082248" lon="104.874733">
<time>2015-09-27T17:36:31Z</time></trkpt>
<trkpt lat="25.082238" lon="104.874683">
<time>2015-09-27T17:36:32Z</time></trkpt>
<trkpt lat="25.082228" lon="104.874623">
<time>2015-09-27T17:36:33Z</time></trkpt>
<trkpt lat="25.082217" lon="104.874543">
<time>2015-09-27T17:36:34Z</time></trkpt>
<trkpt lat="25.082207" lon="104.874453">
<time>2015-09-27T17:36:35Z</time></trkpt>
<trkpt lat="25.082207" lon="104.874173">
<time>2015-09-27T17:36:36Z</time></trkpt>
<trkpt lat="25.082207" lon="104.873723">
<time>2015-09-27T17:36:37Z</time></trkpt>
<trkpt lat="25.082216" lon="104.873513">
<time>2015-09-27T17:36:38Z</time></trkpt>
<trkpt lat="25.082216" lon="104.873483">
<time>2015-09-27T17:36:39Z</time></trkpt>
<trkpt lat="25.082216" lon="104.873463">
<time>2015-09-27T17:36:40Z</time></trkpt>
<trkpt lat="25.082226" lon="104.873433">
<time>2015-09-27T17:36:41Z</time></trkpt>
<trkpt lat="25.082226" lon="104.873403">
<time>2015-09-27T17:36:42Z</time></trkpt>
<trkpt lat="25.082236" lon="104.873383">
<time>2015-09-27T17:36:43Z</time></trkpt>
<trkpt lat="25.082256" lon="104.873243">
<time>2015-09-27T17:36:44Z</time></trkpt>
<trkpt lat="25.082266" lon="104.873203">
<time>2015-09-27T17:36:45Z</time></trkpt>
<trkpt lat="25.082266" lon="104.873163">
<time>2015-09-27T17:36:46Z</time></trkpt>
<trkpt lat="25.082266" lon="104.873123">
<time>2015-09-27T17:36:47Z</time></trkpt>
<trkpt lat="25.082266" lon="104.873093">
<time>2015-09-27T17:36:48Z</time></trkpt>
<trkpt lat="25.082266" lon="104.873043">
<time>2015-09-27T17:36:49Z</time></trkpt>
<trkpt lat="25.082266" lon="104.873013">
<time>2015-09-27T17:36:50Z</time></trkpt>
<trkpt lat="25.082256" lon="104.872973">
<time>2015-09-27T17:36:51Z</time></trkpt>
<trkpt lat="25.082246" lon="104.872933">
<time>2015-09-27T17:36:52Z</time></trkpt>
<trkpt lat="25.082236" lon="104.872893">
<time>2015-09-27T17:36:53Z</time></trkpt>
<trkpt lat="25.082216" lon="104.872843">
<time>2015-09-27T17:36:54Z</time></trkpt>
<trkpt lat="25.082206" lon="104.872803">
<time>2015-09-27T17:36:55Z</time></trkpt>
<trkpt lat="25.082186" lon="104.872773">
<time>2015-09-27T17:36:56Z</time></trkpt>
<trkpt lat="25.082156" lon="104.872713">
<time>2015-09-27T17:36:57Z</time></trkpt>
<trkpt lat="25.082085" lon="104.872583">
<time>2015-09-27T17:36:58Z</time></trkpt>
<trkpt lat="25.082065" lon="104.872553">
<time>2015-09-27T17:36:59Z</time></trkpt>
<trkpt lat="25.082055" lon="104.872513">
<time>2015-09-27T17:37:00Z</time></trkpt>
<trkpt lat="25.082055" lon="104.872483">
<time>2015-09-27T17:37:01Z</time></trkpt>
<trkpt lat="25.082045" lon="104.872453">
<time>2015-09-27T17:37:02Z</time></trkpt>
<trkpt lat="25.082045" lon="104.872403">
<time>2015-09-27T17:37:03Z</time></trkpt>
<trkpt lat="25.082055" lon="104.872353">
<time>2015-09-27T17:37:04Z</time></trkpt>
<trkpt lat="25.082075" lon="104.872253">
<time>2015-09-27T17:37:05Z</time></trkpt>
<trkpt lat="25.082085" lon="104.872203">
<time>2015-09-27T17:37:06Z</time></trkpt>
<trkpt lat="25.082125" lon="104.871993">
<time>2015-09-27T17:37:07Z</time></trkpt>
<trkpt lat="25.082155" lon="104.871903">
<time>2015-09-27T17:37:08Z</time></trkpt>
<trkpt lat="25.082175" lon="104.871813">
<time>2015-09-27T17:37:09Z</time></trkpt>
<trkpt lat="25.082185" lon="104.871733">
<time>2015-09-27T17:37:10Z</time></trkpt>
<trkpt lat="25.082184" lon="104.871653">
<time>2015-09-27T17:37:11Z</time></trkpt>
<trkpt lat="25.082164" lon="104.871553">
<time>2015-09-27T17:37:12Z</time></trkpt>
<trkpt lat="25.082144" lon="104.871483">
<time>2015-09-27T17:37:13Z</time></trkpt>
<trkpt lat="25.082114" lon="104.871413">
<time>2015-09-27T17:37:14Z</time></trkpt>
<trkpt lat="25.082084" lon="104.871343">
<time>2015-09-27T17:37:15Z</time></trkpt>
<trkpt lat="25.082044" lon="104.871273">
<time>2015-09-27T17:37:16Z</time></trkpt>
<trkpt lat="25.081994" lon="104.871203">
<time>2015-09-27T17:37:17Z</time></trkpt>
<trkpt lat="25.081924" lon="104.871113">
<time>2015-09-27T17:37:18Z</time></trkpt>
<trkpt lat="25.081894" lon="104.871073">
<time>2015-09-27T17:37:19Z</time></trkpt>
<trkpt lat="25.081894" lon="104.871073">
<time>2015-09-27T17:37:20Z</time></trkpt>
<trkpt lat="25.082163" lon="104.870683">
<time>2015-09-27T17:37:21Z</time></trkpt>
<trkpt lat="25.082273" lon="104.870513">
<time>2015-09-27T17:37:22Z</time></trkpt>
<trkpt lat="25.082323" lon="104.870413">
<time>2015-09-27T17:37:23Z</time></trkpt>
<trkpt lat="25.082363" lon="104.870353">
<time>2015-09-27T17:37:24Z</time></trkpt>
<trkpt lat="25.082433" lon="104.870073">
<time>2015-09-27T17:37:25Z</time></trkpt>
<trkpt lat="25.082502" lon="104.869923">
<time>2015-09-27T17:37:26Z</time></trkpt>
<trkpt lat="25.082602" lon="104.869803">
<time>2015-09-27T17:37:27Z</time></trkpt>
<trkpt lat="25.082712" lon="104.869713">
<time>2015-09-27T17:37:28Z</time></trkpt>
<trkpt lat="25.082922" lon="104.869553">
<time>2015-09-27T17:37:29Z</time></trkpt>
<trkpt lat="25.082992" lon="104.869473">
<time>2015-09-27T17:37:30Z</time></trkpt>
<trkpt lat="25.083032" lon="104.869383">
<time>2015-09-27T17:37:31Z</time></trkpt>
<trkpt lat="25.083052" lon="104.869323">
<time>2015-09-27T17:37:32Z</time></trkpt>
<trkpt lat="25.083052" lon="104.869273">
<time>2015-09-27T17:37:33Z</time></trkpt>
<trkpt lat="25.083031" lon="104.868933">
<time>2015-09-27T17:37:34Z</time></trkpt>
<trkpt lat="25.083061" lon="104.868863">
<time>2015-09-27T17:37:35Z</time></trkpt>
<trkpt lat="25.083091" lon="104.868783">
<time>2015-09-27T17:37:36Z</time></trkpt>
<trkpt lat="25.083171" lon="104.868683">
<time>2015-09-27T17:37:37Z</time></trkpt>
<trkpt lat="25.083341" lon="104.868493">
<time>2015-09-27T17:37:38Z</time></trkpt>
<trkpt lat="25.083441" lon="104.868382">
<time>2015-09-27T17:37:39Z</time></trkpt>
<trkpt lat="25.0836" lon="104.868162">
<time>2015-09-27T17:37:40Z</time></trkpt>
<trkpt lat="25.08364" lon="104.868112">
<time>2015-09-27T17:37:41Z</time></trkpt>
<trkpt lat="25.08397" lon="104.867942">
<time>2015-09-27T17:37:42Z</time></trkpt>
<trkpt lat="25.08409" lon="104.867822">
<time>2015-09-27T17:37:43Z</time></trkpt>
<trkpt lat="25.08425" lon="104.867612">
<time>2015-09-27T17:37:44Z</time></trkpt>
<trkpt lat="25.084449" lon="104.867442">
<time>2015-09-27T17:37:45Z</time></trkpt>
<trkpt lat="25.084679" lon="104.867242">
<time>2015-09-27T17:37:46Z</time></trkpt>
<trkpt lat="25.084699" lon="104.867222">
<time>2015-09-27T17:37:47Z</time></trkpt>
<trkpt lat="25.084719" lon="104.867192">
<time>2015-09-27T17:37:48Z</time></trkpt>
<trkpt lat="25.084739" lon="104.867082">
<time>2015-09-27T17:37:49Z</time></trkpt>
<trkpt lat="25.084769" lon="104.866902">
<time>2015-09-27T17:37:50Z</time></trkpt>
<trkpt lat="25.084808" lon="104.866802">
<time>2015-09-27T17:37:51Z</time></trkpt>
<trkpt lat="25.084848" lon="104.866762">
<time>2015-09-27T17:37:52Z</time></trkpt>
<trkpt lat="25.085538" lon="104.866442">
<time>2015-09-27T17:37:53Z</time></trkpt>
<trkpt lat="25.088126" lon="104.865261">
<time>2015-09-27T17:37:54Z</time></trkpt>
<trkpt lat="25.090085" lon="104.864361">
<time>2015-09-27T17:37:55Z</time></trkpt>
<trkpt lat="25.091214" lon="104.863831">
<time>2015-09-27T17:37:56Z</time></trkpt>
<trkpt lat="25.091574" lon="104.863581">
<time>2015-09-27T17:37:57Z</time></trkpt>
<trkpt lat="25.091733" lon="104.863481">
<time>2015-09-27T17:37:58Z</time></trkpt>
<trkpt lat="25.092223" lon="104.863041">
<time>2015-09-27T17:37:59Z</time></trkpt>
<trkpt lat="25.092812" lon="104.86228">
<time>2015-09-27T17:38:00Z</time></trkpt>
<trkpt lat="25.093201" lon="104.86167">
<time>2015-09-27T17:38:01Z</time></trkpt>
<trkpt lat="25.09358" lon="104.86113">
<time>2015-09-27T17:38:02Z</time></trkpt>
<trkpt lat="25.094009" lon="104.86069">
<time>2015-09-27T17:38:03Z</time></trkpt>
<trkpt lat="25.094519" lon="104.860329">
<time>2015-09-27T17:38:04Z</time></trkpt>
<trkpt lat="25.095028" lon="104.860049">
<time>2015-09-27T17:38:05Z</time></trkpt>
<trkpt lat="25.095678" lon="104.859799">
<time>2015-09-27T17:38:06Z</time></trkpt>
<trkpt lat="25.096078" lon="104.859619">
<time>2015-09-27T17:38:07Z</time></trkpt>
<trkpt lat="25.096327" lon="104.859479">
<time>2015-09-27T17:38:08Z</time></trkpt>
<trkpt lat="25.096667" lon="104.859279">
<time>2015-09-27T17:38:09Z</time></trkpt>
<trkpt lat="25.097117" lon="104.858919">
<time>2015-09-27T17:38:10Z</time></trkpt>
<trkpt lat="25.097286" lon="104.858728">
<time>2015-09-27T17:38:11Z</time></trkpt>
<trkpt lat="25.097656" lon="104.858338">
<time>2015-09-27T17:38:12Z</time></trkpt>
<trkpt lat="25.098135" lon="104.857608">
<time>2015-09-27T17:38:13Z</time></trkpt>
<trkpt lat="25.098564" lon="104.856947">
<time>2015-09-27T17:38:14Z</time></trkpt>
<trkpt lat="25.098583" lon="104.856907">
<time>2015-09-27T17:38:15Z</time></trkpt>
<trkpt lat="25.099092" lon="104.856287">
<time>2015-09-27T17:38:16Z</time></trkpt>
<trkpt lat="25.099092" lon="104.856287">
<time>2015-09-27T17:38:17Z</time></trkpt>
<trkpt lat="25.099152" lon="104.856047">
<time>2015-09-27T17:38:18Z</time></trkpt>
<trkpt lat="25.099172" lon="104.855987">
<time>2015-09-27T17:38:19Z</time></trkpt>
<trkpt lat="25.09975" lon="104.854976">
<time>2015-09-27T17:38:20Z</time></trkpt>
<trkpt lat="25.100219" lon="104.854216">
<time>2015-09-27T17:38:21Z</time></trkpt>
<trkpt lat="25.100838" lon="104.853325">
<time>2015-09-27T17:38:22Z</time></trkpt>
<trkpt lat="25.101127" lon="104.852995">
<time>2015-09-27T17:38:23Z</time></trkpt>
<trkpt lat="25.101327" lon="104.852705">
<time>2015-09-27T17:38:24Z</time></trkpt>
<trkpt lat="25.101446" lon="104.852505">
<time>2015-09-27T17:38:25Z</time></trkpt>
<trkpt lat="25.101556" lon="104.852294">
<time>2015-09-27T17:38:26Z</time></trkpt>
<trkpt lat="25.101715" lon="104.851884">
<time>2015-09-27T17:38:27Z</time></trkpt>
<trkpt lat="25.101805" lon="104.851594">
<time>2015-09-27T17:38:28Z</time></trkpt>
<trkpt lat="25.101874" lon="104.851334">
<time>2015-09-27T17:38:29Z</time></trkpt>
<trkpt lat="25.101934" lon="104.851174">
<time>2015-09-27T17:38:30Z</time></trkpt>
<trkpt lat="25.101984" lon="104.851044">
<time>2015-09-27T17:38:31Z</time></trkpt>
<trkpt lat="25.102034" lon="104.850944">
<time>2015-09-27T17:38:32Z</time></trkpt>
<trkpt lat="25.102064" lon="104.850894">
<time>2015-09-27T17:38:33Z</time></trkpt>
<trkpt lat="25.102104" lon="104.850833">
<time>2015-09-27T17:38:34Z</time></trkpt>
<trkpt lat="25.102133" lon="104.850793">
<time>2015-09-27T17:38:35Z</time></trkpt>
<trkpt lat="25.102183" lon="104.850743">
<time>2015-09-27T17:38:36Z</time></trkpt>
<trkpt lat="25.102233" lon="104.850683">
<time>2015-09-27T17:38:37Z</time></trkpt>
<trkpt lat="25.102283" lon="104.850653">
<time>2015-09-27T17:38:38Z</time></trkpt>
<trkpt lat="25.102333" lon="104.850603">
<time>2015-09-27T17:38:39Z</time></trkpt>
<trkpt lat="25.102423" lon="104.850553">
<time>2015-09-27T17:38:40Z</time></trkpt>
<trkpt lat="25.102523" lon="104.850493">
<time>2015-09-27T17:38:41Z</time></trkpt>
<trkpt lat="25.102733" lon="104.850413">
<time>2015-09-27T17:38:42Z</time></trkpt>
<trkpt lat="25.103352" lon="104.850163">
<time>2015-09-27T17:38:43Z</time></trkpt>
<trkpt lat="25.103842" lon="104.849973">
<time>2015-09-27T17:38:44Z</time></trkpt>
<trkpt lat="25.104162" lon="104.849773">
<time>2015-09-27T17:38:45Z</time></trkpt>
<trkpt lat="25.104661" lon="104.849412">
<time>2015-09-27T17:38:46Z</time></trkpt>
<trkpt lat="25.105" lon="104.849162">
<time>2015-09-27T17:38:47Z</time></trkpt>
<trkpt lat="25.10528" lon="104.848962">
<time>2015-09-27T17:38:48Z</time></trkpt>
<trkpt lat="25.10561" lon="104.848742">
<time>2015-09-27T17:38:49Z</time></trkpt>
<trkpt lat="25.105929" lon="104.848522">
<time>2015-09-27T17:38:50Z</time></trkpt>
<trkpt lat="25.106349" lon="104.848211">
<time>2015-09-27T17:38:51Z</time></trkpt>
<trkpt lat="25.106798" lon="104.847911">
<time>2015-09-27T17:38:52Z</time></trkpt>
<trkpt lat="25.107028" lon="104.847781">
<time>2015-09-27T17:38:53Z</time></trkpt>
<trkpt lat="25.107348" lon="104.847611">
<time>2015-09-27T17:38:54Z</time></trkpt>
<trkpt lat="25.107917" lon="104.847301">
<time>2015-09-27T17:38:55Z</time></trkpt>
<trkpt lat="25.108357" lon="104.84707">
<time>2015-09-27T17:38:56Z</time></trkpt>
<trkpt lat="25.108716" lon="104.84686">
<time>2015-09-27T17:38:57Z</time></trkpt>
<trkpt lat="25.108876" lon="104.84675">
<time>2015-09-27T17:38:58Z</time></trkpt>
<trkpt lat="25.109036" lon="104.84663">
<time>2015-09-27T17:38:59Z</time></trkpt>
<trkpt lat="25.109166" lon="104.84653">
<time>2015-09-27T17:39:00Z</time></trkpt>
<trkpt lat="25.109275" lon="104.84641">
<time>2015-09-27T17:39:01Z</time></trkpt>
<trkpt lat="25.109395" lon="104.84627">
<time>2015-09-27T17:39:02Z</time></trkpt>
<trkpt lat="25.109465" lon="104.84619">
<time>2015-09-27T17:39:03Z</time></trkpt>
<trkpt lat="25.109525" lon="104.84609">
<time>2015-09-27T17:39:04Z</time></trkpt>
<trkpt lat="25.109664" lon="104.845879">
<time>2015-09-27T17:39:05Z</time></trkpt>
<trkpt lat="25.109764" lon="104.845709">
<time>2015-09-27T17:39:06Z</time></trkpt>
<trkpt lat="25.110033" lon="104.845329">
<time>2015-09-27T17:39:07Z</time></trkpt>
<trkpt lat="25.110363" lon="104.844849">
<time>2015-09-27T17:39:08Z</time></trkpt>
<trkpt lat="25.110762" lon="104.844278">
<time>2015-09-27T17:39:09Z</time></trkpt>
<trkpt lat="25.110931" lon="104.844028">
<time>2015-09-27T17:39:10Z</time></trkpt>
<trkpt lat="25.11144" lon="104.843287">
<time>2015-09-27T17:39:11Z</time></trkpt>
<trkpt lat="25.111978" lon="104.842547">
<time>2015-09-27T17:39:12Z</time></trkpt>
<trkpt lat="25.112387" lon="104.841956">
<time>2015-09-27T17:39:13Z</time></trkpt>
<trkpt lat="25.112776" lon="104.841366">
<time>2015-09-27T17:39:14Z</time></trkpt>
<trkpt lat="25.113355" lon="104.840505">
<time>2015-09-27T17:39:15Z</time></trkpt>
<trkpt lat="25.113704" lon="104.840054">
<time>2015-09-27T17:39:16Z</time></trkpt>
<trkpt lat="25.113814" lon="104.839934">
<time>2015-09-27T17:39:17Z</time></trkpt>
<trkpt lat="25.114003" lon="104.839764">
<time>2015-09-27T17:39:18Z</time></trkpt>
<trkpt lat="25.114812" lon="104.839153">
<time>2015-09-27T17:39:19Z</time></trkpt>
<trkpt lat="25.115441" lon="104.838673">
<time>2015-09-27T17:39:20Z</time></trkpt>
<trkpt lat="25.11638" lon="104.837972">
<time>2015-09-27T17:39:21Z</time></trkpt>
<trkpt lat="25.11649" lon="104.837892">
<time>2015-09-27T17:39:22Z</time></trkpt>
<trkpt lat="25.116589" lon="104.837822">
<time>2015-09-27T17:39:23Z</time></trkpt>
<trkpt lat="25.116709" lon="104.837712">
<time>2015-09-27T17:39:24Z</time></trkpt>
<trkpt lat="25.116849" lon="104.837572">
<time>2015-09-27T17:39:25Z</time></trkpt>
<trkpt lat="25.117049" lon="104.837342">
<time>2015-09-27T17:39:26Z</time></trkpt>
<trkpt lat="25.117198" lon="104.837162">
<time>2015-09-27T17:39:27Z</time></trkpt>
<trkpt lat="25.117597" lon="104.836671">
<time>2015-09-27T17:39:28Z</time></trkpt>
<trkpt lat="25.118336" lon="104.8358">
<time>2015-09-27T17:39:29Z</time></trkpt>
<trkpt lat="25.119164" lon="104.834769">
<time>2015-09-27T17:39:30Z</time></trkpt>
<trkpt lat="25.119982" lon="104.833778">
<time>2015-09-27T17:39:31Z</time></trkpt>
<trkpt lat="25.120311" lon="104.833368">
<time>2015-09-27T17:39:32Z</time></trkpt>
<trkpt lat="25.12048" lon="104.833118">
<time>2015-09-27T17:39:33Z</time></trkpt>
<trkpt lat="25.12065" lon="104.832837">
<time>2015-09-27T17:39:34Z</time></trkpt>
<trkpt lat="25.120799" lon="104.832587">
<time>2015-09-27T17:39:35Z</time></trkpt>
<trkpt lat="25.121069" lon="104.832127">
<time>2015-09-27T17:39:36Z</time></trkpt>
<trkpt lat="25.121716" lon="104.831056">
<time>2015-09-27T17:39:37Z</time></trkpt>
<trkpt lat="25.121936" lon="104.830675">
<time>2015-09-27T17:39:38Z</time></trkpt>
<trkpt lat="25.122125" lon="104.830385">
<time>2015-09-27T17:39:39Z</time></trkpt>
<trkpt lat="25.122315" lon="104.830115">
<time>2015-09-27T17:39:40Z</time></trkpt>
<trkpt lat="25.122424" lon="104.829984">
<time>2015-09-27T17:39:41Z</time></trkpt>
<trkpt lat="25.122664" lon="104.829744">
<time>2015-09-27T17:39:42Z</time></trkpt>
<trkpt lat="25.123043" lon="104.829384">
<time>2015-09-27T17:39:43Z</time></trkpt>
<trkpt lat="25.123253" lon="104.829204">
<time>2015-09-27T17:39:44Z</time></trkpt>
<trkpt lat="25.123502" lon="104.829023">
<time>2015-09-27T17:39:45Z</time></trkpt>
<trkpt lat="25.123642" lon="104.828953">
<time>2015-09-27T17:39:46Z</time></trkpt>
<trkpt lat="25.123862" lon="104.828843">
<time>2015-09-27T17:39:47Z</time></trkpt>
<trkpt lat="25.124372" lon="104.828633">
<time>2015-09-27T17:39:48Z</time></trkpt>
<trkpt lat="25.125021" lon="104.828373">
<time>2015-09-27T17:39:49Z</time></trkpt>
<trkpt lat="25.125281" lon="104.828253">
<time>2015-09-27T17:39:50Z</time></trkpt>
<trkpt lat="25.125521" lon="104.828132">
<time>2015-09-27T17:39:51Z</time></trkpt>
<trkpt lat="25.12575" lon="104.828002">
<time>2015-09-27T17:39:52Z</time></trkpt>
<trkpt lat="25.1259" lon="104.827902">
<time>2015-09-27T17:39:53Z</time></trkpt>
<trkpt lat="25.12603" lon="104.827792">
<time>2015-09-27T17:39:54Z</time></trkpt>
<trkpt lat="25.12622" lon="104.827602">
<time>2015-09-27T17:39:55Z</time></trkpt>
<trkpt lat="25.126569" lon="104.827252">
<time>2015-09-27T17:39:56Z</time></trkpt>
<trkpt lat="25.127028" lon="104.826801">
<time>2015-09-27T17:39:57Z</time></trkpt>
<trkpt lat="25.127287" lon="104.826531">
<time>2015-09-27T17:39:58Z</time></trkpt>
<trkpt lat="25.127627" lon="104.82615">
<time>2015-09-27T17:39:59Z</time></trkpt>
<trkpt lat="25.128026" lon="104.8257">
<time>2015-09-27T17:40:00Z</time></trkpt>
<trkpt lat="25.128525" lon="104.825079">
<time>2015-09-27T17:40:01Z</time></trkpt>
<trkpt lat="25.129033" lon="104.824429">
<time>2015-09-27T17:40:02Z</time></trkpt>
<trkpt lat="25.129392" lon="104.823948">
<time>2015-09-27T17:40:03Z</time></trkpt>
<trkpt lat="25.129712" lon="104.823548">
<time>2015-09-27T17:40:04Z</time></trkpt>
<trkpt lat="25.13027" lon="104.822847">
<time>2015-09-27T17:40:05Z</time></trkpt>
<trkpt lat="25.130959" lon="104.821936">
<time>2015-09-27T17:40:06Z</time></trkpt>
<trkpt lat="25.131507" lon="104.821225">
<time>2015-09-27T17:40:07Z</time></trkpt>
<trkpt lat="25.131846" lon="104.820785">
<time>2015-09-27T17:40:08Z</time></trkpt>
<trkpt lat="25.132205" lon="104.820334">
<time>2015-09-27T17:40:09Z</time></trkpt>
<trkpt lat="25.132744" lon="104.819644">
<time>2015-09-27T17:40:10Z</time></trkpt>
<trkpt lat="25.133402" lon="104.818793">
<time>2015-09-27T17:40:11Z</time></trkpt>
<trkpt lat="25.133522" lon="104.818643">
<time>2015-09-27T17:40:12Z</time></trkpt>
<trkpt lat="25.133831" lon="104.818252">
<time>2015-09-27T17:40:13Z</time></trkpt>
<trkpt lat="25.133911" lon="104.818132">
<time>2015-09-27T17:40:14Z</time></trkpt>
<trkpt lat="25.133961" lon="104.818062">
<time>2015-09-27T17:40:15Z</time></trkpt>
<trkpt lat="25.134031" lon="104.817952">
<time>2015-09-27T17:40:16Z</time></trkpt>
<trkpt lat="25.134101" lon="104.817852">
<time>2015-09-27T17:40:17Z</time></trkpt>
<trkpt lat="25.13414" lon="104.817762">
<time>2015-09-27T17:40:18Z</time></trkpt>
<trkpt lat="25.1342" lon="104.817662">
<time>2015-09-27T17:40:19Z</time></trkpt>
<trkpt lat="25.13425" lon="104.817542">
<time>2015-09-27T17:40:20Z</time></trkpt>
<trkpt lat="25.1343" lon="104.817432">
<time>2015-09-27T17:40:21Z</time></trkpt>
<trkpt lat="25.13435" lon="104.817281">
<time>2015-09-27T17:40:22Z</time></trkpt>
<trkpt lat="25.134399" lon="104.817111">
<time>2015-09-27T17:40:23Z</time></trkpt>
<trkpt lat="25.134419" lon="104.817051">
<time>2015-09-27T17:40:24Z</time></trkpt>
<trkpt lat="25.134469" lon="104.816861">
<time>2015-09-27T17:40:25Z</time></trkpt>
<trkpt lat="25.134508" lon="104.816661">
<time>2015-09-27T17:40:26Z</time></trkpt>
<trkpt lat="25.134568" lon="104.816381">
<time>2015-09-27T17:40:27Z</time></trkpt>
<trkpt lat="25.134627" lon="104.81611">
<time>2015-09-27T17:40:28Z</time></trkpt>
<trkpt lat="25.134885" lon="104.814909">
<time>2015-09-27T17:40:29Z</time></trkpt>
<trkpt lat="25.135113" lon="104.813758">
<time>2015-09-27T17:40:30Z</time></trkpt>
<trkpt lat="25.135212" lon="104.813358">
<time>2015-09-27T17:40:31Z</time></trkpt>
<trkpt lat="25.135252" lon="104.813258">
<time>2015-09-27T17:40:32Z</time></trkpt>
<trkpt lat="25.135282" lon="104.813167">
<time>2015-09-27T17:40:33Z</time></trkpt>
<trkpt lat="25.135322" lon="104.813047">
<time>2015-09-27T17:40:34Z</time></trkpt>
<trkpt lat="25.135381" lon="104.812887">
<time>2015-09-27T17:40:35Z</time></trkpt>
<trkpt lat="25.135441" lon="104.812727">
<time>2015-09-27T17:40:36Z</time></trkpt>
<trkpt lat="25.135511" lon="104.812567">
<time>2015-09-27T17:40:37Z</time></trkpt>
<trkpt lat="25.13563" lon="104.812347">
<time>2015-09-27T17:40:38Z</time></trkpt>
<trkpt lat="25.13587" lon="104.811946">
<time>2015-09-27T17:40:39Z</time></trkpt>
<trkpt lat="25.135939" lon="104.811826">
<time>2015-09-27T17:40:40Z</time></trkpt>
<trkpt lat="25.136069" lon="104.811626">
<time>2015-09-27T17:40:41Z</time></trkpt>
<trkpt lat="25.136268" lon="104.811276">
<time>2015-09-27T17:40:42Z</time></trkpt>
<trkpt lat="25.136617" lon="104.810695">
<time>2015-09-27T17:40:43Z</time></trkpt>
<trkpt lat="25.137225" lon="104.809704">
<time>2015-09-27T17:40:44Z</time></trkpt>
<trkpt lat="25.137285" lon="104.809604">
<time>2015-09-27T17:40:45Z</time></trkpt>
<trkpt lat="25.137584" lon="104.809034">
<time>2015-09-27T17:40:46Z</time></trkpt>
<trkpt lat="25.137744" lon="104.808673">
<time>2015-09-27T17:40:47Z</time></trkpt>
<trkpt lat="25.137883" lon="104.808333">
<time>2015-09-27T17:40:48Z</time></trkpt>
<trkpt lat="25.137972" lon="104.808083">
<time>2015-09-27T17:40:49Z</time></trkpt>
<trkpt lat="25.138062" lon="104.807873">
<time>2015-09-27T17:40:50Z</time></trkpt>
<trkpt lat="25.138221" lon="104.807472">
<time>2015-09-27T17:40:51Z</time></trkpt>
<trkpt lat="25.138331" lon="104.807132">
<time>2015-09-27T17:40:52Z</time></trkpt>
<trkpt lat="25.13843" lon="104.806822">
<time>2015-09-27T17:40:53Z</time></trkpt>
<trkpt lat="25.13852" lon="104.806481">
<time>2015-09-27T17:40:54Z</time></trkpt>
<trkpt lat="25.138649" lon="104.805931">
<time>2015-09-27T17:40:55Z</time></trkpt>
<trkpt lat="25.138807" lon="104.8052">
<time>2015-09-27T17:40:56Z</time></trkpt>
<trkpt lat="25.138857" lon="104.80485">
<time>2015-09-27T17:40:57Z</time></trkpt>
<trkpt lat="25.138866" lon="104.80434">
<time>2015-09-27T17:40:58Z</time></trkpt>
<trkpt lat="25.138885" lon="104.803689">
<time>2015-09-27T17:40:59Z</time></trkpt>
<trkpt lat="25.138913" lon="104.802868">
<time>2015-09-27T17:41:00Z</time></trkpt>
<trkpt lat="25.138922" lon="104.801858">
<time>2015-09-27T17:41:01Z</time></trkpt>
<trkpt lat="25.138919" lon="104.800527">
<time>2015-09-27T17:41:02Z</time></trkpt>
<trkpt lat="25.138958" lon="104.799726">
<time>2015-09-27T17:41:03Z</time></trkpt>
<trkpt lat="25.139047" lon="104.798955">
<time>2015-09-27T17:41:04Z</time></trkpt>
<trkpt lat="25.139106" lon="104.798605">
<time>2015-09-27T17:41:05Z</time></trkpt>
<trkpt lat="25.139255" lon="104.798025">
<time>2015-09-27T17:41:06Z</time></trkpt>
<trkpt lat="25.139424" lon="104.797234">
<time>2015-09-27T17:41:07Z</time></trkpt>
<trkpt lat="25.139603" lon="104.796434">
<time>2015-09-27T17:41:08Z</time></trkpt>
<trkpt lat="25.139772" lon="104.795643">
<time>2015-09-27T17:41:09Z</time></trkpt>
<trkpt lat="25.14004" lon="104.794562">
<time>2015-09-27T17:41:10Z</time></trkpt>
<trkpt lat="25.140388" lon="104.793542">
<time>2015-09-27T17:41:11Z</time></trkpt>
<trkpt lat="25.140697" lon="104.792841">
<time>2015-09-27T17:41:12Z</time></trkpt>
<trkpt lat="25.140907" lon="104.792381">
<time>2015-09-27T17:41:13Z</time></trkpt>
<trkpt lat="25.141126" lon="104.791931">
<time>2015-09-27T17:41:14Z</time></trkpt>
<trkpt lat="25.141265" lon="104.791621">
<time>2015-09-27T17:41:15Z</time></trkpt>
<trkpt lat="25.141355" lon="104.79131">
<time>2015-09-27T17:41:16Z</time></trkpt>
<trkpt lat="25.141524" lon="104.79068">
<time>2015-09-27T17:41:17Z</time></trkpt>
<trkpt lat="25.141633" lon="104.79024">
<time>2015-09-27T17:41:18Z</time></trkpt>
<trkpt lat="25.141723" lon="104.78995">
<time>2015-09-27T17:41:19Z</time></trkpt>
<trkpt lat="25.141912" lon="104.789239">
<time>2015-09-27T17:41:20Z</time></trkpt>
<trkpt lat="25.142071" lon="104.788609">
<time>2015-09-27T17:41:21Z</time></trkpt>
<trkpt lat="25.14222" lon="104.788019">
<time>2015-09-27T17:41:22Z</time></trkpt>
<trkpt lat="25.14227" lon="104.787849">
<time>2015-09-27T17:41:23Z</time></trkpt>
<trkpt lat="25.14232" lon="104.787719">
<time>2015-09-27T17:41:24Z</time></trkpt>
<trkpt lat="25.142419" lon="104.787338">
<time>2015-09-27T17:41:25Z</time></trkpt>
<trkpt lat="25.142479" lon="104.787078">
<time>2015-09-27T17:41:26Z</time></trkpt>
<trkpt lat="25.142737" lon="104.786038">
<time>2015-09-27T17:41:27Z</time></trkpt>
<trkpt lat="25.142926" lon="104.785248">
<time>2015-09-27T17:41:28Z</time></trkpt>
<trkpt lat="25.143116" lon="104.784527">
<time>2015-09-27T17:41:29Z</time></trkpt>
<trkpt lat="25.143165" lon="104.784337">
<time>2015-09-27T17:41:30Z</time></trkpt>
<trkpt lat="25.143165" lon="104.784297">
<time>2015-09-27T17:41:31Z</time></trkpt>
<trkpt lat="25.143305" lon="104.783747">
<time>2015-09-27T17:41:32Z</time></trkpt>
<trkpt lat="25.143414" lon="104.783287">
<time>2015-09-27T17:41:33Z</time></trkpt>
<trkpt lat="25.143494" lon="104.782957">
<time>2015-09-27T17:41:34Z</time></trkpt>
<trkpt lat="25.143513" lon="104.782817">
<time>2015-09-27T17:41:35Z</time></trkpt>
<trkpt lat="25.143543" lon="104.782637">
<time>2015-09-27T17:41:36Z</time></trkpt>
<trkpt lat="25.143553" lon="104.782507">
<time>2015-09-27T17:41:37Z</time></trkpt>
<trkpt lat="25.143553" lon="104.782397">
<time>2015-09-27T17:41:38Z</time></trkpt>
<trkpt lat="25.143543" lon="104.782257">
<time>2015-09-27T17:41:39Z</time></trkpt>
<trkpt lat="25.143522" lon="104.782097">
<time>2015-09-27T17:41:40Z</time></trkpt>
<trkpt lat="25.143492" lon="104.781967">
<time>2015-09-27T17:41:41Z</time></trkpt>
<trkpt lat="25.143462" lon="104.781847">
<time>2015-09-27T17:41:42Z</time></trkpt>
<trkpt lat="25.143422" lon="104.781746">
<time>2015-09-27T17:41:43Z</time></trkpt>
<trkpt lat="25.143372" lon="104.781616">
<time>2015-09-27T17:41:44Z</time></trkpt>
<trkpt lat="25.143302" lon="104.781506">
<time>2015-09-27T17:41:45Z</time></trkpt>
<trkpt lat="25.143232" lon="104.781366">
<time>2015-09-27T17:41:46Z</time></trkpt>
<trkpt lat="25.143041" lon="104.781066">
<time>2015-09-27T17:41:47Z</time></trkpt>
<trkpt lat="25.142831" lon="104.780746">
<time>2015-09-27T17:41:48Z</time></trkpt>
<trkpt lat="25.14253" lon="104.780276">
<time>2015-09-27T17:41:49Z</time></trkpt>
<trkpt lat="25.1421" lon="104.779636">
<time>2015-09-27T17:41:50Z</time></trkpt>
<trkpt lat="25.141929" lon="104.779386">
<time>2015-09-27T17:41:51Z</time></trkpt>
<trkpt lat="25.141689" lon="104.778996">
<time>2015-09-27T17:41:52Z</time></trkpt>
<trkpt lat="25.141409" lon="104.778616">
<time>2015-09-27T17:41:53Z</time></trkpt>
<trkpt lat="25.141188" lon="104.778316">
<time>2015-09-27T17:41:54Z</time></trkpt>
<trkpt lat="25.140798" lon="104.777756">
<time>2015-09-27T17:41:55Z</time></trkpt>
<trkpt lat="25.140527" lon="104.777366">
<time>2015-09-27T17:41:56Z</time></trkpt>
<trkpt lat="25.140347" lon="104.777106">
<time>2015-09-27T17:41:57Z</time></trkpt>
<trkpt lat="25.140257" lon="104.776966">
<time>2015-09-27T17:41:58Z</time></trkpt>
<trkpt lat="25.140197" lon="104.776846">
<time>2015-09-27T17:41:59Z</time></trkpt>
<trkpt lat="25.140137" lon="104.776716">
<time>2015-09-27T17:42:00Z</time></trkpt>
<trkpt lat="25.140097" lon="104.776586">
<time>2015-09-27T17:42:01Z</time></trkpt>
<trkpt lat="25.140046" lon="104.776366">
<time>2015-09-27T17:42:02Z</time></trkpt>
<trkpt lat="25.139966" lon="104.776016">
<time>2015-09-27T17:42:03Z</time></trkpt>
<trkpt lat="25.139886" lon="104.775706">
<time>2015-09-27T17:42:04Z</time></trkpt>
<trkpt lat="25.139775" lon="104.775336">
<time>2015-09-27T17:42:05Z</time></trkpt>
<trkpt lat="25.139585" lon="104.774866">
<time>2015-09-27T17:42:06Z</time></trkpt>
<trkpt lat="25.139535" lon="104.774646">
<time>2015-09-27T17:42:07Z</time></trkpt>
<trkpt lat="25.139474" lon="104.774416">
<time>2015-09-27T17:42:08Z</time></trkpt>
<trkpt lat="25.139434" lon="104.774226">
<time>2015-09-27T17:42:09Z</time></trkpt>
<trkpt lat="25.139414" lon="104.773866">
<time>2015-09-27T17:42:10Z</time></trkpt>
<trkpt lat="25.139393" lon="104.773296">
<time>2015-09-27T17:42:11Z</time></trkpt>
<trkpt lat="25.139363" lon="104.772846">
<time>2015-09-27T17:42:12Z</time></trkpt>
<trkpt lat="25.139333" lon="104.772606">
<time>2015-09-27T17:42:13Z</time></trkpt>
<trkpt lat="25.139313" lon="104.772466">
<time>2015-09-27T17:42:14Z</time></trkpt>
<trkpt lat="25.139282" lon="104.772296">
<time>2015-09-27T17:42:15Z</time></trkpt>
<trkpt lat="25.139252" lon="104.772086">
<time>2015-09-27T17:42:16Z</time></trkpt>
<trkpt lat="25.139212" lon="104.771856">
<time>2015-09-27T17:42:17Z</time></trkpt>
<trkpt lat="25.139142" lon="104.771626">
<time>2015-09-27T17:42:18Z</time></trkpt>
<trkpt lat="25.139092" lon="104.771486">
<time>2015-09-27T17:42:19Z</time></trkpt>
<trkpt lat="25.139022" lon="104.771336">
<time>2015-09-27T17:42:20Z</time></trkpt>
<trkpt lat="25.138611" lon="104.770506">
<time>2015-09-27T17:42:21Z</time></trkpt>
<trkpt lat="25.138441" lon="104.770146">
<time>2015-09-27T17:42:22Z</time></trkpt>
<trkpt lat="25.13817" lon="104.769606">
<time>2015-09-27T17:42:23Z</time></trkpt>
<trkpt lat="25.1381" lon="104.769466">
<time>2015-09-27T17:42:24Z</time></trkpt>
<trkpt lat="25.13804" lon="104.769316">
<time>2015-09-27T17:42:25Z</time></trkpt>
<trkpt lat="25.138" lon="104.769246">
<time>2015-09-27T17:42:26Z</time></trkpt>
<trkpt lat="25.13797" lon="104.769176">
<time>2015-09-27T17:42:27Z</time></trkpt>
<trkpt lat="25.13793" lon="104.769096">
<time>2015-09-27T17:42:28Z</time></trkpt>
<trkpt lat="25.13791" lon="104.769046">
<time>2015-09-27T17:42:29Z</time></trkpt>
<trkpt lat="25.13789" lon="104.768996">
<time>2015-09-27T17:42:30Z</time></trkpt>
<trkpt lat="25.13787" lon="104.768946">
<time>2015-09-27T17:42:31Z</time></trkpt>
<trkpt lat="25.13781" lon="104.768806">
<time>2015-09-27T17:42:32Z</time></trkpt>
<trkpt lat="25.137729" lon="104.768616">
<time>2015-09-27T17:42:33Z</time></trkpt>
<trkpt lat="25.137619" lon="104.768346">
<time>2015-09-27T17:42:34Z</time></trkpt>
<trkpt lat="25.137579" lon="104.768226">
<time>2015-09-27T17:42:35Z</time></trkpt>
<trkpt lat="25.137529" lon="104.768086">
<time>2015-09-27T17:42:36Z</time></trkpt>
<trkpt lat="25.137489" lon="104.767966">
<time>2015-09-27T17:42:37Z</time></trkpt>
<trkpt lat="25.137449" lon="104.767836">
<time>2015-09-27T17:42:38Z</time></trkpt>
<trkpt lat="25.137389" lon="104.767606">
<time>2015-09-27T17:42:39Z</time></trkpt>
<trkpt lat="25.137329" lon="104.767386">
<time>2015-09-27T17:42:40Z</time></trkpt>
<trkpt lat="25.137248" lon="104.767067">
<time>2015-09-27T17:42:41Z</time></trkpt>
<trkpt lat="25.137178" lon="104.766717">
<time>2015-09-27T17:42:42Z</time></trkpt>
<trkpt lat="25.137108" lon="104.766317">
<time>2015-09-27T17:42:43Z</time></trkpt>
<trkpt lat="25.136987" lon="104.765657">
<time>2015-09-27T17:42:44Z</time></trkpt>
<trkpt lat="25.136917" lon="104.765327">
<time>2015-09-27T17:42:45Z</time></trkpt>
<trkpt lat="25.136887" lon="104.765147">
<time>2015-09-27T17:42:46Z</time></trkpt>
<trkpt lat="25.136867" lon="104.765017">
<time>2015-09-27T17:42:47Z</time></trkpt>
<trkpt lat="25.136827" lon="104.764747">
<time>2015-09-27T17:42:48Z</time></trkpt>
<trkpt lat="25.136777" lon="104.764347">
<time>2015-09-27T17:42:49Z</time></trkpt>
<trkpt lat="25.136736" lon="104.763987">
<time>2015-09-27T17:42:50Z</time></trkpt>
<trkpt lat="25.136716" lon="104.763728">
<time>2015-09-27T17:42:51Z</time></trkpt>
<trkpt lat="25.136706" lon="104.763618">
<time>2015-09-27T17:42:52Z</time></trkpt>
<trkpt lat="25.136676" lon="104.763198">
<time>2015-09-27T17:42:53Z</time></trkpt>
<trkpt lat="25.136565" lon="104.761838">
<time>2015-09-27T17:42:54Z</time></trkpt>
<trkpt lat="25.136485" lon="104.760939">
<time>2015-09-27T17:42:55Z</time></trkpt>
<trkpt lat="25.136404" lon="104.760239">
<time>2015-09-27T17:42:56Z</time></trkpt>
<trkpt lat="25.136304" lon="104.75951">
<time>2015-09-27T17:42:57Z</time></trkpt>
<trkpt lat="25.136194" lon="104.75864">
<time>2015-09-27T17:42:58Z</time></trkpt>
<trkpt lat="25.136153" lon="104.75812">
<time>2015-09-27T17:42:59Z</time></trkpt>
<trkpt lat="25.136103" lon="104.757101">
<time>2015-09-27T17:43:00Z</time></trkpt>
<trkpt lat="25.136063" lon="104.755792">
<time>2015-09-27T17:43:01Z</time></trkpt>
<trkpt lat="25.136042" lon="104.755072">
<time>2015-09-27T17:43:02Z</time></trkpt>
<trkpt lat="25.136052" lon="104.754823">
<time>2015-09-27T17:43:03Z</time></trkpt>
<trkpt lat="25.136082" lon="104.754513">
<time>2015-09-27T17:43:04Z</time></trkpt>
<trkpt lat="25.136142" lon="104.753913">
<time>2015-09-27T17:43:05Z</time></trkpt>
<trkpt lat="25.136262" lon="104.752894">
<time>2015-09-27T17:43:06Z</time></trkpt>
<trkpt lat="25.136402" lon="104.751745">
<time>2015-09-27T17:43:07Z</time></trkpt>
<trkpt lat="25.136512" lon="104.750936">
<time>2015-09-27T17:43:08Z</time></trkpt>
<trkpt lat="25.136621" lon="104.750006">
<time>2015-09-27T17:43:09Z</time></trkpt>
<trkpt lat="25.136761" lon="104.748588">
<time>2015-09-27T17:43:10Z</time></trkpt>
<trkpt lat="25.136971" lon="104.74667">
<time>2015-09-27T17:43:11Z</time></trkpt>
<trkpt lat="25.137021" lon="104.74632">
<time>2015-09-27T17:43:12Z</time></trkpt>
<trkpt lat="25.137411" lon="104.744522">
<time>2015-09-27T17:43:13Z</time></trkpt>
<trkpt lat="25.137672" lon="104.743373">
<time>2015-09-27T17:43:14Z</time></trkpt>
<trkpt lat="25.137742" lon="104.742984">
<time>2015-09-27T17:43:15Z</time></trkpt>
<trkpt lat="25.137772" lon="104.742794">
<time>2015-09-27T17:43:16Z</time></trkpt>
<trkpt lat="25.137782" lon="104.742554">
<time>2015-09-27T17:43:17Z</time></trkpt>
<trkpt lat="25.137802" lon="104.741536">
<time>2015-09-27T17:43:18Z</time></trkpt>
<trkpt lat="25.137822" lon="104.741136">
<time>2015-09-27T17:43:19Z</time></trkpt>
<trkpt lat="25.137822" lon="104.740946">
<time>2015-09-27T17:43:20Z</time></trkpt>
<trkpt lat="25.137812" lon="104.740737">
<time>2015-09-27T17:43:21Z</time></trkpt>
<trkpt lat="25.137792" lon="104.740607">
<time>2015-09-27T17:43:22Z</time></trkpt>
<trkpt lat="25.137772" lon="104.740477">
<time>2015-09-27T17:43:23Z</time></trkpt>
<trkpt lat="25.137742" lon="104.740367">
<time>2015-09-27T17:43:24Z</time></trkpt>
<trkpt lat="25.137712" lon="104.740247">
<time>2015-09-27T17:43:25Z</time></trkpt>
<trkpt lat="25.137672" lon="104.740138">
<time>2015-09-27T17:43:26Z</time></trkpt>
<trkpt lat="25.137612" lon="104.739998">
<time>2015-09-27T17:43:27Z</time></trkpt>
<trkpt lat="25.137343" lon="104.739389">
<time>2015-09-27T17:43:28Z</time></trkpt>
<trkpt lat="25.137093" lon="104.738799">
<time>2015-09-27T17:43:29Z</time></trkpt>
<trkpt lat="25.136923" lon="104.7384">
<time>2015-09-27T17:43:30Z</time></trkpt>
<trkpt lat="25.136833" lon="104.73817">
<time>2015-09-27T17:43:31Z</time></trkpt>
<trkpt lat="25.136783" lon="104.737991">
<time>2015-09-27T17:43:32Z</time></trkpt>
<trkpt lat="25.136723" lon="104.737751">
<time>2015-09-27T17:43:33Z</time></trkpt>
<trkpt lat="25.136673" lon="104.737451">
<time>2015-09-27T17:43:34Z</time></trkpt>
<trkpt lat="25.136574" lon="104.736682">
<time>2015-09-27T17:43:35Z</time></trkpt>
<trkpt lat="25.136514" lon="104.736373">
<time>2015-09-27T17:43:36Z</time></trkpt>
<trkpt lat="25.136484" lon="104.736293">
<time>2015-09-27T17:43:37Z</time></trkpt>
<trkpt lat="25.136454" lon="104.736193">
<time>2015-09-27T17:43:38Z</time></trkpt>
<trkpt lat="25.136384" lon="104.736043">
<time>2015-09-27T17:43:39Z</time></trkpt>
<trkpt lat="25.136344" lon="104.735973">
<time>2015-09-27T17:43:40Z</time></trkpt>
<trkpt lat="25.136284" lon="104.735874">
<time>2015-09-27T17:43:41Z</time></trkpt>
<trkpt lat="25.136064" lon="104.735564">
<time>2015-09-27T17:43:42Z</time></trkpt>
<trkpt lat="25.135954" lon="104.735394">
<time>2015-09-27T17:43:43Z</time></trkpt>
<trkpt lat="25.135864" lon="104.735235">
<time>2015-09-27T17:43:44Z</time></trkpt>
<trkpt lat="25.135794" lon="104.735065">
<time>2015-09-27T17:43:45Z</time></trkpt>
<trkpt lat="25.135714" lon="104.734885">
<time>2015-09-27T17:43:46Z</time></trkpt>
<trkpt lat="25.135665" lon="104.734755">
<time>2015-09-27T17:43:47Z</time></trkpt>
<trkpt lat="25.135655" lon="104.734725">
<time>2015-09-27T17:43:48Z</time></trkpt>
<trkpt lat="25.135635" lon="104.734685">
<time>2015-09-27T17:43:49Z</time></trkpt>
<trkpt lat="25.135615" lon="104.734665">
<time>2015-09-27T17:43:50Z</time></trkpt>
<trkpt lat="25.135595" lon="104.734636">
<time>2015-09-27T17:43:51Z</time></trkpt>
<trkpt lat="25.135565" lon="104.734616">
<time>2015-09-27T17:43:52Z</time></trkpt>
<trkpt lat="25.135545" lon="104.734606">
<time>2015-09-27T17:43:53Z</time></trkpt>
<trkpt lat="25.135525" lon="104.734596">
<time>2015-09-27T17:43:54Z</time></trkpt>
<trkpt lat="25.135505" lon="104.734586">
<time>2015-09-27T17:43:55Z</time></trkpt>
<trkpt lat="25.135485" lon="104.734586">
<time>2015-09-27T17:43:56Z</time></trkpt>
<trkpt lat="25.135465" lon="104.734586">
<time>2015-09-27T17:43:57Z</time></trkpt>
<trkpt lat="25.135435" lon="104.734596">
<time>2015-09-27T17:43:58Z</time></trkpt>
<trkpt lat="25.135415" lon="104.734596">
<time>2015-09-27T17:43:59Z</time></trkpt>
<trkpt lat="25.135395" lon="104.734606">
<time>2015-09-27T17:44:00Z</time></trkpt>
<trkpt lat="25.135375" lon="104.734626">
<time>2015-09-27T17:44:01Z</time></trkpt>
<trkpt lat="25.135345" lon="104.734656">
<time>2015-09-27T17:44:02Z</time></trkpt>
<trkpt lat="25.135325" lon="104.734675">
<time>2015-09-27T17:44:03Z</time></trkpt>
<trkpt lat="25.135315" lon="104.734715">
<time>2015-09-27T17:44:04Z</time></trkpt>
<trkpt lat="25.135295" lon="104.734745">
<time>2015-09-27T17:44:05Z</time></trkpt>
<trkpt lat="25.135285" lon="104.734795">
<time>2015-09-27T17:44:06Z</time></trkpt>
<trkpt lat="25.135285" lon="104.734835">
<time>2015-09-27T17:44:07Z</time></trkpt>
<trkpt lat="25.135285" lon="104.734895">
<time>2015-09-27T17:44:08Z</time></trkpt>
<trkpt lat="25.135284" lon="104.734945">
<time>2015-09-27T17:44:09Z</time></trkpt>
<trkpt lat="25.135284" lon="104.734995">
<time>2015-09-27T17:44:10Z</time></trkpt>
<trkpt lat="25.135304" lon="104.735145">
<time>2015-09-27T17:44:11Z</time></trkpt>
<trkpt lat="25.135344" lon="104.735394">
<time>2015-09-27T17:44:12Z</time></trkpt>
<trkpt lat="25.135364" lon="104.735494">
<time>2015-09-27T17:44:13Z</time></trkpt>
<trkpt lat="25.135364" lon="104.735554">
<time>2015-09-27T17:44:14Z</time></trkpt>
<trkpt lat="25.135364" lon="104.735604">
<time>2015-09-27T17:44:15Z</time></trkpt>
<trkpt lat="25.135354" lon="104.735664">
<time>2015-09-27T17:44:16Z</time></trkpt>
<trkpt lat="25.135344" lon="104.735704">
<time>2015-09-27T17:44:17Z</time></trkpt>
<trkpt lat="25.135334" lon="104.735744">
<time>2015-09-27T17:44:18Z</time></trkpt>
<trkpt lat="25.135324" lon="104.735764">
<time>2015-09-27T17:44:19Z</time></trkpt>
<trkpt lat="25.135314" lon="104.735794">
<time>2015-09-27T17:44:20Z</time></trkpt>
<trkpt lat="25.135294" lon="104.735834">
<time>2015-09-27T17:44:21Z</time></trkpt>
<trkpt lat="25.135274" lon="104.735864">
<time>2015-09-27T17:44:22Z</time></trkpt>
<trkpt lat="25.135234" lon="104.735894">
<time>2015-09-27T17:44:23Z</time></trkpt>
<trkpt lat="25.135204" lon="104.735934">
<time>2015-09-27T17:44:24Z</time></trkpt>
<trkpt lat="25.135184" lon="104.735944">
<time>2015-09-27T17:44:25Z</time></trkpt>
<trkpt lat="25.135154" lon="104.735964">
<time>2015-09-27T17:44:26Z</time></trkpt>
<trkpt lat="25.135124" lon="104.735974">
<time>2015-09-27T17:44:27Z</time></trkpt>
<trkpt lat="25.135034" lon="104.736013">
<time>2015-09-27T17:44:28Z</time></trkpt>
<trkpt lat="25.134984" lon="104.736023">
<time>2015-09-27T17:44:29Z</time></trkpt>
<trkpt lat="25.134934" lon="104.736033">
<time>2015-09-27T17:44:30Z</time></trkpt>
<trkpt lat="25.134474" lon="104.736093">
<time>2015-09-27T17:44:31Z</time></trkpt>
<trkpt lat="25.133534" lon="104.736193">
<time>2015-09-27T17:44:32Z</time></trkpt>
<trkpt lat="25.132364" lon="104.736303">
<time>2015-09-27T17:44:33Z</time></trkpt>
<trkpt lat="25.132184" lon="104.736323">
<time>2015-09-27T17:44:34Z</time></trkpt>
<trkpt lat="25.132144" lon="104.736323">
<time>2015-09-27T17:44:35Z</time></trkpt>
<trkpt lat="25.132104" lon="104.736323">
<time>2015-09-27T17:44:36Z</time></trkpt>
<trkpt lat="25.132064" lon="104.736323">
<time>2015-09-27T17:44:37Z</time></trkpt>
<trkpt lat="25.132014" lon="104.736313">
<time>2015-09-27T17:44:38Z</time></trkpt>
<trkpt lat="25.131984" lon="104.736293">
<time>2015-09-27T17:44:39Z</time></trkpt>
<trkpt lat="25.131954" lon="104.736283">
<time>2015-09-27T17:44:40Z</time></trkpt>
<trkpt lat="25.131914" lon="104.736253">
<time>2015-09-27T17:44:41Z</time></trkpt>
<trkpt lat="25.131894" lon="104.736243">
<time>2015-09-27T17:44:42Z</time></trkpt>
<trkpt lat="25.131874" lon="104.736213">
<time>2015-09-27T17:44:43Z</time></trkpt>
<trkpt lat="25.131854" lon="104.736183">
<time>2015-09-27T17:44:44Z</time></trkpt>
<trkpt lat="25.131834" lon="104.736163">
<time>2015-09-27T17:44:45Z</time></trkpt>
<trkpt lat="25.131824" lon="104.736133">
<time>2015-09-27T17:44:46Z</time></trkpt>
<trkpt lat="25.131814" lon="104.736074">
<time>2015-09-27T17:44:47Z</time></trkpt>
<trkpt lat="25.131804" lon="104.736054">
<time>2015-09-27T17:44:48Z</time></trkpt>
<trkpt lat="25.131804" lon="104.736024">
<time>2015-09-27T17:44:49Z</time></trkpt>
<trkpt lat="25.131814" lon="104.735984">
<time>2015-09-27T17:44:50Z</time></trkpt>
<trkpt lat="25.131824" lon="104.735954">
<time>2015-09-27T17:44:51Z</time></trkpt>
<trkpt lat="25.131834" lon="104.735914">
<time>2015-09-27T17:44:52Z</time></trkpt>
<trkpt lat="25.131854" lon="104.735884">
<time>2015-09-27T17:44:53Z</time></trkpt>
<trkpt lat="25.131864" lon="104.735864">
<time>2015-09-27T17:44:54Z</time></trkpt>
<trkpt lat="25.131884" lon="104.735844">
<time>2015-09-27T17:44:55Z</time></trkpt>
<trkpt lat="25.131904" lon="104.735824">
<time>2015-09-27T17:44:56Z</time></trkpt>
<trkpt lat="25.131924" lon="104.735804">
<time>2015-09-27T17:44:57Z</time></trkpt>
<trkpt lat="25.131954" lon="104.735784">
<time>2015-09-27T17:44:58Z</time></trkpt>
<trkpt lat="25.131974" lon="104.735774">
<time>2015-09-27T17:44:59Z</time></trkpt>
<trkpt lat="25.132004" lon="104.735764">
<time>2015-09-27T17:45:00Z</time></trkpt>
<trkpt lat="25.132034" lon="104.735754">
<time>2015-09-27T17:45:01Z</time></trkpt>
<trkpt lat="25.132074" lon="104.735744">
<time>2015-09-27T17:45:02Z</time></trkpt>
<trkpt lat="25.132104" lon="104.735744">
<time>2015-09-27T17:45:03Z</time></trkpt>
<trkpt lat="25.132144" lon="104.735744">
<time>2015-09-27T17:45:04Z</time></trkpt>
<trkpt lat="25.132184" lon="104.735744">
<time>2015-09-27T17:45:05Z</time></trkpt>
<trkpt lat="25.132224" lon="104.735744">
<time>2015-09-27T17:45:06Z</time></trkpt>
<trkpt lat="25.132294" lon="104.735754">
<time>2015-09-27T17:45:07Z</time></trkpt>
<trkpt lat="25.132364" lon="104.735764">
<time>2015-09-27T17:45:08Z</time></trkpt>
<trkpt lat="25.132414" lon="104.735774">
<time>2015-09-27T17:45:09Z</time></trkpt>
<trkpt lat="25.132504" lon="104.735774">
<time>2015-09-27T17:45:10Z</time></trkpt>
<trkpt lat="25.132564" lon="104.735774">
<time>2015-09-27T17:45:11Z</time></trkpt>
<trkpt lat="25.132624" lon="104.735764">
<time>2015-09-27T17:45:12Z</time></trkpt>
<trkpt lat="25.132684" lon="104.735754">
<time>2015-09-27T17:45:13Z</time></trkpt>
<trkpt lat="25.132734" lon="104.735734">
<time>2015-09-27T17:45:14Z</time></trkpt>
<trkpt lat="25.132764" lon="104.735724">
<time>2015-09-27T17:45:15Z</time></trkpt>
<trkpt lat="25.132824" lon="104.735694">
<time>2015-09-27T17:45:16Z</time></trkpt>
<trkpt lat="25.132884" lon="104.735664">
<time>2015-09-27T17:45:17Z</time></trkpt>
<trkpt lat="25.132934" lon="104.735634">
<time>2015-09-27T17:45:18Z</time></trkpt>
<trkpt lat="25.133124" lon="104.735514">
<time>2015-09-27T17:45:19Z</time></trkpt>
<trkpt lat="25.133204" lon="104.735444">
<time>2015-09-27T17:45:20Z</time></trkpt>
<trkpt lat="25.133254" lon="104.735394">
<time>2015-09-27T17:45:21Z</time></trkpt>
<trkpt lat="25.133274" lon="104.735365">
<time>2015-09-27T17:45:22Z</time></trkpt>
<trkpt lat="25.133294" lon="104.735335">
<time>2015-09-27T17:45:23Z</time></trkpt>
<trkpt lat="25.133314" lon="104.735305">
<time>2015-09-27T17:45:24Z</time></trkpt>
<trkpt lat="25.133324" lon="104.735275">
<time>2015-09-27T17:45:25Z</time></trkpt>
<trkpt lat="25.133344" lon="104.735225">
<time>2015-09-27T17:45:26Z</time></trkpt>
<trkpt lat="25.133355" lon="104.735145">
<time>2015-09-27T17:45:27Z</time></trkpt>
<trkpt lat="25.133355" lon="104.735075">
<time>2015-09-27T17:45:28Z</time></trkpt>
<trkpt lat="25.133355" lon="104.735035">
<time>2015-09-27T17:45:29Z</time></trkpt>
<trkpt lat="25.133345" lon="104.734985">
<time>2015-09-27T17:45:30Z</time></trkpt>
<trkpt lat="25.133335" lon="104.734945">
<time>2015-09-27T17:45:31Z</time></trkpt>
<trkpt lat="25.133315" lon="104.734885">
<time>2015-09-27T17:45:32Z</time></trkpt>
<trkpt lat="25.133295" lon="104.734845">
<time>2015-09-27T17:45:33Z</time></trkpt>
<trkpt lat="25.133265" lon="104.734795">
<time>2015-09-27T17:45:34Z</time></trkpt>
<trkpt lat="25.133205" lon="104.734725">
<time>2015-09-27T17:45:35Z</time></trkpt>
<trkpt lat="25.133165" lon="104.734686">
<time>2015-09-27T17:45:36Z</time></trkpt>
<trkpt lat="25.132625" lon="104.734166">
<time>2015-09-27T17:45:37Z</time></trkpt>
<trkpt lat="25.132275" lon="104.733837">
<time>2015-09-27T17:45:38Z</time></trkpt>
<trkpt lat="25.132195" lon="104.733777">
<time>2015-09-27T17:45:39Z</time></trkpt>
<trkpt lat="25.132145" lon="104.733737">
<time>2015-09-27T17:45:40Z</time></trkpt>
<trkpt lat="25.132045" lon="104.733667">
<time>2015-09-27T17:45:41Z</time></trkpt>
<trkpt lat="25.132005" lon="104.733637">
<time>2015-09-27T17:45:42Z</time></trkpt>
<trkpt lat="25.131925" lon="104.733597">
<time>2015-09-27T17:45:43Z</time></trkpt>
<trkpt lat="25.131875" lon="104.733587">
<time>2015-09-27T17:45:44Z</time></trkpt>
<trkpt lat="25.131825" lon="104.733567">
<time>2015-09-27T17:45:45Z</time></trkpt>
<trkpt lat="25.131775" lon="104.733557">
<time>2015-09-27T17:45:46Z</time></trkpt>
<trkpt lat="25.131735" lon="104.733557">
<time>2015-09-27T17:45:47Z</time></trkpt>
<trkpt lat="25.131695" lon="104.733557">
<time>2015-09-27T17:45:48Z</time></trkpt>
<trkpt lat="25.131655" lon="104.733557">
<time>2015-09-27T17:45:49Z</time></trkpt>
<trkpt lat="25.131605" lon="104.733567">
<time>2015-09-27T17:45:50Z</time></trkpt>
<trkpt lat="25.131455" lon="104.733607">
<time>2015-09-27T17:45:51Z</time></trkpt>
<trkpt lat="25.131285" lon="104.733677">
<time>2015-09-27T17:45:52Z</time></trkpt>
<trkpt lat="25.130145" lon="104.734087">
<time>2015-09-27T17:45:53Z</time></trkpt>
<trkpt lat="25.129895" lon="104.734176">
<time>2015-09-27T17:45:54Z</time></trkpt>
<trkpt lat="25.129835" lon="104.734186">
<time>2015-09-27T17:45:55Z</time></trkpt>
<trkpt lat="25.129745" lon="104.734206">
<time>2015-09-27T17:45:56Z</time></trkpt>
<trkpt lat="25.129685" lon="104.734206">
<time>2015-09-27T17:45:57Z</time></trkpt>
<trkpt lat="25.129595" lon="104.734216">
<time>2015-09-27T17:45:58Z</time></trkpt>
<trkpt lat="25.129485" lon="104.734216">
<time>2015-09-27T17:45:59Z</time></trkpt>
<trkpt lat="25.129405" lon="104.734206">
<time>2015-09-27T17:46:00Z</time></trkpt>
<trkpt lat="25.129305" lon="104.734196">
<time>2015-09-27T17:46:01Z</time></trkpt>
<trkpt lat="25.129195" lon="104.734177">
<time>2015-09-27T17:46:02Z</time></trkpt>
<trkpt lat="25.128475" lon="104.734027">
<time>2015-09-27T17:46:03Z</time></trkpt>
<trkpt lat="25.128215" lon="104.733967">
<time>2015-09-27T17:46:04Z</time></trkpt>
<trkpt lat="25.128156" lon="104.733937">
<time>2015-09-27T17:46:05Z</time></trkpt>
<trkpt lat="25.128086" lon="104.733917">
<time>2015-09-27T17:46:06Z</time></trkpt>
<trkpt lat="25.128016" lon="104.733887">
<time>2015-09-27T17:46:07Z</time></trkpt>
<trkpt lat="25.127936" lon="104.733847">
<time>2015-09-27T17:46:08Z</time></trkpt>
<trkpt lat="25.127806" lon="104.733767">
<time>2015-09-27T17:46:09Z</time></trkpt>
<trkpt lat="25.127596" lon="104.733627">
<time>2015-09-27T17:46:10Z</time></trkpt>
<trkpt lat="25.127466" lon="104.733548">
<time>2015-09-27T17:46:11Z</time></trkpt>
<trkpt lat="25.127356" lon="104.733498">
<time>2015-09-27T17:46:12Z</time></trkpt>
<trkpt lat="25.127276" lon="104.733468">
<time>2015-09-27T17:46:13Z</time></trkpt>
<trkpt lat="25.127206" lon="104.733448">
<time>2015-09-27T17:46:14Z</time></trkpt>
<trkpt lat="25.127156" lon="104.733428">
<time>2015-09-27T17:46:15Z</time></trkpt>
<trkpt lat="25.127036" lon="104.733408">
<time>2015-09-27T17:46:16Z</time></trkpt>
<trkpt lat="25.126846" lon="104.733378">
<time>2015-09-27T17:46:17Z</time></trkpt>
<trkpt lat="25.126186" lon="104.733308">
<time>2015-09-27T17:46:18Z</time></trkpt>
<trkpt lat="25.125946" lon="104.733288">
<time>2015-09-27T17:46:19Z</time></trkpt>
<trkpt lat="25.125776" lon="104.733258">
<time>2015-09-27T17:46:20Z</time></trkpt>
<trkpt lat="25.125646" lon="104.733228">
<time>2015-09-27T17:46:21Z</time></trkpt>
<trkpt lat="25.125536" lon="104.733198">
<time>2015-09-27T17:46:22Z</time></trkpt>
<trkpt lat="25.125426" lon="104.733138">
<time>2015-09-27T17:46:23Z</time></trkpt>
<trkpt lat="25.125316" lon="104.733078">
<time>2015-09-27T17:46:24Z</time></trkpt>
<trkpt lat="25.125146" lon="104.732979">
<time>2015-09-27T17:46:25Z</time></trkpt>
<trkpt lat="25.125056" lon="104.732939">
<time>2015-09-27T17:46:26Z</time></trkpt>
<trkpt lat="25.125016" lon="104.732929">
<time>2015-09-27T17:46:27Z</time></trkpt>
<trkpt lat="25.124976" lon="104.732919">
<time>2015-09-27T17:46:28Z</time></trkpt>
<trkpt lat="25.124946" lon="104.732909">
<time>2015-09-27T17:46:29Z</time></trkpt>
<trkpt lat="25.124916" lon="104.732909">
<time>2015-09-27T17:46:30Z</time></trkpt>
<trkpt lat="25.124886" lon="104.732909">
<time>2015-09-27T17:46:31Z</time></trkpt>
<trkpt lat="25.124846" lon="104.732909">
<time>2015-09-27T17:46:32Z</time></trkpt>
<trkpt lat="25.124826" lon="104.732919">
<time>2015-09-27T17:46:33Z</time></trkpt>
<trkpt lat="25.124786" lon="104.732929">
<time>2015-09-27T17:46:34Z</time></trkpt>
<trkpt lat="25.124746" lon="104.732949">
<time>2015-09-27T17:46:35Z</time></trkpt>
<trkpt lat="25.124706" lon="104.732969">
<time>2015-09-27T17:46:36Z</time></trkpt>
<trkpt lat="25.124546" lon="104.733058">
<time>2015-09-27T17:46:37Z</time></trkpt>
<trkpt lat="25.124026" lon="104.733448">
<time>2015-09-27T17:46:38Z</time></trkpt>
<trkpt lat="25.123706" lon="104.733717">
<time>2015-09-27T17:46:39Z</time></trkpt>
<trkpt lat="25.123556" lon="104.733877">
<time>2015-09-27T17:46:40Z</time></trkpt>
<trkpt lat="25.123466" lon="104.733967">
<time>2015-09-27T17:46:41Z</time></trkpt>
<trkpt lat="25.123436" lon="104.734007">
<time>2015-09-27T17:46:42Z</time></trkpt>
<trkpt lat="25.123376" lon="104.734087">
<time>2015-09-27T17:46:43Z</time></trkpt>
<trkpt lat="25.123266" lon="104.734257">
<time>2015-09-27T17:46:44Z</time></trkpt>
<trkpt lat="25.122956" lon="104.734656">
<time>2015-09-27T17:46:45Z</time></trkpt>
<trkpt lat="25.122886" lon="104.734736">
<time>2015-09-27T17:46:46Z</time></trkpt>
<trkpt lat="25.122846" lon="104.734766">
<time>2015-09-27T17:46:47Z</time></trkpt>
<trkpt lat="25.122816" lon="104.734786">
<time>2015-09-27T17:46:48Z</time></trkpt>
<trkpt lat="25.122785" lon="104.734806">
<time>2015-09-27T17:46:49Z</time></trkpt>
<trkpt lat="25.122755" lon="104.734816">
<time>2015-09-27T17:46:50Z</time></trkpt>
<trkpt lat="25.122725" lon="104.734826">
<time>2015-09-27T17:46:51Z</time></trkpt>
<trkpt lat="25.122675" lon="104.734846">
<time>2015-09-27T17:46:52Z</time></trkpt>
<trkpt lat="25.122645" lon="104.734846">
<time>2015-09-27T17:46:53Z</time></trkpt>
<trkpt lat="25.122605" lon="104.734846">
<time>2015-09-27T17:46:54Z</time></trkpt>
<trkpt lat="25.122565" lon="104.734856">
<time>2015-09-27T17:46:55Z</time></trkpt>
<trkpt lat="25.122505" lon="104.734846">
<time>2015-09-27T17:46:56Z</time></trkpt>
<trkpt lat="25.122186" lon="104.734806">
<time>2015-09-27T17:46:57Z</time></trkpt>
<trkpt lat="25.121686" lon="104.734736">
<time>2015-09-27T17:46:58Z</time></trkpt>
<trkpt lat="25.121496" lon="104.734686">
<time>2015-09-27T17:46:59Z</time></trkpt>
<trkpt lat="25.121356" lon="104.734636">
<time>2015-09-27T17:47:00Z</time></trkpt>
<trkpt lat="25.121196" lon="104.734566">
<time>2015-09-27T17:47:01Z</time></trkpt>
<trkpt lat="25.120876" lon="104.734387">
<time>2015-09-27T17:47:02Z</time></trkpt>
<trkpt lat="25.120516" lon="104.734167">
<time>2015-09-27T17:47:03Z</time></trkpt>
<trkpt lat="25.120426" lon="104.734107">
<time>2015-09-27T17:47:04Z</time></trkpt>
<trkpt lat="25.120356" lon="104.734057">
<time>2015-09-27T17:47:05Z</time></trkpt>
<trkpt lat="25.120296" lon="104.734007">
<time>2015-09-27T17:47:06Z</time></trkpt>
<trkpt lat="25.120236" lon="104.733947">
<time>2015-09-27T17:47:07Z</time></trkpt>
<trkpt lat="25.120186" lon="104.733897">
<time>2015-09-27T17:47:08Z</time></trkpt>
<trkpt lat="25.120146" lon="104.733827">
<time>2015-09-27T17:47:09Z</time></trkpt>
<trkpt lat="25.120056" lon="104.733698">
<time>2015-09-27T17:47:10Z</time></trkpt>
<trkpt lat="25.119966" lon="104.733538">
<time>2015-09-27T17:47:11Z</time></trkpt>
<trkpt lat="25.119886" lon="104.733418">
<time>2015-09-27T17:47:12Z</time></trkpt>
<trkpt lat="25.119757" lon="104.733258">
<time>2015-09-27T17:47:13Z</time></trkpt>
<trkpt lat="25.119347" lon="104.732869">
<time>2015-09-27T17:47:14Z</time></trkpt>
<trkpt lat="25.119307" lon="104.732829">
<time>2015-09-27T17:47:15Z</time></trkpt>
<trkpt lat="25.119257" lon="104.732779">
<time>2015-09-27T17:47:16Z</time></trkpt>
<trkpt lat="25.119207" lon="104.732749">
<time>2015-09-27T17:47:17Z</time></trkpt>
<trkpt lat="25.119167" lon="104.732729">
<time>2015-09-27T17:47:18Z</time></trkpt>
<trkpt lat="25.119117" lon="104.732709">
<time>2015-09-27T17:47:19Z</time></trkpt>
<trkpt lat="25.119087" lon="104.732699">
<time>2015-09-27T17:47:20Z</time></trkpt>
<trkpt lat="25.119047" lon="104.732689">
<time>2015-09-27T17:47:21Z</time></trkpt>
<trkpt lat="25.119017" lon="104.732689">
<time>2015-09-27T17:47:22Z</time></trkpt>
<trkpt lat="25.118977" lon="104.732689">
<time>2015-09-27T17:47:23Z</time></trkpt>
<trkpt lat="25.118947" lon="104.732699">
<time>2015-09-27T17:47:24Z</time></trkpt>
<trkpt lat="25.118897" lon="104.732709">
<time>2015-09-27T17:47:25Z</time></trkpt>
<trkpt lat="25.118857" lon="104.732729">
<time>2015-09-27T17:47:26Z</time></trkpt>
<trkpt lat="25.118807" lon="104.732759">
<time>2015-09-27T17:47:27Z</time></trkpt>
<trkpt lat="25.118767" lon="104.732789">
<time>2015-09-27T17:47:28Z</time></trkpt>
<trkpt lat="25.118717" lon="104.732839">
<time>2015-09-27T17:47:29Z</time></trkpt>
<trkpt lat="25.118617" lon="104.732959">
<time>2015-09-27T17:47:30Z</time></trkpt>
<trkpt lat="25.118507" lon="104.733099">
<time>2015-09-27T17:47:31Z</time></trkpt>
<trkpt lat="25.118417" lon="104.733179">
<time>2015-09-27T17:47:32Z</time></trkpt>
<trkpt lat="25.118367" lon="104.733218">
<time>2015-09-27T17:47:33Z</time></trkpt>
<trkpt lat="25.118337" lon="104.733238">
<time>2015-09-27T17:47:34Z</time></trkpt>
<trkpt lat="25.118297" lon="104.733258">
<time>2015-09-27T17:47:35Z</time></trkpt>
<trkpt lat="25.118277" lon="104.733268">
<time>2015-09-27T17:47:36Z</time></trkpt>
<trkpt lat="25.118237" lon="104.733278">
<time>2015-09-27T17:47:37Z</time></trkpt>
<trkpt lat="25.118207" lon="104.733278">
<time>2015-09-27T17:47:38Z</time></trkpt>
<trkpt lat="25.118177" lon="104.733288">
<time>2015-09-27T17:47:39Z</time></trkpt>
<trkpt lat="25.118127" lon="104.733288">
<time>2015-09-27T17:47:40Z</time></trkpt>
<trkpt lat="25.118077" lon="104.733288">
<time>2015-09-27T17:47:41Z</time></trkpt>
<trkpt lat="25.117917" lon="104.733278">
<time>2015-09-27T17:47:42Z</time></trkpt>
<trkpt lat="25.117887" lon="104.733278">
<time>2015-09-27T17:47:43Z</time></trkpt>
<trkpt lat="25.117737" lon="104.733258">
<time>2015-09-27T17:47:44Z</time></trkpt>
<trkpt lat="25.117657" lon="104.733248">
<time>2015-09-27T17:47:45Z</time></trkpt>
<trkpt lat="25.117597" lon="104.733248">
<time>2015-09-27T17:47:46Z</time></trkpt>
<trkpt lat="25.117537" lon="104.733248">
<time>2015-09-27T17:47:47Z</time></trkpt>
<trkpt lat="25.117507" lon="104.733258">
<time>2015-09-27T17:47:48Z</time></trkpt>
<trkpt lat="25.117467" lon="104.733268">
<time>2015-09-27T17:47:49Z</time></trkpt>
<trkpt lat="25.117437" lon="104.733278">
<time>2015-09-27T17:47:50Z</time></trkpt>
<trkpt lat="25.117417" lon="104.733288">
<time>2015-09-27T17:47:51Z</time></trkpt>
<trkpt lat="25.117387" lon="104.733308">
<time>2015-09-27T17:47:52Z</time></trkpt>
<trkpt lat="25.117367" lon="104.733338">
<time>2015-09-27T17:47:53Z</time></trkpt>
<trkpt lat="25.117347" lon="104.733358">
<time>2015-09-27T17:47:54Z</time></trkpt>
<trkpt lat="25.117327" lon="104.733378">
<time>2015-09-27T17:47:55Z</time></trkpt>
<trkpt lat="25.117307" lon="104.733408">
<time>2015-09-27T17:47:56Z</time></trkpt>
<trkpt lat="25.117297" lon="104.733428">
<time>2015-09-27T17:47:57Z</time></trkpt>
<trkpt lat="25.117287" lon="104.733458">
<time>2015-09-27T17:47:58Z</time></trkpt>
<trkpt lat="25.117267" lon="104.733508">
<time>2015-09-27T17:47:59Z</time></trkpt>
<trkpt lat="25.117227" lon="104.733618">
<time>2015-09-27T17:48:00Z</time></trkpt>
<trkpt lat="25.117186" lon="104.733758">
<time>2015-09-27T17:48:01Z</time></trkpt>
<trkpt lat="25.117156" lon="104.733828">
<time>2015-09-27T17:48:02Z</time></trkpt>
<trkpt lat="25.117136" lon="104.733867">
<time>2015-09-27T17:48:03Z</time></trkpt>
<trkpt lat="25.117106" lon="104.733907">
<time>2015-09-27T17:48:04Z</time></trkpt>
<trkpt lat="25.117086" lon="104.733947">
<time>2015-09-27T17:48:05Z</time></trkpt>
<trkpt lat="25.117066" lon="104.733977">
<time>2015-09-27T17:48:06Z</time></trkpt>
<trkpt lat="25.117046" lon="104.734007">
<time>2015-09-27T17:48:07Z</time></trkpt>
<trkpt lat="25.117016" lon="104.734027">
<time>2015-09-27T17:48:08Z</time></trkpt>
<trkpt lat="25.116986" lon="104.734057">
<time>2015-09-27T17:48:09Z</time></trkpt>
<trkpt lat="25.116936" lon="104.734077">
<time>2015-09-27T17:48:10Z</time></trkpt>
<trkpt lat="25.116896" lon="104.734107">
<time>2015-09-27T17:48:11Z</time></trkpt>
<trkpt lat="25.116806" lon="104.734137">
<time>2015-09-27T17:48:12Z</time></trkpt>
<trkpt lat="25.116756" lon="104.734157">
<time>2015-09-27T17:48:13Z</time></trkpt>
<trkpt lat="25.116636" lon="104.734197">
<time>2015-09-27T17:48:14Z</time></trkpt>
<trkpt lat="25.116446" lon="104.734267">
<time>2015-09-27T17:48:15Z</time></trkpt>
<trkpt lat="25.116386" lon="104.734297">
<time>2015-09-27T17:48:16Z</time></trkpt>
<trkpt lat="25.116316" lon="104.734327">
<time>2015-09-27T17:48:17Z</time></trkpt>
<trkpt lat="25.116226" lon="104.734387">
<time>2015-09-27T17:48:18Z</time></trkpt>
<trkpt lat="25.116176" lon="104.734437">
<time>2015-09-27T17:48:19Z</time></trkpt>
<trkpt lat="25.116106" lon="104.734497">
<time>2015-09-27T17:48:20Z</time></trkpt>
<trkpt lat="25.115826" lon="104.734776">
<time>2015-09-27T17:48:21Z</time></trkpt>
<trkpt lat="25.115636" lon="104.734946">
<time>2015-09-27T17:48:22Z</time></trkpt>
<trkpt lat="25.115146" lon="104.735325">
<time>2015-09-27T17:48:23Z</time></trkpt>
<trkpt lat="25.114576" lon="104.735775">
<time>2015-09-27T17:48:24Z</time></trkpt>
<trkpt lat="25.114546" lon="104.735795">
<time>2015-09-27T17:48:25Z</time></trkpt>
<trkpt lat="25.114506" lon="104.735825">
<time>2015-09-27T17:48:26Z</time></trkpt>
<trkpt lat="25.114446" lon="104.735855">
<time>2015-09-27T17:48:27Z</time></trkpt>
<trkpt lat="25.114386" lon="104.735884">
<time>2015-09-27T17:48:28Z</time></trkpt>
<trkpt lat="25.114346" lon="104.735894">
<time>2015-09-27T17:48:29Z</time></trkpt>
<trkpt lat="25.114296" lon="104.735904">
<time>2015-09-27T17:48:30Z</time></trkpt>
<trkpt lat="25.114236" lon="104.735914">
<time>2015-09-27T17:48:31Z</time></trkpt>
<trkpt lat="25.114146" lon="104.735904">
<time>2015-09-27T17:48:32Z</time></trkpt>
<trkpt lat="25.113916" lon="104.735914">
<time>2015-09-27T17:48:33Z</time></trkpt>
<trkpt lat="25.113876" lon="104.735914">
<time>2015-09-27T17:48:34Z</time></trkpt>
<trkpt lat="25.113836" lon="104.735924">
<time>2015-09-27T17:48:35Z</time></trkpt>
<trkpt lat="25.113776" lon="104.735934">
<time>2015-09-27T17:48:36Z</time></trkpt>
<trkpt lat="25.113726" lon="104.735954">
<time>2015-09-27T17:48:37Z</time></trkpt>
<trkpt lat="25.113696" lon="104.735964">
<time>2015-09-27T17:48:38Z</time></trkpt>
<trkpt lat="25.113646" lon="104.735994">
<time>2015-09-27T17:48:39Z</time></trkpt>
<trkpt lat="25.113616" lon="104.736014">
<time>2015-09-27T17:48:40Z</time></trkpt>
<trkpt lat="25.113586" lon="104.736044">
<time>2015-09-27T17:48:41Z</time></trkpt>
<trkpt lat="25.113556" lon="104.736074">
<time>2015-09-27T17:48:42Z</time></trkpt>
<trkpt lat="25.113486" lon="104.736154">
<time>2015-09-27T17:48:43Z</time></trkpt>
<trkpt lat="25.113266" lon="104.736484">
<time>2015-09-27T17:48:44Z</time></trkpt>
<trkpt lat="25.112995" lon="104.736913">
<time>2015-09-27T17:48:45Z</time></trkpt>
<trkpt lat="25.112935" lon="104.737003">
<time>2015-09-27T17:48:46Z</time></trkpt>
<trkpt lat="25.112855" lon="104.737113">
<time>2015-09-27T17:48:47Z</time></trkpt>
<trkpt lat="25.112825" lon="104.737153">
<time>2015-09-27T17:48:48Z</time></trkpt>
<trkpt lat="25.112775" lon="104.737193">
<time>2015-09-27T17:48:49Z</time></trkpt>
<trkpt lat="25.112745" lon="104.737213">
<time>2015-09-27T17:48:50Z</time></trkpt>
<trkpt lat="25.112725" lon="104.737233">
<time>2015-09-27T17:48:51Z</time></trkpt>
<trkpt lat="25.112695" lon="104.737243">
<time>2015-09-27T17:48:52Z</time></trkpt>
<trkpt lat="25.112665" lon="104.737253">
<time>2015-09-27T17:48:53Z</time></trkpt>
<trkpt lat="25.112635" lon="104.737253">
<time>2015-09-27T17:48:54Z</time></trkpt>
<trkpt lat="25.112585" lon="104.737253">
<time>2015-09-27T17:48:55Z</time></trkpt>
<trkpt lat="25.112555" lon="104.737253">
<time>2015-09-27T17:48:56Z</time></trkpt>
<trkpt lat="25.112515" lon="104.737243">
<time>2015-09-27T17:48:57Z</time></trkpt>
<trkpt lat="25.112485" lon="104.737233">
<time>2015-09-27T17:48:58Z</time></trkpt>
<trkpt lat="25.112455" lon="104.737213">
<time>2015-09-27T17:48:59Z</time></trkpt>
<trkpt lat="25.112415" lon="104.737193">
<time>2015-09-27T17:49:00Z</time></trkpt>
<trkpt lat="25.112385" lon="104.737173">
<time>2015-09-27T17:49:01Z</time></trkpt>
<trkpt lat="25.112365" lon="104.737143">
<time>2015-09-27T17:49:02Z</time></trkpt>
<trkpt lat="25.112325" lon="104.737113">
<time>2015-09-27T17:49:03Z</time></trkpt>
<trkpt lat="25.112255" lon="104.737003">
<time>2015-09-27T17:49:04Z</time></trkpt>
<trkpt lat="25.112225" lon="104.736973">
<time>2015-09-27T17:49:05Z</time></trkpt>
<trkpt lat="25.112195" lon="104.736923">
<time>2015-09-27T17:49:06Z</time></trkpt>
<trkpt lat="25.112155" lon="104.736893">
<time>2015-09-27T17:49:07Z</time></trkpt>
<trkpt lat="25.112135" lon="104.736853">
<time>2015-09-27T17:49:08Z</time></trkpt>
<trkpt lat="25.112095" lon="104.736823">
<time>2015-09-27T17:49:09Z</time></trkpt>
<trkpt lat="25.112065" lon="104.736803">
<time>2015-09-27T17:49:10Z</time></trkpt>
<trkpt lat="25.112025" lon="104.736783">
<time>2015-09-27T17:49:11Z</time></trkpt>
<trkpt lat="25.111986" lon="104.736763">
<time>2015-09-27T17:49:12Z</time></trkpt>
<trkpt lat="25.111936" lon="104.736743">
<time>2015-09-27T17:49:13Z</time></trkpt>
<trkpt lat="25.111886" lon="104.736733">
<time>2015-09-27T17:49:14Z</time></trkpt>
<trkpt lat="25.111796" lon="104.736713">
<time>2015-09-27T17:49:15Z</time></trkpt>
<trkpt lat="25.111656" lon="104.736713">
<time>2015-09-27T17:49:16Z</time></trkpt>
<trkpt lat="25.111526" lon="104.736703">
<time>2015-09-27T17:49:17Z</time></trkpt>
<trkpt lat="25.111486" lon="104.736693">
<time>2015-09-27T17:49:18Z</time></trkpt>
<trkpt lat="25.111456" lon="104.736683">
<time>2015-09-27T17:49:19Z</time></trkpt>
<trkpt lat="25.111396" lon="104.736663">
<time>2015-09-27T17:49:20Z</time></trkpt>
<trkpt lat="25.111356" lon="104.736643">
<time>2015-09-27T17:49:21Z</time></trkpt>
<trkpt lat="25.111326" lon="104.736624">
<time>2015-09-27T17:49:22Z</time></trkpt>
<trkpt lat="25.111286" lon="104.736604">
<time>2015-09-27T17:49:23Z</time></trkpt>
<trkpt lat="25.111236" lon="104.736574">
<time>2015-09-27T17:49:24Z</time></trkpt>
<trkpt lat="25.111136" lon="104.736454">
<time>2015-09-27T17:49:25Z</time></trkpt>
<trkpt lat="25.111016" lon="104.736314">
<time>2015-09-27T17:49:26Z</time></trkpt>
<trkpt lat="25.110886" lon="104.736184">
<time>2015-09-27T17:49:27Z</time></trkpt>
<trkpt lat="25.110846" lon="104.736134">
<time>2015-09-27T17:49:28Z</time></trkpt>
<trkpt lat="25.110806" lon="104.736094">
<time>2015-09-27T17:49:29Z</time></trkpt>
<trkpt lat="25.110746" lon="104.736044">
<time>2015-09-27T17:49:30Z</time></trkpt>
<trkpt lat="25.110676" lon="104.735994">
<time>2015-09-27T17:49:31Z</time></trkpt>
<trkpt lat="25.110566" lon="104.735925">
<time>2015-09-27T17:49:32Z</time></trkpt>
<trkpt lat="25.110346" lon="104.735805">
<time>2015-09-27T17:49:33Z</time></trkpt>
<trkpt lat="25.109586" lon="104.735435">
<time>2015-09-27T17:49:34Z</time></trkpt>
<trkpt lat="25.109406" lon="104.735326">
<time>2015-09-27T17:49:35Z</time></trkpt>
<trkpt lat="25.109306" lon="104.735256">
<time>2015-09-27T17:49:36Z</time></trkpt>
<trkpt lat="25.109256" lon="104.735206">
<time>2015-09-27T17:49:37Z</time></trkpt>
<trkpt lat="25.109206" lon="104.735136">
<time>2015-09-27T17:49:38Z</time></trkpt>
<trkpt lat="25.109107" lon="104.735026">
<time>2015-09-27T17:49:39Z</time></trkpt>
<trkpt lat="25.108887" lon="104.734736">
<time>2015-09-27T17:49:40Z</time></trkpt>
<trkpt lat="25.108827" lon="104.734677">
<time>2015-09-27T17:49:41Z</time></trkpt>
<trkpt lat="25.108787" lon="104.734637">
<time>2015-09-27T17:49:42Z</time></trkpt>
<trkpt lat="25.108747" lon="104.734607">
<time>2015-09-27T17:49:43Z</time></trkpt>
<trkpt lat="25.108717" lon="104.734587">
<time>2015-09-27T17:49:44Z</time></trkpt>
<trkpt lat="25.108697" lon="104.734567">
<time>2015-09-27T17:49:45Z</time></trkpt>
<trkpt lat="25.108657" lon="104.734547">
<time>2015-09-27T17:49:46Z</time></trkpt>
<trkpt lat="25.108617" lon="104.734527">
<time>2015-09-27T17:49:47Z</time></trkpt>
<trkpt lat="25.108587" lon="104.734517">
<time>2015-09-27T17:49:48Z</time></trkpt>
<trkpt lat="25.108537" lon="104.734507">
<time>2015-09-27T17:49:49Z</time></trkpt>
<trkpt lat="25.108507" lon="104.734507">
<time>2015-09-27T17:49:50Z</time></trkpt>
<trkpt lat="25.108467" lon="104.734507">
<time>2015-09-27T17:49:51Z</time></trkpt>
<trkpt lat="25.108427" lon="104.734507">
<time>2015-09-27T17:49:52Z</time></trkpt>
<trkpt lat="25.108377" lon="104.734517">
<time>2015-09-27T17:49:53Z</time></trkpt>
<trkpt lat="25.108327" lon="104.734527">
<time>2015-09-27T17:49:54Z</time></trkpt>
<trkpt lat="25.108287" lon="104.734547">
<time>2015-09-27T17:49:55Z</time></trkpt>
<trkpt lat="25.108247" lon="104.734557">
<time>2015-09-27T17:49:56Z</time></trkpt>
<trkpt lat="25.108217" lon="104.734577">
<time>2015-09-27T17:49:57Z</time></trkpt>
<trkpt lat="25.108167" lon="104.734617">
<time>2015-09-27T17:49:58Z</time></trkpt>
<trkpt lat="25.108057" lon="104.734707">
<time>2015-09-27T17:49:59Z</time></trkpt>
<trkpt lat="25.107967" lon="104.734796">
<time>2015-09-27T17:50:00Z</time></trkpt>
<trkpt lat="25.107757" lon="104.735016">
<time>2015-09-27T17:50:01Z</time></trkpt>
<trkpt lat="25.107697" lon="104.735076">
<time>2015-09-27T17:50:02Z</time></trkpt>
<trkpt lat="25.107667" lon="104.735096">
<time>2015-09-27T17:50:03Z</time></trkpt>
<trkpt lat="25.107637" lon="104.735116">
<time>2015-09-27T17:50:04Z</time></trkpt>
<trkpt lat="25.107597" lon="104.735126">
<time>2015-09-27T17:50:05Z</time></trkpt>
<trkpt lat="25.107567" lon="104.735136">
<time>2015-09-27T17:50:06Z</time></trkpt>
<trkpt lat="25.107527" lon="104.735136">
<time>2015-09-27T17:50:07Z</time></trkpt>
<trkpt lat="25.107477" lon="104.735136">
<time>2015-09-27T17:50:08Z</time></trkpt>
<trkpt lat="25.107447" lon="104.735136">
<time>2015-09-27T17:50:09Z</time></trkpt>
<trkpt lat="25.107407" lon="104.735126">
<time>2015-09-27T17:50:10Z</time></trkpt>
<trkpt lat="25.107387" lon="104.735116">
<time>2015-09-27T17:50:11Z</time></trkpt>
<trkpt lat="25.107357" lon="104.735106">
<time>2015-09-27T17:50:12Z</time></trkpt>
<trkpt lat="25.107327" lon="104.735086">
<time>2015-09-27T17:50:13Z</time></trkpt>
<trkpt lat="25.107297" lon="104.735056">
<time>2015-09-27T17:50:14Z</time></trkpt>
<trkpt lat="25.107267" lon="104.735036">
<time>2015-09-27T17:50:15Z</time></trkpt>
<trkpt lat="25.107187" lon="104.734936">
<time>2015-09-27T17:50:16Z</time></trkpt>
<trkpt lat="25.107127" lon="104.734876">
<time>2015-09-27T17:50:17Z</time></trkpt>
<trkpt lat="25.107097" lon="104.734846">
<time>2015-09-27T17:50:18Z</time></trkpt>
<trkpt lat="25.107067" lon="104.734816">
<time>2015-09-27T17:50:19Z</time></trkpt>
<trkpt lat="25.107027" lon="104.734806">
<time>2015-09-27T17:50:20Z</time></trkpt>
<trkpt lat="25.107007" lon="104.734796">
<time>2015-09-27T17:50:21Z</time></trkpt>
<trkpt lat="25.106977" lon="104.734786">
<time>2015-09-27T17:50:22Z</time></trkpt>
<trkpt lat="25.106947" lon="104.734786">
<time>2015-09-27T17:50:23Z</time></trkpt>
<trkpt lat="25.106907" lon="104.734786">
<time>2015-09-27T17:50:24Z</time></trkpt>
<trkpt lat="25.106877" lon="104.734796">
<time>2015-09-27T17:50:25Z</time></trkpt>
<trkpt lat="25.106857" lon="104.734806">
<time>2015-09-27T17:50:26Z</time></trkpt>
<trkpt lat="25.106837" lon="104.734816">
<time>2015-09-27T17:50:27Z</time></trkpt>
<trkpt lat="25.106787" lon="104.734846">
<time>2015-09-27T17:50:28Z</time></trkpt>
<trkpt lat="25.106747" lon="104.734866">
<time>2015-09-27T17:50:29Z</time></trkpt>
<trkpt lat="25.106677" lon="104.734926">
<time>2015-09-27T17:50:30Z</time></trkpt>
<trkpt lat="25.106567" lon="104.735026">
<time>2015-09-27T17:50:31Z</time></trkpt>
<trkpt lat="25.106437" lon="104.735136">
<time>2015-09-27T17:50:32Z</time></trkpt>
<trkpt lat="25.106367" lon="104.735186">
<time>2015-09-27T17:50:33Z</time></trkpt>
<trkpt lat="25.106317" lon="104.735226">
<time>2015-09-27T17:50:34Z</time></trkpt>
<trkpt lat="25.106267" lon="104.735246">
<time>2015-09-27T17:50:35Z</time></trkpt>
<trkpt lat="25.106217" lon="104.735276">
<time>2015-09-27T17:50:36Z</time></trkpt>
<trkpt lat="25.106167" lon="104.735286">
<time>2015-09-27T17:50:37Z</time></trkpt>
<trkpt lat="25.106107" lon="104.735296">
<time>2015-09-27T17:50:38Z</time></trkpt>
<trkpt lat="25.106067" lon="104.735306">
<time>2015-09-27T17:50:39Z</time></trkpt>
<trkpt lat="25.106007" lon="104.735316">
<time>2015-09-27T17:50:40Z</time></trkpt>
<trkpt lat="25.105867" lon="104.735306">
<time>2015-09-27T17:50:41Z</time></trkpt>
<trkpt lat="25.105727" lon="104.735296">
<time>2015-09-27T17:50:42Z</time></trkpt>
<trkpt lat="25.105667" lon="104.735296">
<time>2015-09-27T17:50:43Z</time></trkpt>
<trkpt lat="25.105607" lon="104.735306">
<time>2015-09-27T17:50:44Z</time></trkpt>
<trkpt lat="25.105567" lon="104.735306">
<time>2015-09-27T17:50:45Z</time></trkpt>
<trkpt lat="25.105517" lon="104.735326">
<time>2015-09-27T17:50:46Z</time></trkpt>
<trkpt lat="25.105417" lon="104.735366">
<time>2015-09-27T17:50:47Z</time></trkpt>
<trkpt lat="25.105227" lon="104.735446">
<time>2015-09-27T17:50:48Z</time></trkpt>
<trkpt lat="25.104677" lon="104.735735">
<time>2015-09-27T17:50:49Z</time></trkpt>
<trkpt lat="25.104487" lon="104.735815">
<time>2015-09-27T17:50:50Z</time></trkpt>
<trkpt lat="25.104347" lon="104.735855">
<time>2015-09-27T17:50:51Z</time></trkpt>
<trkpt lat="25.104167" lon="104.735895">
<time>2015-09-27T17:50:52Z</time></trkpt>
<trkpt lat="25.103777" lon="104.735935">
<time>2015-09-27T17:50:53Z</time></trkpt>
<trkpt lat="25.103657" lon="104.735955">
<time>2015-09-27T17:50:54Z</time></trkpt>
<trkpt lat="25.103587" lon="104.735965">
<time>2015-09-27T17:50:55Z</time></trkpt>
<trkpt lat="25.103477" lon="104.736005">
<time>2015-09-27T17:50:56Z</time></trkpt>
<trkpt lat="25.103347" lon="104.736055">
<time>2015-09-27T17:50:57Z</time></trkpt>
<trkpt lat="25.103087" lon="104.736194">
<time>2015-09-27T17:50:58Z</time></trkpt>
<trkpt lat="25.102987" lon="104.736234">
<time>2015-09-27T17:50:59Z</time></trkpt>
<trkpt lat="25.102927" lon="104.736254">
<time>2015-09-27T17:51:00Z</time></trkpt>
<trkpt lat="25.102847" lon="104.736274">
<time>2015-09-27T17:51:01Z</time></trkpt>
<trkpt lat="25.102787" lon="104.736284">
<time>2015-09-27T17:51:02Z</time></trkpt>
<trkpt lat="25.102697" lon="104.736294">
<time>2015-09-27T17:51:03Z</time></trkpt>
<trkpt lat="25.102117" lon="104.736314">
<time>2015-09-27T17:51:04Z</time></trkpt>
<trkpt lat="25.101967" lon="104.736314">
<time>2015-09-27T17:51:05Z</time></trkpt>
<trkpt lat="25.101907" lon="104.736304">
<time>2015-09-27T17:51:06Z</time></trkpt>
<trkpt lat="25.101837" lon="104.736294">
<time>2015-09-27T17:51:07Z</time></trkpt>
<trkpt lat="25.101787" lon="104.736284">
<time>2015-09-27T17:51:08Z</time></trkpt>
<trkpt lat="25.101727" lon="104.736264">
<time>2015-09-27T17:51:09Z</time></trkpt>
<trkpt lat="25.101647" lon="104.736224">
<time>2015-09-27T17:51:10Z</time></trkpt>
<trkpt lat="25.101577" lon="104.736175">
<time>2015-09-27T17:51:11Z</time></trkpt>
<trkpt lat="25.101537" lon="104.736135">
<time>2015-09-27T17:51:12Z</time></trkpt>
<trkpt lat="25.101487" lon="104.736095">
<time>2015-09-27T17:51:13Z</time></trkpt>
<trkpt lat="25.101407" lon="104.735995">
<time>2015-09-27T17:51:14Z</time></trkpt>
<trkpt lat="25.101317" lon="104.735855">
<time>2015-09-27T17:51:15Z</time></trkpt>
<trkpt lat="25.101127" lon="104.735506">
<time>2015-09-27T17:51:16Z</time></trkpt>
<trkpt lat="25.100957" lon="104.735196">
<time>2015-09-27T17:51:17Z</time></trkpt>
<trkpt lat="25.100857" lon="104.735056">
<time>2015-09-27T17:51:18Z</time></trkpt>
<trkpt lat="25.100767" lon="104.734936">
<time>2015-09-27T17:51:19Z</time></trkpt>
<trkpt lat="25.100647" lon="104.734787">
<time>2015-09-27T17:51:20Z</time></trkpt>
<trkpt lat="25.100507" lon="104.734637">
<time>2015-09-27T17:51:21Z</time></trkpt>
<trkpt lat="25.100358" lon="104.734507">
<time>2015-09-27T17:51:22Z</time></trkpt>
<trkpt lat="25.100198" lon="104.734367">
<time>2015-09-27T17:51:23Z</time></trkpt>
<trkpt lat="25.100018" lon="104.734238">
<time>2015-09-27T17:51:24Z</time></trkpt>
<trkpt lat="25.099918" lon="104.734148">
<time>2015-09-27T17:51:25Z</time></trkpt>
<trkpt lat="25.099778" lon="104.733998">
<time>2015-09-27T17:51:26Z</time></trkpt>
<trkpt lat="25.099658" lon="104.733868">
<time>2015-09-27T17:51:27Z</time></trkpt>
<trkpt lat="25.099548" lon="104.733688">
<time>2015-09-27T17:51:28Z</time></trkpt>
<trkpt lat="25.099458" lon="104.733519">
<time>2015-09-27T17:51:29Z</time></trkpt>
<trkpt lat="25.099398" lon="104.733379">
<time>2015-09-27T17:51:30Z</time></trkpt>
<trkpt lat="25.099298" lon="104.733109">
<time>2015-09-27T17:51:31Z</time></trkpt>
<trkpt lat="25.099089" lon="104.73261">
<time>2015-09-27T17:51:32Z</time></trkpt>
<trkpt lat="25.099009" lon="104.73247">
<time>2015-09-27T17:51:33Z</time></trkpt>
<trkpt lat="25.098929" lon="104.732351">
<time>2015-09-27T17:51:34Z</time></trkpt>
<trkpt lat="25.098799" lon="104.732201">
<time>2015-09-27T17:51:35Z</time></trkpt>
<trkpt lat="25.09795" lon="104.731402">
<time>2015-09-27T17:51:36Z</time></trkpt>
<trkpt lat="25.09686" lon="104.730394">
<time>2015-09-27T17:51:37Z</time></trkpt>
<trkpt lat="25.096211" lon="104.729795">
<time>2015-09-27T17:51:38Z</time></trkpt>
<trkpt lat="25.096031" lon="104.729625">
<time>2015-09-27T17:51:39Z</time></trkpt>
<trkpt lat="25.095951" lon="104.729546">
<time>2015-09-27T17:51:40Z</time></trkpt>
<trkpt lat="25.095901" lon="104.729516">
<time>2015-09-27T17:51:41Z</time></trkpt>
<trkpt lat="25.095841" lon="104.729476">
<time>2015-09-27T17:51:42Z</time></trkpt>
<trkpt lat="25.095811" lon="104.729456">
<time>2015-09-27T17:51:43Z</time></trkpt>
<trkpt lat="25.095781" lon="104.729436">
<time>2015-09-27T17:51:44Z</time></trkpt>
<trkpt lat="25.095741" lon="104.729426">
<time>2015-09-27T17:51:45Z</time></trkpt>
<trkpt lat="25.095701" lon="104.729416">
<time>2015-09-27T17:51:46Z</time></trkpt>
<trkpt lat="25.095661" lon="104.729406">
<time>2015-09-27T17:51:47Z</time></trkpt>
<trkpt lat="25.095621" lon="104.729406">
<time>2015-09-27T17:51:48Z</time></trkpt>
<trkpt lat="25.095581" lon="104.729406">
<time>2015-09-27T17:51:49Z</time></trkpt>
<trkpt lat="25.095541" lon="104.729406">
<time>2015-09-27T17:51:50Z</time></trkpt>
<trkpt lat="25.095481" lon="104.729416">
<time>2015-09-27T17:51:51Z</time></trkpt>
<trkpt lat="25.095351" lon="104.729446">
<time>2015-09-27T17:51:52Z</time></trkpt>
<trkpt lat="25.095211" lon="104.729486">
<time>2015-09-27T17:51:53Z</time></trkpt>
<trkpt lat="25.095061" lon="104.729516">
<time>2015-09-27T17:51:54Z</time></trkpt>
<trkpt lat="25.094981" lon="104.729526">
<time>2015-09-27T17:51:55Z</time></trkpt>
<trkpt lat="25.094901" lon="104.729536">
<time>2015-09-27T17:51:56Z</time></trkpt>
<trkpt lat="25.094851" lon="104.729536">
<time>2015-09-27T17:51:57Z</time></trkpt>
<trkpt lat="25.094771" lon="104.729526">
<time>2015-09-27T17:51:58Z</time></trkpt>
<trkpt lat="25.094721" lon="104.729516">
<time>2015-09-27T17:51:59Z</time></trkpt>
<trkpt lat="25.094661" lon="104.729506">
<time>2015-09-27T17:52:00Z</time></trkpt>
<trkpt lat="25.094431" lon="104.729446">
<time>2015-09-27T17:52:01Z</time></trkpt>
<trkpt lat="25.094311" lon="104.729406">
<time>2015-09-27T17:52:02Z</time></trkpt>
<trkpt lat="25.094261" lon="104.729386">
<time>2015-09-27T17:52:03Z</time></trkpt>
<trkpt lat="25.094171" lon="104.729346">
<time>2015-09-27T17:52:04Z</time></trkpt>
<trkpt lat="25.094081" lon="104.729286">
<time>2015-09-27T17:52:05Z</time></trkpt>
<trkpt lat="25.093981" lon="104.729206">
<time>2015-09-27T17:52:06Z</time></trkpt>
<trkpt lat="25.093871" lon="104.729106">
<time>2015-09-27T17:52:07Z</time></trkpt>
<trkpt lat="25.093732" lon="104.728967">
<time>2015-09-27T17:52:08Z</time></trkpt>
<trkpt lat="25.093582" lon="104.728837">
<time>2015-09-27T17:52:09Z</time></trkpt>
<trkpt lat="25.093472" lon="104.728757">
<time>2015-09-27T17:52:10Z</time></trkpt>
<trkpt lat="25.093372" lon="104.728697">
<time>2015-09-27T17:52:11Z</time></trkpt>
<trkpt lat="25.093252" lon="104.728637">
<time>2015-09-27T17:52:12Z</time></trkpt>
<trkpt lat="25.093072" lon="104.728557">
<time>2015-09-27T17:52:13Z</time></trkpt>
<trkpt lat="25.092632" lon="104.728368">
<time>2015-09-27T17:52:14Z</time></trkpt>
<trkpt lat="25.092342" lon="104.728258">
<time>2015-09-27T17:52:15Z</time></trkpt>
<trkpt lat="25.092202" lon="104.728178">
<time>2015-09-27T17:52:16Z</time></trkpt>
<trkpt lat="25.092102" lon="104.728118">
<time>2015-09-27T17:52:17Z</time></trkpt>
<trkpt lat="25.092012" lon="104.728048">
<time>2015-09-27T17:52:18Z</time></trkpt>
<trkpt lat="25.091942" lon="104.727978">
<time>2015-09-27T17:52:19Z</time></trkpt>
<trkpt lat="25.091852" lon="104.727869">
<time>2015-09-27T17:52:20Z</time></trkpt>
<trkpt lat="25.091703" lon="104.727669">
<time>2015-09-27T17:52:21Z</time></trkpt>
<trkpt lat="25.091603" lon="104.727509">
<time>2015-09-27T17:52:22Z</time></trkpt>
<trkpt lat="25.091493" lon="104.72732">
<time>2015-09-27T17:52:23Z</time></trkpt>
<trkpt lat="25.091383" lon="104.72716">
<time>2015-09-27T17:52:24Z</time></trkpt>
<trkpt lat="25.091213" lon="104.72693">
<time>2015-09-27T17:52:25Z</time></trkpt>
<trkpt lat="25.091093" lon="104.726771">
<time>2015-09-27T17:52:26Z</time></trkpt>
<trkpt lat="25.090724" lon="104.726361">
<time>2015-09-27T17:52:27Z</time></trkpt>
<trkpt lat="25.090624" lon="104.726242">
<time>2015-09-27T17:52:28Z</time></trkpt>
<trkpt lat="25.090574" lon="104.726162">
<time>2015-09-27T17:52:29Z</time></trkpt>
<trkpt lat="25.090514" lon="104.726072">
<time>2015-09-27T17:52:30Z</time></trkpt>
<trkpt lat="25.090474" lon="104.725972">
<time>2015-09-27T17:52:31Z</time></trkpt>
<trkpt lat="25.090444" lon="104.725892">
<time>2015-09-27T17:52:32Z</time></trkpt>
<trkpt lat="25.090424" lon="104.725813">
<time>2015-09-27T17:52:33Z</time></trkpt>
<trkpt lat="25.090394" lon="104.725683">
<time>2015-09-27T17:52:34Z</time></trkpt>
<trkpt lat="25.090355" lon="104.725413">
<time>2015-09-27T17:52:35Z</time></trkpt>
<trkpt lat="25.090335" lon="104.725284">
<time>2015-09-27T17:52:36Z</time></trkpt>
<trkpt lat="25.090315" lon="104.725184">
<time>2015-09-27T17:52:37Z</time></trkpt>
<trkpt lat="25.090305" lon="104.725144">
<time>2015-09-27T17:52:38Z</time></trkpt>
<trkpt lat="25.090295" lon="104.725114">
<time>2015-09-27T17:52:39Z</time></trkpt>
<trkpt lat="25.090275" lon="104.725084">
<time>2015-09-27T17:52:40Z</time></trkpt>
<trkpt lat="25.090255" lon="104.725044">
<time>2015-09-27T17:52:41Z</time></trkpt>
<trkpt lat="25.090215" lon="104.725004">
<time>2015-09-27T17:52:42Z</time></trkpt>
<trkpt lat="25.090185" lon="104.724964">
<time>2015-09-27T17:52:43Z</time></trkpt>
<trkpt lat="25.090165" lon="104.724954">
<time>2015-09-27T17:52:44Z</time></trkpt>
<trkpt lat="25.090135" lon="104.724934">
<time>2015-09-27T17:52:45Z</time></trkpt>
<trkpt lat="25.090105" lon="104.724914">
<time>2015-09-27T17:52:46Z</time></trkpt>
<trkpt lat="25.090085" lon="104.724904">
<time>2015-09-27T17:52:47Z</time></trkpt>
<trkpt lat="25.090055" lon="104.724894">
<time>2015-09-27T17:52:48Z</time></trkpt>
<trkpt lat="25.090025" lon="104.724894">
<time>2015-09-27T17:52:49Z</time></trkpt>
<trkpt lat="25.089985" lon="104.724884">
<time>2015-09-27T17:52:50Z</time></trkpt>
<trkpt lat="25.089945" lon="104.724884">
<time>2015-09-27T17:52:51Z</time></trkpt>
<trkpt lat="25.089905" lon="104.724894">
<time>2015-09-27T17:52:52Z</time></trkpt>
<trkpt lat="25.089855" lon="104.724904">
<time>2015-09-27T17:52:53Z</time></trkpt>
<trkpt lat="25.089805" lon="104.724914">
<time>2015-09-27T17:52:54Z</time></trkpt>
<trkpt lat="25.089745" lon="104.724944">
<time>2015-09-27T17:52:55Z</time></trkpt>
<trkpt lat="25.089645" lon="104.724984">
<time>2015-09-27T17:52:56Z</time></trkpt>
<trkpt lat="25.089395" lon="104.725134">
<time>2015-09-27T17:52:57Z</time></trkpt>
<trkpt lat="25.089345" lon="104.725164">
<time>2015-09-27T17:52:58Z</time></trkpt>
<trkpt lat="25.089285" lon="104.725184">
<time>2015-09-27T17:52:59Z</time></trkpt>
<trkpt lat="25.089225" lon="104.725204">
<time>2015-09-27T17:53:00Z</time></trkpt>
<trkpt lat="25.089185" lon="104.725214">
<time>2015-09-27T17:53:01Z</time></trkpt>
<trkpt lat="25.089135" lon="104.725224">
<time>2015-09-27T17:53:02Z</time></trkpt>
<trkpt lat="25.089105" lon="104.725224">
<time>2015-09-27T17:53:03Z</time></trkpt>
<trkpt lat="25.089075" lon="104.725214">
<time>2015-09-27T17:53:04Z</time></trkpt>
<trkpt lat="25.089035" lon="104.725214">
<time>2015-09-27T17:53:05Z</time></trkpt>
<trkpt lat="25.089005" lon="104.725204">
<time>2015-09-27T17:53:06Z</time></trkpt>
<trkpt lat="25.088965" lon="104.725194">
<time>2015-09-27T17:53:07Z</time></trkpt>
<trkpt lat="25.088915" lon="104.725174">
<time>2015-09-27T17:53:08Z</time></trkpt>
<trkpt lat="25.088855" lon="104.725134">
<time>2015-09-27T17:53:09Z</time></trkpt>
<trkpt lat="25.088645" lon="104.724954">
<time>2015-09-27T17:53:10Z</time></trkpt>
<trkpt lat="25.088365" lon="104.724695">
<time>2015-09-27T17:53:11Z</time></trkpt>
<trkpt lat="25.088215" lon="104.724515">
<time>2015-09-27T17:53:12Z</time></trkpt>
<trkpt lat="25.088106" lon="104.724385">
<time>2015-09-27T17:53:13Z</time></trkpt>
<trkpt lat="25.087886" lon="104.724036">
<time>2015-09-27T17:53:14Z</time></trkpt>
<trkpt lat="25.087786" lon="104.723896">
<time>2015-09-27T17:53:15Z</time></trkpt>
<trkpt lat="25.087756" lon="104.723856">
<time>2015-09-27T17:53:16Z</time></trkpt>
<trkpt lat="25.087716" lon="104.723816">
<time>2015-09-27T17:53:17Z</time></trkpt>
<trkpt lat="25.087676" lon="104.723787">
<time>2015-09-27T17:53:18Z</time></trkpt>
<trkpt lat="25.087626" lon="104.723757">
<time>2015-09-27T17:53:19Z</time></trkpt>
<trkpt lat="25.087546" lon="104.723717">
<time>2015-09-27T17:53:20Z</time></trkpt>
<trkpt lat="25.087466" lon="104.723687">
<time>2015-09-27T17:53:21Z</time></trkpt>
<trkpt lat="25.087326" lon="104.723637">
<time>2015-09-27T17:53:22Z</time></trkpt>
<trkpt lat="25.087216" lon="104.723607">
<time>2015-09-27T17:53:23Z</time></trkpt>
<trkpt lat="25.087056" lon="104.723567">
<time>2015-09-27T17:53:24Z</time></trkpt>
<trkpt lat="25.086996" lon="104.723547">
<time>2015-09-27T17:53:25Z</time></trkpt>
<trkpt lat="25.086926" lon="104.723527">
<time>2015-09-27T17:53:26Z</time></trkpt>
<trkpt lat="25.086867" lon="104.723497">
<time>2015-09-27T17:53:27Z</time></trkpt>
<trkpt lat="25.086827" lon="104.723467">
<time>2015-09-27T17:53:28Z</time></trkpt>
<trkpt lat="25.086677" lon="104.723377">
<time>2015-09-27T17:53:29Z</time></trkpt>
<trkpt lat="25.086537" lon="104.723268">
<time>2015-09-27T17:53:30Z</time></trkpt>
<trkpt lat="25.086407" lon="104.723178">
<time>2015-09-27T17:53:31Z</time></trkpt>
<trkpt lat="25.086357" lon="104.723148">
<time>2015-09-27T17:53:32Z</time></trkpt>
<trkpt lat="25.086287" lon="104.723108">
<time>2015-09-27T17:53:33Z</time></trkpt>
<trkpt lat="25.086157" lon="104.723068">
<time>2015-09-27T17:53:34Z</time></trkpt>
<trkpt lat="25.086077" lon="104.723038">
<time>2015-09-27T17:53:35Z</time></trkpt>
<trkpt lat="25.085947" lon="104.723018">
<time>2015-09-27T17:53:36Z</time></trkpt>
<trkpt lat="25.085897" lon="104.723008">
<time>2015-09-27T17:53:37Z</time></trkpt>
<trkpt lat="25.085777" lon="104.722998">
<time>2015-09-27T17:53:38Z</time></trkpt>
<trkpt lat="25.085217" lon="104.722958">
<time>2015-09-27T17:53:39Z</time></trkpt>
<trkpt lat="25.085007" lon="104.722938">
<time>2015-09-27T17:53:40Z</time></trkpt>
<trkpt lat="25.084877" lon="104.722908">
<time>2015-09-27T17:53:41Z</time></trkpt>
<trkpt lat="25.084737" lon="104.722868">
<time>2015-09-27T17:53:42Z</time></trkpt>
<trkpt lat="25.084627" lon="104.722819">
<time>2015-09-27T17:53:43Z</time></trkpt>
<trkpt lat="25.084547" lon="104.722769">
<time>2015-09-27T17:53:44Z</time></trkpt>
<trkpt lat="25.084447" lon="104.722699">
<time>2015-09-27T17:53:45Z</time></trkpt>
<trkpt lat="25.084348" lon="104.722609">
<time>2015-09-27T17:53:46Z</time></trkpt>
<trkpt lat="25.084258" lon="104.722509">
<time>2015-09-27T17:53:47Z</time></trkpt>
<trkpt lat="25.084178" lon="104.722399">
<time>2015-09-27T17:53:48Z</time></trkpt>
<trkpt lat="25.084118" lon="104.72229">
<time>2015-09-27T17:53:49Z</time></trkpt>
<trkpt lat="25.083978" lon="104.72199">
<time>2015-09-27T17:53:50Z</time></trkpt>
<trkpt lat="25.083669" lon="104.721252">
<time>2015-09-27T17:53:51Z</time></trkpt>
<trkpt lat="25.08334" lon="104.720443">
<time>2015-09-27T17:53:52Z</time></trkpt>
<trkpt lat="25.0832" lon="104.720124">
<time>2015-09-27T17:53:53Z</time></trkpt>
<trkpt lat="25.08308" lon="104.719845">
<time>2015-09-27T17:53:54Z</time></trkpt>
<trkpt lat="25.082841" lon="104.719246">
<time>2015-09-27T17:53:55Z</time></trkpt>
<trkpt lat="25.082781" lon="104.719106">
<time>2015-09-27T17:53:56Z</time></trkpt>
<trkpt lat="25.082741" lon="104.719026">
<time>2015-09-27T17:53:57Z</time></trkpt>
<trkpt lat="25.082691" lon="104.718947">
<time>2015-09-27T17:53:58Z</time></trkpt>
<trkpt lat="25.082641" lon="104.718877">
<time>2015-09-27T17:53:59Z</time></trkpt>
<trkpt lat="25.082581" lon="104.718797">
<time>2015-09-27T17:54:00Z</time></trkpt>
<trkpt lat="25.082462" lon="104.718647">
<time>2015-09-27T17:54:01Z</time></trkpt>
<trkpt lat="25.082312" lon="104.718478">
<time>2015-09-27T17:54:02Z</time></trkpt>
<trkpt lat="25.082262" lon="104.718418">
<time>2015-09-27T17:54:03Z</time></trkpt>
<trkpt lat="25.082202" lon="104.718328">
<time>2015-09-27T17:54:04Z</time></trkpt>
<trkpt lat="25.082162" lon="104.718288">
<time>2015-09-27T17:54:05Z</time></trkpt>
<trkpt lat="25.082112" lon="104.718218">
<time>2015-09-27T17:54:06Z</time></trkpt>
<trkpt lat="25.082082" lon="104.718148">
<time>2015-09-27T17:54:07Z</time></trkpt>
<trkpt lat="25.082052" lon="104.718069">
<time>2015-09-27T17:54:08Z</time></trkpt>
<trkpt lat="25.082032" lon="104.717979">
<time>2015-09-27T17:54:09Z</time></trkpt>
<trkpt lat="25.082033" lon="104.717889">
<time>2015-09-27T17:54:10Z</time></trkpt>
<trkpt lat="25.082053" lon="104.717809">
<time>2015-09-27T17:54:11Z</time></trkpt>
<trkpt lat="25.082073" lon="104.717729">
<time>2015-09-27T17:54:12Z</time></trkpt>
<trkpt lat="25.082103" lon="104.717659">
<time>2015-09-27T17:54:13Z</time></trkpt>
<trkpt lat="25.082143" lon="104.71759">
<time>2015-09-27T17:54:14Z</time></trkpt>
<trkpt lat="25.082193" lon="104.71752">
<time>2015-09-27T17:54:15Z</time></trkpt>
<trkpt lat="25.082293" lon="104.71741">
<time>2015-09-27T17:54:16Z</time></trkpt>
<trkpt lat="25.082473" lon="104.7172">
<time>2015-09-27T17:54:17Z</time></trkpt>
<trkpt lat="25.082643" lon="104.716991">
<time>2015-09-27T17:54:18Z</time></trkpt>
<trkpt lat="25.082754" lon="104.716841">
<time>2015-09-27T17:54:19Z</time></trkpt>
<trkpt lat="25.082784" lon="104.716781">
<time>2015-09-27T17:54:20Z</time></trkpt>
<trkpt lat="25.082814" lon="104.716721">
<time>2015-09-27T17:54:21Z</time></trkpt>
<trkpt lat="25.082834" lon="104.716662">
<time>2015-09-27T17:54:22Z</time></trkpt>
<trkpt lat="25.082844" lon="104.716612">
<time>2015-09-27T17:54:23Z</time></trkpt>
<trkpt lat="25.082854" lon="104.716562">
<time>2015-09-27T17:54:24Z</time></trkpt>
<trkpt lat="25.082844" lon="104.716502">
<time>2015-09-27T17:54:25Z</time></trkpt>
<trkpt lat="25.082834" lon="104.716452">
<time>2015-09-27T17:54:26Z</time></trkpt>
<trkpt lat="25.082814" lon="104.716402">
<time>2015-09-27T17:54:27Z</time></trkpt>
<trkpt lat="25.082794" lon="104.716352">
<time>2015-09-27T17:54:28Z</time></trkpt>
<trkpt lat="25.082764" lon="104.716312">
<time>2015-09-27T17:54:29Z</time></trkpt>
<trkpt lat="25.082734" lon="104.716262">
<time>2015-09-27T17:54:30Z</time></trkpt>
<trkpt lat="25.082684" lon="104.716223">
<time>2015-09-27T17:54:31Z</time></trkpt>
<trkpt lat="25.082624" lon="104.716183">
<time>2015-09-27T17:54:32Z</time></trkpt>
<trkpt lat="25.082544" lon="104.716143">
<time>2015-09-27T17:54:33Z</time></trkpt>
<trkpt lat="25.082344" lon="104.716063">
<time>2015-09-27T17:54:34Z</time></trkpt>
<trkpt lat="25.082165" lon="104.716003">
<time>2015-09-27T17:54:35Z</time></trkpt>
<trkpt lat="25.082075" lon="104.715963">
<time>2015-09-27T17:54:36Z</time></trkpt>
<trkpt lat="25.081975" lon="104.715903">
<time>2015-09-27T17:54:37Z</time></trkpt>
<trkpt lat="25.081915" lon="104.715853">
<time>2015-09-27T17:54:38Z</time></trkpt>
<trkpt lat="25.081865" lon="104.715804">
<time>2015-09-27T17:54:39Z</time></trkpt>
<trkpt lat="25.081825" lon="104.715744">
<time>2015-09-27T17:54:40Z</time></trkpt>
<trkpt lat="25.081805" lon="104.715684">
<time>2015-09-27T17:54:41Z</time></trkpt>
<trkpt lat="25.081785" lon="104.715604">
<time>2015-09-27T17:54:42Z</time></trkpt>
<trkpt lat="25.081775" lon="104.715524">
<time>2015-09-27T17:54:43Z</time></trkpt>
<trkpt lat="25.081775" lon="104.715424">
<time>2015-09-27T17:54:44Z</time></trkpt>
<trkpt lat="25.081806" lon="104.715085">
<time>2015-09-27T17:54:45Z</time></trkpt>
<trkpt lat="25.081806" lon="104.714975">
<time>2015-09-27T17:54:46Z</time></trkpt>
<trkpt lat="25.081806" lon="104.714866">
<time>2015-09-27T17:54:47Z</time></trkpt>
<trkpt lat="25.081796" lon="104.714786">
<time>2015-09-27T17:54:48Z</time></trkpt>
<trkpt lat="25.081786" lon="104.714696">
<time>2015-09-27T17:54:49Z</time></trkpt>
<trkpt lat="25.081756" lon="104.714586">
<time>2015-09-27T17:54:50Z</time></trkpt>
<trkpt lat="25.081726" lon="104.714486">
<time>2015-09-27T17:54:51Z</time></trkpt>
<trkpt lat="25.081677" lon="104.714377">
<time>2015-09-27T17:54:52Z</time></trkpt>
<trkpt lat="25.081607" lon="104.714267">
<time>2015-09-27T17:54:53Z</time></trkpt>
<trkpt lat="25.081547" lon="104.714187">
<time>2015-09-27T17:54:54Z</time></trkpt>
<trkpt lat="25.081457" lon="104.714087">
<time>2015-09-27T17:54:55Z</time></trkpt>
<trkpt lat="25.081327" lon="104.713968">
<time>2015-09-27T17:54:56Z</time></trkpt>
<trkpt lat="25.081147" lon="104.713818">
<time>2015-09-27T17:54:57Z</time></trkpt>
<trkpt lat="25.080897" lon="104.713619">
<time>2015-09-27T17:54:58Z</time></trkpt>
<trkpt lat="25.080828" lon="104.713559">
<time>2015-09-27T17:54:59Z</time></trkpt>
<trkpt lat="25.080788" lon="104.713519">
<time>2015-09-27T17:55:00Z</time></trkpt>
<trkpt lat="25.080738" lon="104.713459">
<time>2015-09-27T17:55:01Z</time></trkpt>
<trkpt lat="25.080698" lon="104.713389">
<time>2015-09-27T17:55:02Z</time></trkpt>
<trkpt lat="25.080668" lon="104.713309">
<time>2015-09-27T17:55:03Z</time></trkpt>
<trkpt lat="25.080638" lon="104.713229">
<time>2015-09-27T17:55:04Z</time></trkpt>
<trkpt lat="25.080618" lon="104.71312">
<time>2015-09-27T17:55:05Z</time></trkpt>
<trkpt lat="25.080608" lon="104.71299">
<time>2015-09-27T17:55:06Z</time></trkpt>
<trkpt lat="25.080609" lon="104.712681">
<time>2015-09-27T17:55:07Z</time></trkpt>
<trkpt lat="25.08059" lon="104.711932">
<time>2015-09-27T17:55:08Z</time></trkpt>
<trkpt lat="25.08058" lon="104.711803">
<time>2015-09-27T17:55:09Z</time></trkpt>
<trkpt lat="25.08057" lon="104.711703">
<time>2015-09-27T17:55:10Z</time></trkpt>
<trkpt lat="25.08055" lon="104.711583">
<time>2015-09-27T17:55:11Z</time></trkpt>
<trkpt lat="25.08051" lon="104.711464">
<time>2015-09-27T17:55:12Z</time></trkpt>
<trkpt lat="25.08047" lon="104.711364">
<time>2015-09-27T17:55:13Z</time></trkpt>
<trkpt lat="25.08041" lon="104.711274">
<time>2015-09-27T17:55:14Z</time></trkpt>
<trkpt lat="25.080321" lon="104.711164">
<time>2015-09-27T17:55:15Z</time></trkpt>
<trkpt lat="25.080241" lon="104.711065">
<time>2015-09-27T17:55:16Z</time></trkpt>
<trkpt lat="25.080021" lon="104.710845">
<time>2015-09-27T17:55:17Z</time></trkpt>
<trkpt lat="25.079731" lon="104.710526">
<time>2015-09-27T17:55:18Z</time></trkpt>
<trkpt lat="25.079662" lon="104.710436">
<time>2015-09-27T17:55:19Z</time></trkpt>
<trkpt lat="25.079642" lon="104.710406">
<time>2015-09-27T17:55:20Z</time></trkpt>
<trkpt lat="25.079562" lon="104.710286">
<time>2015-09-27T17:55:21Z</time></trkpt>
<trkpt lat="25.079452" lon="104.710097">
<time>2015-09-27T17:55:22Z</time></trkpt>
<trkpt lat="25.079402" lon="104.709987">
<time>2015-09-27T17:55:23Z</time></trkpt>
<trkpt lat="25.079362" lon="104.709897">
<time>2015-09-27T17:55:24Z</time></trkpt>
<trkpt lat="25.079312" lon="104.709798">
<time>2015-09-27T17:55:25Z</time></trkpt>
<trkpt lat="25.079253" lon="104.709578">
<time>2015-09-27T17:55:26Z</time></trkpt>
<trkpt lat="25.079094" lon="104.70892">
<time>2015-09-27T17:55:27Z</time></trkpt>
<trkpt lat="25.079044" lon="104.7087">
<time>2015-09-27T17:55:28Z</time></trkpt>
<trkpt lat="25.079014" lon="104.708481">
<time>2015-09-27T17:55:29Z</time></trkpt>
<trkpt lat="25.078995" lon="104.708182">
<time>2015-09-27T17:55:30Z</time></trkpt>
<trkpt lat="25.078985" lon="104.707773">
<time>2015-09-27T17:55:31Z</time></trkpt>
<trkpt lat="25.078975" lon="104.707663">
<time>2015-09-27T17:55:32Z</time></trkpt>
<trkpt lat="25.078965" lon="104.707573">
<time>2015-09-27T17:55:33Z</time></trkpt>
<trkpt lat="25.078956" lon="104.707493">
<time>2015-09-27T17:55:34Z</time></trkpt>
<trkpt lat="25.078926" lon="104.707413">
<time>2015-09-27T17:55:35Z</time></trkpt>
<trkpt lat="25.078896" lon="104.707304">
<time>2015-09-27T17:55:36Z</time></trkpt>
<trkpt lat="25.078856" lon="104.707194">
<time>2015-09-27T17:55:37Z</time></trkpt>
<trkpt lat="25.078706" lon="104.706915">
<time>2015-09-27T17:55:38Z</time></trkpt>
<trkpt lat="25.078597" lon="104.706705">
<time>2015-09-27T17:55:39Z</time></trkpt>
<trkpt lat="25.078188" lon="104.705987">
<time>2015-09-27T17:55:40Z</time></trkpt>
<trkpt lat="25.077669" lon="104.70504">
<time>2015-09-27T17:55:41Z</time></trkpt>
<trkpt lat="25.077111" lon="104.704072">
<time>2015-09-27T17:55:42Z</time></trkpt>
<trkpt lat="25.076433" lon="104.702805">
<time>2015-09-27T17:55:43Z</time></trkpt>
<trkpt lat="25.076064" lon="104.702107">
<time>2015-09-27T17:55:44Z</time></trkpt>
<trkpt lat="25.075974" lon="104.701918">
<time>2015-09-27T17:55:45Z</time></trkpt>
<trkpt lat="25.075904" lon="104.701758">
<time>2015-09-27T17:55:46Z</time></trkpt>
<trkpt lat="25.075845" lon="104.701559">
<time>2015-09-27T17:55:47Z</time></trkpt>
<trkpt lat="25.075745" lon="104.70113">
<time>2015-09-27T17:55:48Z</time></trkpt>
<trkpt lat="25.075636" lon="104.700631">
<time>2015-09-27T17:55:49Z</time></trkpt>
<trkpt lat="25.075547" lon="104.700262">
<time>2015-09-27T17:55:50Z</time></trkpt>
<trkpt lat="25.075477" lon="104.700043">
<time>2015-09-27T17:55:51Z</time></trkpt>
<trkpt lat="25.075377" lon="104.699773">
<time>2015-09-27T17:55:52Z</time></trkpt>
<trkpt lat="25.075049" lon="104.698896">
<time>2015-09-27T17:55:53Z</time></trkpt>
<trkpt lat="25.075009" lon="104.698776">
<time>2015-09-27T17:55:54Z</time></trkpt>
<trkpt lat="25.074959" lon="104.698676">
<time>2015-09-27T17:55:55Z</time></trkpt>
<trkpt lat="25.074899" lon="104.698587">
<time>2015-09-27T17:55:56Z</time></trkpt>
<trkpt lat="25.074829" lon="104.698487">
<time>2015-09-27T17:55:57Z</time></trkpt>
<trkpt lat="25.07475" lon="104.698417">
<time>2015-09-27T17:55:58Z</time></trkpt>
<trkpt lat="25.07463" lon="104.698317">
<time>2015-09-27T17:55:59Z</time></trkpt>
<trkpt lat="25.07445" lon="104.698168">
<time>2015-09-27T17:56:00Z</time></trkpt>
<trkpt lat="25.07425" lon="104.698028">
<time>2015-09-27T17:56:01Z</time></trkpt>
<trkpt lat="25.07414" lon="104.697948">
<time>2015-09-27T17:56:02Z</time></trkpt>
<trkpt lat="25.074041" lon="104.697869">
<time>2015-09-27T17:56:03Z</time></trkpt>
<trkpt lat="25.073931" lon="104.697779">
<time>2015-09-27T17:56:04Z</time></trkpt>
<trkpt lat="25.073851" lon="104.697679">
<time>2015-09-27T17:56:05Z</time></trkpt>
<trkpt lat="25.073791" lon="104.697599">
<time>2015-09-27T17:56:06Z</time></trkpt>
<trkpt lat="25.073741" lon="104.69751">
<time>2015-09-27T17:56:07Z</time></trkpt>
<trkpt lat="25.073691" lon="104.6974">
<time>2015-09-27T17:56:08Z</time></trkpt>
<trkpt lat="25.073662" lon="104.69728">
<time>2015-09-27T17:56:09Z</time></trkpt>
<trkpt lat="25.073652" lon="104.697131">
<time>2015-09-27T17:56:10Z</time></trkpt>
<trkpt lat="25.073632" lon="104.696961">
<time>2015-09-27T17:56:11Z</time></trkpt>
<trkpt lat="25.073623" lon="104.696602">
<time>2015-09-27T17:56:12Z</time></trkpt>
<trkpt lat="25.073613" lon="104.696403">
<time>2015-09-27T17:56:13Z</time></trkpt>
<trkpt lat="25.073583" lon="104.696203">
<time>2015-09-27T17:56:14Z</time></trkpt>
<trkpt lat="25.073553" lon="104.696084">
<time>2015-09-27T17:56:15Z</time></trkpt>
<trkpt lat="25.073524" lon="104.695954">
<time>2015-09-27T17:56:16Z</time></trkpt>
<trkpt lat="25.073464" lon="104.695774">
<time>2015-09-27T17:56:17Z</time></trkpt>
<trkpt lat="25.073384" lon="104.695585">
<time>2015-09-27T17:56:18Z</time></trkpt>
<trkpt lat="25.073265" lon="104.695356">
<time>2015-09-27T17:56:19Z</time></trkpt>
<trkpt lat="25.073065" lon="104.694957">
<time>2015-09-27T17:56:20Z</time></trkpt>
<trkpt lat="25.072926" lon="104.694678">
<time>2015-09-27T17:56:21Z</time></trkpt>
<trkpt lat="25.072856" lon="104.694568">
<time>2015-09-27T17:56:22Z</time></trkpt>
<trkpt lat="25.072716" lon="104.694358">
<time>2015-09-27T17:56:23Z</time></trkpt>
<trkpt lat="25.072527" lon="104.694109">
<time>2015-09-27T17:56:24Z</time></trkpt>
<trkpt lat="25.072427" lon="104.69396">
<time>2015-09-27T17:56:25Z</time></trkpt>
<trkpt lat="25.072347" lon="104.69385">
<time>2015-09-27T17:56:26Z</time></trkpt>
<trkpt lat="25.072288" lon="104.69372">
<time>2015-09-27T17:56:27Z</time></trkpt>
<trkpt lat="25.072228" lon="104.693601">
<time>2015-09-27T17:56:28Z</time></trkpt>
<trkpt lat="25.072178" lon="104.693451">
<time>2015-09-27T17:56:29Z</time></trkpt>
<trkpt lat="25.072138" lon="104.693291">
<time>2015-09-27T17:56:30Z</time></trkpt>
<trkpt lat="25.072119" lon="104.693142">
<time>2015-09-27T17:56:31Z</time></trkpt>
<trkpt lat="25.072109" lon="104.692992">
<time>2015-09-27T17:56:32Z</time></trkpt>
<trkpt lat="25.07207" lon="104.692314">
<time>2015-09-27T17:56:33Z</time></trkpt>
<trkpt lat="25.07205" lon="104.692145">
<time>2015-09-27T17:56:34Z</time></trkpt>
<trkpt lat="25.072031" lon="104.691975">
<time>2015-09-27T17:56:35Z</time></trkpt>
<trkpt lat="25.071991" lon="104.691776">
<time>2015-09-27T17:56:36Z</time></trkpt>
<trkpt lat="25.071941" lon="104.691546">
<time>2015-09-27T17:56:37Z</time></trkpt>
<trkpt lat="25.071743" lon="104.690679">
<time>2015-09-27T17:56:38Z</time></trkpt>
<trkpt lat="25.071644" lon="104.69026">
<time>2015-09-27T17:56:39Z</time></trkpt>
<trkpt lat="25.071594" lon="104.690111">
<time>2015-09-27T17:56:40Z</time></trkpt>
<trkpt lat="25.071564" lon="104.690011">
<time>2015-09-27T17:56:41Z</time></trkpt>
<trkpt lat="25.071524" lon="104.689921">
<time>2015-09-27T17:56:42Z</time></trkpt>
<trkpt lat="25.071484" lon="104.689811">
<time>2015-09-27T17:56:43Z</time></trkpt>
<trkpt lat="25.071375" lon="104.689592">
<time>2015-09-27T17:56:44Z</time></trkpt>
<trkpt lat="25.071235" lon="104.689303">
<time>2015-09-27T17:56:45Z</time></trkpt>
<trkpt lat="25.071176" lon="104.689094">
<time>2015-09-27T17:56:46Z</time></trkpt>
<trkpt lat="25.071116" lon="104.688894">
<time>2015-09-27T17:56:47Z</time></trkpt>
<trkpt lat="25.071066" lon="104.688665">
<time>2015-09-27T17:56:48Z</time></trkpt>
<trkpt lat="25.071057" lon="104.688625">
<time>2015-09-27T17:56:49Z</time></trkpt>
<trkpt lat="25.071017" lon="104.688366">
<time>2015-09-27T17:56:50Z</time></trkpt>
<trkpt lat="25.070878" lon="104.687568">
<time>2015-09-27T17:56:51Z</time></trkpt>
<trkpt lat="25.07072" lon="104.686701">
<time>2015-09-27T17:56:52Z</time></trkpt>
<trkpt lat="25.070572" lon="104.685783">
<time>2015-09-27T17:56:53Z</time></trkpt>
<trkpt lat="25.070532" lon="104.685604">
<time>2015-09-27T17:56:54Z</time></trkpt>
<trkpt lat="25.070512" lon="104.685534">
<time>2015-09-27T17:56:55Z</time></trkpt>
<trkpt lat="25.070492" lon="104.685484">
<time>2015-09-27T17:56:56Z</time></trkpt>
<trkpt lat="25.070462" lon="104.685424">
<time>2015-09-27T17:56:57Z</time></trkpt>
<trkpt lat="25.070412" lon="104.685354">
<time>2015-09-27T17:56:58Z</time></trkpt>
<trkpt lat="25.070343" lon="104.685285">
<time>2015-09-27T17:56:59Z</time></trkpt>
<trkpt lat="25.070253" lon="104.685195">
<time>2015-09-27T17:57:00Z</time></trkpt>
<trkpt lat="25.070023" lon="104.685015">
<time>2015-09-27T17:57:01Z</time></trkpt>
<trkpt lat="25.069963" lon="104.684946">
<time>2015-09-27T17:57:02Z</time></trkpt>
<trkpt lat="25.069873" lon="104.684846">
<time>2015-09-27T17:57:03Z</time></trkpt>
<trkpt lat="25.069814" lon="104.684766">
<time>2015-09-27T17:57:04Z</time></trkpt>
<trkpt lat="25.069754" lon="104.684686">
<time>2015-09-27T17:57:05Z</time></trkpt>
<trkpt lat="25.069724" lon="104.684617">
<time>2015-09-27T17:57:06Z</time></trkpt>
<trkpt lat="25.069664" lon="104.684507">
<time>2015-09-27T17:57:07Z</time></trkpt>
<trkpt lat="25.069624" lon="104.684427">
<time>2015-09-27T17:57:08Z</time></trkpt>
<trkpt lat="25.069555" lon="104.684248">
<time>2015-09-27T17:57:09Z</time></trkpt>
<trkpt lat="25.069077" lon="104.683091">
<time>2015-09-27T17:57:10Z</time></trkpt>
<trkpt lat="25.068718" lon="104.682204">
<time>2015-09-27T17:57:11Z</time></trkpt>
<trkpt lat="25.068609" lon="104.681935">
<time>2015-09-27T17:57:12Z</time></trkpt>
<trkpt lat="25.068549" lon="104.681735">
<time>2015-09-27T17:57:13Z</time></trkpt>
<trkpt lat="25.06851" lon="104.681546">
<time>2015-09-27T17:57:14Z</time></trkpt>
<trkpt lat="25.06846" lon="104.681346">
<time>2015-09-27T17:57:15Z</time></trkpt>
<trkpt lat="25.068391" lon="104.680958">
<time>2015-09-27T17:57:16Z</time></trkpt>
<trkpt lat="25.068302" lon="104.680509">
<time>2015-09-27T17:57:17Z</time></trkpt>
<trkpt lat="25.068252" lon="104.68028">
<time>2015-09-27T17:57:18Z</time></trkpt>
<trkpt lat="25.068202" lon="104.68011">
<time>2015-09-27T17:57:19Z</time></trkpt>
<trkpt lat="25.068143" lon="104.679911">
<time>2015-09-27T17:57:20Z</time></trkpt>
<trkpt lat="25.068043" lon="104.679632">
<time>2015-09-27T17:57:21Z</time></trkpt>
<trkpt lat="25.067884" lon="104.679263">
<time>2015-09-27T17:57:22Z</time></trkpt>
<trkpt lat="25.067804" lon="104.679033">
<time>2015-09-27T17:57:23Z</time></trkpt>
<trkpt lat="25.067755" lon="104.678864">
<time>2015-09-27T17:57:24Z</time></trkpt>
<trkpt lat="25.067705" lon="104.678704">
<time>2015-09-27T17:57:25Z</time></trkpt>
<trkpt lat="25.067536" lon="104.678016">
<time>2015-09-27T17:57:26Z</time></trkpt>
<trkpt lat="25.067477" lon="104.677807">
<time>2015-09-27T17:57:27Z</time></trkpt>
<trkpt lat="25.067407" lon="104.677608">
<time>2015-09-27T17:57:28Z</time></trkpt>
<trkpt lat="25.067308" lon="104.677378">
<time>2015-09-27T17:57:29Z</time></trkpt>
<trkpt lat="25.067198" lon="104.677149">
<time>2015-09-27T17:57:30Z</time></trkpt>
<trkpt lat="25.067059" lon="104.67688">
<time>2015-09-27T17:57:31Z</time></trkpt>
<trkpt lat="25.066969" lon="104.67672">
<time>2015-09-27T17:57:32Z</time></trkpt>
<trkpt lat="25.066899" lon="104.676611">
<time>2015-09-27T17:57:33Z</time></trkpt>
<trkpt lat="25.066809" lon="104.676491">
<time>2015-09-27T17:57:34Z</time></trkpt>
<trkpt lat="25.06672" lon="104.676371">
<time>2015-09-27T17:57:35Z</time></trkpt>
<trkpt lat="25.06662" lon="104.676252">
<time>2015-09-27T17:57:36Z</time></trkpt>
<trkpt lat="25.06652" lon="104.676152">
<time>2015-09-27T17:57:37Z</time></trkpt>
<trkpt lat="25.06638" lon="104.676003">
<time>2015-09-27T17:57:38Z</time></trkpt>
<trkpt lat="25.065422" lon="104.675115">
<time>2015-09-27T17:57:39Z</time></trkpt>
<trkpt lat="25.065252" lon="104.674946">
<time>2015-09-27T17:57:40Z</time></trkpt>
<trkpt lat="25.065133" lon="104.674816">
<time>2015-09-27T17:57:41Z</time></trkpt>
<trkpt lat="25.065023" lon="104.674677">
<time>2015-09-27T17:57:42Z</time></trkpt>
<trkpt lat="25.064853" lon="104.674427">
<time>2015-09-27T17:57:43Z</time></trkpt>
<trkpt lat="25.064305" lon="104.67362">
<time>2015-09-27T17:57:44Z</time></trkpt>
<trkpt lat="25.064235" lon="104.67352">
<time>2015-09-27T17:57:45Z</time></trkpt>
<trkpt lat="25.064155" lon="104.673421">
<time>2015-09-27T17:57:46Z</time></trkpt>
<trkpt lat="25.064076" lon="104.673351">
<time>2015-09-27T17:57:47Z</time></trkpt>
<trkpt lat="25.064006" lon="104.673291">
<time>2015-09-27T17:57:48Z</time></trkpt>
<trkpt lat="25.063926" lon="104.673221">
<time>2015-09-27T17:57:49Z</time></trkpt>
<trkpt lat="25.063696" lon="104.673072">
<time>2015-09-27T17:57:50Z</time></trkpt>
<trkpt lat="25.063387" lon="104.672852">
<time>2015-09-27T17:57:51Z</time></trkpt>
<trkpt lat="25.063287" lon="104.672763">
<time>2015-09-27T17:57:52Z</time></trkpt>
<trkpt lat="25.063197" lon="104.672673">
<time>2015-09-27T17:57:53Z</time></trkpt>
<trkpt lat="25.063097" lon="104.672543">
<time>2015-09-27T17:57:54Z</time></trkpt>
<trkpt lat="25.062798" lon="104.672075">
<time>2015-09-27T17:57:55Z</time></trkpt>
<trkpt lat="25.062718" lon="104.671945">
<time>2015-09-27T17:57:56Z</time></trkpt>
<trkpt lat="25.062659" lon="104.671805">
<time>2015-09-27T17:57:57Z</time></trkpt>
<trkpt lat="25.062609" lon="104.671656">
<time>2015-09-27T17:57:58Z</time></trkpt>
<trkpt lat="25.062569" lon="104.671506">
<time>2015-09-27T17:57:59Z</time></trkpt>
<trkpt lat="25.06254" lon="104.671267">
<time>2015-09-27T17:58:00Z</time></trkpt>
<trkpt lat="25.06251" lon="104.671048">
<time>2015-09-27T17:58:01Z</time></trkpt>
<trkpt lat="25.0625" lon="104.670928">
<time>2015-09-27T17:58:02Z</time></trkpt>
<trkpt lat="25.062491" lon="104.670619">
<time>2015-09-27T17:58:03Z</time></trkpt>
<trkpt lat="25.062492" lon="104.67027">
<time>2015-09-27T17:58:04Z</time></trkpt>
<trkpt lat="25.062512" lon="104.670021">
<time>2015-09-27T17:58:05Z</time></trkpt>
<trkpt lat="25.062543" lon="104.669782">
<time>2015-09-27T17:58:06Z</time></trkpt>
<trkpt lat="25.062754" lon="104.668944">
<time>2015-09-27T17:58:07Z</time></trkpt>
<trkpt lat="25.062845" lon="104.668545">
<time>2015-09-27T17:58:08Z</time></trkpt>
<trkpt lat="25.062906" lon="104.668226">
<time>2015-09-27T17:58:09Z</time></trkpt>
<trkpt lat="25.062946" lon="104.667808">
<time>2015-09-27T17:58:10Z</time></trkpt>
<trkpt lat="25.06311" lon="104.666133">
<time>2015-09-27T17:58:11Z</time></trkpt>
<trkpt lat="25.063181" lon="104.665505">
<time>2015-09-27T17:58:12Z</time></trkpt>
<trkpt lat="25.063211" lon="104.665126">
<time>2015-09-27T17:58:13Z</time></trkpt>
<trkpt lat="25.063212" lon="104.664926">
<time>2015-09-27T17:58:14Z</time></trkpt>
<trkpt lat="25.063202" lon="104.664707">
<time>2015-09-27T17:58:15Z</time></trkpt>
<trkpt lat="25.063173" lon="104.664468">
<time>2015-09-27T17:58:16Z</time></trkpt>
<trkpt lat="25.063113" lon="104.664079">
<time>2015-09-27T17:58:17Z</time></trkpt>
<trkpt lat="25.062896" lon="104.662882">
<time>2015-09-27T17:58:18Z</time></trkpt>
<trkpt lat="25.062757" lon="104.662065">
<time>2015-09-27T17:58:19Z</time></trkpt>
<trkpt lat="25.062698" lon="104.661786">
<time>2015-09-27T17:58:20Z</time></trkpt>
<trkpt lat="25.062628" lon="104.661537">
<time>2015-09-27T17:58:21Z</time></trkpt>
<trkpt lat="25.062569" lon="104.661317">
<time>2015-09-27T17:58:22Z</time></trkpt>
<trkpt lat="25.06241" lon="104.660829">
<time>2015-09-27T17:58:23Z</time></trkpt>
<trkpt lat="25.06237" lon="104.660659">
<time>2015-09-27T17:58:24Z</time></trkpt>
<trkpt lat="25.06232" lon="104.66044">
<time>2015-09-27T17:58:25Z</time></trkpt>
<trkpt lat="25.062251" lon="104.660061">
<time>2015-09-27T17:58:26Z</time></trkpt>
<trkpt lat="25.062172" lon="104.659622">
<time>2015-09-27T17:58:27Z</time></trkpt>
<trkpt lat="25.062123" lon="104.659263">
<time>2015-09-27T17:58:28Z</time></trkpt>
<trkpt lat="25.062053" lon="104.658894">
<time>2015-09-27T17:58:29Z</time></trkpt>
<trkpt lat="25.062044" lon="104.658805">
<time>2015-09-27T17:58:30Z</time></trkpt>
<trkpt lat="25.062044" lon="104.658725">
<time>2015-09-27T17:58:31Z</time></trkpt>
<trkpt lat="25.062044" lon="104.658655">
<time>2015-09-27T17:58:32Z</time></trkpt>
<trkpt lat="25.062054" lon="104.658585">
<time>2015-09-27T17:58:33Z</time></trkpt>
<trkpt lat="25.062064" lon="104.658506">
<time>2015-09-27T17:58:34Z</time></trkpt>
<trkpt lat="25.062094" lon="104.658426">
<time>2015-09-27T17:58:35Z</time></trkpt>
<trkpt lat="25.062124" lon="104.658346">
<time>2015-09-27T17:58:36Z</time></trkpt>
<trkpt lat="25.062636" lon="104.65717">
<time>2015-09-27T17:58:37Z</time></trkpt>
<trkpt lat="25.062787" lon="104.656791">
<time>2015-09-27T17:58:38Z</time></trkpt>
<trkpt lat="25.062998" lon="104.656093">
<time>2015-09-27T17:58:39Z</time></trkpt>
<trkpt lat="25.06325" lon="104.655295">
<time>2015-09-27T17:58:40Z</time></trkpt>
<trkpt lat="25.063753" lon="104.65364">
<time>2015-09-27T17:58:41Z</time></trkpt>
<trkpt lat="25.063934" lon="104.653022">
<time>2015-09-27T17:58:42Z</time></trkpt>
<trkpt lat="25.063984" lon="104.652822">
<time>2015-09-27T17:58:43Z</time></trkpt>
<trkpt lat="25.064005" lon="104.652643">
<time>2015-09-27T17:58:44Z</time></trkpt>
<trkpt lat="25.064065" lon="104.652344">
<time>2015-09-27T17:58:45Z</time></trkpt>
<trkpt lat="25.064115" lon="104.652194">
<time>2015-09-27T17:58:46Z</time></trkpt>
<trkpt lat="25.064206" lon="104.652064">
<time>2015-09-27T17:58:47Z</time></trkpt>
<trkpt lat="25.064386" lon="104.651845">
<time>2015-09-27T17:58:48Z</time></trkpt>
<trkpt lat="25.064456" lon="104.651765">
<time>2015-09-27T17:58:49Z</time></trkpt>
<trkpt lat="25.064486" lon="104.651695">
<time>2015-09-27T17:58:50Z</time></trkpt>
<trkpt lat="25.064516" lon="104.651626">
<time>2015-09-27T17:58:51Z</time></trkpt>
<trkpt lat="25.064527" lon="104.651546">
<time>2015-09-27T17:58:52Z</time></trkpt>
<trkpt lat="25.064517" lon="104.651456">
<time>2015-09-27T17:58:53Z</time></trkpt>
<trkpt lat="25.064517" lon="104.651446">
<time>2015-09-27T17:58:54Z</time></trkpt>
<trkpt lat="25.064507" lon="104.651356">
<time>2015-09-27T17:58:55Z</time></trkpt>
<trkpt lat="25.064467" lon="104.651227">
<time>2015-09-27T17:58:56Z</time></trkpt>
<trkpt lat="25.064358" lon="104.650908">
<time>2015-09-27T17:58:57Z</time></trkpt>
<trkpt lat="25.064079" lon="104.65013">
<time>2015-09-27T17:58:58Z</time></trkpt>
<trkpt lat="25.06397" lon="104.649821">
<time>2015-09-27T17:58:59Z</time></trkpt>
<trkpt lat="25.06386" lon="104.649462">
<time>2015-09-27T17:59:00Z</time></trkpt>
<trkpt lat="25.063671" lon="104.648893">
<time>2015-09-27T17:59:01Z</time></trkpt>
<trkpt lat="25.063622" lon="104.648754">
<time>2015-09-27T17:59:02Z</time></trkpt>
<trkpt lat="25.063542" lon="104.648505">
<time>2015-09-27T17:59:03Z</time></trkpt>
<trkpt lat="25.063453" lon="104.648195">
<time>2015-09-27T17:59:04Z</time></trkpt>
<trkpt lat="25.063393" lon="104.647896">
<time>2015-09-27T17:59:05Z</time></trkpt>
<trkpt lat="25.063344" lon="104.647637">
<time>2015-09-27T17:59:06Z</time></trkpt>
<trkpt lat="25.063264" lon="104.647208">
<time>2015-09-27T17:59:07Z</time></trkpt>
<trkpt lat="25.063165" lon="104.64673">
<time>2015-09-27T17:59:08Z</time></trkpt>
<trkpt lat="25.063135" lon="104.64655">
<time>2015-09-27T17:59:09Z</time></trkpt>
<trkpt lat="25.063106" lon="104.646321">
<time>2015-09-27T17:59:10Z</time></trkpt>
<trkpt lat="25.063086" lon="104.646021">
<time>2015-09-27T17:59:11Z</time></trkpt>
<trkpt lat="25.063028" lon="104.645303">
<time>2015-09-27T17:59:12Z</time></trkpt>
<trkpt lat="25.062979" lon="104.644725">
<time>2015-09-27T17:59:13Z</time></trkpt>
<trkpt lat="25.062969" lon="104.644556">
<time>2015-09-27T17:59:14Z</time></trkpt>
<trkpt lat="25.062969" lon="104.644446">
<time>2015-09-27T17:59:15Z</time></trkpt>
<trkpt lat="25.062979" lon="104.644336">
<time>2015-09-27T17:59:16Z</time></trkpt>
<trkpt lat="25.06302" lon="104.643867">
<time>2015-09-27T17:59:17Z</time></trkpt>
<trkpt lat="25.06303" lon="104.643738">
<time>2015-09-27T17:59:18Z</time></trkpt>
<trkpt lat="25.06303" lon="104.643618">
<time>2015-09-27T17:59:19Z</time></trkpt>
<trkpt lat="25.063021" lon="104.643498">
<time>2015-09-27T17:59:20Z</time></trkpt>
<trkpt lat="25.063001" lon="104.643369">
<time>2015-09-27T17:59:21Z</time></trkpt>
<trkpt lat="25.062961" lon="104.643219">
<time>2015-09-27T17:59:22Z</time></trkpt>
<trkpt lat="25.062911" lon="104.64303">
<time>2015-09-27T17:59:23Z</time></trkpt>
<trkpt lat="25.062553" lon="104.641853">
<time>2015-09-27T17:59:24Z</time></trkpt>
<trkpt lat="25.062414" lon="104.641414">
<time>2015-09-27T17:59:25Z</time></trkpt>
<trkpt lat="25.062354" lon="104.641185">
<time>2015-09-27T17:59:26Z</time></trkpt>
<trkpt lat="25.062315" lon="104.641035">
<time>2015-09-27T17:59:27Z</time></trkpt>
<trkpt lat="25.062305" lon="104.640915">
<time>2015-09-27T17:59:28Z</time></trkpt>
<trkpt lat="25.062285" lon="104.640786">
<time>2015-09-27T17:59:29Z</time></trkpt>
<trkpt lat="25.062285" lon="104.640666">
<time>2015-09-27T17:59:30Z</time></trkpt>
<trkpt lat="25.062276" lon="104.640427">
<time>2015-09-27T17:59:31Z</time></trkpt>
<trkpt lat="25.062288" lon="104.638731">
<time>2015-09-27T17:59:32Z</time></trkpt>
<trkpt lat="25.062291" lon="104.636656">
<time>2015-09-27T17:59:33Z</time></trkpt>
<trkpt lat="25.062302" lon="104.636018">
<time>2015-09-27T17:59:34Z</time></trkpt>
<trkpt lat="25.062293" lon="104.635669">
<time>2015-09-27T17:59:35Z</time></trkpt>
<trkpt lat="25.062284" lon="104.634621">
<time>2015-09-27T17:59:36Z</time></trkpt>
<trkpt lat="25.062285" lon="104.634302">
<time>2015-09-27T17:59:37Z</time></trkpt>
<trkpt lat="25.062285" lon="104.633983">
<time>2015-09-27T17:59:38Z</time></trkpt>
<trkpt lat="25.062306" lon="104.633773">
<time>2015-09-27T17:59:39Z</time></trkpt>
<trkpt lat="25.062326" lon="104.633654">
<time>2015-09-27T17:59:40Z</time></trkpt>
<trkpt lat="25.062346" lon="104.633544">
<time>2015-09-27T17:59:41Z</time></trkpt>
<trkpt lat="25.062386" lon="104.633414">
<time>2015-09-27T17:59:42Z</time></trkpt>
<trkpt lat="25.062436" lon="104.633285">
<time>2015-09-27T17:59:43Z</time></trkpt>
<trkpt lat="25.062587" lon="104.632945">
<time>2015-09-27T17:59:44Z</time></trkpt>
<trkpt lat="25.062697" lon="104.632696">
<time>2015-09-27T17:59:45Z</time></trkpt>
<trkpt lat="25.062747" lon="104.632536">
<time>2015-09-27T17:59:46Z</time></trkpt>
<trkpt lat="25.062787" lon="104.632407">
<time>2015-09-27T17:59:47Z</time></trkpt>
<trkpt lat="25.062798" lon="104.632317">
<time>2015-09-27T17:59:48Z</time></trkpt>
<trkpt lat="25.062818" lon="104.632207">
<time>2015-09-27T17:59:49Z</time></trkpt>
<trkpt lat="25.062818" lon="104.632088">
<time>2015-09-27T17:59:50Z</time></trkpt>
<trkpt lat="25.062818" lon="104.631968">
<time>2015-09-27T17:59:51Z</time></trkpt>
<trkpt lat="25.062808" lon="104.631868">
<time>2015-09-27T17:59:52Z</time></trkpt>
<trkpt lat="25.062778" lon="104.631748">
<time>2015-09-27T17:59:53Z</time></trkpt>
<trkpt lat="25.062749" lon="104.631599">
<time>2015-09-27T17:59:54Z</time></trkpt>
<trkpt lat="25.062669" lon="104.631369">
<time>2015-09-27T17:59:55Z</time></trkpt>
<trkpt lat="25.06249" lon="104.63086">
<time>2015-09-27T17:59:56Z</time></trkpt>
<trkpt lat="25.06237" lon="104.630541">
<time>2015-09-27T17:59:57Z</time></trkpt>
<trkpt lat="25.06234" lon="104.630431">
<time>2015-09-27T17:59:58Z</time></trkpt>
<trkpt lat="25.06231" lon="104.630312">
<time>2015-09-27T17:59:59Z</time></trkpt>
<trkpt lat="25.0623" lon="104.630232">
<time>2015-09-27T18:00:00Z</time></trkpt>
<trkpt lat="25.06229" lon="104.630152">
<time>2015-09-27T18:00:01Z</time></trkpt>
<trkpt lat="25.062291" lon="104.630072">
<time>2015-09-27T18:00:02Z</time></trkpt>
<trkpt lat="25.062291" lon="104.629973">
<time>2015-09-27T18:00:03Z</time></trkpt>
<trkpt lat="25.062301" lon="104.629883">
<time>2015-09-27T18:00:04Z</time></trkpt>
<trkpt lat="25.062361" lon="104.629553">
<time>2015-09-27T18:00:05Z</time></trkpt>
<trkpt lat="25.062371" lon="104.629414">
<time>2015-09-27T18:00:06Z</time></trkpt>
<trkpt lat="25.062382" lon="104.629284">
<time>2015-09-27T18:00:07Z</time></trkpt>
<trkpt lat="25.062372" lon="104.629174">
<time>2015-09-27T18:00:08Z</time></trkpt>
<trkpt lat="25.062362" lon="104.629055">
<time>2015-09-27T18:00:09Z</time></trkpt>
<trkpt lat="25.062342" lon="104.628915">
<time>2015-09-27T18:00:10Z</time></trkpt>
<trkpt lat="25.062302" lon="104.628755">
<time>2015-09-27T18:00:11Z</time></trkpt>
<trkpt lat="25.062263" lon="104.628586">
<time>2015-09-27T18:00:12Z</time></trkpt>
<trkpt lat="25.062243" lon="104.628486">
<time>2015-09-27T18:00:13Z</time></trkpt>
<trkpt lat="25.062223" lon="104.628326">
<time>2015-09-27T18:00:14Z</time></trkpt>
<trkpt lat="25.062213" lon="104.628256">
<time>2015-09-27T18:00:15Z</time></trkpt>
<trkpt lat="25.062223" lon="104.628187">
<time>2015-09-27T18:00:16Z</time></trkpt>
<trkpt lat="25.062233" lon="104.628077">
<time>2015-09-27T18:00:17Z</time></trkpt>
<trkpt lat="25.062263" lon="104.627967">
<time>2015-09-27T18:00:18Z</time></trkpt>
<trkpt lat="25.062303" lon="104.627867">
<time>2015-09-27T18:00:19Z</time></trkpt>
<trkpt lat="25.062364" lon="104.627738">
<time>2015-09-27T18:00:20Z</time></trkpt>
<trkpt lat="25.062514" lon="104.627478">
<time>2015-09-27T18:00:21Z</time></trkpt>
<trkpt lat="25.062584" lon="104.627319">
<time>2015-09-27T18:00:22Z</time></trkpt>
<trkpt lat="25.062634" lon="104.627189">
<time>2015-09-27T18:00:23Z</time></trkpt>
<trkpt lat="25.062664" lon="104.627089">
<time>2015-09-27T18:00:24Z</time></trkpt>
<trkpt lat="25.062694" lon="104.626979">
<time>2015-09-27T18:00:25Z</time></trkpt>
<trkpt lat="25.062705" lon="104.62684">
<time>2015-09-27T18:00:26Z</time></trkpt>
<trkpt lat="25.062715" lon="104.62666">
<time>2015-09-27T18:00:27Z</time></trkpt>
<trkpt lat="25.062735" lon="104.626341">
<time>2015-09-27T18:00:28Z</time></trkpt>
<trkpt lat="25.062726" lon="104.625822">
<time>2015-09-27T18:00:29Z</time></trkpt>
<trkpt lat="25.062716" lon="104.625622">
<time>2015-09-27T18:00:30Z</time></trkpt>
<trkpt lat="25.062736" lon="104.625423">
<time>2015-09-27T18:00:31Z</time></trkpt>
<trkpt lat="25.062787" lon="104.625004">
<time>2015-09-27T18:00:32Z</time></trkpt>
<trkpt lat="25.062768" lon="104.624375">
<time>2015-09-27T18:00:33Z</time></trkpt>
<trkpt lat="25.062788" lon="104.624086">
<time>2015-09-27T18:00:34Z</time></trkpt>
<trkpt lat="25.062818" lon="104.623866">
<time>2015-09-27T18:00:35Z</time></trkpt>
<trkpt lat="25.062858" lon="104.623676">
<time>2015-09-27T18:00:36Z</time></trkpt>
<trkpt lat="25.062898" lon="104.623497">
<time>2015-09-27T18:00:37Z</time></trkpt>
<trkpt lat="25.062939" lon="104.623297">
<time>2015-09-27T18:00:38Z</time></trkpt>
<trkpt lat="25.062959" lon="104.623167">
<time>2015-09-27T18:00:39Z</time></trkpt>
<trkpt lat="25.062969" lon="104.623078">
<time>2015-09-27T18:00:40Z</time></trkpt>
<trkpt lat="25.062969" lon="104.623008">
<time>2015-09-27T18:00:41Z</time></trkpt>
<trkpt lat="25.062959" lon="104.622948">
<time>2015-09-27T18:00:42Z</time></trkpt>
<trkpt lat="25.062959" lon="104.622888">
<time>2015-09-27T18:00:43Z</time></trkpt>
<trkpt lat="25.062949" lon="104.622838">
<time>2015-09-27T18:00:44Z</time></trkpt>
<trkpt lat="25.062939" lon="104.622788">
<time>2015-09-27T18:00:45Z</time></trkpt>
<trkpt lat="25.062919" lon="104.622728">
<time>2015-09-27T18:00:46Z</time></trkpt>
<trkpt lat="25.062889" lon="104.622659">
<time>2015-09-27T18:00:47Z</time></trkpt>
<trkpt lat="25.062859" lon="104.622579">
<time>2015-09-27T18:00:48Z</time></trkpt>
<trkpt lat="25.06279" lon="104.622459">
<time>2015-09-27T18:00:49Z</time></trkpt>
<trkpt lat="25.06272" lon="104.622289">
<time>2015-09-27T18:00:50Z</time></trkpt>
<trkpt lat="25.06265" lon="104.6221">
<time>2015-09-27T18:00:51Z</time></trkpt>
<trkpt lat="25.06261" lon="104.62195">
<time>2015-09-27T18:00:52Z</time></trkpt>
<trkpt lat="25.062521" lon="104.621531">
<time>2015-09-27T18:00:53Z</time></trkpt>
<trkpt lat="25.062381" lon="104.620842">
<time>2015-09-27T18:00:54Z</time></trkpt>
<trkpt lat="25.062252" lon="104.620164">
<time>2015-09-27T18:00:55Z</time></trkpt>
<trkpt lat="25.062172" lon="104.619754">
<time>2015-09-27T18:00:56Z</time></trkpt>
<trkpt lat="25.062043" lon="104.619255">
<time>2015-09-27T18:00:57Z</time></trkpt>
<trkpt lat="25.061943" lon="104.618796">
<time>2015-09-27T18:00:58Z</time></trkpt>
<trkpt lat="25.061894" lon="104.618527">
<time>2015-09-27T18:00:59Z</time></trkpt>
<trkpt lat="25.061844" lon="104.618237">
<time>2015-09-27T18:01:00Z</time></trkpt>
<trkpt lat="25.061784" lon="104.617758">
<time>2015-09-27T18:01:01Z</time></trkpt>
<trkpt lat="25.061775" lon="104.617539">
<time>2015-09-27T18:01:02Z</time></trkpt>
<trkpt lat="25.061775" lon="104.617379">
<time>2015-09-27T18:01:03Z</time></trkpt>
<trkpt lat="25.061785" lon="104.617179">
<time>2015-09-27T18:01:04Z</time></trkpt>
<trkpt lat="25.061775" lon="104.617039">
<time>2015-09-27T18:01:05Z</time></trkpt>
<trkpt lat="25.061765" lon="104.61694">
<time>2015-09-27T18:01:06Z</time></trkpt>
<trkpt lat="25.061735" lon="104.61684">
<time>2015-09-27T18:01:07Z</time></trkpt>
<trkpt lat="25.061665" lon="104.61666">
<time>2015-09-27T18:01:08Z</time></trkpt>
<trkpt lat="25.061615" lon="104.6165">
<time>2015-09-27T18:01:09Z</time></trkpt>
<trkpt lat="25.061576" lon="104.616361">
<time>2015-09-27T18:01:10Z</time></trkpt>
<trkpt lat="25.061546" lon="104.616221">
<time>2015-09-27T18:01:11Z</time></trkpt>
<trkpt lat="25.061516" lon="104.616041">
<time>2015-09-27T18:01:12Z</time></trkpt>
<trkpt lat="25.061476" lon="104.615812">
<time>2015-09-27T18:01:13Z</time></trkpt>
<trkpt lat="25.061436" lon="104.615622">
<time>2015-09-27T18:01:14Z</time></trkpt>
<trkpt lat="25.061396" lon="104.615452">
<time>2015-09-27T18:01:15Z</time></trkpt>
<trkpt lat="25.061356" lon="104.615342">
<time>2015-09-27T18:01:16Z</time></trkpt>
<trkpt lat="25.061037" lon="104.614634">
<time>2015-09-27T18:01:17Z</time></trkpt>
<trkpt lat="25.060857" lon="104.614474">
<time>2015-09-27T18:01:18Z</time></trkpt>
<trkpt lat="25.060857" lon="104.614474">
<time>2015-09-27T18:01:19Z</time></trkpt>
<trkpt lat="25.060728" lon="104.613655">
<time>2015-09-27T18:01:20Z</time></trkpt>
<trkpt lat="25.060658" lon="104.612987">
<time>2015-09-27T18:01:21Z</time></trkpt>
<trkpt lat="25.060589" lon="104.612148">
<time>2015-09-27T18:01:22Z</time></trkpt>
<trkpt lat="25.060529" lon="104.611779">
<time>2015-09-27T18:01:23Z</time></trkpt>
<trkpt lat="25.06045" lon="104.611329">
<time>2015-09-27T18:01:24Z</time></trkpt>
<trkpt lat="25.06036" lon="104.61094">
<time>2015-09-27T18:01:25Z</time></trkpt>
<trkpt lat="25.0603" lon="104.61074">
<time>2015-09-27T18:01:26Z</time></trkpt>
<trkpt lat="25.06023" lon="104.610461">
<time>2015-09-27T18:01:27Z</time></trkpt>
<trkpt lat="25.059781" lon="104.608823">
<time>2015-09-27T18:01:28Z</time></trkpt>
<trkpt lat="25.058993" lon="104.605927">
<time>2015-09-27T18:01:29Z</time></trkpt>
<trkpt lat="25.058563" lon="104.604349">
<time>2015-09-27T18:01:30Z</time></trkpt>
<trkpt lat="25.057844" lon="104.601812">
<time>2015-09-27T18:01:31Z</time></trkpt>
<trkpt lat="25.057614" lon="104.600913">
<time>2015-09-27T18:01:32Z</time></trkpt>
<trkpt lat="25.057355" lon="104.600004">
<time>2015-09-27T18:01:33Z</time></trkpt>
<trkpt lat="25.057005" lon="104.598796">
<time>2015-09-27T18:01:34Z</time></trkpt>
<trkpt lat="25.056615" lon="104.597647">
<time>2015-09-27T18:01:35Z</time></trkpt>
<trkpt lat="25.056195" lon="104.596468">
<time>2015-09-27T18:01:36Z</time></trkpt>
<trkpt lat="25.055835" lon="104.595559">
<time>2015-09-27T18:01:37Z</time></trkpt>
<trkpt lat="25.055465" lon="104.594629">
<time>2015-09-27T18:01:38Z</time></trkpt>
<trkpt lat="25.055075" lon="104.59337">
<time>2015-09-27T18:01:39Z</time></trkpt>
<trkpt lat="25.054975" lon="104.59302">
<time>2015-09-27T18:01:40Z</time></trkpt>
<trkpt lat="25.054865" lon="104.592621">
<time>2015-09-27T18:01:41Z</time></trkpt>
<trkpt lat="25.054655" lon="104.591971">
<time>2015-09-27T18:01:42Z</time></trkpt>
<trkpt lat="25.054465" lon="104.591442">
<time>2015-09-27T18:01:43Z</time></trkpt>
<trkpt lat="25.054185" lon="104.590812">
<time>2015-09-27T18:01:44Z</time></trkpt>
<trkpt lat="25.054165" lon="104.590772">
<time>2015-09-27T18:01:45Z</time></trkpt>
<trkpt lat="25.053835" lon="104.590142">
<time>2015-09-27T18:01:46Z</time></trkpt>
<trkpt lat="25.053525" lon="104.589543">
<time>2015-09-27T18:01:47Z</time></trkpt>
<trkpt lat="25.053265" lon="104.589043">
<time>2015-09-27T18:01:48Z</time></trkpt>
<trkpt lat="25.053105" lon="104.588683">
<time>2015-09-27T18:01:49Z</time></trkpt>
<trkpt lat="25.052954" lon="104.588313">
<time>2015-09-27T18:01:50Z</time></trkpt>
<trkpt lat="25.052814" lon="104.587884">
<time>2015-09-27T18:01:51Z</time></trkpt>
<trkpt lat="25.052664" lon="104.587364">
<time>2015-09-27T18:01:52Z</time></trkpt>
<trkpt lat="25.052434" lon="104.586454">
<time>2015-09-27T18:01:53Z</time></trkpt>
<trkpt lat="25.051231" lon="104.581215">
<time>2015-09-27T18:01:54Z</time></trkpt>
<trkpt lat="25.050871" lon="104.580145">
<time>2015-09-27T18:01:55Z</time></trkpt>
<trkpt lat="25.05053" lon="104.579406">
<time>2015-09-27T18:01:56Z</time></trkpt>
<trkpt lat="25.05018" lon="104.578696">
<time>2015-09-27T18:01:57Z</time></trkpt>
<trkpt lat="25.049869" lon="104.578096">
<time>2015-09-27T18:01:58Z</time></trkpt>
<trkpt lat="25.049699" lon="104.577726">
<time>2015-09-27T18:01:59Z</time></trkpt>
<trkpt lat="25.049498" lon="104.577195">
<time>2015-09-27T18:02:00Z</time></trkpt>
<trkpt lat="25.049368" lon="104.576755">
<time>2015-09-27T18:02:01Z</time></trkpt>
<trkpt lat="25.049137" lon="104.575915">
<time>2015-09-27T18:02:02Z</time></trkpt>
<trkpt lat="25.048947" lon="104.575305">
<time>2015-09-27T18:02:03Z</time></trkpt>
<trkpt lat="25.048726" lon="104.574745">
<time>2015-09-27T18:02:04Z</time></trkpt>
<trkpt lat="25.048676" lon="104.574625">
<time>2015-09-27T18:02:05Z</time></trkpt>
<trkpt lat="25.048606" lon="104.574485">
<time>2015-09-27T18:02:06Z</time></trkpt>
<trkpt lat="25.048476" lon="104.574195">
<time>2015-09-27T18:02:07Z</time></trkpt>
<trkpt lat="25.047845" lon="104.572885">
<time>2015-09-27T18:02:08Z</time></trkpt>
<trkpt lat="25.047424" lon="104.571994">
<time>2015-09-27T18:02:09Z</time></trkpt>
<trkpt lat="25.047263" lon="104.571604">
<time>2015-09-27T18:02:10Z</time></trkpt>
<trkpt lat="25.047173" lon="104.571344">
<time>2015-09-27T18:02:11Z</time></trkpt>
<trkpt lat="25.047113" lon="104.571104">
<time>2015-09-27T18:02:12Z</time></trkpt>
<trkpt lat="25.047063" lon="104.570824">
<time>2015-09-27T18:02:13Z</time></trkpt>
<trkpt lat="25.047022" lon="104.570554">
<time>2015-09-27T18:02:14Z</time></trkpt>
<trkpt lat="25.047002" lon="104.570284">
<time>2015-09-27T18:02:15Z</time></trkpt>
<trkpt lat="25.046992" lon="104.570074">
<time>2015-09-27T18:02:16Z</time></trkpt>
<trkpt lat="25.047011" lon="104.569613">
<time>2015-09-27T18:02:17Z</time></trkpt>
<trkpt lat="25.04703" lon="104.568983">
<time>2015-09-27T18:02:18Z</time></trkpt>
<trkpt lat="25.046969" lon="104.568143">
<time>2015-09-27T18:02:19Z</time></trkpt>
<trkpt lat="25.046879" lon="104.567622">
<time>2015-09-27T18:02:20Z</time></trkpt>
<trkpt lat="25.046818" lon="104.567402">
<time>2015-09-27T18:02:21Z</time></trkpt>
<trkpt lat="25.046678" lon="104.567002">
<time>2015-09-27T18:02:22Z</time></trkpt>
<trkpt lat="25.046437" lon="104.566512">
<time>2015-09-27T18:02:23Z</time></trkpt>
<trkpt lat="25.046197" lon="104.566021">
<time>2015-09-27T18:02:24Z</time></trkpt>
<trkpt lat="25.046046" lon="104.565651">
<time>2015-09-27T18:02:25Z</time></trkpt>
<trkpt lat="25.045896" lon="104.565251">
<time>2015-09-27T18:02:26Z</time></trkpt>
<trkpt lat="25.045775" lon="104.564841">
<time>2015-09-27T18:02:27Z</time></trkpt>
<trkpt lat="25.045635" lon="104.5643">
<time>2015-09-27T18:02:28Z</time></trkpt>
<trkpt lat="25.045473" lon="104.56352">
<time>2015-09-27T18:02:29Z</time></trkpt>
<trkpt lat="25.045272" lon="104.562809">
<time>2015-09-27T18:02:30Z</time></trkpt>
<trkpt lat="25.045052" lon="104.562249">
<time>2015-09-27T18:02:31Z</time></trkpt>
<trkpt lat="25.044851" lon="104.561868">
<time>2015-09-27T18:02:32Z</time></trkpt>
<trkpt lat="25.044591" lon="104.561468">
<time>2015-09-27T18:02:33Z</time></trkpt>
<trkpt lat="25.04431" lon="104.561098">
<time>2015-09-27T18:02:34Z</time></trkpt>
<trkpt lat="25.04399" lon="104.560757">
<time>2015-09-27T18:02:35Z</time></trkpt>
<trkpt lat="25.043559" lon="104.560347">
<time>2015-09-27T18:02:36Z</time></trkpt>
<trkpt lat="25.043198" lon="104.560027">
<time>2015-09-27T18:02:37Z</time></trkpt>
<trkpt lat="25.042918" lon="104.559736">
<time>2015-09-27T18:02:38Z</time></trkpt>
<trkpt lat="25.042698" lon="104.559446">
<time>2015-09-27T18:02:39Z</time></trkpt>
<trkpt lat="25.042537" lon="104.559186">
<time>2015-09-27T18:02:40Z</time></trkpt>
<trkpt lat="25.042407" lon="104.558906">
<time>2015-09-27T18:02:41Z</time></trkpt>
<trkpt lat="25.042326" lon="104.558655">
<time>2015-09-27T18:02:42Z</time></trkpt>
<trkpt lat="25.042276" lon="104.558385">
<time>2015-09-27T18:02:43Z</time></trkpt>
<trkpt lat="25.042246" lon="104.558215">
<time>2015-09-27T18:02:44Z</time></trkpt>
<trkpt lat="25.042225" lon="104.557975">
<time>2015-09-27T18:02:45Z</time></trkpt>
<trkpt lat="25.042215" lon="104.557694">
<time>2015-09-27T18:02:46Z</time></trkpt>
<trkpt lat="25.042215" lon="104.557664">
<time>2015-09-27T18:02:47Z</time></trkpt>
<trkpt lat="25.042234" lon="104.557404">
<time>2015-09-27T18:02:48Z</time></trkpt>
<trkpt lat="25.042293" lon="104.556643">
<time>2015-09-27T18:02:49Z</time></trkpt>
<trkpt lat="25.042302" lon="104.556143">
<time>2015-09-27T18:02:50Z</time></trkpt>
<trkpt lat="25.042292" lon="104.555832">
<time>2015-09-27T18:02:51Z</time></trkpt>
<trkpt lat="25.042251" lon="104.555542">
<time>2015-09-27T18:02:52Z</time></trkpt>
<trkpt lat="25.042201" lon="104.555342">
<time>2015-09-27T18:02:53Z</time></trkpt>
<trkpt lat="25.04211" lon="104.555071">
<time>2015-09-27T18:02:54Z</time></trkpt>
<trkpt lat="25.04199" lon="104.554771">
<time>2015-09-27T18:02:55Z</time></trkpt>
<trkpt lat="25.041839" lon="104.554451">
<time>2015-09-27T18:02:56Z</time></trkpt>
<trkpt lat="25.041398" lon="104.55363">
<time>2015-09-27T18:02:57Z</time></trkpt>
<trkpt lat="25.041257" lon="104.553289">
<time>2015-09-27T18:02:58Z</time></trkpt>
<trkpt lat="25.041247" lon="104.553269">
<time>2015-09-27T18:02:59Z</time></trkpt>
<trkpt lat="25.040976" lon="104.552619">
<time>2015-09-27T18:03:00Z</time></trkpt>
<trkpt lat="25.040364" lon="104.551407">
<time>2015-09-27T18:03:01Z</time></trkpt>
<trkpt lat="25.040123" lon="104.550916">
<time>2015-09-27T18:03:02Z</time></trkpt>
<trkpt lat="25.039952" lon="104.550506">
<time>2015-09-27T18:03:03Z</time></trkpt>
<trkpt lat="25.039852" lon="104.550225">
<time>2015-09-27T18:03:04Z</time></trkpt>
<trkpt lat="25.039751" lon="104.549945">
<time>2015-09-27T18:03:05Z</time></trkpt>
<trkpt lat="25.03962" lon="104.549434">
<time>2015-09-27T18:03:06Z</time></trkpt>
<trkpt lat="25.03958" lon="104.549204">
<time>2015-09-27T18:03:07Z</time></trkpt>
<trkpt lat="25.039559" lon="104.548944">
<time>2015-09-27T18:03:08Z</time></trkpt>
<trkpt lat="25.039508" lon="104.548513">
<time>2015-09-27T18:03:09Z</time></trkpt>
<trkpt lat="25.039425" lon="104.547091">
<time>2015-09-27T18:03:10Z</time></trkpt>
<trkpt lat="25.03928" lon="104.544597">
<time>2015-09-27T18:03:11Z</time></trkpt>
<trkpt lat="25.039228" lon="104.543786">
<time>2015-09-27T18:03:12Z</time></trkpt>
<trkpt lat="25.039135" lon="104.542293">
<time>2015-09-27T18:03:13Z</time></trkpt>
<trkpt lat="25.039083" lon="104.541422">
<time>2015-09-27T18:03:14Z</time></trkpt>
<trkpt lat="25.039031" lon="104.5406">
<time>2015-09-27T18:03:15Z</time></trkpt>
<trkpt lat="25.038969" lon="104.539819">
<time>2015-09-27T18:03:16Z</time></trkpt>
<trkpt lat="25.038878" lon="104.539058">
<time>2015-09-27T18:03:17Z</time></trkpt>
<trkpt lat="25.038756" lon="104.538316">
<time>2015-09-27T18:03:18Z</time></trkpt>
<trkpt lat="25.038594" lon="104.537505">
<time>2015-09-27T18:03:19Z</time></trkpt>
<trkpt lat="25.038361" lon="104.536312">
<time>2015-09-27T18:03:20Z</time></trkpt>
<trkpt lat="25.03822" lon="104.535661">
<time>2015-09-27T18:03:21Z</time></trkpt>
<trkpt lat="25.037865" lon="104.533788">
<time>2015-09-27T18:03:22Z</time></trkpt>
<trkpt lat="25.037723" lon="104.533136">
<time>2015-09-27T18:03:23Z</time></trkpt>
<trkpt lat="25.037592" lon="104.532665">
<time>2015-09-27T18:03:24Z</time></trkpt>
<trkpt lat="25.037431" lon="104.532194">
<time>2015-09-27T18:03:25Z</time></trkpt>
<trkpt lat="25.037149" lon="104.531503">
<time>2015-09-27T18:03:26Z</time></trkpt>
<trkpt lat="25.036657" lon="104.530431">
<time>2015-09-27T18:03:27Z</time></trkpt>
<trkpt lat="25.036445" lon="104.5299">
<time>2015-09-27T18:03:28Z</time></trkpt>
<trkpt lat="25.036334" lon="104.529539">
<time>2015-09-27T18:03:29Z</time></trkpt>
<trkpt lat="25.036203" lon="104.528978">
<time>2015-09-27T18:03:30Z</time></trkpt>
<trkpt lat="25.036132" lon="104.528557">
<time>2015-09-27T18:03:31Z</time></trkpt>
<trkpt lat="25.036091" lon="104.528106">
<time>2015-09-27T18:03:32Z</time></trkpt>
<trkpt lat="25.03608" lon="104.527775">
<time>2015-09-27T18:03:33Z</time></trkpt>
<trkpt lat="25.036108" lon="104.527144">
<time>2015-09-27T18:03:34Z</time></trkpt>
<trkpt lat="25.036157" lon="104.526713">
<time>2015-09-27T18:03:35Z</time></trkpt>
<trkpt lat="25.036265" lon="104.526142">
<time>2015-09-27T18:03:36Z</time></trkpt>
<trkpt lat="25.036394" lon="104.52564">
<time>2015-09-27T18:03:37Z</time></trkpt>
<trkpt lat="25.036622" lon="104.525029">
<time>2015-09-27T18:03:38Z</time></trkpt>
<trkpt lat="25.037348" lon="104.523325">
<time>2015-09-27T18:03:39Z</time></trkpt>
<trkpt lat="25.038122" lon="104.521501">
<time>2015-09-27T18:03:40Z</time></trkpt>
<trkpt lat="25.038232" lon="104.52125">
<time>2015-09-27T18:03:41Z</time></trkpt>
<trkpt lat="25.038917" lon="104.519667">
<time>2015-09-27T18:03:42Z</time></trkpt>
<trkpt lat="25.039136" lon="104.519135">
<time>2015-09-27T18:03:43Z</time></trkpt>
<trkpt lat="25.039364" lon="104.518474">
<time>2015-09-27T18:03:44Z</time></trkpt>
<trkpt lat="25.039453" lon="104.518043">
<time>2015-09-27T18:03:45Z</time></trkpt>
<trkpt lat="25.039492" lon="104.517682">
<time>2015-09-27T18:03:46Z</time></trkpt>
<trkpt lat="25.03951" lon="104.517301">
<time>2015-09-27T18:03:47Z</time></trkpt>
<trkpt lat="25.0395" lon="104.51697">
<time>2015-09-27T18:03:48Z</time></trkpt>
<trkpt lat="25.039428" lon="104.516268">
<time>2015-09-27T18:03:49Z</time></trkpt>
<trkpt lat="25.039335" lon="104.515497">
<time>2015-09-27T18:03:50Z</time></trkpt>
<trkpt lat="25.039284" lon="104.514935">
<time>2015-09-27T18:03:51Z</time></trkpt>
<trkpt lat="25.039252" lon="104.514284">
<time>2015-09-27T18:03:52Z</time></trkpt>
<trkpt lat="25.03923" lon="104.513792">
<time>2015-09-27T18:03:53Z</time></trkpt>
<trkpt lat="25.039228" lon="104.51285">
<time>2015-09-27T18:03:54Z</time></trkpt>
<trkpt lat="25.039225" lon="104.512008">
<time>2015-09-27T18:03:55Z</time></trkpt>
<trkpt lat="25.039183" lon="104.511406">
<time>2015-09-27T18:03:56Z</time></trkpt>
<trkpt lat="25.039081" lon="104.510715">
<time>2015-09-27T18:03:57Z</time></trkpt>
<trkpt lat="25.03896" lon="104.510183">
<time>2015-09-27T18:03:58Z</time></trkpt>
<trkpt lat="25.038829" lon="104.509712">
<time>2015-09-27T18:03:59Z</time></trkpt>
<trkpt lat="25.038728" lon="104.509411">
<time>2015-09-27T18:04:00Z</time></trkpt>
<trkpt lat="25.038506" lon="104.50885">
<time>2015-09-27T18:04:01Z</time></trkpt>
<trkpt lat="25.038355" lon="104.508519">
<time>2015-09-27T18:04:02Z</time></trkpt>
<trkpt lat="25.038345" lon="104.508499">
<time>2015-09-27T18:04:03Z</time></trkpt>
<trkpt lat="25.038134" lon="104.508108">
<time>2015-09-27T18:04:04Z</time></trkpt>
<trkpt lat="25.037792" lon="104.507547">
<time>2015-09-27T18:04:05Z</time></trkpt>
<trkpt lat="25.037611" lon="104.507266">
<time>2015-09-27T18:04:06Z</time></trkpt>
<trkpt lat="25.037481" lon="104.507096">
<time>2015-09-27T18:04:07Z</time></trkpt>
<trkpt lat="25.03721" lon="104.506745">
<time>2015-09-27T18:04:08Z</time></trkpt>
<trkpt lat="25.036708" lon="104.506133">
<time>2015-09-27T18:04:09Z</time></trkpt>
<trkpt lat="25.035825" lon="104.50503">
<time>2015-09-27T18:04:10Z</time></trkpt>
<trkpt lat="25.035403" lon="104.504469">
<time>2015-09-27T18:04:11Z</time></trkpt>
<trkpt lat="25.035203" lon="104.504188">
<time>2015-09-27T18:04:12Z</time></trkpt>
<trkpt lat="25.035042" lon="104.503897">
<time>2015-09-27T18:04:13Z</time></trkpt>
<trkpt lat="25.034891" lon="104.503557">
<time>2015-09-27T18:04:14Z</time></trkpt>
<trkpt lat="25.03478" lon="104.503286">
<time>2015-09-27T18:04:15Z</time></trkpt>
<trkpt lat="25.034679" lon="104.502975">
<time>2015-09-27T18:04:16Z</time></trkpt>
<trkpt lat="25.034588" lon="104.502624">
<time>2015-09-27T18:04:17Z</time></trkpt>
<trkpt lat="25.034527" lon="104.502374">
<time>2015-09-27T18:04:18Z</time></trkpt>
<trkpt lat="25.034486" lon="104.502073">
<time>2015-09-27T18:04:19Z</time></trkpt>
<trkpt lat="25.034435" lon="104.501591">
<time>2015-09-27T18:04:20Z</time></trkpt>
<trkpt lat="25.034352" lon="104.500809">
<time>2015-09-27T18:04:21Z</time></trkpt>
<trkpt lat="25.03429" lon="104.500017">
<time>2015-09-27T18:04:22Z</time></trkpt>
<trkpt lat="25.034259" lon="104.499797">
<time>2015-09-27T18:04:23Z</time></trkpt>
<trkpt lat="25.034218" lon="104.499446">
<time>2015-09-27T18:04:24Z</time></trkpt>
<trkpt lat="25.034117" lon="104.498985">
<time>2015-09-27T18:04:25Z</time></trkpt>
<trkpt lat="25.033976" lon="104.498554">
<time>2015-09-27T18:04:26Z</time></trkpt>
<trkpt lat="25.033835" lon="104.498193">
<time>2015-09-27T18:04:27Z</time></trkpt>
<trkpt lat="25.033684" lon="104.497932">
<time>2015-09-27T18:04:28Z</time></trkpt>
<trkpt lat="25.033392" lon="104.497451">
<time>2015-09-27T18:04:29Z</time></trkpt>
<trkpt lat="25.032991" lon="104.496809">
<time>2015-09-27T18:04:30Z</time></trkpt>
<trkpt lat="25.032127" lon="104.495446">
<time>2015-09-27T18:04:31Z</time></trkpt>
<trkpt lat="25.031373" lon="104.494242">
<time>2015-09-27T18:04:32Z</time></trkpt>
<trkpt lat="25.031162" lon="104.493871">
<time>2015-09-27T18:04:33Z</time></trkpt>
<trkpt lat="25.031061" lon="104.493641">
<time>2015-09-27T18:04:34Z</time></trkpt>
<trkpt lat="25.03095" lon="104.49335">
<time>2015-09-27T18:04:35Z</time></trkpt>
<trkpt lat="25.03087" lon="104.493049">
<time>2015-09-27T18:04:36Z</time></trkpt>
<trkpt lat="25.030819" lon="104.492718">
<time>2015-09-27T18:04:37Z</time></trkpt>
<trkpt lat="25.030798" lon="104.492508">
<time>2015-09-27T18:04:38Z</time></trkpt>
<trkpt lat="25.030797" lon="104.492077">
<time>2015-09-27T18:04:39Z</time></trkpt>
<trkpt lat="25.030845" lon="104.491455">
<time>2015-09-27T18:04:40Z</time></trkpt>
<trkpt lat="25.030883" lon="104.490793">
<time>2015-09-27T18:04:41Z</time></trkpt>
<trkpt lat="25.030882" lon="104.490493">
<time>2015-09-27T18:04:42Z</time></trkpt>
<trkpt lat="25.030861" lon="104.490192">
<time>2015-09-27T18:04:43Z</time></trkpt>
<trkpt lat="25.03082" lon="104.489931">
<time>2015-09-27T18:04:44Z</time></trkpt>
<trkpt lat="25.030759" lon="104.489671">
<time>2015-09-27T18:04:45Z</time></trkpt>
<trkpt lat="25.030648" lon="104.48934">
<time>2015-09-27T18:04:46Z</time></trkpt>
<trkpt lat="25.030528" lon="104.489059">
<time>2015-09-27T18:04:47Z</time></trkpt>
<trkpt lat="25.030437" lon="104.488848">
<time>2015-09-27T18:04:48Z</time></trkpt>
<trkpt lat="25.030145" lon="104.488277">
<time>2015-09-27T18:04:49Z</time></trkpt>
<trkpt lat="25.030015" lon="104.488006">
<time>2015-09-27T18:04:50Z</time></trkpt>
<trkpt lat="25.029924" lon="104.487776">
<time>2015-09-27T18:04:51Z</time></trkpt>
<trkpt lat="25.029843" lon="104.487545">
<time>2015-09-27T18:04:52Z</time></trkpt>
<trkpt lat="25.029783" lon="104.487325">
<time>2015-09-27T18:04:53Z</time></trkpt>
<trkpt lat="25.029742" lon="104.487064">
<time>2015-09-27T18:04:54Z</time></trkpt>
<trkpt lat="25.029721" lon="104.486733">
<time>2015-09-27T18:04:55Z</time></trkpt>
<trkpt lat="25.02972" lon="104.486372">
<time>2015-09-27T18:04:56Z</time></trkpt>
<trkpt lat="25.029778" lon="104.485841">
<time>2015-09-27T18:04:57Z</time></trkpt>
<trkpt lat="25.029994" lon="104.484377">
<time>2015-09-27T18:04:58Z</time></trkpt>
<trkpt lat="25.030023" lon="104.484176">
<time>2015-09-27T18:04:59Z</time></trkpt>
<trkpt lat="25.030111" lon="104.483515">
<time>2015-09-27T18:05:00Z</time></trkpt>
<trkpt lat="25.03017" lon="104.482903">
<time>2015-09-27T18:05:01Z</time></trkpt>
<trkpt lat="25.030178" lon="104.482452">
<time>2015-09-27T18:05:02Z</time></trkpt>
<trkpt lat="25.030187" lon="104.481941">
<time>2015-09-27T18:05:03Z</time></trkpt>
<trkpt lat="25.030155" lon="104.481319">
<time>2015-09-27T18:05:04Z</time></trkpt>
<trkpt lat="25.030093" lon="104.480678">
<time>2015-09-27T18:05:05Z</time></trkpt>
<trkpt lat="25.029981" lon="104.479926">
<time>2015-09-27T18:05:06Z</time></trkpt>
<trkpt lat="25.029859" lon="104.479414">
<time>2015-09-27T18:05:07Z</time></trkpt>
<trkpt lat="25.029688" lon="104.478763">
<time>2015-09-27T18:05:08Z</time></trkpt>
<trkpt lat="25.029455" lon="104.477901">
<time>2015-09-27T18:05:09Z</time></trkpt>
<trkpt lat="25.029344" lon="104.47744">
<time>2015-09-27T18:05:10Z</time></trkpt>
<trkpt lat="25.029324" lon="104.477359">
<time>2015-09-27T18:05:11Z</time></trkpt>
<trkpt lat="25.029273" lon="104.477059">
<time>2015-09-27T18:05:12Z</time></trkpt>
<trkpt lat="25.029192" lon="104.476648">
<time>2015-09-27T18:05:13Z</time></trkpt>
<trkpt lat="25.02911" lon="104.476026">
<time>2015-09-27T18:05:14Z</time></trkpt>
<trkpt lat="25.029069" lon="104.475565">
<time>2015-09-27T18:05:15Z</time></trkpt>
<trkpt lat="25.029014" lon="104.473961">
<time>2015-09-27T18:05:16Z</time></trkpt>
<trkpt lat="25.028959" lon="104.472217">
<time>2015-09-27T18:05:17Z</time></trkpt>
<trkpt lat="25.028883" lon="104.469972">
<time>2015-09-27T18:05:18Z</time></trkpt>
<trkpt lat="25.028873" lon="104.469721">
<time>2015-09-27T18:05:19Z</time></trkpt>
<trkpt lat="25.028842" lon="104.46933">
<time>2015-09-27T18:05:20Z</time></trkpt>
<trkpt lat="25.028801" lon="104.46898">
<time>2015-09-27T18:05:21Z</time></trkpt>
<trkpt lat="25.028729" lon="104.468559">
<time>2015-09-27T18:05:22Z</time></trkpt>
<trkpt lat="25.028628" lon="104.468128">
<time>2015-09-27T18:05:23Z</time></trkpt>
<trkpt lat="25.028487" lon="104.467707">
<time>2015-09-27T18:05:24Z</time></trkpt>
<trkpt lat="25.028266" lon="104.467216">
<time>2015-09-27T18:05:25Z</time></trkpt>
<trkpt lat="25.028075" lon="104.466835">
<time>2015-09-27T18:05:26Z</time></trkpt>
<trkpt lat="25.027774" lon="104.466384">
<time>2015-09-27T18:05:27Z</time></trkpt>
<trkpt lat="25.027413" lon="104.465923">
<time>2015-09-27T18:05:28Z</time></trkpt>
<trkpt lat="25.027032" lon="104.465552">
<time>2015-09-27T18:05:29Z</time></trkpt>
<trkpt lat="25.026751" lon="104.465311">
<time>2015-09-27T18:05:30Z</time></trkpt>
<trkpt lat="25.026391" lon="104.465051">
<time>2015-09-27T18:05:31Z</time></trkpt>
<trkpt lat="25.02589" lon="104.46475">
<time>2015-09-27T18:05:32Z</time></trkpt>
<trkpt lat="25.025389" lon="104.46453">
<time>2015-09-27T18:05:33Z</time></trkpt>
<trkpt lat="25.024939" lon="104.464389">
<time>2015-09-27T18:05:34Z</time></trkpt>
<trkpt lat="25.024419" lon="104.464269">
<time>2015-09-27T18:05:35Z</time></trkpt>
<trkpt lat="25.023919" lon="104.464229">
<time>2015-09-27T18:05:36Z</time></trkpt>
<trkpt lat="25.023389" lon="104.464229">
<time>2015-09-27T18:05:37Z</time></trkpt>
<trkpt lat="25.022019" lon="104.464259">
<time>2015-09-27T18:05:38Z</time></trkpt>
<trkpt lat="25.020639" lon="104.464299">
<time>2015-09-27T18:05:39Z</time></trkpt>
<trkpt lat="25.01829" lon="104.46433">
<time>2015-09-27T18:05:40Z</time></trkpt>
<trkpt lat="25.01717" lon="104.46435">
<time>2015-09-27T18:05:41Z</time></trkpt>
<trkpt lat="25.01692" lon="104.46435">
<time>2015-09-27T18:05:42Z</time></trkpt>
<trkpt lat="25.01668" lon="104.46434">
<time>2015-09-27T18:05:43Z</time></trkpt>
<trkpt lat="25.01643" lon="104.46431">
<time>2015-09-27T18:05:44Z</time></trkpt>
<trkpt lat="25.01619" lon="104.464259">
<time>2015-09-27T18:05:45Z</time></trkpt>
<trkpt lat="25.01587" lon="104.464159">
<time>2015-09-27T18:05:46Z</time></trkpt>
<trkpt lat="25.015499" lon="104.463989">
<time>2015-09-27T18:05:47Z</time></trkpt>
<trkpt lat="25.015219" lon="104.463809">
<time>2015-09-27T18:05:48Z</time></trkpt>
<trkpt lat="25.015199" lon="104.463799">
<time>2015-09-27T18:05:49Z</time></trkpt>
<trkpt lat="25.015058" lon="104.463698">
<time>2015-09-27T18:05:50Z</time></trkpt>
<trkpt lat="25.014988" lon="104.463638">
<time>2015-09-27T18:05:51Z</time></trkpt>
<trkpt lat="25.014798" lon="104.463478">
<time>2015-09-27T18:05:52Z</time></trkpt>
<trkpt lat="25.014617" lon="104.463287">
<time>2015-09-27T18:05:53Z</time></trkpt>
<trkpt lat="25.014326" lon="104.462887">
<time>2015-09-27T18:05:54Z</time></trkpt>
<trkpt lat="25.014075" lon="104.462466">
<time>2015-09-27T18:05:55Z</time></trkpt>
<trkpt lat="25.013895" lon="104.462125">
<time>2015-09-27T18:05:56Z</time></trkpt>
<trkpt lat="25.01289" lon="104.460101">
<time>2015-09-27T18:05:57Z</time></trkpt>
<trkpt lat="25.012568" lon="104.45947">
<time>2015-09-27T18:05:58Z</time></trkpt>
<trkpt lat="25.012267" lon="104.458949">
<time>2015-09-27T18:05:59Z</time></trkpt>
<trkpt lat="25.012066" lon="104.458658">
<time>2015-09-27T18:06:00Z</time></trkpt>
<trkpt lat="25.011836" lon="104.458407">
<time>2015-09-27T18:06:01Z</time></trkpt>
<trkpt lat="25.011615" lon="104.458227">
<time>2015-09-27T18:06:02Z</time></trkpt>
<trkpt lat="25.011355" lon="104.458047">
<time>2015-09-27T18:06:03Z</time></trkpt>
<trkpt lat="25.011075" lon="104.457906">
<time>2015-09-27T18:06:04Z</time></trkpt>
<trkpt lat="25.010734" lon="104.457776">
<time>2015-09-27T18:06:05Z</time></trkpt>
<trkpt lat="25.009804" lon="104.457556">
<time>2015-09-27T18:06:06Z</time></trkpt>
<trkpt lat="25.009614" lon="104.457506">
<time>2015-09-27T18:06:07Z</time></trkpt>
<trkpt lat="25.009364" lon="104.457426">
<time>2015-09-27T18:06:08Z</time></trkpt>
<trkpt lat="25.009043" lon="104.457305">
<time>2015-09-27T18:06:09Z</time></trkpt>
<trkpt lat="25.008823" lon="104.457185">
<time>2015-09-27T18:06:10Z</time></trkpt>
<trkpt lat="25.008593" lon="104.457045">
<time>2015-09-27T18:06:11Z</time></trkpt>
<trkpt lat="25.008583" lon="104.457045">
<time>2015-09-27T18:06:12Z</time></trkpt>
<trkpt lat="25.008413" lon="104.456915">
<time>2015-09-27T18:06:13Z</time></trkpt>
<trkpt lat="25.007832" lon="104.456414">
<time>2015-09-27T18:06:14Z</time></trkpt>
<trkpt lat="25.007391" lon="104.455983">
<time>2015-09-27T18:06:15Z</time></trkpt>
<trkpt lat="25.00703" lon="104.455652">
<time>2015-09-27T18:06:16Z</time></trkpt>
<trkpt lat="25.006719" lon="104.455422">
<time>2015-09-27T18:06:17Z</time></trkpt>
<trkpt lat="25.006439" lon="104.455272">
<time>2015-09-27T18:06:18Z</time></trkpt>
<trkpt lat="25.006159" lon="104.455131">
<time>2015-09-27T18:06:19Z</time></trkpt>
<trkpt lat="25.005809" lon="104.455001">
<time>2015-09-27T18:06:20Z</time></trkpt>
<trkpt lat="25.005338" lon="104.454891">
<time>2015-09-27T18:06:21Z</time></trkpt>
<trkpt lat="25.004648" lon="104.454791">
<time>2015-09-27T18:06:22Z</time></trkpt>
<trkpt lat="25.004448" lon="104.454761">
<time>2015-09-27T18:06:23Z</time></trkpt>
<trkpt lat="25.004038" lon="104.454681">
<time>2015-09-27T18:06:24Z</time></trkpt>
<trkpt lat="25.003708" lon="104.45459">
<time>2015-09-27T18:06:25Z</time></trkpt>
<trkpt lat="25.003328" lon="104.45447">
<time>2015-09-27T18:06:26Z</time></trkpt>
<trkpt lat="25.002817" lon="104.45427">
<time>2015-09-27T18:06:27Z</time></trkpt>
<trkpt lat="25.002577" lon="104.45414">
<time>2015-09-27T18:06:28Z</time></trkpt>
<trkpt lat="25.002567" lon="104.45414">
<time>2015-09-27T18:06:29Z</time></trkpt>
<trkpt lat="25.002517" lon="104.45411">
<time>2015-09-27T18:06:30Z</time></trkpt>
<trkpt lat="25.002327" lon="104.454009">
<time>2015-09-27T18:06:31Z</time></trkpt>
<trkpt lat="25.001866" lon="104.453729">
<time>2015-09-27T18:06:32Z</time></trkpt>
<trkpt lat="25.001285" lon="104.453298">
<time>2015-09-27T18:06:33Z</time></trkpt>
<trkpt lat="25.000774" lon="104.452877">
<time>2015-09-27T18:06:34Z</time></trkpt>
<trkpt lat="25.000464" lon="104.452627">
<time>2015-09-27T18:06:35Z</time></trkpt>
<trkpt lat="25.000213" lon="104.452447">
<time>2015-09-27T18:06:36Z</time></trkpt>
<trkpt lat="25.000013" lon="104.452326">
<time>2015-09-27T18:06:37Z</time></trkpt>
<trkpt lat="24.999683" lon="104.452106">
<time>2015-09-27T18:06:38Z</time></trkpt>
<trkpt lat="24.999122" lon="104.451856">
<time>2015-09-27T18:06:39Z</time></trkpt>
<trkpt lat="24.998352" lon="104.451615">
<time>2015-09-27T18:06:40Z</time></trkpt>
<trkpt lat="24.997302" lon="104.451405">
<time>2015-09-27T18:06:41Z</time></trkpt>
<trkpt lat="24.996521" lon="104.451235">
<time>2015-09-27T18:06:42Z</time></trkpt>
<trkpt lat="24.996141" lon="104.451104">
<time>2015-09-27T18:06:43Z</time></trkpt>
<trkpt lat="24.995561" lon="104.450824">
<time>2015-09-27T18:06:44Z</time></trkpt>
<trkpt lat="24.99499" lon="104.450513">
<time>2015-09-27T18:06:45Z</time></trkpt>
<trkpt lat="24.994299" lon="104.450093">
<time>2015-09-27T18:06:46Z</time></trkpt>
<trkpt lat="24.993739" lon="104.449842">
<time>2015-09-27T18:06:47Z</time></trkpt>
<trkpt lat="24.993408" lon="104.449742">
<time>2015-09-27T18:06:48Z</time></trkpt>
<trkpt lat="24.993028" lon="104.449702">
<time>2015-09-27T18:06:49Z</time></trkpt>
<trkpt lat="24.992668" lon="104.449682">
<time>2015-09-27T18:06:50Z</time></trkpt>
<trkpt lat="24.992379" lon="104.449742">
<time>2015-09-27T18:06:51Z</time></trkpt>
<trkpt lat="24.992129" lon="104.449802">
<time>2015-09-27T18:06:52Z</time></trkpt>
<trkpt lat="24.991789" lon="104.449912">
<time>2015-09-27T18:06:53Z</time></trkpt>
<trkpt lat="24.99134" lon="104.450123">
<time>2015-09-27T18:06:54Z</time></trkpt>
<trkpt lat="24.990451" lon="104.450554">
<time>2015-09-27T18:06:55Z</time></trkpt>
<trkpt lat="24.989432" lon="104.450994">
<time>2015-09-27T18:06:56Z</time></trkpt>
<trkpt lat="24.989042" lon="104.451105">
<time>2015-09-27T18:06:57Z</time></trkpt>
<trkpt lat="24.988552" lon="104.451205">
<time>2015-09-27T18:06:58Z</time></trkpt>
<trkpt lat="24.988112" lon="104.451245">
<time>2015-09-27T18:06:59Z</time></trkpt>
<trkpt lat="24.987692" lon="104.451245">
<time>2015-09-27T18:07:00Z</time></trkpt>
<trkpt lat="24.987272" lon="104.451205">
<time>2015-09-27T18:07:01Z</time></trkpt>
<trkpt lat="24.986662" lon="104.451045">
<time>2015-09-27T18:07:02Z</time></trkpt>
<trkpt lat="24.985912" lon="104.450734">
<time>2015-09-27T18:07:03Z</time></trkpt>
<trkpt lat="24.985341" lon="104.450373">
<time>2015-09-27T18:07:04Z</time></trkpt>
<trkpt lat="24.98477" lon="104.449843">
<time>2015-09-27T18:07:05Z</time></trkpt>
<trkpt lat="24.984158" lon="104.449192">
<time>2015-09-27T18:07:06Z</time></trkpt>
<trkpt lat="24.983788" lon="104.448701">
<time>2015-09-27T18:07:07Z</time></trkpt>
<trkpt lat="24.983557" lon="104.44843">
<time>2015-09-27T18:07:08Z</time></trkpt>
<trkpt lat="24.983276" lon="104.44813">
<time>2015-09-27T18:07:09Z</time></trkpt>
<trkpt lat="24.982766" lon="104.447679">
<time>2015-09-27T18:07:10Z</time></trkpt>
<trkpt lat="24.982035" lon="104.447188">
<time>2015-09-27T18:07:11Z</time></trkpt>
<trkpt lat="24.981174" lon="104.446848">
<time>2015-09-27T18:07:12Z</time></trkpt>
<trkpt lat="24.981084" lon="104.446808">
<time>2015-09-27T18:07:13Z</time></trkpt>
<trkpt lat="24.981014" lon="104.446798">
<time>2015-09-27T18:07:14Z</time></trkpt>
<trkpt lat="24.980044" lon="104.446607">
<time>2015-09-27T18:07:15Z</time></trkpt>
<trkpt lat="24.979094" lon="104.446597">
<time>2015-09-27T18:07:16Z</time></trkpt>
<trkpt lat="24.978324" lon="104.446708">
<time>2015-09-27T18:07:17Z</time></trkpt>
<trkpt lat="24.977654" lon="104.446838">
<time>2015-09-27T18:07:18Z</time></trkpt>
<trkpt lat="24.976895" lon="104.447038">
<time>2015-09-27T18:07:19Z</time></trkpt>
<trkpt lat="24.976565" lon="104.447098">
<time>2015-09-27T18:07:20Z</time></trkpt>
<trkpt lat="24.976275" lon="104.447128">
<time>2015-09-27T18:07:21Z</time></trkpt>
<trkpt lat="24.975935" lon="104.447148">
<time>2015-09-27T18:07:22Z</time></trkpt>
<trkpt lat="24.975625" lon="104.447138">
<time>2015-09-27T18:07:23Z</time></trkpt>
<trkpt lat="24.975225" lon="104.447078">
<time>2015-09-27T18:07:24Z</time></trkpt>
<trkpt lat="24.974525" lon="104.446938">
<time>2015-09-27T18:07:25Z</time></trkpt>
<trkpt lat="24.974235" lon="104.446848">
<time>2015-09-27T18:07:26Z</time></trkpt>
<trkpt lat="24.974215" lon="104.446838">
<time>2015-09-27T18:07:27Z</time></trkpt>
<trkpt lat="24.974005" lon="104.446758">
<time>2015-09-27T18:07:28Z</time></trkpt>
<trkpt lat="24.973825" lon="104.446678">
<time>2015-09-27T18:07:29Z</time></trkpt>
<trkpt lat="24.973584" lon="104.446558">
<time>2015-09-27T18:07:30Z</time></trkpt>
<trkpt lat="24.973354" lon="104.446417">
<time>2015-09-27T18:07:31Z</time></trkpt>
<trkpt lat="24.973234" lon="104.446337">
<time>2015-09-27T18:07:32Z</time></trkpt>
<trkpt lat="24.973144" lon="104.446267">
<time>2015-09-27T18:07:33Z</time></trkpt>
<trkpt lat="24.972864" lon="104.446057">
<time>2015-09-27T18:07:34Z</time></trkpt>
<trkpt lat="24.972493" lon="104.445726">
<time>2015-09-27T18:07:35Z</time></trkpt>
<trkpt lat="24.972092" lon="104.445276">
<time>2015-09-27T18:07:36Z</time></trkpt>
<trkpt lat="24.971831" lon="104.444925">
<time>2015-09-27T18:07:37Z</time></trkpt>
<trkpt lat="24.971591" lon="104.444555">
<time>2015-09-27T18:07:38Z</time></trkpt>
<trkpt lat="24.9714" lon="104.444214">
<time>2015-09-27T18:07:39Z</time></trkpt>
<trkpt lat="24.971179" lon="104.443773">
<time>2015-09-27T18:07:40Z</time></trkpt>
<trkpt lat="24.971029" lon="104.443363">
<time>2015-09-27T18:07:41Z</time></trkpt>
<trkpt lat="24.970948" lon="104.443082">
<time>2015-09-27T18:07:42Z</time></trkpt>
<trkpt lat="24.970807" lon="104.442552">
<time>2015-09-27T18:07:43Z</time></trkpt>
<trkpt lat="24.970706" lon="104.442131">
<time>2015-09-27T18:07:44Z</time></trkpt>
<trkpt lat="24.970615" lon="104.44154">
<time>2015-09-27T18:07:45Z</time></trkpt>
<trkpt lat="24.970524" lon="104.44098">
<time>2015-09-27T18:07:46Z</time></trkpt>
<trkpt lat="24.970494" lon="104.440779">
<time>2015-09-27T18:07:47Z</time></trkpt>
<trkpt lat="24.970413" lon="104.440379">
<time>2015-09-27T18:07:48Z</time></trkpt>
<trkpt lat="24.970343" lon="104.440038">
<time>2015-09-27T18:07:49Z</time></trkpt>
<trkpt lat="24.970282" lon="104.439748">
<time>2015-09-27T18:07:50Z</time></trkpt>
<trkpt lat="24.970201" lon="104.439357">
<time>2015-09-27T18:07:51Z</time></trkpt>
<trkpt lat="24.970141" lon="104.439077">
<time>2015-09-27T18:07:52Z</time></trkpt>
<trkpt lat="24.970041" lon="104.438817">
<time>2015-09-27T18:07:53Z</time></trkpt>
<trkpt lat="24.96997" lon="104.438637">
<time>2015-09-27T18:07:54Z</time></trkpt>
<trkpt lat="24.96988" lon="104.438456">
<time>2015-09-27T18:07:55Z</time></trkpt>
<trkpt lat="24.96978" lon="104.438296">
<time>2015-09-27T18:07:56Z</time></trkpt>
<trkpt lat="24.969599" lon="104.438066">
<time>2015-09-27T18:07:57Z</time></trkpt>
<trkpt lat="24.969309" lon="104.437806">
<time>2015-09-27T18:07:58Z</time></trkpt>
<trkpt lat="24.968999" lon="104.437605">
<time>2015-09-27T18:07:59Z</time></trkpt>
<trkpt lat="24.968718" lon="104.437465">
<time>2015-09-27T18:08:00Z</time></trkpt>
<trkpt lat="24.967848" lon="104.437125">
<time>2015-09-27T18:08:01Z</time></trkpt>
<trkpt lat="24.967578" lon="104.437025">
<time>2015-09-27T18:08:02Z</time></trkpt>
<trkpt lat="24.967188" lon="104.436814">
<time>2015-09-27T18:08:03Z</time></trkpt>
<trkpt lat="24.966887" lon="104.436594">
<time>2015-09-27T18:08:04Z</time></trkpt>
<trkpt lat="24.966577" lon="104.436314">
<time>2015-09-27T18:08:05Z</time></trkpt>
<trkpt lat="24.966156" lon="104.435793">
<time>2015-09-27T18:08:06Z</time></trkpt>
<trkpt lat="24.965364" lon="104.434662">
<time>2015-09-27T18:08:07Z</time></trkpt>
<trkpt lat="24.964883" lon="104.433991">
<time>2015-09-27T18:08:08Z</time></trkpt>
<trkpt lat="24.964673" lon="104.433651">
<time>2015-09-27T18:08:09Z</time></trkpt>
<trkpt lat="24.964513" lon="104.433381">
<time>2015-09-27T18:08:10Z</time></trkpt>
<trkpt lat="24.964392" lon="104.43309">
<time>2015-09-27T18:08:11Z</time></trkpt>
<trkpt lat="24.964282" lon="104.43274">
<time>2015-09-27T18:08:12Z</time></trkpt>
<trkpt lat="24.96404" lon="104.431699">
<time>2015-09-27T18:08:13Z</time></trkpt>
<trkpt lat="24.96399" lon="104.431459">
<time>2015-09-27T18:08:14Z</time></trkpt>
<trkpt lat="24.96392" lon="104.431229">
<time>2015-09-27T18:08:15Z</time></trkpt>
<trkpt lat="24.963779" lon="104.430938">
<time>2015-09-27T18:08:16Z</time></trkpt>
<trkpt lat="24.963619" lon="104.430648">
<time>2015-09-27T18:08:17Z</time></trkpt>
<trkpt lat="24.963448" lon="104.430418">
<time>2015-09-27T18:08:18Z</time></trkpt>
<trkpt lat="24.963308" lon="104.430238">
<time>2015-09-27T18:08:19Z</time></trkpt>
<trkpt lat="24.963078" lon="104.429988">
<time>2015-09-27T18:08:20Z</time></trkpt>
<trkpt lat="24.962848" lon="104.429777">
<time>2015-09-27T18:08:21Z</time></trkpt>
<trkpt lat="24.962627" lon="104.429577">
<time>2015-09-27T18:08:22Z</time></trkpt>
<trkpt lat="24.962167" lon="104.429207">
<time>2015-09-27T18:08:23Z</time></trkpt>
<trkpt lat="24.961516" lon="104.428676">
<time>2015-09-27T18:08:24Z</time></trkpt>
<trkpt lat="24.961156" lon="104.428386">
<time>2015-09-27T18:08:25Z</time></trkpt>
<trkpt lat="24.960806" lon="104.428086">
<time>2015-09-27T18:08:26Z</time></trkpt>
<trkpt lat="24.960095" lon="104.427506">
<time>2015-09-27T18:08:27Z</time></trkpt>
<trkpt lat="24.959444" lon="104.426915">
<time>2015-09-27T18:08:28Z</time></trkpt>
<trkpt lat="24.959234" lon="104.426705">
<time>2015-09-27T18:08:29Z</time></trkpt>
<trkpt lat="24.958724" lon="104.426195">
<time>2015-09-27T18:08:30Z</time></trkpt>
<trkpt lat="24.958684" lon="104.426145">
<time>2015-09-27T18:08:31Z</time></trkpt>
<trkpt lat="24.958223" lon="104.425554">
<time>2015-09-27T18:08:32Z</time></trkpt>
<trkpt lat="24.957942" lon="104.425024">
<time>2015-09-27T18:08:33Z</time></trkpt>
<trkpt lat="24.957772" lon="104.424594">
<time>2015-09-27T18:08:34Z</time></trkpt>
<trkpt lat="24.957632" lon="104.424143">
<time>2015-09-27T18:08:35Z</time></trkpt>
<trkpt lat="24.957531" lon="104.423753">
<time>2015-09-27T18:08:36Z</time></trkpt>
<trkpt lat="24.957461" lon="104.423313">
<time>2015-09-27T18:08:37Z</time></trkpt>
<trkpt lat="24.95745" lon="104.422733">
<time>2015-09-27T18:08:38Z</time></trkpt>
<trkpt lat="24.95748" lon="104.422232">
<time>2015-09-27T18:08:39Z</time></trkpt>
<trkpt lat="24.957489" lon="104.422172">
<time>2015-09-27T18:08:40Z</time></trkpt>
<trkpt lat="24.957599" lon="104.421312">
<time>2015-09-27T18:08:41Z</time></trkpt>
<trkpt lat="24.958076" lon="104.418811">
<time>2015-09-27T18:08:42Z</time></trkpt>
<trkpt lat="24.958126" lon="104.418431">
<time>2015-09-27T18:08:43Z</time></trkpt>
<trkpt lat="24.958136" lon="104.418021">
<time>2015-09-27T18:08:44Z</time></trkpt>
<trkpt lat="24.958085" lon="104.4175">
<time>2015-09-27T18:08:45Z</time></trkpt>
<trkpt lat="24.958075" lon="104.41747">
<time>2015-09-27T18:08:46Z</time></trkpt>
<trkpt lat="24.957975" lon="104.41706">
<time>2015-09-27T18:08:47Z</time></trkpt>
<trkpt lat="24.957865" lon="104.41672">
<time>2015-09-27T18:08:48Z</time></trkpt>
<trkpt lat="24.957644" lon="104.41631">
<time>2015-09-27T18:08:49Z</time></trkpt>
<trkpt lat="24.957344" lon="104.41575">
<time>2015-09-27T18:08:50Z</time></trkpt>
<trkpt lat="24.957134" lon="104.41534">
<time>2015-09-27T18:08:51Z</time></trkpt>
<trkpt lat="24.957124" lon="104.41532">
<time>2015-09-27T18:08:52Z</time></trkpt>
<trkpt lat="24.956923" lon="104.41489">
<time>2015-09-27T18:08:53Z</time></trkpt>
<trkpt lat="24.956713" lon="104.41435">
<time>2015-09-27T18:08:54Z</time></trkpt>
<trkpt lat="24.956563" lon="104.41378">
<time>2015-09-27T18:08:55Z</time></trkpt>
<trkpt lat="24.956442" lon="104.41329">
<time>2015-09-27T18:08:56Z</time></trkpt>
<trkpt lat="24.956332" lon="104.4127">
<time>2015-09-27T18:08:57Z</time></trkpt>
<trkpt lat="24.956252" lon="104.4122">
<time>2015-09-27T18:08:58Z</time></trkpt>
<trkpt lat="24.956182" lon="104.41184">
<time>2015-09-27T18:08:59Z</time></trkpt>
<trkpt lat="24.956071" lon="104.41139">
<time>2015-09-27T18:09:00Z</time></trkpt>
<trkpt lat="24.955921" lon="104.41082">
<time>2015-09-27T18:09:01Z</time></trkpt>
<trkpt lat="24.955851" lon="104.41061">
<time>2015-09-27T18:09:02Z</time></trkpt>
<trkpt lat="24.955551" lon="104.4097">
<time>2015-09-27T18:09:03Z</time></trkpt>
<trkpt lat="24.955351" lon="104.40922">
<time>2015-09-27T18:09:04Z</time></trkpt>
<trkpt lat="24.955301" lon="104.40914">
<time>2015-09-27T18:09:05Z</time></trkpt>
<trkpt lat="24.95516" lon="104.40887">
<time>2015-09-27T18:09:06Z</time></trkpt>
<trkpt lat="24.95496" lon="104.40848">
<time>2015-09-27T18:09:07Z</time></trkpt>
<trkpt lat="24.95471" lon="104.40802">
<time>2015-09-27T18:09:08Z</time></trkpt>
<trkpt lat="24.95439" lon="104.40746">
<time>2015-09-27T18:09:09Z</time></trkpt>
<trkpt lat="24.95417" lon="104.40714">
<time>2015-09-27T18:09:10Z</time></trkpt>
<trkpt lat="24.95379" lon="104.40663">
<time>2015-09-27T18:09:11Z</time></trkpt>
<trkpt lat="24.95338" lon="104.40611">
<time>2015-09-27T18:09:12Z</time></trkpt>
<trkpt lat="24.95287" lon="104.40555">
<time>2015-09-27T18:09:13Z</time></trkpt>
<trkpt lat="24.95232" lon="104.405021">
<time>2015-09-27T18:09:14Z</time></trkpt>
<trkpt lat="24.95191" lon="104.404641">
<time>2015-09-27T18:09:15Z</time></trkpt>
<trkpt lat="24.95153" lon="104.404281">
<time>2015-09-27T18:09:16Z</time></trkpt>
<trkpt lat="24.951029" lon="104.403781">
<time>2015-09-27T18:09:17Z</time></trkpt>
<trkpt lat="24.950649" lon="104.403301">
<time>2015-09-27T18:09:18Z</time></trkpt>
<trkpt lat="24.950419" lon="104.402911">
<time>2015-09-27T18:09:19Z</time></trkpt>
<trkpt lat="24.950169" lon="104.402412">
<time>2015-09-27T18:09:20Z</time></trkpt>
<trkpt lat="24.949969" lon="104.401852">
<time>2015-09-27T18:09:21Z</time></trkpt>
<trkpt lat="24.949849" lon="104.401362">
<time>2015-09-27T18:09:22Z</time></trkpt>
<trkpt lat="24.949829" lon="104.401252">
<time>2015-09-27T18:09:23Z</time></trkpt>
<trkpt lat="24.949769" lon="104.400902">
<time>2015-09-27T18:09:24Z</time></trkpt>
<trkpt lat="24.949739" lon="104.400413">
<time>2015-09-27T18:09:25Z</time></trkpt>
<trkpt lat="24.949699" lon="104.399143">
<time>2015-09-27T18:09:26Z</time></trkpt>
<trkpt lat="24.94958" lon="104.395905">
<time>2015-09-27T18:09:27Z</time></trkpt>
<trkpt lat="24.94949" lon="104.393567">
<time>2015-09-27T18:09:28Z</time></trkpt>
<trkpt lat="24.94949" lon="104.393527">
<time>2015-09-27T18:09:29Z</time></trkpt>
<trkpt lat="24.9495" lon="104.392778">
<time>2015-09-27T18:09:30Z</time></trkpt>
<trkpt lat="24.949351" lon="104.390051">
<time>2015-09-27T18:09:31Z</time></trkpt>
<trkpt lat="24.949312" lon="104.389391">
<time>2015-09-27T18:09:32Z</time></trkpt>
<trkpt lat="24.949222" lon="104.388612">
<time>2015-09-27T18:09:33Z</time></trkpt>
<trkpt lat="24.949122" lon="104.388013">
<time>2015-09-27T18:09:34Z</time></trkpt>
<trkpt lat="24.949003" lon="104.387473">
<time>2015-09-27T18:09:35Z</time></trkpt>
<trkpt lat="24.948853" lon="104.386984">
<time>2015-09-27T18:09:36Z</time></trkpt>
<trkpt lat="24.948673" lon="104.386454">
<time>2015-09-27T18:09:37Z</time></trkpt>
<trkpt lat="24.948404" lon="104.385825">
<time>2015-09-27T18:09:38Z</time></trkpt>
<trkpt lat="24.948164" lon="104.385356">
<time>2015-09-27T18:09:39Z</time></trkpt>
<trkpt lat="24.947764" lon="104.384637">
<time>2015-09-27T18:09:40Z</time></trkpt>
<trkpt lat="24.947535" lon="104.384227">
<time>2015-09-27T18:09:41Z</time></trkpt>
<trkpt lat="24.947015" lon="104.383278">
<time>2015-09-27T18:09:42Z</time></trkpt>
<trkpt lat="24.946806" lon="104.382889">
<time>2015-09-27T18:09:43Z</time></trkpt>
<trkpt lat="24.946307" lon="104.38185">
<time>2015-09-27T18:09:44Z</time></trkpt>
<trkpt lat="24.946247" lon="104.38173">
<time>2015-09-27T18:09:45Z</time></trkpt>
<trkpt lat="24.946207" lon="104.381621">
<time>2015-09-27T18:09:46Z</time></trkpt>
<trkpt lat="24.946047" lon="104.381091">
<time>2015-09-27T18:09:47Z</time></trkpt>
<trkpt lat="24.945947" lon="104.380792">
<time>2015-09-27T18:09:48Z</time></trkpt>
<trkpt lat="24.945928" lon="104.380712">
<time>2015-09-27T18:09:49Z</time></trkpt>
<trkpt lat="24.945888" lon="104.380582">
<time>2015-09-27T18:09:50Z</time></trkpt>
<trkpt lat="24.945708" lon="104.379853">
<time>2015-09-27T18:09:51Z</time></trkpt>
<trkpt lat="24.945589" lon="104.379254">
<time>2015-09-27T18:09:52Z</time></trkpt>
<trkpt lat="24.945519" lon="104.378755">
<time>2015-09-27T18:09:53Z</time></trkpt>
<trkpt lat="24.94548" lon="104.378295">
<time>2015-09-27T18:09:54Z</time></trkpt>
<trkpt lat="24.94545" lon="104.377846">
<time>2015-09-27T18:09:55Z</time></trkpt>
<trkpt lat="24.94541" lon="104.377397">
<time>2015-09-27T18:09:56Z</time></trkpt>
<trkpt lat="24.945371" lon="104.376957">
<time>2015-09-27T18:09:57Z</time></trkpt>
<trkpt lat="24.945331" lon="104.376628">
<time>2015-09-27T18:09:58Z</time></trkpt>
<trkpt lat="24.945222" lon="104.376059">
<time>2015-09-27T18:09:59Z</time></trkpt>
<trkpt lat="24.945092" lon="104.37553">
<time>2015-09-27T18:10:00Z</time></trkpt>
<trkpt lat="24.944913" lon="104.375">
<time>2015-09-27T18:10:01Z</time></trkpt>
<trkpt lat="24.944713" lon="104.374471">
<time>2015-09-27T18:10:02Z</time></trkpt>
<trkpt lat="24.944574" lon="104.374132">
<time>2015-09-27T18:10:03Z</time></trkpt>
<trkpt lat="24.944434" lon="104.373862">
<time>2015-09-27T18:10:04Z</time></trkpt>
<trkpt lat="24.944254" lon="104.373573">
<time>2015-09-27T18:10:05Z</time></trkpt>
<trkpt lat="24.944005" lon="104.373233">
<time>2015-09-27T18:10:06Z</time></trkpt>
<trkpt lat="24.943825" lon="104.372994">
<time>2015-09-27T18:10:07Z</time></trkpt>
<trkpt lat="24.943645" lon="104.372764">
<time>2015-09-27T18:10:08Z</time></trkpt>
<trkpt lat="24.943445" lon="104.372545">
<time>2015-09-27T18:10:09Z</time></trkpt>
<trkpt lat="24.943206" lon="104.372295">
<time>2015-09-27T18:10:10Z</time></trkpt>
<trkpt lat="24.942666" lon="104.371806">
<time>2015-09-27T18:10:11Z</time></trkpt>
<trkpt lat="24.941897" lon="104.371047">
<time>2015-09-27T18:10:12Z</time></trkpt>
<trkpt lat="24.940949" lon="104.370119">
<time>2015-09-27T18:10:13Z</time></trkpt>
<trkpt lat="24.940699" lon="104.369869">
<time>2015-09-27T18:10:14Z</time></trkpt>
<trkpt lat="24.940489" lon="104.36969">
<time>2015-09-27T18:10:15Z</time></trkpt>
<trkpt lat="24.940229" lon="104.36943">
<time>2015-09-27T18:10:16Z</time></trkpt>
<trkpt lat="24.94005" lon="104.369221">
<time>2015-09-27T18:10:17Z</time></trkpt>
<trkpt lat="24.93997" lon="104.369091">
<time>2015-09-27T18:10:18Z</time></trkpt>
<trkpt lat="24.93984" lon="104.368901">
<time>2015-09-27T18:10:19Z</time></trkpt>
<trkpt lat="24.93974" lon="104.368731">
<time>2015-09-27T18:10:20Z</time></trkpt>
<trkpt lat="24.93971" lon="104.368682">
<time>2015-09-27T18:10:21Z</time></trkpt>
<trkpt lat="24.939541" lon="104.368412">
<time>2015-09-27T18:10:22Z</time></trkpt>
<trkpt lat="24.939321" lon="104.368013">
<time>2015-09-27T18:10:23Z</time></trkpt>
<trkpt lat="24.939092" lon="104.367424">
<time>2015-09-27T18:10:24Z</time></trkpt>
<trkpt lat="24.938903" lon="104.366775">
<time>2015-09-27T18:10:25Z</time></trkpt>
<trkpt lat="24.938644" lon="104.365647">
<time>2015-09-27T18:10:26Z</time></trkpt>
<trkpt lat="24.938545" lon="104.365138">
<time>2015-09-27T18:10:27Z</time></trkpt>
<trkpt lat="24.938466" lon="104.364759">
<time>2015-09-27T18:10:28Z</time></trkpt>
<trkpt lat="24.938277" lon="104.363991">
<time>2015-09-27T18:10:29Z</time></trkpt>
<trkpt lat="24.938107" lon="104.363372">
<time>2015-09-27T18:10:30Z</time></trkpt>
<trkpt lat="24.938008" lon="104.363013">
<time>2015-09-27T18:10:31Z</time></trkpt>
<trkpt lat="24.937749" lon="104.362294">
<time>2015-09-27T18:10:32Z</time></trkpt>
<trkpt lat="24.93738" lon="104.361386">
<time>2015-09-27T18:10:33Z</time></trkpt>
<trkpt lat="24.937071" lon="104.360727">
<time>2015-09-27T18:10:34Z</time></trkpt>
<trkpt lat="24.936972" lon="104.360518">
<time>2015-09-27T18:10:35Z</time></trkpt>
<trkpt lat="24.936683" lon="104.359929">
<time>2015-09-27T18:10:36Z</time></trkpt>
<trkpt lat="24.936483" lon="104.35951">
<time>2015-09-27T18:10:37Z</time></trkpt>
<trkpt lat="24.936094" lon="104.358672">
<time>2015-09-27T18:10:38Z</time></trkpt>
<trkpt lat="24.935905" lon="104.358272">
<time>2015-09-27T18:10:39Z</time></trkpt>
<trkpt lat="24.934829" lon="104.356077">
<time>2015-09-27T18:10:40Z</time></trkpt>
<trkpt lat="24.934509" lon="104.355519">
<time>2015-09-27T18:10:41Z</time></trkpt>
<trkpt lat="24.93418" lon="104.35494">
<time>2015-09-27T18:10:42Z</time></trkpt>
<trkpt lat="24.933921" lon="104.354531">
<time>2015-09-27T18:10:43Z</time></trkpt>
<trkpt lat="24.933622" lon="104.354042">
<time>2015-09-27T18:10:44Z</time></trkpt>
<trkpt lat="24.933313" lon="104.353583">
<time>2015-09-27T18:10:45Z</time></trkpt>
<trkpt lat="24.932714" lon="104.352645">
<time>2015-09-27T18:10:46Z</time></trkpt>
<trkpt lat="24.932215" lon="104.351947">
<time>2015-09-27T18:10:47Z</time></trkpt>
<trkpt lat="24.932136" lon="104.351827">
<time>2015-09-27T18:10:48Z</time></trkpt>
<trkpt lat="24.931697" lon="104.351198">
<time>2015-09-27T18:10:49Z</time></trkpt>
<trkpt lat="24.931088" lon="104.35037">
<time>2015-09-27T18:10:50Z</time></trkpt>
<trkpt lat="24.93046" lon="104.349622">
<time>2015-09-27T18:10:51Z</time></trkpt>
<trkpt lat="24.93018" lon="104.349293">
<time>2015-09-27T18:10:52Z</time></trkpt>
<trkpt lat="24.929641" lon="104.348654">
<time>2015-09-27T18:10:53Z</time></trkpt>
<trkpt lat="24.927945" lon="104.346679">
<time>2015-09-27T18:10:54Z</time></trkpt>
<trkpt lat="24.926947" lon="104.345522">
<time>2015-09-27T18:10:55Z</time></trkpt>
<trkpt lat="24.925291" lon="104.343577">
<time>2015-09-27T18:10:56Z</time></trkpt>
<trkpt lat="24.924922" lon="104.343148">
<time>2015-09-27T18:10:57Z</time></trkpt>
<trkpt lat="24.923245" lon="104.341183">
<time>2015-09-27T18:10:58Z</time></trkpt>
<trkpt lat="24.922796" lon="104.340644">
<time>2015-09-27T18:10:59Z</time></trkpt>
<trkpt lat="24.922497" lon="104.340295">
<time>2015-09-27T18:11:00Z</time></trkpt>
<trkpt lat="24.920522" lon="104.338001">
<time>2015-09-27T18:11:01Z</time></trkpt>
<trkpt lat="24.919175" lon="104.336395">
<time>2015-09-27T18:11:02Z</time></trkpt>
<trkpt lat="24.918666" lon="104.335826">
<time>2015-09-27T18:11:03Z</time></trkpt>
<trkpt lat="24.918267" lon="104.335407">
<time>2015-09-27T18:11:04Z</time></trkpt>
<trkpt lat="24.917648" lon="104.334829">
<time>2015-09-27T18:11:05Z</time></trkpt>
<trkpt lat="24.917498" lon="104.334699">
<time>2015-09-27T18:11:06Z</time></trkpt>
<trkpt lat="24.917498" lon="104.334699">
<time>2015-09-27T18:11:07Z</time></trkpt>
<trkpt lat="24.91667" lon="104.333771">
<time>2015-09-27T18:11:08Z</time></trkpt>
<trkpt lat="24.915812" lon="104.332844">
<time>2015-09-27T18:11:09Z</time></trkpt>
<trkpt lat="24.913836" lon="104.330709">
<time>2015-09-27T18:11:10Z</time></trkpt>
<trkpt lat="24.913267" lon="104.330101">
<time>2015-09-27T18:11:11Z</time></trkpt>
<trkpt lat="24.911671" lon="104.328415">
<time>2015-09-27T18:11:12Z</time></trkpt>
<trkpt lat="24.911521" lon="104.328256">
<time>2015-09-27T18:11:13Z</time></trkpt>
<trkpt lat="24.911371" lon="104.328126">
<time>2015-09-27T18:11:14Z</time></trkpt>
<trkpt lat="24.911082" lon="104.327917">
<time>2015-09-27T18:11:15Z</time></trkpt>
<trkpt lat="24.909225" lon="104.32656">
<time>2015-09-27T18:11:16Z</time></trkpt>
<trkpt lat="24.908755" lon="104.326231">
<time>2015-09-27T18:11:17Z</time></trkpt>
<trkpt lat="24.907997" lon="104.325672">
<time>2015-09-27T18:11:18Z</time></trkpt>
<trkpt lat="24.907208" lon="104.325094">
<time>2015-09-27T18:11:19Z</time></trkpt>
<trkpt lat="24.906409" lon="104.324525">
<time>2015-09-27T18:11:20Z</time></trkpt>
<trkpt lat="24.901596" lon="104.321134">
<time>2015-09-27T18:11:21Z</time></trkpt>
<trkpt lat="24.900917" lon="104.320725">
<time>2015-09-27T18:11:22Z</time></trkpt>
<trkpt lat="24.899988" lon="104.320276">
<time>2015-09-27T18:11:23Z</time></trkpt>
<trkpt lat="24.899229" lon="104.319897">
<time>2015-09-27T18:11:24Z</time></trkpt>
<trkpt lat="24.8985" lon="104.319459">
<time>2015-09-27T18:11:25Z</time></trkpt>
<trkpt lat="24.89803" lon="104.319149">
<time>2015-09-27T18:11:26Z</time></trkpt>
<trkpt lat="24.89787" lon="104.31908">
<time>2015-09-27T18:11:27Z</time></trkpt>
<trkpt lat="24.896922" lon="104.318401">
<time>2015-09-27T18:11:28Z</time></trkpt>
<trkpt lat="24.896632" lon="104.318202">
<time>2015-09-27T18:11:29Z</time></trkpt>
<trkpt lat="24.896223" lon="104.317903">
<time>2015-09-27T18:11:30Z</time></trkpt>
<trkpt lat="24.896123" lon="104.317833">
<time>2015-09-27T18:11:31Z</time></trkpt>
<trkpt lat="24.895903" lon="104.317683">
<time>2015-09-27T18:11:32Z</time></trkpt>
<trkpt lat="24.895773" lon="104.317583">
<time>2015-09-27T18:11:33Z</time></trkpt>
<trkpt lat="24.895334" lon="104.317224">
<time>2015-09-27T18:11:34Z</time></trkpt>
<trkpt lat="24.895075" lon="104.317055">
<time>2015-09-27T18:11:35Z</time></trkpt>
<trkpt lat="24.893946" lon="104.316207">
<time>2015-09-27T18:11:36Z</time></trkpt>
<trkpt lat="24.893737" lon="104.316047">
<time>2015-09-27T18:11:37Z</time></trkpt>
<trkpt lat="24.893487" lon="104.315868">
<time>2015-09-27T18:11:38Z</time></trkpt>
<trkpt lat="24.892359" lon="104.31501">
<time>2015-09-27T18:11:39Z</time></trkpt>
<trkpt lat="24.89141" lon="104.314302">
<time>2015-09-27T18:11:40Z</time></trkpt>
<trkpt lat="24.891001" lon="104.313992">
<time>2015-09-27T18:11:41Z</time></trkpt>
<trkpt lat="24.890132" lon="104.313374">
<time>2015-09-27T18:11:42Z</time></trkpt>
<trkpt lat="24.889153" lon="104.312676">
<time>2015-09-27T18:11:43Z</time></trkpt>
<trkpt lat="24.888774" lon="104.312466">
<time>2015-09-27T18:11:44Z</time></trkpt>
<trkpt lat="24.888304" lon="104.312217">
<time>2015-09-27T18:11:45Z</time></trkpt>
<trkpt lat="24.887915" lon="104.311998">
<time>2015-09-27T18:11:46Z</time></trkpt>
<trkpt lat="24.887465" lon="104.311758">
<time>2015-09-27T18:11:47Z</time></trkpt>
<trkpt lat="24.886636" lon="104.311429">
<time>2015-09-27T18:11:48Z</time></trkpt>
<trkpt lat="24.886416" lon="104.311339">
<time>2015-09-27T18:11:49Z</time></trkpt>
<trkpt lat="24.885627" lon="104.31099">
<time>2015-09-27T18:11:50Z</time></trkpt>
<trkpt lat="24.885537" lon="104.31096">
<time>2015-09-27T18:11:51Z</time></trkpt>
<trkpt lat="24.885497" lon="104.31094">
<time>2015-09-27T18:11:52Z</time></trkpt>
<trkpt lat="24.885157" lon="104.31083">
<time>2015-09-27T18:11:53Z</time></trkpt>
<trkpt lat="24.884698" lon="104.310721">
<time>2015-09-27T18:11:54Z</time></trkpt>
<trkpt lat="24.883898" lon="104.310621">
<time>2015-09-27T18:11:55Z</time></trkpt>
<trkpt lat="24.883478" lon="104.310561">
<time>2015-09-27T18:11:56Z</time></trkpt>
<trkpt lat="24.883118" lon="104.310531">
<time>2015-09-27T18:11:57Z</time></trkpt>
<trkpt lat="24.882808" lon="104.310491">
<time>2015-09-27T18:11:58Z</time></trkpt>
<trkpt lat="24.882618" lon="104.310461">
<time>2015-09-27T18:11:59Z</time></trkpt>
<trkpt lat="24.882438" lon="104.310441">
<time>2015-09-27T18:12:00Z</time></trkpt>
<trkpt lat="24.882268" lon="104.310402">
<time>2015-09-27T18:12:01Z</time></trkpt>
<trkpt lat="24.882129" lon="104.310352">
<time>2015-09-27T18:12:02Z</time></trkpt>
<trkpt lat="24.881789" lon="104.310212">
<time>2015-09-27T18:12:03Z</time></trkpt>
<trkpt lat="24.881669" lon="104.310162">
<time>2015-09-27T18:12:04Z</time></trkpt>
<trkpt lat="24.881299" lon="104.310003">
<time>2015-09-27T18:12:05Z</time></trkpt>
<trkpt lat="24.8803" lon="104.309554">
<time>2015-09-27T18:12:06Z</time></trkpt>
<trkpt lat="24.878412" lon="104.308716">
<time>2015-09-27T18:12:07Z</time></trkpt>
<trkpt lat="24.878002" lon="104.308536">
<time>2015-09-27T18:12:08Z</time></trkpt>
<trkpt lat="24.877023" lon="104.308117">
<time>2015-09-27T18:12:09Z</time></trkpt>
<trkpt lat="24.876084" lon="104.307768">
<time>2015-09-27T18:12:10Z</time></trkpt>
<trkpt lat="24.875854" lon="104.307698">
<time>2015-09-27T18:12:11Z</time></trkpt>
<trkpt lat="24.875574" lon="104.307619">
<time>2015-09-27T18:12:12Z</time></trkpt>
<trkpt lat="24.875574" lon="104.307609">
<time>2015-09-27T18:12:13Z</time></trkpt>
<trkpt lat="24.875574" lon="104.307579">
<time>2015-09-27T18:12:14Z</time></trkpt>
<trkpt lat="24.875574" lon="104.307559">
<time>2015-09-27T18:12:15Z</time></trkpt>
<trkpt lat="24.875574" lon="104.307549">
<time>2015-09-27T18:12:16Z</time></trkpt>
<trkpt lat="24.875564" lon="104.307529">
<time>2015-09-27T18:12:17Z</time></trkpt>
<trkpt lat="24.875564" lon="104.307509">
<time>2015-09-27T18:12:18Z</time></trkpt>
<trkpt lat="24.875555" lon="104.307489">
<time>2015-09-27T18:12:19Z</time></trkpt>
<trkpt lat="24.875535" lon="104.307469">
<time>2015-09-27T18:12:20Z</time></trkpt>
<trkpt lat="24.875515" lon="104.307449">
<time>2015-09-27T18:12:21Z</time></trkpt>
<trkpt lat="24.875495" lon="104.307429">
<time>2015-09-27T18:12:22Z</time></trkpt>
<trkpt lat="24.875475" lon="104.307419">
<time>2015-09-27T18:12:23Z</time></trkpt>
<trkpt lat="24.875475" lon="104.307409">
<time>2015-09-27T18:12:24Z</time></trkpt>
<trkpt lat="24.875455" lon="104.307409">
<time>2015-09-27T18:12:25Z</time></trkpt>
<trkpt lat="24.875425" lon="104.307399">
<time>2015-09-27T18:12:26Z</time></trkpt>
<trkpt lat="24.875405" lon="104.307409">
<time>2015-09-27T18:12:27Z</time></trkpt>
<trkpt lat="24.875385" lon="104.307409">
<time>2015-09-27T18:12:28Z</time></trkpt>
<trkpt lat="24.875365" lon="104.307419">
<time>2015-09-27T18:12:29Z</time></trkpt>
<trkpt lat="24.875345" lon="104.307419">
<time>2015-09-27T18:12:30Z</time></trkpt>
<trkpt lat="24.875325" lon="104.307429">
<time>2015-09-27T18:12:31Z</time></trkpt>
<trkpt lat="24.875315" lon="104.307439">
<time>2015-09-27T18:12:32Z</time></trkpt>
<trkpt lat="24.875305" lon="104.307449">
<time>2015-09-27T18:12:33Z</time></trkpt>
<trkpt lat="24.875285" lon="104.307469">
<time>2015-09-27T18:12:34Z</time></trkpt>
<trkpt lat="24.875275" lon="104.307489">
<time>2015-09-27T18:12:35Z</time></trkpt>
<trkpt lat="24.875265" lon="104.307499">
<time>2015-09-27T18:12:36Z</time></trkpt>
<trkpt lat="24.875254" lon="104.307519">
<time>2015-09-27T18:12:37Z</time></trkpt>
<trkpt lat="24.875254" lon="104.307529">
<time>2015-09-27T18:12:38Z</time></trkpt>
<trkpt lat="24.874755" lon="104.307379">
<time>2015-09-27T18:12:39Z</time></trkpt>
<trkpt lat="24.873306" lon="104.30696">
<time>2015-09-27T18:12:40Z</time></trkpt>
<trkpt lat="24.871587" lon="104.306461">
<time>2015-09-27T18:12:41Z</time></trkpt>
<trkpt lat="24.869148" lon="104.305783">
<time>2015-09-27T18:12:42Z</time></trkpt>
<trkpt lat="24.868998" lon="104.305733">
<time>2015-09-27T18:12:43Z</time></trkpt>
<trkpt lat="24.867359" lon="104.305254">
<time>2015-09-27T18:12:44Z</time></trkpt>
<trkpt lat="24.86697" lon="104.305145">
<time>2015-09-27T18:12:45Z</time></trkpt>
<trkpt lat="24.86679" lon="104.305095">
<time>2015-09-27T18:12:46Z</time></trkpt>
<trkpt lat="24.86636" lon="104.304965">
<time>2015-09-27T18:12:47Z</time></trkpt>
<trkpt lat="24.86628" lon="104.304935">
<time>2015-09-27T18:12:48Z</time></trkpt>
<trkpt lat="24.865671" lon="104.304656">
<time>2015-09-27T18:12:49Z</time></trkpt>
<trkpt lat="24.865671" lon="104.304646">
<time>2015-09-27T18:12:50Z</time></trkpt>
<trkpt lat="24.865541" lon="104.304596">
<time>2015-09-27T18:12:51Z</time></trkpt>
<trkpt lat="24.865281" lon="104.304466">
<time>2015-09-27T18:12:52Z</time></trkpt>
<trkpt lat="24.864751" lon="104.304297">
<time>2015-09-27T18:12:53Z</time></trkpt>
<trkpt lat="24.861124" lon="104.30294">
<time>2015-09-27T18:12:54Z</time></trkpt>
<trkpt lat="24.859545" lon="104.302501">
<time>2015-09-27T18:12:55Z</time></trkpt>
<trkpt lat="24.857326" lon="104.301942">
<time>2015-09-27T18:12:56Z</time></trkpt>
<trkpt lat="24.854787" lon="104.301434">
<time>2015-09-27T18:12:57Z</time></trkpt>
<trkpt lat="24.851609" lon="104.300795">
<time>2015-09-27T18:12:58Z</time></trkpt>
<trkpt lat="24.8493" lon="104.300177">
<time>2015-09-27T18:12:59Z</time></trkpt>
<trkpt lat="24.84923" lon="104.300157">
<time>2015-09-27T18:13:00Z</time></trkpt>
<trkpt lat="24.84917" lon="104.300147">
<time>2015-09-27T18:13:01Z</time></trkpt>
<trkpt lat="24.8491" lon="104.300137">
<time>2015-09-27T18:13:02Z</time></trkpt>
<trkpt lat="24.84902" lon="104.300147">
<time>2015-09-27T18:13:03Z</time></trkpt>
<trkpt lat="24.84897" lon="104.300157">
<time>2015-09-27T18:13:04Z</time></trkpt>
<trkpt lat="24.84887" lon="104.300207">
<time>2015-09-27T18:13:05Z</time></trkpt>
<trkpt lat="24.84879" lon="104.300257">
<time>2015-09-27T18:13:06Z</time></trkpt>
<trkpt lat="24.84869" lon="104.300336">
<time>2015-09-27T18:13:07Z</time></trkpt>
<trkpt lat="24.84869" lon="104.300336">
<time>2015-09-27T18:13:08Z</time></trkpt>
<trkpt lat="24.847781" lon="104.299917">
<time>2015-09-27T18:13:09Z</time></trkpt>
<trkpt lat="24.847261" lon="104.299708">
<time>2015-09-27T18:13:10Z</time></trkpt>
<trkpt lat="24.846871" lon="104.299558">
<time>2015-09-27T18:13:11Z</time></trkpt>
<trkpt lat="24.846262" lon="104.299369">
<time>2015-09-27T18:13:12Z</time></trkpt>
<trkpt lat="24.845402" lon="104.299139">
<time>2015-09-27T18:13:13Z</time></trkpt>
<trkpt lat="24.842954" lon="104.298461">
<time>2015-09-27T18:13:14Z</time></trkpt>
<trkpt lat="24.842514" lon="104.298331">
<time>2015-09-27T18:13:15Z</time></trkpt>
<trkpt lat="24.841934" lon="104.298092">
<time>2015-09-27T18:13:16Z</time></trkpt>
<trkpt lat="24.841685" lon="104.297972">
<time>2015-09-27T18:13:17Z</time></trkpt>
<trkpt lat="24.841435" lon="104.297832">
<time>2015-09-27T18:13:18Z</time></trkpt>
<trkpt lat="24.841225" lon="104.297702">
<time>2015-09-27T18:13:19Z</time></trkpt>
<trkpt lat="24.840696" lon="104.297343">
<time>2015-09-27T18:13:20Z</time></trkpt>
<trkpt lat="24.840216" lon="104.296924">
<time>2015-09-27T18:13:21Z</time></trkpt>
<trkpt lat="24.839717" lon="104.296395">
<time>2015-09-27T18:13:22Z</time></trkpt>
<trkpt lat="24.839687" lon="104.296375">
<time>2015-09-27T18:13:23Z</time></trkpt>
<trkpt lat="24.839428" lon="104.296106">
<time>2015-09-27T18:13:24Z</time></trkpt>
<trkpt lat="24.836064" lon="104.292394">
<time>2015-09-27T18:13:25Z</time></trkpt>
<trkpt lat="24.834936" lon="104.291166">
<time>2015-09-27T18:13:26Z</time></trkpt>
<trkpt lat="24.834107" lon="104.290348">
<time>2015-09-27T18:13:27Z</time></trkpt>
<trkpt lat="24.833568" lon="104.289849">
<time>2015-09-27T18:13:28Z</time></trkpt>
<trkpt lat="24.833338" lon="104.289669">
<time>2015-09-27T18:13:29Z</time></trkpt>
<trkpt lat="24.833069" lon="104.28941">
<time>2015-09-27T18:13:30Z</time></trkpt>
<trkpt lat="24.83219" lon="104.288731">
<time>2015-09-27T18:13:31Z</time></trkpt>
<trkpt lat="24.831031" lon="104.287923">
<time>2015-09-27T18:13:32Z</time></trkpt>
<trkpt lat="24.829253" lon="104.286815">
<time>2015-09-27T18:13:33Z</time></trkpt>
<trkpt lat="24.827234" lon="104.285727">
<time>2015-09-27T18:13:34Z</time></trkpt>
<trkpt lat="24.825486" lon="104.284749">
<time>2015-09-27T18:13:35Z</time></trkpt>
<trkpt lat="24.824467" lon="104.28409">
<time>2015-09-27T18:13:36Z</time></trkpt>
<trkpt lat="24.823508" lon="104.283411">
<time>2015-09-27T18:13:37Z</time></trkpt>
<trkpt lat="24.822818" lon="104.282813">
<time>2015-09-27T18:13:38Z</time></trkpt>
<trkpt lat="24.82187" lon="104.281834">
<time>2015-09-27T18:13:39Z</time></trkpt>
<trkpt lat="24.821281" lon="104.281116">
<time>2015-09-27T18:13:40Z</time></trkpt>
<trkpt lat="24.820522" lon="104.280017">
<time>2015-09-27T18:13:41Z</time></trkpt>
<trkpt lat="24.819015" lon="104.277352">
<time>2015-09-27T18:13:42Z</time></trkpt>
<trkpt lat="24.818486" lon="104.276403">
<time>2015-09-27T18:13:43Z</time></trkpt>
<trkpt lat="24.817897" lon="104.275345">
<time>2015-09-27T18:13:44Z</time></trkpt>
<trkpt lat="24.817897" lon="104.275345">
<time>2015-09-27T18:13:45Z</time></trkpt>
<trkpt lat="24.817807" lon="104.275295">
<time>2015-09-27T18:13:46Z</time></trkpt>
<trkpt lat="24.816719" lon="104.273318">
<time>2015-09-27T18:13:47Z</time></trkpt>
<trkpt lat="24.815432" lon="104.270971">
<time>2015-09-27T18:13:48Z</time></trkpt>
<trkpt lat="24.811607" lon="104.264009">
<time>2015-09-27T18:13:49Z</time></trkpt>
<trkpt lat="24.810788" lon="104.262531">
<time>2015-09-27T18:13:50Z</time></trkpt>
<trkpt lat="24.810588" lon="104.262071">
<time>2015-09-27T18:13:51Z</time></trkpt>
<trkpt lat="24.810468" lon="104.261702">
<time>2015-09-27T18:13:52Z</time></trkpt>
<trkpt lat="24.810399" lon="104.261352">
<time>2015-09-27T18:13:53Z</time></trkpt>
<trkpt lat="24.810369" lon="104.260982">
<time>2015-09-27T18:13:54Z</time></trkpt>
<trkpt lat="24.810369" lon="104.260553">
<time>2015-09-27T18:13:55Z</time></trkpt>
<trkpt lat="24.810439" lon="104.259674">
<time>2015-09-27T18:13:56Z</time></trkpt>
<trkpt lat="24.81044" lon="104.259164">
<time>2015-09-27T18:13:57Z</time></trkpt>
<trkpt lat="24.81042" lon="104.258824">
<time>2015-09-27T18:13:58Z</time></trkpt>
<trkpt lat="24.81036" lon="104.258535">
<time>2015-09-27T18:13:59Z</time></trkpt>
<trkpt lat="24.81024" lon="104.258215">
<time>2015-09-27T18:14:00Z</time></trkpt>
<trkpt lat="24.81008" lon="104.257905">
<time>2015-09-27T18:14:01Z</time></trkpt>
<trkpt lat="24.80991" lon="104.257665">
<time>2015-09-27T18:14:02Z</time></trkpt>
<trkpt lat="24.80968" lon="104.257415">
<time>2015-09-27T18:14:03Z</time></trkpt>
<trkpt lat="24.809351" lon="104.257166">
<time>2015-09-27T18:14:04Z</time></trkpt>
<trkpt lat="24.808981" lon="104.256946">
<time>2015-09-27T18:14:05Z</time></trkpt>
<trkpt lat="24.808471" lon="104.256726">
<time>2015-09-27T18:14:06Z</time></trkpt>
<trkpt lat="24.807691" lon="104.256416">
<time>2015-09-27T18:14:07Z</time></trkpt>
<trkpt lat="24.802322" lon="104.254198">
<time>2015-09-27T18:14:08Z</time></trkpt>
<trkpt lat="24.801972" lon="104.254068">
<time>2015-09-27T18:14:09Z</time></trkpt>
<trkpt lat="24.801972" lon="104.254068">
<time>2015-09-27T18:14:10Z</time></trkpt>
<trkpt lat="24.801992" lon="104.254008">
<time>2015-09-27T18:14:11Z</time></trkpt>
<trkpt lat="24.801992" lon="104.254008">
<time>2015-09-27T18:14:12Z</time></trkpt>
<trkpt lat="24.800572" lon="104.253459">
<time>2015-09-27T18:14:13Z</time></trkpt>
<trkpt lat="24.799583" lon="104.252999">
<time>2015-09-27T18:14:14Z</time></trkpt>
<trkpt lat="24.799033" lon="104.252649">
<time>2015-09-27T18:14:15Z</time></trkpt>
<trkpt lat="24.798523" lon="104.252269">
<time>2015-09-27T18:14:16Z</time></trkpt>
<trkpt lat="24.797953" lon="104.25178">
<time>2015-09-27T18:14:17Z</time></trkpt>
<trkpt lat="24.797783" lon="104.25162">
<time>2015-09-27T18:14:18Z</time></trkpt>
<trkpt lat="24.796133" lon="104.25001">
<time>2015-09-27T18:14:19Z</time></trkpt>
<trkpt lat="24.792124" lon="104.246082">
<time>2015-09-27T18:14:20Z</time></trkpt>
<trkpt lat="24.791624" lon="104.245712">
<time>2015-09-27T18:14:21Z</time></trkpt>
<trkpt lat="24.791234" lon="104.245482">
<time>2015-09-27T18:14:22Z</time></trkpt>
<trkpt lat="24.790824" lon="104.245332">
<time>2015-09-27T18:14:23Z</time></trkpt>
<trkpt lat="24.790294" lon="104.245212">
<time>2015-09-27T18:14:24Z</time></trkpt>
<trkpt lat="24.789554" lon="104.245182">
<time>2015-09-27T18:14:25Z</time></trkpt>
<trkpt lat="24.786974" lon="104.245212">
<time>2015-09-27T18:14:26Z</time></trkpt>
<trkpt lat="24.786474" lon="104.245203">
<time>2015-09-27T18:14:27Z</time></trkpt>
<trkpt lat="24.786054" lon="104.245143">
<time>2015-09-27T18:14:28Z</time></trkpt>
<trkpt lat="24.785744" lon="104.245083">
<time>2015-09-27T18:14:29Z</time></trkpt>
<trkpt lat="24.785454" lon="104.244963">
<time>2015-09-27T18:14:30Z</time></trkpt>
<trkpt lat="24.785184" lon="104.244823">
<time>2015-09-27T18:14:31Z</time></trkpt>
<trkpt lat="24.784924" lon="104.244603">
<time>2015-09-27T18:14:32Z</time></trkpt>
<trkpt lat="24.784664" lon="104.244343">
<time>2015-09-27T18:14:33Z</time></trkpt>
<trkpt lat="24.784434" lon="104.244023">
<time>2015-09-27T18:14:34Z</time></trkpt>
<trkpt lat="24.784254" lon="104.243663">
<time>2015-09-27T18:14:35Z</time></trkpt>
<trkpt lat="24.784144" lon="104.243313">
<time>2015-09-27T18:14:36Z</time></trkpt>
<trkpt lat="24.784044" lon="104.242863">
<time>2015-09-27T18:14:37Z</time></trkpt>
<trkpt lat="24.783904" lon="104.241973">
<time>2015-09-27T18:14:38Z</time></trkpt>
<trkpt lat="24.783854" lon="104.241693">
<time>2015-09-27T18:14:39Z</time></trkpt>
<trkpt lat="24.783744" lon="104.240913">
<time>2015-09-27T18:14:40Z</time></trkpt>
<trkpt lat="24.783643" lon="104.240353">
<time>2015-09-27T18:14:41Z</time></trkpt>
<trkpt lat="24.783483" lon="104.239793">
<time>2015-09-27T18:14:42Z</time></trkpt>
<trkpt lat="24.783363" lon="104.239503">
<time>2015-09-27T18:14:43Z</time></trkpt>
<trkpt lat="24.783303" lon="104.239353">
<time>2015-09-27T18:14:44Z</time></trkpt>
<trkpt lat="24.783073" lon="104.238923">
<time>2015-09-27T18:14:45Z</time></trkpt>
<trkpt lat="24.782823" lon="104.238543">
<time>2015-09-27T18:14:46Z</time></trkpt>
<trkpt lat="24.782383" lon="104.238043">
<time>2015-09-27T18:14:47Z</time></trkpt>
<trkpt lat="24.780962" lon="104.236633">
<time>2015-09-27T18:14:48Z</time></trkpt>
<trkpt lat="24.780222" lon="104.235903">
<time>2015-09-27T18:14:49Z</time></trkpt>
<trkpt lat="24.779822" lon="104.235513">
<time>2015-09-27T18:14:50Z</time></trkpt>
<trkpt lat="24.779522" lon="104.235173">
<time>2015-09-27T18:14:51Z</time></trkpt>
<trkpt lat="24.779322" lon="104.234853">
<time>2015-09-27T18:14:52Z</time></trkpt>
<trkpt lat="24.779162" lon="104.234553">
<time>2015-09-27T18:14:53Z</time></trkpt>
<trkpt lat="24.779001" lon="104.234173">
<time>2015-09-27T18:14:54Z</time></trkpt>
<trkpt lat="24.778851" lon="104.233673">
<time>2015-09-27T18:14:55Z</time></trkpt>
<trkpt lat="24.778751" lon="104.233053">
<time>2015-09-27T18:14:56Z</time></trkpt>
<trkpt lat="24.77857" lon="104.231242">
<time>2015-09-27T18:14:57Z</time></trkpt>
<trkpt lat="24.778479" lon="104.230662">
<time>2015-09-27T18:14:58Z</time></trkpt>
<trkpt lat="24.778359" lon="104.230172">
<time>2015-09-27T18:14:59Z</time></trkpt>
<trkpt lat="24.778219" lon="104.229752">
<time>2015-09-27T18:15:00Z</time></trkpt>
<trkpt lat="24.778009" lon="104.229261">
<time>2015-09-27T18:15:01Z</time></trkpt>
<trkpt lat="24.777738" lon="104.228741">
<time>2015-09-27T18:15:02Z</time></trkpt>
<trkpt lat="24.777298" lon="104.227941">
<time>2015-09-27T18:15:03Z</time></trkpt>
<trkpt lat="24.777037" lon="104.227321">
<time>2015-09-27T18:15:04Z</time></trkpt>
<trkpt lat="24.776877" lon="104.22689">
<time>2015-09-27T18:15:05Z</time></trkpt>
<trkpt lat="24.776686" lon="104.22628">
<time>2015-09-27T18:15:06Z</time></trkpt>
<trkpt lat="24.776516" lon="104.22557">
<time>2015-09-27T18:15:07Z</time></trkpt>
<trkpt lat="24.776325" lon="104.224909">
<time>2015-09-27T18:15:08Z</time></trkpt>
<trkpt lat="24.776195" lon="104.224569">
<time>2015-09-27T18:15:09Z</time></trkpt>
<trkpt lat="24.776035" lon="104.224229">
<time>2015-09-27T18:15:10Z</time></trkpt>
<trkpt lat="24.775865" lon="104.223969">
<time>2015-09-27T18:15:11Z</time></trkpt>
<trkpt lat="24.775674" lon="104.223709">
<time>2015-09-27T18:15:12Z</time></trkpt>
<trkpt lat="24.775654" lon="104.223689">
<time>2015-09-27T18:15:13Z</time></trkpt>
<trkpt lat="24.775434" lon="104.223438">
<time>2015-09-27T18:15:14Z</time></trkpt>
<trkpt lat="24.775144" lon="104.223208">
<time>2015-09-27T18:15:15Z</time></trkpt>
<trkpt lat="24.774804" lon="104.222978">
<time>2015-09-27T18:15:16Z</time></trkpt>
<trkpt lat="24.774484" lon="104.222788">
<time>2015-09-27T18:15:17Z</time></trkpt>
<trkpt lat="24.774034" lon="104.222598">
<time>2015-09-27T18:15:18Z</time></trkpt>
<trkpt lat="24.772593" lon="104.222098">
<time>2015-09-27T18:15:19Z</time></trkpt>
<trkpt lat="24.771353" lon="104.221727">
<time>2015-09-27T18:15:20Z</time></trkpt>
<trkpt lat="24.771193" lon="104.221677">
<time>2015-09-27T18:15:21Z</time></trkpt>
<trkpt lat="24.770753" lon="104.221517">
<time>2015-09-27T18:15:22Z</time></trkpt>
<trkpt lat="24.770483" lon="104.221417">
<time>2015-09-27T18:15:23Z</time></trkpt>
<trkpt lat="24.770143" lon="104.221227">
<time>2015-09-27T18:15:24Z</time></trkpt>
<trkpt lat="24.769742" lon="104.220957">
<time>2015-09-27T18:15:25Z</time></trkpt>
<trkpt lat="24.769642" lon="104.220857">
<time>2015-09-27T18:15:26Z</time></trkpt>
<trkpt lat="24.769432" lon="104.220647">
<time>2015-09-27T18:15:27Z</time></trkpt>
<trkpt lat="24.769402" lon="104.220627">
<time>2015-09-27T18:15:28Z</time></trkpt>
<trkpt lat="24.769022" lon="104.220216">
<time>2015-09-27T18:15:29Z</time></trkpt>
<trkpt lat="24.768661" lon="104.219706">
<time>2015-09-27T18:15:30Z</time></trkpt>
<trkpt lat="24.768571" lon="104.219546">
<time>2015-09-27T18:15:31Z</time></trkpt>
<trkpt lat="24.768271" lon="104.219005">
<time>2015-09-27T18:15:32Z</time></trkpt>
<trkpt lat="24.767759" lon="104.217995">
<time>2015-09-27T18:15:33Z</time></trkpt>
<trkpt lat="24.766988" lon="104.216543">
<time>2015-09-27T18:15:34Z</time></trkpt>
<trkpt lat="24.766627" lon="104.215893">
<time>2015-09-27T18:15:35Z</time></trkpt>
<trkpt lat="24.766276" lon="104.215142">
<time>2015-09-27T18:15:36Z</time></trkpt>
<trkpt lat="24.766126" lon="104.214722">
<time>2015-09-27T18:15:37Z</time></trkpt>
<trkpt lat="24.766046" lon="104.214411">
<time>2015-09-27T18:15:38Z</time></trkpt>
<trkpt lat="24.765985" lon="104.214101">
<time>2015-09-27T18:15:39Z</time></trkpt>
<trkpt lat="24.765945" lon="104.213481">
<time>2015-09-27T18:15:40Z</time></trkpt>
<trkpt lat="24.765974" lon="104.21298">
<time>2015-09-27T18:15:41Z</time></trkpt>
<trkpt lat="24.766063" lon="104.212449">
<time>2015-09-27T18:15:42Z</time></trkpt>
<trkpt lat="24.766183" lon="104.211889">
<time>2015-09-27T18:15:43Z</time></trkpt>
<trkpt lat="24.766332" lon="104.211448">
<time>2015-09-27T18:15:44Z</time></trkpt>
<trkpt lat="24.766571" lon="104.210998">
<time>2015-09-27T18:15:45Z</time></trkpt>
<trkpt lat="24.766861" lon="104.210527">
<time>2015-09-27T18:15:46Z</time></trkpt>
<trkpt lat="24.76702" lon="104.210297">
<time>2015-09-27T18:15:47Z</time></trkpt>
<trkpt lat="24.767589" lon="104.209446">
<time>2015-09-27T18:15:48Z</time></trkpt>
<trkpt lat="24.767689" lon="104.209306">
<time>2015-09-27T18:15:49Z</time></trkpt>
<trkpt lat="24.767749" lon="104.209216">
<time>2015-09-27T18:15:50Z</time></trkpt>
<trkpt lat="24.768168" lon="104.208615">
<time>2015-09-27T18:15:51Z</time></trkpt>
<trkpt lat="24.768408" lon="104.208205">
<time>2015-09-27T18:15:52Z</time></trkpt>
<trkpt lat="24.768557" lon="104.207784">
<time>2015-09-27T18:15:53Z</time></trkpt>
<trkpt lat="24.768656" lon="104.207304">
<time>2015-09-27T18:15:54Z</time></trkpt>
<trkpt lat="24.768706" lon="104.206803">
<time>2015-09-27T18:15:55Z</time></trkpt>
<trkpt lat="24.768685" lon="104.206332">
<time>2015-09-27T18:15:56Z</time></trkpt>
<trkpt lat="24.768654" lon="104.205912">
<time>2015-09-27T18:15:57Z</time></trkpt>
<trkpt lat="24.768574" lon="104.205531">
<time>2015-09-27T18:15:58Z</time></trkpt>
<trkpt lat="24.768453" lon="104.205171">
<time>2015-09-27T18:15:59Z</time></trkpt>
<trkpt lat="24.768223" lon="104.20464">
<time>2015-09-27T18:16:00Z</time></trkpt>
<trkpt lat="24.767912" lon="104.20397">
<time>2015-09-27T18:16:01Z</time></trkpt>
<trkpt lat="24.767751" lon="104.203579">
<time>2015-09-27T18:16:02Z</time></trkpt>
<trkpt lat="24.767671" lon="104.203259">
<time>2015-09-27T18:16:03Z</time></trkpt>
<trkpt lat="24.76762" lon="104.202908">
<time>2015-09-27T18:16:04Z</time></trkpt>
<trkpt lat="24.76761" lon="104.202558">
<time>2015-09-27T18:16:05Z</time></trkpt>
<trkpt lat="24.767659" lon="104.202157">
<time>2015-09-27T18:16:06Z</time></trkpt>
<trkpt lat="24.767769" lon="104.201837">
<time>2015-09-27T18:16:07Z</time></trkpt>
<trkpt lat="24.767968" lon="104.201406">
<time>2015-09-27T18:16:08Z</time></trkpt>
<trkpt lat="24.768626" lon="104.200395">
<time>2015-09-27T18:16:09Z</time></trkpt>
<trkpt lat="24.768796" lon="104.200104">
<time>2015-09-27T18:16:10Z</time></trkpt>
<trkpt lat="24.768915" lon="104.199844">
<time>2015-09-27T18:16:11Z</time></trkpt>
<trkpt lat="24.769055" lon="104.199503">
<time>2015-09-27T18:16:12Z</time></trkpt>
<trkpt lat="24.769134" lon="104.199103">
<time>2015-09-27T18:16:13Z</time></trkpt>
<trkpt lat="24.769154" lon="104.198652">
<time>2015-09-27T18:16:14Z</time></trkpt>
<trkpt lat="24.769103" lon="104.198212">
<time>2015-09-27T18:16:15Z</time></trkpt>
<trkpt lat="24.769022" lon="104.197771">
<time>2015-09-27T18:16:16Z</time></trkpt>
<trkpt lat="24.768912" lon="104.19737">
<time>2015-09-27T18:16:17Z</time></trkpt>
<trkpt lat="24.767543" lon="104.191902">
<time>2015-09-27T18:16:18Z</time></trkpt>
<trkpt lat="24.767492" lon="104.191782">
<time>2015-09-27T18:16:19Z</time></trkpt>
<trkpt lat="24.767352" lon="104.191361">
<time>2015-09-27T18:16:20Z</time></trkpt>
<trkpt lat="24.767151" lon="104.190861">
<time>2015-09-27T18:16:21Z</time></trkpt>
<trkpt lat="24.767111" lon="104.19074">
<time>2015-09-27T18:16:22Z</time></trkpt>
<trkpt lat="24.76681" lon="104.190129">
<time>2015-09-27T18:16:23Z</time></trkpt>
<trkpt lat="24.766348" lon="104.189348">
<time>2015-09-27T18:16:24Z</time></trkpt>
<trkpt lat="24.765727" lon="104.188547">
<time>2015-09-27T18:16:25Z</time></trkpt>
<trkpt lat="24.765286" lon="104.188116">
<time>2015-09-27T18:16:26Z</time></trkpt>
<trkpt lat="24.765166" lon="104.187996">
<time>2015-09-27T18:16:27Z</time></trkpt>
<trkpt lat="24.764715" lon="104.187645">
<time>2015-09-27T18:16:28Z</time></trkpt>
<trkpt lat="24.764295" lon="104.187335">
<time>2015-09-27T18:16:29Z</time></trkpt>
<trkpt lat="24.763804" lon="104.187044">
<time>2015-09-27T18:16:30Z</time></trkpt>
<trkpt lat="24.763234" lon="104.186764">
<time>2015-09-27T18:16:31Z</time></trkpt>
<trkpt lat="24.762463" lon="104.186444">
<time>2015-09-27T18:16:32Z</time></trkpt>
<trkpt lat="24.759471" lon="104.185242">
<time>2015-09-27T18:16:33Z</time></trkpt>
<trkpt lat="24.758591" lon="104.184851">
<time>2015-09-27T18:16:34Z</time></trkpt>
<trkpt lat="24.75792" lon="104.18449">
<time>2015-09-27T18:16:35Z</time></trkpt>
<trkpt lat="24.756949" lon="104.183869">
<time>2015-09-27T18:16:36Z</time></trkpt>
<trkpt lat="24.755868" lon="104.183238">
<time>2015-09-27T18:16:37Z</time></trkpt>
<trkpt lat="24.754447" lon="104.182547">
<time>2015-09-27T18:16:38Z</time></trkpt>
<trkpt lat="24.753837" lon="104.182337">
<time>2015-09-27T18:16:39Z</time></trkpt>
<trkpt lat="24.752846" lon="104.181936">
<time>2015-09-27T18:16:40Z</time></trkpt>
<trkpt lat="24.752476" lon="104.181766">
<time>2015-09-27T18:16:41Z</time></trkpt>
<trkpt lat="24.752145" lon="104.181536">
<time>2015-09-27T18:16:42Z</time></trkpt>
<trkpt lat="24.751765" lon="104.181235">
<time>2015-09-27T18:16:43Z</time></trkpt>
<trkpt lat="24.751454" lon="104.180894">
<time>2015-09-27T18:16:44Z</time></trkpt>
<trkpt lat="24.751153" lon="104.180504">
<time>2015-09-27T18:16:45Z</time></trkpt>
<trkpt lat="24.750923" lon="104.180093">
<time>2015-09-27T18:16:46Z</time></trkpt>
<trkpt lat="24.750702" lon="104.179582">
<time>2015-09-27T18:16:47Z</time></trkpt>
<trkpt lat="24.750531" lon="104.178971">
<time>2015-09-27T18:16:48Z</time></trkpt>
<trkpt lat="24.750013" lon="104.175024">
<time>2015-09-27T18:16:49Z</time></trkpt>
<trkpt lat="24.750003" lon="104.174964">
<time>2015-09-27T18:16:50Z</time></trkpt>
<trkpt lat="24.749953" lon="104.174814">
<time>2015-09-27T18:16:51Z</time></trkpt>
<trkpt lat="24.749922" lon="104.174383">
<time>2015-09-27T18:16:52Z</time></trkpt>
<trkpt lat="24.749902" lon="104.174263">
<time>2015-09-27T18:16:53Z</time></trkpt>
<trkpt lat="24.749882" lon="104.174103">
<time>2015-09-27T18:16:54Z</time></trkpt>
<trkpt lat="24.749781" lon="104.173752">
<time>2015-09-27T18:16:55Z</time></trkpt>
<trkpt lat="24.7497" lon="104.173542">
<time>2015-09-27T18:16:56Z</time></trkpt>
<trkpt lat="24.74957" lon="104.173251">
<time>2015-09-27T18:16:57Z</time></trkpt>
<trkpt lat="24.749409" lon="104.172971">
<time>2015-09-27T18:16:58Z</time></trkpt>
<trkpt lat="24.749189" lon="104.17264">
<time>2015-09-27T18:16:59Z</time></trkpt>
<trkpt lat="24.748918" lon="104.172319">
<time>2015-09-27T18:17:00Z</time></trkpt>
<trkpt lat="24.748658" lon="104.172029">
<time>2015-09-27T18:17:01Z</time></trkpt>
<trkpt lat="24.748457" lon="104.171819">
<time>2015-09-27T18:17:02Z</time></trkpt>
<trkpt lat="24.748327" lon="104.171668">
<time>2015-09-27T18:17:03Z</time></trkpt>
<trkpt lat="24.748116" lon="104.171358">
<time>2015-09-27T18:17:04Z</time></trkpt>
<trkpt lat="24.747966" lon="104.171097">
<time>2015-09-27T18:17:05Z</time></trkpt>
<trkpt lat="24.747876" lon="104.170887">
<time>2015-09-27T18:17:06Z</time></trkpt>
<trkpt lat="24.747765" lon="104.170656">
<time>2015-09-27T18:17:07Z</time></trkpt>
<trkpt lat="24.747664" lon="104.170316">
<time>2015-09-27T18:17:08Z</time></trkpt>
<trkpt lat="24.747574" lon="104.169955">
<time>2015-09-27T18:17:09Z</time></trkpt>
<trkpt lat="24.747452" lon="104.169234">
<time>2015-09-27T18:17:10Z</time></trkpt>
<trkpt lat="24.747341" lon="104.168292">
<time>2015-09-27T18:17:11Z</time></trkpt>
<trkpt lat="24.747219" lon="104.167551">
<time>2015-09-27T18:17:12Z</time></trkpt>
<trkpt lat="24.747168" lon="104.16712">
<time>2015-09-27T18:17:13Z</time></trkpt>
<trkpt lat="24.747158" lon="104.167">
<time>2015-09-27T18:17:14Z</time></trkpt>
<trkpt lat="24.747128" lon="104.166719">
<time>2015-09-27T18:17:15Z</time></trkpt>
<trkpt lat="24.747117" lon="104.166289">
<time>2015-09-27T18:17:16Z</time></trkpt>
<trkpt lat="24.747127" lon="104.166168">
<time>2015-09-27T18:17:17Z</time></trkpt>
<trkpt lat="24.747146" lon="104.165858">
<time>2015-09-27T18:17:18Z</time></trkpt>
<trkpt lat="24.747205" lon="104.165497">
<time>2015-09-27T18:17:19Z</time></trkpt>
<trkpt lat="24.747355" lon="104.165026">
<time>2015-09-27T18:17:20Z</time></trkpt>
<trkpt lat="24.747524" lon="104.164656">
<time>2015-09-27T18:17:21Z</time></trkpt>
<trkpt lat="24.747743" lon="104.164325">
<time>2015-09-27T18:17:22Z</time></trkpt>
<trkpt lat="24.747983" lon="104.164045">
<time>2015-09-27T18:17:23Z</time></trkpt>
<trkpt lat="24.748252" lon="104.163794">
<time>2015-09-27T18:17:24Z</time></trkpt>
<trkpt lat="24.748432" lon="104.163654">
<time>2015-09-27T18:17:25Z</time></trkpt>
<trkpt lat="24.748592" lon="104.163564">
<time>2015-09-27T18:17:26Z</time></trkpt>
<trkpt lat="24.748791" lon="104.163443">
<time>2015-09-27T18:17:27Z</time></trkpt>
<trkpt lat="24.748981" lon="104.163363">
<time>2015-09-27T18:17:28Z</time></trkpt>
<trkpt lat="24.749641" lon="104.163153">
<time>2015-09-27T18:17:29Z</time></trkpt>
<trkpt lat="24.750011" lon="104.163073">
<time>2015-09-27T18:17:30Z</time></trkpt>
<trkpt lat="24.750151" lon="104.163043">
<time>2015-09-27T18:17:31Z</time></trkpt>
<trkpt lat="24.75212" lon="104.162712">
<time>2015-09-27T18:17:32Z</time></trkpt>
<trkpt lat="24.754769" lon="104.162261">
<time>2015-09-27T18:17:33Z</time></trkpt>
<trkpt lat="24.755558" lon="104.162071">
<time>2015-09-27T18:17:34Z</time></trkpt>
<trkpt lat="24.756018" lon="104.16189">
<time>2015-09-27T18:17:35Z</time></trkpt>
<trkpt lat="24.756388" lon="104.16164">
<time>2015-09-27T18:17:36Z</time></trkpt>
<trkpt lat="24.756727" lon="104.161329">
<time>2015-09-27T18:17:37Z</time></trkpt>
<trkpt lat="24.757006" lon="104.160999">
<time>2015-09-27T18:17:38Z</time></trkpt>
<trkpt lat="24.757325" lon="104.160418">
<time>2015-09-27T18:17:39Z</time></trkpt>
<trkpt lat="24.758301" lon="104.158194">
<time>2015-09-27T18:17:40Z</time></trkpt>
<trkpt lat="24.759008" lon="104.156461">
<time>2015-09-27T18:17:41Z</time></trkpt>
<trkpt lat="24.759445" lon="104.155138">
<time>2015-09-27T18:17:42Z</time></trkpt>
<trkpt lat="24.759664" lon="104.154217">
<time>2015-09-27T18:17:43Z</time></trkpt>
<trkpt lat="24.759752" lon="104.153305">
<time>2015-09-27T18:17:44Z</time></trkpt>
<trkpt lat="24.759751" lon="104.152574">
<time>2015-09-27T18:17:45Z</time></trkpt>
<trkpt lat="24.759751" lon="104.152574">
<time>2015-09-27T18:17:46Z</time></trkpt>
<trkpt lat="24.759701" lon="104.152584">
<time>2015-09-27T18:17:47Z</time></trkpt>
<trkpt lat="24.759701" lon="104.152584">
<time>2015-09-27T18:17:48Z</time></trkpt>
<trkpt lat="24.759701" lon="104.152444">
<time>2015-09-27T18:17:49Z</time></trkpt>
<trkpt lat="24.759599" lon="104.151552">
<time>2015-09-27T18:17:50Z</time></trkpt>
<trkpt lat="24.759418" lon="104.150681">
<time>2015-09-27T18:17:51Z</time></trkpt>
<trkpt lat="24.759226" lon="104.15002">
<time>2015-09-27T18:17:52Z</time></trkpt>
<trkpt lat="24.758965" lon="104.149379">
<time>2015-09-27T18:17:53Z</time></trkpt>
<trkpt lat="24.758624" lon="104.148658">
<time>2015-09-27T18:17:54Z</time></trkpt>
<trkpt lat="24.757832" lon="104.147265">
<time>2015-09-27T18:17:55Z</time></trkpt>
<trkpt lat="24.757611" lon="104.146885">
<time>2015-09-27T18:17:56Z</time></trkpt>
<trkpt lat="24.75704" lon="104.145893">
<time>2015-09-27T18:17:57Z</time></trkpt>
<trkpt lat="24.756738" lon="104.145232">
<time>2015-09-27T18:17:58Z</time></trkpt>
<trkpt lat="24.756497" lon="104.144571">
<time>2015-09-27T18:17:59Z</time></trkpt>
<trkpt lat="24.756306" lon="104.1438">
<time>2015-09-27T18:18:00Z</time></trkpt>
<trkpt lat="24.756195" lon="104.143069">
<time>2015-09-27T18:18:01Z</time></trkpt>
<trkpt lat="24.756124" lon="104.142288">
<time>2015-09-27T18:18:02Z</time></trkpt>
<trkpt lat="24.756122" lon="104.141186">
<time>2015-09-27T18:18:03Z</time></trkpt>
<trkpt lat="24.756208" lon="104.138753">
<time>2015-09-27T18:18:04Z</time></trkpt>
<trkpt lat="24.756285" lon="104.136349">
<time>2015-09-27T18:18:05Z</time></trkpt>
<trkpt lat="24.756274" lon="104.135658">
<time>2015-09-27T18:18:06Z</time></trkpt>
<trkpt lat="24.756183" lon="104.135088">
<time>2015-09-27T18:18:07Z</time></trkpt>
<trkpt lat="24.756052" lon="104.134517">
<time>2015-09-27T18:18:08Z</time></trkpt>
<trkpt lat="24.755831" lon="104.133816">
<time>2015-09-27T18:18:09Z</time></trkpt>
<trkpt lat="24.754857" lon="104.131113">
<time>2015-09-27T18:18:10Z</time></trkpt>
<trkpt lat="24.754546" lon="104.130221">
<time>2015-09-27T18:18:11Z</time></trkpt>
<trkpt lat="24.753874" lon="104.128379">
<time>2015-09-27T18:18:12Z</time></trkpt>
<trkpt lat="24.753874" lon="104.128359">
<time>2015-09-27T18:18:13Z</time></trkpt>
<trkpt lat="24.753502" lon="104.127198">
<time>2015-09-27T18:18:14Z</time></trkpt>
<trkpt lat="24.753271" lon="104.126237">
<time>2015-09-27T18:18:15Z</time></trkpt>
<trkpt lat="24.75305" lon="104.125186">
<time>2015-09-27T18:18:16Z</time></trkpt>
<trkpt lat="24.75301" lon="104.125016">
<time>2015-09-27T18:18:17Z</time></trkpt>
<trkpt lat="24.752929" lon="104.124295">
<time>2015-09-27T18:18:18Z</time></trkpt>
<trkpt lat="24.752827" lon="104.122764">
<time>2015-09-27T18:18:19Z</time></trkpt>
<trkpt lat="24.752826" lon="104.121502">
<time>2015-09-27T18:18:20Z</time></trkpt>
<trkpt lat="24.752935" lon="104.120301">
<time>2015-09-27T18:18:21Z</time></trkpt>
<trkpt lat="24.753074" lon="104.119331">
<time>2015-09-27T18:18:22Z</time></trkpt>
<trkpt lat="24.753353" lon="104.11809">
<time>2015-09-27T18:18:23Z</time></trkpt>
<trkpt lat="24.753842" lon="104.116569">
<time>2015-09-27T18:18:24Z</time></trkpt>
<trkpt lat="24.75456" lon="104.114857">
<time>2015-09-27T18:18:25Z</time></trkpt>
<trkpt lat="24.755159" lon="104.113837">
<time>2015-09-27T18:18:26Z</time></trkpt>
<trkpt lat="24.755519" lon="104.113206">
<time>2015-09-27T18:18:27Z</time></trkpt>
<trkpt lat="24.755938" lon="104.112486">
<time>2015-09-27T18:18:28Z</time></trkpt>
<trkpt lat="24.756338" lon="104.111786">
<time>2015-09-27T18:18:29Z</time></trkpt>
<trkpt lat="24.758675" lon="104.108004">
<time>2015-09-27T18:18:30Z</time></trkpt>
<trkpt lat="24.758795" lon="104.107814">
<time>2015-09-27T18:18:31Z</time></trkpt>
<trkpt lat="24.760064" lon="104.105413">
<time>2015-09-27T18:18:32Z</time></trkpt>
<trkpt lat="24.761673" lon="104.102353">
<time>2015-09-27T18:18:33Z</time></trkpt>
<trkpt lat="24.761963" lon="104.101823">
<time>2015-09-27T18:18:34Z</time></trkpt>
<trkpt lat="24.762403" lon="104.100992">
<time>2015-09-27T18:18:35Z</time></trkpt>
<trkpt lat="24.767832" lon="104.092644">
<time>2015-09-27T18:18:36Z</time></trkpt>
<trkpt lat="24.768052" lon="104.092324">
<time>2015-09-27T18:18:37Z</time></trkpt>
<trkpt lat="24.768062" lon="104.092284">
<time>2015-09-27T18:18:38Z</time></trkpt>
<trkpt lat="24.771673" lon="104.086727">
<time>2015-09-27T18:18:39Z</time></trkpt>
<trkpt lat="24.774115" lon="104.083069">
<time>2015-09-27T18:18:40Z</time></trkpt>
<trkpt lat="24.774205" lon="104.082939">
<time>2015-09-27T18:18:41Z</time></trkpt>
<trkpt lat="24.774975" lon="104.08191">
<time>2015-09-27T18:18:42Z</time></trkpt>
<trkpt lat="24.776887" lon="104.079352">
<time>2015-09-27T18:18:43Z</time></trkpt>
<trkpt lat="24.782092" lon="104.07316">
<time>2015-09-27T18:18:44Z</time></trkpt>
<trkpt lat="24.782402" lon="104.07278">
<time>2015-09-27T18:18:45Z</time></trkpt>
<trkpt lat="24.782422" lon="104.07275">
<time>2015-09-27T18:18:46Z</time></trkpt>
<trkpt lat="24.782442" lon="104.07273">
<time>2015-09-27T18:18:47Z</time></trkpt>
<trkpt lat="24.797528" lon="104.054292">
<time>2015-09-27T18:18:48Z</time></trkpt>
<trkpt lat="24.806188" lon="104.043717">
<time>2015-09-27T18:18:49Z</time></trkpt>
<trkpt lat="24.807752" lon="104.041792">
<time>2015-09-27T18:18:50Z</time></trkpt>
<trkpt lat="24.808224" lon="104.041214">
<time>2015-09-27T18:18:51Z</time></trkpt>
<trkpt lat="24.812506" lon="104.035988">
<time>2015-09-27T18:18:52Z</time></trkpt>
<trkpt lat="24.812967" lon="104.03538">
<time>2015-09-27T18:18:53Z</time></trkpt>
<trkpt lat="24.814793" lon="104.032967">
<time>2015-09-27T18:18:54Z</time></trkpt>
<trkpt lat="24.8167" lon="104.030135">
<time>2015-09-27T18:18:55Z</time></trkpt>
<trkpt lat="24.817042" lon="104.029577">
<time>2015-09-27T18:18:56Z</time></trkpt>
<trkpt lat="24.820055" lon="104.024592">
<time>2015-09-27T18:18:57Z</time></trkpt>
<trkpt lat="24.821431" lon="104.022419">
<time>2015-09-27T18:18:58Z</time></trkpt>
<trkpt lat="24.822796" lon="104.020276">
<time>2015-09-27T18:18:59Z</time></trkpt>
<trkpt lat="24.825966" lon="104.016688">
<time>2015-09-27T18:19:00Z</time></trkpt>
<trkpt lat="24.82698" lon="104.015512">
<time>2015-09-27T18:19:01Z</time></trkpt>
<trkpt lat="24.827341" lon="104.015083">
<time>2015-09-27T18:19:02Z</time></trkpt>
<trkpt lat="24.827833" lon="104.014356">
<time>2015-09-27T18:19:03Z</time></trkpt>
<trkpt lat="24.828707" lon="104.01301">
<time>2015-09-27T18:19:04Z</time></trkpt>
<trkpt lat="24.828827" lon="104.012821">
<time>2015-09-27T18:19:05Z</time></trkpt>
<trkpt lat="24.829511" lon="104.011725">
<time>2015-09-27T18:19:06Z</time></trkpt>
<trkpt lat="24.829631" lon="104.011535">
<time>2015-09-27T18:19:07Z</time></trkpt>
<trkpt lat="24.829772" lon="104.011296">
<time>2015-09-27T18:19:08Z</time></trkpt>
<trkpt lat="24.830525" lon="104.01009">
<time>2015-09-27T18:19:09Z</time></trkpt>
<trkpt lat="24.830817" lon="104.009632">
<time>2015-09-27T18:19:10Z</time></trkpt>
<trkpt lat="24.830817" lon="104.009622">
<time>2015-09-27T18:19:11Z</time></trkpt>
<trkpt lat="24.832685" lon="104.006682">
<time>2015-09-27T18:19:12Z</time></trkpt>
<trkpt lat="24.832715" lon="104.006642">
<time>2015-09-27T18:19:13Z</time></trkpt>
<trkpt lat="24.832736" lon="104.006612">
<time>2015-09-27T18:19:14Z</time></trkpt>
<trkpt lat="24.833127" lon="104.005975">
<time>2015-09-27T18:19:15Z</time></trkpt>
<trkpt lat="24.833338" lon="104.005656">
<time>2015-09-27T18:19:16Z</time></trkpt>
<trkpt lat="24.834172" lon="104.00433">
<time>2015-09-27T18:19:17Z</time></trkpt>
<trkpt lat="24.834192" lon="104.00429">
<time>2015-09-27T18:19:18Z</time></trkpt>
<trkpt lat="24.834233" lon="104.004231">
<time>2015-09-27T18:19:19Z</time></trkpt>
<trkpt lat="24.834263" lon="104.004191">
<time>2015-09-27T18:19:20Z</time></trkpt>
<trkpt lat="24.836895" lon="104.000005">
<time>2015-09-27T18:19:21Z</time></trkpt>
<trkpt lat="24.837136" lon="103.999567">
<time>2015-09-27T18:19:22Z</time></trkpt>
<trkpt lat="24.837318" lon="103.999148">
<time>2015-09-27T18:19:23Z</time></trkpt>
<trkpt lat="24.837328" lon="103.999128">
<time>2015-09-27T18:19:24Z</time></trkpt>
<trkpt lat="24.837348" lon="103.999088">
<time>2015-09-27T18:19:25Z</time></trkpt>
<trkpt lat="24.837398" lon="103.998989">
<time>2015-09-27T18:19:26Z</time></trkpt>
<trkpt lat="24.837418" lon="103.998929">
<time>2015-09-27T18:19:27Z</time></trkpt>
<trkpt lat="24.837509" lon="103.99862">
<time>2015-09-27T18:19:28Z</time></trkpt>
<trkpt lat="24.83755" lon="103.998401">
<time>2015-09-27T18:19:29Z</time></trkpt>
<trkpt lat="24.837571" lon="103.998142">
<time>2015-09-27T18:19:30Z</time></trkpt>
<trkpt lat="24.837561" lon="103.997932">
<time>2015-09-27T18:19:31Z</time></trkpt>
<trkpt lat="24.837533" lon="103.997564">
<time>2015-09-27T18:19:32Z</time></trkpt>
<trkpt lat="24.837414" lon="103.997095">
<time>2015-09-27T18:19:33Z</time></trkpt>
<trkpt lat="24.837295" lon="103.996727">
<time>2015-09-27T18:19:34Z</time></trkpt>
<trkpt lat="24.836898" lon="103.9957">
<time>2015-09-27T18:19:35Z</time></trkpt>
<trkpt lat="24.836769" lon="103.995312">
<time>2015-09-27T18:19:36Z</time></trkpt>
<trkpt lat="24.836671" lon="103.994933">
<time>2015-09-27T18:19:37Z</time></trkpt>
<trkpt lat="24.836622" lon="103.994455">
<time>2015-09-27T18:19:38Z</time></trkpt>
<trkpt lat="24.836633" lon="103.994006">
<time>2015-09-27T18:19:39Z</time></trkpt>
<trkpt lat="24.836694" lon="103.993677">
<time>2015-09-27T18:19:40Z</time></trkpt>
<trkpt lat="24.836755" lon="103.993369">
<time>2015-09-27T18:19:41Z</time></trkpt>
<trkpt lat="24.836896" lon="103.99299">
<time>2015-09-27T18:19:42Z</time></trkpt>
<trkpt lat="24.837098" lon="103.992591">
<time>2015-09-27T18:19:43Z</time></trkpt>
<trkpt lat="24.837359" lon="103.992232">
<time>2015-09-27T18:19:44Z</time></trkpt>
<trkpt lat="24.8377" lon="103.991834">
<time>2015-09-27T18:19:45Z</time></trkpt>
<trkpt lat="24.838382" lon="103.991096">
<time>2015-09-27T18:19:46Z</time></trkpt>
<trkpt lat="24.838804" lon="103.990528">
<time>2015-09-27T18:19:47Z</time></trkpt>
<trkpt lat="24.839045" lon="103.99015">
<time>2015-09-27T18:19:48Z</time></trkpt>
<trkpt lat="24.839135" lon="103.98998">
<time>2015-09-27T18:19:49Z</time></trkpt>
<trkpt lat="24.839266" lon="103.989721">
<time>2015-09-27T18:19:50Z</time></trkpt>
<trkpt lat="24.839558" lon="103.989073">
<time>2015-09-27T18:19:51Z</time></trkpt>
<trkpt lat="24.83978" lon="103.988386">
<time>2015-09-27T18:19:52Z</time></trkpt>
<trkpt lat="24.840194" lon="103.9871">
<time>2015-09-27T18:19:53Z</time></trkpt>
<trkpt lat="24.84077" lon="103.985177">
<time>2015-09-27T18:19:54Z</time></trkpt>
<trkpt lat="24.841092" lon="103.98432">
<time>2015-09-27T18:19:55Z</time></trkpt>
<trkpt lat="24.841303" lon="103.983851">
<time>2015-09-27T18:19:56Z</time></trkpt>
<trkpt lat="24.841495" lon="103.983473">
<time>2015-09-27T18:19:57Z</time></trkpt>
<trkpt lat="24.841726" lon="103.983124">
<time>2015-09-27T18:19:58Z</time></trkpt>
<trkpt lat="24.842037" lon="103.982745">
<time>2015-09-27T18:19:59Z</time></trkpt>
<trkpt lat="24.842588" lon="103.982177">
<time>2015-09-27T18:20:00Z</time></trkpt>
<trkpt lat="24.843089" lon="103.981748">
<time>2015-09-27T18:20:01Z</time></trkpt>
<trkpt lat="24.84347" lon="103.981409">
<time>2015-09-27T18:20:02Z</time></trkpt>
<trkpt lat="24.843791" lon="103.9811">
<time>2015-09-27T18:20:03Z</time></trkpt>
<trkpt lat="24.843992" lon="103.980841">
<time>2015-09-27T18:20:04Z</time></trkpt>
<trkpt lat="24.844203" lon="103.980463">
<time>2015-09-27T18:20:05Z</time></trkpt>
<trkpt lat="24.844223" lon="103.980433">
<time>2015-09-27T18:20:06Z</time></trkpt>
<trkpt lat="24.844374" lon="103.980114">
<time>2015-09-27T18:20:07Z</time></trkpt>
<trkpt lat="24.844505" lon="103.979755">
<time>2015-09-27T18:20:08Z</time></trkpt>
<trkpt lat="24.844576" lon="103.979346">
<time>2015-09-27T18:20:09Z</time></trkpt>
<trkpt lat="24.844607" lon="103.978968">
<time>2015-09-27T18:20:10Z</time></trkpt>
<trkpt lat="24.844609" lon="103.978569">
<time>2015-09-27T18:20:11Z</time></trkpt>
<trkpt lat="24.8446" lon="103.977971">
<time>2015-09-27T18:20:12Z</time></trkpt>
<trkpt lat="24.844591" lon="103.977702">
<time>2015-09-27T18:20:13Z</time></trkpt>
<trkpt lat="24.844553" lon="103.977074">
<time>2015-09-27T18:20:14Z</time></trkpt>
<trkpt lat="24.844418" lon="103.97523">
<time>2015-09-27T18:20:15Z</time></trkpt>
<trkpt lat="24.844224" lon="103.973007">
<time>2015-09-27T18:20:16Z</time></trkpt>
<trkpt lat="24.844198" lon="103.971661">
<time>2015-09-27T18:20:17Z</time></trkpt>
<trkpt lat="24.844221" lon="103.970535">
<time>2015-09-27T18:20:18Z</time></trkpt>
<trkpt lat="24.844334" lon="103.969638">
<time>2015-09-27T18:20:19Z</time></trkpt>
<trkpt lat="24.844467" lon="103.968511">
<time>2015-09-27T18:20:20Z</time></trkpt>
<trkpt lat="24.84466" lon="103.967166">
<time>2015-09-27T18:20:21Z</time></trkpt>
<trkpt lat="24.844914" lon="103.96585">
<time>2015-09-27T18:20:22Z</time></trkpt>
<trkpt lat="24.845048" lon="103.964204">
<time>2015-09-27T18:20:23Z</time></trkpt>
<trkpt lat="24.845071" lon="103.963168">
<time>2015-09-27T18:20:24Z</time></trkpt>
<trkpt lat="24.845105" lon="103.961602">
<time>2015-09-27T18:20:25Z</time></trkpt>
<trkpt lat="24.844989" lon="103.959688">
<time>2015-09-27T18:20:26Z</time></trkpt>
<trkpt lat="24.844721" lon="103.954771">
<time>2015-09-27T18:20:27Z</time></trkpt>
<trkpt lat="24.844445" lon="103.948627">
<time>2015-09-27T18:20:28Z</time></trkpt>
<trkpt lat="24.844329" lon="103.946662">
<time>2015-09-27T18:20:29Z</time></trkpt>
<trkpt lat="24.844271" lon="103.945684">
<time>2015-09-27T18:20:30Z</time></trkpt>
<trkpt lat="24.844213" lon="103.944477">
<time>2015-09-27T18:20:31Z</time></trkpt>
<trkpt lat="24.844184" lon="103.943868">
<time>2015-09-27T18:20:32Z</time></trkpt>
<trkpt lat="24.844136" lon="103.94301">
<time>2015-09-27T18:20:33Z</time></trkpt>
<trkpt lat="24.844058" lon="103.941633">
<time>2015-09-27T18:20:34Z</time></trkpt>
<trkpt lat="24.844" lon="103.940625">
<time>2015-09-27T18:20:35Z</time></trkpt>
<trkpt lat="24.843952" lon="103.939667">
<time>2015-09-27T18:20:36Z</time></trkpt>
<trkpt lat="24.843885" lon="103.937971">
<time>2015-09-27T18:20:37Z</time></trkpt>
<trkpt lat="24.843845" lon="103.937552">
<time>2015-09-27T18:20:38Z</time></trkpt>
<trkpt lat="24.843786" lon="103.937202">
<time>2015-09-27T18:20:39Z</time></trkpt>
<trkpt lat="24.843737" lon="103.936873">
<time>2015-09-27T18:20:40Z</time></trkpt>
<trkpt lat="24.843667" lon="103.936564">
<time>2015-09-27T18:20:41Z</time></trkpt>
<trkpt lat="24.843578" lon="103.936164">
<time>2015-09-27T18:20:42Z</time></trkpt>
<trkpt lat="24.843359" lon="103.935496">
<time>2015-09-27T18:20:43Z</time></trkpt>
<trkpt lat="24.842921" lon="103.934378">
<time>2015-09-27T18:20:44Z</time></trkpt>
<trkpt lat="24.842343" lon="103.93288">
<time>2015-09-27T18:20:45Z</time></trkpt>
<trkpt lat="24.842174" lon="103.932341">
<time>2015-09-27T18:20:46Z</time></trkpt>
<trkpt lat="24.842084" lon="103.931872">
<time>2015-09-27T18:20:47Z</time></trkpt>
<trkpt lat="24.842025" lon="103.931443">
<time>2015-09-27T18:20:48Z</time></trkpt>
<trkpt lat="24.842016" lon="103.930984">
<time>2015-09-27T18:20:49Z</time></trkpt>
<trkpt lat="24.842046" lon="103.930405">
<time>2015-09-27T18:20:50Z</time></trkpt>
<trkpt lat="24.842087" lon="103.930075">
<time>2015-09-27T18:20:51Z</time></trkpt>
<trkpt lat="24.842117" lon="103.929846">
<time>2015-09-27T18:20:52Z</time></trkpt>
<trkpt lat="24.842208" lon="103.929246">
<time>2015-09-27T18:20:53Z</time></trkpt>
<trkpt lat="24.842409" lon="103.928018">
<time>2015-09-27T18:20:54Z</time></trkpt>
<trkpt lat="24.842682" lon="103.926181">
<time>2015-09-27T18:20:55Z</time></trkpt>
<trkpt lat="24.842752" lon="103.925892">
<time>2015-09-27T18:20:56Z</time></trkpt>
<trkpt lat="24.842832" lon="103.925522">
<time>2015-09-27T18:20:57Z</time></trkpt>
<trkpt lat="24.842923" lon="103.924683">
<time>2015-09-27T18:20:58Z</time></trkpt>
<trkpt lat="24.842933" lon="103.924573">
<time>2015-09-27T18:20:59Z</time></trkpt>
<trkpt lat="24.842954" lon="103.924374">
<time>2015-09-27T18:21:00Z</time></trkpt>
<trkpt lat="24.843166" lon="103.922117">
<time>2015-09-27T18:21:01Z</time></trkpt>
<trkpt lat="24.843118" lon="103.920289">
<time>2015-09-27T18:21:02Z</time></trkpt>
<trkpt lat="24.84307" lon="103.917792">
<time>2015-09-27T18:21:03Z</time></trkpt>
<trkpt lat="24.843041" lon="103.916932">
<time>2015-09-27T18:21:04Z</time></trkpt>
<trkpt lat="24.842962" lon="103.914485">
<time>2015-09-27T18:21:05Z</time></trkpt>
<trkpt lat="24.842933" lon="103.913406">
<time>2015-09-27T18:21:06Z</time></trkpt>
<trkpt lat="24.842834" lon="103.911667">
<time>2015-09-27T18:21:07Z</time></trkpt>
<trkpt lat="24.842805" lon="103.910008">
<time>2015-09-27T18:21:08Z</time></trkpt>
<trkpt lat="24.842785" lon="103.909019">
<time>2015-09-27T18:21:09Z</time></trkpt>
<trkpt lat="24.842836" lon="103.908079">
<time>2015-09-27T18:21:10Z</time></trkpt>
<trkpt lat="24.842916" lon="103.90747">
<time>2015-09-27T18:21:11Z</time></trkpt>
<trkpt lat="24.843036" lon="103.90689">
<time>2015-09-27T18:21:12Z</time></trkpt>
<trkpt lat="24.843146" lon="103.90648">
<time>2015-09-27T18:21:13Z</time></trkpt>
<trkpt lat="24.843296" lon="103.90596">
<time>2015-09-27T18:21:14Z</time></trkpt>
<trkpt lat="24.843606" lon="103.905101">
<time>2015-09-27T18:21:15Z</time></trkpt>
<trkpt lat="24.843956" lon="103.904401">
<time>2015-09-27T18:21:16Z</time></trkpt>
<trkpt lat="24.844336" lon="103.903791">
<time>2015-09-27T18:21:17Z</time></trkpt>
<trkpt lat="24.844857" lon="103.903011">
<time>2015-09-27T18:21:18Z</time></trkpt>
<trkpt lat="24.845177" lon="103.902532">
<time>2015-09-27T18:21:19Z</time></trkpt>
<trkpt lat="24.846467" lon="103.901092">
<time>2015-09-27T18:21:20Z</time></trkpt>
<trkpt lat="24.850846" lon="103.896742">
<time>2015-09-27T18:21:21Z</time></trkpt>
<trkpt lat="24.851106" lon="103.896452">
<time>2015-09-27T18:21:22Z</time></trkpt>
<trkpt lat="24.851316" lon="103.896232">
<time>2015-09-27T18:21:23Z</time></trkpt>
<trkpt lat="24.851606" lon="103.895932">
<time>2015-09-27T18:21:24Z</time></trkpt>
<trkpt lat="24.851826" lon="103.895742">
<time>2015-09-27T18:21:25Z</time></trkpt>
<trkpt lat="24.852725" lon="103.895052">
<time>2015-09-27T18:21:26Z</time></trkpt>
<trkpt lat="24.853465" lon="103.894562">
<time>2015-09-27T18:21:27Z</time></trkpt>
<trkpt lat="24.854065" lon="103.894242">
<time>2015-09-27T18:21:28Z</time></trkpt>
<trkpt lat="24.854605" lon="103.893972">
<time>2015-09-27T18:21:29Z</time></trkpt>
<trkpt lat="24.855495" lon="103.893632">
<time>2015-09-27T18:21:30Z</time></trkpt>
<trkpt lat="24.856565" lon="103.893372">
<time>2015-09-27T18:21:31Z</time></trkpt>
<trkpt lat="24.858144" lon="103.893072">
<time>2015-09-27T18:21:32Z</time></trkpt>
<trkpt lat="24.858354" lon="103.893032">
<time>2015-09-27T18:21:33Z</time></trkpt>
<trkpt lat="24.861014" lon="103.892541">
<time>2015-09-27T18:21:34Z</time></trkpt>
<trkpt lat="24.861744" lon="103.892331">
<time>2015-09-27T18:21:35Z</time></trkpt>
<trkpt lat="24.862263" lon="103.892101">
<time>2015-09-27T18:21:36Z</time></trkpt>
<trkpt lat="24.862723" lon="103.891771">
<time>2015-09-27T18:21:37Z</time></trkpt>
<trkpt lat="24.863153" lon="103.891351">
<time>2015-09-27T18:21:38Z</time></trkpt>
<trkpt lat="24.863433" lon="103.891021">
<time>2015-09-27T18:21:39Z</time></trkpt>
<trkpt lat="24.863673" lon="103.890471">
<time>2015-09-27T18:21:40Z</time></trkpt>
<trkpt lat="24.863703" lon="103.890361">
<time>2015-09-27T18:21:41Z</time></trkpt>
<trkpt lat="24.863902" lon="103.889811">
<time>2015-09-27T18:21:42Z</time></trkpt>
<trkpt lat="24.863972" lon="103.8891">
<time>2015-09-27T18:21:43Z</time></trkpt>
<trkpt lat="24.864151" lon="103.88793">
<time>2015-09-27T18:21:44Z</time></trkpt>
<trkpt lat="24.8644" lon="103.886189">
<time>2015-09-27T18:21:45Z</time></trkpt>
<trkpt lat="24.86449" lon="103.885639">
<time>2015-09-27T18:21:46Z</time></trkpt>
<trkpt lat="24.86459" lon="103.885049">
<time>2015-09-27T18:21:47Z</time></trkpt>
<trkpt lat="24.864769" lon="103.883978">
<time>2015-09-27T18:21:48Z</time></trkpt>
<trkpt lat="24.865228" lon="103.882157">
<time>2015-09-27T18:21:49Z</time></trkpt>
<trkpt lat="24.865487" lon="103.881146">
<time>2015-09-27T18:21:50Z</time></trkpt>
<trkpt lat="24.866135" lon="103.878644">
<time>2015-09-27T18:21:51Z</time></trkpt>
<trkpt lat="24.866424" lon="103.877433">
<time>2015-09-27T18:21:52Z</time></trkpt>
<trkpt lat="24.866753" lon="103.876503">
<time>2015-09-27T18:21:53Z</time></trkpt>
<trkpt lat="24.867002" lon="103.875952">
<time>2015-09-27T18:21:54Z</time></trkpt>
<trkpt lat="24.867382" lon="103.875502">
<time>2015-09-27T18:21:55Z</time></trkpt>
<trkpt lat="24.867781" lon="103.875151">
<time>2015-09-27T18:21:56Z</time></trkpt>
<trkpt lat="24.867981" lon="103.875011">
<time>2015-09-27T18:21:57Z</time></trkpt>
<trkpt lat="24.870749" lon="103.87358">
<time>2015-09-27T18:21:58Z</time></trkpt>
<trkpt lat="24.870889" lon="103.8735">
<time>2015-09-27T18:21:59Z</time></trkpt>
<trkpt lat="24.872758" lon="103.872519">
<time>2015-09-27T18:22:00Z</time></trkpt>
<trkpt lat="24.873088" lon="103.872318">
<time>2015-09-27T18:22:01Z</time></trkpt>
<trkpt lat="24.873418" lon="103.872078">
<time>2015-09-27T18:22:02Z</time></trkpt>
<trkpt lat="24.873617" lon="103.871888">
<time>2015-09-27T18:22:03Z</time></trkpt>
<trkpt lat="24.873747" lon="103.871708">
<time>2015-09-27T18:22:04Z</time></trkpt>
<trkpt lat="24.873847" lon="103.871497">
<time>2015-09-27T18:22:05Z</time></trkpt>
<trkpt lat="24.873947" lon="103.871287">
<time>2015-09-27T18:22:06Z</time></trkpt>
<trkpt lat="24.874026" lon="103.870987">
<time>2015-09-27T18:22:07Z</time></trkpt>
<trkpt lat="24.874066" lon="103.870757">
<time>2015-09-27T18:22:08Z</time></trkpt>
<trkpt lat="24.874076" lon="103.870436">
<time>2015-09-27T18:22:09Z</time></trkpt>
<trkpt lat="24.874055" lon="103.870186">
<time>2015-09-27T18:22:10Z</time></trkpt>
<trkpt lat="24.874005" lon="103.869836">
<time>2015-09-27T18:22:11Z</time></trkpt>
<trkpt lat="24.873935" lon="103.869515">
<time>2015-09-27T18:22:12Z</time></trkpt>
<trkpt lat="24.873683" lon="103.868494">
<time>2015-09-27T18:22:13Z</time></trkpt>
<trkpt lat="24.873512" lon="103.867773">
<time>2015-09-27T18:22:14Z</time></trkpt>
<trkpt lat="24.873442" lon="103.867383">
<time>2015-09-27T18:22:15Z</time></trkpt>
<trkpt lat="24.873382" lon="103.867012">
<time>2015-09-27T18:22:16Z</time></trkpt>
<trkpt lat="24.873361" lon="103.866612">
<time>2015-09-27T18:22:17Z</time></trkpt>
<trkpt lat="24.873371" lon="103.866261">
<time>2015-09-27T18:22:18Z</time></trkpt>
<trkpt lat="24.8734" lon="103.865851">
<time>2015-09-27T18:22:19Z</time></trkpt>
<trkpt lat="24.87341" lon="103.865821">
<time>2015-09-27T18:22:20Z</time></trkpt>
<trkpt lat="24.873499" lon="103.86535">
<time>2015-09-27T18:22:21Z</time></trkpt>
<trkpt lat="24.873629" lon="103.86492">
<time>2015-09-27T18:22:22Z</time></trkpt>
<trkpt lat="24.873788" lon="103.864529">
<time>2015-09-27T18:22:23Z</time></trkpt>
<trkpt lat="24.874038" lon="103.864079">
<time>2015-09-27T18:22:24Z</time></trkpt>
<trkpt lat="24.874287" lon="103.863698">
<time>2015-09-27T18:22:25Z</time></trkpt>
<trkpt lat="24.874537" lon="103.863418">
<time>2015-09-27T18:22:26Z</time></trkpt>
<trkpt lat="24.874587" lon="103.863358">
<time>2015-09-27T18:22:27Z</time></trkpt>
<trkpt lat="24.874806" lon="103.863107">
<time>2015-09-27T18:22:28Z</time></trkpt>
<trkpt lat="24.875166" lon="103.862827">
<time>2015-09-27T18:22:29Z</time></trkpt>
<trkpt lat="24.875735" lon="103.862487">
<time>2015-09-27T18:22:30Z</time></trkpt>
<trkpt lat="24.876345" lon="103.862196">
<time>2015-09-27T18:22:31Z</time></trkpt>
<trkpt lat="24.876615" lon="103.862116">
<time>2015-09-27T18:22:32Z</time></trkpt>
<trkpt lat="24.877214" lon="103.861916">
<time>2015-09-27T18:22:33Z</time></trkpt>
<trkpt lat="24.877624" lon="103.861755">
<time>2015-09-27T18:22:34Z</time></trkpt>
<trkpt lat="24.877884" lon="103.861605">
<time>2015-09-27T18:22:35Z</time></trkpt>
<trkpt lat="24.878134" lon="103.861435">
<time>2015-09-27T18:22:36Z</time></trkpt>
<trkpt lat="24.878303" lon="103.861245">
<time>2015-09-27T18:22:37Z</time></trkpt>
<trkpt lat="24.878473" lon="103.861034">
<time>2015-09-27T18:22:38Z</time></trkpt>
<trkpt lat="24.878523" lon="103.860954">
<time>2015-09-27T18:22:39Z</time></trkpt>
<trkpt lat="24.878593" lon="103.860834">
<time>2015-09-27T18:22:40Z</time></trkpt>
<trkpt lat="24.878722" lon="103.860574">
<time>2015-09-27T18:22:41Z</time></trkpt>
<trkpt lat="24.878822" lon="103.860303">
<time>2015-09-27T18:22:42Z</time></trkpt>
<trkpt lat="24.878911" lon="103.859903">
<time>2015-09-27T18:22:43Z</time></trkpt>
<trkpt lat="24.87903" lon="103.859222">
<time>2015-09-27T18:22:44Z</time></trkpt>
<trkpt lat="24.879188" lon="103.8579">
<time>2015-09-27T18:22:45Z</time></trkpt>
<trkpt lat="24.879367" lon="103.856838">
<time>2015-09-27T18:22:46Z</time></trkpt>
<trkpt lat="24.879496" lon="103.856187">
<time>2015-09-27T18:22:47Z</time></trkpt>
<trkpt lat="24.879774" lon="103.855076">
<time>2015-09-27T18:22:48Z</time></trkpt>
<trkpt lat="24.880192" lon="103.853794">
<time>2015-09-27T18:22:49Z</time></trkpt>
<trkpt lat="24.88075" lon="103.852492">
<time>2015-09-27T18:22:50Z</time></trkpt>
<trkpt lat="24.881407" lon="103.850959">
<time>2015-09-27T18:22:51Z</time></trkpt>
<trkpt lat="24.882124" lon="103.849396">
<time>2015-09-27T18:22:52Z</time></trkpt>
<trkpt lat="24.882304" lon="103.848926">
<time>2015-09-27T18:22:53Z</time></trkpt>
<trkpt lat="24.882453" lon="103.848505">
<time>2015-09-27T18:22:54Z</time></trkpt>
<trkpt lat="24.882542" lon="103.848184">
<time>2015-09-27T18:22:55Z</time></trkpt>
<trkpt lat="24.882602" lon="103.847844">
<time>2015-09-27T18:22:56Z</time></trkpt>
<trkpt lat="24.882641" lon="103.847523">
<time>2015-09-27T18:22:57Z</time></trkpt>
<trkpt lat="24.88266" lon="103.846872">
<time>2015-09-27T18:22:58Z</time></trkpt>
<trkpt lat="24.882678" lon="103.845991">
<time>2015-09-27T18:22:59Z</time></trkpt>
<trkpt lat="24.882727" lon="103.845289">
<time>2015-09-27T18:23:00Z</time></trkpt>
<trkpt lat="24.882866" lon="103.844698">
<time>2015-09-27T18:23:01Z</time></trkpt>
<trkpt lat="24.883075" lon="103.844077">
<time>2015-09-27T18:23:02Z</time></trkpt>
<trkpt lat="24.883264" lon="103.843326">
<time>2015-09-27T18:23:03Z</time></trkpt>
<trkpt lat="24.883383" lon="103.842685">
<time>2015-09-27T18:23:04Z</time></trkpt>
<trkpt lat="24.883432" lon="103.842254">
<time>2015-09-27T18:23:05Z</time></trkpt>
<trkpt lat="24.883421" lon="103.841873">
<time>2015-09-27T18:23:06Z</time></trkpt>
<trkpt lat="24.88337" lon="103.841433">
<time>2015-09-27T18:23:07Z</time></trkpt>
<trkpt lat="24.88333" lon="103.841102">
<time>2015-09-27T18:23:08Z</time></trkpt>
<trkpt lat="24.883148" lon="103.83997">
<time>2015-09-27T18:23:09Z</time></trkpt>
<trkpt lat="24.882804" lon="103.838036">
<time>2015-09-27T18:23:10Z</time></trkpt>
<trkpt lat="24.882077" lon="103.833989">
<time>2015-09-27T18:23:11Z</time></trkpt>
<trkpt lat="24.88143" lon="103.830382">
<time>2015-09-27T18:23:12Z</time></trkpt>
<trkpt lat="24.880905" lon="103.827577">
<time>2015-09-27T18:23:13Z</time></trkpt>
<trkpt lat="24.880885" lon="103.827517">
<time>2015-09-27T18:23:14Z</time></trkpt>
<trkpt lat="24.880743" lon="103.826755">
<time>2015-09-27T18:23:15Z</time></trkpt>
<trkpt lat="24.88044" lon="103.825112">
<time>2015-09-27T18:23:16Z</time></trkpt>
<trkpt lat="24.880188" lon="103.82381">
<time>2015-09-27T18:23:17Z</time></trkpt>
<trkpt lat="24.880137" lon="103.823549">
<time>2015-09-27T18:23:18Z</time></trkpt>
<trkpt lat="24.879855" lon="103.822367">
<time>2015-09-27T18:23:19Z</time></trkpt>
<trkpt lat="24.879553" lon="103.821365">
<time>2015-09-27T18:23:20Z</time></trkpt>
<trkpt lat="24.879433" lon="103.821024">
<time>2015-09-27T18:23:21Z</time></trkpt>
<trkpt lat="24.879342" lon="103.820794">
<time>2015-09-27T18:23:22Z</time></trkpt>
<trkpt lat="24.879161" lon="103.820303">
<time>2015-09-27T18:23:23Z</time></trkpt>
<trkpt lat="24.87872" lon="103.819351">
<time>2015-09-27T18:23:24Z</time></trkpt>
<trkpt lat="24.878138" lon="103.818239">
<time>2015-09-27T18:23:25Z</time></trkpt>
<trkpt lat="24.877486" lon="103.817047">
<time>2015-09-27T18:23:26Z</time></trkpt>
<trkpt lat="24.876723" lon="103.815885">
<time>2015-09-27T18:23:27Z</time></trkpt>
<trkpt lat="24.876021" lon="103.814713">
<time>2015-09-27T18:23:28Z</time></trkpt>
<trkpt lat="24.875279" lon="103.813471">
<time>2015-09-27T18:23:29Z</time></trkpt>
<trkpt lat="24.873654" lon="103.810766">
<time>2015-09-27T18:23:30Z</time></trkpt>
<trkpt lat="24.873143" lon="103.809934">
<time>2015-09-27T18:23:31Z</time></trkpt>
<trkpt lat="24.873133" lon="103.809894">
<time>2015-09-27T18:23:32Z</time></trkpt>
<trkpt lat="24.87192" lon="103.807921">
<time>2015-09-27T18:23:33Z</time></trkpt>
<trkpt lat="24.870616" lon="103.805647">
<time>2015-09-27T18:23:34Z</time></trkpt>
<trkpt lat="24.869754" lon="103.804315">
<time>2015-09-27T18:23:35Z</time></trkpt>
<trkpt lat="24.869082" lon="103.803103">
<time>2015-09-27T18:23:36Z</time></trkpt>
<trkpt lat="24.86861" lon="103.801981">
<time>2015-09-27T18:23:37Z</time></trkpt>
<trkpt lat="24.868439" lon="103.80156">
<time>2015-09-27T18:23:38Z</time></trkpt>
<trkpt lat="24.868188" lon="103.800929">
<time>2015-09-27T18:23:39Z</time></trkpt>
<trkpt lat="24.867977" lon="103.800378">
<time>2015-09-27T18:23:40Z</time></trkpt>
<trkpt lat="24.867806" lon="103.799727">
<time>2015-09-27T18:23:41Z</time></trkpt>
<trkpt lat="24.867555" lon="103.798706">
<time>2015-09-27T18:23:42Z</time></trkpt>
<trkpt lat="24.867453" lon="103.797794">
<time>2015-09-27T18:23:43Z</time></trkpt>
<trkpt lat="24.867433" lon="103.797594">
<time>2015-09-27T18:23:44Z</time></trkpt>
<trkpt lat="24.867361" lon="103.796502">
<time>2015-09-27T18:23:45Z</time></trkpt>
<trkpt lat="24.867359" lon="103.795381">
<time>2015-09-27T18:23:46Z</time></trkpt>
<trkpt lat="24.867378" lon="103.794199">
<time>2015-09-27T18:23:47Z</time></trkpt>
<trkpt lat="24.867543" lon="103.791175">
<time>2015-09-27T18:23:48Z</time></trkpt>
<trkpt lat="24.867767" lon="103.787169">
<time>2015-09-27T18:23:49Z</time></trkpt>
<trkpt lat="24.867586" lon="103.785988">
<time>2015-09-27T18:23:50Z</time></trkpt>
<trkpt lat="24.867345" lon="103.785177">
<time>2015-09-27T18:23:51Z</time></trkpt>
<trkpt lat="24.866794" lon="103.784136">
<time>2015-09-27T18:23:52Z</time></trkpt>
<trkpt lat="24.866092" lon="103.782874">
<time>2015-09-27T18:23:53Z</time></trkpt>
<trkpt lat="24.865471" lon="103.781863">
<time>2015-09-27T18:23:54Z</time></trkpt>
<trkpt lat="24.864179" lon="103.779791">
<time>2015-09-27T18:23:55Z</time></trkpt>
<trkpt lat="24.863066" lon="103.777328">
<time>2015-09-27T18:23:56Z</time></trkpt>
<trkpt lat="24.862214" lon="103.774876">
<time>2015-09-27T18:23:57Z</time></trkpt>
<trkpt lat="24.861703" lon="103.773575">
<time>2015-09-27T18:23:58Z</time></trkpt>
<trkpt lat="24.861052" lon="103.772204">
<time>2015-09-27T18:23:59Z</time></trkpt>
<trkpt lat="24.85995" lon="103.770333">
<time>2015-09-27T18:24:00Z</time></trkpt>
<trkpt lat="24.85984" lon="103.770153">
<time>2015-09-27T18:24:01Z</time></trkpt>
<trkpt lat="24.8598" lon="103.770083">
<time>2015-09-27T18:24:02Z</time></trkpt>
<trkpt lat="24.858618" lon="103.767521">
<time>2015-09-27T18:24:03Z</time></trkpt>
<trkpt lat="24.857466" lon="103.764229">
<time>2015-09-27T18:24:04Z</time></trkpt>
<trkpt lat="24.857005" lon="103.762639">
<time>2015-09-27T18:24:05Z</time></trkpt>
<trkpt lat="24.856615" lon="103.761308">
<time>2015-09-27T18:24:06Z</time></trkpt>
<trkpt lat="24.856354" lon="103.760518">
<time>2015-09-27T18:24:07Z</time></trkpt>
<trkpt lat="24.855914" lon="103.759188">
<time>2015-09-27T18:24:08Z</time></trkpt>
<trkpt lat="24.855653" lon="103.758528">
<time>2015-09-27T18:24:09Z</time></trkpt>
<trkpt lat="24.854913" lon="103.756717">
<time>2015-09-27T18:24:10Z</time></trkpt>
<trkpt lat="24.854863" lon="103.756617">
<time>2015-09-27T18:24:11Z</time></trkpt>
<trkpt lat="24.854203" lon="103.755307">
<time>2015-09-27T18:24:12Z</time></trkpt>
<trkpt lat="24.853472" lon="103.753697">
<time>2015-09-27T18:24:13Z</time></trkpt>
<trkpt lat="24.853442" lon="103.753627">
<time>2015-09-27T18:24:14Z</time></trkpt>
<trkpt lat="24.853032" lon="103.751907">
<time>2015-09-27T18:24:15Z</time></trkpt>
<trkpt lat="24.852592" lon="103.750007">
<time>2015-09-27T18:24:16Z</time></trkpt>
<trkpt lat="24.852342" lon="103.749168">
<time>2015-09-27T18:24:17Z</time></trkpt>
<trkpt lat="24.851892" lon="103.748058">
<time>2015-09-27T18:24:18Z</time></trkpt>
<trkpt lat="24.851492" lon="103.747298">
<time>2015-09-27T18:24:19Z</time></trkpt>
<trkpt lat="24.851032" lon="103.746508">
<time>2015-09-27T18:24:20Z</time></trkpt>
<trkpt lat="24.850582" lon="103.745628">
<time>2015-09-27T18:24:21Z</time></trkpt>
<trkpt lat="24.850212" lon="103.744769">
<time>2015-09-27T18:24:22Z</time></trkpt>
<trkpt lat="24.849942" lon="103.743879">
<time>2015-09-27T18:24:23Z</time></trkpt>
<trkpt lat="24.849733" lon="103.74297">
<time>2015-09-27T18:24:24Z</time></trkpt>
<trkpt lat="24.849623" lon="103.74231">
<time>2015-09-27T18:24:25Z</time></trkpt>
<trkpt lat="24.849553" lon="103.7417">
<time>2015-09-27T18:24:26Z</time></trkpt>
<trkpt lat="24.849543" lon="103.740851">
<time>2015-09-27T18:24:27Z</time></trkpt>
<trkpt lat="24.849573" lon="103.739741">
<time>2015-09-27T18:24:28Z</time></trkpt>
<trkpt lat="24.849744" lon="103.738662">
<time>2015-09-27T18:24:29Z</time></trkpt>
<trkpt lat="24.850014" lon="103.737552">
<time>2015-09-27T18:24:30Z</time></trkpt>
<trkpt lat="24.850535" lon="103.735604">
<time>2015-09-27T18:24:31Z</time></trkpt>
<trkpt lat="24.851928" lon="103.730878">
<time>2015-09-27T18:24:32Z</time></trkpt>
<trkpt lat="24.852068" lon="103.730278">
<time>2015-09-27T18:24:33Z</time></trkpt>
<trkpt lat="24.852128" lon="103.729799">
<time>2015-09-27T18:24:34Z</time></trkpt>
<trkpt lat="24.852179" lon="103.729349">
<time>2015-09-27T18:24:35Z</time></trkpt>
<trkpt lat="24.852179" lon="103.72874">
<time>2015-09-27T18:24:36Z</time></trkpt>
<trkpt lat="24.852129" lon="103.72813">
<time>2015-09-27T18:24:37Z</time></trkpt>
<trkpt lat="24.85196" lon="103.726962">
<time>2015-09-27T18:24:38Z</time></trkpt>
<trkpt lat="24.851652" lon="103.725304">
<time>2015-09-27T18:24:39Z</time></trkpt>
<trkpt lat="24.851632" lon="103.725184">
<time>2015-09-27T18:24:40Z</time></trkpt>
<trkpt lat="24.851573" lon="103.724285">
<time>2015-09-27T18:24:41Z</time></trkpt>
<trkpt lat="24.851623" lon="103.723725">
<time>2015-09-27T18:24:42Z</time></trkpt>
<trkpt lat="24.851754" lon="103.723166">
<time>2015-09-27T18:24:43Z</time></trkpt>
<trkpt lat="24.852125" lon="103.721948">
<time>2015-09-27T18:24:44Z</time></trkpt>
<trkpt lat="24.852205" lon="103.721398">
<time>2015-09-27T18:24:45Z</time></trkpt>
<trkpt lat="24.852226" lon="103.720769">
<time>2015-09-27T18:24:46Z</time></trkpt>
<trkpt lat="24.852116" lon="103.72012">
<time>2015-09-27T18:24:47Z</time></trkpt>
<trkpt lat="24.851847" lon="103.719231">
<time>2015-09-27T18:24:48Z</time></trkpt>
<trkpt lat="24.850582" lon="103.714828">
<time>2015-09-27T18:24:49Z</time></trkpt>
<trkpt lat="24.850164" lon="103.71356">
<time>2015-09-27T18:24:50Z</time></trkpt>
<trkpt lat="24.850044" lon="103.71333">
<time>2015-09-27T18:24:51Z</time></trkpt>
<trkpt lat="24.849905" lon="103.713091">
<time>2015-09-27T18:24:52Z</time></trkpt>
<trkpt lat="24.846703" lon="103.70728">
<time>2015-09-27T18:24:53Z</time></trkpt>
<trkpt lat="24.845454" lon="103.706342">
<time>2015-09-27T18:24:54Z</time></trkpt>
<trkpt lat="24.844076" lon="103.705284">
<time>2015-09-27T18:24:55Z</time></trkpt>
<trkpt lat="24.843137" lon="103.704555">
<time>2015-09-27T18:24:56Z</time></trkpt>
<trkpt lat="24.842817" lon="103.704256">
<time>2015-09-27T18:24:57Z</time></trkpt>
<trkpt lat="24.842608" lon="103.704026">
<time>2015-09-27T18:24:58Z</time></trkpt>
<trkpt lat="24.842248" lon="103.703577">
<time>2015-09-27T18:24:59Z</time></trkpt>
<trkpt lat="24.84138" lon="103.70244">
<time>2015-09-27T18:25:00Z</time></trkpt>
<trkpt lat="24.840842" lon="103.701591">
<time>2015-09-27T18:25:01Z</time></trkpt>
<trkpt lat="24.840323" lon="103.700633">
<time>2015-09-27T18:25:02Z</time></trkpt>
<trkpt lat="24.840134" lon="103.700244">
<time>2015-09-27T18:25:03Z</time></trkpt>
<trkpt lat="24.840074" lon="103.700134">
<time>2015-09-27T18:25:04Z</time></trkpt>
<trkpt lat="24.840004" lon="103.699914">
<time>2015-09-27T18:25:05Z</time></trkpt>
<trkpt lat="24.839985" lon="103.699625">
<time>2015-09-27T18:25:06Z</time></trkpt>
<trkpt lat="24.839975" lon="103.699346">
<time>2015-09-27T18:25:07Z</time></trkpt>
<trkpt lat="24.839975" lon="103.699266">
<time>2015-09-27T18:25:08Z</time></trkpt>
<trkpt lat="24.839986" lon="103.699066">
<time>2015-09-27T18:25:09Z</time></trkpt>
<trkpt lat="24.840116" lon="103.698567">
<time>2015-09-27T18:25:10Z</time></trkpt>
<trkpt lat="24.840187" lon="103.698388">
<time>2015-09-27T18:25:11Z</time></trkpt>
<trkpt lat="24.840237" lon="103.698268">
<time>2015-09-27T18:25:12Z</time></trkpt>
<trkpt lat="24.840397" lon="103.698048">
<time>2015-09-27T18:25:13Z</time></trkpt>
<trkpt lat="24.840698" lon="103.697709">
<time>2015-09-27T18:25:14Z</time></trkpt>
<trkpt lat="24.840818" lon="103.697539">
<time>2015-09-27T18:25:15Z</time></trkpt>
<trkpt lat="24.840918" lon="103.697419">
<time>2015-09-27T18:25:16Z</time></trkpt>
<trkpt lat="24.841008" lon="103.69725">
<time>2015-09-27T18:25:17Z</time></trkpt>
<trkpt lat="24.841109" lon="103.696871">
<time>2015-09-27T18:25:18Z</time></trkpt>
<trkpt lat="24.84127" lon="103.696212">
<time>2015-09-27T18:25:19Z</time></trkpt>
<trkpt lat="24.842186" lon="103.69253">
<time>2015-09-27T18:25:20Z</time></trkpt>
<trkpt lat="24.842509" lon="103.691163">
<time>2015-09-27T18:25:21Z</time></trkpt>
<trkpt lat="24.842962" lon="103.689386">
<time>2015-09-27T18:25:22Z</time></trkpt>
<trkpt lat="24.843153" lon="103.688658">
<time>2015-09-27T18:25:23Z</time></trkpt>
<trkpt lat="24.843243" lon="103.688389">
<time>2015-09-27T18:25:24Z</time></trkpt>
<trkpt lat="24.843314" lon="103.688209">
<time>2015-09-27T18:25:25Z</time></trkpt>
<trkpt lat="24.843404" lon="103.688119">
<time>2015-09-27T18:25:26Z</time></trkpt>
<trkpt lat="24.843574" lon="103.688009">
<time>2015-09-27T18:25:27Z</time></trkpt>
<trkpt lat="24.843744" lon="103.68795">
<time>2015-09-27T18:25:28Z</time></trkpt>
<trkpt lat="24.843954" lon="103.68791">
<time>2015-09-27T18:25:29Z</time></trkpt>
<trkpt lat="24.843984" lon="103.68792">
<time>2015-09-27T18:25:30Z</time></trkpt>
<trkpt lat="24.843984" lon="103.68792">
<time>2015-09-27T18:25:31Z</time></trkpt>
<trkpt lat="24.844034" lon="103.68772">
<time>2015-09-27T18:25:32Z</time></trkpt>
<trkpt lat="24.844085" lon="103.687431">
<time>2015-09-27T18:25:33Z</time></trkpt>
<trkpt lat="24.844155" lon="103.687241">
<time>2015-09-27T18:25:34Z</time></trkpt>
<trkpt lat="24.844326" lon="103.686962">
<time>2015-09-27T18:25:35Z</time></trkpt>
<trkpt lat="24.844386" lon="103.686822">
<time>2015-09-27T18:25:36Z</time></trkpt>
<trkpt lat="24.844386" lon="103.686762">
<time>2015-09-27T18:25:37Z</time></trkpt>
<trkpt lat="24.844366" lon="103.686712">
<time>2015-09-27T18:25:38Z</time></trkpt>
<trkpt lat="24.844326" lon="103.686672">
<time>2015-09-27T18:25:39Z</time></trkpt>
<trkpt lat="24.843927" lon="103.686473">
<time>2015-09-27T18:25:40Z</time></trkpt>
<trkpt lat="24.843807" lon="103.686443">
<time>2015-09-27T18:25:41Z</time></trkpt>
<trkpt lat="24.843677" lon="103.686403">
<time>2015-09-27T18:25:42Z</time></trkpt>
<trkpt lat="24.843567" lon="103.686383">
<time>2015-09-27T18:25:43Z</time></trkpt>
<trkpt lat="24.843387" lon="103.686333">
<time>2015-09-27T18:25:44Z</time></trkpt>
<trkpt lat="24.843237" lon="103.686303">
<time>2015-09-27T18:25:45Z</time></trkpt>
<trkpt lat="24.842927" lon="103.686223">
<time>2015-09-27T18:25:46Z</time></trkpt>
<trkpt lat="24.842777" lon="103.686203">
<time>2015-09-27T18:25:47Z</time></trkpt>
<trkpt lat="24.842647" lon="103.686194">
<time>2015-09-27T18:25:48Z</time></trkpt>
<trkpt lat="24.842497" lon="103.686154">
<time>2015-09-27T18:25:49Z</time></trkpt>
<trkpt lat="24.842268" lon="103.686054">
<time>2015-09-27T18:25:50Z</time></trkpt>
<trkpt lat="24.842078" lon="103.685924">
<time>2015-09-27T18:25:51Z</time></trkpt>
<trkpt lat="24.841599" lon="103.685565">
<time>2015-09-27T18:25:52Z</time></trkpt>
<trkpt lat="24.841289" lon="103.685276">
<time>2015-09-27T18:25:53Z</time></trkpt>
<trkpt lat="24.841129" lon="103.685156">
<time>2015-09-27T18:25:54Z</time></trkpt>
<trkpt lat="24.8409" lon="103.684976">
<time>2015-09-27T18:25:55Z</time></trkpt>
<trkpt lat="24.84064" lon="103.684707">
<time>2015-09-27T18:25:56Z</time></trkpt>
<trkpt lat="24.84053" lon="103.684607">
<time>2015-09-27T18:25:57Z</time></trkpt>
<trkpt lat="24.840251" lon="103.684328">
<time>2015-09-27T18:25:58Z</time></trkpt>
<trkpt lat="24.840011" lon="103.684148">
<time>2015-09-27T18:25:59Z</time></trkpt>
<trkpt lat="24.839822" lon="103.683979">
<time>2015-09-27T18:26:00Z</time></trkpt>
<trkpt lat="24.839702" lon="103.683879">
<time>2015-09-27T18:26:01Z</time></trkpt>
<trkpt lat="24.839592" lon="103.683779">
<time>2015-09-27T18:26:02Z</time></trkpt>
<trkpt lat="24.839462" lon="103.683709">
<time>2015-09-27T18:26:03Z</time></trkpt>
<trkpt lat="24.839223" lon="103.68359">
<time>2015-09-27T18:26:04Z</time></trkpt>
<trkpt lat="24.839193" lon="103.68356">
<time>2015-09-27T18:26:05Z</time></trkpt>
<trkpt lat="24.839163" lon="103.68349">
<time>2015-09-27T18:26:06Z</time></trkpt>
<trkpt lat="24.839163" lon="103.68349">
<time>2015-09-27T18:26:07Z</time></trkpt>
<trkpt lat="24.839173" lon="103.68342">
<time>2015-09-27T18:26:08Z</time></trkpt>
<trkpt lat="24.839203" lon="103.68331">
<time>2015-09-27T18:26:09Z</time></trkpt>
<trkpt lat="24.839243" lon="103.68316">
<time>2015-09-27T18:26:10Z</time></trkpt>
<trkpt lat="24.839304" lon="103.682961">
<time>2015-09-27T18:26:11Z</time></trkpt>
<trkpt lat="24.839374" lon="103.682771">
<time>2015-09-27T18:26:12Z</time></trkpt>
<trkpt lat="24.839464" lon="103.682602">
<time>2015-09-27T18:26:13Z</time></trkpt>
<trkpt lat="24.839565" lon="103.682402">
<time>2015-09-27T18:26:14Z</time></trkpt>
<trkpt lat="24.839635" lon="103.682263">
<time>2015-09-27T18:26:15Z</time></trkpt>
<trkpt lat="24.839685" lon="103.682153">
<time>2015-09-27T18:26:16Z</time></trkpt>
<trkpt lat="24.839745" lon="103.682043">
<time>2015-09-27T18:26:17Z</time></trkpt>
<trkpt lat="24.839826" lon="103.681913">
<time>2015-09-27T18:26:18Z</time></trkpt>
<trkpt lat="24.839886" lon="103.681774">
<time>2015-09-27T18:26:19Z</time></trkpt>
<trkpt lat="24.840116" lon="103.681514">
<time>2015-09-27T18:26:20Z</time></trkpt>
<trkpt lat="24.840417" lon="103.681185">
<time>2015-09-27T18:26:21Z</time></trkpt>
<trkpt lat="24.840527" lon="103.681015">
<time>2015-09-27T18:26:22Z</time></trkpt>
<trkpt lat="24.840658" lon="103.680756">
<time>2015-09-27T18:26:23Z</time></trkpt>
<trkpt lat="24.840818" lon="103.680427">
<time>2015-09-27T18:26:24Z</time></trkpt>
<trkpt lat="24.841009" lon="103.680028">
<time>2015-09-27T18:26:25Z</time></trkpt>
<trkpt lat="24.84116" lon="103.679649">
<time>2015-09-27T18:26:26Z</time></trkpt>
<trkpt lat="24.84123" lon="103.679509">
<time>2015-09-27T18:26:27Z</time></trkpt>
<trkpt lat="24.84126" lon="103.679349">
<time>2015-09-27T18:26:28Z</time></trkpt>
<trkpt lat="24.84127" lon="103.67922">
<time>2015-09-27T18:26:29Z</time></trkpt>
<trkpt lat="24.841301" lon="103.67908">
<time>2015-09-27T18:26:30Z</time></trkpt>
<trkpt lat="24.841331" lon="103.67892">
<time>2015-09-27T18:26:31Z</time></trkpt>
<trkpt lat="24.841361" lon="103.678771">
<time>2015-09-27T18:26:32Z</time></trkpt>
<trkpt lat="24.841401" lon="103.678681">
<time>2015-09-27T18:26:33Z</time></trkpt>
<trkpt lat="24.841432" lon="103.678581">
<time>2015-09-27T18:26:34Z</time></trkpt>
<trkpt lat="24.841462" lon="103.678471">
<time>2015-09-27T18:26:35Z</time></trkpt>
<trkpt lat="24.841462" lon="103.678352">
<time>2015-09-27T18:26:36Z</time></trkpt>
<trkpt lat="24.841422" lon="103.678222">
<time>2015-09-27T18:26:37Z</time></trkpt>
<trkpt lat="24.841433" lon="103.678102">
<time>2015-09-27T18:26:38Z</time></trkpt>
<trkpt lat="24.841473" lon="103.677982">
<time>2015-09-27T18:26:39Z</time></trkpt>
<trkpt lat="24.841553" lon="103.677952">
<time>2015-09-27T18:26:40Z</time></trkpt>
<trkpt lat="24.841643" lon="103.677883">
<time>2015-09-27T18:26:41Z</time></trkpt>
<trkpt lat="24.841723" lon="103.677773">
<time>2015-09-27T18:26:42Z</time></trkpt>
<trkpt lat="24.841814" lon="103.677553">
<time>2015-09-27T18:26:43Z</time></trkpt>
<trkpt lat="24.841954" lon="103.677374">
<time>2015-09-27T18:26:44Z</time></trkpt>
<trkpt lat="24.842114" lon="103.677154">
<time>2015-09-27T18:26:45Z</time></trkpt>
<trkpt lat="24.842265" lon="103.676995">
<time>2015-09-27T18:26:46Z</time></trkpt>
<trkpt lat="24.842435" lon="103.676875">
<time>2015-09-27T18:26:47Z</time></trkpt>
<trkpt lat="24.842655" lon="103.676775">
<time>2015-09-27T18:26:48Z</time></trkpt>
<trkpt lat="24.842745" lon="103.676685">
<time>2015-09-27T18:26:49Z</time></trkpt>
<trkpt lat="24.842845" lon="103.676536">
<time>2015-09-27T18:26:50Z</time></trkpt>
<trkpt lat="24.842986" lon="103.676266">
<time>2015-09-27T18:26:51Z</time></trkpt>
<trkpt lat="24.843106" lon="103.676027">
<time>2015-09-27T18:26:52Z</time></trkpt>
<trkpt lat="24.843176" lon="103.675897">
<time>2015-09-27T18:26:53Z</time></trkpt>
<trkpt lat="24.843237" lon="103.675797">
<time>2015-09-27T18:26:54Z</time></trkpt>
<trkpt lat="24.843317" lon="103.675658">
<time>2015-09-27T18:26:55Z</time></trkpt>
<trkpt lat="24.843437" lon="103.675488">
<time>2015-09-27T18:26:56Z</time></trkpt>
<trkpt lat="24.843568" lon="103.675319">
<time>2015-09-27T18:26:57Z</time></trkpt>
<trkpt lat="24.843758" lon="103.675079">
<time>2015-09-27T18:26:58Z</time></trkpt>
<trkpt lat="24.843919" lon="103.67477">
<time>2015-09-27T18:26:59Z</time></trkpt>
<trkpt lat="24.844119" lon="103.674401">
<time>2015-09-27T18:27:00Z</time></trkpt>
<trkpt lat="24.84428" lon="103.674141">
<time>2015-09-27T18:27:01Z</time></trkpt>
<trkpt lat="24.84436" lon="103.673972">
<time>2015-09-27T18:27:02Z</time></trkpt>
<trkpt lat="24.84443" lon="103.673902">
<time>2015-09-27T18:27:03Z</time></trkpt>
<trkpt lat="24.84455" lon="103.673822">
<time>2015-09-27T18:27:04Z</time></trkpt>
<trkpt lat="24.844651" lon="103.673702">
<time>2015-09-27T18:27:05Z</time></trkpt>
<trkpt lat="24.844771" lon="103.673403">
<time>2015-09-27T18:27:06Z</time></trkpt>
<trkpt lat="24.844902" lon="103.673084">
<time>2015-09-27T18:27:07Z</time></trkpt>
<trkpt lat="24.844952" lon="103.673034">
<time>2015-09-27T18:27:08Z</time></trkpt>
<trkpt lat="24.845072" lon="103.672954">
<time>2015-09-27T18:27:09Z</time></trkpt>
<trkpt lat="24.845302" lon="103.672834">
<time>2015-09-27T18:27:10Z</time></trkpt>
<trkpt lat="24.845583" lon="103.672595">
<time>2015-09-27T18:27:11Z</time></trkpt>
<trkpt lat="24.845693" lon="103.672525">
<time>2015-09-27T18:27:12Z</time></trkpt>
<trkpt lat="24.845893" lon="103.672326">
<time>2015-09-27T18:27:13Z</time></trkpt>
<trkpt lat="24.846153" lon="103.672176">
<time>2015-09-27T18:27:14Z</time></trkpt>
<trkpt lat="24.846213" lon="103.672126">
<time>2015-09-27T18:27:15Z</time></trkpt>
<trkpt lat="24.846354" lon="103.671956">
<time>2015-09-27T18:27:16Z</time></trkpt>
<trkpt lat="24.846464" lon="103.671747">
<time>2015-09-27T18:27:17Z</time></trkpt>
<trkpt lat="24.846715" lon="103.671378">
<time>2015-09-27T18:27:18Z</time></trkpt>
<trkpt lat="24.846835" lon="103.671138">
<time>2015-09-27T18:27:19Z</time></trkpt>
<trkpt lat="24.846956" lon="103.670949">
<time>2015-09-27T18:27:20Z</time></trkpt>
<trkpt lat="24.847056" lon="103.670779">
<time>2015-09-27T18:27:21Z</time></trkpt>
<trkpt lat="24.847136" lon="103.67062">
<time>2015-09-27T18:27:22Z</time></trkpt>
<trkpt lat="24.847267" lon="103.67032">
<time>2015-09-27T18:27:23Z</time></trkpt>
<trkpt lat="24.847387" lon="103.670031">
<time>2015-09-27T18:27:24Z</time></trkpt>
<trkpt lat="24.847518" lon="103.669722">
<time>2015-09-27T18:27:25Z</time></trkpt>
<trkpt lat="24.847598" lon="103.669492">
<time>2015-09-27T18:27:26Z</time></trkpt>
<trkpt lat="24.847679" lon="103.669273">
<time>2015-09-27T18:27:27Z</time></trkpt>
<trkpt lat="24.84785" lon="103.668744">
<time>2015-09-27T18:27:28Z</time></trkpt>
<trkpt lat="24.8479" lon="103.668505">
<time>2015-09-27T18:27:29Z</time></trkpt>
<trkpt lat="24.847961" lon="103.668125">
<time>2015-09-27T18:27:30Z</time></trkpt>
<trkpt lat="24.848062" lon="103.667567">
<time>2015-09-27T18:27:31Z</time></trkpt>
<trkpt lat="24.848103" lon="103.667168">
<time>2015-09-27T18:27:32Z</time></trkpt>
<trkpt lat="24.848143" lon="103.666878">
<time>2015-09-27T18:27:33Z</time></trkpt>
<trkpt lat="24.848214" lon="103.666469">
<time>2015-09-27T18:27:34Z</time></trkpt>
<trkpt lat="24.848295" lon="103.66608">
<time>2015-09-27T18:27:35Z</time></trkpt>
<trkpt lat="24.848416" lon="103.665512">
<time>2015-09-27T18:27:36Z</time></trkpt>
<trkpt lat="24.848497" lon="103.665093">
<time>2015-09-27T18:27:37Z</time></trkpt>
<trkpt lat="24.848547" lon="103.664863">
<time>2015-09-27T18:27:38Z</time></trkpt>
<trkpt lat="24.848758" lon="103.664494">
<time>2015-09-27T18:27:39Z</time></trkpt>
<trkpt lat="24.848888" lon="103.664324">
<time>2015-09-27T18:27:40Z</time></trkpt>
<trkpt lat="24.849178" lon="103.664055">
<time>2015-09-27T18:27:41Z</time></trkpt>
<trkpt lat="24.849399" lon="103.663875">
<time>2015-09-27T18:27:42Z</time></trkpt>
<trkpt lat="24.849719" lon="103.663666">
<time>2015-09-27T18:27:43Z</time></trkpt>
<trkpt lat="24.85018" lon="103.663367">
<time>2015-09-27T18:27:44Z</time></trkpt>
<trkpt lat="24.85057" lon="103.663207">
<time>2015-09-27T18:27:45Z</time></trkpt>
<trkpt lat="24.85075" lon="103.663117">
<time>2015-09-27T18:27:46Z</time></trkpt>
<trkpt lat="24.8513" lon="103.662918">
<time>2015-09-27T18:27:47Z</time></trkpt>
<trkpt lat="24.851621" lon="103.662778">
<time>2015-09-27T18:27:48Z</time></trkpt>
<trkpt lat="24.851921" lon="103.662628">
<time>2015-09-27T18:27:49Z</time></trkpt>
<trkpt lat="24.852271" lon="103.662499">
<time>2015-09-27T18:27:50Z</time></trkpt>
<trkpt lat="24.852531" lon="103.662399">
<time>2015-09-27T18:27:51Z</time></trkpt>
<trkpt lat="24.852741" lon="103.662289">
<time>2015-09-27T18:27:52Z</time></trkpt>
<trkpt lat="24.852932" lon="103.662199">
<time>2015-09-27T18:27:53Z</time></trkpt>
<trkpt lat="24.853142" lon="103.66208">
<time>2015-09-27T18:27:54Z</time></trkpt>
<trkpt lat="24.853292" lon="103.66199">
<time>2015-09-27T18:27:55Z</time></trkpt>
<trkpt lat="24.853682" lon="103.66181">
<time>2015-09-27T18:27:56Z</time></trkpt>
<trkpt lat="24.854163" lon="103.661591">
<time>2015-09-27T18:27:57Z</time></trkpt>
<trkpt lat="24.854393" lon="103.661481">
<time>2015-09-27T18:27:58Z</time></trkpt>
<trkpt lat="24.854683" lon="103.661341">
<time>2015-09-27T18:27:59Z</time></trkpt>
<trkpt lat="24.855203" lon="103.661112">
<time>2015-09-27T18:28:00Z</time></trkpt>
<trkpt lat="24.855394" lon="103.661022">
<time>2015-09-27T18:28:01Z</time></trkpt>
<trkpt lat="24.855844" lon="103.660802">
<time>2015-09-27T18:28:02Z</time></trkpt>
<trkpt lat="24.856264" lon="103.660603">
<time>2015-09-27T18:28:03Z</time></trkpt>
<trkpt lat="24.856564" lon="103.660473">
<time>2015-09-27T18:28:04Z</time></trkpt>
<trkpt lat="24.856805" lon="103.660393">
<time>2015-09-27T18:28:05Z</time></trkpt>
<trkpt lat="24.857125" lon="103.660334">
<time>2015-09-27T18:28:06Z</time></trkpt>
<trkpt lat="24.857615" lon="103.660234">
<time>2015-09-27T18:28:07Z</time></trkpt>
<trkpt lat="24.857865" lon="103.660184">
<time>2015-09-27T18:28:08Z</time></trkpt>
<trkpt lat="24.858275" lon="103.660124">
<time>2015-09-27T18:28:09Z</time></trkpt>
<trkpt lat="24.858715" lon="103.660064">
<time>2015-09-27T18:28:10Z</time></trkpt>
<trkpt lat="24.858925" lon="103.660024">
<time>2015-09-27T18:28:11Z</time></trkpt>
<trkpt lat="24.859135" lon="103.659984">
<time>2015-09-27T18:28:12Z</time></trkpt>
<trkpt lat="24.859335" lon="103.659964">
<time>2015-09-27T18:28:13Z</time></trkpt>
<trkpt lat="24.859595" lon="103.659894">
<time>2015-09-27T18:28:14Z</time></trkpt>
<trkpt lat="24.859635" lon="103.659875">
<time>2015-09-27T18:28:15Z</time></trkpt>
<trkpt lat="24.859935" lon="103.659775">
<time>2015-09-27T18:28:16Z</time></trkpt>
<trkpt lat="24.860075" lon="103.659685">
<time>2015-09-27T18:28:17Z</time></trkpt>
<trkpt lat="24.860196" lon="103.659595">
<time>2015-09-27T18:28:18Z</time></trkpt>
<trkpt lat="24.860326" lon="103.659475">
<time>2015-09-27T18:28:19Z</time></trkpt>
<trkpt lat="24.860406" lon="103.659406">
<time>2015-09-27T18:28:20Z</time></trkpt>
<trkpt lat="24.860506" lon="103.659296">
<time>2015-09-27T18:28:21Z</time></trkpt>
<trkpt lat="24.860676" lon="103.659116">
<time>2015-09-27T18:28:22Z</time></trkpt>
<trkpt lat="24.860947" lon="103.658867">
<time>2015-09-27T18:28:23Z</time></trkpt>
<trkpt lat="24.861298" lon="103.658518">
<time>2015-09-27T18:28:24Z</time></trkpt>
<trkpt lat="24.861518" lon="103.658288">
<time>2015-09-27T18:28:25Z</time></trkpt>
<trkpt lat="24.861558" lon="103.658238">
<time>2015-09-27T18:28:26Z</time></trkpt>
<trkpt lat="24.861858" lon="103.657969">
<time>2015-09-27T18:28:27Z</time></trkpt>
<trkpt lat="24.862259" lon="103.65758">
<time>2015-09-27T18:28:28Z</time></trkpt>
<trkpt lat="24.862379" lon="103.65745">
<time>2015-09-27T18:28:29Z</time></trkpt>
<trkpt lat="24.86268" lon="103.657191">
<time>2015-09-27T18:28:30Z</time></trkpt>
<trkpt lat="24.86288" lon="103.656981">
<time>2015-09-27T18:28:31Z</time></trkpt>
<trkpt lat="24.86308" lon="103.656851">
<time>2015-09-27T18:28:32Z</time></trkpt>
<trkpt lat="24.863341" lon="103.656762">
<time>2015-09-27T18:28:33Z</time></trkpt>
<trkpt lat="24.863591" lon="103.656702">
<time>2015-09-27T18:28:34Z</time></trkpt>
<trkpt lat="24.864011" lon="103.656612">
<time>2015-09-27T18:28:35Z</time></trkpt>
<trkpt lat="24.864301" lon="103.656522">
<time>2015-09-27T18:28:36Z</time></trkpt>
<trkpt lat="24.864681" lon="103.656432">
<time>2015-09-27T18:28:37Z</time></trkpt>
<trkpt lat="24.864911" lon="103.656362">
<time>2015-09-27T18:28:38Z</time></trkpt>
<trkpt lat="24.865111" lon="103.656313">
<time>2015-09-27T18:28:39Z</time></trkpt>
<trkpt lat="24.865271" lon="103.656193">
<time>2015-09-27T18:28:40Z</time></trkpt>
<trkpt lat="24.865442" lon="103.655993">
<time>2015-09-27T18:28:41Z</time></trkpt>
<trkpt lat="24.865592" lon="103.655754">
<time>2015-09-27T18:28:42Z</time></trkpt>
<trkpt lat="24.865923" lon="103.655325">
<time>2015-09-27T18:28:43Z</time></trkpt>
<trkpt lat="24.866033" lon="103.655165">
<time>2015-09-27T18:28:44Z</time></trkpt>
<trkpt lat="24.866153" lon="103.654986">
<time>2015-09-27T18:28:45Z</time></trkpt>
<trkpt lat="24.866494" lon="103.654586">
<time>2015-09-27T18:28:46Z</time></trkpt>
<trkpt lat="24.866604" lon="103.654417">
<time>2015-09-27T18:28:47Z</time></trkpt>
<trkpt lat="24.866695" lon="103.654257">
<time>2015-09-27T18:28:48Z</time></trkpt>
<trkpt lat="24.866745" lon="103.654108">
<time>2015-09-27T18:28:49Z</time></trkpt>
<trkpt lat="24.866795" lon="103.653868">
<time>2015-09-27T18:28:50Z</time></trkpt>
<trkpt lat="24.866826" lon="103.653459">
<time>2015-09-27T18:28:51Z</time></trkpt>
<trkpt lat="24.866847" lon="103.65311">
<time>2015-09-27T18:28:52Z</time></trkpt>
<trkpt lat="24.866837" lon="103.65286">
<time>2015-09-27T18:28:53Z</time></trkpt>
<trkpt lat="24.866858" lon="103.652451">
<time>2015-09-27T18:28:54Z</time></trkpt>
<trkpt lat="24.866868" lon="103.652192">
<time>2015-09-27T18:28:55Z</time></trkpt>
<trkpt lat="24.866889" lon="103.651982">
<time>2015-09-27T18:28:56Z</time></trkpt>
<trkpt lat="24.866929" lon="103.651803">
<time>2015-09-27T18:28:57Z</time></trkpt>
<trkpt lat="24.86715" lon="103.651464">
<time>2015-09-27T18:28:58Z</time></trkpt>
<trkpt lat="24.86729" lon="103.651264">
<time>2015-09-27T18:28:59Z</time></trkpt>
<trkpt lat="24.8675" lon="103.651015">
<time>2015-09-27T18:29:00Z</time></trkpt>
<trkpt lat="24.867681" lon="103.650845">
<time>2015-09-27T18:29:01Z</time></trkpt>
<trkpt lat="24.867911" lon="103.650665">
<time>2015-09-27T18:29:02Z</time></trkpt>
<trkpt lat="24.868101" lon="103.650526">
<time>2015-09-27T18:29:03Z</time></trkpt>
<trkpt lat="24.868221" lon="103.650466">
<time>2015-09-27T18:29:04Z</time></trkpt>
<trkpt lat="24.868331" lon="103.650436">
<time>2015-09-27T18:29:05Z</time></trkpt>
<trkpt lat="24.868431" lon="103.650446">
<time>2015-09-27T18:29:06Z</time></trkpt>
<trkpt lat="24.868521" lon="103.650456">
<time>2015-09-27T18:29:07Z</time></trkpt>
<trkpt lat="24.868601" lon="103.650486">
<time>2015-09-27T18:29:08Z</time></trkpt>
<trkpt lat="24.868691" lon="103.650526">
<time>2015-09-27T18:29:09Z</time></trkpt>
<trkpt lat="24.868821" lon="103.650595">
<time>2015-09-27T18:29:10Z</time></trkpt>
<trkpt lat="24.868951" lon="103.650655">
<time>2015-09-27T18:29:11Z</time></trkpt>
<trkpt lat="24.869131" lon="103.650745">
<time>2015-09-27T18:29:12Z</time></trkpt>
<trkpt lat="24.869221" lon="103.650765">
<time>2015-09-27T18:29:13Z</time></trkpt>
<trkpt lat="24.869271" lon="103.650765">
<time>2015-09-27T18:29:14Z</time></trkpt>
<trkpt lat="24.869331" lon="103.650745">
<time>2015-09-27T18:29:15Z</time></trkpt>
<trkpt lat="24.869391" lon="103.650725">
<time>2015-09-27T18:29:16Z</time></trkpt>
<trkpt lat="24.869431" lon="103.650665">
<time>2015-09-27T18:29:17Z</time></trkpt>
<trkpt lat="24.869461" lon="103.650625">
<time>2015-09-27T18:29:18Z</time></trkpt>
<trkpt lat="24.869471" lon="103.650546">
<time>2015-09-27T18:29:19Z</time></trkpt>
<trkpt lat="24.869481" lon="103.650476">
<time>2015-09-27T18:29:20Z</time></trkpt>
<trkpt lat="24.869461" lon="103.650386">
<time>2015-09-27T18:29:21Z</time></trkpt>
<trkpt lat="24.869422" lon="103.650276">
<time>2015-09-27T18:29:22Z</time></trkpt>
<trkpt lat="24.869332" lon="103.650027">
<time>2015-09-27T18:29:23Z</time></trkpt>
<trkpt lat="24.869242" lon="103.649817">
<time>2015-09-27T18:29:24Z</time></trkpt>
<trkpt lat="24.869193" lon="103.649717">
<time>2015-09-27T18:29:25Z</time></trkpt>
<trkpt lat="24.869123" lon="103.649508">
<time>2015-09-27T18:29:26Z</time></trkpt>
<trkpt lat="24.869063" lon="103.649268">
<time>2015-09-27T18:29:27Z</time></trkpt>
<trkpt lat="24.869014" lon="103.649089">
<time>2015-09-27T18:29:28Z</time></trkpt>
<trkpt lat="24.868984" lon="103.648939">
<time>2015-09-27T18:29:29Z</time></trkpt>
<trkpt lat="24.868954" lon="103.648809">
<time>2015-09-27T18:29:30Z</time></trkpt>
<trkpt lat="24.868934" lon="103.64865">
<time>2015-09-27T18:29:31Z</time></trkpt>
<trkpt lat="24.868905" lon="103.64849">
<time>2015-09-27T18:29:32Z</time></trkpt>
<trkpt lat="24.868895" lon="103.64841">
<time>2015-09-27T18:29:33Z</time></trkpt>
<trkpt lat="24.868875" lon="103.64836">
<time>2015-09-27T18:29:34Z</time></trkpt>
<trkpt lat="24.868875" lon="103.64836">
<time>2015-09-27T18:29:35Z</time></trkpt>
<trkpt lat="24.868865" lon="103.64832">
<time>2015-09-27T18:29:36Z</time></trkpt>
<trkpt lat="24.868855" lon="103.648271">
<time>2015-09-27T18:29:37Z</time></trkpt>
<trkpt lat="24.868845" lon="103.648201">
<time>2015-09-27T18:29:38Z</time></trkpt>
<trkpt lat="24.868826" lon="103.648041">
<time>2015-09-27T18:29:39Z</time></trkpt>
<trkpt lat="24.868806" lon="103.647941">
<time>2015-09-27T18:29:40Z</time></trkpt>
<trkpt lat="24.868806" lon="103.647891">
<time>2015-09-27T18:29:41Z</time></trkpt>
<trkpt lat="24.868786" lon="103.647802">
<time>2015-09-27T18:29:42Z</time></trkpt>
<trkpt lat="24.868756" lon="103.647682">
<time>2015-09-27T18:29:43Z</time></trkpt>
<trkpt lat="24.868736" lon="103.647552">
<time>2015-09-27T18:29:44Z</time></trkpt>
<trkpt lat="24.868717" lon="103.647442">
<time>2015-09-27T18:29:45Z</time></trkpt>
<trkpt lat="24.868707" lon="103.647313">
<time>2015-09-27T18:29:46Z</time></trkpt>
<trkpt lat="24.868687" lon="103.647213">
<time>2015-09-27T18:29:47Z</time></trkpt>
<trkpt lat="24.868647" lon="103.647033">
<time>2015-09-27T18:29:48Z</time></trkpt>
<trkpt lat="24.868628" lon="103.646874">
<time>2015-09-27T18:29:49Z</time></trkpt>
<trkpt lat="24.868608" lon="103.646724">
<time>2015-09-27T18:29:50Z</time></trkpt>
<trkpt lat="24.868539" lon="103.646315">
<time>2015-09-27T18:29:51Z</time></trkpt>
<trkpt lat="24.868479" lon="103.646035">
<time>2015-09-27T18:29:52Z</time></trkpt>
<trkpt lat="24.868469" lon="103.645995">
<time>2015-09-27T18:29:53Z</time></trkpt>
<trkpt lat="24.868469" lon="103.645966">
<time>2015-09-27T18:29:54Z</time></trkpt>
<trkpt lat="24.868459" lon="103.645926">
<time>2015-09-27T18:29:55Z</time></trkpt>
<trkpt lat="24.868439" lon="103.645786">
<time>2015-09-27T18:29:56Z</time></trkpt>
<trkpt lat="24.86838" lon="103.645417">
<time>2015-09-27T18:29:57Z</time></trkpt>
<trkpt lat="24.868301" lon="103.644978">
<time>2015-09-27T18:29:58Z</time></trkpt>
<trkpt lat="24.868301" lon="103.644938">
<time>2015-09-27T18:29:59Z</time></trkpt>
<trkpt lat="24.868241" lon="103.644628">
<time>2015-09-27T18:30:00Z</time></trkpt>
<trkpt lat="24.868222" lon="103.644529">
<time>2015-09-27T18:30:01Z</time></trkpt>
<trkpt lat="24.868192" lon="103.644429">
<time>2015-09-27T18:30:02Z</time></trkpt>
<trkpt lat="24.868142" lon="103.644279">
<time>2015-09-27T18:30:03Z</time></trkpt>
<trkpt lat="24.868112" lon="103.644169">
<time>2015-09-27T18:30:04Z</time></trkpt>
<trkpt lat="24.868072" lon="103.64404">
<time>2015-09-27T18:30:05Z</time></trkpt>
<trkpt lat="24.868043" lon="103.64395">
<time>2015-09-27T18:30:06Z</time></trkpt>
<trkpt lat="24.868003" lon="103.64387">
<time>2015-09-27T18:30:07Z</time></trkpt>
<trkpt lat="24.867943" lon="103.64373">
<time>2015-09-27T18:30:08Z</time></trkpt>
<trkpt lat="24.867903" lon="103.64367">
<time>2015-09-27T18:30:09Z</time></trkpt>
<trkpt lat="24.867833" lon="103.643551">
<time>2015-09-27T18:30:10Z</time></trkpt>
<trkpt lat="24.867714" lon="103.643351">
<time>2015-09-27T18:30:11Z</time></trkpt>
<trkpt lat="24.867594" lon="103.643102">
<time>2015-09-27T18:30:12Z</time></trkpt>
<trkpt lat="24.867514" lon="103.642942">
<time>2015-09-27T18:30:13Z</time></trkpt>
<trkpt lat="24.867415" lon="103.642722">
<time>2015-09-27T18:30:14Z</time></trkpt>
<trkpt lat="24.867355" lon="103.642583">
<time>2015-09-27T18:30:15Z</time></trkpt>
<trkpt lat="24.867315" lon="103.642493">
<time>2015-09-27T18:30:16Z</time></trkpt>
<trkpt lat="24.867225" lon="103.642323">
<time>2015-09-27T18:30:17Z</time></trkpt>
<trkpt lat="24.867155" lon="103.642194">
<time>2015-09-27T18:30:18Z</time></trkpt>
<trkpt lat="24.867026" lon="103.641924">
<time>2015-09-27T18:30:19Z</time></trkpt>
<trkpt lat="24.866966" lon="103.641794">
<time>2015-09-27T18:30:20Z</time></trkpt>
<trkpt lat="24.866906" lon="103.641655">
<time>2015-09-27T18:30:21Z</time></trkpt>
<trkpt lat="24.866757" lon="103.641365">
<time>2015-09-27T18:30:22Z</time></trkpt>
<trkpt lat="24.866617" lon="103.641086">
<time>2015-09-27T18:30:23Z</time></trkpt>
<trkpt lat="24.866528" lon="103.640876">
<time>2015-09-27T18:30:24Z</time></trkpt>
<trkpt lat="24.866418" lon="103.640637">
<time>2015-09-27T18:30:25Z</time></trkpt>
<trkpt lat="24.866288" lon="103.640357">
<time>2015-09-27T18:30:26Z</time></trkpt>
<trkpt lat="24.866139" lon="103.640078">
<time>2015-09-27T18:30:27Z</time></trkpt>
<trkpt lat="24.866039" lon="103.639838">
<time>2015-09-27T18:30:28Z</time></trkpt>
<trkpt lat="24.865989" lon="103.639739">
<time>2015-09-27T18:30:29Z</time></trkpt>
<trkpt lat="24.86588" lon="103.639529">
<time>2015-09-27T18:30:30Z</time></trkpt>
<trkpt lat="24.86578" lon="103.639319">
<time>2015-09-27T18:30:31Z</time></trkpt>
<trkpt lat="24.86576" lon="103.639279">
<time>2015-09-27T18:30:32Z</time></trkpt>
<trkpt lat="24.86569" lon="103.63914">
<time>2015-09-27T18:30:33Z</time></trkpt>
<trkpt lat="24.865561" lon="103.6389">
<time>2015-09-27T18:30:34Z</time></trkpt>
<trkpt lat="24.865491" lon="103.638761">
<time>2015-09-27T18:30:35Z</time></trkpt>
<trkpt lat="24.865441" lon="103.638651">
<time>2015-09-27T18:30:36Z</time></trkpt>
<trkpt lat="24.865381" lon="103.638491">
<time>2015-09-27T18:30:37Z</time></trkpt>
<trkpt lat="24.865272" lon="103.638261">
<time>2015-09-27T18:30:38Z</time></trkpt>
<trkpt lat="24.865212" lon="103.638122">
<time>2015-09-27T18:30:39Z</time></trkpt>
<trkpt lat="24.865122" lon="103.637932">
<time>2015-09-27T18:30:40Z</time></trkpt>
<trkpt lat="24.865102" lon="103.637882">
<time>2015-09-27T18:30:41Z</time></trkpt>
<trkpt lat="24.865043" lon="103.637743">
<time>2015-09-27T18:30:42Z</time></trkpt>
<trkpt lat="24.864963" lon="103.637553">
<time>2015-09-27T18:30:43Z</time></trkpt>
<trkpt lat="24.864863" lon="103.637293">
<time>2015-09-27T18:30:44Z</time></trkpt>
<trkpt lat="24.864784" lon="103.637074">
<time>2015-09-27T18:30:45Z</time></trkpt>
<trkpt lat="24.864674" lon="103.636804">
<time>2015-09-27T18:30:46Z</time></trkpt>
<trkpt lat="24.864565" lon="103.636515">
<time>2015-09-27T18:30:47Z</time></trkpt>
<trkpt lat="24.864465" lon="103.636285">
<time>2015-09-27T18:30:48Z</time></trkpt>
<trkpt lat="24.864385" lon="103.636046">
<time>2015-09-27T18:30:49Z</time></trkpt>
<trkpt lat="24.864326" lon="103.635876">
<time>2015-09-27T18:30:50Z</time></trkpt>
<trkpt lat="24.864286" lon="103.635736">
<time>2015-09-27T18:30:51Z</time></trkpt>
<trkpt lat="24.864256" lon="103.635667">
<time>2015-09-27T18:30:52Z</time></trkpt>
<trkpt lat="24.864246" lon="103.635597">
<time>2015-09-27T18:30:53Z</time></trkpt>
<trkpt lat="24.864236" lon="103.635507">
<time>2015-09-27T18:30:54Z</time></trkpt>
<trkpt lat="24.864226" lon="103.635437">
<time>2015-09-27T18:30:55Z</time></trkpt>
<trkpt lat="24.864226" lon="103.635367">
<time>2015-09-27T18:30:56Z</time></trkpt>
<trkpt lat="24.864226" lon="103.635297">
<time>2015-09-27T18:30:57Z</time></trkpt>
<trkpt lat="24.864236" lon="103.635227">
<time>2015-09-27T18:30:58Z</time></trkpt>
<trkpt lat="24.864257" lon="103.635158">
<time>2015-09-27T18:30:59Z</time></trkpt>
<trkpt lat="24.864277" lon="103.635038">
<time>2015-09-27T18:31:00Z</time></trkpt>
<trkpt lat="24.864347" lon="103.634748">
<time>2015-09-27T18:31:01Z</time></trkpt>
<trkpt lat="24.864397" lon="103.634529">
<time>2015-09-27T18:31:02Z</time></trkpt>
<trkpt lat="24.864418" lon="103.634449">
<time>2015-09-27T18:31:03Z</time></trkpt>
<trkpt lat="24.864428" lon="103.634389">
<time>2015-09-27T18:31:04Z</time></trkpt>
<trkpt lat="24.864428" lon="103.634319">
<time>2015-09-27T18:31:05Z</time></trkpt>
<trkpt lat="24.864438" lon="103.634239">
<time>2015-09-27T18:31:06Z</time></trkpt>
<trkpt lat="24.864448" lon="103.634179">
<time>2015-09-27T18:31:07Z</time></trkpt>
<trkpt lat="24.864458" lon="103.634139">
<time>2015-09-27T18:31:08Z</time></trkpt>
<trkpt lat="24.864528" lon="103.63391">
<time>2015-09-27T18:31:09Z</time></trkpt>
<trkpt lat="24.864548" lon="103.63381">
<time>2015-09-27T18:31:10Z</time></trkpt>
<trkpt lat="24.864589" lon="103.63363">
<time>2015-09-27T18:31:11Z</time></trkpt>
<trkpt lat="24.864629" lon="103.633441">
<time>2015-09-27T18:31:12Z</time></trkpt>
<trkpt lat="24.864669" lon="103.633291">
<time>2015-09-27T18:31:13Z</time></trkpt>
<trkpt lat="24.86473" lon="103.633011">
<time>2015-09-27T18:31:14Z</time></trkpt>
<trkpt lat="24.8648" lon="103.632742">
<time>2015-09-27T18:31:15Z</time></trkpt>
<trkpt lat="24.86481" lon="103.632662">
<time>2015-09-27T18:31:16Z</time></trkpt>
<trkpt lat="24.86482" lon="103.632572">
<time>2015-09-27T18:31:17Z</time></trkpt>
<trkpt lat="24.86486" lon="103.632462">
<time>2015-09-27T18:31:18Z</time></trkpt>
<trkpt lat="24.86488" lon="103.632423">
<time>2015-09-27T18:31:19Z</time></trkpt>
<trkpt lat="24.86488" lon="103.632383">
<time>2015-09-27T18:31:20Z</time></trkpt>
<trkpt lat="24.864901" lon="103.632223">
<time>2015-09-27T18:31:21Z</time></trkpt>
<trkpt lat="24.864911" lon="103.632153">
<time>2015-09-27T18:31:22Z</time></trkpt>
<trkpt lat="24.864941" lon="103.632063">
<time>2015-09-27T18:31:23Z</time></trkpt>
<trkpt lat="24.864981" lon="103.631943">
<time>2015-09-27T18:31:24Z</time></trkpt>
<trkpt lat="24.865011" lon="103.631814">
<time>2015-09-27T18:31:25Z</time></trkpt>
<trkpt lat="24.865041" lon="103.631674">
<time>2015-09-27T18:31:26Z</time></trkpt>
<trkpt lat="24.865061" lon="103.631584">
<time>2015-09-27T18:31:27Z</time></trkpt>
<trkpt lat="24.865092" lon="103.631434">
<time>2015-09-27T18:31:28Z</time></trkpt>
<trkpt lat="24.865122" lon="103.631305">
<time>2015-09-27T18:31:29Z</time></trkpt>
<trkpt lat="24.865132" lon="103.631225">
<time>2015-09-27T18:31:30Z</time></trkpt>
<trkpt lat="24.865132" lon="103.631145">
<time>2015-09-27T18:31:31Z</time></trkpt>
<trkpt lat="24.865132" lon="103.631075">
<time>2015-09-27T18:31:32Z</time></trkpt>
<trkpt lat="24.865112" lon="103.630995">
<time>2015-09-27T18:31:33Z</time></trkpt>
<trkpt lat="24.865092" lon="103.630915">
<time>2015-09-27T18:31:34Z</time></trkpt>
<trkpt lat="24.865052" lon="103.630825">
<time>2015-09-27T18:31:35Z</time></trkpt>
<trkpt lat="24.864983" lon="103.630706">
<time>2015-09-27T18:31:36Z</time></trkpt>
<trkpt lat="24.864923" lon="103.630626">
<time>2015-09-27T18:31:37Z</time></trkpt>
<trkpt lat="24.864853" lon="103.630526">
<time>2015-09-27T18:31:38Z</time></trkpt>
<trkpt lat="24.864793" lon="103.630466">
<time>2015-09-27T18:31:39Z</time></trkpt>
<trkpt lat="24.864743" lon="103.630416">
<time>2015-09-27T18:31:40Z</time></trkpt>
<trkpt lat="24.864703" lon="103.630386">
<time>2015-09-27T18:31:41Z</time></trkpt>
<trkpt lat="24.864653" lon="103.630356">
<time>2015-09-27T18:31:42Z</time></trkpt>
<trkpt lat="24.864613" lon="103.630326">
<time>2015-09-27T18:31:43Z</time></trkpt>
<trkpt lat="24.864583" lon="103.630306">
<time>2015-09-27T18:31:44Z</time></trkpt>
<trkpt lat="24.864433" lon="103.630236">
<time>2015-09-27T18:31:45Z</time></trkpt>
<trkpt lat="24.864373" lon="103.630206">
<time>2015-09-27T18:31:46Z</time></trkpt>
<trkpt lat="24.864323" lon="103.630177">
<time>2015-09-27T18:31:47Z</time></trkpt>
<trkpt lat="24.864283" lon="103.630137">
<time>2015-09-27T18:31:48Z</time></trkpt>
<trkpt lat="24.864184" lon="103.630067">
<time>2015-09-27T18:31:49Z</time></trkpt>
<trkpt lat="24.864014" lon="103.629947">
<time>2015-09-27T18:31:50Z</time></trkpt>
<trkpt lat="24.863884" lon="103.629887">
<time>2015-09-27T18:31:51Z</time></trkpt>
<trkpt lat="24.863774" lon="103.629827">
<time>2015-09-27T18:31:52Z</time></trkpt>
<trkpt lat="24.863724" lon="103.629797">
<time>2015-09-27T18:31:53Z</time></trkpt>
<trkpt lat="24.863684" lon="103.629767">
<time>2015-09-27T18:31:54Z</time></trkpt>
<trkpt lat="24.863634" lon="103.629717">
<time>2015-09-27T18:31:55Z</time></trkpt>
<trkpt lat="24.863594" lon="103.629687">
<time>2015-09-27T18:31:56Z</time></trkpt>
<trkpt lat="24.863554" lon="103.629667">
<time>2015-09-27T18:31:57Z</time></trkpt>
<trkpt lat="24.863484" lon="103.629637">
<time>2015-09-27T18:31:58Z</time></trkpt>
<trkpt lat="24.863414" lon="103.629608">
<time>2015-09-27T18:31:59Z</time></trkpt>
<trkpt lat="24.863394" lon="103.629598">
<time>2015-09-27T18:32:00Z</time></trkpt>
<trkpt lat="24.863354" lon="103.629558">
<time>2015-09-27T18:32:01Z</time></trkpt>
<trkpt lat="24.863314" lon="103.629528">
<time>2015-09-27T18:32:02Z</time></trkpt>
<trkpt lat="24.863204" lon="103.629478">
<time>2015-09-27T18:32:03Z</time></trkpt>
<trkpt lat="24.863095" lon="103.629408">
<time>2015-09-27T18:32:04Z</time></trkpt>
<trkpt lat="24.863015" lon="103.629358">
<time>2015-09-27T18:32:05Z</time></trkpt>
<trkpt lat="24.862935" lon="103.629278">
<time>2015-09-27T18:32:06Z</time></trkpt>
<trkpt lat="24.862835" lon="103.629178">
<time>2015-09-27T18:32:07Z</time></trkpt>
<trkpt lat="24.862785" lon="103.629118">
<time>2015-09-27T18:32:08Z</time></trkpt>
<trkpt lat="24.862735" lon="103.629039">
<time>2015-09-27T18:32:09Z</time></trkpt>
<trkpt lat="24.862695" lon="103.628969">
<time>2015-09-27T18:32:10Z</time></trkpt>
<trkpt lat="24.862665" lon="103.628889">
<time>2015-09-27T18:32:11Z</time></trkpt>
<trkpt lat="24.862635" lon="103.628819">
<time>2015-09-27T18:32:12Z</time></trkpt>
<trkpt lat="24.862566" lon="103.628539">
<time>2015-09-27T18:32:13Z</time></trkpt>
<trkpt lat="24.862526" lon="103.6284">
<time>2015-09-27T18:32:14Z</time></trkpt>
<trkpt lat="24.862466" lon="103.62815">
<time>2015-09-27T18:32:15Z</time></trkpt>
<trkpt lat="24.862436" lon="103.62802">
<time>2015-09-27T18:32:16Z</time></trkpt>
<trkpt lat="24.862417" lon="103.62789">
<time>2015-09-27T18:32:17Z</time></trkpt>
<trkpt lat="24.862407" lon="103.627801">
<time>2015-09-27T18:32:18Z</time></trkpt>
<trkpt lat="24.862407" lon="103.627721">
<time>2015-09-27T18:32:19Z</time></trkpt>
<trkpt lat="24.862397" lon="103.627671">
<time>2015-09-27T18:32:20Z</time></trkpt>
<trkpt lat="24.862407" lon="103.627601">
<time>2015-09-27T18:32:21Z</time></trkpt>
<trkpt lat="24.862407" lon="103.627541">
<time>2015-09-27T18:32:22Z</time></trkpt>
<trkpt lat="24.862417" lon="103.627491">
<time>2015-09-27T18:32:23Z</time></trkpt>
<trkpt lat="24.862427" lon="103.627431">
<time>2015-09-27T18:32:24Z</time></trkpt>
<trkpt lat="24.862437" lon="103.627381">
<time>2015-09-27T18:32:25Z</time></trkpt>
<trkpt lat="24.862467" lon="103.627331">
<time>2015-09-27T18:32:26Z</time></trkpt>
<trkpt lat="24.862477" lon="103.627281">
<time>2015-09-27T18:32:27Z</time></trkpt>
<trkpt lat="24.862497" lon="103.627242">
<time>2015-09-27T18:32:28Z</time></trkpt>
<trkpt lat="24.862527" lon="103.627202">
<time>2015-09-27T18:32:29Z</time></trkpt>
<trkpt lat="24.862587" lon="103.627112">
<time>2015-09-27T18:32:30Z</time></trkpt>
<trkpt lat="24.862658" lon="103.627002">
<time>2015-09-27T18:32:31Z</time></trkpt>
<trkpt lat="24.862788" lon="103.626802">
<time>2015-09-27T18:32:32Z</time></trkpt>
<trkpt lat="24.862868" lon="103.626662">
<time>2015-09-27T18:32:33Z</time></trkpt>
<trkpt lat="24.862988" lon="103.626433">
<time>2015-09-27T18:32:34Z</time></trkpt>
<trkpt lat="24.863028" lon="103.626343">
<time>2015-09-27T18:32:35Z</time></trkpt>
<trkpt lat="24.863038" lon="103.626303">
<time>2015-09-27T18:32:36Z</time></trkpt>
<trkpt lat="24.863048" lon="103.626253">
<time>2015-09-27T18:32:37Z</time></trkpt>
<trkpt lat="24.863058" lon="103.626183">
<time>2015-09-27T18:32:38Z</time></trkpt>
<trkpt lat="24.863069" lon="103.626123">
<time>2015-09-27T18:32:39Z</time></trkpt>
<trkpt lat="24.863069" lon="103.626063">
<time>2015-09-27T18:32:40Z</time></trkpt>
<trkpt lat="24.863069" lon="103.625994">
<time>2015-09-27T18:32:41Z</time></trkpt>
<trkpt lat="24.863039" lon="103.625914">
<time>2015-09-27T18:32:42Z</time></trkpt>
<trkpt lat="24.863009" lon="103.625814">
<time>2015-09-27T18:32:43Z</time></trkpt>
<trkpt lat="24.862949" lon="103.625704">
<time>2015-09-27T18:32:44Z</time></trkpt>
<trkpt lat="24.862869" lon="103.625524">
<time>2015-09-27T18:32:45Z</time></trkpt>
<trkpt lat="24.862809" lon="103.625414">
<time>2015-09-27T18:32:46Z</time></trkpt>
<trkpt lat="24.86276" lon="103.625305">
<time>2015-09-27T18:32:47Z</time></trkpt>
<trkpt lat="24.86266" lon="103.625125">
<time>2015-09-27T18:32:48Z</time></trkpt>
<trkpt lat="24.86261" lon="103.625005">
<time>2015-09-27T18:32:49Z</time></trkpt>
<trkpt lat="24.86249" lon="103.624775">
<time>2015-09-27T18:32:50Z</time></trkpt>
<trkpt lat="24.86239" lon="103.624536">
<time>2015-09-27T18:32:51Z</time></trkpt>
<trkpt lat="24.862311" lon="103.624306">
<time>2015-09-27T18:32:52Z</time></trkpt>
<trkpt lat="24.862271" lon="103.624126">
<time>2015-09-27T18:32:53Z</time></trkpt>
<trkpt lat="24.862261" lon="103.623927">
<time>2015-09-27T18:32:54Z</time></trkpt>
<trkpt lat="24.862261" lon="103.623787">
<time>2015-09-27T18:32:55Z</time></trkpt>
<trkpt lat="24.862281" lon="103.623647">
<time>2015-09-27T18:32:56Z</time></trkpt>
<trkpt lat="24.862342" lon="103.623487">
<time>2015-09-27T18:32:57Z</time></trkpt>
<trkpt lat="24.862422" lon="103.623328">
<time>2015-09-27T18:32:58Z</time></trkpt>
<trkpt lat="24.862482" lon="103.623228">
<time>2015-09-27T18:32:59Z</time></trkpt>
<trkpt lat="24.862542" lon="103.623108">
<time>2015-09-27T18:33:00Z</time></trkpt>
<trkpt lat="24.862572" lon="103.623018">
<time>2015-09-27T18:33:01Z</time></trkpt>
<trkpt lat="24.862622" lon="103.622908">
<time>2015-09-27T18:33:02Z</time></trkpt>
<trkpt lat="24.862722" lon="103.622689">
<time>2015-09-27T18:33:03Z</time></trkpt>
<trkpt lat="24.862773" lon="103.622539">
<time>2015-09-27T18:33:04Z</time></trkpt>
<trkpt lat="24.862833" lon="103.622419">
<time>2015-09-27T18:33:05Z</time></trkpt>
<trkpt lat="24.862883" lon="103.622329">
<time>2015-09-27T18:33:06Z</time></trkpt>
<trkpt lat="24.862943" lon="103.622239">
<time>2015-09-27T18:33:07Z</time></trkpt>
<trkpt lat="24.862973" lon="103.622119">
<time>2015-09-27T18:33:08Z</time></trkpt>
<trkpt lat="24.862993" lon="103.62203">
<time>2015-09-27T18:33:09Z</time></trkpt>
<trkpt lat="24.862993" lon="103.62191">
<time>2015-09-27T18:33:10Z</time></trkpt>
<trkpt lat="24.862984" lon="103.62155">
<time>2015-09-27T18:33:11Z</time></trkpt>
<trkpt lat="24.862935" lon="103.620592">
<time>2015-09-27T18:33:12Z</time></trkpt>
<trkpt lat="24.862896" lon="103.619463">
<time>2015-09-27T18:33:13Z</time></trkpt>
<trkpt lat="24.862836" lon="103.618674">
<time>2015-09-27T18:33:14Z</time></trkpt>
<trkpt lat="24.862836" lon="103.618624">
<time>2015-09-27T18:33:15Z</time></trkpt>
<trkpt lat="24.862827" lon="103.618415">
<time>2015-09-27T18:33:16Z</time></trkpt>
<trkpt lat="24.862817" lon="103.618305">
<time>2015-09-27T18:33:17Z</time></trkpt>
<trkpt lat="24.862767" lon="103.618165">
<time>2015-09-27T18:33:18Z</time></trkpt>
<trkpt lat="24.862707" lon="103.618025">
<time>2015-09-27T18:33:19Z</time></trkpt>
<trkpt lat="24.862637" lon="103.617875">
<time>2015-09-27T18:33:20Z</time></trkpt>
<trkpt lat="24.862527" lon="103.617706">
<time>2015-09-27T18:33:21Z</time></trkpt>
<trkpt lat="24.861828" lon="103.616827">
<time>2015-09-27T18:33:22Z</time></trkpt>
<trkpt lat="24.861119" lon="103.616008">
<time>2015-09-27T18:33:23Z</time></trkpt>
<trkpt lat="24.86044" lon="103.615159">
<time>2015-09-27T18:33:24Z</time></trkpt>
<trkpt lat="24.8602" lon="103.614859">
<time>2015-09-27T18:33:25Z</time></trkpt>
<trkpt lat="24.86" lon="103.614649">
<time>2015-09-27T18:33:26Z</time></trkpt>
<trkpt lat="24.85979" lon="103.61446">
<time>2015-09-27T18:33:27Z</time></trkpt>
<trkpt lat="24.85957" lon="103.61427">
<time>2015-09-27T18:33:28Z</time></trkpt>
<trkpt lat="24.859271" lon="103.61407">
<time>2015-09-27T18:33:29Z</time></trkpt>
<trkpt lat="24.859021" lon="103.61393">
<time>2015-09-27T18:33:30Z</time></trkpt>
<trkpt lat="24.858811" lon="103.6138">
<time>2015-09-27T18:33:31Z</time></trkpt>
<trkpt lat="24.858611" lon="103.61371">
<time>2015-09-27T18:33:32Z</time></trkpt>
<trkpt lat="24.858431" lon="103.613641">
<time>2015-09-27T18:33:33Z</time></trkpt>
<trkpt lat="24.858231" lon="103.613541">
<time>2015-09-27T18:33:34Z</time></trkpt>
<trkpt lat="24.857382" lon="103.613101">
<time>2015-09-27T18:33:35Z</time></trkpt>
<trkpt lat="24.856992" lon="103.612891">
<time>2015-09-27T18:33:36Z</time></trkpt>
<trkpt lat="24.856732" lon="103.612772">
<time>2015-09-27T18:33:37Z</time></trkpt>
<trkpt lat="24.856502" lon="103.612632">
<time>2015-09-27T18:33:38Z</time></trkpt>
<trkpt lat="24.856312" lon="103.612482">
<time>2015-09-27T18:33:39Z</time></trkpt>
<trkpt lat="24.855992" lon="103.612202">
<time>2015-09-27T18:33:40Z</time></trkpt>
<trkpt lat="24.855603" lon="103.611833">
<time>2015-09-27T18:33:41Z</time></trkpt>
<trkpt lat="24.854723" lon="103.610904">
<time>2015-09-27T18:33:42Z</time></trkpt>
<trkpt lat="24.854314" lon="103.610494">
<time>2015-09-27T18:33:43Z</time></trkpt>
<trkpt lat="24.853634" lon="103.609755">
<time>2015-09-27T18:33:44Z</time></trkpt>
<trkpt lat="24.853015" lon="103.609095">
<time>2015-09-27T18:33:45Z</time></trkpt>
<trkpt lat="24.852755" lon="103.608846">
<time>2015-09-27T18:33:46Z</time></trkpt>
<trkpt lat="24.852615" lon="103.608706">
<time>2015-09-27T18:33:47Z</time></trkpt>
<trkpt lat="24.852505" lon="103.608566">
<time>2015-09-27T18:33:48Z</time></trkpt>
<trkpt lat="24.852395" lon="103.608426">
<time>2015-09-27T18:33:49Z</time></trkpt>
<trkpt lat="24.852185" lon="103.608216">
<time>2015-09-27T18:33:50Z</time></trkpt>
<trkpt lat="24.852015" lon="103.607986">
<time>2015-09-27T18:33:51Z</time></trkpt>
<trkpt lat="24.851716" lon="103.607637">
<time>2015-09-27T18:33:52Z</time></trkpt>
<trkpt lat="24.851516" lon="103.607377">
<time>2015-09-27T18:33:53Z</time></trkpt>
<trkpt lat="24.851336" lon="103.607087">
<time>2015-09-27T18:33:54Z</time></trkpt>
<trkpt lat="24.851226" lon="103.606957">
<time>2015-09-27T18:33:55Z</time></trkpt>
<trkpt lat="24.851076" lon="103.606798">
<time>2015-09-27T18:33:56Z</time></trkpt>
<trkpt lat="24.850876" lon="103.606588">
<time>2015-09-27T18:33:57Z</time></trkpt>
<trkpt lat="24.850666" lon="103.606338">
<time>2015-09-27T18:33:58Z</time></trkpt>
<trkpt lat="24.850416" lon="103.606038">
<time>2015-09-27T18:33:59Z</time></trkpt>
<trkpt lat="24.850317" lon="103.605868">
<time>2015-09-27T18:34:00Z</time></trkpt>
<trkpt lat="24.850257" lon="103.605718">
<time>2015-09-27T18:34:01Z</time></trkpt>
<trkpt lat="24.850177" lon="103.605539">
<time>2015-09-27T18:34:02Z</time></trkpt>
<trkpt lat="24.850147" lon="103.605379">
<time>2015-09-27T18:34:03Z</time></trkpt>
<trkpt lat="24.850117" lon="103.605159">
<time>2015-09-27T18:34:04Z</time></trkpt>
<trkpt lat="24.850107" lon="103.604959">
<time>2015-09-27T18:34:05Z</time></trkpt>
<trkpt lat="24.850097" lon="103.604619">
<time>2015-09-27T18:34:06Z</time></trkpt>
<trkpt lat="24.850078" lon="103.60309">
<time>2015-09-27T18:34:07Z</time></trkpt>
<trkpt lat="24.850048" lon="103.602341">
<time>2015-09-27T18:34:08Z</time></trkpt>
<trkpt lat="24.850018" lon="103.602141">
<time>2015-09-27T18:34:09Z</time></trkpt>
<trkpt lat="24.849978" lon="103.601991">
<time>2015-09-27T18:34:10Z</time></trkpt>
<trkpt lat="24.849888" lon="103.601851">
<time>2015-09-27T18:34:11Z</time></trkpt>
<trkpt lat="24.849778" lon="103.601681">
<time>2015-09-27T18:34:12Z</time></trkpt>
<trkpt lat="24.849658" lon="103.601441">
<time>2015-09-27T18:34:13Z</time></trkpt>
<trkpt lat="24.849408" lon="103.601092">
<time>2015-09-27T18:34:14Z</time></trkpt>
<trkpt lat="24.849238" lon="103.600782">
<time>2015-09-27T18:34:15Z</time></trkpt>
<trkpt lat="24.849188" lon="103.600702">
<time>2015-09-27T18:34:16Z</time></trkpt>
<trkpt lat="24.849108" lon="103.600592">
<time>2015-09-27T18:34:17Z</time></trkpt>
<trkpt lat="24.849018" lon="103.600422">
<time>2015-09-27T18:34:18Z</time></trkpt>
<trkpt lat="24.848908" lon="103.600292">
<time>2015-09-27T18:34:19Z</time></trkpt>
<trkpt lat="24.848778" lon="103.600112">
<time>2015-09-27T18:34:20Z</time></trkpt>
<trkpt lat="24.848648" lon="103.599992">
<time>2015-09-27T18:34:21Z</time></trkpt>
<trkpt lat="24.848548" lon="103.599922">
<time>2015-09-27T18:34:22Z</time></trkpt>
<trkpt lat="24.848458" lon="103.599872">
<time>2015-09-27T18:34:23Z</time></trkpt>
<trkpt lat="24.848289" lon="103.599772">
<time>2015-09-27T18:34:24Z</time></trkpt>
<trkpt lat="24.848049" lon="103.599692">
<time>2015-09-27T18:34:25Z</time></trkpt>
<trkpt lat="24.847939" lon="103.599662">
<time>2015-09-27T18:34:26Z</time></trkpt>
<trkpt lat="24.847759" lon="103.599642">
<time>2015-09-27T18:34:27Z</time></trkpt>
<trkpt lat="24.847529" lon="103.599582">
<time>2015-09-27T18:34:28Z</time></trkpt>
<trkpt lat="24.847129" lon="103.599463">
<time>2015-09-27T18:34:29Z</time></trkpt>
<trkpt lat="24.846959" lon="103.599403">
<time>2015-09-27T18:34:30Z</time></trkpt>
<trkpt lat="24.846559" lon="103.599343">
<time>2015-09-27T18:34:31Z</time></trkpt>
<trkpt lat="24.846399" lon="103.599293">
<time>2015-09-27T18:34:32Z</time></trkpt>
<trkpt lat="24.846259" lon="103.599233">
<time>2015-09-27T18:34:33Z</time></trkpt>
<trkpt lat="24.846159" lon="103.599153">
<time>2015-09-27T18:34:34Z</time></trkpt>
<trkpt lat="24.846019" lon="103.599033">
<time>2015-09-27T18:34:35Z</time></trkpt>
<trkpt lat="24.845859" lon="103.598823">
<time>2015-09-27T18:34:36Z</time></trkpt>
<trkpt lat="24.845669" lon="103.598463">
<time>2015-09-27T18:34:37Z</time></trkpt>
<trkpt lat="24.845559" lon="103.598223">
<time>2015-09-27T18:34:38Z</time></trkpt>
<trkpt lat="24.845499" lon="103.598063">
<time>2015-09-27T18:34:39Z</time></trkpt>
<trkpt lat="24.845449" lon="103.597833">
<time>2015-09-27T18:34:40Z</time></trkpt>
<trkpt lat="24.845399" lon="103.597504">
<time>2015-09-27T18:34:41Z</time></trkpt>
<trkpt lat="24.845399" lon="103.597414">
<time>2015-09-27T18:34:42Z</time></trkpt>
<trkpt lat="24.845379" lon="103.597224">
<time>2015-09-27T18:34:43Z</time></trkpt>
<trkpt lat="24.845329" lon="103.596874">
<time>2015-09-27T18:34:44Z</time></trkpt>
<trkpt lat="24.845209" lon="103.596074">
<time>2015-09-27T18:34:45Z</time></trkpt>
<trkpt lat="24.845149" lon="103.595714">
<time>2015-09-27T18:34:46Z</time></trkpt>
<trkpt lat="24.845119" lon="103.595514">
<time>2015-09-27T18:34:47Z</time></trkpt>
<trkpt lat="24.845089" lon="103.595214">
<time>2015-09-27T18:34:48Z</time></trkpt>
<trkpt lat="24.845079" lon="103.595054">
<time>2015-09-27T18:34:49Z</time></trkpt>
<trkpt lat="24.845109" lon="103.594605">
<time>2015-09-27T18:34:50Z</time></trkpt>
<trkpt lat="24.845119" lon="103.594325">
<time>2015-09-27T18:34:51Z</time></trkpt>
<trkpt lat="24.845159" lon="103.593865">
<time>2015-09-27T18:34:52Z</time></trkpt>
<trkpt lat="24.845129" lon="103.593685">
<time>2015-09-27T18:34:53Z</time></trkpt>
<trkpt lat="24.845119" lon="103.593545">
<time>2015-09-27T18:34:54Z</time></trkpt>
<trkpt lat="24.845069" lon="103.593405">
<time>2015-09-27T18:34:55Z</time></trkpt>
<trkpt lat="24.845019" lon="103.593325">
<time>2015-09-27T18:34:56Z</time></trkpt>
<trkpt lat="24.844779" lon="103.592935">
<time>2015-09-27T18:34:57Z</time></trkpt>
<trkpt lat="24.844329" lon="103.592135">
<time>2015-09-27T18:34:58Z</time></trkpt>
<trkpt lat="24.844069" lon="103.591635">
<time>2015-09-27T18:34:59Z</time></trkpt>
<trkpt lat="24.843989" lon="103.591505">
<time>2015-09-27T18:35:00Z</time></trkpt>
<trkpt lat="24.843909" lon="103.591405">
<time>2015-09-27T18:35:01Z</time></trkpt>
<trkpt lat="24.843819" lon="103.591235">
<time>2015-09-27T18:35:02Z</time></trkpt>
<trkpt lat="24.843489" lon="103.590655">
<time>2015-09-27T18:35:03Z</time></trkpt>
<trkpt lat="24.843039" lon="103.589825">
<time>2015-09-27T18:35:04Z</time></trkpt>
<trkpt lat="24.842828" lon="103.589445">
<time>2015-09-27T18:35:05Z</time></trkpt>
<trkpt lat="24.842728" lon="103.589285">
<time>2015-09-27T18:35:06Z</time></trkpt>
<trkpt lat="24.842648" lon="103.589175">
<time>2015-09-27T18:35:07Z</time></trkpt>
<trkpt lat="24.842558" lon="103.589105">
<time>2015-09-27T18:35:08Z</time></trkpt>
<trkpt lat="24.842368" lon="103.588965">
<time>2015-09-27T18:35:09Z</time></trkpt>
<trkpt lat="24.841678" lon="103.588525">
<time>2015-09-27T18:35:10Z</time></trkpt>
<trkpt lat="24.840998" lon="103.588115">
<time>2015-09-27T18:35:11Z</time></trkpt>
<trkpt lat="24.840628" lon="103.587895">
<time>2015-09-27T18:35:12Z</time></trkpt>
<trkpt lat="24.840588" lon="103.587865">
<time>2015-09-27T18:35:13Z</time></trkpt>
<trkpt lat="24.840508" lon="103.587785">
<time>2015-09-27T18:35:14Z</time></trkpt>
<trkpt lat="24.840408" lon="103.587645">
<time>2015-09-27T18:35:15Z</time></trkpt>
<trkpt lat="24.840208" lon="103.587285">
<time>2015-09-27T18:35:16Z</time></trkpt>
<trkpt lat="24.839758" lon="103.586435">
<time>2015-09-27T18:35:17Z</time></trkpt>
<trkpt lat="24.839628" lon="103.586165">
<time>2015-09-27T18:35:18Z</time></trkpt>
<trkpt lat="24.839588" lon="103.586015">
<time>2015-09-27T18:35:19Z</time></trkpt>
<trkpt lat="24.839548" lon="103.585885">
<time>2015-09-27T18:35:20Z</time></trkpt>
<trkpt lat="24.839507" lon="103.585705">
<time>2015-09-27T18:35:21Z</time></trkpt>
<trkpt lat="24.839487" lon="103.585545">
<time>2015-09-27T18:35:22Z</time></trkpt>
<trkpt lat="24.839397" lon="103.585055">
<time>2015-09-27T18:35:23Z</time></trkpt>
<trkpt lat="24.839227" lon="103.584205">
<time>2015-09-27T18:35:24Z</time></trkpt>
<trkpt lat="24.839187" lon="103.583975">
<time>2015-09-27T18:35:25Z</time></trkpt>
<trkpt lat="24.839106" lon="103.583735">
<time>2015-09-27T18:35:26Z</time></trkpt>
<trkpt lat="24.839066" lon="103.583475">
<time>2015-09-27T18:35:27Z</time></trkpt>
<trkpt lat="24.839026" lon="103.583275">
<time>2015-09-27T18:35:28Z</time></trkpt>
<trkpt lat="24.838966" lon="103.583045">
<time>2015-09-27T18:35:29Z</time></trkpt>
<trkpt lat="24.838936" lon="103.582795">
<time>2015-09-27T18:35:30Z</time></trkpt>
<trkpt lat="24.838876" lon="103.582514">
<time>2015-09-27T18:35:31Z</time></trkpt>
<trkpt lat="24.838826" lon="103.582314">
<time>2015-09-27T18:35:32Z</time></trkpt>
<trkpt lat="24.838796" lon="103.582114">
<time>2015-09-27T18:35:33Z</time></trkpt>
<trkpt lat="24.838625" lon="103.581334">
<time>2015-09-27T18:35:34Z</time></trkpt>
<trkpt lat="24.838435" lon="103.580464">
<time>2015-09-27T18:35:35Z</time></trkpt>
<trkpt lat="24.838304" lon="103.579884">
<time>2015-09-27T18:35:36Z</time></trkpt>
<trkpt lat="24.838274" lon="103.579633">
<time>2015-09-27T18:35:37Z</time></trkpt>
<trkpt lat="24.838254" lon="103.579393">
<time>2015-09-27T18:35:38Z</time></trkpt>
<trkpt lat="24.838263" lon="103.579023">
<time>2015-09-27T18:35:39Z</time></trkpt>
<trkpt lat="24.838253" lon="103.578613">
<time>2015-09-27T18:35:40Z</time></trkpt>
<trkpt lat="24.838283" lon="103.578313">
<time>2015-09-27T18:35:41Z</time></trkpt>
<trkpt lat="24.838253" lon="103.578013">
<time>2015-09-27T18:35:42Z</time></trkpt>
<trkpt lat="24.838252" lon="103.577632">
<time>2015-09-27T18:35:43Z</time></trkpt>
<trkpt lat="24.838252" lon="103.577192">
<time>2015-09-27T18:35:44Z</time></trkpt>
<trkpt lat="24.838232" lon="103.576792">
<time>2015-09-27T18:35:45Z</time></trkpt>
<trkpt lat="24.838161" lon="103.575901">
<time>2015-09-27T18:35:46Z</time></trkpt>
<trkpt lat="24.838049" lon="103.57429">
<time>2015-09-27T18:35:47Z</time></trkpt>
<trkpt lat="24.837868" lon="103.572789">
<time>2015-09-27T18:35:48Z</time></trkpt>
<trkpt lat="24.837737" lon="103.572049">
<time>2015-09-27T18:35:49Z</time></trkpt>
<trkpt lat="24.837677" lon="103.571808">
<time>2015-09-27T18:35:50Z</time></trkpt>
<trkpt lat="24.837617" lon="103.571568">
<time>2015-09-27T18:35:51Z</time></trkpt>
<trkpt lat="24.837486" lon="103.571218">
<time>2015-09-27T18:35:52Z</time></trkpt>
<trkpt lat="24.836815" lon="103.569707">
<time>2015-09-27T18:35:53Z</time></trkpt>
<trkpt lat="24.836484" lon="103.568946">
<time>2015-09-27T18:35:54Z</time></trkpt>
<trkpt lat="24.836233" lon="103.568425">
<time>2015-09-27T18:35:55Z</time></trkpt>
<trkpt lat="24.836043" lon="103.567995">
<time>2015-09-27T18:35:56Z</time></trkpt>
<trkpt lat="24.835982" lon="103.567815">
<time>2015-09-27T18:35:57Z</time></trkpt>
<trkpt lat="24.835952" lon="103.567645">
<time>2015-09-27T18:35:58Z</time></trkpt>
<trkpt lat="24.835962" lon="103.567484">
<time>2015-09-27T18:35:59Z</time></trkpt>
<trkpt lat="24.835982" lon="103.567314">
<time>2015-09-27T18:36:00Z</time></trkpt>
<trkpt lat="24.836051" lon="103.567084">
<time>2015-09-27T18:36:01Z</time></trkpt>
<trkpt lat="24.83639" lon="103.566253">
<time>2015-09-27T18:36:02Z</time></trkpt>
<trkpt lat="24.836779" lon="103.565372">
<time>2015-09-27T18:36:03Z</time></trkpt>
<trkpt lat="24.836919" lon="103.565072">
<time>2015-09-27T18:36:04Z</time></trkpt>
<trkpt lat="24.837018" lon="103.564812">
<time>2015-09-27T18:36:05Z</time></trkpt>
<trkpt lat="24.837148" lon="103.564481">
<time>2015-09-27T18:36:06Z</time></trkpt>
<trkpt lat="24.837238" lon="103.564301">
<time>2015-09-27T18:36:07Z</time></trkpt>
<trkpt lat="24.837357" lon="103.564111">
<time>2015-09-27T18:36:08Z</time></trkpt>
<trkpt lat="24.837597" lon="103.56378">
<time>2015-09-27T18:36:09Z</time></trkpt>
<trkpt lat="24.837886" lon="103.56342">
<time>2015-09-27T18:36:10Z</time></trkpt>
<trkpt lat="24.838555" lon="103.562549">
<time>2015-09-27T18:36:11Z</time></trkpt>
<trkpt lat="24.839234" lon="103.561658">
<time>2015-09-27T18:36:12Z</time></trkpt>
<trkpt lat="24.839283" lon="103.561547">
<time>2015-09-27T18:36:13Z</time></trkpt>
<trkpt lat="24.839343" lon="103.561427">
<time>2015-09-27T18:36:14Z</time></trkpt>
<trkpt lat="24.839373" lon="103.561267">
<time>2015-09-27T18:36:15Z</time></trkpt>
<trkpt lat="24.839383" lon="103.561247">
<time>2015-09-27T18:36:16Z</time></trkpt>
<trkpt lat="24.839501" lon="103.560346">
<time>2015-09-27T18:36:17Z</time></trkpt>
<trkpt lat="24.839571" lon="103.560015">
<time>2015-09-27T18:36:18Z</time></trkpt>
<trkpt lat="24.839621" lon="103.559835">
<time>2015-09-27T18:36:19Z</time></trkpt>
<trkpt lat="24.83984" lon="103.559294">
<time>2015-09-27T18:36:20Z</time></trkpt>
<trkpt lat="24.840378" lon="103.558113">
<time>2015-09-27T18:36:21Z</time></trkpt>
<trkpt lat="24.840467" lon="103.557862">
<time>2015-09-27T18:36:22Z</time></trkpt>
<trkpt lat="24.840497" lon="103.557722">
<time>2015-09-27T18:36:23Z</time></trkpt>
<trkpt lat="24.840517" lon="103.557502">
<time>2015-09-27T18:36:24Z</time></trkpt>
<trkpt lat="24.840506" lon="103.557231">
<time>2015-09-27T18:36:25Z</time></trkpt>
<trkpt lat="24.840465" lon="103.55642">
<time>2015-09-27T18:36:26Z</time></trkpt>
<trkpt lat="24.840445" lon="103.5562">
<time>2015-09-27T18:36:27Z</time></trkpt>
<trkpt lat="24.840434" lon="103.55617">
<time>2015-09-27T18:36:28Z</time></trkpt>
<trkpt lat="24.840383" lon="103.555499">
<time>2015-09-27T18:36:29Z</time></trkpt>
<trkpt lat="24.840342" lon="103.554768">
<time>2015-09-27T18:36:30Z</time></trkpt>
<trkpt lat="24.840322" lon="103.554617">
<time>2015-09-27T18:36:31Z</time></trkpt>
<trkpt lat="24.840341" lon="103.554447">
<time>2015-09-27T18:36:32Z</time></trkpt>
<trkpt lat="24.840371" lon="103.554277">
<time>2015-09-27T18:36:33Z</time></trkpt>
<trkpt lat="24.840441" lon="103.554046">
<time>2015-09-27T18:36:34Z</time></trkpt>
<trkpt lat="24.84058" lon="103.553746">
<time>2015-09-27T18:36:35Z</time></trkpt>
<trkpt lat="24.840809" lon="103.553245">
<time>2015-09-27T18:36:36Z</time></trkpt>
<trkpt lat="24.840849" lon="103.553085">
<time>2015-09-27T18:36:37Z</time></trkpt>
<trkpt lat="24.840849" lon="103.552965">
<time>2015-09-27T18:36:38Z</time></trkpt>
<trkpt lat="24.840838" lon="103.552844">
<time>2015-09-27T18:36:39Z</time></trkpt>
<trkpt lat="24.840808" lon="103.552704">
<time>2015-09-27T18:36:40Z</time></trkpt>
<trkpt lat="24.840758" lon="103.552564">
<time>2015-09-27T18:36:41Z</time></trkpt>
<trkpt lat="24.840678" lon="103.552424">
<time>2015-09-27T18:36:42Z</time></trkpt>
<trkpt lat="24.840527" lon="103.552213">
<time>2015-09-27T18:36:43Z</time></trkpt>
<trkpt lat="24.840126" lon="103.551723">
<time>2015-09-27T18:36:44Z</time></trkpt>
<trkpt lat="24.839916" lon="103.551482">
<time>2015-09-27T18:36:45Z</time></trkpt>
<trkpt lat="24.839806" lon="103.551332">
<time>2015-09-27T18:36:46Z</time></trkpt>
<trkpt lat="24.839705" lon="103.551182">
<time>2015-09-27T18:36:47Z</time></trkpt>
<trkpt lat="24.839605" lon="103.551001">
<time>2015-09-27T18:36:48Z</time></trkpt>
<trkpt lat="24.839204" lon="103.55022">
<time>2015-09-27T18:36:49Z</time></trkpt>
<trkpt lat="24.838963" lon="103.549769">
<time>2015-09-27T18:36:50Z</time></trkpt>
<trkpt lat="24.838912" lon="103.549599">
<time>2015-09-27T18:36:51Z</time></trkpt>
<trkpt lat="24.838832" lon="103.549469">
<time>2015-09-27T18:36:52Z</time></trkpt>
<trkpt lat="24.838722" lon="103.549238">
<time>2015-09-27T18:36:53Z</time></trkpt>
<trkpt lat="24.838531" lon="103.548767">
<time>2015-09-27T18:36:54Z</time></trkpt>
<trkpt lat="24.83834" lon="103.548317">
<time>2015-09-27T18:36:55Z</time></trkpt>
<trkpt lat="24.838269" lon="103.548136">
<time>2015-09-27T18:36:56Z</time></trkpt>
<trkpt lat="24.838239" lon="103.547976">
<time>2015-09-27T18:36:57Z</time></trkpt>
<trkpt lat="24.838219" lon="103.547836">
<time>2015-09-27T18:36:58Z</time></trkpt>
<trkpt lat="24.838239" lon="103.547725">
<time>2015-09-27T18:36:59Z</time></trkpt>
<trkpt lat="24.838268" lon="103.547455">
<time>2015-09-27T18:37:00Z</time></trkpt>
<trkpt lat="24.838347" lon="103.546804">
<time>2015-09-27T18:37:01Z</time></trkpt>
<trkpt lat="24.838376" lon="103.546463">
<time>2015-09-27T18:37:02Z</time></trkpt>
<trkpt lat="24.838415" lon="103.546223">
<time>2015-09-27T18:37:03Z</time></trkpt>
<trkpt lat="24.838484" lon="103.545672">
<time>2015-09-27T18:37:04Z</time></trkpt>
<trkpt lat="24.838494" lon="103.545391">
<time>2015-09-27T18:37:05Z</time></trkpt>
<trkpt lat="24.838473" lon="103.5451">
<time>2015-09-27T18:37:06Z</time></trkpt>
<trkpt lat="24.838453" lon="103.5449">
<time>2015-09-27T18:37:07Z</time></trkpt>
<trkpt lat="24.838402" lon="103.54469">
<time>2015-09-27T18:37:08Z</time></trkpt>
<trkpt lat="24.838352" lon="103.544529">
<time>2015-09-27T18:37:09Z</time></trkpt>
<trkpt lat="24.838272" lon="103.544369">
<time>2015-09-27T18:37:10Z</time></trkpt>
<trkpt lat="24.838171" lon="103.544179">
<time>2015-09-27T18:37:11Z</time></trkpt>
<trkpt lat="24.838041" lon="103.543908">
<time>2015-09-27T18:37:12Z</time></trkpt>
<trkpt lat="24.83788" lon="103.543597">
<time>2015-09-27T18:37:13Z</time></trkpt>
<trkpt lat="24.837699" lon="103.543257">
<time>2015-09-27T18:37:14Z</time></trkpt>
<trkpt lat="24.837448" lon="103.542776">
<time>2015-09-27T18:37:15Z</time></trkpt>
<trkpt lat="24.837288" lon="103.542495">
<time>2015-09-27T18:37:16Z</time></trkpt>
<trkpt lat="24.837207" lon="103.542385">
<time>2015-09-27T18:37:17Z</time></trkpt>
<trkpt lat="24.837107" lon="103.542275">
<time>2015-09-27T18:37:18Z</time></trkpt>
<trkpt lat="24.836987" lon="103.542144">
<time>2015-09-27T18:37:19Z</time></trkpt>
<trkpt lat="24.836786" lon="103.541944">
<time>2015-09-27T18:37:20Z</time></trkpt>
<trkpt lat="24.836646" lon="103.541794">
<time>2015-09-27T18:37:21Z</time></trkpt>
<trkpt lat="24.836496" lon="103.541603">
<time>2015-09-27T18:37:22Z</time></trkpt>
<trkpt lat="24.836385" lon="103.541443">
<time>2015-09-27T18:37:23Z</time></trkpt>
<trkpt lat="24.836295" lon="103.541283">
<time>2015-09-27T18:37:24Z</time></trkpt>
<trkpt lat="24.836154" lon="103.541002">
<time>2015-09-27T18:37:25Z</time></trkpt>
<trkpt lat="24.835813" lon="103.540301">
<time>2015-09-27T18:37:26Z</time></trkpt>
<trkpt lat="24.835592" lon="103.53981">
<time>2015-09-27T18:37:27Z</time></trkpt>
<trkpt lat="24.83534" lon="103.539258">
<time>2015-09-27T18:37:28Z</time></trkpt>
<trkpt lat="24.835129" lon="103.538797">
<time>2015-09-27T18:37:29Z</time></trkpt>
<trkpt lat="24.835049" lon="103.538567">
<time>2015-09-27T18:37:30Z</time></trkpt>
<trkpt lat="24.834978" lon="103.538356">
<time>2015-09-27T18:37:31Z</time></trkpt>
<trkpt lat="24.834908" lon="103.538146">
<time>2015-09-27T18:37:32Z</time></trkpt>
<trkpt lat="24.834827" lon="103.537775">
<time>2015-09-27T18:37:33Z</time></trkpt>
<trkpt lat="24.834766" lon="103.537525">
<time>2015-09-27T18:37:34Z</time></trkpt>
<trkpt lat="24.834696" lon="103.537314">
<time>2015-09-27T18:37:35Z</time></trkpt>
<trkpt lat="24.834645" lon="103.537124">
<time>2015-09-27T18:37:36Z</time></trkpt>
<trkpt lat="24.834575" lon="103.536853">
<time>2015-09-27T18:37:37Z</time></trkpt>
<trkpt lat="24.834484" lon="103.536593">
<time>2015-09-27T18:37:38Z</time></trkpt>
<trkpt lat="24.834403" lon="103.536362">
<time>2015-09-27T18:37:39Z</time></trkpt>
<trkpt lat="24.834363" lon="103.536212">
<time>2015-09-27T18:37:40Z</time></trkpt>
<trkpt lat="24.834272" lon="103.535931">
<time>2015-09-27T18:37:41Z</time></trkpt>
<trkpt lat="24.834172" lon="103.53562">
<time>2015-09-27T18:37:42Z</time></trkpt>
<trkpt lat="24.834101" lon="103.53536">
<time>2015-09-27T18:37:43Z</time></trkpt>
<trkpt lat="24.834051" lon="103.535199">
<time>2015-09-27T18:37:44Z</time></trkpt>
<trkpt lat="24.83397" lon="103.534939">
<time>2015-09-27T18:37:45Z</time></trkpt>
<trkpt lat="24.833758" lon="103.534237">
<time>2015-09-27T18:37:46Z</time></trkpt>
<trkpt lat="24.833426" lon="103.533185">
<time>2015-09-27T18:37:47Z</time></trkpt>
<trkpt lat="24.833345" lon="103.532944">
<time>2015-09-27T18:37:48Z</time></trkpt>
<trkpt lat="24.833174" lon="103.532373">
<time>2015-09-27T18:37:49Z</time></trkpt>
<trkpt lat="24.833123" lon="103.532242">
<time>2015-09-27T18:37:50Z</time></trkpt>
<trkpt lat="24.833073" lon="103.532052">
<time>2015-09-27T18:37:51Z</time></trkpt>
<trkpt lat="24.833033" lon="103.531922">
<time>2015-09-27T18:37:52Z</time></trkpt>
<trkpt lat="24.832992" lon="103.531681">
<time>2015-09-27T18:37:53Z</time></trkpt>
<trkpt lat="24.833002" lon="103.531541">
<time>2015-09-27T18:37:54Z</time></trkpt>
<trkpt lat="24.83307" lon="103.530769">
<time>2015-09-27T18:37:55Z</time></trkpt>
<trkpt lat="24.833079" lon="103.530548">
<time>2015-09-27T18:37:56Z</time></trkpt>
<trkpt lat="24.833068" lon="103.530198">
<time>2015-09-27T18:37:57Z</time></trkpt>
<trkpt lat="24.833048" lon="103.529977">
<time>2015-09-27T18:37:58Z</time></trkpt>
<trkpt lat="24.832997" lon="103.529696">
<time>2015-09-27T18:37:59Z</time></trkpt>
<trkpt lat="24.832936" lon="103.529426">
<time>2015-09-27T18:38:00Z</time></trkpt>
<trkpt lat="24.832885" lon="103.529165">
<time>2015-09-27T18:38:01Z</time></trkpt>
<trkpt lat="24.832865" lon="103.529095">
<time>2015-09-27T18:38:02Z</time></trkpt>
<trkpt lat="24.832825" lon="103.528944">
<time>2015-09-27T18:38:03Z</time></trkpt>
<trkpt lat="24.832673" lon="103.528193">
<time>2015-09-27T18:38:04Z</time></trkpt>
<trkpt lat="24.832643" lon="103.528072">
<time>2015-09-27T18:38:05Z</time></trkpt>
<trkpt lat="24.832602" lon="103.527912">
<time>2015-09-27T18:38:06Z</time></trkpt>
<trkpt lat="24.832562" lon="103.527711">
<time>2015-09-27T18:38:07Z</time></trkpt>
<trkpt lat="24.832501" lon="103.527381">
<time>2015-09-27T18:38:08Z</time></trkpt>
<trkpt lat="24.83246" lon="103.52724">
<time>2015-09-27T18:38:09Z</time></trkpt>
<trkpt lat="24.83237" lon="103.52697">
<time>2015-09-27T18:38:10Z</time></trkpt>
<trkpt lat="24.832319" lon="103.526739">
<time>2015-09-27T18:38:11Z</time></trkpt>
<trkpt lat="24.832259" lon="103.526538">
<time>2015-09-27T18:38:12Z</time></trkpt>
<trkpt lat="24.832188" lon="103.526328">
<time>2015-09-27T18:38:13Z</time></trkpt>
<trkpt lat="24.832158" lon="103.526208">
<time>2015-09-27T18:38:14Z</time></trkpt>
<trkpt lat="24.832057" lon="103.525797">
<time>2015-09-27T18:38:15Z</time></trkpt>
<trkpt lat="24.831996" lon="103.525626">
<time>2015-09-27T18:38:16Z</time></trkpt>
<trkpt lat="24.831916" lon="103.525406">
<time>2015-09-27T18:38:17Z</time></trkpt>
<trkpt lat="24.831875" lon="103.525315">
<time>2015-09-27T18:38:18Z</time></trkpt>
<trkpt lat="24.831845" lon="103.525225">
<time>2015-09-27T18:38:19Z</time></trkpt>
<trkpt lat="24.831805" lon="103.525145">
<time>2015-09-27T18:38:20Z</time></trkpt>
<trkpt lat="24.831725" lon="103.525035">
<time>2015-09-27T18:38:21Z</time></trkpt>
<trkpt lat="24.831664" lon="103.524954">
<time>2015-09-27T18:38:22Z</time></trkpt>
<trkpt lat="24.831584" lon="103.524874">
<time>2015-09-27T18:38:23Z</time></trkpt>
<trkpt lat="24.831484" lon="103.524784">
<time>2015-09-27T18:38:24Z</time></trkpt>
<trkpt lat="24.831374" lon="103.524694">
<time>2015-09-27T18:38:25Z</time></trkpt>
<trkpt lat="24.831103" lon="103.524483">
<time>2015-09-27T18:38:26Z</time></trkpt>
<trkpt lat="24.830993" lon="103.524393">
<time>2015-09-27T18:38:27Z</time></trkpt>
<trkpt lat="24.830782" lon="103.524223">
<time>2015-09-27T18:38:28Z</time></trkpt>
<trkpt lat="24.830602" lon="103.524072">
<time>2015-09-27T18:38:29Z</time></trkpt>
<trkpt lat="24.830432" lon="103.523942">
<time>2015-09-27T18:38:30Z</time></trkpt>
<trkpt lat="24.830201" lon="103.523761">
<time>2015-09-27T18:38:31Z</time></trkpt>
<trkpt lat="24.830181" lon="103.523741">
<time>2015-09-27T18:38:32Z</time></trkpt>
<trkpt lat="24.830011" lon="103.523611">
<time>2015-09-27T18:38:33Z</time></trkpt>
<trkpt lat="24.82972" lon="103.52334">
<time>2015-09-27T18:38:34Z</time></trkpt>
<trkpt lat="24.82951" lon="103.52313">
<time>2015-09-27T18:38:35Z</time></trkpt>
<trkpt lat="24.829359" lon="103.522969">
<time>2015-09-27T18:38:36Z</time></trkpt>
<trkpt lat="24.829189" lon="103.522749">
<time>2015-09-27T18:38:37Z</time></trkpt>
<trkpt lat="24.828135" lon="103.521305">
<time>2015-09-27T18:38:38Z</time></trkpt>
<trkpt lat="24.827934" lon="103.521004">
<time>2015-09-27T18:38:39Z</time></trkpt>
<trkpt lat="24.827793" lon="103.520744">
<time>2015-09-27T18:38:40Z</time></trkpt>
<trkpt lat="24.827702" lon="103.520493">
<time>2015-09-27T18:38:41Z</time></trkpt>
<trkpt lat="24.827662" lon="103.520262">
<time>2015-09-27T18:38:42Z</time></trkpt>
<trkpt lat="24.827611" lon="103.519971">
<time>2015-09-27T18:38:43Z</time></trkpt>
<trkpt lat="24.82764" lon="103.519711">
<time>2015-09-27T18:38:44Z</time></trkpt>
<trkpt lat="24.827689" lon="103.51943">
<time>2015-09-27T18:38:45Z</time></trkpt>
<trkpt lat="24.827838" lon="103.519079">
<time>2015-09-27T18:38:46Z</time></trkpt>
<trkpt lat="24.829022" lon="103.516713">
<time>2015-09-27T18:38:47Z</time></trkpt>
<trkpt lat="24.829886" lon="103.514938">
<time>2015-09-27T18:38:48Z</time></trkpt>
<trkpt lat="24.829996" lon="103.514677">
<time>2015-09-27T18:38:49Z</time></trkpt>
<trkpt lat="24.830025" lon="103.514416">
<time>2015-09-27T18:38:50Z</time></trkpt>
<trkpt lat="24.830054" lon="103.514136">
<time>2015-09-27T18:38:51Z</time></trkpt>
<trkpt lat="24.830053" lon="103.513764">
<time>2015-09-27T18:38:52Z</time></trkpt>
<trkpt lat="24.829982" lon="103.513464">
<time>2015-09-27T18:38:53Z</time></trkpt>
<trkpt lat="24.82975" lon="103.512722">
<time>2015-09-27T18:38:54Z</time></trkpt>
<trkpt lat="24.829286" lon="103.511428">
<time>2015-09-27T18:38:55Z</time></trkpt>
<trkpt lat="24.829125" lon="103.510977">
<time>2015-09-27T18:38:56Z</time></trkpt>
<trkpt lat="24.828873" lon="103.510265">
<time>2015-09-27T18:38:57Z</time></trkpt>
<trkpt lat="24.828782" lon="103.510054">
<time>2015-09-27T18:38:58Z</time></trkpt>
<trkpt lat="24.828581" lon="103.509773">
<time>2015-09-27T18:38:59Z</time></trkpt>
<trkpt lat="24.828261" lon="103.509473">
<time>2015-09-27T18:39:00Z</time></trkpt>
<trkpt lat="24.827809" lon="103.509081">
<time>2015-09-27T18:39:01Z</time></trkpt>
<trkpt lat="24.827308" lon="103.50865">
<time>2015-09-27T18:39:02Z</time></trkpt>
<trkpt lat="24.827108" lon="103.50852">
<time>2015-09-27T18:39:03Z</time></trkpt>
<trkpt lat="24.826907" lon="103.508349">
<time>2015-09-27T18:39:04Z</time></trkpt>
<trkpt lat="24.826837" lon="103.508299">
<time>2015-09-27T18:39:05Z</time></trkpt>
<trkpt lat="24.826807" lon="103.508269">
<time>2015-09-27T18:39:06Z</time></trkpt>
<trkpt lat="24.826777" lon="103.508209">
<time>2015-09-27T18:39:07Z</time></trkpt>
<trkpt lat="24.826717" lon="103.508109">
<time>2015-09-27T18:39:08Z</time></trkpt>
<trkpt lat="24.826586" lon="103.507878">
<time>2015-09-27T18:39:09Z</time></trkpt>
<trkpt lat="24.826042" lon="103.506605">
<time>2015-09-27T18:39:10Z</time></trkpt>
<trkpt lat="24.825831" lon="103.506113">
<time>2015-09-27T18:39:11Z</time></trkpt>
<trkpt lat="24.82568" lon="103.505692">
<time>2015-09-27T18:39:12Z</time></trkpt>
<trkpt lat="24.82567" lon="103.505672">
<time>2015-09-27T18:39:13Z</time></trkpt>
<trkpt lat="24.825609" lon="103.505411">
<time>2015-09-27T18:39:14Z</time></trkpt>
<trkpt lat="24.825618" lon="103.50508">
<time>2015-09-27T18:39:15Z</time></trkpt>
<trkpt lat="24.825617" lon="103.50484">
<time>2015-09-27T18:39:16Z</time></trkpt>
<trkpt lat="24.825606" lon="103.504649">
<time>2015-09-27T18:39:17Z</time></trkpt>
<trkpt lat="24.825566" lon="103.504438">
<time>2015-09-27T18:39:18Z</time></trkpt>
<trkpt lat="24.825364" lon="103.503867">
<time>2015-09-27T18:39:19Z</time></trkpt>
<trkpt lat="24.825334" lon="103.503656">
<time>2015-09-27T18:39:20Z</time></trkpt>
<trkpt lat="24.825353" lon="103.503486">
<time>2015-09-27T18:39:21Z</time></trkpt>
<trkpt lat="24.825462" lon="103.503205">
<time>2015-09-27T18:39:22Z</time></trkpt>
<trkpt lat="24.825512" lon="103.503014">
<time>2015-09-27T18:39:23Z</time></trkpt>
<trkpt lat="24.825531" lon="103.502764">
<time>2015-09-27T18:39:24Z</time></trkpt>
<trkpt lat="24.825528" lon="103.501781">
<time>2015-09-27T18:39:25Z</time></trkpt>
<trkpt lat="24.825516" lon="103.501059">
<time>2015-09-27T18:39:26Z</time></trkpt>
<trkpt lat="24.825505" lon="103.500658">
<time>2015-09-27T18:39:27Z</time></trkpt>
<trkpt lat="24.825514" lon="103.500427">
<time>2015-09-27T18:39:28Z</time></trkpt>
<trkpt lat="24.825553" lon="103.500226">
<time>2015-09-27T18:39:29Z</time></trkpt>
<trkpt lat="24.825623" lon="103.500016">
<time>2015-09-27T18:39:30Z</time></trkpt>
<trkpt lat="24.825751" lon="103.499655">
<time>2015-09-27T18:39:31Z</time></trkpt>
<trkpt lat="24.826108" lon="103.498381">
<time>2015-09-27T18:39:32Z</time></trkpt>
<trkpt lat="24.826296" lon="103.497749">
<time>2015-09-27T18:39:33Z</time></trkpt>
<trkpt lat="24.826405" lon="103.497458">
<time>2015-09-27T18:39:34Z</time></trkpt>
<trkpt lat="24.826504" lon="103.497218">
<time>2015-09-27T18:39:35Z</time></trkpt>
<trkpt lat="24.826743" lon="103.496736">
<time>2015-09-27T18:39:36Z</time></trkpt>
<trkpt lat="24.826792" lon="103.496556">
<time>2015-09-27T18:39:37Z</time></trkpt>
<trkpt lat="24.826821" lon="103.496365">
<time>2015-09-27T18:39:38Z</time></trkpt>
<trkpt lat="24.826831" lon="103.496084">
<time>2015-09-27T18:39:39Z</time></trkpt>
<trkpt lat="24.826727" lon="103.494801">
<time>2015-09-27T18:39:40Z</time></trkpt>
<trkpt lat="24.826646" lon="103.49441">
<time>2015-09-27T18:39:41Z</time></trkpt>
<trkpt lat="24.826525" lon="103.494079">
<time>2015-09-27T18:39:42Z</time></trkpt>
<trkpt lat="24.826263" lon="103.493637">
<time>2015-09-27T18:39:43Z</time></trkpt>
<trkpt lat="24.826163" lon="103.493417">
<time>2015-09-27T18:39:44Z</time></trkpt>
<trkpt lat="24.826142" lon="103.493337">
<time>2015-09-27T18:39:45Z</time></trkpt>
<trkpt lat="24.826122" lon="103.493196">
<time>2015-09-27T18:39:46Z</time></trkpt>
<trkpt lat="24.826132" lon="103.493046">
<time>2015-09-27T18:39:47Z</time></trkpt>
<trkpt lat="24.826181" lon="103.492825">
<time>2015-09-27T18:39:48Z</time></trkpt>
<trkpt lat="24.82628" lon="103.492364">
<time>2015-09-27T18:39:49Z</time></trkpt>
<trkpt lat="24.826309" lon="103.492193">
<time>2015-09-27T18:39:50Z</time></trkpt>
<trkpt lat="24.826298" lon="103.492003">
<time>2015-09-27T18:39:51Z</time></trkpt>
<trkpt lat="24.826268" lon="103.491872">
<time>2015-09-27T18:39:52Z</time></trkpt>
<trkpt lat="24.826208" lon="103.491702">
<time>2015-09-27T18:39:53Z</time></trkpt>
<trkpt lat="24.826027" lon="103.491361">
<time>2015-09-27T18:39:54Z</time></trkpt>
<trkpt lat="24.825715" lon="103.49087">
<time>2015-09-27T18:39:55Z</time></trkpt>
<trkpt lat="24.825604" lon="103.490609">
<time>2015-09-27T18:39:56Z</time></trkpt>
<trkpt lat="24.825554" lon="103.490468">
<time>2015-09-27T18:39:57Z</time></trkpt>
<trkpt lat="24.825554" lon="103.490458">
<time>2015-09-27T18:39:58Z</time></trkpt>
<trkpt lat="24.825513" lon="103.490278">
<time>2015-09-27T18:39:59Z</time></trkpt>
<trkpt lat="24.825502" lon="103.489937">
<time>2015-09-27T18:40:00Z</time></trkpt>
<trkpt lat="24.825579" lon="103.488784">
<time>2015-09-27T18:40:01Z</time></trkpt>
<trkpt lat="24.825665" lon="103.48763">
<time>2015-09-27T18:40:02Z</time></trkpt>
<trkpt lat="24.825674" lon="103.487019">
<time>2015-09-27T18:40:03Z</time></trkpt>
<trkpt lat="24.825632" lon="103.486517">
<time>2015-09-27T18:40:04Z</time></trkpt>
<trkpt lat="24.82556" lon="103.485665">
<time>2015-09-27T18:40:05Z</time></trkpt>
<trkpt lat="24.825568" lon="103.485194">
<time>2015-09-27T18:40:06Z</time></trkpt>
<trkpt lat="24.825607" lon="103.484863">
<time>2015-09-27T18:40:07Z</time></trkpt>
<trkpt lat="24.825676" lon="103.484552">
<time>2015-09-27T18:40:08Z</time></trkpt>
<trkpt lat="24.825903" lon="103.483549">
<time>2015-09-27T18:40:09Z</time></trkpt>
<trkpt lat="24.82616" lon="103.482486">
<time>2015-09-27T18:40:10Z</time></trkpt>
<trkpt lat="24.826259" lon="103.481965">
<time>2015-09-27T18:40:11Z</time></trkpt>
<trkpt lat="24.826288" lon="103.481644">
<time>2015-09-27T18:40:12Z</time></trkpt>
<trkpt lat="24.826277" lon="103.481433">
<time>2015-09-27T18:40:13Z</time></trkpt>
<trkpt lat="24.826213" lon="103.479959">
<time>2015-09-27T18:40:14Z</time></trkpt>
<trkpt lat="24.826172" lon="103.479759">
<time>2015-09-27T18:40:15Z</time></trkpt>
<trkpt lat="24.826162" lon="103.479739">
<time>2015-09-27T18:40:16Z</time></trkpt>
<trkpt lat="24.826031" lon="103.479277">
<time>2015-09-27T18:40:17Z</time></trkpt>
<trkpt lat="24.82599" lon="103.479067">
<time>2015-09-27T18:40:18Z</time></trkpt>
<trkpt lat="24.82599" lon="103.478876">
<time>2015-09-27T18:40:19Z</time></trkpt>
<trkpt lat="24.826" lon="103.478826">
<time>2015-09-27T18:40:20Z</time></trkpt>
<trkpt lat="24.826049" lon="103.478425">
<time>2015-09-27T18:40:21Z</time></trkpt>
<trkpt lat="24.826098" lon="103.478064">
<time>2015-09-27T18:40:22Z</time></trkpt>
<trkpt lat="24.826087" lon="103.477984">
<time>2015-09-27T18:40:23Z</time></trkpt>
<trkpt lat="24.826076" lon="103.477463">
<time>2015-09-27T18:40:24Z</time></trkpt>
<trkpt lat="24.826032" lon="103.476189">
<time>2015-09-27T18:40:25Z</time></trkpt>
<trkpt lat="24.825991" lon="103.475598">
<time>2015-09-27T18:40:26Z</time></trkpt>
<trkpt lat="24.82593" lon="103.475277">
<time>2015-09-27T18:40:27Z</time></trkpt>
<trkpt lat="24.825769" lon="103.474966">
<time>2015-09-27T18:40:28Z</time></trkpt>
<trkpt lat="24.825528" lon="103.474545">
<time>2015-09-27T18:40:29Z</time></trkpt>
<trkpt lat="24.825417" lon="103.474284">
<time>2015-09-27T18:40:30Z</time></trkpt>
<trkpt lat="24.825326" lon="103.473973">
<time>2015-09-27T18:40:31Z</time></trkpt>
<trkpt lat="24.825285" lon="103.473673">
<time>2015-09-27T18:40:32Z</time></trkpt>
<trkpt lat="24.825194" lon="103.473312">
<time>2015-09-27T18:40:33Z</time></trkpt>
<trkpt lat="24.825053" lon="103.472981">
<time>2015-09-27T18:40:34Z</time></trkpt>
<trkpt lat="24.824883" lon="103.4727">
<time>2015-09-27T18:40:35Z</time></trkpt>
<trkpt lat="24.824863" lon="103.47266">
<time>2015-09-27T18:40:36Z</time></trkpt>
<trkpt lat="24.82431" lon="103.471698">
<time>2015-09-27T18:40:37Z</time></trkpt>
<trkpt lat="24.824139" lon="103.471427">
<time>2015-09-27T18:40:38Z</time></trkpt>
<trkpt lat="24.824018" lon="103.471126">
<time>2015-09-27T18:40:39Z</time></trkpt>
<trkpt lat="24.823988" lon="103.470835">
<time>2015-09-27T18:40:40Z</time></trkpt>
<trkpt lat="24.824016" lon="103.470104">
<time>2015-09-27T18:40:41Z</time></trkpt>
<trkpt lat="24.824005" lon="103.469743">
<time>2015-09-27T18:40:42Z</time></trkpt>
<trkpt lat="24.82362" lon="103.467978">
<time>2015-09-27T18:40:43Z</time></trkpt>
<trkpt lat="24.823296" lon="103.466505">
<time>2015-09-27T18:40:44Z</time></trkpt>
<trkpt lat="24.823255" lon="103.466174">
<time>2015-09-27T18:40:45Z</time></trkpt>
<trkpt lat="24.823255" lon="103.465883">
<time>2015-09-27T18:40:46Z</time></trkpt>
<trkpt lat="24.823304" lon="103.465683">
<time>2015-09-27T18:40:47Z</time></trkpt>
<trkpt lat="24.823463" lon="103.465392">
<time>2015-09-27T18:40:48Z</time></trkpt>
<trkpt lat="24.823772" lon="103.464981">
<time>2015-09-27T18:40:49Z</time></trkpt>
<trkpt lat="24.824031" lon="103.46459">
<time>2015-09-27T18:40:50Z</time></trkpt>
<trkpt lat="24.82422" lon="103.46429">
<time>2015-09-27T18:40:51Z</time></trkpt>
<trkpt lat="24.824399" lon="103.463869">
<time>2015-09-27T18:40:52Z</time></trkpt>
<trkpt lat="24.824717" lon="103.462786">
<time>2015-09-27T18:40:53Z</time></trkpt>
<trkpt lat="24.824935" lon="103.462074">
<time>2015-09-27T18:40:54Z</time></trkpt>
<trkpt lat="24.825064" lon="103.461754">
<time>2015-09-27T18:40:55Z</time></trkpt>
<trkpt lat="24.825193" lon="103.461483">
<time>2015-09-27T18:40:56Z</time></trkpt>
<trkpt lat="24.827585" lon="103.458116">
<time>2015-09-27T18:40:57Z</time></trkpt>
<trkpt lat="24.827824" lon="103.457725">
<time>2015-09-27T18:40:58Z</time></trkpt>
<trkpt lat="24.82866" lon="103.456182">
<time>2015-09-27T18:40:59Z</time></trkpt>
<trkpt lat="24.828749" lon="103.455871">
<time>2015-09-27T18:41:00Z</time></trkpt>
<trkpt lat="24.828798" lon="103.45539">
<time>2015-09-27T18:41:01Z</time></trkpt>
<trkpt lat="24.828827" lon="103.454899">
<time>2015-09-27T18:41:02Z</time></trkpt>
<trkpt lat="24.828896" lon="103.454548">
<time>2015-09-27T18:41:03Z</time></trkpt>
<trkpt lat="24.829066" lon="103.454218">
<time>2015-09-27T18:41:04Z</time></trkpt>
<trkpt lat="24.829445" lon="103.453817">
<time>2015-09-27T18:41:05Z</time></trkpt>
<trkpt lat="24.829654" lon="103.453586">
<time>2015-09-27T18:41:06Z</time></trkpt>
<trkpt lat="24.829814" lon="103.453356">
<time>2015-09-27T18:41:07Z</time></trkpt>
<trkpt lat="24.831078" lon="103.450631">
<time>2015-09-27T18:41:08Z</time></trkpt>
<trkpt lat="24.832033" lon="103.448507">
<time>2015-09-27T18:41:09Z</time></trkpt>
<trkpt lat="24.83283" lon="103.446814">
<time>2015-09-27T18:41:10Z</time></trkpt>
<trkpt lat="24.833347" lon="103.445652">
<time>2015-09-27T18:41:11Z</time></trkpt>
<trkpt lat="24.833377" lon="103.445592">
<time>2015-09-27T18:41:12Z</time></trkpt>
<trkpt lat="24.833447" lon="103.445411">
<time>2015-09-27T18:41:13Z</time></trkpt>
<trkpt lat="24.833496" lon="103.445301">
<time>2015-09-27T18:41:14Z</time></trkpt>
<trkpt lat="24.833556" lon="103.445141">
<time>2015-09-27T18:41:15Z</time></trkpt>
<trkpt lat="24.833596" lon="103.445031">
<time>2015-09-27T18:41:16Z</time></trkpt>
<trkpt lat="24.833626" lon="103.4449">
<time>2015-09-27T18:41:17Z</time></trkpt>
<trkpt lat="24.833665" lon="103.44477">
<time>2015-09-27T18:41:18Z</time></trkpt>
<trkpt lat="24.833695" lon="103.4446">
<time>2015-09-27T18:41:19Z</time></trkpt>
<trkpt lat="24.833794" lon="103.444029">
<time>2015-09-27T18:41:20Z</time></trkpt>
<trkpt lat="24.833893" lon="103.443388">
<time>2015-09-27T18:41:21Z</time></trkpt>
<trkpt lat="24.833962" lon="103.442987">
<time>2015-09-27T18:41:22Z</time></trkpt>
<trkpt lat="24.834002" lon="103.442757">
<time>2015-09-27T18:41:23Z</time></trkpt>
<trkpt lat="24.834041" lon="103.442537">
<time>2015-09-27T18:41:24Z</time></trkpt>
<trkpt lat="24.834091" lon="103.442186">
<time>2015-09-27T18:41:25Z</time></trkpt>
<trkpt lat="24.8341" lon="103.442036">
<time>2015-09-27T18:41:26Z</time></trkpt>
<trkpt lat="24.8341" lon="103.441906">
<time>2015-09-27T18:41:27Z</time></trkpt>
<trkpt lat="24.8341" lon="103.441836">
<time>2015-09-27T18:41:28Z</time></trkpt>
<trkpt lat="24.83409" lon="103.441695">
<time>2015-09-27T18:41:29Z</time></trkpt>
<trkpt lat="24.834079" lon="103.441585">
<time>2015-09-27T18:41:30Z</time></trkpt>
<trkpt lat="24.834049" lon="103.441445">
<time>2015-09-27T18:41:31Z</time></trkpt>
<trkpt lat="24.834019" lon="103.441335">
<time>2015-09-27T18:41:32Z</time></trkpt>
<trkpt lat="24.833979" lon="103.441195">
<time>2015-09-27T18:41:33Z</time></trkpt>
<trkpt lat="24.833848" lon="103.440864">
<time>2015-09-27T18:41:34Z</time></trkpt>
<trkpt lat="24.833687" lon="103.440464">
<time>2015-09-27T18:41:35Z</time></trkpt>
<trkpt lat="24.833587" lon="103.440213">
<time>2015-09-27T18:41:36Z</time></trkpt>
<trkpt lat="24.833346" lon="103.439672">
<time>2015-09-27T18:41:37Z</time></trkpt>
<trkpt lat="24.833256" lon="103.439482">
<time>2015-09-27T18:41:38Z</time></trkpt>
<trkpt lat="24.832654" lon="103.4382">
<time>2015-09-27T18:41:39Z</time></trkpt>
<trkpt lat="24.832523" lon="103.43792">
<time>2015-09-27T18:41:40Z</time></trkpt>
<trkpt lat="24.832423" lon="103.43771">
<time>2015-09-27T18:41:41Z</time></trkpt>
<trkpt lat="24.832343" lon="103.43751">
<time>2015-09-27T18:41:42Z</time></trkpt>
<trkpt lat="24.832292" lon="103.437379">
<time>2015-09-27T18:41:43Z</time></trkpt>
<trkpt lat="24.832222" lon="103.437129">
<time>2015-09-27T18:41:44Z</time></trkpt>
<trkpt lat="24.832141" lon="103.436779">
<time>2015-09-27T18:41:45Z</time></trkpt>
<trkpt lat="24.83202" lon="103.436178">
<time>2015-09-27T18:41:46Z</time></trkpt>
<trkpt lat="24.83192" lon="103.435667">
<time>2015-09-27T18:41:47Z</time></trkpt>
<trkpt lat="24.831819" lon="103.435217">
<time>2015-09-27T18:41:48Z</time></trkpt>
<trkpt lat="24.831799" lon="103.435097">
<time>2015-09-27T18:41:49Z</time></trkpt>
<trkpt lat="24.831758" lon="103.434876">
<time>2015-09-27T18:41:50Z</time></trkpt>
<trkpt lat="24.831748" lon="103.434776">
<time>2015-09-27T18:41:51Z</time></trkpt>
<trkpt lat="24.831748" lon="103.434636">
<time>2015-09-27T18:41:52Z</time></trkpt>
<trkpt lat="24.831748" lon="103.434536">
<time>2015-09-27T18:41:53Z</time></trkpt>
<trkpt lat="24.831758" lon="103.434416">
<time>2015-09-27T18:41:54Z</time></trkpt>
<trkpt lat="24.831758" lon="103.434336">
<time>2015-09-27T18:41:55Z</time></trkpt>
<trkpt lat="24.831787" lon="103.434155">
<time>2015-09-27T18:41:56Z</time></trkpt>
<trkpt lat="24.831807" lon="103.434085">
<time>2015-09-27T18:41:57Z</time></trkpt>
<trkpt lat="24.831837" lon="103.434005">
<time>2015-09-27T18:41:58Z</time></trkpt>
<trkpt lat="24.831877" lon="103.433935">
<time>2015-09-27T18:41:59Z</time></trkpt>
<trkpt lat="24.831917" lon="103.433865">
<time>2015-09-27T18:42:00Z</time></trkpt>
<trkpt lat="24.831937" lon="103.433825">
<time>2015-09-27T18:42:01Z</time></trkpt>
<trkpt lat="24.831987" lon="103.433755">
<time>2015-09-27T18:42:02Z</time></trkpt>
<trkpt lat="24.832027" lon="103.433705">
<time>2015-09-27T18:42:03Z</time></trkpt>
<trkpt lat="24.832097" lon="103.433625">
<time>2015-09-27T18:42:04Z</time></trkpt>
<trkpt lat="24.832156" lon="103.433565">
<time>2015-09-27T18:42:05Z</time></trkpt>
<trkpt lat="24.832446" lon="103.433264">
<time>2015-09-27T18:42:06Z</time></trkpt>
<trkpt lat="24.832626" lon="103.433104">
<time>2015-09-27T18:42:07Z</time></trkpt>
<trkpt lat="24.832646" lon="103.433074">
<time>2015-09-27T18:42:08Z</time></trkpt>
<trkpt lat="24.833345" lon="103.432423">
<time>2015-09-27T18:42:09Z</time></trkpt>
<trkpt lat="24.833614" lon="103.432173">
<time>2015-09-27T18:42:10Z</time></trkpt>
<trkpt lat="24.833994" lon="103.431843">
<time>2015-09-27T18:42:11Z</time></trkpt>
<trkpt lat="24.834024" lon="103.431813">
<time>2015-09-27T18:42:12Z</time></trkpt>
<trkpt lat="24.834703" lon="103.431192">
<time>2015-09-27T18:42:13Z</time></trkpt>
<trkpt lat="24.834853" lon="103.431052">
<time>2015-09-27T18:42:14Z</time></trkpt>
<trkpt lat="24.834902" lon="103.430972">
<time>2015-09-27T18:42:15Z</time></trkpt>
<trkpt lat="24.834932" lon="103.430902">
<time>2015-09-27T18:42:16Z</time></trkpt>
<trkpt lat="24.834962" lon="103.430822">
<time>2015-09-27T18:42:17Z</time></trkpt>
<trkpt lat="24.834982" lon="103.430752">
<time>2015-09-27T18:42:18Z</time></trkpt>
<trkpt lat="24.834992" lon="103.430722">
<time>2015-09-27T18:42:19Z</time></trkpt>
<trkpt lat="24.834992" lon="103.430652">
<time>2015-09-27T18:42:20Z</time></trkpt>
<trkpt lat="24.834992" lon="103.430592">
<time>2015-09-27T18:42:21Z</time></trkpt>
<trkpt lat="24.834982" lon="103.430481">
<time>2015-09-27T18:42:22Z</time></trkpt>
<trkpt lat="24.834972" lon="103.430391">
<time>2015-09-27T18:42:23Z</time></trkpt>
<trkpt lat="24.834932" lon="103.430281">
<time>2015-09-27T18:42:24Z</time></trkpt>
<trkpt lat="24.834891" lon="103.430141">
<time>2015-09-27T18:42:25Z</time></trkpt>
<trkpt lat="24.834801" lon="103.429971">
<time>2015-09-27T18:42:26Z</time></trkpt>
<trkpt lat="24.834671" lon="103.429691">
<time>2015-09-27T18:42:27Z</time></trkpt>
<trkpt lat="24.83453" lon="103.42939">
<time>2015-09-27T18:42:28Z</time></trkpt>
<trkpt lat="24.8343" lon="103.42875">
<time>2015-09-27T18:42:29Z</time></trkpt>
<trkpt lat="24.834219" lon="103.42847">
<time>2015-09-27T18:42:30Z</time></trkpt>
<trkpt lat="24.834189" lon="103.428309">
<time>2015-09-27T18:42:31Z</time></trkpt>
<trkpt lat="24.834179" lon="103.428179">
<time>2015-09-27T18:42:32Z</time></trkpt>
<trkpt lat="24.834199" lon="103.427969">
<time>2015-09-27T18:42:33Z</time></trkpt>
<trkpt lat="24.834228" lon="103.427819">
<time>2015-09-27T18:42:34Z</time></trkpt>
<trkpt lat="24.834278" lon="103.427619">
<time>2015-09-27T18:42:35Z</time></trkpt>
<trkpt lat="24.834328" lon="103.427459">
<time>2015-09-27T18:42:36Z</time></trkpt>
<trkpt lat="24.834388" lon="103.427339">
<time>2015-09-27T18:42:37Z</time></trkpt>
<trkpt lat="24.834448" lon="103.427229">
<time>2015-09-27T18:42:38Z</time></trkpt>
<trkpt lat="24.834528" lon="103.427118">
<time>2015-09-27T18:42:39Z</time></trkpt>
<trkpt lat="24.834647" lon="103.426978">
<time>2015-09-27T18:42:40Z</time></trkpt>
<trkpt lat="24.834927" lon="103.426678">
<time>2015-09-27T18:42:41Z</time></trkpt>
<trkpt lat="24.836015" lon="103.425507">
<time>2015-09-27T18:42:42Z</time></trkpt>
<trkpt lat="24.836535" lon="103.424987">
<time>2015-09-27T18:42:43Z</time></trkpt>
<trkpt lat="24.837024" lon="103.424466">
<time>2015-09-27T18:42:44Z</time></trkpt>
<trkpt lat="24.837514" lon="103.423966">
<time>2015-09-27T18:42:45Z</time></trkpt>
<trkpt lat="24.837843" lon="103.423616">
<time>2015-09-27T18:42:46Z</time></trkpt>
<trkpt lat="24.838213" lon="103.423215">
<time>2015-09-27T18:42:47Z</time></trkpt>
<trkpt lat="24.838442" lon="103.422855">
<time>2015-09-27T18:42:48Z</time></trkpt>
<trkpt lat="24.838582" lon="103.422615">
<time>2015-09-27T18:42:49Z</time></trkpt>
<trkpt lat="24.838702" lon="103.422405">
<time>2015-09-27T18:42:50Z</time></trkpt>
<trkpt lat="24.838802" lon="103.422205">
<time>2015-09-27T18:42:51Z</time></trkpt>
<trkpt lat="24.838921" lon="103.421895">
<time>2015-09-27T18:42:52Z</time></trkpt>
<trkpt lat="24.839041" lon="103.421534">
<time>2015-09-27T18:42:53Z</time></trkpt>
<trkpt lat="24.839151" lon="103.421094">
<time>2015-09-27T18:42:54Z</time></trkpt>
<trkpt lat="24.83928" lon="103.420414">
<time>2015-09-27T18:42:55Z</time></trkpt>
<trkpt lat="24.839349" lon="103.419874">
<time>2015-09-27T18:42:56Z</time></trkpt>
<trkpt lat="24.839379" lon="103.419673">
<time>2015-09-27T18:42:57Z</time></trkpt>
<trkpt lat="24.839449" lon="103.419273">
<time>2015-09-27T18:42:58Z</time></trkpt>
<trkpt lat="24.839499" lon="103.419003">
<time>2015-09-27T18:42:59Z</time></trkpt>
<trkpt lat="24.839549" lon="103.418803">
<time>2015-09-27T18:43:00Z</time></trkpt>
<trkpt lat="24.839588" lon="103.418673">
<time>2015-09-27T18:43:01Z</time></trkpt>
<trkpt lat="24.839638" lon="103.418523">
<time>2015-09-27T18:43:02Z</time></trkpt>
<trkpt lat="24.839698" lon="103.418403">
<time>2015-09-27T18:43:03Z</time></trkpt>
<trkpt lat="24.839748" lon="103.418303">
<time>2015-09-27T18:43:04Z</time></trkpt>
<trkpt lat="24.840028" lon="103.417793">
<time>2015-09-27T18:43:05Z</time></trkpt>
<trkpt lat="24.840028" lon="103.417793">
<time>2015-09-27T18:43:06Z</time></trkpt>
<trkpt lat="24.840088" lon="103.417753">
<time>2015-09-27T18:43:07Z</time></trkpt>
<trkpt lat="24.840088" lon="103.417743">
<time>2015-09-27T18:43:08Z</time></trkpt>
<trkpt lat="24.840377" lon="103.417473">
<time>2015-09-27T18:43:09Z</time></trkpt>
<trkpt lat="24.840577" lon="103.417262">
<time>2015-09-27T18:43:10Z</time></trkpt>
<trkpt lat="24.840777" lon="103.417022">
<time>2015-09-27T18:43:11Z</time></trkpt>
<trkpt lat="24.840957" lon="103.416752">
<time>2015-09-27T18:43:12Z</time></trkpt>
<trkpt lat="24.845662" lon="103.408901">
<time>2015-09-27T18:43:13Z</time></trkpt>
<trkpt lat="24.845842" lon="103.408621">
<time>2015-09-27T18:43:14Z</time></trkpt>
<trkpt lat="24.846041" lon="103.408251">
<time>2015-09-27T18:43:15Z</time></trkpt>
<trkpt lat="24.846201" lon="103.407951">
<time>2015-09-27T18:43:16Z</time></trkpt>
<trkpt lat="24.846321" lon="103.407661">
<time>2015-09-27T18:43:17Z</time></trkpt>
<trkpt lat="24.846381" lon="103.407451">
<time>2015-09-27T18:43:18Z</time></trkpt>
<trkpt lat="24.846431" lon="103.407231">
<time>2015-09-27T18:43:19Z</time></trkpt>
<trkpt lat="24.846471" lon="103.406992">
<time>2015-09-27T18:43:20Z</time></trkpt>
<trkpt lat="24.846551" lon="103.406352">
<time>2015-09-27T18:43:21Z</time></trkpt>
<trkpt lat="24.8471" lon="103.400664">
<time>2015-09-27T18:43:22Z</time></trkpt>
<trkpt lat="24.84717" lon="103.400324">
<time>2015-09-27T18:43:23Z</time></trkpt>
<trkpt lat="24.84724" lon="103.400064">
<time>2015-09-27T18:43:24Z</time></trkpt>
<trkpt lat="24.84731" lon="103.399914">
<time>2015-09-27T18:43:25Z</time></trkpt>
<trkpt lat="24.84741" lon="103.399684">
<time>2015-09-27T18:43:26Z</time></trkpt>
<trkpt lat="24.84752" lon="103.399514">
<time>2015-09-27T18:43:27Z</time></trkpt>
<trkpt lat="24.84761" lon="103.399374">
<time>2015-09-27T18:43:28Z</time></trkpt>
<trkpt lat="24.84775" lon="103.399204">
<time>2015-09-27T18:43:29Z</time></trkpt>
<trkpt lat="24.848" lon="103.398875">
<time>2015-09-27T18:43:30Z</time></trkpt>
<trkpt lat="24.84815" lon="103.398665">
<time>2015-09-27T18:43:31Z</time></trkpt>
<trkpt lat="24.84824" lon="103.398495">
<time>2015-09-27T18:43:32Z</time></trkpt>
<trkpt lat="24.84835" lon="103.398285">
<time>2015-09-27T18:43:33Z</time></trkpt>
<trkpt lat="24.84844" lon="103.398075">
<time>2015-09-27T18:43:34Z</time></trkpt>
<trkpt lat="24.84851" lon="103.397845">
<time>2015-09-27T18:43:35Z</time></trkpt>
<trkpt lat="24.84856" lon="103.397655">
<time>2015-09-27T18:43:36Z</time></trkpt>
<trkpt lat="24.8486" lon="103.397445">
<time>2015-09-27T18:43:37Z</time></trkpt>
<trkpt lat="24.84875" lon="103.396406">
<time>2015-09-27T18:43:38Z</time></trkpt>
<trkpt lat="24.84894" lon="103.394707">
<time>2015-09-27T18:43:39Z</time></trkpt>
<trkpt lat="24.84898" lon="103.394488">
<time>2015-09-27T18:43:40Z</time></trkpt>
<trkpt lat="24.84904" lon="103.394218">
<time>2015-09-27T18:43:41Z</time></trkpt>
<trkpt lat="24.84912" lon="103.394018">
<time>2015-09-27T18:43:42Z</time></trkpt>
<trkpt lat="24.849181" lon="103.393888">
<time>2015-09-27T18:43:43Z</time></trkpt>
<trkpt lat="24.849241" lon="103.393778">
<time>2015-09-27T18:43:44Z</time></trkpt>
<trkpt lat="24.849361" lon="103.393618">
<time>2015-09-27T18:43:45Z</time></trkpt>
<trkpt lat="24.849471" lon="103.393468">
<time>2015-09-27T18:43:46Z</time></trkpt>
<trkpt lat="24.849571" lon="103.393349">
<time>2015-09-27T18:43:47Z</time></trkpt>
<trkpt lat="24.849761" lon="103.393149">
<time>2015-09-27T18:43:48Z</time></trkpt>
<trkpt lat="24.849921" lon="103.392919">
<time>2015-09-27T18:43:49Z</time></trkpt>
<trkpt lat="24.850041" lon="103.392709">
<time>2015-09-27T18:43:50Z</time></trkpt>
<trkpt lat="24.850101" lon="103.392519">
<time>2015-09-27T18:43:51Z</time></trkpt>
<trkpt lat="24.850161" lon="103.392319">
<time>2015-09-27T18:43:52Z</time></trkpt>
<trkpt lat="24.850191" lon="103.39213">
<time>2015-09-27T18:43:53Z</time></trkpt>
<trkpt lat="24.850211" lon="103.39186">
<time>2015-09-27T18:43:54Z</time></trkpt>
<trkpt lat="24.850211" lon="103.3914">
<time>2015-09-27T18:43:55Z</time></trkpt>
<trkpt lat="24.850133" lon="103.387814">
<time>2015-09-27T18:43:56Z</time></trkpt>
<trkpt lat="24.850173" lon="103.387265">
<time>2015-09-27T18:43:57Z</time></trkpt>
<trkpt lat="24.850223" lon="103.386655">
<time>2015-09-27T18:43:58Z</time></trkpt>
<trkpt lat="24.850404" lon="103.385706">
<time>2015-09-27T18:43:59Z</time></trkpt>
<trkpt lat="24.850956" lon="103.38274">
<time>2015-09-27T18:44:00Z</time></trkpt>
<trkpt lat="24.851076" lon="103.382351">
<time>2015-09-27T18:44:01Z</time></trkpt>
<trkpt lat="24.851166" lon="103.382111">
<time>2015-09-27T18:44:02Z</time></trkpt>
<trkpt lat="24.851297" lon="103.381771">
<time>2015-09-27T18:44:03Z</time></trkpt>
<trkpt lat="24.851437" lon="103.381492">
<time>2015-09-27T18:44:04Z</time></trkpt>
<trkpt lat="24.851597" lon="103.381242">
<time>2015-09-27T18:44:05Z</time></trkpt>
<trkpt lat="24.851727" lon="103.381042">
<time>2015-09-27T18:44:06Z</time></trkpt>
<trkpt lat="24.851827" lon="103.380893">
<time>2015-09-27T18:44:07Z</time></trkpt>
<trkpt lat="24.851967" lon="103.380733">
<time>2015-09-27T18:44:08Z</time></trkpt>
<trkpt lat="24.852107" lon="103.380583">
<time>2015-09-27T18:44:09Z</time></trkpt>
<trkpt lat="24.852338" lon="103.380343">
<time>2015-09-27T18:44:10Z</time></trkpt>
<trkpt lat="24.852898" lon="103.379844">
<time>2015-09-27T18:44:11Z</time></trkpt>
<trkpt lat="24.853168" lon="103.379594">
<time>2015-09-27T18:44:12Z</time></trkpt>
<trkpt lat="24.853418" lon="103.379355">
<time>2015-09-27T18:44:13Z</time></trkpt>
<trkpt lat="24.853648" lon="103.379125">
<time>2015-09-27T18:44:14Z</time></trkpt>
<trkpt lat="24.853829" lon="103.378895">
<time>2015-09-27T18:44:15Z</time></trkpt>
<trkpt lat="24.853979" lon="103.378676">
<time>2015-09-27T18:44:16Z</time></trkpt>
<trkpt lat="24.854129" lon="103.378426">
<time>2015-09-27T18:44:17Z</time></trkpt>
<trkpt lat="24.854239" lon="103.378197">
<time>2015-09-27T18:44:18Z</time></trkpt>
<trkpt lat="24.85437" lon="103.377847">
<time>2015-09-27T18:44:19Z</time></trkpt>
<trkpt lat="24.85444" lon="103.377577">
<time>2015-09-27T18:44:20Z</time></trkpt>
<trkpt lat="24.85445" lon="103.377488">
<time>2015-09-27T18:44:21Z</time></trkpt>
<trkpt lat="24.85453" lon="103.377078">
<time>2015-09-27T18:44:22Z</time></trkpt>
<trkpt lat="24.854611" lon="103.376329">
<time>2015-09-27T18:44:23Z</time></trkpt>
<trkpt lat="24.854772" lon="103.375012">
<time>2015-09-27T18:44:24Z</time></trkpt>
<trkpt lat="24.854832" lon="103.374702">
<time>2015-09-27T18:44:25Z</time></trkpt>
<trkpt lat="24.854893" lon="103.374452">
<time>2015-09-27T18:44:26Z</time></trkpt>
<trkpt lat="24.854943" lon="103.374293">
<time>2015-09-27T18:44:27Z</time></trkpt>
<trkpt lat="24.855023" lon="103.374083">
<time>2015-09-27T18:44:28Z</time></trkpt>
<trkpt lat="24.855163" lon="103.373764">
<time>2015-09-27T18:44:29Z</time></trkpt>
<trkpt lat="24.857218" lon="103.36989">
<time>2015-09-27T18:44:30Z</time></trkpt>
<trkpt lat="24.858951" lon="103.366527">
<time>2015-09-27T18:44:31Z</time></trkpt>
<trkpt lat="24.859523" lon="103.365439">
<time>2015-09-27T18:44:32Z</time></trkpt>
<trkpt lat="24.859733" lon="103.36497">
<time>2015-09-27T18:44:33Z</time></trkpt>
<trkpt lat="24.859924" lon="103.364531">
<time>2015-09-27T18:44:34Z</time></trkpt>
<trkpt lat="24.860054" lon="103.364162">
<time>2015-09-27T18:44:35Z</time></trkpt>
<trkpt lat="24.860266" lon="103.363233">
<time>2015-09-27T18:44:36Z</time></trkpt>
<trkpt lat="24.860386" lon="103.362714">
<time>2015-09-27T18:44:37Z</time></trkpt>
<trkpt lat="24.861292" lon="103.358563">
<time>2015-09-27T18:44:38Z</time></trkpt>
<trkpt lat="24.861373" lon="103.358224">
<time>2015-09-27T18:44:39Z</time></trkpt>
<trkpt lat="24.861443" lon="103.357855">
<time>2015-09-27T18:44:40Z</time></trkpt>
<trkpt lat="24.861434" lon="103.357665">
<time>2015-09-27T18:44:41Z</time></trkpt>
<trkpt lat="24.861434" lon="103.357576">
<time>2015-09-27T18:44:42Z</time></trkpt>
<trkpt lat="24.861434" lon="103.357526">
<time>2015-09-27T18:44:43Z</time></trkpt>
<trkpt lat="24.861404" lon="103.357376">
<time>2015-09-27T18:44:44Z</time></trkpt>
<trkpt lat="24.861374" lon="103.357236">
<time>2015-09-27T18:44:45Z</time></trkpt>
<trkpt lat="24.861344" lon="103.357137">
<time>2015-09-27T18:44:46Z</time></trkpt>
<trkpt lat="24.861315" lon="103.357037">
<time>2015-09-27T18:44:47Z</time></trkpt>
<trkpt lat="24.861255" lon="103.356927">
<time>2015-09-27T18:44:48Z</time></trkpt>
<trkpt lat="24.861175" lon="103.356777">
<time>2015-09-27T18:44:49Z</time></trkpt>
<trkpt lat="24.861035" lon="103.356608">
<time>2015-09-27T18:44:50Z</time></trkpt>
<trkpt lat="24.860916" lon="103.356478">
<time>2015-09-27T18:44:51Z</time></trkpt>
<trkpt lat="24.860816" lon="103.356398">
<time>2015-09-27T18:44:52Z</time></trkpt>
<trkpt lat="24.860676" lon="103.356308">
<time>2015-09-27T18:44:53Z</time></trkpt>
<trkpt lat="24.860386" lon="103.356159">
<time>2015-09-27T18:44:54Z</time></trkpt>
<trkpt lat="24.860376" lon="103.356159">
<time>2015-09-27T18:44:55Z</time></trkpt>
<trkpt lat="24.859497" lon="103.35578">
<time>2015-09-27T18:44:56Z</time></trkpt>
<trkpt lat="24.858977" lon="103.35558">
<time>2015-09-27T18:44:57Z</time></trkpt>
<trkpt lat="24.858677" lon="103.355421">
<time>2015-09-27T18:44:58Z</time></trkpt>
<trkpt lat="24.858388" lon="103.355211">
<time>2015-09-27T18:44:59Z</time></trkpt>
<trkpt lat="24.858198" lon="103.354982">
<time>2015-09-27T18:45:00Z</time></trkpt>
<trkpt lat="24.858088" lon="103.354822">
<time>2015-09-27T18:45:01Z</time></trkpt>
<trkpt lat="24.857949" lon="103.354553">
<time>2015-09-27T18:45:02Z</time></trkpt>
<trkpt lat="24.857799" lon="103.354203">
<time>2015-09-27T18:45:03Z</time></trkpt>
<trkpt lat="24.85766" lon="103.353695">
<time>2015-09-27T18:45:04Z</time></trkpt>
<trkpt lat="24.857481" lon="103.353086">
<time>2015-09-27T18:45:05Z</time></trkpt>
<trkpt lat="24.856954" lon="103.35124">
<time>2015-09-27T18:45:06Z</time></trkpt>
<trkpt lat="24.856766" lon="103.350522">
<time>2015-09-27T18:45:07Z</time></trkpt>
<trkpt lat="24.856656" lon="103.350113">
<time>2015-09-27T18:45:08Z</time></trkpt>
<trkpt lat="24.856209" lon="103.348447">
<time>2015-09-27T18:45:09Z</time></trkpt>
<trkpt lat="24.856209" lon="103.348447">
<time>2015-09-27T18:45:10Z</time></trkpt>
<trkpt lat="24.85595" lon="103.348238">
<time>2015-09-27T18:45:11Z</time></trkpt>
<trkpt lat="24.854312" lon="103.346961">
<time>2015-09-27T18:45:12Z</time></trkpt>
<trkpt lat="24.852944" lon="103.345884">
<time>2015-09-27T18:45:13Z</time></trkpt>
<trkpt lat="24.850987" lon="103.344358">
<time>2015-09-27T18:45:14Z</time></trkpt>
<trkpt lat="24.850458" lon="103.343909">
<time>2015-09-27T18:45:15Z</time></trkpt>
<trkpt lat="24.849669" lon="103.343111">
<time>2015-09-27T18:45:16Z</time></trkpt>
<trkpt lat="24.84945" lon="103.342851">
<time>2015-09-27T18:45:17Z</time></trkpt>
<trkpt lat="24.84916" lon="103.342532">
<time>2015-09-27T18:45:18Z</time></trkpt>
<trkpt lat="24.849021" lon="103.342363">
<time>2015-09-27T18:45:19Z</time></trkpt>
<trkpt lat="24.848861" lon="103.342143">
<time>2015-09-27T18:45:20Z</time></trkpt>
<trkpt lat="24.848811" lon="103.342083">
<time>2015-09-27T18:45:21Z</time></trkpt>
<trkpt lat="24.848771" lon="103.342034">
<time>2015-09-27T18:45:22Z</time></trkpt>
<trkpt lat="24.848602" lon="103.341814">
<time>2015-09-27T18:45:23Z</time></trkpt>
<trkpt lat="24.848333" lon="103.341415">
<time>2015-09-27T18:45:24Z</time></trkpt>
<trkpt lat="24.847944" lon="103.340777">
<time>2015-09-27T18:45:25Z</time></trkpt>
<trkpt lat="24.847545" lon="103.340029">
<time>2015-09-27T18:45:26Z</time></trkpt>
<trkpt lat="24.847117" lon="103.339091">
<time>2015-09-27T18:45:27Z</time></trkpt>
<trkpt lat="24.846808" lon="103.338303">
<time>2015-09-27T18:45:28Z</time></trkpt>
<trkpt lat="24.844828" lon="103.333317">
<time>2015-09-27T18:45:29Z</time></trkpt>
<trkpt lat="24.84446" lon="103.332409">
<time>2015-09-27T18:45:30Z</time></trkpt>
<trkpt lat="24.844281" lon="103.33194">
<time>2015-09-27T18:45:31Z</time></trkpt>
<trkpt lat="24.844062" lon="103.331232">
<time>2015-09-27T18:45:32Z</time></trkpt>
<trkpt lat="24.843933" lon="103.330664">
<time>2015-09-27T18:45:33Z</time></trkpt>
<trkpt lat="24.843854" lon="103.330195">
<time>2015-09-27T18:45:34Z</time></trkpt>
<trkpt lat="24.843815" lon="103.329806">
<time>2015-09-27T18:45:35Z</time></trkpt>
<trkpt lat="24.843776" lon="103.329387">
<time>2015-09-27T18:45:36Z</time></trkpt>
<trkpt lat="24.843767" lon="103.328928">
<time>2015-09-27T18:45:37Z</time></trkpt>
<trkpt lat="24.843777" lon="103.328619">
<time>2015-09-27T18:45:38Z</time></trkpt>
<trkpt lat="24.843787" lon="103.32844">
<time>2015-09-27T18:45:39Z</time></trkpt>
<trkpt lat="24.843818" lon="103.328091">
<time>2015-09-27T18:45:40Z</time></trkpt>
<trkpt lat="24.843839" lon="103.327881">
<time>2015-09-27T18:45:41Z</time></trkpt>
<trkpt lat="24.843839" lon="103.327881">
<time>2015-09-27T18:45:42Z</time></trkpt>
<trkpt lat="24.843779" lon="103.327702">
<time>2015-09-27T18:45:43Z</time></trkpt>
<trkpt lat="24.84378" lon="103.327193">
<time>2015-09-27T18:45:44Z</time></trkpt>
<trkpt lat="24.843771" lon="103.326615">
<time>2015-09-27T18:45:45Z</time></trkpt>
<trkpt lat="24.843752" lon="103.326325">
<time>2015-09-27T18:45:46Z</time></trkpt>
<trkpt lat="24.843692" lon="103.326056">
<time>2015-09-27T18:45:47Z</time></trkpt>
<trkpt lat="24.843573" lon="103.325747">
<time>2015-09-27T18:45:48Z</time></trkpt>
<trkpt lat="24.843393" lon="103.325418">
<time>2015-09-27T18:45:49Z</time></trkpt>
<trkpt lat="24.843304" lon="103.325278">
<time>2015-09-27T18:45:50Z</time></trkpt>
<trkpt lat="24.843264" lon="103.325218">
<time>2015-09-27T18:45:51Z</time></trkpt>
<trkpt lat="24.843164" lon="103.325069">
<time>2015-09-27T18:45:52Z</time></trkpt>
<trkpt lat="24.843164" lon="103.325059">
<time>2015-09-27T18:45:53Z</time></trkpt>
<trkpt lat="24.843054" lon="103.324899">
<time>2015-09-27T18:45:54Z</time></trkpt>
<trkpt lat="24.842945" lon="103.32476">
<time>2015-09-27T18:45:55Z</time></trkpt>
<trkpt lat="24.842855" lon="103.32462">
<time>2015-09-27T18:45:56Z</time></trkpt>
<trkpt lat="24.842755" lon="103.3245">
<time>2015-09-27T18:45:57Z</time></trkpt>
<trkpt lat="24.842725" lon="103.32447">
<time>2015-09-27T18:45:58Z</time></trkpt>
<trkpt lat="24.842525" lon="103.324381">
<time>2015-09-27T18:45:59Z</time></trkpt>
<trkpt lat="24.842316" lon="103.324291">
<time>2015-09-27T18:46:00Z</time></trkpt>
<trkpt lat="24.842186" lon="103.324181">
<time>2015-09-27T18:46:01Z</time></trkpt>
<trkpt lat="24.842166" lon="103.324161">
<time>2015-09-27T18:46:02Z</time></trkpt>
<trkpt lat="24.842166" lon="103.324161">
<time>2015-09-27T18:46:03Z</time></trkpt>
<trkpt lat="24.842416" lon="103.324022">
<time>2015-09-27T18:46:04Z</time></trkpt>
<trkpt lat="24.842416" lon="103.324022">
<time>2015-09-27T18:46:05Z</time></trkpt>
<trkpt lat="24.842386" lon="103.323972">
<time>2015-09-27T18:46:06Z</time></trkpt>
<trkpt lat="24.842386" lon="103.323972">
<time>2015-09-27T18:46:07Z</time></trkpt>
<trkpt lat="24.842426" lon="103.323932">
<time>2015-09-27T18:46:08Z</time></trkpt>
<trkpt lat="24.842426" lon="103.323932">
<time>2015-09-27T18:46:09Z</time></trkpt>
<trkpt lat="24.84122" lon="103.322157">
<time>2015-09-27T18:46:10Z</time></trkpt>
<trkpt lat="24.840951" lon="103.321768">
<time>2015-09-27T18:46:11Z</time></trkpt>
<trkpt lat="24.839824" lon="103.320112">
<time>2015-09-27T18:46:12Z</time></trkpt>
<trkpt lat="24.839664" lon="103.319883">
<time>2015-09-27T18:46:13Z</time></trkpt>
<trkpt lat="24.839654" lon="103.319863">
<time>2015-09-27T18:46:14Z</time></trkpt>
<trkpt lat="24.839614" lon="103.319813">
<time>2015-09-27T18:46:15Z</time></trkpt>
<trkpt lat="24.839614" lon="103.319803">
<time>2015-09-27T18:46:16Z</time></trkpt>
<trkpt lat="24.839475" lon="103.319613">
<time>2015-09-27T18:46:17Z</time></trkpt>
<trkpt lat="24.839445" lon="103.319544">
<time>2015-09-27T18:46:18Z</time></trkpt>
<trkpt lat="24.839415" lon="103.319494">
<time>2015-09-27T18:46:19Z</time></trkpt>
<trkpt lat="24.839415" lon="103.319494">
<time>2015-09-27T18:46:20Z</time></trkpt>
<trkpt lat="24.839585" lon="103.319374">
<time>2015-09-27T18:46:21Z</time></trkpt>
<trkpt lat="24.839635" lon="103.319334">
<time>2015-09-27T18:46:22Z</time></trkpt>
<trkpt lat="24.839705" lon="103.319294">
<time>2015-09-27T18:46:23Z</time></trkpt>
<trkpt lat="24.839806" lon="103.319215">
<time>2015-09-27T18:46:24Z</time></trkpt>
<trkpt lat="24.840036" lon="103.319065">
<time>2015-09-27T18:46:25Z</time></trkpt>
<trkpt lat="24.840136" lon="103.318985">
<time>2015-09-27T18:46:26Z</time></trkpt>
<trkpt lat="24.840186" lon="103.318945">
<time>2015-09-27T18:46:27Z</time></trkpt>
<trkpt lat="24.840336" lon="103.318816">
<time>2015-09-27T18:46:28Z</time></trkpt>
<trkpt lat="24.840416" lon="103.318726">
<time>2015-09-27T18:46:29Z</time></trkpt>
<trkpt lat="24.840477" lon="103.318646">
<time>2015-09-27T18:46:30Z</time></trkpt>
<trkpt lat="24.840527" lon="103.318526">
<time>2015-09-27T18:46:31Z</time></trkpt>
<trkpt lat="24.840567" lon="103.318397">
<time>2015-09-27T18:46:32Z</time></trkpt>
<trkpt lat="24.840597" lon="103.318277">
<time>2015-09-27T18:46:33Z</time></trkpt>
<trkpt lat="24.840617" lon="103.318157">
<time>2015-09-27T18:46:34Z</time></trkpt>
<trkpt lat="24.840618" lon="103.318048">
<time>2015-09-27T18:46:35Z</time></trkpt>
<trkpt lat="24.840618" lon="103.317918">
<time>2015-09-27T18:46:36Z</time></trkpt>
<trkpt lat="24.840608" lon="103.317798">
<time>2015-09-27T18:46:37Z</time></trkpt>
<trkpt lat="24.840519" lon="103.31725">
<time>2015-09-27T18:46:38Z</time></trkpt>
<trkpt lat="24.840341" lon="103.316113">
<time>2015-09-27T18:46:39Z</time></trkpt>
<trkpt lat="24.840272" lon="103.315754">
<time>2015-09-27T18:46:40Z</time></trkpt>
<trkpt lat="24.840153" lon="103.315255">
<time>2015-09-27T18:46:41Z</time></trkpt>
<trkpt lat="24.839984" lon="103.314726">
<time>2015-09-27T18:46:42Z</time></trkpt>
<trkpt lat="24.839894" lon="103.314447">
<time>2015-09-27T18:46:43Z</time></trkpt>
<trkpt lat="24.839596" lon="103.313639">
<time>2015-09-27T18:46:44Z</time></trkpt>
<trkpt lat="24.839556" lon="103.31351">
<time>2015-09-27T18:46:45Z</time></trkpt>
<trkpt lat="24.839526" lon="103.31339">
<time>2015-09-27T18:46:46Z</time></trkpt>
<trkpt lat="24.839497" lon="103.31327">
<time>2015-09-27T18:46:47Z</time></trkpt>
<trkpt lat="24.839428" lon="103.312831">
<time>2015-09-27T18:46:48Z</time></trkpt>
<trkpt lat="24.839319" lon="103.311854">
<time>2015-09-27T18:46:49Z</time></trkpt>
<trkpt lat="24.839309" lon="103.311784">
<time>2015-09-27T18:46:50Z</time></trkpt>
<trkpt lat="24.839231" lon="103.311196">
<time>2015-09-27T18:46:51Z</time></trkpt>
<trkpt lat="24.839221" lon="103.310976">
<time>2015-09-27T18:46:52Z</time></trkpt>
<trkpt lat="24.839221" lon="103.310747">
<time>2015-09-27T18:46:53Z</time></trkpt>
<trkpt lat="24.839262" lon="103.310557">
<time>2015-09-27T18:46:54Z</time></trkpt>
<trkpt lat="24.839342" lon="103.310268">
<time>2015-09-27T18:46:55Z</time></trkpt>
<trkpt lat="24.839493" lon="103.309959">
<time>2015-09-27T18:46:56Z</time></trkpt>
<trkpt lat="24.839603" lon="103.30967">
<time>2015-09-27T18:46:57Z</time></trkpt>
<trkpt lat="24.839834" lon="103.309191">
<time>2015-09-27T18:46:58Z</time></trkpt>
<trkpt lat="24.842996" lon="103.302368">
<time>2015-09-27T18:46:59Z</time></trkpt>
<trkpt lat="24.843257" lon="103.301839">
<time>2015-09-27T18:47:00Z</time></trkpt>
<trkpt lat="24.844921" lon="103.298936">
<time>2015-09-27T18:47:01Z</time></trkpt>
<trkpt lat="24.845473" lon="103.298048">
<time>2015-09-27T18:47:02Z</time></trkpt>
<trkpt lat="24.845843" lon="103.29753">
<time>2015-09-27T18:47:03Z</time></trkpt>
<trkpt lat="24.846134" lon="103.2972">
<time>2015-09-27T18:47:04Z</time></trkpt>
<trkpt lat="24.846184" lon="103.297151">
<time>2015-09-27T18:47:05Z</time></trkpt>
<trkpt lat="24.846304" lon="103.297031">
<time>2015-09-27T18:47:06Z</time></trkpt>
<trkpt lat="24.846464" lon="103.296891">
<time>2015-09-27T18:47:07Z</time></trkpt>
<trkpt lat="24.846605" lon="103.296771">
<time>2015-09-27T18:47:08Z</time></trkpt>
<trkpt lat="24.846825" lon="103.296602">
<time>2015-09-27T18:47:09Z</time></trkpt>
<trkpt lat="24.847165" lon="103.296372">
<time>2015-09-27T18:47:10Z</time></trkpt>
<trkpt lat="24.847736" lon="103.296003">
<time>2015-09-27T18:47:11Z</time></trkpt>
<trkpt lat="24.849237" lon="103.295025">
<time>2015-09-27T18:47:12Z</time></trkpt>
<trkpt lat="24.849397" lon="103.294916">
<time>2015-09-27T18:47:13Z</time></trkpt>
<trkpt lat="24.849507" lon="103.294816">
<time>2015-09-27T18:47:14Z</time></trkpt>
<trkpt lat="24.849647" lon="103.294706">
<time>2015-09-27T18:47:15Z</time></trkpt>
<trkpt lat="24.849948" lon="103.294417">
<time>2015-09-27T18:47:16Z</time></trkpt>
<trkpt lat="24.850238" lon="103.294078">
<time>2015-09-27T18:47:17Z</time></trkpt>
<trkpt lat="24.850308" lon="103.293958">
<time>2015-09-27T18:47:18Z</time></trkpt>
<trkpt lat="24.850439" lon="103.293758">
<time>2015-09-27T18:47:19Z</time></trkpt>
<trkpt lat="24.850689" lon="103.293329">
<time>2015-09-27T18:47:20Z</time></trkpt>
<trkpt lat="24.851321" lon="103.292092">
<time>2015-09-27T18:47:21Z</time></trkpt>
<trkpt lat="24.851492" lon="103.291803">
<time>2015-09-27T18:47:22Z</time></trkpt>
<trkpt lat="24.851672" lon="103.291493">
<time>2015-09-27T18:47:23Z</time></trkpt>
<trkpt lat="24.851802" lon="103.291204">
<time>2015-09-27T18:47:24Z</time></trkpt>
<trkpt lat="24.851853" lon="103.291084">
<time>2015-09-27T18:47:25Z</time></trkpt>
<trkpt lat="24.851893" lon="103.290984">
<time>2015-09-27T18:47:26Z</time></trkpt>
<trkpt lat="24.851933" lon="103.290865">
<time>2015-09-27T18:47:27Z</time></trkpt>
<trkpt lat="24.852023" lon="103.290605">
<time>2015-09-27T18:47:28Z</time></trkpt>
<trkpt lat="24.852084" lon="103.290416">
<time>2015-09-27T18:47:29Z</time></trkpt>
<trkpt lat="24.852134" lon="103.290246">
<time>2015-09-27T18:47:30Z</time></trkpt>
<trkpt lat="24.852265" lon="103.289717">
<time>2015-09-27T18:47:31Z</time></trkpt>
<trkpt lat="24.852285" lon="103.289667">
<time>2015-09-27T18:47:32Z</time></trkpt>
<trkpt lat="24.85335" lon="103.285456">
<time>2015-09-27T18:47:33Z</time></trkpt>
<trkpt lat="24.853491" lon="103.284857">
<time>2015-09-27T18:47:34Z</time></trkpt>
<trkpt lat="24.853661" lon="103.284458">
<time>2015-09-27T18:47:35Z</time></trkpt>
<trkpt lat="24.853812" lon="103.284169">
<time>2015-09-27T18:47:36Z</time></trkpt>
<trkpt lat="24.853982" lon="103.283949">
<time>2015-09-27T18:47:37Z</time></trkpt>
<trkpt lat="24.854142" lon="103.28377">
<time>2015-09-27T18:47:38Z</time></trkpt>
<trkpt lat="24.854383" lon="103.28356">
<time>2015-09-27T18:47:39Z</time></trkpt>
<trkpt lat="24.855433" lon="103.282791">
<time>2015-09-27T18:47:40Z</time></trkpt>
<trkpt lat="24.856264" lon="103.282123">
<time>2015-09-27T18:47:41Z</time></trkpt>
<trkpt lat="24.856725" lon="103.281694">
<time>2015-09-27T18:47:42Z</time></trkpt>
<trkpt lat="24.857255" lon="103.281095">
<time>2015-09-27T18:47:43Z</time></trkpt>
<trkpt lat="24.857776" lon="103.280516">
<time>2015-09-27T18:47:44Z</time></trkpt>
<trkpt lat="24.858497" lon="103.279677">
<time>2015-09-27T18:47:45Z</time></trkpt>
<trkpt lat="24.859188" lon="103.278849">
<time>2015-09-27T18:47:46Z</time></trkpt>
<trkpt lat="24.859478" lon="103.27839">
<time>2015-09-27T18:47:47Z</time></trkpt>
<trkpt lat="24.859658" lon="103.27811">
<time>2015-09-27T18:47:48Z</time></trkpt>
<trkpt lat="24.859728" lon="103.27799">
<time>2015-09-27T18:47:49Z</time></trkpt>
<trkpt lat="24.859929" lon="103.277581">
<time>2015-09-27T18:47:50Z</time></trkpt>
<trkpt lat="24.860139" lon="103.277122">
<time>2015-09-27T18:47:51Z</time></trkpt>
<trkpt lat="24.86036" lon="103.276523">
<time>2015-09-27T18:47:52Z</time></trkpt>
<trkpt lat="24.86048" lon="103.276134">
<time>2015-09-27T18:47:53Z</time></trkpt>
<trkpt lat="24.860701" lon="103.275455">
<time>2015-09-27T18:47:54Z</time></trkpt>
<trkpt lat="24.860721" lon="103.275395">
<time>2015-09-27T18:47:55Z</time></trkpt>
<trkpt lat="24.860992" lon="103.274656">
<time>2015-09-27T18:47:56Z</time></trkpt>
<trkpt lat="24.861012" lon="103.274606">
<time>2015-09-27T18:47:57Z</time></trkpt>
<trkpt lat="24.861192" lon="103.274237">
<time>2015-09-27T18:47:58Z</time></trkpt>
<trkpt lat="24.861422" lon="103.273907">
<time>2015-09-27T18:47:59Z</time></trkpt>
<trkpt lat="24.861643" lon="103.273658">
<time>2015-09-27T18:48:00Z</time></trkpt>
<trkpt lat="24.861913" lon="103.273418">
<time>2015-09-27T18:48:01Z</time></trkpt>
<trkpt lat="24.862453" lon="103.272979">
<time>2015-09-27T18:48:02Z</time></trkpt>
<trkpt lat="24.862513" lon="103.272939">
<time>2015-09-27T18:48:03Z</time></trkpt>
<trkpt lat="24.863914" lon="103.271921">
<time>2015-09-27T18:48:04Z</time></trkpt>
<trkpt lat="24.864804" lon="103.271282">
<time>2015-09-27T18:48:05Z</time></trkpt>
<trkpt lat="24.864884" lon="103.271212">
<time>2015-09-27T18:48:06Z</time></trkpt>
<trkpt lat="24.865034" lon="103.271082">
<time>2015-09-27T18:48:07Z</time></trkpt>
<trkpt lat="24.865175" lon="103.270982">
<time>2015-09-27T18:48:08Z</time></trkpt>
<trkpt lat="24.865365" lon="103.270862">
<time>2015-09-27T18:48:09Z</time></trkpt>
<trkpt lat="24.866075" lon="103.270682">
<time>2015-09-27T18:48:10Z</time></trkpt>
<trkpt lat="24.869485" lon="103.269884">
<time>2015-09-27T18:48:11Z</time></trkpt>
<trkpt lat="24.869595" lon="103.269864">
<time>2015-09-27T18:48:12Z</time></trkpt>
<trkpt lat="24.870595" lon="103.269634">
<time>2015-09-27T18:48:13Z</time></trkpt>
<trkpt lat="24.870885" lon="103.269574">
<time>2015-09-27T18:48:14Z</time></trkpt>
<trkpt lat="24.871095" lon="103.269524">
<time>2015-09-27T18:48:15Z</time></trkpt>
<trkpt lat="24.872825" lon="103.269145">
<time>2015-09-27T18:48:16Z</time></trkpt>
<trkpt lat="24.873315" lon="103.268995">
<time>2015-09-27T18:48:17Z</time></trkpt>
<trkpt lat="24.873605" lon="103.268855">
<time>2015-09-27T18:48:18Z</time></trkpt>
<trkpt lat="24.873885" lon="103.268705">
<time>2015-09-27T18:48:19Z</time></trkpt>
<trkpt lat="24.874316" lon="103.268426">
<time>2015-09-27T18:48:20Z</time></trkpt>
<trkpt lat="24.874576" lon="103.268306">
<time>2015-09-27T18:48:21Z</time></trkpt>
<trkpt lat="24.874786" lon="103.268236">
<time>2015-09-27T18:48:22Z</time></trkpt>
<trkpt lat="24.874976" lon="103.268206">
<time>2015-09-27T18:48:23Z</time></trkpt>
<trkpt lat="24.875236" lon="103.268196">
<time>2015-09-27T18:48:24Z</time></trkpt>
<trkpt lat="24.875736" lon="103.268216">
<time>2015-09-27T18:48:25Z</time></trkpt>
<trkpt lat="24.876575" lon="103.268246">
<time>2015-09-27T18:48:26Z</time></trkpt>
<trkpt lat="24.876885" lon="103.268216">
<time>2015-09-27T18:48:27Z</time></trkpt>
<trkpt lat="24.877115" lon="103.268136">
<time>2015-09-27T18:48:28Z</time></trkpt>
<trkpt lat="24.877265" lon="103.268036">
<time>2015-09-27T18:48:29Z</time></trkpt>
<trkpt lat="24.877376" lon="103.267936">
<time>2015-09-27T18:48:30Z</time></trkpt>
<trkpt lat="24.877556" lon="103.267667">
<time>2015-09-27T18:48:31Z</time></trkpt>
<trkpt lat="24.877766" lon="103.267277">
<time>2015-09-27T18:48:32Z</time></trkpt>
<trkpt lat="24.877996" lon="103.266848">
<time>2015-09-27T18:48:33Z</time></trkpt>
<trkpt lat="24.878046" lon="103.266758">
<time>2015-09-27T18:48:34Z</time></trkpt>
<trkpt lat="24.878227" lon="103.266408">
<time>2015-09-27T18:48:35Z</time></trkpt>
<trkpt lat="24.878377" lon="103.266129">
<time>2015-09-27T18:48:36Z</time></trkpt>
<trkpt lat="24.878717" lon="103.26547">
<time>2015-09-27T18:48:37Z</time></trkpt>
<trkpt lat="24.879067" lon="103.26492">
<time>2015-09-27T18:48:38Z</time></trkpt>
<trkpt lat="24.879328" lon="103.264611">
<time>2015-09-27T18:48:39Z</time></trkpt>
<trkpt lat="24.879658" lon="103.264341">
<time>2015-09-27T18:48:40Z</time></trkpt>
<trkpt lat="24.879708" lon="103.264301">
<time>2015-09-27T18:48:41Z</time></trkpt>
<trkpt lat="24.879978" lon="103.264111">
<time>2015-09-27T18:48:42Z</time></trkpt>
<trkpt lat="24.880438" lon="103.263882">
<time>2015-09-27T18:48:43Z</time></trkpt>
<trkpt lat="24.880978" lon="103.263622">
<time>2015-09-27T18:48:44Z</time></trkpt>
<trkpt lat="24.880988" lon="103.263612">
<time>2015-09-27T18:48:45Z</time></trkpt>
<trkpt lat="24.881388" lon="103.263362">
<time>2015-09-27T18:48:46Z</time></trkpt>
<trkpt lat="24.881728" lon="103.263103">
<time>2015-09-27T18:48:47Z</time></trkpt>
<trkpt lat="24.882298" lon="103.262573">
<time>2015-09-27T18:48:48Z</time></trkpt>
<trkpt lat="24.882549" lon="103.262234">
<time>2015-09-27T18:48:49Z</time></trkpt>
<trkpt lat="24.882989" lon="103.261485">
<time>2015-09-27T18:48:50Z</time></trkpt>
<trkpt lat="24.883159" lon="103.261165">
<time>2015-09-27T18:48:51Z</time></trkpt>
<trkpt lat="24.883269" lon="103.260825">
<time>2015-09-27T18:48:52Z</time></trkpt>
<trkpt lat="24.883359" lon="103.260506">
<time>2015-09-27T18:48:53Z</time></trkpt>
<trkpt lat="24.88349" lon="103.259577">
<time>2015-09-27T18:48:54Z</time></trkpt>
<trkpt lat="24.88351" lon="103.259447">
<time>2015-09-27T18:48:55Z</time></trkpt>
<trkpt lat="24.88371" lon="103.258168">
<time>2015-09-27T18:48:56Z</time></trkpt>
<trkpt lat="24.88377" lon="103.257689">
<time>2015-09-27T18:48:57Z</time></trkpt>
<trkpt lat="24.883811" lon="103.257269">
<time>2015-09-27T18:48:58Z</time></trkpt>
<trkpt lat="24.883821" lon="103.257039">
<time>2015-09-27T18:48:59Z</time></trkpt>
<trkpt lat="24.883811" lon="103.25689">
<time>2015-09-27T18:49:00Z</time></trkpt>
<trkpt lat="24.883781" lon="103.25674">
<time>2015-09-27T18:49:01Z</time></trkpt>
<trkpt lat="24.883751" lon="103.25659">
<time>2015-09-27T18:49:02Z</time></trkpt>
<trkpt lat="24.883641" lon="103.25621">
<time>2015-09-27T18:49:03Z</time></trkpt>
<trkpt lat="24.883231" lon="103.255061">
<time>2015-09-27T18:49:04Z</time></trkpt>
<trkpt lat="24.883131" lon="103.254812">
<time>2015-09-27T18:49:05Z</time></trkpt>
<trkpt lat="24.883062" lon="103.254612">
<time>2015-09-27T18:49:06Z</time></trkpt>
<trkpt lat="24.883032" lon="103.254432">
<time>2015-09-27T18:49:07Z</time></trkpt>
<trkpt lat="24.883032" lon="103.254422">
<time>2015-09-27T18:49:08Z</time></trkpt>
<trkpt lat="24.883022" lon="103.254232">
<time>2015-09-27T18:49:09Z</time></trkpt>
<trkpt lat="24.883022" lon="103.254082">
<time>2015-09-27T18:49:10Z</time></trkpt>
<trkpt lat="24.883032" lon="103.254012">
<time>2015-09-27T18:49:11Z</time></trkpt>
<trkpt lat="24.883042" lon="103.253892">
<time>2015-09-27T18:49:12Z</time></trkpt>
<trkpt lat="24.883042" lon="103.253882">
<time>2015-09-27T18:49:13Z</time></trkpt>
<trkpt lat="24.883082" lon="103.253743">
<time>2015-09-27T18:49:14Z</time></trkpt>
<trkpt lat="24.883182" lon="103.253503">
<time>2015-09-27T18:49:15Z</time></trkpt>
<trkpt lat="24.883322" lon="103.253263">
<time>2015-09-27T18:49:16Z</time></trkpt>
<trkpt lat="24.883582" lon="103.252803">
<time>2015-09-27T18:49:17Z</time></trkpt>
<trkpt lat="24.883872" lon="103.252204">
<time>2015-09-27T18:49:18Z</time></trkpt>
<trkpt lat="24.884472" lon="103.251135">
<time>2015-09-27T18:49:19Z</time></trkpt>
<trkpt lat="24.885052" lon="103.250016">
<time>2015-09-27T18:49:20Z</time></trkpt>
<trkpt lat="24.885252" lon="103.249586">
<time>2015-09-27T18:49:21Z</time></trkpt>
<trkpt lat="24.885562" lon="103.249016">
<time>2015-09-27T18:49:22Z</time></trkpt>
<trkpt lat="24.885822" lon="103.248656">
<time>2015-09-27T18:49:23Z</time></trkpt>
<trkpt lat="24.886002" lon="103.248457">
<time>2015-09-27T18:49:24Z</time></trkpt>
<trkpt lat="24.886982" lon="103.247647">
<time>2015-09-27T18:49:25Z</time></trkpt>
<trkpt lat="24.888612" lon="103.246378">
<time>2015-09-27T18:49:26Z</time></trkpt>
<trkpt lat="24.889272" lon="103.245818">
<time>2015-09-27T18:49:27Z</time></trkpt>
<trkpt lat="24.889451" lon="103.245668">
<time>2015-09-27T18:49:28Z</time></trkpt>
<trkpt lat="24.889541" lon="103.245578">
<time>2015-09-27T18:49:29Z</time></trkpt>
<trkpt lat="24.889661" lon="103.245448">
<time>2015-09-27T18:49:30Z</time></trkpt>
<trkpt lat="24.889741" lon="103.245338">
<time>2015-09-27T18:49:31Z</time></trkpt>
<trkpt lat="24.889801" lon="103.245218">
<time>2015-09-27T18:49:32Z</time></trkpt>
<trkpt lat="24.889871" lon="103.245079">
<time>2015-09-27T18:49:33Z</time></trkpt>
<trkpt lat="24.889911" lon="103.244939">
<time>2015-09-27T18:49:34Z</time></trkpt>
<trkpt lat="24.889931" lon="103.244819">
<time>2015-09-27T18:49:35Z</time></trkpt>
<trkpt lat="24.889941" lon="103.244719">
<time>2015-09-27T18:49:36Z</time></trkpt>
<trkpt lat="24.889951" lon="103.244589">
<time>2015-09-27T18:49:37Z</time></trkpt>
<trkpt lat="24.889941" lon="103.244469">
<time>2015-09-27T18:49:38Z</time></trkpt>
<trkpt lat="24.889931" lon="103.244329">
<time>2015-09-27T18:49:39Z</time></trkpt>
<trkpt lat="24.889891" lon="103.244179">
<time>2015-09-27T18:49:40Z</time></trkpt>
<trkpt lat="24.889881" lon="103.244149">
<time>2015-09-27T18:49:41Z</time></trkpt>
<trkpt lat="24.889841" lon="103.244009">
<time>2015-09-27T18:49:42Z</time></trkpt>
<trkpt lat="24.889741" lon="103.243739">
<time>2015-09-27T18:49:43Z</time></trkpt>
<trkpt lat="24.889191" lon="103.24261">
<time>2015-09-27T18:49:44Z</time></trkpt>
<trkpt lat="24.889061" lon="103.24231">
<time>2015-09-27T18:49:45Z</time></trkpt>
<trkpt lat="24.889051" lon="103.24227">
<time>2015-09-27T18:49:46Z</time></trkpt>
<trkpt lat="24.888971" lon="103.24195">
<time>2015-09-27T18:49:47Z</time></trkpt>
<trkpt lat="24.888941" lon="103.24182">
<time>2015-09-27T18:49:48Z</time></trkpt>
<trkpt lat="24.888931" lon="103.2417">
<time>2015-09-27T18:49:49Z</time></trkpt>
<trkpt lat="24.888941" lon="103.24157">
<time>2015-09-27T18:49:50Z</time></trkpt>
<trkpt lat="24.888961" lon="103.24143">
<time>2015-09-27T18:49:51Z</time></trkpt>
<trkpt lat="24.888981" lon="103.24131">
<time>2015-09-27T18:49:52Z</time></trkpt>
<trkpt lat="24.889011" lon="103.24117">
<time>2015-09-27T18:49:53Z</time></trkpt>
<trkpt lat="24.889151" lon="103.24054">
<time>2015-09-27T18:49:54Z</time></trkpt>
<trkpt lat="24.889171" lon="103.240451">
<time>2015-09-27T18:49:55Z</time></trkpt>
<trkpt lat="24.8894" lon="103.239421">
<time>2015-09-27T18:49:56Z</time></trkpt>
<trkpt lat="24.8897" lon="103.238001">
<time>2015-09-27T18:49:57Z</time></trkpt>
<trkpt lat="24.88972" lon="103.237911">
<time>2015-09-27T18:49:58Z</time></trkpt>
<trkpt lat="24.889879" lon="103.237031">
<time>2015-09-27T18:49:59Z</time></trkpt>
<trkpt lat="24.889969" lon="103.236582">
<time>2015-09-27T18:50:00Z</time></trkpt>
<trkpt lat="24.890009" lon="103.236162">
<time>2015-09-27T18:50:01Z</time></trkpt>
<trkpt lat="24.890019" lon="103.235732">
<time>2015-09-27T18:50:02Z</time></trkpt>
<trkpt lat="24.890038" lon="103.234962">
<time>2015-09-27T18:50:03Z</time></trkpt>
<trkpt lat="24.890038" lon="103.234342">
<time>2015-09-27T18:50:04Z</time></trkpt>
<trkpt lat="24.890038" lon="103.234342">
<time>2015-09-27T18:50:05Z</time></trkpt>
<trkpt lat="24.890028" lon="103.234302">
<time>2015-09-27T18:50:06Z</time></trkpt>
<trkpt lat="24.890038" lon="103.233822">
<time>2015-09-27T18:50:07Z</time></trkpt>
<trkpt lat="24.889998" lon="103.233532">
<time>2015-09-27T18:50:08Z</time></trkpt>
<trkpt lat="24.889947" lon="103.233312">
<time>2015-09-27T18:50:09Z</time></trkpt>
<trkpt lat="24.889887" lon="103.233132">
<time>2015-09-27T18:50:10Z</time></trkpt>
<trkpt lat="24.889827" lon="103.232952">
<time>2015-09-27T18:50:11Z</time></trkpt>
<trkpt lat="24.889727" lon="103.232752">
<time>2015-09-27T18:50:12Z</time></trkpt>
<trkpt lat="24.889527" lon="103.232432">
<time>2015-09-27T18:50:13Z</time></trkpt>
<trkpt lat="24.889477" lon="103.232352">
<time>2015-09-27T18:50:14Z</time></trkpt>
<trkpt lat="24.889387" lon="103.232212">
<time>2015-09-27T18:50:15Z</time></trkpt>
<trkpt lat="24.888876" lon="103.231372">
<time>2015-09-27T18:50:16Z</time></trkpt>
<trkpt lat="24.888796" lon="103.231192">
<time>2015-09-27T18:50:17Z</time></trkpt>
<trkpt lat="24.888726" lon="103.230972">
<time>2015-09-27T18:50:18Z</time></trkpt>
<trkpt lat="24.888716" lon="103.230842">
<time>2015-09-27T18:50:19Z</time></trkpt>
<trkpt lat="24.888716" lon="103.230722">
<time>2015-09-27T18:50:20Z</time></trkpt>
<trkpt lat="24.888736" lon="103.230582">
<time>2015-09-27T18:50:21Z</time></trkpt>
<trkpt lat="24.888796" lon="103.230422">
<time>2015-09-27T18:50:22Z</time></trkpt>
<trkpt lat="24.888866" lon="103.230292">
<time>2015-09-27T18:50:23Z</time></trkpt>
<trkpt lat="24.888946" lon="103.230182">
<time>2015-09-27T18:50:24Z</time></trkpt>
<trkpt lat="24.889016" lon="103.230102">
<time>2015-09-27T18:50:25Z</time></trkpt>
<trkpt lat="24.889126" lon="103.230012">
<time>2015-09-27T18:50:26Z</time></trkpt>
<trkpt lat="24.889265" lon="103.229942">
<time>2015-09-27T18:50:27Z</time></trkpt>
<trkpt lat="24.889415" lon="103.229902">
<time>2015-09-27T18:50:28Z</time></trkpt>
<trkpt lat="24.889575" lon="103.229892">
<time>2015-09-27T18:50:29Z</time></trkpt>
<trkpt lat="24.889775" lon="103.229902">
<time>2015-09-27T18:50:30Z</time></trkpt>
<trkpt lat="24.889895" lon="103.229922">
<time>2015-09-27T18:50:31Z</time></trkpt>
<trkpt lat="24.890005" lon="103.229952">
<time>2015-09-27T18:50:32Z</time></trkpt>
<trkpt lat="24.890525" lon="103.230112">
<time>2015-09-27T18:50:33Z</time></trkpt>
<trkpt lat="24.891276" lon="103.230332">
<time>2015-09-27T18:50:34Z</time></trkpt>
<trkpt lat="24.891316" lon="103.230342">
<time>2015-09-27T18:50:35Z</time></trkpt>
<trkpt lat="24.891496" lon="103.230392">
<time>2015-09-27T18:50:36Z</time></trkpt>
<trkpt lat="24.892046" lon="103.230542">
<time>2015-09-27T18:50:37Z</time></trkpt>
<trkpt lat="24.892266" lon="103.230552">
<time>2015-09-27T18:50:38Z</time></trkpt>
<trkpt lat="24.892465" lon="103.230542">
<time>2015-09-27T18:50:39Z</time></trkpt>
<trkpt lat="24.892625" lon="103.230482">
<time>2015-09-27T18:50:40Z</time></trkpt>
<trkpt lat="24.892765" lon="103.230422">
<time>2015-09-27T18:50:41Z</time></trkpt>
<trkpt lat="24.892905" lon="103.230322">
<time>2015-09-27T18:50:42Z</time></trkpt>
<trkpt lat="24.893005" lon="103.230202">
<time>2015-09-27T18:50:43Z</time></trkpt>
<trkpt lat="24.893035" lon="103.230132">
<time>2015-09-27T18:50:44Z</time></trkpt>
<trkpt lat="24.893125" lon="103.229972">
<time>2015-09-27T18:50:45Z</time></trkpt>
<trkpt lat="24.893215" lon="103.229802">
<time>2015-09-27T18:50:46Z</time></trkpt>
<trkpt lat="24.893325" lon="103.229492">
<time>2015-09-27T18:50:47Z</time></trkpt>
<trkpt lat="24.893454" lon="103.229162">
<time>2015-09-27T18:50:48Z</time></trkpt>
<trkpt lat="24.893554" lon="103.229002">
<time>2015-09-27T18:50:49Z</time></trkpt>
<trkpt lat="24.893664" lon="103.228882">
<time>2015-09-27T18:50:50Z</time></trkpt>
<trkpt lat="24.893854" lon="103.228782">
<time>2015-09-27T18:50:51Z</time></trkpt>
<trkpt lat="24.893974" lon="103.228752">
<time>2015-09-27T18:50:52Z</time></trkpt>
<trkpt lat="24.894034" lon="103.228762">
<time>2015-09-27T18:50:53Z</time></trkpt>
<trkpt lat="24.894074" lon="103.228762">
<time>2015-09-27T18:50:54Z</time></trkpt>
<trkpt lat="24.894114" lon="103.228762">
<time>2015-09-27T18:50:55Z</time></trkpt>
<trkpt lat="24.894244" lon="103.228792">
<time>2015-09-27T18:50:56Z</time></trkpt>
<trkpt lat="24.894404" lon="103.228862">
<time>2015-09-27T18:50:57Z</time></trkpt>
<trkpt lat="24.894584" lon="103.228952">
<time>2015-09-27T18:50:58Z</time></trkpt>
<trkpt lat="24.894634" lon="103.228982">
<time>2015-09-27T18:50:59Z</time></trkpt>
<trkpt lat="24.895775" lon="103.229812">
<time>2015-09-27T18:51:00Z</time></trkpt>
<trkpt lat="24.895985" lon="103.229962">
<time>2015-09-27T18:51:01Z</time></trkpt>
<trkpt lat="24.896015" lon="103.230002">
<time>2015-09-27T18:51:02Z</time></trkpt>
<trkpt lat="24.896755" lon="103.230532">
<time>2015-09-27T18:51:03Z</time></trkpt>
<trkpt lat="24.896865" lon="103.230592">
<time>2015-09-27T18:51:04Z</time></trkpt>
<trkpt lat="24.897015" lon="103.230692">
<time>2015-09-27T18:51:05Z</time></trkpt>
<trkpt lat="24.897185" lon="103.230782">
<time>2015-09-27T18:51:06Z</time></trkpt>
<trkpt lat="24.897295" lon="103.230832">
<time>2015-09-27T18:51:07Z</time></trkpt>
<trkpt lat="24.897405" lon="103.230842">
<time>2015-09-27T18:51:08Z</time></trkpt>
<trkpt lat="24.897495" lon="103.230842">
<time>2015-09-27T18:51:09Z</time></trkpt>
<trkpt lat="24.897555" lon="103.230842">
<time>2015-09-27T18:51:10Z</time></trkpt>
<trkpt lat="24.897635" lon="103.230822">
<time>2015-09-27T18:51:11Z</time></trkpt>
<trkpt lat="24.897715" lon="103.230782">
<time>2015-09-27T18:51:12Z</time></trkpt>
<trkpt lat="24.897775" lon="103.230742">
<time>2015-09-27T18:51:13Z</time></trkpt>
<trkpt lat="24.897855" lon="103.230692">
<time>2015-09-27T18:51:14Z</time></trkpt>
<trkpt lat="24.897935" lon="103.230612">
<time>2015-09-27T18:51:15Z</time></trkpt>
<trkpt lat="24.897995" lon="103.230522">
<time>2015-09-27T18:51:16Z</time></trkpt>
<trkpt lat="24.898045" lon="103.230432">
<time>2015-09-27T18:51:17Z</time></trkpt>
<trkpt lat="24.898115" lon="103.230232">
<time>2015-09-27T18:51:18Z</time></trkpt>
<trkpt lat="24.898204" lon="103.229922">
<time>2015-09-27T18:51:19Z</time></trkpt>
<trkpt lat="24.898344" lon="103.229462">
<time>2015-09-27T18:51:20Z</time></trkpt>
<trkpt lat="24.898524" lon="103.228831">
<time>2015-09-27T18:51:21Z</time></trkpt>
<trkpt lat="24.898633" lon="103.228511">
<time>2015-09-27T18:51:22Z</time></trkpt>
<trkpt lat="24.898733" lon="103.228241">
<time>2015-09-27T18:51:23Z</time></trkpt>
<trkpt lat="24.898873" lon="103.228041">
<time>2015-09-27T18:51:24Z</time></trkpt>
<trkpt lat="24.899093" lon="103.227801">
<time>2015-09-27T18:51:25Z</time></trkpt>
<trkpt lat="24.899313" lon="103.227601">
<time>2015-09-27T18:51:26Z</time></trkpt>
<trkpt lat="24.899403" lon="103.227531">
<time>2015-09-27T18:51:27Z</time></trkpt>
<trkpt lat="24.900002" lon="103.227041">
<time>2015-09-27T18:51:28Z</time></trkpt>
<trkpt lat="24.900881" lon="103.226361">
<time>2015-09-27T18:51:29Z</time></trkpt>
<trkpt lat="24.900901" lon="103.226351">
<time>2015-09-27T18:51:30Z</time></trkpt>
<trkpt lat="24.901671" lon="103.225721">
<time>2015-09-27T18:51:31Z</time></trkpt>
<trkpt lat="24.901971" lon="103.225421">
<time>2015-09-27T18:51:32Z</time></trkpt>
<trkpt lat="24.90225" lon="103.225051">
<time>2015-09-27T18:51:33Z</time></trkpt>
<trkpt lat="24.903019" lon="103.22393">
<time>2015-09-27T18:51:34Z</time></trkpt>
<trkpt lat="24.903429" lon="103.22334">
<time>2015-09-27T18:51:35Z</time></trkpt>
<trkpt lat="24.903718" lon="103.22302">
<time>2015-09-27T18:51:36Z</time></trkpt>
<trkpt lat="24.903938" lon="103.22285">
<time>2015-09-27T18:51:37Z</time></trkpt>
<trkpt lat="24.904258" lon="103.22263">
<time>2015-09-27T18:51:38Z</time></trkpt>
<trkpt lat="24.905737" lon="103.221729">
<time>2015-09-27T18:51:39Z</time></trkpt>
<trkpt lat="24.906576" lon="103.221159">
<time>2015-09-27T18:51:40Z</time></trkpt>
<trkpt lat="24.906976" lon="103.220829">
<time>2015-09-27T18:51:41Z</time></trkpt>
<trkpt lat="24.907036" lon="103.220779">
<time>2015-09-27T18:51:42Z</time></trkpt>
<trkpt lat="24.907815" lon="103.220099">
<time>2015-09-27T18:51:43Z</time></trkpt>
<trkpt lat="24.908904" lon="103.219118">
<time>2015-09-27T18:51:44Z</time></trkpt>
<trkpt lat="24.909373" lon="103.218708">
<time>2015-09-27T18:51:45Z</time></trkpt>
<trkpt lat="24.909413" lon="103.218668">
<time>2015-09-27T18:51:46Z</time></trkpt>
<trkpt lat="24.909593" lon="103.218478">
<time>2015-09-27T18:51:47Z</time></trkpt>
<trkpt lat="24.909773" lon="103.218238">
<time>2015-09-27T18:51:48Z</time></trkpt>
<trkpt lat="24.909893" lon="103.218058">
<time>2015-09-27T18:51:49Z</time></trkpt>
<trkpt lat="24.909942" lon="103.217858">
<time>2015-09-27T18:51:50Z</time></trkpt>
<trkpt lat="24.909922" lon="103.217727">
<time>2015-09-27T18:51:51Z</time></trkpt>
<trkpt lat="24.909882" lon="103.217547">
<time>2015-09-27T18:51:52Z</time></trkpt>
<trkpt lat="24.909822" lon="103.217407">
<time>2015-09-27T18:51:53Z</time></trkpt>
<trkpt lat="24.909672" lon="103.217247">
<time>2015-09-27T18:51:54Z</time></trkpt>
<trkpt lat="24.909552" lon="103.217167">
<time>2015-09-27T18:51:55Z</time></trkpt>
<trkpt lat="24.909432" lon="103.217107">
<time>2015-09-27T18:51:56Z</time></trkpt>
<trkpt lat="24.909272" lon="103.217067">
<time>2015-09-27T18:51:57Z</time></trkpt>
<trkpt lat="24.908772" lon="103.217047">
<time>2015-09-27T18:51:58Z</time></trkpt>
<trkpt lat="24.906422" lon="103.216987">
<time>2015-09-27T18:51:59Z</time></trkpt>
<trkpt lat="24.906042" lon="103.216967">
<time>2015-09-27T18:52:00Z</time></trkpt>
<trkpt lat="24.905692" lon="103.216927">
<time>2015-09-27T18:52:01Z</time></trkpt>
<trkpt lat="24.905072" lon="103.216807">
<time>2015-09-27T18:52:02Z</time></trkpt>
<trkpt lat="24.904562" lon="103.216687">
<time>2015-09-27T18:52:03Z</time></trkpt>
<trkpt lat="24.903322" lon="103.216387">
<time>2015-09-27T18:52:04Z</time></trkpt>
<trkpt lat="24.903111" lon="103.216317">
<time>2015-09-27T18:52:05Z</time></trkpt>
<trkpt lat="24.903081" lon="103.216297">
<time>2015-09-27T18:52:06Z</time></trkpt>
<trkpt lat="24.902981" lon="103.216237">
<time>2015-09-27T18:52:07Z</time></trkpt>
<trkpt lat="24.902871" lon="103.216157">
<time>2015-09-27T18:52:08Z</time></trkpt>
<trkpt lat="24.902791" lon="103.216067">
<time>2015-09-27T18:52:09Z</time></trkpt>
<trkpt lat="24.902741" lon="103.215977">
<time>2015-09-27T18:52:10Z</time></trkpt>
<trkpt lat="24.902701" lon="103.215867">
<time>2015-09-27T18:52:11Z</time></trkpt>
<trkpt lat="24.902681" lon="103.215747">
<time>2015-09-27T18:52:12Z</time></trkpt>
<trkpt lat="24.902671" lon="103.215637">
<time>2015-09-27T18:52:13Z</time></trkpt>
<trkpt lat="24.902691" lon="103.215516">
<time>2015-09-27T18:52:14Z</time></trkpt>
<trkpt lat="24.90273" lon="103.215396">
<time>2015-09-27T18:52:15Z</time></trkpt>
<trkpt lat="24.90277" lon="103.215326">
<time>2015-09-27T18:52:16Z</time></trkpt>
<trkpt lat="24.90285" lon="103.215226">
<time>2015-09-27T18:52:17Z</time></trkpt>
<trkpt lat="24.9029" lon="103.215176">
<time>2015-09-27T18:52:18Z</time></trkpt>
<trkpt lat="24.90296" lon="103.215146">
<time>2015-09-27T18:52:19Z</time></trkpt>
<trkpt lat="24.90306" lon="103.215126">
<time>2015-09-27T18:52:20Z</time></trkpt>
<trkpt lat="24.90317" lon="103.215096">
<time>2015-09-27T18:52:21Z</time></trkpt>
<trkpt lat="24.90326" lon="103.215106">
<time>2015-09-27T18:52:22Z</time></trkpt>
<trkpt lat="24.90353" lon="103.215126">
<time>2015-09-27T18:52:23Z</time></trkpt>
<trkpt lat="24.90387" lon="103.215186">
<time>2015-09-27T18:52:24Z</time></trkpt>
<trkpt lat="24.90492" lon="103.215446">
<time>2015-09-27T18:52:25Z</time></trkpt>
<trkpt lat="24.90557" lon="103.215566">
<time>2015-09-27T18:52:26Z</time></trkpt>
<trkpt lat="24.90581" lon="103.215586">
<time>2015-09-27T18:52:27Z</time></trkpt>
<trkpt lat="24.90596" lon="103.215566">
<time>2015-09-27T18:52:28Z</time></trkpt>
<trkpt lat="24.90614" lon="103.215506">
<time>2015-09-27T18:52:29Z</time></trkpt>
<trkpt lat="24.90697" lon="103.215176">
<time>2015-09-27T18:52:30Z</time></trkpt>
<trkpt lat="24.907809" lon="103.214826">
<time>2015-09-27T18:52:31Z</time></trkpt>
<trkpt lat="24.908279" lon="103.214666">
<time>2015-09-27T18:52:32Z</time></trkpt>
<trkpt lat="24.908729" lon="103.214606">
<time>2015-09-27T18:52:33Z</time></trkpt>
<trkpt lat="24.908959" lon="103.214586">
<time>2015-09-27T18:52:34Z</time></trkpt>
<trkpt lat="24.909079" lon="103.214576">
<time>2015-09-27T18:52:35Z</time></trkpt>
<trkpt lat="24.909519" lon="103.214576">
<time>2015-09-27T18:52:36Z</time></trkpt>
<trkpt lat="24.909679" lon="103.214586">
<time>2015-09-27T18:52:37Z</time></trkpt>
<trkpt lat="24.910069" lon="103.214606">
<time>2015-09-27T18:52:38Z</time></trkpt>
<trkpt lat="24.910369" lon="103.214596">
<time>2015-09-27T18:52:39Z</time></trkpt>
<trkpt lat="24.910409" lon="103.214596">
<time>2015-09-27T18:52:40Z</time></trkpt>
<trkpt lat="24.910539" lon="103.214586">
<time>2015-09-27T18:52:41Z</time></trkpt>
<trkpt lat="24.910879" lon="103.214566">
<time>2015-09-27T18:52:42Z</time></trkpt>
<trkpt lat="24.911128" lon="103.214466">
<time>2015-09-27T18:52:43Z</time></trkpt>
<trkpt lat="24.911398" lon="103.214285">
<time>2015-09-27T18:52:44Z</time></trkpt>
<trkpt lat="24.911688" lon="103.213935">
<time>2015-09-27T18:52:45Z</time></trkpt>
<trkpt lat="24.911827" lon="103.213775">
<time>2015-09-27T18:52:46Z</time></trkpt>
<trkpt lat="24.911827" lon="103.213775">
<time>2015-09-27T18:52:47Z</time></trkpt>
<trkpt lat="24.911847" lon="103.213735">
<time>2015-09-27T18:52:48Z</time></trkpt>
<trkpt lat="24.911997" lon="103.213565">
<time>2015-09-27T18:52:49Z</time></trkpt>
<trkpt lat="24.912207" lon="103.213285">
<time>2015-09-27T18:52:50Z</time></trkpt>
<trkpt lat="24.912377" lon="103.213055">
<time>2015-09-27T18:52:51Z</time></trkpt>
<trkpt lat="24.912676" lon="103.212744">
<time>2015-09-27T18:52:52Z</time></trkpt>
<trkpt lat="24.912906" lon="103.212554">
<time>2015-09-27T18:52:53Z</time></trkpt>
<trkpt lat="24.913335" lon="103.212324">
<time>2015-09-27T18:52:54Z</time></trkpt>
<trkpt lat="24.914385" lon="103.211734">
<time>2015-09-27T18:52:55Z</time></trkpt>
<trkpt lat="24.914674" lon="103.211533">
<time>2015-09-27T18:52:56Z</time></trkpt>
<trkpt lat="24.914724" lon="103.211493">
<time>2015-09-27T18:52:57Z</time></trkpt>
<trkpt lat="24.914974" lon="103.211253">
<time>2015-09-27T18:52:58Z</time></trkpt>
<trkpt lat="24.915154" lon="103.210993">
<time>2015-09-27T18:52:59Z</time></trkpt>
<trkpt lat="24.915313" lon="103.210713">
<time>2015-09-27T18:53:00Z</time></trkpt>
<trkpt lat="24.915453" lon="103.210403">
<time>2015-09-27T18:53:01Z</time></trkpt>
<trkpt lat="24.915532" lon="103.210122">
<time>2015-09-27T18:53:02Z</time></trkpt>
<trkpt lat="24.915562" lon="103.209922">
<time>2015-09-27T18:53:03Z</time></trkpt>
<trkpt lat="24.915572" lon="103.209852">
<time>2015-09-27T18:53:04Z</time></trkpt>
<trkpt lat="24.915572" lon="103.209812">
<time>2015-09-27T18:53:05Z</time></trkpt>
<trkpt lat="24.915602" lon="103.209562">
<time>2015-09-27T18:53:06Z</time></trkpt>
<trkpt lat="24.915641" lon="103.209132">
<time>2015-09-27T18:53:07Z</time></trkpt>
<trkpt lat="24.915661" lon="103.209092">
<time>2015-09-27T18:53:08Z</time></trkpt>
<trkpt lat="24.915779" lon="103.207861">
<time>2015-09-27T18:53:09Z</time></trkpt>
<trkpt lat="24.915779" lon="103.207831">
<time>2015-09-27T18:53:10Z</time></trkpt>
<trkpt lat="24.915849" lon="103.20728">
<time>2015-09-27T18:53:11Z</time></trkpt>
<trkpt lat="24.915908" lon="103.20698">
<time>2015-09-27T18:53:12Z</time></trkpt>
<trkpt lat="24.915968" lon="103.20678">
<time>2015-09-27T18:53:13Z</time></trkpt>
<trkpt lat="24.916048" lon="103.206589">
<time>2015-09-27T18:53:14Z</time></trkpt>
<trkpt lat="24.916147" lon="103.206429">
<time>2015-09-27T18:53:15Z</time></trkpt>
<trkpt lat="24.916307" lon="103.206229">
<time>2015-09-27T18:53:16Z</time></trkpt>
<trkpt lat="24.916686" lon="103.205779">
<time>2015-09-27T18:53:17Z</time></trkpt>
<trkpt lat="24.917086" lon="103.205308">
<time>2015-09-27T18:53:18Z</time></trkpt>
<trkpt lat="24.917285" lon="103.205088">
<time>2015-09-27T18:53:19Z</time></trkpt>
<trkpt lat="24.917405" lon="103.204968">
<time>2015-09-27T18:53:20Z</time></trkpt>
<trkpt lat="24.917515" lon="103.204878">
<time>2015-09-27T18:53:21Z</time></trkpt>
<trkpt lat="24.917665" lon="103.204778">
<time>2015-09-27T18:53:22Z</time></trkpt>
<trkpt lat="24.917835" lon="103.204698">
<time>2015-09-27T18:53:23Z</time></trkpt>
<trkpt lat="24.918025" lon="103.204628">
<time>2015-09-27T18:53:24Z</time></trkpt>
<trkpt lat="24.918134" lon="103.204598">
<time>2015-09-27T18:53:25Z</time></trkpt>
<trkpt lat="24.919184" lon="103.204257">
<time>2015-09-27T18:53:26Z</time></trkpt>
<trkpt lat="24.919544" lon="103.204127">
<time>2015-09-27T18:53:27Z</time></trkpt>
<trkpt lat="24.919724" lon="103.204057">
<time>2015-09-27T18:53:28Z</time></trkpt>
<trkpt lat="24.919853" lon="103.203997">
<time>2015-09-27T18:53:29Z</time></trkpt>
<trkpt lat="24.919973" lon="103.203917">
<time>2015-09-27T18:53:30Z</time></trkpt>
<trkpt lat="24.920103" lon="103.203827">
<time>2015-09-27T18:53:31Z</time></trkpt>
<trkpt lat="24.920223" lon="103.203717">
<time>2015-09-27T18:53:32Z</time></trkpt>
<trkpt lat="24.920303" lon="103.203637">
<time>2015-09-27T18:53:33Z</time></trkpt>
<trkpt lat="24.920403" lon="103.203517">
<time>2015-09-27T18:53:34Z</time></trkpt>
<trkpt lat="24.920452" lon="103.203426">
<time>2015-09-27T18:53:35Z</time></trkpt>
<trkpt lat="24.920462" lon="103.203396">
<time>2015-09-27T18:53:36Z</time></trkpt>
<trkpt lat="24.920542" lon="103.203266">
<time>2015-09-27T18:53:37Z</time></trkpt>
<trkpt lat="24.920602" lon="103.203096">
<time>2015-09-27T18:53:38Z</time></trkpt>
<trkpt lat="24.920642" lon="103.202946">
<time>2015-09-27T18:53:39Z</time></trkpt>
<trkpt lat="24.920661" lon="103.202766">
<time>2015-09-27T18:53:40Z</time></trkpt>
<trkpt lat="24.920671" lon="103.202586">
<time>2015-09-27T18:53:41Z</time></trkpt>
<trkpt lat="24.920661" lon="103.202456">
<time>2015-09-27T18:53:42Z</time></trkpt>
<trkpt lat="24.920641" lon="103.202315">
<time>2015-09-27T18:53:43Z</time></trkpt>
<trkpt lat="24.920601" lon="103.202175">
<time>2015-09-27T18:53:44Z</time></trkpt>
<trkpt lat="24.92054" lon="103.201955">
<time>2015-09-27T18:53:45Z</time></trkpt>
<trkpt lat="24.92036" lon="103.201465">
<time>2015-09-27T18:53:46Z</time></trkpt>
<trkpt lat="24.920119" lon="103.200844">
<time>2015-09-27T18:53:47Z</time></trkpt>
<trkpt lat="24.920028" lon="103.200584">
<time>2015-09-27T18:53:48Z</time></trkpt>
<trkpt lat="24.919978" lon="103.200343">
<time>2015-09-27T18:53:49Z</time></trkpt>
<trkpt lat="24.919978" lon="103.200163">
<time>2015-09-27T18:53:50Z</time></trkpt>
<trkpt lat="24.919977" lon="103.200053">
<time>2015-09-27T18:53:51Z</time></trkpt>
<trkpt lat="24.919997" lon="103.199923">
<time>2015-09-27T18:53:52Z</time></trkpt>
<trkpt lat="24.920017" lon="103.199783">
<time>2015-09-27T18:53:53Z</time></trkpt>
<trkpt lat="24.920126" lon="103.199332">
<time>2015-09-27T18:53:54Z</time></trkpt>
<trkpt lat="24.920206" lon="103.198952">
<time>2015-09-27T18:53:55Z</time></trkpt>
<trkpt lat="24.920444" lon="103.197951">
<time>2015-09-27T18:53:56Z</time></trkpt>
<trkpt lat="24.920603" lon="103.19724">
<time>2015-09-27T18:53:57Z</time></trkpt>
<trkpt lat="24.920643" lon="103.19707">
<time>2015-09-27T18:53:58Z</time></trkpt>
<trkpt lat="24.920672" lon="103.1968">
<time>2015-09-27T18:53:59Z</time></trkpt>
<trkpt lat="24.920662" lon="103.196579">
<time>2015-09-27T18:54:00Z</time></trkpt>
<trkpt lat="24.920632" lon="103.196379">
<time>2015-09-27T18:54:01Z</time></trkpt>
<trkpt lat="24.920561" lon="103.196219">
<time>2015-09-27T18:54:02Z</time></trkpt>
<trkpt lat="24.920411" lon="103.195979">
<time>2015-09-27T18:54:03Z</time></trkpt>
<trkpt lat="24.91996" lon="103.195448">
<time>2015-09-27T18:54:04Z</time></trkpt>
<trkpt lat="24.919549" lon="103.194968">
<time>2015-09-27T18:54:05Z</time></trkpt>
<trkpt lat="24.919449" lon="103.194837">
<time>2015-09-27T18:54:06Z</time></trkpt>
<trkpt lat="24.919359" lon="103.194667">
<time>2015-09-27T18:54:07Z</time></trkpt>
<trkpt lat="24.919279" lon="103.194487">
<time>2015-09-27T18:54:08Z</time></trkpt>
<trkpt lat="24.919228" lon="103.194317">
<time>2015-09-27T18:54:09Z</time></trkpt>
<trkpt lat="24.919198" lon="103.194057">
<time>2015-09-27T18:54:10Z</time></trkpt>
<trkpt lat="24.919166" lon="103.193226">
<time>2015-09-27T18:54:11Z</time></trkpt>
<trkpt lat="24.919125" lon="103.192294">
<time>2015-09-27T18:54:12Z</time></trkpt>
<trkpt lat="24.919093" lon="103.191273">
<time>2015-09-27T18:54:13Z</time></trkpt>
<trkpt lat="24.919052" lon="103.190622">
<time>2015-09-27T18:54:14Z</time></trkpt>
<trkpt lat="24.919012" lon="103.190342">
<time>2015-09-27T18:54:15Z</time></trkpt>
<trkpt lat="24.918971" lon="103.190132">
<time>2015-09-27T18:54:16Z</time></trkpt>
<trkpt lat="24.918831" lon="103.189741">
<time>2015-09-27T18:54:17Z</time></trkpt>
<trkpt lat="24.91867" lon="103.189401">
<time>2015-09-27T18:54:18Z</time></trkpt>
<trkpt lat="24.918469" lon="103.189061">
<time>2015-09-27T18:54:19Z</time></trkpt>
<trkpt lat="24.918319" lon="103.18885">
<time>2015-09-27T18:54:20Z</time></trkpt>
<trkpt lat="24.918038" lon="103.18847">
<time>2015-09-27T18:54:21Z</time></trkpt>
<trkpt lat="24.917888" lon="103.18822">
<time>2015-09-27T18:54:22Z</time></trkpt>
<trkpt lat="24.917798" lon="103.187999">
<time>2015-09-27T18:54:23Z</time></trkpt>
<trkpt lat="24.917717" lon="103.187779">
<time>2015-09-27T18:54:24Z</time></trkpt>
<trkpt lat="24.917647" lon="103.187529">
<time>2015-09-27T18:54:25Z</time></trkpt>
<trkpt lat="24.917616" lon="103.187278">
<time>2015-09-27T18:54:26Z</time></trkpt>
<trkpt lat="24.917576" lon="103.187028">
<time>2015-09-27T18:54:27Z</time></trkpt>
<trkpt lat="24.917545" lon="103.186507">
<time>2015-09-27T18:54:28Z</time></trkpt>
<trkpt lat="24.917534" lon="103.186097">
<time>2015-09-27T18:54:29Z</time></trkpt>
<trkpt lat="24.917493" lon="103.185156">
<time>2015-09-27T18:54:30Z</time></trkpt>
<trkpt lat="24.917482" lon="103.184685">
<time>2015-09-27T18:54:31Z</time></trkpt>
<trkpt lat="24.917501" lon="103.184274">
<time>2015-09-27T18:54:32Z</time></trkpt>
<trkpt lat="24.91753" lon="103.183944">
<time>2015-09-27T18:54:33Z</time></trkpt>
<trkpt lat="24.91757" lon="103.183564">
<time>2015-09-27T18:54:34Z</time></trkpt>
<trkpt lat="24.917678" lon="103.182642">
<time>2015-09-27T18:54:35Z</time></trkpt>
<trkpt lat="24.917747" lon="103.182182">
<time>2015-09-27T18:54:36Z</time></trkpt>
<trkpt lat="24.917826" lon="103.181721">
<time>2015-09-27T18:54:37Z</time></trkpt>
<trkpt lat="24.917826" lon="103.181721">
<time>2015-09-27T18:54:38Z</time></trkpt>
<trkpt lat="24.917816" lon="103.181681">
<time>2015-09-27T18:54:39Z</time></trkpt>
<trkpt lat="24.917816" lon="103.181661">
<time>2015-09-27T18:54:40Z</time></trkpt>
<trkpt lat="24.917826" lon="103.181581">
<time>2015-09-27T18:54:41Z</time></trkpt>
<trkpt lat="24.917846" lon="103.181481">
<time>2015-09-27T18:54:42Z</time></trkpt>
<trkpt lat="24.917866" lon="103.181431">
<time>2015-09-27T18:54:43Z</time></trkpt>
<trkpt lat="24.917925" lon="103.18087">
<time>2015-09-27T18:54:44Z</time></trkpt>
<trkpt lat="24.918043" lon="103.179949">
<time>2015-09-27T18:54:45Z</time></trkpt>
<trkpt lat="24.918053" lon="103.179829">
<time>2015-09-27T18:54:46Z</time></trkpt>
<trkpt lat="24.918132" lon="103.179248">
<time>2015-09-27T18:54:47Z</time></trkpt>
<trkpt lat="24.918181" lon="103.178827">
<time>2015-09-27T18:54:48Z</time></trkpt>
<trkpt lat="24.918191" lon="103.178747">
<time>2015-09-27T18:54:49Z</time></trkpt>
<trkpt lat="24.91822" lon="103.178427">
<time>2015-09-27T18:54:50Z</time></trkpt>
<trkpt lat="24.91825" lon="103.178106">
<time>2015-09-27T18:54:51Z</time></trkpt>
<trkpt lat="24.918259" lon="103.178076">
<time>2015-09-27T18:54:52Z</time></trkpt>
<trkpt lat="24.918268" lon="103.177335">
<time>2015-09-27T18:54:53Z</time></trkpt>
<trkpt lat="24.918334" lon="103.174982">
<time>2015-09-27T18:54:54Z</time></trkpt>
<trkpt lat="24.918352" lon="103.17387">
<time>2015-09-27T18:54:55Z</time></trkpt>
<trkpt lat="24.91837" lon="103.172959">
<time>2015-09-27T18:54:56Z</time></trkpt>
<trkpt lat="24.918419" lon="103.172408">
<time>2015-09-27T18:54:57Z</time></trkpt>
<trkpt lat="24.918438" lon="103.172218">
<time>2015-09-27T18:54:58Z</time></trkpt>
<trkpt lat="24.918468" lon="103.172008">
<time>2015-09-27T18:54:59Z</time></trkpt>
<trkpt lat="24.918478" lon="103.171908">
<time>2015-09-27T18:55:00Z</time></trkpt>
<trkpt lat="24.918607" lon="103.171217">
<time>2015-09-27T18:55:01Z</time></trkpt>
<trkpt lat="24.918745" lon="103.170426">
<time>2015-09-27T18:55:02Z</time></trkpt>
<trkpt lat="24.919022" lon="103.169014">
<time>2015-09-27T18:55:03Z</time></trkpt>
<trkpt lat="24.919438" lon="103.16651">
<time>2015-09-27T18:55:04Z</time></trkpt>
<trkpt lat="24.919487" lon="103.16627">
<time>2015-09-27T18:55:05Z</time></trkpt>
<trkpt lat="24.919576" lon="103.165729">
<time>2015-09-27T18:55:06Z</time></trkpt>
<trkpt lat="24.919724" lon="103.164868">
<time>2015-09-27T18:55:07Z</time></trkpt>
<trkpt lat="24.919833" lon="103.164267">
<time>2015-09-27T18:55:08Z</time></trkpt>
<trkpt lat="24.919922" lon="103.163776">
<time>2015-09-27T18:55:09Z</time></trkpt>
<trkpt lat="24.920031" lon="103.163296">
<time>2015-09-27T18:55:10Z</time></trkpt>
<trkpt lat="24.920111" lon="103.162985">
<time>2015-09-27T18:55:11Z</time></trkpt>
<trkpt lat="24.920389" lon="103.162064">
<time>2015-09-27T18:55:12Z</time></trkpt>
<trkpt lat="24.920628" lon="103.161243">
<time>2015-09-27T18:55:13Z</time></trkpt>
<trkpt lat="24.920747" lon="103.160842">
<time>2015-09-27T18:55:14Z</time></trkpt>
<trkpt lat="24.920816" lon="103.160562">
<time>2015-09-27T18:55:15Z</time></trkpt>
<trkpt lat="24.921184" lon="103.15939">
<time>2015-09-27T18:55:16Z</time></trkpt>
<trkpt lat="24.921462" lon="103.158429">
<time>2015-09-27T18:55:17Z</time></trkpt>
<trkpt lat="24.921671" lon="103.157738">
<time>2015-09-27T18:55:18Z</time></trkpt>
<trkpt lat="24.922098" lon="103.156316">
<time>2015-09-27T18:55:19Z</time></trkpt>
<trkpt lat="24.922247" lon="103.155775">
<time>2015-09-27T18:55:20Z</time></trkpt>
<trkpt lat="24.922277" lon="103.155695">
<time>2015-09-27T18:55:21Z</time></trkpt>
<trkpt lat="24.922535" lon="103.154814">
<time>2015-09-27T18:55:22Z</time></trkpt>
<trkpt lat="24.922744" lon="103.154113">
<time>2015-09-27T18:55:23Z</time></trkpt>
<trkpt lat="24.922834" lon="103.153823">
<time>2015-09-27T18:55:24Z</time></trkpt>
<trkpt lat="24.922913" lon="103.153553">
<time>2015-09-27T18:55:25Z</time></trkpt>
<trkpt lat="24.923112" lon="103.152862">
<time>2015-09-27T18:55:26Z</time></trkpt>
<trkpt lat="24.923132" lon="103.152802">
<time>2015-09-27T18:55:27Z</time></trkpt>
<trkpt lat="24.923172" lon="103.152682">
<time>2015-09-27T18:55:28Z</time></trkpt>
<trkpt lat="24.923281" lon="103.152421">
<time>2015-09-27T18:55:29Z</time></trkpt>
<trkpt lat="24.923311" lon="103.152371">
<time>2015-09-27T18:55:30Z</time></trkpt>
<trkpt lat="24.923331" lon="103.152321">
<time>2015-09-27T18:55:31Z</time></trkpt>
<trkpt lat="24.923431" lon="103.152151">
<time>2015-09-27T18:55:32Z</time></trkpt>
<trkpt lat="24.9235" lon="103.152041">
<time>2015-09-27T18:55:33Z</time></trkpt>
<trkpt lat="24.92364" lon="103.15186">
<time>2015-09-27T18:55:34Z</time></trkpt>
<trkpt lat="24.92382" lon="103.15167">
<time>2015-09-27T18:55:35Z</time></trkpt>
<trkpt lat="24.923979" lon="103.15153">
<time>2015-09-27T18:55:36Z</time></trkpt>
<trkpt lat="24.924119" lon="103.15142">
<time>2015-09-27T18:55:37Z</time></trkpt>
<trkpt lat="24.924399" lon="103.15125">
<time>2015-09-27T18:55:38Z</time></trkpt>
<trkpt lat="24.924459" lon="103.15123">
<time>2015-09-27T18:55:39Z</time></trkpt>
<trkpt lat="24.924579" lon="103.15118">
<time>2015-09-27T18:55:40Z</time></trkpt>
<trkpt lat="24.924719" lon="103.15113">
<time>2015-09-27T18:55:41Z</time></trkpt>
<trkpt lat="24.925038" lon="103.151019">
<time>2015-09-27T18:55:42Z</time></trkpt>
<trkpt lat="24.925398" lon="103.150929">
<time>2015-09-27T18:55:43Z</time></trkpt>
<trkpt lat="24.925828" lon="103.150819">
<time>2015-09-27T18:55:44Z</time></trkpt>
<trkpt lat="24.925918" lon="103.150799">
<time>2015-09-27T18:55:45Z</time></trkpt>
<trkpt lat="24.926707" lon="103.150609">
<time>2015-09-27T18:55:46Z</time></trkpt>
<trkpt lat="24.928137" lon="103.150268">
<time>2015-09-27T18:55:47Z</time></trkpt>
<trkpt lat="24.928836" lon="103.150098">
<time>2015-09-27T18:55:48Z</time></trkpt>
<trkpt lat="24.929306" lon="103.149978">
<time>2015-09-27T18:55:49Z</time></trkpt>
<trkpt lat="24.930745" lon="103.149627">
<time>2015-09-27T18:55:50Z</time></trkpt>
<trkpt lat="24.930895" lon="103.149587">
<time>2015-09-27T18:55:51Z</time></trkpt>
<trkpt lat="24.931375" lon="103.149467">
<time>2015-09-27T18:55:52Z</time></trkpt>
<trkpt lat="24.931605" lon="103.149417">
<time>2015-09-27T18:55:53Z</time></trkpt>
<trkpt lat="24.931695" lon="103.149397">
<time>2015-09-27T18:55:54Z</time></trkpt>
<trkpt lat="24.932105" lon="103.149297">
<time>2015-09-27T18:55:55Z</time></trkpt>
<trkpt lat="24.932164" lon="103.149277">
<time>2015-09-27T18:55:56Z</time></trkpt>
<trkpt lat="24.932224" lon="103.149267">
<time>2015-09-27T18:55:57Z</time></trkpt>
<trkpt lat="24.932364" lon="103.149227">
<time>2015-09-27T18:55:58Z</time></trkpt>
<trkpt lat="24.932984" lon="103.149077">
<time>2015-09-27T18:55:59Z</time></trkpt>
<trkpt lat="24.933134" lon="103.149047">
<time>2015-09-27T18:56:00Z</time></trkpt>
<trkpt lat="24.933224" lon="103.149017">
<time>2015-09-27T18:56:01Z</time></trkpt>
<trkpt lat="24.933634" lon="103.148917">
<time>2015-09-27T18:56:02Z</time></trkpt>
<trkpt lat="24.933724" lon="103.148897">
<time>2015-09-27T18:56:03Z</time></trkpt>
<trkpt lat="24.934123" lon="103.148796">
<time>2015-09-27T18:56:04Z</time></trkpt>
<trkpt lat="24.934333" lon="103.148746">
<time>2015-09-27T18:56:05Z</time></trkpt>
<trkpt lat="24.934453" lon="103.148716">
<time>2015-09-27T18:56:06Z</time></trkpt>
<trkpt lat="24.934803" lon="103.148626">
<time>2015-09-27T18:56:07Z</time></trkpt>
<trkpt lat="24.935103" lon="103.148546">
<time>2015-09-27T18:56:08Z</time></trkpt>
<trkpt lat="24.935852" lon="103.148376">
<time>2015-09-27T18:56:09Z</time></trkpt>
<trkpt lat="24.936952" lon="103.148115">
<time>2015-09-27T18:56:10Z</time></trkpt>
<trkpt lat="24.937202" lon="103.148045">
<time>2015-09-27T18:56:11Z</time></trkpt>
<trkpt lat="24.937572" lon="103.147955">
<time>2015-09-27T18:56:12Z</time></trkpt>
<trkpt lat="24.937861" lon="103.147875">
<time>2015-09-27T18:56:13Z</time></trkpt>
<trkpt lat="24.938041" lon="103.147825">
<time>2015-09-27T18:56:14Z</time></trkpt>
<trkpt lat="24.938421" lon="103.147735">
<time>2015-09-27T18:56:15Z</time></trkpt>
<trkpt lat="24.938881" lon="103.147635">
<time>2015-09-27T18:56:16Z</time></trkpt>
<trkpt lat="24.939261" lon="103.147535">
<time>2015-09-27T18:56:17Z</time></trkpt>
<trkpt lat="24.93993" lon="103.147365">
<time>2015-09-27T18:56:18Z</time></trkpt>
<trkpt lat="24.94001" lon="103.147354">
<time>2015-09-27T18:56:19Z</time></trkpt>
<trkpt lat="24.94073" lon="103.147174">
<time>2015-09-27T18:56:20Z</time></trkpt>
<trkpt lat="24.941319" lon="103.147024">
<time>2015-09-27T18:56:21Z</time></trkpt>
<trkpt lat="24.941739" lon="103.146904">
<time>2015-09-27T18:56:22Z</time></trkpt>
<trkpt lat="24.941909" lon="103.146864">
<time>2015-09-27T18:56:23Z</time></trkpt>
<trkpt lat="24.942089" lon="103.146804">
<time>2015-09-27T18:56:24Z</time></trkpt>
<trkpt lat="24.942189" lon="103.146774">
<time>2015-09-27T18:56:25Z</time></trkpt>
<trkpt lat="24.942279" lon="103.146754">
<time>2015-09-27T18:56:26Z</time></trkpt>
<trkpt lat="24.942479" lon="103.146684">
<time>2015-09-27T18:56:27Z</time></trkpt>
<trkpt lat="24.942789" lon="103.146573">
<time>2015-09-27T18:56:28Z</time></trkpt>
<trkpt lat="24.943178" lon="103.146443">
<time>2015-09-27T18:56:29Z</time></trkpt>
<trkpt lat="24.943628" lon="103.146273">
<time>2015-09-27T18:56:30Z</time></trkpt>
<trkpt lat="24.944098" lon="103.146093">
<time>2015-09-27T18:56:31Z</time></trkpt>
<trkpt lat="24.944587" lon="103.145923">
<time>2015-09-27T18:56:32Z</time></trkpt>
<trkpt lat="24.945357" lon="103.145652">
<time>2015-09-27T18:56:33Z</time></trkpt>
<trkpt lat="24.945856" lon="103.145472">
<time>2015-09-27T18:56:34Z</time></trkpt>
<trkpt lat="24.946606" lon="103.145212">
<time>2015-09-27T18:56:35Z</time></trkpt>
<trkpt lat="24.946746" lon="103.145162">
<time>2015-09-27T18:56:36Z</time></trkpt>
<trkpt lat="24.946856" lon="103.145122">
<time>2015-09-27T18:56:37Z</time></trkpt>
<trkpt lat="24.947975" lon="103.144711">
<time>2015-09-27T18:56:38Z</time></trkpt>
<trkpt lat="24.948394" lon="103.144561">
<time>2015-09-27T18:56:39Z</time></trkpt>
<trkpt lat="24.949064" lon="103.144321">
<time>2015-09-27T18:56:40Z</time></trkpt>
<trkpt lat="24.949314" lon="103.144231">
<time>2015-09-27T18:56:41Z</time></trkpt>
<trkpt lat="24.950133" lon="103.14394">
<time>2015-09-27T18:56:42Z</time></trkpt>
<trkpt lat="24.950773" lon="103.14372">
<time>2015-09-27T18:56:43Z</time></trkpt>
<trkpt lat="24.951202" lon="103.14356">
<time>2015-09-27T18:56:44Z</time></trkpt>
<trkpt lat="24.951562" lon="103.14343">
<time>2015-09-27T18:56:45Z</time></trkpt>
<trkpt lat="24.951892" lon="103.14332">
<time>2015-09-27T18:56:46Z</time></trkpt>
<trkpt lat="24.952342" lon="103.143139">
<time>2015-09-27T18:56:47Z</time></trkpt>
<trkpt lat="24.953001" lon="103.142919">
<time>2015-09-27T18:56:48Z</time></trkpt>
<trkpt lat="24.953021" lon="103.142909">
<time>2015-09-27T18:56:49Z</time></trkpt>
<trkpt lat="24.953931" lon="103.142589">
<time>2015-09-27T18:56:50Z</time></trkpt>
<trkpt lat="24.95531" lon="103.142098">
<time>2015-09-27T18:56:51Z</time></trkpt>
<trkpt lat="24.957288" lon="103.141387">
<time>2015-09-27T18:56:52Z</time></trkpt>
<trkpt lat="24.958008" lon="103.141097">
<time>2015-09-27T18:56:53Z</time></trkpt>
<trkpt lat="24.958517" lon="103.140857">
<time>2015-09-27T18:56:54Z</time></trkpt>
<trkpt lat="24.959067" lon="103.140576">
<time>2015-09-27T18:56:55Z</time></trkpt>
<trkpt lat="24.959396" lon="103.140366">
<time>2015-09-27T18:56:56Z</time></trkpt>
<trkpt lat="24.959566" lon="103.140256">
<time>2015-09-27T18:56:57Z</time></trkpt>
<trkpt lat="24.960026" lon="103.139946">
<time>2015-09-27T18:56:58Z</time></trkpt>
<trkpt lat="24.960046" lon="103.139926">
<time>2015-09-27T18:56:59Z</time></trkpt>
<trkpt lat="24.961474" lon="103.138845">
<time>2015-09-27T18:57:00Z</time></trkpt>
<trkpt lat="24.961903" lon="103.138534">
<time>2015-09-27T18:57:01Z</time></trkpt>
<trkpt lat="24.962413" lon="103.138154">
<time>2015-09-27T18:57:02Z</time></trkpt>
<trkpt lat="24.963371" lon="103.137443">
<time>2015-09-27T18:57:03Z</time></trkpt>
<trkpt lat="24.964021" lon="103.136943">
<time>2015-09-27T18:57:04Z</time></trkpt>
<trkpt lat="24.96458" lon="103.136512">
<time>2015-09-27T18:57:05Z</time></trkpt>
<trkpt lat="24.965059" lon="103.136162">
<time>2015-09-27T18:57:06Z</time></trkpt>
<trkpt lat="24.965099" lon="103.136142">
<time>2015-09-27T18:57:07Z</time></trkpt>
<trkpt lat="24.965389" lon="103.135972">
<time>2015-09-27T18:57:08Z</time></trkpt>
<trkpt lat="24.965619" lon="103.135862">
<time>2015-09-27T18:57:09Z</time></trkpt>
<trkpt lat="24.965819" lon="103.135812">
<time>2015-09-27T18:57:10Z</time></trkpt>
<trkpt lat="24.965969" lon="103.135782">
<time>2015-09-27T18:57:11Z</time></trkpt>
<trkpt lat="24.966099" lon="103.135772">
<time>2015-09-27T18:57:12Z</time></trkpt>
<trkpt lat="24.966299" lon="103.135782">
<time>2015-09-27T18:57:13Z</time></trkpt>
<trkpt lat="24.966489" lon="103.135812">
<time>2015-09-27T18:57:14Z</time></trkpt>
<trkpt lat="24.966709" lon="103.135842">
<time>2015-09-27T18:57:15Z</time></trkpt>
<trkpt lat="24.967309" lon="103.135942">
<time>2015-09-27T18:57:16Z</time></trkpt>
<trkpt lat="24.967909" lon="103.136042">
<time>2015-09-27T18:57:17Z</time></trkpt>
<trkpt lat="24.968289" lon="103.136112">
<time>2015-09-27T18:57:18Z</time></trkpt>
<trkpt lat="24.968499" lon="103.136112">
<time>2015-09-27T18:57:19Z</time></trkpt>
<trkpt lat="24.968749" lon="103.136092">
<time>2015-09-27T18:57:20Z</time></trkpt>
<trkpt lat="24.969069" lon="103.136062">
<time>2015-09-27T18:57:21Z</time></trkpt>
<trkpt lat="24.969319" lon="103.136022">
<time>2015-09-27T18:57:22Z</time></trkpt>
<trkpt lat="24.969968" lon="103.135932">
<time>2015-09-27T18:57:23Z</time></trkpt>
<trkpt lat="24.970898" lon="103.135812">
<time>2015-09-27T18:57:24Z</time></trkpt>
<trkpt lat="24.971348" lon="103.135751">
<time>2015-09-27T18:57:25Z</time></trkpt>
<trkpt lat="24.971648" lon="103.135721">
<time>2015-09-27T18:57:26Z</time></trkpt>
<trkpt lat="24.971828" lon="103.135701">
<time>2015-09-27T18:57:27Z</time></trkpt>
<trkpt lat="24.971988" lon="103.135701">
<time>2015-09-27T18:57:28Z</time></trkpt>
<trkpt lat="24.972248" lon="103.135701">
<time>2015-09-27T18:57:29Z</time></trkpt>
<trkpt lat="24.972578" lon="103.135711">
<time>2015-09-27T18:57:30Z</time></trkpt>
<trkpt lat="24.973078" lon="103.135731">
<time>2015-09-27T18:57:31Z</time></trkpt>
<trkpt lat="24.973428" lon="103.135741">
<time>2015-09-27T18:57:32Z</time></trkpt>
<trkpt lat="24.973698" lon="103.135741">
<time>2015-09-27T18:57:33Z</time></trkpt>
<trkpt lat="24.973878" lon="103.135721">
<time>2015-09-27T18:57:34Z</time></trkpt>
<trkpt lat="24.974037" lon="103.135681">
<time>2015-09-27T18:57:35Z</time></trkpt>
<trkpt lat="24.974227" lon="103.135631">
<time>2015-09-27T18:57:36Z</time></trkpt>
<trkpt lat="24.974367" lon="103.135591">
<time>2015-09-27T18:57:37Z</time></trkpt>
<trkpt lat="24.974537" lon="103.135521">
<time>2015-09-27T18:57:38Z</time></trkpt>
<trkpt lat="24.974697" lon="103.135441">
<time>2015-09-27T18:57:39Z</time></trkpt>
<trkpt lat="24.974877" lon="103.135331">
<time>2015-09-27T18:57:40Z</time></trkpt>
<trkpt lat="24.975027" lon="103.135211">
<time>2015-09-27T18:57:41Z</time></trkpt>
<trkpt lat="24.975167" lon="103.135111">
<time>2015-09-27T18:57:42Z</time></trkpt>
<trkpt lat="24.975296" lon="103.134991">
<time>2015-09-27T18:57:43Z</time></trkpt>
<trkpt lat="24.975416" lon="103.134871">
<time>2015-09-27T18:57:44Z</time></trkpt>
<trkpt lat="24.975506" lon="103.13476">
<time>2015-09-27T18:57:45Z</time></trkpt>
<trkpt lat="24.975606" lon="103.13463">
<time>2015-09-27T18:57:46Z</time></trkpt>
<trkpt lat="24.975706" lon="103.13449">
<time>2015-09-27T18:57:47Z</time></trkpt>
<trkpt lat="24.975845" lon="103.13427">
<time>2015-09-27T18:57:48Z</time></trkpt>
<trkpt lat="24.976025" lon="103.13401">
<time>2015-09-27T18:57:49Z</time></trkpt>
<trkpt lat="24.976194" lon="103.13375">
<time>2015-09-27T18:57:50Z</time></trkpt>
<trkpt lat="24.976384" lon="103.133439">
<time>2015-09-27T18:57:51Z</time></trkpt>
<trkpt lat="24.976594" lon="103.133089">
<time>2015-09-27T18:57:52Z</time></trkpt>
<trkpt lat="24.976673" lon="103.132939">
<time>2015-09-27T18:57:53Z</time></trkpt>
<trkpt lat="24.976713" lon="103.132809">
<time>2015-09-27T18:57:54Z</time></trkpt>
<trkpt lat="24.976763" lon="103.132709">
<time>2015-09-27T18:57:55Z</time></trkpt>
<trkpt lat="24.976803" lon="103.132559">
<time>2015-09-27T18:57:56Z</time></trkpt>
<trkpt lat="24.976832" lon="103.132328">
<time>2015-09-27T18:57:57Z</time></trkpt>
<trkpt lat="24.976872" lon="103.132038">
<time>2015-09-27T18:57:58Z</time></trkpt>
<trkpt lat="24.976922" lon="103.131688">
<time>2015-09-27T18:57:59Z</time></trkpt>
<trkpt lat="24.976961" lon="103.131468">
<time>2015-09-27T18:58:00Z</time></trkpt>
<trkpt lat="24.97704" lon="103.130797">
<time>2015-09-27T18:58:01Z</time></trkpt>
<trkpt lat="24.97713" lon="103.130157">
<time>2015-09-27T18:58:02Z</time></trkpt>
<trkpt lat="24.977169" lon="103.129927">
<time>2015-09-27T18:58:03Z</time></trkpt>
<trkpt lat="24.977209" lon="103.129736">
<time>2015-09-27T18:58:04Z</time></trkpt>
<trkpt lat="24.977259" lon="103.129596">
<time>2015-09-27T18:58:05Z</time></trkpt>
<trkpt lat="24.977299" lon="103.129486">
<time>2015-09-27T18:58:06Z</time></trkpt>
<trkpt lat="24.977368" lon="103.129326">
<time>2015-09-27T18:58:07Z</time></trkpt>
<trkpt lat="24.977498" lon="103.129076">
<time>2015-09-27T18:58:08Z</time></trkpt>
<trkpt lat="24.977678" lon="103.128696">
<time>2015-09-27T18:58:09Z</time></trkpt>
<trkpt lat="24.977887" lon="103.128275">
<time>2015-09-27T18:58:10Z</time></trkpt>
<trkpt lat="24.978007" lon="103.128035">
<time>2015-09-27T18:58:11Z</time></trkpt>
<trkpt lat="24.978376" lon="103.127235">
<time>2015-09-27T18:58:12Z</time></trkpt>
<trkpt lat="24.978446" lon="103.127065">
<time>2015-09-27T18:58:13Z</time></trkpt>
<trkpt lat="24.978505" lon="103.126875">
<time>2015-09-27T18:58:14Z</time></trkpt>
<trkpt lat="24.978545" lon="103.126714">
<time>2015-09-27T18:58:15Z</time></trkpt>
<trkpt lat="24.978575" lon="103.126514">
<time>2015-09-27T18:58:16Z</time></trkpt>
<trkpt lat="24.978635" lon="103.126264">
<time>2015-09-27T18:58:17Z</time></trkpt>
<trkpt lat="24.978714" lon="103.125764">
<time>2015-09-27T18:58:18Z</time></trkpt>
<trkpt lat="24.978793" lon="103.125254">
<time>2015-09-27T18:58:19Z</time></trkpt>
<trkpt lat="24.978853" lon="103.125024">
<time>2015-09-27T18:58:20Z</time></trkpt>
<trkpt lat="24.978982" lon="103.124323">
<time>2015-09-27T18:58:21Z</time></trkpt>
<trkpt lat="24.979012" lon="103.123853">
<time>2015-09-27T18:58:22Z</time></trkpt>
<trkpt lat="24.979012" lon="103.123653">
<time>2015-09-27T18:58:23Z</time></trkpt>
<trkpt lat="24.978931" lon="103.123373">
<time>2015-09-27T18:58:24Z</time></trkpt>
<trkpt lat="24.978871" lon="103.123233">
<time>2015-09-27T18:58:25Z</time></trkpt>
<trkpt lat="24.978701" lon="103.123013">
<time>2015-09-27T18:58:26Z</time></trkpt>
<trkpt lat="24.978511" lon="103.122832">
<time>2015-09-27T18:58:27Z</time></trkpt>
<trkpt lat="24.978071" lon="103.122492">
<time>2015-09-27T18:58:28Z</time></trkpt>
<trkpt lat="24.97768" lon="103.122182">
<time>2015-09-27T18:58:29Z</time></trkpt>
<trkpt lat="24.97724" lon="103.121842">
<time>2015-09-27T18:58:30Z</time></trkpt>
<trkpt lat="24.97691" lon="103.121542">
<time>2015-09-27T18:58:31Z</time></trkpt>
<trkpt lat="24.97673" lon="103.121322">
<time>2015-09-27T18:58:32Z</time></trkpt>
<trkpt lat="24.976559" lon="103.121062">
<time>2015-09-27T18:58:33Z</time></trkpt>
<trkpt lat="24.976489" lon="103.120882">
<time>2015-09-27T18:58:34Z</time></trkpt>
<trkpt lat="24.976439" lon="103.120642">
<time>2015-09-27T18:58:35Z</time></trkpt>
<trkpt lat="24.976439" lon="103.120311">
<time>2015-09-27T18:58:36Z</time></trkpt>
<trkpt lat="24.976468" lon="103.119931">
<time>2015-09-27T18:58:37Z</time></trkpt>
<trkpt lat="24.976548" lon="103.119471">
<time>2015-09-27T18:58:38Z</time></trkpt>
<trkpt lat="24.976577" lon="103.119041">
<time>2015-09-27T18:58:39Z</time></trkpt>
<trkpt lat="24.976547" lon="103.118331">
<time>2015-09-27T18:58:40Z</time></trkpt>
<trkpt lat="24.976496" lon="103.117571">
<time>2015-09-27T18:58:41Z</time></trkpt>
<trkpt lat="24.976496" lon="103.117281">
<time>2015-09-27T18:58:42Z</time></trkpt>
<trkpt lat="24.976536" lon="103.11705">
<time>2015-09-27T18:58:43Z</time></trkpt>
<trkpt lat="24.976585" lon="103.11677">
<time>2015-09-27T18:58:44Z</time></trkpt>
<trkpt lat="24.976715" lon="103.11634">
<time>2015-09-27T18:58:45Z</time></trkpt>
<trkpt lat="24.976974" lon="103.11552">
<time>2015-09-27T18:58:46Z</time></trkpt>
<trkpt lat="24.977144" lon="103.11509">
<time>2015-09-27T18:58:47Z</time></trkpt>
<trkpt lat="24.977244" lon="103.11474">
<time>2015-09-27T18:58:48Z</time></trkpt>
<trkpt lat="24.977283" lon="103.11455">
<time>2015-09-27T18:58:49Z</time></trkpt>
<trkpt lat="24.977303" lon="103.11435">
<time>2015-09-27T18:58:50Z</time></trkpt>
<trkpt lat="24.977303" lon="103.11417">
<time>2015-09-27T18:58:51Z</time></trkpt>
<trkpt lat="24.977283" lon="103.11403">
<time>2015-09-27T18:58:52Z</time></trkpt>
<trkpt lat="24.977233" lon="103.11385">
<time>2015-09-27T18:58:53Z</time></trkpt>
<trkpt lat="24.977233" lon="103.11384">
<time>2015-09-27T18:58:54Z</time></trkpt>
<trkpt lat="24.977173" lon="103.11368">
<time>2015-09-27T18:58:55Z</time></trkpt>
<trkpt lat="24.977103" lon="103.11354">
<time>2015-09-27T18:58:56Z</time></trkpt>
<trkpt lat="24.976812" lon="103.11313">
<time>2015-09-27T18:58:57Z</time></trkpt>
<trkpt lat="24.976492" lon="103.11275">
<time>2015-09-27T18:58:58Z</time></trkpt>
<trkpt lat="24.976352" lon="103.11256">
<time>2015-09-27T18:58:59Z</time></trkpt>
<trkpt lat="24.976282" lon="103.11243">
<time>2015-09-27T18:59:00Z</time></trkpt>
<trkpt lat="24.976222" lon="103.11226">
<time>2015-09-27T18:59:01Z</time></trkpt>
<trkpt lat="24.976162" lon="103.11194">
<time>2015-09-27T18:59:02Z</time></trkpt>
<trkpt lat="24.976111" lon="103.11148">
<time>2015-09-27T18:59:03Z</time></trkpt>
<trkpt lat="24.976081" lon="103.1112">
<time>2015-09-27T18:59:04Z</time></trkpt>
<trkpt lat="24.976051" lon="103.11052">
<time>2015-09-27T18:59:05Z</time></trkpt>
<trkpt lat="24.976061" lon="103.11022">
<time>2015-09-27T18:59:06Z</time></trkpt>
<trkpt lat="24.976081" lon="103.11004">
<time>2015-09-27T18:59:07Z</time></trkpt>
<trkpt lat="24.97614" lon="103.10976">
<time>2015-09-27T18:59:08Z</time></trkpt>
<trkpt lat="24.97626" lon="103.10936">
<time>2015-09-27T18:59:09Z</time></trkpt>
<trkpt lat="24.97649" lon="103.10872">
<time>2015-09-27T18:59:10Z</time></trkpt>
<trkpt lat="24.97665" lon="103.10827">
<time>2015-09-27T18:59:11Z</time></trkpt>
<trkpt lat="24.976739" lon="103.10807">
<time>2015-09-27T18:59:12Z</time></trkpt>
<trkpt lat="24.976809" lon="103.10795">
<time>2015-09-27T18:59:13Z</time></trkpt>
<trkpt lat="24.976889" lon="103.10782">
<time>2015-09-27T18:59:14Z</time></trkpt>
<trkpt lat="24.977009" lon="103.10772">
<time>2015-09-27T18:59:15Z</time></trkpt>
<trkpt lat="24.977349" lon="103.10754">
<time>2015-09-27T18:59:16Z</time></trkpt>
<trkpt lat="24.977629" lon="103.10742">
<time>2015-09-27T18:59:17Z</time></trkpt>
<trkpt lat="24.978089" lon="103.1073">
<time>2015-09-27T18:59:18Z</time></trkpt>
<trkpt lat="24.978299" lon="103.10721">
<time>2015-09-27T18:59:19Z</time></trkpt>
<trkpt lat="24.978439" lon="103.10709">
<time>2015-09-27T18:59:20Z</time></trkpt>
<trkpt lat="24.978619" lon="103.10694">
<time>2015-09-27T18:59:21Z</time></trkpt>
<trkpt lat="24.978749" lon="103.1068">
<time>2015-09-27T18:59:22Z</time></trkpt>
<trkpt lat="24.978918" lon="103.10654">
<time>2015-09-27T18:59:23Z</time></trkpt>
<trkpt lat="24.979038" lon="103.10626">
<time>2015-09-27T18:59:24Z</time></trkpt>
<trkpt lat="24.979118" lon="103.10598">
<time>2015-09-27T18:59:25Z</time></trkpt>
<trkpt lat="24.979158" lon="103.10571">
<time>2015-09-27T18:59:26Z</time></trkpt>
<trkpt lat="24.979208" lon="103.105401">
<time>2015-09-27T18:59:27Z</time></trkpt>
<trkpt lat="24.979298" lon="103.105101">
<time>2015-09-27T18:59:28Z</time></trkpt>
<trkpt lat="24.979358" lon="103.104941">
<time>2015-09-27T18:59:29Z</time></trkpt>
<trkpt lat="24.979458" lon="103.104771">
<time>2015-09-27T18:59:30Z</time></trkpt>
<trkpt lat="24.979588" lon="103.104641">
<time>2015-09-27T18:59:31Z</time></trkpt>
<trkpt lat="24.979758" lon="103.104541">
<time>2015-09-27T18:59:32Z</time></trkpt>
<trkpt lat="24.979878" lon="103.104471">
<time>2015-09-27T18:59:33Z</time></trkpt>
<trkpt lat="24.980497" lon="103.104201">
<time>2015-09-27T18:59:34Z</time></trkpt>
<trkpt lat="24.980657" lon="103.104091">
<time>2015-09-27T18:59:35Z</time></trkpt>
<trkpt lat="24.980787" lon="103.103891">
<time>2015-09-27T18:59:36Z</time></trkpt>
<trkpt lat="24.980837" lon="103.103671">
<time>2015-09-27T18:59:37Z</time></trkpt>
<trkpt lat="24.980877" lon="103.103481">
<time>2015-09-27T18:59:38Z</time></trkpt>
<trkpt lat="24.980827" lon="103.103241">
<time>2015-09-27T18:59:39Z</time></trkpt>
<trkpt lat="24.980707" lon="103.102801">
<time>2015-09-27T18:59:40Z</time></trkpt>
<trkpt lat="24.980657" lon="103.102571">
<time>2015-09-27T18:59:41Z</time></trkpt>
<trkpt lat="24.980637" lon="103.102322">
<time>2015-09-27T18:59:42Z</time></trkpt>
<trkpt lat="24.980667" lon="103.102122">
<time>2015-09-27T18:59:43Z</time></trkpt>
<trkpt lat="24.980747" lon="103.101872">
<time>2015-09-27T18:59:44Z</time></trkpt>
<trkpt lat="24.980897" lon="103.101642">
<time>2015-09-27T18:59:45Z</time></trkpt>
<trkpt lat="24.981106" lon="103.101422">
<time>2015-09-27T18:59:46Z</time></trkpt>
<trkpt lat="24.981606" lon="103.100922">
<time>2015-09-27T18:59:47Z</time></trkpt>
<trkpt lat="24.982126" lon="103.100352">
<time>2015-09-27T18:59:48Z</time></trkpt>
<trkpt lat="24.982276" lon="103.100152">
<time>2015-09-27T18:59:49Z</time></trkpt>
<trkpt lat="24.982356" lon="103.099993">
<time>2015-09-27T18:59:50Z</time></trkpt>
<trkpt lat="24.982396" lon="103.099863">
<time>2015-09-27T18:59:51Z</time></trkpt>
<trkpt lat="24.982406" lon="103.099693">
<time>2015-09-27T18:59:52Z</time></trkpt>
<trkpt lat="24.982366" lon="103.099533">
<time>2015-09-27T18:59:53Z</time></trkpt>
<trkpt lat="24.982306" lon="103.099373">
<time>2015-09-27T18:59:54Z</time></trkpt>
<trkpt lat="24.982226" lon="103.099203">
<time>2015-09-27T18:59:55Z</time></trkpt>
<trkpt lat="24.982126" lon="103.099053">
<time>2015-09-27T18:59:56Z</time></trkpt>
<trkpt lat="24.982006" lon="103.098843">
<time>2015-09-27T18:59:57Z</time></trkpt>
<trkpt lat="24.981866" lon="103.098583">
<time>2015-09-27T18:59:58Z</time></trkpt>
<trkpt lat="24.981776" lon="103.098304">
<time>2015-09-27T18:59:59Z</time></trkpt>
<trkpt lat="24.981726" lon="103.098014">
<time>2015-09-27T19:00:00Z</time></trkpt>
<trkpt lat="24.981716" lon="103.097704">
<time>2015-09-27T19:00:01Z</time></trkpt>
<trkpt lat="24.981726" lon="103.097394">
<time>2015-09-27T19:00:02Z</time></trkpt>
<trkpt lat="24.981746" lon="103.097234">
<time>2015-09-27T19:00:03Z</time></trkpt>
<trkpt lat="24.981786" lon="103.097044">
<time>2015-09-27T19:00:04Z</time></trkpt>
<trkpt lat="24.981856" lon="103.096814">
<time>2015-09-27T19:00:05Z</time></trkpt>
<trkpt lat="24.981996" lon="103.096575">
<time>2015-09-27T19:00:06Z</time></trkpt>
<trkpt lat="24.982266" lon="103.096165">
<time>2015-09-27T19:00:07Z</time></trkpt>
<trkpt lat="24.982546" lon="103.095765">
<time>2015-09-27T19:00:08Z</time></trkpt>
<trkpt lat="24.982766" lon="103.095445">
<time>2015-09-27T19:00:09Z</time></trkpt>
<trkpt lat="24.982906" lon="103.095196">
<time>2015-09-27T19:00:10Z</time></trkpt>
<trkpt lat="24.983006" lon="103.094986">
<time>2015-09-27T19:00:11Z</time></trkpt>
<trkpt lat="24.983096" lon="103.094766">
<time>2015-09-27T19:00:12Z</time></trkpt>
<trkpt lat="24.983186" lon="103.094496">
<time>2015-09-27T19:00:13Z</time></trkpt>
<trkpt lat="24.983256" lon="103.094266">
<time>2015-09-27T19:00:14Z</time></trkpt>
<trkpt lat="24.983286" lon="103.093987">
<time>2015-09-27T19:00:15Z</time></trkpt>
<trkpt lat="24.983296" lon="103.093447">
<time>2015-09-27T19:00:16Z</time></trkpt>
<trkpt lat="24.983296" lon="103.092977">
<time>2015-09-27T19:00:17Z</time></trkpt>
<trkpt lat="24.983316" lon="103.092748">
<time>2015-09-27T19:00:18Z</time></trkpt>
<trkpt lat="24.983356" lon="103.092518">
<time>2015-09-27T19:00:19Z</time></trkpt>
<trkpt lat="24.983426" lon="103.092268">
<time>2015-09-27T19:00:20Z</time></trkpt>
<trkpt lat="24.983536" lon="103.092008">
<time>2015-09-27T19:00:21Z</time></trkpt>
<trkpt lat="24.983696" lon="103.091679">
<time>2015-09-27T19:00:22Z</time></trkpt>
<trkpt lat="24.983816" lon="103.091379">
<time>2015-09-27T19:00:23Z</time></trkpt>
<trkpt lat="24.983866" lon="103.091199">
<time>2015-09-27T19:00:24Z</time></trkpt>
<trkpt lat="24.983906" lon="103.091009">
<time>2015-09-27T19:00:25Z</time></trkpt>
<trkpt lat="24.983916" lon="103.090829">
<time>2015-09-27T19:00:26Z</time></trkpt>
<trkpt lat="24.983916" lon="103.09053">
<time>2015-09-27T19:00:27Z</time></trkpt>
<trkpt lat="24.983836" lon="103.09005">
<time>2015-09-27T19:00:28Z</time></trkpt>
<trkpt lat="24.983787" lon="103.089611">
<time>2015-09-27T19:00:29Z</time></trkpt>
<trkpt lat="24.983787" lon="103.089351">
<time>2015-09-27T19:00:30Z</time></trkpt>
<trkpt lat="24.983787" lon="103.089081">
<time>2015-09-27T19:00:31Z</time></trkpt>
<trkpt lat="24.983807" lon="103.088811">
<time>2015-09-27T19:00:32Z</time></trkpt>
<trkpt lat="24.983827" lon="103.088492">
<time>2015-09-27T19:00:33Z</time></trkpt>
<trkpt lat="24.983827" lon="103.088242">
<time>2015-09-27T19:00:34Z</time></trkpt>
<trkpt lat="24.983797" lon="103.088012">
<time>2015-09-27T19:00:35Z</time></trkpt>
<trkpt lat="24.983707" lon="103.087762">
<time>2015-09-27T19:00:36Z</time></trkpt>
<trkpt lat="24.983567" lon="103.087533">
<time>2015-09-27T19:00:37Z</time></trkpt>
<trkpt lat="24.983427" lon="103.087333">
<time>2015-09-27T19:00:38Z</time></trkpt>
<trkpt lat="24.983307" lon="103.087183">
<time>2015-09-27T19:00:39Z</time></trkpt>
<trkpt lat="24.983178" lon="103.086953">
<time>2015-09-27T19:00:40Z</time></trkpt>
<trkpt lat="24.983088" lon="103.086734">
<time>2015-09-27T19:00:41Z</time></trkpt>
<trkpt lat="24.983068" lon="103.086534">
<time>2015-09-27T19:00:42Z</time></trkpt>
<trkpt lat="24.983068" lon="103.086354">
<time>2015-09-27T19:00:43Z</time></trkpt>
<trkpt lat="24.983088" lon="103.086174">
<time>2015-09-27T19:00:44Z</time></trkpt>
<trkpt lat="24.983128" lon="103.085985">
<time>2015-09-27T19:00:45Z</time></trkpt>
<trkpt lat="24.983178" lon="103.085815">
<time>2015-09-27T19:00:46Z</time></trkpt>
<trkpt lat="24.983248" lon="103.085645">
<time>2015-09-27T19:00:47Z</time></trkpt>
<trkpt lat="24.983488" lon="103.084896">
<time>2015-09-27T19:00:48Z</time></trkpt>
<trkpt lat="24.983549" lon="103.084656">
<time>2015-09-27T19:00:49Z</time></trkpt>
<trkpt lat="24.983589" lon="103.084476">
<time>2015-09-27T19:00:50Z</time></trkpt>
<trkpt lat="24.983599" lon="103.084277">
<time>2015-09-27T19:00:51Z</time></trkpt>
<trkpt lat="24.983599" lon="103.084147">
<time>2015-09-27T19:00:52Z</time></trkpt>
<trkpt lat="24.983579" lon="103.083957">
<time>2015-09-27T19:00:53Z</time></trkpt>
<trkpt lat="24.983529" lon="103.083737">
<time>2015-09-27T19:00:54Z</time></trkpt>
<trkpt lat="24.983429" lon="103.083518">
<time>2015-09-27T19:00:55Z</time></trkpt>
<trkpt lat="24.983269" lon="103.083318">
<time>2015-09-27T19:00:56Z</time></trkpt>
<trkpt lat="24.983109" lon="103.083168">
<time>2015-09-27T19:00:57Z</time></trkpt>
<trkpt lat="24.98289" lon="103.083048">
<time>2015-09-27T19:00:58Z</time></trkpt>
<trkpt lat="24.98268" lon="103.082968">
<time>2015-09-27T19:00:59Z</time></trkpt>
<trkpt lat="24.98251" lon="103.082909">
<time>2015-09-27T19:01:00Z</time></trkpt>
<trkpt lat="24.98237" lon="103.082879">
<time>2015-09-27T19:01:01Z</time></trkpt>
<trkpt lat="24.98213" lon="103.082809">
<time>2015-09-27T19:01:02Z</time></trkpt>
<trkpt lat="24.98199" lon="103.082749">
<time>2015-09-27T19:01:03Z</time></trkpt>
<trkpt lat="24.9819" lon="103.082699">
<time>2015-09-27T19:01:04Z</time></trkpt>
<trkpt lat="24.98177" lon="103.082619">
<time>2015-09-27T19:01:05Z</time></trkpt>
<trkpt lat="24.98163" lon="103.082529">
<time>2015-09-27T19:01:06Z</time></trkpt>
<trkpt lat="24.98149" lon="103.082409">
<time>2015-09-27T19:01:07Z</time></trkpt>
<trkpt lat="24.98133" lon="103.08223">
<time>2015-09-27T19:01:08Z</time></trkpt>
<trkpt lat="24.98121" lon="103.08208">
<time>2015-09-27T19:01:09Z</time></trkpt>
<trkpt lat="24.98107" lon="103.08191">
<time>2015-09-27T19:01:10Z</time></trkpt>
<trkpt lat="24.980901" lon="103.08173">
<time>2015-09-27T19:01:11Z</time></trkpt>
<trkpt lat="24.980671" lon="103.08155">
<time>2015-09-27T19:01:12Z</time></trkpt>
<trkpt lat="24.980051" lon="103.081201">
<time>2015-09-27T19:01:13Z</time></trkpt>
<trkpt lat="24.979981" lon="103.081161">
<time>2015-09-27T19:01:14Z</time></trkpt>
<trkpt lat="24.979751" lon="103.081011">
<time>2015-09-27T19:01:15Z</time></trkpt>
<trkpt lat="24.979511" lon="103.080842">
<time>2015-09-27T19:01:16Z</time></trkpt>
<trkpt lat="24.979371" lon="103.080722">
<time>2015-09-27T19:01:17Z</time></trkpt>
<trkpt lat="24.979252" lon="103.080602">
<time>2015-09-27T19:01:18Z</time></trkpt>
<trkpt lat="24.979152" lon="103.080492">
<time>2015-09-27T19:01:19Z</time></trkpt>
<trkpt lat="24.979042" lon="103.080362">
<time>2015-09-27T19:01:20Z</time></trkpt>
<trkpt lat="24.978982" lon="103.080282">
<time>2015-09-27T19:01:21Z</time></trkpt>
<trkpt lat="24.978882" lon="103.080143">
<time>2015-09-27T19:01:22Z</time></trkpt>
<trkpt lat="24.978732" lon="103.079903">
<time>2015-09-27T19:01:23Z</time></trkpt>
<trkpt lat="24.978453" lon="103.079394">
<time>2015-09-27T19:01:24Z</time></trkpt>
<trkpt lat="24.978143" lon="103.078765">
<time>2015-09-27T19:01:25Z</time></trkpt>
<trkpt lat="24.977923" lon="103.078305">
<time>2015-09-27T19:01:26Z</time></trkpt>
<trkpt lat="24.977584" lon="103.077796">
<time>2015-09-27T19:01:27Z</time></trkpt>
<trkpt lat="24.977254" lon="103.077437">
<time>2015-09-27T19:01:28Z</time></trkpt>
<trkpt lat="24.976805" lon="103.077068">
<time>2015-09-27T19:01:29Z</time></trkpt>
<trkpt lat="24.976275" lon="103.076688">
<time>2015-09-27T19:01:30Z</time></trkpt>
<trkpt lat="24.976025" lon="103.076488">
<time>2015-09-27T19:01:31Z</time></trkpt>
<trkpt lat="24.975845" lon="103.076349">
<time>2015-09-27T19:01:32Z</time></trkpt>
<trkpt lat="24.975596" lon="103.076089">
<time>2015-09-27T19:01:33Z</time></trkpt>
<trkpt lat="24.975266" lon="103.07569">
<time>2015-09-27T19:01:34Z</time></trkpt>
<trkpt lat="24.975126" lon="103.07546">
<time>2015-09-27T19:01:35Z</time></trkpt>
<trkpt lat="24.975007" lon="103.075181">
<time>2015-09-27T19:01:36Z</time></trkpt>
<trkpt lat="24.974688" lon="103.074063">
<time>2015-09-27T19:01:37Z</time></trkpt>
<trkpt lat="24.974001" lon="103.071338">
<time>2015-09-27T19:01:38Z</time></trkpt>
<trkpt lat="24.973612" lon="103.069891">
<time>2015-09-27T19:01:39Z</time></trkpt>
<trkpt lat="24.973383" lon="103.069082">
<time>2015-09-27T19:01:40Z</time></trkpt>
<trkpt lat="24.973055" lon="103.067995">
<time>2015-09-27T19:01:41Z</time></trkpt>
<trkpt lat="24.972955" lon="103.067685">
<time>2015-09-27T19:01:42Z</time></trkpt>
<trkpt lat="24.972885" lon="103.067566">
<time>2015-09-27T19:01:43Z</time></trkpt>
<trkpt lat="24.972766" lon="103.067386">
<time>2015-09-27T19:01:44Z</time></trkpt>
<trkpt lat="24.972636" lon="103.067236">
<time>2015-09-27T19:01:45Z</time></trkpt>
<trkpt lat="24.972326" lon="103.066987">
<time>2015-09-27T19:01:46Z</time></trkpt>
<trkpt lat="24.971737" lon="103.066618">
<time>2015-09-27T19:01:47Z</time></trkpt>
<trkpt lat="24.971397" lon="103.066328">
<time>2015-09-27T19:01:48Z</time></trkpt>
<trkpt lat="24.970449" lon="103.065181">
<time>2015-09-27T19:01:49Z</time></trkpt>
<trkpt lat="24.96958" lon="103.064143">
<time>2015-09-27T19:01:50Z</time></trkpt>
<trkpt lat="24.969061" lon="103.063505">
<time>2015-09-27T19:01:51Z</time></trkpt>
<trkpt lat="24.968872" lon="103.063265">
<time>2015-09-27T19:01:52Z</time></trkpt>
<trkpt lat="24.968862" lon="103.063265">
<time>2015-09-27T19:01:53Z</time></trkpt>
<trkpt lat="24.968283" lon="103.062547">
<time>2015-09-27T19:01:54Z</time></trkpt>
<trkpt lat="24.967904" lon="103.062048">
<time>2015-09-27T19:01:55Z</time></trkpt>
<trkpt lat="24.967025" lon="103.060991">
<time>2015-09-27T19:01:56Z</time></trkpt>
<trkpt lat="24.966247" lon="103.059804">
<time>2015-09-27T19:01:57Z</time></trkpt>
<trkpt lat="24.966158" lon="103.059614">
<time>2015-09-27T19:01:58Z</time></trkpt>
<trkpt lat="24.966048" lon="103.059375">
<time>2015-09-27T19:01:59Z</time></trkpt>
<trkpt lat="24.965779" lon="103.058786">
<time>2015-09-27T19:02:00Z</time></trkpt>
<trkpt lat="24.9656" lon="103.058387">
<time>2015-09-27T19:02:01Z</time></trkpt>
<trkpt lat="24.965301" lon="103.057509">
<time>2015-09-27T19:02:02Z</time></trkpt>
<trkpt lat="24.965113" lon="103.056701">
<time>2015-09-27T19:02:03Z</time></trkpt>
<trkpt lat="24.965073" lon="103.056472">
<time>2015-09-27T19:02:04Z</time></trkpt>
<trkpt lat="24.964994" lon="103.055844">
<time>2015-09-27T19:02:05Z</time></trkpt>
<trkpt lat="24.964965" lon="103.055365">
<time>2015-09-27T19:02:06Z</time></trkpt>
<trkpt lat="24.964956" lon="103.055185">
<time>2015-09-27T19:02:07Z</time></trkpt>
<trkpt lat="24.964898" lon="103.054019">
<time>2015-09-27T19:02:08Z</time></trkpt>
<trkpt lat="24.96483" lon="103.052802">
<time>2015-09-27T19:02:09Z</time></trkpt>
<trkpt lat="24.964705" lon="103.05009">
<time>2015-09-27T19:02:10Z</time></trkpt>
<trkpt lat="24.964618" lon="103.048574">
<time>2015-09-27T19:02:11Z</time></trkpt>
<trkpt lat="24.964561" lon="103.047218">
<time>2015-09-27T19:02:12Z</time></trkpt>
<trkpt lat="24.964475" lon="103.045463">
<time>2015-09-27T19:02:13Z</time></trkpt>
<trkpt lat="24.964456" lon="103.045154">
<time>2015-09-27T19:02:14Z</time></trkpt>
<trkpt lat="24.964456" lon="103.045035">
<time>2015-09-27T19:02:15Z</time></trkpt>
<trkpt lat="24.964388" lon="103.043888">
<time>2015-09-27T19:02:16Z</time></trkpt>
<trkpt lat="24.964331" lon="103.042722">
<time>2015-09-27T19:02:17Z</time></trkpt>
<trkpt lat="24.964245" lon="103.041037">
<time>2015-09-27T19:02:18Z</time></trkpt>
<trkpt lat="24.964207" lon="103.04026">
<time>2015-09-27T19:02:19Z</time></trkpt>
<trkpt lat="24.964149" lon="103.039263">
<time>2015-09-27T19:02:20Z</time></trkpt>
<trkpt lat="24.96414" lon="103.039004">
<time>2015-09-27T19:02:21Z</time></trkpt>
<trkpt lat="24.964082" lon="103.038077">
<time>2015-09-27T19:02:22Z</time></trkpt>
<trkpt lat="24.964053" lon="103.037768">
<time>2015-09-27T19:02:23Z</time></trkpt>
<trkpt lat="24.963973" lon="103.037439">
<time>2015-09-27T19:02:24Z</time></trkpt>
<trkpt lat="24.963804" lon="103.037051">
<time>2015-09-27T19:02:25Z</time></trkpt>
<trkpt lat="24.963496" lon="103.036552">
<time>2015-09-27T19:02:26Z</time></trkpt>
<trkpt lat="24.962988" lon="103.035715">
<time>2015-09-27T19:02:27Z</time></trkpt>
<trkpt lat="24.962918" lon="103.035596">
<time>2015-09-27T19:02:28Z</time></trkpt>
<trkpt lat="24.962629" lon="103.035067">
<time>2015-09-27T19:02:29Z</time></trkpt>
<trkpt lat="24.96256" lon="103.034898">
<time>2015-09-27T19:02:30Z</time></trkpt>
<trkpt lat="24.962461" lon="103.034639">
<time>2015-09-27T19:02:31Z</time></trkpt>
<trkpt lat="24.962381" lon="103.03438">
<time>2015-09-27T19:02:32Z</time></trkpt>
<trkpt lat="24.962322" lon="103.034101">
<time>2015-09-27T19:02:33Z</time></trkpt>
<trkpt lat="24.962283" lon="103.033762">
<time>2015-09-27T19:02:34Z</time></trkpt>
<trkpt lat="24.962283" lon="103.033583">
<time>2015-09-27T19:02:35Z</time></trkpt>
<trkpt lat="24.962314" lon="103.033324">
<time>2015-09-27T19:02:36Z</time></trkpt>
<trkpt lat="24.962385" lon="103.032855">
<time>2015-09-27T19:02:37Z</time></trkpt>
<trkpt lat="24.962527" lon="103.032207">
<time>2015-09-27T19:02:38Z</time></trkpt>
<trkpt lat="24.962749" lon="103.031271">
<time>2015-09-27T19:02:39Z</time></trkpt>
<trkpt lat="24.963194" lon="103.029417">
<time>2015-09-27T19:02:40Z</time></trkpt>
<trkpt lat="24.963789" lon="103.027405">
<time>2015-09-27T19:02:41Z</time></trkpt>
<trkpt lat="24.965117" lon="103.024386">
<time>2015-09-27T19:02:42Z</time></trkpt>
<trkpt lat="24.965459" lon="103.023649">
<time>2015-09-27T19:02:43Z</time></trkpt>
<trkpt lat="24.965459" lon="103.023649">
<time>2015-09-27T19:02:44Z</time></trkpt>
<trkpt lat="24.965949" lon="103.023668">
<time>2015-09-27T19:02:45Z</time></trkpt>
<trkpt lat="24.966379" lon="103.023648">
<time>2015-09-27T19:02:46Z</time></trkpt>
<trkpt lat="24.967209" lon="103.023619">
<time>2015-09-27T19:02:47Z</time></trkpt>
<trkpt lat="24.967869" lon="103.023599">
<time>2015-09-27T19:02:48Z</time></trkpt>
<trkpt lat="24.967909" lon="103.023599">
<time>2015-09-27T19:02:49Z</time></trkpt>
<trkpt lat="24.968019" lon="103.023609">
<time>2015-09-27T19:02:50Z</time></trkpt>
<trkpt lat="24.968159" lon="103.023619">
<time>2015-09-27T19:02:51Z</time></trkpt>
<trkpt lat="24.968389" lon="103.023668">
<time>2015-09-27T19:02:52Z</time></trkpt>
<trkpt lat="24.968549" lon="103.023748">
<time>2015-09-27T19:02:53Z</time></trkpt>
<trkpt lat="24.968748" lon="103.023858">
<time>2015-09-27T19:02:54Z</time></trkpt>
<trkpt lat="24.968918" lon="103.023927">
<time>2015-09-27T19:02:55Z</time></trkpt>
<trkpt lat="24.968988" lon="103.023957">
<time>2015-09-27T19:02:56Z</time></trkpt>
<trkpt lat="24.968988" lon="103.023957">
<time>2015-09-27T19:02:57Z</time></trkpt>
<trkpt lat="24.969008" lon="103.023768">
<time>2015-09-27T19:02:58Z</time></trkpt>
<trkpt lat="24.969152" lon="103.022373">
<time>2015-09-27T19:02:59Z</time></trkpt>
<trkpt lat="24.969204" lon="103.021935">
<time>2015-09-27T19:03:00Z</time></trkpt>
<trkpt lat="24.969214" lon="103.021726">
<time>2015-09-27T19:03:01Z</time></trkpt>
<trkpt lat="24.969215" lon="103.021477">
<time>2015-09-27T19:03:02Z</time></trkpt>
<trkpt lat="24.969185" lon="103.021277">
<time>2015-09-27T19:03:03Z</time></trkpt>
<trkpt lat="24.969136" lon="103.021068">
<time>2015-09-27T19:03:04Z</time></trkpt>
<trkpt lat="24.969087" lon="103.020889">
<time>2015-09-27T19:03:05Z</time></trkpt>
<trkpt lat="24.969057" lon="103.020809">
<time>2015-09-27T19:03:06Z</time></trkpt>
<trkpt lat="24.969007" lon="103.02064">
<time>2015-09-27T19:03:07Z</time></trkpt>
<trkpt lat="24.968948" lon="103.02046">
<time>2015-09-27T19:03:08Z</time></trkpt>
<trkpt lat="24.968888" lon="103.020311">
<time>2015-09-27T19:03:09Z</time></trkpt>
<trkpt lat="24.968829" lon="103.020182">
<time>2015-09-27T19:03:10Z</time></trkpt>
<trkpt lat="24.968749" lon="103.020052">
<time>2015-09-27T19:03:11Z</time></trkpt>
<trkpt lat="24.968639" lon="103.019913">
<time>2015-09-27T19:03:12Z</time></trkpt>
<trkpt lat="24.96855" lon="103.019773">
<time>2015-09-27T19:03:13Z</time></trkpt>
<trkpt lat="24.96849" lon="103.019614">
<time>2015-09-27T19:03:14Z</time></trkpt>
<trkpt lat="24.968451" lon="103.019424">
<time>2015-09-27T19:03:15Z</time></trkpt>
<trkpt lat="24.968461" lon="103.019255">
<time>2015-09-27T19:03:16Z</time></trkpt>
<trkpt lat="24.968492" lon="103.019096">
<time>2015-09-27T19:03:17Z</time></trkpt>
<trkpt lat="24.968542" lon="103.018936">
<time>2015-09-27T19:03:18Z</time></trkpt>
<trkpt lat="24.968613" lon="103.018777">
<time>2015-09-27T19:03:19Z</time></trkpt>
<trkpt lat="24.968683" lon="103.018568">
<time>2015-09-27T19:03:20Z</time></trkpt>
<trkpt lat="24.968714" lon="103.018438">
<time>2015-09-27T19:03:21Z</time></trkpt>
<trkpt lat="24.968724" lon="103.018329">
<time>2015-09-27T19:03:22Z</time></trkpt>
<trkpt lat="24.968724" lon="103.018249">
<time>2015-09-27T19:03:23Z</time></trkpt>
<trkpt lat="24.968725" lon="103.01806">
<time>2015-09-27T19:03:24Z</time></trkpt>
<trkpt lat="24.968676" lon="103.017601">
<time>2015-09-27T19:03:25Z</time></trkpt>
<trkpt lat="24.968627" lon="103.017303">
<time>2015-09-27T19:03:26Z</time></trkpt>
<trkpt lat="24.968597" lon="103.017103">
<time>2015-09-27T19:03:27Z</time></trkpt>
<trkpt lat="24.968597" lon="103.017103">
<time>2015-09-27T19:03:28Z</time></trkpt>
<trkpt lat="24.968608" lon="103.016914">
<time>2015-09-27T19:03:29Z</time></trkpt>
<trkpt lat="24.968598" lon="103.016815">
<time>2015-09-27T19:03:30Z</time></trkpt>
<trkpt lat="24.968579" lon="103.016615">
<time>2015-09-27T19:03:31Z</time></trkpt>
<trkpt lat="24.96864" lon="103.016306">
<time>2015-09-27T19:03:32Z</time></trkpt>
<trkpt lat="24.9687" lon="103.016157">
<time>2015-09-27T19:03:33Z</time></trkpt>
<trkpt lat="24.968791" lon="103.016008">
<time>2015-09-27T19:03:34Z</time></trkpt>
<trkpt lat="24.968911" lon="103.015838">
<time>2015-09-27T19:03:35Z</time></trkpt>
<trkpt lat="24.969022" lon="103.015679">
<time>2015-09-27T19:03:36Z</time></trkpt>
<trkpt lat="24.969343" lon="103.015251">
<time>2015-09-27T19:03:37Z</time></trkpt>
<trkpt lat="24.969463" lon="103.015081">
<time>2015-09-27T19:03:38Z</time></trkpt>
<trkpt lat="24.969564" lon="103.014872">
<time>2015-09-27T19:03:39Z</time></trkpt>
<trkpt lat="24.969624" lon="103.014733">
<time>2015-09-27T19:03:40Z</time></trkpt>
<trkpt lat="24.969665" lon="103.014573">
<time>2015-09-27T19:03:41Z</time></trkpt>
<trkpt lat="24.969685" lon="103.014444">
<time>2015-09-27T19:03:42Z</time></trkpt>
<trkpt lat="24.969695" lon="103.014364">
<time>2015-09-27T19:03:43Z</time></trkpt>
<trkpt lat="24.969706" lon="103.014225">
<time>2015-09-27T19:03:44Z</time></trkpt>
<trkpt lat="24.969696" lon="103.014095">
<time>2015-09-27T19:03:45Z</time></trkpt>
<trkpt lat="24.969687" lon="103.013946">
<time>2015-09-27T19:03:46Z</time></trkpt>
<trkpt lat="24.969657" lon="103.013796">
<time>2015-09-27T19:03:47Z</time></trkpt>
<trkpt lat="24.969608" lon="103.013627">
<time>2015-09-27T19:03:48Z</time></trkpt>
<trkpt lat="24.969558" lon="103.013487">
<time>2015-09-27T19:03:49Z</time></trkpt>
<trkpt lat="24.969518" lon="103.013408">
<time>2015-09-27T19:03:50Z</time></trkpt>
<trkpt lat="24.969439" lon="103.013248">
<time>2015-09-27T19:03:51Z</time></trkpt>
<trkpt lat="24.969329" lon="103.013039">
<time>2015-09-27T19:03:52Z</time></trkpt>
<trkpt lat="24.96927" lon="103.01286">
<time>2015-09-27T19:03:53Z</time></trkpt>
<trkpt lat="24.96923" lon="103.012681">
<time>2015-09-27T19:03:54Z</time></trkpt>
<trkpt lat="24.969211" lon="103.012501">
<time>2015-09-27T19:03:55Z</time></trkpt>
<trkpt lat="24.969201" lon="103.012332">
<time>2015-09-27T19:03:56Z</time></trkpt>
<trkpt lat="24.969212" lon="103.012103">
<time>2015-09-27T19:03:57Z</time></trkpt>
<trkpt lat="24.969243" lon="103.011914">
<time>2015-09-27T19:03:58Z</time></trkpt>
<trkpt lat="24.969324" lon="103.011585">
<time>2015-09-27T19:03:59Z</time></trkpt>
<trkpt lat="24.969354" lon="103.011406">
<time>2015-09-27T19:04:00Z</time></trkpt>
<trkpt lat="24.969375" lon="103.011216">
<time>2015-09-27T19:04:01Z</time></trkpt>
<trkpt lat="24.969395" lon="103.011057">
<time>2015-09-27T19:04:02Z</time></trkpt>
<trkpt lat="24.969416" lon="103.010818">
<time>2015-09-27T19:04:03Z</time></trkpt>
<trkpt lat="24.969427" lon="103.010569">
<time>2015-09-27T19:04:04Z</time></trkpt>
<trkpt lat="24.969427" lon="103.01035">
<time>2015-09-27T19:04:05Z</time></trkpt>
<trkpt lat="24.969408" lon="103.010111">
<time>2015-09-27T19:04:06Z</time></trkpt>
<trkpt lat="24.969398" lon="103.009991">
<time>2015-09-27T19:04:07Z</time></trkpt>
<trkpt lat="24.969369" lon="103.009822">
<time>2015-09-27T19:04:08Z</time></trkpt>
<trkpt lat="24.969329" lon="103.009673">
<time>2015-09-27T19:04:09Z</time></trkpt>
<trkpt lat="24.96928" lon="103.009493">
<time>2015-09-27T19:04:10Z</time></trkpt>
<trkpt lat="24.96923" lon="103.009344">
<time>2015-09-27T19:04:11Z</time></trkpt>
<trkpt lat="24.969151" lon="103.009155">
<time>2015-09-27T19:04:12Z</time></trkpt>
<trkpt lat="24.969071" lon="103.008995">
<time>2015-09-27T19:04:13Z</time></trkpt>
<trkpt lat="24.968992" lon="103.008856">
<time>2015-09-27T19:04:14Z</time></trkpt>
<trkpt lat="24.968892" lon="103.008716">
<time>2015-09-27T19:04:15Z</time></trkpt>
<trkpt lat="24.968823" lon="103.008617">
<time>2015-09-27T19:04:16Z</time></trkpt>
<trkpt lat="24.968673" lon="103.008438">
<time>2015-09-27T19:04:17Z</time></trkpt>
<trkpt lat="24.968554" lon="103.008278">
<time>2015-09-27T19:04:18Z</time></trkpt>
<trkpt lat="24.968444" lon="103.008109">
<time>2015-09-27T19:04:19Z</time></trkpt>
<trkpt lat="24.968355" lon="103.00794">
<time>2015-09-27T19:04:20Z</time></trkpt>
<trkpt lat="24.968275" lon="103.00779">
<time>2015-09-27T19:04:21Z</time></trkpt>
<trkpt lat="24.968186" lon="103.007501">
<time>2015-09-27T19:04:22Z</time></trkpt>
<trkpt lat="24.968137" lon="103.007242">
<time>2015-09-27T19:04:23Z</time></trkpt>
<trkpt lat="24.968117" lon="103.007013">
<time>2015-09-27T19:04:24Z</time></trkpt>
<trkpt lat="24.968108" lon="103.006854">
<time>2015-09-27T19:04:25Z</time></trkpt>
<trkpt lat="24.968108" lon="103.006714">
<time>2015-09-27T19:04:26Z</time></trkpt>
<trkpt lat="24.968119" lon="103.006605">
<time>2015-09-27T19:04:27Z</time></trkpt>
<trkpt lat="24.968149" lon="103.006426">
<time>2015-09-27T19:04:28Z</time></trkpt>
<trkpt lat="24.96818" lon="103.006256">
<time>2015-09-27T19:04:29Z</time></trkpt>
<trkpt lat="24.96819" lon="103.006147">
<time>2015-09-27T19:04:30Z</time></trkpt>
<trkpt lat="24.9682" lon="103.006047">
<time>2015-09-27T19:04:31Z</time></trkpt>
<trkpt lat="24.968211" lon="103.005938">
<time>2015-09-27T19:04:32Z</time></trkpt>
<trkpt lat="24.968211" lon="103.005858">
<time>2015-09-27T19:04:33Z</time></trkpt>
<trkpt lat="24.968211" lon="103.005758">
<time>2015-09-27T19:04:34Z</time></trkpt>
<trkpt lat="24.968202" lon="103.005649">
<time>2015-09-27T19:04:35Z</time></trkpt>
<trkpt lat="24.968192" lon="103.005529">
<time>2015-09-27T19:04:36Z</time></trkpt>
<trkpt lat="24.968172" lon="103.0054">
<time>2015-09-27T19:04:37Z</time></trkpt>
<trkpt lat="24.968133" lon="103.00529">
<time>2015-09-27T19:04:38Z</time></trkpt>
<trkpt lat="24.968133" lon="103.00529">
<time>2015-09-27T19:04:39Z</time></trkpt>
<trkpt lat="24.968133" lon="103.00526">
<time>2015-09-27T19:04:40Z</time></trkpt>
<trkpt lat="24.968094" lon="103.004892">
<time>2015-09-27T19:04:41Z</time></trkpt>
<trkpt lat="24.968084" lon="103.004782">
<time>2015-09-27T19:04:42Z</time></trkpt>
<trkpt lat="24.968055" lon="103.004533">
<time>2015-09-27T19:04:43Z</time></trkpt>
<trkpt lat="24.968006" lon="103.004284">
<time>2015-09-27T19:04:44Z</time></trkpt>
<trkpt lat="24.967877" lon="103.003956">
<time>2015-09-27T19:04:45Z</time></trkpt>
<trkpt lat="24.967757" lon="103.003756">
<time>2015-09-27T19:04:46Z</time></trkpt>
<trkpt lat="24.967757" lon="103.003756">
<time>2015-09-27T19:04:47Z</time></trkpt>
<trkpt lat="24.967848" lon="103.003567">
<time>2015-09-27T19:04:48Z</time></trkpt>
<trkpt lat="24.967919" lon="103.003139">
<time>2015-09-27T19:04:49Z</time></trkpt>
<trkpt lat="24.967754" lon="103.001635">
<time>2015-09-27T19:04:50Z</time></trkpt>
<trkpt lat="24.967435" lon="103.001296">
<time>2015-09-27T19:04:51Z</time></trkpt>
<trkpt lat="24.967195" lon="103.001316">
<time>2015-09-27T19:04:52Z</time></trkpt>
<trkpt lat="24.967045" lon="103.001276">
<time>2015-09-27T19:04:53Z</time></trkpt>
<trkpt lat="24.966745" lon="103.001137">
<time>2015-09-27T19:04:54Z</time></trkpt>
<trkpt lat="24.966686" lon="103.001097">
<time>2015-09-27T19:04:55Z</time></trkpt>
<trkpt lat="24.966626" lon="103.001057">
<time>2015-09-27T19:04:56Z</time></trkpt>
<trkpt lat="24.966576" lon="103.001027">
<time>2015-09-27T19:04:57Z</time></trkpt>
<trkpt lat="24.966526" lon="103.000988">
<time>2015-09-27T19:04:58Z</time></trkpt>
<trkpt lat="24.966476" lon="103.000948">
<time>2015-09-27T19:04:59Z</time></trkpt>
<trkpt lat="24.966406" lon="103.000908">
<time>2015-09-27T19:05:00Z</time></trkpt>
<trkpt lat="24.966326" lon="103.000858">
<time>2015-09-27T19:05:01Z</time></trkpt>
<trkpt lat="24.966236" lon="103.000818">
<time>2015-09-27T19:05:02Z</time></trkpt>
<trkpt lat="24.966147" lon="103.000788">
<time>2015-09-27T19:05:03Z</time></trkpt>
<trkpt lat="24.966067" lon="103.000768">
<time>2015-09-27T19:05:04Z</time></trkpt>
<trkpt lat="24.966007" lon="103.000758">
<time>2015-09-27T19:05:05Z</time></trkpt>
<trkpt lat="24.965987" lon="103.000758">
<time>2015-09-27T19:05:06Z</time></trkpt>
<trkpt lat="24.965947" lon="103.000748">
<time>2015-09-27T19:05:07Z</time></trkpt>
<trkpt lat="24.965857" lon="103.000709">
<time>2015-09-27T19:05:08Z</time></trkpt>
<trkpt lat="24.965577" lon="103.000609">
<time>2015-09-27T19:05:09Z</time></trkpt>
<trkpt lat="24.965447" lon="103.000559">
<time>2015-09-27T19:05:10Z</time></trkpt>
<trkpt lat="24.965308" lon="103.00049">
<time>2015-09-27T19:05:11Z</time></trkpt>
<trkpt lat="24.965228" lon="103.00044">
<time>2015-09-27T19:05:12Z</time></trkpt>
<trkpt lat="24.965128" lon="103.00037">
<time>2015-09-27T19:05:13Z</time></trkpt>
<trkpt lat="24.964889" lon="103.000201">
<time>2015-09-27T19:05:14Z</time></trkpt>
<trkpt lat="24.964679" lon="103.000061">
<time>2015-09-27T19:05:15Z</time></trkpt>
<trkpt lat="24.964619" lon="103.000012">
<time>2015-09-27T19:05:16Z</time></trkpt>
<trkpt lat="24.964599" lon="103.000002">
<time>2015-09-27T19:05:17Z</time></trkpt>
<trkpt lat="24.964549" lon="102.999972">
<time>2015-09-27T19:05:18Z</time></trkpt>
<trkpt lat="24.964519" lon="102.999952">
<time>2015-09-27T19:05:19Z</time></trkpt>
<trkpt lat="24.964479" lon="102.999932">
<time>2015-09-27T19:05:20Z</time></trkpt>
<trkpt lat="24.964439" lon="102.999922">
<time>2015-09-27T19:05:21Z</time></trkpt>
<trkpt lat="24.964399" lon="102.999902">
<time>2015-09-27T19:05:22Z</time></trkpt>
<trkpt lat="24.964339" lon="102.999902">
<time>2015-09-27T19:05:23Z</time></trkpt>
<trkpt lat="24.96427" lon="102.999892">
<time>2015-09-27T19:05:24Z</time></trkpt>
<trkpt lat="24.9642" lon="102.999882">
<time>2015-09-27T19:05:25Z</time></trkpt>
<trkpt lat="24.96417" lon="102.999872">
<time>2015-09-27T19:05:26Z</time></trkpt>
<trkpt lat="24.96415" lon="102.999862">
<time>2015-09-27T19:05:27Z</time></trkpt>
<trkpt lat="24.9641" lon="102.999842">
<time>2015-09-27T19:05:28Z</time></trkpt>
<trkpt lat="24.96404" lon="102.999802">
<time>2015-09-27T19:05:29Z</time></trkpt>
<trkpt lat="24.96397" lon="102.999753">
<time>2015-09-27T19:05:30Z</time></trkpt>
<trkpt lat="24.96384" lon="102.999653">
<time>2015-09-27T19:05:31Z</time></trkpt>
<trkpt lat="24.96377" lon="102.999603">
<time>2015-09-27T19:05:32Z</time></trkpt>
<trkpt lat="24.963681" lon="102.999553">
<time>2015-09-27T19:05:33Z</time></trkpt>
<trkpt lat="24.963531" lon="102.999484">
<time>2015-09-27T19:05:34Z</time></trkpt>
<trkpt lat="24.963311" lon="102.999394">
<time>2015-09-27T19:05:35Z</time></trkpt>
<trkpt lat="24.963191" lon="102.999354">
<time>2015-09-27T19:05:36Z</time></trkpt>
<trkpt lat="24.962962" lon="102.999284">
<time>2015-09-27T19:05:37Z</time></trkpt>
<trkpt lat="24.962822" lon="102.999245">
<time>2015-09-27T19:05:38Z</time></trkpt>
<trkpt lat="24.962782" lon="102.999235">
<time>2015-09-27T19:05:39Z</time></trkpt>
<trkpt lat="24.962742" lon="102.999225">
<time>2015-09-27T19:05:40Z</time></trkpt>
<trkpt lat="24.962702" lon="102.999215">
<time>2015-09-27T19:05:41Z</time></trkpt>
<trkpt lat="24.962672" lon="102.999215">
<time>2015-09-27T19:05:42Z</time></trkpt>
<trkpt lat="24.962462" lon="102.999195">
<time>2015-09-27T19:05:43Z</time></trkpt>
<trkpt lat="24.962282" lon="102.999175">
<time>2015-09-27T19:05:44Z</time></trkpt>
<trkpt lat="24.962212" lon="102.999165">
<time>2015-09-27T19:05:45Z</time></trkpt>
<trkpt lat="24.962152" lon="102.999145">
<time>2015-09-27T19:05:46Z</time></trkpt>
<trkpt lat="24.962072" lon="102.999105">
<time>2015-09-27T19:05:47Z</time></trkpt>
<trkpt lat="24.962012" lon="102.999075">
<time>2015-09-27T19:05:48Z</time></trkpt>
<trkpt lat="24.961952" lon="102.999036">
<time>2015-09-27T19:05:49Z</time></trkpt>
<trkpt lat="24.961873" lon="102.998986">
<time>2015-09-27T19:05:50Z</time></trkpt>
<trkpt lat="24.961803" lon="102.998946">
<time>2015-09-27T19:05:51Z</time></trkpt>
<trkpt lat="24.961753" lon="102.998916">
<time>2015-09-27T19:05:52Z</time></trkpt>
<trkpt lat="24.961713" lon="102.998896">
<time>2015-09-27T19:05:53Z</time></trkpt>
<trkpt lat="24.961683" lon="102.998886">
<time>2015-09-27T19:05:54Z</time></trkpt>
<trkpt lat="24.961663" lon="102.998876">
<time>2015-09-27T19:05:55Z</time></trkpt>
<trkpt lat="24.961643" lon="102.998876">
<time>2015-09-27T19:05:56Z</time></trkpt>
<trkpt lat="24.961623" lon="102.998876">
<time>2015-09-27T19:05:57Z</time></trkpt>
<trkpt lat="24.961613" lon="102.998876">
<time>2015-09-27T19:05:58Z</time></trkpt>
<trkpt lat="24.961603" lon="102.998886">
<time>2015-09-27T19:05:59Z</time></trkpt>
<trkpt lat="24.961583" lon="102.998886">
<time>2015-09-27T19:06:00Z</time></trkpt>
<trkpt lat="24.961573" lon="102.998896">
<time>2015-09-27T19:06:01Z</time></trkpt>
<trkpt lat="24.961513" lon="102.998946">
<time>2015-09-27T19:06:02Z</time></trkpt>
<trkpt lat="24.961513" lon="102.998946">
<time>2015-09-27T19:06:03Z</time></trkpt>
<trkpt lat="24.961483" lon="102.998896">
<time>2015-09-27T19:06:04Z</time></trkpt>
<trkpt lat="24.961324" lon="102.998707">
<time>2015-09-27T19:06:05Z</time></trkpt>
<trkpt lat="24.961014" lon="102.998418">
<time>2015-09-27T19:06:06Z</time></trkpt>
<trkpt lat="24.960665" lon="102.998139">
<time>2015-09-27T19:06:07Z</time></trkpt>
<trkpt lat="24.960267" lon="102.997761">
<time>2015-09-27T19:06:08Z</time></trkpt>
<trkpt lat="24.959728" lon="102.997263">
<time>2015-09-27T19:06:09Z</time></trkpt>
<trkpt lat="24.959598" lon="102.997163">
<time>2015-09-27T19:06:10Z</time></trkpt>
<trkpt lat="24.959279" lon="102.996934">
<time>2015-09-27T19:06:11Z</time></trkpt>
<trkpt lat="24.959259" lon="102.996924">
<time>2015-09-27T19:06:12Z</time></trkpt>
<trkpt lat="24.959259" lon="102.996924">
<time>2015-09-27T19:06:13Z</time></trkpt>
<trkpt lat="24.95906" lon="102.996825">
<time>2015-09-27T19:06:14Z</time></trkpt>
<trkpt lat="24.95881" lon="102.996735">
<time>2015-09-27T19:06:15Z</time></trkpt>
<trkpt lat="24.95852" lon="102.996645">
<time>2015-09-27T19:06:16Z</time></trkpt>
<trkpt lat="24.957601" lon="102.996486">
<time>2015-09-27T19:06:17Z</time></trkpt>
<trkpt lat="24.956931" lon="102.996347">
<time>2015-09-27T19:06:18Z</time></trkpt>
<trkpt lat="24.956602" lon="102.996257">
<time>2015-09-27T19:06:19Z</time></trkpt>
<trkpt lat="24.956072" lon="102.996048">
<time>2015-09-27T19:06:20Z</time></trkpt>
<trkpt lat="24.955763" lon="102.995888">
<time>2015-09-27T19:06:21Z</time></trkpt>
<trkpt lat="24.955583" lon="102.995779">
<time>2015-09-27T19:06:22Z</time></trkpt>
<trkpt lat="24.955344" lon="102.99562">
<time>2015-09-27T19:06:23Z</time></trkpt>
<trkpt lat="24.955144" lon="102.99547">
<time>2015-09-27T19:06:24Z</time></trkpt>
<trkpt lat="24.954815" lon="102.995241">
<time>2015-09-27T19:06:25Z</time></trkpt>
<trkpt lat="24.954436" lon="102.994853">
<time>2015-09-27T19:06:26Z</time></trkpt>
<trkpt lat="24.953858" lon="102.994245">
<time>2015-09-27T19:06:27Z</time></trkpt>
<trkpt lat="24.953719" lon="102.994096">
<time>2015-09-27T19:06:28Z</time></trkpt>
<trkpt lat="24.95321" lon="102.993568">
<time>2015-09-27T19:06:29Z</time></trkpt>
<trkpt lat="24.952851" lon="102.993229">
<time>2015-09-27T19:06:30Z</time></trkpt>
<trkpt lat="24.952273" lon="102.992841">
<time>2015-09-27T19:06:31Z</time></trkpt>
<trkpt lat="24.951364" lon="102.992263">
<time>2015-09-27T19:06:32Z</time></trkpt>
<trkpt lat="24.950267" lon="102.991576">
<time>2015-09-27T19:06:33Z</time></trkpt>
<trkpt lat="24.949438" lon="102.991018">
<time>2015-09-27T19:06:34Z</time></trkpt>
<trkpt lat="24.948471" lon="102.990341">
<time>2015-09-27T19:06:35Z</time></trkpt>
<trkpt lat="24.946894" lon="102.989235">
<time>2015-09-27T19:06:36Z</time></trkpt>
<trkpt lat="24.945397" lon="102.98819">
<time>2015-09-27T19:06:37Z</time></trkpt>
<trkpt lat="24.94402" lon="102.987283">
<time>2015-09-27T19:06:38Z</time></trkpt>
<trkpt lat="24.943501" lon="102.986945">
<time>2015-09-27T19:06:39Z</time></trkpt>
<trkpt lat="24.942953" lon="102.986596">
<time>2015-09-27T19:06:40Z</time></trkpt>
<trkpt lat="24.942663" lon="102.986417">
<time>2015-09-27T19:06:41Z</time></trkpt>
<trkpt lat="24.942184" lon="102.986128">
<time>2015-09-27T19:06:42Z</time></trkpt>
<trkpt lat="24.941825" lon="102.985879">
<time>2015-09-27T19:06:43Z</time></trkpt>
<trkpt lat="24.941565" lon="102.98572">
<time>2015-09-27T19:06:44Z</time></trkpt>
<trkpt lat="24.941386" lon="102.9856">
<time>2015-09-27T19:06:45Z</time></trkpt>
<trkpt lat="24.941376" lon="102.98559">
<time>2015-09-27T19:06:46Z</time></trkpt>
<trkpt lat="24.941266" lon="102.98551">
<time>2015-09-27T19:06:47Z</time></trkpt>
<trkpt lat="24.941126" lon="102.985361">
<time>2015-09-27T19:06:48Z</time></trkpt>
<trkpt lat="24.941007" lon="102.985192">
<time>2015-09-27T19:06:49Z</time></trkpt>
<trkpt lat="24.940928" lon="102.985012">
<time>2015-09-27T19:06:50Z</time></trkpt>
<trkpt lat="24.940769" lon="102.984554">
<time>2015-09-27T19:06:51Z</time></trkpt>
<trkpt lat="24.94067" lon="102.984255">
<time>2015-09-27T19:06:52Z</time></trkpt>
<trkpt lat="24.94064" lon="102.984076">
<time>2015-09-27T19:06:53Z</time></trkpt>
<trkpt lat="24.940621" lon="102.983887">
<time>2015-09-27T19:06:54Z</time></trkpt>
<trkpt lat="24.940622" lon="102.983668">
<time>2015-09-27T19:06:55Z</time></trkpt>
<trkpt lat="24.940806" lon="102.982054">
<time>2015-09-27T19:06:56Z</time></trkpt>
<trkpt lat="24.940827" lon="102.981855">
<time>2015-09-27T19:06:57Z</time></trkpt>
<trkpt lat="24.940837" lon="102.981675">
<time>2015-09-27T19:06:58Z</time></trkpt>
<trkpt lat="24.940828" lon="102.981556">
<time>2015-09-27T19:06:59Z</time></trkpt>
<trkpt lat="24.940808" lon="102.981446">
<time>2015-09-27T19:07:00Z</time></trkpt>
<trkpt lat="24.940768" lon="102.981337">
<time>2015-09-27T19:07:01Z</time></trkpt>
<trkpt lat="24.940699" lon="102.981217">
<time>2015-09-27T19:07:02Z</time></trkpt>
<trkpt lat="24.940609" lon="102.981108">
<time>2015-09-27T19:07:03Z</time></trkpt>
<trkpt lat="24.940519" lon="102.981048">
<time>2015-09-27T19:07:04Z</time></trkpt>
<trkpt lat="24.940409" lon="102.980988">
<time>2015-09-27T19:07:05Z</time></trkpt>
<trkpt lat="24.94021" lon="102.980938">
<time>2015-09-27T19:07:06Z</time></trkpt>
<trkpt lat="24.93888" lon="102.980789">
<time>2015-09-27T19:07:07Z</time></trkpt>
<trkpt lat="24.93856" lon="102.980739">
<time>2015-09-27T19:07:08Z</time></trkpt>
<trkpt lat="24.938371" lon="102.980679">
<time>2015-09-27T19:07:09Z</time></trkpt>
<trkpt lat="24.938211" lon="102.9806">
<time>2015-09-27T19:07:10Z</time></trkpt>
<trkpt lat="24.938111" lon="102.98051">
<time>2015-09-27T19:07:11Z</time></trkpt>
<trkpt lat="24.938041" lon="102.98042">
<time>2015-09-27T19:07:12Z</time></trkpt>
<trkpt lat="24.937992" lon="102.980321">
<time>2015-09-27T19:07:13Z</time></trkpt>
<trkpt lat="24.937962" lon="102.980191">
<time>2015-09-27T19:07:14Z</time></trkpt>
<trkpt lat="24.937952" lon="102.980072">
<time>2015-09-27T19:07:15Z</time></trkpt>
<trkpt lat="24.937963" lon="102.979942">
<time>2015-09-27T19:07:16Z</time></trkpt>
<trkpt lat="24.937993" lon="102.979823">
<time>2015-09-27T19:07:17Z</time></trkpt>
<trkpt lat="24.938023" lon="102.979733">
<time>2015-09-27T19:07:18Z</time></trkpt>
<trkpt lat="24.938054" lon="102.979673">
<time>2015-09-27T19:07:19Z</time></trkpt>
<trkpt lat="24.938094" lon="102.979594">
<time>2015-09-27T19:07:20Z</time></trkpt>
<trkpt lat="24.938144" lon="102.979524">
<time>2015-09-27T19:07:21Z</time></trkpt>
<trkpt lat="24.938204" lon="102.979464">
<time>2015-09-27T19:07:22Z</time></trkpt>
<trkpt lat="24.938304" lon="102.979384">
<time>2015-09-27T19:07:23Z</time></trkpt>
<trkpt lat="24.938405" lon="102.979325">
<time>2015-09-27T19:07:24Z</time></trkpt>
<trkpt lat="24.938535" lon="102.979275">
<time>2015-09-27T19:07:25Z</time></trkpt>
<trkpt lat="24.938935" lon="102.979125">
<time>2015-09-27T19:07:26Z</time></trkpt>
<trkpt lat="24.939806" lon="102.978787">
<time>2015-09-27T19:07:27Z</time></trkpt>
<trkpt lat="24.940386" lon="102.978568">
<time>2015-09-27T19:07:28Z</time></trkpt>
<trkpt lat="24.941868" lon="102.978">
<time>2015-09-27T19:07:29Z</time></trkpt>
<trkpt lat="24.942909" lon="102.977631">
<time>2015-09-27T19:07:30Z</time></trkpt>
<trkpt lat="24.943429" lon="102.977422">
<time>2015-09-27T19:07:31Z</time></trkpt>
<trkpt lat="24.94372" lon="102.977302">
<time>2015-09-27T19:07:32Z</time></trkpt>
<trkpt lat="24.94403" lon="102.977173">
<time>2015-09-27T19:07:33Z</time></trkpt>
<trkpt lat="24.94429" lon="102.977073">
<time>2015-09-27T19:07:34Z</time></trkpt>
<trkpt lat="24.9444" lon="102.976983">
<time>2015-09-27T19:07:35Z</time></trkpt>
<trkpt lat="24.944481" lon="102.976904">
<time>2015-09-27T19:07:36Z</time></trkpt>
<trkpt lat="24.944551" lon="102.976824">
<time>2015-09-27T19:07:37Z</time></trkpt>
<trkpt lat="24.944601" lon="102.976734">
<time>2015-09-27T19:07:38Z</time></trkpt>
<trkpt lat="24.944661" lon="102.976635">
<time>2015-09-27T19:07:39Z</time></trkpt>
<trkpt lat="24.944682" lon="102.976575">
<time>2015-09-27T19:07:40Z</time></trkpt>
<trkpt lat="24.944702" lon="102.976505">
<time>2015-09-27T19:07:41Z</time></trkpt>
<trkpt lat="24.944732" lon="102.976436">
<time>2015-09-27T19:07:42Z</time></trkpt>
<trkpt lat="24.944742" lon="102.976386">
<time>2015-09-27T19:07:43Z</time></trkpt>
<trkpt lat="24.944742" lon="102.976306">
<time>2015-09-27T19:07:44Z</time></trkpt>
<trkpt lat="24.944753" lon="102.976206">
<time>2015-09-27T19:07:45Z</time></trkpt>
<trkpt lat="24.944763" lon="102.976107">
<time>2015-09-27T19:07:46Z</time></trkpt>
<trkpt lat="24.944755" lon="102.97534">
<time>2015-09-27T19:07:47Z</time></trkpt>
<trkpt lat="24.944737" lon="102.974553">
<time>2015-09-27T19:07:48Z</time></trkpt>
<trkpt lat="24.944748" lon="102.974204">
<time>2015-09-27T19:07:49Z</time></trkpt>
<trkpt lat="24.944759" lon="102.974114">
<time>2015-09-27T19:07:50Z</time></trkpt>
<trkpt lat="24.944789" lon="102.974025">
<time>2015-09-27T19:07:51Z</time></trkpt>
<trkpt lat="24.944829" lon="102.973905">
<time>2015-09-27T19:07:52Z</time></trkpt>
<trkpt lat="24.944869" lon="102.973815">
<time>2015-09-27T19:07:53Z</time></trkpt>
<trkpt lat="24.94492" lon="102.973736">
<time>2015-09-27T19:07:54Z</time></trkpt>
<trkpt lat="24.94498" lon="102.973666">
<time>2015-09-27T19:07:55Z</time></trkpt>
<trkpt lat="24.94505" lon="102.973616">
<time>2015-09-27T19:07:56Z</time></trkpt>
<trkpt lat="24.94512" lon="102.973576">
<time>2015-09-27T19:07:57Z</time></trkpt>
<trkpt lat="24.94519" lon="102.973536">
<time>2015-09-27T19:07:58Z</time></trkpt>
<trkpt lat="24.94529" lon="102.973507">
<time>2015-09-27T19:07:59Z</time></trkpt>
<trkpt lat="24.9454" lon="102.973477">
<time>2015-09-27T19:08:00Z</time></trkpt>
<trkpt lat="24.94553" lon="102.973467">
<time>2015-09-27T19:08:01Z</time></trkpt>
<trkpt lat="24.94564" lon="102.973467">
<time>2015-09-27T19:08:02Z</time></trkpt>
<trkpt lat="24.94627" lon="102.973487">
<time>2015-09-27T19:08:03Z</time></trkpt>
<trkpt lat="24.9464" lon="102.973487">
<time>2015-09-27T19:08:04Z</time></trkpt>
<trkpt lat="24.94685" lon="102.973487">
<time>2015-09-27T19:08:05Z</time></trkpt>
<trkpt lat="24.94712" lon="102.973437">
<time>2015-09-27T19:08:06Z</time></trkpt>
<trkpt lat="24.9473" lon="102.973397">
<time>2015-09-27T19:08:07Z</time></trkpt>
<trkpt lat="24.94748" lon="102.973317">
<time>2015-09-27T19:08:08Z</time></trkpt>
<trkpt lat="24.948442" lon="102.97264">
<time>2015-09-27T19:08:09Z</time></trkpt>
<trkpt lat="24.948953" lon="102.972271">
<time>2015-09-27T19:08:10Z</time></trkpt>
<trkpt lat="24.949284" lon="102.972032">
<time>2015-09-27T19:08:11Z</time></trkpt>
<trkpt lat="24.949284" lon="102.972032">
<time>2015-09-27T19:08:12Z</time></trkpt>
<trkpt lat="24.949314" lon="102.972032">
<time>2015-09-27T19:08:13Z</time></trkpt>
<trkpt lat="24.949364" lon="102.971992">
<time>2015-09-27T19:08:14Z</time></trkpt>
<trkpt lat="24.949424" lon="102.971952">
<time>2015-09-27T19:08:15Z</time></trkpt>
<trkpt lat="24.949434" lon="102.971922">
<time>2015-09-27T19:08:16Z</time></trkpt>
<trkpt lat="24.949584" lon="102.971823">
<time>2015-09-27T19:08:17Z</time></trkpt>
<trkpt lat="24.949654" lon="102.971773">
<time>2015-09-27T19:08:18Z</time></trkpt>
<trkpt lat="24.949705" lon="102.971733">
<time>2015-09-27T19:08:19Z</time></trkpt>
<trkpt lat="24.949755" lon="102.971703">
<time>2015-09-27T19:08:20Z</time></trkpt>
<trkpt lat="24.949955" lon="102.971534">
<time>2015-09-27T19:08:21Z</time></trkpt>
<trkpt lat="24.950276" lon="102.971285">
<time>2015-09-27T19:08:22Z</time></trkpt>
<trkpt lat="24.950566" lon="102.971095">
<time>2015-09-27T19:08:23Z</time></trkpt>
<trkpt lat="24.950566" lon="102.971095">
<time>2015-09-27T19:08:24Z</time></trkpt>
<trkpt lat="24.950596" lon="102.971016">
<time>2015-09-27T19:08:25Z</time></trkpt>
<trkpt lat="24.950667" lon="102.970926">
<time>2015-09-27T19:08:26Z</time></trkpt>
<trkpt lat="24.950747" lon="102.970846">
<time>2015-09-27T19:08:27Z</time></trkpt>
<trkpt lat="24.950827" lon="102.970777">
<time>2015-09-27T19:08:28Z</time></trkpt>
<trkpt lat="24.950947" lon="102.970717">
<time>2015-09-27T19:08:29Z</time></trkpt>
<trkpt lat="24.951137" lon="102.970597">
<time>2015-09-27T19:08:30Z</time></trkpt>
<trkpt lat="24.951428" lon="102.970478">
<time>2015-09-27T19:08:31Z</time></trkpt>
<trkpt lat="24.951808" lon="102.970338">
<time>2015-09-27T19:08:32Z</time></trkpt>
<trkpt lat="24.952228" lon="102.970189">
<time>2015-09-27T19:08:33Z</time></trkpt>
<trkpt lat="24.952569" lon="102.970079">
<time>2015-09-27T19:08:34Z</time></trkpt>
<trkpt lat="24.952609" lon="102.970059">
<time>2015-09-27T19:08:35Z</time></trkpt>
<trkpt lat="24.952679" lon="102.970019">
<time>2015-09-27T19:08:36Z</time></trkpt>
<trkpt lat="24.952809" lon="102.9699">
<time>2015-09-27T19:08:37Z</time></trkpt>
<trkpt lat="24.95324" lon="102.969431">
<time>2015-09-27T19:08:38Z</time></trkpt>
<trkpt lat="24.953541" lon="102.969073">
<time>2015-09-27T19:08:39Z</time></trkpt>
<trkpt lat="24.953632" lon="102.968943">
<time>2015-09-27T19:08:40Z</time></trkpt>
<trkpt lat="24.953682" lon="102.968873">
<time>2015-09-27T19:08:41Z</time></trkpt>
<trkpt lat="24.953702" lon="102.968824">
<time>2015-09-27T19:08:42Z</time></trkpt>
<trkpt lat="24.953722" lon="102.968784">
<time>2015-09-27T19:08:43Z</time></trkpt>
<trkpt lat="24.953732" lon="102.968724">
<time>2015-09-27T19:08:44Z</time></trkpt>
<trkpt lat="24.953752" lon="102.968664">
<time>2015-09-27T19:08:45Z</time></trkpt>
<trkpt lat="24.953783" lon="102.968515">
<time>2015-09-27T19:08:46Z</time></trkpt>
<trkpt lat="24.953803" lon="102.968465">
<time>2015-09-27T19:08:47Z</time></trkpt>
<trkpt lat="24.953843" lon="102.968315">
<time>2015-09-27T19:08:48Z</time></trkpt>
<trkpt lat="24.953844" lon="102.968206">
<time>2015-09-27T19:08:49Z</time></trkpt>
<trkpt lat="24.953845" lon="102.967807">
<time>2015-09-27T19:08:50Z</time></trkpt>
<trkpt lat="24.953866" lon="102.967359">
<time>2015-09-27T19:08:51Z</time></trkpt>
<trkpt lat="24.953867" lon="102.966861">
<time>2015-09-27T19:08:52Z</time></trkpt>
<trkpt lat="24.953838" lon="102.966602">
<time>2015-09-27T19:08:53Z</time></trkpt>
<trkpt lat="24.953689" lon="102.966323">
<time>2015-09-27T19:08:54Z</time></trkpt>
<trkpt lat="24.953679" lon="102.966213">
<time>2015-09-27T19:08:55Z</time></trkpt>
<trkpt lat="24.95382" lon="102.965794">
<time>2015-09-27T19:08:56Z</time></trkpt>
<trkpt lat="24.953961" lon="102.965266">
<time>2015-09-27T19:08:57Z</time></trkpt>
<trkpt lat="24.954162" lon="102.964918">
<time>2015-09-27T19:08:58Z</time></trkpt>
<trkpt lat="24.954273" lon="102.964469">
<time>2015-09-27T19:08:59Z</time></trkpt>
<trkpt lat="24.954374" lon="102.96416">
<time>2015-09-27T19:09:00Z</time></trkpt>
<trkpt lat="24.954555" lon="102.963781">
<time>2015-09-27T19:09:01Z</time></trkpt>
<trkpt lat="24.954635" lon="102.963662">
<time>2015-09-27T19:09:02Z</time></trkpt>
<trkpt lat="24.954766" lon="102.963512">
<time>2015-09-27T19:09:03Z</time></trkpt>
<trkpt lat="24.954936" lon="102.963203">
<time>2015-09-27T19:09:04Z</time></trkpt>
<trkpt lat="24.954967" lon="102.962905">
<time>2015-09-27T19:09:05Z</time></trkpt>
<trkpt lat="24.954997" lon="102.962805">
<time>2015-09-27T19:09:06Z</time></trkpt>
<trkpt lat="24.954988" lon="102.962715">
<time>2015-09-27T19:09:07Z</time></trkpt>
<trkpt lat="24.954988" lon="102.962606">
<time>2015-09-27T19:09:08Z</time></trkpt>
<trkpt lat="24.954998" lon="102.962486">
<time>2015-09-27T19:09:09Z</time></trkpt>
<trkpt lat="24.955009" lon="102.962386">
<time>2015-09-27T19:09:10Z</time></trkpt>
<trkpt lat="24.955029" lon="102.962257">
<time>2015-09-27T19:09:11Z</time></trkpt>
<trkpt lat="24.95506" lon="102.961968">
<time>2015-09-27T19:09:12Z</time></trkpt>
<trkpt lat="24.95509" lon="102.961908">
<time>2015-09-27T19:09:13Z</time></trkpt>
<trkpt lat="24.95509" lon="102.961908">
<time>2015-09-27T19:09:14Z</time></trkpt>
<trkpt lat="24.954971" lon="102.961589">
<time>2015-09-27T19:09:15Z</time></trkpt>
<trkpt lat="24.954782" lon="102.961091">
<time>2015-09-27T19:09:16Z</time></trkpt>
<trkpt lat="24.954603" lon="102.960533">
<time>2015-09-27T19:09:17Z</time></trkpt>
<trkpt lat="24.954524" lon="102.960204">
<time>2015-09-27T19:09:18Z</time></trkpt>
<trkpt lat="24.954525" lon="102.959925">
<time>2015-09-27T19:09:19Z</time></trkpt>
<trkpt lat="24.954575" lon="102.959695">
<time>2015-09-27T19:09:20Z</time></trkpt>
<trkpt lat="24.954585" lon="102.959656">
<time>2015-09-27T19:09:21Z</time></trkpt>
<trkpt lat="24.954585" lon="102.959656">
<time>2015-09-27T19:09:22Z</time></trkpt>
<trkpt lat="24.954778" lon="102.958709">
<time>2015-09-27T19:09:23Z</time></trkpt>
<trkpt lat="24.954778" lon="102.958709">
<time>2015-09-27T19:09:24Z</time></trkpt>
<trkpt lat="24.955048" lon="102.958519">
<time>2015-09-27T19:09:25Z</time></trkpt>
<trkpt lat="24.955149" lon="102.958141">
<time>2015-09-27T19:09:26Z</time></trkpt>
<trkpt lat="24.955269" lon="102.954004">
<time>2015-09-27T19:09:27Z</time></trkpt>
<trkpt lat="24.95538" lon="102.953266">
<time>2015-09-27T19:09:28Z</time></trkpt>
<trkpt lat="24.955382" lon="102.952279">
<time>2015-09-27T19:09:29Z</time></trkpt>
<trkpt lat="24.955423" lon="102.95208">
<time>2015-09-27T19:09:30Z</time></trkpt>
<trkpt lat="24.955475" lon="102.951292">
<time>2015-09-27T19:09:31Z</time></trkpt>
<trkpt lat="24.955736" lon="102.950535">
<time>2015-09-27T19:09:32Z</time></trkpt>
<trkpt lat="24.955807" lon="102.950246">
<time>2015-09-27T19:09:33Z</time></trkpt>
<trkpt lat="24.955609" lon="102.949049">
<time>2015-09-27T19:09:34Z</time></trkpt>
<trkpt lat="24.955471" lon="102.948451">
<time>2015-09-27T19:09:35Z</time></trkpt>
<trkpt lat="24.955451" lon="102.948042">
<time>2015-09-27T19:09:36Z</time></trkpt>
<trkpt lat="24.955353" lon="102.947304">
<time>2015-09-27T19:09:37Z</time></trkpt>
<trkpt lat="24.955334" lon="102.946955">
<time>2015-09-27T19:09:38Z</time></trkpt>
<trkpt lat="24.954945" lon="102.946287">
<time>2015-09-27T19:09:39Z</time></trkpt>
<trkpt lat="24.955046" lon="102.945848">
<time>2015-09-27T19:09:40Z</time></trkpt>
<trkpt lat="24.954976" lon="102.945579">
<time>2015-09-27T19:09:41Z</time></trkpt>
<trkpt lat="24.954937" lon="102.94541">
<time>2015-09-27T19:09:42Z</time></trkpt>
<trkpt lat="24.954867" lon="102.94514">
<time>2015-09-27T19:09:43Z</time></trkpt>
<trkpt lat="24.954838" lon="102.944811">
<time>2015-09-27T19:09:44Z</time></trkpt>
<trkpt lat="24.954838" lon="102.944562">
<time>2015-09-27T19:09:45Z</time></trkpt>
<trkpt lat="24.954829" lon="102.944303">
<time>2015-09-27T19:09:46Z</time></trkpt>
<trkpt lat="24.954849" lon="102.944213">
<time>2015-09-27T19:09:47Z</time></trkpt>
<trkpt lat="24.954849" lon="102.944123">
<time>2015-09-27T19:09:48Z</time></trkpt>
<trkpt lat="24.954849" lon="102.943994">
<time>2015-09-27T19:09:49Z</time></trkpt>
<trkpt lat="24.95483" lon="102.943814">
<time>2015-09-27T19:09:50Z</time></trkpt>
<trkpt lat="24.95481" lon="102.943694">
<time>2015-09-27T19:09:51Z</time></trkpt>
<trkpt lat="24.95482" lon="102.943585">
<time>2015-09-27T19:09:52Z</time></trkpt>
<trkpt lat="24.95482" lon="102.943495">
<time>2015-09-27T19:09:53Z</time></trkpt>
<trkpt lat="24.95483" lon="102.943455">
<time>2015-09-27T19:09:54Z</time></trkpt>
<trkpt lat="24.954861" lon="102.943355">
<time>2015-09-27T19:09:55Z</time></trkpt>
<trkpt lat="24.954901" lon="102.943236">
<time>2015-09-27T19:09:56Z</time></trkpt>
<trkpt lat="24.954911" lon="102.943166">
<time>2015-09-27T19:09:57Z</time></trkpt>
<trkpt lat="24.954921" lon="102.943106">
<time>2015-09-27T19:09:58Z</time></trkpt>
<trkpt lat="24.954921" lon="102.942946">
<time>2015-09-27T19:09:59Z</time></trkpt>
<trkpt lat="24.954912" lon="102.942787">
<time>2015-09-27T19:10:00Z</time></trkpt>
<trkpt lat="24.954922" lon="102.942657">
<time>2015-09-27T19:10:01Z</time></trkpt>
<trkpt lat="24.954942" lon="102.942528">
<time>2015-09-27T19:10:02Z</time></trkpt>
<trkpt lat="24.954952" lon="102.942358">
<time>2015-09-27T19:10:03Z</time></trkpt>
<trkpt lat="24.954973" lon="102.942198">
<time>2015-09-27T19:10:04Z</time></trkpt>
<trkpt lat="24.954973" lon="102.942079">
<time>2015-09-27T19:10:05Z</time></trkpt>
<trkpt lat="24.954983" lon="102.941929">
<time>2015-09-27T19:10:06Z</time></trkpt>
<trkpt lat="24.954994" lon="102.94177">
<time>2015-09-27T19:10:07Z</time></trkpt>
<trkpt lat="24.955004" lon="102.94161">
<time>2015-09-27T19:10:08Z</time></trkpt>
<trkpt lat="24.955014" lon="102.941391">
<time>2015-09-27T19:10:09Z</time></trkpt>
<trkpt lat="24.955024" lon="102.941241">
<time>2015-09-27T19:10:10Z</time></trkpt>
<trkpt lat="24.955045" lon="102.941101">
<time>2015-09-27T19:10:11Z</time></trkpt>
<trkpt lat="24.955055" lon="102.940922">
<time>2015-09-27T19:10:12Z</time></trkpt>
<trkpt lat="24.955075" lon="102.940752">
<time>2015-09-27T19:10:13Z</time></trkpt>
<trkpt lat="24.955086" lon="102.940603">
<time>2015-09-27T19:10:14Z</time></trkpt>
<trkpt lat="24.955086" lon="102.940463">
<time>2015-09-27T19:10:15Z</time></trkpt>
<trkpt lat="24.955096" lon="102.940333">
<time>2015-09-27T19:10:16Z</time></trkpt>
<trkpt lat="24.955086" lon="102.940244">
<time>2015-09-27T19:10:17Z</time></trkpt>
<trkpt lat="24.955086" lon="102.940124">
<time>2015-09-27T19:10:18Z</time></trkpt>
<trkpt lat="24.955077" lon="102.939964">
<time>2015-09-27T19:10:19Z</time></trkpt>
<trkpt lat="24.955047" lon="102.939785">
<time>2015-09-27T19:10:20Z</time></trkpt>
<trkpt lat="24.955027" lon="102.939695">
<time>2015-09-27T19:10:21Z</time></trkpt>
<trkpt lat="24.954978" lon="102.939366">
<time>2015-09-27T19:10:22Z</time></trkpt>
<trkpt lat="24.954948" lon="102.939196">
<time>2015-09-27T19:10:23Z</time></trkpt>
<trkpt lat="24.954898" lon="102.938997">
<time>2015-09-27T19:10:24Z</time></trkpt>
<trkpt lat="24.954859" lon="102.938777">
<time>2015-09-27T19:10:25Z</time></trkpt>
<trkpt lat="24.954829" lon="102.938588">
<time>2015-09-27T19:10:26Z</time></trkpt>
<trkpt lat="24.954799" lon="102.938388">
<time>2015-09-27T19:10:27Z</time></trkpt>
<trkpt lat="24.95473" lon="102.938039">
<time>2015-09-27T19:10:28Z</time></trkpt>
<trkpt lat="24.9547" lon="102.93789">
<time>2015-09-27T19:10:29Z</time></trkpt>
<trkpt lat="24.954671" lon="102.93774">
<time>2015-09-27T19:10:30Z</time></trkpt>
<trkpt lat="24.954631" lon="102.93753">
<time>2015-09-27T19:10:31Z</time></trkpt>
<trkpt lat="24.954561" lon="102.937171">
<time>2015-09-27T19:10:32Z</time></trkpt>
<trkpt lat="24.954532" lon="102.936992">
<time>2015-09-27T19:10:33Z</time></trkpt>
<trkpt lat="24.954502" lon="102.936842">
<time>2015-09-27T19:10:34Z</time></trkpt>
<trkpt lat="24.954482" lon="102.936702">
<time>2015-09-27T19:10:35Z</time></trkpt>
<trkpt lat="24.954463" lon="102.936543">
<time>2015-09-27T19:10:36Z</time></trkpt>
<trkpt lat="24.954453" lon="102.936433">
<time>2015-09-27T19:10:37Z</time></trkpt>
<trkpt lat="24.954453" lon="102.936343">
<time>2015-09-27T19:10:38Z</time></trkpt>
<trkpt lat="24.954453" lon="102.936283">
<time>2015-09-27T19:10:39Z</time></trkpt>
<trkpt lat="24.954463" lon="102.936164">
<time>2015-09-27T19:10:40Z</time></trkpt>
<trkpt lat="24.954463" lon="102.936054">
<time>2015-09-27T19:10:41Z</time></trkpt>
<trkpt lat="24.954473" lon="102.935964">
<time>2015-09-27T19:10:42Z</time></trkpt>
<trkpt lat="24.954494" lon="102.935815">
<time>2015-09-27T19:10:43Z</time></trkpt>
<trkpt lat="24.954534" lon="102.935555">
<time>2015-09-27T19:10:44Z</time></trkpt>
<trkpt lat="24.954554" lon="102.935406">
<time>2015-09-27T19:10:45Z</time></trkpt>
<trkpt lat="24.954585" lon="102.935236">
<time>2015-09-27T19:10:46Z</time></trkpt>
<trkpt lat="24.954615" lon="102.935116">
<time>2015-09-27T19:10:47Z</time></trkpt>
<trkpt lat="24.954635" lon="102.935026">
<time>2015-09-27T19:10:48Z</time></trkpt>
<trkpt lat="24.954655" lon="102.934877">
<time>2015-09-27T19:10:49Z</time></trkpt>
<trkpt lat="24.954685" lon="102.934747">
<time>2015-09-27T19:10:50Z</time></trkpt>
<trkpt lat="24.954705" lon="102.934657">
<time>2015-09-27T19:10:51Z</time></trkpt>
<trkpt lat="24.954726" lon="102.934578">
<time>2015-09-27T19:10:52Z</time></trkpt>
<trkpt lat="24.954776" lon="102.934458">
<time>2015-09-27T19:10:53Z</time></trkpt>
<trkpt lat="24.954816" lon="102.934378">
<time>2015-09-27T19:10:54Z</time></trkpt>
<trkpt lat="24.954876" lon="102.934298">
<time>2015-09-27T19:10:55Z</time></trkpt>
<trkpt lat="24.954876" lon="102.934298">
<time>2015-09-27T19:10:56Z</time></trkpt>
<trkpt lat="24.955126" lon="102.933959">
<time>2015-09-27T19:10:57Z</time></trkpt>
<trkpt lat="24.955347" lon="102.93366">
<time>2015-09-27T19:10:58Z</time></trkpt>
<trkpt lat="24.955487" lon="102.93344">
<time>2015-09-27T19:10:59Z</time></trkpt>
<trkpt lat="24.955567" lon="102.93334">
<time>2015-09-27T19:11:00Z</time></trkpt>
<trkpt lat="24.955667" lon="102.933201">
<time>2015-09-27T19:11:01Z</time></trkpt>
<trkpt lat="24.955778" lon="102.933031">
<time>2015-09-27T19:11:02Z</time></trkpt>
<trkpt lat="24.955888" lon="102.932841">
<time>2015-09-27T19:11:03Z</time></trkpt>
<trkpt lat="24.955978" lon="102.932672">
<time>2015-09-27T19:11:04Z</time></trkpt>
<trkpt lat="24.955998" lon="102.932642">
<time>2015-09-27T19:11:05Z</time></trkpt>
<trkpt lat="24.956018" lon="102.932592">
<time>2015-09-27T19:11:06Z</time></trkpt>
<trkpt lat="24.956068" lon="102.932482">
<time>2015-09-27T19:11:07Z</time></trkpt>
<trkpt lat="24.956099" lon="102.932412">
<time>2015-09-27T19:11:08Z</time></trkpt>
<trkpt lat="24.956139" lon="102.932323">
<time>2015-09-27T19:11:09Z</time></trkpt>
<trkpt lat="24.956199" lon="102.932193">
<time>2015-09-27T19:11:10Z</time></trkpt>
<trkpt lat="24.956239" lon="102.932103">
<time>2015-09-27T19:11:11Z</time></trkpt>
<trkpt lat="24.956319" lon="102.931914">
<time>2015-09-27T19:11:12Z</time></trkpt>
<trkpt lat="24.956389" lon="102.931744">
<time>2015-09-27T19:11:13Z</time></trkpt>
<trkpt lat="24.95644" lon="102.931624">
<time>2015-09-27T19:11:14Z</time></trkpt>
<trkpt lat="24.95646" lon="102.931514">
<time>2015-09-27T19:11:15Z</time></trkpt>
<trkpt lat="24.9565" lon="102.931385">
<time>2015-09-27T19:11:16Z</time></trkpt>
<trkpt lat="24.95653" lon="102.931275">
<time>2015-09-27T19:11:17Z</time></trkpt>
<trkpt lat="24.95654" lon="102.931205">
<time>2015-09-27T19:11:18Z</time></trkpt>
<trkpt lat="24.95655" lon="102.931125">
<time>2015-09-27T19:11:19Z</time></trkpt>
<trkpt lat="24.95655" lon="102.931025">
<time>2015-09-27T19:11:20Z</time></trkpt>
<trkpt lat="24.956571" lon="102.930866">
<time>2015-09-27T19:11:21Z</time></trkpt>
<trkpt lat="24.956581" lon="102.930756">
<time>2015-09-27T19:11:22Z</time></trkpt>
<trkpt lat="24.956591" lon="102.930636">
<time>2015-09-27T19:11:23Z</time></trkpt>
<trkpt lat="24.956611" lon="102.930527">
<time>2015-09-27T19:11:24Z</time></trkpt>
<trkpt lat="24.956621" lon="102.930447">
<time>2015-09-27T19:11:25Z</time></trkpt>
<trkpt lat="24.956621" lon="102.930397">
<time>2015-09-27T19:11:26Z</time></trkpt>
<trkpt lat="24.956621" lon="102.930327">
<time>2015-09-27T19:11:27Z</time></trkpt>
<trkpt lat="24.956642" lon="102.930217">
<time>2015-09-27T19:11:28Z</time></trkpt>
<trkpt lat="24.956662" lon="102.930107">
<time>2015-09-27T19:11:29Z</time></trkpt>
<trkpt lat="24.956672" lon="102.930028">
<time>2015-09-27T19:11:30Z</time></trkpt>
<trkpt lat="24.956712" lon="102.929938">
<time>2015-09-27T19:11:31Z</time></trkpt>
<trkpt lat="24.956752" lon="102.929848">
<time>2015-09-27T19:11:32Z</time></trkpt>
<trkpt lat="24.956762" lon="102.929828">
<time>2015-09-27T19:11:33Z</time></trkpt>
<trkpt lat="24.956792" lon="102.929738">
<time>2015-09-27T19:11:34Z</time></trkpt>
<trkpt lat="24.956842" lon="102.929598">
<time>2015-09-27T19:11:35Z</time></trkpt>
<trkpt lat="24.956913" lon="102.929399">
<time>2015-09-27T19:11:36Z</time></trkpt>
<trkpt lat="24.957003" lon="102.929129">
<time>2015-09-27T19:11:37Z</time></trkpt>
<trkpt lat="24.957003" lon="102.929129">
<time>2015-09-27T19:11:38Z</time></trkpt>
<trkpt lat="24.956964" lon="102.928351">
<time>2015-09-27T19:11:39Z</time></trkpt>
<trkpt lat="24.956866" lon="102.926714">
<time>2015-09-27T19:11:40Z</time></trkpt>
<trkpt lat="24.956747" lon="102.925397">
<time>2015-09-27T19:11:41Z</time></trkpt>
<trkpt lat="24.956648" lon="102.924638">
<time>2015-09-27T19:11:42Z</time></trkpt>
<trkpt lat="24.956499" lon="102.924069">
<time>2015-09-27T19:11:43Z</time></trkpt>
<trkpt lat="24.956329" lon="102.92352">
<time>2015-09-27T19:11:44Z</time></trkpt>
<trkpt lat="24.95618" lon="102.923091">
<time>2015-09-27T19:11:45Z</time></trkpt>
<trkpt lat="24.955871" lon="102.922352">
<time>2015-09-27T19:11:46Z</time></trkpt>
<trkpt lat="24.955552" lon="102.921454">
<time>2015-09-27T19:11:47Z</time></trkpt>
<trkpt lat="24.955482" lon="102.921214">
<time>2015-09-27T19:11:48Z</time></trkpt>
<trkpt lat="24.955432" lon="102.921015">
<time>2015-09-27T19:11:49Z</time></trkpt>
<trkpt lat="24.955382" lon="102.920785">
<time>2015-09-27T19:11:50Z</time></trkpt>
<trkpt lat="24.955352" lon="102.920555">
<time>2015-09-27T19:11:51Z</time></trkpt>
<trkpt lat="24.954835" lon="102.917101">
<time>2015-09-27T19:11:52Z</time></trkpt>
<trkpt lat="24.954517" lon="102.914874">
<time>2015-09-27T19:11:53Z</time></trkpt>
<trkpt lat="24.954099" lon="102.912018">
<time>2015-09-27T19:11:54Z</time></trkpt>
<trkpt lat="24.953979" lon="102.911239">
<time>2015-09-27T19:11:55Z</time></trkpt>
<trkpt lat="24.953959" lon="102.911069">
<time>2015-09-27T19:11:56Z</time></trkpt>
<trkpt lat="24.95386" lon="102.91011">
<time>2015-09-27T19:11:57Z</time></trkpt>
<trkpt lat="24.95381" lon="102.909231">
<time>2015-09-27T19:11:58Z</time></trkpt>
<trkpt lat="24.95381" lon="102.909231">
<time>2015-09-27T19:11:59Z</time></trkpt>
<trkpt lat="24.95379" lon="102.909031">
<time>2015-09-27T19:12:00Z</time></trkpt>
<trkpt lat="24.95378" lon="102.908412">
<time>2015-09-27T19:12:01Z</time></trkpt>
<trkpt lat="24.953861" lon="102.906853">
<time>2015-09-27T19:12:02Z</time></trkpt>
<trkpt lat="24.953991" lon="102.905165">
<time>2015-09-27T19:12:03Z</time></trkpt>
<trkpt lat="24.954111" lon="102.903896">
<time>2015-09-27T19:12:04Z</time></trkpt>
<trkpt lat="24.954151" lon="102.903157">
<time>2015-09-27T19:12:05Z</time></trkpt>
<trkpt lat="24.954132" lon="102.902887">
<time>2015-09-27T19:12:06Z</time></trkpt>
<trkpt lat="24.954072" lon="102.902607">
<time>2015-09-27T19:12:07Z</time></trkpt>
<trkpt lat="24.953972" lon="102.902347">
<time>2015-09-27T19:12:08Z</time></trkpt>
<trkpt lat="24.953842" lon="102.902087">
<time>2015-09-27T19:12:09Z</time></trkpt>
<trkpt lat="24.953712" lon="102.901927">
<time>2015-09-27T19:12:10Z</time></trkpt>
<trkpt lat="24.953322" lon="102.901588">
<time>2015-09-27T19:12:11Z</time></trkpt>
<trkpt lat="24.953002" lon="102.901348">
<time>2015-09-27T19:12:12Z</time></trkpt>
<trkpt lat="24.952672" lon="102.901058">
<time>2015-09-27T19:12:13Z</time></trkpt>
<trkpt lat="24.952582" lon="102.900958">
<time>2015-09-27T19:12:14Z</time></trkpt>
<trkpt lat="24.952462" lon="102.900818">
<time>2015-09-27T19:12:15Z</time></trkpt>
<trkpt lat="24.952432" lon="102.900758">
<time>2015-09-27T19:12:16Z</time></trkpt>
<trkpt lat="24.952332" lon="102.900588">
<time>2015-09-27T19:12:17Z</time></trkpt>
<trkpt lat="24.952252" lon="102.900409">
<time>2015-09-27T19:12:18Z</time></trkpt>
<trkpt lat="24.952202" lon="102.900259">
<time>2015-09-27T19:12:19Z</time></trkpt>
<trkpt lat="24.952162" lon="102.900109">
<time>2015-09-27T19:12:20Z</time></trkpt>
<trkpt lat="24.952112" lon="102.899859">
<time>2015-09-27T19:12:21Z</time></trkpt>
<trkpt lat="24.952012" lon="102.898959">
<time>2015-09-27T19:12:22Z</time></trkpt>
<trkpt lat="24.951972" lon="102.89849">
<time>2015-09-27T19:12:23Z</time></trkpt>
<trkpt lat="24.951902" lon="102.8982">
<time>2015-09-27T19:12:24Z</time></trkpt>
<trkpt lat="24.951832" lon="102.89798">
<time>2015-09-27T19:12:25Z</time></trkpt>
<trkpt lat="24.951782" lon="102.89787">
<time>2015-09-27T19:12:26Z</time></trkpt>
<trkpt lat="24.951722" lon="102.89778">
<time>2015-09-27T19:12:27Z</time></trkpt>
<trkpt lat="24.951652" lon="102.89771">
<time>2015-09-27T19:12:28Z</time></trkpt>
<trkpt lat="24.951552" lon="102.89762">
<time>2015-09-27T19:12:29Z</time></trkpt>
<trkpt lat="24.951462" lon="102.89756">
<time>2015-09-27T19:12:30Z</time></trkpt>
<trkpt lat="24.951312" lon="102.8975">
<time>2015-09-27T19:12:31Z</time></trkpt>
<trkpt lat="24.950632" lon="102.89722">
<time>2015-09-27T19:12:32Z</time></trkpt>
<trkpt lat="24.950532" lon="102.89717">
<time>2015-09-27T19:12:33Z</time></trkpt>
<trkpt lat="24.950172" lon="102.89701">
<time>2015-09-27T19:12:34Z</time></trkpt>
<trkpt lat="24.949882" lon="102.896811">
<time>2015-09-27T19:12:35Z</time></trkpt>
<trkpt lat="24.949712" lon="102.896661">
<time>2015-09-27T19:12:36Z</time></trkpt>
<trkpt lat="24.949572" lon="102.896521">
<time>2015-09-27T19:12:37Z</time></trkpt>
<trkpt lat="24.949472" lon="102.896391">
<time>2015-09-27T19:12:38Z</time></trkpt>
<trkpt lat="24.949382" lon="102.896251">
<time>2015-09-27T19:12:39Z</time></trkpt>
<trkpt lat="24.949302" lon="102.896101">
<time>2015-09-27T19:12:40Z</time></trkpt>
<trkpt lat="24.949222" lon="102.895891">
<time>2015-09-27T19:12:41Z</time></trkpt>
<trkpt lat="24.949172" lon="102.895781">
<time>2015-09-27T19:12:42Z</time></trkpt>
<trkpt lat="24.949142" lon="102.895671">
<time>2015-09-27T19:12:43Z</time></trkpt>
<trkpt lat="24.949122" lon="102.895541">
<time>2015-09-27T19:12:44Z</time></trkpt>
<trkpt lat="24.949102" lon="102.895391">
<time>2015-09-27T19:12:45Z</time></trkpt>
<trkpt lat="24.949102" lon="102.895231">
<time>2015-09-27T19:12:46Z</time></trkpt>
<trkpt lat="24.949102" lon="102.895101">
<time>2015-09-27T19:12:47Z</time></trkpt>
<trkpt lat="24.949122" lon="102.894881">
<time>2015-09-27T19:12:48Z</time></trkpt>
<trkpt lat="24.949142" lon="102.894771">
<time>2015-09-27T19:12:49Z</time></trkpt>
<trkpt lat="24.949162" lon="102.894741">
<time>2015-09-27T19:12:50Z</time></trkpt>
<trkpt lat="24.949291" lon="102.894202">
<time>2015-09-27T19:12:51Z</time></trkpt>
<trkpt lat="24.949361" lon="102.893852">
<time>2015-09-27T19:12:52Z</time></trkpt>
<trkpt lat="24.949381" lon="102.893702">
<time>2015-09-27T19:12:53Z</time></trkpt>
<trkpt lat="24.949411" lon="102.893492">
<time>2015-09-27T19:12:54Z</time></trkpt>
<trkpt lat="24.949411" lon="102.893292">
<time>2015-09-27T19:12:55Z</time></trkpt>
<trkpt lat="24.949411" lon="102.893122">
<time>2015-09-27T19:12:56Z</time></trkpt>
<trkpt lat="24.949381" lon="102.892772">
<time>2015-09-27T19:12:57Z</time></trkpt>
<trkpt lat="24.949341" lon="102.892522">
<time>2015-09-27T19:12:58Z</time></trkpt>
<trkpt lat="24.949301" lon="102.892342">
<time>2015-09-27T19:12:59Z</time></trkpt>
<trkpt lat="24.949261" lon="102.892182">
<time>2015-09-27T19:13:00Z</time></trkpt>
<trkpt lat="24.949091" lon="102.891742">
<time>2015-09-27T19:13:01Z</time></trkpt>
<trkpt lat="24.94861" lon="102.890683">
<time>2015-09-27T19:13:02Z</time></trkpt>
<trkpt lat="24.94855" lon="102.890523">
<time>2015-09-27T19:13:03Z</time></trkpt>
<trkpt lat="24.94851" lon="102.890383">
<time>2015-09-27T19:13:04Z</time></trkpt>
<trkpt lat="24.94849" lon="102.890283">
<time>2015-09-27T19:13:05Z</time></trkpt>
<trkpt lat="24.94847" lon="102.890163">
<time>2015-09-27T19:13:06Z</time></trkpt>
<trkpt lat="24.94847" lon="102.890033">
<time>2015-09-27T19:13:07Z</time></trkpt>
<trkpt lat="24.94848" lon="102.889923">
<time>2015-09-27T19:13:08Z</time></trkpt>
<trkpt lat="24.9485" lon="102.889783">
<time>2015-09-27T19:13:09Z</time></trkpt>
<trkpt lat="24.94853" lon="102.889663">
<time>2015-09-27T19:13:10Z</time></trkpt>
<trkpt lat="24.94858" lon="102.889513">
<time>2015-09-27T19:13:11Z</time></trkpt>
<trkpt lat="24.94868" lon="102.889333">
<time>2015-09-27T19:13:12Z</time></trkpt>
<trkpt lat="24.94875" lon="102.889223">
<time>2015-09-27T19:13:13Z</time></trkpt>
<trkpt lat="24.94885" lon="102.889103">
<time>2015-09-27T19:13:14Z</time></trkpt>
<trkpt lat="24.948949" lon="102.889013">
<time>2015-09-27T19:13:15Z</time></trkpt>
<trkpt lat="24.949109" lon="102.888913">
<time>2015-09-27T19:13:16Z</time></trkpt>
<trkpt lat="24.949229" lon="102.888843">
<time>2015-09-27T19:13:17Z</time></trkpt>
<trkpt lat="24.950339" lon="102.888363">
<time>2015-09-27T19:13:18Z</time></trkpt>
<trkpt lat="24.951789" lon="102.887793">
<time>2015-09-27T19:13:19Z</time></trkpt>
<trkpt lat="24.952668" lon="102.887423">
<time>2015-09-27T19:13:20Z</time></trkpt>
<trkpt lat="24.953198" lon="102.887203">
<time>2015-09-27T19:13:21Z</time></trkpt>
<trkpt lat="24.953678" lon="102.887043">
<time>2015-09-27T19:13:22Z</time></trkpt>
<trkpt lat="24.954688" lon="102.886703">
<time>2015-09-27T19:13:23Z</time></trkpt>
<trkpt lat="24.955227" lon="102.886513">
<time>2015-09-27T19:13:24Z</time></trkpt>
<trkpt lat="24.956447" lon="102.886123">
<time>2015-09-27T19:13:25Z</time></trkpt>
<trkpt lat="24.956777" lon="102.886013">
<time>2015-09-27T19:13:26Z</time></trkpt>
<trkpt lat="24.958336" lon="102.885523">
<time>2015-09-27T19:13:27Z</time></trkpt>
<trkpt lat="24.958806" lon="102.885403">
<time>2015-09-27T19:13:28Z</time></trkpt>
<trkpt lat="24.959006" lon="102.885383">
<time>2015-09-27T19:13:29Z</time></trkpt>
<trkpt lat="24.959266" lon="102.885383">
<time>2015-09-27T19:13:30Z</time></trkpt>
<trkpt lat="24.959526" lon="102.885403">
<time>2015-09-27T19:13:31Z</time></trkpt>
<trkpt lat="24.959906" lon="102.885503">
<time>2015-09-27T19:13:32Z</time></trkpt>
<trkpt lat="24.959946" lon="102.885513">
<time>2015-09-27T19:13:33Z</time></trkpt>
<trkpt lat="24.959946" lon="102.885513">
<time>2015-09-27T19:13:34Z</time></trkpt>
<trkpt lat="24.959996" lon="102.885513">
<time>2015-09-27T19:13:35Z</time></trkpt>
<trkpt lat="24.960886" lon="102.885983">
<time>2015-09-27T19:13:36Z</time></trkpt>
<trkpt lat="24.961366" lon="102.886263">
<time>2015-09-27T19:13:37Z</time></trkpt>
<trkpt lat="24.961776" lon="102.886473">
<time>2015-09-27T19:13:38Z</time></trkpt>
<trkpt lat="24.961987" lon="102.886593">
<time>2015-09-27T19:13:39Z</time></trkpt>
<trkpt lat="24.962107" lon="102.886643">
<time>2015-09-27T19:13:40Z</time></trkpt>
<trkpt lat="24.962247" lon="102.886673">
<time>2015-09-27T19:13:41Z</time></trkpt>
<trkpt lat="24.962587" lon="102.886753">
<time>2015-09-27T19:13:42Z</time></trkpt>
<trkpt lat="24.962807" lon="102.886773">
<time>2015-09-27T19:13:43Z</time></trkpt>
<trkpt lat="24.963056" lon="102.886752">
<time>2015-09-27T19:13:44Z</time></trkpt>
<trkpt lat="24.963286" lon="102.886712">
<time>2015-09-27T19:13:45Z</time></trkpt>
<trkpt lat="24.963626" lon="102.886602">
<time>2015-09-27T19:13:46Z</time></trkpt>
<trkpt lat="24.963846" lon="102.886502">
<time>2015-09-27T19:13:47Z</time></trkpt>
<trkpt lat="24.964086" lon="102.886342">
<time>2015-09-27T19:13:48Z</time></trkpt>
<trkpt lat="24.964316" lon="102.886142">
<time>2015-09-27T19:13:49Z</time></trkpt>
<trkpt lat="24.964456" lon="102.885992">
<time>2015-09-27T19:13:50Z</time></trkpt>
<trkpt lat="24.964566" lon="102.885862">
<time>2015-09-27T19:13:51Z</time></trkpt>
<trkpt lat="24.964706" lon="102.885632">
<time>2015-09-27T19:13:52Z</time></trkpt>
<trkpt lat="24.964865" lon="102.885342">
<time>2015-09-27T19:13:53Z</time></trkpt>
<trkpt lat="24.965205" lon="102.884492">
<time>2015-09-27T19:13:54Z</time></trkpt>
<trkpt lat="24.965305" lon="102.884272">
<time>2015-09-27T19:13:55Z</time></trkpt>
<trkpt lat="24.965385" lon="102.884092">
<time>2015-09-27T19:13:56Z</time></trkpt>
<trkpt lat="24.965504" lon="102.883782">
<time>2015-09-27T19:13:57Z</time></trkpt>
<trkpt lat="24.965993" lon="102.882542">
<time>2015-09-27T19:13:58Z</time></trkpt>
<trkpt lat="24.966482" lon="102.881362">
<time>2015-09-27T19:13:59Z</time></trkpt>
<trkpt lat="24.966941" lon="102.880241">
<time>2015-09-27T19:14:00Z</time></trkpt>
<trkpt lat="24.967221" lon="102.879521">
<time>2015-09-27T19:14:01Z</time></trkpt>
<trkpt lat="24.96771" lon="102.878311">
<time>2015-09-27T19:14:02Z</time></trkpt>
<trkpt lat="24.967959" lon="102.877651">
<time>2015-09-27T19:14:03Z</time></trkpt>
<trkpt lat="24.968278" lon="102.87682">
<time>2015-09-27T19:14:04Z</time></trkpt>
<trkpt lat="24.968308" lon="102.87675">
<time>2015-09-27T19:14:05Z</time></trkpt>
<trkpt lat="24.968338" lon="102.87668">
<time>2015-09-27T19:14:06Z</time></trkpt>
<trkpt lat="24.968568" lon="102.87615">
<time>2015-09-27T19:14:07Z</time></trkpt>
<trkpt lat="24.968687" lon="102.87587">
<time>2015-09-27T19:14:08Z</time></trkpt>
<trkpt lat="24.968737" lon="102.87575">
<time>2015-09-27T19:14:09Z</time></trkpt>
<trkpt lat="24.969056" lon="102.875019">
<time>2015-09-27T19:14:10Z</time></trkpt>
<trkpt lat="24.969236" lon="102.874579">
<time>2015-09-27T19:14:11Z</time></trkpt>
<trkpt lat="24.969575" lon="102.873769">
<time>2015-09-27T19:14:12Z</time></trkpt>
<trkpt lat="24.970193" lon="102.872238">
<time>2015-09-27T19:14:13Z</time></trkpt>
<trkpt lat="24.970911" lon="102.870477">
<time>2015-09-27T19:14:14Z</time></trkpt>
<trkpt lat="24.971978" lon="102.867835">
<time>2015-09-27T19:14:15Z</time></trkpt>
<trkpt lat="24.972287" lon="102.867084">
<time>2015-09-27T19:14:16Z</time></trkpt>
<trkpt lat="24.972656" lon="102.866214">
<time>2015-09-27T19:14:17Z</time></trkpt>
<trkpt lat="24.972975" lon="102.865573">
<time>2015-09-27T19:14:18Z</time></trkpt>
<trkpt lat="24.973264" lon="102.865063">
<time>2015-09-27T19:14:19Z</time></trkpt>
<trkpt lat="24.974062" lon="102.863892">
<time>2015-09-27T19:14:20Z</time></trkpt>
<trkpt lat="24.97529" lon="102.86209">
<time>2015-09-27T19:14:21Z</time></trkpt>
<trkpt lat="24.975689" lon="102.861519">
<time>2015-09-27T19:14:22Z</time></trkpt>
<trkpt lat="24.975948" lon="102.861139">
<time>2015-09-27T19:14:23Z</time></trkpt>
<trkpt lat="24.976856" lon="102.859828">
<time>2015-09-27T19:14:24Z</time></trkpt>
<trkpt lat="24.978742" lon="102.857095">
<time>2015-09-27T19:14:25Z</time></trkpt>
<trkpt lat="24.97941" lon="102.856104">
<time>2015-09-27T19:14:26Z</time></trkpt>
<trkpt lat="24.97959" lon="102.855853">
<time>2015-09-27T19:14:27Z</time></trkpt>
<trkpt lat="24.980079" lon="102.855133">
<time>2015-09-27T19:14:28Z</time></trkpt>
<trkpt lat="24.981795" lon="102.85265">
<time>2015-09-27T19:14:29Z</time></trkpt>
<trkpt lat="24.982652" lon="102.851388">
<time>2015-09-27T19:14:30Z</time></trkpt>
<trkpt lat="24.982752" lon="102.851238">
<time>2015-09-27T19:14:31Z</time></trkpt>
<trkpt lat="24.983031" lon="102.850767">
<time>2015-09-27T19:14:32Z</time></trkpt>
<trkpt lat="24.983131" lon="102.850577">
<time>2015-09-27T19:14:33Z</time></trkpt>
<trkpt lat="24.983191" lon="102.850387">
<time>2015-09-27T19:14:34Z</time></trkpt>
<trkpt lat="24.98321" lon="102.850197">
<time>2015-09-27T19:14:35Z</time></trkpt>
<trkpt lat="24.98317" lon="102.849986">
<time>2015-09-27T19:14:36Z</time></trkpt>
<trkpt lat="24.98308" lon="102.849716">
<time>2015-09-27T19:14:37Z</time></trkpt>
<trkpt lat="24.982979" lon="102.849506">
<time>2015-09-27T19:14:38Z</time></trkpt>
<trkpt lat="24.981706" lon="102.847453">
<time>2015-09-27T19:14:39Z</time></trkpt>
<trkpt lat="24.981565" lon="102.847223">
<time>2015-09-27T19:14:40Z</time></trkpt>
<trkpt lat="24.979971" lon="102.8446">
<time>2015-09-27T19:14:41Z</time></trkpt>
<trkpt lat="24.979861" lon="102.844339">
<time>2015-09-27T19:14:42Z</time></trkpt>
<trkpt lat="24.97972" lon="102.843929">
<time>2015-09-27T19:14:43Z</time></trkpt>
<trkpt lat="24.979689" lon="102.843678">
<time>2015-09-27T19:14:44Z</time></trkpt>
<trkpt lat="24.979689" lon="102.843398">
<time>2015-09-27T19:14:45Z</time></trkpt>
<trkpt lat="24.979689" lon="102.843178">
<time>2015-09-27T19:14:46Z</time></trkpt>
<trkpt lat="24.979718" lon="102.842907">
<time>2015-09-27T19:14:47Z</time></trkpt>
<trkpt lat="24.979768" lon="102.842667">
<time>2015-09-27T19:14:48Z</time></trkpt>
<trkpt lat="24.979877" lon="102.842146">
<time>2015-09-27T19:14:49Z</time></trkpt>
<trkpt lat="24.979966" lon="102.841736">
<time>2015-09-27T19:14:50Z</time></trkpt>
<trkpt lat="24.980015" lon="102.841305">
<time>2015-09-27T19:14:51Z</time></trkpt>
<trkpt lat="24.980045" lon="102.841065">
<time>2015-09-27T19:14:52Z</time></trkpt>
<trkpt lat="24.980054" lon="102.840814">
<time>2015-09-27T19:14:53Z</time></trkpt>
<trkpt lat="24.980063" lon="102.839973">
<time>2015-09-27T19:14:54Z</time></trkpt>
<trkpt lat="24.980063" lon="102.839913">
<time>2015-09-27T19:14:55Z</time></trkpt>
<trkpt lat="24.980061" lon="102.839232">
<time>2015-09-27T19:14:56Z</time></trkpt>
<trkpt lat="24.980059" lon="102.83769">
<time>2015-09-27T19:14:57Z</time></trkpt>
<trkpt lat="24.980057" lon="102.836899">
<time>2015-09-27T19:14:58Z</time></trkpt>
<trkpt lat="24.980087" lon="102.836629">
<time>2015-09-27T19:14:59Z</time></trkpt>
<trkpt lat="24.980116" lon="102.836418">
<time>2015-09-27T19:15:00Z</time></trkpt>
<trkpt lat="24.980146" lon="102.836238">
<time>2015-09-27T19:15:01Z</time></trkpt>
<trkpt lat="24.980156" lon="102.836208">
<time>2015-09-27T19:15:02Z</time></trkpt>
<trkpt lat="24.980255" lon="102.835927">
<time>2015-09-27T19:15:03Z</time></trkpt>
<trkpt lat="24.980295" lon="102.835837">
<time>2015-09-27T19:15:04Z</time></trkpt>
<trkpt lat="24.980435" lon="102.835577">
<time>2015-09-27T19:15:05Z</time></trkpt>
<trkpt lat="24.980564" lon="102.835347">
<time>2015-09-27T19:15:06Z</time></trkpt>
<trkpt lat="24.980993" lon="102.834866">
<time>2015-09-27T19:15:07Z</time></trkpt>
<trkpt lat="24.981442" lon="102.834395">
<time>2015-09-27T19:15:08Z</time></trkpt>
<trkpt lat="24.981971" lon="102.833824">
<time>2015-09-27T19:15:09Z</time></trkpt>
<trkpt lat="24.982161" lon="102.833644">
<time>2015-09-27T19:15:10Z</time></trkpt>
<trkpt lat="24.982809" lon="102.832983">
<time>2015-09-27T19:15:11Z</time></trkpt>
<trkpt lat="24.982839" lon="102.832953">
<time>2015-09-27T19:15:12Z</time></trkpt>
<trkpt lat="24.983199" lon="102.832552">
<time>2015-09-27T19:15:13Z</time></trkpt>
<trkpt lat="24.983478" lon="102.832222">
<time>2015-09-27T19:15:14Z</time></trkpt>
<trkpt lat="24.983767" lon="102.831831">
<time>2015-09-27T19:15:15Z</time></trkpt>
<trkpt lat="24.983837" lon="102.831741">
<time>2015-09-27T19:15:16Z</time></trkpt>
<trkpt lat="24.983957" lon="102.831561">
<time>2015-09-27T19:15:17Z</time></trkpt>
<trkpt lat="24.984206" lon="102.83122">
<time>2015-09-27T19:15:18Z</time></trkpt>
<trkpt lat="24.984206" lon="102.83121">
<time>2015-09-27T19:15:19Z</time></trkpt>
<trkpt lat="24.984425" lon="102.83084">
<time>2015-09-27T19:15:20Z</time></trkpt>
<trkpt lat="24.984555" lon="102.83061">
<time>2015-09-27T19:15:21Z</time></trkpt>
<trkpt lat="24.984605" lon="102.830519">
<time>2015-09-27T19:15:22Z</time></trkpt>
<trkpt lat="24.985003" lon="102.829648">
<time>2015-09-27T19:15:23Z</time></trkpt>
<trkpt lat="24.985053" lon="102.829538">
<time>2015-09-27T19:15:24Z</time></trkpt>
<trkpt lat="24.985182" lon="102.829248">
<time>2015-09-27T19:15:25Z</time></trkpt>
<trkpt lat="24.9857" lon="102.828106">
<time>2015-09-27T19:15:26Z</time></trkpt>
<trkpt lat="24.985979" lon="102.827445">
<time>2015-09-27T19:15:27Z</time></trkpt>
<trkpt lat="24.987283" lon="102.82452">
<time>2015-09-27T19:15:28Z</time></trkpt>
<trkpt lat="24.987532" lon="102.82394">
<time>2015-09-27T19:15:29Z</time></trkpt>
<trkpt lat="24.987751" lon="102.823469">
<time>2015-09-27T19:15:30Z</time></trkpt>
<trkpt lat="24.9879" lon="102.823138">
<time>2015-09-27T19:15:31Z</time></trkpt>
<trkpt lat="24.98802" lon="102.822908">
<time>2015-09-27T19:15:32Z</time></trkpt>
<trkpt lat="24.988159" lon="102.822738">
<time>2015-09-27T19:15:33Z</time></trkpt>
<trkpt lat="24.988349" lon="102.822577">
<time>2015-09-27T19:15:34Z</time></trkpt>
<trkpt lat="24.988549" lon="102.822477">
<time>2015-09-27T19:15:35Z</time></trkpt>
<trkpt lat="24.988839" lon="102.822407">
<time>2015-09-27T19:15:36Z</time></trkpt>
<trkpt lat="24.989449" lon="102.822337">
<time>2015-09-27T19:15:37Z</time></trkpt>
<trkpt lat="24.989708" lon="102.822287">
<time>2015-09-27T19:15:38Z</time></trkpt>
<trkpt lat="24.989878" lon="102.822227">
<time>2015-09-27T19:15:39Z</time></trkpt>
<trkpt lat="24.990138" lon="102.822087">
<time>2015-09-27T19:15:40Z</time></trkpt>
<trkpt lat="24.990368" lon="102.821886">
<time>2015-09-27T19:15:41Z</time></trkpt>
<trkpt lat="24.990567" lon="102.821636">
<time>2015-09-27T19:15:42Z</time></trkpt>
<trkpt lat="24.990707" lon="102.821376">
<time>2015-09-27T19:15:43Z</time></trkpt>
<trkpt lat="24.990876" lon="102.820975">
<time>2015-09-27T19:15:44Z</time></trkpt>
<trkpt lat="24.991224" lon="102.819994">
<time>2015-09-27T19:15:45Z</time></trkpt>
<trkpt lat="24.991602" lon="102.818872">
<time>2015-09-27T19:15:46Z</time></trkpt>
<trkpt lat="24.991651" lon="102.818672">
<time>2015-09-27T19:15:47Z</time></trkpt>
<trkpt lat="24.991691" lon="102.818471">
<time>2015-09-27T19:15:48Z</time></trkpt>
<trkpt lat="24.99172" lon="102.818101">
<time>2015-09-27T19:15:49Z</time></trkpt>
<trkpt lat="24.99172" lon="102.81769">
<time>2015-09-27T19:15:50Z</time></trkpt>
<trkpt lat="24.991659" lon="102.817159">
<time>2015-09-27T19:15:51Z</time></trkpt>
<trkpt lat="24.990991" lon="102.813154">
<time>2015-09-27T19:15:52Z</time></trkpt>
<trkpt lat="24.990951" lon="102.812763">
<time>2015-09-27T19:15:53Z</time></trkpt>
<trkpt lat="24.99097" lon="102.812463">
<time>2015-09-27T19:15:54Z</time></trkpt>
<trkpt lat="24.991" lon="102.812182">
<time>2015-09-27T19:15:55Z</time></trkpt>
<trkpt lat="24.991059" lon="102.811932">
<time>2015-09-27T19:15:56Z</time></trkpt>
<trkpt lat="24.991089" lon="102.811822">
<time>2015-09-27T19:15:57Z</time></trkpt>
<trkpt lat="24.991129" lon="102.811692">
<time>2015-09-27T19:15:58Z</time></trkpt>
<trkpt lat="24.991228" lon="102.811381">
<time>2015-09-27T19:15:59Z</time></trkpt>
<trkpt lat="24.991477" lon="102.8108">
<time>2015-09-27T19:16:00Z</time></trkpt>
<trkpt lat="24.991477" lon="102.8108">
<time>2015-09-27T19:16:01Z</time></trkpt>
<trkpt lat="24.991517" lon="102.81076">
<time>2015-09-27T19:16:02Z</time></trkpt>
<trkpt lat="24.991537" lon="102.8107">
<time>2015-09-27T19:16:03Z</time></trkpt>
<trkpt lat="24.991557" lon="102.81067">
<time>2015-09-27T19:16:04Z</time></trkpt>
<trkpt lat="24.991945" lon="102.809699">
<time>2015-09-27T19:16:05Z</time></trkpt>
<trkpt lat="24.991975" lon="102.809629">
<time>2015-09-27T19:16:06Z</time></trkpt>
<trkpt lat="24.991975" lon="102.809619">
<time>2015-09-27T19:16:07Z</time></trkpt>
<trkpt lat="24.992134" lon="102.809208">
<time>2015-09-27T19:16:08Z</time></trkpt>
<trkpt lat="24.992194" lon="102.809078">
<time>2015-09-27T19:16:09Z</time></trkpt>
<trkpt lat="24.992294" lon="102.808898">
<time>2015-09-27T19:16:10Z</time></trkpt>
<trkpt lat="24.992363" lon="102.808707">
<time>2015-09-27T19:16:11Z</time></trkpt>
<trkpt lat="24.992393" lon="102.808657">
<time>2015-09-27T19:16:12Z</time></trkpt>
<trkpt lat="24.992503" lon="102.808517">
<time>2015-09-27T19:16:13Z</time></trkpt>
<trkpt lat="24.992603" lon="102.808377">
<time>2015-09-27T19:16:14Z</time></trkpt>
<trkpt lat="24.992932" lon="102.808006">
<time>2015-09-27T19:16:15Z</time></trkpt>
<trkpt lat="24.993171" lon="102.807726">
<time>2015-09-27T19:16:16Z</time></trkpt>
<trkpt lat="24.993361" lon="102.807486">
<time>2015-09-27T19:16:17Z</time></trkpt>
<trkpt lat="24.99362" lon="102.807115">
<time>2015-09-27T19:16:18Z</time></trkpt>
<trkpt lat="24.99368" lon="102.807005">
<time>2015-09-27T19:16:19Z</time></trkpt>
<trkpt lat="24.99377" lon="102.806895">
<time>2015-09-27T19:16:20Z</time></trkpt>
<trkpt lat="24.994568" lon="102.805823">
<time>2015-09-27T19:16:21Z</time></trkpt>
<trkpt lat="24.994737" lon="102.805503">
<time>2015-09-27T19:16:22Z</time></trkpt>
<trkpt lat="24.994867" lon="102.805163">
<time>2015-09-27T19:16:23Z</time></trkpt>
<trkpt lat="24.994996" lon="102.804792">
<time>2015-09-27T19:16:24Z</time></trkpt>
<trkpt lat="24.995463" lon="102.8031">
<time>2015-09-27T19:16:25Z</time></trkpt>
<trkpt lat="24.996089" lon="102.800857">
<time>2015-09-27T19:16:26Z</time></trkpt>
<trkpt lat="24.996179" lon="102.800487">
<time>2015-09-27T19:16:27Z</time></trkpt>
<trkpt lat="24.996238" lon="102.800306">
<time>2015-09-27T19:16:28Z</time></trkpt>
<trkpt lat="24.996278" lon="102.800156">
<time>2015-09-27T19:16:29Z</time></trkpt>
<trkpt lat="24.996477" lon="102.799696">
<time>2015-09-27T19:16:30Z</time></trkpt>
<trkpt lat="24.996747" lon="102.799175">
<time>2015-09-27T19:16:31Z</time></trkpt>
<trkpt lat="24.997225" lon="102.798254">
<time>2015-09-27T19:16:32Z</time></trkpt>
<trkpt lat="24.997474" lon="102.797823">
<time>2015-09-27T19:16:33Z</time></trkpt>
<trkpt lat="24.997654" lon="102.797553">
<time>2015-09-27T19:16:34Z</time></trkpt>
<trkpt lat="24.997823" lon="102.797333">
<time>2015-09-27T19:16:35Z</time></trkpt>
<trkpt lat="24.998023" lon="102.797112">
<time>2015-09-27T19:16:36Z</time></trkpt>
<trkpt lat="24.998253" lon="102.796902">
<time>2015-09-27T19:16:37Z</time></trkpt>
<trkpt lat="24.998373" lon="102.796802">
<time>2015-09-27T19:16:38Z</time></trkpt>
<trkpt lat="24.998432" lon="102.796762">
<time>2015-09-27T19:16:39Z</time></trkpt>
<trkpt lat="24.998522" lon="102.796692">
<time>2015-09-27T19:16:40Z</time></trkpt>
<trkpt lat="24.998722" lon="102.796542">
<time>2015-09-27T19:16:41Z</time></trkpt>
<trkpt lat="25.000021" lon="102.795631">
<time>2015-09-27T19:16:42Z</time></trkpt>
<trkpt lat="25.001099" lon="102.79478">
<time>2015-09-27T19:16:43Z</time></trkpt>
<trkpt lat="25.001169" lon="102.7947">
<time>2015-09-27T19:16:44Z</time></trkpt>
<trkpt lat="25.001289" lon="102.794549">
<time>2015-09-27T19:16:45Z</time></trkpt>
<trkpt lat="25.001418" lon="102.794369">
<time>2015-09-27T19:16:46Z</time></trkpt>
<trkpt lat="25.001628" lon="102.794039">
<time>2015-09-27T19:16:47Z</time></trkpt>
<trkpt lat="25.001947" lon="102.793508">
<time>2015-09-27T19:16:48Z</time></trkpt>
<trkpt lat="25.002855" lon="102.792007">
<time>2015-09-27T19:16:49Z</time></trkpt>
<trkpt lat="25.003473" lon="102.790976">
<time>2015-09-27T19:16:50Z</time></trkpt>
<trkpt lat="25.00491" lon="102.788613">
<time>2015-09-27T19:16:51Z</time></trkpt>
<trkpt lat="25.005059" lon="102.788353">
<time>2015-09-27T19:16:52Z</time></trkpt>
<trkpt lat="25.005169" lon="102.788133">
<time>2015-09-27T19:16:53Z</time></trkpt>
<trkpt lat="25.005229" lon="102.787973">
<time>2015-09-27T19:16:54Z</time></trkpt>
<trkpt lat="25.005349" lon="102.787702">
<time>2015-09-27T19:16:55Z</time></trkpt>
<trkpt lat="25.005528" lon="102.787182">
<time>2015-09-27T19:16:56Z</time></trkpt>
<trkpt lat="25.005597" lon="102.786952">
<time>2015-09-27T19:16:57Z</time></trkpt>
<trkpt lat="25.005637" lon="102.786832">
<time>2015-09-27T19:16:58Z</time></trkpt>
<trkpt lat="25.005916" lon="102.785961">
<time>2015-09-27T19:16:59Z</time></trkpt>
<trkpt lat="25.006623" lon="102.783819">
<time>2015-09-27T19:17:00Z</time></trkpt>
<trkpt lat="25.006733" lon="102.783479">
<time>2015-09-27T19:17:01Z</time></trkpt>
<trkpt lat="25.007052" lon="102.782488">
<time>2015-09-27T19:17:02Z</time></trkpt>
<trkpt lat="25.007062" lon="102.782428">
<time>2015-09-27T19:17:03Z</time></trkpt>
<trkpt lat="25.007231" lon="102.781897">
<time>2015-09-27T19:17:04Z</time></trkpt>
<trkpt lat="25.00756" lon="102.780837">
<time>2015-09-27T19:17:05Z</time></trkpt>
<trkpt lat="25.007749" lon="102.780256">
<time>2015-09-27T19:17:06Z</time></trkpt>
<trkpt lat="25.007948" lon="102.779656">
<time>2015-09-27T19:17:07Z</time></trkpt>
<trkpt lat="25.008217" lon="102.778845">
<time>2015-09-27T19:17:08Z</time></trkpt>
<trkpt lat="25.008437" lon="102.778175">
<time>2015-09-27T19:17:09Z</time></trkpt>
<trkpt lat="25.008586" lon="102.777705">
<time>2015-09-27T19:17:10Z</time></trkpt>
<trkpt lat="25.008686" lon="102.777404">
<time>2015-09-27T19:17:11Z</time></trkpt>
<trkpt lat="25.008835" lon="102.776954">
<time>2015-09-27T19:17:12Z</time></trkpt>
<trkpt lat="25.009015" lon="102.776314">
<time>2015-09-27T19:17:13Z</time></trkpt>
<trkpt lat="25.009164" lon="102.775784">
<time>2015-09-27T19:17:14Z</time></trkpt>
<trkpt lat="25.009264" lon="102.775443">
<time>2015-09-27T19:17:15Z</time></trkpt>
<trkpt lat="25.009383" lon="102.775013">
<time>2015-09-27T19:17:16Z</time></trkpt>
<trkpt lat="25.009752" lon="102.773572">
<time>2015-09-27T19:17:17Z</time></trkpt>
<trkpt lat="25.009812" lon="102.773342">
<time>2015-09-27T19:17:18Z</time></trkpt>
<trkpt lat="25.009842" lon="102.773222">
<time>2015-09-27T19:17:19Z</time></trkpt>
<trkpt lat="25.009941" lon="102.772882">
<time>2015-09-27T19:17:20Z</time></trkpt>
<trkpt lat="25.009941" lon="102.772882">
<time>2015-09-27T19:17:21Z</time></trkpt>
<trkpt lat="25.010111" lon="102.772482">
<time>2015-09-27T19:17:22Z</time></trkpt>
<trkpt lat="25.01049" lon="102.771191">
<time>2015-09-27T19:17:23Z</time></trkpt>
<trkpt lat="25.010849" lon="102.769931">
<time>2015-09-27T19:17:24Z</time></trkpt>
<trkpt lat="25.010909" lon="102.769861">
<time>2015-09-27T19:17:25Z</time></trkpt>
<trkpt lat="25.010909" lon="102.769851">
<time>2015-09-27T19:17:26Z</time></trkpt>
<trkpt lat="25.010989" lon="102.769601">
<time>2015-09-27T19:17:27Z</time></trkpt>
<trkpt lat="25.011088" lon="102.769271">
<time>2015-09-27T19:17:28Z</time></trkpt>
<trkpt lat="25.011776" lon="102.76668">
<time>2015-09-27T19:17:29Z</time></trkpt>
<trkpt lat="25.011776" lon="102.76668">
<time>2015-09-27T19:17:30Z</time></trkpt>
<trkpt lat="25.012226" lon="102.76661">
<time>2015-09-27T19:17:31Z</time></trkpt>
<trkpt lat="25.012636" lon="102.76656">
<time>2015-09-27T19:17:32Z</time></trkpt>
<trkpt lat="25.013076" lon="102.76648">
<time>2015-09-27T19:17:33Z</time></trkpt>
<trkpt lat="25.013496" lon="102.76638">
<time>2015-09-27T19:17:34Z</time></trkpt>
<trkpt lat="25.013536" lon="102.76637">
<time>2015-09-27T19:17:35Z</time></trkpt>
<trkpt lat="25.013886" lon="102.76625">
<time>2015-09-27T19:17:36Z</time></trkpt>
<trkpt lat="25.014186" lon="102.76612">
<time>2015-09-27T19:17:37Z</time></trkpt>
<trkpt lat="25.014506" lon="102.76597">
<time>2015-09-27T19:17:38Z</time></trkpt>
<trkpt lat="25.014835" lon="102.76578">
<time>2015-09-27T19:17:39Z</time></trkpt>
<trkpt lat="25.015075" lon="102.76564">
<time>2015-09-27T19:17:40Z</time></trkpt>
<trkpt lat="25.015185" lon="102.76556">
<time>2015-09-27T19:17:41Z</time></trkpt>
<trkpt lat="25.015335" lon="102.76546">
<time>2015-09-27T19:17:42Z</time></trkpt>
<trkpt lat="25.015355" lon="102.76545">
<time>2015-09-27T19:17:43Z</time></trkpt>
<trkpt lat="25.015605" lon="102.76526">
<time>2015-09-27T19:17:44Z</time></trkpt>
<trkpt lat="25.015905" lon="102.765">
<time>2015-09-27T19:17:45Z</time></trkpt>
<trkpt lat="25.016185" lon="102.76473">
<time>2015-09-27T19:17:46Z</time></trkpt>
<trkpt lat="25.016524" lon="102.764359">
<time>2015-09-27T19:17:47Z</time></trkpt>
<trkpt lat="25.016884" lon="102.763949">
<time>2015-09-27T19:17:48Z</time></trkpt>
<trkpt lat="25.017274" lon="102.763449">
<time>2015-09-27T19:17:49Z</time></trkpt>
<trkpt lat="25.017713" lon="102.762789">
<time>2015-09-27T19:17:50Z</time></trkpt>
<trkpt lat="25.018053" lon="102.762209">
<time>2015-09-27T19:17:51Z</time></trkpt>
<trkpt lat="25.018283" lon="102.761779">
<time>2015-09-27T19:17:52Z</time></trkpt>
<trkpt lat="25.018503" lon="102.761339">
<time>2015-09-27T19:17:53Z</time></trkpt>
<trkpt lat="25.018692" lon="102.760909">
<time>2015-09-27T19:17:54Z</time></trkpt>
<trkpt lat="25.018822" lon="102.760599">
<time>2015-09-27T19:17:55Z</time></trkpt>
<trkpt lat="25.018852" lon="102.760509">
<time>2015-09-27T19:17:56Z</time></trkpt>
<trkpt lat="25.018882" lon="102.760429">
<time>2015-09-27T19:17:57Z</time></trkpt>
<trkpt lat="25.019002" lon="102.760109">
<time>2015-09-27T19:17:58Z</time></trkpt>
<trkpt lat="25.019152" lon="102.759589">
<time>2015-09-27T19:17:59Z</time></trkpt>
<trkpt lat="25.019321" lon="102.758909">
<time>2015-09-27T19:18:00Z</time></trkpt>
<trkpt lat="25.01988" lon="102.75651">
<time>2015-09-27T19:18:01Z</time></trkpt>
<trkpt lat="25.01993" lon="102.75633">
<time>2015-09-27T19:18:02Z</time></trkpt>
<trkpt lat="25.01995" lon="102.75627">
<time>2015-09-27T19:18:03Z</time></trkpt>
<trkpt lat="25.01998" lon="102.75615">
<time>2015-09-27T19:18:04Z</time></trkpt>
<trkpt lat="25.02011" lon="102.7556">
<time>2015-09-27T19:18:05Z</time></trkpt>
<trkpt lat="25.02033" lon="102.7546">
<time>2015-09-27T19:18:06Z</time></trkpt>
<trkpt lat="25.02043" lon="102.75427">
<time>2015-09-27T19:18:07Z</time></trkpt>
<trkpt lat="25.02053" lon="102.75398">
<time>2015-09-27T19:18:08Z</time></trkpt>
<trkpt lat="25.02064" lon="102.75376">
<time>2015-09-27T19:18:09Z</time></trkpt>
<trkpt lat="25.02076" lon="102.75357">
<time>2015-09-27T19:18:10Z</time></trkpt>
<trkpt lat="25.02085" lon="102.75347">
<time>2015-09-27T19:18:11Z</time></trkpt>
<trkpt lat="25.02085" lon="102.75347">
<time>2015-09-27T19:18:12Z</time></trkpt>
<trkpt lat="25.02079" lon="102.75342">
<time>2015-09-27T19:18:13Z</time></trkpt>
<trkpt lat="25.02073" lon="102.75336">
<time>2015-09-27T19:18:14Z</time></trkpt>
<trkpt lat="25.02068" lon="102.75331">
<time>2015-09-27T19:18:15Z</time></trkpt>
<trkpt lat="25.02041" lon="102.75306">
<time>2015-09-27T19:18:16Z</time></trkpt>
<trkpt lat="25.02033" lon="102.752981">
<time>2015-09-27T19:18:17Z</time></trkpt>
<trkpt lat="25.02026" lon="102.752921">
<time>2015-09-27T19:18:18Z</time></trkpt>
<trkpt lat="25.02022" lon="102.752891">
<time>2015-09-27T19:18:19Z</time></trkpt>
<trkpt lat="25.02018" lon="102.752871">
<time>2015-09-27T19:18:20Z</time></trkpt>
<trkpt lat="25.02015" lon="102.752851">
<time>2015-09-27T19:18:21Z</time></trkpt>
<trkpt lat="25.01976" lon="102.752671">
<time>2015-09-27T19:18:22Z</time></trkpt>
<trkpt lat="25.01962" lon="102.752561">
<time>2015-09-27T19:18:23Z</time></trkpt>
<trkpt lat="25.01947" lon="102.752441">
<time>2015-09-27T19:18:24Z</time></trkpt>
<trkpt lat="25.01925" lon="102.752241">
<time>2015-09-27T19:18:25Z</time></trkpt>
<trkpt lat="25.01912" lon="102.752131">
<time>2015-09-27T19:18:26Z</time></trkpt>
<trkpt lat="25.01904" lon="102.752061">
<time>2015-09-27T19:18:27Z</time></trkpt>
<trkpt lat="25.01897" lon="102.752021">
<time>2015-09-27T19:18:28Z</time></trkpt>
<trkpt lat="25.0189" lon="102.751991">
<time>2015-09-27T19:18:29Z</time></trkpt>
<trkpt lat="25.01882" lon="102.751961">
<time>2015-09-27T19:18:30Z</time></trkpt>
<trkpt lat="25.01878" lon="102.751941">
<time>2015-09-27T19:18:31Z</time></trkpt>
<trkpt lat="25.01868" lon="102.751911">
<time>2015-09-27T19:18:32Z</time></trkpt>
<trkpt lat="25.0179" lon="102.751661">
<time>2015-09-27T19:18:33Z</time></trkpt>
<trkpt lat="25.01766" lon="102.751561">
<time>2015-09-27T19:18:34Z</time></trkpt>
<trkpt lat="25.01742" lon="102.751441">
<time>2015-09-27T19:18:35Z</time></trkpt>
<trkpt lat="25.01718" lon="102.751291">
<time>2015-09-27T19:18:36Z</time></trkpt>
<trkpt lat="25.01697" lon="102.751141">
<time>2015-09-27T19:18:37Z</time></trkpt>
<trkpt lat="25.01663" lon="102.750891">
<time>2015-09-27T19:18:38Z</time></trkpt>
<trkpt lat="25.01627" lon="102.750602">
<time>2015-09-27T19:18:39Z</time></trkpt>
<trkpt lat="25.01627" lon="102.750602">
<time>2015-09-27T19:18:40Z</time></trkpt>
<trkpt lat="25.0163" lon="102.750412">
<time>2015-09-27T19:18:41Z</time></trkpt>
<trkpt lat="25.01664" lon="102.750022">
<time>2015-09-27T19:18:42Z</time></trkpt>
<trkpt lat="25.01735" lon="102.749352">
<time>2015-09-27T19:18:43Z</time></trkpt>
<trkpt lat="25.019439" lon="102.747393">
<time>2015-09-27T19:18:44Z</time></trkpt>
<trkpt lat="25.019479" lon="102.747353">
<time>2015-09-27T19:18:45Z</time></trkpt>
<trkpt lat="25.019479" lon="102.747353">
<time>2015-09-27T19:18:46Z</time></trkpt>
<trkpt lat="25.019469" lon="102.747263">
<time>2015-09-27T19:18:47Z</time></trkpt>
<trkpt lat="25.01925" lon="102.746294">
<time>2015-09-27T19:18:48Z</time></trkpt>
<trkpt lat="25.0191" lon="102.745634">
<time>2015-09-27T19:18:49Z</time></trkpt>
<trkpt lat="25.01907" lon="102.745444">
<time>2015-09-27T19:18:50Z</time></trkpt>
<trkpt lat="25.01905" lon="102.745254">
<time>2015-09-27T19:18:51Z</time></trkpt>
<trkpt lat="25.01905" lon="102.745084">
<time>2015-09-27T19:18:52Z</time></trkpt>
<trkpt lat="25.01918" lon="102.743206">
<time>2015-09-27T19:18:53Z</time></trkpt>
<trkpt lat="25.01934" lon="102.741677">
<time>2015-09-27T19:18:54Z</time></trkpt>
<trkpt lat="25.01939" lon="102.741167">
<time>2015-09-27T19:18:55Z</time></trkpt>
<trkpt lat="25.019401" lon="102.740858">
<time>2015-09-27T19:18:56Z</time></trkpt>
<trkpt lat="25.019401" lon="102.740718">
<time>2015-09-27T19:18:57Z</time></trkpt>
<trkpt lat="25.019401" lon="102.740668">
<time>2015-09-27T19:18:58Z</time></trkpt>
<trkpt lat="25.019381" lon="102.740538">
<time>2015-09-27T19:18:59Z</time></trkpt>
<trkpt lat="25.019341" lon="102.740378">
<time>2015-09-27T19:19:00Z</time></trkpt>
<trkpt lat="25.019231" lon="102.740028">
<time>2015-09-27T19:19:01Z</time></trkpt>
<trkpt lat="25.019231" lon="102.740028">
<time>2015-09-27T19:19:02Z</time></trkpt>
<trkpt lat="25.019851" lon="102.739629">
<time>2015-09-27T19:19:03Z</time></trkpt>
<trkpt lat="25.019921" lon="102.739589">
<time>2015-09-27T19:19:04Z</time></trkpt>
<trkpt lat="25.019991" lon="102.739529">
<time>2015-09-27T19:19:05Z</time></trkpt>
<trkpt lat="25.020071" lon="102.739479">
<time>2015-09-27T19:19:06Z</time></trkpt>
<trkpt lat="25.020151" lon="102.739419">
<time>2015-09-27T19:19:07Z</time></trkpt>
<trkpt lat="25.020151" lon="102.739419">
<time>2015-09-27T19:19:08Z</time></trkpt>
<trkpt lat="25.020091" lon="102.739389">
<time>2015-09-27T19:19:09Z</time></trkpt>
<trkpt lat="25.020091" lon="102.739389">
<time>2015-09-27T19:19:10Z</time></trkpt>
<trkpt lat="25.020091" lon="102.739329">
<time>2015-09-27T19:19:11Z</time></trkpt>
<trkpt lat="25.020091" lon="102.739069">
<time>2015-09-27T19:19:12Z</time></trkpt>
<trkpt lat="25.020101" lon="102.738719">
<time>2015-09-27T19:19:13Z</time></trkpt>
<trkpt lat="25.020111" lon="102.738539">
<time>2015-09-27T19:19:14Z</time></trkpt>
<trkpt lat="25.020111" lon="102.738539">
<time>2015-09-27T19:19:15Z</time></trkpt>
<trkpt lat="25.020131" lon="102.73838">
<time>2015-09-27T19:19:16Z</time></trkpt>
<trkpt lat="25.020192" lon="102.73791">
<time>2015-09-27T19:19:17Z</time></trkpt>
<trkpt lat="25.020262" lon="102.737441">
<time>2015-09-27T19:19:18Z</time></trkpt>
<trkpt lat="25.020282" lon="102.737221">
<time>2015-09-27T19:19:19Z</time></trkpt>
<trkpt lat="25.020282" lon="102.737011">
<time>2015-09-27T19:19:20Z</time></trkpt>
<trkpt lat="25.020282" lon="102.736801">
<time>2015-09-27T19:19:21Z</time></trkpt>
<trkpt lat="25.020262" lon="102.736641">
<time>2015-09-27T19:19:22Z</time></trkpt>
<trkpt lat="25.020212" lon="102.736322">
<time>2015-09-27T19:19:23Z</time></trkpt>
<trkpt lat="25.020162" lon="102.736082">
<time>2015-09-27T19:19:24Z</time></trkpt>
<trkpt lat="25.020092" lon="102.735862">
<time>2015-09-27T19:19:25Z</time></trkpt>
<trkpt lat="25.019314" lon="102.733515">
<time>2015-09-27T19:19:26Z</time></trkpt>
<trkpt lat="25.019194" lon="102.733165">
<time>2015-09-27T19:19:27Z</time></trkpt>
<trkpt lat="25.019184" lon="102.733145">
<time>2015-09-27T19:19:28Z</time></trkpt>
<trkpt lat="25.019004" lon="102.732616">
<time>2015-09-27T19:19:29Z</time></trkpt>
<trkpt lat="25.018924" lon="102.732386">
<time>2015-09-27T19:19:30Z</time></trkpt>
<trkpt lat="25.018835" lon="102.732136">
<time>2015-09-27T19:19:31Z</time></trkpt>
<trkpt lat="25.018775" lon="102.731966">
<time>2015-09-27T19:19:32Z</time></trkpt>
<trkpt lat="25.018585" lon="102.731357">
<time>2015-09-27T19:19:33Z</time></trkpt>
<trkpt lat="25.018495" lon="102.731067">
<time>2015-09-27T19:19:34Z</time></trkpt>
<trkpt lat="25.018416" lon="102.730848">
<time>2015-09-27T19:19:35Z</time></trkpt>
<trkpt lat="25.018136" lon="102.729969">
<time>2015-09-27T19:19:36Z</time></trkpt>
<trkpt lat="25.017957" lon="102.72941">
<time>2015-09-27T19:19:37Z</time></trkpt>
<trkpt lat="25.017787" lon="102.72889">
<time>2015-09-27T19:19:38Z</time></trkpt>
<trkpt lat="25.017757" lon="102.72878">
<time>2015-09-27T19:19:39Z</time></trkpt>
<trkpt lat="25.017627" lon="102.728361">
<time>2015-09-27T19:19:40Z</time></trkpt>
<trkpt lat="25.017458" lon="102.727692">
<time>2015-09-27T19:19:41Z</time></trkpt>
<trkpt lat="25.017438" lon="102.727522">
<time>2015-09-27T19:19:42Z</time></trkpt>
<trkpt lat="25.017428" lon="102.727462">
<time>2015-09-27T19:19:43Z</time></trkpt>
<trkpt lat="25.017368" lon="102.727093">
<time>2015-09-27T19:19:44Z</time></trkpt>
<trkpt lat="25.017358" lon="102.727033">
<time>2015-09-27T19:19:45Z</time></trkpt>
<trkpt lat="25.017309" lon="102.726643">
<time>2015-09-27T19:19:46Z</time></trkpt>
<trkpt lat="25.017309" lon="102.726583">
<time>2015-09-27T19:19:47Z</time></trkpt>
<trkpt lat="25.017229" lon="102.725954">
<time>2015-09-27T19:19:48Z</time></trkpt>
<trkpt lat="25.017219" lon="102.725894">
<time>2015-09-27T19:19:49Z</time></trkpt>
<trkpt lat="25.01717" lon="102.725505">
<time>2015-09-27T19:19:50Z</time></trkpt>
<trkpt lat="25.01712" lon="102.725165">
<time>2015-09-27T19:19:51Z</time></trkpt>
<trkpt lat="25.01708" lon="102.724866">
<time>2015-09-27T19:19:52Z</time></trkpt>
<trkpt lat="25.01707" lon="102.724796">
<time>2015-09-27T19:19:53Z</time></trkpt>
<trkpt lat="25.017051" lon="102.724536">
<time>2015-09-27T19:19:54Z</time></trkpt>
<trkpt lat="25.017011" lon="102.724167">
<time>2015-09-27T19:19:55Z</time></trkpt>
<trkpt lat="25.016932" lon="102.723398">
<time>2015-09-27T19:19:56Z</time></trkpt>
<trkpt lat="25.016763" lon="102.72177">
<time>2015-09-27T19:19:57Z</time></trkpt>
<trkpt lat="25.016763" lon="102.72174">
<time>2015-09-27T19:19:58Z</time></trkpt>
<trkpt lat="25.016743" lon="102.721571">
<time>2015-09-27T19:19:59Z</time></trkpt>
<trkpt lat="25.016735" lon="102.720273">
<time>2015-09-27T19:20:00Z</time></trkpt>
<trkpt lat="25.016735" lon="102.720183">
<time>2015-09-27T19:20:01Z</time></trkpt>
<trkpt lat="25.016837" lon="102.718506">
<time>2015-09-27T19:20:02Z</time></trkpt>
<trkpt lat="25.016837" lon="102.718386">
<time>2015-09-27T19:20:03Z</time></trkpt>
<trkpt lat="25.016847" lon="102.718326">
<time>2015-09-27T19:20:04Z</time></trkpt>
<trkpt lat="25.016847" lon="102.718266">
<time>2015-09-27T19:20:05Z</time></trkpt>
<trkpt lat="25.016847" lon="102.718256">
<time>2015-09-27T19:20:06Z</time></trkpt>
<trkpt lat="25.016938" lon="102.717018">
<time>2015-09-27T19:20:07Z</time></trkpt>
<trkpt lat="25.017009" lon="102.71593">
<time>2015-09-27T19:20:08Z</time></trkpt>
<trkpt lat="25.01702" lon="102.71585">
<time>2015-09-27T19:20:09Z</time></trkpt>
<trkpt lat="25.01705" lon="102.715331">
<time>2015-09-27T19:20:10Z</time></trkpt>
<trkpt lat="25.01707" lon="102.715131">
<time>2015-09-27T19:20:11Z</time></trkpt>
<trkpt lat="25.01707" lon="102.715071">
<time>2015-09-27T19:20:12Z</time></trkpt>
<trkpt lat="25.017081" lon="102.714992">
<time>2015-09-27T19:20:13Z</time></trkpt>
<trkpt lat="25.017091" lon="102.714722">
<time>2015-09-27T19:20:14Z</time></trkpt>
<trkpt lat="25.017132" lon="102.713534">
<time>2015-09-27T19:20:15Z</time></trkpt>
<trkpt lat="25.017123" lon="102.712975">
<time>2015-09-27T19:20:16Z</time></trkpt>
<trkpt lat="25.017064" lon="102.712336">
<time>2015-09-27T19:20:17Z</time></trkpt>
<trkpt lat="25.016965" lon="102.711358">
<time>2015-09-27T19:20:18Z</time></trkpt>
<trkpt lat="25.016876" lon="102.7104">
<time>2015-09-27T19:20:19Z</time></trkpt>
<trkpt lat="25.016778" lon="102.709482">
<time>2015-09-27T19:20:20Z</time></trkpt>
<trkpt lat="25.016699" lon="102.708683">
<time>2015-09-27T19:20:21Z</time></trkpt>
<trkpt lat="25.01658" lon="102.707566">
<time>2015-09-27T19:20:22Z</time></trkpt>
<trkpt lat="25.01657" lon="102.707436">
<time>2015-09-27T19:20:23Z</time></trkpt>
<trkpt lat="25.016571" lon="102.707346">
<time>2015-09-27T19:20:24Z</time></trkpt>
<trkpt lat="25.016581" lon="102.707276">
<time>2015-09-27T19:20:25Z</time></trkpt>
<trkpt lat="25.016581" lon="102.707206">
<time>2015-09-27T19:20:26Z</time></trkpt>
<trkpt lat="25.016613" lon="102.705969">
<time>2015-09-27T19:20:27Z</time></trkpt>
<trkpt lat="25.016654" lon="102.70516">
<time>2015-09-27T19:20:28Z</time></trkpt>
<trkpt lat="25.016746" lon="102.703604">
<time>2015-09-27T19:20:29Z</time></trkpt>
<trkpt lat="25.016777" lon="102.702845">
<time>2015-09-27T19:20:30Z</time></trkpt>
<trkpt lat="25.016788" lon="102.702386">
<time>2015-09-27T19:20:31Z</time></trkpt>
<trkpt lat="25.016808" lon="102.702087">
<time>2015-09-27T19:20:32Z</time></trkpt>
<trkpt lat="25.016839" lon="102.701748">
<time>2015-09-27T19:20:33Z</time></trkpt>
<trkpt lat="25.016899" lon="102.701388">
<time>2015-09-27T19:20:34Z</time></trkpt>
<trkpt lat="25.017" lon="102.701049">
<time>2015-09-27T19:20:35Z</time></trkpt>
<trkpt lat="25.01709" lon="102.70077">
<time>2015-09-27T19:20:36Z</time></trkpt>
<trkpt lat="25.017201" lon="102.70052">
<time>2015-09-27T19:20:37Z</time></trkpt>
<trkpt lat="25.017231" lon="102.70046">
<time>2015-09-27T19:20:38Z</time></trkpt>
<trkpt lat="25.017231" lon="102.70046">
<time>2015-09-27T19:20:39Z</time></trkpt>
<trkpt lat="25.017271" lon="102.70042">
<time>2015-09-27T19:20:40Z</time></trkpt>
<trkpt lat="25.017311" lon="102.700341">
<time>2015-09-27T19:20:41Z</time></trkpt>
<trkpt lat="25.017401" lon="102.700171">
<time>2015-09-27T19:20:42Z</time></trkpt>
<trkpt lat="25.018203" lon="102.698934">
<time>2015-09-27T19:20:43Z</time></trkpt>
<trkpt lat="25.018524" lon="102.698415">
<time>2015-09-27T19:20:44Z</time></trkpt>
<trkpt lat="25.018574" lon="102.698335">
<time>2015-09-27T19:20:45Z</time></trkpt>
<trkpt lat="25.019035" lon="102.697577">
<time>2015-09-27T19:20:46Z</time></trkpt>
<trkpt lat="25.019997" lon="102.69616">
<time>2015-09-27T19:20:47Z</time></trkpt>
<trkpt lat="25.020268" lon="102.695761">
<time>2015-09-27T19:20:48Z</time></trkpt>
<trkpt lat="25.02097" lon="102.694813">
<time>2015-09-27T19:20:49Z</time></trkpt>
<trkpt lat="25.02116" lon="102.694504">
<time>2015-09-27T19:20:50Z</time></trkpt>
<trkpt lat="25.0212" lon="102.694444">
<time>2015-09-27T19:20:51Z</time></trkpt>
<trkpt lat="25.02127" lon="102.694344">
<time>2015-09-27T19:20:52Z</time></trkpt>
<trkpt lat="25.02131" lon="102.694284">
<time>2015-09-27T19:20:53Z</time></trkpt>
<trkpt lat="25.022223" lon="102.692857">
<time>2015-09-27T19:20:54Z</time></trkpt>
<trkpt lat="25.023045" lon="102.69159">
<time>2015-09-27T19:20:55Z</time></trkpt>
<trkpt lat="25.023687" lon="102.690593">
<time>2015-09-27T19:20:56Z</time></trkpt>
<trkpt lat="25.023947" lon="102.690194">
<time>2015-09-27T19:20:57Z</time></trkpt>
<trkpt lat="25.024128" lon="102.689904">
<time>2015-09-27T19:20:58Z</time></trkpt>
<trkpt lat="25.024168" lon="102.689854">
<time>2015-09-27T19:20:59Z</time></trkpt>
<trkpt lat="25.024198" lon="102.689794">
<time>2015-09-27T19:21:00Z</time></trkpt>
<trkpt lat="25.024689" lon="102.688986">
<time>2015-09-27T19:21:01Z</time></trkpt>
<trkpt lat="25.025" lon="102.688498">
<time>2015-09-27T19:21:02Z</time></trkpt>
<trkpt lat="25.025351" lon="102.687949">
<time>2015-09-27T19:21:03Z</time></trkpt>
<trkpt lat="25.026264" lon="102.686442">
<time>2015-09-27T19:21:04Z</time></trkpt>
<trkpt lat="25.026344" lon="102.686313">
<time>2015-09-27T19:21:05Z</time></trkpt>
<trkpt lat="25.026835" lon="102.685545">
<time>2015-09-27T19:21:06Z</time></trkpt>
<trkpt lat="25.028049" lon="102.683669">
<time>2015-09-27T19:21:07Z</time></trkpt>
<trkpt lat="25.028079" lon="102.683619">
<time>2015-09-27T19:21:08Z</time></trkpt>
<trkpt lat="25.0285" lon="102.682961">
<time>2015-09-27T19:21:09Z</time></trkpt>
<trkpt lat="25.029152" lon="102.681933">
<time>2015-09-27T19:21:10Z</time></trkpt>
<trkpt lat="25.029152" lon="102.681933">
<time>2015-09-27T19:21:11Z</time></trkpt>
<trkpt lat="25.029192" lon="102.681883">
<time>2015-09-27T19:21:12Z</time></trkpt>
<trkpt lat="25.029352" lon="102.681624">
<time>2015-09-27T19:21:13Z</time></trkpt>
<trkpt lat="25.029412" lon="102.681544">
<time>2015-09-27T19:21:14Z</time></trkpt>
<trkpt lat="25.029462" lon="102.681455">
<time>2015-09-27T19:21:15Z</time></trkpt>
<trkpt lat="25.029984" lon="102.680656">
<time>2015-09-27T19:21:16Z</time></trkpt>
<trkpt lat="25.030545" lon="102.679829">
<time>2015-09-27T19:21:17Z</time></trkpt>
<trkpt lat="25.031117" lon="102.67902">
<time>2015-09-27T19:21:18Z</time></trkpt>
<trkpt lat="25.031167" lon="102.678921">
<time>2015-09-27T19:21:19Z</time></trkpt>
<trkpt lat="25.031177" lon="102.678891">
<time>2015-09-27T19:21:20Z</time></trkpt>
<trkpt lat="25.031197" lon="102.678851">
<time>2015-09-27T19:21:21Z</time></trkpt>
<trkpt lat="25.031197" lon="102.678841">
<time>2015-09-27T19:21:22Z</time></trkpt>
<trkpt lat="25.031217" lon="102.678791">
<time>2015-09-27T19:21:23Z</time></trkpt>
<trkpt lat="25.031227" lon="102.678731">
<time>2015-09-27T19:21:24Z</time></trkpt>
<trkpt lat="25.031227" lon="102.678731">
<time>2015-09-27T19:21:25Z</time></trkpt>
<trkpt lat="25.031358" lon="102.678522">
<time>2015-09-27T19:21:26Z</time></trkpt>
<trkpt lat="25.031699" lon="102.677983">
<time>2015-09-27T19:21:27Z</time></trkpt>
<trkpt lat="25.03227" lon="102.677105">
<time>2015-09-27T19:21:28Z</time></trkpt>
<trkpt lat="25.032441" lon="102.676846">
<time>2015-09-27T19:21:29Z</time></trkpt>
<trkpt lat="25.032501" lon="102.676756">
<time>2015-09-27T19:21:30Z</time></trkpt>
<trkpt lat="25.033103" lon="102.675798">
<time>2015-09-27T19:21:31Z</time></trkpt>
<trkpt lat="25.033343" lon="102.675399">
<time>2015-09-27T19:21:32Z</time></trkpt>
<trkpt lat="25.033564" lon="102.67502">
<time>2015-09-27T19:21:33Z</time></trkpt>
<trkpt lat="25.033725" lon="102.674671">
<time>2015-09-27T19:21:34Z</time></trkpt>
<trkpt lat="25.033825" lon="102.674422">
<time>2015-09-27T19:21:35Z</time></trkpt>
<trkpt lat="25.033956" lon="102.674043">
<time>2015-09-27T19:21:36Z</time></trkpt>
<trkpt lat="25.033996" lon="102.673943">
<time>2015-09-27T19:21:37Z</time></trkpt>
<trkpt lat="25.034057" lon="102.673694">
<time>2015-09-27T19:21:38Z</time></trkpt>
<trkpt lat="25.034127" lon="102.673384">
<time>2015-09-27T19:21:39Z</time></trkpt>
<trkpt lat="25.034157" lon="102.673255">
<time>2015-09-27T19:21:40Z</time></trkpt>
<trkpt lat="25.034198" lon="102.673045">
<time>2015-09-27T19:21:41Z</time></trkpt>
<trkpt lat="25.034228" lon="102.672766">
<time>2015-09-27T19:21:42Z</time></trkpt>
<trkpt lat="25.034229" lon="102.672646">
<time>2015-09-27T19:21:43Z</time></trkpt>
<trkpt lat="25.034229" lon="102.672586">
<time>2015-09-27T19:21:44Z</time></trkpt>
<trkpt lat="25.03422" lon="102.672108">
<time>2015-09-27T19:21:45Z</time></trkpt>
<trkpt lat="25.03423" lon="102.671749">
<time>2015-09-27T19:21:46Z</time></trkpt>
<trkpt lat="25.034191" lon="102.671469">
<time>2015-09-27T19:21:47Z</time></trkpt>
<trkpt lat="25.034151" lon="102.67124">
<time>2015-09-27T19:21:48Z</time></trkpt>
<trkpt lat="25.034052" lon="102.670851">
<time>2015-09-27T19:21:49Z</time></trkpt>
<trkpt lat="25.034042" lon="102.670831">
<time>2015-09-27T19:21:50Z</time></trkpt>
<trkpt lat="25.033953" lon="102.670502">
<time>2015-09-27T19:21:51Z</time></trkpt>
<trkpt lat="25.033834" lon="102.670103">
<time>2015-09-27T19:21:52Z</time></trkpt>
<trkpt lat="25.033595" lon="102.669235">
<time>2015-09-27T19:21:53Z</time></trkpt>
<trkpt lat="25.033585" lon="102.669185">
<time>2015-09-27T19:21:54Z</time></trkpt>
<trkpt lat="25.033446" lon="102.668666">
<time>2015-09-27T19:21:55Z</time></trkpt>
<trkpt lat="25.033407" lon="102.668537">
<time>2015-09-27T19:21:56Z</time></trkpt>
<trkpt lat="25.033367" lon="102.668397">
<time>2015-09-27T19:21:57Z</time></trkpt>
<trkpt lat="25.033238" lon="102.667938">
<time>2015-09-27T19:21:58Z</time></trkpt>
<trkpt lat="25.033178" lon="102.667739">
<time>2015-09-27T19:21:59Z</time></trkpt>
<trkpt lat="25.033059" lon="102.66735">
<time>2015-09-27T19:22:00Z</time></trkpt>
<trkpt lat="25.03285" lon="102.666691">
<time>2015-09-27T19:22:01Z</time></trkpt>
<trkpt lat="25.032691" lon="102.666183">
<time>2015-09-27T19:22:02Z</time></trkpt>
<trkpt lat="25.032632" lon="102.665963">
<time>2015-09-27T19:22:03Z</time></trkpt>
<trkpt lat="25.032373" lon="102.665145">
<time>2015-09-27T19:22:04Z</time></trkpt>
<trkpt lat="25.031608" lon="102.662701">
<time>2015-09-27T19:22:05Z</time></trkpt>
<trkpt lat="25.030932" lon="102.660527">
<time>2015-09-27T19:22:06Z</time></trkpt>
<trkpt lat="25.030912" lon="102.660477">
<time>2015-09-27T19:22:07Z</time></trkpt>
<trkpt lat="25.030048" lon="102.657634">
<time>2015-09-27T19:22:08Z</time></trkpt>
<trkpt lat="25.02967" lon="102.656417">
<time>2015-09-27T19:22:09Z</time></trkpt>
<trkpt lat="25.029451" lon="102.655688">
<time>2015-09-27T19:22:10Z</time></trkpt>
<trkpt lat="25.029123" lon="102.654591">
<time>2015-09-27T19:22:11Z</time></trkpt>
<trkpt lat="25.028825" lon="102.653573">
<time>2015-09-27T19:22:12Z</time></trkpt>
<trkpt lat="25.028765" lon="102.653364">
<time>2015-09-27T19:22:13Z</time></trkpt>
<trkpt lat="25.028716" lon="102.653204">
<time>2015-09-27T19:22:14Z</time></trkpt>
<trkpt lat="25.028686" lon="102.653085">
<time>2015-09-27T19:22:15Z</time></trkpt>
<trkpt lat="25.028646" lon="102.652965">
<time>2015-09-27T19:22:16Z</time></trkpt>
<trkpt lat="25.028567" lon="102.652665">
<time>2015-09-27T19:22:17Z</time></trkpt>
<trkpt lat="25.028328" lon="102.651917">
<time>2015-09-27T19:22:18Z</time></trkpt>
<trkpt lat="25.027264" lon="102.648435">
<time>2015-09-27T19:22:19Z</time></trkpt>
<trkpt lat="25.027234" lon="102.648355">
<time>2015-09-27T19:22:20Z</time></trkpt>
<trkpt lat="25.027165" lon="102.648106">
<time>2015-09-27T19:22:21Z</time></trkpt>
<trkpt lat="25.027095" lon="102.647887">
<time>2015-09-27T19:22:22Z</time></trkpt>
<trkpt lat="25.026986" lon="102.647567">
<time>2015-09-27T19:22:23Z</time></trkpt>
<trkpt lat="25.026886" lon="102.647338">
<time>2015-09-27T19:22:24Z</time></trkpt>
<trkpt lat="25.026797" lon="102.647148">
<time>2015-09-27T19:22:25Z</time></trkpt>
<trkpt lat="25.026577" lon="102.646719">
<time>2015-09-27T19:22:26Z</time></trkpt>
<trkpt lat="25.026338" lon="102.6463">
<time>2015-09-27T19:22:27Z</time></trkpt>
<trkpt lat="25.026049" lon="102.645811">
<time>2015-09-27T19:22:28Z</time></trkpt>
<trkpt lat="25.026019" lon="102.645761">
<time>2015-09-27T19:22:29Z</time></trkpt>
<trkpt lat="25.0257" lon="102.645212">
<time>2015-09-27T19:22:30Z</time></trkpt>
<trkpt lat="25.024813" lon="102.643616">
<time>2015-09-27T19:22:31Z</time></trkpt>
<trkpt lat="25.024763" lon="102.643536">
<time>2015-09-27T19:22:32Z</time></trkpt>
<trkpt lat="25.024673" lon="102.643386">
<time>2015-09-27T19:22:33Z</time></trkpt>
<trkpt lat="25.022948" lon="102.640433">
<time>2015-09-27T19:22:34Z</time></trkpt>
<trkpt lat="25.02223" lon="102.639185">
<time>2015-09-27T19:22:35Z</time></trkpt>
<trkpt lat="25.021592" lon="102.638088">
<time>2015-09-27T19:22:36Z</time></trkpt>
<trkpt lat="25.021432" lon="102.637808">
<time>2015-09-27T19:22:37Z</time></trkpt>
<trkpt lat="25.021223" lon="102.637459">
<time>2015-09-27T19:22:38Z</time></trkpt>
<trkpt lat="25.021023" lon="102.63711">
<time>2015-09-27T19:22:39Z</time></trkpt>
<trkpt lat="25.020784" lon="102.63671">
<time>2015-09-27T19:22:40Z</time></trkpt>
<trkpt lat="25.020076" lon="102.635513">
<time>2015-09-27T19:22:41Z</time></trkpt>
<trkpt lat="25.020046" lon="102.635463">
<time>2015-09-27T19:22:42Z</time></trkpt>
<trkpt lat="25.019427" lon="102.634395">
<time>2015-09-27T19:22:43Z</time></trkpt>
<trkpt lat="25.019318" lon="102.634205">
<time>2015-09-27T19:22:44Z</time></trkpt>
<trkpt lat="25.019258" lon="102.634115">
<time>2015-09-27T19:22:45Z</time></trkpt>
<trkpt lat="25.019088" lon="102.633836">
<time>2015-09-27T19:22:46Z</time></trkpt>
<trkpt lat="25.018939" lon="102.633606">
<time>2015-09-27T19:22:47Z</time></trkpt>
<trkpt lat="25.018739" lon="102.633337">
<time>2015-09-27T19:22:48Z</time></trkpt>
<trkpt lat="25.018459" lon="102.632978">
<time>2015-09-27T19:22:49Z</time></trkpt>
<trkpt lat="25.01814" lon="102.632618">
<time>2015-09-27T19:22:50Z</time></trkpt>
<trkpt lat="25.01792" lon="102.632399">
<time>2015-09-27T19:22:51Z</time></trkpt>
<trkpt lat="25.017601" lon="102.632089">
<time>2015-09-27T19:22:52Z</time></trkpt>
<trkpt lat="25.017311" lon="102.63185">
<time>2015-09-27T19:22:53Z</time></trkpt>
<trkpt lat="25.017171" lon="102.63174">
<time>2015-09-27T19:22:54Z</time></trkpt>
<trkpt lat="25.016772" lon="102.63147">
<time>2015-09-27T19:22:55Z</time></trkpt>
<trkpt lat="25.016092" lon="102.631101">
<time>2015-09-27T19:22:56Z</time></trkpt>
<trkpt lat="25.016052" lon="102.631081">
<time>2015-09-27T19:22:57Z</time></trkpt>
<trkpt lat="25.015383" lon="102.630712">
<time>2015-09-27T19:22:58Z</time></trkpt>
<trkpt lat="25.014843" lon="102.630412">
<time>2015-09-27T19:22:59Z</time></trkpt>
<trkpt lat="25.012235" lon="102.628995">
<time>2015-09-27T19:23:00Z</time></trkpt>
<trkpt lat="25.010307" lon="102.627937">
<time>2015-09-27T19:23:01Z</time></trkpt>
<trkpt lat="25.009617" lon="102.627587">
<time>2015-09-27T19:23:02Z</time></trkpt>
<trkpt lat="25.009158" lon="102.627358">
<time>2015-09-27T19:23:03Z</time></trkpt>
<trkpt lat="25.008298" lon="102.627008">
<time>2015-09-27T19:23:04Z</time></trkpt>
<trkpt lat="25.007589" lon="102.626759">
<time>2015-09-27T19:23:05Z</time></trkpt>
<trkpt lat="25.006979" lon="102.626559">
<time>2015-09-27T19:23:06Z</time></trkpt>
<trkpt lat="25.00478" lon="102.62596">
<time>2015-09-27T19:23:07Z</time></trkpt>
<trkpt lat="25.003041" lon="102.625481">
<time>2015-09-27T19:23:08Z</time></trkpt>
<trkpt lat="25.002891" lon="102.625431">
<time>2015-09-27T19:23:09Z</time></trkpt>
<trkpt lat="25.002261" lon="102.625271">
<time>2015-09-27T19:23:10Z</time></trkpt>
<trkpt lat="25.001591" lon="102.625082">
<time>2015-09-27T19:23:11Z</time></trkpt>
<trkpt lat="25.001322" lon="102.625012">
<time>2015-09-27T19:23:12Z</time></trkpt>
<trkpt lat="25.000682" lon="102.624842">
<time>2015-09-27T19:23:13Z</time></trkpt>
<trkpt lat="25.000552" lon="102.624802">
<time>2015-09-27T19:23:14Z</time></trkpt>
<trkpt lat="25.000172" lon="102.624692">
<time>2015-09-27T19:23:15Z</time></trkpt>
<trkpt lat="25.000012" lon="102.624652">
<time>2015-09-27T19:23:16Z</time></trkpt>
<trkpt lat="24.999762" lon="102.624582">
<time>2015-09-27T19:23:17Z</time></trkpt>
<trkpt lat="24.999542" lon="102.624493">
<time>2015-09-27T19:23:18Z</time></trkpt>
<trkpt lat="24.999193" lon="102.624343">
<time>2015-09-27T19:23:19Z</time></trkpt>
<trkpt lat="24.998993" lon="102.624243">
<time>2015-09-27T19:23:20Z</time></trkpt>
<trkpt lat="24.998713" lon="102.624083">
<time>2015-09-27T19:23:21Z</time></trkpt>
<trkpt lat="24.998383" lon="102.623893">
<time>2015-09-27T19:23:22Z</time></trkpt>
<trkpt lat="24.998223" lon="102.623774">
<time>2015-09-27T19:23:23Z</time></trkpt>
<trkpt lat="24.997973" lon="102.623604">
<time>2015-09-27T19:23:24Z</time></trkpt>
<trkpt lat="24.997834" lon="102.623494">
<time>2015-09-27T19:23:25Z</time></trkpt>
<trkpt lat="24.997814" lon="102.623474">
<time>2015-09-27T19:23:26Z</time></trkpt>
<trkpt lat="24.997684" lon="102.623364">
<time>2015-09-27T19:23:27Z</time></trkpt>
<trkpt lat="24.997464" lon="102.623195">
<time>2015-09-27T19:23:28Z</time></trkpt>
<trkpt lat="24.997454" lon="102.623175">
<time>2015-09-27T19:23:29Z</time></trkpt>
<trkpt lat="24.997084" lon="102.622825">
<time>2015-09-27T19:23:30Z</time></trkpt>
<trkpt lat="24.996735" lon="102.622426">
<time>2015-09-27T19:23:31Z</time></trkpt>
<trkpt lat="24.996705" lon="102.622386">
<time>2015-09-27T19:23:32Z</time></trkpt>
<trkpt lat="24.996475" lon="102.622096">
<time>2015-09-27T19:23:33Z</time></trkpt>
<trkpt lat="24.996455" lon="102.622066">
<time>2015-09-27T19:23:34Z</time></trkpt>
<trkpt lat="24.996246" lon="102.621717">
<time>2015-09-27T19:23:35Z</time></trkpt>
<trkpt lat="24.996016" lon="102.621297">
<time>2015-09-27T19:23:36Z</time></trkpt>
<trkpt lat="24.995996" lon="102.621247">
<time>2015-09-27T19:23:37Z</time></trkpt>
<trkpt lat="24.995976" lon="102.621188">
<time>2015-09-27T19:23:38Z</time></trkpt>
<trkpt lat="24.995877" lon="102.620908">
<time>2015-09-27T19:23:39Z</time></trkpt>
<trkpt lat="24.995747" lon="102.620489">
<time>2015-09-27T19:23:40Z</time></trkpt>
<trkpt lat="24.995687" lon="102.620169">
<time>2015-09-27T19:23:41Z</time></trkpt>
<trkpt lat="24.995648" lon="102.619899">
<time>2015-09-27T19:23:42Z</time></trkpt>
<trkpt lat="24.995648" lon="102.619849">
<time>2015-09-27T19:23:43Z</time></trkpt>
<trkpt lat="24.995618" lon="102.61943">
<time>2015-09-27T19:23:44Z</time></trkpt>
<trkpt lat="24.995608" lon="102.6193">
<time>2015-09-27T19:23:45Z</time></trkpt>
<trkpt lat="24.995608" lon="102.61918">
<time>2015-09-27T19:23:46Z</time></trkpt>
<trkpt lat="24.995598" lon="102.618891">
<time>2015-09-27T19:23:47Z</time></trkpt>
<trkpt lat="24.995629" lon="102.618291">
<time>2015-09-27T19:23:48Z</time></trkpt>
<trkpt lat="24.99565" lon="102.617582">
<time>2015-09-27T19:23:49Z</time></trkpt>
<trkpt lat="24.99567" lon="102.617043">
<time>2015-09-27T19:23:50Z</time></trkpt>
<trkpt lat="24.99567" lon="102.617043">
<time>2015-09-27T19:23:51Z</time></trkpt>
<trkpt lat="24.995691" lon="102.616404">
<time>2015-09-27T19:23:52Z</time></trkpt>
<trkpt lat="24.995701" lon="102.616374">
<time>2015-09-27T19:23:53Z</time></trkpt>
<trkpt lat="24.995762" lon="102.614936">
<time>2015-09-27T19:23:54Z</time></trkpt>
<trkpt lat="24.995813" lon="102.613387">
<time>2015-09-27T19:23:55Z</time></trkpt>
<trkpt lat="24.995833" lon="102.612928">
<time>2015-09-27T19:23:56Z</time></trkpt>
<trkpt lat="24.995823" lon="102.612478">
<time>2015-09-27T19:23:57Z</time></trkpt>
<trkpt lat="24.995784" lon="102.612169">
<time>2015-09-27T19:23:58Z</time></trkpt>
<trkpt lat="24.995714" lon="102.611899">
<time>2015-09-27T19:23:59Z</time></trkpt>
<trkpt lat="24.995624" lon="102.611659">
<time>2015-09-27T19:24:00Z</time></trkpt>
<trkpt lat="24.995524" lon="102.611429">
<time>2015-09-27T19:24:01Z</time></trkpt>
<trkpt lat="24.995404" lon="102.61123">
<time>2015-09-27T19:24:02Z</time></trkpt>
<trkpt lat="24.995264" lon="102.61105">
<time>2015-09-27T19:24:03Z</time></trkpt>
<trkpt lat="24.995115" lon="102.61085">
<time>2015-09-27T19:24:04Z</time></trkpt>
<trkpt lat="24.994985" lon="102.61071">
<time>2015-09-27T19:24:05Z</time></trkpt>
<trkpt lat="24.994875" lon="102.61061">
<time>2015-09-27T19:24:06Z</time></trkpt>
<trkpt lat="24.994775" lon="102.61052">
<time>2015-09-27T19:24:07Z</time></trkpt>
<trkpt lat="24.994675" lon="102.61045">
<time>2015-09-27T19:24:08Z</time></trkpt>
<trkpt lat="24.994305" lon="102.610221">
<time>2015-09-27T19:24:09Z</time></trkpt>
<trkpt lat="24.994025" lon="102.610021">
<time>2015-09-27T19:24:10Z</time></trkpt>
<trkpt lat="24.993865" lon="102.609891">
<time>2015-09-27T19:24:11Z</time></trkpt>
<trkpt lat="24.993725" lon="102.609751">
<time>2015-09-27T19:24:12Z</time></trkpt>
<trkpt lat="24.993556" lon="102.609571">
<time>2015-09-27T19:24:13Z</time></trkpt>
<trkpt lat="24.993416" lon="102.609371">
<time>2015-09-27T19:24:14Z</time></trkpt>
<trkpt lat="24.993266" lon="102.609132">
<time>2015-09-27T19:24:15Z</time></trkpt>
<trkpt lat="24.992926" lon="102.608382">
<time>2015-09-27T19:24:16Z</time></trkpt>
<trkpt lat="24.992846" lon="102.608212">
<time>2015-09-27T19:24:17Z</time></trkpt>
<trkpt lat="24.992746" lon="102.608023">
<time>2015-09-27T19:24:18Z</time></trkpt>
<trkpt lat="24.992647" lon="102.607863">
<time>2015-09-27T19:24:19Z</time></trkpt>
<trkpt lat="24.992547" lon="102.607713">
<time>2015-09-27T19:24:20Z</time></trkpt>
<trkpt lat="24.992427" lon="102.607563">
<time>2015-09-27T19:24:21Z</time></trkpt>
<trkpt lat="24.992297" lon="102.607433">
<time>2015-09-27T19:24:22Z</time></trkpt>
<trkpt lat="24.992167" lon="102.607323">
<time>2015-09-27T19:24:23Z</time></trkpt>
<trkpt lat="24.992047" lon="102.607233">
<time>2015-09-27T19:24:24Z</time></trkpt>
<trkpt lat="24.991857" lon="102.607113">
<time>2015-09-27T19:24:25Z</time></trkpt>
<trkpt lat="24.991637" lon="102.606974">
<time>2015-09-27T19:24:26Z</time></trkpt>
<trkpt lat="24.991407" lon="102.606834">
<time>2015-09-27T19:24:27Z</time></trkpt>
<trkpt lat="24.991217" lon="102.606724">
<time>2015-09-27T19:24:28Z</time></trkpt>
<trkpt lat="24.991147" lon="102.606674">
<time>2015-09-27T19:24:29Z</time></trkpt>
<trkpt lat="24.991077" lon="102.606624">
<time>2015-09-27T19:24:30Z</time></trkpt>
<trkpt lat="24.991017" lon="102.606564">
<time>2015-09-27T19:24:31Z</time></trkpt>
<trkpt lat="24.990937" lon="102.606484">
<time>2015-09-27T19:24:32Z</time></trkpt>
<trkpt lat="24.990578" lon="102.606044">
<time>2015-09-27T19:24:33Z</time></trkpt>
<trkpt lat="24.990518" lon="102.605964">
<time>2015-09-27T19:24:34Z</time></trkpt>
<trkpt lat="24.990288" lon="102.605665">
<time>2015-09-27T19:24:35Z</time></trkpt>
<trkpt lat="24.990258" lon="102.605615">
<time>2015-09-27T19:24:36Z</time></trkpt>
<trkpt lat="24.989608" lon="102.604665">
<time>2015-09-27T19:24:37Z</time></trkpt>
<trkpt lat="24.989328" lon="102.604256">
<time>2015-09-27T19:24:38Z</time></trkpt>
<trkpt lat="24.988849" lon="102.603546">
<time>2015-09-27T19:24:39Z</time></trkpt>
<trkpt lat="24.988359" lon="102.602867">
<time>2015-09-27T19:24:40Z</time></trkpt>
<trkpt lat="24.988179" lon="102.602657">
<time>2015-09-27T19:24:41Z</time></trkpt>
<trkpt lat="24.987979" lon="102.602457">
<time>2015-09-27T19:24:42Z</time></trkpt>
<trkpt lat="24.987729" lon="102.602237">
<time>2015-09-27T19:24:43Z</time></trkpt>
<trkpt lat="24.987489" lon="102.602067">
<time>2015-09-27T19:24:44Z</time></trkpt>
<trkpt lat="24.987289" lon="102.601937">
<time>2015-09-27T19:24:45Z</time></trkpt>
<trkpt lat="24.986799" lon="102.601697">
<time>2015-09-27T19:24:46Z</time></trkpt>
<trkpt lat="24.98615" lon="102.601367">
<time>2015-09-27T19:24:47Z</time></trkpt>
<trkpt lat="24.98482" lon="102.600688">
<time>2015-09-27T19:24:48Z</time></trkpt>
<trkpt lat="24.98407" lon="102.600318">
<time>2015-09-27T19:24:49Z</time></trkpt>
<trkpt lat="24.98363" lon="102.600068">
<time>2015-09-27T19:24:50Z</time></trkpt>
<trkpt lat="24.98302" lon="102.599818">
<time>2015-09-27T19:24:51Z</time></trkpt>
<trkpt lat="24.98249" lon="102.599578">
<time>2015-09-27T19:24:52Z</time></trkpt>
<trkpt lat="24.98197" lon="102.599439">
<time>2015-09-27T19:24:53Z</time></trkpt>
<trkpt lat="24.981441" lon="102.599309">
<time>2015-09-27T19:24:54Z</time></trkpt>
<trkpt lat="24.981001" lon="102.599249">
<time>2015-09-27T19:24:55Z</time></trkpt>
<trkpt lat="24.980911" lon="102.599239">
<time>2015-09-27T19:24:56Z</time></trkpt>
<trkpt lat="24.980671" lon="102.599239">
<time>2015-09-27T19:24:57Z</time></trkpt>
<trkpt lat="24.979741" lon="102.599169">
<time>2015-09-27T19:24:58Z</time></trkpt>
<trkpt lat="24.979221" lon="102.599069">
<time>2015-09-27T19:24:59Z</time></trkpt>
<trkpt lat="24.978951" lon="102.599009">
<time>2015-09-27T19:25:00Z</time></trkpt>
<trkpt lat="24.978611" lon="102.598909">
<time>2015-09-27T19:25:01Z</time></trkpt>
<trkpt lat="24.978531" lon="102.598879">
<time>2015-09-27T19:25:02Z</time></trkpt>
<trkpt lat="24.978271" lon="102.598779">
<time>2015-09-27T19:25:03Z</time></trkpt>
<trkpt lat="24.977921" lon="102.598639">
<time>2015-09-27T19:25:04Z</time></trkpt>
<trkpt lat="24.977841" lon="102.598609">
<time>2015-09-27T19:25:05Z</time></trkpt>
<trkpt lat="24.977201" lon="102.598379">
<time>2015-09-27T19:25:06Z</time></trkpt>
<trkpt lat="24.976121" lon="102.597989">
<time>2015-09-27T19:25:07Z</time></trkpt>
<trkpt lat="24.975521" lon="102.597769">
<time>2015-09-27T19:25:08Z</time></trkpt>
<trkpt lat="24.974492" lon="102.59739">
<time>2015-09-27T19:25:09Z</time></trkpt>
<trkpt lat="24.974142" lon="102.59723">
<time>2015-09-27T19:25:10Z</time></trkpt>
<trkpt lat="24.974012" lon="102.59717">
<time>2015-09-27T19:25:11Z</time></trkpt>
<trkpt lat="24.973972" lon="102.59716">
<time>2015-09-27T19:25:12Z</time></trkpt>
<trkpt lat="24.973562" lon="102.59696">
<time>2015-09-27T19:25:13Z</time></trkpt>
<trkpt lat="24.973012" lon="102.59667">
<time>2015-09-27T19:25:14Z</time></trkpt>
<trkpt lat="24.972632" lon="102.59643">
<time>2015-09-27T19:25:15Z</time></trkpt>
<trkpt lat="24.971712" lon="102.59591">
<time>2015-09-27T19:25:16Z</time></trkpt>
<trkpt lat="24.969912" lon="102.5949">
<time>2015-09-27T19:25:17Z</time></trkpt>
<trkpt lat="24.969632" lon="102.59474">
<time>2015-09-27T19:25:18Z</time></trkpt>
<trkpt lat="24.968622" lon="102.594181">
<time>2015-09-27T19:25:19Z</time></trkpt>
<trkpt lat="24.968552" lon="102.594141">
<time>2015-09-27T19:25:20Z</time></trkpt>
<trkpt lat="24.967402" lon="102.593501">
<time>2015-09-27T19:25:21Z</time></trkpt>
<trkpt lat="24.967302" lon="102.593441">
<time>2015-09-27T19:25:22Z</time></trkpt>
<trkpt lat="24.966772" lon="102.593131">
<time>2015-09-27T19:25:23Z</time></trkpt>
<trkpt lat="24.966052" lon="102.592721">
<time>2015-09-27T19:25:24Z</time></trkpt>
<trkpt lat="24.966032" lon="102.592711">
<time>2015-09-27T19:25:25Z</time></trkpt>
<trkpt lat="24.965292" lon="102.592301">
<time>2015-09-27T19:25:26Z</time></trkpt>
<trkpt lat="24.964872" lon="102.592061">
<time>2015-09-27T19:25:27Z</time></trkpt>
<trkpt lat="24.964552" lon="102.591911">
<time>2015-09-27T19:25:28Z</time></trkpt>
<trkpt lat="24.964162" lon="102.591771">
<time>2015-09-27T19:25:29Z</time></trkpt>
<trkpt lat="24.963742" lon="102.591631">
<time>2015-09-27T19:25:30Z</time></trkpt>
<trkpt lat="24.963252" lon="102.591501">
<time>2015-09-27T19:25:31Z</time></trkpt>
<trkpt lat="24.962813" lon="102.591381">
<time>2015-09-27T19:25:32Z</time></trkpt>
<trkpt lat="24.962193" lon="102.591241">
<time>2015-09-27T19:25:33Z</time></trkpt>
<trkpt lat="24.961733" lon="102.591161">
<time>2015-09-27T19:25:34Z</time></trkpt>
<trkpt lat="24.960613" lon="102.590951">
<time>2015-09-27T19:25:35Z</time></trkpt>
<trkpt lat="24.959983" lon="102.590791">
<time>2015-09-27T19:25:36Z</time></trkpt>
<trkpt lat="24.959863" lon="102.590761">
<time>2015-09-27T19:25:37Z</time></trkpt>
<trkpt lat="24.959583" lon="102.590661">
<time>2015-09-27T19:25:38Z</time></trkpt>
<trkpt lat="24.959443" lon="102.590601">
<time>2015-09-27T19:25:39Z</time></trkpt>
<trkpt lat="24.959353" lon="102.590571">
<time>2015-09-27T19:25:40Z</time></trkpt>
<trkpt lat="24.959243" lon="102.590521">
<time>2015-09-27T19:25:41Z</time></trkpt>
<trkpt lat="24.959143" lon="102.590481">
<time>2015-09-27T19:25:42Z</time></trkpt>
<trkpt lat="24.958863" lon="102.590321">
<time>2015-09-27T19:25:43Z</time></trkpt>
<trkpt lat="24.958753" lon="102.590251">
<time>2015-09-27T19:25:44Z</time></trkpt>
<trkpt lat="24.958293" lon="102.590021">
<time>2015-09-27T19:25:45Z</time></trkpt>
<trkpt lat="24.957843" lon="102.589821">
<time>2015-09-27T19:25:46Z</time></trkpt>
<trkpt lat="24.957843" lon="102.589821">
<time>2015-09-27T19:25:47Z</time></trkpt>
<trkpt lat="24.957333" lon="102.589501">
<time>2015-09-27T19:25:48Z</time></trkpt>
<trkpt lat="24.956603" lon="102.589041">
<time>2015-09-27T19:25:49Z</time></trkpt>
<trkpt lat="24.956333" lon="102.588921">
<time>2015-09-27T19:25:50Z</time></trkpt>
<trkpt lat="24.955943" lon="102.588771">
<time>2015-09-27T19:25:51Z</time></trkpt>
<trkpt lat="24.954663" lon="102.588311">
<time>2015-09-27T19:25:52Z</time></trkpt>
<trkpt lat="24.954453" lon="102.588231">
<time>2015-09-27T19:25:53Z</time></trkpt>
<trkpt lat="24.954233" lon="102.588131">
<time>2015-09-27T19:25:54Z</time></trkpt>
<trkpt lat="24.954083" lon="102.588041">
<time>2015-09-27T19:25:55Z</time></trkpt>
<trkpt lat="24.954013" lon="102.587971">
<time>2015-09-27T19:25:56Z</time></trkpt>
<trkpt lat="24.953933" lon="102.587851">
<time>2015-09-27T19:25:57Z</time></trkpt>
<trkpt lat="24.953883" lon="102.587751">
<time>2015-09-27T19:25:58Z</time></trkpt>
<trkpt lat="24.953842" lon="102.587611">
<time>2015-09-27T19:25:59Z</time></trkpt>
<trkpt lat="24.953832" lon="102.587421">
<time>2015-09-27T19:26:00Z</time></trkpt>
<trkpt lat="24.953842" lon="102.587221">
<time>2015-09-27T19:26:01Z</time></trkpt>
<trkpt lat="24.953872" lon="102.586961">
<time>2015-09-27T19:26:02Z</time></trkpt>
<trkpt lat="24.953922" lon="102.586721">
<time>2015-09-27T19:26:03Z</time></trkpt>
<trkpt lat="24.954062" lon="102.586131">
<time>2015-09-27T19:26:04Z</time></trkpt>
<trkpt lat="24.954062" lon="102.586131">
<time>2015-09-27T19:26:05Z</time></trkpt>
<trkpt lat="24.954042" lon="102.586051">
<time>2015-09-27T19:26:06Z</time></trkpt>
<trkpt lat="24.954032" lon="102.585951">
<time>2015-09-27T19:26:07Z</time></trkpt>
<trkpt lat="24.954022" lon="102.585871">
<time>2015-09-27T19:26:08Z</time></trkpt>
<trkpt lat="24.954022" lon="102.585771">
<time>2015-09-27T19:26:09Z</time></trkpt>
<trkpt lat="24.954032" lon="102.585681">
<time>2015-09-27T19:26:10Z</time></trkpt>
<trkpt lat="24.954052" lon="102.585571">
<time>2015-09-27T19:26:11Z</time></trkpt>
<trkpt lat="24.954071" lon="102.585471">
<time>2015-09-27T19:26:12Z</time></trkpt>
<trkpt lat="24.954091" lon="102.585381">
<time>2015-09-27T19:26:13Z</time></trkpt>
<trkpt lat="24.954101" lon="102.585341">
<time>2015-09-27T19:26:14Z</time></trkpt>
<trkpt lat="24.954341" lon="102.58464">
<time>2015-09-27T19:26:15Z</time></trkpt>
<trkpt lat="24.954401" lon="102.58446">
<time>2015-09-27T19:26:16Z</time></trkpt>
<trkpt lat="24.954421" lon="102.58438">
<time>2015-09-27T19:26:17Z</time></trkpt>
<trkpt lat="24.954441" lon="102.58431">
<time>2015-09-27T19:26:18Z</time></trkpt>
<trkpt lat="24.954461" lon="102.58418">
<time>2015-09-27T19:26:19Z</time></trkpt>
<trkpt lat="24.954461" lon="102.58418">
<time>2015-09-27T19:26:20Z</time></trkpt>
<trkpt lat="24.954621" lon="102.58377">
<time>2015-09-27T19:26:21Z</time></trkpt>
<trkpt lat="24.95495" lon="102.58292">
<time>2015-09-27T19:26:22Z</time></trkpt>
<trkpt lat="24.95502" lon="102.58275">
<time>2015-09-27T19:26:23Z</time></trkpt>
<trkpt lat="24.955319" lon="102.582009">
<time>2015-09-27T19:26:24Z</time></trkpt>
<trkpt lat="24.955389" lon="102.581829">
<time>2015-09-27T19:26:25Z</time></trkpt>
<trkpt lat="24.955679" lon="102.581159">
<time>2015-09-27T19:26:26Z</time></trkpt>
<trkpt lat="24.955978" lon="102.580539">
<time>2015-09-27T19:26:27Z</time></trkpt>
<trkpt lat="24.956178" lon="102.580178">
<time>2015-09-27T19:26:28Z</time></trkpt>
<trkpt lat="24.956208" lon="102.580118">
<time>2015-09-27T19:26:29Z</time></trkpt>
<trkpt lat="24.956637" lon="102.579228">
<time>2015-09-27T19:26:30Z</time></trkpt>
<trkpt lat="24.957525" lon="102.577076">
<time>2015-09-27T19:26:31Z</time></trkpt>
<trkpt lat="24.957745" lon="102.576556">
<time>2015-09-27T19:26:32Z</time></trkpt>
<trkpt lat="24.957884" lon="102.576206">
<time>2015-09-27T19:26:33Z</time></trkpt>
<trkpt lat="24.957984" lon="102.575976">
<time>2015-09-27T19:26:34Z</time></trkpt>
<trkpt lat="24.958154" lon="102.575615">
<time>2015-09-27T19:26:35Z</time></trkpt>
<trkpt lat="24.958623" lon="102.574424">
<time>2015-09-27T19:26:36Z</time></trkpt>
<trkpt lat="24.958772" lon="102.573934">
<time>2015-09-27T19:26:37Z</time></trkpt>
<trkpt lat="24.958822" lon="102.573644">
<time>2015-09-27T19:26:38Z</time></trkpt>
<trkpt lat="24.958852" lon="102.573434">
<time>2015-09-27T19:26:39Z</time></trkpt>
<trkpt lat="24.958852" lon="102.573354">
<time>2015-09-27T19:26:40Z</time></trkpt>
<trkpt lat="24.958851" lon="102.573083">
<time>2015-09-27T19:26:41Z</time></trkpt>
<trkpt lat="24.958841" lon="102.572903">
<time>2015-09-27T19:26:42Z</time></trkpt>
<trkpt lat="24.958771" lon="102.572523">
<time>2015-09-27T19:26:43Z</time></trkpt>
<trkpt lat="24.95866" lon="102.572132">
<time>2015-09-27T19:26:44Z</time></trkpt>
<trkpt lat="24.9586" lon="102.571982">
<time>2015-09-27T19:26:45Z</time></trkpt>
<trkpt lat="24.95852" lon="102.571762">
<time>2015-09-27T19:26:46Z</time></trkpt>
<trkpt lat="24.95839" lon="102.571472">
<time>2015-09-27T19:26:47Z</time></trkpt>
<trkpt lat="24.958329" lon="102.571342">
<time>2015-09-27T19:26:48Z</time></trkpt>
<trkpt lat="24.958079" lon="102.570881">
<time>2015-09-27T19:26:49Z</time></trkpt>
<trkpt lat="24.957688" lon="102.57012">
<time>2015-09-27T19:26:50Z</time></trkpt>
<trkpt lat="24.957037" lon="102.568869">
<time>2015-09-27T19:26:51Z</time></trkpt>
<trkpt lat="24.956526" lon="102.567948">
<time>2015-09-27T19:26:52Z</time></trkpt>
<trkpt lat="24.956325" lon="102.567578">
<time>2015-09-27T19:26:53Z</time></trkpt>
<trkpt lat="24.955754" lon="102.566466">
<time>2015-09-27T19:26:54Z</time></trkpt>
<trkpt lat="24.954992" lon="102.565005">
<time>2015-09-27T19:26:55Z</time></trkpt>
<trkpt lat="24.954481" lon="102.564123">
<time>2015-09-27T19:26:56Z</time></trkpt>
<trkpt lat="24.95434" lon="102.563883">
<time>2015-09-27T19:26:57Z</time></trkpt>
<trkpt lat="24.95421" lon="102.563663">
<time>2015-09-27T19:26:58Z</time></trkpt>
<trkpt lat="24.95408" lon="102.563473">
<time>2015-09-27T19:26:59Z</time></trkpt>
<trkpt lat="24.953889" lon="102.563222">
<time>2015-09-27T19:27:00Z</time></trkpt>
<trkpt lat="24.953659" lon="102.563012">
<time>2015-09-27T19:27:01Z</time></trkpt>
<trkpt lat="24.953459" lon="102.562832">
<time>2015-09-27T19:27:02Z</time></trkpt>
<trkpt lat="24.953439" lon="102.562812">
<time>2015-09-27T19:27:03Z</time></trkpt>
<trkpt lat="24.953249" lon="102.562641">
<time>2015-09-27T19:27:04Z</time></trkpt>
<trkpt lat="24.953048" lon="102.562481">
<time>2015-09-27T19:27:05Z</time></trkpt>
<trkpt lat="24.952618" lon="102.562111">
<time>2015-09-27T19:27:06Z</time></trkpt>
<trkpt lat="24.952398" lon="102.56189">
<time>2015-09-27T19:27:07Z</time></trkpt>
<trkpt lat="24.952247" lon="102.56168">
<time>2015-09-27T19:27:08Z</time></trkpt>
<trkpt lat="24.952057" lon="102.56142">
<time>2015-09-27T19:27:09Z</time></trkpt>
<trkpt lat="24.951897" lon="102.561149">
<time>2015-09-27T19:27:10Z</time></trkpt>
<trkpt lat="24.951756" lon="102.560869">
<time>2015-09-27T19:27:11Z</time></trkpt>
<trkpt lat="24.951656" lon="102.560629">
<time>2015-09-27T19:27:12Z</time></trkpt>
<trkpt lat="24.951535" lon="102.560258">
<time>2015-09-27T19:27:13Z</time></trkpt>
<trkpt lat="24.951445" lon="102.559928">
<time>2015-09-27T19:27:14Z</time></trkpt>
<trkpt lat="24.951435" lon="102.559867">
<time>2015-09-27T19:27:15Z</time></trkpt>
<trkpt lat="24.951314" lon="102.559357">
<time>2015-09-27T19:27:16Z</time></trkpt>
<trkpt lat="24.951173" lon="102.558896">
<time>2015-09-27T19:27:17Z</time></trkpt>
<trkpt lat="24.951012" lon="102.558345">
<time>2015-09-27T19:27:18Z</time></trkpt>
<trkpt lat="24.950861" lon="102.557854">
<time>2015-09-27T19:27:19Z</time></trkpt>
<trkpt lat="24.950701" lon="102.557464">
<time>2015-09-27T19:27:20Z</time></trkpt>
<trkpt lat="24.95051" lon="102.557133">
<time>2015-09-27T19:27:21Z</time></trkpt>
<trkpt lat="24.95029" lon="102.556823">
<time>2015-09-27T19:27:22Z</time></trkpt>
<trkpt lat="24.950079" lon="102.556552">
<time>2015-09-27T19:27:23Z</time></trkpt>
<trkpt lat="24.949087" lon="102.55516">
<time>2015-09-27T19:27:24Z</time></trkpt>
<trkpt lat="24.948846" lon="102.554819">
<time>2015-09-27T19:27:25Z</time></trkpt>
<trkpt lat="24.948676" lon="102.554529">
<time>2015-09-27T19:27:26Z</time></trkpt>
<trkpt lat="24.948636" lon="102.554459">
<time>2015-09-27T19:27:27Z</time></trkpt>
<trkpt lat="24.948595" lon="102.554378">
<time>2015-09-27T19:27:28Z</time></trkpt>
<trkpt lat="24.948525" lon="102.554148">
<time>2015-09-27T19:27:29Z</time></trkpt>
<trkpt lat="24.948455" lon="102.553888">
<time>2015-09-27T19:27:30Z</time></trkpt>
<trkpt lat="24.948424" lon="102.553727">
<time>2015-09-27T19:27:31Z</time></trkpt>
<trkpt lat="24.948334" lon="102.553307">
<time>2015-09-27T19:27:32Z</time></trkpt>
<trkpt lat="24.948313" lon="102.553186">
<time>2015-09-27T19:27:33Z</time></trkpt>
<trkpt lat="24.948232" lon="102.552625">
<time>2015-09-27T19:27:34Z</time></trkpt>
<trkpt lat="24.948081" lon="102.551844">
<time>2015-09-27T19:27:35Z</time></trkpt>
<trkpt lat="24.94798" lon="102.551303">
<time>2015-09-27T19:27:36Z</time></trkpt>
<trkpt lat="24.947899" lon="102.550752">
<time>2015-09-27T19:27:37Z</time></trkpt>
<trkpt lat="24.947808" lon="102.550331">
<time>2015-09-27T19:27:38Z</time></trkpt>
<trkpt lat="24.947707" lon="102.54995">
<time>2015-09-27T19:27:39Z</time></trkpt>
<trkpt lat="24.947587" lon="102.54968">
<time>2015-09-27T19:27:40Z</time></trkpt>
<trkpt lat="24.947456" lon="102.549449">
<time>2015-09-27T19:27:41Z</time></trkpt>
<trkpt lat="24.947246" lon="102.549149">
<time>2015-09-27T19:27:42Z</time></trkpt>
<trkpt lat="24.946945" lon="102.548768">
<time>2015-09-27T19:27:43Z</time></trkpt>
<trkpt lat="24.946544" lon="102.548327">
<time>2015-09-27T19:27:44Z</time></trkpt>
<trkpt lat="24.946253" lon="102.547996">
<time>2015-09-27T19:27:45Z</time></trkpt>
<trkpt lat="24.946063" lon="102.547776">
<time>2015-09-27T19:27:46Z</time></trkpt>
<trkpt lat="24.945903" lon="102.547606">
<time>2015-09-27T19:27:47Z</time></trkpt>
<trkpt lat="24.945632" lon="102.547325">
<time>2015-09-27T19:27:48Z</time></trkpt>
<trkpt lat="24.945562" lon="102.547255">
<time>2015-09-27T19:27:49Z</time></trkpt>
<trkpt lat="24.94482" lon="102.546423">
<time>2015-09-27T19:27:50Z</time></trkpt>
<trkpt lat="24.944259" lon="102.545812">
<time>2015-09-27T19:27:51Z</time></trkpt>
<trkpt lat="24.943698" lon="102.54515">
<time>2015-09-27T19:27:52Z</time></trkpt>
<trkpt lat="24.943587" lon="102.54502">
<time>2015-09-27T19:27:53Z</time></trkpt>
<trkpt lat="24.943186" lon="102.544519">
<time>2015-09-27T19:27:54Z</time></trkpt>
<trkpt lat="24.942474" lon="102.543256">
<time>2015-09-27T19:27:55Z</time></trkpt>
<trkpt lat="24.942413" lon="102.543136">
<time>2015-09-27T19:27:56Z</time></trkpt>
<trkpt lat="24.942383" lon="102.543066">
<time>2015-09-27T19:27:57Z</time></trkpt>
<trkpt lat="24.942363" lon="102.543016">
<time>2015-09-27T19:27:58Z</time></trkpt>
<trkpt lat="24.942263" lon="102.542745">
<time>2015-09-27T19:27:59Z</time></trkpt>
<trkpt lat="24.942142" lon="102.542374">
<time>2015-09-27T19:28:00Z</time></trkpt>
<trkpt lat="24.942061" lon="102.542084">
<time>2015-09-27T19:28:01Z</time></trkpt>
<trkpt lat="24.942001" lon="102.541843">
<time>2015-09-27T19:28:02Z</time></trkpt>
<trkpt lat="24.94196" lon="102.541633">
<time>2015-09-27T19:28:03Z</time></trkpt>
<trkpt lat="24.94195" lon="102.541603">
<time>2015-09-27T19:28:04Z</time></trkpt>
<trkpt lat="24.941869" lon="102.541041">
<time>2015-09-27T19:28:05Z</time></trkpt>
<trkpt lat="24.941697" lon="102.540119">
<time>2015-09-27T19:28:06Z</time></trkpt>
<trkpt lat="24.941596" lon="102.539708">
<time>2015-09-27T19:28:07Z</time></trkpt>
<trkpt lat="24.941535" lon="102.539498">
<time>2015-09-27T19:28:08Z</time></trkpt>
<trkpt lat="24.941495" lon="102.539377">
<time>2015-09-27T19:28:09Z</time></trkpt>
<trkpt lat="24.941435" lon="102.539237">
<time>2015-09-27T19:28:10Z</time></trkpt>
<trkpt lat="24.941224" lon="102.538806">
<time>2015-09-27T19:28:11Z</time></trkpt>
<trkpt lat="24.940862" lon="102.538004">
<time>2015-09-27T19:28:12Z</time></trkpt>
<trkpt lat="24.940731" lon="102.537764">
<time>2015-09-27T19:28:13Z</time></trkpt>
<trkpt lat="24.940289" lon="102.536892">
<time>2015-09-27T19:28:14Z</time></trkpt>
<trkpt lat="24.939857" lon="102.536039">
<time>2015-09-27T19:28:15Z</time></trkpt>
<trkpt lat="24.939606" lon="102.535558">
<time>2015-09-27T19:28:16Z</time></trkpt>
<trkpt lat="24.939315" lon="102.534997">
<time>2015-09-27T19:28:17Z</time></trkpt>
<trkpt lat="24.938963" lon="102.534315">
<time>2015-09-27T19:28:18Z</time></trkpt>
<trkpt lat="24.938802" lon="102.533994">
<time>2015-09-27T19:28:19Z</time></trkpt>
<trkpt lat="24.93836" lon="102.533092">
<time>2015-09-27T19:28:20Z</time></trkpt>
<trkpt lat="24.938109" lon="102.532651">
<time>2015-09-27T19:28:21Z</time></trkpt>
<trkpt lat="24.937978" lon="102.53242">
<time>2015-09-27T19:28:22Z</time></trkpt>
<trkpt lat="24.937827" lon="102.532109">
<time>2015-09-27T19:28:23Z</time></trkpt>
<trkpt lat="24.937657" lon="102.531769">
<time>2015-09-27T19:28:24Z</time></trkpt>
<trkpt lat="24.937455" lon="102.531227">
<time>2015-09-27T19:28:25Z</time></trkpt>
<trkpt lat="24.937334" lon="102.530756">
<time>2015-09-27T19:28:26Z</time></trkpt>
<trkpt lat="24.937242" lon="102.530094">
<time>2015-09-27T19:28:27Z</time></trkpt>
<trkpt lat="24.937271" lon="102.529613">
<time>2015-09-27T19:28:28Z</time></trkpt>
<trkpt lat="24.93731" lon="102.529312">
<time>2015-09-27T19:28:29Z</time></trkpt>
<trkpt lat="24.93733" lon="102.529212">
<time>2015-09-27T19:28:30Z</time></trkpt>
<trkpt lat="24.937389" lon="102.528961">
<time>2015-09-27T19:28:31Z</time></trkpt>
<trkpt lat="24.937409" lon="102.528851">
<time>2015-09-27T19:28:32Z</time></trkpt>
<trkpt lat="24.937508" lon="102.52857">
<time>2015-09-27T19:28:33Z</time></trkpt>
<trkpt lat="24.937687" lon="102.528189">
<time>2015-09-27T19:28:34Z</time></trkpt>
<trkpt lat="24.937797" lon="102.527988">
<time>2015-09-27T19:28:35Z</time></trkpt>
<trkpt lat="24.937847" lon="102.527908">
<time>2015-09-27T19:28:36Z</time></trkpt>
<trkpt lat="24.938046" lon="102.527617">
<time>2015-09-27T19:28:37Z</time></trkpt>
<trkpt lat="24.938175" lon="102.527447">
<time>2015-09-27T19:28:38Z</time></trkpt>
<trkpt lat="24.938345" lon="102.527256">
<time>2015-09-27T19:28:39Z</time></trkpt>
<trkpt lat="24.939052" lon="102.526314">
<time>2015-09-27T19:28:40Z</time></trkpt>
<trkpt lat="24.939112" lon="102.526204">
<time>2015-09-27T19:28:41Z</time></trkpt>
<trkpt lat="24.939122" lon="102.526194">
<time>2015-09-27T19:28:42Z</time></trkpt>
<trkpt lat="24.939301" lon="102.525883">
<time>2015-09-27T19:28:43Z</time></trkpt>
<trkpt lat="24.93946" lon="102.525542">
<time>2015-09-27T19:28:44Z</time></trkpt>
<trkpt lat="24.939569" lon="102.525231">
<time>2015-09-27T19:28:45Z</time></trkpt>
<trkpt lat="24.939638" lon="102.52494">
<time>2015-09-27T19:28:46Z</time></trkpt>
<trkpt lat="24.939717" lon="102.524559">
<time>2015-09-27T19:28:47Z</time></trkpt>
<trkpt lat="24.939776" lon="102.524138">
<time>2015-09-27T19:28:48Z</time></trkpt>
<trkpt lat="24.939825" lon="102.523656">
<time>2015-09-27T19:28:49Z</time></trkpt>
<trkpt lat="24.939824" lon="102.523436">
<time>2015-09-27T19:28:50Z</time></trkpt>
<trkpt lat="24.939813" lon="102.523105">
<time>2015-09-27T19:28:51Z</time></trkpt>
<trkpt lat="24.939803" lon="102.522954">
<time>2015-09-27T19:28:52Z</time></trkpt>
<trkpt lat="24.939752" lon="102.522634">
<time>2015-09-27T19:28:53Z</time></trkpt>
<trkpt lat="24.939681" lon="102.522333">
<time>2015-09-27T19:28:54Z</time></trkpt>
<trkpt lat="24.93952" lon="102.521871">
<time>2015-09-27T19:28:55Z</time></trkpt>
<trkpt lat="24.939399" lon="102.52158">
<time>2015-09-27T19:28:56Z</time></trkpt>
<trkpt lat="24.939329" lon="102.52143">
<time>2015-09-27T19:28:57Z</time></trkpt>
<trkpt lat="24.939278" lon="102.52134">
<time>2015-09-27T19:28:58Z</time></trkpt>
<trkpt lat="24.939218" lon="102.521229">
<time>2015-09-27T19:28:59Z</time></trkpt>
<trkpt lat="24.939047" lon="102.520939">
<time>2015-09-27T19:29:00Z</time></trkpt>
<trkpt lat="24.938756" lon="102.520538">
<time>2015-09-27T19:29:01Z</time></trkpt>
<trkpt lat="24.938515" lon="102.520257">
<time>2015-09-27T19:29:02Z</time></trkpt>
<trkpt lat="24.938375" lon="102.520116">
<time>2015-09-27T19:29:03Z</time></trkpt>
<trkpt lat="24.938215" lon="102.519976">
<time>2015-09-27T19:29:04Z</time></trkpt>
<trkpt lat="24.937894" lon="102.519705">
<time>2015-09-27T19:29:05Z</time></trkpt>
<trkpt lat="24.937172" lon="102.519143">
<time>2015-09-27T19:29:06Z</time></trkpt>
<trkpt lat="24.936681" lon="102.518772">
<time>2015-09-27T19:29:07Z</time></trkpt>
<trkpt lat="24.936291" lon="102.518451">
<time>2015-09-27T19:29:08Z</time></trkpt>
<trkpt lat="24.936" lon="102.518221">
<time>2015-09-27T19:29:09Z</time></trkpt>
<trkpt lat="24.93579" lon="102.51805">
<time>2015-09-27T19:29:10Z</time></trkpt>
<trkpt lat="24.935489" lon="102.51783">
<time>2015-09-27T19:29:11Z</time></trkpt>
<trkpt lat="24.935168" lon="102.517539">
<time>2015-09-27T19:29:12Z</time></trkpt>
<trkpt lat="24.934978" lon="102.517378">
<time>2015-09-27T19:29:13Z</time></trkpt>
<trkpt lat="24.934837" lon="102.517238">
<time>2015-09-27T19:29:14Z</time></trkpt>
<trkpt lat="24.934737" lon="102.517118">
<time>2015-09-27T19:29:15Z</time></trkpt>
<trkpt lat="24.934406" lon="102.516726">
<time>2015-09-27T19:29:16Z</time></trkpt>
<trkpt lat="24.934054" lon="102.516205">
<time>2015-09-27T19:29:17Z</time></trkpt>
<trkpt lat="24.933854" lon="102.515914">
<time>2015-09-27T19:29:18Z</time></trkpt>
<trkpt lat="24.933613" lon="102.515543">
<time>2015-09-27T19:29:19Z</time></trkpt>
<trkpt lat="24.93291" lon="102.51447">
<time>2015-09-27T19:29:20Z</time></trkpt>
<trkpt lat="24.932377" lon="102.513707">
<time>2015-09-27T19:29:21Z</time></trkpt>
<trkpt lat="24.931383" lon="102.512223">
<time>2015-09-27T19:29:22Z</time></trkpt>
<trkpt lat="24.930479" lon="102.510849">
<time>2015-09-27T19:29:23Z</time></trkpt>
<trkpt lat="24.930188" lon="102.510357">
<time>2015-09-27T19:29:24Z</time></trkpt>
<trkpt lat="24.929937" lon="102.509916">
<time>2015-09-27T19:29:25Z</time></trkpt>
<trkpt lat="24.929916" lon="102.509876">
<time>2015-09-27T19:29:26Z</time></trkpt>
<trkpt lat="24.929776" lon="102.509575">
<time>2015-09-27T19:29:27Z</time></trkpt>
<trkpt lat="24.929574" lon="102.509103">
<time>2015-09-27T19:29:28Z</time></trkpt>
<trkpt lat="24.929514" lon="102.508943">
<time>2015-09-27T19:29:29Z</time></trkpt>
<trkpt lat="24.929474" lon="102.508853">
<time>2015-09-27T19:29:30Z</time></trkpt>
<trkpt lat="24.929413" lon="102.508652">
<time>2015-09-27T19:29:31Z</time></trkpt>
<trkpt lat="24.929362" lon="102.508482">
<time>2015-09-27T19:29:32Z</time></trkpt>
<trkpt lat="24.929322" lon="102.508271">
<time>2015-09-27T19:29:33Z</time></trkpt>
<trkpt lat="24.929261" lon="102.50805">
<time>2015-09-27T19:29:34Z</time></trkpt>
<trkpt lat="24.92919" lon="102.507759">
<time>2015-09-27T19:29:35Z</time></trkpt>
<trkpt lat="24.929109" lon="102.507398">
<time>2015-09-27T19:29:36Z</time></trkpt>
<trkpt lat="24.929028" lon="102.507057">
<time>2015-09-27T19:29:37Z</time></trkpt>
<trkpt lat="24.928816" lon="102.506144">
<time>2015-09-27T19:29:38Z</time></trkpt>
<trkpt lat="24.928643" lon="102.505362">
<time>2015-09-27T19:29:39Z</time></trkpt>
<trkpt lat="24.928532" lon="102.50487">
<time>2015-09-27T19:29:40Z</time></trkpt>
<trkpt lat="24.9284" lon="102.504299">
<time>2015-09-27T19:29:41Z</time></trkpt>
<trkpt lat="24.92838" lon="102.504188">
<time>2015-09-27T19:29:42Z</time></trkpt>
<trkpt lat="24.928329" lon="102.503968">
<time>2015-09-27T19:29:43Z</time></trkpt>
<trkpt lat="24.928278" lon="102.503737">
<time>2015-09-27T19:29:44Z</time></trkpt>
<trkpt lat="24.928258" lon="102.503657">
<time>2015-09-27T19:29:45Z</time></trkpt>
<trkpt lat="24.928238" lon="102.503556">
<time>2015-09-27T19:29:46Z</time></trkpt>
<trkpt lat="24.928116" lon="102.503045">
<time>2015-09-27T19:29:47Z</time></trkpt>
<trkpt lat="24.928035" lon="102.502653">
<time>2015-09-27T19:29:48Z</time></trkpt>
<trkpt lat="24.927914" lon="102.502092">
<time>2015-09-27T19:29:49Z</time></trkpt>
<trkpt lat="24.927822" lon="102.5016">
<time>2015-09-27T19:29:50Z</time></trkpt>
<trkpt lat="24.927761" lon="102.501159">
<time>2015-09-27T19:29:51Z</time></trkpt>
<trkpt lat="24.92773" lon="102.500838">
<time>2015-09-27T19:29:52Z</time></trkpt>
<trkpt lat="24.927709" lon="102.500517">
<time>2015-09-27T19:29:53Z</time></trkpt>
<trkpt lat="24.927688" lon="102.500236">
<time>2015-09-27T19:29:54Z</time></trkpt>
<trkpt lat="24.927688" lon="102.500095">
<time>2015-09-27T19:29:55Z</time></trkpt>
<trkpt lat="24.927677" lon="102.500025">
<time>2015-09-27T19:29:56Z</time></trkpt>
<trkpt lat="24.927625" lon="102.499233">
<time>2015-09-27T19:29:57Z</time></trkpt>
<trkpt lat="24.927532" lon="102.498149">
<time>2015-09-27T19:29:58Z</time></trkpt>
<trkpt lat="24.92749" lon="102.497658">
<time>2015-09-27T19:29:59Z</time></trkpt>
<trkpt lat="24.927427" lon="102.496665">
<time>2015-09-27T19:30:00Z</time></trkpt>
<trkpt lat="24.927416" lon="102.496364">
<time>2015-09-27T19:30:01Z</time></trkpt>
<trkpt lat="24.927406" lon="102.496203">
<time>2015-09-27T19:30:02Z</time></trkpt>
<trkpt lat="24.927395" lon="102.495932">
<time>2015-09-27T19:30:03Z</time></trkpt>
<trkpt lat="24.927404" lon="102.495712">
<time>2015-09-27T19:30:04Z</time></trkpt>
<trkpt lat="24.927404" lon="102.495491">
<time>2015-09-27T19:30:05Z</time></trkpt>
<trkpt lat="24.927413" lon="102.49518">
<time>2015-09-27T19:30:06Z</time></trkpt>
<trkpt lat="24.927423" lon="102.49508">
<time>2015-09-27T19:30:07Z</time></trkpt>
<trkpt lat="24.927432" lon="102.494969">
<time>2015-09-27T19:30:08Z</time></trkpt>
<trkpt lat="24.927442" lon="102.494889">
<time>2015-09-27T19:30:09Z</time></trkpt>
<trkpt lat="24.927462" lon="102.494819">
<time>2015-09-27T19:30:10Z</time></trkpt>
<trkpt lat="24.927491" lon="102.494688">
<time>2015-09-27T19:30:11Z</time></trkpt>
<trkpt lat="24.927531" lon="102.494548">
<time>2015-09-27T19:30:12Z</time></trkpt>
<trkpt lat="24.92762" lon="102.494277">
<time>2015-09-27T19:30:13Z</time></trkpt>
<trkpt lat="24.92762" lon="102.494267">
<time>2015-09-27T19:30:14Z</time></trkpt>
<trkpt lat="24.927689" lon="102.494066">
<time>2015-09-27T19:30:15Z</time></trkpt>
<trkpt lat="24.927769" lon="102.493886">
<time>2015-09-27T19:30:16Z</time></trkpt>
<trkpt lat="24.927828" lon="102.493725">
<time>2015-09-27T19:30:17Z</time></trkpt>
<trkpt lat="24.927918" lon="102.493545">
<time>2015-09-27T19:30:18Z</time></trkpt>
<trkpt lat="24.928037" lon="102.493314">
<time>2015-09-27T19:30:19Z</time></trkpt>
<trkpt lat="24.928156" lon="102.493083">
<time>2015-09-27T19:30:20Z</time></trkpt>
<trkpt lat="24.928375" lon="102.492542">
<time>2015-09-27T19:30:21Z</time></trkpt>
<trkpt lat="24.928395" lon="102.492502">
<time>2015-09-27T19:30:22Z</time></trkpt>
<trkpt lat="24.928514" lon="102.49216">
<time>2015-09-27T19:30:23Z</time></trkpt>
<trkpt lat="24.928533" lon="102.49211">
<time>2015-09-27T19:30:24Z</time></trkpt>
<trkpt lat="24.928593" lon="102.49193">
<time>2015-09-27T19:30:25Z</time></trkpt>
<trkpt lat="24.928712" lon="102.491649">
<time>2015-09-27T19:30:26Z</time></trkpt>
<trkpt lat="24.928712" lon="102.491639">
<time>2015-09-27T19:30:27Z</time></trkpt>
<trkpt lat="24.928871" lon="102.491288">
<time>2015-09-27T19:30:28Z</time></trkpt>
<trkpt lat="24.92898" lon="102.491037">
<time>2015-09-27T19:30:29Z</time></trkpt>
<trkpt lat="24.929" lon="102.490987">
<time>2015-09-27T19:30:30Z</time></trkpt>
<trkpt lat="24.92909" lon="102.490806">
<time>2015-09-27T19:30:31Z</time></trkpt>
<trkpt lat="24.929179" lon="102.490545">
<time>2015-09-27T19:30:32Z</time></trkpt>
<trkpt lat="24.929258" lon="102.490305">
<time>2015-09-27T19:30:33Z</time></trkpt>
<trkpt lat="24.929337" lon="102.489994">
<time>2015-09-27T19:30:34Z</time></trkpt>
<trkpt lat="24.929406" lon="102.489773">
<time>2015-09-27T19:30:35Z</time></trkpt>
<trkpt lat="24.929436" lon="102.489582">
<time>2015-09-27T19:30:36Z</time></trkpt>
<trkpt lat="24.929446" lon="102.489542">
<time>2015-09-27T19:30:37Z</time></trkpt>
<trkpt lat="24.929465" lon="102.489432">
<time>2015-09-27T19:30:38Z</time></trkpt>
<trkpt lat="24.929573" lon="102.488599">
<time>2015-09-27T19:30:39Z</time></trkpt>
<trkpt lat="24.929563" lon="102.488549">
<time>2015-09-27T19:30:40Z</time></trkpt>
<trkpt lat="24.929582" lon="102.488318">
<time>2015-09-27T19:30:41Z</time></trkpt>
<trkpt lat="24.929758" lon="102.487115">
<time>2015-09-27T19:30:42Z</time></trkpt>
<trkpt lat="24.929905" lon="102.485841">
<time>2015-09-27T19:30:43Z</time></trkpt>
<trkpt lat="24.929983" lon="102.485269">
<time>2015-09-27T19:30:44Z</time></trkpt>
<trkpt lat="24.93011" lon="102.484216">
<time>2015-09-27T19:30:45Z</time></trkpt>
<trkpt lat="24.930169" lon="102.483764">
<time>2015-09-27T19:30:46Z</time></trkpt>
<trkpt lat="24.930266" lon="102.483052">
<time>2015-09-27T19:30:47Z</time></trkpt>
<trkpt lat="24.930276" lon="102.483012">
<time>2015-09-27T19:30:48Z</time></trkpt>
<trkpt lat="24.930286" lon="102.482922">
<time>2015-09-27T19:30:49Z</time></trkpt>
<trkpt lat="24.930316" lon="102.482771">
<time>2015-09-27T19:30:50Z</time></trkpt>
<trkpt lat="24.930335" lon="102.482541">
<time>2015-09-27T19:30:51Z</time></trkpt>
<trkpt lat="24.930354" lon="102.48237">
<time>2015-09-27T19:30:52Z</time></trkpt>
<trkpt lat="24.930414" lon="102.482089">
<time>2015-09-27T19:30:53Z</time></trkpt>
<trkpt lat="24.930463" lon="102.481879">
<time>2015-09-27T19:30:54Z</time></trkpt>
<trkpt lat="24.930532" lon="102.481608">
<time>2015-09-27T19:30:55Z</time></trkpt>
<trkpt lat="24.930582" lon="102.481397">
<time>2015-09-27T19:30:56Z</time></trkpt>
<trkpt lat="24.930651" lon="102.481186">
<time>2015-09-27T19:30:57Z</time></trkpt>
<trkpt lat="24.930711" lon="102.481016">
<time>2015-09-27T19:30:58Z</time></trkpt>
<trkpt lat="24.93076" lon="102.480835">
<time>2015-09-27T19:30:59Z</time></trkpt>
<trkpt lat="24.930909" lon="102.480404">
<time>2015-09-27T19:31:00Z</time></trkpt>
<trkpt lat="24.931117" lon="102.479832">
<time>2015-09-27T19:31:01Z</time></trkpt>
<trkpt lat="24.932409" lon="102.477084">
<time>2015-09-27T19:31:02Z</time></trkpt>
<trkpt lat="24.932588" lon="102.476683">
<time>2015-09-27T19:31:03Z</time></trkpt>
<trkpt lat="24.932677" lon="102.476472">
<time>2015-09-27T19:31:04Z</time></trkpt>
<trkpt lat="24.932747" lon="102.476302">
<time>2015-09-27T19:31:05Z</time></trkpt>
<trkpt lat="24.932816" lon="102.476081">
<time>2015-09-27T19:31:06Z</time></trkpt>
<trkpt lat="24.932935" lon="102.47573">
<time>2015-09-27T19:31:07Z</time></trkpt>
<trkpt lat="24.933014" lon="102.475449">
<time>2015-09-27T19:31:08Z</time></trkpt>
<trkpt lat="24.933103" lon="102.475088">
<time>2015-09-27T19:31:09Z</time></trkpt>
<trkpt lat="24.933153" lon="102.474767">
<time>2015-09-27T19:31:10Z</time></trkpt>
<trkpt lat="24.933192" lon="102.474516">
<time>2015-09-27T19:31:11Z</time></trkpt>
<trkpt lat="24.933211" lon="102.474296">
<time>2015-09-27T19:31:12Z</time></trkpt>
<trkpt lat="24.93324" lon="102.474025">
<time>2015-09-27T19:31:13Z</time></trkpt>
<trkpt lat="24.933239" lon="102.473654">
<time>2015-09-27T19:31:14Z</time></trkpt>
<trkpt lat="24.933228" lon="102.473243">
<time>2015-09-27T19:31:15Z</time></trkpt>
<trkpt lat="24.933218" lon="102.473042">
<time>2015-09-27T19:31:16Z</time></trkpt>
<trkpt lat="24.933207" lon="102.472832">
<time>2015-09-27T19:31:17Z</time></trkpt>
<trkpt lat="24.933166" lon="102.472531">
<time>2015-09-27T19:31:18Z</time></trkpt>
<trkpt lat="24.933136" lon="102.47227">
<time>2015-09-27T19:31:19Z</time></trkpt>
<trkpt lat="24.933064" lon="102.471799">
<time>2015-09-27T19:31:20Z</time></trkpt>
<trkpt lat="24.933003" lon="102.471277">
<time>2015-09-27T19:31:21Z</time></trkpt>
<trkpt lat="24.932972" lon="102.471006">
<time>2015-09-27T19:31:22Z</time></trkpt>
<trkpt lat="24.932971" lon="102.470715">
<time>2015-09-27T19:31:23Z</time></trkpt>
<trkpt lat="24.932971" lon="102.470525">
<time>2015-09-27T19:31:24Z</time></trkpt>
<trkpt lat="24.93298" lon="102.470344">
<time>2015-09-27T19:31:25Z</time></trkpt>
<trkpt lat="24.933" lon="102.470194">
<time>2015-09-27T19:31:26Z</time></trkpt>
<trkpt lat="24.93302" lon="102.470074">
<time>2015-09-27T19:31:27Z</time></trkpt>
<trkpt lat="24.933039" lon="102.469953">
<time>2015-09-27T19:31:28Z</time></trkpt>
<trkpt lat="24.933059" lon="102.469843">
<time>2015-09-27T19:31:29Z</time></trkpt>
<trkpt lat="24.933079" lon="102.469713">
<time>2015-09-27T19:31:30Z</time></trkpt>
<trkpt lat="24.933118" lon="102.469582">
<time>2015-09-27T19:31:31Z</time></trkpt>
<trkpt lat="24.933148" lon="102.469462">
<time>2015-09-27T19:31:32Z</time></trkpt>
<trkpt lat="24.933178" lon="102.469342">
<time>2015-09-27T19:31:33Z</time></trkpt>
<trkpt lat="24.933217" lon="102.469221">
<time>2015-09-27T19:31:34Z</time></trkpt>
<trkpt lat="24.933297" lon="102.469001">
<time>2015-09-27T19:31:35Z</time></trkpt>
<trkpt lat="24.933376" lon="102.46883">
<time>2015-09-27T19:31:36Z</time></trkpt>
<trkpt lat="24.933436" lon="102.46869">
<time>2015-09-27T19:31:37Z</time></trkpt>
<trkpt lat="24.933506" lon="102.468529">
<time>2015-09-27T19:31:38Z</time></trkpt>
<trkpt lat="24.933545" lon="102.468409">
<time>2015-09-27T19:31:39Z</time></trkpt>
<trkpt lat="24.933595" lon="102.468269">
<time>2015-09-27T19:31:40Z</time></trkpt>
<trkpt lat="24.933634" lon="102.468078">
<time>2015-09-27T19:31:41Z</time></trkpt>
<trkpt lat="24.933684" lon="102.467888">
<time>2015-09-27T19:31:42Z</time></trkpt>
<trkpt lat="24.933723" lon="102.467667">
<time>2015-09-27T19:31:43Z</time></trkpt>
<trkpt lat="24.933753" lon="102.467486">
<time>2015-09-27T19:31:44Z</time></trkpt>
<trkpt lat="24.933762" lon="102.467346">
<time>2015-09-27T19:31:45Z</time></trkpt>
<trkpt lat="24.933772" lon="102.467176">
<time>2015-09-27T19:31:46Z</time></trkpt>
<trkpt lat="24.933772" lon="102.467025">
<time>2015-09-27T19:31:47Z</time></trkpt>
<trkpt lat="24.933761" lon="102.466905">
<time>2015-09-27T19:31:48Z</time></trkpt>
<trkpt lat="24.933741" lon="102.466784">
<time>2015-09-27T19:31:49Z</time></trkpt>
<trkpt lat="24.933721" lon="102.466664">
<time>2015-09-27T19:31:50Z</time></trkpt>
<trkpt lat="24.93369" lon="102.466514">
<time>2015-09-27T19:31:51Z</time></trkpt>
<trkpt lat="24.93366" lon="102.466393">
<time>2015-09-27T19:31:52Z</time></trkpt>
<trkpt lat="24.93363" lon="102.466273">
<time>2015-09-27T19:31:53Z</time></trkpt>
<trkpt lat="24.933549" lon="102.466073">
<time>2015-09-27T19:31:54Z</time></trkpt>
<trkpt lat="24.933469" lon="102.465902">
<time>2015-09-27T19:31:55Z</time></trkpt>
<trkpt lat="24.933238" lon="102.465531">
<time>2015-09-27T19:31:56Z</time></trkpt>
<trkpt lat="24.932756" lon="102.464899">
<time>2015-09-27T19:31:57Z</time></trkpt>
<trkpt lat="24.932225" lon="102.464197">
<time>2015-09-27T19:31:58Z</time></trkpt>
<trkpt lat="24.931984" lon="102.463937">
<time>2015-09-27T19:31:59Z</time></trkpt>
<trkpt lat="24.931583" lon="102.463415">
<time>2015-09-27T19:32:00Z</time></trkpt>
<trkpt lat="24.928022" lon="102.458954">
<time>2015-09-27T19:32:01Z</time></trkpt>
<trkpt lat="24.927691" lon="102.458563">
<time>2015-09-27T19:32:02Z</time></trkpt>
<trkpt lat="24.92739" lon="102.458162">
<time>2015-09-27T19:32:03Z</time></trkpt>
<trkpt lat="24.92722" lon="102.457911">
<time>2015-09-27T19:32:04Z</time></trkpt>
<trkpt lat="24.927119" lon="102.457741">
<time>2015-09-27T19:32:05Z</time></trkpt>
<trkpt lat="24.926999" lon="102.45748">
<time>2015-09-27T19:32:06Z</time></trkpt>
<trkpt lat="24.926908" lon="102.45731">
<time>2015-09-27T19:32:07Z</time></trkpt>
<trkpt lat="24.926858" lon="102.45718">
<time>2015-09-27T19:32:08Z</time></trkpt>
<trkpt lat="24.926757" lon="102.456889">
<time>2015-09-27T19:32:09Z</time></trkpt>
<trkpt lat="24.926677" lon="102.456668">
<time>2015-09-27T19:32:10Z</time></trkpt>
<trkpt lat="24.926616" lon="102.456448">
<time>2015-09-27T19:32:11Z</time></trkpt>
<trkpt lat="24.926566" lon="102.456207">
<time>2015-09-27T19:32:12Z</time></trkpt>
<trkpt lat="24.926505" lon="102.455937">
<time>2015-09-27T19:32:13Z</time></trkpt>
<trkpt lat="24.926373" lon="102.454734">
<time>2015-09-27T19:32:14Z</time></trkpt>
<trkpt lat="24.925975" lon="102.451306">
<time>2015-09-27T19:32:15Z</time></trkpt>
<trkpt lat="24.925944" lon="102.450975">
<time>2015-09-27T19:32:16Z</time></trkpt>
<trkpt lat="24.925914" lon="102.450674">
<time>2015-09-27T19:32:17Z</time></trkpt>
<trkpt lat="24.925883" lon="102.450394">
<time>2015-09-27T19:32:18Z</time></trkpt>
<trkpt lat="24.925873" lon="102.450173">
<time>2015-09-27T19:32:19Z</time></trkpt>
<trkpt lat="24.925852" lon="102.449973">
<time>2015-09-27T19:32:20Z</time></trkpt>
<trkpt lat="24.92574" lon="102.44882">
<time>2015-09-27T19:32:21Z</time></trkpt>
<trkpt lat="24.92574" lon="102.44882">
<time>2015-09-27T19:32:22Z</time></trkpt>
<trkpt lat="24.92569" lon="102.4487">
<time>2015-09-27T19:32:23Z</time></trkpt>
<trkpt lat="24.92568" lon="102.44864">
<time>2015-09-27T19:32:24Z</time></trkpt>
<trkpt lat="24.925649" lon="102.448329">
<time>2015-09-27T19:32:25Z</time></trkpt>
<trkpt lat="24.925608" lon="102.448039">
<time>2015-09-27T19:32:26Z</time></trkpt>
<trkpt lat="24.925578" lon="102.447748">
<time>2015-09-27T19:32:27Z</time></trkpt>
<trkpt lat="24.925496" lon="102.447086">
<time>2015-09-27T19:32:28Z</time></trkpt>
<trkpt lat="24.925495" lon="102.446626">
<time>2015-09-27T19:32:29Z</time></trkpt>
<trkpt lat="24.925564" lon="102.446094">
<time>2015-09-27T19:32:30Z</time></trkpt>
<trkpt lat="24.925703" lon="102.445593">
<time>2015-09-27T19:32:31Z</time></trkpt>
<trkpt lat="24.925972" lon="102.444922">
<time>2015-09-27T19:32:32Z</time></trkpt>
<trkpt lat="24.926411" lon="102.444241">
<time>2015-09-27T19:32:33Z</time></trkpt>
<trkpt lat="24.92669" lon="102.44392">
<time>2015-09-27T19:32:34Z</time></trkpt>
<trkpt lat="24.927439" lon="102.443158">
<time>2015-09-27T19:32:35Z</time></trkpt>
<trkpt lat="24.928117" lon="102.442267">
<time>2015-09-27T19:32:36Z</time></trkpt>
<trkpt lat="24.928306" lon="102.441946">
<time>2015-09-27T19:32:37Z</time></trkpt>
<trkpt lat="24.928516" lon="102.441525">
<time>2015-09-27T19:32:38Z</time></trkpt>
<trkpt lat="24.928625" lon="102.441235">
<time>2015-09-27T19:32:39Z</time></trkpt>
<trkpt lat="24.928705" lon="102.440964">
<time>2015-09-27T19:32:40Z</time></trkpt>
<trkpt lat="24.928804" lon="102.440413">
<time>2015-09-27T19:32:41Z</time></trkpt>
<trkpt lat="24.928813" lon="102.440113">
<time>2015-09-27T19:32:42Z</time></trkpt>
<trkpt lat="24.928812" lon="102.439712">
<time>2015-09-27T19:32:43Z</time></trkpt>
<trkpt lat="24.928772" lon="102.439281">
<time>2015-09-27T19:32:44Z</time></trkpt>
<trkpt lat="24.928467" lon="102.436667">
<time>2015-09-27T19:32:45Z</time></trkpt>
<trkpt lat="24.928386" lon="102.435945">
<time>2015-09-27T19:32:46Z</time></trkpt>
<trkpt lat="24.928346" lon="102.435595">
<time>2015-09-27T19:32:47Z</time></trkpt>
<trkpt lat="24.928154" lon="102.434163">
<time>2015-09-27T19:32:48Z</time></trkpt>
<trkpt lat="24.928052" lon="102.4328">
<time>2015-09-27T19:32:49Z</time></trkpt>
<trkpt lat="24.92798" lon="102.431539">
<time>2015-09-27T19:32:50Z</time></trkpt>
<trkpt lat="24.927928" lon="102.430397">
<time>2015-09-27T19:32:51Z</time></trkpt>
<trkpt lat="24.927906" lon="102.428805">
<time>2015-09-27T19:32:52Z</time></trkpt>
<trkpt lat="24.927906" lon="102.428474">
<time>2015-09-27T19:32:53Z</time></trkpt>
<trkpt lat="24.927934" lon="102.427343">
<time>2015-09-27T19:32:54Z</time></trkpt>
<trkpt lat="24.927973" lon="102.425701">
<time>2015-09-27T19:32:55Z</time></trkpt>
<trkpt lat="24.927992" lon="102.42534">
<time>2015-09-27T19:32:56Z</time></trkpt>
<trkpt lat="24.927992" lon="102.42528">
<time>2015-09-27T19:32:57Z</time></trkpt>
<trkpt lat="24.928148" lon="102.421677">
<time>2015-09-27T19:32:58Z</time></trkpt>
<trkpt lat="24.928197" lon="102.420375">
<time>2015-09-27T19:32:59Z</time></trkpt>
<trkpt lat="24.928217" lon="102.419935">
<time>2015-09-27T19:33:00Z</time></trkpt>
<trkpt lat="24.928196" lon="102.419074">
<time>2015-09-27T19:33:01Z</time></trkpt>
<trkpt lat="24.928135" lon="102.417663">
<time>2015-09-27T19:33:02Z</time></trkpt>
<trkpt lat="24.928105" lon="102.417153">
<time>2015-09-27T19:33:03Z</time></trkpt>
<trkpt lat="24.928004" lon="102.415812">
<time>2015-09-27T19:33:04Z</time></trkpt>
<trkpt lat="24.927823" lon="102.41425">
<time>2015-09-27T19:33:05Z</time></trkpt>
<trkpt lat="24.927782" lon="102.41346">
<time>2015-09-27T19:33:06Z</time></trkpt>
<trkpt lat="24.927782" lon="102.41346">
<time>2015-09-27T19:33:07Z</time></trkpt>
<trkpt lat="24.927862" lon="102.41347">
<time>2015-09-27T19:33:08Z</time></trkpt>
<trkpt lat="24.927862" lon="102.41347">
<time>2015-09-27T19:33:09Z</time></trkpt>
<trkpt lat="24.927812" lon="102.412199">
<time>2015-09-27T19:33:10Z</time></trkpt>
<trkpt lat="24.927881" lon="102.411199">
<time>2015-09-27T19:33:11Z</time></trkpt>
<trkpt lat="24.928041" lon="102.410598">
<time>2015-09-27T19:33:12Z</time></trkpt>
<trkpt lat="24.92843" lon="102.409688">
<time>2015-09-27T19:33:13Z</time></trkpt>
<trkpt lat="24.92859" lon="102.409348">
<time>2015-09-27T19:33:14Z</time></trkpt>
<trkpt lat="24.92923" lon="102.408287">
<time>2015-09-27T19:33:15Z</time></trkpt>
<trkpt lat="24.929659" lon="102.407427">
<time>2015-09-27T19:33:16Z</time></trkpt>
<trkpt lat="24.930079" lon="102.406467">
<time>2015-09-27T19:33:17Z</time></trkpt>
<trkpt lat="24.930289" lon="102.405777">
<time>2015-09-27T19:33:18Z</time></trkpt>
<trkpt lat="24.930409" lon="102.405137">
<time>2015-09-27T19:33:19Z</time></trkpt>
<trkpt lat="24.930748" lon="102.403296">
<time>2015-09-27T19:33:20Z</time></trkpt>
<trkpt lat="24.930768" lon="102.403176">
<time>2015-09-27T19:33:21Z</time></trkpt>
<trkpt lat="24.931458" lon="102.398836">
<time>2015-09-27T19:33:22Z</time></trkpt>
<trkpt lat="24.931538" lon="102.398286">
<time>2015-09-27T19:33:23Z</time></trkpt>
<trkpt lat="24.931638" lon="102.397506">
<time>2015-09-27T19:33:24Z</time></trkpt>
<trkpt lat="24.931838" lon="102.395997">
<time>2015-09-27T19:33:25Z</time></trkpt>
<trkpt lat="24.931809" lon="102.395227">
<time>2015-09-27T19:33:26Z</time></trkpt>
<trkpt lat="24.931729" lon="102.394307">
<time>2015-09-27T19:33:27Z</time></trkpt>
<trkpt lat="24.931399" lon="102.393027">
<time>2015-09-27T19:33:28Z</time></trkpt>
<trkpt lat="24.93107" lon="102.391828">
<time>2015-09-27T19:33:29Z</time></trkpt>
<trkpt lat="24.93107" lon="102.391828">
<time>2015-09-27T19:33:30Z</time></trkpt>
<trkpt lat="24.930591" lon="102.38854">
<time>2015-09-27T19:33:31Z</time></trkpt>
<trkpt lat="24.930602" lon="102.38812">
<time>2015-09-27T19:33:32Z</time></trkpt>
<trkpt lat="24.930612" lon="102.38786">
<time>2015-09-27T19:33:33Z</time></trkpt>
<trkpt lat="24.930592" lon="102.38781">
<time>2015-09-27T19:33:34Z</time></trkpt>
<trkpt lat="24.930592" lon="102.38781">
<time>2015-09-27T19:33:35Z</time></trkpt>
<trkpt lat="24.930742" lon="102.38776">
<time>2015-09-27T19:33:36Z</time></trkpt>
<trkpt lat="24.930762" lon="102.38776">
<time>2015-09-27T19:33:37Z</time></trkpt>
<trkpt lat="24.931252" lon="102.38764">
<time>2015-09-27T19:33:38Z</time></trkpt>
<trkpt lat="24.931592" lon="102.38759">
<time>2015-09-27T19:33:39Z</time></trkpt>
<trkpt lat="24.931942" lon="102.38752">
<time>2015-09-27T19:33:40Z</time></trkpt>
<trkpt lat="24.932042" lon="102.3875">
<time>2015-09-27T19:33:41Z</time></trkpt>
<trkpt lat="24.932042" lon="102.3875">
<time>2015-09-27T19:33:42Z</time></trkpt>
<trkpt lat="24.932132" lon="102.38714">
<time>2015-09-27T19:33:43Z</time></trkpt>
<trkpt lat="24.932152" lon="102.38709">
<time>2015-09-27T19:33:44Z</time></trkpt>
<trkpt lat="24.932202" lon="102.386851">
<time>2015-09-27T19:33:45Z</time></trkpt>
<trkpt lat="24.932312" lon="102.386471">
<time>2015-09-27T19:33:46Z</time></trkpt>
<trkpt lat="24.932362" lon="102.386271">
<time>2015-09-27T19:33:47Z</time></trkpt>
<trkpt lat="24.932473" lon="102.385821">
<time>2015-09-27T19:33:48Z</time></trkpt>
<trkpt lat="24.932683" lon="102.385082">
<time>2015-09-27T19:33:49Z</time></trkpt>
<trkpt lat="24.932733" lon="102.384892">
<time>2015-09-27T19:33:50Z</time></trkpt>
<trkpt lat="24.932793" lon="102.384652">
<time>2015-09-27T19:33:51Z</time></trkpt>
<trkpt lat="24.932853" lon="102.384502">
<time>2015-09-27T19:33:52Z</time></trkpt>
<trkpt lat="24.933054" lon="102.383793">
<time>2015-09-27T19:33:53Z</time></trkpt>
<trkpt lat="24.933295" lon="102.382913">
<time>2015-09-27T19:33:54Z</time></trkpt>
<trkpt lat="24.933315" lon="102.382823">
<time>2015-09-27T19:33:55Z</time></trkpt>
<trkpt lat="24.933435" lon="102.382314">
<time>2015-09-27T19:33:56Z</time></trkpt>
<trkpt lat="24.933575" lon="102.381854">
<time>2015-09-27T19:33:57Z</time></trkpt>
<trkpt lat="24.933656" lon="102.381554">
<time>2015-09-27T19:33:58Z</time></trkpt>
<trkpt lat="24.933746" lon="102.381235">
<time>2015-09-27T19:33:59Z</time></trkpt>
<trkpt lat="24.933816" lon="102.380995">
<time>2015-09-27T19:34:00Z</time></trkpt>
<trkpt lat="24.933876" lon="102.380745">
<time>2015-09-27T19:34:01Z</time></trkpt>
<trkpt lat="24.933956" lon="102.380465">
<time>2015-09-27T19:34:02Z</time></trkpt>
<trkpt lat="24.934006" lon="102.380285">
<time>2015-09-27T19:34:03Z</time></trkpt>
<trkpt lat="24.934087" lon="102.380066">
<time>2015-09-27T19:34:04Z</time></trkpt>
<trkpt lat="24.934207" lon="102.379676">
<time>2015-09-27T19:34:05Z</time></trkpt>
<trkpt lat="24.934287" lon="102.379456">
<time>2015-09-27T19:34:06Z</time></trkpt>
<trkpt lat="24.934477" lon="102.379057">
<time>2015-09-27T19:34:07Z</time></trkpt>
<trkpt lat="24.934648" lon="102.378727">
<time>2015-09-27T19:34:08Z</time></trkpt>
<trkpt lat="24.934668" lon="102.378707">
<time>2015-09-27T19:34:09Z</time></trkpt>
<trkpt lat="24.934788" lon="102.378527">
<time>2015-09-27T19:34:10Z</time></trkpt>
<trkpt lat="24.934898" lon="102.378367">
<time>2015-09-27T19:34:11Z</time></trkpt>
<trkpt lat="24.934998" lon="102.378227">
<time>2015-09-27T19:34:12Z</time></trkpt>
<trkpt lat="24.935068" lon="102.378137">
<time>2015-09-27T19:34:13Z</time></trkpt>
<trkpt lat="24.935208" lon="102.377958">
<time>2015-09-27T19:34:14Z</time></trkpt>
<trkpt lat="24.935339" lon="102.377778">
<time>2015-09-27T19:34:15Z</time></trkpt>
<trkpt lat="24.935459" lon="102.377628">
<time>2015-09-27T19:34:16Z</time></trkpt>
<trkpt lat="24.935539" lon="102.377528">
<time>2015-09-27T19:34:17Z</time></trkpt>
<trkpt lat="24.935609" lon="102.377438">
<time>2015-09-27T19:34:18Z</time></trkpt>
<trkpt lat="24.935669" lon="102.377368">
<time>2015-09-27T19:34:19Z</time></trkpt>
<trkpt lat="24.935739" lon="102.377268">
<time>2015-09-27T19:34:20Z</time></trkpt>
<trkpt lat="24.935829" lon="102.377178">
<time>2015-09-27T19:34:21Z</time></trkpt>
<trkpt lat="24.935899" lon="102.377098">
<time>2015-09-27T19:34:22Z</time></trkpt>
<trkpt lat="24.935969" lon="102.377029">
<time>2015-09-27T19:34:23Z</time></trkpt>
<trkpt lat="24.936029" lon="102.376979">
<time>2015-09-27T19:34:24Z</time></trkpt>
<trkpt lat="24.936079" lon="102.376939">
<time>2015-09-27T19:34:25Z</time></trkpt>
<trkpt lat="24.936129" lon="102.376899">
<time>2015-09-27T19:34:26Z</time></trkpt>
<trkpt lat="24.936209" lon="102.376839">
<time>2015-09-27T19:34:27Z</time></trkpt>
<trkpt lat="24.936299" lon="102.376789">
<time>2015-09-27T19:34:28Z</time></trkpt>
<trkpt lat="24.936479" lon="102.376679">
<time>2015-09-27T19:34:29Z</time></trkpt>
<trkpt lat="24.936569" lon="102.376629">
<time>2015-09-27T19:34:30Z</time></trkpt>
<trkpt lat="24.936629" lon="102.376609">
<time>2015-09-27T19:34:31Z</time></trkpt>
<trkpt lat="24.936729" lon="102.376569">
<time>2015-09-27T19:34:32Z</time></trkpt>
<trkpt lat="24.93681" lon="102.376539">
<time>2015-09-27T19:34:33Z</time></trkpt>
<trkpt lat="24.93691" lon="102.376499">
<time>2015-09-27T19:34:34Z</time></trkpt>
<trkpt lat="24.93701" lon="102.376469">
<time>2015-09-27T19:34:35Z</time></trkpt>
<trkpt lat="24.93715" lon="102.376419">
<time>2015-09-27T19:34:36Z</time></trkpt>
<trkpt lat="24.93727" lon="102.376379">
<time>2015-09-27T19:34:37Z</time></trkpt>
<trkpt lat="24.93739" lon="102.376339">
<time>2015-09-27T19:34:38Z</time></trkpt>
<trkpt lat="24.93765" lon="102.376259">
<time>2015-09-27T19:34:39Z</time></trkpt>
<trkpt lat="24.93788" lon="102.376169">
<time>2015-09-27T19:34:40Z</time></trkpt>
<trkpt lat="24.938" lon="102.376139">
<time>2015-09-27T19:34:41Z</time></trkpt>
<trkpt lat="24.93812" lon="102.376099">
<time>2015-09-27T19:34:42Z</time></trkpt>
<trkpt lat="24.93831" lon="102.37604">
<time>2015-09-27T19:34:43Z</time></trkpt>
<trkpt lat="24.93847" lon="102.37598">
<time>2015-09-27T19:34:44Z</time></trkpt>
<trkpt lat="24.93864" lon="102.3759">
<time>2015-09-27T19:34:45Z</time></trkpt>
<trkpt lat="24.93876" lon="102.37584">
<time>2015-09-27T19:34:46Z</time></trkpt>
<trkpt lat="24.93887" lon="102.37577">
<time>2015-09-27T19:34:47Z</time></trkpt>
<trkpt lat="24.93894" lon="102.37573">
<time>2015-09-27T19:34:48Z</time></trkpt>
<trkpt lat="24.93899" lon="102.37569">
<time>2015-09-27T19:34:49Z</time></trkpt>
<trkpt lat="24.93904" lon="102.37565">
<time>2015-09-27T19:34:50Z</time></trkpt>
<trkpt lat="24.93909" lon="102.37561">
<time>2015-09-27T19:34:51Z</time></trkpt>
<trkpt lat="24.93913" lon="102.37557">
<time>2015-09-27T19:34:52Z</time></trkpt>
<trkpt lat="24.93917" lon="102.37553">
<time>2015-09-27T19:34:53Z</time></trkpt>
<trkpt lat="24.93921" lon="102.37549">
<time>2015-09-27T19:34:54Z</time></trkpt>
<trkpt lat="24.93925" lon="102.37544">
<time>2015-09-27T19:34:55Z</time></trkpt>
<trkpt lat="24.9393" lon="102.37538">
<time>2015-09-27T19:34:56Z</time></trkpt>
<trkpt lat="24.93936" lon="102.3753">
<time>2015-09-27T19:34:57Z</time></trkpt>
<trkpt lat="24.9394" lon="102.37524">
<time>2015-09-27T19:34:58Z</time></trkpt>
<trkpt lat="24.93941" lon="102.37522">
<time>2015-09-27T19:34:59Z</time></trkpt>
<trkpt lat="24.939431" lon="102.37518">
<time>2015-09-27T19:35:00Z</time></trkpt>
<trkpt lat="24.939471" lon="102.37512">
<time>2015-09-27T19:35:01Z</time></trkpt>
<trkpt lat="24.939491" lon="102.375061">
<time>2015-09-27T19:35:02Z</time></trkpt>
<trkpt lat="24.939511" lon="102.375011">
<time>2015-09-27T19:35:03Z</time></trkpt>
<trkpt lat="24.939541" lon="102.374951">
<time>2015-09-27T19:35:04Z</time></trkpt>
<trkpt lat="24.939591" lon="102.374841">
<time>2015-09-27T19:35:05Z</time></trkpt>
<trkpt lat="24.939651" lon="102.374671">
<time>2015-09-27T19:35:06Z</time></trkpt>
<trkpt lat="24.939711" lon="102.374531">
<time>2015-09-27T19:35:07Z</time></trkpt>
<trkpt lat="24.939751" lon="102.374401">
<time>2015-09-27T19:35:08Z</time></trkpt>
<trkpt lat="24.939852" lon="102.374112">
<time>2015-09-27T19:35:09Z</time></trkpt>
<trkpt lat="24.939972" lon="102.373772">
<time>2015-09-27T19:35:10Z</time></trkpt>
<trkpt lat="24.940032" lon="102.373592">
<time>2015-09-27T19:35:11Z</time></trkpt>
<trkpt lat="24.940082" lon="102.373412">
<time>2015-09-27T19:35:12Z</time></trkpt>
<trkpt lat="24.940213" lon="102.373003">
<time>2015-09-27T19:35:13Z</time></trkpt>
<trkpt lat="24.940263" lon="102.372873">
<time>2015-09-27T19:35:14Z</time></trkpt>
<trkpt lat="24.940343" lon="102.372663">
<time>2015-09-27T19:35:15Z</time></trkpt>
<trkpt lat="24.940413" lon="102.372493">
<time>2015-09-27T19:35:16Z</time></trkpt>
<trkpt lat="24.940554" lon="102.372174">
<time>2015-09-27T19:35:17Z</time></trkpt>
<trkpt lat="24.940624" lon="102.372034">
<time>2015-09-27T19:35:18Z</time></trkpt>
<trkpt lat="24.940684" lon="102.371924">
<time>2015-09-27T19:35:19Z</time></trkpt>
<trkpt lat="24.940984" lon="102.371445">
<time>2015-09-27T19:35:20Z</time></trkpt>
<trkpt lat="24.941095" lon="102.371255">
<time>2015-09-27T19:35:21Z</time></trkpt>
<trkpt lat="24.941225" lon="102.371045">
<time>2015-09-27T19:35:22Z</time></trkpt>
<trkpt lat="24.941365" lon="102.370825">
<time>2015-09-27T19:35:23Z</time></trkpt>
<trkpt lat="24.941636" lon="102.370386">
<time>2015-09-27T19:35:24Z</time></trkpt>
<trkpt lat="24.941896" lon="102.369976">
<time>2015-09-27T19:35:25Z</time></trkpt>
<trkpt lat="24.942066" lon="102.369707">
<time>2015-09-27T19:35:26Z</time></trkpt>
<trkpt lat="24.942096" lon="102.369657">
<time>2015-09-27T19:35:27Z</time></trkpt>
<trkpt lat="24.942377" lon="102.369217">
<time>2015-09-27T19:35:28Z</time></trkpt>
<trkpt lat="24.942637" lon="102.368828">
<time>2015-09-27T19:35:29Z</time></trkpt>
<trkpt lat="24.942717" lon="102.368698">
<time>2015-09-27T19:35:30Z</time></trkpt>
<trkpt lat="24.942808" lon="102.368578">
<time>2015-09-27T19:35:31Z</time></trkpt>
<trkpt lat="24.942918" lon="102.368438">
<time>2015-09-27T19:35:32Z</time></trkpt>
<trkpt lat="24.943008" lon="102.368319">
<time>2015-09-27T19:35:33Z</time></trkpt>
<trkpt lat="24.943068" lon="102.368239">
<time>2015-09-27T19:35:34Z</time></trkpt>
<trkpt lat="24.943148" lon="102.368149">
<time>2015-09-27T19:35:35Z</time></trkpt>
<trkpt lat="24.943248" lon="102.368049">
<time>2015-09-27T19:35:36Z</time></trkpt>
<trkpt lat="24.943318" lon="102.367969">
<time>2015-09-27T19:35:37Z</time></trkpt>
<trkpt lat="24.943388" lon="102.367899">
<time>2015-09-27T19:35:38Z</time></trkpt>
<trkpt lat="24.943458" lon="102.367809">
<time>2015-09-27T19:35:39Z</time></trkpt>
<trkpt lat="24.943589" lon="102.367659">
<time>2015-09-27T19:35:40Z</time></trkpt>
<trkpt lat="24.943709" lon="102.36753">
<time>2015-09-27T19:35:41Z</time></trkpt>
<trkpt lat="24.943809" lon="102.36742">
<time>2015-09-27T19:35:42Z</time></trkpt>
<trkpt lat="24.943919" lon="102.3673">
<time>2015-09-27T19:35:43Z</time></trkpt>
<trkpt lat="24.944059" lon="102.36715">
<time>2015-09-27T19:35:44Z</time></trkpt>
<trkpt lat="24.944169" lon="102.36703">
<time>2015-09-27T19:35:45Z</time></trkpt>
<trkpt lat="24.944299" lon="102.3669">
<time>2015-09-27T19:35:46Z</time></trkpt>
<trkpt lat="24.94443" lon="102.366761">
<time>2015-09-27T19:35:47Z</time></trkpt>
<trkpt lat="24.94449" lon="102.366691">
<time>2015-09-27T19:35:48Z</time></trkpt>
<trkpt lat="24.94464" lon="102.366541">
<time>2015-09-27T19:35:49Z</time></trkpt>
<trkpt lat="24.94472" lon="102.366451">
<time>2015-09-27T19:35:50Z</time></trkpt>
<trkpt lat="24.94481" lon="102.366351">
<time>2015-09-27T19:35:51Z</time></trkpt>
<trkpt lat="24.94488" lon="102.366251">
<time>2015-09-27T19:35:52Z</time></trkpt>
<trkpt lat="24.94503" lon="102.366092">
<time>2015-09-27T19:35:53Z</time></trkpt>
<trkpt lat="24.945161" lon="102.365952">
<time>2015-09-27T19:35:54Z</time></trkpt>
<trkpt lat="24.945241" lon="102.365872">
<time>2015-09-27T19:35:55Z</time></trkpt>
<trkpt lat="24.945371" lon="102.365722">
<time>2015-09-27T19:35:56Z</time></trkpt>
<trkpt lat="24.945651" lon="102.365442">
<time>2015-09-27T19:35:57Z</time></trkpt>
<trkpt lat="24.945821" lon="102.365253">
<time>2015-09-27T19:35:58Z</time></trkpt>
<trkpt lat="24.945912" lon="102.365143">
<time>2015-09-27T19:35:59Z</time></trkpt>
<trkpt lat="24.946022" lon="102.365033">
<time>2015-09-27T19:36:00Z</time></trkpt>
<trkpt lat="24.946102" lon="102.364943">
<time>2015-09-27T19:36:01Z</time></trkpt>
<trkpt lat="24.946172" lon="102.364863">
<time>2015-09-27T19:36:02Z</time></trkpt>
<trkpt lat="24.946252" lon="102.364773">
<time>2015-09-27T19:36:03Z</time></trkpt>
<trkpt lat="24.946342" lon="102.364674">
<time>2015-09-27T19:36:04Z</time></trkpt>
<trkpt lat="24.946442" lon="102.364554">
<time>2015-09-27T19:36:05Z</time></trkpt>
<trkpt lat="24.946593" lon="102.364384">
<time>2015-09-27T19:36:06Z</time></trkpt>
<trkpt lat="24.946713" lon="102.364254">
<time>2015-09-27T19:36:07Z</time></trkpt>
<trkpt lat="24.947604" lon="102.363355">
<time>2015-09-27T19:36:08Z</time></trkpt>
<trkpt lat="24.947644" lon="102.363335">
<time>2015-09-27T19:36:09Z</time></trkpt>
<trkpt lat="24.947774" lon="102.363256">
<time>2015-09-27T19:36:10Z</time></trkpt>
<trkpt lat="24.947894" lon="102.363186">
<time>2015-09-27T19:36:11Z</time></trkpt>
<trkpt lat="24.948014" lon="102.363136">
<time>2015-09-27T19:36:12Z</time></trkpt>
<trkpt lat="24.948134" lon="102.363076">
<time>2015-09-27T19:36:13Z</time></trkpt>
<trkpt lat="24.948244" lon="102.363036">
<time>2015-09-27T19:36:14Z</time></trkpt>
<trkpt lat="24.948344" lon="102.362996">
<time>2015-09-27T19:36:15Z</time></trkpt>
<trkpt lat="24.948464" lon="102.362966">
<time>2015-09-27T19:36:16Z</time></trkpt>
<trkpt lat="24.948634" lon="102.362916">
<time>2015-09-27T19:36:17Z</time></trkpt>
<trkpt lat="24.948804" lon="102.362876">
<time>2015-09-27T19:36:18Z</time></trkpt>
<trkpt lat="24.948824" lon="102.362876">
<time>2015-09-27T19:36:19Z</time></trkpt>
<trkpt lat="24.949164" lon="102.362796">
<time>2015-09-27T19:36:20Z</time></trkpt>
<trkpt lat="24.949434" lon="102.362736">
<time>2015-09-27T19:36:21Z</time></trkpt>
<trkpt lat="24.949524" lon="102.362716">
<time>2015-09-27T19:36:22Z</time></trkpt>
<trkpt lat="24.949815" lon="102.362656">
<time>2015-09-27T19:36:23Z</time></trkpt>
<trkpt lat="24.950085" lon="102.362606">
<time>2015-09-27T19:36:24Z</time></trkpt>
<trkpt lat="24.950385" lon="102.362547">
<time>2015-09-27T19:36:25Z</time></trkpt>
<trkpt lat="24.950515" lon="102.362507">
<time>2015-09-27T19:36:26Z</time></trkpt>
<trkpt lat="24.950645" lon="102.362447">
<time>2015-09-27T19:36:27Z</time></trkpt>
<trkpt lat="24.950745" lon="102.362397">
<time>2015-09-27T19:36:28Z</time></trkpt>
<trkpt lat="24.950835" lon="102.362337">
<time>2015-09-27T19:36:29Z</time></trkpt>
<trkpt lat="24.950905" lon="102.362277">
<time>2015-09-27T19:36:30Z</time></trkpt>
<trkpt lat="24.950975" lon="102.362217">
<time>2015-09-27T19:36:31Z</time></trkpt>
<trkpt lat="24.951035" lon="102.362157">
<time>2015-09-27T19:36:32Z</time></trkpt>
<trkpt lat="24.951105" lon="102.362057">
<time>2015-09-27T19:36:33Z</time></trkpt>
<trkpt lat="24.951165" lon="102.361957">
<time>2015-09-27T19:36:34Z</time></trkpt>
<trkpt lat="24.951205" lon="102.361858">
<time>2015-09-27T19:36:35Z</time></trkpt>
<trkpt lat="24.951246" lon="102.361728">
<time>2015-09-27T19:36:36Z</time></trkpt>
<trkpt lat="24.951266" lon="102.361588">
<time>2015-09-27T19:36:37Z</time></trkpt>
<trkpt lat="24.951296" lon="102.361458">
<time>2015-09-27T19:36:38Z</time></trkpt>
<trkpt lat="24.951336" lon="102.361169">
<time>2015-09-27T19:36:39Z</time></trkpt>
<trkpt lat="24.951448" lon="102.36001">
<time>2015-09-27T19:36:40Z</time></trkpt>
<trkpt lat="24.951478" lon="102.359881">
<time>2015-09-27T19:36:41Z</time></trkpt>
<trkpt lat="24.951509" lon="102.359721">
<time>2015-09-27T19:36:42Z</time></trkpt>
<trkpt lat="24.951559" lon="102.359581">
<time>2015-09-27T19:36:43Z</time></trkpt>
<trkpt lat="24.951609" lon="102.359481">
<time>2015-09-27T19:36:44Z</time></trkpt>
<trkpt lat="24.951659" lon="102.359411">
<time>2015-09-27T19:36:45Z</time></trkpt>
<trkpt lat="24.951709" lon="102.359341">
<time>2015-09-27T19:36:46Z</time></trkpt>
<trkpt lat="24.951809" lon="102.359242">
<time>2015-09-27T19:36:47Z</time></trkpt>
<trkpt lat="24.951949" lon="102.359082">
<time>2015-09-27T19:36:48Z</time></trkpt>
<trkpt lat="24.95216" lon="102.358842">
<time>2015-09-27T19:36:49Z</time></trkpt>
<trkpt lat="24.95227" lon="102.358722">
<time>2015-09-27T19:36:50Z</time></trkpt>
<trkpt lat="24.95235" lon="102.358633">
<time>2015-09-27T19:36:51Z</time></trkpt>
<trkpt lat="24.95242" lon="102.358513">
<time>2015-09-27T19:36:52Z</time></trkpt>
<trkpt lat="24.95248" lon="102.358413">
<time>2015-09-27T19:36:53Z</time></trkpt>
<trkpt lat="24.952541" lon="102.358303">
<time>2015-09-27T19:36:54Z</time></trkpt>
<trkpt lat="24.952601" lon="102.358173">
<time>2015-09-27T19:36:55Z</time></trkpt>
<trkpt lat="24.952691" lon="102.357954">
<time>2015-09-27T19:36:56Z</time></trkpt>
<trkpt lat="24.952791" lon="102.357664">
<time>2015-09-27T19:36:57Z</time></trkpt>
<trkpt lat="24.952892" lon="102.357395">
<time>2015-09-27T19:36:58Z</time></trkpt>
<trkpt lat="24.952902" lon="102.357375">
<time>2015-09-27T19:36:59Z</time></trkpt>
<trkpt lat="24.953002" lon="102.357165">
<time>2015-09-27T19:37:00Z</time></trkpt>
<trkpt lat="24.953092" lon="102.357015">
<time>2015-09-27T19:37:01Z</time></trkpt>
<trkpt lat="24.953173" lon="102.356895">
<time>2015-09-27T19:37:02Z</time></trkpt>
<trkpt lat="24.953263" lon="102.356776">
<time>2015-09-27T19:37:03Z</time></trkpt>
<trkpt lat="24.953363" lon="102.356676">
<time>2015-09-27T19:37:04Z</time></trkpt>
<trkpt lat="24.953483" lon="102.356576">
<time>2015-09-27T19:37:05Z</time></trkpt>
<trkpt lat="24.953563" lon="102.356496">
<time>2015-09-27T19:37:06Z</time></trkpt>
<trkpt lat="24.953723" lon="102.356366">
<time>2015-09-27T19:37:07Z</time></trkpt>
<trkpt lat="24.953954" lon="102.356177">
<time>2015-09-27T19:37:08Z</time></trkpt>
<trkpt lat="24.954144" lon="102.356037">
<time>2015-09-27T19:37:09Z</time></trkpt>
<trkpt lat="24.954454" lon="102.355787">
<time>2015-09-27T19:37:10Z</time></trkpt>
<trkpt lat="24.954694" lon="102.355598">
<time>2015-09-27T19:37:11Z</time></trkpt>
<trkpt lat="24.954875" lon="102.355458">
<time>2015-09-27T19:37:12Z</time></trkpt>
<trkpt lat="24.954975" lon="102.355378">
<time>2015-09-27T19:37:13Z</time></trkpt>
<trkpt lat="24.955125" lon="102.355248">
<time>2015-09-27T19:37:14Z</time></trkpt>
<trkpt lat="24.955315" lon="102.355098">
<time>2015-09-27T19:37:15Z</time></trkpt>
<trkpt lat="24.955505" lon="102.354949">
<time>2015-09-27T19:37:16Z</time></trkpt>
<trkpt lat="24.955636" lon="102.354819">
<time>2015-09-27T19:37:17Z</time></trkpt>
<trkpt lat="24.955786" lon="102.354679">
<time>2015-09-27T19:37:18Z</time></trkpt>
<trkpt lat="24.955916" lon="102.354549">
<time>2015-09-27T19:37:19Z</time></trkpt>
<trkpt lat="24.956036" lon="102.354449">
<time>2015-09-27T19:37:20Z</time></trkpt>
<trkpt lat="24.956066" lon="102.3544">
<time>2015-09-27T19:37:21Z</time></trkpt>
<trkpt lat="24.956136" lon="102.35432">
<time>2015-09-27T19:37:22Z</time></trkpt>
<trkpt lat="24.956256" lon="102.35422">
<time>2015-09-27T19:37:23Z</time></trkpt>
<trkpt lat="24.956337" lon="102.35414">
<time>2015-09-27T19:37:24Z</time></trkpt>
<trkpt lat="24.956467" lon="102.35399">
<time>2015-09-27T19:37:25Z</time></trkpt>
<trkpt lat="24.956747" lon="102.353701">
<time>2015-09-27T19:37:26Z</time></trkpt>
<trkpt lat="24.957038" lon="102.353391">
<time>2015-09-27T19:37:27Z</time></trkpt>
<trkpt lat="24.957248" lon="102.353142">
<time>2015-09-27T19:37:28Z</time></trkpt>
<trkpt lat="24.957438" lon="102.352912">
<time>2015-09-27T19:37:29Z</time></trkpt>
<trkpt lat="24.957469" lon="102.352862">
<time>2015-09-27T19:37:30Z</time></trkpt>
<trkpt lat="24.957599" lon="102.352682">
<time>2015-09-27T19:37:31Z</time></trkpt>
<trkpt lat="24.957759" lon="102.352463">
<time>2015-09-27T19:37:32Z</time></trkpt>
<trkpt lat="24.957899" lon="102.352243">
<time>2015-09-27T19:37:33Z</time></trkpt>
<trkpt lat="24.95812" lon="102.351884">
<time>2015-09-27T19:37:34Z</time></trkpt>
<trkpt lat="24.958351" lon="102.351554">
<time>2015-09-27T19:37:35Z</time></trkpt>
<trkpt lat="24.958641" lon="102.351155">
<time>2015-09-27T19:37:36Z</time></trkpt>
<trkpt lat="24.958872" lon="102.350836">
<time>2015-09-27T19:37:37Z</time></trkpt>
<trkpt lat="24.959182" lon="102.350386">
<time>2015-09-27T19:37:38Z</time></trkpt>
<trkpt lat="24.959593" lon="102.349827">
<time>2015-09-27T19:37:39Z</time></trkpt>
<trkpt lat="24.959854" lon="102.349488">
<time>2015-09-27T19:37:40Z</time></trkpt>
<trkpt lat="24.960074" lon="102.349199">
<time>2015-09-27T19:37:41Z</time></trkpt>
<trkpt lat="24.960255" lon="102.348949">
<time>2015-09-27T19:37:42Z</time></trkpt>
<trkpt lat="24.960295" lon="102.348879">
<time>2015-09-27T19:37:43Z</time></trkpt>
<trkpt lat="24.960335" lon="102.348809">
<time>2015-09-27T19:37:44Z</time></trkpt>
<trkpt lat="24.960445" lon="102.34866">
<time>2015-09-27T19:37:45Z</time></trkpt>
<trkpt lat="24.960566" lon="102.34847">
<time>2015-09-27T19:37:46Z</time></trkpt>
<trkpt lat="24.960816" lon="102.348011">
<time>2015-09-27T19:37:47Z</time></trkpt>
<trkpt lat="24.960927" lon="102.347821">
<time>2015-09-27T19:37:48Z</time></trkpt>
<trkpt lat="24.961007" lon="102.347701">
<time>2015-09-27T19:37:49Z</time></trkpt>
<trkpt lat="24.961107" lon="102.347502">
<time>2015-09-27T19:37:50Z</time></trkpt>
<trkpt lat="24.961137" lon="102.347462">
<time>2015-09-27T19:37:51Z</time></trkpt>
<trkpt lat="24.961258" lon="102.347242">
<time>2015-09-27T19:37:52Z</time></trkpt>
<trkpt lat="24.961358" lon="102.347072">
<time>2015-09-27T19:37:53Z</time></trkpt>
<trkpt lat="24.961538" lon="102.346793">
<time>2015-09-27T19:37:54Z</time></trkpt>
<trkpt lat="24.961639" lon="102.346643">
<time>2015-09-27T19:37:55Z</time></trkpt>
<trkpt lat="24.961749" lon="102.346523">
<time>2015-09-27T19:37:56Z</time></trkpt>
<trkpt lat="24.961839" lon="102.346434">
<time>2015-09-27T19:37:57Z</time></trkpt>
<trkpt lat="24.961959" lon="102.346324">
<time>2015-09-27T19:37:58Z</time></trkpt>
<trkpt lat="24.962079" lon="102.346234">
<time>2015-09-27T19:37:59Z</time></trkpt>
<trkpt lat="24.962289" lon="102.346094">
<time>2015-09-27T19:38:00Z</time></trkpt>
<trkpt lat="24.962309" lon="102.346084">
<time>2015-09-27T19:38:01Z</time></trkpt>
<trkpt lat="24.96239" lon="102.346034">
<time>2015-09-27T19:38:02Z</time></trkpt>
<trkpt lat="24.9625" lon="102.345964">
<time>2015-09-27T19:38:03Z</time></trkpt>
<trkpt lat="24.96264" lon="102.345885">
<time>2015-09-27T19:38:04Z</time></trkpt>
<trkpt lat="24.96279" lon="102.345795">
<time>2015-09-27T19:38:05Z</time></trkpt>
<trkpt lat="24.96289" lon="102.345725">
<time>2015-09-27T19:38:06Z</time></trkpt>
<trkpt lat="24.96295" lon="102.345675">
<time>2015-09-27T19:38:07Z</time></trkpt>
<trkpt lat="24.96302" lon="102.345615">
<time>2015-09-27T19:38:08Z</time></trkpt>
<trkpt lat="24.96304" lon="102.345595">
<time>2015-09-27T19:38:09Z</time></trkpt>
<trkpt lat="24.96305" lon="102.345585">
<time>2015-09-27T19:38:10Z</time></trkpt>
<trkpt lat="24.96309" lon="102.345535">
<time>2015-09-27T19:38:11Z</time></trkpt>
<trkpt lat="24.96315" lon="102.345455">
<time>2015-09-27T19:38:12Z</time></trkpt>
<trkpt lat="24.963191" lon="102.345386">
<time>2015-09-27T19:38:13Z</time></trkpt>
<trkpt lat="24.963251" lon="102.345276">
<time>2015-09-27T19:38:14Z</time></trkpt>
<trkpt lat="24.963291" lon="102.345186">
<time>2015-09-27T19:38:15Z</time></trkpt>
<trkpt lat="24.963341" lon="102.345056">
<time>2015-09-27T19:38:16Z</time></trkpt>
<trkpt lat="24.963371" lon="102.344886">
<time>2015-09-27T19:38:17Z</time></trkpt>
<trkpt lat="24.963382" lon="102.344687">
<time>2015-09-27T19:38:18Z</time></trkpt>
<trkpt lat="24.963392" lon="102.344417">
<time>2015-09-27T19:38:19Z</time></trkpt>
<trkpt lat="24.963403" lon="102.344118">
<time>2015-09-27T19:38:20Z</time></trkpt>
<trkpt lat="24.963433" lon="102.343888">
<time>2015-09-27T19:38:21Z</time></trkpt>
<trkpt lat="24.963494" lon="102.343629">
<time>2015-09-27T19:38:22Z</time></trkpt>
<trkpt lat="24.963574" lon="102.343309">
<time>2015-09-27T19:38:23Z</time></trkpt>
<trkpt lat="24.963675" lon="102.34299">
<time>2015-09-27T19:38:24Z</time></trkpt>
<trkpt lat="24.963775" lon="102.342711">
<time>2015-09-27T19:38:25Z</time></trkpt>
<trkpt lat="24.963836" lon="102.342561">
<time>2015-09-27T19:38:26Z</time></trkpt>
<trkpt lat="24.963896" lon="102.342441">
<time>2015-09-27T19:38:27Z</time></trkpt>
<trkpt lat="24.963996" lon="102.342321">
<time>2015-09-27T19:38:28Z</time></trkpt>
<trkpt lat="24.964076" lon="102.342232">
<time>2015-09-27T19:38:29Z</time></trkpt>
<trkpt lat="24.964176" lon="102.342142">
<time>2015-09-27T19:38:30Z</time></trkpt>
<trkpt lat="24.964376" lon="102.342032">
<time>2015-09-27T19:38:31Z</time></trkpt>
<trkpt lat="24.964667" lon="102.341892">
<time>2015-09-27T19:38:32Z</time></trkpt>
<trkpt lat="24.964877" lon="102.341772">
<time>2015-09-27T19:38:33Z</time></trkpt>
<trkpt lat="24.964957" lon="102.341722">
<time>2015-09-27T19:38:34Z</time></trkpt>
<trkpt lat="24.965037" lon="102.341643">
<time>2015-09-27T19:38:35Z</time></trkpt>
<trkpt lat="24.965107" lon="102.341563">
<time>2015-09-27T19:38:36Z</time></trkpt>
<trkpt lat="24.965157" lon="102.341473">
<time>2015-09-27T19:38:37Z</time></trkpt>
<trkpt lat="24.965198" lon="102.341393">
<time>2015-09-27T19:38:38Z</time></trkpt>
<trkpt lat="24.965238" lon="102.341273">
<time>2015-09-27T19:38:39Z</time></trkpt>
<trkpt lat="24.965258" lon="102.341213">
<time>2015-09-27T19:38:40Z</time></trkpt>
<trkpt lat="24.965288" lon="102.341114">
<time>2015-09-27T19:38:41Z</time></trkpt>
<trkpt lat="24.965338" lon="102.340884">
<time>2015-09-27T19:38:42Z</time></trkpt>
<trkpt lat="24.965419" lon="102.340575">
<time>2015-09-27T19:38:43Z</time></trkpt>
<trkpt lat="24.965479" lon="102.340355">
<time>2015-09-27T19:38:44Z</time></trkpt>
<trkpt lat="24.96554" lon="102.340175">
<time>2015-09-27T19:38:45Z</time></trkpt>
<trkpt lat="24.96561" lon="102.340016">
<time>2015-09-27T19:38:46Z</time></trkpt>
<trkpt lat="24.965761" lon="102.339696">
<time>2015-09-27T19:38:47Z</time></trkpt>
<trkpt lat="24.965791" lon="102.339627">
<time>2015-09-27T19:38:48Z</time></trkpt>
<trkpt lat="24.965791" lon="102.339627">
<time>2015-09-27T19:38:49Z</time></trkpt>
<trkpt lat="24.965532" lon="102.338738">
<time>2015-09-27T19:38:50Z</time></trkpt>
<trkpt lat="24.965605" lon="102.337461">
<time>2015-09-27T19:38:51Z</time></trkpt>
<trkpt lat="24.965446" lon="102.336543">
<time>2015-09-27T19:38:52Z</time></trkpt>
<trkpt lat="24.96405" lon="102.334596">
<time>2015-09-27T19:38:53Z</time></trkpt>
<trkpt lat="24.963912" lon="102.333978">
<time>2015-09-27T19:38:54Z</time></trkpt>
<trkpt lat="24.964036" lon="102.331862">
<time>2015-09-27T19:38:55Z</time></trkpt>
<trkpt lat="24.964146" lon="102.331652">
<time>2015-09-27T19:38:56Z</time></trkpt>
<trkpt lat="24.964417" lon="102.331163">
<time>2015-09-27T19:38:57Z</time></trkpt>
<trkpt lat="24.964417" lon="102.331153">
<time>2015-09-27T19:38:58Z</time></trkpt>
<trkpt lat="24.964427" lon="102.331143">
<time>2015-09-27T19:38:59Z</time></trkpt>
<trkpt lat="24.964437" lon="102.331133">
<time>2015-09-27T19:39:00Z</time></trkpt>
<trkpt lat="24.964447" lon="102.331123">
<time>2015-09-27T19:39:01Z</time></trkpt>
<trkpt lat="24.964457" lon="102.331123">
<time>2015-09-27T19:39:02Z</time></trkpt>
<trkpt lat="24.964497" lon="102.331123">
<time>2015-09-27T19:39:03Z</time></trkpt>
<trkpt lat="24.964497" lon="102.331123">
<time>2015-09-27T19:39:04Z</time></trkpt>
<trkpt lat="24.964517" lon="102.331054">
<time>2015-09-27T19:39:05Z</time></trkpt>
<trkpt lat="24.964557" lon="102.330884">
<time>2015-09-27T19:39:06Z</time></trkpt>
<trkpt lat="24.964638" lon="102.330535">
<time>2015-09-27T19:39:07Z</time></trkpt>
<trkpt lat="24.96485" lon="102.329626">
<time>2015-09-27T19:39:08Z</time></trkpt>
<trkpt lat="24.965011" lon="102.328958">
<time>2015-09-27T19:39:09Z</time></trkpt>
<trkpt lat="24.965172" lon="102.328269">
<time>2015-09-27T19:39:10Z</time></trkpt>
<trkpt lat="24.965283" lon="102.3278">
<time>2015-09-27T19:39:11Z</time></trkpt>
<trkpt lat="24.965384" lon="102.327371">
<time>2015-09-27T19:39:12Z</time></trkpt>
<trkpt lat="24.965454" lon="102.327072">
<time>2015-09-27T19:39:13Z</time></trkpt>
<trkpt lat="24.965525" lon="102.326762">
<time>2015-09-27T19:39:14Z</time></trkpt>
<trkpt lat="24.965676" lon="102.326183">
<time>2015-09-27T19:39:15Z</time></trkpt>
<trkpt lat="24.965727" lon="102.325904">
<time>2015-09-27T19:39:16Z</time></trkpt>
<trkpt lat="24.965827" lon="102.325535">
<time>2015-09-27T19:39:17Z</time></trkpt>
<trkpt lat="24.965858" lon="102.325415">
<time>2015-09-27T19:39:18Z</time></trkpt>
<trkpt lat="24.965938" lon="102.325016">
<time>2015-09-27T19:39:19Z</time></trkpt>
<trkpt lat="24.966029" lon="102.324686">
<time>2015-09-27T19:39:20Z</time></trkpt>
<trkpt lat="24.966069" lon="102.324547">
<time>2015-09-27T19:39:21Z</time></trkpt>
<trkpt lat="24.96626" lon="102.324167">
<time>2015-09-27T19:39:22Z</time></trkpt>
<trkpt lat="24.96635" lon="102.323948">
<time>2015-09-27T19:39:23Z</time></trkpt>
<trkpt lat="24.966431" lon="102.323718">
<time>2015-09-27T19:39:24Z</time></trkpt>
<trkpt lat="24.966541" lon="102.323399">
<time>2015-09-27T19:39:25Z</time></trkpt>
<trkpt lat="24.966712" lon="102.32296">
<time>2015-09-27T19:39:26Z</time></trkpt>
<trkpt lat="24.966963" lon="102.322301">
<time>2015-09-27T19:39:27Z</time></trkpt>
<trkpt lat="24.967165" lon="102.321682">
<time>2015-09-27T19:39:28Z</time></trkpt>
<trkpt lat="24.967857" lon="102.320105">
<time>2015-09-27T19:39:29Z</time></trkpt>
<trkpt lat="24.967857" lon="102.320095">
<time>2015-09-27T19:39:30Z</time></trkpt>
<trkpt lat="24.967878" lon="102.320006">
<time>2015-09-27T19:39:31Z</time></trkpt>
<trkpt lat="24.968069" lon="102.319507">
<time>2015-09-27T19:39:32Z</time></trkpt>
<trkpt lat="24.968169" lon="102.319217">
<time>2015-09-27T19:39:33Z</time></trkpt>
<trkpt lat="24.96835" lon="102.318788">
<time>2015-09-27T19:39:34Z</time></trkpt>
<trkpt lat="24.968511" lon="102.318379">
<time>2015-09-27T19:39:35Z</time></trkpt>
<trkpt lat="24.968702" lon="102.3179">
<time>2015-09-27T19:39:36Z</time></trkpt>
<trkpt lat="24.968802" lon="102.31766">
<time>2015-09-27T19:39:37Z</time></trkpt>
<trkpt lat="24.968812" lon="102.31763">
<time>2015-09-27T19:39:38Z</time></trkpt>
<trkpt lat="24.969093" lon="102.317141">
<time>2015-09-27T19:39:39Z</time></trkpt>
<trkpt lat="24.969454" lon="102.316702">
<time>2015-09-27T19:39:40Z</time></trkpt>
<trkpt lat="24.969764" lon="102.316363">
<time>2015-09-27T19:39:41Z</time></trkpt>
<trkpt lat="24.970075" lon="102.316013">
<time>2015-09-27T19:39:42Z</time></trkpt>
<trkpt lat="24.970325" lon="102.315744">
<time>2015-09-27T19:39:43Z</time></trkpt>
<trkpt lat="24.970596" lon="102.315415">
<time>2015-09-27T19:39:44Z</time></trkpt>
<trkpt lat="24.970937" lon="102.315035">
<time>2015-09-27T19:39:45Z</time></trkpt>
<trkpt lat="24.971207" lon="102.314726">
<time>2015-09-27T19:39:46Z</time></trkpt>
<trkpt lat="24.971347" lon="102.314576">
<time>2015-09-27T19:39:47Z</time></trkpt>
<trkpt lat="24.971367" lon="102.314536">
<time>2015-09-27T19:39:48Z</time></trkpt>
<trkpt lat="24.971378" lon="102.314496">
<time>2015-09-27T19:39:49Z</time></trkpt>
<trkpt lat="24.971358" lon="102.314446">
<time>2015-09-27T19:39:50Z</time></trkpt>
<trkpt lat="24.971358" lon="102.314446">
<time>2015-09-27T19:39:51Z</time></trkpt>
<trkpt lat="24.971717" lon="102.314646">
<time>2015-09-27T19:39:52Z</time></trkpt>
<trkpt lat="24.971717" lon="102.314646">
<time>2015-09-27T19:39:53Z</time></trkpt>
<trkpt lat="24.971797" lon="102.314556">
<time>2015-09-27T19:39:54Z</time></trkpt>
<trkpt lat="24.971948" lon="102.314357">
<time>2015-09-27T19:39:55Z</time></trkpt>
<trkpt lat="24.972078" lon="102.314177">
<time>2015-09-27T19:39:56Z</time></trkpt>
<trkpt lat="24.972228" lon="102.313977">
<time>2015-09-27T19:39:57Z</time></trkpt>
<trkpt lat="24.972339" lon="102.313818">
<time>2015-09-27T19:39:58Z</time></trkpt>
<trkpt lat="24.972459" lon="102.313658">
<time>2015-09-27T19:39:59Z</time></trkpt>
<trkpt lat="24.972559" lon="102.313528">
<time>2015-09-27T19:40:00Z</time></trkpt>
<trkpt lat="24.972659" lon="102.313398">
<time>2015-09-27T19:40:01Z</time></trkpt>
<trkpt lat="24.97276" lon="102.313279">
<time>2015-09-27T19:40:02Z</time></trkpt>
<trkpt lat="24.9728" lon="102.313229">
<time>2015-09-27T19:40:03Z</time></trkpt>
<trkpt lat="24.97284" lon="102.313189">
<time>2015-09-27T19:40:04Z</time></trkpt>
<trkpt lat="24.97295" lon="102.313059">
<time>2015-09-27T19:40:05Z</time></trkpt>
<trkpt lat="24.97312" lon="102.312849">
<time>2015-09-27T19:40:06Z</time></trkpt>
<trkpt lat="24.973221" lon="102.31275">
<time>2015-09-27T19:40:07Z</time></trkpt>
<trkpt lat="24.973301" lon="102.31266">
<time>2015-09-27T19:40:08Z</time></trkpt>
<trkpt lat="24.973341" lon="102.31262">
<time>2015-09-27T19:40:09Z</time></trkpt>
<trkpt lat="24.973471" lon="102.31248">
<time>2015-09-27T19:40:10Z</time></trkpt>
<trkpt lat="24.973591" lon="102.31235">
<time>2015-09-27T19:40:11Z</time></trkpt>
<trkpt lat="24.973701" lon="102.312231">
<time>2015-09-27T19:40:12Z</time></trkpt>
<trkpt lat="24.973812" lon="102.312111">
<time>2015-09-27T19:40:13Z</time></trkpt>
<trkpt lat="24.973942" lon="102.311981">
<time>2015-09-27T19:40:14Z</time></trkpt>
<trkpt lat="24.974092" lon="102.311811">
<time>2015-09-27T19:40:15Z</time></trkpt>
<trkpt lat="24.974242" lon="102.311622">
<time>2015-09-27T19:40:16Z</time></trkpt>
<trkpt lat="24.974363" lon="102.311472">
<time>2015-09-27T19:40:17Z</time></trkpt>
<trkpt lat="24.974443" lon="102.311362">
<time>2015-09-27T19:40:18Z</time></trkpt>
<trkpt lat="24.974513" lon="102.311252">
<time>2015-09-27T19:40:19Z</time></trkpt>
<trkpt lat="24.974563" lon="102.311173">
<time>2015-09-27T19:40:20Z</time></trkpt>
<trkpt lat="24.974613" lon="102.311083">
<time>2015-09-27T19:40:21Z</time></trkpt>
<trkpt lat="24.974654" lon="102.310983">
<time>2015-09-27T19:40:22Z</time></trkpt>
<trkpt lat="24.974704" lon="102.310853">
<time>2015-09-27T19:40:23Z</time></trkpt>
<trkpt lat="24.974744" lon="102.310743">
<time>2015-09-27T19:40:24Z</time></trkpt>
<trkpt lat="24.974764" lon="102.310653">
<time>2015-09-27T19:40:25Z</time></trkpt>
<trkpt lat="24.974784" lon="102.310524">
<time>2015-09-27T19:40:26Z</time></trkpt>
<trkpt lat="24.974825" lon="102.310314">
<time>2015-09-27T19:40:27Z</time></trkpt>
<trkpt lat="24.974855" lon="102.310075">
<time>2015-09-27T19:40:28Z</time></trkpt>
<trkpt lat="24.974866" lon="102.309905">
<time>2015-09-27T19:40:29Z</time></trkpt>
<trkpt lat="24.974876" lon="102.309785">
<time>2015-09-27T19:40:30Z</time></trkpt>
<trkpt lat="24.974886" lon="102.309446">
<time>2015-09-27T19:40:31Z</time></trkpt>
<trkpt lat="24.974917" lon="102.309176">
<time>2015-09-27T19:40:32Z</time></trkpt>
<trkpt lat="24.974927" lon="102.308967">
<time>2015-09-27T19:40:33Z</time></trkpt>
<trkpt lat="24.974948" lon="102.308717">
<time>2015-09-27T19:40:34Z</time></trkpt>
<trkpt lat="24.974958" lon="102.308557">
<time>2015-09-27T19:40:35Z</time></trkpt>
<trkpt lat="24.974958" lon="102.308378">
<time>2015-09-27T19:40:36Z</time></trkpt>
<trkpt lat="24.974909" lon="102.308198">
<time>2015-09-27T19:40:37Z</time></trkpt>
<trkpt lat="24.974849" lon="102.307988">
<time>2015-09-27T19:40:38Z</time></trkpt>
<trkpt lat="24.9748" lon="102.307579">
<time>2015-09-27T19:40:39Z</time></trkpt>
<trkpt lat="24.974741" lon="102.30701">
<time>2015-09-27T19:40:40Z</time></trkpt>
<trkpt lat="24.974692" lon="102.306152">
<time>2015-09-27T19:40:41Z</time></trkpt>
<trkpt lat="24.974585" lon="102.304754">
<time>2015-09-27T19:40:42Z</time></trkpt>
<trkpt lat="24.974565" lon="102.304395">
<time>2015-09-27T19:40:43Z</time></trkpt>
<trkpt lat="24.974417" lon="102.303656">
<time>2015-09-27T19:40:44Z</time></trkpt>
<trkpt lat="24.974337" lon="102.303347">
<time>2015-09-27T19:40:45Z</time></trkpt>
<trkpt lat="24.974327" lon="102.303307">
<time>2015-09-27T19:40:46Z</time></trkpt>
<trkpt lat="24.974327" lon="102.303307">
<time>2015-09-27T19:40:47Z</time></trkpt>
<trkpt lat="24.974268" lon="102.302688">
<time>2015-09-27T19:40:48Z</time></trkpt>
<trkpt lat="24.974239" lon="102.302478">
<time>2015-09-27T19:40:49Z</time></trkpt>
<trkpt lat="24.974239" lon="102.302239">
<time>2015-09-27T19:40:50Z</time></trkpt>
<trkpt lat="24.97419" lon="102.301889">
<time>2015-09-27T19:40:51Z</time></trkpt>
<trkpt lat="24.97414" lon="102.30158">
<time>2015-09-27T19:40:52Z</time></trkpt>
<trkpt lat="24.974081" lon="102.30122">
<time>2015-09-27T19:40:53Z</time></trkpt>
<trkpt lat="24.974101" lon="102.301041">
<time>2015-09-27T19:40:54Z</time></trkpt>
<trkpt lat="24.974132" lon="102.300741">
<time>2015-09-27T19:40:55Z</time></trkpt>
<trkpt lat="24.974112" lon="102.300412">
<time>2015-09-27T19:40:56Z</time></trkpt>
<trkpt lat="24.974063" lon="102.300052">
<time>2015-09-27T19:40:57Z</time></trkpt>
<trkpt lat="24.974003" lon="102.299903">
<time>2015-09-27T19:40:58Z</time></trkpt>
<trkpt lat="24.973893" lon="102.299653">
<time>2015-09-27T19:40:59Z</time></trkpt>
<trkpt lat="24.973834" lon="102.299364">
<time>2015-09-27T19:41:00Z</time></trkpt>
<trkpt lat="24.973635" lon="102.298545">
<time>2015-09-27T19:41:01Z</time></trkpt>
<trkpt lat="24.973416" lon="102.297876">
<time>2015-09-27T19:41:02Z</time></trkpt>
<trkpt lat="24.973187" lon="102.297377">
<time>2015-09-27T19:41:03Z</time></trkpt>
<trkpt lat="24.972908" lon="102.296768">
<time>2015-09-27T19:41:04Z</time></trkpt>
<trkpt lat="24.972789" lon="102.296518">
<time>2015-09-27T19:41:05Z</time></trkpt>
<trkpt lat="24.97239" lon="102.295799">
<time>2015-09-27T19:41:06Z</time></trkpt>
<trkpt lat="24.971582" lon="102.294501">
<time>2015-09-27T19:41:07Z</time></trkpt>
<trkpt lat="24.971363" lon="102.294032">
<time>2015-09-27T19:41:08Z</time></trkpt>
<trkpt lat="24.971103" lon="102.293613">
<time>2015-09-27T19:41:09Z</time></trkpt>
<trkpt lat="24.970894" lon="102.293313">
<time>2015-09-27T19:41:10Z</time></trkpt>
<trkpt lat="24.970465" lon="102.292514">
<time>2015-09-27T19:41:11Z</time></trkpt>
<trkpt lat="24.970465" lon="102.292514">
<time>2015-09-27T19:41:12Z</time></trkpt>
<trkpt lat="24.970445" lon="102.292455">
<time>2015-09-27T19:41:13Z</time></trkpt>
<trkpt lat="24.970415" lon="102.292355">
<time>2015-09-27T19:41:14Z</time></trkpt>
<trkpt lat="24.970335" lon="102.292185">
<time>2015-09-27T19:41:15Z</time></trkpt>
<trkpt lat="24.970236" lon="102.291985">
<time>2015-09-27T19:41:16Z</time></trkpt>
<trkpt lat="24.970136" lon="102.291786">
<time>2015-09-27T19:41:17Z</time></trkpt>
<trkpt lat="24.970096" lon="102.291686">
<time>2015-09-27T19:41:18Z</time></trkpt>
<trkpt lat="24.970066" lon="102.291586">
<time>2015-09-27T19:41:19Z</time></trkpt>
<trkpt lat="24.970036" lon="102.291476">
<time>2015-09-27T19:41:20Z</time></trkpt>
<trkpt lat="24.970027" lon="102.291336">
<time>2015-09-27T19:41:21Z</time></trkpt>
<trkpt lat="24.970027" lon="102.291216">
<time>2015-09-27T19:41:22Z</time></trkpt>
<trkpt lat="24.970027" lon="102.291037">
<time>2015-09-27T19:41:23Z</time></trkpt>
<trkpt lat="24.970027" lon="102.290837">
<time>2015-09-27T19:41:24Z</time></trkpt>
<trkpt lat="24.970028" lon="102.290717">
<time>2015-09-27T19:41:25Z</time></trkpt>
<trkpt lat="24.970028" lon="102.290458">
<time>2015-09-27T19:41:26Z</time></trkpt>
<trkpt lat="24.970038" lon="102.290258">
<time>2015-09-27T19:41:27Z</time></trkpt>
<trkpt lat="24.970038" lon="102.290118">
<time>2015-09-27T19:41:28Z</time></trkpt>
<trkpt lat="24.970059" lon="102.289888">
<time>2015-09-27T19:41:29Z</time></trkpt>
<trkpt lat="24.970079" lon="102.289798">
<time>2015-09-27T19:41:30Z</time></trkpt>
<trkpt lat="24.970099" lon="102.289709">
<time>2015-09-27T19:41:31Z</time></trkpt>
<trkpt lat="24.970139" lon="102.289529">
<time>2015-09-27T19:41:32Z</time></trkpt>
<trkpt lat="24.97018" lon="102.289329">
<time>2015-09-27T19:41:33Z</time></trkpt>
<trkpt lat="24.97023" lon="102.289149">
<time>2015-09-27T19:41:34Z</time></trkpt>
<trkpt lat="24.97025" lon="102.289059">
<time>2015-09-27T19:41:35Z</time></trkpt>
<trkpt lat="24.97032" lon="102.28883">
<time>2015-09-27T19:41:36Z</time></trkpt>
<trkpt lat="24.970421" lon="102.28851">
<time>2015-09-27T19:41:37Z</time></trkpt>
<trkpt lat="24.970431" lon="102.28845">
<time>2015-09-27T19:41:38Z</time></trkpt>
<trkpt lat="24.970481" lon="102.288251">
<time>2015-09-27T19:41:39Z</time></trkpt>
<trkpt lat="24.970501" lon="102.288101">
<time>2015-09-27T19:41:40Z</time></trkpt>
<trkpt lat="24.970521" lon="102.288031">
<time>2015-09-27T19:41:41Z</time></trkpt>
<trkpt lat="24.970562" lon="102.287821">
<time>2015-09-27T19:41:42Z</time></trkpt>
<trkpt lat="24.970582" lon="102.287641">
<time>2015-09-27T19:41:43Z</time></trkpt>
<trkpt lat="24.970582" lon="102.287631">
<time>2015-09-27T19:41:44Z</time></trkpt>
<trkpt lat="24.970612" lon="102.287432">
<time>2015-09-27T19:41:45Z</time></trkpt>
<trkpt lat="24.970632" lon="102.287232">
<time>2015-09-27T19:41:46Z</time></trkpt>
<trkpt lat="24.970663" lon="102.287032">
<time>2015-09-27T19:41:47Z</time></trkpt>
<trkpt lat="24.970703" lon="102.286713">
<time>2015-09-27T19:41:48Z</time></trkpt>
<trkpt lat="24.970694" lon="102.286333">
<time>2015-09-27T19:41:49Z</time></trkpt>
<trkpt lat="24.970664" lon="102.285984">
<time>2015-09-27T19:41:50Z</time></trkpt>
<trkpt lat="24.970634" lon="102.285614">
<time>2015-09-27T19:41:51Z</time></trkpt>
<trkpt lat="24.970615" lon="102.285314">
<time>2015-09-27T19:41:52Z</time></trkpt>
<trkpt lat="24.970585" lon="102.284905">
<time>2015-09-27T19:41:53Z</time></trkpt>
<trkpt lat="24.970566" lon="102.284535">
<time>2015-09-27T19:41:54Z</time></trkpt>
<trkpt lat="24.970526" lon="102.284146">
<time>2015-09-27T19:41:55Z</time></trkpt>
<trkpt lat="24.970507" lon="102.283786">
<time>2015-09-27T19:41:56Z</time></trkpt>
<trkpt lat="24.970487" lon="102.283547">
<time>2015-09-27T19:41:57Z</time></trkpt>
<trkpt lat="24.970467" lon="102.283247">
<time>2015-09-27T19:41:58Z</time></trkpt>
<trkpt lat="24.970438" lon="102.282977">
<time>2015-09-27T19:41:59Z</time></trkpt>
<trkpt lat="24.970408" lon="102.282708">
<time>2015-09-27T19:42:00Z</time></trkpt>
<trkpt lat="24.970378" lon="102.282498">
<time>2015-09-27T19:42:01Z</time></trkpt>
<trkpt lat="24.970309" lon="102.282158">
<time>2015-09-27T19:42:02Z</time></trkpt>
<trkpt lat="24.97019" lon="102.281529">
<time>2015-09-27T19:42:03Z</time></trkpt>
<trkpt lat="24.97006" lon="102.2809">
<time>2015-09-27T19:42:04Z</time></trkpt>
<trkpt lat="24.970001" lon="102.28047">
<time>2015-09-27T19:42:05Z</time></trkpt>
<trkpt lat="24.969951" lon="102.280171">
<time>2015-09-27T19:42:06Z</time></trkpt>
<trkpt lat="24.969941" lon="102.279991">
<time>2015-09-27T19:42:07Z</time></trkpt>
<trkpt lat="24.969942" lon="102.279831">
<time>2015-09-27T19:42:08Z</time></trkpt>
<trkpt lat="24.969942" lon="102.279701">
<time>2015-09-27T19:42:09Z</time></trkpt>
<trkpt lat="24.969962" lon="102.279561">
<time>2015-09-27T19:42:10Z</time></trkpt>
<trkpt lat="24.969982" lon="102.279481">
<time>2015-09-27T19:42:11Z</time></trkpt>
<trkpt lat="24.970002" lon="102.279401">
<time>2015-09-27T19:42:12Z</time></trkpt>
<trkpt lat="24.970062" lon="102.279142">
<time>2015-09-27T19:42:13Z</time></trkpt>
<trkpt lat="24.970163" lon="102.278662">
<time>2015-09-27T19:42:14Z</time></trkpt>
<trkpt lat="24.970213" lon="102.278422">
<time>2015-09-27T19:42:15Z</time></trkpt>
<trkpt lat="24.970233" lon="102.278293">
<time>2015-09-27T19:42:16Z</time></trkpt>
<trkpt lat="24.970334" lon="102.277853">
<time>2015-09-27T19:42:17Z</time></trkpt>
<trkpt lat="24.970384" lon="102.277453">
<time>2015-09-27T19:42:18Z</time></trkpt>
<trkpt lat="24.970434" lon="102.277054">
<time>2015-09-27T19:42:19Z</time></trkpt>
<trkpt lat="24.970515" lon="102.276654">
<time>2015-09-27T19:42:20Z</time></trkpt>
<trkpt lat="24.970585" lon="102.276265">
<time>2015-09-27T19:42:21Z</time></trkpt>
<trkpt lat="24.970676" lon="102.275725">
<time>2015-09-27T19:42:22Z</time></trkpt>
<trkpt lat="24.970736" lon="102.275355">
<time>2015-09-27T19:42:23Z</time></trkpt>
<trkpt lat="24.970746" lon="102.275305">
<time>2015-09-27T19:42:24Z</time></trkpt>
<trkpt lat="24.970786" lon="102.275136">
<time>2015-09-27T19:42:25Z</time></trkpt>
<trkpt lat="24.970827" lon="102.274966">
<time>2015-09-27T19:42:26Z</time></trkpt>
<trkpt lat="24.970887" lon="102.274716">
<time>2015-09-27T19:42:27Z</time></trkpt>
<trkpt lat="24.970937" lon="102.274506">
<time>2015-09-27T19:42:28Z</time></trkpt>
<trkpt lat="24.971027" lon="102.274156">
<time>2015-09-27T19:42:29Z</time></trkpt>
<trkpt lat="24.971108" lon="102.273817">
<time>2015-09-27T19:42:30Z</time></trkpt>
<trkpt lat="24.971208" lon="102.273437">
<time>2015-09-27T19:42:31Z</time></trkpt>
<trkpt lat="24.971268" lon="102.273187">
<time>2015-09-27T19:42:32Z</time></trkpt>
<trkpt lat="24.971318" lon="102.272937">
<time>2015-09-27T19:42:33Z</time></trkpt>
<trkpt lat="24.971399" lon="102.272618">
<time>2015-09-27T19:42:34Z</time></trkpt>
<trkpt lat="24.971479" lon="102.272288">
<time>2015-09-27T19:42:35Z</time></trkpt>
<trkpt lat="24.971579" lon="102.271928">
<time>2015-09-27T19:42:36Z</time></trkpt>
<trkpt lat="24.971619" lon="102.271708">
<time>2015-09-27T19:42:37Z</time></trkpt>
<trkpt lat="24.97165" lon="102.271529">
<time>2015-09-27T19:42:38Z</time></trkpt>
<trkpt lat="24.97167" lon="102.271399">
<time>2015-09-27T19:42:39Z</time></trkpt>
<trkpt lat="24.97169" lon="102.271269">
<time>2015-09-27T19:42:40Z</time></trkpt>
<trkpt lat="24.97171" lon="102.271079">
<time>2015-09-27T19:42:41Z</time></trkpt>
<trkpt lat="24.97171" lon="102.271019">
<time>2015-09-27T19:42:42Z</time></trkpt>
<trkpt lat="24.97172" lon="102.270909">
<time>2015-09-27T19:42:43Z</time></trkpt>
<trkpt lat="24.97171" lon="102.270759">
<time>2015-09-27T19:42:44Z</time></trkpt>
<trkpt lat="24.97171" lon="102.270629">
<time>2015-09-27T19:42:45Z</time></trkpt>
<trkpt lat="24.97169" lon="102.270499">
<time>2015-09-27T19:42:46Z</time></trkpt>
<trkpt lat="24.971651" lon="102.27031">
<time>2015-09-27T19:42:47Z</time></trkpt>
<trkpt lat="24.971601" lon="102.27008">
<time>2015-09-27T19:42:48Z</time></trkpt>
<trkpt lat="24.971521" lon="102.26977">
<time>2015-09-27T19:42:49Z</time></trkpt>
<trkpt lat="24.971451" lon="102.26954">
<time>2015-09-27T19:42:50Z</time></trkpt>
<trkpt lat="24.971401" lon="102.26945">
<time>2015-09-27T19:42:51Z</time></trkpt>
<trkpt lat="24.971371" lon="102.26939">
<time>2015-09-27T19:42:52Z</time></trkpt>
<trkpt lat="24.971361" lon="102.26938">
<time>2015-09-27T19:42:53Z</time></trkpt>
<trkpt lat="24.971301" lon="102.2693">
<time>2015-09-27T19:42:54Z</time></trkpt>
<trkpt lat="24.971241" lon="102.26924">
<time>2015-09-27T19:42:55Z</time></trkpt>
<trkpt lat="24.971172" lon="102.26918">
<time>2015-09-27T19:42:56Z</time></trkpt>
<trkpt lat="24.971092" lon="102.26912">
<time>2015-09-27T19:42:57Z</time></trkpt>
<trkpt lat="24.970972" lon="102.26905">
<time>2015-09-27T19:42:58Z</time></trkpt>
<trkpt lat="24.970762" lon="102.268901">
<time>2015-09-27T19:42:59Z</time></trkpt>
<trkpt lat="24.970522" lon="102.268761">
<time>2015-09-27T19:43:00Z</time></trkpt>
<trkpt lat="24.970282" lon="102.268631">
<time>2015-09-27T19:43:01Z</time></trkpt>
<trkpt lat="24.970062" lon="102.268491">
<time>2015-09-27T19:43:02Z</time></trkpt>
<trkpt lat="24.969732" lon="102.268271">
<time>2015-09-27T19:43:03Z</time></trkpt>
<trkpt lat="24.969483" lon="102.268081">
<time>2015-09-27T19:43:04Z</time></trkpt>
<trkpt lat="24.969293" lon="102.267921">
<time>2015-09-27T19:43:05Z</time></trkpt>
<trkpt lat="24.969113" lon="102.267761">
<time>2015-09-27T19:43:06Z</time></trkpt>
<trkpt lat="24.968923" lon="102.267551">
<time>2015-09-27T19:43:07Z</time></trkpt>
<trkpt lat="24.968763" lon="102.267372">
<time>2015-09-27T19:43:08Z</time></trkpt>
<trkpt lat="24.968493" lon="102.267072">
<time>2015-09-27T19:43:09Z</time></trkpt>
<trkpt lat="24.968363" lon="102.266942">
<time>2015-09-27T19:43:10Z</time></trkpt>
<trkpt lat="24.968274" lon="102.266842">
<time>2015-09-27T19:43:11Z</time></trkpt>
<trkpt lat="24.968194" lon="102.266762">
<time>2015-09-27T19:43:12Z</time></trkpt>
<trkpt lat="24.968114" lon="102.266712">
<time>2015-09-27T19:43:13Z</time></trkpt>
<trkpt lat="24.968004" lon="102.266642">
<time>2015-09-27T19:43:14Z</time></trkpt>
<trkpt lat="24.967624" lon="102.266442">
<time>2015-09-27T19:43:15Z</time></trkpt>
<trkpt lat="24.967514" lon="102.266382">
<time>2015-09-27T19:43:16Z</time></trkpt>
<trkpt lat="24.967254" lon="102.266282">
<time>2015-09-27T19:43:17Z</time></trkpt>
<trkpt lat="24.966924" lon="102.266132">
<time>2015-09-27T19:43:18Z</time></trkpt>
<trkpt lat="24.966684" lon="102.266002">
<time>2015-09-27T19:43:19Z</time></trkpt>
<trkpt lat="24.966604" lon="102.265932">
<time>2015-09-27T19:43:20Z</time></trkpt>
<trkpt lat="24.966544" lon="102.265863">
<time>2015-09-27T19:43:21Z</time></trkpt>
<trkpt lat="24.966455" lon="102.265743">
<time>2015-09-27T19:43:22Z</time></trkpt>
<trkpt lat="24.966455" lon="102.265733">
<time>2015-09-27T19:43:23Z</time></trkpt>
<trkpt lat="24.966385" lon="102.265623">
<time>2015-09-27T19:43:24Z</time></trkpt>
<trkpt lat="24.966305" lon="102.265453">
<time>2015-09-27T19:43:25Z</time></trkpt>
<trkpt lat="24.966265" lon="102.265313">
<time>2015-09-27T19:43:26Z</time></trkpt>
<trkpt lat="24.966235" lon="102.265173">
<time>2015-09-27T19:43:27Z</time></trkpt>
<trkpt lat="24.966185" lon="102.264853">
<time>2015-09-27T19:43:28Z</time></trkpt>
<trkpt lat="24.966135" lon="102.264543">
<time>2015-09-27T19:43:29Z</time></trkpt>
<trkpt lat="24.966086" lon="102.264213">
<time>2015-09-27T19:43:30Z</time></trkpt>
<trkpt lat="24.966026" lon="102.263944">
<time>2015-09-27T19:43:31Z</time></trkpt>
<trkpt lat="24.965986" lon="102.263754">
<time>2015-09-27T19:43:32Z</time></trkpt>
<trkpt lat="24.965946" lon="102.263644">
<time>2015-09-27T19:43:33Z</time></trkpt>
<trkpt lat="24.965906" lon="102.263534">
<time>2015-09-27T19:43:34Z</time></trkpt>
<trkpt lat="24.965866" lon="102.263444">
<time>2015-09-27T19:43:35Z</time></trkpt>
<trkpt lat="24.965826" lon="102.263374">
<time>2015-09-27T19:43:36Z</time></trkpt>
<trkpt lat="24.965766" lon="102.263274">
<time>2015-09-27T19:43:37Z</time></trkpt>
<trkpt lat="24.965696" lon="102.263194">
<time>2015-09-27T19:43:38Z</time></trkpt>
<trkpt lat="24.965566" lon="102.263044">
<time>2015-09-27T19:43:39Z</time></trkpt>
<trkpt lat="24.965386" lon="102.262834">
<time>2015-09-27T19:43:40Z</time></trkpt>
<trkpt lat="24.965227" lon="102.262664">
<time>2015-09-27T19:43:41Z</time></trkpt>
<trkpt lat="24.965167" lon="102.262604">
<time>2015-09-27T19:43:42Z</time></trkpt>
<trkpt lat="24.965017" lon="102.262444">
<time>2015-09-27T19:43:43Z</time></trkpt>
<trkpt lat="24.964807" lon="102.262204">
<time>2015-09-27T19:43:44Z</time></trkpt>
<trkpt lat="24.964657" lon="102.262024">
<time>2015-09-27T19:43:45Z</time></trkpt>
<trkpt lat="24.964577" lon="102.261944">
<time>2015-09-27T19:43:46Z</time></trkpt>
<trkpt lat="24.964347" lon="102.261695">
<time>2015-09-27T19:43:47Z</time></trkpt>
<trkpt lat="24.964137" lon="102.261465">
<time>2015-09-27T19:43:48Z</time></trkpt>
<trkpt lat="24.964017" lon="102.261335">
<time>2015-09-27T19:43:49Z</time></trkpt>
<trkpt lat="24.963808" lon="102.261085">
<time>2015-09-27T19:43:50Z</time></trkpt>
<trkpt lat="24.963638" lon="102.260875">
<time>2015-09-27T19:43:51Z</time></trkpt>
<trkpt lat="24.963548" lon="102.260735">
<time>2015-09-27T19:43:52Z</time></trkpt>
<trkpt lat="24.963488" lon="102.260605">
<time>2015-09-27T19:43:53Z</time></trkpt>
<trkpt lat="24.963438" lon="102.260485">
<time>2015-09-27T19:43:54Z</time></trkpt>
<trkpt lat="24.963428" lon="102.260465">
<time>2015-09-27T19:43:55Z</time></trkpt>
<trkpt lat="24.963388" lon="102.260295">
<time>2015-09-27T19:43:56Z</time></trkpt>
<trkpt lat="24.963378" lon="102.260165">
<time>2015-09-27T19:43:57Z</time></trkpt>
<trkpt lat="24.963368" lon="102.260035">
<time>2015-09-27T19:43:58Z</time></trkpt>
<trkpt lat="24.963368" lon="102.259845">
<time>2015-09-27T19:43:59Z</time></trkpt>
<trkpt lat="24.963388" lon="102.259605">
<time>2015-09-27T19:44:00Z</time></trkpt>
<trkpt lat="24.963398" lon="102.259415">
<time>2015-09-27T19:44:01Z</time></trkpt>
<trkpt lat="24.963428" lon="102.259085">
<time>2015-09-27T19:44:02Z</time></trkpt>
<trkpt lat="24.963469" lon="102.258756">
<time>2015-09-27T19:44:03Z</time></trkpt>
<trkpt lat="24.963509" lon="102.258436">
<time>2015-09-27T19:44:04Z</time></trkpt>
<trkpt lat="24.963539" lon="102.258076">
<time>2015-09-27T19:44:05Z</time></trkpt>
<trkpt lat="24.963579" lon="102.257706">
<time>2015-09-27T19:44:06Z</time></trkpt>
<trkpt lat="24.963609" lon="102.257436">
<time>2015-09-27T19:44:07Z</time></trkpt>
<trkpt lat="24.963629" lon="102.257236">
<time>2015-09-27T19:44:08Z</time></trkpt>
<trkpt lat="24.963639" lon="102.257066">
<time>2015-09-27T19:44:09Z</time></trkpt>
<trkpt lat="24.963629" lon="102.256926">
<time>2015-09-27T19:44:10Z</time></trkpt>
<trkpt lat="24.963619" lon="102.256806">
<time>2015-09-27T19:44:11Z</time></trkpt>
<trkpt lat="24.963579" lon="102.256636">
<time>2015-09-27T19:44:12Z</time></trkpt>
<trkpt lat="24.963579" lon="102.256616">
<time>2015-09-27T19:44:13Z</time></trkpt>
<trkpt lat="24.963519" lon="102.256386">
<time>2015-09-27T19:44:14Z</time></trkpt>
<trkpt lat="24.96334" lon="102.255746">
<time>2015-09-27T19:44:15Z</time></trkpt>
<trkpt lat="24.96317" lon="102.255146">
<time>2015-09-27T19:44:16Z</time></trkpt>
<trkpt lat="24.9631" lon="102.254966">
<time>2015-09-27T19:44:17Z</time></trkpt>
<trkpt lat="24.96304" lon="102.254856">
<time>2015-09-27T19:44:18Z</time></trkpt>
<trkpt lat="24.96298" lon="102.254766">
<time>2015-09-27T19:44:19Z</time></trkpt>
<trkpt lat="24.96293" lon="102.254686">
<time>2015-09-27T19:44:20Z</time></trkpt>
<trkpt lat="24.96287" lon="102.254616">
<time>2015-09-27T19:44:21Z</time></trkpt>
<trkpt lat="24.96278" lon="102.254516">
<time>2015-09-27T19:44:22Z</time></trkpt>
<trkpt lat="24.96265" lon="102.254386">
<time>2015-09-27T19:44:23Z</time></trkpt>
<trkpt lat="24.96251" lon="102.254246">
<time>2015-09-27T19:44:24Z</time></trkpt>
<trkpt lat="24.96235" lon="102.254076">
<time>2015-09-27T19:44:25Z</time></trkpt>
<trkpt lat="24.96208" lon="102.253756">
<time>2015-09-27T19:44:26Z</time></trkpt>
<trkpt lat="24.96192" lon="102.253526">
<time>2015-09-27T19:44:27Z</time></trkpt>
<trkpt lat="24.96183" lon="102.253326">
<time>2015-09-27T19:44:28Z</time></trkpt>
<trkpt lat="24.96176" lon="102.253156">
<time>2015-09-27T19:44:29Z</time></trkpt>
<trkpt lat="24.96173" lon="102.252986">
<time>2015-09-27T19:44:30Z</time></trkpt>
<trkpt lat="24.96171" lon="102.252866">
<time>2015-09-27T19:44:31Z</time></trkpt>
<trkpt lat="24.96171" lon="102.252616">
<time>2015-09-27T19:44:32Z</time></trkpt>
<trkpt lat="24.96171" lon="102.252596">
<time>2015-09-27T19:44:33Z</time></trkpt>
<trkpt lat="24.961711" lon="102.252316">
<time>2015-09-27T19:44:34Z</time></trkpt>
<trkpt lat="24.961701" lon="102.252036">
<time>2015-09-27T19:44:35Z</time></trkpt>
<trkpt lat="24.961711" lon="102.251746">
<time>2015-09-27T19:44:36Z</time></trkpt>
<trkpt lat="24.961721" lon="102.251466">
<time>2015-09-27T19:44:37Z</time></trkpt>
<trkpt lat="24.961711" lon="102.251316">
<time>2015-09-27T19:44:38Z</time></trkpt>
<trkpt lat="24.961711" lon="102.251246">
<time>2015-09-27T19:44:39Z</time></trkpt>
<trkpt lat="24.961701" lon="102.250996">
<time>2015-09-27T19:44:40Z</time></trkpt>
<trkpt lat="24.961681" lon="102.250786">
<time>2015-09-27T19:44:41Z</time></trkpt>
<trkpt lat="24.961521" lon="102.250016">
<time>2015-09-27T19:44:42Z</time></trkpt>
<trkpt lat="24.961491" lon="102.249906">
<time>2015-09-27T19:44:43Z</time></trkpt>
<trkpt lat="24.961421" lon="102.249736">
<time>2015-09-27T19:44:44Z</time></trkpt>
<trkpt lat="24.961341" lon="102.249496">
<time>2015-09-27T19:44:45Z</time></trkpt>
<trkpt lat="24.961271" lon="102.249266">
<time>2015-09-27T19:44:46Z</time></trkpt>
<trkpt lat="24.961211" lon="102.249006">
<time>2015-09-27T19:44:47Z</time></trkpt>
<trkpt lat="24.961171" lon="102.248746">
<time>2015-09-27T19:44:48Z</time></trkpt>
<trkpt lat="24.961131" lon="102.248446">
<time>2015-09-27T19:44:49Z</time></trkpt>
<trkpt lat="24.961101" lon="102.248206">
<time>2015-09-27T19:44:50Z</time></trkpt>
<trkpt lat="24.961071" lon="102.247936">
<time>2015-09-27T19:44:51Z</time></trkpt>
<trkpt lat="24.961051" lon="102.247666">
<time>2015-09-27T19:44:52Z</time></trkpt>
<trkpt lat="24.961031" lon="102.247376">
<time>2015-09-27T19:44:53Z</time></trkpt>
<trkpt lat="24.960961" lon="102.246976">
<time>2015-09-27T19:44:54Z</time></trkpt>
<trkpt lat="24.960931" lon="102.246846">
<time>2015-09-27T19:44:55Z</time></trkpt>
<trkpt lat="24.960881" lon="102.246736">
<time>2015-09-27T19:44:56Z</time></trkpt>
<trkpt lat="24.960831" lon="102.246656">
<time>2015-09-27T19:44:57Z</time></trkpt>
<trkpt lat="24.960781" lon="102.246576">
<time>2015-09-27T19:44:58Z</time></trkpt>
<trkpt lat="24.960761" lon="102.246556">
<time>2015-09-27T19:44:59Z</time></trkpt>
<trkpt lat="24.960761" lon="102.246556">
<time>2015-09-27T19:45:00Z</time></trkpt>
<trkpt lat="24.961161" lon="102.245125">
<time>2015-09-27T19:45:01Z</time></trkpt>
<trkpt lat="24.96195" lon="102.243615">
<time>2015-09-27T19:45:02Z</time></trkpt>
<trkpt lat="24.96208" lon="102.243425">
<time>2015-09-27T19:45:03Z</time></trkpt>
<trkpt lat="24.96226" lon="102.243354">
<time>2015-09-27T19:45:04Z</time></trkpt>
<trkpt lat="24.96265" lon="102.243284">
<time>2015-09-27T19:45:05Z</time></trkpt>
<trkpt lat="24.96265" lon="102.243284">
<time>2015-09-27T19:45:06Z</time></trkpt>
<trkpt lat="24.96248" lon="102.242974">
<time>2015-09-27T19:45:07Z</time></trkpt>
<trkpt lat="24.9624" lon="102.242614">
<time>2015-09-27T19:45:08Z</time></trkpt>
<trkpt lat="24.96233" lon="102.242324">
<time>2015-09-27T19:45:09Z</time></trkpt>
<trkpt lat="24.96233" lon="102.242324">
<time>2015-09-27T19:45:10Z</time></trkpt>
<trkpt lat="24.96282" lon="102.241184">
<time>2015-09-27T19:45:11Z</time></trkpt>
<trkpt lat="24.963189" lon="102.240323">
<time>2015-09-27T19:45:12Z</time></trkpt>
<trkpt lat="24.963189" lon="102.240323">
<time>2015-09-27T19:45:13Z</time></trkpt>
<trkpt lat="24.962279" lon="102.239663">
<time>2015-09-27T19:45:14Z</time></trkpt>
<trkpt lat="24.961389" lon="102.239002">
<time>2015-09-27T19:45:15Z</time></trkpt>
<trkpt lat="24.960799" lon="102.238572">
<time>2015-09-27T19:45:16Z</time></trkpt>
<trkpt lat="24.960269" lon="102.238192">
<time>2015-09-27T19:45:17Z</time></trkpt>
<trkpt lat="24.959639" lon="102.237732">
<time>2015-09-27T19:45:18Z</time></trkpt>
<trkpt lat="24.959389" lon="102.237562">
<time>2015-09-27T19:45:19Z</time></trkpt>
<trkpt lat="24.959079" lon="102.237371">
<time>2015-09-27T19:45:20Z</time></trkpt>
<trkpt lat="24.958679" lon="102.237141">
<time>2015-09-27T19:45:21Z</time></trkpt>
<trkpt lat="24.957629" lon="102.236631">
<time>2015-09-27T19:45:22Z</time></trkpt>
<trkpt lat="24.956419" lon="102.236051">
<time>2015-09-27T19:45:23Z</time></trkpt>
<trkpt lat="24.955399" lon="102.23555">
<time>2015-09-27T19:45:24Z</time></trkpt>
<trkpt lat="24.954078" lon="102.23492">
<time>2015-09-27T19:45:25Z</time></trkpt>
<trkpt lat="24.953208" lon="102.2345">
<time>2015-09-27T19:45:26Z</time></trkpt>
<trkpt lat="24.952248" lon="102.234059">
<time>2015-09-27T19:45:27Z</time></trkpt>
<trkpt lat="24.951438" lon="102.233639">
<time>2015-09-27T19:45:28Z</time></trkpt>
<trkpt lat="24.951348" lon="102.233589">
<time>2015-09-27T19:45:29Z</time></trkpt>
<trkpt lat="24.950848" lon="102.233349">
<time>2015-09-27T19:45:30Z</time></trkpt>
<trkpt lat="24.950488" lon="102.233169">
<time>2015-09-27T19:45:31Z</time></trkpt>
<trkpt lat="24.950008" lon="102.232878">
<time>2015-09-27T19:45:32Z</time></trkpt>
<trkpt lat="24.949598" lon="102.232558">
<time>2015-09-27T19:45:33Z</time></trkpt>
<trkpt lat="24.949117" lon="102.232148">
<time>2015-09-27T19:45:34Z</time></trkpt>
<trkpt lat="24.948327" lon="102.231457">
<time>2015-09-27T19:45:35Z</time></trkpt>
<trkpt lat="24.947967" lon="102.231147">
<time>2015-09-27T19:45:36Z</time></trkpt>
<trkpt lat="24.947587" lon="102.230847">
<time>2015-09-27T19:45:37Z</time></trkpt>
<trkpt lat="24.947257" lon="102.230606">
<time>2015-09-27T19:45:38Z</time></trkpt>
<trkpt lat="24.946867" lon="102.230366">
<time>2015-09-27T19:45:39Z</time></trkpt>
<trkpt lat="24.946286" lon="102.230026">
<time>2015-09-27T19:45:40Z</time></trkpt>
<trkpt lat="24.945736" lon="102.229686">
<time>2015-09-27T19:45:41Z</time></trkpt>
<trkpt lat="24.945346" lon="102.229415">
<time>2015-09-27T19:45:42Z</time></trkpt>
<trkpt lat="24.945036" lon="102.229155">
<time>2015-09-27T19:45:43Z</time></trkpt>
<trkpt lat="24.944136" lon="102.228334">
<time>2015-09-27T19:45:44Z</time></trkpt>
<trkpt lat="24.943055" lon="102.227343">
<time>2015-09-27T19:45:45Z</time></trkpt>
<trkpt lat="24.941874" lon="102.226262">
<time>2015-09-27T19:45:46Z</time></trkpt>
<trkpt lat="24.941544" lon="102.225972">
<time>2015-09-27T19:45:47Z</time></trkpt>
<trkpt lat="24.940774" lon="102.225351">
<time>2015-09-27T19:45:48Z</time></trkpt>
<trkpt lat="24.939703" lon="102.22452">
<time>2015-09-27T19:45:49Z</time></trkpt>
<trkpt lat="24.939213" lon="102.22414">
<time>2015-09-27T19:45:50Z</time></trkpt>
<trkpt lat="24.938773" lon="102.22388">
<time>2015-09-27T19:45:51Z</time></trkpt>
<trkpt lat="24.938773" lon="102.22388">
<time>2015-09-27T19:45:52Z</time></trkpt>
<trkpt lat="24.938832" lon="102.223189">
<time>2015-09-27T19:45:53Z</time></trkpt>
<trkpt lat="24.938852" lon="102.223029">
<time>2015-09-27T19:45:54Z</time></trkpt>
<trkpt lat="24.938882" lon="102.222838">
<time>2015-09-27T19:45:55Z</time></trkpt>
<trkpt lat="24.938911" lon="102.222688">
<time>2015-09-27T19:45:56Z</time></trkpt>
<trkpt lat="24.938941" lon="102.222538">
<time>2015-09-27T19:45:57Z</time></trkpt>
<trkpt lat="24.938971" lon="102.222438">
<time>2015-09-27T19:45:58Z</time></trkpt>
<trkpt lat="24.939001" lon="102.222338">
<time>2015-09-27T19:45:59Z</time></trkpt>
<trkpt lat="24.939021" lon="102.222278">
<time>2015-09-27T19:46:00Z</time></trkpt>
<trkpt lat="24.939051" lon="102.222198">
<time>2015-09-27T19:46:01Z</time></trkpt>
<trkpt lat="24.939101" lon="102.222077">
<time>2015-09-27T19:46:02Z</time></trkpt>
<trkpt lat="24.939191" lon="102.221857">
<time>2015-09-27T19:46:03Z</time></trkpt>
<trkpt lat="24.939749" lon="102.220616">
<time>2015-09-27T19:46:04Z</time></trkpt>
<trkpt lat="24.940178" lon="102.219664">
<time>2015-09-27T19:46:05Z</time></trkpt>
<trkpt lat="24.940298" lon="102.219374">
<time>2015-09-27T19:46:06Z</time></trkpt>
<trkpt lat="24.940428" lon="102.219063">
<time>2015-09-27T19:46:07Z</time></trkpt>
<trkpt lat="24.940587" lon="102.218723">
<time>2015-09-27T19:46:08Z</time></trkpt>
<trkpt lat="24.940687" lon="102.218473">
<time>2015-09-27T19:46:09Z</time></trkpt>
<trkpt lat="24.940777" lon="102.218282">
<time>2015-09-27T19:46:10Z</time></trkpt>
<trkpt lat="24.940817" lon="102.218172">
<time>2015-09-27T19:46:11Z</time></trkpt>
<trkpt lat="24.940926" lon="102.217842">
<time>2015-09-27T19:46:12Z</time></trkpt>
<trkpt lat="24.941424" lon="102.215969">
<time>2015-09-27T19:46:13Z</time></trkpt>
<trkpt lat="24.941534" lon="102.215548">
<time>2015-09-27T19:46:14Z</time></trkpt>
<trkpt lat="24.941564" lon="102.215428">
<time>2015-09-27T19:46:15Z</time></trkpt>
<trkpt lat="24.941623" lon="102.215268">
<time>2015-09-27T19:46:16Z</time></trkpt>
<trkpt lat="24.941683" lon="102.215118">
<time>2015-09-27T19:46:17Z</time></trkpt>
<trkpt lat="24.941733" lon="102.215018">
<time>2015-09-27T19:46:18Z</time></trkpt>
<trkpt lat="24.941773" lon="102.214948">
<time>2015-09-27T19:46:19Z</time></trkpt>
<trkpt lat="24.941863" lon="102.214807">
<time>2015-09-27T19:46:20Z</time></trkpt>
<trkpt lat="24.941923" lon="102.214717">
<time>2015-09-27T19:46:21Z</time></trkpt>
<trkpt lat="24.941983" lon="102.214637">
<time>2015-09-27T19:46:22Z</time></trkpt>
<trkpt lat="24.942122" lon="102.214487">
<time>2015-09-27T19:46:23Z</time></trkpt>
<trkpt lat="24.942262" lon="102.214337">
<time>2015-09-27T19:46:24Z</time></trkpt>
<trkpt lat="24.942422" lon="102.214216">
<time>2015-09-27T19:46:25Z</time></trkpt>
<trkpt lat="24.942542" lon="102.214146">
<time>2015-09-27T19:46:26Z</time></trkpt>
<trkpt lat="24.942652" lon="102.214066">
<time>2015-09-27T19:46:27Z</time></trkpt>
<trkpt lat="24.942832" lon="102.213956">
<time>2015-09-27T19:46:28Z</time></trkpt>
<trkpt lat="24.943061" lon="102.213836">
<time>2015-09-27T19:46:29Z</time></trkpt>
<trkpt lat="24.943151" lon="102.213786">
<time>2015-09-27T19:46:30Z</time></trkpt>
<trkpt lat="24.943201" lon="102.213756">
<time>2015-09-27T19:46:31Z</time></trkpt>
<trkpt lat="24.943691" lon="102.213495">
<time>2015-09-27T19:46:32Z</time></trkpt>
<trkpt lat="24.943921" lon="102.213365">
<time>2015-09-27T19:46:33Z</time></trkpt>
<trkpt lat="24.944051" lon="102.213285">
<time>2015-09-27T19:46:34Z</time></trkpt>
<trkpt lat="24.944211" lon="102.213185">
<time>2015-09-27T19:46:35Z</time></trkpt>
<trkpt lat="24.94435" lon="102.213085">
<time>2015-09-27T19:46:36Z</time></trkpt>
<trkpt lat="24.94445" lon="102.213004">
<time>2015-09-27T19:46:37Z</time></trkpt>
<trkpt lat="24.9447" lon="102.212794">
<time>2015-09-27T19:46:38Z</time></trkpt>
<trkpt lat="24.94485" lon="102.212644">
<time>2015-09-27T19:46:39Z</time></trkpt>
<trkpt lat="24.945059" lon="102.212413">
<time>2015-09-27T19:46:40Z</time></trkpt>
<trkpt lat="24.945728" lon="102.211682">
<time>2015-09-27T19:46:41Z</time></trkpt>
<trkpt lat="24.946298" lon="102.211061">
<time>2015-09-27T19:46:42Z</time></trkpt>
<trkpt lat="24.946757" lon="102.21056">
<time>2015-09-27T19:46:43Z</time></trkpt>
<trkpt lat="24.946907" lon="102.21041">
<time>2015-09-27T19:46:44Z</time></trkpt>
<trkpt lat="24.947076" lon="102.21026">
<time>2015-09-27T19:46:45Z</time></trkpt>
<trkpt lat="24.947296" lon="102.21008">
<time>2015-09-27T19:46:46Z</time></trkpt>
<trkpt lat="24.947536" lon="102.209889">
<time>2015-09-27T19:46:47Z</time></trkpt>
<trkpt lat="24.947736" lon="102.209739">
<time>2015-09-27T19:46:48Z</time></trkpt>
<trkpt lat="24.948115" lon="102.209469">
<time>2015-09-27T19:46:49Z</time></trkpt>
<trkpt lat="24.950932" lon="102.207505">
<time>2015-09-27T19:46:50Z</time></trkpt>
<trkpt lat="24.95283" lon="102.206183">
<time>2015-09-27T19:46:51Z</time></trkpt>
<trkpt lat="24.95308" lon="102.206012">
<time>2015-09-27T19:46:52Z</time></trkpt>
<trkpt lat="24.95316" lon="102.205952">
<time>2015-09-27T19:46:53Z</time></trkpt>
<trkpt lat="24.95325" lon="102.205872">
<time>2015-09-27T19:46:54Z</time></trkpt>
<trkpt lat="24.95329" lon="102.205832">
<time>2015-09-27T19:46:55Z</time></trkpt>
<trkpt lat="24.95333" lon="102.205782">
<time>2015-09-27T19:46:56Z</time></trkpt>
<trkpt lat="24.953359" lon="102.205742">
<time>2015-09-27T19:46:57Z</time></trkpt>
<trkpt lat="24.953379" lon="102.205722">
<time>2015-09-27T19:46:58Z</time></trkpt>
<trkpt lat="24.953389" lon="102.205672">
<time>2015-09-27T19:46:59Z</time></trkpt>
<trkpt lat="24.953399" lon="102.205632">
<time>2015-09-27T19:47:00Z</time></trkpt>
<trkpt lat="24.953409" lon="102.205612">
<time>2015-09-27T19:47:01Z</time></trkpt>
<trkpt lat="24.953409" lon="102.205592">
<time>2015-09-27T19:47:02Z</time></trkpt>
<trkpt lat="24.953409" lon="102.205572">
<time>2015-09-27T19:47:03Z</time></trkpt>
<trkpt lat="24.953409" lon="102.205542">
<time>2015-09-27T19:47:04Z</time></trkpt>
<trkpt lat="24.953409" lon="102.205512">
<time>2015-09-27T19:47:05Z</time></trkpt>
<trkpt lat="24.953409" lon="102.205492">
<time>2015-09-27T19:47:06Z</time></trkpt>
<trkpt lat="24.953399" lon="102.205451">
<time>2015-09-27T19:47:07Z</time></trkpt>
<trkpt lat="24.953389" lon="102.205421">
<time>2015-09-27T19:47:08Z</time></trkpt>
<trkpt lat="24.953379" lon="102.205401">
<time>2015-09-27T19:47:09Z</time></trkpt>
<trkpt lat="24.953359" lon="102.205371">
<time>2015-09-27T19:47:10Z</time></trkpt>
<trkpt lat="24.953349" lon="102.205341">
<time>2015-09-27T19:47:11Z</time></trkpt>
<trkpt lat="24.953319" lon="102.205301">
<time>2015-09-27T19:47:12Z</time></trkpt>
<trkpt lat="24.953289" lon="102.205261">
<time>2015-09-27T19:47:13Z</time></trkpt>
<trkpt lat="24.953239" lon="102.205211">
<time>2015-09-27T19:47:14Z</time></trkpt>
<trkpt lat="24.953159" lon="102.205151">
<time>2015-09-27T19:47:15Z</time></trkpt>
<trkpt lat="24.953079" lon="102.205091">
<time>2015-09-27T19:47:16Z</time></trkpt>
<trkpt lat="24.952989" lon="102.205041">
<time>2015-09-27T19:47:17Z</time></trkpt>
<trkpt lat="24.952918" lon="102.204981">
<time>2015-09-27T19:47:18Z</time></trkpt>
<trkpt lat="24.952778" lon="102.2049">
<time>2015-09-27T19:47:19Z</time></trkpt>
<trkpt lat="24.952268" lon="102.20459">
<time>2015-09-27T19:47:20Z</time></trkpt>
<trkpt lat="24.951547" lon="102.204159">
<time>2015-09-27T19:47:21Z</time></trkpt>
<trkpt lat="24.951187" lon="102.203929">
<time>2015-09-27T19:47:22Z</time></trkpt>
<trkpt lat="24.951067" lon="102.203849">
<time>2015-09-27T19:47:23Z</time></trkpt>
<trkpt lat="24.950957" lon="102.203768">
<time>2015-09-27T19:47:24Z</time></trkpt>
<trkpt lat="24.950837" lon="102.203638">
<time>2015-09-27T19:47:25Z</time></trkpt>
<trkpt lat="24.950787" lon="102.203588">
<time>2015-09-27T19:47:26Z</time></trkpt>
<trkpt lat="24.950727" lon="102.203508">
<time>2015-09-27T19:47:27Z</time></trkpt>
<trkpt lat="24.950676" lon="102.203428">
<time>2015-09-27T19:47:28Z</time></trkpt>
<trkpt lat="24.950636" lon="102.203358">
<time>2015-09-27T19:47:29Z</time></trkpt>
<trkpt lat="24.950606" lon="102.203298">
<time>2015-09-27T19:47:30Z</time></trkpt>
<trkpt lat="24.950596" lon="102.203258">
<time>2015-09-27T19:47:31Z</time></trkpt>
<trkpt lat="24.950576" lon="102.203197">
<time>2015-09-27T19:47:32Z</time></trkpt>
<trkpt lat="24.950546" lon="102.203057">
<time>2015-09-27T19:47:33Z</time></trkpt>
<trkpt lat="24.950536" lon="102.202937">
<time>2015-09-27T19:47:34Z</time></trkpt>
<trkpt lat="24.950526" lon="102.202777">
<time>2015-09-27T19:47:35Z</time></trkpt>
<trkpt lat="24.950515" lon="102.202616">
<time>2015-09-27T19:47:36Z</time></trkpt>
<trkpt lat="24.950515" lon="102.202346">
<time>2015-09-27T19:47:37Z</time></trkpt>
<trkpt lat="24.950534" lon="102.202055">
<time>2015-09-27T19:47:38Z</time></trkpt>
<trkpt lat="24.950554" lon="102.201785">
<time>2015-09-27T19:47:39Z</time></trkpt>
<trkpt lat="24.950593" lon="102.201244">
<time>2015-09-27T19:47:40Z</time></trkpt>
<trkpt lat="24.950692" lon="102.200362">
<time>2015-09-27T19:47:41Z</time></trkpt>
<trkpt lat="24.950741" lon="102.199971">
<time>2015-09-27T19:47:42Z</time></trkpt>
<trkpt lat="24.950791" lon="102.199801">
<time>2015-09-27T19:47:43Z</time></trkpt>
<trkpt lat="24.950831" lon="102.199641">
<time>2015-09-27T19:47:44Z</time></trkpt>
<trkpt lat="24.950861" lon="102.19956">
<time>2015-09-27T19:47:45Z</time></trkpt>
<trkpt lat="24.95089" lon="102.19946">
<time>2015-09-27T19:47:46Z</time></trkpt>
<trkpt lat="24.95094" lon="102.19933">
<time>2015-09-27T19:47:47Z</time></trkpt>
<trkpt lat="24.95098" lon="102.19925">
<time>2015-09-27T19:47:48Z</time></trkpt>
<trkpt lat="24.95106" lon="102.19911">
<time>2015-09-27T19:47:49Z</time></trkpt>
<trkpt lat="24.95117" lon="102.198939">
<time>2015-09-27T19:47:50Z</time></trkpt>
<trkpt lat="24.951299" lon="102.198759">
<time>2015-09-27T19:47:51Z</time></trkpt>
<trkpt lat="24.951459" lon="102.198508">
<time>2015-09-27T19:47:52Z</time></trkpt>
<trkpt lat="24.951588" lon="102.198288">
<time>2015-09-27T19:47:53Z</time></trkpt>
<trkpt lat="24.951718" lon="102.198098">
<time>2015-09-27T19:47:54Z</time></trkpt>
<trkpt lat="24.951977" lon="102.197627">
<time>2015-09-27T19:47:55Z</time></trkpt>
<trkpt lat="24.952167" lon="102.197286">
<time>2015-09-27T19:47:56Z</time></trkpt>
<trkpt lat="24.952296" lon="102.197045">
<time>2015-09-27T19:47:57Z</time></trkpt>
<trkpt lat="24.952964" lon="102.195793">
<time>2015-09-27T19:47:58Z</time></trkpt>
<trkpt lat="24.953104" lon="102.195562">
<time>2015-09-27T19:47:59Z</time></trkpt>
<trkpt lat="24.953204" lon="102.195432">
<time>2015-09-27T19:48:00Z</time></trkpt>
<trkpt lat="24.953383" lon="102.195192">
<time>2015-09-27T19:48:01Z</time></trkpt>
<trkpt lat="24.953982" lon="102.19448">
<time>2015-09-27T19:48:02Z</time></trkpt>
<trkpt lat="24.954261" lon="102.19416">
<time>2015-09-27T19:48:03Z</time></trkpt>
<trkpt lat="24.954271" lon="102.19415">
<time>2015-09-27T19:48:04Z</time></trkpt>
<trkpt lat="24.954431" lon="102.193979">
<time>2015-09-27T19:48:05Z</time></trkpt>
<trkpt lat="24.954571" lon="102.193799">
<time>2015-09-27T19:48:06Z</time></trkpt>
<trkpt lat="24.9549" lon="102.193428">
<time>2015-09-27T19:48:07Z</time></trkpt>
<trkpt lat="24.95499" lon="102.193308">
<time>2015-09-27T19:48:08Z</time></trkpt>
<trkpt lat="24.95505" lon="102.193228">
<time>2015-09-27T19:48:09Z</time></trkpt>
<trkpt lat="24.95508" lon="102.193198">
<time>2015-09-27T19:48:10Z</time></trkpt>
<trkpt lat="24.955119" lon="102.193127">
<time>2015-09-27T19:48:11Z</time></trkpt>
<trkpt lat="24.955159" lon="102.193047">
<time>2015-09-27T19:48:12Z</time></trkpt>
<trkpt lat="24.955179" lon="102.192987">
<time>2015-09-27T19:48:13Z</time></trkpt>
<trkpt lat="24.955209" lon="102.192887">
<time>2015-09-27T19:48:14Z</time></trkpt>
<trkpt lat="24.955239" lon="102.192787">
<time>2015-09-27T19:48:15Z</time></trkpt>
<trkpt lat="24.955249" lon="102.192696">
<time>2015-09-27T19:48:16Z</time></trkpt>
<trkpt lat="24.955249" lon="102.192636">
<time>2015-09-27T19:48:17Z</time></trkpt>
<trkpt lat="24.955249" lon="102.192586">
<time>2015-09-27T19:48:18Z</time></trkpt>
<trkpt lat="24.955248" lon="102.192516">
<time>2015-09-27T19:48:19Z</time></trkpt>
<trkpt lat="24.955238" lon="102.192446">
<time>2015-09-27T19:48:20Z</time></trkpt>
<trkpt lat="24.955228" lon="102.192386">
<time>2015-09-27T19:48:21Z</time></trkpt>
<trkpt lat="24.955208" lon="102.192316">
<time>2015-09-27T19:48:22Z</time></trkpt>
<trkpt lat="24.955188" lon="102.192256">
<time>2015-09-27T19:48:23Z</time></trkpt>
<trkpt lat="24.955168" lon="102.192205">
<time>2015-09-27T19:48:24Z</time></trkpt>
<trkpt lat="24.955138" lon="102.192145">
<time>2015-09-27T19:48:25Z</time></trkpt>
<trkpt lat="24.955098" lon="102.192065">
<time>2015-09-27T19:48:26Z</time></trkpt>
<trkpt lat="24.955027" lon="102.191945">
<time>2015-09-27T19:48:27Z</time></trkpt>
<trkpt lat="24.954867" lon="102.191654">
<time>2015-09-27T19:48:28Z</time></trkpt>
<trkpt lat="24.954807" lon="102.191534">
<time>2015-09-27T19:48:29Z</time></trkpt>
<trkpt lat="24.954777" lon="102.191464">
<time>2015-09-27T19:48:30Z</time></trkpt>
<trkpt lat="24.954757" lon="102.191404">
<time>2015-09-27T19:48:31Z</time></trkpt>
<trkpt lat="24.954736" lon="102.191344">
<time>2015-09-27T19:48:32Z</time></trkpt>
<trkpt lat="24.954716" lon="102.191253">
<time>2015-09-27T19:48:33Z</time></trkpt>
<trkpt lat="24.954706" lon="102.191183">
<time>2015-09-27T19:48:34Z</time></trkpt>
<trkpt lat="24.954696" lon="102.191123">
<time>2015-09-27T19:48:35Z</time></trkpt>
<trkpt lat="24.954696" lon="102.191043">
<time>2015-09-27T19:48:36Z</time></trkpt>
<trkpt lat="24.954686" lon="102.190953">
<time>2015-09-27T19:48:37Z</time></trkpt>
<trkpt lat="24.954686" lon="102.190853">
<time>2015-09-27T19:48:38Z</time></trkpt>
<trkpt lat="24.954695" lon="102.190752">
<time>2015-09-27T19:48:39Z</time></trkpt>
<trkpt lat="24.954705" lon="102.190632">
<time>2015-09-27T19:48:40Z</time></trkpt>
<trkpt lat="24.954774" lon="102.18987">
<time>2015-09-27T19:48:41Z</time></trkpt>
<trkpt lat="24.954784" lon="102.1898">
<time>2015-09-27T19:48:42Z</time></trkpt>
<trkpt lat="24.954784" lon="102.18973">
<time>2015-09-27T19:48:43Z</time></trkpt>
<trkpt lat="24.954804" lon="102.18968">
<time>2015-09-27T19:48:44Z</time></trkpt>
<trkpt lat="24.954833" lon="102.1896">
<time>2015-09-27T19:48:45Z</time></trkpt>
<trkpt lat="24.954853" lon="102.18956">
<time>2015-09-27T19:48:46Z</time></trkpt>
<trkpt lat="24.954883" lon="102.18951">
<time>2015-09-27T19:48:47Z</time></trkpt>
<trkpt lat="24.954913" lon="102.18947">
<time>2015-09-27T19:48:48Z</time></trkpt>
<trkpt lat="24.954953" lon="102.18943">
<time>2015-09-27T19:48:49Z</time></trkpt>
<trkpt lat="24.954983" lon="102.189409">
<time>2015-09-27T19:48:50Z</time></trkpt>
<trkpt lat="24.955033" lon="102.189379">
<time>2015-09-27T19:48:51Z</time></trkpt>
<trkpt lat="24.955083" lon="102.189349">
<time>2015-09-27T19:48:52Z</time></trkpt>
<trkpt lat="24.955173" lon="102.189309">
<time>2015-09-27T19:48:53Z</time></trkpt>
<trkpt lat="24.955293" lon="102.189269">
<time>2015-09-27T19:48:54Z</time></trkpt>
<trkpt lat="24.956232" lon="102.188999">
<time>2015-09-27T19:48:55Z</time></trkpt>
<trkpt lat="24.956482" lon="102.188958">
<time>2015-09-27T19:48:56Z</time></trkpt>
<trkpt lat="24.956752" lon="102.188918">
<time>2015-09-27T19:48:57Z</time></trkpt>
<trkpt lat="24.957012" lon="102.188888">
<time>2015-09-27T19:48:58Z</time></trkpt>
<trkpt lat="24.957662" lon="102.188828">
<time>2015-09-27T19:48:59Z</time></trkpt>
<trkpt lat="24.957772" lon="102.188818">
<time>2015-09-27T19:49:00Z</time></trkpt>
<trkpt lat="24.957952" lon="102.188788">
<time>2015-09-27T19:49:01Z</time></trkpt>
<trkpt lat="24.958062" lon="102.188748">
<time>2015-09-27T19:49:02Z</time></trkpt>
<trkpt lat="24.958111" lon="102.188728">
<time>2015-09-27T19:49:03Z</time></trkpt>
<trkpt lat="24.958171" lon="102.188708">
<time>2015-09-27T19:49:04Z</time></trkpt>
<trkpt lat="24.958231" lon="102.188678">
<time>2015-09-27T19:49:05Z</time></trkpt>
<trkpt lat="24.958281" lon="102.188638">
<time>2015-09-27T19:49:06Z</time></trkpt>
<trkpt lat="24.958321" lon="102.188618">
<time>2015-09-27T19:49:07Z</time></trkpt>
<trkpt lat="24.958381" lon="102.188568">
<time>2015-09-27T19:49:08Z</time></trkpt>
<trkpt lat="24.958431" lon="102.188527">
<time>2015-09-27T19:49:09Z</time></trkpt>
<trkpt lat="24.958481" lon="102.188487">
<time>2015-09-27T19:49:10Z</time></trkpt>
<trkpt lat="24.958531" lon="102.188427">
<time>2015-09-27T19:49:11Z</time></trkpt>
<trkpt lat="24.958681" lon="102.188267">
<time>2015-09-27T19:49:12Z</time></trkpt>
<trkpt lat="24.95891" lon="102.187986">
<time>2015-09-27T19:49:13Z</time></trkpt>
<trkpt lat="24.95894" lon="102.187946">
<time>2015-09-27T19:49:14Z</time></trkpt>
<trkpt lat="24.959219" lon="102.187615">
<time>2015-09-27T19:49:15Z</time></trkpt>
<trkpt lat="24.959369" lon="102.187455">
<time>2015-09-27T19:49:16Z</time></trkpt>
<trkpt lat="24.959529" lon="102.187315">
<time>2015-09-27T19:49:17Z</time></trkpt>
<trkpt lat="24.959609" lon="102.187265">
<time>2015-09-27T19:49:18Z</time></trkpt>
<trkpt lat="24.959699" lon="102.187225">
<time>2015-09-27T19:49:19Z</time></trkpt>
<trkpt lat="24.959759" lon="102.187195">
<time>2015-09-27T19:49:20Z</time></trkpt>
<trkpt lat="24.959839" lon="102.187184">
<time>2015-09-27T19:49:21Z</time></trkpt>
<trkpt lat="24.959939" lon="102.187174">
<time>2015-09-27T19:49:22Z</time></trkpt>
<trkpt lat="24.960058" lon="102.187164">
<time>2015-09-27T19:49:23Z</time></trkpt>
<trkpt lat="24.960168" lon="102.187174">
<time>2015-09-27T19:49:24Z</time></trkpt>
<trkpt lat="24.960278" lon="102.187174">
<time>2015-09-27T19:49:25Z</time></trkpt>
<trkpt lat="24.960408" lon="102.187174">
<time>2015-09-27T19:49:26Z</time></trkpt>
<trkpt lat="24.960908" lon="102.187205">
<time>2015-09-27T19:49:27Z</time></trkpt>
<trkpt lat="24.961398" lon="102.187245">
<time>2015-09-27T19:49:28Z</time></trkpt>
<trkpt lat="24.961648" lon="102.187255">
<time>2015-09-27T19:49:29Z</time></trkpt>
<trkpt lat="24.962368" lon="102.187275">
<time>2015-09-27T19:49:30Z</time></trkpt>
<trkpt lat="24.962528" lon="102.187275">
<time>2015-09-27T19:49:31Z</time></trkpt>
<trkpt lat="24.962668" lon="102.187265">
<time>2015-09-27T19:49:32Z</time></trkpt>
<trkpt lat="24.962778" lon="102.187245">
<time>2015-09-27T19:49:33Z</time></trkpt>
<trkpt lat="24.962878" lon="102.187224">
<time>2015-09-27T19:49:34Z</time></trkpt>
<trkpt lat="24.962978" lon="102.187194">
<time>2015-09-27T19:49:35Z</time></trkpt>
<trkpt lat="24.963088" lon="102.187164">
<time>2015-09-27T19:49:36Z</time></trkpt>
<trkpt lat="24.963248" lon="102.187114">
<time>2015-09-27T19:49:37Z</time></trkpt>
<trkpt lat="24.963368" lon="102.187064">
<time>2015-09-27T19:49:38Z</time></trkpt>
<trkpt lat="24.963538" lon="102.186974">
<time>2015-09-27T19:49:39Z</time></trkpt>
<trkpt lat="24.963668" lon="102.186914">
<time>2015-09-27T19:49:40Z</time></trkpt>
<trkpt lat="24.963787" lon="102.186844">
<time>2015-09-27T19:49:41Z</time></trkpt>
<trkpt lat="24.963987" lon="102.186713">
<time>2015-09-27T19:49:42Z</time></trkpt>
<trkpt lat="24.964327" lon="102.186473">
<time>2015-09-27T19:49:43Z</time></trkpt>
<trkpt lat="24.965166" lon="102.185891">
<time>2015-09-27T19:49:44Z</time></trkpt>
<trkpt lat="24.965325" lon="102.185771">
<time>2015-09-27T19:49:45Z</time></trkpt>
<trkpt lat="24.965455" lon="102.185671">
<time>2015-09-27T19:49:46Z</time></trkpt>
<trkpt lat="24.965585" lon="102.185561">
<time>2015-09-27T19:49:47Z</time></trkpt>
<trkpt lat="24.965725" lon="102.18544">
<time>2015-09-27T19:49:48Z</time></trkpt>
<trkpt lat="24.965795" lon="102.18537">
<time>2015-09-27T19:49:49Z</time></trkpt>
<trkpt lat="24.965884" lon="102.18527">
<time>2015-09-27T19:49:50Z</time></trkpt>
<trkpt lat="24.966034" lon="102.1851">
<time>2015-09-27T19:49:51Z</time></trkpt>
<trkpt lat="24.966204" lon="102.184859">
<time>2015-09-27T19:49:52Z</time></trkpt>
<trkpt lat="24.966333" lon="102.184689">
<time>2015-09-27T19:49:53Z</time></trkpt>
<trkpt lat="24.967101" lon="102.183697">
<time>2015-09-27T19:49:54Z</time></trkpt>
<trkpt lat="24.96763" lon="102.183005">
<time>2015-09-27T19:49:55Z</time></trkpt>
<trkpt lat="24.967949" lon="102.182584">
<time>2015-09-27T19:49:56Z</time></trkpt>
<trkpt lat="24.968039" lon="102.182474">
<time>2015-09-27T19:49:57Z</time></trkpt>
<trkpt lat="24.968218" lon="102.182213">
<time>2015-09-27T19:49:58Z</time></trkpt>
<trkpt lat="24.968268" lon="102.182123">
<time>2015-09-27T19:49:59Z</time></trkpt>
<trkpt lat="24.968338" lon="102.182003">
<time>2015-09-27T19:50:00Z</time></trkpt>
<trkpt lat="24.968408" lon="102.181852">
<time>2015-09-27T19:50:01Z</time></trkpt>
<trkpt lat="24.968487" lon="102.181652">
<time>2015-09-27T19:50:02Z</time></trkpt>
<trkpt lat="24.968527" lon="102.181471">
<time>2015-09-27T19:50:03Z</time></trkpt>
<trkpt lat="24.968547" lon="102.181381">
<time>2015-09-27T19:50:04Z</time></trkpt>
<trkpt lat="24.968567" lon="102.181271">
<time>2015-09-27T19:50:05Z</time></trkpt>
<trkpt lat="24.968577" lon="102.181161">
<time>2015-09-27T19:50:06Z</time></trkpt>
<trkpt lat="24.968576" lon="102.181041">
<time>2015-09-27T19:50:07Z</time></trkpt>
<trkpt lat="24.968576" lon="102.18094">
<time>2015-09-27T19:50:08Z</time></trkpt>
<trkpt lat="24.968566" lon="102.18082">
<time>2015-09-27T19:50:09Z</time></trkpt>
<trkpt lat="24.968556" lon="102.18072">
<time>2015-09-27T19:50:10Z</time></trkpt>
<trkpt lat="24.968525" lon="102.180589">
<time>2015-09-27T19:50:11Z</time></trkpt>
<trkpt lat="24.968505" lon="102.180469">
<time>2015-09-27T19:50:12Z</time></trkpt>
<trkpt lat="24.968475" lon="102.180369">
<time>2015-09-27T19:50:13Z</time></trkpt>
<trkpt lat="24.968435" lon="102.180249">
<time>2015-09-27T19:50:14Z</time></trkpt>
<trkpt lat="24.968375" lon="102.180118">
<time>2015-09-27T19:50:15Z</time></trkpt>
<trkpt lat="24.968324" lon="102.180028">
<time>2015-09-27T19:50:16Z</time></trkpt>
<trkpt lat="24.968274" lon="102.179938">
<time>2015-09-27T19:50:17Z</time></trkpt>
<trkpt lat="24.968214" lon="102.179838">
<time>2015-09-27T19:50:18Z</time></trkpt>
<trkpt lat="24.968064" lon="102.179617">
<time>2015-09-27T19:50:19Z</time></trkpt>
<trkpt lat="24.967873" lon="102.179377">
<time>2015-09-27T19:50:20Z</time></trkpt>
<trkpt lat="24.967673" lon="102.179136">
<time>2015-09-27T19:50:21Z</time></trkpt>
<trkpt lat="24.967472" lon="102.178896">
<time>2015-09-27T19:50:22Z</time></trkpt>
<trkpt lat="24.967272" lon="102.178645">
<time>2015-09-27T19:50:23Z</time></trkpt>
<trkpt lat="24.967182" lon="102.178535">
<time>2015-09-27T19:50:24Z</time></trkpt>
<trkpt lat="24.967092" lon="102.178395">
<time>2015-09-27T19:50:25Z</time></trkpt>
<trkpt lat="24.967011" lon="102.178264">
<time>2015-09-27T19:50:26Z</time></trkpt>
<trkpt lat="24.966941" lon="102.178124">
<time>2015-09-27T19:50:27Z</time></trkpt>
<trkpt lat="24.966921" lon="102.178064">
<time>2015-09-27T19:50:28Z</time></trkpt>
<trkpt lat="24.966901" lon="102.178004">
<time>2015-09-27T19:50:29Z</time></trkpt>
<trkpt lat="24.966881" lon="102.177954">
<time>2015-09-27T19:50:30Z</time></trkpt>
<trkpt lat="24.966871" lon="102.177913">
<time>2015-09-27T19:50:31Z</time></trkpt>
<trkpt lat="24.966861" lon="102.177863">
<time>2015-09-27T19:50:32Z</time></trkpt>
<trkpt lat="24.96685" lon="102.177803">
<time>2015-09-27T19:50:33Z</time></trkpt>
<trkpt lat="24.96684" lon="102.177763">
<time>2015-09-27T19:50:34Z</time></trkpt>
<trkpt lat="24.96684" lon="102.177723">
<time>2015-09-27T19:50:35Z</time></trkpt>
<trkpt lat="24.96684" lon="102.177683">
<time>2015-09-27T19:50:36Z</time></trkpt>
<trkpt lat="24.96684" lon="102.177643">
<time>2015-09-27T19:50:37Z</time></trkpt>
<trkpt lat="24.96684" lon="102.177583">
<time>2015-09-27T19:50:38Z</time></trkpt>
<trkpt lat="24.96684" lon="102.177533">
<time>2015-09-27T19:50:39Z</time></trkpt>
<trkpt lat="24.96685" lon="102.177502">
<time>2015-09-27T19:50:40Z</time></trkpt>
<trkpt lat="24.96686" lon="102.177432">
<time>2015-09-27T19:50:41Z</time></trkpt>
<trkpt lat="24.96688" lon="102.177392">
<time>2015-09-27T19:50:42Z</time></trkpt>
<trkpt lat="24.9669" lon="102.177342">
<time>2015-09-27T19:50:43Z</time></trkpt>
<trkpt lat="24.96692" lon="102.177312">
<time>2015-09-27T19:50:44Z</time></trkpt>
<trkpt lat="24.966949" lon="102.177262">
<time>2015-09-27T19:50:45Z</time></trkpt>
<trkpt lat="24.966989" lon="102.177202">
<time>2015-09-27T19:50:46Z</time></trkpt>
<trkpt lat="24.967049" lon="102.177132">
<time>2015-09-27T19:50:47Z</time></trkpt>
<trkpt lat="24.967129" lon="102.177021">
<time>2015-09-27T19:50:48Z</time></trkpt>
<trkpt lat="24.967179" lon="102.176961">
<time>2015-09-27T19:50:49Z</time></trkpt>
<trkpt lat="24.967249" lon="102.176871">
<time>2015-09-27T19:50:50Z</time></trkpt>
<trkpt lat="24.967318" lon="102.176761">
<time>2015-09-27T19:50:51Z</time></trkpt>
<trkpt lat="24.967388" lon="102.17664">
<time>2015-09-27T19:50:52Z</time></trkpt>
<trkpt lat="24.967448" lon="102.17652">
<time>2015-09-27T19:50:53Z</time></trkpt>
<trkpt lat="24.967697" lon="102.175929">
<time>2015-09-27T19:50:54Z</time></trkpt>
<trkpt lat="24.967886" lon="102.175468">
<time>2015-09-27T19:50:55Z</time></trkpt>
<trkpt lat="24.967946" lon="102.175307">
<time>2015-09-27T19:50:56Z</time></trkpt>
<trkpt lat="24.967985" lon="102.175167">
<time>2015-09-27T19:50:57Z</time></trkpt>
<trkpt lat="24.968005" lon="102.175097">
<time>2015-09-27T19:50:58Z</time></trkpt>
<trkpt lat="24.968015" lon="102.175047">
<time>2015-09-27T19:50:59Z</time></trkpt>
<trkpt lat="24.968015" lon="102.174997">
<time>2015-09-27T19:51:00Z</time></trkpt>
<trkpt lat="24.968015" lon="102.174967">
<time>2015-09-27T19:51:01Z</time></trkpt>
<trkpt lat="24.968005" lon="102.174916">
<time>2015-09-27T19:51:02Z</time></trkpt>
<trkpt lat="24.967995" lon="102.174876">
<time>2015-09-27T19:51:03Z</time></trkpt>
<trkpt lat="24.967975" lon="102.174826">
<time>2015-09-27T19:51:04Z</time></trkpt>
<trkpt lat="24.967945" lon="102.174776">
<time>2015-09-27T19:51:05Z</time></trkpt>
<trkpt lat="24.967905" lon="102.174736">
<time>2015-09-27T19:51:06Z</time></trkpt>
<trkpt lat="24.967845" lon="102.174676">
<time>2015-09-27T19:51:07Z</time></trkpt>
<trkpt lat="24.967744" lon="102.174606">
<time>2015-09-27T19:51:08Z</time></trkpt>
<trkpt lat="24.967634" lon="102.174526">
<time>2015-09-27T19:51:09Z</time></trkpt>
<trkpt lat="24.967174" lon="102.174245">
<time>2015-09-27T19:51:10Z</time></trkpt>
<trkpt lat="24.966903" lon="102.174075">
<time>2015-09-27T19:51:11Z</time></trkpt>
<trkpt lat="24.966663" lon="102.173914">
<time>2015-09-27T19:51:12Z</time></trkpt>
<trkpt lat="24.966253" lon="102.173614">
<time>2015-09-27T19:51:13Z</time></trkpt>
<trkpt lat="24.966042" lon="102.173463">
<time>2015-09-27T19:51:14Z</time></trkpt>
<trkpt lat="24.965882" lon="102.173363">
<time>2015-09-27T19:51:15Z</time></trkpt>
<trkpt lat="24.965612" lon="102.173213">
<time>2015-09-27T19:51:16Z</time></trkpt>
<trkpt lat="24.964821" lon="102.172842">
<time>2015-09-27T19:51:17Z</time></trkpt>
<trkpt lat="24.964491" lon="102.172681">
<time>2015-09-27T19:51:18Z</time></trkpt>
<trkpt lat="24.964401" lon="102.172631">
<time>2015-09-27T19:51:19Z</time></trkpt>
<trkpt lat="24.964351" lon="102.172601">
<time>2015-09-27T19:51:20Z</time></trkpt>
<trkpt lat="24.964311" lon="102.172561">
<time>2015-09-27T19:51:21Z</time></trkpt>
<trkpt lat="24.964251" lon="102.172501">
<time>2015-09-27T19:51:22Z</time></trkpt>
<trkpt lat="24.964211" lon="102.172451">
<time>2015-09-27T19:51:23Z</time></trkpt>
<trkpt lat="24.964191" lon="102.172401">
<time>2015-09-27T19:51:24Z</time></trkpt>
<trkpt lat="24.964161" lon="102.172341">
<time>2015-09-27T19:51:25Z</time></trkpt>
<trkpt lat="24.96414" lon="102.172301">
<time>2015-09-27T19:51:26Z</time></trkpt>
<trkpt lat="24.96413" lon="102.17226">
<time>2015-09-27T19:51:27Z</time></trkpt>
<trkpt lat="24.96411" lon="102.1722">
<time>2015-09-27T19:51:28Z</time></trkpt>
<trkpt lat="24.96407" lon="102.17204">
<time>2015-09-27T19:51:29Z</time></trkpt>
<trkpt lat="24.963909" lon="102.171238">
<time>2015-09-27T19:51:30Z</time></trkpt>
<trkpt lat="24.963898" lon="102.171208">
<time>2015-09-27T19:51:31Z</time></trkpt>
<trkpt lat="24.963868" lon="102.171038">
<time>2015-09-27T19:51:32Z</time></trkpt>
<trkpt lat="24.963848" lon="102.170927">
<time>2015-09-27T19:51:33Z</time></trkpt>
<trkpt lat="24.963828" lon="102.170827">
<time>2015-09-27T19:51:34Z</time></trkpt>
<trkpt lat="24.963828" lon="102.170747">
<time>2015-09-27T19:51:35Z</time></trkpt>
<trkpt lat="24.963827" lon="102.170677">
<time>2015-09-27T19:51:36Z</time></trkpt>
<trkpt lat="24.963827" lon="102.170617">
<time>2015-09-27T19:51:37Z</time></trkpt>
<trkpt lat="24.963837" lon="102.170557">
<time>2015-09-27T19:51:38Z</time></trkpt>
<trkpt lat="24.963847" lon="102.170516">
<time>2015-09-27T19:51:39Z</time></trkpt>
<trkpt lat="24.963867" lon="102.170476">
<time>2015-09-27T19:51:40Z</time></trkpt>
<trkpt lat="24.963877" lon="102.170436">
<time>2015-09-27T19:51:41Z</time></trkpt>
<trkpt lat="24.963897" lon="102.170406">
<time>2015-09-27T19:51:42Z</time></trkpt>
<trkpt lat="24.963917" lon="102.170376">
<time>2015-09-27T19:51:43Z</time></trkpt>
<trkpt lat="24.963927" lon="102.170356">
<time>2015-09-27T19:51:44Z</time></trkpt>
<trkpt lat="24.963957" lon="102.170326">
<time>2015-09-27T19:51:45Z</time></trkpt>
<trkpt lat="24.963997" lon="102.170296">
<time>2015-09-27T19:51:46Z</time></trkpt>
<trkpt lat="24.964047" lon="102.170256">
<time>2015-09-27T19:51:47Z</time></trkpt>
<trkpt lat="24.964137" lon="102.170206">
<time>2015-09-27T19:51:48Z</time></trkpt>
<trkpt lat="24.964236" lon="102.170156">
<time>2015-09-27T19:51:49Z</time></trkpt>
<trkpt lat="24.964446" lon="102.170065">
<time>2015-09-27T19:51:50Z</time></trkpt>
<trkpt lat="24.964656" lon="102.169975">
<time>2015-09-27T19:51:51Z</time></trkpt>
<trkpt lat="24.965066" lon="102.169785">
<time>2015-09-27T19:51:52Z</time></trkpt>
<trkpt lat="24.965186" lon="102.169735">
<time>2015-09-27T19:51:53Z</time></trkpt>
<trkpt lat="24.965565" lon="102.169594">
<time>2015-09-27T19:51:54Z</time></trkpt>
<trkpt lat="24.965665" lon="102.169554">
<time>2015-09-27T19:51:55Z</time></trkpt>
<trkpt lat="24.965745" lon="102.169534">
<time>2015-09-27T19:51:56Z</time></trkpt>
<trkpt lat="24.965815" lon="102.169514">
<time>2015-09-27T19:51:57Z</time></trkpt>
<trkpt lat="24.965915" lon="102.169504">
<time>2015-09-27T19:51:58Z</time></trkpt>
<trkpt lat="24.966015" lon="102.169494">
<time>2015-09-27T19:51:59Z</time></trkpt>
<trkpt lat="24.966155" lon="102.169484">
<time>2015-09-27T19:52:00Z</time></trkpt>
<trkpt lat="24.966345" lon="102.169494">
<time>2015-09-27T19:52:01Z</time></trkpt>
<trkpt lat="24.970005" lon="102.169574">
<time>2015-09-27T19:52:02Z</time></trkpt>
<trkpt lat="24.970915" lon="102.169594">
<time>2015-09-27T19:52:03Z</time></trkpt>
<trkpt lat="24.971145" lon="102.169614">
<time>2015-09-27T19:52:04Z</time></trkpt>
<trkpt lat="24.971285" lon="102.169624">
<time>2015-09-27T19:52:05Z</time></trkpt>
<trkpt lat="24.971375" lon="102.169634">
<time>2015-09-27T19:52:06Z</time></trkpt>
<trkpt lat="24.971445" lon="102.169654">
<time>2015-09-27T19:52:07Z</time></trkpt>
<trkpt lat="24.971555" lon="102.169684">
<time>2015-09-27T19:52:08Z</time></trkpt>
<trkpt lat="24.971675" lon="102.169724">
<time>2015-09-27T19:52:09Z</time></trkpt>
<trkpt lat="24.971805" lon="102.169774">
<time>2015-09-27T19:52:10Z</time></trkpt>
<trkpt lat="24.971935" lon="102.169835">
<time>2015-09-27T19:52:11Z</time></trkpt>
<trkpt lat="24.972005" lon="102.169865">
<time>2015-09-27T19:52:12Z</time></trkpt>
<trkpt lat="24.972145" lon="102.169935">
<time>2015-09-27T19:52:13Z</time></trkpt>
<trkpt lat="24.972375" lon="102.170055">
<time>2015-09-27T19:52:14Z</time></trkpt>
<trkpt lat="24.972515" lon="102.170135">
<time>2015-09-27T19:52:15Z</time></trkpt>
<trkpt lat="24.973656" lon="102.170787">
<time>2015-09-27T19:52:16Z</time></trkpt>
<trkpt lat="24.973737" lon="102.170837">
<time>2015-09-27T19:52:17Z</time></trkpt>
<trkpt lat="24.973947" lon="102.170947">
<time>2015-09-27T19:52:18Z</time></trkpt>
<trkpt lat="24.974397" lon="102.171188">
<time>2015-09-27T19:52:19Z</time></trkpt>
<trkpt lat="24.974577" lon="102.171268">
<time>2015-09-27T19:52:20Z</time></trkpt>
<trkpt lat="24.974767" lon="102.171348">
<time>2015-09-27T19:52:21Z</time></trkpt>
<trkpt lat="24.974917" lon="102.171398">
<time>2015-09-27T19:52:22Z</time></trkpt>
<trkpt lat="24.975077" lon="102.171448">
<time>2015-09-27T19:52:23Z</time></trkpt>
<trkpt lat="24.975158" lon="102.171458">
<time>2015-09-27T19:52:24Z</time></trkpt>
<trkpt lat="24.975438" lon="102.171528">
<time>2015-09-27T19:52:25Z</time></trkpt>
<trkpt lat="24.975738" lon="102.171599">
<time>2015-09-27T19:52:26Z</time></trkpt>
<trkpt lat="24.976098" lon="102.171669">
<time>2015-09-27T19:52:27Z</time></trkpt>
<trkpt lat="24.978048" lon="102.171909">
<time>2015-09-27T19:52:28Z</time></trkpt>
<trkpt lat="24.978558" lon="102.171969">
<time>2015-09-27T19:52:29Z</time></trkpt>
<trkpt lat="24.979088" lon="102.17204">
<time>2015-09-27T19:52:30Z</time></trkpt>
<trkpt lat="24.979398" lon="102.17206">
<time>2015-09-27T19:52:31Z</time></trkpt>
<trkpt lat="24.979528" lon="102.17206">
<time>2015-09-27T19:52:32Z</time></trkpt>
<trkpt lat="24.979618" lon="102.17206">
<time>2015-09-27T19:52:33Z</time></trkpt>
<trkpt lat="24.979748" lon="102.17205">
<time>2015-09-27T19:52:34Z</time></trkpt>
<trkpt lat="24.979858" lon="102.172039">
<time>2015-09-27T19:52:35Z</time></trkpt>
<trkpt lat="24.979868" lon="102.172039">
<time>2015-09-27T19:52:36Z</time></trkpt>
<trkpt lat="24.979868" lon="102.172039">
<time>2015-09-27T19:52:37Z</time></trkpt>
<trkpt lat="24.980109" lon="102.1724">
<time>2015-09-27T19:52:38Z</time></trkpt>
<trkpt lat="24.980109" lon="102.1724">
<time>2015-09-27T19:52:39Z</time></trkpt>
<trkpt lat="24.980759" lon="102.17236">
<time>2015-09-27T19:52:40Z</time></trkpt>
<trkpt lat="24.981418" lon="102.1723">
<time>2015-09-27T19:52:41Z</time></trkpt>
<trkpt lat="24.981838" lon="102.17225">
<time>2015-09-27T19:52:42Z</time></trkpt>
<trkpt lat="24.982458" lon="102.1721">
<time>2015-09-27T19:52:43Z</time></trkpt>
<trkpt lat="24.983077" lon="102.171919">
<time>2015-09-27T19:52:44Z</time></trkpt>
<trkpt lat="24.983687" lon="102.171638">
<time>2015-09-27T19:52:45Z</time></trkpt>
<trkpt lat="24.984486" lon="102.171237">
<time>2015-09-27T19:52:46Z</time></trkpt>
<trkpt lat="24.985874" lon="102.170365">
<time>2015-09-27T19:52:47Z</time></trkpt>
<trkpt lat="24.987102" lon="102.169584">
<time>2015-09-27T19:52:48Z</time></trkpt>
<trkpt lat="24.987332" lon="102.169453">
<time>2015-09-27T19:52:49Z</time></trkpt>
<trkpt lat="24.987512" lon="102.169383">
<time>2015-09-27T19:52:50Z</time></trkpt>
<trkpt lat="24.987742" lon="102.169283">
<time>2015-09-27T19:52:51Z</time></trkpt>
<trkpt lat="24.988022" lon="102.169223">
<time>2015-09-27T19:52:52Z</time></trkpt>
<trkpt lat="24.99149" lon="102.168471">
<time>2015-09-27T19:52:53Z</time></trkpt>
<trkpt lat="24.992249" lon="102.16822">
<time>2015-09-27T19:52:54Z</time></trkpt>
<trkpt lat="24.992519" lon="102.16809">
<time>2015-09-27T19:52:55Z</time></trkpt>
<trkpt lat="24.992779" lon="102.167899">
<time>2015-09-27T19:52:56Z</time></trkpt>
<trkpt lat="24.993188" lon="102.167519">
<time>2015-09-27T19:52:57Z</time></trkpt>
<trkpt lat="24.993697" lon="102.166967">
<time>2015-09-27T19:52:58Z</time></trkpt>
<trkpt lat="24.994066" lon="102.166657">
<time>2015-09-27T19:52:59Z</time></trkpt>
<trkpt lat="24.994286" lon="102.166476">
<time>2015-09-27T19:53:00Z</time></trkpt>
<trkpt lat="24.994505" lon="102.166356">
<time>2015-09-27T19:53:01Z</time></trkpt>
<trkpt lat="24.994685" lon="102.166276">
<time>2015-09-27T19:53:02Z</time></trkpt>
<trkpt lat="24.994875" lon="102.166226">
<time>2015-09-27T19:53:03Z</time></trkpt>
<trkpt lat="24.995055" lon="102.166185">
<time>2015-09-27T19:53:04Z</time></trkpt>
<trkpt lat="24.995395" lon="102.166155">
<time>2015-09-27T19:53:05Z</time></trkpt>
<trkpt lat="24.995885" lon="102.166155">
<time>2015-09-27T19:53:06Z</time></trkpt>
<trkpt lat="24.996825" lon="102.166195">
<time>2015-09-27T19:53:07Z</time></trkpt>
<trkpt lat="24.998165" lon="102.166286">
<time>2015-09-27T19:53:08Z</time></trkpt>
<trkpt lat="24.998365" lon="102.166296">
<time>2015-09-27T19:53:09Z</time></trkpt>
<trkpt lat="24.998365" lon="102.166296">
<time>2015-09-27T19:53:10Z</time></trkpt>
<trkpt lat="24.999025" lon="102.166516">
<time>2015-09-27T19:53:11Z</time></trkpt>
<trkpt lat="24.999295" lon="102.166516">
<time>2015-09-27T19:53:12Z</time></trkpt>
<trkpt lat="25.000015" lon="102.166686">
<time>2015-09-27T19:53:13Z</time></trkpt>
<trkpt lat="25.000546" lon="102.166817">
<time>2015-09-27T19:53:14Z</time></trkpt>
<trkpt lat="25.001176" lon="102.166907">
<time>2015-09-27T19:53:15Z</time></trkpt>
<trkpt lat="25.001616" lon="102.166897">
<time>2015-09-27T19:53:16Z</time></trkpt>
<trkpt lat="25.001696" lon="102.166917">
<time>2015-09-27T19:53:17Z</time></trkpt>
<trkpt lat="25.001756" lon="102.166937">
<time>2015-09-27T19:53:18Z</time></trkpt>
<trkpt lat="25.001756" lon="102.166937">
<time>2015-09-27T19:53:19Z</time></trkpt>
<trkpt lat="25.001946" lon="102.166887">
<time>2015-09-27T19:53:20Z</time></trkpt>
<trkpt lat="25.001975" lon="102.166877">
<time>2015-09-27T19:53:21Z</time></trkpt>
<trkpt lat="25.002025" lon="102.166867">
<time>2015-09-27T19:53:22Z</time></trkpt>
<trkpt lat="25.002115" lon="102.166877">
<time>2015-09-27T19:53:23Z</time></trkpt>
<trkpt lat="25.002165" lon="102.166867">
<time>2015-09-27T19:53:24Z</time></trkpt>
<trkpt lat="25.002205" lon="102.166847">
<time>2015-09-27T19:53:25Z</time></trkpt>
<trkpt lat="25.002455" lon="102.166606">
<time>2015-09-27T19:53:26Z</time></trkpt>
<trkpt lat="25.002535" lon="102.166476">
<time>2015-09-27T19:53:27Z</time></trkpt>
<trkpt lat="25.002595" lon="102.166416">
<time>2015-09-27T19:53:28Z</time></trkpt>
<trkpt lat="25.002674" lon="102.166326">
<time>2015-09-27T19:53:29Z</time></trkpt>
<trkpt lat="25.002874" lon="102.166145">
<time>2015-09-27T19:53:30Z</time></trkpt>
<trkpt lat="25.002944" lon="102.166085">
<time>2015-09-27T19:53:31Z</time></trkpt>
<trkpt lat="25.003333" lon="102.165443">
<time>2015-09-27T19:53:32Z</time></trkpt>
<trkpt lat="25.003462" lon="102.165233">
<time>2015-09-27T19:53:33Z</time></trkpt>
<trkpt lat="25.003622" lon="102.165063">
<time>2015-09-27T19:53:34Z</time></trkpt>
<trkpt lat="25.003891" lon="102.164852">
<time>2015-09-27T19:53:35Z</time></trkpt>
<trkpt lat="25.004121" lon="102.164662">
<time>2015-09-27T19:53:36Z</time></trkpt>
<trkpt lat="25.004231" lon="102.164571">
<time>2015-09-27T19:53:37Z</time></trkpt>
<trkpt lat="25.004311" lon="102.164441">
<time>2015-09-27T19:53:38Z</time></trkpt>
<trkpt lat="25.00452" lon="102.1639">
<time>2015-09-27T19:53:39Z</time></trkpt>
<trkpt lat="25.004649" lon="102.163609">
<time>2015-09-27T19:53:40Z</time></trkpt>
<trkpt lat="25.004958" lon="102.162847">
<time>2015-09-27T19:53:41Z</time></trkpt>
<trkpt lat="25.005047" lon="102.162737">
<time>2015-09-27T19:53:42Z</time></trkpt>
<trkpt lat="25.005107" lon="102.162647">
<time>2015-09-27T19:53:43Z</time></trkpt>
<trkpt lat="25.005257" lon="102.162577">
<time>2015-09-27T19:53:44Z</time></trkpt>
<trkpt lat="25.005497" lon="102.162507">
<time>2015-09-27T19:53:45Z</time></trkpt>
<trkpt lat="25.006127" lon="102.162487">
<time>2015-09-27T19:53:46Z</time></trkpt>
<trkpt lat="25.006317" lon="102.162436">
<time>2015-09-27T19:53:47Z</time></trkpt>
<trkpt lat="25.006836" lon="102.162186">
<time>2015-09-27T19:53:48Z</time></trkpt>
<trkpt lat="25.007325" lon="102.161855">
<time>2015-09-27T19:53:49Z</time></trkpt>
<trkpt lat="25.008603" lon="102.160752">
<time>2015-09-27T19:53:50Z</time></trkpt>
<trkpt lat="25.008603" lon="102.160752">
<time>2015-09-27T19:53:51Z</time></trkpt>
<trkpt lat="25.008623" lon="102.160752">
<time>2015-09-27T19:53:52Z</time></trkpt>
<trkpt lat="25.008663" lon="102.160752">
<time>2015-09-27T19:53:53Z</time></trkpt>
<trkpt lat="25.008703" lon="102.160752">
<time>2015-09-27T19:53:54Z</time></trkpt>
<trkpt lat="25.008763" lon="102.160752">
<time>2015-09-27T19:53:55Z</time></trkpt>
<trkpt lat="25.008863" lon="102.160752">
<time>2015-09-27T19:53:56Z</time></trkpt>
<trkpt lat="25.008953" lon="102.160763">
<time>2015-09-27T19:53:57Z</time></trkpt>
<trkpt lat="25.009063" lon="102.160773">
<time>2015-09-27T19:53:58Z</time></trkpt>
<trkpt lat="25.009133" lon="102.160783">
<time>2015-09-27T19:53:59Z</time></trkpt>
<trkpt lat="25.009193" lon="102.160773">
<time>2015-09-27T19:54:00Z</time></trkpt>
<trkpt lat="25.009253" lon="102.160762">
<time>2015-09-27T19:54:01Z</time></trkpt>
<trkpt lat="25.009303" lon="102.160752">
<time>2015-09-27T19:54:02Z</time></trkpt>
<trkpt lat="25.009343" lon="102.160732">
<time>2015-09-27T19:54:03Z</time></trkpt>
<trkpt lat="25.009383" lon="102.160712">
<time>2015-09-27T19:54:04Z</time></trkpt>
<trkpt lat="25.009423" lon="102.160682">
<time>2015-09-27T19:54:05Z</time></trkpt>
<trkpt lat="25.009463" lon="102.160652">
<time>2015-09-27T19:54:06Z</time></trkpt>
<trkpt lat="25.009503" lon="102.160612">
<time>2015-09-27T19:54:07Z</time></trkpt>
<trkpt lat="25.009553" lon="102.160562">
<time>2015-09-27T19:54:08Z</time></trkpt>
<trkpt lat="25.009653" lon="102.160452">
<time>2015-09-27T19:54:09Z</time></trkpt>
<trkpt lat="25.009812" lon="102.160261">
<time>2015-09-27T19:54:10Z</time></trkpt>
<trkpt lat="25.010361" lon="102.15959">
<time>2015-09-27T19:54:11Z</time></trkpt>
<trkpt lat="25.01055" lon="102.159359">
<time>2015-09-27T19:54:12Z</time></trkpt>
<trkpt lat="25.01072" lon="102.159159">
<time>2015-09-27T19:54:13Z</time></trkpt>
<trkpt lat="25.01077" lon="102.159119">
<time>2015-09-27T19:54:14Z</time></trkpt>
<trkpt lat="25.01082" lon="102.159059">
<time>2015-09-27T19:54:15Z</time></trkpt>
<trkpt lat="25.01089" lon="102.159008">
<time>2015-09-27T19:54:16Z</time></trkpt>
<trkpt lat="25.01096" lon="102.158968">
<time>2015-09-27T19:54:17Z</time></trkpt>
<trkpt lat="25.01101" lon="102.158938">
<time>2015-09-27T19:54:18Z</time></trkpt>
<trkpt lat="25.01107" lon="102.158908">
<time>2015-09-27T19:54:19Z</time></trkpt>
<trkpt lat="25.011159" lon="102.158858">
<time>2015-09-27T19:54:20Z</time></trkpt>
<trkpt lat="25.011659" lon="102.158628">
<time>2015-09-27T19:54:21Z</time></trkpt>
<trkpt lat="25.011749" lon="102.158577">
<time>2015-09-27T19:54:22Z</time></trkpt>
<trkpt lat="25.011809" lon="102.158527">
<time>2015-09-27T19:54:23Z</time></trkpt>
<trkpt lat="25.011849" lon="102.158497">
<time>2015-09-27T19:54:24Z</time></trkpt>
<trkpt lat="25.011889" lon="102.158457">
<time>2015-09-27T19:54:25Z</time></trkpt>
<trkpt lat="25.011928" lon="102.158407">
<time>2015-09-27T19:54:26Z</time></trkpt>
<trkpt lat="25.011958" lon="102.158357">
<time>2015-09-27T19:54:27Z</time></trkpt>
<trkpt lat="25.011998" lon="102.158307">
<time>2015-09-27T19:54:28Z</time></trkpt>
<trkpt lat="25.012028" lon="102.158257">
<time>2015-09-27T19:54:29Z</time></trkpt>
<trkpt lat="25.012068" lon="102.158166">
<time>2015-09-27T19:54:30Z</time></trkpt>
<trkpt lat="25.012098" lon="102.158066">
<time>2015-09-27T19:54:31Z</time></trkpt>
<trkpt lat="25.012128" lon="102.157956">
<time>2015-09-27T19:54:32Z</time></trkpt>
<trkpt lat="25.012167" lon="102.157806">
<time>2015-09-27T19:54:33Z</time></trkpt>
<trkpt lat="25.012197" lon="102.157715">
<time>2015-09-27T19:54:34Z</time></trkpt>
<trkpt lat="25.012267" lon="102.157505">
<time>2015-09-27T19:54:35Z</time></trkpt>
<trkpt lat="25.012287" lon="102.157425">
<time>2015-09-27T19:54:36Z</time></trkpt>
<trkpt lat="25.012307" lon="102.157385">
<time>2015-09-27T19:54:37Z</time></trkpt>
<trkpt lat="25.012326" lon="102.157335">
<time>2015-09-27T19:54:38Z</time></trkpt>
<trkpt lat="25.012356" lon="102.157284">
<time>2015-09-27T19:54:39Z</time></trkpt>
<trkpt lat="25.012376" lon="102.157234">
<time>2015-09-27T19:54:40Z</time></trkpt>
<trkpt lat="25.012396" lon="102.157204">
<time>2015-09-27T19:54:41Z</time></trkpt>
<trkpt lat="25.012406" lon="102.157174">
<time>2015-09-27T19:54:42Z</time></trkpt>
<trkpt lat="25.012446" lon="102.157104">
<time>2015-09-27T19:54:43Z</time></trkpt>
<trkpt lat="25.012586" lon="102.156864">
<time>2015-09-27T19:54:44Z</time></trkpt>
<trkpt lat="25.013004" lon="102.156152">
<time>2015-09-27T19:54:45Z</time></trkpt>
<trkpt lat="25.013283" lon="102.155681">
<time>2015-09-27T19:54:46Z</time></trkpt>
<trkpt lat="25.013333" lon="102.155581">
<time>2015-09-27T19:54:47Z</time></trkpt>
<trkpt lat="25.013423" lon="102.15542">
<time>2015-09-27T19:54:48Z</time></trkpt>
<trkpt lat="25.013543" lon="102.15523">
<time>2015-09-27T19:54:49Z</time></trkpt>
<trkpt lat="25.013622" lon="102.15511">
<time>2015-09-27T19:54:50Z</time></trkpt>
<trkpt lat="25.013702" lon="102.155009">
<time>2015-09-27T19:54:51Z</time></trkpt>
<trkpt lat="25.013762" lon="102.154929">
<time>2015-09-27T19:54:52Z</time></trkpt>
<trkpt lat="25.013852" lon="102.154829">
<time>2015-09-27T19:54:53Z</time></trkpt>
<trkpt lat="25.013982" lon="102.154709">
<time>2015-09-27T19:54:54Z</time></trkpt>
<trkpt lat="25.014091" lon="102.154618">
<time>2015-09-27T19:54:55Z</time></trkpt>
<trkpt lat="25.014201" lon="102.154538">
<time>2015-09-27T19:54:56Z</time></trkpt>
<trkpt lat="25.014461" lon="102.154348">
<time>2015-09-27T19:54:57Z</time></trkpt>
<trkpt lat="25.014611" lon="102.154258">
<time>2015-09-27T19:54:58Z</time></trkpt>
<trkpt lat="25.014701" lon="102.154197">
<time>2015-09-27T19:54:59Z</time></trkpt>
<trkpt lat="25.01479" lon="102.154157">
<time>2015-09-27T19:55:00Z</time></trkpt>
<trkpt lat="25.01488" lon="102.154127">
<time>2015-09-27T19:55:01Z</time></trkpt>
<trkpt lat="25.01496" lon="102.154097">
<time>2015-09-27T19:55:02Z</time></trkpt>
<trkpt lat="25.01503" lon="102.154087">
<time>2015-09-27T19:55:03Z</time></trkpt>
<trkpt lat="25.01509" lon="102.154077">
<time>2015-09-27T19:55:04Z</time></trkpt>
<trkpt lat="25.01516" lon="102.154077">
<time>2015-09-27T19:55:05Z</time></trkpt>
<trkpt lat="25.01523" lon="102.154067">
<time>2015-09-27T19:55:06Z</time></trkpt>
<trkpt lat="25.01532" lon="102.154077">
<time>2015-09-27T19:55:07Z</time></trkpt>
<trkpt lat="25.0154" lon="102.154077">
<time>2015-09-27T19:55:08Z</time></trkpt>
<trkpt lat="25.01546" lon="102.154097">
<time>2015-09-27T19:55:09Z</time></trkpt>
<trkpt lat="25.01551" lon="102.154107">
<time>2015-09-27T19:55:10Z</time></trkpt>
<trkpt lat="25.01558" lon="102.154127">
<time>2015-09-27T19:55:11Z</time></trkpt>
<trkpt lat="25.01564" lon="102.154147">
<time>2015-09-27T19:55:12Z</time></trkpt>
<trkpt lat="25.0157" lon="102.154177">
<time>2015-09-27T19:55:13Z</time></trkpt>
<trkpt lat="25.01576" lon="102.154207">
<time>2015-09-27T19:55:14Z</time></trkpt>
<trkpt lat="25.01583" lon="102.154248">
<time>2015-09-27T19:55:15Z</time></trkpt>
<trkpt lat="25.015871" lon="102.154268">
<time>2015-09-27T19:55:16Z</time></trkpt>
<trkpt lat="25.015971" lon="102.154338">
<time>2015-09-27T19:55:17Z</time></trkpt>
<trkpt lat="25.016071" lon="102.154408">
<time>2015-09-27T19:55:18Z</time></trkpt>
<trkpt lat="25.016161" lon="102.154468">
<time>2015-09-27T19:55:19Z</time></trkpt>
<trkpt lat="25.016221" lon="102.154518">
<time>2015-09-27T19:55:20Z</time></trkpt>
<trkpt lat="25.016261" lon="102.154558">
<time>2015-09-27T19:55:21Z</time></trkpt>
<trkpt lat="25.016301" lon="102.154588">
<time>2015-09-27T19:55:22Z</time></trkpt>
<trkpt lat="25.016341" lon="102.154628">
<time>2015-09-27T19:55:23Z</time></trkpt>
<trkpt lat="25.016411" lon="102.154699">
<time>2015-09-27T19:55:24Z</time></trkpt>
<trkpt lat="25.016511" lon="102.154839">
<time>2015-09-27T19:55:25Z</time></trkpt>
<trkpt lat="25.016582" lon="102.154949">
<time>2015-09-27T19:55:26Z</time></trkpt>
<trkpt lat="25.016642" lon="102.155049">
<time>2015-09-27T19:55:27Z</time></trkpt>
<trkpt lat="25.016712" lon="102.15518">
<time>2015-09-27T19:55:28Z</time></trkpt>
<trkpt lat="25.016973" lon="102.155651">
<time>2015-09-27T19:55:29Z</time></trkpt>
<trkpt lat="25.017003" lon="102.155701">
<time>2015-09-27T19:55:30Z</time></trkpt>
<trkpt lat="25.017043" lon="102.155751">
<time>2015-09-27T19:55:31Z</time></trkpt>
<trkpt lat="25.017083" lon="102.155801">
<time>2015-09-27T19:55:32Z</time></trkpt>
<trkpt lat="25.017103" lon="102.155821">
<time>2015-09-27T19:55:33Z</time></trkpt>
<trkpt lat="25.017133" lon="102.155841">
<time>2015-09-27T19:55:34Z</time></trkpt>
<trkpt lat="25.017143" lon="102.155861">
<time>2015-09-27T19:55:35Z</time></trkpt>
<trkpt lat="25.017173" lon="102.155871">
<time>2015-09-27T19:55:36Z</time></trkpt>
<trkpt lat="25.017193" lon="102.155881">
<time>2015-09-27T19:55:37Z</time></trkpt>
<trkpt lat="25.017213" lon="102.155881">
<time>2015-09-27T19:55:38Z</time></trkpt>
<trkpt lat="25.017243" lon="102.155881">
<time>2015-09-27T19:55:39Z</time></trkpt>
<trkpt lat="25.017253" lon="102.155881">
<time>2015-09-27T19:55:40Z</time></trkpt>
<trkpt lat="25.017283" lon="102.155881">
<time>2015-09-27T19:55:41Z</time></trkpt>
<trkpt lat="25.017303" lon="102.155881">
<time>2015-09-27T19:55:42Z</time></trkpt>
<trkpt lat="25.017313" lon="102.155881">
<time>2015-09-27T19:55:43Z</time></trkpt>
<trkpt lat="25.017333" lon="102.155871">
<time>2015-09-27T19:55:44Z</time></trkpt>
<trkpt lat="25.017353" lon="102.155861">
<time>2015-09-27T19:55:45Z</time></trkpt>
<trkpt lat="25.017373" lon="102.155851">
<time>2015-09-27T19:55:46Z</time></trkpt>
<trkpt lat="25.017393" lon="102.155831">
<time>2015-09-27T19:55:47Z</time></trkpt>
<trkpt lat="25.017413" lon="102.155821">
<time>2015-09-27T19:55:48Z</time></trkpt>
<trkpt lat="25.017423" lon="102.155791">
<time>2015-09-27T19:55:49Z</time></trkpt>
<trkpt lat="25.017443" lon="102.155771">
<time>2015-09-27T19:55:50Z</time></trkpt>
<trkpt lat="25.017453" lon="102.155741">
<time>2015-09-27T19:55:51Z</time></trkpt>
<trkpt lat="25.017473" lon="102.155701">
<time>2015-09-27T19:55:52Z</time></trkpt>
<trkpt lat="25.017483" lon="102.155661">
<time>2015-09-27T19:55:53Z</time></trkpt>
<trkpt lat="25.017493" lon="102.155621">
<time>2015-09-27T19:55:54Z</time></trkpt>
<trkpt lat="25.017493" lon="102.15555">
<time>2015-09-27T19:55:55Z</time></trkpt>
<trkpt lat="25.017503" lon="102.15548">
<time>2015-09-27T19:55:56Z</time></trkpt>
<trkpt lat="25.017492" lon="102.15533">
<time>2015-09-27T19:55:57Z</time></trkpt>
<trkpt lat="25.017492" lon="102.155119">
<time>2015-09-27T19:55:58Z</time></trkpt>
<trkpt lat="25.017491" lon="102.154889">
<time>2015-09-27T19:55:59Z</time></trkpt>
<trkpt lat="25.017491" lon="102.154668">
<time>2015-09-27T19:56:00Z</time></trkpt>
<trkpt lat="25.017491" lon="102.154518">
<time>2015-09-27T19:56:01Z</time></trkpt>
<trkpt lat="25.017501" lon="102.154408">
<time>2015-09-27T19:56:02Z</time></trkpt>
<trkpt lat="25.01749" lon="102.154348">
<time>2015-09-27T19:56:03Z</time></trkpt>
<trkpt lat="25.01749" lon="102.154237">
<time>2015-09-27T19:56:04Z</time></trkpt>
<trkpt lat="25.01748" lon="102.154147">
<time>2015-09-27T19:56:05Z</time></trkpt>
<trkpt lat="25.01747" lon="102.154057">
<time>2015-09-27T19:56:06Z</time></trkpt>
<trkpt lat="25.01747" lon="102.154007">
<time>2015-09-27T19:56:07Z</time></trkpt>
<trkpt lat="25.01746" lon="102.153947">
<time>2015-09-27T19:56:08Z</time></trkpt>
<trkpt lat="25.01744" lon="102.153867">
<time>2015-09-27T19:56:09Z</time></trkpt>
<trkpt lat="25.017419" lon="102.153776">
<time>2015-09-27T19:56:10Z</time></trkpt>
<trkpt lat="25.017379" lon="102.153636">
<time>2015-09-27T19:56:11Z</time></trkpt>
<trkpt lat="25.017339" lon="102.153516">
<time>2015-09-27T19:56:12Z</time></trkpt>
<trkpt lat="25.017279" lon="102.153366">
<time>2015-09-27T19:56:13Z</time></trkpt>
<trkpt lat="25.017148" lon="102.153055">
<time>2015-09-27T19:56:14Z</time></trkpt>
<trkpt lat="25.017088" lon="102.152885">
<time>2015-09-27T19:56:15Z</time></trkpt>
<trkpt lat="25.017048" lon="102.152754">
<time>2015-09-27T19:56:16Z</time></trkpt>
<trkpt lat="25.017028" lon="102.152684">
<time>2015-09-27T19:56:17Z</time></trkpt>
<trkpt lat="25.017027" lon="102.152634">
<time>2015-09-27T19:56:18Z</time></trkpt>
<trkpt lat="25.017017" lon="102.152594">
<time>2015-09-27T19:56:19Z</time></trkpt>
<trkpt lat="25.017017" lon="102.152534">
<time>2015-09-27T19:56:20Z</time></trkpt>
<trkpt lat="25.017017" lon="102.152484">
<time>2015-09-27T19:56:21Z</time></trkpt>
<trkpt lat="25.017027" lon="102.152434">
<time>2015-09-27T19:56:22Z</time></trkpt>
<trkpt lat="25.017037" lon="102.152373">
<time>2015-09-27T19:56:23Z</time></trkpt>
<trkpt lat="25.017047" lon="102.152323">
<time>2015-09-27T19:56:24Z</time></trkpt>
<trkpt lat="25.017067" lon="102.152273">
<time>2015-09-27T19:56:25Z</time></trkpt>
<trkpt lat="25.017087" lon="102.152213">
<time>2015-09-27T19:56:26Z</time></trkpt>
<trkpt lat="25.017107" lon="102.152173">
<time>2015-09-27T19:56:27Z</time></trkpt>
<trkpt lat="25.017166" lon="102.152023">
<time>2015-09-27T19:56:28Z</time></trkpt>
<trkpt lat="25.017286" lon="102.151782">
<time>2015-09-27T19:56:29Z</time></trkpt>
<trkpt lat="25.017326" lon="102.151662">
<time>2015-09-27T19:56:30Z</time></trkpt>
<trkpt lat="25.017346" lon="102.151562">
<time>2015-09-27T19:56:31Z</time></trkpt>
<trkpt lat="25.017365" lon="102.151461">
<time>2015-09-27T19:56:32Z</time></trkpt>
<trkpt lat="25.017365" lon="102.151341">
<time>2015-09-27T19:56:33Z</time></trkpt>
<trkpt lat="25.017365" lon="102.151211">
<time>2015-09-27T19:56:34Z</time></trkpt>
<trkpt lat="25.017355" lon="102.15104">
<time>2015-09-27T19:56:35Z</time></trkpt>
<trkpt lat="25.017354" lon="102.15081">
<time>2015-09-27T19:56:36Z</time></trkpt>
<trkpt lat="25.017364" lon="102.150549">
<time>2015-09-27T19:56:37Z</time></trkpt>
<trkpt lat="25.017433" lon="102.149828">
<time>2015-09-27T19:56:38Z</time></trkpt>
<trkpt lat="25.017462" lon="102.149577">
<time>2015-09-27T19:56:39Z</time></trkpt>
<trkpt lat="25.017472" lon="102.149337">
<time>2015-09-27T19:56:40Z</time></trkpt>
<trkpt lat="25.017481" lon="102.148996">
<time>2015-09-27T19:56:41Z</time></trkpt>
<trkpt lat="25.017471" lon="102.148816">
<time>2015-09-27T19:56:42Z</time></trkpt>
<trkpt lat="25.01746" lon="102.148555">
<time>2015-09-27T19:56:43Z</time></trkpt>
<trkpt lat="25.01746" lon="102.148415">
<time>2015-09-27T19:56:44Z</time></trkpt>
<trkpt lat="25.01747" lon="102.148345">
<time>2015-09-27T19:56:45Z</time></trkpt>
<trkpt lat="25.01749" lon="102.148274">
<time>2015-09-27T19:56:46Z</time></trkpt>
<trkpt lat="25.01751" lon="102.148224">
<time>2015-09-27T19:56:47Z</time></trkpt>
<trkpt lat="25.01753" lon="102.148184">
<time>2015-09-27T19:56:48Z</time></trkpt>
<trkpt lat="25.01755" lon="102.148164">
<time>2015-09-27T19:56:49Z</time></trkpt>
<trkpt lat="25.01758" lon="102.148144">
<time>2015-09-27T19:56:50Z</time></trkpt>
<trkpt lat="25.01762" lon="102.148114">
<time>2015-09-27T19:56:51Z</time></trkpt>
<trkpt lat="25.01766" lon="102.148084">
<time>2015-09-27T19:56:52Z</time></trkpt>
<trkpt lat="25.017699" lon="102.148074">
<time>2015-09-27T19:56:53Z</time></trkpt>
<trkpt lat="25.017729" lon="102.148064">
<time>2015-09-27T19:56:54Z</time></trkpt>
<trkpt lat="25.017759" lon="102.148064">
<time>2015-09-27T19:56:55Z</time></trkpt>
<trkpt lat="25.017789" lon="102.148054">
<time>2015-09-27T19:56:56Z</time></trkpt>
<trkpt lat="25.017819" lon="102.148064">
<time>2015-09-27T19:56:57Z</time></trkpt>
<trkpt lat="25.017869" lon="102.148064">
<time>2015-09-27T19:56:58Z</time></trkpt>
<trkpt lat="25.017929" lon="102.148084">
<time>2015-09-27T19:56:59Z</time></trkpt>
<trkpt lat="25.01802" lon="102.148114">
<time>2015-09-27T19:57:00Z</time></trkpt>
<trkpt lat="25.01808" lon="102.148134">
<time>2015-09-27T19:57:01Z</time></trkpt>
<trkpt lat="25.01814" lon="102.148164">
<time>2015-09-27T19:57:02Z</time></trkpt>
<trkpt lat="25.0183" lon="102.148234">
<time>2015-09-27T19:57:03Z</time></trkpt>
<trkpt lat="25.01835" lon="102.148244">
<time>2015-09-27T19:57:04Z</time></trkpt>
<trkpt lat="25.01839" lon="102.148254">
<time>2015-09-27T19:57:05Z</time></trkpt>
<trkpt lat="25.01842" lon="102.148264">
<time>2015-09-27T19:57:06Z</time></trkpt>
<trkpt lat="25.01844" lon="102.148264">
<time>2015-09-27T19:57:07Z</time></trkpt>
<trkpt lat="25.01846" lon="102.148264">
<time>2015-09-27T19:57:08Z</time></trkpt>
<trkpt lat="25.01848" lon="102.148264">
<time>2015-09-27T19:57:09Z</time></trkpt>
<trkpt lat="25.01849" lon="102.148264">
<time>2015-09-27T19:57:10Z</time></trkpt>
<trkpt lat="25.01851" lon="102.148254">
<time>2015-09-27T19:57:11Z</time></trkpt>
<trkpt lat="25.01853" lon="102.148244">
<time>2015-09-27T19:57:12Z</time></trkpt>
<trkpt lat="25.01855" lon="102.148244">
<time>2015-09-27T19:57:13Z</time></trkpt>
<trkpt lat="25.01858" lon="102.148224">
<time>2015-09-27T19:57:14Z</time></trkpt>
<trkpt lat="25.01859" lon="102.148204">
<time>2015-09-27T19:57:15Z</time></trkpt>
<trkpt lat="25.0186" lon="102.148184">
<time>2015-09-27T19:57:16Z</time></trkpt>
<trkpt lat="25.01861" lon="102.148164">
<time>2015-09-27T19:57:17Z</time></trkpt>
<trkpt lat="25.01862" lon="102.148154">
<time>2015-09-27T19:57:18Z</time></trkpt>
<trkpt lat="25.018629" lon="102.148114">
<time>2015-09-27T19:57:19Z</time></trkpt>
<trkpt lat="25.018629" lon="102.148074">
<time>2015-09-27T19:57:20Z</time></trkpt>
<trkpt lat="25.018629" lon="102.148034">
<time>2015-09-27T19:57:21Z</time></trkpt>
<trkpt lat="25.018619" lon="102.147984">
<time>2015-09-27T19:57:22Z</time></trkpt>
<trkpt lat="25.018609" lon="102.147954">
<time>2015-09-27T19:57:23Z</time></trkpt>
<trkpt lat="25.018599" lon="102.147894">
<time>2015-09-27T19:57:24Z</time></trkpt>
<trkpt lat="25.018559" lon="102.147793">
<time>2015-09-27T19:57:25Z</time></trkpt>
<trkpt lat="25.018499" lon="102.147623">
<time>2015-09-27T19:57:26Z</time></trkpt>
<trkpt lat="25.018468" lon="102.147473">
<time>2015-09-27T19:57:27Z</time></trkpt>
<trkpt lat="25.018448" lon="102.147342">
<time>2015-09-27T19:57:28Z</time></trkpt>
<trkpt lat="25.018428" lon="102.147202">
<time>2015-09-27T19:57:29Z</time></trkpt>
<trkpt lat="25.018418" lon="102.147072">
<time>2015-09-27T19:57:30Z</time></trkpt>
<trkpt lat="25.018407" lon="102.146902">
<time>2015-09-27T19:57:31Z</time></trkpt>
<trkpt lat="25.018397" lon="102.146761">
<time>2015-09-27T19:57:32Z</time></trkpt>
<trkpt lat="25.018387" lon="102.146651">
<time>2015-09-27T19:57:33Z</time></trkpt>
<trkpt lat="25.018367" lon="102.146551">
<time>2015-09-27T19:57:34Z</time></trkpt>
<trkpt lat="25.018327" lon="102.146451">
<time>2015-09-27T19:57:35Z</time></trkpt>
<trkpt lat="25.018297" lon="102.14634">
<time>2015-09-27T19:57:36Z</time></trkpt>
<trkpt lat="25.018236" lon="102.14624">
<time>2015-09-27T19:57:37Z</time></trkpt>
<trkpt lat="25.018136" lon="102.14606">
<time>2015-09-27T19:57:38Z</time></trkpt>
<trkpt lat="25.017805" lon="102.145519">
<time>2015-09-27T19:57:39Z</time></trkpt>
<trkpt lat="25.017745" lon="102.145408">
<time>2015-09-27T19:57:40Z</time></trkpt>
<trkpt lat="25.017695" lon="102.145318">
<time>2015-09-27T19:57:41Z</time></trkpt>
<trkpt lat="25.017665" lon="102.145238">
<time>2015-09-27T19:57:42Z</time></trkpt>
<trkpt lat="25.017645" lon="102.145188">
<time>2015-09-27T19:57:43Z</time></trkpt>
<trkpt lat="25.017635" lon="102.145138">
<time>2015-09-27T19:57:44Z</time></trkpt>
<trkpt lat="25.017614" lon="102.145058">
<time>2015-09-27T19:57:45Z</time></trkpt>
<trkpt lat="25.017614" lon="102.145008">
<time>2015-09-27T19:57:46Z</time></trkpt>
<trkpt lat="25.017614" lon="102.144947">
<time>2015-09-27T19:57:47Z</time></trkpt>
<trkpt lat="25.017624" lon="102.144877">
<time>2015-09-27T19:57:48Z</time></trkpt>
<trkpt lat="25.017634" lon="102.144817">
<time>2015-09-27T19:57:49Z</time></trkpt>
<trkpt lat="25.017664" lon="102.144747">
<time>2015-09-27T19:57:50Z</time></trkpt>
<trkpt lat="25.017694" lon="102.144687">
<time>2015-09-27T19:57:51Z</time></trkpt>
<trkpt lat="25.017714" lon="102.144637">
<time>2015-09-27T19:57:52Z</time></trkpt>
<trkpt lat="25.017744" lon="102.144607">
<time>2015-09-27T19:57:53Z</time></trkpt>
<trkpt lat="25.017804" lon="102.144517">
<time>2015-09-27T19:57:54Z</time></trkpt>
<trkpt lat="25.017863" lon="102.144426">
<time>2015-09-27T19:57:55Z</time></trkpt>
<trkpt lat="25.017903" lon="102.144366">
<time>2015-09-27T19:57:56Z</time></trkpt>
<trkpt lat="25.017933" lon="102.144306">
<time>2015-09-27T19:57:57Z</time></trkpt>
<trkpt lat="25.017953" lon="102.144246">
<time>2015-09-27T19:57:58Z</time></trkpt>
<trkpt lat="25.017963" lon="102.144186">
<time>2015-09-27T19:57:59Z</time></trkpt>
<trkpt lat="25.017963" lon="102.144146">
<time>2015-09-27T19:58:00Z</time></trkpt>
<trkpt lat="25.017963" lon="102.144106">
<time>2015-09-27T19:58:01Z</time></trkpt>
<trkpt lat="25.017953" lon="102.144046">
<time>2015-09-27T19:58:02Z</time></trkpt>
<trkpt lat="25.017943" lon="102.143985">
<time>2015-09-27T19:58:03Z</time></trkpt>
<trkpt lat="25.017903" lon="102.143885">
<time>2015-09-27T19:58:04Z</time></trkpt>
<trkpt lat="25.017762" lon="102.143615">
<time>2015-09-27T19:58:05Z</time></trkpt>
<trkpt lat="25.017702" lon="102.143515">
<time>2015-09-27T19:58:06Z</time></trkpt>
<trkpt lat="25.017662" lon="102.143454">
<time>2015-09-27T19:58:07Z</time></trkpt>
<trkpt lat="25.017612" lon="102.143394">
<time>2015-09-27T19:58:08Z</time></trkpt>
<trkpt lat="25.017572" lon="102.143354">
<time>2015-09-27T19:58:09Z</time></trkpt>
<trkpt lat="25.017522" lon="102.143314">
<time>2015-09-27T19:58:10Z</time></trkpt>
<trkpt lat="25.017452" lon="102.143274">
<time>2015-09-27T19:58:11Z</time></trkpt>
<trkpt lat="25.017392" lon="102.143234">
<time>2015-09-27T19:58:12Z</time></trkpt>
<trkpt lat="25.017312" lon="102.143214">
<time>2015-09-27T19:58:13Z</time></trkpt>
<trkpt lat="25.017211" lon="102.143184">
<time>2015-09-27T19:58:14Z</time></trkpt>
<trkpt lat="25.017111" lon="102.143164">
<time>2015-09-27T19:58:15Z</time></trkpt>
<trkpt lat="25.016951" lon="102.143114">
<time>2015-09-27T19:58:16Z</time></trkpt>
<trkpt lat="25.016881" lon="102.143094">
<time>2015-09-27T19:58:17Z</time></trkpt>
<trkpt lat="25.016811" lon="102.143054">
<time>2015-09-27T19:58:18Z</time></trkpt>
<trkpt lat="25.016751" lon="102.143024">
<time>2015-09-27T19:58:19Z</time></trkpt>
<trkpt lat="25.016701" lon="102.142973">
<time>2015-09-27T19:58:20Z</time></trkpt>
<trkpt lat="25.016631" lon="102.142903">
<time>2015-09-27T19:58:21Z</time></trkpt>
<trkpt lat="25.016561" lon="102.142813">
<time>2015-09-27T19:58:22Z</time></trkpt>
<trkpt lat="25.016501" lon="102.142713">
<time>2015-09-27T19:58:23Z</time></trkpt>
<trkpt lat="25.016441" lon="102.142633">
<time>2015-09-27T19:58:24Z</time></trkpt>
<trkpt lat="25.016371" lon="102.142513">
<time>2015-09-27T19:58:25Z</time></trkpt>
<trkpt lat="25.01622" lon="102.142262">
<time>2015-09-27T19:58:26Z</time></trkpt>
<trkpt lat="25.01615" lon="102.142152">
<time>2015-09-27T19:58:27Z</time></trkpt>
<trkpt lat="25.01609" lon="102.142072">
<time>2015-09-27T19:58:28Z</time></trkpt>
<trkpt lat="25.01599" lon="102.141971">
<time>2015-09-27T19:58:29Z</time></trkpt>
<trkpt lat="25.01588" lon="102.141881">
<time>2015-09-27T19:58:30Z</time></trkpt>
<trkpt lat="25.015769" lon="102.141811">
<time>2015-09-27T19:58:31Z</time></trkpt>
<trkpt lat="25.015669" lon="102.141751">
<time>2015-09-27T19:58:32Z</time></trkpt>
<trkpt lat="25.015549" lon="102.141681">
<time>2015-09-27T19:58:33Z</time></trkpt>
<trkpt lat="25.015439" lon="102.141621">
<time>2015-09-27T19:58:34Z</time></trkpt>
<trkpt lat="25.015319" lon="102.141561">
<time>2015-09-27T19:58:35Z</time></trkpt>
<trkpt lat="25.015189" lon="102.141511">
<time>2015-09-27T19:58:36Z</time></trkpt>
<trkpt lat="25.015029" lon="102.141481">
<time>2015-09-27T19:58:37Z</time></trkpt>
<trkpt lat="25.014879" lon="102.141471">
<time>2015-09-27T19:58:38Z</time></trkpt>
<trkpt lat="25.014779" lon="102.14145">
<time>2015-09-27T19:58:39Z</time></trkpt>
<trkpt lat="25.014689" lon="102.14143">
<time>2015-09-27T19:58:40Z</time></trkpt>
<trkpt lat="25.014579" lon="102.14139">
<time>2015-09-27T19:58:41Z</time></trkpt>
<trkpt lat="25.014519" lon="102.14136">
<time>2015-09-27T19:58:42Z</time></trkpt>
<trkpt lat="25.014459" lon="102.14131">
<time>2015-09-27T19:58:43Z</time></trkpt>
<trkpt lat="25.014429" lon="102.14128">
<time>2015-09-27T19:58:44Z</time></trkpt>
<trkpt lat="25.014389" lon="102.14125">
<time>2015-09-27T19:58:45Z</time></trkpt>
<trkpt lat="25.014359" lon="102.1412">
<time>2015-09-27T19:58:46Z</time></trkpt>
<trkpt lat="25.014329" lon="102.14116">
<time>2015-09-27T19:58:47Z</time></trkpt>
<trkpt lat="25.014309" lon="102.14111">
<time>2015-09-27T19:58:48Z</time></trkpt>
<trkpt lat="25.014278" lon="102.14106">
<time>2015-09-27T19:58:49Z</time></trkpt>
<trkpt lat="25.014268" lon="102.14099">
<time>2015-09-27T19:58:50Z</time></trkpt>
<trkpt lat="25.014258" lon="102.140919">
<time>2015-09-27T19:58:51Z</time></trkpt>
<trkpt lat="25.014248" lon="102.140789">
<time>2015-09-27T19:58:52Z</time></trkpt>
<trkpt lat="25.014258" lon="102.140679">
<time>2015-09-27T19:58:53Z</time></trkpt>
<trkpt lat="25.014268" lon="102.140579">
<time>2015-09-27T19:58:54Z</time></trkpt>
<trkpt lat="25.014258" lon="102.140509">
<time>2015-09-27T19:58:55Z</time></trkpt>
<trkpt lat="25.014258" lon="102.140459">
<time>2015-09-27T19:58:56Z</time></trkpt>
<trkpt lat="25.014237" lon="102.140378">
<time>2015-09-27T19:58:57Z</time></trkpt>
<trkpt lat="25.014217" lon="102.140328">
<time>2015-09-27T19:58:58Z</time></trkpt>
<trkpt lat="25.014187" lon="102.140248">
<time>2015-09-27T19:58:59Z</time></trkpt>
<trkpt lat="25.014137" lon="102.140178">
<time>2015-09-27T19:59:00Z</time></trkpt>
<trkpt lat="25.014077" lon="102.140078">
<time>2015-09-27T19:59:01Z</time></trkpt>
<trkpt lat="25.013987" lon="102.139978">
<time>2015-09-27T19:59:02Z</time></trkpt>
<trkpt lat="25.013857" lon="102.139827">
<time>2015-09-27T19:59:03Z</time></trkpt>
<trkpt lat="25.013737" lon="102.139747">
<time>2015-09-27T19:59:04Z</time></trkpt>
<trkpt lat="25.013646" lon="102.139697">
<time>2015-09-27T19:59:05Z</time></trkpt>
<trkpt lat="25.013556" lon="102.139657">
<time>2015-09-27T19:59:06Z</time></trkpt>
<trkpt lat="25.013436" lon="102.139597">
<time>2015-09-27T19:59:07Z</time></trkpt>
<trkpt lat="25.012936" lon="102.139396">
<time>2015-09-27T19:59:08Z</time></trkpt>
<trkpt lat="25.012766" lon="102.139326">
<time>2015-09-27T19:59:09Z</time></trkpt>
<trkpt lat="25.012676" lon="102.139276">
<time>2015-09-27T19:59:10Z</time></trkpt>
<trkpt lat="25.012626" lon="102.139236">
<time>2015-09-27T19:59:11Z</time></trkpt>
<trkpt lat="25.012586" lon="102.139206">
<time>2015-09-27T19:59:12Z</time></trkpt>
<trkpt lat="25.012556" lon="102.139156">
<time>2015-09-27T19:59:13Z</time></trkpt>
<trkpt lat="25.012516" lon="102.139106">
<time>2015-09-27T19:59:14Z</time></trkpt>
<trkpt lat="25.012496" lon="102.139066">
<time>2015-09-27T19:59:15Z</time></trkpt>
<trkpt lat="25.012476" lon="102.138986">
<time>2015-09-27T19:59:16Z</time></trkpt>
<trkpt lat="25.012455" lon="102.138916">
<time>2015-09-27T19:59:17Z</time></trkpt>
<trkpt lat="25.012435" lon="102.138835">
<time>2015-09-27T19:59:18Z</time></trkpt>
<trkpt lat="25.012425" lon="102.138725">
<time>2015-09-27T19:59:19Z</time></trkpt>
<trkpt lat="25.012415" lon="102.138605">
<time>2015-09-27T19:59:20Z</time></trkpt>
<trkpt lat="25.012415" lon="102.138535">
<time>2015-09-27T19:59:21Z</time></trkpt>
<trkpt lat="25.012395" lon="102.138465">
<time>2015-09-27T19:59:22Z</time></trkpt>
<trkpt lat="25.012375" lon="102.138425">
<time>2015-09-27T19:59:23Z</time></trkpt>
<trkpt lat="25.012365" lon="102.138395">
<time>2015-09-27T19:59:24Z</time></trkpt>
<trkpt lat="25.012335" lon="102.138344">
<time>2015-09-27T19:59:25Z</time></trkpt>
<trkpt lat="25.012305" lon="102.138314">
<time>2015-09-27T19:59:26Z</time></trkpt>
<trkpt lat="25.012254" lon="102.138264">
<time>2015-09-27T19:59:27Z</time></trkpt>
<trkpt lat="25.012184" lon="102.138194">
<time>2015-09-27T19:59:28Z</time></trkpt>
<trkpt lat="25.012044" lon="102.138054">
<time>2015-09-27T19:59:29Z</time></trkpt>
<trkpt lat="25.012004" lon="102.138024">
<time>2015-09-27T19:59:30Z</time></trkpt>
<trkpt lat="25.011964" lon="102.137974">
<time>2015-09-27T19:59:31Z</time></trkpt>
<trkpt lat="25.011944" lon="102.137934">
<time>2015-09-27T19:59:32Z</time></trkpt>
<trkpt lat="25.011914" lon="102.137884">
<time>2015-09-27T19:59:33Z</time></trkpt>
<trkpt lat="25.011884" lon="102.137823">
<time>2015-09-27T19:59:34Z</time></trkpt>
<trkpt lat="25.011874" lon="102.137773">
<time>2015-09-27T19:59:35Z</time></trkpt>
<trkpt lat="25.011854" lon="102.137713">
<time>2015-09-27T19:59:36Z</time></trkpt>
<trkpt lat="25.011824" lon="102.137603">
<time>2015-09-27T19:59:37Z</time></trkpt>
<trkpt lat="25.011803" lon="102.137513">
<time>2015-09-27T19:59:38Z</time></trkpt>
<trkpt lat="25.011773" lon="102.137443">
<time>2015-09-27T19:59:39Z</time></trkpt>
<trkpt lat="25.011753" lon="102.137393">
<time>2015-09-27T19:59:40Z</time></trkpt>
<trkpt lat="25.011723" lon="102.137323">
<time>2015-09-27T19:59:41Z</time></trkpt>
<trkpt lat="25.011683" lon="102.137252">
<time>2015-09-27T19:59:42Z</time></trkpt>
<trkpt lat="25.011653" lon="102.137202">
<time>2015-09-27T19:59:43Z</time></trkpt>
<trkpt lat="25.011573" lon="102.137082">
<time>2015-09-27T19:59:44Z</time></trkpt>
<trkpt lat="25.011443" lon="102.136892">
<time>2015-09-27T19:59:45Z</time></trkpt>
<trkpt lat="25.011362" lon="102.136772">
<time>2015-09-27T19:59:46Z</time></trkpt>
<trkpt lat="25.011312" lon="102.136701">
<time>2015-09-27T19:59:47Z</time></trkpt>
<trkpt lat="25.011292" lon="102.136651">
<time>2015-09-27T19:59:48Z</time></trkpt>
<trkpt lat="25.011282" lon="102.136621">
<time>2015-09-27T19:59:49Z</time></trkpt>
<trkpt lat="25.011272" lon="102.136591">
<time>2015-09-27T19:59:50Z</time></trkpt>
<trkpt lat="25.011262" lon="102.136561">
<time>2015-09-27T19:59:51Z</time></trkpt>
<trkpt lat="25.011262" lon="102.136541">
<time>2015-09-27T19:59:52Z</time></trkpt>
<trkpt lat="25.011262" lon="102.136511">
<time>2015-09-27T19:59:53Z</time></trkpt>
<trkpt lat="25.011262" lon="102.136491">
<time>2015-09-27T19:59:54Z</time></trkpt>
<trkpt lat="25.011262" lon="102.136461">
<time>2015-09-27T19:59:55Z</time></trkpt>
<trkpt lat="25.011262" lon="102.136431">
<time>2015-09-27T19:59:56Z</time></trkpt>
<trkpt lat="25.011262" lon="102.136411">
<time>2015-09-27T19:59:57Z</time></trkpt>
<trkpt lat="25.011272" lon="102.136381">
<time>2015-09-27T19:59:58Z</time></trkpt>
<trkpt lat="25.011282" lon="102.136341">
<time>2015-09-27T19:59:59Z</time></trkpt>
<trkpt lat="25.011292" lon="102.136311">
<time>2015-09-27T20:00:00Z</time></trkpt>
<trkpt lat="25.011302" lon="102.136281">
<time>2015-09-27T20:00:01Z</time></trkpt>
<trkpt lat="25.011322" lon="102.136251">
<time>2015-09-27T20:00:02Z</time></trkpt>
<trkpt lat="25.011342" lon="102.136231">
<time>2015-09-27T20:00:03Z</time></trkpt>
<trkpt lat="25.011362" lon="102.13619">
<time>2015-09-27T20:00:04Z</time></trkpt>
<trkpt lat="25.011401" lon="102.13615">
<time>2015-09-27T20:00:05Z</time></trkpt>
<trkpt lat="25.011481" lon="102.13607">
<time>2015-09-27T20:00:06Z</time></trkpt>
<trkpt lat="25.011601" lon="102.13595">
<time>2015-09-27T20:00:07Z</time></trkpt>
<trkpt lat="25.011711" lon="102.13584">
<time>2015-09-27T20:00:08Z</time></trkpt>
<trkpt lat="25.011841" lon="102.13572">
<time>2015-09-27T20:00:09Z</time></trkpt>
<trkpt lat="25.011901" lon="102.135669">
<time>2015-09-27T20:00:10Z</time></trkpt>
<trkpt lat="25.011941" lon="102.135639">
<time>2015-09-27T20:00:11Z</time></trkpt>
<trkpt lat="25.011971" lon="102.135629">
<time>2015-09-27T20:00:12Z</time></trkpt>
<trkpt lat="25.012011" lon="102.135609">
<time>2015-09-27T20:00:13Z</time></trkpt>
<trkpt lat="25.012051" lon="102.135589">
<time>2015-09-27T20:00:14Z</time></trkpt>
<trkpt lat="25.012091" lon="102.135579">
<time>2015-09-27T20:00:15Z</time></trkpt>
<trkpt lat="25.012131" lon="102.135569">
<time>2015-09-27T20:00:16Z</time></trkpt>
<trkpt lat="25.012171" lon="102.135559">
<time>2015-09-27T20:00:17Z</time></trkpt>
<trkpt lat="25.012211" lon="102.135559">
<time>2015-09-27T20:00:18Z</time></trkpt>
<trkpt lat="25.012261" lon="102.135549">
<time>2015-09-27T20:00:19Z</time></trkpt>
<trkpt lat="25.01238" lon="102.135539">
<time>2015-09-27T20:00:20Z</time></trkpt>
<trkpt lat="25.01255" lon="102.135529">
<time>2015-09-27T20:00:21Z</time></trkpt>
<trkpt lat="25.01264" lon="102.135529">
<time>2015-09-27T20:00:22Z</time></trkpt>
<trkpt lat="25.01269" lon="102.135529">
<time>2015-09-27T20:00:23Z</time></trkpt>
<trkpt lat="25.01272" lon="102.135539">
<time>2015-09-27T20:00:24Z</time></trkpt>
<trkpt lat="25.01274" lon="102.135539">
<time>2015-09-27T20:00:25Z</time></trkpt>
<trkpt lat="25.01277" lon="102.135549">
<time>2015-09-27T20:00:26Z</time></trkpt>
<trkpt lat="25.01279" lon="102.135559">
<time>2015-09-27T20:00:27Z</time></trkpt>
<trkpt lat="25.0128" lon="102.135559">
<time>2015-09-27T20:00:28Z</time></trkpt>
<trkpt lat="25.01282" lon="102.135569">
<time>2015-09-27T20:00:29Z</time></trkpt>
<trkpt lat="25.01284" lon="102.135589">
<time>2015-09-27T20:00:30Z</time></trkpt>
<trkpt lat="25.012871" lon="102.135599">
<time>2015-09-27T20:00:31Z</time></trkpt>
<trkpt lat="25.012901" lon="102.135629">
<time>2015-09-27T20:00:32Z</time></trkpt>
<trkpt lat="25.012921" lon="102.135649">
<time>2015-09-27T20:00:33Z</time></trkpt>
<trkpt lat="25.012941" lon="102.135679">
<time>2015-09-27T20:00:34Z</time></trkpt>
<trkpt lat="25.012961" lon="102.135699">
<time>2015-09-27T20:00:35Z</time></trkpt>
<trkpt lat="25.012981" lon="102.13573">
<time>2015-09-27T20:00:36Z</time></trkpt>
<trkpt lat="25.013021" lon="102.1358">
<time>2015-09-27T20:00:37Z</time></trkpt>
<trkpt lat="25.013061" lon="102.13588">
<time>2015-09-27T20:00:38Z</time></trkpt>
<trkpt lat="25.013151" lon="102.13606">
<time>2015-09-27T20:00:39Z</time></trkpt>
<trkpt lat="25.013201" lon="102.13615">
<time>2015-09-27T20:00:40Z</time></trkpt>
<trkpt lat="25.013251" lon="102.13625">
<time>2015-09-27T20:00:41Z</time></trkpt>
<trkpt lat="25.013332" lon="102.136351">
<time>2015-09-27T20:00:42Z</time></trkpt>
<trkpt lat="25.013392" lon="102.136441">
<time>2015-09-27T20:00:43Z</time></trkpt>
<trkpt lat="25.013482" lon="102.136521">
<time>2015-09-27T20:00:44Z</time></trkpt>
<trkpt lat="25.013562" lon="102.136591">
<time>2015-09-27T20:00:45Z</time></trkpt>
<trkpt lat="25.013852" lon="102.136832">
<time>2015-09-27T20:00:46Z</time></trkpt>
<trkpt lat="25.014273" lon="102.137172">
<time>2015-09-27T20:00:47Z</time></trkpt>
<trkpt lat="25.014443" lon="102.137332">
<time>2015-09-27T20:00:48Z</time></trkpt>
<trkpt lat="25.014623" lon="102.137543">
<time>2015-09-27T20:00:49Z</time></trkpt>
<trkpt lat="25.014773" lon="102.137713">
<time>2015-09-27T20:00:50Z</time></trkpt>
<trkpt lat="25.014803" lon="102.137733">
<time>2015-09-27T20:00:51Z</time></trkpt>
<trkpt lat="25.014823" lon="102.137753">
<time>2015-09-27T20:00:52Z</time></trkpt>
<trkpt lat="25.014853" lon="102.137763">
<time>2015-09-27T20:00:53Z</time></trkpt>
<trkpt lat="25.014873" lon="102.137773">
<time>2015-09-27T20:00:54Z</time></trkpt>
<trkpt lat="25.014893" lon="102.137773">
<time>2015-09-27T20:00:55Z</time></trkpt>
<trkpt lat="25.014923" lon="102.137783">
<time>2015-09-27T20:00:56Z</time></trkpt>
<trkpt lat="25.014943" lon="102.137783">
<time>2015-09-27T20:00:57Z</time></trkpt>
<trkpt lat="25.014963" lon="102.137783">
<time>2015-09-27T20:00:58Z</time></trkpt>
<trkpt lat="25.014993" lon="102.137783">
<time>2015-09-27T20:00:59Z</time></trkpt>
<trkpt lat="25.015013" lon="102.137783">
<time>2015-09-27T20:01:00Z</time></trkpt>
<trkpt lat="25.015033" lon="102.137773">
<time>2015-09-27T20:01:01Z</time></trkpt>
<trkpt lat="25.015063" lon="102.137763">
<time>2015-09-27T20:01:02Z</time></trkpt>
<trkpt lat="25.015083" lon="102.137753">
<time>2015-09-27T20:01:03Z</time></trkpt>
<trkpt lat="25.015103" lon="102.137743">
<time>2015-09-27T20:01:04Z</time></trkpt>
<trkpt lat="25.015133" lon="102.137723">
<time>2015-09-27T20:01:05Z</time></trkpt>
<trkpt lat="25.015173" lon="102.137683">
<time>2015-09-27T20:01:06Z</time></trkpt>
<trkpt lat="25.015293" lon="102.137553">
<time>2015-09-27T20:01:07Z</time></trkpt>
<trkpt lat="25.015443" lon="102.137403">
<time>2015-09-27T20:01:08Z</time></trkpt>
<trkpt lat="25.015483" lon="102.137352">
<time>2015-09-27T20:01:09Z</time></trkpt>
<trkpt lat="25.015543" lon="102.137292">
<time>2015-09-27T20:01:10Z</time></trkpt>
<trkpt lat="25.015623" lon="102.137252">
<time>2015-09-27T20:01:11Z</time></trkpt>
<trkpt lat="25.015683" lon="102.137222">
<time>2015-09-27T20:01:12Z</time></trkpt>
<trkpt lat="25.015742" lon="102.137202">
<time>2015-09-27T20:01:13Z</time></trkpt>
<trkpt lat="25.015842" lon="102.137182">
<time>2015-09-27T20:01:14Z</time></trkpt>
<trkpt lat="25.015902" lon="102.137182">
<time>2015-09-27T20:01:15Z</time></trkpt>
<trkpt lat="25.015972" lon="102.137182">
<time>2015-09-27T20:01:16Z</time></trkpt>
<trkpt lat="25.016092" lon="102.137202">
<time>2015-09-27T20:01:17Z</time></trkpt>
<trkpt lat="25.016172" lon="102.137212">
<time>2015-09-27T20:01:18Z</time></trkpt>
<trkpt lat="25.016322" lon="102.137242">
<time>2015-09-27T20:01:19Z</time></trkpt>
<trkpt lat="25.016573" lon="102.137292">
<time>2015-09-27T20:01:20Z</time></trkpt>
<trkpt lat="25.016633" lon="102.137312">
<time>2015-09-27T20:01:21Z</time></trkpt>
<trkpt lat="25.016673" lon="102.137322">
<time>2015-09-27T20:01:22Z</time></trkpt>
<trkpt lat="25.016713" lon="102.137342">
<time>2015-09-27T20:01:23Z</time></trkpt>
<trkpt lat="25.016733" lon="102.137362">
<time>2015-09-27T20:01:24Z</time></trkpt>
<trkpt lat="25.016763" lon="102.137383">
<time>2015-09-27T20:01:25Z</time></trkpt>
<trkpt lat="25.016783" lon="102.137403">
<time>2015-09-27T20:01:26Z</time></trkpt>
<trkpt lat="25.016803" lon="102.137433">
<time>2015-09-27T20:01:27Z</time></trkpt>
<trkpt lat="25.016823" lon="102.137463">
<time>2015-09-27T20:01:28Z</time></trkpt>
<trkpt lat="25.016833" lon="102.137483">
<time>2015-09-27T20:01:29Z</time></trkpt>
<trkpt lat="25.016853" lon="102.137523">
<time>2015-09-27T20:01:30Z</time></trkpt>
<trkpt lat="25.016863" lon="102.137563">
<time>2015-09-27T20:01:31Z</time></trkpt>
<trkpt lat="25.016873" lon="102.137623">
<time>2015-09-27T20:01:32Z</time></trkpt>
<trkpt lat="25.016883" lon="102.137773">
<time>2015-09-27T20:01:33Z</time></trkpt>
<trkpt lat="25.016903" lon="102.137853">
<time>2015-09-27T20:01:34Z</time></trkpt>
<trkpt lat="25.016913" lon="102.137893">
<time>2015-09-27T20:01:35Z</time></trkpt>
<trkpt lat="25.016923" lon="102.137924">
<time>2015-09-27T20:01:36Z</time></trkpt>
<trkpt lat="25.016943" lon="102.137954">
<time>2015-09-27T20:01:37Z</time></trkpt>
<trkpt lat="25.016973" lon="102.137984">
<time>2015-09-27T20:01:38Z</time></trkpt>
<trkpt lat="25.017004" lon="102.138014">
<time>2015-09-27T20:01:39Z</time></trkpt>
<trkpt lat="25.017024" lon="102.138034">
<time>2015-09-27T20:01:40Z</time></trkpt>
<trkpt lat="25.017054" lon="102.138044">
<time>2015-09-27T20:01:41Z</time></trkpt>
<trkpt lat="25.017084" lon="102.138054">
<time>2015-09-27T20:01:42Z</time></trkpt>
<trkpt lat="25.017114" lon="102.138064">
<time>2015-09-27T20:01:43Z</time></trkpt>
<trkpt lat="25.017144" lon="102.138074">
<time>2015-09-27T20:01:44Z</time></trkpt>
<trkpt lat="25.017184" lon="102.138074">
<time>2015-09-27T20:01:45Z</time></trkpt>
<trkpt lat="25.017234" lon="102.138074">
<time>2015-09-27T20:01:46Z</time></trkpt>
<trkpt lat="25.017294" lon="102.138074">
<time>2015-09-27T20:01:47Z</time></trkpt>
<trkpt lat="25.017364" lon="102.138074">
<time>2015-09-27T20:01:48Z</time></trkpt>
<trkpt lat="25.017434" lon="102.138064">
<time>2015-09-27T20:01:49Z</time></trkpt>
<trkpt lat="25.017484" lon="102.138064">
<time>2015-09-27T20:01:50Z</time></trkpt>
<trkpt lat="25.017514" lon="102.138074">
<time>2015-09-27T20:01:51Z</time></trkpt>
<trkpt lat="25.017544" lon="102.138074">
<time>2015-09-27T20:01:52Z</time></trkpt>
<trkpt lat="25.017564" lon="102.138084">
<time>2015-09-27T20:01:53Z</time></trkpt>
<trkpt lat="25.017584" lon="102.138094">
<time>2015-09-27T20:01:54Z</time></trkpt>
<trkpt lat="25.017614" lon="102.138104">
<time>2015-09-27T20:01:55Z</time></trkpt>
<trkpt lat="25.017634" lon="102.138114">
<time>2015-09-27T20:01:56Z</time></trkpt>
<trkpt lat="25.017644" lon="102.138124">
<time>2015-09-27T20:01:57Z</time></trkpt>
<trkpt lat="25.017684" lon="102.138154">
<time>2015-09-27T20:01:58Z</time></trkpt>
<trkpt lat="25.017694" lon="102.138164">
<time>2015-09-27T20:01:59Z</time></trkpt>
<trkpt lat="25.017704" lon="102.138174">
<time>2015-09-27T20:02:00Z</time></trkpt>
<trkpt lat="25.017714" lon="102.138194">
<time>2015-09-27T20:02:01Z</time></trkpt>
<trkpt lat="25.017724" lon="102.138204">
<time>2015-09-27T20:02:02Z</time></trkpt>
<trkpt lat="25.017744" lon="102.138244">
<time>2015-09-27T20:02:03Z</time></trkpt>
<trkpt lat="25.017754" lon="102.138274">
<time>2015-09-27T20:02:04Z</time></trkpt>
<trkpt lat="25.017764" lon="102.138294">
<time>2015-09-27T20:02:05Z</time></trkpt>
<trkpt lat="25.017784" lon="102.138354">
<time>2015-09-27T20:02:06Z</time></trkpt>
<trkpt lat="25.017804" lon="102.138414">
<time>2015-09-27T20:02:07Z</time></trkpt>
<trkpt lat="25.017824" lon="102.138505">
<time>2015-09-27T20:02:08Z</time></trkpt>
<trkpt lat="25.017834" lon="102.138555">
<time>2015-09-27T20:02:09Z</time></trkpt>
<trkpt lat="25.017844" lon="102.138585">
<time>2015-09-27T20:02:10Z</time></trkpt>
<trkpt lat="25.017854" lon="102.138665">
<time>2015-09-27T20:02:11Z</time></trkpt>
<trkpt lat="25.017874" lon="102.138715">
<time>2015-09-27T20:02:12Z</time></trkpt>
<trkpt lat="25.017895" lon="102.138765">
<time>2015-09-27T20:02:13Z</time></trkpt>
<trkpt lat="25.017915" lon="102.138805">
<time>2015-09-27T20:02:14Z</time></trkpt>
<trkpt lat="25.017935" lon="102.138835">
<time>2015-09-27T20:02:15Z</time></trkpt>
<trkpt lat="25.017955" lon="102.138865">
<time>2015-09-27T20:02:16Z</time></trkpt>
<trkpt lat="25.017975" lon="102.138885">
<time>2015-09-27T20:02:17Z</time></trkpt>
<trkpt lat="25.018005" lon="102.138905">
<time>2015-09-27T20:02:18Z</time></trkpt>
<trkpt lat="25.018035" lon="102.138925">
<time>2015-09-27T20:02:19Z</time></trkpt>
<trkpt lat="25.018085" lon="102.138955">
<time>2015-09-27T20:02:20Z</time></trkpt>
<trkpt lat="25.018125" lon="102.138965">
<time>2015-09-27T20:02:21Z</time></trkpt>
<trkpt lat="25.018195" lon="102.138986">
<time>2015-09-27T20:02:22Z</time></trkpt>
<trkpt lat="25.018295" lon="102.138996">
<time>2015-09-27T20:02:23Z</time></trkpt>
<trkpt lat="25.018505" lon="102.139016">
<time>2015-09-27T20:02:24Z</time></trkpt>
<trkpt lat="25.019185" lon="102.139126">
<time>2015-09-27T20:02:25Z</time></trkpt>
<trkpt lat="25.019275" lon="102.139146">
<time>2015-09-27T20:02:26Z</time></trkpt>
<trkpt lat="25.019345" lon="102.139146">
<time>2015-09-27T20:02:27Z</time></trkpt>
<trkpt lat="25.019395" lon="102.139146">
<time>2015-09-27T20:02:28Z</time></trkpt>
<trkpt lat="25.019445" lon="102.139136">
<time>2015-09-27T20:02:29Z</time></trkpt>
<trkpt lat="25.019485" lon="102.139116">
<time>2015-09-27T20:02:30Z</time></trkpt>
<trkpt lat="25.019535" lon="102.139096">
<time>2015-09-27T20:02:31Z</time></trkpt>
<trkpt lat="25.019565" lon="102.139076">
<time>2015-09-27T20:02:32Z</time></trkpt>
<trkpt lat="25.019615" lon="102.139026">
<time>2015-09-27T20:02:33Z</time></trkpt>
<trkpt lat="25.019655" lon="102.138975">
<time>2015-09-27T20:02:34Z</time></trkpt>
<trkpt lat="25.019774" lon="102.138815">
<time>2015-09-27T20:02:35Z</time></trkpt>
<trkpt lat="25.019804" lon="102.138785">
<time>2015-09-27T20:02:36Z</time></trkpt>
<trkpt lat="25.019854" lon="102.138745">
<time>2015-09-27T20:02:37Z</time></trkpt>
<trkpt lat="25.019894" lon="102.138705">
<time>2015-09-27T20:02:38Z</time></trkpt>
<trkpt lat="25.019944" lon="102.138685">
<time>2015-09-27T20:02:39Z</time></trkpt>
<trkpt lat="25.019984" lon="102.138665">
<time>2015-09-27T20:02:40Z</time></trkpt>
<trkpt lat="25.020024" lon="102.138655">
<time>2015-09-27T20:02:41Z</time></trkpt>
<trkpt lat="25.020074" lon="102.138645">
<time>2015-09-27T20:02:42Z</time></trkpt>
<trkpt lat="25.020124" lon="102.138645">
<time>2015-09-27T20:02:43Z</time></trkpt>
<trkpt lat="25.020154" lon="102.138645">
<time>2015-09-27T20:02:44Z</time></trkpt>
<trkpt lat="25.020194" lon="102.138655">
<time>2015-09-27T20:02:45Z</time></trkpt>
<trkpt lat="25.020234" lon="102.138675">
<time>2015-09-27T20:02:46Z</time></trkpt>
<trkpt lat="25.020274" lon="102.138685">
<time>2015-09-27T20:02:47Z</time></trkpt>
<trkpt lat="25.020314" lon="102.138705">
<time>2015-09-27T20:02:48Z</time></trkpt>
<trkpt lat="25.020354" lon="102.138725">
<time>2015-09-27T20:02:49Z</time></trkpt>
<trkpt lat="25.020414" lon="102.138745">
<time>2015-09-27T20:02:50Z</time></trkpt>
<trkpt lat="25.020464" lon="102.138775">
<time>2015-09-27T20:02:51Z</time></trkpt>
<trkpt lat="25.020514" lon="102.138795">
<time>2015-09-27T20:02:52Z</time></trkpt>
<trkpt lat="25.020554" lon="102.138815">
<time>2015-09-27T20:02:53Z</time></trkpt>
<trkpt lat="25.020584" lon="102.138825">
<time>2015-09-27T20:02:54Z</time></trkpt>
<trkpt lat="25.020614" lon="102.138825">
<time>2015-09-27T20:02:55Z</time></trkpt>
<trkpt lat="25.020644" lon="102.138835">
<time>2015-09-27T20:02:56Z</time></trkpt>
<trkpt lat="25.020684" lon="102.138835">
<time>2015-09-27T20:02:57Z</time></trkpt>
<trkpt lat="25.020704" lon="102.138825">
<time>2015-09-27T20:02:58Z</time></trkpt>
<trkpt lat="25.020734" lon="102.138815">
<time>2015-09-27T20:02:59Z</time></trkpt>
<trkpt lat="25.020754" lon="102.138805">
<time>2015-09-27T20:03:00Z</time></trkpt>
<trkpt lat="25.020774" lon="102.138785">
<time>2015-09-27T20:03:01Z</time></trkpt>
<trkpt lat="25.020794" lon="102.138765">
<time>2015-09-27T20:03:02Z</time></trkpt>
<trkpt lat="25.020794" lon="102.138735">
<time>2015-09-27T20:03:03Z</time></trkpt>
<trkpt lat="25.020804" lon="102.138715">
<time>2015-09-27T20:03:04Z</time></trkpt>
<trkpt lat="25.020814" lon="102.138685">
<time>2015-09-27T20:03:05Z</time></trkpt>
<trkpt lat="25.020814" lon="102.138665">
<time>2015-09-27T20:03:06Z</time></trkpt>
<trkpt lat="25.020824" lon="102.138635">
<time>2015-09-27T20:03:07Z</time></trkpt>
<trkpt lat="25.020814" lon="102.138605">
<time>2015-09-27T20:03:08Z</time></trkpt>
<trkpt lat="25.020804" lon="102.138565">
<time>2015-09-27T20:03:09Z</time></trkpt>
<trkpt lat="25.020794" lon="102.138535">
<time>2015-09-27T20:03:10Z</time></trkpt>
<trkpt lat="25.020774" lon="102.138505">
<time>2015-09-27T20:03:11Z</time></trkpt>
<trkpt lat="25.020754" lon="102.138484">
<time>2015-09-27T20:03:12Z</time></trkpt>
<trkpt lat="25.020734" lon="102.138464">
<time>2015-09-27T20:03:13Z</time></trkpt>
<trkpt lat="25.020704" lon="102.138444">
<time>2015-09-27T20:03:14Z</time></trkpt>
<trkpt lat="25.020664" lon="102.138424">
<time>2015-09-27T20:03:15Z</time></trkpt>
<trkpt lat="25.020624" lon="102.138414">
<time>2015-09-27T20:03:16Z</time></trkpt>
<trkpt lat="25.020564" lon="102.138394">
<time>2015-09-27T20:03:17Z</time></trkpt>
<trkpt lat="25.020474" lon="102.138374">
<time>2015-09-27T20:03:18Z</time></trkpt>
<trkpt lat="25.020354" lon="102.138354">
<time>2015-09-27T20:03:19Z</time></trkpt>
<trkpt lat="25.020354" lon="102.138354">
<time>2015-09-27T20:03:20Z</time></trkpt>
<trkpt lat="25.020583" lon="102.138114">
<time>2015-09-27T20:03:21Z</time></trkpt>
<trkpt lat="25.020693" lon="102.137984">
<time>2015-09-27T20:03:22Z</time></trkpt>
<trkpt lat="25.020843" lon="102.137843">
<time>2015-09-27T20:03:23Z</time></trkpt>
<trkpt lat="25.021043" lon="102.137763">
<time>2015-09-27T20:03:24Z</time></trkpt>
<trkpt lat="25.021223" lon="102.137793">
<time>2015-09-27T20:03:25Z</time></trkpt>
<trkpt lat="25.021503" lon="102.137893">
<time>2015-09-27T20:03:26Z</time></trkpt>
<trkpt lat="25.021623" lon="102.137923">
<time>2015-09-27T20:03:27Z</time></trkpt>
<trkpt lat="25.021763" lon="102.137953">
<time>2015-09-27T20:03:28Z</time></trkpt>
<trkpt lat="25.021823" lon="102.137933">
<time>2015-09-27T20:03:29Z</time></trkpt>
<trkpt lat="25.021903" lon="102.137823">
<time>2015-09-27T20:03:30Z</time></trkpt>
<trkpt lat="25.022012" lon="102.137703">
<time>2015-09-27T20:03:31Z</time></trkpt>
<trkpt lat="25.022112" lon="102.137673">
<time>2015-09-27T20:03:32Z</time></trkpt>
<trkpt lat="25.022202" lon="102.137663">
<time>2015-09-27T20:03:33Z</time></trkpt>
<trkpt lat="25.022302" lon="102.137683">
<time>2015-09-27T20:03:34Z</time></trkpt>
<trkpt lat="25.022392" lon="102.137703">
<time>2015-09-27T20:03:35Z</time></trkpt>
<trkpt lat="25.022502" lon="102.137733">
<time>2015-09-27T20:03:36Z</time></trkpt>
<trkpt lat="25.022572" lon="102.137733">
<time>2015-09-27T20:03:37Z</time></trkpt>
<trkpt lat="25.022682" lon="102.137733">
<time>2015-09-27T20:03:38Z</time></trkpt>
<trkpt lat="25.022762" lon="102.137733">
<time>2015-09-27T20:03:39Z</time></trkpt>
<trkpt lat="25.022862" lon="102.137663">
<time>2015-09-27T20:03:40Z</time></trkpt>
<trkpt lat="25.022952" lon="102.137583">
<time>2015-09-27T20:03:41Z</time></trkpt>
<trkpt lat="25.022982" lon="102.137472">
<time>2015-09-27T20:03:42Z</time></trkpt>
<trkpt lat="25.022972" lon="102.137302">
<time>2015-09-27T20:03:43Z</time></trkpt>
<trkpt lat="25.023121" lon="102.136982">
<time>2015-09-27T20:03:44Z</time></trkpt>
<trkpt lat="25.023281" lon="102.136691">
<time>2015-09-27T20:03:45Z</time></trkpt>
<trkpt lat="25.023311" lon="102.136581">
<time>2015-09-27T20:03:46Z</time></trkpt>
<trkpt lat="25.0234" lon="102.136431">
<time>2015-09-27T20:03:47Z</time></trkpt>
<trkpt lat="25.02343" lon="102.13624">
<time>2015-09-27T20:03:48Z</time></trkpt>
<trkpt lat="25.0234" lon="102.13603">
<time>2015-09-27T20:03:49Z</time></trkpt>
<trkpt lat="25.02336" lon="102.135819">
<time>2015-09-27T20:03:50Z</time></trkpt>
<trkpt lat="25.023399" lon="102.135559">
<time>2015-09-27T20:03:51Z</time></trkpt>
<trkpt lat="25.023419" lon="102.135359">
<time>2015-09-27T20:03:52Z</time></trkpt>
<trkpt lat="25.023479" lon="102.135148">
<time>2015-09-27T20:03:53Z</time></trkpt>
<trkpt lat="25.023488" lon="102.134958">
<time>2015-09-27T20:03:54Z</time></trkpt>
<trkpt lat="25.023468" lon="102.134848">
<time>2015-09-27T20:03:55Z</time></trkpt>
<trkpt lat="25.023428" lon="102.134697">
<time>2015-09-27T20:03:56Z</time></trkpt>
<trkpt lat="25.023378" lon="102.134537">
<time>2015-09-27T20:03:57Z</time></trkpt>
<trkpt lat="25.023407" lon="102.134196">
<time>2015-09-27T20:03:58Z</time></trkpt>
<trkpt lat="25.023417" lon="102.134016">
<time>2015-09-27T20:03:59Z</time></trkpt>
<trkpt lat="25.023427" lon="102.133906">
<time>2015-09-27T20:04:00Z</time></trkpt>
<trkpt lat="25.023457" lon="102.133796">
<time>2015-09-27T20:04:01Z</time></trkpt>
<trkpt lat="25.023507" lon="102.133655">
<time>2015-09-27T20:04:02Z</time></trkpt>
<trkpt lat="25.023506" lon="102.133505">
<time>2015-09-27T20:04:03Z</time></trkpt>
<trkpt lat="25.023486" lon="102.133415">
<time>2015-09-27T20:04:04Z</time></trkpt>
<trkpt lat="25.023516" lon="102.133155">
<time>2015-09-27T20:04:05Z</time></trkpt>
<trkpt lat="25.023596" lon="102.132984">
<time>2015-09-27T20:04:06Z</time></trkpt>
<trkpt lat="25.023745" lon="102.132774">
<time>2015-09-27T20:04:07Z</time></trkpt>
<trkpt lat="25.023835" lon="102.132724">
<time>2015-09-27T20:04:08Z</time></trkpt>
<trkpt lat="25.023945" lon="102.132724">
<time>2015-09-27T20:04:09Z</time></trkpt>
<trkpt lat="25.024135" lon="102.132684">
<time>2015-09-27T20:04:10Z</time></trkpt>
<trkpt lat="25.024205" lon="102.132644">
<time>2015-09-27T20:04:11Z</time></trkpt>
<trkpt lat="25.024355" lon="102.132644">
<time>2015-09-27T20:04:12Z</time></trkpt>
<trkpt lat="25.024435" lon="102.132684">
<time>2015-09-27T20:04:13Z</time></trkpt>
<trkpt lat="25.024555" lon="102.132704">
<time>2015-09-27T20:04:14Z</time></trkpt>
<trkpt lat="25.024705" lon="102.132714">
<time>2015-09-27T20:04:15Z</time></trkpt>
<trkpt lat="25.024905" lon="102.132654">
<time>2015-09-27T20:04:16Z</time></trkpt>
<trkpt lat="25.025205" lon="102.132463">
<time>2015-09-27T20:04:17Z</time></trkpt>
<trkpt lat="25.025285" lon="102.132333">
<time>2015-09-27T20:04:18Z</time></trkpt>
<trkpt lat="25.025444" lon="102.132273">
<time>2015-09-27T20:04:19Z</time></trkpt>
<trkpt lat="25.025554" lon="102.132263">
<time>2015-09-27T20:04:20Z</time></trkpt>
<trkpt lat="25.025694" lon="102.132143">
<time>2015-09-27T20:04:21Z</time></trkpt>
<trkpt lat="25.025824" lon="102.131902">
<time>2015-09-27T20:04:22Z</time></trkpt>
<trkpt lat="25.025974" lon="102.131652">
<time>2015-09-27T20:04:23Z</time></trkpt>
<trkpt lat="25.026173" lon="102.131431">
<time>2015-09-27T20:04:24Z</time></trkpt>
<trkpt lat="25.026343" lon="102.131281">
<time>2015-09-27T20:04:25Z</time></trkpt>
<trkpt lat="25.026772" lon="102.13086">
<time>2015-09-27T20:04:26Z</time></trkpt>
<trkpt lat="25.027252" lon="102.13047">
<time>2015-09-27T20:04:27Z</time></trkpt>
<trkpt lat="25.027392" lon="102.13036">
<time>2015-09-27T20:04:28Z</time></trkpt>
<trkpt lat="25.027641" lon="102.130169">
<time>2015-09-27T20:04:29Z</time></trkpt>
<trkpt lat="25.027991" lon="102.129879">
<time>2015-09-27T20:04:30Z</time></trkpt>
<trkpt lat="25.027991" lon="102.129879">
<time>2015-09-27T20:04:31Z</time></trkpt>
<trkpt lat="25.028071" lon="102.129819">
<time>2015-09-27T20:04:32Z</time></trkpt>
<trkpt lat="25.028151" lon="102.129769">
<time>2015-09-27T20:04:33Z</time></trkpt>
<trkpt lat="25.028231" lon="102.129688">
<time>2015-09-27T20:04:34Z</time></trkpt>
<trkpt lat="25.02847" lon="102.129488">
<time>2015-09-27T20:04:35Z</time></trkpt>
<trkpt lat="25.02854" lon="102.129408">
<time>2015-09-27T20:04:36Z</time></trkpt>
<trkpt lat="25.02861" lon="102.129348">
<time>2015-09-27T20:04:37Z</time></trkpt>
<trkpt lat="25.02868" lon="102.129318">
<time>2015-09-27T20:04:38Z</time></trkpt>
<trkpt lat="25.02872" lon="102.129278">
<time>2015-09-27T20:04:39Z</time></trkpt>
<trkpt lat="25.02877" lon="102.129228">
<time>2015-09-27T20:04:40Z</time></trkpt>
<trkpt lat="25.02908" lon="102.129047">
<time>2015-09-27T20:04:41Z</time></trkpt>
<trkpt lat="25.02927" lon="102.128937">
<time>2015-09-27T20:04:42Z</time></trkpt>
<trkpt lat="25.02937" lon="102.128837">
<time>2015-09-27T20:04:43Z</time></trkpt>
<trkpt lat="25.02941" lon="102.128837">
<time>2015-09-27T20:04:44Z</time></trkpt>
<trkpt lat="25.02944" lon="102.128857">
<time>2015-09-27T20:04:45Z</time></trkpt>
<trkpt lat="25.02947" lon="102.128907">
<time>2015-09-27T20:04:46Z</time></trkpt>
<trkpt lat="25.0295" lon="102.128987">
<time>2015-09-27T20:04:47Z</time></trkpt>
<trkpt lat="25.02973" lon="102.129438">
<time>2015-09-27T20:04:48Z</time></trkpt>
<trkpt lat="25.02986" lon="102.129618">
<time>2015-09-27T20:04:49Z</time></trkpt>
<trkpt lat="25.030011" lon="102.129728">
<time>2015-09-27T20:04:50Z</time></trkpt>
<trkpt lat="25.030081" lon="102.129759">
<time>2015-09-27T20:04:51Z</time></trkpt>
<trkpt lat="25.030251" lon="102.129728">
<time>2015-09-27T20:04:52Z</time></trkpt>
<trkpt lat="25.030311" lon="102.129738">
<time>2015-09-27T20:04:53Z</time></trkpt>
<trkpt lat="25.030371" lon="102.129749">
<time>2015-09-27T20:04:54Z</time></trkpt>
<trkpt lat="25.030451" lon="102.129789">
<time>2015-09-27T20:04:55Z</time></trkpt>
<trkpt lat="25.030521" lon="102.129829">
<time>2015-09-27T20:04:56Z</time></trkpt>
<trkpt lat="25.030591" lon="102.129839">
<time>2015-09-27T20:04:57Z</time></trkpt>
<trkpt lat="25.030661" lon="102.129839">
<time>2015-09-27T20:04:58Z</time></trkpt>
<trkpt lat="25.030811" lon="102.129799">
<time>2015-09-27T20:04:59Z</time></trkpt>
<trkpt lat="25.030911" lon="102.129789">
<time>2015-09-27T20:05:00Z</time></trkpt>
<trkpt lat="25.031031" lon="102.129799">
<time>2015-09-27T20:05:01Z</time></trkpt>
<trkpt lat="25.031111" lon="102.129819">
<time>2015-09-27T20:05:02Z</time></trkpt>
<trkpt lat="25.031111" lon="102.129819">
<time>2015-09-27T20:05:03Z</time></trkpt>
<trkpt lat="25.03118" lon="102.129678">
<time>2015-09-27T20:05:04Z</time></trkpt>
<trkpt lat="25.03128" lon="102.129448">
<time>2015-09-27T20:05:05Z</time></trkpt>
<trkpt lat="25.03137" lon="102.129157">
<time>2015-09-27T20:05:06Z</time></trkpt>
<trkpt lat="25.031509" lon="102.128867">
<time>2015-09-27T20:05:07Z</time></trkpt>
<trkpt lat="25.031619" lon="102.128346">
<time>2015-09-27T20:05:08Z</time></trkpt>
<trkpt lat="25.031628" lon="102.127986">
<time>2015-09-27T20:05:09Z</time></trkpt>
<trkpt lat="25.031568" lon="102.127815">
<time>2015-09-27T20:05:10Z</time></trkpt>
<trkpt lat="25.031498" lon="102.127565">
<time>2015-09-27T20:05:11Z</time></trkpt>
<trkpt lat="25.031517" lon="102.127365">
<time>2015-09-27T20:05:12Z</time></trkpt>
<trkpt lat="25.031607" lon="102.126974">
<time>2015-09-27T20:05:13Z</time></trkpt>
<trkpt lat="25.031707" lon="102.126643">
<time>2015-09-27T20:05:14Z</time></trkpt>
<trkpt lat="25.031896" lon="102.126433">
<time>2015-09-27T20:05:15Z</time></trkpt>
<trkpt lat="25.032226" lon="102.125922">
<time>2015-09-27T20:05:16Z</time></trkpt>
<trkpt lat="25.032485" lon="102.125572">
<time>2015-09-27T20:05:17Z</time></trkpt>
<trkpt lat="25.032515" lon="102.125351">
<time>2015-09-27T20:05:18Z</time></trkpt>
<trkpt lat="25.032535" lon="102.125021">
<time>2015-09-27T20:05:19Z</time></trkpt>
<trkpt lat="25.032545" lon="102.124891">
<time>2015-09-27T20:05:20Z</time></trkpt>
<trkpt lat="25.032414" lon="102.12442">
<time>2015-09-27T20:05:21Z</time></trkpt>
<trkpt lat="25.032384" lon="102.1241">
<time>2015-09-27T20:05:22Z</time></trkpt>
<trkpt lat="25.032643" lon="102.123759">
<time>2015-09-27T20:05:23Z</time></trkpt>
<trkpt lat="25.032803" lon="102.123188">
<time>2015-09-27T20:05:24Z</time></trkpt>
<trkpt lat="25.032822" lon="102.122728">
<time>2015-09-27T20:05:25Z</time></trkpt>
<trkpt lat="25.032982" lon="102.122157">
<time>2015-09-27T20:05:26Z</time></trkpt>
<trkpt lat="25.033201" lon="102.121556">
<time>2015-09-27T20:05:27Z</time></trkpt>
<trkpt lat="25.03343" lon="102.120224">
<time>2015-09-27T20:05:28Z</time></trkpt>
<trkpt lat="25.033579" lon="102.119663">
<time>2015-09-27T20:05:29Z</time></trkpt>
<trkpt lat="25.033849" lon="102.119103">
<time>2015-09-27T20:05:30Z</time></trkpt>
<trkpt lat="25.034178" lon="102.118542">
<time>2015-09-27T20:05:31Z</time></trkpt>
<trkpt lat="25.034218" lon="102.118312">
<time>2015-09-27T20:05:32Z</time></trkpt>
<trkpt lat="25.034277" lon="102.117961">
<time>2015-09-27T20:05:33Z</time></trkpt>
<trkpt lat="25.034557" lon="102.11717">
<time>2015-09-27T20:05:34Z</time></trkpt>
<trkpt lat="25.034866" lon="102.116519">
<time>2015-09-27T20:05:35Z</time></trkpt>
<trkpt lat="25.035355" lon="102.115538">
<time>2015-09-27T20:05:36Z</time></trkpt>
<trkpt lat="25.035595" lon="102.114887">
<time>2015-09-27T20:05:37Z</time></trkpt>
<trkpt lat="25.035704" lon="102.114437">
<time>2015-09-27T20:05:38Z</time></trkpt>
<trkpt lat="25.035944" lon="102.114247">
<time>2015-09-27T20:05:39Z</time></trkpt>
<trkpt lat="25.036254" lon="102.114187">
<time>2015-09-27T20:05:40Z</time></trkpt>
<trkpt lat="25.036654" lon="102.114027">
<time>2015-09-27T20:05:41Z</time></trkpt>
<trkpt lat="25.036834" lon="102.113666">
<time>2015-09-27T20:05:42Z</time></trkpt>
<trkpt lat="25.036864" lon="102.113306">
<time>2015-09-27T20:05:43Z</time></trkpt>
<trkpt lat="25.036833" lon="102.112935">
<time>2015-09-27T20:05:44Z</time></trkpt>
<trkpt lat="25.036633" lon="102.112555">
<time>2015-09-27T20:05:45Z</time></trkpt>
<trkpt lat="25.036513" lon="102.112094">
<time>2015-09-27T20:05:46Z</time></trkpt>
<trkpt lat="25.036513" lon="102.112094">
<time>2015-09-27T20:05:47Z</time></trkpt>
<trkpt lat="25.036573" lon="102.112115">
<time>2015-09-27T20:05:48Z</time></trkpt>
<trkpt lat="25.036913" lon="102.112024">
<time>2015-09-27T20:05:49Z</time></trkpt>
<trkpt lat="25.037162" lon="102.111814">
<time>2015-09-27T20:05:50Z</time></trkpt>
<trkpt lat="25.037892" lon="102.111063">
<time>2015-09-27T20:05:51Z</time></trkpt>
<trkpt lat="25.038142" lon="102.110763">
<time>2015-09-27T20:05:52Z</time></trkpt>
<trkpt lat="25.038491" lon="102.110273">
<time>2015-09-27T20:05:53Z</time></trkpt>
<trkpt lat="25.038591" lon="102.110062">
<time>2015-09-27T20:05:54Z</time></trkpt>
<trkpt lat="25.038651" lon="102.109832">
<time>2015-09-27T20:05:55Z</time></trkpt>
<trkpt lat="25.038651" lon="102.109832">
<time>2015-09-27T20:05:56Z</time></trkpt>
<trkpt lat="25.039011" lon="102.109472">
<time>2015-09-27T20:05:57Z</time></trkpt>
<trkpt lat="25.039271" lon="102.109182">
<time>2015-09-27T20:05:58Z</time></trkpt>
<trkpt lat="25.039441" lon="102.108951">
<time>2015-09-27T20:05:59Z</time></trkpt>
<trkpt lat="25.03964" lon="102.108661">
<time>2015-09-27T20:06:00Z</time></trkpt>
<trkpt lat="25.03981" lon="102.108381">
<time>2015-09-27T20:06:01Z</time></trkpt>
<trkpt lat="25.03999" lon="102.108041">
<time>2015-09-27T20:06:02Z</time></trkpt>
<trkpt lat="25.04013" lon="102.10775">
<time>2015-09-27T20:06:03Z</time></trkpt>
<trkpt lat="25.04036" lon="102.10716">
<time>2015-09-27T20:06:04Z</time></trkpt>
<trkpt lat="25.040469" lon="102.10681">
<time>2015-09-27T20:06:05Z</time></trkpt>
<trkpt lat="25.040519" lon="102.106579">
<time>2015-09-27T20:06:06Z</time></trkpt>
<trkpt lat="25.040569" lon="102.106349">
<time>2015-09-27T20:06:07Z</time></trkpt>
<trkpt lat="25.040679" lon="102.105809">
<time>2015-09-27T20:06:08Z</time></trkpt>
<trkpt lat="25.040868" lon="102.104638">
<time>2015-09-27T20:06:09Z</time></trkpt>
<trkpt lat="25.040918" lon="102.104348">
<time>2015-09-27T20:06:10Z</time></trkpt>
<trkpt lat="25.041028" lon="102.103767">
<time>2015-09-27T20:06:11Z</time></trkpt>
<trkpt lat="25.041128" lon="102.103277">
<time>2015-09-27T20:06:12Z</time></trkpt>
<trkpt lat="25.041188" lon="102.103087">
<time>2015-09-27T20:06:13Z</time></trkpt>
<trkpt lat="25.041248" lon="102.102937">
<time>2015-09-27T20:06:14Z</time></trkpt>
<trkpt lat="25.041348" lon="102.102757">
<time>2015-09-27T20:06:15Z</time></trkpt>
<trkpt lat="25.041438" lon="102.102587">
<time>2015-09-27T20:06:16Z</time></trkpt>
<trkpt lat="25.041538" lon="102.102437">
<time>2015-09-27T20:06:17Z</time></trkpt>
<trkpt lat="25.041638" lon="102.102307">
<time>2015-09-27T20:06:18Z</time></trkpt>
<trkpt lat="25.041638" lon="102.102297">
<time>2015-09-27T20:06:19Z</time></trkpt>
<trkpt lat="25.041738" lon="102.102187">
<time>2015-09-27T20:06:20Z</time></trkpt>
<trkpt lat="25.041828" lon="102.102096">
<time>2015-09-27T20:06:21Z</time></trkpt>
<trkpt lat="25.041948" lon="102.101986">
<time>2015-09-27T20:06:22Z</time></trkpt>
<trkpt lat="25.042118" lon="102.101846">
<time>2015-09-27T20:06:23Z</time></trkpt>
<trkpt lat="25.042357" lon="102.101656">
<time>2015-09-27T20:06:24Z</time></trkpt>
<trkpt lat="25.042587" lon="102.101506">
<time>2015-09-27T20:06:25Z</time></trkpt>
<trkpt lat="25.043197" lon="102.101086">
<time>2015-09-27T20:06:26Z</time></trkpt>
<trkpt lat="25.045177" lon="102.099735">
<time>2015-09-27T20:06:27Z</time></trkpt>
<trkpt lat="25.046777" lon="102.098655">
<time>2015-09-27T20:06:28Z</time></trkpt>
<trkpt lat="25.047856" lon="102.097914">
<time>2015-09-27T20:06:29Z</time></trkpt>
<trkpt lat="25.048286" lon="102.097624">
<time>2015-09-27T20:06:30Z</time></trkpt>
<trkpt lat="25.048496" lon="102.097474">
<time>2015-09-27T20:06:31Z</time></trkpt>
<trkpt lat="25.048896" lon="102.097144">
<time>2015-09-27T20:06:32Z</time></trkpt>
<trkpt lat="25.049516" lon="102.096584">
<time>2015-09-27T20:06:33Z</time></trkpt>
<trkpt lat="25.049966" lon="102.096084">
<time>2015-09-27T20:06:34Z</time></trkpt>
<trkpt lat="25.050536" lon="102.095443">
<time>2015-09-27T20:06:35Z</time></trkpt>
<trkpt lat="25.051026" lon="102.094903">
<time>2015-09-27T20:06:36Z</time></trkpt>
<trkpt lat="25.051036" lon="102.094903">
<time>2015-09-27T20:06:37Z</time></trkpt>
<trkpt lat="25.051316" lon="102.094613">
<time>2015-09-27T20:06:38Z</time></trkpt>
<trkpt lat="25.051526" lon="102.094413">
<time>2015-09-27T20:06:39Z</time></trkpt>
<trkpt lat="25.051686" lon="102.094273">
<time>2015-09-27T20:06:40Z</time></trkpt>
<trkpt lat="25.051816" lon="102.094173">
<time>2015-09-27T20:06:41Z</time></trkpt>
<trkpt lat="25.051946" lon="102.094063">
<time>2015-09-27T20:06:42Z</time></trkpt>
<trkpt lat="25.052126" lon="102.093943">
<time>2015-09-27T20:06:43Z</time></trkpt>
<trkpt lat="25.052376" lon="102.093773">
<time>2015-09-27T20:06:44Z</time></trkpt>
<trkpt lat="25.052706" lon="102.093573">
<time>2015-09-27T20:06:45Z</time></trkpt>
<trkpt lat="25.053316" lon="102.093213">
<time>2015-09-27T20:06:46Z</time></trkpt>
<trkpt lat="25.053696" lon="102.093003">
<time>2015-09-27T20:06:47Z</time></trkpt>
<trkpt lat="25.053936" lon="102.092823">
<time>2015-09-27T20:06:48Z</time></trkpt>
<trkpt lat="25.053946" lon="102.092823">
<time>2015-09-27T20:06:49Z</time></trkpt>
<trkpt lat="25.054246" lon="102.092593">
<time>2015-09-27T20:06:50Z</time></trkpt>
<trkpt lat="25.054576" lon="102.092333">
<time>2015-09-27T20:06:51Z</time></trkpt>
<trkpt lat="25.054776" lon="102.092143">
<time>2015-09-27T20:06:52Z</time></trkpt>
<trkpt lat="25.055536" lon="102.091413">
<time>2015-09-27T20:06:53Z</time></trkpt>
<trkpt lat="25.057116" lon="102.089863">
<time>2015-09-27T20:06:54Z</time></trkpt>
<trkpt lat="25.057726" lon="102.089273">
<time>2015-09-27T20:06:55Z</time></trkpt>
<trkpt lat="25.059317" lon="102.087703">
<time>2015-09-27T20:06:56Z</time></trkpt>
<trkpt lat="25.059737" lon="102.087283">
<time>2015-09-27T20:06:57Z</time></trkpt>
<trkpt lat="25.060647" lon="102.086403">
<time>2015-09-27T20:06:58Z</time></trkpt>
<trkpt lat="25.060867" lon="102.086203">
<time>2015-09-27T20:06:59Z</time></trkpt>
<trkpt lat="25.061067" lon="102.086043">
<time>2015-09-27T20:07:00Z</time></trkpt>
<trkpt lat="25.061237" lon="102.085923">
<time>2015-09-27T20:07:01Z</time></trkpt>
<trkpt lat="25.061407" lon="102.085813">
<time>2015-09-27T20:07:02Z</time></trkpt>
<trkpt lat="25.061577" lon="102.085723">
<time>2015-09-27T20:07:03Z</time></trkpt>
<trkpt lat="25.061747" lon="102.085663">
<time>2015-09-27T20:07:04Z</time></trkpt>
<trkpt lat="25.062007" lon="102.085583">
<time>2015-09-27T20:07:05Z</time></trkpt>
<trkpt lat="25.062137" lon="102.085563">
<time>2015-09-27T20:07:06Z</time></trkpt>
<trkpt lat="25.062297" lon="102.085523">
<time>2015-09-27T20:07:07Z</time></trkpt>
<trkpt lat="25.062527" lon="102.085493">
<time>2015-09-27T20:07:08Z</time></trkpt>
<trkpt lat="25.062677" lon="102.085493">
<time>2015-09-27T20:07:09Z</time></trkpt>
<trkpt lat="25.062977" lon="102.085493">
<time>2015-09-27T20:07:10Z</time></trkpt>
<trkpt lat="25.063197" lon="102.085503">
<time>2015-09-27T20:07:11Z</time></trkpt>
<trkpt lat="25.063727" lon="102.085533">
<time>2015-09-27T20:07:12Z</time></trkpt>
<trkpt lat="25.064717" lon="102.085593">
<time>2015-09-27T20:07:13Z</time></trkpt>
<trkpt lat="25.066817" lon="102.085733">
<time>2015-09-27T20:07:14Z</time></trkpt>
<trkpt lat="25.067727" lon="102.085783">
<time>2015-09-27T20:07:15Z</time></trkpt>
<trkpt lat="25.068267" lon="102.085803">
<time>2015-09-27T20:07:16Z</time></trkpt>
<trkpt lat="25.068537" lon="102.085773">
<time>2015-09-27T20:07:17Z</time></trkpt>
<trkpt lat="25.068807" lon="102.085723">
<time>2015-09-27T20:07:18Z</time></trkpt>
<trkpt lat="25.069087" lon="102.085633">
<time>2015-09-27T20:07:19Z</time></trkpt>
<trkpt lat="25.069257" lon="102.085573">
<time>2015-09-27T20:07:20Z</time></trkpt>
<trkpt lat="25.069477" lon="102.085463">
<time>2015-09-27T20:07:21Z</time></trkpt>
<trkpt lat="25.069637" lon="102.085373">
<time>2015-09-27T20:07:22Z</time></trkpt>
<trkpt lat="25.070127" lon="102.085073">
<time>2015-09-27T20:07:23Z</time></trkpt>
<trkpt lat="25.071107" lon="102.084403">
<time>2015-09-27T20:07:24Z</time></trkpt>
<trkpt lat="25.071477" lon="102.084143">
<time>2015-09-27T20:07:25Z</time></trkpt>
<trkpt lat="25.072587" lon="102.083393">
<time>2015-09-27T20:07:26Z</time></trkpt>
<trkpt lat="25.072778" lon="102.083263">
<time>2015-09-27T20:07:27Z</time></trkpt>
<trkpt lat="25.072988" lon="102.083133">
<time>2015-09-27T20:07:28Z</time></trkpt>
<trkpt lat="25.073178" lon="102.083023">
<time>2015-09-27T20:07:29Z</time></trkpt>
<trkpt lat="25.073318" lon="102.082943">
<time>2015-09-27T20:07:30Z</time></trkpt>
<trkpt lat="25.073628" lon="102.082774">
<time>2015-09-27T20:07:31Z</time></trkpt>
<trkpt lat="25.073908" lon="102.082644">
<time>2015-09-27T20:07:32Z</time></trkpt>
<trkpt lat="25.074098" lon="102.082564">
<time>2015-09-27T20:07:33Z</time></trkpt>
<trkpt lat="25.074528" lon="102.082404">
<time>2015-09-27T20:07:34Z</time></trkpt>
<trkpt lat="25.074828" lon="102.082304">
<time>2015-09-27T20:07:35Z</time></trkpt>
<trkpt lat="25.075108" lon="102.082224">
<time>2015-09-27T20:07:36Z</time></trkpt>
<trkpt lat="25.075378" lon="102.082164">
<time>2015-09-27T20:07:37Z</time></trkpt>
<trkpt lat="25.075598" lon="102.082134">
<time>2015-09-27T20:07:38Z</time></trkpt>
<trkpt lat="25.075858" lon="102.082094">
<time>2015-09-27T20:07:39Z</time></trkpt>
<trkpt lat="25.076218" lon="102.082034">
<time>2015-09-27T20:07:40Z</time></trkpt>
<trkpt lat="25.076508" lon="102.081994">
<time>2015-09-27T20:07:41Z</time></trkpt>
<trkpt lat="25.076808" lon="102.081954">
<time>2015-09-27T20:07:42Z</time></trkpt>
<trkpt lat="25.077338" lon="102.081864">
<time>2015-09-27T20:07:43Z</time></trkpt>
<trkpt lat="25.077598" lon="102.081814">
<time>2015-09-27T20:07:44Z</time></trkpt>
<trkpt lat="25.077788" lon="102.081774">
<time>2015-09-27T20:07:45Z</time></trkpt>
<trkpt lat="25.078008" lon="102.081714">
<time>2015-09-27T20:07:46Z</time></trkpt>
<trkpt lat="25.078338" lon="102.081614">
<time>2015-09-27T20:07:47Z</time></trkpt>
<trkpt lat="25.078528" lon="102.081544">
<time>2015-09-27T20:07:48Z</time></trkpt>
<trkpt lat="25.078708" lon="102.081484">
<time>2015-09-27T20:07:49Z</time></trkpt>
<trkpt lat="25.078958" lon="102.081394">
<time>2015-09-27T20:07:50Z</time></trkpt>
<trkpt lat="25.079348" lon="102.081234">
<time>2015-09-27T20:07:51Z</time></trkpt>
<trkpt lat="25.079738" lon="102.081044">
<time>2015-09-27T20:07:52Z</time></trkpt>
<trkpt lat="25.080458" lon="102.080684">
<time>2015-09-27T20:07:53Z</time></trkpt>
<trkpt lat="25.080969" lon="102.080444">
<time>2015-09-27T20:07:54Z</time></trkpt>
<trkpt lat="25.081459" lon="102.080224">
<time>2015-09-27T20:07:55Z</time></trkpt>
<trkpt lat="25.081769" lon="102.080124">
<time>2015-09-27T20:07:56Z</time></trkpt>
<trkpt lat="25.082089" lon="102.080034">
<time>2015-09-27T20:07:57Z</time></trkpt>
<trkpt lat="25.082479" lon="102.079925">
<time>2015-09-27T20:07:58Z</time></trkpt>
<trkpt lat="25.082969" lon="102.079835">
<time>2015-09-27T20:07:59Z</time></trkpt>
<trkpt lat="25.083349" lon="102.079795">
<time>2015-09-27T20:08:00Z</time></trkpt>
<trkpt lat="25.083569" lon="102.079765">
<time>2015-09-27T20:08:01Z</time></trkpt>
<trkpt lat="25.084089" lon="102.079755">
<time>2015-09-27T20:08:02Z</time></trkpt>
<trkpt lat="25.084649" lon="102.079755">
<time>2015-09-27T20:08:03Z</time></trkpt>
<trkpt lat="25.086978" lon="102.079754">
<time>2015-09-27T20:08:04Z</time></trkpt>
<trkpt lat="25.088578" lon="102.079734">
<time>2015-09-27T20:08:05Z</time></trkpt>
<trkpt lat="25.089748" lon="102.079694">
<time>2015-09-27T20:08:06Z</time></trkpt>
<trkpt lat="25.090288" lon="102.079634">
<time>2015-09-27T20:08:07Z</time></trkpt>
<trkpt lat="25.091108" lon="102.079534">
<time>2015-09-27T20:08:08Z</time></trkpt>
<trkpt lat="25.092098" lon="102.079385">
<time>2015-09-27T20:08:09Z</time></trkpt>
<trkpt lat="25.093968" lon="102.079115">
<time>2015-09-27T20:08:10Z</time></trkpt>
<trkpt lat="25.095298" lon="102.078915">
<time>2015-09-27T20:08:11Z</time></trkpt>
<trkpt lat="25.097228" lon="102.078655">
<time>2015-09-27T20:08:12Z</time></trkpt>
<trkpt lat="25.098408" lon="102.078495">
<time>2015-09-27T20:08:13Z</time></trkpt>
<trkpt lat="25.098948" lon="102.078455">
<time>2015-09-27T20:08:14Z</time></trkpt>
<trkpt lat="25.099428" lon="102.078425">
<time>2015-09-27T20:08:15Z</time></trkpt>
<trkpt lat="25.100398" lon="102.078435">
<time>2015-09-27T20:08:16Z</time></trkpt>
<trkpt lat="25.101368" lon="102.078475">
<time>2015-09-27T20:08:17Z</time></trkpt>
<trkpt lat="25.101888" lon="102.078455">
<time>2015-09-27T20:08:18Z</time></trkpt>
<trkpt lat="25.102198" lon="102.078435">
<time>2015-09-27T20:08:19Z</time></trkpt>
<trkpt lat="25.102468" lon="102.078365">
<time>2015-09-27T20:08:20Z</time></trkpt>
<trkpt lat="25.102768" lon="102.078265">
<time>2015-09-27T20:08:21Z</time></trkpt>
<trkpt lat="25.103028" lon="102.078135">
<time>2015-09-27T20:08:22Z</time></trkpt>
<trkpt lat="25.103228" lon="102.078015">
<time>2015-09-27T20:08:23Z</time></trkpt>
<trkpt lat="25.103579" lon="102.077775">
<time>2015-09-27T20:08:24Z</time></trkpt>
<trkpt lat="25.104079" lon="102.077435">
<time>2015-09-27T20:08:25Z</time></trkpt>
<trkpt lat="25.105339" lon="102.076576">
<time>2015-09-27T20:08:26Z</time></trkpt>
<trkpt lat="25.10588" lon="102.076206">
<time>2015-09-27T20:08:27Z</time></trkpt>
<trkpt lat="25.10635" lon="102.075926">
<time>2015-09-27T20:08:28Z</time></trkpt>
<trkpt lat="25.10673" lon="102.075746">
<time>2015-09-27T20:08:29Z</time></trkpt>
<trkpt lat="25.10708" lon="102.075616">
<time>2015-09-27T20:08:30Z</time></trkpt>
<trkpt lat="25.10739" lon="102.075546">
<time>2015-09-27T20:08:31Z</time></trkpt>
<trkpt lat="25.1077" lon="102.075496">
<time>2015-09-27T20:08:32Z</time></trkpt>
<trkpt lat="25.10805" lon="102.075466">
<time>2015-09-27T20:08:33Z</time></trkpt>
<trkpt lat="25.10841" lon="102.075446">
<time>2015-09-27T20:08:34Z</time></trkpt>
<trkpt lat="25.10898" lon="102.075446">
<time>2015-09-27T20:08:35Z</time></trkpt>
<trkpt lat="25.11098" lon="102.075416">
<time>2015-09-27T20:08:36Z</time></trkpt>
<trkpt lat="25.11139" lon="102.075416">
<time>2015-09-27T20:08:37Z</time></trkpt>
<trkpt lat="25.11159" lon="102.075396">
<time>2015-09-27T20:08:38Z</time></trkpt>
<trkpt lat="25.1118" lon="102.075386">
<time>2015-09-27T20:08:39Z</time></trkpt>
<trkpt lat="25.11199" lon="102.075346">
<time>2015-09-27T20:08:40Z</time></trkpt>
<trkpt lat="25.11219" lon="102.075306">
<time>2015-09-27T20:08:41Z</time></trkpt>
<trkpt lat="25.11237" lon="102.075257">
<time>2015-09-27T20:08:42Z</time></trkpt>
<trkpt lat="25.11252" lon="102.075207">
<time>2015-09-27T20:08:43Z</time></trkpt>
<trkpt lat="25.11266" lon="102.075147">
<time>2015-09-27T20:08:44Z</time></trkpt>
<trkpt lat="25.11279" lon="102.075087">
<time>2015-09-27T20:08:45Z</time></trkpt>
<trkpt lat="25.11288" lon="102.075047">
<time>2015-09-27T20:08:46Z</time></trkpt>
<trkpt lat="25.11296" lon="102.075007">
<time>2015-09-27T20:08:47Z</time></trkpt>
<trkpt lat="25.11304" lon="102.074967">
<time>2015-09-27T20:08:48Z</time></trkpt>
<trkpt lat="25.1131" lon="102.074927">
<time>2015-09-27T20:08:49Z</time></trkpt>
<trkpt lat="25.11326" lon="102.074797">
<time>2015-09-27T20:08:50Z</time></trkpt>
<trkpt lat="25.11326" lon="102.074797">
<time>2015-09-27T20:08:51Z</time></trkpt>
<trkpt lat="25.11344" lon="102.074707">
<time>2015-09-27T20:08:52Z</time></trkpt>
<trkpt lat="25.113551" lon="102.074617">
<time>2015-09-27T20:08:53Z</time></trkpt>
<trkpt lat="25.113671" lon="102.074527">
<time>2015-09-27T20:08:54Z</time></trkpt>
<trkpt lat="25.113761" lon="102.074447">
<time>2015-09-27T20:08:55Z</time></trkpt>
<trkpt lat="25.113861" lon="102.074367">
<time>2015-09-27T20:08:56Z</time></trkpt>
<trkpt lat="25.113991" lon="102.074227">
<time>2015-09-27T20:08:57Z</time></trkpt>
<trkpt lat="25.114101" lon="102.074097">
<time>2015-09-27T20:08:58Z</time></trkpt>
<trkpt lat="25.114201" lon="102.073967">
<time>2015-09-27T20:08:59Z</time></trkpt>
<trkpt lat="25.114401" lon="102.073698">
<time>2015-09-27T20:09:00Z</time></trkpt>
<trkpt lat="25.114842" lon="102.073018">
<time>2015-09-27T20:09:01Z</time></trkpt>
<trkpt lat="25.115443" lon="102.071939">
<time>2015-09-27T20:09:02Z</time></trkpt>
<trkpt lat="25.116665" lon="102.069821">
<time>2015-09-27T20:09:03Z</time></trkpt>
<trkpt lat="25.116986" lon="102.069272">
<time>2015-09-27T20:09:04Z</time></trkpt>
<trkpt lat="25.117958" lon="102.067573">
<time>2015-09-27T20:09:05Z</time></trkpt>
<trkpt lat="25.118519" lon="102.066615">
<time>2015-09-27T20:09:06Z</time></trkpt>
<trkpt lat="25.11891" lon="102.066065">
<time>2015-09-27T20:09:07Z</time></trkpt>
<trkpt lat="25.119341" lon="102.065606">
<time>2015-09-27T20:09:08Z</time></trkpt>
<trkpt lat="25.119661" lon="102.065326">
<time>2015-09-27T20:09:09Z</time></trkpt>
<trkpt lat="25.119731" lon="102.065266">
<time>2015-09-27T20:09:10Z</time></trkpt>
<trkpt lat="25.120152" lon="102.064936">
<time>2015-09-27T20:09:11Z</time></trkpt>
<trkpt lat="25.120512" lon="102.064717">
<time>2015-09-27T20:09:12Z</time></trkpt>
<trkpt lat="25.121002" lon="102.064467">
<time>2015-09-27T20:09:13Z</time></trkpt>
<trkpt lat="25.121602" lon="102.064277">
<time>2015-09-27T20:09:14Z</time></trkpt>
<trkpt lat="25.121772" lon="102.064237">
<time>2015-09-27T20:09:15Z</time></trkpt>
<trkpt lat="25.122022" lon="102.064187">
<time>2015-09-27T20:09:16Z</time></trkpt>
<trkpt lat="25.122173" lon="102.064157">
<time>2015-09-27T20:09:17Z</time></trkpt>
<trkpt lat="25.122313" lon="102.064137">
<time>2015-09-27T20:09:18Z</time></trkpt>
<trkpt lat="25.122633" lon="102.064117">
<time>2015-09-27T20:09:19Z</time></trkpt>
<trkpt lat="25.123083" lon="102.064107">
<time>2015-09-27T20:09:20Z</time></trkpt>
<trkpt lat="25.124882" lon="102.064117">
<time>2015-09-27T20:09:21Z</time></trkpt>
<trkpt lat="25.125752" lon="102.064127">
<time>2015-09-27T20:09:22Z</time></trkpt>
<trkpt lat="25.129302" lon="102.064147">
<time>2015-09-27T20:09:23Z</time></trkpt>
<trkpt lat="25.131402" lon="102.064167">
<time>2015-09-27T20:09:24Z</time></trkpt>
<trkpt lat="25.131432" lon="102.064167">
<time>2015-09-27T20:09:25Z</time></trkpt>
<trkpt lat="25.135092" lon="102.064207">
<time>2015-09-27T20:09:26Z</time></trkpt>
<trkpt lat="25.137441" lon="102.064217">
<time>2015-09-27T20:09:27Z</time></trkpt>
<trkpt lat="25.137441" lon="102.064217">
<time>2015-09-27T20:09:28Z</time></trkpt>
<trkpt lat="25.137441" lon="102.064157">
<time>2015-09-27T20:09:29Z</time></trkpt>
<trkpt lat="25.137441" lon="102.064157">
<time>2015-09-27T20:09:30Z</time></trkpt>
<trkpt lat="25.137491" lon="102.064157">
<time>2015-09-27T20:09:31Z</time></trkpt>
<trkpt lat="25.139781" lon="102.064177">
<time>2015-09-27T20:09:32Z</time></trkpt>
<trkpt lat="25.140741" lon="102.064187">
<time>2015-09-27T20:09:33Z</time></trkpt>
<trkpt lat="25.142461" lon="102.064207">
<time>2015-09-27T20:09:34Z</time></trkpt>
<trkpt lat="25.142641" lon="102.064207">
<time>2015-09-27T20:09:35Z</time></trkpt>
<trkpt lat="25.144461" lon="102.064207">
<time>2015-09-27T20:09:36Z</time></trkpt>
<trkpt lat="25.145771" lon="102.064207">
<time>2015-09-27T20:09:37Z</time></trkpt>
<trkpt lat="25.146371" lon="102.064237">
<time>2015-09-27T20:09:38Z</time></trkpt>
<trkpt lat="25.146421" lon="102.064207">
<time>2015-09-27T20:09:39Z</time></trkpt>
<trkpt lat="25.146471" lon="102.064167">
<time>2015-09-27T20:09:40Z</time></trkpt>
<trkpt lat="25.146531" lon="102.064137">
<time>2015-09-27T20:09:41Z</time></trkpt>
<trkpt lat="25.146581" lon="102.064097">
<time>2015-09-27T20:09:42Z</time></trkpt>
<trkpt lat="25.146631" lon="102.064067">
<time>2015-09-27T20:09:43Z</time></trkpt>
<trkpt lat="25.146631" lon="102.064067">
<time>2015-09-27T20:09:44Z</time></trkpt>
<trkpt lat="25.146651" lon="102.064047">
<time>2015-09-27T20:09:45Z</time></trkpt>
<trkpt lat="25.146671" lon="102.064027">
<time>2015-09-27T20:09:46Z</time></trkpt>
<trkpt lat="25.146701" lon="102.064017">
<time>2015-09-27T20:09:47Z</time></trkpt>
<trkpt lat="25.146721" lon="102.063997">
<time>2015-09-27T20:09:48Z</time></trkpt>
<trkpt lat="25.146741" lon="102.063997">
<time>2015-09-27T20:09:49Z</time></trkpt>
<trkpt lat="25.146761" lon="102.063987">
<time>2015-09-27T20:09:50Z</time></trkpt>
<trkpt lat="25.146781" lon="102.063987">
<time>2015-09-27T20:09:51Z</time></trkpt>
<trkpt lat="25.146801" lon="102.063987">
<time>2015-09-27T20:09:52Z</time></trkpt>
<trkpt lat="25.146821" lon="102.063987">
<time>2015-09-27T20:09:53Z</time></trkpt>
<trkpt lat="25.146841" lon="102.063997">
<time>2015-09-27T20:09:54Z</time></trkpt>
<trkpt lat="25.146982" lon="102.063118">
<time>2015-09-27T20:09:55Z</time></trkpt>
<trkpt lat="25.147154" lon="102.06195">
<time>2015-09-27T20:09:56Z</time></trkpt>
<trkpt lat="25.147204" lon="102.06167">
<time>2015-09-27T20:09:57Z</time></trkpt>
<trkpt lat="25.147275" lon="102.06139">
<time>2015-09-27T20:09:58Z</time></trkpt>
<trkpt lat="25.147355" lon="102.061141">
<time>2015-09-27T20:09:59Z</time></trkpt>
<trkpt lat="25.147406" lon="102.061001">
<time>2015-09-27T20:10:00Z</time></trkpt>
<trkpt lat="25.147496" lon="102.060791">
<time>2015-09-27T20:10:01Z</time></trkpt>
<trkpt lat="25.147727" lon="102.060332">
<time>2015-09-27T20:10:02Z</time></trkpt>
<trkpt lat="25.147917" lon="102.059962">
<time>2015-09-27T20:10:03Z</time></trkpt>
<trkpt lat="25.148017" lon="102.059763">
<time>2015-09-27T20:10:04Z</time></trkpt>
<trkpt lat="25.148088" lon="102.059593">
<time>2015-09-27T20:10:05Z</time></trkpt>
<trkpt lat="25.148278" lon="102.059223">
<time>2015-09-27T20:10:06Z</time></trkpt>
<trkpt lat="25.148309" lon="102.058924">
<time>2015-09-27T20:10:07Z</time></trkpt>
<trkpt lat="25.148179" lon="102.058674">
<time>2015-09-27T20:10:08Z</time></trkpt>
<trkpt lat="25.1481" lon="102.058485">
<time>2015-09-27T20:10:09Z</time></trkpt>
<trkpt lat="25.14806" lon="102.058385">
<time>2015-09-27T20:10:10Z</time></trkpt>
<trkpt lat="25.14804" lon="102.058315">
<time>2015-09-27T20:10:11Z</time></trkpt>
<trkpt lat="25.14802" lon="102.058265">
<time>2015-09-27T20:10:12Z</time></trkpt>
<trkpt lat="25.148" lon="102.058155">
<time>2015-09-27T20:10:13Z</time></trkpt>
<trkpt lat="25.14797" lon="102.058015">
<time>2015-09-27T20:10:14Z</time></trkpt>
<trkpt lat="25.147911" lon="102.057626">
<time>2015-09-27T20:10:15Z</time></trkpt>
<trkpt lat="25.147911" lon="102.057626">
<time>2015-09-27T20:10:16Z</time></trkpt>
<trkpt lat="25.147923" lon="102.056378">
<time>2015-09-27T20:10:17Z</time></trkpt>
<trkpt lat="25.147914" lon="102.055909">
<time>2015-09-27T20:10:18Z</time></trkpt>
<trkpt lat="25.147895" lon="102.05535">
<time>2015-09-27T20:10:19Z</time></trkpt>
<trkpt lat="25.147886" lon="102.05507">
<time>2015-09-27T20:10:20Z</time></trkpt>
<trkpt lat="25.147866" lon="102.05487">
<time>2015-09-27T20:10:21Z</time></trkpt>
<trkpt lat="25.147816" lon="102.054661">
<time>2015-09-27T20:10:22Z</time></trkpt>
<trkpt lat="25.147777" lon="102.054471">
<time>2015-09-27T20:10:23Z</time></trkpt>
<trkpt lat="25.147707" lon="102.054231">
<time>2015-09-27T20:10:24Z</time></trkpt>
<trkpt lat="25.147588" lon="102.053762">
<time>2015-09-27T20:10:25Z</time></trkpt>
<trkpt lat="25.147558" lon="102.053612">
<time>2015-09-27T20:10:26Z</time></trkpt>
<trkpt lat="25.147529" lon="102.053453">
<time>2015-09-27T20:10:27Z</time></trkpt>
<trkpt lat="25.147509" lon="102.053273">
<time>2015-09-27T20:10:28Z</time></trkpt>
<trkpt lat="25.147499" lon="102.053053">
<time>2015-09-27T20:10:29Z</time></trkpt>
<trkpt lat="25.14749" lon="102.052744">
<time>2015-09-27T20:10:30Z</time></trkpt>
<trkpt lat="25.14749" lon="102.052634">
<time>2015-09-27T20:10:31Z</time></trkpt>
<trkpt lat="25.1475" lon="102.052564">
<time>2015-09-27T20:10:32Z</time></trkpt>
<trkpt lat="25.14751" lon="102.052474">
<time>2015-09-27T20:10:33Z</time></trkpt>
<trkpt lat="25.147521" lon="102.052395">
<time>2015-09-27T20:10:34Z</time></trkpt>
<trkpt lat="25.147541" lon="102.052245">
<time>2015-09-27T20:10:35Z</time></trkpt>
<trkpt lat="25.147561" lon="102.052095">
<time>2015-09-27T20:10:36Z</time></trkpt>
<trkpt lat="25.147632" lon="102.051806">
<time>2015-09-27T20:10:37Z</time></trkpt>
<trkpt lat="25.147722" lon="102.051386">
<time>2015-09-27T20:10:38Z</time></trkpt>
<trkpt lat="25.147733" lon="102.051327">
<time>2015-09-27T20:10:39Z</time></trkpt>
<trkpt lat="25.147763" lon="102.051197">
<time>2015-09-27T20:10:40Z</time></trkpt>
<trkpt lat="25.147783" lon="102.051007">
<time>2015-09-27T20:10:41Z</time></trkpt>
<trkpt lat="25.147783" lon="102.050887">
<time>2015-09-27T20:10:42Z</time></trkpt>
<trkpt lat="25.147784" lon="102.050788">
<time>2015-09-27T20:10:43Z</time></trkpt>
<trkpt lat="25.147774" lon="102.050678">
<time>2015-09-27T20:10:44Z</time></trkpt>
<trkpt lat="25.147754" lon="102.050578">
<time>2015-09-27T20:10:45Z</time></trkpt>
<trkpt lat="25.147724" lon="102.050438">
<time>2015-09-27T20:10:46Z</time></trkpt>
<trkpt lat="25.147685" lon="102.050288">
<time>2015-09-27T20:10:47Z</time></trkpt>
<trkpt lat="25.147625" lon="102.050129">
<time>2015-09-27T20:10:48Z</time></trkpt>
<trkpt lat="25.147555" lon="102.049979">
<time>2015-09-27T20:10:49Z</time></trkpt>
<trkpt lat="25.147495" lon="102.049889">
<time>2015-09-27T20:10:50Z</time></trkpt>
<trkpt lat="25.147426" lon="102.049789">
<time>2015-09-27T20:10:51Z</time></trkpt>
<trkpt lat="25.147336" lon="102.04969">
<time>2015-09-27T20:10:52Z</time></trkpt>
<trkpt lat="25.147266" lon="102.04962">
<time>2015-09-27T20:10:53Z</time></trkpt>
<trkpt lat="25.147196" lon="102.04956">
<time>2015-09-27T20:10:54Z</time></trkpt>
<trkpt lat="25.147096" lon="102.04947">
<time>2015-09-27T20:10:55Z</time></trkpt>
<trkpt lat="25.147016" lon="102.04941">
<time>2015-09-27T20:10:56Z</time></trkpt>
<trkpt lat="25.146857" lon="102.04933">
<time>2015-09-27T20:10:57Z</time></trkpt>
<trkpt lat="25.146307" lon="102.049091">
<time>2015-09-27T20:10:58Z</time></trkpt>
<trkpt lat="25.146177" lon="102.049031">
<time>2015-09-27T20:10:59Z</time></trkpt>
<trkpt lat="25.146087" lon="102.048981">
<time>2015-09-27T20:11:00Z</time></trkpt>
<trkpt lat="25.145968" lon="102.048911">
<time>2015-09-27T20:11:01Z</time></trkpt>
<trkpt lat="25.145868" lon="102.048831">
<time>2015-09-27T20:11:02Z</time></trkpt>
<trkpt lat="25.145788" lon="102.048761">
<time>2015-09-27T20:11:03Z</time></trkpt>
<trkpt lat="25.145708" lon="102.048682">
<time>2015-09-27T20:11:04Z</time></trkpt>
<trkpt lat="25.145608" lon="102.048572">
<time>2015-09-27T20:11:05Z</time></trkpt>
<trkpt lat="25.145558" lon="102.048492">
<time>2015-09-27T20:11:06Z</time></trkpt>
<trkpt lat="25.145489" lon="102.048372">
<time>2015-09-27T20:11:07Z</time></trkpt>
<trkpt lat="25.145429" lon="102.048232">
<time>2015-09-27T20:11:08Z</time></trkpt>
<trkpt lat="25.145379" lon="102.048063">
<time>2015-09-27T20:11:09Z</time></trkpt>
<trkpt lat="25.14529" lon="102.047773">
<time>2015-09-27T20:11:10Z</time></trkpt>
<trkpt lat="25.145121" lon="102.047115">
<time>2015-09-27T20:11:11Z</time></trkpt>
<trkpt lat="25.145052" lon="102.046915">
<time>2015-09-27T20:11:12Z</time></trkpt>
<trkpt lat="25.145002" lon="102.046795">
<time>2015-09-27T20:11:13Z</time></trkpt>
<trkpt lat="25.144903" lon="102.046546">
<time>2015-09-27T20:11:14Z</time></trkpt>
<trkpt lat="25.144793" lon="102.046276">
<time>2015-09-27T20:11:15Z</time></trkpt>
<trkpt lat="25.144704" lon="102.046017">
<time>2015-09-27T20:11:16Z</time></trkpt>
<trkpt lat="25.144634" lon="102.045757">
<time>2015-09-27T20:11:17Z</time></trkpt>
<trkpt lat="25.144545" lon="102.045368">
<time>2015-09-27T20:11:18Z</time></trkpt>
<trkpt lat="25.144516" lon="102.045179">
<time>2015-09-27T20:11:19Z</time></trkpt>
<trkpt lat="25.144496" lon="102.045069">
<time>2015-09-27T20:11:20Z</time></trkpt>
<trkpt lat="25.144486" lon="102.044959">
<time>2015-09-27T20:11:21Z</time></trkpt>
<trkpt lat="25.144476" lon="102.044839">
<time>2015-09-27T20:11:22Z</time></trkpt>
<trkpt lat="25.144467" lon="102.04457">
<time>2015-09-27T20:11:23Z</time></trkpt>
<trkpt lat="25.144449" lon="102.043602">
<time>2015-09-27T20:11:24Z</time></trkpt>
<trkpt lat="25.14445" lon="102.043143">
<time>2015-09-27T20:11:25Z</time></trkpt>
<trkpt lat="25.14445" lon="102.043033">
<time>2015-09-27T20:11:26Z</time></trkpt>
<trkpt lat="25.14446" lon="102.042953">
<time>2015-09-27T20:11:27Z</time></trkpt>
<trkpt lat="25.144471" lon="102.042884">
<time>2015-09-27T20:11:28Z</time></trkpt>
<trkpt lat="25.144491" lon="102.042764">
<time>2015-09-27T20:11:29Z</time></trkpt>
<trkpt lat="25.144521" lon="102.042624">
<time>2015-09-27T20:11:30Z</time></trkpt>
<trkpt lat="25.144582" lon="102.042415">
<time>2015-09-27T20:11:31Z</time></trkpt>
<trkpt lat="25.144753" lon="102.041896">
<time>2015-09-27T20:11:32Z</time></trkpt>
<trkpt lat="25.144803" lon="102.041676">
<time>2015-09-27T20:11:33Z</time></trkpt>
<trkpt lat="25.144834" lon="102.041517">
<time>2015-09-27T20:11:34Z</time></trkpt>
<trkpt lat="25.144834" lon="102.041437">
<time>2015-09-27T20:11:35Z</time></trkpt>
<trkpt lat="25.144834" lon="102.041287">
<time>2015-09-27T20:11:36Z</time></trkpt>
<trkpt lat="25.144846" lon="102.040708">
<time>2015-09-27T20:11:37Z</time></trkpt>
<trkpt lat="25.144866" lon="102.040509">
<time>2015-09-27T20:11:38Z</time></trkpt>
<trkpt lat="25.144886" lon="102.040319">
<time>2015-09-27T20:11:39Z</time></trkpt>
<trkpt lat="25.144927" lon="102.04012">
<time>2015-09-27T20:11:40Z</time></trkpt>
<trkpt lat="25.145089" lon="102.039381">
<time>2015-09-27T20:11:41Z</time></trkpt>
<trkpt lat="25.145119" lon="102.039202">
<time>2015-09-27T20:11:42Z</time></trkpt>
<trkpt lat="25.14515" lon="102.038962">
<time>2015-09-27T20:11:43Z</time></trkpt>
<trkpt lat="25.14516" lon="102.038902">
<time>2015-09-27T20:11:44Z</time></trkpt>
<trkpt lat="25.14516" lon="102.038813">
<time>2015-09-27T20:11:45Z</time></trkpt>
<trkpt lat="25.14517" lon="102.038643">
<time>2015-09-27T20:11:46Z</time></trkpt>
<trkpt lat="25.145171" lon="102.038324">
<time>2015-09-27T20:11:47Z</time></trkpt>
<trkpt lat="25.145182" lon="102.037994">
<time>2015-09-27T20:11:48Z</time></trkpt>
<trkpt lat="25.145182" lon="102.037835">
<time>2015-09-27T20:11:49Z</time></trkpt>
<trkpt lat="25.145193" lon="102.037725">
<time>2015-09-27T20:11:50Z</time></trkpt>
<trkpt lat="25.145213" lon="102.037585">
<time>2015-09-27T20:11:51Z</time></trkpt>
<trkpt lat="25.145243" lon="102.037446">
<time>2015-09-27T20:11:52Z</time></trkpt>
<trkpt lat="25.145264" lon="102.037356">
<time>2015-09-27T20:11:53Z</time></trkpt>
<trkpt lat="25.145284" lon="102.037276">
<time>2015-09-27T20:11:54Z</time></trkpt>
<trkpt lat="25.145324" lon="102.037136">
<time>2015-09-27T20:11:55Z</time></trkpt>
<trkpt lat="25.145364" lon="102.036977">
<time>2015-09-27T20:11:56Z</time></trkpt>
<trkpt lat="25.145516" lon="102.036478">
<time>2015-09-27T20:11:57Z</time></trkpt>
<trkpt lat="25.145586" lon="102.036239">
<time>2015-09-27T20:11:58Z</time></trkpt>
<trkpt lat="25.145637" lon="102.035989">
<time>2015-09-27T20:11:59Z</time></trkpt>
<trkpt lat="25.145657" lon="102.03584">
<time>2015-09-27T20:12:00Z</time></trkpt>
<trkpt lat="25.145678" lon="102.0357">
<time>2015-09-27T20:12:01Z</time></trkpt>
<trkpt lat="25.145688" lon="102.03555">
<time>2015-09-27T20:12:02Z</time></trkpt>
<trkpt lat="25.145698" lon="102.035361">
<time>2015-09-27T20:12:03Z</time></trkpt>
<trkpt lat="25.145699" lon="102.035181">
<time>2015-09-27T20:12:04Z</time></trkpt>
<trkpt lat="25.145699" lon="102.034982">
<time>2015-09-27T20:12:05Z</time></trkpt>
<trkpt lat="25.14568" lon="102.034762">
<time>2015-09-27T20:12:06Z</time></trkpt>
<trkpt lat="25.14567" lon="102.034563">
<time>2015-09-27T20:12:07Z</time></trkpt>
<trkpt lat="25.145661" lon="102.034373">
<time>2015-09-27T20:12:08Z</time></trkpt>
<trkpt lat="25.145651" lon="102.034214">
<time>2015-09-27T20:12:09Z</time></trkpt>
<trkpt lat="25.145652" lon="102.034114">
<time>2015-09-27T20:12:10Z</time></trkpt>
<trkpt lat="25.145662" lon="102.033914">
<time>2015-09-27T20:12:11Z</time></trkpt>
<trkpt lat="25.145672" lon="102.033785">
<time>2015-09-27T20:12:12Z</time></trkpt>
<trkpt lat="25.145693" lon="102.033695">
<time>2015-09-27T20:12:13Z</time></trkpt>
<trkpt lat="25.145723" lon="102.033595">
<time>2015-09-27T20:12:14Z</time></trkpt>
<trkpt lat="25.145763" lon="102.033535">
<time>2015-09-27T20:12:15Z</time></trkpt>
<trkpt lat="25.145783" lon="102.033465">
<time>2015-09-27T20:12:16Z</time></trkpt>
<trkpt lat="25.145853" lon="102.033376">
<time>2015-09-27T20:12:17Z</time></trkpt>
<trkpt lat="25.145904" lon="102.033306">
<time>2015-09-27T20:12:18Z</time></trkpt>
<trkpt lat="25.145994" lon="102.033226">
<time>2015-09-27T20:12:19Z</time></trkpt>
<trkpt lat="25.146114" lon="102.033116">
<time>2015-09-27T20:12:20Z</time></trkpt>
<trkpt lat="25.146294" lon="102.032977">
<time>2015-09-27T20:12:21Z</time></trkpt>
<trkpt lat="25.146765" lon="102.032588">
<time>2015-09-27T20:12:22Z</time></trkpt>
<trkpt lat="25.146916" lon="102.032478">
<time>2015-09-27T20:12:23Z</time></trkpt>
<trkpt lat="25.147006" lon="102.032428">
<time>2015-09-27T20:12:24Z</time></trkpt>
<trkpt lat="25.147076" lon="102.032398">
<time>2015-09-27T20:12:25Z</time></trkpt>
<trkpt lat="25.147176" lon="102.032358">
<time>2015-09-27T20:12:26Z</time></trkpt>
<trkpt lat="25.147326" lon="102.032318">
<time>2015-09-27T20:12:27Z</time></trkpt>
<trkpt lat="25.147456" lon="102.032298">
<time>2015-09-27T20:12:28Z</time></trkpt>
<trkpt lat="25.147656" lon="102.032278">
<time>2015-09-27T20:12:29Z</time></trkpt>
<trkpt lat="25.147946" lon="102.032248">
<time>2015-09-27T20:12:30Z</time></trkpt>
<trkpt lat="25.148206" lon="102.032198">
<time>2015-09-27T20:12:31Z</time></trkpt>
<trkpt lat="25.148376" lon="102.032159">
<time>2015-09-27T20:12:32Z</time></trkpt>
<trkpt lat="25.148466" lon="102.032139">
<time>2015-09-27T20:12:33Z</time></trkpt>
<trkpt lat="25.148537" lon="102.032109">
<time>2015-09-27T20:12:34Z</time></trkpt>
<trkpt lat="25.148687" lon="102.032039">
<time>2015-09-27T20:12:35Z</time></trkpt>
<trkpt lat="25.148737" lon="102.031999">
<time>2015-09-27T20:12:36Z</time></trkpt>
<trkpt lat="25.148817" lon="102.031949">
<time>2015-09-27T20:12:37Z</time></trkpt>
<trkpt lat="25.148877" lon="102.031889">
<time>2015-09-27T20:12:38Z</time></trkpt>
<trkpt lat="25.148967" lon="102.031799">
<time>2015-09-27T20:12:39Z</time></trkpt>
<trkpt lat="25.149017" lon="102.03174">
<time>2015-09-27T20:12:40Z</time></trkpt>
<trkpt lat="25.149088" lon="102.03163">
<time>2015-09-27T20:12:41Z</time></trkpt>
<trkpt lat="25.149188" lon="102.03146">
<time>2015-09-27T20:12:42Z</time></trkpt>
<trkpt lat="25.149349" lon="102.031151">
<time>2015-09-27T20:12:43Z</time></trkpt>
<trkpt lat="25.149761" lon="102.030423">
<time>2015-09-27T20:12:44Z</time></trkpt>
<trkpt lat="25.149831" lon="102.030293">
<time>2015-09-27T20:12:45Z</time></trkpt>
<trkpt lat="25.149911" lon="102.030193">
<time>2015-09-27T20:12:46Z</time></trkpt>
<trkpt lat="25.150012" lon="102.030084">
<time>2015-09-27T20:12:47Z</time></trkpt>
<trkpt lat="25.150102" lon="102.030014">
<time>2015-09-27T20:12:48Z</time></trkpt>
<trkpt lat="25.150192" lon="102.029954">
<time>2015-09-27T20:12:49Z</time></trkpt>
<trkpt lat="25.150272" lon="102.029914">
<time>2015-09-27T20:12:50Z</time></trkpt>
<trkpt lat="25.150382" lon="102.029864">
<time>2015-09-27T20:12:51Z</time></trkpt>
<trkpt lat="25.150462" lon="102.029854">
<time>2015-09-27T20:12:52Z</time></trkpt>
<trkpt lat="25.150552" lon="102.029834">
<time>2015-09-27T20:12:53Z</time></trkpt>
<trkpt lat="25.150642" lon="102.029834">
<time>2015-09-27T20:12:54Z</time></trkpt>
<trkpt lat="25.150732" lon="102.029834">
<time>2015-09-27T20:12:55Z</time></trkpt>
<trkpt lat="25.150842" lon="102.029844">
<time>2015-09-27T20:12:56Z</time></trkpt>
<trkpt lat="25.150922" lon="102.029864">
<time>2015-09-27T20:12:57Z</time></trkpt>
<trkpt lat="25.151122" lon="102.029914">
<time>2015-09-27T20:12:58Z</time></trkpt>
<trkpt lat="25.151802" lon="102.030094">
<time>2015-09-27T20:12:59Z</time></trkpt>
<trkpt lat="25.151921" lon="102.030124">
<time>2015-09-27T20:13:00Z</time></trkpt>
<trkpt lat="25.152101" lon="102.030154">
<time>2015-09-27T20:13:01Z</time></trkpt>
<trkpt lat="25.152211" lon="102.030173">
<time>2015-09-27T20:13:02Z</time></trkpt>
<trkpt lat="25.152291" lon="102.030173">
<time>2015-09-27T20:13:03Z</time></trkpt>
<trkpt lat="25.152361" lon="102.030173">
<time>2015-09-27T20:13:04Z</time></trkpt>
<trkpt lat="25.152431" lon="102.030163">
<time>2015-09-27T20:13:05Z</time></trkpt>
<trkpt lat="25.152551" lon="102.030144">
<time>2015-09-27T20:13:06Z</time></trkpt>
<trkpt lat="25.152621" lon="102.030114">
<time>2015-09-27T20:13:07Z</time></trkpt>
<trkpt lat="25.152671" lon="102.030104">
<time>2015-09-27T20:13:08Z</time></trkpt>
<trkpt lat="25.152762" lon="102.030064">
<time>2015-09-27T20:13:09Z</time></trkpt>
<trkpt lat="25.152842" lon="102.030024">
<time>2015-09-27T20:13:10Z</time></trkpt>
<trkpt lat="25.152912" lon="102.029974">
<time>2015-09-27T20:13:11Z</time></trkpt>
<trkpt lat="25.153012" lon="102.029904">
<time>2015-09-27T20:13:12Z</time></trkpt>
<trkpt lat="25.153072" lon="102.029844">
<time>2015-09-27T20:13:13Z</time></trkpt>
<trkpt lat="25.153172" lon="102.029745">
<time>2015-09-27T20:13:14Z</time></trkpt>
<trkpt lat="25.153313" lon="102.029575">
<time>2015-09-27T20:13:15Z</time></trkpt>
<trkpt lat="25.153383" lon="102.029495">
<time>2015-09-27T20:13:16Z</time></trkpt>
<trkpt lat="25.153443" lon="102.029395">
<time>2015-09-27T20:13:17Z</time></trkpt>
<trkpt lat="25.153494" lon="102.029296">
<time>2015-09-27T20:13:18Z</time></trkpt>
<trkpt lat="25.153534" lon="102.029226">
<time>2015-09-27T20:13:19Z</time></trkpt>
<trkpt lat="25.153574" lon="102.029136">
<time>2015-09-27T20:13:20Z</time></trkpt>
<trkpt lat="25.153614" lon="102.029016">
<time>2015-09-27T20:13:21Z</time></trkpt>
<trkpt lat="25.153665" lon="102.028847">
<time>2015-09-27T20:13:22Z</time></trkpt>
<trkpt lat="25.153695" lon="102.028737">
<time>2015-09-27T20:13:23Z</time></trkpt>
<trkpt lat="25.153756" lon="102.028448">
<time>2015-09-27T20:13:24Z</time></trkpt>
<trkpt lat="25.153796" lon="102.028318">
<time>2015-09-27T20:13:25Z</time></trkpt>
<trkpt lat="25.153836" lon="102.028199">
<time>2015-09-27T20:13:26Z</time></trkpt>
<trkpt lat="25.153877" lon="102.028089">
<time>2015-09-27T20:13:27Z</time></trkpt>
<trkpt lat="25.153927" lon="102.028009">
<time>2015-09-27T20:13:28Z</time></trkpt>
<trkpt lat="25.153987" lon="102.027919">
<time>2015-09-27T20:13:29Z</time></trkpt>
<trkpt lat="25.154068" lon="102.02781">
<time>2015-09-27T20:13:30Z</time></trkpt>
<trkpt lat="25.154208" lon="102.02766">
<time>2015-09-27T20:13:31Z</time></trkpt>
<trkpt lat="25.154358" lon="102.02752">
<time>2015-09-27T20:13:32Z</time></trkpt>
<trkpt lat="25.154509" lon="102.027381">
<time>2015-09-27T20:13:33Z</time></trkpt>
<trkpt lat="25.154739" lon="102.027241">
<time>2015-09-27T20:13:34Z</time></trkpt>
<trkpt lat="25.155069" lon="102.027061">
<time>2015-09-27T20:13:35Z</time></trkpt>
<trkpt lat="25.15524" lon="102.026972">
<time>2015-09-27T20:13:36Z</time></trkpt>
<trkpt lat="25.15552" lon="102.026792">
<time>2015-09-27T20:13:37Z</time></trkpt>
<trkpt lat="25.155701" lon="102.026643">
<time>2015-09-27T20:13:38Z</time></trkpt>
<trkpt lat="25.155861" lon="102.026483">
<time>2015-09-27T20:13:39Z</time></trkpt>
<trkpt lat="25.156022" lon="102.026284">
<time>2015-09-27T20:13:40Z</time></trkpt>
<trkpt lat="25.156122" lon="102.026144">
<time>2015-09-27T20:13:41Z</time></trkpt>
<trkpt lat="25.156273" lon="102.025905">
<time>2015-09-27T20:13:42Z</time></trkpt>
<trkpt lat="25.156464" lon="102.025555">
<time>2015-09-27T20:13:43Z</time></trkpt>
<trkpt lat="25.156584" lon="102.025296">
<time>2015-09-27T20:13:44Z</time></trkpt>
<trkpt lat="25.156755" lon="102.024877">
<time>2015-09-27T20:13:45Z</time></trkpt>
<trkpt lat="25.156917" lon="102.024448">
<time>2015-09-27T20:13:46Z</time></trkpt>
<trkpt lat="25.157017" lon="102.024119">
<time>2015-09-27T20:13:47Z</time></trkpt>
<trkpt lat="25.15727" lon="102.023292">
<time>2015-09-27T20:13:48Z</time></trkpt>
<trkpt lat="25.157472" lon="102.022574">
<time>2015-09-27T20:13:49Z</time></trkpt>
<trkpt lat="25.157583" lon="102.022155">
<time>2015-09-27T20:13:50Z</time></trkpt>
<trkpt lat="25.157684" lon="102.021915">
<time>2015-09-27T20:13:51Z</time></trkpt>
<trkpt lat="25.157724" lon="102.021826">
<time>2015-09-27T20:13:52Z</time></trkpt>
<trkpt lat="25.157774" lon="102.021736">
<time>2015-09-27T20:13:53Z</time></trkpt>
<trkpt lat="25.157824" lon="102.021676">
<time>2015-09-27T20:13:54Z</time></trkpt>
<trkpt lat="25.157864" lon="102.021626">
<time>2015-09-27T20:13:55Z</time></trkpt>
<trkpt lat="25.157924" lon="102.021576">
<time>2015-09-27T20:13:56Z</time></trkpt>
<trkpt lat="25.157995" lon="102.021526">
<time>2015-09-27T20:13:57Z</time></trkpt>
<trkpt lat="25.158075" lon="102.021497">
<time>2015-09-27T20:13:58Z</time></trkpt>
<trkpt lat="25.158145" lon="102.021467">
<time>2015-09-27T20:13:59Z</time></trkpt>
<trkpt lat="25.158235" lon="102.021437">
<time>2015-09-27T20:14:00Z</time></trkpt>
<trkpt lat="25.158355" lon="102.021417">
<time>2015-09-27T20:14:01Z</time></trkpt>
<trkpt lat="25.158455" lon="102.021407">
<time>2015-09-27T20:14:02Z</time></trkpt>
<trkpt lat="25.158585" lon="102.021397">
<time>2015-09-27T20:14:03Z</time></trkpt>
<trkpt lat="25.158855" lon="102.021417">
<time>2015-09-27T20:14:04Z</time></trkpt>
<trkpt lat="25.159315" lon="102.021457">
<time>2015-09-27T20:14:05Z</time></trkpt>
<trkpt lat="25.160035" lon="102.021526">
<time>2015-09-27T20:14:06Z</time></trkpt>
<trkpt lat="25.160234" lon="102.021546">
<time>2015-09-27T20:14:07Z</time></trkpt>
<trkpt lat="25.160354" lon="102.021546">
<time>2015-09-27T20:14:08Z</time></trkpt>
<trkpt lat="25.160444" lon="102.021556">
<time>2015-09-27T20:14:09Z</time></trkpt>
<trkpt lat="25.160544" lon="102.021546">
<time>2015-09-27T20:14:10Z</time></trkpt>
<trkpt lat="25.160634" lon="102.021526">
<time>2015-09-27T20:14:11Z</time></trkpt>
<trkpt lat="25.160745" lon="102.021506">
<time>2015-09-27T20:14:12Z</time></trkpt>
<trkpt lat="25.160855" lon="102.021467">
<time>2015-09-27T20:14:13Z</time></trkpt>
<trkpt lat="25.161025" lon="102.021407">
<time>2015-09-27T20:14:14Z</time></trkpt>
<trkpt lat="25.161205" lon="102.021317">
<time>2015-09-27T20:14:15Z</time></trkpt>
<trkpt lat="25.161616" lon="102.021107">
<time>2015-09-27T20:14:16Z</time></trkpt>
<trkpt lat="25.161876" lon="102.020968">
<time>2015-09-27T20:14:17Z</time></trkpt>
<trkpt lat="25.162056" lon="102.020858">
<time>2015-09-27T20:14:18Z</time></trkpt>
<trkpt lat="25.162467" lon="102.020599">
<time>2015-09-27T20:14:19Z</time></trkpt>
<trkpt lat="25.162707" lon="102.020439">
<time>2015-09-27T20:14:20Z</time></trkpt>
<trkpt lat="25.162828" lon="102.02035">
<time>2015-09-27T20:14:21Z</time></trkpt>
<trkpt lat="25.162928" lon="102.02028">
<time>2015-09-27T20:14:22Z</time></trkpt>
<trkpt lat="25.162998" lon="102.02022">
<time>2015-09-27T20:14:23Z</time></trkpt>
<trkpt lat="25.163078" lon="102.02014">
<time>2015-09-27T20:14:24Z</time></trkpt>
<trkpt lat="25.163159" lon="102.02005">
<time>2015-09-27T20:14:25Z</time></trkpt>
<trkpt lat="25.163219" lon="102.019981">
<time>2015-09-27T20:14:26Z</time></trkpt>
<trkpt lat="25.163349" lon="102.019801">
<time>2015-09-27T20:14:27Z</time></trkpt>
<trkpt lat="25.16353" lon="102.019582">
<time>2015-09-27T20:14:28Z</time></trkpt>
<trkpt lat="25.16367" lon="102.019392">
<time>2015-09-27T20:14:29Z</time></trkpt>
<trkpt lat="25.163761" lon="102.019302">
<time>2015-09-27T20:14:30Z</time></trkpt>
<trkpt lat="25.163861" lon="102.019193">
<time>2015-09-27T20:14:31Z</time></trkpt>
<trkpt lat="25.163931" lon="102.019133">
<time>2015-09-27T20:14:32Z</time></trkpt>
<trkpt lat="25.163981" lon="102.019093">
<time>2015-09-27T20:14:33Z</time></trkpt>
<trkpt lat="25.164081" lon="102.019003">
<time>2015-09-27T20:14:34Z</time></trkpt>
<trkpt lat="25.164573" lon="102.018624">
<time>2015-09-27T20:14:35Z</time></trkpt>
<trkpt lat="25.164643" lon="102.018575">
<time>2015-09-27T20:14:36Z</time></trkpt>
<trkpt lat="25.165033" lon="102.018295">
<time>2015-09-27T20:14:37Z</time></trkpt>
<trkpt lat="25.165194" lon="102.018166">
<time>2015-09-27T20:14:38Z</time></trkpt>
<trkpt lat="25.165354" lon="102.018006">
<time>2015-09-27T20:14:39Z</time></trkpt>
<trkpt lat="25.165455" lon="102.017896">
<time>2015-09-27T20:14:40Z</time></trkpt>
<trkpt lat="25.165665" lon="102.017647">
<time>2015-09-27T20:14:41Z</time></trkpt>
<trkpt lat="25.165746" lon="102.017537">
<time>2015-09-27T20:14:42Z</time></trkpt>
<trkpt lat="25.165826" lon="102.017428">
<time>2015-09-27T20:14:43Z</time></trkpt>
<trkpt lat="25.165926" lon="102.017308">
<time>2015-09-27T20:14:44Z</time></trkpt>
<trkpt lat="25.165997" lon="102.017198">
<time>2015-09-27T20:14:45Z</time></trkpt>
<trkpt lat="25.166097" lon="102.017049">
<time>2015-09-27T20:14:46Z</time></trkpt>
<trkpt lat="25.166208" lon="102.016849">
<time>2015-09-27T20:14:47Z</time></trkpt>
<trkpt lat="25.166399" lon="102.01647">
<time>2015-09-27T20:14:48Z</time></trkpt>
<trkpt lat="25.16653" lon="102.016181">
<time>2015-09-27T20:14:49Z</time></trkpt>
<trkpt lat="25.16668" lon="102.015862">
<time>2015-09-27T20:14:50Z</time></trkpt>
<trkpt lat="25.166842" lon="102.015453">
<time>2015-09-27T20:14:51Z</time></trkpt>
<trkpt lat="25.167023" lon="102.015064">
<time>2015-09-27T20:14:52Z</time></trkpt>
<trkpt lat="25.167184" lon="102.014805">
<time>2015-09-27T20:14:53Z</time></trkpt>
<trkpt lat="25.167294" lon="102.014676">
<time>2015-09-27T20:14:54Z</time></trkpt>
<trkpt lat="25.167394" lon="102.014556">
<time>2015-09-27T20:14:55Z</time></trkpt>
<trkpt lat="25.167635" lon="102.014297">
<time>2015-09-27T20:14:56Z</time></trkpt>
<trkpt lat="25.167715" lon="102.014227">
<time>2015-09-27T20:14:57Z</time></trkpt>
<trkpt lat="25.167735" lon="102.014207">
<time>2015-09-27T20:14:58Z</time></trkpt>
<trkpt lat="25.167866" lon="102.014107">
<time>2015-09-27T20:14:59Z</time></trkpt>
<trkpt lat="25.168066" lon="102.013988">
<time>2015-09-27T20:15:00Z</time></trkpt>
<trkpt lat="25.168066" lon="102.013988">
<time>2015-09-27T20:15:01Z</time></trkpt>
<trkpt lat="25.168026" lon="102.013868">
<time>2015-09-27T20:15:02Z</time></trkpt>
<trkpt lat="25.167867" lon="102.013449">
<time>2015-09-27T20:15:03Z</time></trkpt>
<trkpt lat="25.167828" lon="102.01324">
<time>2015-09-27T20:15:04Z</time></trkpt>
<trkpt lat="25.167819" lon="102.01303">
<time>2015-09-27T20:15:05Z</time></trkpt>
<trkpt lat="25.167819" lon="102.012791">
<time>2015-09-27T20:15:06Z</time></trkpt>
<trkpt lat="25.16785" lon="102.012602">
<time>2015-09-27T20:15:07Z</time></trkpt>
<trkpt lat="25.167962" lon="102.012063">
<time>2015-09-27T20:15:08Z</time></trkpt>
<trkpt lat="25.167962" lon="102.012063">
<time>2015-09-27T20:15:09Z</time></trkpt>
<trkpt lat="25.168092" lon="102.011973">
<time>2015-09-27T20:15:10Z</time></trkpt>
<trkpt lat="25.168282" lon="102.011794">
<time>2015-09-27T20:15:11Z</time></trkpt>
<trkpt lat="25.168383" lon="102.011654">
<time>2015-09-27T20:15:12Z</time></trkpt>
<trkpt lat="25.168513" lon="102.011425">
<time>2015-09-27T20:15:13Z</time></trkpt>
<trkpt lat="25.168654" lon="102.011116">
<time>2015-09-27T20:15:14Z</time></trkpt>
<trkpt lat="25.168685" lon="102.010986">
<time>2015-09-27T20:15:15Z</time></trkpt>
<trkpt lat="25.168685" lon="102.010847">
<time>2015-09-27T20:15:16Z</time></trkpt>
<trkpt lat="25.168666" lon="102.010727">
<time>2015-09-27T20:15:17Z</time></trkpt>
<trkpt lat="25.168606" lon="102.010617">
<time>2015-09-27T20:15:18Z</time></trkpt>
<trkpt lat="25.168506" lon="102.010448">
<time>2015-09-27T20:15:19Z</time></trkpt>
<trkpt lat="25.168157" lon="102.010099">
<time>2015-09-27T20:15:20Z</time></trkpt>
<trkpt lat="25.16744" lon="102.009371">
<time>2015-09-27T20:15:21Z</time></trkpt>
<trkpt lat="25.166782" lon="102.008743">
<time>2015-09-27T20:15:22Z</time></trkpt>
<trkpt lat="25.166682" lon="102.008623">
<time>2015-09-27T20:15:23Z</time></trkpt>
<trkpt lat="25.166582" lon="102.008504">
<time>2015-09-27T20:15:24Z</time></trkpt>
<trkpt lat="25.166423" lon="102.008264">
<time>2015-09-27T20:15:25Z</time></trkpt>
<trkpt lat="25.166244" lon="102.007935">
<time>2015-09-27T20:15:26Z</time></trkpt>
<trkpt lat="25.166075" lon="102.007596">
<time>2015-09-27T20:15:27Z</time></trkpt>
<trkpt lat="25.165906" lon="102.007178">
<time>2015-09-27T20:15:28Z</time></trkpt>
<trkpt lat="25.165718" lon="102.006619">
<time>2015-09-27T20:15:29Z</time></trkpt>
<trkpt lat="25.16558" lon="102.006091">
<time>2015-09-27T20:15:30Z</time></trkpt>
<trkpt lat="25.165461" lon="102.005602">
<time>2015-09-27T20:15:31Z</time></trkpt>
<trkpt lat="25.165392" lon="102.005124">
<time>2015-09-27T20:15:32Z</time></trkpt>
<trkpt lat="25.165324" lon="102.004655">
<time>2015-09-27T20:15:33Z</time></trkpt>
<trkpt lat="25.165225" lon="102.004187">
<time>2015-09-27T20:15:34Z</time></trkpt>
<trkpt lat="25.165116" lon="102.003838">
<time>2015-09-27T20:15:35Z</time></trkpt>
<trkpt lat="25.165027" lon="102.003559">
<time>2015-09-27T20:15:36Z</time></trkpt>
<trkpt lat="25.164968" lon="102.003329">
<time>2015-09-27T20:15:37Z</time></trkpt>
<trkpt lat="25.164919" lon="102.00312">
<time>2015-09-27T20:15:38Z</time></trkpt>
<trkpt lat="25.164821" lon="102.002442">
<time>2015-09-27T20:15:39Z</time></trkpt>
<trkpt lat="25.164751" lon="102.002193">
<time>2015-09-27T20:15:40Z</time></trkpt>
<trkpt lat="25.164652" lon="102.001943">
<time>2015-09-27T20:15:41Z</time></trkpt>
<trkpt lat="25.164543" lon="102.001734">
<time>2015-09-27T20:15:42Z</time></trkpt>
<trkpt lat="25.164224" lon="102.001246">
<time>2015-09-27T20:15:43Z</time></trkpt>
<trkpt lat="25.163916" lon="102.000857">
<time>2015-09-27T20:15:44Z</time></trkpt>
<trkpt lat="25.163686" lon="102.000647">
<time>2015-09-27T20:15:45Z</time></trkpt>
<trkpt lat="25.163447" lon="102.000408">
<time>2015-09-27T20:15:46Z</time></trkpt>
<trkpt lat="25.163208" lon="102.000199">
<time>2015-09-27T20:15:47Z</time></trkpt>
<trkpt lat="25.163118" lon="102.000109">
<time>2015-09-27T20:15:48Z</time></trkpt>
<trkpt lat="25.163048" lon="102.000009">
<time>2015-09-27T20:15:49Z</time></trkpt>
<trkpt lat="25.163008" lon="101.999959">
<time>2015-09-27T20:15:50Z</time></trkpt>
<trkpt lat="25.162958" lon="101.9999">
<time>2015-09-27T20:15:51Z</time></trkpt>
<trkpt lat="25.162919" lon="101.9998">
<time>2015-09-27T20:15:52Z</time></trkpt>
<trkpt lat="25.162869" lon="101.99967">
<time>2015-09-27T20:15:53Z</time></trkpt>
<trkpt lat="25.16276" lon="101.999341">
<time>2015-09-27T20:15:54Z</time></trkpt>
<trkpt lat="25.162631" lon="101.998982">
<time>2015-09-27T20:15:55Z</time></trkpt>
<trkpt lat="25.162492" lon="101.998633">
<time>2015-09-27T20:15:56Z</time></trkpt>
<trkpt lat="25.162403" lon="101.998374">
<time>2015-09-27T20:15:57Z</time></trkpt>
<trkpt lat="25.162383" lon="101.998275">
<time>2015-09-27T20:15:58Z</time></trkpt>
<trkpt lat="25.162364" lon="101.998185">
<time>2015-09-27T20:15:59Z</time></trkpt>
<trkpt lat="25.162354" lon="101.998095">
<time>2015-09-27T20:16:00Z</time></trkpt>
<trkpt lat="25.162344" lon="101.998005">
<time>2015-09-27T20:16:01Z</time></trkpt>
<trkpt lat="25.162355" lon="101.997906">
<time>2015-09-27T20:16:02Z</time></trkpt>
<trkpt lat="25.162355" lon="101.997776">
<time>2015-09-27T20:16:03Z</time></trkpt>
<trkpt lat="25.162366" lon="101.997477">
<time>2015-09-27T20:16:04Z</time></trkpt>
<trkpt lat="25.162366" lon="101.997307">
<time>2015-09-27T20:16:05Z</time></trkpt>
<trkpt lat="25.162347" lon="101.997018">
<time>2015-09-27T20:16:06Z</time></trkpt>
<trkpt lat="25.162308" lon="101.996759">
<time>2015-09-27T20:16:07Z</time></trkpt>
<trkpt lat="25.162279" lon="101.99651">
<time>2015-09-27T20:16:08Z</time></trkpt>
<trkpt lat="25.162259" lon="101.99641">
<time>2015-09-27T20:16:09Z</time></trkpt>
<trkpt lat="25.162219" lon="101.996301">
<time>2015-09-27T20:16:10Z</time></trkpt>
<trkpt lat="25.16218" lon="101.996201">
<time>2015-09-27T20:16:11Z</time></trkpt>
<trkpt lat="25.16212" lon="101.996111">
<time>2015-09-27T20:16:12Z</time></trkpt>
<trkpt lat="25.16205" lon="101.996041">
<time>2015-09-27T20:16:13Z</time></trkpt>
<trkpt lat="25.16198" lon="101.995972">
<time>2015-09-27T20:16:14Z</time></trkpt>
<trkpt lat="25.161901" lon="101.995902">
<time>2015-09-27T20:16:15Z</time></trkpt>
<trkpt lat="25.161811" lon="101.995852">
<time>2015-09-27T20:16:16Z</time></trkpt>
<trkpt lat="25.161711" lon="101.995792">
<time>2015-09-27T20:16:17Z</time></trkpt>
<trkpt lat="25.161621" lon="101.995732">
<time>2015-09-27T20:16:18Z</time></trkpt>
<trkpt lat="25.161541" lon="101.995652">
<time>2015-09-27T20:16:19Z</time></trkpt>
<trkpt lat="25.161282" lon="101.995363">
<time>2015-09-27T20:16:20Z</time></trkpt>
<trkpt lat="25.160963" lon="101.994994">
<time>2015-09-27T20:16:21Z</time></trkpt>
<trkpt lat="25.160674" lon="101.994695">
<time>2015-09-27T20:16:22Z</time></trkpt>
<trkpt lat="25.160495" lon="101.994496">
<time>2015-09-27T20:16:23Z</time></trkpt>
<trkpt lat="25.160386" lon="101.994327">
<time>2015-09-27T20:16:24Z</time></trkpt>
<trkpt lat="25.160286" lon="101.994167">
<time>2015-09-27T20:16:25Z</time></trkpt>
<trkpt lat="25.160227" lon="101.994007">
<time>2015-09-27T20:16:26Z</time></trkpt>
<trkpt lat="25.160167" lon="101.993838">
<time>2015-09-27T20:16:27Z</time></trkpt>
<trkpt lat="25.160118" lon="101.993639">
<time>2015-09-27T20:16:28Z</time></trkpt>
<trkpt lat="25.160098" lon="101.993509">
<time>2015-09-27T20:16:29Z</time></trkpt>
<trkpt lat="25.160078" lon="101.993419">
<time>2015-09-27T20:16:30Z</time></trkpt>
<trkpt lat="25.160069" lon="101.99327">
<time>2015-09-27T20:16:31Z</time></trkpt>
<trkpt lat="25.16008" lon="101.992881">
<time>2015-09-27T20:16:32Z</time></trkpt>
<trkpt lat="25.160091" lon="101.992691">
<time>2015-09-27T20:16:33Z</time></trkpt>
<trkpt lat="25.160111" lon="101.992602">
<time>2015-09-27T20:16:34Z</time></trkpt>
<trkpt lat="25.160151" lon="101.992492">
<time>2015-09-27T20:16:35Z</time></trkpt>
<trkpt lat="25.160211" lon="101.992402">
<time>2015-09-27T20:16:36Z</time></trkpt>
<trkpt lat="25.160292" lon="101.992323">
<time>2015-09-27T20:16:37Z</time></trkpt>
<trkpt lat="25.160392" lon="101.992243">
<time>2015-09-27T20:16:38Z</time></trkpt>
<trkpt lat="25.160492" lon="101.992163">
<time>2015-09-27T20:16:39Z</time></trkpt>
<trkpt lat="25.160562" lon="101.992123">
<time>2015-09-27T20:16:40Z</time></trkpt>
<trkpt lat="25.160692" lon="101.992063">
<time>2015-09-27T20:16:41Z</time></trkpt>
<trkpt lat="25.160823" lon="101.992003">
<time>2015-09-27T20:16:42Z</time></trkpt>
<trkpt lat="25.161023" lon="101.991944">
<time>2015-09-27T20:16:43Z</time></trkpt>
<trkpt lat="25.161253" lon="101.991874">
<time>2015-09-27T20:16:44Z</time></trkpt>
<trkpt lat="25.161433" lon="101.991834">
<time>2015-09-27T20:16:45Z</time></trkpt>
<trkpt lat="25.161493" lon="101.991804">
<time>2015-09-27T20:16:46Z</time></trkpt>
<trkpt lat="25.161603" lon="101.991744">
<time>2015-09-27T20:16:47Z</time></trkpt>
<trkpt lat="25.161674" lon="101.991664">
<time>2015-09-27T20:16:48Z</time></trkpt>
<trkpt lat="25.161724" lon="101.991585">
<time>2015-09-27T20:16:49Z</time></trkpt>
<trkpt lat="25.161804" lon="101.991415">
<time>2015-09-27T20:16:50Z</time></trkpt>
<trkpt lat="25.161835" lon="101.991296">
<time>2015-09-27T20:16:51Z</time></trkpt>
<trkpt lat="25.161885" lon="101.991136">
<time>2015-09-27T20:16:52Z</time></trkpt>
<trkpt lat="25.161916" lon="101.991006">
<time>2015-09-27T20:16:53Z</time></trkpt>
<trkpt lat="25.161926" lon="101.990887">
<time>2015-09-27T20:16:54Z</time></trkpt>
<trkpt lat="25.161946" lon="101.990687">
<time>2015-09-27T20:16:55Z</time></trkpt>
<trkpt lat="25.161937" lon="101.990538">
<time>2015-09-27T20:16:56Z</time></trkpt>
<trkpt lat="25.161927" lon="101.990388">
<time>2015-09-27T20:16:57Z</time></trkpt>
<trkpt lat="25.161908" lon="101.990269">
<time>2015-09-27T20:16:58Z</time></trkpt>
<trkpt lat="25.161888" lon="101.990149">
<time>2015-09-27T20:16:59Z</time></trkpt>
<trkpt lat="25.16174" lon="101.989601">
<time>2015-09-27T20:17:00Z</time></trkpt>
<trkpt lat="25.161651" lon="101.989272">
<time>2015-09-27T20:17:01Z</time></trkpt>
<trkpt lat="25.161552" lon="101.988982">
<time>2015-09-27T20:17:02Z</time></trkpt>
<trkpt lat="25.161433" lon="101.988693">
<time>2015-09-27T20:17:03Z</time></trkpt>
<trkpt lat="25.161323" lon="101.988434">
<time>2015-09-27T20:17:04Z</time></trkpt>
<trkpt lat="25.161254" lon="101.988295">
<time>2015-09-27T20:17:05Z</time></trkpt>
<trkpt lat="25.161094" lon="101.988095">
<time>2015-09-27T20:17:06Z</time></trkpt>
<trkpt lat="25.160915" lon="101.987906">
<time>2015-09-27T20:17:07Z</time></trkpt>
<trkpt lat="25.160656" lon="101.987656">
<time>2015-09-27T20:17:08Z</time></trkpt>
<trkpt lat="25.160347" lon="101.987357">
<time>2015-09-27T20:17:09Z</time></trkpt>
<trkpt lat="25.160187" lon="101.987218">
<time>2015-09-27T20:17:10Z</time></trkpt>
<trkpt lat="25.160037" lon="101.987098">
<time>2015-09-27T20:17:11Z</time></trkpt>
<trkpt lat="25.159788" lon="101.986909">
<time>2015-09-27T20:17:12Z</time></trkpt>
<trkpt lat="25.159708" lon="101.986839">
<time>2015-09-27T20:17:13Z</time></trkpt>
<trkpt lat="25.159628" lon="101.986749">
<time>2015-09-27T20:17:14Z</time></trkpt>
<trkpt lat="25.159549" lon="101.986659">
<time>2015-09-27T20:17:15Z</time></trkpt>
<trkpt lat="25.159439" lon="101.98649">
<time>2015-09-27T20:17:16Z</time></trkpt>
<trkpt lat="25.15929" lon="101.986231">
<time>2015-09-27T20:17:17Z</time></trkpt>
<trkpt lat="25.159111" lon="101.985872">
<time>2015-09-27T20:17:18Z</time></trkpt>
<trkpt lat="25.159061" lon="101.985732">
<time>2015-09-27T20:17:19Z</time></trkpt>
<trkpt lat="25.159032" lon="101.985652">
<time>2015-09-27T20:17:20Z</time></trkpt>
<trkpt lat="25.159002" lon="101.985503">
<time>2015-09-27T20:17:21Z</time></trkpt>
<trkpt lat="25.158983" lon="101.985393">
<time>2015-09-27T20:17:22Z</time></trkpt>
<trkpt lat="25.158973" lon="101.985283">
<time>2015-09-27T20:17:23Z</time></trkpt>
<trkpt lat="25.158973" lon="101.985114">
<time>2015-09-27T20:17:24Z</time></trkpt>
<trkpt lat="25.158974" lon="101.984735">
<time>2015-09-27T20:17:25Z</time></trkpt>
<trkpt lat="25.158956" lon="101.984356">
<time>2015-09-27T20:17:26Z</time></trkpt>
<trkpt lat="25.158937" lon="101.983977">
<time>2015-09-27T20:17:27Z</time></trkpt>
<trkpt lat="25.158928" lon="101.983568">
<time>2015-09-27T20:17:28Z</time></trkpt>
<trkpt lat="25.158899" lon="101.983249">
<time>2015-09-27T20:17:29Z</time></trkpt>
<trkpt lat="25.158879" lon="101.98309">
<time>2015-09-27T20:17:30Z</time></trkpt>
<trkpt lat="25.1588" lon="101.982811">
<time>2015-09-27T20:17:31Z</time></trkpt>
<trkpt lat="25.158661" lon="101.982452">
<time>2015-09-27T20:17:32Z</time></trkpt>
<trkpt lat="25.158602" lon="101.982252">
<time>2015-09-27T20:17:33Z</time></trkpt>
<trkpt lat="25.158572" lon="101.982123">
<time>2015-09-27T20:17:34Z</time></trkpt>
<trkpt lat="25.158563" lon="101.982003">
<time>2015-09-27T20:17:35Z</time></trkpt>
<trkpt lat="25.158533" lon="101.981834">
<time>2015-09-27T20:17:36Z</time></trkpt>
<trkpt lat="25.158503" lon="101.981684">
<time>2015-09-27T20:17:37Z</time></trkpt>
<trkpt lat="25.158474" lon="101.981554">
<time>2015-09-27T20:17:38Z</time></trkpt>
<trkpt lat="25.158424" lon="101.981425">
<time>2015-09-27T20:17:39Z</time></trkpt>
<trkpt lat="25.158295" lon="101.981076">
<time>2015-09-27T20:17:40Z</time></trkpt>
<trkpt lat="25.158226" lon="101.980876">
<time>2015-09-27T20:17:41Z</time></trkpt>
<trkpt lat="25.158186" lon="101.980697">
<time>2015-09-27T20:17:42Z</time></trkpt>
<trkpt lat="25.158167" lon="101.980567">
<time>2015-09-27T20:17:43Z</time></trkpt>
<trkpt lat="25.158157" lon="101.980458">
<time>2015-09-27T20:17:44Z</time></trkpt>
<trkpt lat="25.158149" lon="101.979809">
<time>2015-09-27T20:17:45Z</time></trkpt>
<trkpt lat="25.15814" lon="101.97952">
<time>2015-09-27T20:17:46Z</time></trkpt>
<trkpt lat="25.15815" lon="101.979321">
<time>2015-09-27T20:17:47Z</time></trkpt>
<trkpt lat="25.158181" lon="101.979111">
<time>2015-09-27T20:17:48Z</time></trkpt>
<trkpt lat="25.158211" lon="101.978982">
<time>2015-09-27T20:17:49Z</time></trkpt>
<trkpt lat="25.158282" lon="101.978663">
<time>2015-09-27T20:17:50Z</time></trkpt>
<trkpt lat="25.158303" lon="101.978483">
<time>2015-09-27T20:17:51Z</time></trkpt>
<trkpt lat="25.158313" lon="101.978234">
<time>2015-09-27T20:17:52Z</time></trkpt>
<trkpt lat="25.158315" lon="101.977845">
<time>2015-09-27T20:17:53Z</time></trkpt>
<trkpt lat="25.158306" lon="101.977466">
<time>2015-09-27T20:17:54Z</time></trkpt>
<trkpt lat="25.158287" lon="101.977157">
<time>2015-09-27T20:17:55Z</time></trkpt>
<trkpt lat="25.158257" lon="101.976967">
<time>2015-09-27T20:17:56Z</time></trkpt>
<trkpt lat="25.158178" lon="101.976648">
<time>2015-09-27T20:17:57Z</time></trkpt>
<trkpt lat="25.158049" lon="101.976249">
<time>2015-09-27T20:17:58Z</time></trkpt>
<trkpt lat="25.157921" lon="101.975731">
<time>2015-09-27T20:17:59Z</time></trkpt>
<trkpt lat="25.157812" lon="101.975123">
<time>2015-09-27T20:18:00Z</time></trkpt>
<trkpt lat="25.157744" lon="101.974634">
<time>2015-09-27T20:18:01Z</time></trkpt>
<trkpt lat="25.157735" lon="101.974155">
<time>2015-09-27T20:18:02Z</time></trkpt>
<trkpt lat="25.157807" lon="101.973577">
<time>2015-09-27T20:18:03Z</time></trkpt>
<trkpt lat="25.157918" lon="101.973128">
<time>2015-09-27T20:18:04Z</time></trkpt>
<trkpt lat="25.158149" lon="101.972589">
<time>2015-09-27T20:18:05Z</time></trkpt>
<trkpt lat="25.158471" lon="101.972031">
<time>2015-09-27T20:18:06Z</time></trkpt>
<trkpt lat="25.158923" lon="101.971243">
<time>2015-09-27T20:18:07Z</time></trkpt>
<trkpt lat="25.159034" lon="101.970944">
<time>2015-09-27T20:18:08Z</time></trkpt>
<trkpt lat="25.159074" lon="101.970824">
<time>2015-09-27T20:18:09Z</time></trkpt>
<trkpt lat="25.159195" lon="101.970415">
<time>2015-09-27T20:18:10Z</time></trkpt>
<trkpt lat="25.159246" lon="101.970026">
<time>2015-09-27T20:18:11Z</time></trkpt>
<trkpt lat="25.159308" lon="101.969458">
<time>2015-09-27T20:18:12Z</time></trkpt>
<trkpt lat="25.159308" lon="101.969288">
<time>2015-09-27T20:18:13Z</time></trkpt>
<trkpt lat="25.159309" lon="101.969119">
<time>2015-09-27T20:18:14Z</time></trkpt>
<trkpt lat="25.159309" lon="101.968969">
<time>2015-09-27T20:18:15Z</time></trkpt>
<trkpt lat="25.15929" lon="101.968839">
<time>2015-09-27T20:18:16Z</time></trkpt>
<trkpt lat="25.15925" lon="101.96862">
<time>2015-09-27T20:18:17Z</time></trkpt>
<trkpt lat="25.15922" lon="101.9685">
<time>2015-09-27T20:18:18Z</time></trkpt>
<trkpt lat="25.159181" lon="101.968381">
<time>2015-09-27T20:18:19Z</time></trkpt>
<trkpt lat="25.159171" lon="101.968361">
<time>2015-09-27T20:18:20Z</time></trkpt>
<trkpt lat="25.159131" lon="101.968271">
<time>2015-09-27T20:18:21Z</time></trkpt>
<trkpt lat="25.159081" lon="101.968171">
<time>2015-09-27T20:18:22Z</time></trkpt>
<trkpt lat="25.159022" lon="101.968061">
<time>2015-09-27T20:18:23Z</time></trkpt>
<trkpt lat="25.158952" lon="101.967952">
<time>2015-09-27T20:18:24Z</time></trkpt>
<trkpt lat="25.158832" lon="101.967832">
<time>2015-09-27T20:18:25Z</time></trkpt>
<trkpt lat="25.158693" lon="101.967742">
<time>2015-09-27T20:18:26Z</time></trkpt>
<trkpt lat="25.158623" lon="101.967702">
<time>2015-09-27T20:18:27Z</time></trkpt>
<trkpt lat="25.158543" lon="101.967663">
<time>2015-09-27T20:18:28Z</time></trkpt>
<trkpt lat="25.158473" lon="101.967643">
<time>2015-09-27T20:18:29Z</time></trkpt>
<trkpt lat="25.158393" lon="101.967623">
<time>2015-09-27T20:18:30Z</time></trkpt>
<trkpt lat="25.158233" lon="101.967613">
<time>2015-09-27T20:18:31Z</time></trkpt>
<trkpt lat="25.158083" lon="101.967613">
<time>2015-09-27T20:18:32Z</time></trkpt>
<trkpt lat="25.157983" lon="101.967633">
<time>2015-09-27T20:18:33Z</time></trkpt>
<trkpt lat="25.157883" lon="101.967682">
<time>2015-09-27T20:18:34Z</time></trkpt>
<trkpt lat="25.157793" lon="101.967732">
<time>2015-09-27T20:18:35Z</time></trkpt>
<trkpt lat="25.157712" lon="101.967812">
<time>2015-09-27T20:18:36Z</time></trkpt>
<trkpt lat="25.157562" lon="101.967962">
<time>2015-09-27T20:18:37Z</time></trkpt>
<trkpt lat="25.157372" lon="101.968131">
<time>2015-09-27T20:18:38Z</time></trkpt>
<trkpt lat="25.157241" lon="101.968241">
<time>2015-09-27T20:18:39Z</time></trkpt>
<trkpt lat="25.157131" lon="101.968301">
<time>2015-09-27T20:18:40Z</time></trkpt>
<trkpt lat="25.157061" lon="101.968331">
<time>2015-09-27T20:18:41Z</time></trkpt>
<trkpt lat="25.156971" lon="101.968341">
<time>2015-09-27T20:18:42Z</time></trkpt>
<trkpt lat="25.156881" lon="101.968341">
<time>2015-09-27T20:18:43Z</time></trkpt>
<trkpt lat="25.156731" lon="101.968321">
<time>2015-09-27T20:18:44Z</time></trkpt>
<trkpt lat="25.156561" lon="101.968281">
<time>2015-09-27T20:18:45Z</time></trkpt>
<trkpt lat="25.156361" lon="101.968221">
<time>2015-09-27T20:18:46Z</time></trkpt>
<trkpt lat="25.156202" lon="101.968151">
<time>2015-09-27T20:18:47Z</time></trkpt>
<trkpt lat="25.156062" lon="101.968062">
<time>2015-09-27T20:18:48Z</time></trkpt>
<trkpt lat="25.155922" lon="101.967952">
<time>2015-09-27T20:18:49Z</time></trkpt>
<trkpt lat="25.155802" lon="101.967822">
<time>2015-09-27T20:18:50Z</time></trkpt>
<trkpt lat="25.155653" lon="101.967623">
<time>2015-09-27T20:18:51Z</time></trkpt>
<trkpt lat="25.155574" lon="101.967413">
<time>2015-09-27T20:18:52Z</time></trkpt>
<trkpt lat="25.155524" lon="101.967154">
<time>2015-09-27T20:18:53Z</time></trkpt>
<trkpt lat="25.155525" lon="101.966855">
<time>2015-09-27T20:18:54Z</time></trkpt>
<trkpt lat="25.155556" lon="101.966545">
<time>2015-09-27T20:18:55Z</time></trkpt>
<trkpt lat="25.155657" lon="101.966166">
<time>2015-09-27T20:18:56Z</time></trkpt>
<trkpt lat="25.155748" lon="101.965738">
<time>2015-09-27T20:18:57Z</time></trkpt>
<trkpt lat="25.155799" lon="101.965348">
<time>2015-09-27T20:18:58Z</time></trkpt>
<trkpt lat="25.155831" lon="101.96464">
<time>2015-09-27T20:18:59Z</time></trkpt>
<trkpt lat="25.155943" lon="101.963952">
<time>2015-09-27T20:19:00Z</time></trkpt>
<trkpt lat="25.156084" lon="101.963304">
<time>2015-09-27T20:19:01Z</time></trkpt>
<trkpt lat="25.156145" lon="101.962934">
<time>2015-09-27T20:19:02Z</time></trkpt>
<trkpt lat="25.156155" lon="101.962785">
<time>2015-09-27T20:19:03Z</time></trkpt>
<trkpt lat="25.156156" lon="101.962645">
<time>2015-09-27T20:19:04Z</time></trkpt>
<trkpt lat="25.156146" lon="101.962525">
<time>2015-09-27T20:19:05Z</time></trkpt>
<trkpt lat="25.156127" lon="101.962376">
<time>2015-09-27T20:19:06Z</time></trkpt>
<trkpt lat="25.155978" lon="101.961867">
<time>2015-09-27T20:19:07Z</time></trkpt>
<trkpt lat="25.155749" lon="101.961279">
<time>2015-09-27T20:19:08Z</time></trkpt>
<trkpt lat="25.15568" lon="101.960949">
<time>2015-09-27T20:19:09Z</time></trkpt>
<trkpt lat="25.155661" lon="101.96076">
<time>2015-09-27T20:19:10Z</time></trkpt>
<trkpt lat="25.155671" lon="101.96058">
<time>2015-09-27T20:19:11Z</time></trkpt>
<trkpt lat="25.155731" lon="101.960391">
<time>2015-09-27T20:19:12Z</time></trkpt>
<trkpt lat="25.155782" lon="101.960251">
<time>2015-09-27T20:19:13Z</time></trkpt>
<trkpt lat="25.155832" lon="101.960151">
<time>2015-09-27T20:19:14Z</time></trkpt>
<trkpt lat="25.155882" lon="101.960071">
<time>2015-09-27T20:19:15Z</time></trkpt>
<trkpt lat="25.155962" lon="101.960002">
<time>2015-09-27T20:19:16Z</time></trkpt>
<trkpt lat="25.156063" lon="101.959912">
<time>2015-09-27T20:19:17Z</time></trkpt>
<trkpt lat="25.156173" lon="101.959832">
<time>2015-09-27T20:19:18Z</time></trkpt>
<trkpt lat="25.156323" lon="101.959752">
<time>2015-09-27T20:19:19Z</time></trkpt>
<trkpt lat="25.156513" lon="101.959672">
<time>2015-09-27T20:19:20Z</time></trkpt>
<trkpt lat="25.156743" lon="101.959592">
<time>2015-09-27T20:19:21Z</time></trkpt>
<trkpt lat="25.157053" lon="101.959533">
<time>2015-09-27T20:19:22Z</time></trkpt>
<trkpt lat="25.157404" lon="101.959503">
<time>2015-09-27T20:19:23Z</time></trkpt>
<trkpt lat="25.158374" lon="101.959453">
<time>2015-09-27T20:19:24Z</time></trkpt>
<trkpt lat="25.158564" lon="101.959453">
<time>2015-09-27T20:19:25Z</time></trkpt>
<trkpt lat="25.158724" lon="101.959453">
<time>2015-09-27T20:19:26Z</time></trkpt>
<trkpt lat="25.158914" lon="101.959443">
<time>2015-09-27T20:19:27Z</time></trkpt>
<trkpt lat="25.159044" lon="101.959423">
<time>2015-09-27T20:19:28Z</time></trkpt>
<trkpt lat="25.159164" lon="101.959393">
<time>2015-09-27T20:19:29Z</time></trkpt>
<trkpt lat="25.159284" lon="101.959343">
<time>2015-09-27T20:19:30Z</time></trkpt>
<trkpt lat="25.159424" lon="101.959243">
<time>2015-09-27T20:19:31Z</time></trkpt>
<trkpt lat="25.159564" lon="101.959114">
<time>2015-09-27T20:19:32Z</time></trkpt>
<trkpt lat="25.159885" lon="101.958704">
<time>2015-09-27T20:19:33Z</time></trkpt>
<trkpt lat="25.160216" lon="101.958345">
<time>2015-09-27T20:19:34Z</time></trkpt>
<trkpt lat="25.160467" lon="101.958016">
<time>2015-09-27T20:19:35Z</time></trkpt>
<trkpt lat="25.160708" lon="101.957717">
<time>2015-09-27T20:19:36Z</time></trkpt>
<trkpt lat="25.160998" lon="101.957457">
<time>2015-09-27T20:19:37Z</time></trkpt>
<trkpt lat="25.161319" lon="101.957218">
<time>2015-09-27T20:19:38Z</time></trkpt>
<trkpt lat="25.161629" lon="101.956998">
<time>2015-09-27T20:19:39Z</time></trkpt>
<trkpt lat="25.16186" lon="101.956809">
<time>2015-09-27T20:19:40Z</time></trkpt>
<trkpt lat="25.16205" lon="101.956599">
<time>2015-09-27T20:19:41Z</time></trkpt>
<trkpt lat="25.162281" lon="101.95625">
<time>2015-09-27T20:19:42Z</time></trkpt>
<trkpt lat="25.162502" lon="101.955881">
<time>2015-09-27T20:19:43Z</time></trkpt>
<trkpt lat="25.162763" lon="101.955482">
<time>2015-09-27T20:19:44Z</time></trkpt>
<trkpt lat="25.162923" lon="101.955222">
<time>2015-09-27T20:19:45Z</time></trkpt>
<trkpt lat="25.163194" lon="101.954753">
<time>2015-09-27T20:19:46Z</time></trkpt>
<trkpt lat="25.163255" lon="101.954633">
<time>2015-09-27T20:19:47Z</time></trkpt>
<trkpt lat="25.163355" lon="101.954434">
<time>2015-09-27T20:19:48Z</time></trkpt>
<trkpt lat="25.163546" lon="101.953995">
<time>2015-09-27T20:19:49Z</time></trkpt>
<trkpt lat="25.163657" lon="101.953765">
<time>2015-09-27T20:19:50Z</time></trkpt>
<trkpt lat="25.163767" lon="101.953556">
<time>2015-09-27T20:19:51Z</time></trkpt>
<trkpt lat="25.163807" lon="101.953446">
<time>2015-09-27T20:19:52Z</time></trkpt>
<trkpt lat="25.163858" lon="101.953296">
<time>2015-09-27T20:19:53Z</time></trkpt>
<trkpt lat="25.163898" lon="101.953127">
<time>2015-09-27T20:19:54Z</time></trkpt>
<trkpt lat="25.163908" lon="101.952957">
<time>2015-09-27T20:19:55Z</time></trkpt>
<trkpt lat="25.163909" lon="101.952817">
<time>2015-09-27T20:19:56Z</time></trkpt>
<trkpt lat="25.163889" lon="101.952668">
<time>2015-09-27T20:19:57Z</time></trkpt>
<trkpt lat="25.163869" lon="101.952518">
<time>2015-09-27T20:19:58Z</time></trkpt>
<trkpt lat="25.16383" lon="101.952378">
<time>2015-09-27T20:19:59Z</time></trkpt>
<trkpt lat="25.16377" lon="101.952219">
<time>2015-09-27T20:20:00Z</time></trkpt>
<trkpt lat="25.16372" lon="101.952079">
<time>2015-09-27T20:20:01Z</time></trkpt>
<trkpt lat="25.163631" lon="101.951859">
<time>2015-09-27T20:20:02Z</time></trkpt>
<trkpt lat="25.163591" lon="101.95171">
<time>2015-09-27T20:20:03Z</time></trkpt>
<trkpt lat="25.163551" lon="101.95156">
<time>2015-09-27T20:20:04Z</time></trkpt>
<trkpt lat="25.163532" lon="101.95142">
<time>2015-09-27T20:20:05Z</time></trkpt>
<trkpt lat="25.163522" lon="101.951311">
<time>2015-09-27T20:20:06Z</time></trkpt>
<trkpt lat="25.163512" lon="101.951161">
<time>2015-09-27T20:20:07Z</time></trkpt>
<trkpt lat="25.163513" lon="101.951011">
<time>2015-09-27T20:20:08Z</time></trkpt>
<trkpt lat="25.163523" lon="101.950861">
<time>2015-09-27T20:20:09Z</time></trkpt>
<trkpt lat="25.163543" lon="101.950722">
<time>2015-09-27T20:20:10Z</time></trkpt>
<trkpt lat="25.163594" lon="101.950512">
<time>2015-09-27T20:20:11Z</time></trkpt>
<trkpt lat="25.163654" lon="101.950283">
<time>2015-09-27T20:20:12Z</time></trkpt>
<trkpt lat="25.163725" lon="101.950063">
<time>2015-09-27T20:20:13Z</time></trkpt>
<trkpt lat="25.163785" lon="101.949903">
<time>2015-09-27T20:20:14Z</time></trkpt>
<trkpt lat="25.163885" lon="101.949714">
<time>2015-09-27T20:20:15Z</time></trkpt>
<trkpt lat="25.163976" lon="101.949574">
<time>2015-09-27T20:20:16Z</time></trkpt>
<trkpt lat="25.164146" lon="101.949334">
<time>2015-09-27T20:20:17Z</time></trkpt>
<trkpt lat="25.164327" lon="101.949075">
<time>2015-09-27T20:20:18Z</time></trkpt>
<trkpt lat="25.164497" lon="101.948845">
<time>2015-09-27T20:20:19Z</time></trkpt>
<trkpt lat="25.164728" lon="101.948536">
<time>2015-09-27T20:20:20Z</time></trkpt>
<trkpt lat="25.164848" lon="101.948366">
<time>2015-09-27T20:20:21Z</time></trkpt>
<trkpt lat="25.164908" lon="101.948267">
<time>2015-09-27T20:20:22Z</time></trkpt>
<trkpt lat="25.164979" lon="101.948127">
<time>2015-09-27T20:20:23Z</time></trkpt>
<trkpt lat="25.165029" lon="101.947997">
<time>2015-09-27T20:20:24Z</time></trkpt>
<trkpt lat="25.16514" lon="101.947638">
<time>2015-09-27T20:20:25Z</time></trkpt>
<trkpt lat="25.1652" lon="101.947428">
<time>2015-09-27T20:20:26Z</time></trkpt>
<trkpt lat="25.165321" lon="101.947059">
<time>2015-09-27T20:20:27Z</time></trkpt>
<trkpt lat="25.165381" lon="101.946829">
<time>2015-09-27T20:20:28Z</time></trkpt>
<trkpt lat="25.165391" lon="101.946779">
<time>2015-09-27T20:20:29Z</time></trkpt>
<trkpt lat="25.165401" lon="101.946729">
<time>2015-09-27T20:20:30Z</time></trkpt>
<trkpt lat="25.165402" lon="101.946689">
<time>2015-09-27T20:20:31Z</time></trkpt>
<trkpt lat="25.165402" lon="101.94662">
<time>2015-09-27T20:20:32Z</time></trkpt>
<trkpt lat="25.165392" lon="101.94654">
<time>2015-09-27T20:20:33Z</time></trkpt>
<trkpt lat="25.165382" lon="101.94648">
<time>2015-09-27T20:20:34Z</time></trkpt>
<trkpt lat="25.165342" lon="101.9464">
<time>2015-09-27T20:20:35Z</time></trkpt>
<trkpt lat="25.165312" lon="101.94635">
<time>2015-09-27T20:20:36Z</time></trkpt>
<trkpt lat="25.165252" lon="101.9463">
<time>2015-09-27T20:20:37Z</time></trkpt>
<trkpt lat="25.165212" lon="101.94626">
<time>2015-09-27T20:20:38Z</time></trkpt>
<trkpt lat="25.165142" lon="101.94622">
<time>2015-09-27T20:20:39Z</time></trkpt>
<trkpt lat="25.164923" lon="101.946131">
<time>2015-09-27T20:20:40Z</time></trkpt>
<trkpt lat="25.164733" lon="101.946061">
<time>2015-09-27T20:20:41Z</time></trkpt>
<trkpt lat="25.164653" lon="101.946031">
<time>2015-09-27T20:20:42Z</time></trkpt>
<trkpt lat="25.164573" lon="101.946001">
<time>2015-09-27T20:20:43Z</time></trkpt>
<trkpt lat="25.164503" lon="101.945961">
<time>2015-09-27T20:20:44Z</time></trkpt>
<trkpt lat="25.164453" lon="101.945921">
<time>2015-09-27T20:20:45Z</time></trkpt>
<trkpt lat="25.164393" lon="101.945881">
<time>2015-09-27T20:20:46Z</time></trkpt>
<trkpt lat="25.164343" lon="101.945821">
<time>2015-09-27T20:20:47Z</time></trkpt>
<trkpt lat="25.164254" lon="101.945711">
<time>2015-09-27T20:20:48Z</time></trkpt>
<trkpt lat="25.164144" lon="101.945592">
<time>2015-09-27T20:20:49Z</time></trkpt>
<trkpt lat="25.164054" lon="101.945512">
<time>2015-09-27T20:20:50Z</time></trkpt>
<trkpt lat="25.163994" lon="101.945472">
<time>2015-09-27T20:20:51Z</time></trkpt>
<trkpt lat="25.163924" lon="101.945442">
<time>2015-09-27T20:20:52Z</time></trkpt>
<trkpt lat="25.163854" lon="101.945412">
<time>2015-09-27T20:20:53Z</time></trkpt>
<trkpt lat="25.163764" lon="101.945382">
<time>2015-09-27T20:20:54Z</time></trkpt>
<trkpt lat="25.163634" lon="101.945342">
<time>2015-09-27T20:20:55Z</time></trkpt>
<trkpt lat="25.163444" lon="101.945282">
<time>2015-09-27T20:20:56Z</time></trkpt>
<trkpt lat="25.163294" lon="101.945242">
<time>2015-09-27T20:20:57Z</time></trkpt>
<trkpt lat="25.163195" lon="101.945202">
<time>2015-09-27T20:20:58Z</time></trkpt>
<trkpt lat="25.163075" lon="101.945142">
<time>2015-09-27T20:20:59Z</time></trkpt>
<trkpt lat="25.163015" lon="101.945112">
<time>2015-09-27T20:21:00Z</time></trkpt>
<trkpt lat="25.162965" lon="101.945063">
<time>2015-09-27T20:21:01Z</time></trkpt>
<trkpt lat="25.162915" lon="101.945023">
<time>2015-09-27T20:21:02Z</time></trkpt>
<trkpt lat="25.162885" lon="101.944963">
<time>2015-09-27T20:21:03Z</time></trkpt>
<trkpt lat="25.162845" lon="101.944903">
<time>2015-09-27T20:21:04Z</time></trkpt>
<trkpt lat="25.162805" lon="101.944803">
<time>2015-09-27T20:21:05Z</time></trkpt>
<trkpt lat="25.162776" lon="101.944673">
<time>2015-09-27T20:21:06Z</time></trkpt>
<trkpt lat="25.162756" lon="101.944533">
<time>2015-09-27T20:21:07Z</time></trkpt>
<trkpt lat="25.162726" lon="101.944374">
<time>2015-09-27T20:21:08Z</time></trkpt>
<trkpt lat="25.162697" lon="101.944194">
<time>2015-09-27T20:21:09Z</time></trkpt>
<trkpt lat="25.162667" lon="101.943994">
<time>2015-09-27T20:21:10Z</time></trkpt>
<trkpt lat="25.162617" lon="101.943785">
<time>2015-09-27T20:21:11Z</time></trkpt>
<trkpt lat="25.162568" lon="101.943585">
<time>2015-09-27T20:21:12Z</time></trkpt>
<trkpt lat="25.162568" lon="101.943585">
<time>2015-09-27T20:21:13Z</time></trkpt>
<trkpt lat="25.162658" lon="101.943555">
<time>2015-09-27T20:21:14Z</time></trkpt>
<trkpt lat="25.162658" lon="101.943555">
<time>2015-09-27T20:21:15Z</time></trkpt>
<trkpt lat="25.162638" lon="101.943495">
<time>2015-09-27T20:21:16Z</time></trkpt>
<trkpt lat="25.162578" lon="101.943286">
<time>2015-09-27T20:21:17Z</time></trkpt>
<trkpt lat="25.162519" lon="101.943106">
<time>2015-09-27T20:21:18Z</time></trkpt>
<trkpt lat="25.162459" lon="101.942956">
<time>2015-09-27T20:21:19Z</time></trkpt>
<trkpt lat="25.162369" lon="101.942767">
<time>2015-09-27T20:21:20Z</time></trkpt>
<trkpt lat="25.16218" lon="101.942377">
<time>2015-09-27T20:21:21Z</time></trkpt>
<trkpt lat="25.162021" lon="101.942038">
<time>2015-09-27T20:21:22Z</time></trkpt>
<trkpt lat="25.161881" lon="101.941738">
<time>2015-09-27T20:21:23Z</time></trkpt>
<trkpt lat="25.161762" lon="101.941459">
<time>2015-09-27T20:21:24Z</time></trkpt>
<trkpt lat="25.161692" lon="101.941249">
<time>2015-09-27T20:21:25Z</time></trkpt>
<trkpt lat="25.161632" lon="101.941049">
<time>2015-09-27T20:21:26Z</time></trkpt>
<trkpt lat="25.161613" lon="101.94086">
<time>2015-09-27T20:21:27Z</time></trkpt>
<trkpt lat="25.161603" lon="101.94059">
<time>2015-09-27T20:21:28Z</time></trkpt>
<trkpt lat="25.161634" lon="101.940271">
<time>2015-09-27T20:21:29Z</time></trkpt>
<trkpt lat="25.161674" lon="101.939871">
<time>2015-09-27T20:21:30Z</time></trkpt>
<trkpt lat="25.161715" lon="101.939552">
<time>2015-09-27T20:21:31Z</time></trkpt>
<trkpt lat="25.161755" lon="101.939342">
<time>2015-09-27T20:21:32Z</time></trkpt>
<trkpt lat="25.161786" lon="101.939152">
<time>2015-09-27T20:21:33Z</time></trkpt>
<trkpt lat="25.161826" lon="101.938983">
<time>2015-09-27T20:21:34Z</time></trkpt>
<trkpt lat="25.161856" lon="101.938863">
<time>2015-09-27T20:21:35Z</time></trkpt>
<trkpt lat="25.161896" lon="101.938743">
<time>2015-09-27T20:21:36Z</time></trkpt>
<trkpt lat="25.161957" lon="101.938593">
<time>2015-09-27T20:21:37Z</time></trkpt>
<trkpt lat="25.162027" lon="101.938434">
<time>2015-09-27T20:21:38Z</time></trkpt>
<trkpt lat="25.162117" lon="101.938284">
<time>2015-09-27T20:21:39Z</time></trkpt>
<trkpt lat="25.162187" lon="101.938214">
<time>2015-09-27T20:21:40Z</time></trkpt>
<trkpt lat="25.162247" lon="101.938164">
<time>2015-09-27T20:21:41Z</time></trkpt>
<trkpt lat="25.162307" lon="101.938124">
<time>2015-09-27T20:21:42Z</time></trkpt>
<trkpt lat="25.162397" lon="101.938084">
<time>2015-09-27T20:21:43Z</time></trkpt>
<trkpt lat="25.162527" lon="101.938064">
<time>2015-09-27T20:21:44Z</time></trkpt>
<trkpt lat="25.162617" lon="101.938054">
<time>2015-09-27T20:21:45Z</time></trkpt>
<trkpt lat="25.162727" lon="101.938074">
<time>2015-09-27T20:21:46Z</time></trkpt>
<trkpt lat="25.162827" lon="101.938114">
<time>2015-09-27T20:21:47Z</time></trkpt>
<trkpt lat="25.162927" lon="101.938164">
<time>2015-09-27T20:21:48Z</time></trkpt>
<trkpt lat="25.163027" lon="101.938224">
<time>2015-09-27T20:21:49Z</time></trkpt>
<trkpt lat="25.163117" lon="101.938294">
<time>2015-09-27T20:21:50Z</time></trkpt>
<trkpt lat="25.163327" lon="101.938453">
<time>2015-09-27T20:21:51Z</time></trkpt>
<trkpt lat="25.163806" lon="101.938823">
<time>2015-09-27T20:21:52Z</time></trkpt>
<trkpt lat="25.164066" lon="101.939033">
<time>2015-09-27T20:21:53Z</time></trkpt>
<trkpt lat="25.164176" lon="101.939102">
<time>2015-09-27T20:21:54Z</time></trkpt>
<trkpt lat="25.164246" lon="101.939142">
<time>2015-09-27T20:21:55Z</time></trkpt>
<trkpt lat="25.164325" lon="101.939182">
<time>2015-09-27T20:21:56Z</time></trkpt>
<trkpt lat="25.164405" lon="101.939212">
<time>2015-09-27T20:21:57Z</time></trkpt>
<trkpt lat="25.164495" lon="101.939232">
<time>2015-09-27T20:21:58Z</time></trkpt>
<trkpt lat="25.164635" lon="101.939242">
<time>2015-09-27T20:21:59Z</time></trkpt>
<trkpt lat="25.164805" lon="101.939252">
<time>2015-09-27T20:22:00Z</time></trkpt>
<trkpt lat="25.164975" lon="101.939252">
<time>2015-09-27T20:22:01Z</time></trkpt>
<trkpt lat="25.165125" lon="101.939232">
<time>2015-09-27T20:22:02Z</time></trkpt>
<trkpt lat="25.165275" lon="101.939192">
<time>2015-09-27T20:22:03Z</time></trkpt>
<trkpt lat="25.165416" lon="101.939112">
<time>2015-09-27T20:22:04Z</time></trkpt>
<trkpt lat="25.165526" lon="101.939023">
<time>2015-09-27T20:22:05Z</time></trkpt>
<trkpt lat="25.165636" lon="101.938913">
<time>2015-09-27T20:22:06Z</time></trkpt>
<trkpt lat="25.165696" lon="101.938793">
<time>2015-09-27T20:22:07Z</time></trkpt>
<trkpt lat="25.165766" lon="101.938633">
<time>2015-09-27T20:22:08Z</time></trkpt>
<trkpt lat="25.165797" lon="101.938453">
<time>2015-09-27T20:22:09Z</time></trkpt>
<trkpt lat="25.165807" lon="101.938244">
<time>2015-09-27T20:22:10Z</time></trkpt>
<trkpt lat="25.165787" lon="101.938034">
<time>2015-09-27T20:22:11Z</time></trkpt>
<trkpt lat="25.165748" lon="101.937854">
<time>2015-09-27T20:22:12Z</time></trkpt>
<trkpt lat="25.165698" lon="101.937705">
<time>2015-09-27T20:22:13Z</time></trkpt>
<trkpt lat="25.165638" lon="101.937575">
<time>2015-09-27T20:22:14Z</time></trkpt>
<trkpt lat="25.165548" lon="101.937425">
<time>2015-09-27T20:22:15Z</time></trkpt>
<trkpt lat="25.165379" lon="101.937185">
<time>2015-09-27T20:22:16Z</time></trkpt>
<trkpt lat="25.165089" lon="101.936806">
<time>2015-09-27T20:22:17Z</time></trkpt>
<trkpt lat="25.16487" lon="101.936496">
<time>2015-09-27T20:22:18Z</time></trkpt>
<trkpt lat="25.16478" lon="101.936347">
<time>2015-09-27T20:22:19Z</time></trkpt>
<trkpt lat="25.16472" lon="101.936197">
<time>2015-09-27T20:22:20Z</time></trkpt>
<trkpt lat="25.164671" lon="101.935977">
<time>2015-09-27T20:22:21Z</time></trkpt>
<trkpt lat="25.164641" lon="101.935797">
<time>2015-09-27T20:22:22Z</time></trkpt>
<trkpt lat="25.164572" lon="101.935358">
<time>2015-09-27T20:22:23Z</time></trkpt>
<trkpt lat="25.164512" lon="101.935108">
<time>2015-09-27T20:22:24Z</time></trkpt>
<trkpt lat="25.164432" lon="101.934929">
<time>2015-09-27T20:22:25Z</time></trkpt>
<trkpt lat="25.164323" lon="101.934779">
<time>2015-09-27T20:22:26Z</time></trkpt>
<trkpt lat="25.164123" lon="101.934559">
<time>2015-09-27T20:22:27Z</time></trkpt>
<trkpt lat="25.163913" lon="101.934289">
<time>2015-09-27T20:22:28Z</time></trkpt>
<trkpt lat="25.163843" lon="101.93418">
<time>2015-09-27T20:22:29Z</time></trkpt>
<trkpt lat="25.163804" lon="101.9341">
<time>2015-09-27T20:22:30Z</time></trkpt>
<trkpt lat="25.163764" lon="101.93401">
<time>2015-09-27T20:22:31Z</time></trkpt>
<trkpt lat="25.163744" lon="101.93394">
<time>2015-09-27T20:22:32Z</time></trkpt>
<trkpt lat="25.163734" lon="101.93383">
<time>2015-09-27T20:22:33Z</time></trkpt>
<trkpt lat="25.163724" lon="101.93374">
<time>2015-09-27T20:22:34Z</time></trkpt>
<trkpt lat="25.163724" lon="101.93364">
<time>2015-09-27T20:22:35Z</time></trkpt>
<trkpt lat="25.163734" lon="101.93357">
<time>2015-09-27T20:22:36Z</time></trkpt>
<trkpt lat="25.163744" lon="101.93351">
<time>2015-09-27T20:22:37Z</time></trkpt>
<trkpt lat="25.163765" lon="101.93344">
<time>2015-09-27T20:22:38Z</time></trkpt>
<trkpt lat="25.163775" lon="101.933371">
<time>2015-09-27T20:22:39Z</time></trkpt>
<trkpt lat="25.163795" lon="101.933311">
<time>2015-09-27T20:22:40Z</time></trkpt>
<trkpt lat="25.163825" lon="101.933241">
<time>2015-09-27T20:22:41Z</time></trkpt>
<trkpt lat="25.163845" lon="101.933191">
<time>2015-09-27T20:22:42Z</time></trkpt>
<trkpt lat="25.163895" lon="101.933111">
<time>2015-09-27T20:22:43Z</time></trkpt>
<trkpt lat="25.163935" lon="101.933041">
<time>2015-09-27T20:22:44Z</time></trkpt>
<trkpt lat="25.163995" lon="101.932971">
<time>2015-09-27T20:22:45Z</time></trkpt>
<trkpt lat="25.164055" lon="101.932901">
<time>2015-09-27T20:22:46Z</time></trkpt>
<trkpt lat="25.164115" lon="101.932851">
<time>2015-09-27T20:22:47Z</time></trkpt>
<trkpt lat="25.164175" lon="101.932801">
<time>2015-09-27T20:22:48Z</time></trkpt>
<trkpt lat="25.164226" lon="101.932771">
<time>2015-09-27T20:22:49Z</time></trkpt>
<trkpt lat="25.164306" lon="101.932731">
<time>2015-09-27T20:22:50Z</time></trkpt>
<trkpt lat="25.164366" lon="101.932701">
<time>2015-09-27T20:22:51Z</time></trkpt>
<trkpt lat="25.164436" lon="101.932671">
<time>2015-09-27T20:22:52Z</time></trkpt>
<trkpt lat="25.164526" lon="101.932651">
<time>2015-09-27T20:22:53Z</time></trkpt>
<trkpt lat="25.164606" lon="101.932641">
<time>2015-09-27T20:22:54Z</time></trkpt>
<trkpt lat="25.164686" lon="101.932622">
<time>2015-09-27T20:22:55Z</time></trkpt>
<trkpt lat="25.164796" lon="101.932612">
<time>2015-09-27T20:22:56Z</time></trkpt>
<trkpt lat="25.165016" lon="101.932592">
<time>2015-09-27T20:22:57Z</time></trkpt>
<trkpt lat="25.165306" lon="101.932562">
<time>2015-09-27T20:22:58Z</time></trkpt>
<trkpt lat="25.165616" lon="101.932522">
<time>2015-09-27T20:22:59Z</time></trkpt>
<trkpt lat="25.165716" lon="101.932502">
<time>2015-09-27T20:23:00Z</time></trkpt>
<trkpt lat="25.165816" lon="101.932472">
<time>2015-09-27T20:23:01Z</time></trkpt>
<trkpt lat="25.165876" lon="101.932452">
<time>2015-09-27T20:23:02Z</time></trkpt>
<trkpt lat="25.165936" lon="101.932432">
<time>2015-09-27T20:23:03Z</time></trkpt>
<trkpt lat="25.166006" lon="101.932402">
<time>2015-09-27T20:23:04Z</time></trkpt>
<trkpt lat="25.166056" lon="101.932372">
<time>2015-09-27T20:23:05Z</time></trkpt>
<trkpt lat="25.166106" lon="101.932342">
<time>2015-09-27T20:23:06Z</time></trkpt>
<trkpt lat="25.166166" lon="101.932302">
<time>2015-09-27T20:23:07Z</time></trkpt>
<trkpt lat="25.166216" lon="101.932262">
<time>2015-09-27T20:23:08Z</time></trkpt>
<trkpt lat="25.166286" lon="101.932192">
<time>2015-09-27T20:23:09Z</time></trkpt>
<trkpt lat="25.166356" lon="101.932112">
<time>2015-09-27T20:23:10Z</time></trkpt>
<trkpt lat="25.166386" lon="101.932082">
<time>2015-09-27T20:23:11Z</time></trkpt>
<trkpt lat="25.166396" lon="101.932072">
<time>2015-09-27T20:23:12Z</time></trkpt>
<trkpt lat="25.166437" lon="101.932012">
<time>2015-09-27T20:23:13Z</time></trkpt>
<trkpt lat="25.166477" lon="101.931952">
<time>2015-09-27T20:23:14Z</time></trkpt>
<trkpt lat="25.166507" lon="101.931902">
<time>2015-09-27T20:23:15Z</time></trkpt>
<trkpt lat="25.166547" lon="101.931822">
<time>2015-09-27T20:23:16Z</time></trkpt>
<trkpt lat="25.166587" lon="101.931733">
<time>2015-09-27T20:23:17Z</time></trkpt>
<trkpt lat="25.166617" lon="101.931633">
<time>2015-09-27T20:23:18Z</time></trkpt>
<trkpt lat="25.166637" lon="101.931543">
<time>2015-09-27T20:23:19Z</time></trkpt>
<trkpt lat="25.166657" lon="101.931483">
<time>2015-09-27T20:23:20Z</time></trkpt>
<trkpt lat="25.166667" lon="101.931413">
<time>2015-09-27T20:23:21Z</time></trkpt>
<trkpt lat="25.166677" lon="101.931363">
<time>2015-09-27T20:23:22Z</time></trkpt>
<trkpt lat="25.166687" lon="101.931323">
<time>2015-09-27T20:23:23Z</time></trkpt>
<trkpt lat="25.166698" lon="101.931253">
<time>2015-09-27T20:23:24Z</time></trkpt>
<trkpt lat="25.166698" lon="101.931213">
<time>2015-09-27T20:23:25Z</time></trkpt>
<trkpt lat="25.166698" lon="101.931183">
<time>2015-09-27T20:23:26Z</time></trkpt>
<trkpt lat="25.166708" lon="101.931133">
<time>2015-09-27T20:23:27Z</time></trkpt>
<trkpt lat="25.166698" lon="101.931093">
<time>2015-09-27T20:23:28Z</time></trkpt>
<trkpt lat="25.166698" lon="101.931043">
<time>2015-09-27T20:23:29Z</time></trkpt>
<trkpt lat="25.166698" lon="101.931003">
<time>2015-09-27T20:23:30Z</time></trkpt>
<trkpt lat="25.166698" lon="101.930973">
<time>2015-09-27T20:23:31Z</time></trkpt>
<trkpt lat="25.166688" lon="101.930924">
<time>2015-09-27T20:23:32Z</time></trkpt>
<trkpt lat="25.166678" lon="101.930894">
<time>2015-09-27T20:23:33Z</time></trkpt>
<trkpt lat="25.166678" lon="101.930884">
<time>2015-09-27T20:23:34Z</time></trkpt>
<trkpt lat="25.166648" lon="101.930764">
<time>2015-09-27T20:23:35Z</time></trkpt>
<trkpt lat="25.166628" lon="101.930664">
<time>2015-09-27T20:23:36Z</time></trkpt>
<trkpt lat="25.166608" lon="101.930624">
<time>2015-09-27T20:23:37Z</time></trkpt>
<trkpt lat="25.166588" lon="101.930574">
<time>2015-09-27T20:23:38Z</time></trkpt>
<trkpt lat="25.166549" lon="101.930504">
<time>2015-09-27T20:23:39Z</time></trkpt>
<trkpt lat="25.166509" lon="101.930434">
<time>2015-09-27T20:23:40Z</time></trkpt>
<trkpt lat="25.166449" lon="101.930354">
<time>2015-09-27T20:23:41Z</time></trkpt>
<trkpt lat="25.166349" lon="101.930254">
<time>2015-09-27T20:23:42Z</time></trkpt>
<trkpt lat="25.166279" lon="101.930194">
<time>2015-09-27T20:23:43Z</time></trkpt>
<trkpt lat="25.166159" lon="101.930104">
<time>2015-09-27T20:23:44Z</time></trkpt>
<trkpt lat="25.165899" lon="101.929925">
<time>2015-09-27T20:23:45Z</time></trkpt>
<trkpt lat="25.16547" lon="101.929625">
<time>2015-09-27T20:23:46Z</time></trkpt>
<trkpt lat="25.16517" lon="101.929415">
<time>2015-09-27T20:23:47Z</time></trkpt>
<trkpt lat="25.164581" lon="101.929006">
<time>2015-09-27T20:23:48Z</time></trkpt>
<trkpt lat="25.164201" lon="101.928686">
<time>2015-09-27T20:23:49Z</time></trkpt>
<trkpt lat="25.163971" lon="101.928476">
<time>2015-09-27T20:23:50Z</time></trkpt>
<trkpt lat="25.163632" lon="101.928107">
<time>2015-09-27T20:23:51Z</time></trkpt>
<trkpt lat="25.163242" lon="101.927657">
<time>2015-09-27T20:23:52Z</time></trkpt>
<trkpt lat="25.162613" lon="101.926968">
<time>2015-09-27T20:23:53Z</time></trkpt>
<trkpt lat="25.162224" lon="101.926528">
<time>2015-09-27T20:23:54Z</time></trkpt>
<trkpt lat="25.161834" lon="101.926099">
<time>2015-09-27T20:23:55Z</time></trkpt>
<trkpt lat="25.161625" lon="101.925839">
<time>2015-09-27T20:23:56Z</time></trkpt>
<trkpt lat="25.161455" lon="101.925609">
<time>2015-09-27T20:23:57Z</time></trkpt>
<trkpt lat="25.161295" lon="101.925379">
<time>2015-09-27T20:23:58Z</time></trkpt>
<trkpt lat="25.161066" lon="101.92499">
<time>2015-09-27T20:23:59Z</time></trkpt>
<trkpt lat="25.160936" lon="101.92478">
<time>2015-09-27T20:24:00Z</time></trkpt>
<trkpt lat="25.160776" lon="101.92453">
<time>2015-09-27T20:24:01Z</time></trkpt>
<trkpt lat="25.160736" lon="101.92444">
<time>2015-09-27T20:24:02Z</time></trkpt>
<trkpt lat="25.160716" lon="101.92439">
<time>2015-09-27T20:24:03Z</time></trkpt>
<trkpt lat="25.160666" lon="101.92426">
<time>2015-09-27T20:24:04Z</time></trkpt>
<trkpt lat="25.160637" lon="101.924111">
<time>2015-09-27T20:24:05Z</time></trkpt>
<trkpt lat="25.160627" lon="101.923981">
<time>2015-09-27T20:24:06Z</time></trkpt>
<trkpt lat="25.160627" lon="101.923871">
<time>2015-09-27T20:24:07Z</time></trkpt>
<trkpt lat="25.160627" lon="101.923781">
<time>2015-09-27T20:24:08Z</time></trkpt>
<trkpt lat="25.160637" lon="101.923721">
<time>2015-09-27T20:24:09Z</time></trkpt>
<trkpt lat="25.160667" lon="101.923621">
<time>2015-09-27T20:24:10Z</time></trkpt>
<trkpt lat="25.160697" lon="101.923531">
<time>2015-09-27T20:24:11Z</time></trkpt>
<trkpt lat="25.160737" lon="101.923431">
<time>2015-09-27T20:24:12Z</time></trkpt>
<trkpt lat="25.160787" lon="101.923341">
<time>2015-09-27T20:24:13Z</time></trkpt>
<trkpt lat="25.160857" lon="101.923241">
<time>2015-09-27T20:24:14Z</time></trkpt>
<trkpt lat="25.160938" lon="101.923141">
<time>2015-09-27T20:24:15Z</time></trkpt>
<trkpt lat="25.161018" lon="101.923051">
<time>2015-09-27T20:24:16Z</time></trkpt>
<trkpt lat="25.161108" lon="101.922991">
<time>2015-09-27T20:24:17Z</time></trkpt>
<trkpt lat="25.161188" lon="101.922941">
<time>2015-09-27T20:24:18Z</time></trkpt>
<trkpt lat="25.161268" lon="101.922901">
<time>2015-09-27T20:24:19Z</time></trkpt>
<trkpt lat="25.161278" lon="101.922901">
<time>2015-09-27T20:24:20Z</time></trkpt>
<trkpt lat="25.161338" lon="101.922882">
<time>2015-09-27T20:24:21Z</time></trkpt>
<trkpt lat="25.161438" lon="101.922852">
<time>2015-09-27T20:24:22Z</time></trkpt>
<trkpt lat="25.161528" lon="101.922842">
<time>2015-09-27T20:24:23Z</time></trkpt>
<trkpt lat="25.161658" lon="101.922842">
<time>2015-09-27T20:24:24Z</time></trkpt>
<trkpt lat="25.161938" lon="101.922852">
<time>2015-09-27T20:24:25Z</time></trkpt>
<trkpt lat="25.162208" lon="101.922871">
<time>2015-09-27T20:24:26Z</time></trkpt>
<trkpt lat="25.162408" lon="101.922881">
<time>2015-09-27T20:24:27Z</time></trkpt>
<trkpt lat="25.162538" lon="101.922881">
<time>2015-09-27T20:24:28Z</time></trkpt>
<trkpt lat="25.162658" lon="101.922861">
<time>2015-09-27T20:24:29Z</time></trkpt>
<trkpt lat="25.162738" lon="101.922842">
<time>2015-09-27T20:24:30Z</time></trkpt>
<trkpt lat="25.162838" lon="101.922802">
<time>2015-09-27T20:24:31Z</time></trkpt>
<trkpt lat="25.162908" lon="101.922732">
<time>2015-09-27T20:24:32Z</time></trkpt>
<trkpt lat="25.162978" lon="101.922662">
<time>2015-09-27T20:24:33Z</time></trkpt>
<trkpt lat="25.163038" lon="101.922592">
<time>2015-09-27T20:24:34Z</time></trkpt>
<trkpt lat="25.163088" lon="101.922532">
<time>2015-09-27T20:24:35Z</time></trkpt>
<trkpt lat="25.163148" lon="101.922442">
<time>2015-09-27T20:24:36Z</time></trkpt>
<trkpt lat="25.163178" lon="101.922402">
<time>2015-09-27T20:24:37Z</time></trkpt>
<trkpt lat="25.163208" lon="101.922352">
<time>2015-09-27T20:24:38Z</time></trkpt>
<trkpt lat="25.163238" lon="101.922292">
<time>2015-09-27T20:24:39Z</time></trkpt>
<trkpt lat="25.163278" lon="101.922232">
<time>2015-09-27T20:24:40Z</time></trkpt>
<trkpt lat="25.163288" lon="101.922192">
<time>2015-09-27T20:24:41Z</time></trkpt>
<trkpt lat="25.163298" lon="101.922162">
<time>2015-09-27T20:24:42Z</time></trkpt>
<trkpt lat="25.163328" lon="101.922102">
<time>2015-09-27T20:24:43Z</time></trkpt>
<trkpt lat="25.163338" lon="101.922072">
<time>2015-09-27T20:24:44Z</time></trkpt>
<trkpt lat="25.163359" lon="101.921992">
<time>2015-09-27T20:24:45Z</time></trkpt>
<trkpt lat="25.163369" lon="101.921952">
<time>2015-09-27T20:24:46Z</time></trkpt>
<trkpt lat="25.163369" lon="101.921922">
<time>2015-09-27T20:24:47Z</time></trkpt>
<trkpt lat="25.163379" lon="101.921892">
<time>2015-09-27T20:24:48Z</time></trkpt>
<trkpt lat="25.163379" lon="101.921822">
<time>2015-09-27T20:24:49Z</time></trkpt>
<trkpt lat="25.163389" lon="101.921662">
<time>2015-09-27T20:24:50Z</time></trkpt>
<trkpt lat="25.163379" lon="101.921522">
<time>2015-09-27T20:24:51Z</time></trkpt>
<trkpt lat="25.163349" lon="101.921313">
<time>2015-09-27T20:24:52Z</time></trkpt>
<trkpt lat="25.163299" lon="101.921003">
<time>2015-09-27T20:24:53Z</time></trkpt>
<trkpt lat="25.16325" lon="101.920663">
<time>2015-09-27T20:24:54Z</time></trkpt>
<trkpt lat="25.16322" lon="101.920383">
<time>2015-09-27T20:24:55Z</time></trkpt>
<trkpt lat="25.16317" lon="101.920153">
<time>2015-09-27T20:24:56Z</time></trkpt>
<trkpt lat="25.163101" lon="101.919804">
<time>2015-09-27T20:24:57Z</time></trkpt>
<trkpt lat="25.163051" lon="101.919614">
<time>2015-09-27T20:24:58Z</time></trkpt>
<trkpt lat="25.162991" lon="101.919414">
<time>2015-09-27T20:24:59Z</time></trkpt>
<trkpt lat="25.162891" lon="101.919024">
<time>2015-09-27T20:25:00Z</time></trkpt>
<trkpt lat="25.162811" lon="101.918694">
<time>2015-09-27T20:25:01Z</time></trkpt>
<trkpt lat="25.162772" lon="101.918574">
<time>2015-09-27T20:25:02Z</time></trkpt>
<trkpt lat="25.162702" lon="101.918365">
<time>2015-09-27T20:25:03Z</time></trkpt>
<trkpt lat="25.162582" lon="101.918025">
<time>2015-09-27T20:25:04Z</time></trkpt>
<trkpt lat="25.162522" lon="101.917865">
<time>2015-09-27T20:25:05Z</time></trkpt>
<trkpt lat="25.162442" lon="101.917615">
<time>2015-09-27T20:25:06Z</time></trkpt>
<trkpt lat="25.162392" lon="101.917445">
<time>2015-09-27T20:25:07Z</time></trkpt>
<trkpt lat="25.162333" lon="101.917125">
<time>2015-09-27T20:25:08Z</time></trkpt>
<trkpt lat="25.162283" lon="101.916795">
<time>2015-09-27T20:25:09Z</time></trkpt>
<trkpt lat="25.162263" lon="101.916475">
<time>2015-09-27T20:25:10Z</time></trkpt>
<trkpt lat="25.162233" lon="101.916196">
<time>2015-09-27T20:25:11Z</time></trkpt>
<trkpt lat="25.162214" lon="101.916026">
<time>2015-09-27T20:25:12Z</time></trkpt>
<trkpt lat="25.162194" lon="101.915906">
<time>2015-09-27T20:25:13Z</time></trkpt>
<trkpt lat="25.162144" lon="101.915696">
<time>2015-09-27T20:25:14Z</time></trkpt>
<trkpt lat="25.162024" lon="101.915216">
<time>2015-09-27T20:25:15Z</time></trkpt>
<trkpt lat="25.161954" lon="101.914906">
<time>2015-09-27T20:25:16Z</time></trkpt>
<trkpt lat="25.161885" lon="101.914566">
<time>2015-09-27T20:25:17Z</time></trkpt>
<trkpt lat="25.161805" lon="101.914216">
<time>2015-09-27T20:25:18Z</time></trkpt>
<trkpt lat="25.161755" lon="101.913927">
<time>2015-09-27T20:25:19Z</time></trkpt>
<trkpt lat="25.161735" lon="101.913777">
<time>2015-09-27T20:25:20Z</time></trkpt>
<trkpt lat="25.161735" lon="101.913707">
<time>2015-09-27T20:25:21Z</time></trkpt>
<trkpt lat="25.161745" lon="101.913597">
<time>2015-09-27T20:25:22Z</time></trkpt>
<trkpt lat="25.161755" lon="101.913497">
<time>2015-09-27T20:25:23Z</time></trkpt>
<trkpt lat="25.161795" lon="101.913367">
<time>2015-09-27T20:25:24Z</time></trkpt>
<trkpt lat="25.161905" lon="101.913037">
<time>2015-09-27T20:25:25Z</time></trkpt>
<trkpt lat="25.161996" lon="101.912737">
<time>2015-09-27T20:25:26Z</time></trkpt>
<trkpt lat="25.162076" lon="101.912437">
<time>2015-09-27T20:25:27Z</time></trkpt>
<trkpt lat="25.162146" lon="101.912207">
<time>2015-09-27T20:25:28Z</time></trkpt>
<trkpt lat="25.162196" lon="101.912037">
<time>2015-09-27T20:25:29Z</time></trkpt>
<trkpt lat="25.162286" lon="101.911757">
<time>2015-09-27T20:25:30Z</time></trkpt>
<trkpt lat="25.162316" lon="101.911647">
<time>2015-09-27T20:25:31Z</time></trkpt>
<trkpt lat="25.162376" lon="101.911477">
<time>2015-09-27T20:25:32Z</time></trkpt>
<trkpt lat="25.162416" lon="101.911377">
<time>2015-09-27T20:25:33Z</time></trkpt>
<trkpt lat="25.162466" lon="101.911257">
<time>2015-09-27T20:25:34Z</time></trkpt>
<trkpt lat="25.162546" lon="101.911107">
<time>2015-09-27T20:25:35Z</time></trkpt>
<trkpt lat="25.162616" lon="101.910977">
<time>2015-09-27T20:25:36Z</time></trkpt>
<trkpt lat="25.162747" lon="101.910727">
<time>2015-09-27T20:25:37Z</time></trkpt>
<trkpt lat="25.162757" lon="101.910717">
<time>2015-09-27T20:25:38Z</time></trkpt>
<trkpt lat="25.162837" lon="101.910557">
<time>2015-09-27T20:25:39Z</time></trkpt>
<trkpt lat="25.162937" lon="101.910357">
<time>2015-09-27T20:25:40Z</time></trkpt>
<trkpt lat="25.163007" lon="101.910217">
<time>2015-09-27T20:25:41Z</time></trkpt>
<trkpt lat="25.163027" lon="101.910147">
<time>2015-09-27T20:25:42Z</time></trkpt>
<trkpt lat="25.163047" lon="101.910097">
<time>2015-09-27T20:25:43Z</time></trkpt>
<trkpt lat="25.163077" lon="101.909947">
<time>2015-09-27T20:25:44Z</time></trkpt>
<trkpt lat="25.163097" lon="101.909817">
<time>2015-09-27T20:25:45Z</time></trkpt>
<trkpt lat="25.163087" lon="101.909648">
<time>2015-09-27T20:25:46Z</time></trkpt>
<trkpt lat="25.163067" lon="101.909528">
<time>2015-09-27T20:25:47Z</time></trkpt>
<trkpt lat="25.163017" lon="101.909388">
<time>2015-09-27T20:25:48Z</time></trkpt>
<trkpt lat="25.162947" lon="101.909248">
<time>2015-09-27T20:25:49Z</time></trkpt>
<trkpt lat="25.162867" lon="101.909148">
<time>2015-09-27T20:25:50Z</time></trkpt>
<trkpt lat="25.162727" lon="101.909018">
<time>2015-09-27T20:25:51Z</time></trkpt>
<trkpt lat="25.162627" lon="101.908948">
<time>2015-09-27T20:25:52Z</time></trkpt>
<trkpt lat="25.162517" lon="101.908888">
<time>2015-09-27T20:25:53Z</time></trkpt>
<trkpt lat="25.162257" lon="101.908808">
<time>2015-09-27T20:25:54Z</time></trkpt>
<trkpt lat="25.162017" lon="101.908738">
<time>2015-09-27T20:25:55Z</time></trkpt>
<trkpt lat="25.161837" lon="101.908678">
<time>2015-09-27T20:25:56Z</time></trkpt>
<trkpt lat="25.161667" lon="101.908588">
<time>2015-09-27T20:25:57Z</time></trkpt>
<trkpt lat="25.161557" lon="101.908518">
<time>2015-09-27T20:25:58Z</time></trkpt>
<trkpt lat="25.161508" lon="101.908478">
<time>2015-09-27T20:25:59Z</time></trkpt>
<trkpt lat="25.161448" lon="101.908428">
<time>2015-09-27T20:26:00Z</time></trkpt>
<trkpt lat="25.161428" lon="101.908388">
<time>2015-09-27T20:26:01Z</time></trkpt>
<trkpt lat="25.161398" lon="101.908338">
<time>2015-09-27T20:26:02Z</time></trkpt>
<trkpt lat="25.161388" lon="101.908288">
<time>2015-09-27T20:26:03Z</time></trkpt>
<trkpt lat="25.161378" lon="101.908238">
<time>2015-09-27T20:26:04Z</time></trkpt>
<trkpt lat="25.161368" lon="101.908198">
<time>2015-09-27T20:26:05Z</time></trkpt>
<trkpt lat="25.161378" lon="101.908148">
<time>2015-09-27T20:26:06Z</time></trkpt>
<trkpt lat="25.161388" lon="101.908108">
<time>2015-09-27T20:26:07Z</time></trkpt>
<trkpt lat="25.161398" lon="101.908048">
<time>2015-09-27T20:26:08Z</time></trkpt>
<trkpt lat="25.161418" lon="101.907998">
<time>2015-09-27T20:26:09Z</time></trkpt>
<trkpt lat="25.161478" lon="101.907888">
<time>2015-09-27T20:26:10Z</time></trkpt>
<trkpt lat="25.161548" lon="101.907758">
<time>2015-09-27T20:26:11Z</time></trkpt>
<trkpt lat="25.161658" lon="101.907588">
<time>2015-09-27T20:26:12Z</time></trkpt>
<trkpt lat="25.161758" lon="101.907438">
<time>2015-09-27T20:26:13Z</time></trkpt>
<trkpt lat="25.161888" lon="101.907218">
<time>2015-09-27T20:26:14Z</time></trkpt>
<trkpt lat="25.161998" lon="101.907038">
<time>2015-09-27T20:26:15Z</time></trkpt>
<trkpt lat="25.162048" lon="101.906938">
<time>2015-09-27T20:26:16Z</time></trkpt>
<trkpt lat="25.162088" lon="101.906858">
<time>2015-09-27T20:26:17Z</time></trkpt>
<trkpt lat="25.162108" lon="101.906778">
<time>2015-09-27T20:26:18Z</time></trkpt>
<trkpt lat="25.162128" lon="101.906718">
<time>2015-09-27T20:26:19Z</time></trkpt>
<trkpt lat="25.162148" lon="101.906618">
<time>2015-09-27T20:26:20Z</time></trkpt>
<trkpt lat="25.162148" lon="101.906548">
<time>2015-09-27T20:26:21Z</time></trkpt>
<trkpt lat="25.162158" lon="101.906338">
<time>2015-09-27T20:26:22Z</time></trkpt>
<trkpt lat="25.162138" lon="101.906158">
<time>2015-09-27T20:26:23Z</time></trkpt>
<trkpt lat="25.162128" lon="101.906068">
<time>2015-09-27T20:26:24Z</time></trkpt>
<trkpt lat="25.162118" lon="101.905968">
<time>2015-09-27T20:26:25Z</time></trkpt>
<trkpt lat="25.162098" lon="101.905848">
<time>2015-09-27T20:26:26Z</time></trkpt>
<trkpt lat="25.162068" lon="101.905708">
<time>2015-09-27T20:26:27Z</time></trkpt>
<trkpt lat="25.162048" lon="101.905628">
<time>2015-09-27T20:26:28Z</time></trkpt>
<trkpt lat="25.162028" lon="101.905558">
<time>2015-09-27T20:26:29Z</time></trkpt>
<trkpt lat="25.162008" lon="101.905498">
<time>2015-09-27T20:26:30Z</time></trkpt>
<trkpt lat="25.161978" lon="101.905418">
<time>2015-09-27T20:26:31Z</time></trkpt>
<trkpt lat="25.161898" lon="101.905258">
<time>2015-09-27T20:26:32Z</time></trkpt>
<trkpt lat="25.161898" lon="101.905258">
<time>2015-09-27T20:26:33Z</time></trkpt>
<trkpt lat="25.161858" lon="101.905178">
<time>2015-09-27T20:26:34Z</time></trkpt>
<trkpt lat="25.161808" lon="101.905018">
<time>2015-09-27T20:26:35Z</time></trkpt>
<trkpt lat="25.161798" lon="101.904938">
<time>2015-09-27T20:26:36Z</time></trkpt>
<trkpt lat="25.161788" lon="101.904858">
<time>2015-09-27T20:26:37Z</time></trkpt>
<trkpt lat="25.161788" lon="101.904798">
<time>2015-09-27T20:26:38Z</time></trkpt>
<trkpt lat="25.161799" lon="101.904678">
<time>2015-09-27T20:26:39Z</time></trkpt>
<trkpt lat="25.161819" lon="101.904588">
<time>2015-09-27T20:26:40Z</time></trkpt>
<trkpt lat="25.161849" lon="101.904498">
<time>2015-09-27T20:26:41Z</time></trkpt>
<trkpt lat="25.162149" lon="101.904098">
<time>2015-09-27T20:26:42Z</time></trkpt>
<trkpt lat="25.162309" lon="101.903847">
<time>2015-09-27T20:26:43Z</time></trkpt>
<trkpt lat="25.162309" lon="101.903847">
<time>2015-09-27T20:26:44Z</time></trkpt>
<trkpt lat="25.161629" lon="101.903447">
<time>2015-09-27T20:26:45Z</time></trkpt>
<trkpt lat="25.161129" lon="101.903087">
<time>2015-09-27T20:26:46Z</time></trkpt>
<trkpt lat="25.160539" lon="101.902617">
<time>2015-09-27T20:26:47Z</time></trkpt>
<trkpt lat="25.160539" lon="101.902617">
<time>2015-09-27T20:26:48Z</time></trkpt>
<trkpt lat="25.161429" lon="101.901367">
<time>2015-09-27T20:26:49Z</time></trkpt>
<trkpt lat="25.161429" lon="101.901367">
<time>2015-09-27T20:26:50Z</time></trkpt>
<trkpt lat="25.161049" lon="101.901007">
<time>2015-09-27T20:26:51Z</time></trkpt>
<trkpt lat="25.161049" lon="101.901007">
<time>2015-09-27T20:26:52Z</time></trkpt>
<trkpt lat="25.161109" lon="101.900987">
<time>2015-09-27T20:26:53Z</time></trkpt>
<trkpt lat="25.161399" lon="101.900837">
<time>2015-09-27T20:26:54Z</time></trkpt>
<trkpt lat="25.161529" lon="101.900767">
<time>2015-09-27T20:26:55Z</time></trkpt>
<trkpt lat="25.161649" lon="101.900687">
<time>2015-09-27T20:26:56Z</time></trkpt>
<trkpt lat="25.161749" lon="101.900597">
<time>2015-09-27T20:26:57Z</time></trkpt>
<trkpt lat="25.161859" lon="101.900507">
<time>2015-09-27T20:26:58Z</time></trkpt>
<trkpt lat="25.162049" lon="101.900307">
<time>2015-09-27T20:26:59Z</time></trkpt>
<trkpt lat="25.162339" lon="101.899997">
<time>2015-09-27T20:27:00Z</time></trkpt>
<trkpt lat="25.162739" lon="101.899516">
<time>2015-09-27T20:27:01Z</time></trkpt>
<trkpt lat="25.162879" lon="101.899356">
<time>2015-09-27T20:27:02Z</time></trkpt>
<trkpt lat="25.163059" lon="101.899146">
<time>2015-09-27T20:27:03Z</time></trkpt>
<trkpt lat="25.163169" lon="101.899036">
<time>2015-09-27T20:27:04Z</time></trkpt>
<trkpt lat="25.163229" lon="101.898966">
<time>2015-09-27T20:27:05Z</time></trkpt>
<trkpt lat="25.163309" lon="101.898896">
<time>2015-09-27T20:27:06Z</time></trkpt>
<trkpt lat="25.163439" lon="101.898776">
<time>2015-09-27T20:27:07Z</time></trkpt>
<trkpt lat="25.163639" lon="101.898646">
<time>2015-09-27T20:27:08Z</time></trkpt>
<trkpt lat="25.163729" lon="101.898596">
<time>2015-09-27T20:27:09Z</time></trkpt>
<trkpt lat="25.163809" lon="101.898526">
<time>2015-09-27T20:27:10Z</time></trkpt>
<trkpt lat="25.163849" lon="101.898486">
<time>2015-09-27T20:27:11Z</time></trkpt>
<trkpt lat="25.163889" lon="101.898426">
<time>2015-09-27T20:27:12Z</time></trkpt>
<trkpt lat="25.163929" lon="101.898356">
<time>2015-09-27T20:27:13Z</time></trkpt>
<trkpt lat="25.163939" lon="101.898306">
<time>2015-09-27T20:27:14Z</time></trkpt>
<trkpt lat="25.163949" lon="101.898256">
<time>2015-09-27T20:27:15Z</time></trkpt>
<trkpt lat="25.163929" lon="101.898176">
<time>2015-09-27T20:27:16Z</time></trkpt>
<trkpt lat="25.163909" lon="101.898106">
<time>2015-09-27T20:27:17Z</time></trkpt>
<trkpt lat="25.163879" lon="101.898026">
<time>2015-09-27T20:27:18Z</time></trkpt>
<trkpt lat="25.163839" lon="101.897946">
<time>2015-09-27T20:27:19Z</time></trkpt>
<trkpt lat="25.163699" lon="101.897756">
<time>2015-09-27T20:27:20Z</time></trkpt>
<trkpt lat="25.163559" lon="101.897586">
<time>2015-09-27T20:27:21Z</time></trkpt>
<trkpt lat="25.163499" lon="101.897506">
<time>2015-09-27T20:27:22Z</time></trkpt>
<trkpt lat="25.163469" lon="101.897445">
<time>2015-09-27T20:27:23Z</time></trkpt>
<trkpt lat="25.163439" lon="101.897355">
<time>2015-09-27T20:27:24Z</time></trkpt>
<trkpt lat="25.163419" lon="101.897285">
<time>2015-09-27T20:27:25Z</time></trkpt>
<trkpt lat="25.163419" lon="101.897205">
<time>2015-09-27T20:27:26Z</time></trkpt>
<trkpt lat="25.163429" lon="101.897135">
<time>2015-09-27T20:27:27Z</time></trkpt>
<trkpt lat="25.163449" lon="101.897065">
<time>2015-09-27T20:27:28Z</time></trkpt>
<trkpt lat="25.163469" lon="101.897005">
<time>2015-09-27T20:27:29Z</time></trkpt>
<trkpt lat="25.163509" lon="101.896935">
<time>2015-09-27T20:27:30Z</time></trkpt>
<trkpt lat="25.163559" lon="101.896875">
<time>2015-09-27T20:27:31Z</time></trkpt>
<trkpt lat="25.163638" lon="101.896815">
<time>2015-09-27T20:27:32Z</time></trkpt>
<trkpt lat="25.163758" lon="101.896725">
<time>2015-09-27T20:27:33Z</time></trkpt>
<trkpt lat="25.163908" lon="101.896635">
<time>2015-09-27T20:27:34Z</time></trkpt>
<trkpt lat="25.164078" lon="101.896545">
<time>2015-09-27T20:27:35Z</time></trkpt>
<trkpt lat="25.164178" lon="101.896495">
<time>2015-09-27T20:27:36Z</time></trkpt>
<trkpt lat="25.164358" lon="101.896415">
<time>2015-09-27T20:27:37Z</time></trkpt>
<trkpt lat="25.164588" lon="101.896315">
<time>2015-09-27T20:27:38Z</time></trkpt>
<trkpt lat="25.164818" lon="101.896215">
<time>2015-09-27T20:27:39Z</time></trkpt>
<trkpt lat="25.164928" lon="101.896165">
<time>2015-09-27T20:27:40Z</time></trkpt>
<trkpt lat="25.165008" lon="101.896125">
<time>2015-09-27T20:27:41Z</time></trkpt>
<trkpt lat="25.165078" lon="101.896085">
<time>2015-09-27T20:27:42Z</time></trkpt>
<trkpt lat="25.165148" lon="101.896035">
<time>2015-09-27T20:27:43Z</time></trkpt>
<trkpt lat="25.165198" lon="101.895975">
<time>2015-09-27T20:27:44Z</time></trkpt>
<trkpt lat="25.165248" lon="101.895905">
<time>2015-09-27T20:27:45Z</time></trkpt>
<trkpt lat="25.165258" lon="101.895865">
<time>2015-09-27T20:27:46Z</time></trkpt>
<trkpt lat="25.165278" lon="101.895805">
<time>2015-09-27T20:27:47Z</time></trkpt>
<trkpt lat="25.165288" lon="101.895755">
<time>2015-09-27T20:27:48Z</time></trkpt>
<trkpt lat="25.165278" lon="101.895685">
<time>2015-09-27T20:27:49Z</time></trkpt>
<trkpt lat="25.165268" lon="101.895625">
<time>2015-09-27T20:27:50Z</time></trkpt>
<trkpt lat="25.165258" lon="101.895584">
<time>2015-09-27T20:27:51Z</time></trkpt>
<trkpt lat="25.165238" lon="101.895514">
<time>2015-09-27T20:27:52Z</time></trkpt>
<trkpt lat="25.165208" lon="101.895464">
<time>2015-09-27T20:27:53Z</time></trkpt>
<trkpt lat="25.165178" lon="101.895424">
<time>2015-09-27T20:27:54Z</time></trkpt>
<trkpt lat="25.165138" lon="101.895374">
<time>2015-09-27T20:27:55Z</time></trkpt>
<trkpt lat="25.165088" lon="101.895324">
<time>2015-09-27T20:27:56Z</time></trkpt>
<trkpt lat="25.165008" lon="101.895264">
<time>2015-09-27T20:27:57Z</time></trkpt>
<trkpt lat="25.164838" lon="101.895164">
<time>2015-09-27T20:27:58Z</time></trkpt>
<trkpt lat="25.164658" lon="101.895084">
<time>2015-09-27T20:27:59Z</time></trkpt>
<trkpt lat="25.164488" lon="101.894994">
<time>2015-09-27T20:28:00Z</time></trkpt>
<trkpt lat="25.164338" lon="101.894924">
<time>2015-09-27T20:28:01Z</time></trkpt>
<trkpt lat="25.164248" lon="101.894874">
<time>2015-09-27T20:28:02Z</time></trkpt>
<trkpt lat="25.164148" lon="101.894804">
<time>2015-09-27T20:28:03Z</time></trkpt>
<trkpt lat="25.164078" lon="101.894744">
<time>2015-09-27T20:28:04Z</time></trkpt>
<trkpt lat="25.164018" lon="101.894684">
<time>2015-09-27T20:28:05Z</time></trkpt>
<trkpt lat="25.163958" lon="101.894604">
<time>2015-09-27T20:28:06Z</time></trkpt>
<trkpt lat="25.163898" lon="101.894524">
<time>2015-09-27T20:28:07Z</time></trkpt>
<trkpt lat="25.163848" lon="101.894424">
<time>2015-09-27T20:28:08Z</time></trkpt>
<trkpt lat="25.163788" lon="101.894304">
<time>2015-09-27T20:28:09Z</time></trkpt>
<trkpt lat="25.163708" lon="101.894104">
<time>2015-09-27T20:28:10Z</time></trkpt>
<trkpt lat="25.163578" lon="101.893773">
<time>2015-09-27T20:28:11Z</time></trkpt>
<trkpt lat="25.163408" lon="101.893433">
<time>2015-09-27T20:28:12Z</time></trkpt>
<trkpt lat="25.163228" lon="101.893023">
<time>2015-09-27T20:28:13Z</time></trkpt>
<trkpt lat="25.163118" lon="101.892773">
<time>2015-09-27T20:28:14Z</time></trkpt>
<trkpt lat="25.163037" lon="101.892663">
<time>2015-09-27T20:28:15Z</time></trkpt>
<trkpt lat="25.162957" lon="101.892583">
<time>2015-09-27T20:28:16Z</time></trkpt>
<trkpt lat="25.162907" lon="101.892533">
<time>2015-09-27T20:28:17Z</time></trkpt>
<trkpt lat="25.162837" lon="101.892483">
<time>2015-09-27T20:28:18Z</time></trkpt>
<trkpt lat="25.162767" lon="101.892453">
<time>2015-09-27T20:28:19Z</time></trkpt>
<trkpt lat="25.162647" lon="101.892433">
<time>2015-09-27T20:28:20Z</time></trkpt>
<trkpt lat="25.162507" lon="101.892413">
<time>2015-09-27T20:28:21Z</time></trkpt>
<trkpt lat="25.162367" lon="101.892403">
<time>2015-09-27T20:28:22Z</time></trkpt>
<trkpt lat="25.162257" lon="101.892403">
<time>2015-09-27T20:28:23Z</time></trkpt>
<trkpt lat="25.162017" lon="101.892413">
<time>2015-09-27T20:28:24Z</time></trkpt>
<trkpt lat="25.161807" lon="101.892413">
<time>2015-09-27T20:28:25Z</time></trkpt>
<trkpt lat="25.161677" lon="101.892403">
<time>2015-09-27T20:28:26Z</time></trkpt>
<trkpt lat="25.161567" lon="101.892393">
<time>2015-09-27T20:28:27Z</time></trkpt>
<trkpt lat="25.161487" lon="101.892363">
<time>2015-09-27T20:28:28Z</time></trkpt>
<trkpt lat="25.161397" lon="101.892323">
<time>2015-09-27T20:28:29Z</time></trkpt>
<trkpt lat="25.161317" lon="101.892283">
<time>2015-09-27T20:28:30Z</time></trkpt>
<trkpt lat="25.161237" lon="101.892233">
<time>2015-09-27T20:28:31Z</time></trkpt>
<trkpt lat="25.161177" lon="101.892172">
<time>2015-09-27T20:28:32Z</time></trkpt>
<trkpt lat="25.161107" lon="101.892102">
<time>2015-09-27T20:28:33Z</time></trkpt>
<trkpt lat="25.161047" lon="101.892022">
<time>2015-09-27T20:28:34Z</time></trkpt>
<trkpt lat="25.160997" lon="101.891952">
<time>2015-09-27T20:28:35Z</time></trkpt>
<trkpt lat="25.160947" lon="101.891872">
<time>2015-09-27T20:28:36Z</time></trkpt>
<trkpt lat="25.160897" lon="101.891782">
<time>2015-09-27T20:28:37Z</time></trkpt>
<trkpt lat="25.160857" lon="101.891692">
<time>2015-09-27T20:28:38Z</time></trkpt>
<trkpt lat="25.160837" lon="101.891612">
<time>2015-09-27T20:28:39Z</time></trkpt>
<trkpt lat="25.160817" lon="101.891522">
<time>2015-09-27T20:28:40Z</time></trkpt>
<trkpt lat="25.160797" lon="101.891362">
<time>2015-09-27T20:28:41Z</time></trkpt>
<trkpt lat="25.160767" lon="101.891162">
<time>2015-09-27T20:28:42Z</time></trkpt>
<trkpt lat="25.160757" lon="101.890992">
<time>2015-09-27T20:28:43Z</time></trkpt>
<trkpt lat="25.160727" lon="101.890852">
<time>2015-09-27T20:28:44Z</time></trkpt>
<trkpt lat="25.160677" lon="101.890741">
<time>2015-09-27T20:28:45Z</time></trkpt>
<trkpt lat="25.160627" lon="101.890641">
<time>2015-09-27T20:28:46Z</time></trkpt>
<trkpt lat="25.160537" lon="101.890541">
<time>2015-09-27T20:28:47Z</time></trkpt>
<trkpt lat="25.160477" lon="101.890481">
<time>2015-09-27T20:28:48Z</time></trkpt>
<trkpt lat="25.160317" lon="101.890371">
<time>2015-09-27T20:28:49Z</time></trkpt>
<trkpt lat="25.160037" lon="101.890201">
<time>2015-09-27T20:28:50Z</time></trkpt>
<trkpt lat="25.159907" lon="101.890101">
<time>2015-09-27T20:28:51Z</time></trkpt>
<trkpt lat="25.159777" lon="101.889991">
<time>2015-09-27T20:28:52Z</time></trkpt>
<trkpt lat="25.159657" lon="101.889851">
<time>2015-09-27T20:28:53Z</time></trkpt>
<trkpt lat="25.159556" lon="101.889711">
<time>2015-09-27T20:28:54Z</time></trkpt>
<trkpt lat="25.159506" lon="101.889591">
<time>2015-09-27T20:28:55Z</time></trkpt>
<trkpt lat="25.159456" lon="101.88946">
<time>2015-09-27T20:28:56Z</time></trkpt>
<trkpt lat="25.159436" lon="101.88935">
<time>2015-09-27T20:28:57Z</time></trkpt>
<trkpt lat="25.159416" lon="101.88917">
<time>2015-09-27T20:28:58Z</time></trkpt>
<trkpt lat="25.159406" lon="101.88891">
<time>2015-09-27T20:28:59Z</time></trkpt>
<trkpt lat="25.159396" lon="101.8887">
<time>2015-09-27T20:29:00Z</time></trkpt>
<trkpt lat="25.159396" lon="101.8885">
<time>2015-09-27T20:29:01Z</time></trkpt>
<trkpt lat="25.159406" lon="101.88837">
<time>2015-09-27T20:29:02Z</time></trkpt>
<trkpt lat="25.159426" lon="101.888249">
<time>2015-09-27T20:29:03Z</time></trkpt>
<trkpt lat="25.159446" lon="101.888089">
<time>2015-09-27T20:29:04Z</time></trkpt>
<trkpt lat="25.159476" lon="101.887909">
<time>2015-09-27T20:29:05Z</time></trkpt>
<trkpt lat="25.159486" lon="101.887779">
<time>2015-09-27T20:29:06Z</time></trkpt>
<trkpt lat="25.159495" lon="101.887659">
<time>2015-09-27T20:29:07Z</time></trkpt>
<trkpt lat="25.159485" lon="101.887549">
<time>2015-09-27T20:29:08Z</time></trkpt>
<trkpt lat="25.159455" lon="101.887459">
<time>2015-09-27T20:29:09Z</time></trkpt>
<trkpt lat="25.159435" lon="101.887379">
<time>2015-09-27T20:29:10Z</time></trkpt>
<trkpt lat="25.159395" lon="101.887299">
<time>2015-09-27T20:29:11Z</time></trkpt>
<trkpt lat="25.159345" lon="101.887208">
<time>2015-09-27T20:29:12Z</time></trkpt>
<trkpt lat="25.159285" lon="101.887138">
<time>2015-09-27T20:29:13Z</time></trkpt>
<trkpt lat="25.159225" lon="101.887068">
<time>2015-09-27T20:29:14Z</time></trkpt>
<trkpt lat="25.159155" lon="101.886988">
<time>2015-09-27T20:29:15Z</time></trkpt>
<trkpt lat="25.159055" lon="101.886898">
<time>2015-09-27T20:29:16Z</time></trkpt>
<trkpt lat="25.158945" lon="101.886788">
<time>2015-09-27T20:29:17Z</time></trkpt>
<trkpt lat="25.158805" lon="101.886658">
<time>2015-09-27T20:29:18Z</time></trkpt>
<trkpt lat="25.158725" lon="101.886568">
<time>2015-09-27T20:29:19Z</time></trkpt>
<trkpt lat="25.158675" lon="101.886498">
<time>2015-09-27T20:29:20Z</time></trkpt>
<trkpt lat="25.158625" lon="101.886408">
<time>2015-09-27T20:29:21Z</time></trkpt>
<trkpt lat="25.158535" lon="101.886218">
<time>2015-09-27T20:29:22Z</time></trkpt>
<trkpt lat="25.158374" lon="101.885827">
<time>2015-09-27T20:29:23Z</time></trkpt>
<trkpt lat="25.158274" lon="101.885537">
<time>2015-09-27T20:29:24Z</time></trkpt>
<trkpt lat="25.158224" lon="101.885347">
<time>2015-09-27T20:29:25Z</time></trkpt>
<trkpt lat="25.158194" lon="101.885207">
<time>2015-09-27T20:29:26Z</time></trkpt>
<trkpt lat="25.158184" lon="101.885117">
<time>2015-09-27T20:29:27Z</time></trkpt>
<trkpt lat="25.158184" lon="101.885016">
<time>2015-09-27T20:29:28Z</time></trkpt>
<trkpt lat="25.158184" lon="101.884936">
<time>2015-09-27T20:29:29Z</time></trkpt>
<trkpt lat="25.158184" lon="101.884636">
<time>2015-09-27T20:29:30Z</time></trkpt>
<trkpt lat="25.158193" lon="101.884286">
<time>2015-09-27T20:29:31Z</time></trkpt>
<trkpt lat="25.158203" lon="101.883975">
<time>2015-09-27T20:29:32Z</time></trkpt>
<trkpt lat="25.158223" lon="101.883755">
<time>2015-09-27T20:29:33Z</time></trkpt>
<trkpt lat="25.158223" lon="101.883605">
<time>2015-09-27T20:29:34Z</time></trkpt>
<trkpt lat="25.158223" lon="101.883495">
<time>2015-09-27T20:29:35Z</time></trkpt>
<trkpt lat="25.158213" lon="101.883405">
<time>2015-09-27T20:29:36Z</time></trkpt>
<trkpt lat="25.158193" lon="101.883315">
<time>2015-09-27T20:29:37Z</time></trkpt>
<trkpt lat="25.158163" lon="101.883255">
<time>2015-09-27T20:29:38Z</time></trkpt>
<trkpt lat="25.158133" lon="101.883194">
<time>2015-09-27T20:29:39Z</time></trkpt>
<trkpt lat="25.158133" lon="101.883184">
<time>2015-09-27T20:29:40Z</time></trkpt>
<trkpt lat="25.158083" lon="101.883114">
<time>2015-09-27T20:29:41Z</time></trkpt>
<trkpt lat="25.158033" lon="101.883054">
<time>2015-09-27T20:29:42Z</time></trkpt>
<trkpt lat="25.157963" lon="101.882984">
<time>2015-09-27T20:29:43Z</time></trkpt>
<trkpt lat="25.157883" lon="101.882934">
<time>2015-09-27T20:29:44Z</time></trkpt>
<trkpt lat="25.157813" lon="101.882904">
<time>2015-09-27T20:29:45Z</time></trkpt>
<trkpt lat="25.157763" lon="101.882884">
<time>2015-09-27T20:29:46Z</time></trkpt>
<trkpt lat="25.157673" lon="101.882884">
<time>2015-09-27T20:29:47Z</time></trkpt>
<trkpt lat="25.157583" lon="101.882894">
<time>2015-09-27T20:29:48Z</time></trkpt>
<trkpt lat="25.157483" lon="101.882914">
<time>2015-09-27T20:29:49Z</time></trkpt>
<trkpt lat="25.157423" lon="101.882934">
<time>2015-09-27T20:29:50Z</time></trkpt>
<trkpt lat="25.157373" lon="101.882964">
<time>2015-09-27T20:29:51Z</time></trkpt>
<trkpt lat="25.157323" lon="101.883014">
<time>2015-09-27T20:29:52Z</time></trkpt>
<trkpt lat="25.157263" lon="101.883054">
<time>2015-09-27T20:29:53Z</time></trkpt>
<trkpt lat="25.157183" lon="101.883144">
<time>2015-09-27T20:29:54Z</time></trkpt>
<trkpt lat="25.156963" lon="101.883415">
<time>2015-09-27T20:29:55Z</time></trkpt>
<trkpt lat="25.156763" lon="101.883635">
<time>2015-09-27T20:29:56Z</time></trkpt>
<trkpt lat="25.156613" lon="101.883815">
<time>2015-09-27T20:29:57Z</time></trkpt>
<trkpt lat="25.156363" lon="101.884106">
<time>2015-09-27T20:29:58Z</time></trkpt>
<trkpt lat="25.156294" lon="101.884176">
<time>2015-09-27T20:29:59Z</time></trkpt>
<trkpt lat="25.156194" lon="101.884276">
<time>2015-09-27T20:30:00Z</time></trkpt>
<trkpt lat="25.156124" lon="101.884346">
<time>2015-09-27T20:30:01Z</time></trkpt>
<trkpt lat="25.156064" lon="101.884396">
<time>2015-09-27T20:30:02Z</time></trkpt>
<trkpt lat="25.155994" lon="101.884436">
<time>2015-09-27T20:30:03Z</time></trkpt>
<trkpt lat="25.155924" lon="101.884456">
<time>2015-09-27T20:30:04Z</time></trkpt>
<trkpt lat="25.155854" lon="101.884456">
<time>2015-09-27T20:30:05Z</time></trkpt>
<trkpt lat="25.155804" lon="101.884466">
<time>2015-09-27T20:30:06Z</time></trkpt>
<trkpt lat="25.155734" lon="101.884446">
<time>2015-09-27T20:30:07Z</time></trkpt>
<trkpt lat="25.155614" lon="101.884416">
<time>2015-09-27T20:30:08Z</time></trkpt>
<trkpt lat="25.155344" lon="101.884316">
<time>2015-09-27T20:30:09Z</time></trkpt>
<trkpt lat="25.155074" lon="101.884206">
<time>2015-09-27T20:30:10Z</time></trkpt>
<trkpt lat="25.154824" lon="101.884106">
<time>2015-09-27T20:30:11Z</time></trkpt>
<trkpt lat="25.154603" lon="101.884005">
<time>2015-09-27T20:30:12Z</time></trkpt>
<trkpt lat="25.154393" lon="101.883915">
<time>2015-09-27T20:30:13Z</time></trkpt>
<trkpt lat="25.154263" lon="101.883845">
<time>2015-09-27T20:30:14Z</time></trkpt>
<trkpt lat="25.154143" lon="101.883765">
<time>2015-09-27T20:30:15Z</time></trkpt>
<trkpt lat="25.154043" lon="101.883675">
<time>2015-09-27T20:30:16Z</time></trkpt>
<trkpt lat="25.153973" lon="101.883605">
<time>2015-09-27T20:30:17Z</time></trkpt>
<trkpt lat="25.153903" lon="101.883515">
<time>2015-09-27T20:30:18Z</time></trkpt>
<trkpt lat="25.153853" lon="101.883425">
<time>2015-09-27T20:30:19Z</time></trkpt>
<trkpt lat="25.153803" lon="101.883325">
<time>2015-09-27T20:30:20Z</time></trkpt>
<trkpt lat="25.153763" lon="101.883215">
<time>2015-09-27T20:30:21Z</time></trkpt>
<trkpt lat="25.153733" lon="101.883054">
<time>2015-09-27T20:30:22Z</time></trkpt>
<trkpt lat="25.153673" lon="101.882734">
<time>2015-09-27T20:30:23Z</time></trkpt>
<trkpt lat="25.153622" lon="101.882474">
<time>2015-09-27T20:30:24Z</time></trkpt>
<trkpt lat="25.153592" lon="101.882354">
<time>2015-09-27T20:30:25Z</time></trkpt>
<trkpt lat="25.153562" lon="101.882254">
<time>2015-09-27T20:30:26Z</time></trkpt>
<trkpt lat="25.153522" lon="101.882153">
<time>2015-09-27T20:30:27Z</time></trkpt>
<trkpt lat="25.153482" lon="101.882083">
<time>2015-09-27T20:30:28Z</time></trkpt>
<trkpt lat="25.153462" lon="101.882023">
<time>2015-09-27T20:30:29Z</time></trkpt>
<trkpt lat="25.153412" lon="101.881973">
<time>2015-09-27T20:30:30Z</time></trkpt>
<trkpt lat="25.153332" lon="101.881883">
<time>2015-09-27T20:30:31Z</time></trkpt>
<trkpt lat="25.153232" lon="101.881773">
<time>2015-09-27T20:30:32Z</time></trkpt>
<trkpt lat="25.153102" lon="101.881663">
<time>2015-09-27T20:30:33Z</time></trkpt>
<trkpt lat="25.152972" lon="101.881543">
<time>2015-09-27T20:30:34Z</time></trkpt>
<trkpt lat="25.152882" lon="101.881473">
<time>2015-09-27T20:30:35Z</time></trkpt>
<trkpt lat="25.152832" lon="101.881443">
<time>2015-09-27T20:30:36Z</time></trkpt>
<trkpt lat="25.152802" lon="101.881423">
<time>2015-09-27T20:30:37Z</time></trkpt>
<trkpt lat="25.152782" lon="101.881423">
<time>2015-09-27T20:30:38Z</time></trkpt>
<trkpt lat="25.152752" lon="101.881413">
<time>2015-09-27T20:30:39Z</time></trkpt>
<trkpt lat="25.152702" lon="101.881413">
<time>2015-09-27T20:30:40Z</time></trkpt>
<trkpt lat="25.152662" lon="101.881423">
<time>2015-09-27T20:30:41Z</time></trkpt>
<trkpt lat="25.152622" lon="101.881433">
<time>2015-09-27T20:30:42Z</time></trkpt>
<trkpt lat="25.152572" lon="101.881453">
<time>2015-09-27T20:30:43Z</time></trkpt>
<trkpt lat="25.152542" lon="101.881473">
<time>2015-09-27T20:30:44Z</time></trkpt>
<trkpt lat="25.152502" lon="101.881513">
<time>2015-09-27T20:30:45Z</time></trkpt>
<trkpt lat="25.152462" lon="101.881553">
<time>2015-09-27T20:30:46Z</time></trkpt>
<trkpt lat="25.152352" lon="101.881663">
<time>2015-09-27T20:30:47Z</time></trkpt>
<trkpt lat="25.152172" lon="101.881863">
<time>2015-09-27T20:30:48Z</time></trkpt>
<trkpt lat="25.152012" lon="101.882033">
<time>2015-09-27T20:30:49Z</time></trkpt>
<trkpt lat="25.151822" lon="101.882234">
<time>2015-09-27T20:30:50Z</time></trkpt>
<trkpt lat="25.151663" lon="101.882414">
<time>2015-09-27T20:30:51Z</time></trkpt>
<trkpt lat="25.151523" lon="101.882564">
<time>2015-09-27T20:30:52Z</time></trkpt>
<trkpt lat="25.151433" lon="101.882644">
<time>2015-09-27T20:30:53Z</time></trkpt>
<trkpt lat="25.151293" lon="101.882744">
<time>2015-09-27T20:30:54Z</time></trkpt>
<trkpt lat="25.151123" lon="101.882844">
<time>2015-09-27T20:30:55Z</time></trkpt>
<trkpt lat="25.150973" lon="101.882934">
<time>2015-09-27T20:30:56Z</time></trkpt>
<trkpt lat="25.150843" lon="101.883004">
<time>2015-09-27T20:30:57Z</time></trkpt>
<trkpt lat="25.150693" lon="101.883075">
<time>2015-09-27T20:30:58Z</time></trkpt>
<trkpt lat="25.150513" lon="101.883135">
<time>2015-09-27T20:30:59Z</time></trkpt>
<trkpt lat="25.150333" lon="101.883185">
<time>2015-09-27T20:31:00Z</time></trkpt>
<trkpt lat="25.150223" lon="101.883215">
<time>2015-09-27T20:31:01Z</time></trkpt>
<trkpt lat="25.150143" lon="101.883215">
<time>2015-09-27T20:31:02Z</time></trkpt>
<trkpt lat="25.150053" lon="101.883195">
<time>2015-09-27T20:31:03Z</time></trkpt>
<trkpt lat="25.149993" lon="101.883175">
<time>2015-09-27T20:31:04Z</time></trkpt>
<trkpt lat="25.149953" lon="101.883155">
<time>2015-09-27T20:31:05Z</time></trkpt>
<trkpt lat="25.149903" lon="101.883115">
<time>2015-09-27T20:31:06Z</time></trkpt>
<trkpt lat="25.149843" lon="101.883055">
<time>2015-09-27T20:31:07Z</time></trkpt>
<trkpt lat="25.149783" lon="101.882994">
<time>2015-09-27T20:31:08Z</time></trkpt>
<trkpt lat="25.149713" lon="101.882894">
<time>2015-09-27T20:31:09Z</time></trkpt>
<trkpt lat="25.149503" lon="101.882604">
<time>2015-09-27T20:31:10Z</time></trkpt>
<trkpt lat="25.149343" lon="101.882404">
<time>2015-09-27T20:31:11Z</time></trkpt>
<trkpt lat="25.149142" lon="101.882134">
<time>2015-09-27T20:31:12Z</time></trkpt>
<trkpt lat="25.149042" lon="101.881983">
<time>2015-09-27T20:31:13Z</time></trkpt>
<trkpt lat="25.148942" lon="101.881793">
<time>2015-09-27T20:31:14Z</time></trkpt>
<trkpt lat="25.148862" lon="101.881643">
<time>2015-09-27T20:31:15Z</time></trkpt>
<trkpt lat="25.148742" lon="101.881393">
<time>2015-09-27T20:31:16Z</time></trkpt>
<trkpt lat="25.148672" lon="101.881263">
<time>2015-09-27T20:31:17Z</time></trkpt>
<trkpt lat="25.148612" lon="101.881152">
<time>2015-09-27T20:31:18Z</time></trkpt>
<trkpt lat="25.148502" lon="101.880992">
<time>2015-09-27T20:31:19Z</time></trkpt>
<trkpt lat="25.148371" lon="101.880822">
<time>2015-09-27T20:31:20Z</time></trkpt>
<trkpt lat="25.148311" lon="101.880742">
<time>2015-09-27T20:31:21Z</time></trkpt>
<trkpt lat="25.148241" lon="101.880672">
<time>2015-09-27T20:31:22Z</time></trkpt>
<trkpt lat="25.148201" lon="101.880632">
<time>2015-09-27T20:31:23Z</time></trkpt>
<trkpt lat="25.148111" lon="101.880552">
<time>2015-09-27T20:31:24Z</time></trkpt>
<trkpt lat="25.148031" lon="101.880502">
<time>2015-09-27T20:31:25Z</time></trkpt>
<trkpt lat="25.147981" lon="101.880472">
<time>2015-09-27T20:31:26Z</time></trkpt>
<trkpt lat="25.147921" lon="101.880452">
<time>2015-09-27T20:31:27Z</time></trkpt>
<trkpt lat="25.147851" lon="101.880432">
<time>2015-09-27T20:31:28Z</time></trkpt>
<trkpt lat="25.147761" lon="101.880412">
<time>2015-09-27T20:31:29Z</time></trkpt>
<trkpt lat="25.147591" lon="101.880382">
<time>2015-09-27T20:31:30Z</time></trkpt>
<trkpt lat="25.147451" lon="101.880352">
<time>2015-09-27T20:31:31Z</time></trkpt>
<trkpt lat="25.147371" lon="101.880331">
<time>2015-09-27T20:31:32Z</time></trkpt>
<trkpt lat="25.147281" lon="101.880291">
<time>2015-09-27T20:31:33Z</time></trkpt>
<trkpt lat="25.147211" lon="101.880261">
<time>2015-09-27T20:31:34Z</time></trkpt>
<trkpt lat="25.147171" lon="101.880231">
<time>2015-09-27T20:31:35Z</time></trkpt>
<trkpt lat="25.147131" lon="101.880211">
<time>2015-09-27T20:31:36Z</time></trkpt>
<trkpt lat="25.147091" lon="101.880161">
<time>2015-09-27T20:31:37Z</time></trkpt>
<trkpt lat="25.147001" lon="101.880071">
<time>2015-09-27T20:31:38Z</time></trkpt>
<trkpt lat="25.146901" lon="101.879971">
<time>2015-09-27T20:31:39Z</time></trkpt>
<trkpt lat="25.146851" lon="101.879911">
<time>2015-09-27T20:31:40Z</time></trkpt>
<trkpt lat="25.146761" lon="101.879861">
<time>2015-09-27T20:31:41Z</time></trkpt>
<trkpt lat="25.146691" lon="101.879811">
<time>2015-09-27T20:31:42Z</time></trkpt>
<trkpt lat="25.146591" lon="101.879771">
<time>2015-09-27T20:31:43Z</time></trkpt>
<trkpt lat="25.146481" lon="101.879731">
<time>2015-09-27T20:31:44Z</time></trkpt>
<trkpt lat="25.146361" lon="101.879701">
<time>2015-09-27T20:31:45Z</time></trkpt>
<trkpt lat="25.146251" lon="101.879681">
<time>2015-09-27T20:31:46Z</time></trkpt>
<trkpt lat="25.146171" lon="101.879681">
<time>2015-09-27T20:31:47Z</time></trkpt>
<trkpt lat="25.146001" lon="101.879661">
<time>2015-09-27T20:31:48Z</time></trkpt>
<trkpt lat="25.145831" lon="101.879661">
<time>2015-09-27T20:31:49Z</time></trkpt>
<trkpt lat="25.145721" lon="101.879651">
<time>2015-09-27T20:31:50Z</time></trkpt>
<trkpt lat="25.145591" lon="101.879651">
<time>2015-09-27T20:31:51Z</time></trkpt>
<trkpt lat="25.145491" lon="101.879641">
<time>2015-09-27T20:31:52Z</time></trkpt>
<trkpt lat="25.145421" lon="101.879631">
<time>2015-09-27T20:31:53Z</time></trkpt>
<trkpt lat="25.145341" lon="101.879601">
<time>2015-09-27T20:31:54Z</time></trkpt>
<trkpt lat="25.145271" lon="101.879581">
<time>2015-09-27T20:31:55Z</time></trkpt>
<trkpt lat="25.145191" lon="101.879541">
<time>2015-09-27T20:31:56Z</time></trkpt>
<trkpt lat="25.145081" lon="101.879491">
<time>2015-09-27T20:31:57Z</time></trkpt>
<trkpt lat="25.144981" lon="101.87943">
<time>2015-09-27T20:31:58Z</time></trkpt>
<trkpt lat="25.144931" lon="101.8794">
<time>2015-09-27T20:31:59Z</time></trkpt>
<trkpt lat="25.14483" lon="101.87933">
<time>2015-09-27T20:32:00Z</time></trkpt>
<trkpt lat="25.14473" lon="101.87924">
<time>2015-09-27T20:32:01Z</time></trkpt>
<trkpt lat="25.14467" lon="101.87917">
<time>2015-09-27T20:32:02Z</time></trkpt>
<trkpt lat="25.14461" lon="101.87911">
<time>2015-09-27T20:32:03Z</time></trkpt>
<trkpt lat="25.14455" lon="101.87902">
<time>2015-09-27T20:32:04Z</time></trkpt>
<trkpt lat="25.1445" lon="101.87894">
<time>2015-09-27T20:32:05Z</time></trkpt>
<trkpt lat="25.14444" lon="101.87881">
<time>2015-09-27T20:32:06Z</time></trkpt>
<trkpt lat="25.14441" lon="101.87872">
<time>2015-09-27T20:32:07Z</time></trkpt>
<trkpt lat="25.14439" lon="101.878649">
<time>2015-09-27T20:32:08Z</time></trkpt>
<trkpt lat="25.14438" lon="101.878589">
<time>2015-09-27T20:32:09Z</time></trkpt>
<trkpt lat="25.14437" lon="101.878509">
<time>2015-09-27T20:32:10Z</time></trkpt>
<trkpt lat="25.14437" lon="101.878439">
<time>2015-09-27T20:32:11Z</time></trkpt>
<trkpt lat="25.14437" lon="101.878379">
<time>2015-09-27T20:32:12Z</time></trkpt>
<trkpt lat="25.14438" lon="101.878299">
<time>2015-09-27T20:32:13Z</time></trkpt>
<trkpt lat="25.144399" lon="101.878209">
<time>2015-09-27T20:32:14Z</time></trkpt>
<trkpt lat="25.144409" lon="101.878139">
<time>2015-09-27T20:32:15Z</time></trkpt>
<trkpt lat="25.144419" lon="101.878069">
<time>2015-09-27T20:32:16Z</time></trkpt>
<trkpt lat="25.144419" lon="101.878009">
<time>2015-09-27T20:32:17Z</time></trkpt>
<trkpt lat="25.144409" lon="101.877969">
<time>2015-09-27T20:32:18Z</time></trkpt>
<trkpt lat="25.144409" lon="101.877919">
<time>2015-09-27T20:32:19Z</time></trkpt>
<trkpt lat="25.144399" lon="101.877868">
<time>2015-09-27T20:32:20Z</time></trkpt>
<trkpt lat="25.144379" lon="101.877798">
<time>2015-09-27T20:32:21Z</time></trkpt>
<trkpt lat="25.144349" lon="101.877718">
<time>2015-09-27T20:32:22Z</time></trkpt>
<trkpt lat="25.144319" lon="101.877638">
<time>2015-09-27T20:32:23Z</time></trkpt>
<trkpt lat="25.144289" lon="101.877568">
<time>2015-09-27T20:32:24Z</time></trkpt>
<trkpt lat="25.144249" lon="101.877478">
<time>2015-09-27T20:32:25Z</time></trkpt>
<trkpt lat="25.144179" lon="101.877378">
<time>2015-09-27T20:32:26Z</time></trkpt>
<trkpt lat="25.144109" lon="101.877288">
<time>2015-09-27T20:32:27Z</time></trkpt>
<trkpt lat="25.144049" lon="101.877208">
<time>2015-09-27T20:32:28Z</time></trkpt>
<trkpt lat="25.143979" lon="101.877138">
<time>2015-09-27T20:32:29Z</time></trkpt>
<trkpt lat="25.143888" lon="101.877047">
<time>2015-09-27T20:32:30Z</time></trkpt>
<trkpt lat="25.143688" lon="101.876837">
<time>2015-09-27T20:32:31Z</time></trkpt>
<trkpt lat="25.143468" lon="101.876607">
<time>2015-09-27T20:32:32Z</time></trkpt>
<trkpt lat="25.143398" lon="101.876517">
<time>2015-09-27T20:32:33Z</time></trkpt>
<trkpt lat="25.143368" lon="101.876457">
<time>2015-09-27T20:32:34Z</time></trkpt>
<trkpt lat="25.143328" lon="101.876387">
<time>2015-09-27T20:32:35Z</time></trkpt>
<trkpt lat="25.143308" lon="101.876326">
<time>2015-09-27T20:32:36Z</time></trkpt>
<trkpt lat="25.143288" lon="101.876276">
<time>2015-09-27T20:32:37Z</time></trkpt>
<trkpt lat="25.143268" lon="101.876206">
<time>2015-09-27T20:32:38Z</time></trkpt>
<trkpt lat="25.143268" lon="101.876136">
<time>2015-09-27T20:32:39Z</time></trkpt>
<trkpt lat="25.143268" lon="101.876046">
<time>2015-09-27T20:32:40Z</time></trkpt>
<trkpt lat="25.143267" lon="101.875996">
<time>2015-09-27T20:32:41Z</time></trkpt>
<trkpt lat="25.143297" lon="101.875896">
<time>2015-09-27T20:32:42Z</time></trkpt>
<trkpt lat="25.143317" lon="101.875816">
<time>2015-09-27T20:32:43Z</time></trkpt>
<trkpt lat="25.143367" lon="101.875686">
<time>2015-09-27T20:32:44Z</time></trkpt>
<trkpt lat="25.143437" lon="101.875515">
<time>2015-09-27T20:32:45Z</time></trkpt>
<trkpt lat="25.143537" lon="101.875275">
<time>2015-09-27T20:32:46Z</time></trkpt>
<trkpt lat="25.143656" lon="101.875015">
<time>2015-09-27T20:32:47Z</time></trkpt>
<trkpt lat="25.143856" lon="101.874534">
<time>2015-09-27T20:32:48Z</time></trkpt>
<trkpt lat="25.143916" lon="101.874394">
<time>2015-09-27T20:32:49Z</time></trkpt>
<trkpt lat="25.143976" lon="101.874233">
<time>2015-09-27T20:32:50Z</time></trkpt>
<trkpt lat="25.143996" lon="101.874153">
<time>2015-09-27T20:32:51Z</time></trkpt>
<trkpt lat="25.144035" lon="101.874033">
<time>2015-09-27T20:32:52Z</time></trkpt>
<trkpt lat="25.144055" lon="101.873913">
<time>2015-09-27T20:32:53Z</time></trkpt>
<trkpt lat="25.144065" lon="101.873813">
<time>2015-09-27T20:32:54Z</time></trkpt>
<trkpt lat="25.144065" lon="101.873683">
<time>2015-09-27T20:32:55Z</time></trkpt>
<trkpt lat="25.144055" lon="101.873542">
<time>2015-09-27T20:32:56Z</time></trkpt>
<trkpt lat="25.144035" lon="101.873362">
<time>2015-09-27T20:32:57Z</time></trkpt>
<trkpt lat="25.144015" lon="101.873172">
<time>2015-09-27T20:32:58Z</time></trkpt>
<trkpt lat="25.143994" lon="101.872932">
<time>2015-09-27T20:32:59Z</time></trkpt>
<trkpt lat="25.143954" lon="101.872671">
<time>2015-09-27T20:33:00Z</time></trkpt>
<trkpt lat="25.143934" lon="101.872561">
<time>2015-09-27T20:33:01Z</time></trkpt>
<trkpt lat="25.143904" lon="101.872441">
<time>2015-09-27T20:33:02Z</time></trkpt>
<trkpt lat="25.143864" lon="101.872341">
<time>2015-09-27T20:33:03Z</time></trkpt>
<trkpt lat="25.143804" lon="101.872231">
<time>2015-09-27T20:33:04Z</time></trkpt>
<trkpt lat="25.143753" lon="101.87217">
<time>2015-09-27T20:33:05Z</time></trkpt>
<trkpt lat="25.143603" lon="101.87202">
<time>2015-09-27T20:33:06Z</time></trkpt>
<trkpt lat="25.143503" lon="101.87193">
<time>2015-09-27T20:33:07Z</time></trkpt>
<trkpt lat="25.143383" lon="101.87183">
<time>2015-09-27T20:33:08Z</time></trkpt>
<trkpt lat="25.143283" lon="101.87174">
<time>2015-09-27T20:33:09Z</time></trkpt>
<trkpt lat="25.143213" lon="101.87169">
<time>2015-09-27T20:33:10Z</time></trkpt>
<trkpt lat="25.143113" lon="101.87162">
<time>2015-09-27T20:33:11Z</time></trkpt>
<trkpt lat="25.143063" lon="101.8716">
<time>2015-09-27T20:33:12Z</time></trkpt>
<trkpt lat="25.143023" lon="101.87158">
<time>2015-09-27T20:33:13Z</time></trkpt>
<trkpt lat="25.142983" lon="101.87157">
<time>2015-09-27T20:33:14Z</time></trkpt>
<trkpt lat="25.142943" lon="101.87157">
<time>2015-09-27T20:33:15Z</time></trkpt>
<trkpt lat="25.142903" lon="101.87157">
<time>2015-09-27T20:33:16Z</time></trkpt>
<trkpt lat="25.142853" lon="101.87158">
<time>2015-09-27T20:33:17Z</time></trkpt>
<trkpt lat="25.142793" lon="101.8716">
<time>2015-09-27T20:33:18Z</time></trkpt>
<trkpt lat="25.142753" lon="101.87162">
<time>2015-09-27T20:33:19Z</time></trkpt>
<trkpt lat="25.142713" lon="101.87164">
<time>2015-09-27T20:33:20Z</time></trkpt>
<trkpt lat="25.142673" lon="101.87168">
<time>2015-09-27T20:33:21Z</time></trkpt>
<trkpt lat="25.142623" lon="101.87174">
<time>2015-09-27T20:33:22Z</time></trkpt>
<trkpt lat="25.142493" lon="101.87189">
<time>2015-09-27T20:33:23Z</time></trkpt>
<trkpt lat="25.142383" lon="101.87203">
<time>2015-09-27T20:33:24Z</time></trkpt>
<trkpt lat="25.142264" lon="101.87218">
<time>2015-09-27T20:33:25Z</time></trkpt>
<trkpt lat="25.142054" lon="101.872381">
<time>2015-09-27T20:33:26Z</time></trkpt>
<trkpt lat="25.142004" lon="101.872441">
<time>2015-09-27T20:33:27Z</time></trkpt>
<trkpt lat="25.141954" lon="101.872471">
<time>2015-09-27T20:33:28Z</time></trkpt>
<trkpt lat="25.141904" lon="101.872501">
<time>2015-09-27T20:33:29Z</time></trkpt>
<trkpt lat="25.141834" lon="101.872521">
<time>2015-09-27T20:33:30Z</time></trkpt>
<trkpt lat="25.141784" lon="101.872531">
<time>2015-09-27T20:33:31Z</time></trkpt>
<trkpt lat="25.141744" lon="101.872531">
<time>2015-09-27T20:33:32Z</time></trkpt>
<trkpt lat="25.141684" lon="101.872521">
<time>2015-09-27T20:33:33Z</time></trkpt>
<trkpt lat="25.141644" lon="101.872511">
<time>2015-09-27T20:33:34Z</time></trkpt>
<trkpt lat="25.141584" lon="101.872491">
<time>2015-09-27T20:33:35Z</time></trkpt>
<trkpt lat="25.141504" lon="101.872451">
<time>2015-09-27T20:33:36Z</time></trkpt>
<trkpt lat="25.141454" lon="101.872411">
<time>2015-09-27T20:33:37Z</time></trkpt>
<trkpt lat="25.141384" lon="101.872341">
<time>2015-09-27T20:33:38Z</time></trkpt>
<trkpt lat="25.141304" lon="101.872241">
<time>2015-09-27T20:33:39Z</time></trkpt>
<trkpt lat="25.141173" lon="101.87206">
<time>2015-09-27T20:33:40Z</time></trkpt>
<trkpt lat="25.141053" lon="101.87187">
<time>2015-09-27T20:33:41Z</time></trkpt>
<trkpt lat="25.140863" lon="101.87161">
<time>2015-09-27T20:33:42Z</time></trkpt>
<trkpt lat="25.140633" lon="101.871289">
<time>2015-09-27T20:33:43Z</time></trkpt>
<trkpt lat="25.140422" lon="101.870969">
<time>2015-09-27T20:33:44Z</time></trkpt>
<trkpt lat="25.140152" lon="101.870548">
<time>2015-09-27T20:33:45Z</time></trkpt>
<trkpt lat="25.140012" lon="101.870338">
<time>2015-09-27T20:33:46Z</time></trkpt>
<trkpt lat="25.139942" lon="101.870258">
<time>2015-09-27T20:33:47Z</time></trkpt>
<trkpt lat="25.139871" lon="101.870167">
<time>2015-09-27T20:33:48Z</time></trkpt>
<trkpt lat="25.139761" lon="101.870067">
<time>2015-09-27T20:33:49Z</time></trkpt>
<trkpt lat="25.139681" lon="101.869997">
<time>2015-09-27T20:33:50Z</time></trkpt>
<trkpt lat="25.139591" lon="101.869937">
<time>2015-09-27T20:33:51Z</time></trkpt>
<trkpt lat="25.139501" lon="101.869887">
<time>2015-09-27T20:33:52Z</time></trkpt>
<trkpt lat="25.139401" lon="101.869827">
<time>2015-09-27T20:33:53Z</time></trkpt>
<trkpt lat="25.139251" lon="101.869747">
<time>2015-09-27T20:33:54Z</time></trkpt>
<trkpt lat="25.139081" lon="101.869667">
<time>2015-09-27T20:33:55Z</time></trkpt>
<trkpt lat="25.138851" lon="101.869556">
<time>2015-09-27T20:33:56Z</time></trkpt>
<trkpt lat="25.138631" lon="101.869446">
<time>2015-09-27T20:33:57Z</time></trkpt>
<trkpt lat="25.138451" lon="101.869356">
<time>2015-09-27T20:33:58Z</time></trkpt>
<trkpt lat="25.13816" lon="101.869186">
<time>2015-09-27T20:33:59Z</time></trkpt>
<trkpt lat="25.13792" lon="101.869056">
<time>2015-09-27T20:34:00Z</time></trkpt>
<trkpt lat="25.13767" lon="101.868936">
<time>2015-09-27T20:34:01Z</time></trkpt>
<trkpt lat="25.13737" lon="101.868765">
<time>2015-09-27T20:34:02Z</time></trkpt>
<trkpt lat="25.13717" lon="101.868645">
<time>2015-09-27T20:34:03Z</time></trkpt>
<trkpt lat="25.13704" lon="101.868565">
<time>2015-09-27T20:34:04Z</time></trkpt>
<trkpt lat="25.13689" lon="101.868465">
<time>2015-09-27T20:34:05Z</time></trkpt>
<trkpt lat="25.136759" lon="101.868375">
<time>2015-09-27T20:34:06Z</time></trkpt>
<trkpt lat="25.136639" lon="101.868274">
<time>2015-09-27T20:34:07Z</time></trkpt>
<trkpt lat="25.136559" lon="101.868194">
<time>2015-09-27T20:34:08Z</time></trkpt>
<trkpt lat="25.136519" lon="101.868144">
<time>2015-09-27T20:34:09Z</time></trkpt>
<trkpt lat="25.136479" lon="101.868084">
<time>2015-09-27T20:34:10Z</time></trkpt>
<trkpt lat="25.136449" lon="101.868014">
<time>2015-09-27T20:34:11Z</time></trkpt>
<trkpt lat="25.136419" lon="101.867924">
<time>2015-09-27T20:34:12Z</time></trkpt>
<trkpt lat="25.136399" lon="101.867864">
<time>2015-09-27T20:34:13Z</time></trkpt>
<trkpt lat="25.136389" lon="101.867724">
<time>2015-09-27T20:34:14Z</time></trkpt>
<trkpt lat="25.136379" lon="101.867603">
<time>2015-09-27T20:34:15Z</time></trkpt>
<trkpt lat="25.136388" lon="101.867443">
<time>2015-09-27T20:34:16Z</time></trkpt>
<trkpt lat="25.136408" lon="101.867293">
<time>2015-09-27T20:34:17Z</time></trkpt>
<trkpt lat="25.136418" lon="101.867203">
<time>2015-09-27T20:34:18Z</time></trkpt>
<trkpt lat="25.136428" lon="101.867143">
<time>2015-09-27T20:34:19Z</time></trkpt>
<trkpt lat="25.136448" lon="101.867062">
<time>2015-09-27T20:34:20Z</time></trkpt>
<trkpt lat="25.136478" lon="101.867012">
<time>2015-09-27T20:34:21Z</time></trkpt>
<trkpt lat="25.136518" lon="101.866942">
<time>2015-09-27T20:34:22Z</time></trkpt>
<trkpt lat="25.136578" lon="101.866872">
<time>2015-09-27T20:34:23Z</time></trkpt>
<trkpt lat="25.136638" lon="101.866822">
<time>2015-09-27T20:34:24Z</time></trkpt>
<trkpt lat="25.136757" lon="101.866732">
<time>2015-09-27T20:34:25Z</time></trkpt>
<trkpt lat="25.136927" lon="101.866622">
<time>2015-09-27T20:34:26Z</time></trkpt>
<trkpt lat="25.137167" lon="101.866471">
<time>2015-09-27T20:34:27Z</time></trkpt>
<trkpt lat="25.137367" lon="101.866331">
<time>2015-09-27T20:34:28Z</time></trkpt>
<trkpt lat="25.137607" lon="101.866171">
<time>2015-09-27T20:34:29Z</time></trkpt>
<trkpt lat="25.137866" lon="101.865981">
<time>2015-09-27T20:34:30Z</time></trkpt>
<trkpt lat="25.138246" lon="101.86572">
<time>2015-09-27T20:34:31Z</time></trkpt>
<trkpt lat="25.138516" lon="101.86554">
<time>2015-09-27T20:34:32Z</time></trkpt>
<trkpt lat="25.138606" lon="101.86546">
<time>2015-09-27T20:34:33Z</time></trkpt>
<trkpt lat="25.138666" lon="101.8654">
<time>2015-09-27T20:34:34Z</time></trkpt>
<trkpt lat="25.138725" lon="101.865339">
<time>2015-09-27T20:34:35Z</time></trkpt>
<trkpt lat="25.138765" lon="101.865269">
<time>2015-09-27T20:34:36Z</time></trkpt>
<trkpt lat="25.138805" lon="101.865199">
<time>2015-09-27T20:34:37Z</time></trkpt>
<trkpt lat="25.138835" lon="101.865129">
<time>2015-09-27T20:34:38Z</time></trkpt>
<trkpt lat="25.138855" lon="101.865029">
<time>2015-09-27T20:34:39Z</time></trkpt>
<trkpt lat="25.138875" lon="101.864939">
<time>2015-09-27T20:34:40Z</time></trkpt>
<trkpt lat="25.138875" lon="101.864818">
<time>2015-09-27T20:34:41Z</time></trkpt>
<trkpt lat="25.138875" lon="101.864718">
<time>2015-09-27T20:34:42Z</time></trkpt>
<trkpt lat="25.138854" lon="101.864538">
<time>2015-09-27T20:34:43Z</time></trkpt>
<trkpt lat="25.138844" lon="101.864448">
<time>2015-09-27T20:34:44Z</time></trkpt>
<trkpt lat="25.138824" lon="101.864328">
<time>2015-09-27T20:34:45Z</time></trkpt>
<trkpt lat="25.138794" lon="101.864227">
<time>2015-09-27T20:34:46Z</time></trkpt>
<trkpt lat="25.138734" lon="101.863997">
<time>2015-09-27T20:34:47Z</time></trkpt>
<trkpt lat="25.138693" lon="101.863857">
<time>2015-09-27T20:34:48Z</time></trkpt>
<trkpt lat="25.138603" lon="101.863586">
<time>2015-09-27T20:34:49Z</time></trkpt>
<trkpt lat="25.138533" lon="101.863376">
<time>2015-09-27T20:34:50Z</time></trkpt>
<trkpt lat="25.138513" lon="101.863276">
<time>2015-09-27T20:34:51Z</time></trkpt>
<trkpt lat="25.138493" lon="101.863196">
<time>2015-09-27T20:34:52Z</time></trkpt>
<trkpt lat="25.138483" lon="101.863136">
<time>2015-09-27T20:34:53Z</time></trkpt>
<trkpt lat="25.138472" lon="101.863055">
<time>2015-09-27T20:34:54Z</time></trkpt>
<trkpt lat="25.138482" lon="101.862975">
<time>2015-09-27T20:34:55Z</time></trkpt>
<trkpt lat="25.138492" lon="101.862895">
<time>2015-09-27T20:34:56Z</time></trkpt>
<trkpt lat="25.138502" lon="101.862825">
<time>2015-09-27T20:34:57Z</time></trkpt>
<trkpt lat="25.138532" lon="101.862735">
<time>2015-09-27T20:34:58Z</time></trkpt>
<trkpt lat="25.138572" lon="101.862645">
<time>2015-09-27T20:34:59Z</time></trkpt>
<trkpt lat="25.138632" lon="101.862544">
<time>2015-09-27T20:35:00Z</time></trkpt>
<trkpt lat="25.138662" lon="101.862504">
<time>2015-09-27T20:35:01Z</time></trkpt>
<trkpt lat="25.138712" lon="101.862464">
<time>2015-09-27T20:35:02Z</time></trkpt>
<trkpt lat="25.138791" lon="101.862394">
<time>2015-09-27T20:35:03Z</time></trkpt>
<trkpt lat="25.138921" lon="101.862314">
<time>2015-09-27T20:35:04Z</time></trkpt>
<trkpt lat="25.139061" lon="101.862224">
<time>2015-09-27T20:35:05Z</time></trkpt>
<trkpt lat="25.139151" lon="101.862144">
<time>2015-09-27T20:35:06Z</time></trkpt>
<trkpt lat="25.139231" lon="101.862064">
<time>2015-09-27T20:35:07Z</time></trkpt>
<trkpt lat="25.139341" lon="101.861913">
<time>2015-09-27T20:35:08Z</time></trkpt>
<trkpt lat="25.139421" lon="101.861803">
<time>2015-09-27T20:35:09Z</time></trkpt>
<trkpt lat="25.13952" lon="101.861643">
<time>2015-09-27T20:35:10Z</time></trkpt>
<trkpt lat="25.13968" lon="101.861412">
<time>2015-09-27T20:35:11Z</time></trkpt>
<trkpt lat="25.13984" lon="101.861182">
<time>2015-09-27T20:35:12Z</time></trkpt>
<trkpt lat="25.139959" lon="101.861012">
<time>2015-09-27T20:35:13Z</time></trkpt>
<trkpt lat="25.140239" lon="101.860651">
<time>2015-09-27T20:35:14Z</time></trkpt>
<trkpt lat="25.140399" lon="101.86042">
<time>2015-09-27T20:35:15Z</time></trkpt>
<trkpt lat="25.140608" lon="101.86014">
<time>2015-09-27T20:35:16Z</time></trkpt>
<trkpt lat="25.140758" lon="101.859909">
<time>2015-09-27T20:35:17Z</time></trkpt>
<trkpt lat="25.140927" lon="101.859629">
<time>2015-09-27T20:35:18Z</time></trkpt>
<trkpt lat="25.141107" lon="101.859328">
<time>2015-09-27T20:35:19Z</time></trkpt>
<trkpt lat="25.141296" lon="101.859018">
<time>2015-09-27T20:35:20Z</time></trkpt>
<trkpt lat="25.141506" lon="101.858657">
<time>2015-09-27T20:35:21Z</time></trkpt>
<trkpt lat="25.141586" lon="101.858517">
<time>2015-09-27T20:35:22Z</time></trkpt>
<trkpt lat="25.141665" lon="101.858356">
<time>2015-09-27T20:35:23Z</time></trkpt>
<trkpt lat="25.141685" lon="101.858296">
<time>2015-09-27T20:35:24Z</time></trkpt>
<trkpt lat="25.141715" lon="101.858216">
<time>2015-09-27T20:35:25Z</time></trkpt>
<trkpt lat="25.141725" lon="101.858156">
<time>2015-09-27T20:35:26Z</time></trkpt>
<trkpt lat="25.141735" lon="101.858076">
<time>2015-09-27T20:35:27Z</time></trkpt>
<trkpt lat="25.141735" lon="101.857996">
<time>2015-09-27T20:35:28Z</time></trkpt>
<trkpt lat="25.141725" lon="101.857926">
<time>2015-09-27T20:35:29Z</time></trkpt>
<trkpt lat="25.141715" lon="101.857855">
<time>2015-09-27T20:35:30Z</time></trkpt>
<trkpt lat="25.141695" lon="101.857785">
<time>2015-09-27T20:35:31Z</time></trkpt>
<trkpt lat="25.141664" lon="101.857705">
<time>2015-09-27T20:35:32Z</time></trkpt>
<trkpt lat="25.141604" lon="101.857595">
<time>2015-09-27T20:35:33Z</time></trkpt>
<trkpt lat="25.141554" lon="101.857505">
<time>2015-09-27T20:35:34Z</time></trkpt>
<trkpt lat="25.141444" lon="101.857324">
<time>2015-09-27T20:35:35Z</time></trkpt>
<trkpt lat="25.141374" lon="101.857234">
<time>2015-09-27T20:35:36Z</time></trkpt>
<trkpt lat="25.141284" lon="101.857144">
<time>2015-09-27T20:35:37Z</time></trkpt>
<trkpt lat="25.141183" lon="101.857044">
<time>2015-09-27T20:35:38Z</time></trkpt>
<trkpt lat="25.141063" lon="101.856964">
<time>2015-09-27T20:35:39Z</time></trkpt>
<trkpt lat="25.140873" lon="101.856813">
<time>2015-09-27T20:35:40Z</time></trkpt>
<trkpt lat="25.140753" lon="101.856733">
<time>2015-09-27T20:35:41Z</time></trkpt>
<trkpt lat="25.140523" lon="101.856583">
<time>2015-09-27T20:35:42Z</time></trkpt>
<trkpt lat="25.140403" lon="101.856513">
<time>2015-09-27T20:35:43Z</time></trkpt>
<trkpt lat="25.140273" lon="101.856453">
<time>2015-09-27T20:35:44Z</time></trkpt>
<trkpt lat="25.140203" lon="101.856433">
<time>2015-09-27T20:35:45Z</time></trkpt>
<trkpt lat="25.140143" lon="101.856423">
<time>2015-09-27T20:35:46Z</time></trkpt>
<trkpt lat="25.140083" lon="101.856413">
<time>2015-09-27T20:35:47Z</time></trkpt>
<trkpt lat="25.140003" lon="101.856403">
<time>2015-09-27T20:35:48Z</time></trkpt>
<trkpt lat="25.139933" lon="101.856403">
<time>2015-09-27T20:35:49Z</time></trkpt>
<trkpt lat="25.139843" lon="101.856403">
<time>2015-09-27T20:35:50Z</time></trkpt>
<trkpt lat="25.139663" lon="101.856423">
<time>2015-09-27T20:35:51Z</time></trkpt>
<trkpt lat="25.139503" lon="101.856443">
<time>2015-09-27T20:35:52Z</time></trkpt>
<trkpt lat="25.139363" lon="101.856483">
<time>2015-09-27T20:35:53Z</time></trkpt>
<trkpt lat="25.139083" lon="101.856553">
<time>2015-09-27T20:35:54Z</time></trkpt>
<trkpt lat="25.138893" lon="101.856583">
<time>2015-09-27T20:35:55Z</time></trkpt>
<trkpt lat="25.138693" lon="101.856613">
<time>2015-09-27T20:35:56Z</time></trkpt>
<trkpt lat="25.138453" lon="101.856633">
<time>2015-09-27T20:35:57Z</time></trkpt>
<trkpt lat="25.138313" lon="101.856623">
<time>2015-09-27T20:35:58Z</time></trkpt>
<trkpt lat="25.138263" lon="101.856613">
<time>2015-09-27T20:35:59Z</time></trkpt>
<trkpt lat="25.138203" lon="101.856603">
<time>2015-09-27T20:36:00Z</time></trkpt>
<trkpt lat="25.138153" lon="101.856593">
<time>2015-09-27T20:36:01Z</time></trkpt>
<trkpt lat="25.138113" lon="101.856573">
<time>2015-09-27T20:36:02Z</time></trkpt>
<trkpt lat="25.138053" lon="101.856523">
<time>2015-09-27T20:36:03Z</time></trkpt>
<trkpt lat="25.138003" lon="101.856473">
<time>2015-09-27T20:36:04Z</time></trkpt>
<trkpt lat="25.137963" lon="101.856423">
<time>2015-09-27T20:36:05Z</time></trkpt>
<trkpt lat="25.137903" lon="101.856313">
<time>2015-09-27T20:36:06Z</time></trkpt>
<trkpt lat="25.137822" lon="101.856142">
<time>2015-09-27T20:36:07Z</time></trkpt>
<trkpt lat="25.137752" lon="101.855992">
<time>2015-09-27T20:36:08Z</time></trkpt>
<trkpt lat="25.137642" lon="101.855791">
<time>2015-09-27T20:36:09Z</time></trkpt>
<trkpt lat="25.137521" lon="101.855591">
<time>2015-09-27T20:36:10Z</time></trkpt>
<trkpt lat="25.137401" lon="101.855421">
<time>2015-09-27T20:36:11Z</time></trkpt>
<trkpt lat="25.137251" lon="101.85519">
<time>2015-09-27T20:36:12Z</time></trkpt>
<trkpt lat="25.137111" lon="101.855">
<time>2015-09-27T20:36:13Z</time></trkpt>
<trkpt lat="25.13694" lon="101.854769">
<time>2015-09-27T20:36:14Z</time></trkpt>
<trkpt lat="25.13681" lon="101.854609">
<time>2015-09-27T20:36:15Z</time></trkpt>
<trkpt lat="25.13667" lon="101.854449">
<time>2015-09-27T20:36:16Z</time></trkpt>
<trkpt lat="25.13657" lon="101.854359">
<time>2015-09-27T20:36:17Z</time></trkpt>
<trkpt lat="25.136459" lon="101.854268">
<time>2015-09-27T20:36:18Z</time></trkpt>
<trkpt lat="25.136389" lon="101.854218">
<time>2015-09-27T20:36:19Z</time></trkpt>
<trkpt lat="25.136279" lon="101.854158">
<time>2015-09-27T20:36:20Z</time></trkpt>
<trkpt lat="25.136199" lon="101.854128">
<time>2015-09-27T20:36:21Z</time></trkpt>
<trkpt lat="25.136039" lon="101.854078">
<time>2015-09-27T20:36:22Z</time></trkpt>
<trkpt lat="25.135919" lon="101.854048">
<time>2015-09-27T20:36:23Z</time></trkpt>
<trkpt lat="25.135679" lon="101.853998">
<time>2015-09-27T20:36:24Z</time></trkpt>
<trkpt lat="25.135409" lon="101.853948">
<time>2015-09-27T20:36:25Z</time></trkpt>
<trkpt lat="25.135149" lon="101.853908">
<time>2015-09-27T20:36:26Z</time></trkpt>
<trkpt lat="25.134669" lon="101.853838">
<time>2015-09-27T20:36:27Z</time></trkpt>
<trkpt lat="25.134119" lon="101.853747">
<time>2015-09-27T20:36:28Z</time></trkpt>
<trkpt lat="25.133589" lon="101.853597">
<time>2015-09-27T20:36:29Z</time></trkpt>
<trkpt lat="25.133388" lon="101.853547">
<time>2015-09-27T20:36:30Z</time></trkpt>
<trkpt lat="25.132868" lon="101.853407">
<time>2015-09-27T20:36:31Z</time></trkpt>
<trkpt lat="25.132628" lon="101.853327">
<time>2015-09-27T20:36:32Z</time></trkpt>
<trkpt lat="25.132258" lon="101.853196">
<time>2015-09-27T20:36:33Z</time></trkpt>
<trkpt lat="25.131928" lon="101.853086">
<time>2015-09-27T20:36:34Z</time></trkpt>
<trkpt lat="25.131738" lon="101.853006">
<time>2015-09-27T20:36:35Z</time></trkpt>
<trkpt lat="25.131458" lon="101.852886">
<time>2015-09-27T20:36:36Z</time></trkpt>
<trkpt lat="25.131207" lon="101.852776">
<time>2015-09-27T20:36:37Z</time></trkpt>
<trkpt lat="25.130797" lon="101.852555">
<time>2015-09-27T20:36:38Z</time></trkpt>
<trkpt lat="25.130257" lon="101.852264">
<time>2015-09-27T20:36:39Z</time></trkpt>
<trkpt lat="25.130016" lon="101.852134">
<time>2015-09-27T20:36:40Z</time></trkpt>
<trkpt lat="25.129766" lon="101.851984">
<time>2015-09-27T20:36:41Z</time></trkpt>
<trkpt lat="25.129496" lon="101.851763">
<time>2015-09-27T20:36:42Z</time></trkpt>
<trkpt lat="25.129246" lon="101.851553">
<time>2015-09-27T20:36:43Z</time></trkpt>
<trkpt lat="25.128955" lon="101.851303">
<time>2015-09-27T20:36:44Z</time></trkpt>
<trkpt lat="25.128625" lon="101.851012">
<time>2015-09-27T20:36:45Z</time></trkpt>
<trkpt lat="25.128374" lon="101.850801">
<time>2015-09-27T20:36:46Z</time></trkpt>
<trkpt lat="25.128194" lon="101.850671">
<time>2015-09-27T20:36:47Z</time></trkpt>
<trkpt lat="25.128114" lon="101.850621">
<time>2015-09-27T20:36:48Z</time></trkpt>
<trkpt lat="25.128004" lon="101.850561">
<time>2015-09-27T20:36:49Z</time></trkpt>
<trkpt lat="25.127954" lon="101.850541">
<time>2015-09-27T20:36:50Z</time></trkpt>
<trkpt lat="25.127904" lon="101.850521">
<time>2015-09-27T20:36:51Z</time></trkpt>
<trkpt lat="25.127784" lon="101.850471">
<time>2015-09-27T20:36:52Z</time></trkpt>
<trkpt lat="25.127684" lon="101.850451">
<time>2015-09-27T20:36:53Z</time></trkpt>
<trkpt lat="25.127594" lon="101.850431">
<time>2015-09-27T20:36:54Z</time></trkpt>
<trkpt lat="25.127434" lon="101.850411">
<time>2015-09-27T20:36:55Z</time></trkpt>
<trkpt lat="25.127284" lon="101.850391">
<time>2015-09-27T20:36:56Z</time></trkpt>
<trkpt lat="25.127184" lon="101.850391">
<time>2015-09-27T20:36:57Z</time></trkpt>
<trkpt lat="25.126794" lon="101.850381">
<time>2015-09-27T20:36:58Z</time></trkpt>
<trkpt lat="25.126424" lon="101.850391">
<time>2015-09-27T20:36:59Z</time></trkpt>
<trkpt lat="25.126294" lon="101.850391">
<time>2015-09-27T20:37:00Z</time></trkpt>
<trkpt lat="25.126124" lon="101.850381">
<time>2015-09-27T20:37:01Z</time></trkpt>
<trkpt lat="25.126024" lon="101.850361">
<time>2015-09-27T20:37:02Z</time></trkpt>
<trkpt lat="25.125934" lon="101.850351">
<time>2015-09-27T20:37:03Z</time></trkpt>
<trkpt lat="25.125804" lon="101.85029">
<time>2015-09-27T20:37:04Z</time></trkpt>
<trkpt lat="25.125704" lon="101.85024">
<time>2015-09-27T20:37:05Z</time></trkpt>
<trkpt lat="25.125513" lon="101.85013">
<time>2015-09-27T20:37:06Z</time></trkpt>
<trkpt lat="25.125273" lon="101.84998">
<time>2015-09-27T20:37:07Z</time></trkpt>
<trkpt lat="25.124983" lon="101.849789">
<time>2015-09-27T20:37:08Z</time></trkpt>
<trkpt lat="25.124763" lon="101.849629">
<time>2015-09-27T20:37:09Z</time></trkpt>
<trkpt lat="25.124642" lon="101.849509">
<time>2015-09-27T20:37:10Z</time></trkpt>
<trkpt lat="25.124542" lon="101.849409">
<time>2015-09-27T20:37:11Z</time></trkpt>
<trkpt lat="25.124442" lon="101.849288">
<time>2015-09-27T20:37:12Z</time></trkpt>
<trkpt lat="25.124342" lon="101.849128">
<time>2015-09-27T20:37:13Z</time></trkpt>
<trkpt lat="25.124211" lon="101.848888">
<time>2015-09-27T20:37:14Z</time></trkpt>
<trkpt lat="25.124011" lon="101.848527">
<time>2015-09-27T20:37:15Z</time></trkpt>
<trkpt lat="25.123901" lon="101.848316">
<time>2015-09-27T20:37:16Z</time></trkpt>
<trkpt lat="25.12382" lon="101.848146">
<time>2015-09-27T20:37:17Z</time></trkpt>
<trkpt lat="25.12378" lon="101.848046">
<time>2015-09-27T20:37:18Z</time></trkpt>
<trkpt lat="25.12376" lon="101.847976">
<time>2015-09-27T20:37:19Z</time></trkpt>
<trkpt lat="25.12375" lon="101.847885">
<time>2015-09-27T20:37:20Z</time></trkpt>
<trkpt lat="25.12374" lon="101.847815">
<time>2015-09-27T20:37:21Z</time></trkpt>
<trkpt lat="25.123739" lon="101.847695">
<time>2015-09-27T20:37:22Z</time></trkpt>
<trkpt lat="25.123769" lon="101.847474">
<time>2015-09-27T20:37:23Z</time></trkpt>
<trkpt lat="25.123799" lon="101.847284">
<time>2015-09-27T20:37:24Z</time></trkpt>
<trkpt lat="25.123858" lon="101.847064">
<time>2015-09-27T20:37:25Z</time></trkpt>
<trkpt lat="25.123878" lon="101.846993">
<time>2015-09-27T20:37:26Z</time></trkpt>
<trkpt lat="25.123908" lon="101.846913">
<time>2015-09-27T20:37:27Z</time></trkpt>
<trkpt lat="25.123948" lon="101.846823">
<time>2015-09-27T20:37:28Z</time></trkpt>
<trkpt lat="25.124008" lon="101.846723">
<time>2015-09-27T20:37:29Z</time></trkpt>
<trkpt lat="25.124147" lon="101.846532">
<time>2015-09-27T20:37:30Z</time></trkpt>
<trkpt lat="25.124297" lon="101.846342">
<time>2015-09-27T20:37:31Z</time></trkpt>
<trkpt lat="25.124407" lon="101.846242">
<time>2015-09-27T20:37:32Z</time></trkpt>
<trkpt lat="25.124527" lon="101.846121">
<time>2015-09-27T20:37:33Z</time></trkpt>
<trkpt lat="25.124736" lon="101.845951">
<time>2015-09-27T20:37:34Z</time></trkpt>
<trkpt lat="25.125046" lon="101.845701">
<time>2015-09-27T20:37:35Z</time></trkpt>
<trkpt lat="25.125146" lon="101.84559">
<time>2015-09-27T20:37:36Z</time></trkpt>
<trkpt lat="25.125246" lon="101.84548">
<time>2015-09-27T20:37:37Z</time></trkpt>
<trkpt lat="25.125415" lon="101.84526">
<time>2015-09-27T20:37:38Z</time></trkpt>
<trkpt lat="25.125655" lon="101.844949">
<time>2015-09-27T20:37:39Z</time></trkpt>
<trkpt lat="25.125884" lon="101.844658">
<time>2015-09-27T20:37:40Z</time></trkpt>
<trkpt lat="25.125974" lon="101.844508">
<time>2015-09-27T20:37:41Z</time></trkpt>
<trkpt lat="25.126014" lon="101.844428">
<time>2015-09-27T20:37:42Z</time></trkpt>
<trkpt lat="25.126053" lon="101.844327">
<time>2015-09-27T20:37:43Z</time></trkpt>
<trkpt lat="25.126093" lon="101.844217">
<time>2015-09-27T20:37:44Z</time></trkpt>
<trkpt lat="25.126123" lon="101.844117">
<time>2015-09-27T20:37:45Z</time></trkpt>
<trkpt lat="25.126163" lon="101.843977">
<time>2015-09-27T20:37:46Z</time></trkpt>
<trkpt lat="25.126202" lon="101.843786">
<time>2015-09-27T20:37:47Z</time></trkpt>
<trkpt lat="25.126222" lon="101.843636">
<time>2015-09-27T20:37:48Z</time></trkpt>
<trkpt lat="25.126222" lon="101.843516">
<time>2015-09-27T20:37:49Z</time></trkpt>
<trkpt lat="25.126222" lon="101.843456">
<time>2015-09-27T20:37:50Z</time></trkpt>
<trkpt lat="25.126212" lon="101.843365">
<time>2015-09-27T20:37:51Z</time></trkpt>
<trkpt lat="25.126202" lon="101.843305">
<time>2015-09-27T20:37:52Z</time></trkpt>
<trkpt lat="25.126182" lon="101.843265">
<time>2015-09-27T20:37:53Z</time></trkpt>
<trkpt lat="25.126151" lon="101.843225">
<time>2015-09-27T20:37:54Z</time></trkpt>
<trkpt lat="25.126121" lon="101.843165">
<time>2015-09-27T20:37:55Z</time></trkpt>
<trkpt lat="25.126081" lon="101.843115">
<time>2015-09-27T20:37:56Z</time></trkpt>
<trkpt lat="25.126031" lon="101.843065">
<time>2015-09-27T20:37:57Z</time></trkpt>
<trkpt lat="25.125951" lon="101.842984">
<time>2015-09-27T20:37:58Z</time></trkpt>
<trkpt lat="25.125741" lon="101.842834">
<time>2015-09-27T20:37:59Z</time></trkpt>
<trkpt lat="25.125501" lon="101.842694">
<time>2015-09-27T20:38:00Z</time></trkpt>
<trkpt lat="25.12537" lon="101.842634">
<time>2015-09-27T20:38:01Z</time></trkpt>
<trkpt lat="25.12514" lon="101.842554">
<time>2015-09-27T20:38:02Z</time></trkpt>
<trkpt lat="25.12489" lon="101.842473">
<time>2015-09-27T20:38:03Z</time></trkpt>
<trkpt lat="25.12453" lon="101.842383">
<time>2015-09-27T20:38:04Z</time></trkpt>
<trkpt lat="25.12424" lon="101.842323">
<time>2015-09-27T20:38:05Z</time></trkpt>
<trkpt lat="25.12378" lon="101.842233">
<time>2015-09-27T20:38:06Z</time></trkpt>
<trkpt lat="25.12352" lon="101.842173">
<time>2015-09-27T20:38:07Z</time></trkpt>
<trkpt lat="25.12342" lon="101.842143">
<time>2015-09-27T20:38:08Z</time></trkpt>
<trkpt lat="25.12324" lon="101.842093">
<time>2015-09-27T20:38:09Z</time></trkpt>
<trkpt lat="25.123009" lon="101.841982">
<time>2015-09-27T20:38:10Z</time></trkpt>
<trkpt lat="25.122899" lon="101.841932">
<time>2015-09-27T20:38:11Z</time></trkpt>
<trkpt lat="25.122559" lon="101.841742">
<time>2015-09-27T20:38:12Z</time></trkpt>
<trkpt lat="25.122449" lon="101.841672">
<time>2015-09-27T20:38:13Z</time></trkpt>
<trkpt lat="25.122379" lon="101.841632">
<time>2015-09-27T20:38:14Z</time></trkpt>
<trkpt lat="25.122309" lon="101.841571">
<time>2015-09-27T20:38:15Z</time></trkpt>
<trkpt lat="25.122229" lon="101.841481">
<time>2015-09-27T20:38:16Z</time></trkpt>
<trkpt lat="25.122189" lon="101.841421">
<time>2015-09-27T20:38:17Z</time></trkpt>
<trkpt lat="25.122128" lon="101.841341">
<time>2015-09-27T20:38:18Z</time></trkpt>
<trkpt lat="25.122098" lon="101.841271">
<time>2015-09-27T20:38:19Z</time></trkpt>
<trkpt lat="25.122048" lon="101.84114">
<time>2015-09-27T20:38:20Z</time></trkpt>
<trkpt lat="25.121998" lon="101.84098">
<time>2015-09-27T20:38:21Z</time></trkpt>
<trkpt lat="25.121927" lon="101.84076">
<time>2015-09-27T20:38:22Z</time></trkpt>
<trkpt lat="25.121897" lon="101.840689">
<time>2015-09-27T20:38:23Z</time></trkpt>
<trkpt lat="25.121877" lon="101.840619">
<time>2015-09-27T20:38:24Z</time></trkpt>
<trkpt lat="25.121817" lon="101.840519">
<time>2015-09-27T20:38:25Z</time></trkpt>
<trkpt lat="25.121787" lon="101.840469">
<time>2015-09-27T20:38:26Z</time></trkpt>
<trkpt lat="25.121737" lon="101.840419">
<time>2015-09-27T20:38:27Z</time></trkpt>
<trkpt lat="25.121687" lon="101.840379">
<time>2015-09-27T20:38:28Z</time></trkpt>
<trkpt lat="25.121637" lon="101.840339">
<time>2015-09-27T20:38:29Z</time></trkpt>
<trkpt lat="25.121557" lon="101.840309">
<time>2015-09-27T20:38:30Z</time></trkpt>
<trkpt lat="25.121416" lon="101.840258">
<time>2015-09-27T20:38:31Z</time></trkpt>
<trkpt lat="25.121196" lon="101.840208">
<time>2015-09-27T20:38:32Z</time></trkpt>
<trkpt lat="25.120836" lon="101.840148">
<time>2015-09-27T20:38:33Z</time></trkpt>
<trkpt lat="25.120686" lon="101.840118">
<time>2015-09-27T20:38:34Z</time></trkpt>
<trkpt lat="25.120546" lon="101.840078">
<time>2015-09-27T20:38:35Z</time></trkpt>
<trkpt lat="25.120476" lon="101.840048">
<time>2015-09-27T20:38:36Z</time></trkpt>
<trkpt lat="25.120406" lon="101.840008">
<time>2015-09-27T20:38:37Z</time></trkpt>
<trkpt lat="25.120356" lon="101.839978">
<time>2015-09-27T20:38:38Z</time></trkpt>
<trkpt lat="25.120306" lon="101.839928">
<time>2015-09-27T20:38:39Z</time></trkpt>
<trkpt lat="25.120226" lon="101.839827">
<time>2015-09-27T20:38:40Z</time></trkpt>
<trkpt lat="25.120156" lon="101.839737">
<time>2015-09-27T20:38:41Z</time></trkpt>
<trkpt lat="25.120105" lon="101.839637">
<time>2015-09-27T20:38:42Z</time></trkpt>
<trkpt lat="25.120015" lon="101.839457">
<time>2015-09-27T20:38:43Z</time></trkpt>
<trkpt lat="25.119945" lon="101.839306">
<time>2015-09-27T20:38:44Z</time></trkpt>
<trkpt lat="25.119895" lon="101.839156">
<time>2015-09-27T20:38:45Z</time></trkpt>
<trkpt lat="25.119864" lon="101.839066">
<time>2015-09-27T20:38:46Z</time></trkpt>
<trkpt lat="25.119834" lon="101.838966">
<time>2015-09-27T20:38:47Z</time></trkpt>
<trkpt lat="25.119824" lon="101.838895">
<time>2015-09-27T20:38:48Z</time></trkpt>
<trkpt lat="25.119814" lon="101.838805">
<time>2015-09-27T20:38:49Z</time></trkpt>
<trkpt lat="25.119814" lon="101.838695">
<time>2015-09-27T20:38:50Z</time></trkpt>
<trkpt lat="25.119824" lon="101.838595">
<time>2015-09-27T20:38:51Z</time></trkpt>
<trkpt lat="25.119843" lon="101.838454">
<time>2015-09-27T20:38:52Z</time></trkpt>
<trkpt lat="25.119883" lon="101.838284">
<time>2015-09-27T20:38:53Z</time></trkpt>
<trkpt lat="25.119913" lon="101.838154">
<time>2015-09-27T20:38:54Z</time></trkpt>
<trkpt lat="25.119953" lon="101.838023">
<time>2015-09-27T20:38:55Z</time></trkpt>
<trkpt lat="25.120072" lon="101.837703">
<time>2015-09-27T20:38:56Z</time></trkpt>
<trkpt lat="25.120181" lon="101.837422">
<time>2015-09-27T20:38:57Z</time></trkpt>
<trkpt lat="25.120301" lon="101.837171">
<time>2015-09-27T20:38:58Z</time></trkpt>
<trkpt lat="25.120361" lon="101.836991">
<time>2015-09-27T20:38:59Z</time></trkpt>
<trkpt lat="25.12039" lon="101.836891">
<time>2015-09-27T20:39:00Z</time></trkpt>
<trkpt lat="25.12041" lon="101.836801">
<time>2015-09-27T20:39:01Z</time></trkpt>
<trkpt lat="25.12041" lon="101.83674">
<time>2015-09-27T20:39:02Z</time></trkpt>
<trkpt lat="25.12041" lon="101.83669">
<time>2015-09-27T20:39:03Z</time></trkpt>
<trkpt lat="25.1204" lon="101.83664">
<time>2015-09-27T20:39:04Z</time></trkpt>
<trkpt lat="25.12038" lon="101.83659">
<time>2015-09-27T20:39:05Z</time></trkpt>
<trkpt lat="25.12035" lon="101.83654">
<time>2015-09-27T20:39:06Z</time></trkpt>
<trkpt lat="25.12029" lon="101.83647">
<time>2015-09-27T20:39:07Z</time></trkpt>
<trkpt lat="25.12022" lon="101.83641">
<time>2015-09-27T20:39:08Z</time></trkpt>
<trkpt lat="25.120189" lon="101.8364">
<time>2015-09-27T20:39:09Z</time></trkpt>
<trkpt lat="25.120019" lon="101.836289">
<time>2015-09-27T20:39:10Z</time></trkpt>
<trkpt lat="25.119539" lon="101.836019">
<time>2015-09-27T20:39:11Z</time></trkpt>
<trkpt lat="25.119118" lon="101.835768">
<time>2015-09-27T20:39:12Z</time></trkpt>
<trkpt lat="25.118868" lon="101.835598">
<time>2015-09-27T20:39:13Z</time></trkpt>
<trkpt lat="25.118768" lon="101.835508">
<time>2015-09-27T20:39:14Z</time></trkpt>
<trkpt lat="25.118628" lon="101.835367">
<time>2015-09-27T20:39:15Z</time></trkpt>
<trkpt lat="25.118517" lon="101.835257">
<time>2015-09-27T20:39:16Z</time></trkpt>
<trkpt lat="25.118427" lon="101.835117">
<time>2015-09-27T20:39:17Z</time></trkpt>
<trkpt lat="25.118347" lon="101.835006">
<time>2015-09-27T20:39:18Z</time></trkpt>
<trkpt lat="25.118237" lon="101.834796">
<time>2015-09-27T20:39:19Z</time></trkpt>
<trkpt lat="25.118206" lon="101.834696">
<time>2015-09-27T20:39:20Z</time></trkpt>
<trkpt lat="25.118116" lon="101.834445">
<time>2015-09-27T20:39:21Z</time></trkpt>
<trkpt lat="25.118005" lon="101.834134">
<time>2015-09-27T20:39:22Z</time></trkpt>
<trkpt lat="25.117895" lon="101.833814">
<time>2015-09-27T20:39:23Z</time></trkpt>
<trkpt lat="25.117784" lon="101.833473">
<time>2015-09-27T20:39:24Z</time></trkpt>
<trkpt lat="25.117573" lon="101.832831">
<time>2015-09-27T20:39:25Z</time></trkpt>
<trkpt lat="25.117442" lon="101.83244">
<time>2015-09-27T20:39:26Z</time></trkpt>
<trkpt lat="25.117291" lon="101.831979">
<time>2015-09-27T20:39:27Z</time></trkpt>
<trkpt lat="25.117201" lon="101.831739">
<time>2015-09-27T20:39:28Z</time></trkpt>
<trkpt lat="25.117141" lon="101.831629">
<time>2015-09-27T20:39:29Z</time></trkpt>
<trkpt lat="25.11703" lon="101.831408">
<time>2015-09-27T20:39:30Z</time></trkpt>
<trkpt lat="25.11691" lon="101.831238">
<time>2015-09-27T20:39:31Z</time></trkpt>
<trkpt lat="25.11683" lon="101.831147">
<time>2015-09-27T20:39:32Z</time></trkpt>
<trkpt lat="25.11674" lon="101.831067">
<time>2015-09-27T20:39:33Z</time></trkpt>
<trkpt lat="25.11664" lon="101.830997">
<time>2015-09-27T20:39:34Z</time></trkpt>
<trkpt lat="25.11657" lon="101.830947">
<time>2015-09-27T20:39:35Z</time></trkpt>
<trkpt lat="25.11649" lon="101.830907">
<time>2015-09-27T20:39:36Z</time></trkpt>
<trkpt lat="25.116419" lon="101.830887">
<time>2015-09-27T20:39:37Z</time></trkpt>
<trkpt lat="25.116329" lon="101.830857">
<time>2015-09-27T20:39:38Z</time></trkpt>
<trkpt lat="25.116219" lon="101.830847">
<time>2015-09-27T20:39:39Z</time></trkpt>
<trkpt lat="25.116079" lon="101.830837">
<time>2015-09-27T20:39:40Z</time></trkpt>
<trkpt lat="25.115739" lon="101.830827">
<time>2015-09-27T20:39:41Z</time></trkpt>
<trkpt lat="25.115469" lon="101.830797">
<time>2015-09-27T20:39:42Z</time></trkpt>
<trkpt lat="25.115379" lon="101.830797">
<time>2015-09-27T20:39:43Z</time></trkpt>
<trkpt lat="25.115289" lon="101.830777">
<time>2015-09-27T20:39:44Z</time></trkpt>
<trkpt lat="25.115169" lon="101.830757">
<time>2015-09-27T20:39:45Z</time></trkpt>
<trkpt lat="25.115069" lon="101.830737">
<time>2015-09-27T20:39:46Z</time></trkpt>
<trkpt lat="25.114949" lon="101.830696">
<time>2015-09-27T20:39:47Z</time></trkpt>
<trkpt lat="25.114859" lon="101.830656">
<time>2015-09-27T20:39:48Z</time></trkpt>
<trkpt lat="25.114749" lon="101.830606">
<time>2015-09-27T20:39:49Z</time></trkpt>
<trkpt lat="25.114669" lon="101.830546">
<time>2015-09-27T20:39:50Z</time></trkpt>
<trkpt lat="25.114589" lon="101.830476">
<time>2015-09-27T20:39:51Z</time></trkpt>
<trkpt lat="25.114519" lon="101.830406">
<time>2015-09-27T20:39:52Z</time></trkpt>
<trkpt lat="25.114449" lon="101.830316">
<time>2015-09-27T20:39:53Z</time></trkpt>
<trkpt lat="25.114408" lon="101.830255">
<time>2015-09-27T20:39:54Z</time></trkpt>
<trkpt lat="25.114368" lon="101.830175">
<time>2015-09-27T20:39:55Z</time></trkpt>
<trkpt lat="25.114338" lon="101.830105">
<time>2015-09-27T20:39:56Z</time></trkpt>
<trkpt lat="25.114308" lon="101.830005">
<time>2015-09-27T20:39:57Z</time></trkpt>
<trkpt lat="25.114278" lon="101.829915">
<time>2015-09-27T20:39:58Z</time></trkpt>
<trkpt lat="25.114268" lon="101.829814">
<time>2015-09-27T20:39:59Z</time></trkpt>
<trkpt lat="25.114257" lon="101.829674">
<time>2015-09-27T20:40:00Z</time></trkpt>
<trkpt lat="25.114267" lon="101.829554">
<time>2015-09-27T20:40:01Z</time></trkpt>
<trkpt lat="25.114287" lon="101.829494">
<time>2015-09-27T20:40:02Z</time></trkpt>
<trkpt lat="25.114327" lon="101.829353">
<time>2015-09-27T20:40:03Z</time></trkpt>
<trkpt lat="25.114416" lon="101.829143">
<time>2015-09-27T20:40:04Z</time></trkpt>
<trkpt lat="25.114586" lon="101.828872">
<time>2015-09-27T20:40:05Z</time></trkpt>
<trkpt lat="25.114725" lon="101.828662">
<time>2015-09-27T20:40:06Z</time></trkpt>
<trkpt lat="25.114865" lon="101.828471">
<time>2015-09-27T20:40:07Z</time></trkpt>
<trkpt lat="25.115065" lon="101.828211">
<time>2015-09-27T20:40:08Z</time></trkpt>
<trkpt lat="25.115184" lon="101.82803">
<time>2015-09-27T20:40:09Z</time></trkpt>
<trkpt lat="25.115264" lon="101.82786">
<time>2015-09-27T20:40:10Z</time></trkpt>
<trkpt lat="25.115344" lon="101.827709">
<time>2015-09-27T20:40:11Z</time></trkpt>
<trkpt lat="25.115393" lon="101.827529">
<time>2015-09-27T20:40:12Z</time></trkpt>
<trkpt lat="25.115403" lon="101.827439">
<time>2015-09-27T20:40:13Z</time></trkpt>
<trkpt lat="25.115373" lon="101.827339">
<time>2015-09-27T20:40:14Z</time></trkpt>
<trkpt lat="25.115333" lon="101.827278">
<time>2015-09-27T20:40:15Z</time></trkpt>
<trkpt lat="25.115263" lon="101.827198">
<time>2015-09-27T20:40:16Z</time></trkpt>
<trkpt lat="25.115192" lon="101.827128">
<time>2015-09-27T20:40:17Z</time></trkpt>
<trkpt lat="25.115072" lon="101.827078">
<time>2015-09-27T20:40:18Z</time></trkpt>
<trkpt lat="25.114932" lon="101.827028">
<time>2015-09-27T20:40:19Z</time></trkpt>
<trkpt lat="25.114802" lon="101.826988">
<time>2015-09-27T20:40:20Z</time></trkpt>
<trkpt lat="25.114662" lon="101.826968">
<time>2015-09-27T20:40:21Z</time></trkpt>
<trkpt lat="25.114522" lon="101.826948">
<time>2015-09-27T20:40:22Z</time></trkpt>
<trkpt lat="25.114362" lon="101.826948">
<time>2015-09-27T20:40:23Z</time></trkpt>
<trkpt lat="25.114272" lon="101.826958">
<time>2015-09-27T20:40:24Z</time></trkpt>
<trkpt lat="25.114142" lon="101.827008">
<time>2015-09-27T20:40:25Z</time></trkpt>
<trkpt lat="25.114022" lon="101.827068">
<time>2015-09-27T20:40:26Z</time></trkpt>
<trkpt lat="25.113853" lon="101.827218">
<time>2015-09-27T20:40:27Z</time></trkpt>
<trkpt lat="25.113733" lon="101.827319">
<time>2015-09-27T20:40:28Z</time></trkpt>
<trkpt lat="25.113573" lon="101.827469">
<time>2015-09-27T20:40:29Z</time></trkpt>
<trkpt lat="25.113424" lon="101.827589">
<time>2015-09-27T20:40:30Z</time></trkpt>
<trkpt lat="25.113364" lon="101.827609">
<time>2015-09-27T20:40:31Z</time></trkpt>
<trkpt lat="25.113314" lon="101.827629">
<time>2015-09-27T20:40:32Z</time></trkpt>
<trkpt lat="25.113244" lon="101.827649">
<time>2015-09-27T20:40:33Z</time></trkpt>
<trkpt lat="25.113174" lon="101.827639">
<time>2015-09-27T20:40:34Z</time></trkpt>
<trkpt lat="25.113104" lon="101.827629">
<time>2015-09-27T20:40:35Z</time></trkpt>
<trkpt lat="25.113054" lon="101.827599">
<time>2015-09-27T20:40:36Z</time></trkpt>
<trkpt lat="25.112993" lon="101.827559">
<time>2015-09-27T20:40:37Z</time></trkpt>
<trkpt lat="25.112953" lon="101.827509">
<time>2015-09-27T20:40:38Z</time></trkpt>
<trkpt lat="25.112913" lon="101.827459">
<time>2015-09-27T20:40:39Z</time></trkpt>
<trkpt lat="25.112883" lon="101.827409">
<time>2015-09-27T20:40:40Z</time></trkpt>
<trkpt lat="25.112863" lon="101.827339">
<time>2015-09-27T20:40:41Z</time></trkpt>
<trkpt lat="25.112833" lon="101.827218">
<time>2015-09-27T20:40:42Z</time></trkpt>
<trkpt lat="25.112802" lon="101.826948">
<time>2015-09-27T20:40:43Z</time></trkpt>
<trkpt lat="25.112792" lon="101.826557">
<time>2015-09-27T20:40:44Z</time></trkpt>
<trkpt lat="25.112771" lon="101.826326">
<time>2015-09-27T20:40:45Z</time></trkpt>
<trkpt lat="25.112731" lon="101.826186">
<time>2015-09-27T20:40:46Z</time></trkpt>
<trkpt lat="25.112661" lon="101.826056">
<time>2015-09-27T20:40:47Z</time></trkpt>
<trkpt lat="25.112601" lon="101.825965">
<time>2015-09-27T20:40:48Z</time></trkpt>
<trkpt lat="25.11247" lon="101.825835">
<time>2015-09-27T20:40:49Z</time></trkpt>
<trkpt lat="25.11231" lon="101.825705">
<time>2015-09-27T20:40:50Z</time></trkpt>
<trkpt lat="25.11208" lon="101.825544">
<time>2015-09-27T20:40:51Z</time></trkpt>
<trkpt lat="25.1119" lon="101.825454">
<time>2015-09-27T20:40:52Z</time></trkpt>
<trkpt lat="25.111699" lon="101.825364">
<time>2015-09-27T20:40:53Z</time></trkpt>
<trkpt lat="25.111429" lon="101.825244">
<time>2015-09-27T20:40:54Z</time></trkpt>
<trkpt lat="25.110949" lon="101.825073">
<time>2015-09-27T20:40:55Z</time></trkpt>
<trkpt lat="25.110709" lon="101.824973">
<time>2015-09-27T20:40:56Z</time></trkpt>
<trkpt lat="25.110439" lon="101.824823">
<time>2015-09-27T20:40:57Z</time></trkpt>
<trkpt lat="25.110258" lon="101.824693">
<time>2015-09-27T20:40:58Z</time></trkpt>
<trkpt lat="25.110088" lon="101.824532">
<time>2015-09-27T20:40:59Z</time></trkpt>
<trkpt lat="25.109878" lon="101.824322">
<time>2015-09-27T20:41:00Z</time></trkpt>
<trkpt lat="25.109667" lon="101.824101">
<time>2015-09-27T20:41:01Z</time></trkpt>
<trkpt lat="25.109547" lon="101.823971">
<time>2015-09-27T20:41:02Z</time></trkpt>
<trkpt lat="25.109457" lon="101.82381">
<time>2015-09-27T20:41:03Z</time></trkpt>
<trkpt lat="25.109376" lon="101.82364">
<time>2015-09-27T20:41:04Z</time></trkpt>
<trkpt lat="25.109286" lon="101.82345">
<time>2015-09-27T20:41:05Z</time></trkpt>
<trkpt lat="25.109226" lon="101.823299">
<time>2015-09-27T20:41:06Z</time></trkpt>
<trkpt lat="25.109165" lon="101.823099">
<time>2015-09-27T20:41:07Z</time></trkpt>
<trkpt lat="25.109155" lon="101.822908">
<time>2015-09-27T20:41:08Z</time></trkpt>
<trkpt lat="25.109165" lon="101.822698">
<time>2015-09-27T20:41:09Z</time></trkpt>
<trkpt lat="25.109214" lon="101.822467">
<time>2015-09-27T20:41:10Z</time></trkpt>
<trkpt lat="25.109284" lon="101.822227">
<time>2015-09-27T20:41:11Z</time></trkpt>
<trkpt lat="25.109303" lon="101.822086">
<time>2015-09-27T20:41:12Z</time></trkpt>
<trkpt lat="25.109303" lon="101.821976">
<time>2015-09-27T20:41:13Z</time></trkpt>
<trkpt lat="25.109293" lon="101.821866">
<time>2015-09-27T20:41:14Z</time></trkpt>
<trkpt lat="25.109233" lon="101.821766">
<time>2015-09-27T20:41:15Z</time></trkpt>
<trkpt lat="25.109153" lon="101.821706">
<time>2015-09-27T20:41:16Z</time></trkpt>
<trkpt lat="25.109063" lon="101.821676">
<time>2015-09-27T20:41:17Z</time></trkpt>
<trkpt lat="25.108953" lon="101.821676">
<time>2015-09-27T20:41:18Z</time></trkpt>
<trkpt lat="25.108763" lon="101.821696">
<time>2015-09-27T20:41:19Z</time></trkpt>
<trkpt lat="25.108613" lon="101.821716">
<time>2015-09-27T20:41:20Z</time></trkpt>
<trkpt lat="25.108463" lon="101.821726">
<time>2015-09-27T20:41:21Z</time></trkpt>
<trkpt lat="25.108333" lon="101.821716">
<time>2015-09-27T20:41:22Z</time></trkpt>
<trkpt lat="25.108223" lon="101.821686">
<time>2015-09-27T20:41:23Z</time></trkpt>
<trkpt lat="25.108123" lon="101.821625">
<time>2015-09-27T20:41:24Z</time></trkpt>
<trkpt lat="25.108013" lon="101.821515">
<time>2015-09-27T20:41:25Z</time></trkpt>
<trkpt lat="25.107922" lon="101.821415">
<time>2015-09-27T20:41:26Z</time></trkpt>
<trkpt lat="25.107752" lon="101.821124">
<time>2015-09-27T20:41:27Z</time></trkpt>
<trkpt lat="25.107431" lon="101.820483">
<time>2015-09-27T20:41:28Z</time></trkpt>
<trkpt lat="25.1073" lon="101.820192">
<time>2015-09-27T20:41:29Z</time></trkpt>
<trkpt lat="25.10722" lon="101.819952">
<time>2015-09-27T20:41:30Z</time></trkpt>
<trkpt lat="25.107189" lon="101.819811">
<time>2015-09-27T20:41:31Z</time></trkpt>
<trkpt lat="25.107179" lon="101.819641">
<time>2015-09-27T20:41:32Z</time></trkpt>
<trkpt lat="25.107179" lon="101.81938">
<time>2015-09-27T20:41:33Z</time></trkpt>
<trkpt lat="25.107178" lon="101.81926">
<time>2015-09-27T20:41:34Z</time></trkpt>
<trkpt lat="25.107168" lon="101.81916">
<time>2015-09-27T20:41:35Z</time></trkpt>
<trkpt lat="25.107138" lon="101.819029">
<time>2015-09-27T20:41:36Z</time></trkpt>
<trkpt lat="25.107108" lon="101.818929">
<time>2015-09-27T20:41:37Z</time></trkpt>
<trkpt lat="25.107058" lon="101.818849">
<time>2015-09-27T20:41:38Z</time></trkpt>
<trkpt lat="25.106997" lon="101.818779">
<time>2015-09-27T20:41:39Z</time></trkpt>
<trkpt lat="25.106907" lon="101.818709">
<time>2015-09-27T20:41:40Z</time></trkpt>
<trkpt lat="25.106747" lon="101.818608">
<time>2015-09-27T20:41:41Z</time></trkpt>
<trkpt lat="25.106547" lon="101.818498">
<time>2015-09-27T20:41:42Z</time></trkpt>
<trkpt lat="25.106407" lon="101.818448">
<time>2015-09-27T20:41:43Z</time></trkpt>
<trkpt lat="25.106277" lon="101.818418">
<time>2015-09-27T20:41:44Z</time></trkpt>
<trkpt lat="25.106167" lon="101.818388">
<time>2015-09-27T20:41:45Z</time></trkpt>
<trkpt lat="25.106047" lon="101.818378">
<time>2015-09-27T20:41:46Z</time></trkpt>
<trkpt lat="25.105877" lon="101.818378">
<time>2015-09-27T20:41:47Z</time></trkpt>
<trkpt lat="25.105727" lon="101.818368">
<time>2015-09-27T20:41:48Z</time></trkpt>
<trkpt lat="25.105647" lon="101.818358">
<time>2015-09-27T20:41:49Z</time></trkpt>
<trkpt lat="25.105577" lon="101.818348">
<time>2015-09-27T20:41:50Z</time></trkpt>
<trkpt lat="25.105507" lon="101.818318">
<time>2015-09-27T20:41:51Z</time></trkpt>
<trkpt lat="25.105427" lon="101.818278">
<time>2015-09-27T20:41:52Z</time></trkpt>
<trkpt lat="25.105327" lon="101.818188">
<time>2015-09-27T20:41:53Z</time></trkpt>
<trkpt lat="25.105276" lon="101.818127">
<time>2015-09-27T20:41:54Z</time></trkpt>
<trkpt lat="25.105236" lon="101.818047">
<time>2015-09-27T20:41:55Z</time></trkpt>
<trkpt lat="25.105206" lon="101.817947">
<time>2015-09-27T20:41:56Z</time></trkpt>
<trkpt lat="25.105186" lon="101.817827">
<time>2015-09-27T20:41:57Z</time></trkpt>
<trkpt lat="25.105176" lon="101.817716">
<time>2015-09-27T20:41:58Z</time></trkpt>
<trkpt lat="25.105175" lon="101.817466">
<time>2015-09-27T20:41:59Z</time></trkpt>
<trkpt lat="25.105195" lon="101.817346">
<time>2015-09-27T20:42:00Z</time></trkpt>
<trkpt lat="25.105245" lon="101.817155">
<time>2015-09-27T20:42:01Z</time></trkpt>
<trkpt lat="25.105284" lon="101.816995">
<time>2015-09-27T20:42:02Z</time></trkpt>
<trkpt lat="25.105344" lon="101.816834">
<time>2015-09-27T20:42:03Z</time></trkpt>
<trkpt lat="25.105404" lon="101.816684">
<time>2015-09-27T20:42:04Z</time></trkpt>
<trkpt lat="25.105513" lon="101.816464">
<time>2015-09-27T20:42:05Z</time></trkpt>
<trkpt lat="25.105613" lon="101.816263">
<time>2015-09-27T20:42:06Z</time></trkpt>
<trkpt lat="25.105683" lon="101.816143">
<time>2015-09-27T20:42:07Z</time></trkpt>
<trkpt lat="25.105742" lon="101.816033">
<time>2015-09-27T20:42:08Z</time></trkpt>
<trkpt lat="25.105772" lon="101.815952">
<time>2015-09-27T20:42:09Z</time></trkpt>
<trkpt lat="25.105812" lon="101.815852">
<time>2015-09-27T20:42:10Z</time></trkpt>
<trkpt lat="25.105842" lon="101.815762">
<time>2015-09-27T20:42:11Z</time></trkpt>
<trkpt lat="25.105852" lon="101.815692">
<time>2015-09-27T20:42:12Z</time></trkpt>
<trkpt lat="25.105862" lon="101.815632">
<time>2015-09-27T20:42:13Z</time></trkpt>
<trkpt lat="25.105862" lon="101.815571">
<time>2015-09-27T20:42:14Z</time></trkpt>
<trkpt lat="25.105852" lon="101.815501">
<time>2015-09-27T20:42:15Z</time></trkpt>
<trkpt lat="25.105821" lon="101.815431">
<time>2015-09-27T20:42:16Z</time></trkpt>
<trkpt lat="25.105771" lon="101.815341">
<time>2015-09-27T20:42:17Z</time></trkpt>
<trkpt lat="25.105711" lon="101.815261">
<time>2015-09-27T20:42:18Z</time></trkpt>
<trkpt lat="25.105641" lon="101.815181">
<time>2015-09-27T20:42:19Z</time></trkpt>
<trkpt lat="25.105521" lon="101.81504">
<time>2015-09-27T20:42:20Z</time></trkpt>
<trkpt lat="25.105471" lon="101.81498">
<time>2015-09-27T20:42:21Z</time></trkpt>
<trkpt lat="25.10534" lon="101.81483">
<time>2015-09-27T20:42:22Z</time></trkpt>
<trkpt lat="25.10514" lon="101.814609">
<time>2015-09-27T20:42:23Z</time></trkpt>
<trkpt lat="25.10497" lon="101.814419">
<time>2015-09-27T20:42:24Z</time></trkpt>
<trkpt lat="25.104739" lon="101.814148">
<time>2015-09-27T20:42:25Z</time></trkpt>
<trkpt lat="25.104649" lon="101.814018">
<time>2015-09-27T20:42:26Z</time></trkpt>
<trkpt lat="25.104619" lon="101.813968">
<time>2015-09-27T20:42:27Z</time></trkpt>
<trkpt lat="25.104579" lon="101.813898">
<time>2015-09-27T20:42:28Z</time></trkpt>
<trkpt lat="25.104529" lon="101.813808">
<time>2015-09-27T20:42:29Z</time></trkpt>
<trkpt lat="25.104508" lon="101.813737">
<time>2015-09-27T20:42:30Z</time></trkpt>
<trkpt lat="25.104488" lon="101.813687">
<time>2015-09-27T20:42:31Z</time></trkpt>
<trkpt lat="25.104478" lon="101.813597">
<time>2015-09-27T20:42:32Z</time></trkpt>
<trkpt lat="25.104448" lon="101.813497">
<time>2015-09-27T20:42:33Z</time></trkpt>
<trkpt lat="25.104418" lon="101.813336">
<time>2015-09-27T20:42:34Z</time></trkpt>
<trkpt lat="25.104397" lon="101.813206">
<time>2015-09-27T20:42:35Z</time></trkpt>
<trkpt lat="25.104367" lon="101.813026">
<time>2015-09-27T20:42:36Z</time></trkpt>
<trkpt lat="25.104337" lon="101.812865">
<time>2015-09-27T20:42:37Z</time></trkpt>
<trkpt lat="25.104306" lon="101.812685">
<time>2015-09-27T20:42:38Z</time></trkpt>
<trkpt lat="25.104266" lon="101.812454">
<time>2015-09-27T20:42:39Z</time></trkpt>
<trkpt lat="25.104216" lon="101.812264">
<time>2015-09-27T20:42:40Z</time></trkpt>
<trkpt lat="25.104206" lon="101.812224">
<time>2015-09-27T20:42:41Z</time></trkpt>
<trkpt lat="25.104155" lon="101.811993">
<time>2015-09-27T20:42:42Z</time></trkpt>
<trkpt lat="25.104115" lon="101.811863">
<time>2015-09-27T20:42:43Z</time></trkpt>
<trkpt lat="25.104055" lon="101.811693">
<time>2015-09-27T20:42:44Z</time></trkpt>
<trkpt lat="25.104004" lon="101.811542">
<time>2015-09-27T20:42:45Z</time></trkpt>
<trkpt lat="25.103964" lon="101.811432">
<time>2015-09-27T20:42:46Z</time></trkpt>
<trkpt lat="25.103924" lon="101.811302">
<time>2015-09-27T20:42:47Z</time></trkpt>
<trkpt lat="25.103834" lon="101.811081">
<time>2015-09-27T20:42:48Z</time></trkpt>
<trkpt lat="25.103773" lon="101.810921">
<time>2015-09-27T20:42:49Z</time></trkpt>
<trkpt lat="25.103743" lon="101.810831">
<time>2015-09-27T20:42:50Z</time></trkpt>
<trkpt lat="25.103663" lon="101.81062">
<time>2015-09-27T20:42:51Z</time></trkpt>
<trkpt lat="25.103552" lon="101.81033">
<time>2015-09-27T20:42:52Z</time></trkpt>
<trkpt lat="25.103442" lon="101.810029">
<time>2015-09-27T20:42:53Z</time></trkpt>
<trkpt lat="25.103372" lon="101.809889">
<time>2015-09-27T20:42:54Z</time></trkpt>
<trkpt lat="25.103271" lon="101.809688">
<time>2015-09-27T20:42:55Z</time></trkpt>
<trkpt lat="25.103191" lon="101.809528">
<time>2015-09-27T20:42:56Z</time></trkpt>
<trkpt lat="25.10305" lon="101.809267">
<time>2015-09-27T20:42:57Z</time></trkpt>
<trkpt lat="25.10294" lon="101.809087">
<time>2015-09-27T20:42:58Z</time></trkpt>
<trkpt lat="25.10285" lon="101.808957">
<time>2015-09-27T20:42:59Z</time></trkpt>
<trkpt lat="25.10278" lon="101.808887">
<time>2015-09-27T20:43:00Z</time></trkpt>
<trkpt lat="25.10273" lon="101.808846">
<time>2015-09-27T20:43:01Z</time></trkpt>
<trkpt lat="25.10267" lon="101.808806">
<time>2015-09-27T20:43:02Z</time></trkpt>
<trkpt lat="25.1026" lon="101.808776">
<time>2015-09-27T20:43:03Z</time></trkpt>
<trkpt lat="25.10253" lon="101.808766">
<time>2015-09-27T20:43:04Z</time></trkpt>
<trkpt lat="25.10245" lon="101.808756">
<time>2015-09-27T20:43:05Z</time></trkpt>
<trkpt lat="25.10237" lon="101.808756">
<time>2015-09-27T20:43:06Z</time></trkpt>
<trkpt lat="25.10223" lon="101.808766">
<time>2015-09-27T20:43:07Z</time></trkpt>
<trkpt lat="25.102" lon="101.808776">
<time>2015-09-27T20:43:08Z</time></trkpt>
<trkpt lat="25.10174" lon="101.808806">
<time>2015-09-27T20:43:09Z</time></trkpt>
<trkpt lat="25.1015" lon="101.808826">
<time>2015-09-27T20:43:10Z</time></trkpt>
<trkpt lat="25.10136" lon="101.808847">
<time>2015-09-27T20:43:11Z</time></trkpt>
<trkpt lat="25.10128" lon="101.808847">
<time>2015-09-27T20:43:12Z</time></trkpt>
<trkpt lat="25.10121" lon="101.808847">
<time>2015-09-27T20:43:13Z</time></trkpt>
<trkpt lat="25.10109" lon="101.808826">
<time>2015-09-27T20:43:14Z</time></trkpt>
<trkpt lat="25.10094" lon="101.808796">
<time>2015-09-27T20:43:15Z</time></trkpt>
<trkpt lat="25.10087" lon="101.808776">
<time>2015-09-27T20:43:16Z</time></trkpt>
<trkpt lat="25.10078" lon="101.808756">
<time>2015-09-27T20:43:17Z</time></trkpt>
<trkpt lat="25.10039" lon="101.808686">
<time>2015-09-27T20:43:18Z</time></trkpt>
<trkpt lat="25.10023" lon="101.808636">
<time>2015-09-27T20:43:19Z</time></trkpt>
<trkpt lat="25.10017" lon="101.808616">
<time>2015-09-27T20:43:20Z</time></trkpt>
<trkpt lat="25.10013" lon="101.808596">
<time>2015-09-27T20:43:21Z</time></trkpt>
<trkpt lat="25.100059" lon="101.808556">
<time>2015-09-27T20:43:22Z</time></trkpt>
<trkpt lat="25.099959" lon="101.808476">
<time>2015-09-27T20:43:23Z</time></trkpt>
<trkpt lat="25.099889" lon="101.808396">
<time>2015-09-27T20:43:24Z</time></trkpt>
<trkpt lat="25.099839" lon="101.808305">
<time>2015-09-27T20:43:25Z</time></trkpt>
<trkpt lat="25.099789" lon="101.808205">
<time>2015-09-27T20:43:26Z</time></trkpt>
<trkpt lat="25.099739" lon="101.808095">
<time>2015-09-27T20:43:27Z</time></trkpt>
<trkpt lat="25.099709" lon="101.807995">
<time>2015-09-27T20:43:28Z</time></trkpt>
<trkpt lat="25.099688" lon="101.807894">
<time>2015-09-27T20:43:29Z</time></trkpt>
<trkpt lat="25.099668" lon="101.807744">
<time>2015-09-27T20:43:30Z</time></trkpt>
<trkpt lat="25.099638" lon="101.807574">
<time>2015-09-27T20:43:31Z</time></trkpt>
<trkpt lat="25.099607" lon="101.807333">
<time>2015-09-27T20:43:32Z</time></trkpt>
<trkpt lat="25.099577" lon="101.807063">
<time>2015-09-27T20:43:33Z</time></trkpt>
<trkpt lat="25.099536" lon="101.806802">
<time>2015-09-27T20:43:34Z</time></trkpt>
<trkpt lat="25.099496" lon="101.806662">
<time>2015-09-27T20:43:35Z</time></trkpt>
<trkpt lat="25.099476" lon="101.806612">
<time>2015-09-27T20:43:36Z</time></trkpt>
<trkpt lat="25.099456" lon="101.806542">
<time>2015-09-27T20:43:37Z</time></trkpt>
<trkpt lat="25.099416" lon="101.806481">
<time>2015-09-27T20:43:38Z</time></trkpt>
<trkpt lat="25.099376" lon="101.806421">
<time>2015-09-27T20:43:39Z</time></trkpt>
<trkpt lat="25.099316" lon="101.806341">
<time>2015-09-27T20:43:40Z</time></trkpt>
<trkpt lat="25.099246" lon="101.806251">
<time>2015-09-27T20:43:41Z</time></trkpt>
<trkpt lat="25.099115" lon="101.806081">
<time>2015-09-27T20:43:42Z</time></trkpt>
<trkpt lat="25.098935" lon="101.80581">
<time>2015-09-27T20:43:43Z</time></trkpt>
<trkpt lat="25.098824" lon="101.80562">
<time>2015-09-27T20:43:44Z</time></trkpt>
<trkpt lat="25.098744" lon="101.805509">
<time>2015-09-27T20:43:45Z</time></trkpt>
<trkpt lat="25.098684" lon="101.805409">
<time>2015-09-27T20:43:46Z</time></trkpt>
<trkpt lat="25.098634" lon="101.805349">
<time>2015-09-27T20:43:47Z</time></trkpt>
<trkpt lat="25.098564" lon="101.805269">
<time>2015-09-27T20:43:48Z</time></trkpt>
<trkpt lat="25.098474" lon="101.805189">
<time>2015-09-27T20:43:49Z</time></trkpt>
<trkpt lat="25.098394" lon="101.805129">
<time>2015-09-27T20:43:50Z</time></trkpt>
<trkpt lat="25.098304" lon="101.805058">
<time>2015-09-27T20:43:51Z</time></trkpt>
<trkpt lat="25.098213" lon="101.805008">
<time>2015-09-27T20:43:52Z</time></trkpt>
<trkpt lat="25.098093" lon="101.804938">
<time>2015-09-27T20:43:53Z</time></trkpt>
<trkpt lat="25.097863" lon="101.804798">
<time>2015-09-27T20:43:54Z</time></trkpt>
<trkpt lat="25.097633" lon="101.804648">
<time>2015-09-27T20:43:55Z</time></trkpt>
<trkpt lat="25.097453" lon="101.804537">
<time>2015-09-27T20:43:56Z</time></trkpt>
<trkpt lat="25.097273" lon="101.804427">
<time>2015-09-27T20:43:57Z</time></trkpt>
<trkpt lat="25.097022" lon="101.804267">
<time>2015-09-27T20:43:58Z</time></trkpt>
<trkpt lat="25.096862" lon="101.804167">
<time>2015-09-27T20:43:59Z</time></trkpt>
<trkpt lat="25.096572" lon="101.803986">
<time>2015-09-27T20:44:00Z</time></trkpt>
<trkpt lat="25.096462" lon="101.803916">
<time>2015-09-27T20:44:01Z</time></trkpt>
<trkpt lat="25.096392" lon="101.803856">
<time>2015-09-27T20:44:02Z</time></trkpt>
<trkpt lat="25.096332" lon="101.803796">
<time>2015-09-27T20:44:03Z</time></trkpt>
<trkpt lat="25.096251" lon="101.803716">
<time>2015-09-27T20:44:04Z</time></trkpt>
<trkpt lat="25.096191" lon="101.803645">
<time>2015-09-27T20:44:05Z</time></trkpt>
<trkpt lat="25.096131" lon="101.803545">
<time>2015-09-27T20:44:06Z</time></trkpt>
<trkpt lat="25.096061" lon="101.803415">
<time>2015-09-27T20:44:07Z</time></trkpt>
<trkpt lat="25.095991" lon="101.803285">
<time>2015-09-27T20:44:08Z</time></trkpt>
<trkpt lat="25.095901" lon="101.803134">
<time>2015-09-27T20:44:09Z</time></trkpt>
<trkpt lat="25.09583" lon="101.803004">
<time>2015-09-27T20:44:10Z</time></trkpt>
<trkpt lat="25.09577" lon="101.802904">
<time>2015-09-27T20:44:11Z</time></trkpt>
<trkpt lat="25.09572" lon="101.802834">
<time>2015-09-27T20:44:12Z</time></trkpt>
<trkpt lat="25.09568" lon="101.802784">
<time>2015-09-27T20:44:13Z</time></trkpt>
<trkpt lat="25.09564" lon="101.802734">
<time>2015-09-27T20:44:14Z</time></trkpt>
<trkpt lat="25.0956" lon="101.802683">
<time>2015-09-27T20:44:15Z</time></trkpt>
<trkpt lat="25.09554" lon="101.802633">
<time>2015-09-27T20:44:16Z</time></trkpt>
<trkpt lat="25.0955" lon="101.802603">
<time>2015-09-27T20:44:17Z</time></trkpt>
<trkpt lat="25.09546" lon="101.802573">
<time>2015-09-27T20:44:18Z</time></trkpt>
<trkpt lat="25.09542" lon="101.802543">
<time>2015-09-27T20:44:19Z</time></trkpt>
<trkpt lat="25.09536" lon="101.802513">
<time>2015-09-27T20:44:20Z</time></trkpt>
<trkpt lat="25.095279" lon="101.802473">
<time>2015-09-27T20:44:21Z</time></trkpt>
<trkpt lat="25.095179" lon="101.802423">
<time>2015-09-27T20:44:22Z</time></trkpt>
<trkpt lat="25.095029" lon="101.802363">
<time>2015-09-27T20:44:23Z</time></trkpt>
<trkpt lat="25.094889" lon="101.802293">
<time>2015-09-27T20:44:24Z</time></trkpt>
<trkpt lat="25.094759" lon="101.802243">
<time>2015-09-27T20:44:25Z</time></trkpt>
<trkpt lat="25.094569" lon="101.802162">
<time>2015-09-27T20:44:26Z</time></trkpt>
<trkpt lat="25.094409" lon="101.802102">
<time>2015-09-27T20:44:27Z</time></trkpt>
<trkpt lat="25.094279" lon="101.802052">
<time>2015-09-27T20:44:28Z</time></trkpt>
<trkpt lat="25.093869" lon="101.801902">
<time>2015-09-27T20:44:29Z</time></trkpt>
<trkpt lat="25.093669" lon="101.801842">
<time>2015-09-27T20:44:30Z</time></trkpt>
<trkpt lat="25.093488" lon="101.801762">
<time>2015-09-27T20:44:31Z</time></trkpt>
<trkpt lat="25.093388" lon="101.801711">
<time>2015-09-27T20:44:32Z</time></trkpt>
<trkpt lat="25.093318" lon="101.801681">
<time>2015-09-27T20:44:33Z</time></trkpt>
<trkpt lat="25.093248" lon="101.801641">
<time>2015-09-27T20:44:34Z</time></trkpt>
<trkpt lat="25.093168" lon="101.801581">
<time>2015-09-27T20:44:35Z</time></trkpt>
<trkpt lat="25.092968" lon="101.801411">
<time>2015-09-27T20:44:36Z</time></trkpt>
<trkpt lat="25.092768" lon="101.80122">
<time>2015-09-27T20:44:37Z</time></trkpt>
<trkpt lat="25.092617" lon="101.80109">
<time>2015-09-27T20:44:38Z</time></trkpt>
<trkpt lat="25.092547" lon="101.80104">
<time>2015-09-27T20:44:39Z</time></trkpt>
<trkpt lat="25.092397" lon="101.80093">
<time>2015-09-27T20:44:40Z</time></trkpt>
<trkpt lat="25.092337" lon="101.80089">
<time>2015-09-27T20:44:41Z</time></trkpt>
<trkpt lat="25.092257" lon="101.80084">
<time>2015-09-27T20:44:42Z</time></trkpt>
<trkpt lat="25.092167" lon="101.80081">
<time>2015-09-27T20:44:43Z</time></trkpt>
<trkpt lat="25.092047" lon="101.80076">
<time>2015-09-27T20:44:44Z</time></trkpt>
<trkpt lat="25.091977" lon="101.80074">
<time>2015-09-27T20:44:45Z</time></trkpt>
<trkpt lat="25.091787" lon="101.800689">
<time>2015-09-27T20:44:46Z</time></trkpt>
<trkpt lat="25.091637" lon="101.800659">
<time>2015-09-27T20:44:47Z</time></trkpt>
<trkpt lat="25.091257" lon="101.800569">
<time>2015-09-27T20:44:48Z</time></trkpt>
<trkpt lat="25.090617" lon="101.800449">
<time>2015-09-27T20:44:49Z</time></trkpt>
<trkpt lat="25.090547" lon="101.800439">
<time>2015-09-27T20:44:50Z</time></trkpt>
<trkpt lat="25.090407" lon="101.800399">
<time>2015-09-27T20:44:51Z</time></trkpt>
<trkpt lat="25.090306" lon="101.800379">
<time>2015-09-27T20:44:52Z</time></trkpt>
<trkpt lat="25.090216" lon="101.800349">
<time>2015-09-27T20:44:53Z</time></trkpt>
<trkpt lat="25.090036" lon="101.800299">
<time>2015-09-27T20:44:54Z</time></trkpt>
<trkpt lat="25.089856" lon="101.800239">
<time>2015-09-27T20:44:55Z</time></trkpt>
<trkpt lat="25.089726" lon="101.800188">
<time>2015-09-27T20:44:56Z</time></trkpt>
<trkpt lat="25.089636" lon="101.800148">
<time>2015-09-27T20:44:57Z</time></trkpt>
<trkpt lat="25.089516" lon="101.800078">
<time>2015-09-27T20:44:58Z</time></trkpt>
<trkpt lat="25.089436" lon="101.800028">
<time>2015-09-27T20:44:59Z</time></trkpt>
<trkpt lat="25.089346" lon="101.799948">
<time>2015-09-27T20:45:00Z</time></trkpt>
<trkpt lat="25.089266" lon="101.799868">
<time>2015-09-27T20:45:01Z</time></trkpt>
<trkpt lat="25.089096" lon="101.799708">
<time>2015-09-27T20:45:02Z</time></trkpt>
<trkpt lat="25.089005" lon="101.799637">
<time>2015-09-27T20:45:03Z</time></trkpt>
<trkpt lat="25.088915" lon="101.799567">
<time>2015-09-27T20:45:04Z</time></trkpt>
<trkpt lat="25.088835" lon="101.799507">
<time>2015-09-27T20:45:05Z</time></trkpt>
<trkpt lat="25.088735" lon="101.799437">
<time>2015-09-27T20:45:06Z</time></trkpt>
<trkpt lat="25.088625" lon="101.799387">
<time>2015-09-27T20:45:07Z</time></trkpt>
<trkpt lat="25.088555" lon="101.799357">
<time>2015-09-27T20:45:08Z</time></trkpt>
<trkpt lat="25.088445" lon="101.799327">
<time>2015-09-27T20:45:09Z</time></trkpt>
<trkpt lat="25.088355" lon="101.799307">
<time>2015-09-27T20:45:10Z</time></trkpt>
<trkpt lat="25.088285" lon="101.799307">
<time>2015-09-27T20:45:11Z</time></trkpt>
<trkpt lat="25.088205" lon="101.799307">
<time>2015-09-27T20:45:12Z</time></trkpt>
<trkpt lat="25.088125" lon="101.799317">
<time>2015-09-27T20:45:13Z</time></trkpt>
<trkpt lat="25.088065" lon="101.799317">
<time>2015-09-27T20:45:14Z</time></trkpt>
<trkpt lat="25.087995" lon="101.799327">
<time>2015-09-27T20:45:15Z</time></trkpt>
<trkpt lat="25.087905" lon="101.799347">
<time>2015-09-27T20:45:16Z</time></trkpt>
<trkpt lat="25.087775" lon="101.799387">
<time>2015-09-27T20:45:17Z</time></trkpt>
<trkpt lat="25.087565" lon="101.799457">
<time>2015-09-27T20:45:18Z</time></trkpt>
<trkpt lat="25.087315" lon="101.799537">
<time>2015-09-27T20:45:19Z</time></trkpt>
<trkpt lat="25.087156" lon="101.799587">
<time>2015-09-27T20:45:20Z</time></trkpt>
<trkpt lat="25.087006" lon="101.799647">
<time>2015-09-27T20:45:21Z</time></trkpt>
<trkpt lat="25.086916" lon="101.799698">
<time>2015-09-27T20:45:22Z</time></trkpt>
<trkpt lat="25.086836" lon="101.799758">
<time>2015-09-27T20:45:23Z</time></trkpt>
<trkpt lat="25.086736" lon="101.799838">
<time>2015-09-27T20:45:24Z</time></trkpt>
<trkpt lat="25.086646" lon="101.799938">
<time>2015-09-27T20:45:25Z</time></trkpt>
<trkpt lat="25.086566" lon="101.800048">
<time>2015-09-27T20:45:26Z</time></trkpt>
<trkpt lat="25.086427" lon="101.800249">
<time>2015-09-27T20:45:27Z</time></trkpt>
<trkpt lat="25.086337" lon="101.800389">
<time>2015-09-27T20:45:28Z</time></trkpt>
<trkpt lat="25.086018" lon="101.80089">
<time>2015-09-27T20:45:29Z</time></trkpt>
<trkpt lat="25.085808" lon="101.801231">
<time>2015-09-27T20:45:30Z</time></trkpt>
<trkpt lat="25.085559" lon="101.801612">
<time>2015-09-27T20:45:31Z</time></trkpt>
<trkpt lat="25.085449" lon="101.801762">
<time>2015-09-27T20:45:32Z</time></trkpt>
<trkpt lat="25.085399" lon="101.801832">
<time>2015-09-27T20:45:33Z</time></trkpt>
<trkpt lat="25.085349" lon="101.801892">
<time>2015-09-27T20:45:34Z</time></trkpt>
<trkpt lat="25.0853" lon="101.801932">
<time>2015-09-27T20:45:35Z</time></trkpt>
<trkpt lat="25.08526" lon="101.801962">
<time>2015-09-27T20:45:36Z</time></trkpt>
<trkpt lat="25.08521" lon="101.801992">
<time>2015-09-27T20:45:37Z</time></trkpt>
<trkpt lat="25.08518" lon="101.802002">
<time>2015-09-27T20:45:38Z</time></trkpt>
<trkpt lat="25.08512" lon="101.802012">
<time>2015-09-27T20:45:39Z</time></trkpt>
<trkpt lat="25.08507" lon="101.802012">
<time>2015-09-27T20:45:40Z</time></trkpt>
<trkpt lat="25.08501" lon="101.802012">
<time>2015-09-27T20:45:41Z</time></trkpt>
<trkpt lat="25.0849" lon="101.802002">
<time>2015-09-27T20:45:42Z</time></trkpt>
<trkpt lat="25.08479" lon="101.801992">
<time>2015-09-27T20:45:43Z</time></trkpt>
<trkpt lat="25.08468" lon="101.801972">
<time>2015-09-27T20:45:44Z</time></trkpt>
<trkpt lat="25.08463" lon="101.801972">
<time>2015-09-27T20:45:45Z</time></trkpt>
<trkpt lat="25.08458" lon="101.801972">
<time>2015-09-27T20:45:46Z</time></trkpt>
<trkpt lat="25.0845" lon="101.801982">
<time>2015-09-27T20:45:47Z</time></trkpt>
<trkpt lat="25.08439" lon="101.802002">
<time>2015-09-27T20:45:48Z</time></trkpt>
<trkpt lat="25.08421" lon="101.802052">
<time>2015-09-27T20:45:49Z</time></trkpt>
<trkpt lat="25.08402" lon="101.802103">
<time>2015-09-27T20:45:50Z</time></trkpt>
<trkpt lat="25.08387" lon="101.802143">
<time>2015-09-27T20:45:51Z</time></trkpt>
<trkpt lat="25.08375" lon="101.802183">
<time>2015-09-27T20:45:52Z</time></trkpt>
<trkpt lat="25.08361" lon="101.802213">
<time>2015-09-27T20:45:53Z</time></trkpt>
<trkpt lat="25.08353" lon="101.802233">
<time>2015-09-27T20:45:54Z</time></trkpt>
<trkpt lat="25.08342" lon="101.802253">
<time>2015-09-27T20:45:55Z</time></trkpt>
<trkpt lat="25.08335" lon="101.802263">
<time>2015-09-27T20:45:56Z</time></trkpt>
<trkpt lat="25.08312" lon="101.802293">
<time>2015-09-27T20:45:57Z</time></trkpt>
<trkpt lat="25.08299" lon="101.802303">
<time>2015-09-27T20:45:58Z</time></trkpt>
<trkpt lat="25.08285" lon="101.802293">
<time>2015-09-27T20:45:59Z</time></trkpt>
<trkpt lat="25.08274" lon="101.802293">
<time>2015-09-27T20:46:00Z</time></trkpt>
<trkpt lat="25.08259" lon="101.802263">
<time>2015-09-27T20:46:01Z</time></trkpt>
<trkpt lat="25.08247" lon="101.802223">
<time>2015-09-27T20:46:02Z</time></trkpt>
<trkpt lat="25.0823" lon="101.802133">
<time>2015-09-27T20:46:03Z</time></trkpt>
<trkpt lat="25.08191" lon="101.801872">
<time>2015-09-27T20:46:04Z</time></trkpt>
<trkpt lat="25.081199" lon="101.801401">
<time>2015-09-27T20:46:05Z</time></trkpt>
<trkpt lat="25.081109" lon="101.801331">
<time>2015-09-27T20:46:06Z</time></trkpt>
<trkpt lat="25.081029" lon="101.801251">
<time>2015-09-27T20:46:07Z</time></trkpt>
<trkpt lat="25.080949" lon="101.801161">
<time>2015-09-27T20:46:08Z</time></trkpt>
<trkpt lat="25.080899" lon="101.801071">
<time>2015-09-27T20:46:09Z</time></trkpt>
<trkpt lat="25.080858" lon="101.80098">
<time>2015-09-27T20:46:10Z</time></trkpt>
<trkpt lat="25.080768" lon="101.80075">
<time>2015-09-27T20:46:11Z</time></trkpt>
<trkpt lat="25.080658" lon="101.800479">
<time>2015-09-27T20:46:12Z</time></trkpt>
<trkpt lat="25.080527" lon="101.800259">
<time>2015-09-27T20:46:13Z</time></trkpt>
<trkpt lat="25.080377" lon="101.800099">
<time>2015-09-27T20:46:14Z</time></trkpt>
<trkpt lat="25.080067" lon="101.799928">
<time>2015-09-27T20:46:15Z</time></trkpt>
<trkpt lat="25.079877" lon="101.799808">
<time>2015-09-27T20:46:16Z</time></trkpt>
<trkpt lat="25.079686" lon="101.799678">
<time>2015-09-27T20:46:17Z</time></trkpt>
<trkpt lat="25.079476" lon="101.799497">
<time>2015-09-27T20:46:18Z</time></trkpt>
<trkpt lat="25.078665" lon="101.798746">
<time>2015-09-27T20:46:19Z</time></trkpt>
<trkpt lat="25.078485" lon="101.798616">
<time>2015-09-27T20:46:20Z</time></trkpt>
<trkpt lat="25.078255" lon="101.798475">
<time>2015-09-27T20:46:21Z</time></trkpt>
<trkpt lat="25.078004" lon="101.798375">
<time>2015-09-27T20:46:22Z</time></trkpt>
<trkpt lat="25.077734" lon="101.798285">
<time>2015-09-27T20:46:23Z</time></trkpt>
<trkpt lat="25.077424" lon="101.798165">
<time>2015-09-27T20:46:24Z</time></trkpt>
<trkpt lat="25.076824" lon="101.797844">
<time>2015-09-27T20:46:25Z</time></trkpt>
<trkpt lat="25.076383" lon="101.797604">
<time>2015-09-27T20:46:26Z</time></trkpt>
<trkpt lat="25.076273" lon="101.797554">
<time>2015-09-27T20:46:27Z</time></trkpt>
<trkpt lat="25.076153" lon="101.797503">
<time>2015-09-27T20:46:28Z</time></trkpt>
<trkpt lat="25.076083" lon="101.797483">
<time>2015-09-27T20:46:29Z</time></trkpt>
<trkpt lat="25.076003" lon="101.797463">
<time>2015-09-27T20:46:30Z</time></trkpt>
<trkpt lat="25.075933" lon="101.797453">
<time>2015-09-27T20:46:31Z</time></trkpt>
<trkpt lat="25.075853" lon="101.797453">
<time>2015-09-27T20:46:32Z</time></trkpt>
<trkpt lat="25.075803" lon="101.797453">
<time>2015-09-27T20:46:33Z</time></trkpt>
<trkpt lat="25.075753" lon="101.797463">
<time>2015-09-27T20:46:34Z</time></trkpt>
<trkpt lat="25.075673" lon="101.797483">
<time>2015-09-27T20:46:35Z</time></trkpt>
<trkpt lat="25.075573" lon="101.797514">
<time>2015-09-27T20:46:36Z</time></trkpt>
<trkpt lat="25.075393" lon="101.797574">
<time>2015-09-27T20:46:37Z</time></trkpt>
<trkpt lat="25.075124" lon="101.797684">
<time>2015-09-27T20:46:38Z</time></trkpt>
<trkpt lat="25.075004" lon="101.797734">
<time>2015-09-27T20:46:39Z</time></trkpt>
<trkpt lat="25.074814" lon="101.797834">
<time>2015-09-27T20:46:40Z</time></trkpt>
<trkpt lat="25.074694" lon="101.797954">
<time>2015-09-27T20:46:41Z</time></trkpt>
<trkpt lat="25.074594" lon="101.798105">
<time>2015-09-27T20:46:42Z</time></trkpt>
<trkpt lat="25.074475" lon="101.798275">
<time>2015-09-27T20:46:43Z</time></trkpt>
<trkpt lat="25.074305" lon="101.798465">
<time>2015-09-27T20:46:44Z</time></trkpt>
<trkpt lat="25.074125" lon="101.798616">
<time>2015-09-27T20:46:45Z</time></trkpt>
<trkpt lat="25.073985" lon="101.798686">
<time>2015-09-27T20:46:46Z</time></trkpt>
<trkpt lat="25.073845" lon="101.798746">
<time>2015-09-27T20:46:47Z</time></trkpt>
<trkpt lat="25.073716" lon="101.798786">
<time>2015-09-27T20:46:48Z</time></trkpt>
<trkpt lat="25.073606" lon="101.798806">
<time>2015-09-27T20:46:49Z</time></trkpt>
<trkpt lat="25.073496" lon="101.798816">
<time>2015-09-27T20:46:50Z</time></trkpt>
<trkpt lat="25.073396" lon="101.798816">
<time>2015-09-27T20:46:51Z</time></trkpt>
<trkpt lat="25.073226" lon="101.798796">
<time>2015-09-27T20:46:52Z</time></trkpt>
<trkpt lat="25.073126" lon="101.798776">
<time>2015-09-27T20:46:53Z</time></trkpt>
<trkpt lat="25.072986" lon="101.798716">
<time>2015-09-27T20:46:54Z</time></trkpt>
<trkpt lat="25.072825" lon="101.798596">
<time>2015-09-27T20:46:55Z</time></trkpt>
<trkpt lat="25.072535" lon="101.798365">
<time>2015-09-27T20:46:56Z</time></trkpt>
<trkpt lat="25.072275" lon="101.798125">
<time>2015-09-27T20:46:57Z</time></trkpt>
<trkpt lat="25.072044" lon="101.797914">
<time>2015-09-27T20:46:58Z</time></trkpt>
<trkpt lat="25.071944" lon="101.797824">
<time>2015-09-27T20:46:59Z</time></trkpt>
<trkpt lat="25.071854" lon="101.797714">
<time>2015-09-27T20:47:00Z</time></trkpt>
<trkpt lat="25.071784" lon="101.797574">
<time>2015-09-27T20:47:01Z</time></trkpt>
<trkpt lat="25.071754" lon="101.797433">
<time>2015-09-27T20:47:02Z</time></trkpt>
<trkpt lat="25.071743" lon="101.797273">
<time>2015-09-27T20:47:03Z</time></trkpt>
<trkpt lat="25.071743" lon="101.797133">
<time>2015-09-27T20:47:04Z</time></trkpt>
<trkpt lat="25.07185" lon="101.795089">
<time>2015-09-27T20:47:05Z</time></trkpt>
<trkpt lat="25.071908" lon="101.793987">
<time>2015-09-27T20:47:06Z</time></trkpt>
<trkpt lat="25.071957" lon="101.793376">
<time>2015-09-27T20:47:07Z</time></trkpt>
<trkpt lat="25.072007" lon="101.793085">
<time>2015-09-27T20:47:08Z</time></trkpt>
<trkpt lat="25.072057" lon="101.792825">
<time>2015-09-27T20:47:09Z</time></trkpt>
<trkpt lat="25.072076" lon="101.792734">
<time>2015-09-27T20:47:10Z</time></trkpt>
<trkpt lat="25.072096" lon="101.792634">
<time>2015-09-27T20:47:11Z</time></trkpt>
<trkpt lat="25.072106" lon="101.792584">
<time>2015-09-27T20:47:12Z</time></trkpt>
<trkpt lat="25.072106" lon="101.792524">
<time>2015-09-27T20:47:13Z</time></trkpt>
<trkpt lat="25.072106" lon="101.792474">
<time>2015-09-27T20:47:14Z</time></trkpt>
<trkpt lat="25.072096" lon="101.792404">
<time>2015-09-27T20:47:15Z</time></trkpt>
<trkpt lat="25.072056" lon="101.792314">
<time>2015-09-27T20:47:16Z</time></trkpt>
<trkpt lat="25.072006" lon="101.792234">
<time>2015-09-27T20:47:17Z</time></trkpt>
<trkpt lat="25.071946" lon="101.792143">
<time>2015-09-27T20:47:18Z</time></trkpt>
<trkpt lat="25.071805" lon="101.791993">
<time>2015-09-27T20:47:19Z</time></trkpt>
<trkpt lat="25.071615" lon="101.791803">
<time>2015-09-27T20:47:20Z</time></trkpt>
<trkpt lat="25.071205" lon="101.791402">
<time>2015-09-27T20:47:21Z</time></trkpt>
<trkpt lat="25.070974" lon="101.791152">
<time>2015-09-27T20:47:22Z</time></trkpt>
<trkpt lat="25.070804" lon="101.790891">
<time>2015-09-27T20:47:23Z</time></trkpt>
<trkpt lat="25.070654" lon="101.790671">
<time>2015-09-27T20:47:24Z</time></trkpt>
<trkpt lat="25.070423" lon="101.79038">
<time>2015-09-27T20:47:25Z</time></trkpt>
<trkpt lat="25.070153" lon="101.79012">
<time>2015-09-27T20:47:26Z</time></trkpt>
<trkpt lat="25.069893" lon="101.789859">
<time>2015-09-27T20:47:27Z</time></trkpt>
<trkpt lat="25.069672" lon="101.789659">
<time>2015-09-27T20:47:28Z</time></trkpt>
<trkpt lat="25.069352" lon="101.789368">
<time>2015-09-27T20:47:29Z</time></trkpt>
<trkpt lat="25.069152" lon="101.789208">
<time>2015-09-27T20:47:30Z</time></trkpt>
<trkpt lat="25.068842" lon="101.789008">
<time>2015-09-27T20:47:31Z</time></trkpt>
<trkpt lat="25.068591" lon="101.788888">
<time>2015-09-27T20:47:32Z</time></trkpt>
<trkpt lat="25.068301" lon="101.788747">
<time>2015-09-27T20:47:33Z</time></trkpt>
<trkpt lat="25.068011" lon="101.788607">
<time>2015-09-27T20:47:34Z</time></trkpt>
<trkpt lat="25.067701" lon="101.788477">
<time>2015-09-27T20:47:35Z</time></trkpt>
<trkpt lat="25.067481" lon="101.788367">
<time>2015-09-27T20:47:36Z</time></trkpt>
<trkpt lat="25.067361" lon="101.788307">
<time>2015-09-27T20:47:37Z</time></trkpt>
<trkpt lat="25.067211" lon="101.788196">
<time>2015-09-27T20:47:38Z</time></trkpt>
<trkpt lat="25.06706" lon="101.788006">
<time>2015-09-27T20:47:39Z</time></trkpt>
<trkpt lat="25.06683" lon="101.787676">
<time>2015-09-27T20:47:40Z</time></trkpt>
<trkpt lat="25.0667" lon="101.787475">
<time>2015-09-27T20:47:41Z</time></trkpt>
<trkpt lat="25.066589" lon="101.787295">
<time>2015-09-27T20:47:42Z</time></trkpt>
<trkpt lat="25.066509" lon="101.787065">
<time>2015-09-27T20:47:43Z</time></trkpt>
<trkpt lat="25.066469" lon="101.786894">
<time>2015-09-27T20:47:44Z</time></trkpt>
<trkpt lat="25.066419" lon="101.786694">
<time>2015-09-27T20:47:45Z</time></trkpt>
<trkpt lat="25.066348" lon="101.786474">
<time>2015-09-27T20:47:46Z</time></trkpt>
<trkpt lat="25.066288" lon="101.786383">
<time>2015-09-27T20:47:47Z</time></trkpt>
<trkpt lat="25.066238" lon="101.786323">
<time>2015-09-27T20:47:48Z</time></trkpt>
<trkpt lat="25.066198" lon="101.786273">
<time>2015-09-27T20:47:49Z</time></trkpt>
<trkpt lat="25.066118" lon="101.786233">
<time>2015-09-27T20:47:50Z</time></trkpt>
<trkpt lat="25.066028" lon="101.786213">
<time>2015-09-27T20:47:51Z</time></trkpt>
<trkpt lat="25.065958" lon="101.786193">
<time>2015-09-27T20:47:52Z</time></trkpt>
<trkpt lat="25.065848" lon="101.786183">
<time>2015-09-27T20:47:53Z</time></trkpt>
<trkpt lat="25.065748" lon="101.786163">
<time>2015-09-27T20:47:54Z</time></trkpt>
<trkpt lat="25.065658" lon="101.786143">
<time>2015-09-27T20:47:55Z</time></trkpt>
<trkpt lat="25.065548" lon="101.786113">
<time>2015-09-27T20:47:56Z</time></trkpt>
<trkpt lat="25.065458" lon="101.786073">
<time>2015-09-27T20:47:57Z</time></trkpt>
<trkpt lat="25.065348" lon="101.785983">
<time>2015-09-27T20:47:58Z</time></trkpt>
<trkpt lat="25.065258" lon="101.785883">
<time>2015-09-27T20:47:59Z</time></trkpt>
<trkpt lat="25.065188" lon="101.785782">
<time>2015-09-27T20:48:00Z</time></trkpt>
<trkpt lat="25.065098" lon="101.785682">
<time>2015-09-27T20:48:01Z</time></trkpt>
<trkpt lat="25.065017" lon="101.785572">
<time>2015-09-27T20:48:02Z</time></trkpt>
<trkpt lat="25.064957" lon="101.785502">
<time>2015-09-27T20:48:03Z</time></trkpt>
<trkpt lat="25.064907" lon="101.785412">
<time>2015-09-27T20:48:04Z</time></trkpt>
<trkpt lat="25.064887" lon="101.785342">
<time>2015-09-27T20:48:05Z</time></trkpt>
<trkpt lat="25.064877" lon="101.785282">
<time>2015-09-27T20:48:06Z</time></trkpt>
<trkpt lat="25.064877" lon="101.785192">
<time>2015-09-27T20:48:07Z</time></trkpt>
<trkpt lat="25.064887" lon="101.785071">
<time>2015-09-27T20:48:08Z</time></trkpt>
<trkpt lat="25.064897" lon="101.784951">
<time>2015-09-27T20:48:09Z</time></trkpt>
<trkpt lat="25.064896" lon="101.784831">
<time>2015-09-27T20:48:10Z</time></trkpt>
<trkpt lat="25.064886" lon="101.784741">
<time>2015-09-27T20:48:11Z</time></trkpt>
<trkpt lat="25.064856" lon="101.784651">
<time>2015-09-27T20:48:12Z</time></trkpt>
<trkpt lat="25.064806" lon="101.784571">
<time>2015-09-27T20:48:13Z</time></trkpt>
<trkpt lat="25.064696" lon="101.78442">
<time>2015-09-27T20:48:14Z</time></trkpt>
<trkpt lat="25.064626" lon="101.78436">
<time>2015-09-27T20:48:15Z</time></trkpt>
<trkpt lat="25.064516" lon="101.78427">
<time>2015-09-27T20:48:16Z</time></trkpt>
<trkpt lat="25.064436" lon="101.78422">
<time>2015-09-27T20:48:17Z</time></trkpt>
<trkpt lat="25.064306" lon="101.78415">
<time>2015-09-27T20:48:18Z</time></trkpt>
<trkpt lat="25.064136" lon="101.78408">
<time>2015-09-27T20:48:19Z</time></trkpt>
<trkpt lat="25.063946" lon="101.78402">
<time>2015-09-27T20:48:20Z</time></trkpt>
<trkpt lat="25.063826" lon="101.78398">
<time>2015-09-27T20:48:21Z</time></trkpt>
<trkpt lat="25.063735" lon="101.78393">
<time>2015-09-27T20:48:22Z</time></trkpt>
<trkpt lat="25.063635" lon="101.783859">
<time>2015-09-27T20:48:23Z</time></trkpt>
<trkpt lat="25.063595" lon="101.783809">
<time>2015-09-27T20:48:24Z</time></trkpt>
<trkpt lat="25.063545" lon="101.783719">
<time>2015-09-27T20:48:25Z</time></trkpt>
<trkpt lat="25.063495" lon="101.783589">
<time>2015-09-27T20:48:26Z</time></trkpt>
<trkpt lat="25.063445" lon="101.783439">
<time>2015-09-27T20:48:27Z</time></trkpt>
<trkpt lat="25.063365" lon="101.783118">
<time>2015-09-27T20:48:28Z</time></trkpt>
<trkpt lat="25.063204" lon="101.782527">
<time>2015-09-27T20:48:29Z</time></trkpt>
<trkpt lat="25.063114" lon="101.782297">
<time>2015-09-27T20:48:30Z</time></trkpt>
<trkpt lat="25.063033" lon="101.782137">
<time>2015-09-27T20:48:31Z</time></trkpt>
<trkpt lat="25.062993" lon="101.782057">
<time>2015-09-27T20:48:32Z</time></trkpt>
<trkpt lat="25.062913" lon="101.781936">
<time>2015-09-27T20:48:33Z</time></trkpt>
<trkpt lat="25.062843" lon="101.781866">
<time>2015-09-27T20:48:34Z</time></trkpt>
<trkpt lat="25.062763" lon="101.781806">
<time>2015-09-27T20:48:35Z</time></trkpt>
<trkpt lat="25.062703" lon="101.781766">
<time>2015-09-27T20:48:36Z</time></trkpt>
<trkpt lat="25.062653" lon="101.781736">
<time>2015-09-27T20:48:37Z</time></trkpt>
<trkpt lat="25.062593" lon="101.781706">
<time>2015-09-27T20:48:38Z</time></trkpt>
<trkpt lat="25.062353" lon="101.781626">
<time>2015-09-27T20:48:39Z</time></trkpt>
<trkpt lat="25.062063" lon="101.781526">
<time>2015-09-27T20:48:40Z</time></trkpt>
<trkpt lat="25.061743" lon="101.781426">
<time>2015-09-27T20:48:41Z</time></trkpt>
<trkpt lat="25.061453" lon="101.781346">
<time>2015-09-27T20:48:42Z</time></trkpt>
<trkpt lat="25.061243" lon="101.781225">
<time>2015-09-27T20:48:43Z</time></trkpt>
<trkpt lat="25.061092" lon="101.781075">
<time>2015-09-27T20:48:44Z</time></trkpt>
<trkpt lat="25.060922" lon="101.780875">
<time>2015-09-27T20:48:45Z</time></trkpt>
<trkpt lat="25.060782" lon="101.780715">
<time>2015-09-27T20:48:46Z</time></trkpt>
<trkpt lat="25.060682" lon="101.780625">
<time>2015-09-27T20:48:47Z</time></trkpt>
<trkpt lat="25.060562" lon="101.780524">
<time>2015-09-27T20:48:48Z</time></trkpt>
<trkpt lat="25.060292" lon="101.780364">
<time>2015-09-27T20:48:49Z</time></trkpt>
<trkpt lat="25.060122" lon="101.780294">
<time>2015-09-27T20:48:50Z</time></trkpt>
<trkpt lat="25.059892" lon="101.780224">
<time>2015-09-27T20:48:51Z</time></trkpt>
<trkpt lat="25.059631" lon="101.780164">
<time>2015-09-27T20:48:52Z</time></trkpt>
<trkpt lat="25.059251" lon="101.780054">
<time>2015-09-27T20:48:53Z</time></trkpt>
<trkpt lat="25.059091" lon="101.780014">
<time>2015-09-27T20:48:54Z</time></trkpt>
<trkpt lat="25.058981" lon="101.779994">
<time>2015-09-27T20:48:55Z</time></trkpt>
<trkpt lat="25.058851" lon="101.779964">
<time>2015-09-27T20:48:56Z</time></trkpt>
<trkpt lat="25.058691" lon="101.779944">
<time>2015-09-27T20:48:57Z</time></trkpt>
<trkpt lat="25.058411" lon="101.779944">
<time>2015-09-27T20:48:58Z</time></trkpt>
<trkpt lat="25.058241" lon="101.779934">
<time>2015-09-27T20:48:59Z</time></trkpt>
<trkpt lat="25.058131" lon="101.779914">
<time>2015-09-27T20:49:00Z</time></trkpt>
<trkpt lat="25.058041" lon="101.779894">
<time>2015-09-27T20:49:01Z</time></trkpt>
<trkpt lat="25.057971" lon="101.779874">
<time>2015-09-27T20:49:02Z</time></trkpt>
<trkpt lat="25.057911" lon="101.779853">
<time>2015-09-27T20:49:03Z</time></trkpt>
<trkpt lat="25.057841" lon="101.779813">
<time>2015-09-27T20:49:04Z</time></trkpt>
<trkpt lat="25.057771" lon="101.779753">
<time>2015-09-27T20:49:05Z</time></trkpt>
<trkpt lat="25.057681" lon="101.779643">
<time>2015-09-27T20:49:06Z</time></trkpt>
<trkpt lat="25.057531" lon="101.779453">
<time>2015-09-27T20:49:07Z</time></trkpt>
<trkpt lat="25.057431" lon="101.779323">
<time>2015-09-27T20:49:08Z</time></trkpt>
<trkpt lat="25.057331" lon="101.779203">
<time>2015-09-27T20:49:09Z</time></trkpt>
<trkpt lat="25.057241" lon="101.779132">
<time>2015-09-27T20:49:10Z</time></trkpt>
<trkpt lat="25.057131" lon="101.779062">
<time>2015-09-27T20:49:11Z</time></trkpt>
<trkpt lat="25.05702" lon="101.778992">
<time>2015-09-27T20:49:12Z</time></trkpt>
<trkpt lat="25.05688" lon="101.778912">
<time>2015-09-27T20:49:13Z</time></trkpt>
<trkpt lat="25.0568" lon="101.778862">
<time>2015-09-27T20:49:14Z</time></trkpt>
<trkpt lat="25.0567" lon="101.778782">
<time>2015-09-27T20:49:15Z</time></trkpt>
<trkpt lat="25.05658" lon="101.778662">
<time>2015-09-27T20:49:16Z</time></trkpt>
<trkpt lat="25.05651" lon="101.778572">
<time>2015-09-27T20:49:17Z</time></trkpt>
<trkpt lat="25.05642" lon="101.778472">
<time>2015-09-27T20:49:18Z</time></trkpt>
<trkpt lat="25.05633" lon="101.778341">
<time>2015-09-27T20:49:19Z</time></trkpt>
<trkpt lat="25.05627" lon="101.778241">
<time>2015-09-27T20:49:20Z</time></trkpt>
<trkpt lat="25.05622" lon="101.778131">
<time>2015-09-27T20:49:21Z</time></trkpt>
<trkpt lat="25.05619" lon="101.778051">
<time>2015-09-27T20:49:22Z</time></trkpt>
<trkpt lat="25.056189" lon="101.777961">
<time>2015-09-27T20:49:23Z</time></trkpt>
<trkpt lat="25.056189" lon="101.777821">
<time>2015-09-27T20:49:24Z</time></trkpt>
<trkpt lat="25.056209" lon="101.77764">
<time>2015-09-27T20:49:25Z</time></trkpt>
<trkpt lat="25.056219" lon="101.77744">
<time>2015-09-27T20:49:26Z</time></trkpt>
<trkpt lat="25.056219" lon="101.77734">
<time>2015-09-27T20:49:27Z</time></trkpt>
<trkpt lat="25.056209" lon="101.77728">
<time>2015-09-27T20:49:28Z</time></trkpt>
<trkpt lat="25.056199" lon="101.77723">
<time>2015-09-27T20:49:29Z</time></trkpt>
<trkpt lat="25.056189" lon="101.77719">
<time>2015-09-27T20:49:30Z</time></trkpt>
<trkpt lat="25.056169" lon="101.77715">
<time>2015-09-27T20:49:31Z</time></trkpt>
<trkpt lat="25.056139" lon="101.77711">
<time>2015-09-27T20:49:32Z</time></trkpt>
<trkpt lat="25.056109" lon="101.77708">
<time>2015-09-27T20:49:33Z</time></trkpt>
<trkpt lat="25.056089" lon="101.77705">
<time>2015-09-27T20:49:34Z</time></trkpt>
<trkpt lat="25.056049" lon="101.77702">
<time>2015-09-27T20:49:35Z</time></trkpt>
<trkpt lat="25.055938" lon="101.776919">
<time>2015-09-27T20:49:36Z</time></trkpt>
<trkpt lat="25.055748" lon="101.776809">
<time>2015-09-27T20:49:37Z</time></trkpt>
<trkpt lat="25.054998" lon="101.776409">
<time>2015-09-27T20:49:38Z</time></trkpt>
<trkpt lat="25.054858" lon="101.776329">
<time>2015-09-27T20:49:39Z</time></trkpt>
<trkpt lat="25.054668" lon="101.776178">
<time>2015-09-27T20:49:40Z</time></trkpt>
<trkpt lat="25.054468" lon="101.775948">
<time>2015-09-27T20:49:41Z</time></trkpt>
<trkpt lat="25.054277" lon="101.775658">
<time>2015-09-27T20:49:42Z</time></trkpt>
<trkpt lat="25.054087" lon="101.775407">
<time>2015-09-27T20:49:43Z</time></trkpt>
<trkpt lat="25.053657" lon="101.774797">
<time>2015-09-27T20:49:44Z</time></trkpt>
<trkpt lat="25.053496" lon="101.774616">
<time>2015-09-27T20:49:45Z</time></trkpt>
<trkpt lat="25.053296" lon="101.774456">
<time>2015-09-27T20:49:46Z</time></trkpt>
<trkpt lat="25.053076" lon="101.774316">
<time>2015-09-27T20:49:47Z</time></trkpt>
<trkpt lat="25.052836" lon="101.774236">
<time>2015-09-27T20:49:48Z</time></trkpt>
<trkpt lat="25.052316" lon="101.774096">
<time>2015-09-27T20:49:49Z</time></trkpt>
<trkpt lat="25.052046" lon="101.774036">
<time>2015-09-27T20:49:50Z</time></trkpt>
<trkpt lat="25.051816" lon="101.773976">
<time>2015-09-27T20:49:51Z</time></trkpt>
<trkpt lat="25.051436" lon="101.773826">
<time>2015-09-27T20:49:52Z</time></trkpt>
<trkpt lat="25.051386" lon="101.773796">
<time>2015-09-27T20:49:53Z</time></trkpt>
<trkpt lat="25.051266" lon="101.773735">
<time>2015-09-27T20:49:54Z</time></trkpt>
<trkpt lat="25.051146" lon="101.773665">
<time>2015-09-27T20:49:55Z</time></trkpt>
<trkpt lat="25.050966" lon="101.773545">
<time>2015-09-27T20:49:56Z</time></trkpt>
<trkpt lat="25.050826" lon="101.773415">
<time>2015-09-27T20:49:57Z</time></trkpt>
<trkpt lat="25.050716" lon="101.773275">
<time>2015-09-27T20:49:58Z</time></trkpt>
<trkpt lat="25.050635" lon="101.773175">
<time>2015-09-27T20:49:59Z</time></trkpt>
<trkpt lat="25.050545" lon="101.773055">
<time>2015-09-27T20:50:00Z</time></trkpt>
<trkpt lat="25.050355" lon="101.772834">
<time>2015-09-27T20:50:01Z</time></trkpt>
<trkpt lat="25.050245" lon="101.772714">
<time>2015-09-27T20:50:02Z</time></trkpt>
<trkpt lat="25.050105" lon="101.772614">
<time>2015-09-27T20:50:03Z</time></trkpt>
<trkpt lat="25.049985" lon="101.772524">
<time>2015-09-27T20:50:04Z</time></trkpt>
<trkpt lat="25.049915" lon="101.772464">
<time>2015-09-27T20:50:05Z</time></trkpt>
<trkpt lat="25.049865" lon="101.772404">
<time>2015-09-27T20:50:06Z</time></trkpt>
<trkpt lat="25.049815" lon="101.772344">
<time>2015-09-27T20:50:07Z</time></trkpt>
<trkpt lat="25.049775" lon="101.772294">
<time>2015-09-27T20:50:08Z</time></trkpt>
<trkpt lat="25.049735" lon="101.772204">
<time>2015-09-27T20:50:09Z</time></trkpt>
<trkpt lat="25.049715" lon="101.772134">
<time>2015-09-27T20:50:10Z</time></trkpt>
<trkpt lat="25.049715" lon="101.772084">
<time>2015-09-27T20:50:11Z</time></trkpt>
<trkpt lat="25.049725" lon="101.772003">
<time>2015-09-27T20:50:12Z</time></trkpt>
<trkpt lat="25.049734" lon="101.771883">
<time>2015-09-27T20:50:13Z</time></trkpt>
<trkpt lat="25.049764" lon="101.771743">
<time>2015-09-27T20:50:14Z</time></trkpt>
<trkpt lat="25.049794" lon="101.771543">
<time>2015-09-27T20:50:15Z</time></trkpt>
<trkpt lat="25.049784" lon="101.771343">
<time>2015-09-27T20:50:16Z</time></trkpt>
<trkpt lat="25.049764" lon="101.771182">
<time>2015-09-27T20:50:17Z</time></trkpt>
<trkpt lat="25.049724" lon="101.770962">
<time>2015-09-27T20:50:18Z</time></trkpt>
<trkpt lat="25.049713" lon="101.770782">
<time>2015-09-27T20:50:19Z</time></trkpt>
<trkpt lat="25.049713" lon="101.770562">
<time>2015-09-27T20:50:20Z</time></trkpt>
<trkpt lat="25.049733" lon="101.770352">
<time>2015-09-27T20:50:21Z</time></trkpt>
<trkpt lat="25.049713" lon="101.770191">
<time>2015-09-27T20:50:22Z</time></trkpt>
<trkpt lat="25.049663" lon="101.770031">
<time>2015-09-27T20:50:23Z</time></trkpt>
<trkpt lat="25.049603" lon="101.769871">
<time>2015-09-27T20:50:24Z</time></trkpt>
<trkpt lat="25.049523" lon="101.769711">
<time>2015-09-27T20:50:25Z</time></trkpt>
<trkpt lat="25.049402" lon="101.769471">
<time>2015-09-27T20:50:26Z</time></trkpt>
<trkpt lat="25.049282" lon="101.76925">
<time>2015-09-27T20:50:27Z</time></trkpt>
<trkpt lat="25.049132" lon="101.76904">
<time>2015-09-27T20:50:28Z</time></trkpt>
<trkpt lat="25.048902" lon="101.7688">
<time>2015-09-27T20:50:29Z</time></trkpt>
<trkpt lat="25.048662" lon="101.76858">
<time>2015-09-27T20:50:30Z</time></trkpt>
<trkpt lat="25.048342" lon="101.768309">
<time>2015-09-27T20:50:31Z</time></trkpt>
<trkpt lat="25.048212" lon="101.768179">
<time>2015-09-27T20:50:32Z</time></trkpt>
<trkpt lat="25.048092" lon="101.768019">
<time>2015-09-27T20:50:33Z</time></trkpt>
<trkpt lat="25.047921" lon="101.767709">
<time>2015-09-27T20:50:34Z</time></trkpt>
<trkpt lat="25.047631" lon="101.767148">
<time>2015-09-27T20:50:35Z</time></trkpt>
<trkpt lat="25.047471" lon="101.766808">
<time>2015-09-27T20:50:36Z</time></trkpt>
<trkpt lat="25.047341" lon="101.766468">
<time>2015-09-27T20:50:37Z</time></trkpt>
<trkpt lat="25.04724" lon="101.766077">
<time>2015-09-27T20:50:38Z</time></trkpt>
<trkpt lat="25.04711" lon="101.765437">
<time>2015-09-27T20:50:39Z</time></trkpt>
<trkpt lat="25.04685" lon="101.764686">
<time>2015-09-27T20:50:40Z</time></trkpt>
<trkpt lat="25.046839" lon="101.764616">
<time>2015-09-27T20:50:41Z</time></trkpt>
<trkpt lat="25.046829" lon="101.764536">
<time>2015-09-27T20:50:42Z</time></trkpt>
<trkpt lat="25.046829" lon="101.764486">
<time>2015-09-27T20:50:43Z</time></trkpt>
<trkpt lat="25.046839" lon="101.764436">
<time>2015-09-27T20:50:44Z</time></trkpt>
<trkpt lat="25.046849" lon="101.764396">
<time>2015-09-27T20:50:45Z</time></trkpt>
<trkpt lat="25.046859" lon="101.764376">
<time>2015-09-27T20:50:46Z</time></trkpt>
<trkpt lat="25.046899" lon="101.764336">
<time>2015-09-27T20:50:47Z</time></trkpt>
<trkpt lat="25.046929" lon="101.764306">
<time>2015-09-27T20:50:48Z</time></trkpt>
<trkpt lat="25.046979" lon="101.764276">
<time>2015-09-27T20:50:49Z</time></trkpt>
<trkpt lat="25.047009" lon="101.764256">
<time>2015-09-27T20:50:50Z</time></trkpt>
<trkpt lat="25.047049" lon="101.764236">
<time>2015-09-27T20:50:51Z</time></trkpt>
<trkpt lat="25.047109" lon="101.764216">
<time>2015-09-27T20:50:52Z</time></trkpt>
<trkpt lat="25.047219" lon="101.764186">
<time>2015-09-27T20:50:53Z</time></trkpt>
<trkpt lat="25.047309" lon="101.764156">
<time>2015-09-27T20:50:54Z</time></trkpt>
<trkpt lat="25.047389" lon="101.764115">
<time>2015-09-27T20:50:55Z</time></trkpt>
<trkpt lat="25.047439" lon="101.764085">
<time>2015-09-27T20:50:56Z</time></trkpt>
<trkpt lat="25.047519" lon="101.764035">
<time>2015-09-27T20:50:57Z</time></trkpt>
<trkpt lat="25.047549" lon="101.763995">
<time>2015-09-27T20:50:58Z</time></trkpt>
<trkpt lat="25.047589" lon="101.763945">
<time>2015-09-27T20:50:59Z</time></trkpt>
<trkpt lat="25.047609" lon="101.763895">
<time>2015-09-27T20:51:00Z</time></trkpt>
<trkpt lat="25.047629" lon="101.763825">
<time>2015-09-27T20:51:01Z</time></trkpt>
<trkpt lat="25.047639" lon="101.763755">
<time>2015-09-27T20:51:02Z</time></trkpt>
<trkpt lat="25.047649" lon="101.763695">
<time>2015-09-27T20:51:03Z</time></trkpt>
<trkpt lat="25.047639" lon="101.763605">
<time>2015-09-27T20:51:04Z</time></trkpt>
<trkpt lat="25.047639" lon="101.763555">
<time>2015-09-27T20:51:05Z</time></trkpt>
<trkpt lat="25.047619" lon="101.763495">
<time>2015-09-27T20:51:06Z</time></trkpt>
<trkpt lat="25.047599" lon="101.763455">
<time>2015-09-27T20:51:07Z</time></trkpt>
<trkpt lat="25.047579" lon="101.763405">
<time>2015-09-27T20:51:08Z</time></trkpt>
<trkpt lat="25.047539" lon="101.763345">
<time>2015-09-27T20:51:09Z</time></trkpt>
<trkpt lat="25.047489" lon="101.763295">
<time>2015-09-27T20:51:10Z</time></trkpt>
<trkpt lat="25.047429" lon="101.763265">
<time>2015-09-27T20:51:11Z</time></trkpt>
<trkpt lat="25.047359" lon="101.763235">
<time>2015-09-27T20:51:12Z</time></trkpt>
<trkpt lat="25.047319" lon="101.763215">
<time>2015-09-27T20:51:13Z</time></trkpt>
<trkpt lat="25.047249" lon="101.763205">
<time>2015-09-27T20:51:14Z</time></trkpt>
<trkpt lat="25.047169" lon="101.763195">
<time>2015-09-27T20:51:15Z</time></trkpt>
<trkpt lat="25.047039" lon="101.763185">
<time>2015-09-27T20:51:16Z</time></trkpt>
<trkpt lat="25.046849" lon="101.763205">
<time>2015-09-27T20:51:17Z</time></trkpt>
<trkpt lat="25.046749" lon="101.763205">
<time>2015-09-27T20:51:18Z</time></trkpt>
<trkpt lat="25.046649" lon="101.763185">
<time>2015-09-27T20:51:19Z</time></trkpt>
<trkpt lat="25.046559" lon="101.763135">
<time>2015-09-27T20:51:20Z</time></trkpt>
<trkpt lat="25.046439" lon="101.763055">
<time>2015-09-27T20:51:21Z</time></trkpt>
<trkpt lat="25.046309" lon="101.762935">
<time>2015-09-27T20:51:22Z</time></trkpt>
<trkpt lat="25.046179" lon="101.762834">
<time>2015-09-27T20:51:23Z</time></trkpt>
<trkpt lat="25.046069" lon="101.762754">
<time>2015-09-27T20:51:24Z</time></trkpt>
<trkpt lat="25.045989" lon="101.762704">
<time>2015-09-27T20:51:25Z</time></trkpt>
<trkpt lat="25.045908" lon="101.762674">
<time>2015-09-27T20:51:26Z</time></trkpt>
<trkpt lat="25.045848" lon="101.762654">
<time>2015-09-27T20:51:27Z</time></trkpt>
<trkpt lat="25.045768" lon="101.762644">
<time>2015-09-27T20:51:28Z</time></trkpt>
<trkpt lat="25.045669" lon="101.762654">
<time>2015-09-27T20:51:29Z</time></trkpt>
<trkpt lat="25.045509" lon="101.762684">
<time>2015-09-27T20:51:30Z</time></trkpt>
<trkpt lat="25.045279" lon="101.762744">
<time>2015-09-27T20:51:31Z</time></trkpt>
<trkpt lat="25.045109" lon="101.762764">
<time>2015-09-27T20:51:32Z</time></trkpt>
<trkpt lat="25.044999" lon="101.762764">
<time>2015-09-27T20:51:33Z</time></trkpt>
<trkpt lat="25.044889" lon="101.762734">
<time>2015-09-27T20:51:34Z</time></trkpt>
<trkpt lat="25.044789" lon="101.762694">
<time>2015-09-27T20:51:35Z</time></trkpt>
<trkpt lat="25.044679" lon="101.762604">
<time>2015-09-27T20:51:36Z</time></trkpt>
<trkpt lat="25.044589" lon="101.762484">
<time>2015-09-27T20:51:37Z</time></trkpt>
<trkpt lat="25.044488" lon="101.762304">
<time>2015-09-27T20:51:38Z</time></trkpt>
<trkpt lat="25.044418" lon="101.762114">
<time>2015-09-27T20:51:39Z</time></trkpt>
<trkpt lat="25.044368" lon="101.761904">
<time>2015-09-27T20:51:40Z</time></trkpt>
<trkpt lat="25.044278" lon="101.761624">
<time>2015-09-27T20:51:41Z</time></trkpt>
<trkpt lat="25.044148" lon="101.761353">
<time>2015-09-27T20:51:42Z</time></trkpt>
<trkpt lat="25.044038" lon="101.761153">
<time>2015-09-27T20:51:43Z</time></trkpt>
<trkpt lat="25.042937" lon="101.759842">
<time>2015-09-27T20:51:44Z</time></trkpt>
<trkpt lat="25.042767" lon="101.759582">
<time>2015-09-27T20:51:45Z</time></trkpt>
<trkpt lat="25.042647" lon="101.759312">
<time>2015-09-27T20:51:46Z</time></trkpt>
<trkpt lat="25.042497" lon="101.759022">
<time>2015-09-27T20:51:47Z</time></trkpt>
<trkpt lat="25.042327" lon="101.758812">
<time>2015-09-27T20:51:48Z</time></trkpt>
<trkpt lat="25.042077" lon="101.758481">
<time>2015-09-27T20:51:49Z</time></trkpt>
<trkpt lat="25.041927" lon="101.758261">
<time>2015-09-27T20:51:50Z</time></trkpt>
<trkpt lat="25.041847" lon="101.758151">
<time>2015-09-27T20:51:51Z</time></trkpt>
<trkpt lat="25.041757" lon="101.758051">
<time>2015-09-27T20:51:52Z</time></trkpt>
<trkpt lat="25.041617" lon="101.757941">
<time>2015-09-27T20:51:53Z</time></trkpt>
<trkpt lat="25.041487" lon="101.757841">
<time>2015-09-27T20:51:54Z</time></trkpt>
<trkpt lat="25.041277" lon="101.757731">
<time>2015-09-27T20:51:55Z</time></trkpt>
<trkpt lat="25.041137" lon="101.757631">
<time>2015-09-27T20:51:56Z</time></trkpt>
<trkpt lat="25.041077" lon="101.757571">
<time>2015-09-27T20:51:57Z</time></trkpt>
<trkpt lat="25.041027" lon="101.757501">
<time>2015-09-27T20:51:58Z</time></trkpt>
<trkpt lat="25.040987" lon="101.757421">
<time>2015-09-27T20:51:59Z</time></trkpt>
<trkpt lat="25.040947" lon="101.757311">
<time>2015-09-27T20:52:00Z</time></trkpt>
<trkpt lat="25.040917" lon="101.757211">
<time>2015-09-27T20:52:01Z</time></trkpt>
<trkpt lat="25.040887" lon="101.757081">
<time>2015-09-27T20:52:02Z</time></trkpt>
<trkpt lat="25.040847" lon="101.756971">
<time>2015-09-27T20:52:03Z</time></trkpt>
<trkpt lat="25.040797" lon="101.756851">
<time>2015-09-27T20:52:04Z</time></trkpt>
<trkpt lat="25.040727" lon="101.75675">
<time>2015-09-27T20:52:05Z</time></trkpt>
<trkpt lat="25.040617" lon="101.75662">
<time>2015-09-27T20:52:06Z</time></trkpt>
<trkpt lat="25.040577" lon="101.75657">
<time>2015-09-27T20:52:07Z</time></trkpt>
<trkpt lat="25.040527" lon="101.75653">
<time>2015-09-27T20:52:08Z</time></trkpt>
<trkpt lat="25.040407" lon="101.75643">
<time>2015-09-27T20:52:09Z</time></trkpt>
<trkpt lat="25.040237" lon="101.75629">
<time>2015-09-27T20:52:10Z</time></trkpt>
<trkpt lat="25.040077" lon="101.75613">
<time>2015-09-27T20:52:11Z</time></trkpt>
<trkpt lat="25.039906" lon="101.75598">
<time>2015-09-27T20:52:12Z</time></trkpt>
<trkpt lat="25.039826" lon="101.75592">
<time>2015-09-27T20:52:13Z</time></trkpt>
<trkpt lat="25.039746" lon="101.75587">
<time>2015-09-27T20:52:14Z</time></trkpt>
<trkpt lat="25.039686" lon="101.75584">
<time>2015-09-27T20:52:15Z</time></trkpt>
<trkpt lat="25.039536" lon="101.7558">
<time>2015-09-27T20:52:16Z</time></trkpt>
<trkpt lat="25.039197" lon="101.75572">
<time>2015-09-27T20:52:17Z</time></trkpt>
<trkpt lat="25.039017" lon="101.75568">
<time>2015-09-27T20:52:18Z</time></trkpt>
<trkpt lat="25.038867" lon="101.75568">
<time>2015-09-27T20:52:19Z</time></trkpt>
<trkpt lat="25.038777" lon="101.75569">
<time>2015-09-27T20:52:20Z</time></trkpt>
<trkpt lat="25.038707" lon="101.7557">
<time>2015-09-27T20:52:21Z</time></trkpt>
<trkpt lat="25.038557" lon="101.75576">
<time>2015-09-27T20:52:22Z</time></trkpt>
<trkpt lat="25.038347" lon="101.75586">
<time>2015-09-27T20:52:23Z</time></trkpt>
<trkpt lat="25.038067" lon="101.75598">
<time>2015-09-27T20:52:24Z</time></trkpt>
<trkpt lat="25.037907" lon="101.75603">
<time>2015-09-27T20:52:25Z</time></trkpt>
<trkpt lat="25.037747" lon="101.75607">
<time>2015-09-27T20:52:26Z</time></trkpt>
<trkpt lat="25.037627" lon="101.75611">
<time>2015-09-27T20:52:27Z</time></trkpt>
<trkpt lat="25.037487" lon="101.75614">
<time>2015-09-27T20:52:28Z</time></trkpt>
<trkpt lat="25.037347" lon="101.75615">
<time>2015-09-27T20:52:29Z</time></trkpt>
<trkpt lat="25.037217" lon="101.75613">
<time>2015-09-27T20:52:30Z</time></trkpt>
<trkpt lat="25.037097" lon="101.75608">
<time>2015-09-27T20:52:31Z</time></trkpt>
<trkpt lat="25.036937" lon="101.75601">
<time>2015-09-27T20:52:32Z</time></trkpt>
<trkpt lat="25.036887" lon="101.75598">
<time>2015-09-27T20:52:33Z</time></trkpt>
<trkpt lat="25.036827" lon="101.75596">
<time>2015-09-27T20:52:34Z</time></trkpt>
<trkpt lat="25.036767" lon="101.75593">
<time>2015-09-27T20:52:35Z</time></trkpt>
<trkpt lat="25.036697" lon="101.75591">
<time>2015-09-27T20:52:36Z</time></trkpt>
<trkpt lat="25.036647" lon="101.7559">
<time>2015-09-27T20:52:37Z</time></trkpt>
<trkpt lat="25.036577" lon="101.7559">
<time>2015-09-27T20:52:38Z</time></trkpt>
<trkpt lat="25.036537" lon="101.75591">
<time>2015-09-27T20:52:39Z</time></trkpt>
<trkpt lat="25.036477" lon="101.75592">
<time>2015-09-27T20:52:40Z</time></trkpt>
<trkpt lat="25.036417" lon="101.75593">
<time>2015-09-27T20:52:41Z</time></trkpt>
<trkpt lat="25.036337" lon="101.75596">
<time>2015-09-27T20:52:42Z</time></trkpt>
<trkpt lat="25.035827" lon="101.75622">
<time>2015-09-27T20:52:43Z</time></trkpt>
<trkpt lat="25.035637" lon="101.75634">
<time>2015-09-27T20:52:44Z</time></trkpt>
<trkpt lat="25.035537" lon="101.75641">
<time>2015-09-27T20:52:45Z</time></trkpt>
<trkpt lat="25.035487" lon="101.75644">
<time>2015-09-27T20:52:46Z</time></trkpt>
<trkpt lat="25.035367" lon="101.756511">
<time>2015-09-27T20:52:47Z</time></trkpt>
<trkpt lat="25.035327" lon="101.756531">
<time>2015-09-27T20:52:48Z</time></trkpt>
<trkpt lat="25.035297" lon="101.756541">
<time>2015-09-27T20:52:49Z</time></trkpt>
<trkpt lat="25.035257" lon="101.756551">
<time>2015-09-27T20:52:50Z</time></trkpt>
<trkpt lat="25.035217" lon="101.756561">
<time>2015-09-27T20:52:51Z</time></trkpt>
<trkpt lat="25.035177" lon="101.756561">
<time>2015-09-27T20:52:52Z</time></trkpt>
<trkpt lat="25.035137" lon="101.756561">
<time>2015-09-27T20:52:53Z</time></trkpt>
<trkpt lat="25.035097" lon="101.756551">
<time>2015-09-27T20:52:54Z</time></trkpt>
<trkpt lat="25.035057" lon="101.756531">
<time>2015-09-27T20:52:55Z</time></trkpt>
<trkpt lat="25.035017" lon="101.756501">
<time>2015-09-27T20:52:56Z</time></trkpt>
<trkpt lat="25.034967" lon="101.75645">
<time>2015-09-27T20:52:57Z</time></trkpt>
<trkpt lat="25.034837" lon="101.75633">
<time>2015-09-27T20:52:58Z</time></trkpt>
<trkpt lat="25.034717" lon="101.7562">
<time>2015-09-27T20:52:59Z</time></trkpt>
<trkpt lat="25.034597" lon="101.75608">
<time>2015-09-27T20:53:00Z</time></trkpt>
<trkpt lat="25.034537" lon="101.75601">
<time>2015-09-27T20:53:01Z</time></trkpt>
<trkpt lat="25.034467" lon="101.75592">
<time>2015-09-27T20:53:02Z</time></trkpt>
<trkpt lat="25.034397" lon="101.75581">
<time>2015-09-27T20:53:03Z</time></trkpt>
<trkpt lat="25.034347" lon="101.75567">
<time>2015-09-27T20:53:04Z</time></trkpt>
<trkpt lat="25.034317" lon="101.75556">
<time>2015-09-27T20:53:05Z</time></trkpt>
<trkpt lat="25.034297" lon="101.75545">
<time>2015-09-27T20:53:06Z</time></trkpt>
<trkpt lat="25.034307" lon="101.75534">
<time>2015-09-27T20:53:07Z</time></trkpt>
<trkpt lat="25.034327" lon="101.75522">
<time>2015-09-27T20:53:08Z</time></trkpt>
<trkpt lat="25.034367" lon="101.75509">
<time>2015-09-27T20:53:09Z</time></trkpt>
<trkpt lat="25.034407" lon="101.75498">
<time>2015-09-27T20:53:10Z</time></trkpt>
<trkpt lat="25.034467" lon="101.75485">
<time>2015-09-27T20:53:11Z</time></trkpt>
<trkpt lat="25.034507" lon="101.75474">
<time>2015-09-27T20:53:12Z</time></trkpt>
<trkpt lat="25.034537" lon="101.75466">
<time>2015-09-27T20:53:13Z</time></trkpt>
<trkpt lat="25.034547" lon="101.75457">
<time>2015-09-27T20:53:14Z</time></trkpt>
<trkpt lat="25.034547" lon="101.75449">
<time>2015-09-27T20:53:15Z</time></trkpt>
<trkpt lat="25.034537" lon="101.754409">
<time>2015-09-27T20:53:16Z</time></trkpt>
<trkpt lat="25.034507" lon="101.754339">
<time>2015-09-27T20:53:17Z</time></trkpt>
<trkpt lat="25.034487" lon="101.754279">
<time>2015-09-27T20:53:18Z</time></trkpt>
<trkpt lat="25.034437" lon="101.754179">
<time>2015-09-27T20:53:19Z</time></trkpt>
<trkpt lat="25.034347" lon="101.754039">
<time>2015-09-27T20:53:20Z</time></trkpt>
<trkpt lat="25.034237" lon="101.753869">
<time>2015-09-27T20:53:21Z</time></trkpt>
<trkpt lat="25.034157" lon="101.753739">
<time>2015-09-27T20:53:22Z</time></trkpt>
<trkpt lat="25.034097" lon="101.753639">
<time>2015-09-27T20:53:23Z</time></trkpt>
<trkpt lat="25.034077" lon="101.753589">
<time>2015-09-27T20:53:24Z</time></trkpt>
<trkpt lat="25.034067" lon="101.753549">
<time>2015-09-27T20:53:25Z</time></trkpt>
<trkpt lat="25.034047" lon="101.753519">
<time>2015-09-27T20:53:26Z</time></trkpt>
<trkpt lat="25.034047" lon="101.753479">
<time>2015-09-27T20:53:27Z</time></trkpt>
<trkpt lat="25.034037" lon="101.753439">
<time>2015-09-27T20:53:28Z</time></trkpt>
<trkpt lat="25.034047" lon="101.753409">
<time>2015-09-27T20:53:29Z</time></trkpt>
<trkpt lat="25.034047" lon="101.753369">
<time>2015-09-27T20:53:30Z</time></trkpt>
<trkpt lat="25.034057" lon="101.753329">
<time>2015-09-27T20:53:31Z</time></trkpt>
<trkpt lat="25.034067" lon="101.753279">
<time>2015-09-27T20:53:32Z</time></trkpt>
<trkpt lat="25.034087" lon="101.753239">
<time>2015-09-27T20:53:33Z</time></trkpt>
<trkpt lat="25.034127" lon="101.753179">
<time>2015-09-27T20:53:34Z</time></trkpt>
<trkpt lat="25.034187" lon="101.753109">
<time>2015-09-27T20:53:35Z</time></trkpt>
<trkpt lat="25.034256" lon="101.753049">
<time>2015-09-27T20:53:36Z</time></trkpt>
<trkpt lat="25.034466" lon="101.752869">
<time>2015-09-27T20:53:37Z</time></trkpt>
<trkpt lat="25.034656" lon="101.752699">
<time>2015-09-27T20:53:38Z</time></trkpt>
<trkpt lat="25.034766" lon="101.752579">
<time>2015-09-27T20:53:39Z</time></trkpt>
<trkpt lat="25.034876" lon="101.752399">
<time>2015-09-27T20:53:40Z</time></trkpt>
<trkpt lat="25.034956" lon="101.752279">
<time>2015-09-27T20:53:41Z</time></trkpt>
<trkpt lat="25.035006" lon="101.752189">
<time>2015-09-27T20:53:42Z</time></trkpt>
<trkpt lat="25.035056" lon="101.752099">
<time>2015-09-27T20:53:43Z</time></trkpt>
<trkpt lat="25.035076" lon="101.752059">
<time>2015-09-27T20:53:44Z</time></trkpt>
<trkpt lat="25.035086" lon="101.752009">
<time>2015-09-27T20:53:45Z</time></trkpt>
<trkpt lat="25.035086" lon="101.751958">
<time>2015-09-27T20:53:46Z</time></trkpt>
<trkpt lat="25.035086" lon="101.751908">
<time>2015-09-27T20:53:47Z</time></trkpt>
<trkpt lat="25.035076" lon="101.751848">
<time>2015-09-27T20:53:48Z</time></trkpt>
<trkpt lat="25.035056" lon="101.751798">
<time>2015-09-27T20:53:49Z</time></trkpt>
<trkpt lat="25.035026" lon="101.751758">
<time>2015-09-27T20:53:50Z</time></trkpt>
<trkpt lat="25.034996" lon="101.751718">
<time>2015-09-27T20:53:51Z</time></trkpt>
<trkpt lat="25.034966" lon="101.751688">
<time>2015-09-27T20:53:52Z</time></trkpt>
<trkpt lat="25.034926" lon="101.751668">
<time>2015-09-27T20:53:53Z</time></trkpt>
<trkpt lat="25.034886" lon="101.751648">
<time>2015-09-27T20:53:54Z</time></trkpt>
<trkpt lat="25.034806" lon="101.751618">
<time>2015-09-27T20:53:55Z</time></trkpt>
<trkpt lat="25.034726" lon="101.751598">
<time>2015-09-27T20:53:56Z</time></trkpt>
<trkpt lat="25.034596" lon="101.751558">
<time>2015-09-27T20:53:57Z</time></trkpt>
<trkpt lat="25.034486" lon="101.751528">
<time>2015-09-27T20:53:58Z</time></trkpt>
<trkpt lat="25.034396" lon="101.751518">
<time>2015-09-27T20:53:59Z</time></trkpt>
<trkpt lat="25.034326" lon="101.751508">
<time>2015-09-27T20:54:00Z</time></trkpt>
<trkpt lat="25.034226" lon="101.751508">
<time>2015-09-27T20:54:01Z</time></trkpt>
<trkpt lat="25.034016" lon="101.751528">
<time>2015-09-27T20:54:02Z</time></trkpt>
<trkpt lat="25.033836" lon="101.751558">
<time>2015-09-27T20:54:03Z</time></trkpt>
<trkpt lat="25.033506" lon="101.751598">
<time>2015-09-27T20:54:04Z</time></trkpt>
<trkpt lat="25.033396" lon="101.751608">
<time>2015-09-27T20:54:05Z</time></trkpt>
<trkpt lat="25.033306" lon="101.751608">
<time>2015-09-27T20:54:06Z</time></trkpt>
<trkpt lat="25.033196" lon="101.751608">
<time>2015-09-27T20:54:07Z</time></trkpt>
<trkpt lat="25.033116" lon="101.751598">
<time>2015-09-27T20:54:08Z</time></trkpt>
<trkpt lat="25.033036" lon="101.751588">
<time>2015-09-27T20:54:09Z</time></trkpt>
<trkpt lat="25.032956" lon="101.751558">
<time>2015-09-27T20:54:10Z</time></trkpt>
<trkpt lat="25.032886" lon="101.751518">
<time>2015-09-27T20:54:11Z</time></trkpt>
<trkpt lat="25.032816" lon="101.751478">
<time>2015-09-27T20:54:12Z</time></trkpt>
<trkpt lat="25.032766" lon="101.751428">
<time>2015-09-27T20:54:13Z</time></trkpt>
<trkpt lat="25.032716" lon="101.751368">
<time>2015-09-27T20:54:14Z</time></trkpt>
<trkpt lat="25.032666" lon="101.751288">
<time>2015-09-27T20:54:15Z</time></trkpt>
<trkpt lat="25.032606" lon="101.751178">
<time>2015-09-27T20:54:16Z</time></trkpt>
<trkpt lat="25.032466" lon="101.750888">
<time>2015-09-27T20:54:17Z</time></trkpt>
<trkpt lat="25.032306" lon="101.750508">
<time>2015-09-27T20:54:18Z</time></trkpt>
<trkpt lat="25.032116" lon="101.750018">
<time>2015-09-27T20:54:19Z</time></trkpt>
<trkpt lat="25.032106" lon="101.749968">
<time>2015-09-27T20:54:20Z</time></trkpt>
<trkpt lat="25.032096" lon="101.749928">
<time>2015-09-27T20:54:21Z</time></trkpt>
<trkpt lat="25.032086" lon="101.749878">
<time>2015-09-27T20:54:22Z</time></trkpt>
<trkpt lat="25.032076" lon="101.749828">
<time>2015-09-27T20:54:23Z</time></trkpt>
<trkpt lat="25.032066" lon="101.749758">
<time>2015-09-27T20:54:24Z</time></trkpt>
<trkpt lat="25.032066" lon="101.749688">
<time>2015-09-27T20:54:25Z</time></trkpt>
<trkpt lat="25.032076" lon="101.749598">
<time>2015-09-27T20:54:26Z</time></trkpt>
<trkpt lat="25.032096" lon="101.749518">
<time>2015-09-27T20:54:27Z</time></trkpt>
<trkpt lat="25.032136" lon="101.749378">
<time>2015-09-27T20:54:28Z</time></trkpt>
<trkpt lat="25.032176" lon="101.749258">
<time>2015-09-27T20:54:29Z</time></trkpt>
<trkpt lat="25.032206" lon="101.749158">
<time>2015-09-27T20:54:30Z</time></trkpt>
<trkpt lat="25.032226" lon="101.749038">
<time>2015-09-27T20:54:31Z</time></trkpt>
<trkpt lat="25.032226" lon="101.748898">
<time>2015-09-27T20:54:32Z</time></trkpt>
<trkpt lat="25.032226" lon="101.748798">
<time>2015-09-27T20:54:33Z</time></trkpt>
<trkpt lat="25.032226" lon="101.748648">
<time>2015-09-27T20:54:34Z</time></trkpt>
<trkpt lat="25.032226" lon="101.748578">
<time>2015-09-27T20:54:35Z</time></trkpt>
<trkpt lat="25.032246" lon="101.748488">
<time>2015-09-27T20:54:36Z</time></trkpt>
<trkpt lat="25.032266" lon="101.748378">
<time>2015-09-27T20:54:37Z</time></trkpt>
<trkpt lat="25.032316" lon="101.748198">
<time>2015-09-27T20:54:38Z</time></trkpt>
<trkpt lat="25.032356" lon="101.748038">
<time>2015-09-27T20:54:39Z</time></trkpt>
<trkpt lat="25.032386" lon="101.747877">
<time>2015-09-27T20:54:40Z</time></trkpt>
<trkpt lat="25.032386" lon="101.747727">
<time>2015-09-27T20:54:41Z</time></trkpt>
<trkpt lat="25.032406" lon="101.747427">
<time>2015-09-27T20:54:42Z</time></trkpt>
<trkpt lat="25.032406" lon="101.747237">
<time>2015-09-27T20:54:43Z</time></trkpt>
<trkpt lat="25.032406" lon="101.747177">
<time>2015-09-27T20:54:44Z</time></trkpt>
<trkpt lat="25.032396" lon="101.747127">
<time>2015-09-27T20:54:45Z</time></trkpt>
<trkpt lat="25.032386" lon="101.747077">
<time>2015-09-27T20:54:46Z</time></trkpt>
<trkpt lat="25.032366" lon="101.747017">
<time>2015-09-27T20:54:47Z</time></trkpt>
<trkpt lat="25.032336" lon="101.746957">
<time>2015-09-27T20:54:48Z</time></trkpt>
<trkpt lat="25.032276" lon="101.746837">
<time>2015-09-27T20:54:49Z</time></trkpt>
<trkpt lat="25.032176" lon="101.746637">
<time>2015-09-27T20:54:50Z</time></trkpt>
<trkpt lat="25.032106" lon="101.746517">
<time>2015-09-27T20:54:51Z</time></trkpt>
<trkpt lat="25.032046" lon="101.746327">
<time>2015-09-27T20:54:52Z</time></trkpt>
<trkpt lat="25.032027" lon="101.746237">
<time>2015-09-27T20:54:53Z</time></trkpt>
<trkpt lat="25.032007" lon="101.746077">
<time>2015-09-27T20:54:54Z</time></trkpt>
<trkpt lat="25.031997" lon="101.745987">
<time>2015-09-27T20:54:55Z</time></trkpt>
<trkpt lat="25.031957" lon="101.745847">
<time>2015-09-27T20:54:56Z</time></trkpt>
<trkpt lat="25.031917" lon="101.745697">
<time>2015-09-27T20:54:57Z</time></trkpt>
<trkpt lat="25.031877" lon="101.745577">
<time>2015-09-27T20:54:58Z</time></trkpt>
<trkpt lat="25.031847" lon="101.745457">
<time>2015-09-27T20:54:59Z</time></trkpt>
<trkpt lat="25.031847" lon="101.745377">
<time>2015-09-27T20:55:00Z</time></trkpt>
<trkpt lat="25.031847" lon="101.745307">
<time>2015-09-27T20:55:01Z</time></trkpt>
<trkpt lat="25.031867" lon="101.745227">
<time>2015-09-27T20:55:02Z</time></trkpt>
<trkpt lat="25.031897" lon="101.745157">
<time>2015-09-27T20:55:03Z</time></trkpt>
<trkpt lat="25.031927" lon="101.745107">
<time>2015-09-27T20:55:04Z</time></trkpt>
<trkpt lat="25.031967" lon="101.745057">
<time>2015-09-27T20:55:05Z</time></trkpt>
<trkpt lat="25.032017" lon="101.745007">
<time>2015-09-27T20:55:06Z</time></trkpt>
<trkpt lat="25.032077" lon="101.744977">
<time>2015-09-27T20:55:07Z</time></trkpt>
<trkpt lat="25.032137" lon="101.744947">
<time>2015-09-27T20:55:08Z</time></trkpt>
<trkpt lat="25.032247" lon="101.744917">
<time>2015-09-27T20:55:09Z</time></trkpt>
<trkpt lat="25.032367" lon="101.744887">
<time>2015-09-27T20:55:10Z</time></trkpt>
<trkpt lat="25.032477" lon="101.744847">
<time>2015-09-27T20:55:11Z</time></trkpt>
<trkpt lat="25.032587" lon="101.744787">
<time>2015-09-27T20:55:12Z</time></trkpt>
<trkpt lat="25.032677" lon="101.744747">
<time>2015-09-27T20:55:13Z</time></trkpt>
<trkpt lat="25.032767" lon="101.744717">
<time>2015-09-27T20:55:14Z</time></trkpt>
<trkpt lat="25.032867" lon="101.744677">
<time>2015-09-27T20:55:15Z</time></trkpt>
<trkpt lat="25.032917" lon="101.744667">
<time>2015-09-27T20:55:16Z</time></trkpt>
<trkpt lat="25.032987" lon="101.744657">
<time>2015-09-27T20:55:17Z</time></trkpt>
<trkpt lat="25.033197" lon="101.744637">
<time>2015-09-27T20:55:18Z</time></trkpt>
<trkpt lat="25.033337" lon="101.744627">
<time>2015-09-27T20:55:19Z</time></trkpt>
<trkpt lat="25.033457" lon="101.744597">
<time>2015-09-27T20:55:20Z</time></trkpt>
<trkpt lat="25.033537" lon="101.744577">
<time>2015-09-27T20:55:21Z</time></trkpt>
<trkpt lat="25.033607" lon="101.744547">
<time>2015-09-27T20:55:22Z</time></trkpt>
<trkpt lat="25.033677" lon="101.744507">
<time>2015-09-27T20:55:23Z</time></trkpt>
<trkpt lat="25.033827" lon="101.744427">
<time>2015-09-27T20:55:24Z</time></trkpt>
<trkpt lat="25.034037" lon="101.744297">
<time>2015-09-27T20:55:25Z</time></trkpt>
<trkpt lat="25.034197" lon="101.744227">
<time>2015-09-27T20:55:26Z</time></trkpt>
<trkpt lat="25.034287" lon="101.744177">
<time>2015-09-27T20:55:27Z</time></trkpt>
<trkpt lat="25.034337" lon="101.744147">
<time>2015-09-27T20:55:28Z</time></trkpt>
<trkpt lat="25.034407" lon="101.744077">
<time>2015-09-27T20:55:29Z</time></trkpt>
<trkpt lat="25.034477" lon="101.743997">
<time>2015-09-27T20:55:30Z</time></trkpt>
<trkpt lat="25.034507" lon="101.743937">
<time>2015-09-27T20:55:31Z</time></trkpt>
<trkpt lat="25.034527" lon="101.743867">
<time>2015-09-27T20:55:32Z</time></trkpt>
<trkpt lat="25.034537" lon="101.743807">
<time>2015-09-27T20:55:33Z</time></trkpt>
<trkpt lat="25.034537" lon="101.743737">
<time>2015-09-27T20:55:34Z</time></trkpt>
<trkpt lat="25.034517" lon="101.743677">
<time>2015-09-27T20:55:35Z</time></trkpt>
<trkpt lat="25.034497" lon="101.743607">
<time>2015-09-27T20:55:36Z</time></trkpt>
<trkpt lat="25.034467" lon="101.743557">
<time>2015-09-27T20:55:37Z</time></trkpt>
<trkpt lat="25.034367" lon="101.743407">
<time>2015-09-27T20:55:38Z</time></trkpt>
<trkpt lat="25.034267" lon="101.743307">
<time>2015-09-27T20:55:39Z</time></trkpt>
<trkpt lat="25.034167" lon="101.743217">
<time>2015-09-27T20:55:40Z</time></trkpt>
<trkpt lat="25.033957" lon="101.743057">
<time>2015-09-27T20:55:41Z</time></trkpt>
<trkpt lat="25.033697" lon="101.742857">
<time>2015-09-27T20:55:42Z</time></trkpt>
<trkpt lat="25.033447" lon="101.742657">
<time>2015-09-27T20:55:43Z</time></trkpt>
<trkpt lat="25.033277" lon="101.742517">
<time>2015-09-27T20:55:44Z</time></trkpt>
<trkpt lat="25.033147" lon="101.742407">
<time>2015-09-27T20:55:45Z</time></trkpt>
<trkpt lat="25.032927" lon="101.742237">
<time>2015-09-27T20:55:46Z</time></trkpt>
<trkpt lat="25.032737" lon="101.742107">
<time>2015-09-27T20:55:47Z</time></trkpt>
<trkpt lat="25.032597" lon="101.742007">
<time>2015-09-27T20:55:48Z</time></trkpt>
<trkpt lat="25.032477" lon="101.741927">
<time>2015-09-27T20:55:49Z</time></trkpt>
<trkpt lat="25.032287" lon="101.741797">
<time>2015-09-27T20:55:50Z</time></trkpt>
<trkpt lat="25.032107" lon="101.741667">
<time>2015-09-27T20:55:51Z</time></trkpt>
<trkpt lat="25.031977" lon="101.741587">
<time>2015-09-27T20:55:52Z</time></trkpt>
<trkpt lat="25.031907" lon="101.741527">
<time>2015-09-27T20:55:53Z</time></trkpt>
<trkpt lat="25.031817" lon="101.741447">
<time>2015-09-27T20:55:54Z</time></trkpt>
<trkpt lat="25.031727" lon="101.741347">
<time>2015-09-27T20:55:55Z</time></trkpt>
<trkpt lat="25.031647" lon="101.741227">
<time>2015-09-27T20:55:56Z</time></trkpt>
<trkpt lat="25.031588" lon="101.741107">
<time>2015-09-27T20:55:57Z</time></trkpt>
<trkpt lat="25.031518" lon="101.740967">
<time>2015-09-27T20:55:58Z</time></trkpt>
<trkpt lat="25.031418" lon="101.740717">
<time>2015-09-27T20:55:59Z</time></trkpt>
<trkpt lat="25.031358" lon="101.740497">
<time>2015-09-27T20:56:00Z</time></trkpt>
<trkpt lat="25.031338" lon="101.740377">
<time>2015-09-27T20:56:01Z</time></trkpt>
<trkpt lat="25.031308" lon="101.740217">
<time>2015-09-27T20:56:02Z</time></trkpt>
<trkpt lat="25.031298" lon="101.740117">
<time>2015-09-27T20:56:03Z</time></trkpt>
<trkpt lat="25.031298" lon="101.740007">
<time>2015-09-27T20:56:04Z</time></trkpt>
<trkpt lat="25.031308" lon="101.739917">
<time>2015-09-27T20:56:05Z</time></trkpt>
<trkpt lat="25.031328" lon="101.739807">
<time>2015-09-27T20:56:06Z</time></trkpt>
<trkpt lat="25.031358" lon="101.739698">
<time>2015-09-27T20:56:07Z</time></trkpt>
<trkpt lat="25.031418" lon="101.739578">
<time>2015-09-27T20:56:08Z</time></trkpt>
<trkpt lat="25.031478" lon="101.739458">
<time>2015-09-27T20:56:09Z</time></trkpt>
<trkpt lat="25.031608" lon="101.739248">
<time>2015-09-27T20:56:10Z</time></trkpt>
<trkpt lat="25.031708" lon="101.739108">
<time>2015-09-27T20:56:11Z</time></trkpt>
<trkpt lat="25.031838" lon="101.738958">
<time>2015-09-27T20:56:12Z</time></trkpt>
<trkpt lat="25.031928" lon="101.738878">
<time>2015-09-27T20:56:13Z</time></trkpt>
<trkpt lat="25.031988" lon="101.738828">
<time>2015-09-27T20:56:14Z</time></trkpt>
<trkpt lat="25.032058" lon="101.738798">
<time>2015-09-27T20:56:15Z</time></trkpt>
<trkpt lat="25.032158" lon="101.738778">
<time>2015-09-27T20:56:16Z</time></trkpt>
<trkpt lat="25.032238" lon="101.738758">
<time>2015-09-27T20:56:17Z</time></trkpt>
<trkpt lat="25.032348" lon="101.738748">
<time>2015-09-27T20:56:18Z</time></trkpt>
<trkpt lat="25.032468" lon="101.738738">
<time>2015-09-27T20:56:19Z</time></trkpt>
<trkpt lat="25.032568" lon="101.738728">
<time>2015-09-27T20:56:20Z</time></trkpt>
<trkpt lat="25.032648" lon="101.738708">
<time>2015-09-27T20:56:21Z</time></trkpt>
<trkpt lat="25.032728" lon="101.738678">
<time>2015-09-27T20:56:22Z</time></trkpt>
<trkpt lat="25.032798" lon="101.738638">
<time>2015-09-27T20:56:23Z</time></trkpt>
<trkpt lat="25.032898" lon="101.738568">
<time>2015-09-27T20:56:24Z</time></trkpt>
<trkpt lat="25.033078" lon="101.738418">
<time>2015-09-27T20:56:25Z</time></trkpt>
<trkpt lat="25.033298" lon="101.738218">
<time>2015-09-27T20:56:26Z</time></trkpt>
<trkpt lat="25.033518" lon="101.738018">
<time>2015-09-27T20:56:27Z</time></trkpt>
<trkpt lat="25.033658" lon="101.737898">
<time>2015-09-27T20:56:28Z</time></trkpt>
<trkpt lat="25.033718" lon="101.737848">
<time>2015-09-27T20:56:29Z</time></trkpt>
<trkpt lat="25.033778" lon="101.737768">
<time>2015-09-27T20:56:30Z</time></trkpt>
<trkpt lat="25.033818" lon="101.737708">
<time>2015-09-27T20:56:31Z</time></trkpt>
<trkpt lat="25.033838" lon="101.737648">
<time>2015-09-27T20:56:32Z</time></trkpt>
<trkpt lat="25.033849" lon="101.737598">
<time>2015-09-27T20:56:33Z</time></trkpt>
<trkpt lat="25.033849" lon="101.737548">
<time>2015-09-27T20:56:34Z</time></trkpt>
<trkpt lat="25.033849" lon="101.737488">
<time>2015-09-27T20:56:35Z</time></trkpt>
<trkpt lat="25.033829" lon="101.737428">
<time>2015-09-27T20:56:36Z</time></trkpt>
<trkpt lat="25.033799" lon="101.737358">
<time>2015-09-27T20:56:37Z</time></trkpt>
<trkpt lat="25.033769" lon="101.737318">
<time>2015-09-27T20:56:38Z</time></trkpt>
<trkpt lat="25.033739" lon="101.737268">
<time>2015-09-27T20:56:39Z</time></trkpt>
<trkpt lat="25.033699" lon="101.737218">
<time>2015-09-27T20:56:40Z</time></trkpt>
<trkpt lat="25.033659" lon="101.737168">
<time>2015-09-27T20:56:41Z</time></trkpt>
<trkpt lat="25.033559" lon="101.737098">
<time>2015-09-27T20:56:42Z</time></trkpt>
<trkpt lat="25.033479" lon="101.737048">
<time>2015-09-27T20:56:43Z</time></trkpt>
<trkpt lat="25.033419" lon="101.737028">
<time>2015-09-27T20:56:44Z</time></trkpt>
<trkpt lat="25.033309" lon="101.736998">
<time>2015-09-27T20:56:45Z</time></trkpt>
<trkpt lat="25.033119" lon="101.736958">
<time>2015-09-27T20:56:46Z</time></trkpt>
<trkpt lat="25.032859" lon="101.736918">
<time>2015-09-27T20:56:47Z</time></trkpt>
<trkpt lat="25.032599" lon="101.736868">
<time>2015-09-27T20:56:48Z</time></trkpt>
<trkpt lat="25.032399" lon="101.736828">
<time>2015-09-27T20:56:49Z</time></trkpt>
<trkpt lat="25.032299" lon="101.736788">
<time>2015-09-27T20:56:50Z</time></trkpt>
<trkpt lat="25.032229" lon="101.736748">
<time>2015-09-27T20:56:51Z</time></trkpt>
<trkpt lat="25.032189" lon="101.736718">
<time>2015-09-27T20:56:52Z</time></trkpt>
<trkpt lat="25.032129" lon="101.736658">
<time>2015-09-27T20:56:53Z</time></trkpt>
<trkpt lat="25.032099" lon="101.736578">
<time>2015-09-27T20:56:54Z</time></trkpt>
<trkpt lat="25.032079" lon="101.736508">
<time>2015-09-27T20:56:55Z</time></trkpt>
<trkpt lat="25.032069" lon="101.736438">
<time>2015-09-27T20:56:56Z</time></trkpt>
<trkpt lat="25.032079" lon="101.736348">
<time>2015-09-27T20:56:57Z</time></trkpt>
<trkpt lat="25.032129" lon="101.736198">
<time>2015-09-27T20:56:58Z</time></trkpt>
<trkpt lat="25.032189" lon="101.736068">
<time>2015-09-27T20:56:59Z</time></trkpt>
<trkpt lat="25.032209" lon="101.735968">
<time>2015-09-27T20:57:00Z</time></trkpt>
<trkpt lat="25.032219" lon="101.735878">
<time>2015-09-27T20:57:01Z</time></trkpt>
<trkpt lat="25.03223" lon="101.735818">
<time>2015-09-27T20:57:02Z</time></trkpt>
<trkpt lat="25.03223" lon="101.735718">
<time>2015-09-27T20:57:03Z</time></trkpt>
<trkpt lat="25.03221" lon="101.735639">
<time>2015-09-27T20:57:04Z</time></trkpt>
<trkpt lat="25.03215" lon="101.735379">
<time>2015-09-27T20:57:05Z</time></trkpt>
<trkpt lat="25.0321" lon="101.735189">
<time>2015-09-27T20:57:06Z</time></trkpt>
<trkpt lat="25.03208" lon="101.735029">
<time>2015-09-27T20:57:07Z</time></trkpt>
<trkpt lat="25.03209" lon="101.734919">
<time>2015-09-27T20:57:08Z</time></trkpt>
<trkpt lat="25.03211" lon="101.734839">
<time>2015-09-27T20:57:09Z</time></trkpt>
<trkpt lat="25.03216" lon="101.734729">
<time>2015-09-27T20:57:10Z</time></trkpt>
<trkpt lat="25.03223" lon="101.734589">
<time>2015-09-27T20:57:11Z</time></trkpt>
<trkpt lat="25.03234" lon="101.734379">
<time>2015-09-27T20:57:12Z</time></trkpt>
<trkpt lat="25.03242" lon="101.734149">
<time>2015-09-27T20:57:13Z</time></trkpt>
<trkpt lat="25.03248" lon="101.734019">
<time>2015-09-27T20:57:14Z</time></trkpt>
<trkpt lat="25.03254" lon="101.733909">
<time>2015-09-27T20:57:15Z</time></trkpt>
<trkpt lat="25.032611" lon="101.733799">
<time>2015-09-27T20:57:16Z</time></trkpt>
<trkpt lat="25.032841" lon="101.733519">
<time>2015-09-27T20:57:17Z</time></trkpt>
<trkpt lat="25.032891" lon="101.733459">
<time>2015-09-27T20:57:18Z</time></trkpt>
<trkpt lat="25.032951" lon="101.733369">
<time>2015-09-27T20:57:19Z</time></trkpt>
<trkpt lat="25.032971" lon="101.733329">
<time>2015-09-27T20:57:20Z</time></trkpt>
<trkpt lat="25.033041" lon="101.733199">
<time>2015-09-27T20:57:21Z</time></trkpt>
<trkpt lat="25.033161" lon="101.73291">
<time>2015-09-27T20:57:22Z</time></trkpt>
<trkpt lat="25.033261" lon="101.73268">
<time>2015-09-27T20:57:23Z</time></trkpt>
<trkpt lat="25.033361" lon="101.73242">
<time>2015-09-27T20:57:24Z</time></trkpt>
<trkpt lat="25.033441" lon="101.73225">
<time>2015-09-27T20:57:25Z</time></trkpt>
<trkpt lat="25.033491" lon="101.73215">
<time>2015-09-27T20:57:26Z</time></trkpt>
<trkpt lat="25.033551" lon="101.73204">
<time>2015-09-27T20:57:27Z</time></trkpt>
<trkpt lat="25.033591" lon="101.73197">
<time>2015-09-27T20:57:28Z</time></trkpt>
<trkpt lat="25.033632" lon="101.73191">
<time>2015-09-27T20:57:29Z</time></trkpt>
<trkpt lat="25.033662" lon="101.73186">
<time>2015-09-27T20:57:30Z</time></trkpt>
<trkpt lat="25.033712" lon="101.73181">
<time>2015-09-27T20:57:31Z</time></trkpt>
<trkpt lat="25.033792" lon="101.73173">
<time>2015-09-27T20:57:32Z</time></trkpt>
<trkpt lat="25.033872" lon="101.73166">
<time>2015-09-27T20:57:33Z</time></trkpt>
<trkpt lat="25.033982" lon="101.73157">
<time>2015-09-27T20:57:34Z</time></trkpt>
<trkpt lat="25.034062" lon="101.73151">
<time>2015-09-27T20:57:35Z</time></trkpt>
<trkpt lat="25.034132" lon="101.73143">
<time>2015-09-27T20:57:36Z</time></trkpt>
<trkpt lat="25.034172" lon="101.73139">
<time>2015-09-27T20:57:37Z</time></trkpt>
<trkpt lat="25.034192" lon="101.73133">
<time>2015-09-27T20:57:38Z</time></trkpt>
<trkpt lat="25.034212" lon="101.73128">
<time>2015-09-27T20:57:39Z</time></trkpt>
<trkpt lat="25.034222" lon="101.73121">
<time>2015-09-27T20:57:40Z</time></trkpt>
<trkpt lat="25.034242" lon="101.73113">
<time>2015-09-27T20:57:41Z</time></trkpt>
<trkpt lat="25.034252" lon="101.730951">
<time>2015-09-27T20:57:42Z</time></trkpt>
<trkpt lat="25.034252" lon="101.730871">
<time>2015-09-27T20:57:43Z</time></trkpt>
<trkpt lat="25.034272" lon="101.730811">
<time>2015-09-27T20:57:44Z</time></trkpt>
<trkpt lat="25.034302" lon="101.730741">
<time>2015-09-27T20:57:45Z</time></trkpt>
<trkpt lat="25.034322" lon="101.730691">
<time>2015-09-27T20:57:46Z</time></trkpt>
<trkpt lat="25.034352" lon="101.730651">
<time>2015-09-27T20:57:47Z</time></trkpt>
<trkpt lat="25.034392" lon="101.730621">
<time>2015-09-27T20:57:48Z</time></trkpt>
<trkpt lat="25.034422" lon="101.730601">
<time>2015-09-27T20:57:49Z</time></trkpt>
<trkpt lat="25.034472" lon="101.730591">
<time>2015-09-27T20:57:50Z</time></trkpt>
<trkpt lat="25.034582" lon="101.730561">
<time>2015-09-27T20:57:51Z</time></trkpt>
<trkpt lat="25.034652" lon="101.730551">
<time>2015-09-27T20:57:52Z</time></trkpt>
<trkpt lat="25.034742" lon="101.730521">
<time>2015-09-27T20:57:53Z</time></trkpt>
<trkpt lat="25.034802" lon="101.730501">
<time>2015-09-27T20:57:54Z</time></trkpt>
<trkpt lat="25.034852" lon="101.730471">
<time>2015-09-27T20:57:55Z</time></trkpt>
<trkpt lat="25.034932" lon="101.730411">
<time>2015-09-27T20:57:56Z</time></trkpt>
<trkpt lat="25.034992" lon="101.730351">
<time>2015-09-27T20:57:57Z</time></trkpt>
<trkpt lat="25.035062" lon="101.730271">
<time>2015-09-27T20:57:58Z</time></trkpt>
<trkpt lat="25.035162" lon="101.730161">
<time>2015-09-27T20:57:59Z</time></trkpt>
<trkpt lat="25.035243" lon="101.730081">
<time>2015-09-27T20:58:00Z</time></trkpt>
<trkpt lat="25.035343" lon="101.729921">
<time>2015-09-27T20:58:01Z</time></trkpt>
<trkpt lat="25.035503" lon="101.729661">
<time>2015-09-27T20:58:02Z</time></trkpt>
<trkpt lat="25.035643" lon="101.729411">
<time>2015-09-27T20:58:03Z</time></trkpt>
<trkpt lat="25.035843" lon="101.729042">
<time>2015-09-27T20:58:04Z</time></trkpt>
<trkpt lat="25.035923" lon="101.728912">
<time>2015-09-27T20:58:05Z</time></trkpt>
<trkpt lat="25.035983" lon="101.728812">
<time>2015-09-27T20:58:06Z</time></trkpt>
<trkpt lat="25.036053" lon="101.728702">
<time>2015-09-27T20:58:07Z</time></trkpt>
<trkpt lat="25.036093" lon="101.728652">
<time>2015-09-27T20:58:08Z</time></trkpt>
<trkpt lat="25.036113" lon="101.728622">
<time>2015-09-27T20:58:09Z</time></trkpt>
<trkpt lat="25.036143" lon="101.728602">
<time>2015-09-27T20:58:10Z</time></trkpt>
<trkpt lat="25.036183" lon="101.728592">
<time>2015-09-27T20:58:11Z</time></trkpt>
<trkpt lat="25.036223" lon="101.728592">
<time>2015-09-27T20:58:12Z</time></trkpt>
<trkpt lat="25.036263" lon="101.728582">
<time>2015-09-27T20:58:13Z</time></trkpt>
<trkpt lat="25.036303" lon="101.728582">
<time>2015-09-27T20:58:14Z</time></trkpt>
<trkpt lat="25.036353" lon="101.728602">
<time>2015-09-27T20:58:15Z</time></trkpt>
<trkpt lat="25.036393" lon="101.728622">
<time>2015-09-27T20:58:16Z</time></trkpt>
<trkpt lat="25.036433" lon="101.728642">
<time>2015-09-27T20:58:17Z</time></trkpt>
<trkpt lat="25.036503" lon="101.728712">
<time>2015-09-27T20:58:18Z</time></trkpt>
<trkpt lat="25.036593" lon="101.728812">
<time>2015-09-27T20:58:19Z</time></trkpt>
<trkpt lat="25.036653" lon="101.728862">
<time>2015-09-27T20:58:20Z</time></trkpt>
<trkpt lat="25.036713" lon="101.728902">
<time>2015-09-27T20:58:21Z</time></trkpt>
<trkpt lat="25.036743" lon="101.728922">
<time>2015-09-27T20:58:22Z</time></trkpt>
<trkpt lat="25.036783" lon="101.728932">
<time>2015-09-27T20:58:23Z</time></trkpt>
<trkpt lat="25.036843" lon="101.728942">
<time>2015-09-27T20:58:24Z</time></trkpt>
<trkpt lat="25.036873" lon="101.728952">
<time>2015-09-27T20:58:25Z</time></trkpt>
<trkpt lat="25.036913" lon="101.728952">
<time>2015-09-27T20:58:26Z</time></trkpt>
<trkpt lat="25.036963" lon="101.728942">
<time>2015-09-27T20:58:27Z</time></trkpt>
<trkpt lat="25.037003" lon="101.728922">
<time>2015-09-27T20:58:28Z</time></trkpt>
<trkpt lat="25.037043" lon="101.728892">
<time>2015-09-27T20:58:29Z</time></trkpt>
<trkpt lat="25.037083" lon="101.728862">
<time>2015-09-27T20:58:30Z</time></trkpt>
<trkpt lat="25.037123" lon="101.728802">
<time>2015-09-27T20:58:31Z</time></trkpt>
<trkpt lat="25.037173" lon="101.728702">
<time>2015-09-27T20:58:32Z</time></trkpt>
<trkpt lat="25.037314" lon="101.728382">
<time>2015-09-27T20:58:33Z</time></trkpt>
<trkpt lat="25.037384" lon="101.728192">
<time>2015-09-27T20:58:34Z</time></trkpt>
<trkpt lat="25.037494" lon="101.727922">
<time>2015-09-27T20:58:35Z</time></trkpt>
<trkpt lat="25.037604" lon="101.727642">
<time>2015-09-27T20:58:36Z</time></trkpt>
<trkpt lat="25.037754" lon="101.727353">
<time>2015-09-27T20:58:37Z</time></trkpt>
<trkpt lat="25.037824" lon="101.727233">
<time>2015-09-27T20:58:38Z</time></trkpt>
<trkpt lat="25.037974" lon="101.727023">
<time>2015-09-27T20:58:39Z</time></trkpt>
<trkpt lat="25.038125" lon="101.726833">
<time>2015-09-27T20:58:40Z</time></trkpt>
<trkpt lat="25.038365" lon="101.726543">
<time>2015-09-27T20:58:41Z</time></trkpt>
<trkpt lat="25.038615" lon="101.726233">
<time>2015-09-27T20:58:42Z</time></trkpt>
<trkpt lat="25.038815" lon="101.726013">
<time>2015-09-27T20:58:43Z</time></trkpt>
<trkpt lat="25.038955" lon="101.725854">
<time>2015-09-27T20:58:44Z</time></trkpt>
<trkpt lat="25.039115" lon="101.725714">
<time>2015-09-27T20:58:45Z</time></trkpt>
<trkpt lat="25.039456" lon="101.725464">
<time>2015-09-27T20:58:46Z</time></trkpt>
<trkpt lat="25.039766" lon="101.725214">
<time>2015-09-27T20:58:47Z</time></trkpt>
<trkpt lat="25.039976" lon="101.725034">
<time>2015-09-27T20:58:48Z</time></trkpt>
<trkpt lat="25.040066" lon="101.724954">
<time>2015-09-27T20:58:49Z</time></trkpt>
<trkpt lat="25.040156" lon="101.724864">
<time>2015-09-27T20:58:50Z</time></trkpt>
<trkpt lat="25.040216" lon="101.724774">
<time>2015-09-27T20:58:51Z</time></trkpt>
<trkpt lat="25.040246" lon="101.724724">
<time>2015-09-27T20:58:52Z</time></trkpt>
<trkpt lat="25.040286" lon="101.724615">
<time>2015-09-27T20:58:53Z</time></trkpt>
<trkpt lat="25.040326" lon="101.724515">
<time>2015-09-27T20:58:54Z</time></trkpt>
<trkpt lat="25.040366" lon="101.724385">
<time>2015-09-27T20:58:55Z</time></trkpt>
<trkpt lat="25.040397" lon="101.724265">
<time>2015-09-27T20:58:56Z</time></trkpt>
<trkpt lat="25.040457" lon="101.724085">
<time>2015-09-27T20:58:57Z</time></trkpt>
<trkpt lat="25.040497" lon="101.723955">
<time>2015-09-27T20:58:58Z</time></trkpt>
<trkpt lat="25.040547" lon="101.723835">
<time>2015-09-27T20:58:59Z</time></trkpt>
<trkpt lat="25.040577" lon="101.723765">
<time>2015-09-27T20:59:00Z</time></trkpt>
<trkpt lat="25.040627" lon="101.723675">
<time>2015-09-27T20:59:01Z</time></trkpt>
<trkpt lat="25.040677" lon="101.723625">
<time>2015-09-27T20:59:02Z</time></trkpt>
<trkpt lat="25.040747" lon="101.723575">
<time>2015-09-27T20:59:03Z</time></trkpt>
<trkpt lat="25.040797" lon="101.723545">
<time>2015-09-27T20:59:04Z</time></trkpt>
<trkpt lat="25.040857" lon="101.723525">
<time>2015-09-27T20:59:05Z</time></trkpt>
<trkpt lat="25.040947" lon="101.723495">
<time>2015-09-27T20:59:06Z</time></trkpt>
<trkpt lat="25.041177" lon="101.723445">
<time>2015-09-27T20:59:07Z</time></trkpt>
<trkpt lat="25.041327" lon="101.723405">
<time>2015-09-27T20:59:08Z</time></trkpt>
<trkpt lat="25.041537" lon="101.723326">
<time>2015-09-27T20:59:09Z</time></trkpt>
<trkpt lat="25.041657" lon="101.723286">
<time>2015-09-27T20:59:10Z</time></trkpt>
<trkpt lat="25.041727" lon="101.723266">
<time>2015-09-27T20:59:11Z</time></trkpt>
<trkpt lat="25.041797" lon="101.723256">
<time>2015-09-27T20:59:12Z</time></trkpt>
<trkpt lat="25.041847" lon="101.723246">
<time>2015-09-27T20:59:13Z</time></trkpt>
<trkpt lat="25.041927" lon="101.723246">
<time>2015-09-27T20:59:14Z</time></trkpt>
<trkpt lat="25.041987" lon="101.723246">
<time>2015-09-27T20:59:15Z</time></trkpt>
<trkpt lat="25.042047" lon="101.723256">
<time>2015-09-27T20:59:16Z</time></trkpt>
<trkpt lat="25.042077" lon="101.723266">
<time>2015-09-27T20:59:17Z</time></trkpt>
<trkpt lat="25.042147" lon="101.723286">
<time>2015-09-27T20:59:18Z</time></trkpt>
<trkpt lat="25.042187" lon="101.723315">
<time>2015-09-27T20:59:19Z</time></trkpt>
<trkpt lat="25.042227" lon="101.723335">
<time>2015-09-27T20:59:20Z</time></trkpt>
<trkpt lat="25.042287" lon="101.723375">
<time>2015-09-27T20:59:21Z</time></trkpt>
<trkpt lat="25.042377" lon="101.723455">
<time>2015-09-27T20:59:22Z</time></trkpt>
<trkpt lat="25.042417" lon="101.723505">
<time>2015-09-27T20:59:23Z</time></trkpt>
<trkpt lat="25.042557" lon="101.723645">
<time>2015-09-27T20:59:24Z</time></trkpt>
<trkpt lat="25.042647" lon="101.723725">
<time>2015-09-27T20:59:25Z</time></trkpt>
<trkpt lat="25.042777" lon="101.723835">
<time>2015-09-27T20:59:26Z</time></trkpt>
<trkpt lat="25.042957" lon="101.723965">
<time>2015-09-27T20:59:27Z</time></trkpt>
<trkpt lat="25.043346" lon="101.724235">
<time>2015-09-27T20:59:28Z</time></trkpt>
<trkpt lat="25.043726" lon="101.724485">
<time>2015-09-27T20:59:29Z</time></trkpt>
<trkpt lat="25.043956" lon="101.724644">
<time>2015-09-27T20:59:30Z</time></trkpt>
<trkpt lat="25.044176" lon="101.724814">
<time>2015-09-27T20:59:31Z</time></trkpt>
<trkpt lat="25.044356" lon="101.724914">
<time>2015-09-27T20:59:32Z</time></trkpt>
<trkpt lat="25.044426" lon="101.724944">
<time>2015-09-27T20:59:33Z</time></trkpt>
<trkpt lat="25.044485" lon="101.724954">
<time>2015-09-27T20:59:34Z</time></trkpt>
<trkpt lat="25.044545" lon="101.724954">
<time>2015-09-27T20:59:35Z</time></trkpt>
<trkpt lat="25.044595" lon="101.724954">
<time>2015-09-27T20:59:36Z</time></trkpt>
<trkpt lat="25.044645" lon="101.724934">
<time>2015-09-27T20:59:37Z</time></trkpt>
<trkpt lat="25.044675" lon="101.724914">
<time>2015-09-27T20:59:38Z</time></trkpt>
<trkpt lat="25.044716" lon="101.724884">
<time>2015-09-27T20:59:39Z</time></trkpt>
<trkpt lat="25.044756" lon="101.724854">
<time>2015-09-27T20:59:40Z</time></trkpt>
<trkpt lat="25.044776" lon="101.724814">
<time>2015-09-27T20:59:41Z</time></trkpt>
<trkpt lat="25.044786" lon="101.724764">
<time>2015-09-27T20:59:42Z</time></trkpt>
<trkpt lat="25.044806" lon="101.724704">
<time>2015-09-27T20:59:43Z</time></trkpt>
<trkpt lat="25.044806" lon="101.724654">
<time>2015-09-27T20:59:44Z</time></trkpt>
<trkpt lat="25.044806" lon="101.724574">
<time>2015-09-27T20:59:45Z</time></trkpt>
<trkpt lat="25.044796" lon="101.724504">
<time>2015-09-27T20:59:46Z</time></trkpt>
<trkpt lat="25.044776" lon="101.724415">
<time>2015-09-27T20:59:47Z</time></trkpt>
<trkpt lat="25.044736" lon="101.724245">
<time>2015-09-27T20:59:48Z</time></trkpt>
<trkpt lat="25.044716" lon="101.724145">
<time>2015-09-27T20:59:49Z</time></trkpt>
<trkpt lat="25.044676" lon="101.724035">
<time>2015-09-27T20:59:50Z</time></trkpt>
<trkpt lat="25.044656" lon="101.723965">
<time>2015-09-27T20:59:51Z</time></trkpt>
<trkpt lat="25.044626" lon="101.723885">
<time>2015-09-27T20:59:52Z</time></trkpt>
<trkpt lat="25.044557" lon="101.723685">
<time>2015-09-27T20:59:53Z</time></trkpt>
<trkpt lat="25.044497" lon="101.723525">
<time>2015-09-27T20:59:54Z</time></trkpt>
<trkpt lat="25.044477" lon="101.723425">
<time>2015-09-27T20:59:55Z</time></trkpt>
<trkpt lat="25.044427" lon="101.723226">
<time>2015-09-27T20:59:56Z</time></trkpt>
<trkpt lat="25.044357" lon="101.722836">
<time>2015-09-27T20:59:57Z</time></trkpt>
<trkpt lat="25.044328" lon="101.722706">
<time>2015-09-27T20:59:58Z</time></trkpt>
<trkpt lat="25.044278" lon="101.722526">
<time>2015-09-27T20:59:59Z</time></trkpt>
<trkpt lat="25.044248" lon="101.722416">
<time>2015-09-27T21:00:00Z</time></trkpt>
<trkpt lat="25.044218" lon="101.722336">
<time>2015-09-27T21:00:01Z</time></trkpt>
<trkpt lat="25.044188" lon="101.722266">
<time>2015-09-27T21:00:02Z</time></trkpt>
<trkpt lat="25.044148" lon="101.722186">
<time>2015-09-27T21:00:03Z</time></trkpt>
<trkpt lat="25.044098" lon="101.722106">
<time>2015-09-27T21:00:04Z</time></trkpt>
<trkpt lat="25.044028" lon="101.722017">
<time>2015-09-27T21:00:05Z</time></trkpt>
<trkpt lat="25.043958" lon="101.721927">
<time>2015-09-27T21:00:06Z</time></trkpt>
<trkpt lat="25.043918" lon="101.721867">
<time>2015-09-27T21:00:07Z</time></trkpt>
<trkpt lat="25.043898" lon="101.721817">
<time>2015-09-27T21:00:08Z</time></trkpt>
<trkpt lat="25.043879" lon="101.721757">
<time>2015-09-27T21:00:09Z</time></trkpt>
<trkpt lat="25.043869" lon="101.721677">
<time>2015-09-27T21:00:10Z</time></trkpt>
<trkpt lat="25.043869" lon="101.721617">
<time>2015-09-27T21:00:11Z</time></trkpt>
<trkpt lat="25.043889" lon="101.721547">
<time>2015-09-27T21:00:12Z</time></trkpt>
<trkpt lat="25.043899" lon="101.721477">
<time>2015-09-27T21:00:13Z</time></trkpt>
<trkpt lat="25.043949" lon="101.721397">
<time>2015-09-27T21:00:14Z</time></trkpt>
<trkpt lat="25.043999" lon="101.721317">
<time>2015-09-27T21:00:15Z</time></trkpt>
<trkpt lat="25.044079" lon="101.721227">
<time>2015-09-27T21:00:16Z</time></trkpt>
<trkpt lat="25.044149" lon="101.721147">
<time>2015-09-27T21:00:17Z</time></trkpt>
<trkpt lat="25.044229" lon="101.721067">
<time>2015-09-27T21:00:18Z</time></trkpt>
<trkpt lat="25.044369" lon="101.720967">
<time>2015-09-27T21:00:19Z</time></trkpt>
<trkpt lat="25.044459" lon="101.720908">
<time>2015-09-27T21:00:20Z</time></trkpt>
<trkpt lat="25.044539" lon="101.720848">
<time>2015-09-27T21:00:21Z</time></trkpt>
<trkpt lat="25.044579" lon="101.720798">
<time>2015-09-27T21:00:22Z</time></trkpt>
<trkpt lat="25.044619" lon="101.720748">
<time>2015-09-27T21:00:23Z</time></trkpt>
<trkpt lat="25.044639" lon="101.720698">
<time>2015-09-27T21:00:24Z</time></trkpt>
<trkpt lat="25.04464" lon="101.720638">
<time>2015-09-27T21:00:25Z</time></trkpt>
<trkpt lat="25.04463" lon="101.720608">
<time>2015-09-27T21:00:26Z</time></trkpt>
<trkpt lat="25.04462" lon="101.720558">
<time>2015-09-27T21:00:27Z</time></trkpt>
<trkpt lat="25.0446" lon="101.720508">
<time>2015-09-27T21:00:28Z</time></trkpt>
<trkpt lat="25.04457" lon="101.720458">
<time>2015-09-27T21:00:29Z</time></trkpt>
<trkpt lat="25.04454" lon="101.720428">
<time>2015-09-27T21:00:30Z</time></trkpt>
<trkpt lat="25.04447" lon="101.720368">
<time>2015-09-27T21:00:31Z</time></trkpt>
<trkpt lat="25.04442" lon="101.720338">
<time>2015-09-27T21:00:32Z</time></trkpt>
<trkpt lat="25.04438" lon="101.720318">
<time>2015-09-27T21:00:33Z</time></trkpt>
<trkpt lat="25.04427" lon="101.720278">
<time>2015-09-27T21:00:34Z</time></trkpt>
<trkpt lat="25.04416" lon="101.720238">
<time>2015-09-27T21:00:35Z</time></trkpt>
<trkpt lat="25.04396" lon="101.720188">
<time>2015-09-27T21:00:36Z</time></trkpt>
<trkpt lat="25.04383" lon="101.720148">
<time>2015-09-27T21:00:37Z</time></trkpt>
<trkpt lat="25.04369" lon="101.720108">
<time>2015-09-27T21:00:38Z</time></trkpt>
<trkpt lat="25.04361" lon="101.720078">
<time>2015-09-27T21:00:39Z</time></trkpt>
<trkpt lat="25.0435" lon="101.720028">
<time>2015-09-27T21:00:40Z</time></trkpt>
<trkpt lat="25.04341" lon="101.719978">
<time>2015-09-27T21:00:41Z</time></trkpt>
<trkpt lat="25.04334" lon="101.719938">
<time>2015-09-27T21:00:42Z</time></trkpt>
<trkpt lat="25.04327" lon="101.719889">
<time>2015-09-27T21:00:43Z</time></trkpt>
<trkpt lat="25.043151" lon="101.719799">
<time>2015-09-27T21:00:44Z</time></trkpt>
<trkpt lat="25.043071" lon="101.719719">
<time>2015-09-27T21:00:45Z</time></trkpt>
<trkpt lat="25.042991" lon="101.719639">
<time>2015-09-27T21:00:46Z</time></trkpt>
<trkpt lat="25.042941" lon="101.719589">
<time>2015-09-27T21:00:47Z</time></trkpt>
<trkpt lat="25.042891" lon="101.719519">
<time>2015-09-27T21:00:48Z</time></trkpt>
<trkpt lat="25.042861" lon="101.719459">
<time>2015-09-27T21:00:49Z</time></trkpt>
<trkpt lat="25.042831" lon="101.719399">
<time>2015-09-27T21:00:50Z</time></trkpt>
<trkpt lat="25.042791" lon="101.719319">
<time>2015-09-27T21:00:51Z</time></trkpt>
<trkpt lat="25.042771" lon="101.719259">
<time>2015-09-27T21:00:52Z</time></trkpt>
<trkpt lat="25.042721" lon="101.719099">
<time>2015-09-27T21:00:53Z</time></trkpt>
<trkpt lat="25.042582" lon="101.71864">
<time>2015-09-27T21:00:54Z</time></trkpt>
<trkpt lat="25.042482" lon="101.71834">
<time>2015-09-27T21:00:55Z</time></trkpt>
<trkpt lat="25.042373" lon="101.71804">
<time>2015-09-27T21:00:56Z</time></trkpt>
<trkpt lat="25.042283" lon="101.717751">
<time>2015-09-27T21:00:57Z</time></trkpt>
<trkpt lat="25.042203" lon="101.717491">
<time>2015-09-27T21:00:58Z</time></trkpt>
<trkpt lat="25.042173" lon="101.717381">
<time>2015-09-27T21:00:59Z</time></trkpt>
<trkpt lat="25.042153" lon="101.717261">
<time>2015-09-27T21:01:00Z</time></trkpt>
<trkpt lat="25.042154" lon="101.717181">
<time>2015-09-27T21:01:01Z</time></trkpt>
<trkpt lat="25.042154" lon="101.717091">
<time>2015-09-27T21:01:02Z</time></trkpt>
<trkpt lat="25.042174" lon="101.717031">
<time>2015-09-27T21:01:03Z</time></trkpt>
<trkpt lat="25.042194" lon="101.716962">
<time>2015-09-27T21:01:04Z</time></trkpt>
<trkpt lat="25.042254" lon="101.716812">
<time>2015-09-27T21:01:05Z</time></trkpt>
<trkpt lat="25.042424" lon="101.716492">
<time>2015-09-27T21:01:06Z</time></trkpt>
<trkpt lat="25.042565" lon="101.716232">
<time>2015-09-27T21:01:07Z</time></trkpt>
<trkpt lat="25.042665" lon="101.716033">
<time>2015-09-27T21:01:08Z</time></trkpt>
<trkpt lat="25.042765" lon="101.715853">
<time>2015-09-27T21:01:09Z</time></trkpt>
<trkpt lat="25.042865" lon="101.715683">
<time>2015-09-27T21:01:10Z</time></trkpt>
<trkpt lat="25.042985" lon="101.715513">
<time>2015-09-27T21:01:11Z</time></trkpt>
<trkpt lat="25.043025" lon="101.715463">
<time>2015-09-27T21:01:12Z</time></trkpt>
<trkpt lat="25.043075" lon="101.715423">
<time>2015-09-27T21:01:13Z</time></trkpt>
<trkpt lat="25.043145" lon="101.715373">
<time>2015-09-27T21:01:14Z</time></trkpt>
<trkpt lat="25.043186" lon="101.715353">
<time>2015-09-27T21:01:15Z</time></trkpt>
<trkpt lat="25.043246" lon="101.715343">
<time>2015-09-27T21:01:16Z</time></trkpt>
<trkpt lat="25.043286" lon="101.715333">
<time>2015-09-27T21:01:17Z</time></trkpt>
<trkpt lat="25.043366" lon="101.715323">
<time>2015-09-27T21:01:18Z</time></trkpt>
<trkpt lat="25.043466" lon="101.715313">
<time>2015-09-27T21:01:19Z</time></trkpt>
<trkpt lat="25.043596" lon="101.715313">
<time>2015-09-27T21:01:20Z</time></trkpt>
<trkpt lat="25.043656" lon="101.715303">
<time>2015-09-27T21:01:21Z</time></trkpt>
<trkpt lat="25.043706" lon="101.715283">
<time>2015-09-27T21:01:22Z</time></trkpt>
<trkpt lat="25.043756" lon="101.715263">
<time>2015-09-27T21:01:23Z</time></trkpt>
<trkpt lat="25.043796" lon="101.715253">
<time>2015-09-27T21:01:24Z</time></trkpt>
<trkpt lat="25.043846" lon="101.715223">
<time>2015-09-27T21:01:25Z</time></trkpt>
<trkpt lat="25.043886" lon="101.715183">
<time>2015-09-27T21:01:26Z</time></trkpt>
<trkpt lat="25.043926" lon="101.715153">
<time>2015-09-27T21:01:27Z</time></trkpt>
<trkpt lat="25.043986" lon="101.715074">
<time>2015-09-27T21:01:28Z</time></trkpt>
<trkpt lat="25.044036" lon="101.714994">
<time>2015-09-27T21:01:29Z</time></trkpt>
<trkpt lat="25.044086" lon="101.714894">
<time>2015-09-27T21:01:30Z</time></trkpt>
<trkpt lat="25.044126" lon="101.714794">
<time>2015-09-27T21:01:31Z</time></trkpt>
<trkpt lat="25.044216" lon="101.714554">
<time>2015-09-27T21:01:32Z</time></trkpt>
<trkpt lat="25.044297" lon="101.714324">
<time>2015-09-27T21:01:33Z</time></trkpt>
<trkpt lat="25.044347" lon="101.714205">
<time>2015-09-27T21:01:34Z</time></trkpt>
<trkpt lat="25.044427" lon="101.714045">
<time>2015-09-27T21:01:35Z</time></trkpt>
<trkpt lat="25.044527" lon="101.713885">
<time>2015-09-27T21:01:36Z</time></trkpt>
<trkpt lat="25.044697" lon="101.713645">
<time>2015-09-27T21:01:37Z</time></trkpt>
<trkpt lat="25.044808" lon="101.713415">
<time>2015-09-27T21:01:38Z</time></trkpt>
<trkpt lat="25.044918" lon="101.713166">
<time>2015-09-27T21:01:39Z</time></trkpt>
<trkpt lat="25.044978" lon="101.712976">
<time>2015-09-27T21:01:40Z</time></trkpt>
<trkpt lat="25.045038" lon="101.712766">
<time>2015-09-27T21:01:41Z</time></trkpt>
<trkpt lat="25.045049" lon="101.712686">
<time>2015-09-27T21:01:42Z</time></trkpt>
<trkpt lat="25.045049" lon="101.712606">
<time>2015-09-27T21:01:43Z</time></trkpt>
<trkpt lat="25.045029" lon="101.712546">
<time>2015-09-27T21:01:44Z</time></trkpt>
<trkpt lat="25.045019" lon="101.712487">
<time>2015-09-27T21:01:45Z</time></trkpt>
<trkpt lat="25.044999" lon="101.712447">
<time>2015-09-27T21:01:46Z</time></trkpt>
<trkpt lat="25.044969" lon="101.712397">
<time>2015-09-27T21:01:47Z</time></trkpt>
<trkpt lat="25.044929" lon="101.712357">
<time>2015-09-27T21:01:48Z</time></trkpt>
<trkpt lat="25.044889" lon="101.712317">
<time>2015-09-27T21:01:49Z</time></trkpt>
<trkpt lat="25.044849" lon="101.712297">
<time>2015-09-27T21:01:50Z</time></trkpt>
<trkpt lat="25.044799" lon="101.712287">
<time>2015-09-27T21:01:51Z</time></trkpt>
<trkpt lat="25.044759" lon="101.712287">
<time>2015-09-27T21:01:52Z</time></trkpt>
<trkpt lat="25.044699" lon="101.712297">
<time>2015-09-27T21:01:53Z</time></trkpt>
<trkpt lat="25.044599" lon="101.712327">
<time>2015-09-27T21:01:54Z</time></trkpt>
<trkpt lat="25.044509" lon="101.712357">
<time>2015-09-27T21:01:55Z</time></trkpt>
<trkpt lat="25.044369" lon="101.712397">
<time>2015-09-27T21:01:56Z</time></trkpt>
<trkpt lat="25.044299" lon="101.712397">
<time>2015-09-27T21:01:57Z</time></trkpt>
<trkpt lat="25.044239" lon="101.712377">
<time>2015-09-27T21:01:58Z</time></trkpt>
<trkpt lat="25.044179" lon="101.712357">
<time>2015-09-27T21:01:59Z</time></trkpt>
<trkpt lat="25.044109" lon="101.712307">
<time>2015-09-27T21:02:00Z</time></trkpt>
<trkpt lat="25.044059" lon="101.712257">
<time>2015-09-27T21:02:01Z</time></trkpt>
<trkpt lat="25.044019" lon="101.712217">
<time>2015-09-27T21:02:02Z</time></trkpt>
<trkpt lat="25.043939" lon="101.712137">
<time>2015-09-27T21:02:03Z</time></trkpt>
<trkpt lat="25.043839" lon="101.712057">
<time>2015-09-27T21:02:04Z</time></trkpt>
<trkpt lat="25.04373" lon="101.711957">
<time>2015-09-27T21:02:05Z</time></trkpt>
<trkpt lat="25.04365" lon="101.711907">
<time>2015-09-27T21:02:06Z</time></trkpt>
<trkpt lat="25.04357" lon="101.711867">
<time>2015-09-27T21:02:07Z</time></trkpt>
<trkpt lat="25.04346" lon="101.711817">
<time>2015-09-27T21:02:08Z</time></trkpt>
<trkpt lat="25.04327" lon="101.711747">
<time>2015-09-27T21:02:09Z</time></trkpt>
<trkpt lat="25.04319" lon="101.711708">
<time>2015-09-27T21:02:10Z</time></trkpt>
<trkpt lat="25.04315" lon="101.711678">
<time>2015-09-27T21:02:11Z</time></trkpt>
<trkpt lat="25.04312" lon="101.711658">
<time>2015-09-27T21:02:12Z</time></trkpt>
<trkpt lat="25.04309" lon="101.711628">
<time>2015-09-27T21:02:13Z</time></trkpt>
<trkpt lat="25.04308" lon="101.711598">
<time>2015-09-27T21:02:14Z</time></trkpt>
<trkpt lat="25.04306" lon="101.711558">
<time>2015-09-27T21:02:15Z</time></trkpt>
<trkpt lat="25.04305" lon="101.711528">
<time>2015-09-27T21:02:16Z</time></trkpt>
<trkpt lat="25.04304" lon="101.711478">
<time>2015-09-27T21:02:17Z</time></trkpt>
<trkpt lat="25.04304" lon="101.711438">
<time>2015-09-27T21:02:18Z</time></trkpt>
<trkpt lat="25.04304" lon="101.711428">
<time>2015-09-27T21:02:19Z</time></trkpt>
<trkpt lat="25.04304" lon="101.711378">
<time>2015-09-27T21:02:20Z</time></trkpt>
<trkpt lat="25.04304" lon="101.711338">
<time>2015-09-27T21:02:21Z</time></trkpt>
<trkpt lat="25.043061" lon="101.711278">
<time>2015-09-27T21:02:22Z</time></trkpt>
<trkpt lat="25.043071" lon="101.711238">
<time>2015-09-27T21:02:23Z</time></trkpt>
<trkpt lat="25.043091" lon="101.711188">
<time>2015-09-27T21:02:24Z</time></trkpt>
<trkpt lat="25.043111" lon="101.711158">
<time>2015-09-27T21:02:25Z</time></trkpt>
<trkpt lat="25.043151" lon="101.711088">
<time>2015-09-27T21:02:26Z</time></trkpt>
<trkpt lat="25.043201" lon="101.710998">
<time>2015-09-27T21:02:27Z</time></trkpt>
<trkpt lat="25.043291" lon="101.710899">
<time>2015-09-27T21:02:28Z</time></trkpt>
<trkpt lat="25.043431" lon="101.710669">
<time>2015-09-27T21:02:29Z</time></trkpt>
<trkpt lat="25.043522" lon="101.710509">
<time>2015-09-27T21:02:30Z</time></trkpt>
<trkpt lat="25.043612" lon="101.710359">
<time>2015-09-27T21:02:31Z</time></trkpt>
<trkpt lat="25.043662" lon="101.710249">
<time>2015-09-27T21:02:32Z</time></trkpt>
<trkpt lat="25.043732" lon="101.71012">
<time>2015-09-27T21:02:33Z</time></trkpt>
<trkpt lat="25.043772" lon="101.71001">
<time>2015-09-27T21:02:34Z</time></trkpt>
<trkpt lat="25.043792" lon="101.70992">
<time>2015-09-27T21:02:35Z</time></trkpt>
<trkpt lat="25.043853" lon="101.70971">
<time>2015-09-27T21:02:36Z</time></trkpt>
<trkpt lat="25.043893" lon="101.70951">
<time>2015-09-27T21:02:37Z</time></trkpt>
<trkpt lat="25.043963" lon="101.709191">
<time>2015-09-27T21:02:38Z</time></trkpt>
<trkpt lat="25.044054" lon="101.708681">
<time>2015-09-27T21:02:39Z</time></trkpt>
<trkpt lat="25.044134" lon="101.708312">
<time>2015-09-27T21:02:40Z</time></trkpt>
<trkpt lat="25.044175" lon="101.708162">
<time>2015-09-27T21:02:41Z</time></trkpt>
<trkpt lat="25.044235" lon="101.708012">
<time>2015-09-27T21:02:42Z</time></trkpt>
<trkpt lat="25.044285" lon="101.707892">
<time>2015-09-27T21:02:43Z</time></trkpt>
<trkpt lat="25.044325" lon="101.707813">
<time>2015-09-27T21:02:44Z</time></trkpt>
<trkpt lat="25.044425" lon="101.707653">
<time>2015-09-27T21:02:45Z</time></trkpt>
<trkpt lat="25.044525" lon="101.707533">
<time>2015-09-27T21:02:46Z</time></trkpt>
<trkpt lat="25.044736" lon="101.707273">
<time>2015-09-27T21:02:47Z</time></trkpt>
<trkpt lat="25.044986" lon="101.707004">
<time>2015-09-27T21:02:48Z</time></trkpt>
<trkpt lat="25.045327" lon="101.706634">
<time>2015-09-27T21:02:49Z</time></trkpt>
<trkpt lat="25.045617" lon="101.706315">
<time>2015-09-27T21:02:50Z</time></trkpt>
<trkpt lat="25.045887" lon="101.706025">
<time>2015-09-27T21:02:51Z</time></trkpt>
<trkpt lat="25.046158" lon="101.705735">
<time>2015-09-27T21:02:52Z</time></trkpt>
<trkpt lat="25.046458" lon="101.705406">
<time>2015-09-27T21:02:53Z</time></trkpt>
<trkpt lat="25.046588" lon="101.705266">
<time>2015-09-27T21:02:54Z</time></trkpt>
<trkpt lat="25.046709" lon="101.705116">
<time>2015-09-27T21:02:55Z</time></trkpt>
<trkpt lat="25.046769" lon="101.705046">
<time>2015-09-27T21:02:56Z</time></trkpt>
<trkpt lat="25.046819" lon="101.704957">
<time>2015-09-27T21:02:57Z</time></trkpt>
<trkpt lat="25.046859" lon="101.704897">
<time>2015-09-27T21:02:58Z</time></trkpt>
<trkpt lat="25.046879" lon="101.704817">
<time>2015-09-27T21:02:59Z</time></trkpt>
<trkpt lat="25.046899" lon="101.704747">
<time>2015-09-27T21:03:00Z</time></trkpt>
<trkpt lat="25.046909" lon="101.704637">
<time>2015-09-27T21:03:01Z</time></trkpt>
<trkpt lat="25.0469" lon="101.704297">
<time>2015-09-27T21:03:02Z</time></trkpt>
<trkpt lat="25.0469" lon="101.704108">
<time>2015-09-27T21:03:03Z</time></trkpt>
<trkpt lat="25.046911" lon="101.703858">
<time>2015-09-27T21:03:04Z</time></trkpt>
<trkpt lat="25.046931" lon="101.703579">
<time>2015-09-27T21:03:05Z</time></trkpt>
<trkpt lat="25.046961" lon="101.703269">
<time>2015-09-27T21:03:06Z</time></trkpt>
<trkpt lat="25.047022" lon="101.70286">
<time>2015-09-27T21:03:07Z</time></trkpt>
<trkpt lat="25.047103" lon="101.70241">
<time>2015-09-27T21:03:08Z</time></trkpt>
<trkpt lat="25.047183" lon="101.702051">
<time>2015-09-27T21:03:09Z</time></trkpt>
<trkpt lat="25.047274" lon="101.701671">
<time>2015-09-27T21:03:10Z</time></trkpt>
<trkpt lat="25.047364" lon="101.701342">
<time>2015-09-27T21:03:11Z</time></trkpt>
<trkpt lat="25.047405" lon="101.701192">
<time>2015-09-27T21:03:12Z</time></trkpt>
<trkpt lat="25.047445" lon="101.701072">
<time>2015-09-27T21:03:13Z</time></trkpt>
<trkpt lat="25.047495" lon="101.700982">
<time>2015-09-27T21:03:14Z</time></trkpt>
<trkpt lat="25.047575" lon="101.700843">
<time>2015-09-27T21:03:15Z</time></trkpt>
<trkpt lat="25.047635" lon="101.700763">
<time>2015-09-27T21:03:16Z</time></trkpt>
<trkpt lat="25.047705" lon="101.700683">
<time>2015-09-27T21:03:17Z</time></trkpt>
<trkpt lat="25.047825" lon="101.700563">
<time>2015-09-27T21:03:18Z</time></trkpt>
<trkpt lat="25.047956" lon="101.700423">
<time>2015-09-27T21:03:19Z</time></trkpt>
<trkpt lat="25.048136" lon="101.700244">
<time>2015-09-27T21:03:20Z</time></trkpt>
<trkpt lat="25.048236" lon="101.700124">
<time>2015-09-27T21:03:21Z</time></trkpt>
<trkpt lat="25.048316" lon="101.700004">
<time>2015-09-27T21:03:22Z</time></trkpt>
<trkpt lat="25.048407" lon="101.699784">
<time>2015-09-27T21:03:23Z</time></trkpt>
<trkpt lat="25.048467" lon="101.699605">
<time>2015-09-27T21:03:24Z</time></trkpt>
<trkpt lat="25.048638" lon="101.699045">
<time>2015-09-27T21:03:25Z</time></trkpt>
<trkpt lat="25.048758" lon="101.698646">
<time>2015-09-27T21:03:26Z</time></trkpt>
<trkpt lat="25.048839" lon="101.698307">
<time>2015-09-27T21:03:27Z</time></trkpt>
<trkpt lat="25.048879" lon="101.698147">
<time>2015-09-27T21:03:28Z</time></trkpt>
<trkpt lat="25.04895" lon="101.697867">
<time>2015-09-27T21:03:29Z</time></trkpt>
<trkpt lat="25.04897" lon="101.697718">
<time>2015-09-27T21:03:30Z</time></trkpt>
<trkpt lat="25.04899" lon="101.697568">
<time>2015-09-27T21:03:31Z</time></trkpt>
<trkpt lat="25.049001" lon="101.697298">
<time>2015-09-27T21:03:32Z</time></trkpt>
<trkpt lat="25.049011" lon="101.696899">
<time>2015-09-27T21:03:33Z</time></trkpt>
<trkpt lat="25.049012" lon="101.69653">
<time>2015-09-27T21:03:34Z</time></trkpt>
<trkpt lat="25.049022" lon="101.69647">
<time>2015-09-27T21:03:35Z</time></trkpt>
<trkpt lat="25.049023" lon="101.69612">
<time>2015-09-27T21:03:36Z</time></trkpt>
<trkpt lat="25.049023" lon="101.695681">
<time>2015-09-27T21:03:37Z</time></trkpt>
<trkpt lat="25.049034" lon="101.695252">
<time>2015-09-27T21:03:38Z</time></trkpt>
<trkpt lat="25.049035" lon="101.694832">
<time>2015-09-27T21:03:39Z</time></trkpt>
<trkpt lat="25.049025" lon="101.694533">
<time>2015-09-27T21:03:40Z</time></trkpt>
<trkpt lat="25.049005" lon="101.694423">
<time>2015-09-27T21:03:41Z</time></trkpt>
<trkpt lat="25.048986" lon="101.694303">
<time>2015-09-27T21:03:42Z</time></trkpt>
<trkpt lat="25.048946" lon="101.694144">
<time>2015-09-27T21:03:43Z</time></trkpt>
<trkpt lat="25.048906" lon="101.694024">
<time>2015-09-27T21:03:44Z</time></trkpt>
<trkpt lat="25.048856" lon="101.693924">
<time>2015-09-27T21:03:45Z</time></trkpt>
<trkpt lat="25.048816" lon="101.693834">
<time>2015-09-27T21:03:46Z</time></trkpt>
<trkpt lat="25.048776" lon="101.693774">
<time>2015-09-27T21:03:47Z</time></trkpt>
<trkpt lat="25.048727" lon="101.693684">
<time>2015-09-27T21:03:48Z</time></trkpt>
<trkpt lat="25.048637" lon="101.693545">
<time>2015-09-27T21:03:49Z</time></trkpt>
<trkpt lat="25.048427" lon="101.693225">
<time>2015-09-27T21:03:50Z</time></trkpt>
<trkpt lat="25.048368" lon="101.693105">
<time>2015-09-27T21:03:51Z</time></trkpt>
<trkpt lat="25.048318" lon="101.692986">
<time>2015-09-27T21:03:52Z</time></trkpt>
<trkpt lat="25.048288" lon="101.692916">
<time>2015-09-27T21:03:53Z</time></trkpt>
<trkpt lat="25.048268" lon="101.692856">
<time>2015-09-27T21:03:54Z</time></trkpt>
<trkpt lat="25.048258" lon="101.692786">
<time>2015-09-27T21:03:55Z</time></trkpt>
<trkpt lat="25.048258" lon="101.692726">
<time>2015-09-27T21:03:56Z</time></trkpt>
<trkpt lat="25.048258" lon="101.692656">
<time>2015-09-27T21:03:57Z</time></trkpt>
<trkpt lat="25.048259" lon="101.692586">
<time>2015-09-27T21:03:58Z</time></trkpt>
<trkpt lat="25.048279" lon="101.692496">
<time>2015-09-27T21:03:59Z</time></trkpt>
<trkpt lat="25.048329" lon="101.692287">
<time>2015-09-27T21:04:00Z</time></trkpt>
<trkpt lat="25.04843" lon="101.691887">
<time>2015-09-27T21:04:01Z</time></trkpt>
<trkpt lat="25.04845" lon="101.691748">
<time>2015-09-27T21:04:02Z</time></trkpt>
<trkpt lat="25.04848" lon="101.691608">
<time>2015-09-27T21:04:03Z</time></trkpt>
<trkpt lat="25.048511" lon="101.691378">
<time>2015-09-27T21:04:04Z</time></trkpt>
<trkpt lat="25.048431" lon="101.691318">
<time>2015-09-27T21:04:05Z</time></trkpt>
<trkpt lat="25.048361" lon="101.691259">
<time>2015-09-27T21:04:06Z</time></trkpt>
<trkpt lat="25.048261" lon="101.691189">
<time>2015-09-27T21:04:07Z</time></trkpt>
<trkpt lat="25.048011" lon="101.691089">
<time>2015-09-27T21:04:08Z</time></trkpt>
<trkpt lat="25.047741" lon="101.690979">
<time>2015-09-27T21:04:09Z</time></trkpt>
<trkpt lat="25.047562" lon="101.690899">
<time>2015-09-27T21:04:10Z</time></trkpt>
<trkpt lat="25.047402" lon="101.690829">
<time>2015-09-27T21:04:11Z</time></trkpt>
<trkpt lat="25.047232" lon="101.690759">
<time>2015-09-27T21:04:12Z</time></trkpt>
<trkpt lat="25.047142" lon="101.69071">
<time>2015-09-27T21:04:13Z</time></trkpt>
<trkpt lat="25.047072" lon="101.69066">
<time>2015-09-27T21:04:14Z</time></trkpt>
<trkpt lat="25.046972" lon="101.69058">
<time>2015-09-27T21:04:15Z</time></trkpt>
<trkpt lat="25.046892" lon="101.6905">
<time>2015-09-27T21:04:16Z</time></trkpt>
<trkpt lat="25.046823" lon="101.69042">
<time>2015-09-27T21:04:17Z</time></trkpt>
<trkpt lat="25.046693" lon="101.69026">
<time>2015-09-27T21:04:18Z</time></trkpt>
<trkpt lat="25.046463" lon="101.689971">
<time>2015-09-27T21:04:19Z</time></trkpt>
<trkpt lat="25.046184" lon="101.689632">
<time>2015-09-27T21:04:20Z</time></trkpt>
<trkpt lat="25.046184" lon="101.689622">
<time>2015-09-27T21:04:21Z</time></trkpt>
<trkpt lat="25.046084" lon="101.689472">
<time>2015-09-27T21:04:22Z</time></trkpt>
<trkpt lat="25.046034" lon="101.689382">
<time>2015-09-27T21:04:23Z</time></trkpt>
<trkpt lat="25.045995" lon="101.689272">
<time>2015-09-27T21:04:24Z</time></trkpt>
<trkpt lat="25.045945" lon="101.689132">
<time>2015-09-27T21:04:25Z</time></trkpt>
<trkpt lat="25.045915" lon="101.688973">
<time>2015-09-27T21:04:26Z</time></trkpt>
<trkpt lat="25.045876" lon="101.688623">
<time>2015-09-27T21:04:27Z</time></trkpt>
<trkpt lat="25.045876" lon="101.688494">
<time>2015-09-27T21:04:28Z</time></trkpt>
<trkpt lat="25.045896" lon="101.688404">
<time>2015-09-27T21:04:29Z</time></trkpt>
<trkpt lat="25.045916" lon="101.688314">
<time>2015-09-27T21:04:30Z</time></trkpt>
<trkpt lat="25.045967" lon="101.688224">
<time>2015-09-27T21:04:31Z</time></trkpt>
<trkpt lat="25.046017" lon="101.688144">
<time>2015-09-27T21:04:32Z</time></trkpt>
<trkpt lat="25.046087" lon="101.688074">
<time>2015-09-27T21:04:33Z</time></trkpt>
<trkpt lat="25.046177" lon="101.687975">
<time>2015-09-27T21:04:34Z</time></trkpt>
<trkpt lat="25.046287" lon="101.687895">
<time>2015-09-27T21:04:35Z</time></trkpt>
<trkpt lat="25.046367" lon="101.687835">
<time>2015-09-27T21:04:36Z</time></trkpt>
<trkpt lat="25.046437" lon="101.687805">
<time>2015-09-27T21:04:37Z</time></trkpt>
<trkpt lat="25.046537" lon="101.687765">
<time>2015-09-27T21:04:38Z</time></trkpt>
<trkpt lat="25.046587" lon="101.687745">
<time>2015-09-27T21:04:39Z</time></trkpt>
<trkpt lat="25.046677" lon="101.687735">
<time>2015-09-27T21:04:40Z</time></trkpt>
<trkpt lat="25.046817" lon="101.687725">
<time>2015-09-27T21:04:41Z</time></trkpt>
<trkpt lat="25.047007" lon="101.687725">
<time>2015-09-27T21:04:42Z</time></trkpt>
<trkpt lat="25.047157" lon="101.687715">
<time>2015-09-27T21:04:43Z</time></trkpt>
<trkpt lat="25.047257" lon="101.687705">
<time>2015-09-27T21:04:44Z</time></trkpt>
<trkpt lat="25.047327" lon="101.687685">
<time>2015-09-27T21:04:45Z</time></trkpt>
<trkpt lat="25.047387" lon="101.687655">
<time>2015-09-27T21:04:46Z</time></trkpt>
<trkpt lat="25.047487" lon="101.687605">
<time>2015-09-27T21:04:47Z</time></trkpt>
<trkpt lat="25.047578" lon="101.687545">
<time>2015-09-27T21:04:48Z</time></trkpt>
<trkpt lat="25.047718" lon="101.687415">
<time>2015-09-27T21:04:49Z</time></trkpt>
<trkpt lat="25.047908" lon="101.687236">
<time>2015-09-27T21:04:50Z</time></trkpt>
<trkpt lat="25.048038" lon="101.687096">
<time>2015-09-27T21:04:51Z</time></trkpt>
<trkpt lat="25.048078" lon="101.687056">
<time>2015-09-27T21:04:52Z</time></trkpt>
<trkpt lat="25.048219" lon="101.686886">
<time>2015-09-27T21:04:53Z</time></trkpt>
<trkpt lat="25.048359" lon="101.686687">
<time>2015-09-27T21:04:54Z</time></trkpt>
<trkpt lat="25.048369" lon="101.686687">
<time>2015-09-27T21:04:55Z</time></trkpt>
<trkpt lat="25.048389" lon="101.686607">
<time>2015-09-27T21:04:56Z</time></trkpt>
<trkpt lat="25.04843" lon="101.686397">
<time>2015-09-27T21:04:57Z</time></trkpt>
<trkpt lat="25.04847" lon="101.686178">
<time>2015-09-27T21:04:58Z</time></trkpt>
<trkpt lat="25.048501" lon="101.685808">
<time>2015-09-27T21:04:59Z</time></trkpt>
<trkpt lat="25.048501" lon="101.685739">
<time>2015-09-27T21:05:00Z</time></trkpt>
<trkpt lat="25.048552" lon="101.68518">
<time>2015-09-27T21:05:01Z</time></trkpt>
<trkpt lat="25.048562" lon="101.6849">
<time>2015-09-27T21:05:02Z</time></trkpt>
<trkpt lat="25.048583" lon="101.684511">
<time>2015-09-27T21:05:03Z</time></trkpt>
<trkpt lat="25.048573" lon="101.684391">
<time>2015-09-27T21:05:04Z</time></trkpt>
<trkpt lat="25.048563" lon="101.684251">
<time>2015-09-27T21:05:05Z</time></trkpt>
<trkpt lat="25.048544" lon="101.684142">
<time>2015-09-27T21:05:06Z</time></trkpt>
<trkpt lat="25.048514" lon="101.684052">
<time>2015-09-27T21:05:07Z</time></trkpt>
<trkpt lat="25.048474" lon="101.683952">
<time>2015-09-27T21:05:08Z</time></trkpt>
<trkpt lat="25.048434" lon="101.683882">
<time>2015-09-27T21:05:09Z</time></trkpt>
<trkpt lat="25.048384" lon="101.683792">
<time>2015-09-27T21:05:10Z</time></trkpt>
<trkpt lat="25.048255" lon="101.683593">
<time>2015-09-27T21:05:11Z</time></trkpt>
<trkpt lat="25.048135" lon="101.683383">
<time>2015-09-27T21:05:12Z</time></trkpt>
<trkpt lat="25.048075" lon="101.683263">
<time>2015-09-27T21:05:13Z</time></trkpt>
<trkpt lat="25.048026" lon="101.683143">
<time>2015-09-27T21:05:14Z</time></trkpt>
<trkpt lat="25.047986" lon="101.683024">
<time>2015-09-27T21:05:15Z</time></trkpt>
<trkpt lat="25.047946" lon="101.682884">
<time>2015-09-27T21:05:16Z</time></trkpt>
<trkpt lat="25.047916" lon="101.682714">
<time>2015-09-27T21:05:17Z</time></trkpt>
<trkpt lat="25.047887" lon="101.682515">
<time>2015-09-27T21:05:18Z</time></trkpt>
<trkpt lat="25.047877" lon="101.682365">
<time>2015-09-27T21:05:19Z</time></trkpt>
<trkpt lat="25.047857" lon="101.682165">
<time>2015-09-27T21:05:20Z</time></trkpt>
<trkpt lat="25.047848" lon="101.682065">
<time>2015-09-27T21:05:21Z</time></trkpt>
<trkpt lat="25.047828" lon="101.681836">
<time>2015-09-27T21:05:22Z</time></trkpt>
<trkpt lat="25.047828" lon="101.681836">
<time>2015-09-27T21:05:23Z</time></trkpt>
<trkpt lat="25.048148" lon="101.681806">
<time>2015-09-27T21:05:24Z</time></trkpt>
<trkpt lat="25.048348" lon="101.681736">
<time>2015-09-27T21:05:25Z</time></trkpt>
<trkpt lat="25.048578" lon="101.681566">
<time>2015-09-27T21:05:26Z</time></trkpt>
<trkpt lat="25.048869" lon="101.681417">
<time>2015-09-27T21:05:27Z</time></trkpt>
<trkpt lat="25.049019" lon="101.681377">
<time>2015-09-27T21:05:28Z</time></trkpt>
<trkpt lat="25.049129" lon="101.681437">
<time>2015-09-27T21:05:29Z</time></trkpt>
<trkpt lat="25.049129" lon="101.681437">
<time>2015-09-27T21:05:30Z</time></trkpt>
<trkpt lat="25.049149" lon="101.681407">
<time>2015-09-27T21:05:31Z</time></trkpt>
<trkpt lat="25.04933" lon="101.680688">
<time>2015-09-27T21:05:32Z</time></trkpt>
<trkpt lat="25.049481" lon="101.680139">
<time>2015-09-27T21:05:33Z</time></trkpt>
<trkpt lat="25.049985" lon="101.677993">
<time>2015-09-27T21:05:34Z</time></trkpt>
<trkpt lat="25.050337" lon="101.676806">
<time>2015-09-27T21:05:35Z</time></trkpt>
<trkpt lat="25.050458" lon="101.676536">
<time>2015-09-27T21:05:36Z</time></trkpt>
<trkpt lat="25.0511" lon="101.675139">
<time>2015-09-27T21:05:37Z</time></trkpt>
<trkpt lat="25.0511" lon="101.675139">
<time>2015-09-27T21:05:38Z</time></trkpt>
<trkpt lat="25.05111" lon="101.675139">
<time>2015-09-27T21:05:39Z</time></trkpt>
<trkpt lat="25.05124" lon="101.675109">
<time>2015-09-27T21:05:40Z</time></trkpt>
<trkpt lat="25.05135" lon="101.675069">
<time>2015-09-27T21:05:41Z</time></trkpt>
<trkpt lat="25.05147" lon="101.675009">
<time>2015-09-27T21:05:42Z</time></trkpt>
<trkpt lat="25.051561" lon="101.674939">
<time>2015-09-27T21:05:43Z</time></trkpt>
<trkpt lat="25.051671" lon="101.674849">
<time>2015-09-27T21:05:44Z</time></trkpt>
<trkpt lat="25.051751" lon="101.674769">
<time>2015-09-27T21:05:45Z</time></trkpt>
<trkpt lat="25.051931" lon="101.67456">
<time>2015-09-27T21:05:46Z</time></trkpt>
<trkpt lat="25.052342" lon="101.674061">
<time>2015-09-27T21:05:47Z</time></trkpt>
<trkpt lat="25.052743" lon="101.673572">
<time>2015-09-27T21:05:48Z</time></trkpt>
<trkpt lat="25.053164" lon="101.673043">
<time>2015-09-27T21:05:49Z</time></trkpt>
<trkpt lat="25.053334" lon="101.672843">
<time>2015-09-27T21:05:50Z</time></trkpt>
<trkpt lat="25.053555" lon="101.672564">
<time>2015-09-27T21:05:51Z</time></trkpt>
<trkpt lat="25.053896" lon="101.672155">
<time>2015-09-27T21:05:52Z</time></trkpt>
<trkpt lat="25.053956" lon="101.672095">
<time>2015-09-27T21:05:53Z</time></trkpt>
<trkpt lat="25.054347" lon="101.671616">
<time>2015-09-27T21:05:54Z</time></trkpt>
<trkpt lat="25.054717" lon="101.671157">
<time>2015-09-27T21:05:55Z</time></trkpt>
<trkpt lat="25.054998" lon="101.670827">
<time>2015-09-27T21:05:56Z</time></trkpt>
<trkpt lat="25.055068" lon="101.670737">
<time>2015-09-27T21:05:57Z</time></trkpt>
<trkpt lat="25.055188" lon="101.670598">
<time>2015-09-27T21:05:58Z</time></trkpt>
<trkpt lat="25.055409" lon="101.670318">
<time>2015-09-27T21:05:59Z</time></trkpt>
<trkpt lat="25.055489" lon="101.670208">
<time>2015-09-27T21:06:00Z</time></trkpt>
<trkpt lat="25.05568" lon="101.669949">
<time>2015-09-27T21:06:01Z</time></trkpt>
<trkpt lat="25.05589" lon="101.669629">
<time>2015-09-27T21:06:02Z</time></trkpt>
<trkpt lat="25.056061" lon="101.66937">
<time>2015-09-27T21:06:03Z</time></trkpt>
<trkpt lat="25.056181" lon="101.6692">
<time>2015-09-27T21:06:04Z</time></trkpt>
<trkpt lat="25.056452" lon="101.668781">
<time>2015-09-27T21:06:05Z</time></trkpt>
<trkpt lat="25.056753" lon="101.668322">
<time>2015-09-27T21:06:06Z</time></trkpt>
<trkpt lat="25.057074" lon="101.667853">
<time>2015-09-27T21:06:07Z</time></trkpt>
<trkpt lat="25.057535" lon="101.667154">
<time>2015-09-27T21:06:08Z</time></trkpt>
<trkpt lat="25.057936" lon="101.666546">
<time>2015-09-27T21:06:09Z</time></trkpt>
<trkpt lat="25.058327" lon="101.665957">
<time>2015-09-27T21:06:10Z</time></trkpt>
<trkpt lat="25.058638" lon="101.665508">
<time>2015-09-27T21:06:11Z</time></trkpt>
<trkpt lat="25.059059" lon="101.664969">
<time>2015-09-27T21:06:12Z</time></trkpt>
<trkpt lat="25.059139" lon="101.664869">
<time>2015-09-27T21:06:13Z</time></trkpt>
<trkpt lat="25.05949" lon="101.66442">
<time>2015-09-27T21:06:14Z</time></trkpt>
<trkpt lat="25.060151" lon="101.663561">
<time>2015-09-27T21:06:15Z</time></trkpt>
<trkpt lat="25.060693" lon="101.662883">
<time>2015-09-27T21:06:16Z</time></trkpt>
<trkpt lat="25.061154" lon="101.662304">
<time>2015-09-27T21:06:17Z</time></trkpt>
<trkpt lat="25.061224" lon="101.662224">
<time>2015-09-27T21:06:18Z</time></trkpt>
<trkpt lat="25.061555" lon="101.661805">
<time>2015-09-27T21:06:19Z</time></trkpt>
<trkpt lat="25.061845" lon="101.661435">
<time>2015-09-27T21:06:20Z</time></trkpt>
<trkpt lat="25.061885" lon="101.661395">
<time>2015-09-27T21:06:21Z</time></trkpt>
<trkpt lat="25.062176" lon="101.661026">
<time>2015-09-27T21:06:22Z</time></trkpt>
<trkpt lat="25.062376" lon="101.660757">
<time>2015-09-27T21:06:23Z</time></trkpt>
<trkpt lat="25.062787" lon="101.660228">
<time>2015-09-27T21:06:24Z</time></trkpt>
<trkpt lat="25.062978" lon="101.659978">
<time>2015-09-27T21:06:25Z</time></trkpt>
<trkpt lat="25.063158" lon="101.659749">
<time>2015-09-27T21:06:26Z</time></trkpt>
<trkpt lat="25.063289" lon="101.659589">
<time>2015-09-27T21:06:27Z</time></trkpt>
<trkpt lat="25.063419" lon="101.659449">
<time>2015-09-27T21:06:28Z</time></trkpt>
<trkpt lat="25.063619" lon="101.65924">
<time>2015-09-27T21:06:29Z</time></trkpt>
<trkpt lat="25.063719" lon="101.65916">
<time>2015-09-27T21:06:30Z</time></trkpt>
<trkpt lat="25.06395" lon="101.65897">
<time>2015-09-27T21:06:31Z</time></trkpt>
<trkpt lat="25.06408" lon="101.65887">
<time>2015-09-27T21:06:32Z</time></trkpt>
<trkpt lat="25.0642" lon="101.65878">
<time>2015-09-27T21:06:33Z</time></trkpt>
<trkpt lat="25.06462" lon="101.658481">
<time>2015-09-27T21:06:34Z</time></trkpt>
<trkpt lat="25.065411" lon="101.657912">
<time>2015-09-27T21:06:35Z</time></trkpt>
<trkpt lat="25.065922" lon="101.657543">
<time>2015-09-27T21:06:36Z</time></trkpt>
<trkpt lat="25.066353" lon="101.657223">
<time>2015-09-27T21:06:37Z</time></trkpt>
<trkpt lat="25.066553" lon="101.657074">
<time>2015-09-27T21:06:38Z</time></trkpt>
<trkpt lat="25.067013" lon="101.656754">
<time>2015-09-27T21:06:39Z</time></trkpt>
<trkpt lat="25.067334" lon="101.656505">
<time>2015-09-27T21:06:40Z</time></trkpt>
<trkpt lat="25.067394" lon="101.656465">
<time>2015-09-27T21:06:41Z</time></trkpt>
<trkpt lat="25.067694" lon="101.656245">
<time>2015-09-27T21:06:42Z</time></trkpt>
<trkpt lat="25.067824" lon="101.656155">
<time>2015-09-27T21:06:43Z</time></trkpt>
<trkpt lat="25.068115" lon="101.655936">
<time>2015-09-27T21:06:44Z</time></trkpt>
<trkpt lat="25.068625" lon="101.655567">
<time>2015-09-27T21:06:45Z</time></trkpt>
<trkpt lat="25.068956" lon="101.655317">
<time>2015-09-27T21:06:46Z</time></trkpt>
<trkpt lat="25.069276" lon="101.655067">
<time>2015-09-27T21:06:47Z</time></trkpt>
<trkpt lat="25.069286" lon="101.655057">
<time>2015-09-27T21:06:48Z</time></trkpt>
<trkpt lat="25.069587" lon="101.654858">
<time>2015-09-27T21:06:49Z</time></trkpt>
<trkpt lat="25.069967" lon="101.654568">
<time>2015-09-27T21:06:50Z</time></trkpt>
<trkpt lat="25.070358" lon="101.654289">
<time>2015-09-27T21:06:51Z</time></trkpt>
<trkpt lat="25.070778" lon="101.653989">
<time>2015-09-27T21:06:52Z</time></trkpt>
<trkpt lat="25.071239" lon="101.65365">
<time>2015-09-27T21:06:53Z</time></trkpt>
<trkpt lat="25.071529" lon="101.65345">
<time>2015-09-27T21:06:54Z</time></trkpt>
<trkpt lat="25.071679" lon="101.653341">
<time>2015-09-27T21:06:55Z</time></trkpt>
<trkpt lat="25.071879" lon="101.653191">
<time>2015-09-27T21:06:56Z</time></trkpt>
<trkpt lat="25.07226" lon="101.652911">
<time>2015-09-27T21:06:57Z</time></trkpt>
<trkpt lat="25.07273" lon="101.652572">
<time>2015-09-27T21:06:58Z</time></trkpt>
<trkpt lat="25.073091" lon="101.652263">
<time>2015-09-27T21:06:59Z</time></trkpt>
<trkpt lat="25.073101" lon="101.652253">
<time>2015-09-27T21:07:00Z</time></trkpt>
<trkpt lat="25.073291" lon="101.652103">
<time>2015-09-27T21:07:01Z</time></trkpt>
<trkpt lat="25.073421" lon="101.652003">
<time>2015-09-27T21:07:02Z</time></trkpt>
<trkpt lat="25.073622" lon="101.651823">
<time>2015-09-27T21:07:03Z</time></trkpt>
<trkpt lat="25.074042" lon="101.651464">
<time>2015-09-27T21:07:04Z</time></trkpt>
<trkpt lat="25.074453" lon="101.651115">
<time>2015-09-27T21:07:05Z</time></trkpt>
<trkpt lat="25.074643" lon="101.650955">
<time>2015-09-27T21:07:06Z</time></trkpt>
<trkpt lat="25.074873" lon="101.650765">
<time>2015-09-27T21:07:07Z</time></trkpt>
<trkpt lat="25.075044" lon="101.650606">
<time>2015-09-27T21:07:08Z</time></trkpt>
<trkpt lat="25.075164" lon="101.650476">
<time>2015-09-27T21:07:09Z</time></trkpt>
<trkpt lat="25.075254" lon="101.650386">
<time>2015-09-27T21:07:10Z</time></trkpt>
<trkpt lat="25.075304" lon="101.650306">
<time>2015-09-27T21:07:11Z</time></trkpt>
<trkpt lat="25.075374" lon="101.650206">
<time>2015-09-27T21:07:12Z</time></trkpt>
<trkpt lat="25.075444" lon="101.650087">
<time>2015-09-27T21:07:13Z</time></trkpt>
<trkpt lat="25.075485" lon="101.649987">
<time>2015-09-27T21:07:14Z</time></trkpt>
<trkpt lat="25.075505" lon="101.649897">
<time>2015-09-27T21:07:15Z</time></trkpt>
<trkpt lat="25.075525" lon="101.649857">
<time>2015-09-27T21:07:16Z</time></trkpt>
<trkpt lat="25.075545" lon="101.649717">
<time>2015-09-27T21:07:17Z</time></trkpt>
<trkpt lat="25.075555" lon="101.649567">
<time>2015-09-27T21:07:18Z</time></trkpt>
<trkpt lat="25.075566" lon="101.649418">
<time>2015-09-27T21:07:19Z</time></trkpt>
<trkpt lat="25.075587" lon="101.648879">
<time>2015-09-27T21:07:20Z</time></trkpt>
<trkpt lat="25.075607" lon="101.64835">
<time>2015-09-27T21:07:21Z</time></trkpt>
<trkpt lat="25.075628" lon="101.647841">
<time>2015-09-27T21:07:22Z</time></trkpt>
<trkpt lat="25.075639" lon="101.647292">
<time>2015-09-27T21:07:23Z</time></trkpt>
<trkpt lat="25.07565" lon="101.647032">
<time>2015-09-27T21:07:24Z</time></trkpt>
<trkpt lat="25.07566" lon="101.646792">
<time>2015-09-27T21:07:25Z</time></trkpt>
<trkpt lat="25.075681" lon="101.646273">
<time>2015-09-27T21:07:26Z</time></trkpt>
<trkpt lat="25.075702" lon="101.645764">
<time>2015-09-27T21:07:27Z</time></trkpt>
<trkpt lat="25.075713" lon="101.645255">
<time>2015-09-27T21:07:28Z</time></trkpt>
<trkpt lat="25.075723" lon="101.645035">
<time>2015-09-27T21:07:29Z</time></trkpt>
<trkpt lat="25.075724" lon="101.644756">
<time>2015-09-27T21:07:30Z</time></trkpt>
<trkpt lat="25.075744" lon="101.644277">
<time>2015-09-27T21:07:31Z</time></trkpt>
<trkpt lat="25.075755" lon="101.644017">
<time>2015-09-27T21:07:32Z</time></trkpt>
<trkpt lat="25.075765" lon="101.643728">
<time>2015-09-27T21:07:33Z</time></trkpt>
<trkpt lat="25.075785" lon="101.643568">
<time>2015-09-27T21:07:34Z</time></trkpt>
<trkpt lat="25.075806" lon="101.643438">
<time>2015-09-27T21:07:35Z</time></trkpt>
<trkpt lat="25.075846" lon="101.643239">
<time>2015-09-27T21:07:36Z</time></trkpt>
<trkpt lat="25.075886" lon="101.643079">
<time>2015-09-27T21:07:37Z</time></trkpt>
<trkpt lat="25.075926" lon="101.642959">
<time>2015-09-27T21:07:38Z</time></trkpt>
<trkpt lat="25.075947" lon="101.642879">
<time>2015-09-27T21:07:39Z</time></trkpt>
<trkpt lat="25.076007" lon="101.642689">
<time>2015-09-27T21:07:40Z</time></trkpt>
<trkpt lat="25.076137" lon="101.64233">
<time>2015-09-27T21:07:41Z</time></trkpt>
<trkpt lat="25.076338" lon="101.641711">
<time>2015-09-27T21:07:42Z</time></trkpt>
<trkpt lat="25.076489" lon="101.641302">
<time>2015-09-27T21:07:43Z</time></trkpt>
<trkpt lat="25.076569" lon="101.641062">
<time>2015-09-27T21:07:44Z</time></trkpt>
<trkpt lat="25.07665" lon="101.640852">
<time>2015-09-27T21:07:45Z</time></trkpt>
<trkpt lat="25.07675" lon="101.640583">
<time>2015-09-27T21:07:46Z</time></trkpt>
<trkpt lat="25.07685" lon="101.640363">
<time>2015-09-27T21:07:47Z</time></trkpt>
<trkpt lat="25.076851" lon="101.640353">
<time>2015-09-27T21:07:48Z</time></trkpt>
<trkpt lat="25.076941" lon="101.640164">
<time>2015-09-27T21:07:49Z</time></trkpt>
<trkpt lat="25.077041" lon="101.640014">
<time>2015-09-27T21:07:50Z</time></trkpt>
<trkpt lat="25.077171" lon="101.639834">
<time>2015-09-27T21:07:51Z</time></trkpt>
<trkpt lat="25.077302" lon="101.639644">
<time>2015-09-27T21:07:52Z</time></trkpt>
<trkpt lat="25.077692" lon="101.639145">
<time>2015-09-27T21:07:53Z</time></trkpt>
<trkpt lat="25.078173" lon="101.638516">
<time>2015-09-27T21:07:54Z</time></trkpt>
<trkpt lat="25.078434" lon="101.638197">
<time>2015-09-27T21:07:55Z</time></trkpt>
<trkpt lat="25.078614" lon="101.637967">
<time>2015-09-27T21:07:56Z</time></trkpt>
<trkpt lat="25.078925" lon="101.637558">
<time>2015-09-27T21:07:57Z</time></trkpt>
<trkpt lat="25.079085" lon="101.637318">
<time>2015-09-27T21:07:58Z</time></trkpt>
<trkpt lat="25.079175" lon="101.637168">
<time>2015-09-27T21:07:59Z</time></trkpt>
<trkpt lat="25.079305" lon="101.636959">
<time>2015-09-27T21:08:00Z</time></trkpt>
<trkpt lat="25.079496" lon="101.636599">
<time>2015-09-27T21:08:01Z</time></trkpt>
<trkpt lat="25.079646" lon="101.636339">
<time>2015-09-27T21:08:02Z</time></trkpt>
<trkpt lat="25.079847" lon="101.63596">
<time>2015-09-27T21:08:03Z</time></trkpt>
<trkpt lat="25.080007" lon="101.635641">
<time>2015-09-27T21:08:04Z</time></trkpt>
<trkpt lat="25.080087" lon="101.635501">
<time>2015-09-27T21:08:05Z</time></trkpt>
<trkpt lat="25.080148" lon="101.635361">
<time>2015-09-27T21:08:06Z</time></trkpt>
<trkpt lat="25.080208" lon="101.635201">
<time>2015-09-27T21:08:07Z</time></trkpt>
<trkpt lat="25.080228" lon="101.635091">
<time>2015-09-27T21:08:08Z</time></trkpt>
<trkpt lat="25.080248" lon="101.635001">
<time>2015-09-27T21:08:09Z</time></trkpt>
<trkpt lat="25.080268" lon="101.634872">
<time>2015-09-27T21:08:10Z</time></trkpt>
<trkpt lat="25.080268" lon="101.634762">
<time>2015-09-27T21:08:11Z</time></trkpt>
<trkpt lat="25.080279" lon="101.634572">
<time>2015-09-27T21:08:12Z</time></trkpt>
<trkpt lat="25.080279" lon="101.634233">
<time>2015-09-27T21:08:13Z</time></trkpt>
<trkpt lat="25.080279" lon="101.634113">
<time>2015-09-27T21:08:14Z</time></trkpt>
<trkpt lat="25.08027" lon="101.633504">
<time>2015-09-27T21:08:15Z</time></trkpt>
<trkpt lat="25.080271" lon="101.633044">
<time>2015-09-27T21:08:16Z</time></trkpt>
<trkpt lat="25.080271" lon="101.632885">
<time>2015-09-27T21:08:17Z</time></trkpt>
<trkpt lat="25.080262" lon="101.632285">
<time>2015-09-27T21:08:18Z</time></trkpt>
<trkpt lat="25.080233" lon="101.631676">
<time>2015-09-27T21:08:19Z</time></trkpt>
<trkpt lat="25.080243" lon="101.631656">
<time>2015-09-27T21:08:20Z</time></trkpt>
<trkpt lat="25.080253" lon="101.631287">
<time>2015-09-27T21:08:21Z</time></trkpt>
<trkpt lat="25.080254" lon="101.631087">
<time>2015-09-27T21:08:22Z</time></trkpt>
<trkpt lat="25.080264" lon="101.630977">
<time>2015-09-27T21:08:23Z</time></trkpt>
<trkpt lat="25.080294" lon="101.630857">
<time>2015-09-27T21:08:24Z</time></trkpt>
<trkpt lat="25.080324" lon="101.630767">
<time>2015-09-27T21:08:25Z</time></trkpt>
<trkpt lat="25.080394" lon="101.630598">
<time>2015-09-27T21:08:26Z</time></trkpt>
<trkpt lat="25.080745" lon="101.629899">
<time>2015-09-27T21:08:27Z</time></trkpt>
<trkpt lat="25.080815" lon="101.629749">
<time>2015-09-27T21:08:28Z</time></trkpt>
<trkpt lat="25.081086" lon="101.629209">
<time>2015-09-27T21:08:29Z</time></trkpt>
<trkpt lat="25.081156" lon="101.62908">
<time>2015-09-27T21:08:30Z</time></trkpt>
<trkpt lat="25.081226" lon="101.62892">
<time>2015-09-27T21:08:31Z</time></trkpt>
<trkpt lat="25.081477" lon="101.628381">
<time>2015-09-27T21:08:32Z</time></trkpt>
<trkpt lat="25.081768" lon="101.627771">
<time>2015-09-27T21:08:33Z</time></trkpt>
<trkpt lat="25.081868" lon="101.627522">
<time>2015-09-27T21:08:34Z</time></trkpt>
<trkpt lat="25.081978" lon="101.627202">
<time>2015-09-27T21:08:35Z</time></trkpt>
<trkpt lat="25.081998" lon="101.627132">
<time>2015-09-27T21:08:36Z</time></trkpt>
<trkpt lat="25.082099" lon="101.626803">
<time>2015-09-27T21:08:37Z</time></trkpt>
<trkpt lat="25.082149" lon="101.626583">
<time>2015-09-27T21:08:38Z</time></trkpt>
<trkpt lat="25.082179" lon="101.626443">
<time>2015-09-27T21:08:39Z</time></trkpt>
<trkpt lat="25.082179" lon="101.626313">
<time>2015-09-27T21:08:40Z</time></trkpt>
<trkpt lat="25.082179" lon="101.626213">
<time>2015-09-27T21:08:41Z</time></trkpt>
<trkpt lat="25.082159" lon="101.626123">
<time>2015-09-27T21:08:42Z</time></trkpt>
<trkpt lat="25.08212" lon="101.626023">
<time>2015-09-27T21:08:43Z</time></trkpt>
<trkpt lat="25.08208" lon="101.625924">
<time>2015-09-27T21:08:44Z</time></trkpt>
<trkpt lat="25.08202" lon="101.625804">
<time>2015-09-27T21:08:45Z</time></trkpt>
<trkpt lat="25.08191" lon="101.625654">
<time>2015-09-27T21:08:46Z</time></trkpt>
<trkpt lat="25.0819" lon="101.625634">
<time>2015-09-27T21:08:47Z</time></trkpt>
<trkpt lat="25.0817" lon="101.625354">
<time>2015-09-27T21:08:48Z</time></trkpt>
<trkpt lat="25.081451" lon="101.625015">
<time>2015-09-27T21:08:49Z</time></trkpt>
<trkpt lat="25.081361" lon="101.624955">
<time>2015-09-27T21:08:50Z</time></trkpt>
<trkpt lat="25.081321" lon="101.624915">
<time>2015-09-27T21:08:51Z</time></trkpt>
<trkpt lat="25.081241" lon="101.624845">
<time>2015-09-27T21:08:52Z</time></trkpt>
<trkpt lat="25.081201" lon="101.624815">
<time>2015-09-27T21:08:53Z</time></trkpt>
<trkpt lat="25.081141" lon="101.624785">
<time>2015-09-27T21:08:54Z</time></trkpt>
<trkpt lat="25.081091" lon="101.624745">
<time>2015-09-27T21:08:55Z</time></trkpt>
<trkpt lat="25.081031" lon="101.624725">
<time>2015-09-27T21:08:56Z</time></trkpt>
<trkpt lat="25.080931" lon="101.624695">
<time>2015-09-27T21:08:57Z</time></trkpt>
<trkpt lat="25.080801" lon="101.624665">
<time>2015-09-27T21:08:58Z</time></trkpt>
<trkpt lat="25.080641" lon="101.624645">
<time>2015-09-27T21:08:59Z</time></trkpt>
<trkpt lat="25.080451" lon="101.624615">
<time>2015-09-27T21:09:00Z</time></trkpt>
<trkpt lat="25.080351" lon="101.624615">
<time>2015-09-27T21:09:01Z</time></trkpt>
<trkpt lat="25.080251" lon="101.624615">
<time>2015-09-27T21:09:02Z</time></trkpt>
<trkpt lat="25.080181" lon="101.624625">
<time>2015-09-27T21:09:03Z</time></trkpt>
<trkpt lat="25.080101" lon="101.624645">
<time>2015-09-27T21:09:04Z</time></trkpt>
<trkpt lat="25.080021" lon="101.624685">
<time>2015-09-27T21:09:05Z</time></trkpt>
<trkpt lat="25.079951" lon="101.624725">
<time>2015-09-27T21:09:06Z</time></trkpt>
<trkpt lat="25.079831" lon="101.624825">
<time>2015-09-27T21:09:07Z</time></trkpt>
<trkpt lat="25.079641" lon="101.625015">
<time>2015-09-27T21:09:08Z</time></trkpt>
<trkpt lat="25.079441" lon="101.625254">
<time>2015-09-27T21:09:09Z</time></trkpt>
<trkpt lat="25.079341" lon="101.625354">
<time>2015-09-27T21:09:10Z</time></trkpt>
<trkpt lat="25.079271" lon="101.625404">
<time>2015-09-27T21:09:11Z</time></trkpt>
<trkpt lat="25.079191" lon="101.625444">
<time>2015-09-27T21:09:12Z</time></trkpt>
<trkpt lat="25.079151" lon="101.625454">
<time>2015-09-27T21:09:13Z</time></trkpt>
<trkpt lat="25.079111" lon="101.625454">
<time>2015-09-27T21:09:14Z</time></trkpt>
<trkpt lat="25.079071" lon="101.625454">
<time>2015-09-27T21:09:15Z</time></trkpt>
<trkpt lat="25.079031" lon="101.625454">
<time>2015-09-27T21:09:16Z</time></trkpt>
<trkpt lat="25.079011" lon="101.625454">
<time>2015-09-27T21:09:17Z</time></trkpt>
<trkpt lat="25.078971" lon="101.625444">
<time>2015-09-27T21:09:18Z</time></trkpt>
<trkpt lat="25.078911" lon="101.625424">
<time>2015-09-27T21:09:19Z</time></trkpt>
<trkpt lat="25.078851" lon="101.625384">
<time>2015-09-27T21:09:20Z</time></trkpt>
<trkpt lat="25.078711" lon="101.625304">
<time>2015-09-27T21:09:21Z</time></trkpt>
<trkpt lat="25.078561" lon="101.625205">
<time>2015-09-27T21:09:22Z</time></trkpt>
<trkpt lat="25.078471" lon="101.625135">
<time>2015-09-27T21:09:23Z</time></trkpt>
<trkpt lat="25.078391" lon="101.625075">
<time>2015-09-27T21:09:24Z</time></trkpt>
<trkpt lat="25.078331" lon="101.625015">
<time>2015-09-27T21:09:25Z</time></trkpt>
<trkpt lat="25.078321" lon="101.624995">
<time>2015-09-27T21:09:26Z</time></trkpt>
<trkpt lat="25.078321" lon="101.624985">
<time>2015-09-27T21:09:27Z</time></trkpt>
<trkpt lat="25.078301" lon="101.624955">
<time>2015-09-27T21:09:28Z</time></trkpt>
<trkpt lat="25.078291" lon="101.624935">
<time>2015-09-27T21:09:29Z</time></trkpt>
<trkpt lat="25.078281" lon="101.624905">
<time>2015-09-27T21:09:30Z</time></trkpt>
<trkpt lat="25.078271" lon="101.624875">
<time>2015-09-27T21:09:31Z</time></trkpt>
<trkpt lat="25.078271" lon="101.624855">
<time>2015-09-27T21:09:32Z</time></trkpt>
<trkpt lat="25.078261" lon="101.624825">
<time>2015-09-27T21:09:33Z</time></trkpt>
<trkpt lat="25.078261" lon="101.624775">
<time>2015-09-27T21:09:34Z</time></trkpt>
<trkpt lat="25.078261" lon="101.624755">
<time>2015-09-27T21:09:35Z</time></trkpt>
<trkpt lat="25.078261" lon="101.624725">
<time>2015-09-27T21:09:36Z</time></trkpt>
<trkpt lat="25.078282" lon="101.624665">
<time>2015-09-27T21:09:37Z</time></trkpt>
<trkpt lat="25.078292" lon="101.624615">
<time>2015-09-27T21:09:38Z</time></trkpt>
<trkpt lat="25.078322" lon="101.624565">
<time>2015-09-27T21:09:39Z</time></trkpt>
<trkpt lat="25.078372" lon="101.624505">
<time>2015-09-27T21:09:40Z</time></trkpt>
<trkpt lat="25.078422" lon="101.624445">
<time>2015-09-27T21:09:41Z</time></trkpt>
<trkpt lat="25.078472" lon="101.624395">
<time>2015-09-27T21:09:42Z</time></trkpt>
<trkpt lat="25.078592" lon="101.624296">
<time>2015-09-27T21:09:43Z</time></trkpt>
<trkpt lat="25.078662" lon="101.624216">
<time>2015-09-27T21:09:44Z</time></trkpt>
<trkpt lat="25.078732" lon="101.624126">
<time>2015-09-27T21:09:45Z</time></trkpt>
<trkpt lat="25.078832" lon="101.624006">
<time>2015-09-27T21:09:46Z</time></trkpt>
<trkpt lat="25.079002" lon="101.623746">
<time>2015-09-27T21:09:47Z</time></trkpt>
<trkpt lat="25.079513" lon="101.622977">
<time>2015-09-27T21:09:48Z</time></trkpt>
<trkpt lat="25.079864" lon="101.622448">
<time>2015-09-27T21:09:49Z</time></trkpt>
<trkpt lat="25.080234" lon="101.621888">
<time>2015-09-27T21:09:50Z</time></trkpt>
<trkpt lat="25.080515" lon="101.621459">
<time>2015-09-27T21:09:51Z</time></trkpt>
<trkpt lat="25.080705" lon="101.621169">
<time>2015-09-27T21:09:52Z</time></trkpt>
<trkpt lat="25.080795" lon="101.621009">
<time>2015-09-27T21:09:53Z</time></trkpt>
<trkpt lat="25.080865" lon="101.620869">
<time>2015-09-27T21:09:54Z</time></trkpt>
<trkpt lat="25.080905" lon="101.620759">
<time>2015-09-27T21:09:55Z</time></trkpt>
<trkpt lat="25.080936" lon="101.620619">
<time>2015-09-27T21:09:56Z</time></trkpt>
<trkpt lat="25.080956" lon="101.6205">
<time>2015-09-27T21:09:57Z</time></trkpt>
<trkpt lat="25.080956" lon="101.62033">
<time>2015-09-27T21:09:58Z</time></trkpt>
<trkpt lat="25.080956" lon="101.62016">
<time>2015-09-27T21:09:59Z</time></trkpt>
<trkpt lat="25.080946" lon="101.62">
<time>2015-09-27T21:10:00Z</time></trkpt>
<trkpt lat="25.080936" lon="101.61962">
<time>2015-09-27T21:10:01Z</time></trkpt>
<trkpt lat="25.080917" lon="101.619171">
<time>2015-09-27T21:10:02Z</time></trkpt>
<trkpt lat="25.080927" lon="101.618751">
<time>2015-09-27T21:10:03Z</time></trkpt>
<trkpt lat="25.080927" lon="101.618621">
<time>2015-09-27T21:10:04Z</time></trkpt>
<trkpt lat="25.080938" lon="101.618402">
<time>2015-09-27T21:10:05Z</time></trkpt>
<trkpt lat="25.080948" lon="101.618232">
<time>2015-09-27T21:10:06Z</time></trkpt>
<trkpt lat="25.080948" lon="101.618142">
<time>2015-09-27T21:10:07Z</time></trkpt>
<trkpt lat="25.080958" lon="101.617932">
<time>2015-09-27T21:10:08Z</time></trkpt>
<trkpt lat="25.080988" lon="101.617692">
<time>2015-09-27T21:10:09Z</time></trkpt>
<trkpt lat="25.080978" lon="101.617442">
<time>2015-09-27T21:10:10Z</time></trkpt>
<trkpt lat="25.080959" lon="101.617183">
<time>2015-09-27T21:10:11Z</time></trkpt>
<trkpt lat="25.080879" lon="101.616383">
<time>2015-09-27T21:10:12Z</time></trkpt>
<trkpt lat="25.08082" lon="101.615834">
<time>2015-09-27T21:10:13Z</time></trkpt>
<trkpt lat="25.08076" lon="101.615294">
<time>2015-09-27T21:10:14Z</time></trkpt>
<trkpt lat="25.08072" lon="101.615074">
<time>2015-09-27T21:10:15Z</time></trkpt>
<trkpt lat="25.080671" lon="101.614865">
<time>2015-09-27T21:10:16Z</time></trkpt>
<trkpt lat="25.080601" lon="101.614615">
<time>2015-09-27T21:10:17Z</time></trkpt>
<trkpt lat="25.080511" lon="101.614375">
<time>2015-09-27T21:10:18Z</time></trkpt>
<trkpt lat="25.080371" lon="101.614015">
<time>2015-09-27T21:10:19Z</time></trkpt>
<trkpt lat="25.080301" lon="101.613865">
<time>2015-09-27T21:10:20Z</time></trkpt>
<trkpt lat="25.080231" lon="101.613725">
<time>2015-09-27T21:10:21Z</time></trkpt>
<trkpt lat="25.080191" lon="101.613656">
<time>2015-09-27T21:10:22Z</time></trkpt>
<trkpt lat="25.080132" lon="101.613576">
<time>2015-09-27T21:10:23Z</time></trkpt>
<trkpt lat="25.080012" lon="101.613416">
<time>2015-09-27T21:10:24Z</time></trkpt>
<trkpt lat="25.079852" lon="101.613246">
<time>2015-09-27T21:10:25Z</time></trkpt>
<trkpt lat="25.079732" lon="101.613146">
<time>2015-09-27T21:10:26Z</time></trkpt>
<trkpt lat="25.079652" lon="101.613076">
<time>2015-09-27T21:10:27Z</time></trkpt>
<trkpt lat="25.079532" lon="101.613006">
<time>2015-09-27T21:10:28Z</time></trkpt>
<trkpt lat="25.079392" lon="101.612936">
<time>2015-09-27T21:10:29Z</time></trkpt>
<trkpt lat="25.079262" lon="101.612876">
<time>2015-09-27T21:10:30Z</time></trkpt>
<trkpt lat="25.078812" lon="101.612696">
<time>2015-09-27T21:10:31Z</time></trkpt>
<trkpt lat="25.078512" lon="101.612566">
<time>2015-09-27T21:10:32Z</time></trkpt>
<trkpt lat="25.078312" lon="101.612476">
<time>2015-09-27T21:10:33Z</time></trkpt>
<trkpt lat="25.078143" lon="101.612396">
<time>2015-09-27T21:10:34Z</time></trkpt>
<trkpt lat="25.078073" lon="101.612356">
<time>2015-09-27T21:10:35Z</time></trkpt>
<trkpt lat="25.078013" lon="101.612307">
<time>2015-09-27T21:10:36Z</time></trkpt>
<trkpt lat="25.077953" lon="101.612257">
<time>2015-09-27T21:10:37Z</time></trkpt>
<trkpt lat="25.077903" lon="101.612197">
<time>2015-09-27T21:10:38Z</time></trkpt>
<trkpt lat="25.077843" lon="101.612127">
<time>2015-09-27T21:10:39Z</time></trkpt>
<trkpt lat="25.077793" lon="101.612037">
<time>2015-09-27T21:10:40Z</time></trkpt>
<trkpt lat="25.077703" lon="101.611877">
<time>2015-09-27T21:10:41Z</time></trkpt>
<trkpt lat="25.077633" lon="101.611697">
<time>2015-09-27T21:10:42Z</time></trkpt>
<trkpt lat="25.077543" lon="101.611457">
<time>2015-09-27T21:10:43Z</time></trkpt>
<trkpt lat="25.077453" lon="101.611217">
<time>2015-09-27T21:10:44Z</time></trkpt>
<trkpt lat="25.077364" lon="101.611007">
<time>2015-09-27T21:10:45Z</time></trkpt>
<trkpt lat="25.077234" lon="101.610758">
<time>2015-09-27T21:10:46Z</time></trkpt>
<trkpt lat="25.077054" lon="101.610388">
<time>2015-09-27T21:10:47Z</time></trkpt>
<trkpt lat="25.076824" lon="101.609968">
<time>2015-09-27T21:10:48Z</time></trkpt>
<trkpt lat="25.076714" lon="101.609728">
<time>2015-09-27T21:10:49Z</time></trkpt>
<trkpt lat="25.076624" lon="101.609528">
<time>2015-09-27T21:10:50Z</time></trkpt>
<trkpt lat="25.076605" lon="101.609448">
<time>2015-09-27T21:10:51Z</time></trkpt>
<trkpt lat="25.076585" lon="101.609368">
<time>2015-09-27T21:10:52Z</time></trkpt>
<trkpt lat="25.076575" lon="101.609218">
<time>2015-09-27T21:10:53Z</time></trkpt>
<trkpt lat="25.076575" lon="101.609069">
<time>2015-09-27T21:10:54Z</time></trkpt>
<trkpt lat="25.076585" lon="101.608859">
<time>2015-09-27T21:10:55Z</time></trkpt>
<trkpt lat="25.076625" lon="101.608469">
<time>2015-09-27T21:10:56Z</time></trkpt>
<trkpt lat="25.076655" lon="101.608269">
<time>2015-09-27T21:10:57Z</time></trkpt>
<trkpt lat="25.076735" lon="101.607859">
<time>2015-09-27T21:10:58Z</time></trkpt>
<trkpt lat="25.076785" lon="101.607609">
<time>2015-09-27T21:10:59Z</time></trkpt>
<trkpt lat="25.076816" lon="101.607439">
<time>2015-09-27T21:11:00Z</time></trkpt>
<trkpt lat="25.076836" lon="101.607249">
<time>2015-09-27T21:11:01Z</time></trkpt>
<trkpt lat="25.076856" lon="101.607039">
<time>2015-09-27T21:11:02Z</time></trkpt>
<trkpt lat="25.076856" lon="101.60687">
<time>2015-09-27T21:11:03Z</time></trkpt>
<trkpt lat="25.076856" lon="101.60665">
<time>2015-09-27T21:11:04Z</time></trkpt>
<trkpt lat="25.076816" lon="101.60631">
<time>2015-09-27T21:11:05Z</time></trkpt>
<trkpt lat="25.076756" lon="101.60597">
<time>2015-09-27T21:11:06Z</time></trkpt>
<trkpt lat="25.076666" lon="101.60558">
<time>2015-09-27T21:11:07Z</time></trkpt>
<trkpt lat="25.076557" lon="101.60519">
<time>2015-09-27T21:11:08Z</time></trkpt>
<trkpt lat="25.076507" lon="101.60498">
<time>2015-09-27T21:11:09Z</time></trkpt>
<trkpt lat="25.076467" lon="101.60483">
<time>2015-09-27T21:11:10Z</time></trkpt>
<trkpt lat="25.076387" lon="101.60459">
<time>2015-09-27T21:11:11Z</time></trkpt>
<trkpt lat="25.076327" lon="101.604441">
<time>2015-09-27T21:11:12Z</time></trkpt>
<trkpt lat="25.076187" lon="101.604131">
<time>2015-09-27T21:11:13Z</time></trkpt>
<trkpt lat="25.076027" lon="101.603811">
<time>2015-09-27T21:11:14Z</time></trkpt>
<trkpt lat="25.075847" lon="101.603481">
<time>2015-09-27T21:11:15Z</time></trkpt>
<trkpt lat="25.075557" lon="101.602951">
<time>2015-09-27T21:11:16Z</time></trkpt>
<trkpt lat="25.075188" lon="101.602271">
<time>2015-09-27T21:11:17Z</time></trkpt>
<trkpt lat="25.074818" lon="101.601561">
<time>2015-09-27T21:11:18Z</time></trkpt>
<trkpt lat="25.074498" lon="101.600971">
<time>2015-09-27T21:11:19Z</time></trkpt>
<trkpt lat="25.074188" lon="101.600402">
<time>2015-09-27T21:11:20Z</time></trkpt>
<trkpt lat="25.073948" lon="101.599952">
<time>2015-09-27T21:11:21Z</time></trkpt>
<trkpt lat="25.073758" lon="101.599592">
<time>2015-09-27T21:11:22Z</time></trkpt>
<trkpt lat="25.073638" lon="101.599342">
<time>2015-09-27T21:11:23Z</time></trkpt>
<trkpt lat="25.073548" lon="101.599142">
<time>2015-09-27T21:11:24Z</time></trkpt>
<trkpt lat="25.073428" lon="101.598822">
<time>2015-09-27T21:11:25Z</time></trkpt>
<trkpt lat="25.073268" lon="101.598372">
<time>2015-09-27T21:11:26Z</time></trkpt>
<trkpt lat="25.073198" lon="101.598212">
<time>2015-09-27T21:11:27Z</time></trkpt>
<trkpt lat="25.073128" lon="101.598052">
<time>2015-09-27T21:11:28Z</time></trkpt>
<trkpt lat="25.073068" lon="101.597952">
<time>2015-09-27T21:11:29Z</time></trkpt>
<trkpt lat="25.072988" lon="101.597822">
<time>2015-09-27T21:11:30Z</time></trkpt>
<trkpt lat="25.072829" lon="101.597612">
<time>2015-09-27T21:11:31Z</time></trkpt>
<trkpt lat="25.072719" lon="101.597492">
<time>2015-09-27T21:11:32Z</time></trkpt>
<trkpt lat="25.072619" lon="101.597382">
<time>2015-09-27T21:11:33Z</time></trkpt>
<trkpt lat="25.072489" lon="101.597252">
<time>2015-09-27T21:11:34Z</time></trkpt>
<trkpt lat="25.072359" lon="101.597132">
<time>2015-09-27T21:11:35Z</time></trkpt>
<trkpt lat="25.072249" lon="101.597062">
<time>2015-09-27T21:11:36Z</time></trkpt>
<trkpt lat="25.072119" lon="101.596992">
<time>2015-09-27T21:11:37Z</time></trkpt>
<trkpt lat="25.071999" lon="101.596942">
<time>2015-09-27T21:11:38Z</time></trkpt>
<trkpt lat="25.071819" lon="101.596882">
<time>2015-09-27T21:11:39Z</time></trkpt>
<trkpt lat="25.071509" lon="101.596792">
<time>2015-09-27T21:11:40Z</time></trkpt>
<trkpt lat="25.070849" lon="101.596612">
<time>2015-09-27T21:11:41Z</time></trkpt>
<trkpt lat="25.070239" lon="101.596462">
<time>2015-09-27T21:11:42Z</time></trkpt>
<trkpt lat="25.069789" lon="101.596322">
<time>2015-09-27T21:11:43Z</time></trkpt>
<trkpt lat="25.069669" lon="101.596272">
<time>2015-09-27T21:11:44Z</time></trkpt>
<trkpt lat="25.069549" lon="101.596212">
<time>2015-09-27T21:11:45Z</time></trkpt>
<trkpt lat="25.069439" lon="101.596132">
<time>2015-09-27T21:11:46Z</time></trkpt>
<trkpt lat="25.069329" lon="101.596042">
<time>2015-09-27T21:11:47Z</time></trkpt>
<trkpt lat="25.069249" lon="101.595952">
<time>2015-09-27T21:11:48Z</time></trkpt>
<trkpt lat="25.069169" lon="101.595842">
<time>2015-09-27T21:11:49Z</time></trkpt>
<trkpt lat="25.069079" lon="101.595692">
<time>2015-09-27T21:11:50Z</time></trkpt>
<trkpt lat="25.068929" lon="101.595362">
<time>2015-09-27T21:11:51Z</time></trkpt>
<trkpt lat="25.068459" lon="101.594282">
<time>2015-09-27T21:11:52Z</time></trkpt>
<trkpt lat="25.068229" lon="101.593742">
<time>2015-09-27T21:11:53Z</time></trkpt>
<trkpt lat="25.067989" lon="101.593192">
<time>2015-09-27T21:11:54Z</time></trkpt>
<trkpt lat="25.067809" lon="101.592822">
<time>2015-09-27T21:11:55Z</time></trkpt>
<trkpt lat="25.067729" lon="101.592651">
<time>2015-09-27T21:11:56Z</time></trkpt>
<trkpt lat="25.067499" lon="101.592271">
<time>2015-09-27T21:11:57Z</time></trkpt>
<trkpt lat="25.067249" lon="101.591861">
<time>2015-09-27T21:11:58Z</time></trkpt>
<trkpt lat="25.066859" lon="101.591251">
<time>2015-09-27T21:11:59Z</time></trkpt>
<trkpt lat="25.066428" lon="101.590581">
<time>2015-09-27T21:12:00Z</time></trkpt>
<trkpt lat="25.066008" lon="101.589911">
<time>2015-09-27T21:12:01Z</time></trkpt>
<trkpt lat="25.065628" lon="101.589301">
<time>2015-09-27T21:12:02Z</time></trkpt>
<trkpt lat="25.065128" lon="101.58852">
<time>2015-09-27T21:12:03Z</time></trkpt>
<trkpt lat="25.064828" lon="101.58804">
<time>2015-09-27T21:12:04Z</time></trkpt>
<trkpt lat="25.064658" lon="101.5878">
<time>2015-09-27T21:12:05Z</time></trkpt>
<trkpt lat="25.064648" lon="101.58779">
<time>2015-09-27T21:12:06Z</time></trkpt>
<trkpt lat="25.064428" lon="101.58752">
<time>2015-09-27T21:12:07Z</time></trkpt>
<trkpt lat="25.064218" lon="101.58729">
<time>2015-09-27T21:12:08Z</time></trkpt>
<trkpt lat="25.064148" lon="101.58723">
<time>2015-09-27T21:12:09Z</time></trkpt>
<trkpt lat="25.064098" lon="101.58719">
<time>2015-09-27T21:12:10Z</time></trkpt>
<trkpt lat="25.064048" lon="101.58715">
<time>2015-09-27T21:12:11Z</time></trkpt>
<trkpt lat="25.064008" lon="101.58713">
<time>2015-09-27T21:12:12Z</time></trkpt>
<trkpt lat="25.063968" lon="101.58711">
<time>2015-09-27T21:12:13Z</time></trkpt>
<trkpt lat="25.063918" lon="101.58709">
<time>2015-09-27T21:12:14Z</time></trkpt>
<trkpt lat="25.063878" lon="101.58707">
<time>2015-09-27T21:12:15Z</time></trkpt>
<trkpt lat="25.063838" lon="101.58706">
<time>2015-09-27T21:12:16Z</time></trkpt>
<trkpt lat="25.063798" lon="101.58706">
<time>2015-09-27T21:12:17Z</time></trkpt>
<trkpt lat="25.063758" lon="101.58705">
<time>2015-09-27T21:12:18Z</time></trkpt>
<trkpt lat="25.063718" lon="101.58705">
<time>2015-09-27T21:12:19Z</time></trkpt>
<trkpt lat="25.063688" lon="101.58705">
<time>2015-09-27T21:12:20Z</time></trkpt>
<trkpt lat="25.063638" lon="101.58706">
<time>2015-09-27T21:12:21Z</time></trkpt>
<trkpt lat="25.063608" lon="101.58706">
<time>2015-09-27T21:12:22Z</time></trkpt>
<trkpt lat="25.063568" lon="101.58707">
<time>2015-09-27T21:12:23Z</time></trkpt>
<trkpt lat="25.063528" lon="101.58709">
<time>2015-09-27T21:12:24Z</time></trkpt>
<trkpt lat="25.063478" lon="101.58712">
<time>2015-09-27T21:12:25Z</time></trkpt>
<trkpt lat="25.063428" lon="101.58715">
<time>2015-09-27T21:12:26Z</time></trkpt>
<trkpt lat="25.063398" lon="101.58718">
<time>2015-09-27T21:12:27Z</time></trkpt>
<trkpt lat="25.063328" lon="101.58725">
<time>2015-09-27T21:12:28Z</time></trkpt>
<trkpt lat="25.063258" lon="101.58734">
<time>2015-09-27T21:12:29Z</time></trkpt>
<trkpt lat="25.063198" lon="101.58744">
<time>2015-09-27T21:12:30Z</time></trkpt>
<trkpt lat="25.063108" lon="101.58761">
<time>2015-09-27T21:12:31Z</time></trkpt>
<trkpt lat="25.062998" lon="101.58784">
<time>2015-09-27T21:12:32Z</time></trkpt>
<trkpt lat="25.062838" lon="101.58813">
<time>2015-09-27T21:12:33Z</time></trkpt>
<trkpt lat="25.062758" lon="101.58828">
<time>2015-09-27T21:12:34Z</time></trkpt>
<trkpt lat="25.062618" lon="101.58847">
<time>2015-09-27T21:12:35Z</time></trkpt>
<trkpt lat="25.062338" lon="101.58879">
<time>2015-09-27T21:12:36Z</time></trkpt>
<trkpt lat="25.062009" lon="101.589141">
<time>2015-09-27T21:12:37Z</time></trkpt>
<trkpt lat="25.061739" lon="101.589431">
<time>2015-09-27T21:12:38Z</time></trkpt>
<trkpt lat="25.061679" lon="101.589501">
<time>2015-09-27T21:12:39Z</time></trkpt>
<trkpt lat="25.061579" lon="101.589611">
<time>2015-09-27T21:12:40Z</time></trkpt>
<trkpt lat="25.061389" lon="101.589811">
<time>2015-09-27T21:12:41Z</time></trkpt>
<trkpt lat="25.061289" lon="101.589901">
<time>2015-09-27T21:12:42Z</time></trkpt>
<trkpt lat="25.061189" lon="101.589971">
<time>2015-09-27T21:12:43Z</time></trkpt>
<trkpt lat="25.061099" lon="101.590031">
<time>2015-09-27T21:12:44Z</time></trkpt>
<trkpt lat="25.061019" lon="101.590061">
<time>2015-09-27T21:12:45Z</time></trkpt>
<trkpt lat="25.060929" lon="101.590111">
<time>2015-09-27T21:12:46Z</time></trkpt>
<trkpt lat="25.060819" lon="101.590151">
<time>2015-09-27T21:12:47Z</time></trkpt>
<trkpt lat="25.060669" lon="101.590181">
<time>2015-09-27T21:12:48Z</time></trkpt>
<trkpt lat="25.060529" lon="101.590191">
<time>2015-09-27T21:12:49Z</time></trkpt>
<trkpt lat="25.060429" lon="101.590201">
<time>2015-09-27T21:12:50Z</time></trkpt>
<trkpt lat="25.060269" lon="101.590181">
<time>2015-09-27T21:12:51Z</time></trkpt>
<trkpt lat="25.060129" lon="101.590161">
<time>2015-09-27T21:12:52Z</time></trkpt>
<trkpt lat="25.059999" lon="101.590121">
<time>2015-09-27T21:12:53Z</time></trkpt>
<trkpt lat="25.059899" lon="101.590081">
<time>2015-09-27T21:12:54Z</time></trkpt>
<trkpt lat="25.059779" lon="101.590021">
<time>2015-09-27T21:12:55Z</time></trkpt>
<trkpt lat="25.059369" lon="101.589771">
<time>2015-09-27T21:12:56Z</time></trkpt>
<trkpt lat="25.058949" lon="101.589501">
<time>2015-09-27T21:12:57Z</time></trkpt>
<trkpt lat="25.058679" lon="101.589311">
<time>2015-09-27T21:12:58Z</time></trkpt>
<trkpt lat="25.058379" lon="101.589111">
<time>2015-09-27T21:12:59Z</time></trkpt>
<trkpt lat="25.058149" lon="101.588951">
<time>2015-09-27T21:13:00Z</time></trkpt>
<trkpt lat="25.057839" lon="101.588741">
<time>2015-09-27T21:13:01Z</time></trkpt>
<trkpt lat="25.057549" lon="101.58855">
<time>2015-09-27T21:13:02Z</time></trkpt>
<trkpt lat="25.057399" lon="101.58844">
<time>2015-09-27T21:13:03Z</time></trkpt>
<trkpt lat="25.057079" lon="101.5882">
<time>2015-09-27T21:13:04Z</time></trkpt>
<trkpt lat="25.056639" lon="101.58791">
<time>2015-09-27T21:13:05Z</time></trkpt>
<trkpt lat="25.056419" lon="101.58773">
<time>2015-09-27T21:13:06Z</time></trkpt>
<trkpt lat="25.056349" lon="101.58768">
<time>2015-09-27T21:13:07Z</time></trkpt>
<trkpt lat="25.056299" lon="101.58762">
<time>2015-09-27T21:13:08Z</time></trkpt>
<trkpt lat="25.056249" lon="101.58757">
<time>2015-09-27T21:13:09Z</time></trkpt>
<trkpt lat="25.056219" lon="101.58753">
<time>2015-09-27T21:13:10Z</time></trkpt>
<trkpt lat="25.056199" lon="101.58749">
<time>2015-09-27T21:13:11Z</time></trkpt>
<trkpt lat="25.056179" lon="101.58745">
<time>2015-09-27T21:13:12Z</time></trkpt>
<trkpt lat="25.056169" lon="101.5874">
<time>2015-09-27T21:13:13Z</time></trkpt>
<trkpt lat="25.056148" lon="101.58734">
<time>2015-09-27T21:13:14Z</time></trkpt>
<trkpt lat="25.056148" lon="101.58728">
<time>2015-09-27T21:13:15Z</time></trkpt>
<trkpt lat="25.056138" lon="101.58722">
<time>2015-09-27T21:13:16Z</time></trkpt>
<trkpt lat="25.056138" lon="101.58708">
<time>2015-09-27T21:13:17Z</time></trkpt>
<trkpt lat="25.056148" lon="101.58692">
<time>2015-09-27T21:13:18Z</time></trkpt>
<trkpt lat="25.056178" lon="101.58659">
<time>2015-09-27T21:13:19Z</time></trkpt>
<trkpt lat="25.056188" lon="101.58637">
<time>2015-09-27T21:13:20Z</time></trkpt>
<trkpt lat="25.056188" lon="101.586229">
<time>2015-09-27T21:13:21Z</time></trkpt>
<trkpt lat="25.056168" lon="101.586089">
<time>2015-09-27T21:13:22Z</time></trkpt>
<trkpt lat="25.056138" lon="101.585879">
<time>2015-09-27T21:13:23Z</time></trkpt>
<trkpt lat="25.056118" lon="101.585819">
<time>2015-09-27T21:13:24Z</time></trkpt>
<trkpt lat="25.056088" lon="101.585649">
<time>2015-09-27T21:13:25Z</time></trkpt>
<trkpt lat="25.056038" lon="101.585479">
<time>2015-09-27T21:13:26Z</time></trkpt>
<trkpt lat="25.055978" lon="101.585299">
<time>2015-09-27T21:13:27Z</time></trkpt>
<trkpt lat="25.055918" lon="101.585139">
<time>2015-09-27T21:13:28Z</time></trkpt>
<trkpt lat="25.055847" lon="101.584999">
<time>2015-09-27T21:13:29Z</time></trkpt>
<trkpt lat="25.055767" lon="101.584859">
<time>2015-09-27T21:13:30Z</time></trkpt>
<trkpt lat="25.055617" lon="101.584629">
<time>2015-09-27T21:13:31Z</time></trkpt>
<trkpt lat="25.055567" lon="101.584539">
<time>2015-09-27T21:13:32Z</time></trkpt>
<trkpt lat="25.055527" lon="101.584468">
<time>2015-09-27T21:13:33Z</time></trkpt>
<trkpt lat="25.055477" lon="101.584378">
<time>2015-09-27T21:13:34Z</time></trkpt>
<trkpt lat="25.055457" lon="101.584328">
<time>2015-09-27T21:13:35Z</time></trkpt>
<trkpt lat="25.055437" lon="101.584268">
<time>2015-09-27T21:13:36Z</time></trkpt>
<trkpt lat="25.055427" lon="101.584228">
<time>2015-09-27T21:13:37Z</time></trkpt>
<trkpt lat="25.055407" lon="101.584158">
<time>2015-09-27T21:13:38Z</time></trkpt>
<trkpt lat="25.055407" lon="101.584088">
<time>2015-09-27T21:13:39Z</time></trkpt>
<trkpt lat="25.055397" lon="101.584028">
<time>2015-09-27T21:13:40Z</time></trkpt>
<trkpt lat="25.055407" lon="101.583968">
<time>2015-09-27T21:13:41Z</time></trkpt>
<trkpt lat="25.055417" lon="101.583828">
<time>2015-09-27T21:13:42Z</time></trkpt>
<trkpt lat="25.055477" lon="101.583538">
<time>2015-09-27T21:13:43Z</time></trkpt>
<trkpt lat="25.055546" lon="101.583138">
<time>2015-09-27T21:13:44Z</time></trkpt>
<trkpt lat="25.055576" lon="101.582917">
<time>2015-09-27T21:13:45Z</time></trkpt>
<trkpt lat="25.055596" lon="101.582727">
<time>2015-09-27T21:13:46Z</time></trkpt>
<trkpt lat="25.055606" lon="101.582567">
<time>2015-09-27T21:13:47Z</time></trkpt>
<trkpt lat="25.055596" lon="101.582387">
<time>2015-09-27T21:13:48Z</time></trkpt>
<trkpt lat="25.055576" lon="101.582177">
<time>2015-09-27T21:13:49Z</time></trkpt>
<trkpt lat="25.055546" lon="101.582017">
<time>2015-09-27T21:13:50Z</time></trkpt>
<trkpt lat="25.055506" lon="101.581847">
<time>2015-09-27T21:13:51Z</time></trkpt>
<trkpt lat="25.055436" lon="101.581597">
<time>2015-09-27T21:13:52Z</time></trkpt>
<trkpt lat="25.055225" lon="101.580886">
<time>2015-09-27T21:13:53Z</time></trkpt>
<trkpt lat="25.054985" lon="101.580115">
<time>2015-09-27T21:13:54Z</time></trkpt>
<trkpt lat="25.054985" lon="101.580115">
<time>2015-09-27T21:13:55Z</time></trkpt>
<trkpt lat="25.054984" lon="101.580025">
<time>2015-09-27T21:13:56Z</time></trkpt>
<trkpt lat="25.054944" lon="101.579865">
<time>2015-09-27T21:13:57Z</time></trkpt>
<trkpt lat="25.054864" lon="101.579655">
<time>2015-09-27T21:13:58Z</time></trkpt>
<trkpt lat="25.054794" lon="101.579485">
<time>2015-09-27T21:13:59Z</time></trkpt>
<trkpt lat="25.054724" lon="101.579355">
<time>2015-09-27T21:14:00Z</time></trkpt>
<trkpt lat="25.054604" lon="101.579175">
<time>2015-09-27T21:14:01Z</time></trkpt>
<trkpt lat="25.054534" lon="101.579085">
<time>2015-09-27T21:14:02Z</time></trkpt>
<trkpt lat="25.054464" lon="101.579014">
<time>2015-09-27T21:14:03Z</time></trkpt>
<trkpt lat="25.054384" lon="101.578944">
<time>2015-09-27T21:14:04Z</time></trkpt>
<trkpt lat="25.054284" lon="101.578864">
<time>2015-09-27T21:14:05Z</time></trkpt>
<trkpt lat="25.053873" lon="101.578574">
<time>2015-09-27T21:14:06Z</time></trkpt>
<trkpt lat="25.053563" lon="101.578354">
<time>2015-09-27T21:14:07Z</time></trkpt>
<trkpt lat="25.053273" lon="101.578094">
<time>2015-09-27T21:14:08Z</time></trkpt>
<trkpt lat="25.053213" lon="101.578034">
<time>2015-09-27T21:14:09Z</time></trkpt>
<trkpt lat="25.053133" lon="101.577934">
<time>2015-09-27T21:14:10Z</time></trkpt>
<trkpt lat="25.052953" lon="101.577693">
<time>2015-09-27T21:14:11Z</time></trkpt>
<trkpt lat="25.052863" lon="101.577513">
<time>2015-09-27T21:14:12Z</time></trkpt>
<trkpt lat="25.052793" lon="101.577343">
<time>2015-09-27T21:14:13Z</time></trkpt>
<trkpt lat="25.052712" lon="101.577133">
<time>2015-09-27T21:14:14Z</time></trkpt>
<trkpt lat="25.052662" lon="101.576943">
<time>2015-09-27T21:14:15Z</time></trkpt>
<trkpt lat="25.052622" lon="101.576702">
<time>2015-09-27T21:14:16Z</time></trkpt>
<trkpt lat="25.052602" lon="101.576492">
<time>2015-09-27T21:14:17Z</time></trkpt>
<trkpt lat="25.052602" lon="101.576202">
<time>2015-09-27T21:14:18Z</time></trkpt>
<trkpt lat="25.052651" lon="101.575892">
<time>2015-09-27T21:14:19Z</time></trkpt>
<trkpt lat="25.052691" lon="101.575641">
<time>2015-09-27T21:14:20Z</time></trkpt>
<trkpt lat="25.05282" lon="101.575041">
<time>2015-09-27T21:14:21Z</time></trkpt>
<trkpt lat="25.05286" lon="101.57484">
<time>2015-09-27T21:14:22Z</time></trkpt>
<trkpt lat="25.05286" lon="101.57484">
<time>2015-09-27T21:14:23Z</time></trkpt>
<trkpt lat="25.05309" lon="101.574891">
<time>2015-09-27T21:14:24Z</time></trkpt>
<trkpt lat="25.0538" lon="101.575091">
<time>2015-09-27T21:14:25Z</time></trkpt>
<trkpt lat="25.0538" lon="101.575091">
<time>2015-09-27T21:14:26Z</time></trkpt>
<trkpt lat="25.05384" lon="101.57484">
<time>2015-09-27T21:14:27Z</time></trkpt>
<trkpt lat="25.05385" lon="101.5748">
<time>2015-09-27T21:14:28Z</time></trkpt>
<trkpt lat="25.054119" lon="101.573559">
<time>2015-09-27T21:14:29Z</time></trkpt>
<trkpt lat="25.054228" lon="101.573109">
<time>2015-09-27T21:14:30Z</time></trkpt>
<trkpt lat="25.054358" lon="101.572528">
<time>2015-09-27T21:14:31Z</time></trkpt>
<trkpt lat="25.054567" lon="101.571617">
<time>2015-09-27T21:14:32Z</time></trkpt>
<trkpt lat="25.054736" lon="101.570856">
<time>2015-09-27T21:14:33Z</time></trkpt>
<trkpt lat="25.054915" lon="101.570095">
<time>2015-09-27T21:14:34Z</time></trkpt>
<trkpt lat="25.054985" lon="101.569784">
<time>2015-09-27T21:14:35Z</time></trkpt>
<trkpt lat="25.055154" lon="101.569073">
<time>2015-09-27T21:14:36Z</time></trkpt>
<trkpt lat="25.055283" lon="101.568513">
<time>2015-09-27T21:14:37Z</time></trkpt>
<trkpt lat="25.055323" lon="101.568342">
<time>2015-09-27T21:14:38Z</time></trkpt>
<trkpt lat="25.055373" lon="101.568112">
<time>2015-09-27T21:14:39Z</time></trkpt>
<trkpt lat="25.055462" lon="101.567702">
<time>2015-09-27T21:14:40Z</time></trkpt>
<trkpt lat="25.055561" lon="101.567291">
<time>2015-09-27T21:14:41Z</time></trkpt>
<trkpt lat="25.055621" lon="101.567051">
<time>2015-09-27T21:14:42Z</time></trkpt>
<trkpt lat="25.055661" lon="101.56687">
<time>2015-09-27T21:14:43Z</time></trkpt>
<trkpt lat="25.05575" lon="101.56649">
<time>2015-09-27T21:14:44Z</time></trkpt>
<trkpt lat="25.05583" lon="101.566219">
<time>2015-09-27T21:14:45Z</time></trkpt>
<trkpt lat="25.05584" lon="101.566189">
<time>2015-09-27T21:14:46Z</time></trkpt>
<trkpt lat="25.05589" lon="101.566059">
<time>2015-09-27T21:14:47Z</time></trkpt>
<trkpt lat="25.05594" lon="101.565879">
<time>2015-09-27T21:14:48Z</time></trkpt>
<trkpt lat="25.055969" lon="101.565659">
<time>2015-09-27T21:14:49Z</time></trkpt>
<trkpt lat="25.056038" lon="101.565068">
<time>2015-09-27T21:14:50Z</time></trkpt>
<trkpt lat="25.056078" lon="101.564697">
<time>2015-09-27T21:14:51Z</time></trkpt>
<trkpt lat="25.056147" lon="101.564076">
<time>2015-09-27T21:14:52Z</time></trkpt>
<trkpt lat="25.056177" lon="101.563806">
<time>2015-09-27T21:14:53Z</time></trkpt>
<trkpt lat="25.056196" lon="101.563435">
<time>2015-09-27T21:14:54Z</time></trkpt>
<trkpt lat="25.056196" lon="101.563215">
<time>2015-09-27T21:14:55Z</time></trkpt>
<trkpt lat="25.056185" lon="101.562984">
<time>2015-09-27T21:14:56Z</time></trkpt>
<trkpt lat="25.056155" lon="101.562774">
<time>2015-09-27T21:14:57Z</time></trkpt>
<trkpt lat="25.056055" lon="101.562373">
<time>2015-09-27T21:14:58Z</time></trkpt>
<trkpt lat="25.055954" lon="101.562053">
<time>2015-09-27T21:14:59Z</time></trkpt>
<trkpt lat="25.055783" lon="101.561612">
<time>2015-09-27T21:15:00Z</time></trkpt>
<trkpt lat="25.055733" lon="101.561512">
<time>2015-09-27T21:15:01Z</time></trkpt>
<trkpt lat="25.055663" lon="101.561402">
<time>2015-09-27T21:15:02Z</time></trkpt>
<trkpt lat="25.055573" lon="101.561262">
<time>2015-09-27T21:15:03Z</time></trkpt>
<trkpt lat="25.055262" lon="101.560851">
<time>2015-09-27T21:15:04Z</time></trkpt>
<trkpt lat="25.054851" lon="101.56033">
<time>2015-09-27T21:15:05Z</time></trkpt>
<trkpt lat="25.054631" lon="101.56004">
<time>2015-09-27T21:15:06Z</time></trkpt>
<trkpt lat="25.054481" lon="101.559819">
<time>2015-09-27T21:15:07Z</time></trkpt>
<trkpt lat="25.05419" lon="101.559378">
<time>2015-09-27T21:15:08Z</time></trkpt>
<trkpt lat="25.05412" lon="101.559278">
<time>2015-09-27T21:15:09Z</time></trkpt>
<trkpt lat="25.053979" lon="101.559038">
<time>2015-09-27T21:15:10Z</time></trkpt>
<trkpt lat="25.053909" lon="101.558918">
<time>2015-09-27T21:15:11Z</time></trkpt>
<trkpt lat="25.053799" lon="101.558727">
<time>2015-09-27T21:15:12Z</time></trkpt>
<trkpt lat="25.053699" lon="101.558527">
<time>2015-09-27T21:15:13Z</time></trkpt>
<trkpt lat="25.053608" lon="101.558327">
<time>2015-09-27T21:15:14Z</time></trkpt>
<trkpt lat="25.053377" lon="101.557745">
<time>2015-09-27T21:15:15Z</time></trkpt>
<trkpt lat="25.053187" lon="101.557265">
<time>2015-09-27T21:15:16Z</time></trkpt>
<trkpt lat="25.052976" lon="101.556704">
<time>2015-09-27T21:15:17Z</time></trkpt>
<trkpt lat="25.052795" lon="101.556233">
<time>2015-09-27T21:15:18Z</time></trkpt>
<trkpt lat="25.052483" lon="101.555431">
<time>2015-09-27T21:15:19Z</time></trkpt>
<trkpt lat="25.052413" lon="101.555241">
<time>2015-09-27T21:15:20Z</time></trkpt>
<trkpt lat="25.052413" lon="101.555241">
<time>2015-09-27T21:15:21Z</time></trkpt>
<trkpt lat="25.05227" lon="101.553668">
<time>2015-09-27T21:15:22Z</time></trkpt>
<trkpt lat="25.052097" lon="101.551984">
<time>2015-09-27T21:15:23Z</time></trkpt>
<trkpt lat="25.052016" lon="101.551293">
<time>2015-09-27T21:15:24Z</time></trkpt>
<trkpt lat="25.052016" lon="101.551283">
<time>2015-09-27T21:15:25Z</time></trkpt>
<trkpt lat="25.051975" lon="101.550942">
<time>2015-09-27T21:15:26Z</time></trkpt>
<trkpt lat="25.051914" lon="101.550331">
<time>2015-09-27T21:15:27Z</time></trkpt>
<trkpt lat="25.051914" lon="101.550271">
<time>2015-09-27T21:15:28Z</time></trkpt>
<trkpt lat="25.051893" lon="101.55002">
<time>2015-09-27T21:15:29Z</time></trkpt>
<trkpt lat="25.051863" lon="101.549729">
<time>2015-09-27T21:15:30Z</time></trkpt>
<trkpt lat="25.051741" lon="101.548617">
<time>2015-09-27T21:15:31Z</time></trkpt>
<trkpt lat="25.0517" lon="101.548296">
<time>2015-09-27T21:15:32Z</time></trkpt>
<trkpt lat="25.051608" lon="101.547464">
<time>2015-09-27T21:15:33Z</time></trkpt>
<trkpt lat="25.051547" lon="101.546873">
<time>2015-09-27T21:15:34Z</time></trkpt>
<trkpt lat="25.051486" lon="101.546342">
<time>2015-09-27T21:15:35Z</time></trkpt>
<trkpt lat="25.051486" lon="101.546332">
<time>2015-09-27T21:15:36Z</time></trkpt>
<trkpt lat="25.051384" lon="101.54537">
<time>2015-09-27T21:15:37Z</time></trkpt>
<trkpt lat="25.051333" lon="101.544939">
<time>2015-09-27T21:15:38Z</time></trkpt>
<trkpt lat="25.051179" lon="101.543405">
<time>2015-09-27T21:15:39Z</time></trkpt>
<trkpt lat="25.051169" lon="101.543345">
<time>2015-09-27T21:15:40Z</time></trkpt>
<trkpt lat="25.051016" lon="101.541931">
<time>2015-09-27T21:15:41Z</time></trkpt>
<trkpt lat="25.050996" lon="101.541711">
<time>2015-09-27T21:15:42Z</time></trkpt>
<trkpt lat="25.050832" lon="101.540257">
<time>2015-09-27T21:15:43Z</time></trkpt>
<trkpt lat="25.050812" lon="101.540137">
<time>2015-09-27T21:15:44Z</time></trkpt>
<trkpt lat="25.050761" lon="101.539596">
<time>2015-09-27T21:15:45Z</time></trkpt>
<trkpt lat="25.050659" lon="101.538673">
<time>2015-09-27T21:15:46Z</time></trkpt>
<trkpt lat="25.050659" lon="101.538663">
<time>2015-09-27T21:15:47Z</time></trkpt>
<trkpt lat="25.050648" lon="101.538533">
<time>2015-09-27T21:15:48Z</time></trkpt>
<trkpt lat="25.050536" lon="101.53755">
<time>2015-09-27T21:15:49Z</time></trkpt>
<trkpt lat="25.050474" lon="101.536909">
<time>2015-09-27T21:15:50Z</time></trkpt>
<trkpt lat="25.050372" lon="101.535926">
<time>2015-09-27T21:15:51Z</time></trkpt>
<trkpt lat="25.05028" lon="101.535134">
<time>2015-09-27T21:15:52Z</time></trkpt>
<trkpt lat="25.050137" lon="101.534021">
<time>2015-09-27T21:15:53Z</time></trkpt>
<trkpt lat="25.050076" lon="101.533459">
<time>2015-09-27T21:15:54Z</time></trkpt>
<trkpt lat="25.049984" lon="101.532597">
<time>2015-09-27T21:15:55Z</time></trkpt>
<trkpt lat="25.049933" lon="101.532126">
<time>2015-09-27T21:15:56Z</time></trkpt>
<trkpt lat="25.049892" lon="101.531685">
<time>2015-09-27T21:15:57Z</time></trkpt>
<trkpt lat="25.049759" lon="101.530612">
<time>2015-09-27T21:15:58Z</time></trkpt>
<trkpt lat="25.049748" lon="101.530451">
<time>2015-09-27T21:15:59Z</time></trkpt>
<trkpt lat="25.049717" lon="101.5301">
<time>2015-09-27T21:16:00Z</time></trkpt>
<trkpt lat="25.049686" lon="101.529629">
<time>2015-09-27T21:16:01Z</time></trkpt>
<trkpt lat="25.049655" lon="101.529318">
<time>2015-09-27T21:16:02Z</time></trkpt>
<trkpt lat="25.049675" lon="101.529077">
<time>2015-09-27T21:16:03Z</time></trkpt>
<trkpt lat="25.049693" lon="101.528516">
<time>2015-09-27T21:16:04Z</time></trkpt>
<trkpt lat="25.049703" lon="101.528496">
<time>2015-09-27T21:16:05Z</time></trkpt>
<trkpt lat="25.049771" lon="101.527814">
<time>2015-09-27T21:16:06Z</time></trkpt>
<trkpt lat="25.04986" lon="101.527262">
<time>2015-09-27T21:16:07Z</time></trkpt>
<trkpt lat="25.049968" lon="101.526711">
<time>2015-09-27T21:16:08Z</time></trkpt>
<trkpt lat="25.050137" lon="101.526099">
<time>2015-09-27T21:16:09Z</time></trkpt>
<trkpt lat="25.050256" lon="101.525738">
<time>2015-09-27T21:16:10Z</time></trkpt>
<trkpt lat="25.050286" lon="101.525647">
<time>2015-09-27T21:16:11Z</time></trkpt>
<trkpt lat="25.050415" lon="101.525296">
<time>2015-09-27T21:16:12Z</time></trkpt>
<trkpt lat="25.050633" lon="101.524795">
<time>2015-09-27T21:16:13Z</time></trkpt>
<trkpt lat="25.050802" lon="101.524404">
<time>2015-09-27T21:16:14Z</time></trkpt>
<trkpt lat="25.051389" lon="101.52319">
<time>2015-09-27T21:16:15Z</time></trkpt>
<trkpt lat="25.051607" lon="101.522759">
<time>2015-09-27T21:16:16Z</time></trkpt>
<trkpt lat="25.051995" lon="101.521967">
<time>2015-09-27T21:16:17Z</time></trkpt>
<trkpt lat="25.052512" lon="101.520893">
<time>2015-09-27T21:16:18Z</time></trkpt>
<trkpt lat="25.05291" lon="101.520071">
<time>2015-09-27T21:16:19Z</time></trkpt>
<trkpt lat="25.053119" lon="101.51966">
<time>2015-09-27T21:16:20Z</time></trkpt>
<trkpt lat="25.054381" lon="101.517122">
<time>2015-09-27T21:16:21Z</time></trkpt>
<trkpt lat="25.05464" lon="101.51656">
<time>2015-09-27T21:16:22Z</time></trkpt>
<trkpt lat="25.054868" lon="101.516089">
<time>2015-09-27T21:16:23Z</time></trkpt>
<trkpt lat="25.054878" lon="101.516069">
<time>2015-09-27T21:16:24Z</time></trkpt>
<trkpt lat="25.055127" lon="101.515537">
<time>2015-09-27T21:16:25Z</time></trkpt>
<trkpt lat="25.055147" lon="101.515497">
<time>2015-09-27T21:16:26Z</time></trkpt>
<trkpt lat="25.055147" lon="101.515487">
<time>2015-09-27T21:16:27Z</time></trkpt>
<trkpt lat="25.055246" lon="101.515266">
<time>2015-09-27T21:16:28Z</time></trkpt>
<trkpt lat="25.055315" lon="101.515035">
<time>2015-09-27T21:16:29Z</time></trkpt>
<trkpt lat="25.055374" lon="101.514795">
<time>2015-09-27T21:16:30Z</time></trkpt>
<trkpt lat="25.055384" lon="101.514694">
<time>2015-09-27T21:16:31Z</time></trkpt>
<trkpt lat="25.055384" lon="101.514674">
<time>2015-09-27T21:16:32Z</time></trkpt>
<trkpt lat="25.055404" lon="101.514514">
<time>2015-09-27T21:16:33Z</time></trkpt>
<trkpt lat="25.055403" lon="101.514233">
<time>2015-09-27T21:16:34Z</time></trkpt>
<trkpt lat="25.055362" lon="101.514012">
<time>2015-09-27T21:16:35Z</time></trkpt>
<trkpt lat="25.055352" lon="101.513982">
<time>2015-09-27T21:16:36Z</time></trkpt>
<trkpt lat="25.05522" lon="101.51324">
<time>2015-09-27T21:16:37Z</time></trkpt>
<trkpt lat="25.05518" lon="101.513079">
<time>2015-09-27T21:16:38Z</time></trkpt>
<trkpt lat="25.055078" lon="101.512598">
<time>2015-09-27T21:16:39Z</time></trkpt>
<trkpt lat="25.055078" lon="101.512527">
<time>2015-09-27T21:16:40Z</time></trkpt>
<trkpt lat="25.055078" lon="101.512527">
<time>2015-09-27T21:16:41Z</time></trkpt>
<trkpt lat="25.055108" lon="101.512397">
<time>2015-09-27T21:16:42Z</time></trkpt>
<trkpt lat="25.055046" lon="101.512026">
<time>2015-09-27T21:16:43Z</time></trkpt>
<trkpt lat="25.054996" lon="101.511765">
<time>2015-09-27T21:16:44Z</time></trkpt>
<trkpt lat="25.054935" lon="101.511404">
<time>2015-09-27T21:16:45Z</time></trkpt>
<trkpt lat="25.054884" lon="101.511173">
<time>2015-09-27T21:16:46Z</time></trkpt>
<trkpt lat="25.054783" lon="101.510702">
<time>2015-09-27T21:16:47Z</time></trkpt>
<trkpt lat="25.054691" lon="101.51028">
<time>2015-09-27T21:16:48Z</time></trkpt>
<trkpt lat="25.054661" lon="101.51014">
<time>2015-09-27T21:16:49Z</time></trkpt>
<trkpt lat="25.054559" lon="101.509478">
<time>2015-09-27T21:16:50Z</time></trkpt>
<trkpt lat="25.054548" lon="101.509297">
<time>2015-09-27T21:16:51Z</time></trkpt>
<trkpt lat="25.054528" lon="101.508996">
<time>2015-09-27T21:16:52Z</time></trkpt>
<trkpt lat="25.054527" lon="101.508665">
<time>2015-09-27T21:16:53Z</time></trkpt>
<trkpt lat="25.054546" lon="101.508374">
<time>2015-09-27T21:16:54Z</time></trkpt>
<trkpt lat="25.054575" lon="101.508114">
<time>2015-09-27T21:16:55Z</time></trkpt>
<trkpt lat="25.054604" lon="101.507953">
<time>2015-09-27T21:16:56Z</time></trkpt>
<trkpt lat="25.054654" lon="101.507712">
<time>2015-09-27T21:16:57Z</time></trkpt>
<trkpt lat="25.054733" lon="101.507411">
<time>2015-09-27T21:16:58Z</time></trkpt>
<trkpt lat="25.054782" lon="101.507231">
<time>2015-09-27T21:16:59Z</time></trkpt>
<trkpt lat="25.054971" lon="101.506699">
<time>2015-09-27T21:17:00Z</time></trkpt>
<trkpt lat="25.055268" lon="101.505967">
<time>2015-09-27T21:17:01Z</time></trkpt>
<trkpt lat="25.055368" lon="101.505716">
<time>2015-09-27T21:17:02Z</time></trkpt>
<trkpt lat="25.055626" lon="101.505034">
<time>2015-09-27T21:17:03Z</time></trkpt>
<trkpt lat="25.055636" lon="101.505024">
<time>2015-09-27T21:17:04Z</time></trkpt>
<trkpt lat="25.055655" lon="101.504963">
<time>2015-09-27T21:17:05Z</time></trkpt>
<trkpt lat="25.055794" lon="101.504612">
<time>2015-09-27T21:17:06Z</time></trkpt>
<trkpt lat="25.056231" lon="101.503509">
<time>2015-09-27T21:17:07Z</time></trkpt>
<trkpt lat="25.05635" lon="101.503188">
<time>2015-09-27T21:17:08Z</time></trkpt>
<trkpt lat="25.0564" lon="101.503067">
<time>2015-09-27T21:17:09Z</time></trkpt>
<trkpt lat="25.056549" lon="101.502736">
<time>2015-09-27T21:17:10Z</time></trkpt>
<trkpt lat="25.056598" lon="101.502626">
<time>2015-09-27T21:17:11Z</time></trkpt>
<trkpt lat="25.056728" lon="101.502385">
<time>2015-09-27T21:17:12Z</time></trkpt>
<trkpt lat="25.056867" lon="101.502154">
<time>2015-09-27T21:17:13Z</time></trkpt>
<trkpt lat="25.057066" lon="101.501874">
<time>2015-09-27T21:17:14Z</time></trkpt>
<trkpt lat="25.057285" lon="101.501593">
<time>2015-09-27T21:17:15Z</time></trkpt>
<trkpt lat="25.057524" lon="101.501342">
<time>2015-09-27T21:17:16Z</time></trkpt>
<trkpt lat="25.057724" lon="101.501151">
<time>2015-09-27T21:17:17Z</time></trkpt>
<trkpt lat="25.057923" lon="101.500981">
<time>2015-09-27T21:17:18Z</time></trkpt>
<trkpt lat="25.058532" lon="101.500509">
<time>2015-09-27T21:17:19Z</time></trkpt>
<trkpt lat="25.05918" lon="101.500028">
<time>2015-09-27T21:17:20Z</time></trkpt>
<trkpt lat="25.059978" lon="101.499375">
<time>2015-09-27T21:17:21Z</time></trkpt>
<trkpt lat="25.060457" lon="101.498984">
<time>2015-09-27T21:17:22Z</time></trkpt>
<trkpt lat="25.061065" lon="101.498483">
<time>2015-09-27T21:17:23Z</time></trkpt>
<trkpt lat="25.061504" lon="101.497971">
<time>2015-09-27T21:17:24Z</time></trkpt>
<trkpt lat="25.062032" lon="101.497218">
<time>2015-09-27T21:17:25Z</time></trkpt>
<trkpt lat="25.062191" lon="101.496958">
<time>2015-09-27T21:17:26Z</time></trkpt>
<trkpt lat="25.06236" lon="101.496667">
<time>2015-09-27T21:17:27Z</time></trkpt>
<trkpt lat="25.062808" lon="101.495954">
<time>2015-09-27T21:17:28Z</time></trkpt>
<trkpt lat="25.063395" lon="101.495062">
<time>2015-09-27T21:17:29Z</time></trkpt>
<trkpt lat="25.063863" lon="101.49444">
<time>2015-09-27T21:17:30Z</time></trkpt>
<trkpt lat="25.064361" lon="101.493818">
<time>2015-09-27T21:17:31Z</time></trkpt>
<trkpt lat="25.064949" lon="101.493165">
<time>2015-09-27T21:17:32Z</time></trkpt>
<trkpt lat="25.065647" lon="101.492453">
<time>2015-09-27T21:17:33Z</time></trkpt>
<trkpt lat="25.066355" lon="101.491731">
<time>2015-09-27T21:17:34Z</time></trkpt>
<trkpt lat="25.066713" lon="101.491309">
<time>2015-09-27T21:17:35Z</time></trkpt>
<trkpt lat="25.066733" lon="101.491279">
<time>2015-09-27T21:17:36Z</time></trkpt>
<trkpt lat="25.066962" lon="101.490998">
<time>2015-09-27T21:17:37Z</time></trkpt>
<trkpt lat="25.067331" lon="101.490607">
<time>2015-09-27T21:17:38Z</time></trkpt>
<trkpt lat="25.068727" lon="101.489193">
<time>2015-09-27T21:17:39Z</time></trkpt>
<trkpt lat="25.069614" lon="101.488169">
<time>2015-09-27T21:17:40Z</time></trkpt>
<trkpt lat="25.069932" lon="101.487788">
<time>2015-09-27T21:17:41Z</time></trkpt>
<trkpt lat="25.069992" lon="101.487708">
<time>2015-09-27T21:17:42Z</time></trkpt>
<trkpt lat="25.070889" lon="101.486534">
<time>2015-09-27T21:17:43Z</time></trkpt>
<trkpt lat="25.072721" lon="101.484087">
<time>2015-09-27T21:17:44Z</time></trkpt>
<trkpt lat="25.073677" lon="101.482793">
<time>2015-09-27T21:17:45Z</time></trkpt>
<trkpt lat="25.073986" lon="101.482301">
<time>2015-09-27T21:17:46Z</time></trkpt>
<trkpt lat="25.074155" lon="101.48201">
<time>2015-09-27T21:17:47Z</time></trkpt>
<trkpt lat="25.074324" lon="101.481729">
<time>2015-09-27T21:17:48Z</time></trkpt>
<trkpt lat="25.074394" lon="101.481599">
<time>2015-09-27T21:17:49Z</time></trkpt>
<trkpt lat="25.074483" lon="101.481428">
<time>2015-09-27T21:17:50Z</time></trkpt>
<trkpt lat="25.074553" lon="101.481318">
<time>2015-09-27T21:17:51Z</time></trkpt>
<trkpt lat="25.07512" lon="101.480295">
<time>2015-09-27T21:17:52Z</time></trkpt>
<trkpt lat="25.075668" lon="101.479442">
<time>2015-09-27T21:17:53Z</time></trkpt>
<trkpt lat="25.075886" lon="101.479071">
<time>2015-09-27T21:17:54Z</time></trkpt>
<trkpt lat="25.076285" lon="101.478399">
<time>2015-09-27T21:17:55Z</time></trkpt>
<trkpt lat="25.076414" lon="101.478169">
<time>2015-09-27T21:17:56Z</time></trkpt>
<trkpt lat="25.076872" lon="101.477386">
<time>2015-09-27T21:17:57Z</time></trkpt>
<trkpt lat="25.077559" lon="101.476423">
<time>2015-09-27T21:17:58Z</time></trkpt>
<trkpt lat="25.078774" lon="101.474899">
<time>2015-09-27T21:17:59Z</time></trkpt>
<trkpt lat="25.079223" lon="101.474287">
<time>2015-09-27T21:18:00Z</time></trkpt>
<trkpt lat="25.079272" lon="101.474197">
<time>2015-09-27T21:18:01Z</time></trkpt>
<trkpt lat="25.079282" lon="101.474167">
<time>2015-09-27T21:18:02Z</time></trkpt>
<trkpt lat="25.07974" lon="101.473314">
<time>2015-09-27T21:18:03Z</time></trkpt>
<trkpt lat="25.080048" lon="101.472652">
<time>2015-09-27T21:18:04Z</time></trkpt>
<trkpt lat="25.080098" lon="101.472542">
<time>2015-09-27T21:18:05Z</time></trkpt>
<trkpt lat="25.080516" lon="101.47174">
<time>2015-09-27T21:18:06Z</time></trkpt>
<trkpt lat="25.080983" lon="101.470817">
<time>2015-09-27T21:18:07Z</time></trkpt>
<trkpt lat="25.081023" lon="101.470727">
<time>2015-09-27T21:18:08Z</time></trkpt>
<trkpt lat="25.081112" lon="101.470496">
<time>2015-09-27T21:18:09Z</time></trkpt>
<trkpt lat="25.081351" lon="101.470005">
<time>2015-09-27T21:18:10Z</time></trkpt>
<trkpt lat="25.08151" lon="101.469694">
<time>2015-09-27T21:18:11Z</time></trkpt>
<trkpt lat="25.081799" lon="101.469172">
<time>2015-09-27T21:18:12Z</time></trkpt>
<trkpt lat="25.082226" lon="101.46834">
<time>2015-09-27T21:18:13Z</time></trkpt>
<trkpt lat="25.082644" lon="101.467528">
<time>2015-09-27T21:18:14Z</time></trkpt>
<trkpt lat="25.082972" lon="101.466896">
<time>2015-09-27T21:18:15Z</time></trkpt>
<trkpt lat="25.083231" lon="101.466375">
<time>2015-09-27T21:18:16Z</time></trkpt>
<trkpt lat="25.08336" lon="101.466094">
<time>2015-09-27T21:18:17Z</time></trkpt>
<trkpt lat="25.083748" lon="101.465292">
<time>2015-09-27T21:18:18Z</time></trkpt>
<trkpt lat="25.084295" lon="101.464189">
<time>2015-09-27T21:18:19Z</time></trkpt>
<trkpt lat="25.084614" lon="101.463547">
<time>2015-09-27T21:18:20Z</time></trkpt>
<trkpt lat="25.084823" lon="101.463116">
<time>2015-09-27T21:18:21Z</time></trkpt>
<trkpt lat="25.085071" lon="101.462615">
<time>2015-09-27T21:18:22Z</time></trkpt>
<trkpt lat="25.08521" lon="101.462264">
<time>2015-09-27T21:18:23Z</time></trkpt>
<trkpt lat="25.08531" lon="101.461953">
<time>2015-09-27T21:18:24Z</time></trkpt>
<trkpt lat="25.085429" lon="101.461542">
<time>2015-09-27T21:18:25Z</time></trkpt>
<trkpt lat="25.085637" lon="101.46083">
<time>2015-09-27T21:18:26Z</time></trkpt>
<trkpt lat="25.085786" lon="101.460359">
<time>2015-09-27T21:18:27Z</time></trkpt>
<trkpt lat="25.085825" lon="101.460188">
<time>2015-09-27T21:18:28Z</time></trkpt>
<trkpt lat="25.085865" lon="101.460028">
<time>2015-09-27T21:18:29Z</time></trkpt>
<trkpt lat="25.085884" lon="101.459878">
<time>2015-09-27T21:18:30Z</time></trkpt>
<trkpt lat="25.085904" lon="101.459727">
<time>2015-09-27T21:18:31Z</time></trkpt>
<trkpt lat="25.085924" lon="101.459637">
<time>2015-09-27T21:18:32Z</time></trkpt>
<trkpt lat="25.085934" lon="101.459487">
<time>2015-09-27T21:18:33Z</time></trkpt>
<trkpt lat="25.085943" lon="101.459296">
<time>2015-09-27T21:18:34Z</time></trkpt>
<trkpt lat="25.085943" lon="101.459106">
<time>2015-09-27T21:18:35Z</time></trkpt>
<trkpt lat="25.085932" lon="101.458785">
<time>2015-09-27T21:18:36Z</time></trkpt>
<trkpt lat="25.085931" lon="101.458514">
<time>2015-09-27T21:18:37Z</time></trkpt>
<trkpt lat="25.085931" lon="101.458454">
<time>2015-09-27T21:18:38Z</time></trkpt>
<trkpt lat="25.085931" lon="101.458414">
<time>2015-09-27T21:18:39Z</time></trkpt>
<trkpt lat="25.085931" lon="101.458374">
<time>2015-09-27T21:18:40Z</time></trkpt>
<trkpt lat="25.085941" lon="101.458334">
<time>2015-09-27T21:18:41Z</time></trkpt>
<trkpt lat="25.085951" lon="101.458294">
<time>2015-09-27T21:18:42Z</time></trkpt>
<trkpt lat="25.085951" lon="101.458274">
<time>2015-09-27T21:18:43Z</time></trkpt>
<trkpt lat="25.085961" lon="101.458243">
<time>2015-09-27T21:18:44Z</time></trkpt>
<trkpt lat="25.085971" lon="101.458213">
<time>2015-09-27T21:18:45Z</time></trkpt>
<trkpt lat="25.08598" lon="101.458193">
<time>2015-09-27T21:18:46Z</time></trkpt>
<trkpt lat="25.08599" lon="101.458173">
<time>2015-09-27T21:18:47Z</time></trkpt>
<trkpt lat="25.08601" lon="101.458153">
<time>2015-09-27T21:18:48Z</time></trkpt>
<trkpt lat="25.08602" lon="101.458143">
<time>2015-09-27T21:18:49Z</time></trkpt>
<trkpt lat="25.08604" lon="101.458123">
<time>2015-09-27T21:18:50Z</time></trkpt>
<trkpt lat="25.08606" lon="101.458113">
<time>2015-09-27T21:18:51Z</time></trkpt>
<trkpt lat="25.08608" lon="101.458093">
<time>2015-09-27T21:18:52Z</time></trkpt>
<trkpt lat="25.08613" lon="101.458063">
<time>2015-09-27T21:18:53Z</time></trkpt>
<trkpt lat="25.08621" lon="101.458023">
<time>2015-09-27T21:18:54Z</time></trkpt>
<trkpt lat="25.08634" lon="101.457973">
<time>2015-09-27T21:18:55Z</time></trkpt>
<trkpt lat="25.08648" lon="101.457933">
<time>2015-09-27T21:18:56Z</time></trkpt>
<trkpt lat="25.08661" lon="101.457903">
<time>2015-09-27T21:18:57Z</time></trkpt>
<trkpt lat="25.08673" lon="101.457893">
<time>2015-09-27T21:18:58Z</time></trkpt>
<trkpt lat="25.08686" lon="101.457883">
<time>2015-09-27T21:18:59Z</time></trkpt>
<trkpt lat="25.087" lon="101.457883">
<time>2015-09-27T21:19:00Z</time></trkpt>
<trkpt lat="25.08712" lon="101.457893">
<time>2015-09-27T21:19:01Z</time></trkpt>
<trkpt lat="25.08725" lon="101.457873">
<time>2015-09-27T21:19:02Z</time></trkpt>
<trkpt lat="25.08734" lon="101.457852">
<time>2015-09-27T21:19:03Z</time></trkpt>
<trkpt lat="25.087439" lon="101.457812">
<time>2015-09-27T21:19:04Z</time></trkpt>
<trkpt lat="25.087519" lon="101.457752">
<time>2015-09-27T21:19:05Z</time></trkpt>
<trkpt lat="25.087609" lon="101.457662">
<time>2015-09-27T21:19:06Z</time></trkpt>
<trkpt lat="25.087669" lon="101.457562">
<time>2015-09-27T21:19:07Z</time></trkpt>
<trkpt lat="25.087719" lon="101.457472">
<time>2015-09-27T21:19:08Z</time></trkpt>
<trkpt lat="25.087758" lon="101.457371">
<time>2015-09-27T21:19:09Z</time></trkpt>
<trkpt lat="25.087788" lon="101.457271">
<time>2015-09-27T21:19:10Z</time></trkpt>
<trkpt lat="25.087808" lon="101.457221">
<time>2015-09-27T21:19:11Z</time></trkpt>
<trkpt lat="25.087858" lon="101.457091">
<time>2015-09-27T21:19:12Z</time></trkpt>
<trkpt lat="25.087927" lon="101.45689">
<time>2015-09-27T21:19:13Z</time></trkpt>
<trkpt lat="25.087977" lon="101.45677">
<time>2015-09-27T21:19:14Z</time></trkpt>
<trkpt lat="25.088047" lon="101.456619">
<time>2015-09-27T21:19:15Z</time></trkpt>
<trkpt lat="25.088096" lon="101.456509">
<time>2015-09-27T21:19:16Z</time></trkpt>
<trkpt lat="25.088186" lon="101.456369">
<time>2015-09-27T21:19:17Z</time></trkpt>
<trkpt lat="25.088286" lon="101.456219">
<time>2015-09-27T21:19:18Z</time></trkpt>
<trkpt lat="25.088465" lon="101.456038">
<time>2015-09-27T21:19:19Z</time></trkpt>
<trkpt lat="25.088834" lon="101.455667">
<time>2015-09-27T21:19:20Z</time></trkpt>
<trkpt lat="25.088854" lon="101.455657">
<time>2015-09-27T21:19:21Z</time></trkpt>
<trkpt lat="25.089373" lon="101.455136">
<time>2015-09-27T21:19:22Z</time></trkpt>
<trkpt lat="25.089852" lon="101.454645">
<time>2015-09-27T21:19:23Z</time></trkpt>
<trkpt lat="25.090141" lon="101.454344">
<time>2015-09-27T21:19:24Z</time></trkpt>
<trkpt lat="25.090351" lon="101.454124">
<time>2015-09-27T21:19:25Z</time></trkpt>
<trkpt lat="25.09046" lon="101.454013">
<time>2015-09-27T21:19:26Z</time></trkpt>
<trkpt lat="25.090919" lon="101.453542">
<time>2015-09-27T21:19:27Z</time></trkpt>
<trkpt lat="25.091099" lon="101.453362">
<time>2015-09-27T21:19:28Z</time></trkpt>
<trkpt lat="25.091249" lon="101.453201">
<time>2015-09-27T21:19:29Z</time></trkpt>
<trkpt lat="25.091568" lon="101.452851">
<time>2015-09-27T21:19:30Z</time></trkpt>
<trkpt lat="25.091618" lon="101.4528">
<time>2015-09-27T21:19:31Z</time></trkpt>
<trkpt lat="25.091957" lon="101.45238">
<time>2015-09-27T21:19:32Z</time></trkpt>
<trkpt lat="25.092256" lon="101.451969">
<time>2015-09-27T21:19:33Z</time></trkpt>
<trkpt lat="25.092904" lon="101.451207">
<time>2015-09-27T21:19:34Z</time></trkpt>
<trkpt lat="25.093173" lon="101.450906">
<time>2015-09-27T21:19:35Z</time></trkpt>
<trkpt lat="25.093233" lon="101.450836">
<time>2015-09-27T21:19:36Z</time></trkpt>
<trkpt lat="25.093702" lon="101.450295">
<time>2015-09-27T21:19:37Z</time></trkpt>
<trkpt lat="25.094231" lon="101.449643">
<time>2015-09-27T21:19:38Z</time></trkpt>
<trkpt lat="25.094271" lon="101.449613">
<time>2015-09-27T21:19:39Z</time></trkpt>
<trkpt lat="25.09444" lon="101.449413">
<time>2015-09-27T21:19:40Z</time></trkpt>
<trkpt lat="25.09452" lon="101.449323">
<time>2015-09-27T21:19:41Z</time></trkpt>
<trkpt lat="25.094799" lon="101.449012">
<time>2015-09-27T21:19:42Z</time></trkpt>
<trkpt lat="25.094909" lon="101.448872">
<time>2015-09-27T21:19:43Z</time></trkpt>
<trkpt lat="25.095009" lon="101.448722">
<time>2015-09-27T21:19:44Z</time></trkpt>
<trkpt lat="25.095048" lon="101.448611">
<time>2015-09-27T21:19:45Z</time></trkpt>
<trkpt lat="25.095068" lon="101.448531">
<time>2015-09-27T21:19:46Z</time></trkpt>
<trkpt lat="25.095078" lon="101.448401">
<time>2015-09-27T21:19:47Z</time></trkpt>
<trkpt lat="25.095068" lon="101.448271">
<time>2015-09-27T21:19:48Z</time></trkpt>
<trkpt lat="25.095017" lon="101.44802">
<time>2015-09-27T21:19:49Z</time></trkpt>
<trkpt lat="25.094957" lon="101.44776">
<time>2015-09-27T21:19:50Z</time></trkpt>
<trkpt lat="25.094906" lon="101.447519">
<time>2015-09-27T21:19:51Z</time></trkpt>
<trkpt lat="25.094886" lon="101.447419">
<time>2015-09-27T21:19:52Z</time></trkpt>
<trkpt lat="25.094866" lon="101.447329">
<time>2015-09-27T21:19:53Z</time></trkpt>
<trkpt lat="25.094835" lon="101.447128">
<time>2015-09-27T21:19:54Z</time></trkpt>
<trkpt lat="25.094815" lon="101.446978">
<time>2015-09-27T21:19:55Z</time></trkpt>
<trkpt lat="25.094805" lon="101.446858">
<time>2015-09-27T21:19:56Z</time></trkpt>
<trkpt lat="25.094794" lon="101.446667">
<time>2015-09-27T21:19:57Z</time></trkpt>
<trkpt lat="25.094794" lon="101.446407">
<time>2015-09-27T21:19:58Z</time></trkpt>
<trkpt lat="25.094804" lon="101.446166">
<time>2015-09-27T21:19:59Z</time></trkpt>
<trkpt lat="25.094813" lon="101.445766">
<time>2015-09-27T21:20:00Z</time></trkpt>
<trkpt lat="25.094812" lon="101.445475">
<time>2015-09-27T21:20:01Z</time></trkpt>
<trkpt lat="25.094802" lon="101.445255">
<time>2015-09-27T21:20:02Z</time></trkpt>
<trkpt lat="25.094761" lon="101.445034">
<time>2015-09-27T21:20:03Z</time></trkpt>
<trkpt lat="25.094691" lon="101.444814">
<time>2015-09-27T21:20:04Z</time></trkpt>
<trkpt lat="25.094621" lon="101.444673">
<time>2015-09-27T21:20:05Z</time></trkpt>
<trkpt lat="25.094601" lon="101.444633">
<time>2015-09-27T21:20:06Z</time></trkpt>
<trkpt lat="25.09452" lon="101.444493">
<time>2015-09-27T21:20:07Z</time></trkpt>
<trkpt lat="25.09446" lon="101.444363">
<time>2015-09-27T21:20:08Z</time></trkpt>
<trkpt lat="25.09441" lon="101.444243">
<time>2015-09-27T21:20:09Z</time></trkpt>
<trkpt lat="25.09438" lon="101.444162">
<time>2015-09-27T21:20:10Z</time></trkpt>
<trkpt lat="25.09437" lon="101.444102">
<time>2015-09-27T21:20:11Z</time></trkpt>
<trkpt lat="25.094369" lon="101.444032">
<time>2015-09-27T21:20:12Z</time></trkpt>
<trkpt lat="25.094379" lon="101.443962">
<time>2015-09-27T21:20:13Z</time></trkpt>
<trkpt lat="25.094399" lon="101.443872">
<time>2015-09-27T21:20:14Z</time></trkpt>
<trkpt lat="25.094429" lon="101.443782">
<time>2015-09-27T21:20:15Z</time></trkpt>
<trkpt lat="25.094528" lon="101.443531">
<time>2015-09-27T21:20:16Z</time></trkpt>
<trkpt lat="25.094638" lon="101.443221">
<time>2015-09-27T21:20:17Z</time></trkpt>
<trkpt lat="25.094658" lon="101.443161">
<time>2015-09-27T21:20:18Z</time></trkpt>
<trkpt lat="25.094727" lon="101.44293">
<time>2015-09-27T21:20:19Z</time></trkpt>
<trkpt lat="25.094797" lon="101.44268">
<time>2015-09-27T21:20:20Z</time></trkpt>
<trkpt lat="25.094936" lon="101.442119">
<time>2015-09-27T21:20:21Z</time></trkpt>
<trkpt lat="25.095035" lon="101.441728">
<time>2015-09-27T21:20:22Z</time></trkpt>
<trkpt lat="25.095075" lon="101.441578">
<time>2015-09-27T21:20:23Z</time></trkpt>
<trkpt lat="25.095164" lon="101.441287">
<time>2015-09-27T21:20:24Z</time></trkpt>
<trkpt lat="25.095254" lon="101.441047">
<time>2015-09-27T21:20:25Z</time></trkpt>
<trkpt lat="25.095364" lon="101.440836">
<time>2015-09-27T21:20:26Z</time></trkpt>
<trkpt lat="25.095443" lon="101.440666">
<time>2015-09-27T21:20:27Z</time></trkpt>
<trkpt lat="25.095583" lon="101.440406">
<time>2015-09-27T21:20:28Z</time></trkpt>
<trkpt lat="25.095682" lon="101.440175">
<time>2015-09-27T21:20:29Z</time></trkpt>
<trkpt lat="25.095772" lon="101.439945">
<time>2015-09-27T21:20:30Z</time></trkpt>
<trkpt lat="25.095891" lon="101.439554">
<time>2015-09-27T21:20:31Z</time></trkpt>
<trkpt lat="25.095981" lon="101.439264">
<time>2015-09-27T21:20:32Z</time></trkpt>
<trkpt lat="25.09607" lon="101.438973">
<time>2015-09-27T21:20:33Z</time></trkpt>
<trkpt lat="25.09616" lon="101.438693">
<time>2015-09-27T21:20:34Z</time></trkpt>
<trkpt lat="25.096249" lon="101.438422">
<time>2015-09-27T21:20:35Z</time></trkpt>
<trkpt lat="25.096309" lon="101.438242">
<time>2015-09-27T21:20:36Z</time></trkpt>
<trkpt lat="25.096379" lon="101.438072">
<time>2015-09-27T21:20:37Z</time></trkpt>
<trkpt lat="25.096448" lon="101.437891">
<time>2015-09-27T21:20:38Z</time></trkpt>
<trkpt lat="25.096528" lon="101.437741">
<time>2015-09-27T21:20:39Z</time></trkpt>
<trkpt lat="25.096628" lon="101.437591">
<time>2015-09-27T21:20:40Z</time></trkpt>
<trkpt lat="25.096768" lon="101.43737">
<time>2015-09-27T21:20:41Z</time></trkpt>
<trkpt lat="25.096927" lon="101.43714">
<time>2015-09-27T21:20:42Z</time></trkpt>
<trkpt lat="25.097197" lon="101.436779">
<time>2015-09-27T21:20:43Z</time></trkpt>
<trkpt lat="25.097366" lon="101.436549">
<time>2015-09-27T21:20:44Z</time></trkpt>
<trkpt lat="25.097486" lon="101.436379">
<time>2015-09-27T21:20:45Z</time></trkpt>
<trkpt lat="25.097636" lon="101.436179">
<time>2015-09-27T21:20:46Z</time></trkpt>
<trkpt lat="25.097785" lon="101.435968">
<time>2015-09-27T21:20:47Z</time></trkpt>
<trkpt lat="25.097935" lon="101.435778">
<time>2015-09-27T21:20:48Z</time></trkpt>
<trkpt lat="25.098125" lon="101.435538">
<time>2015-09-27T21:20:49Z</time></trkpt>
<trkpt lat="25.098164" lon="101.435477">
<time>2015-09-27T21:20:50Z</time></trkpt>
<trkpt lat="25.098244" lon="101.435377">
<time>2015-09-27T21:20:51Z</time></trkpt>
<trkpt lat="25.098554" lon="101.434937">
<time>2015-09-27T21:20:52Z</time></trkpt>
<trkpt lat="25.098663" lon="101.434766">
<time>2015-09-27T21:20:53Z</time></trkpt>
<trkpt lat="25.098723" lon="101.434636">
<time>2015-09-27T21:20:54Z</time></trkpt>
<trkpt lat="25.098763" lon="101.434546">
<time>2015-09-27T21:20:55Z</time></trkpt>
<trkpt lat="25.098773" lon="101.434506">
<time>2015-09-27T21:20:56Z</time></trkpt>
<trkpt lat="25.098823" lon="101.434366">
<time>2015-09-27T21:20:57Z</time></trkpt>
<trkpt lat="25.098852" lon="101.434226">
<time>2015-09-27T21:20:58Z</time></trkpt>
<trkpt lat="25.098892" lon="101.433995">
<time>2015-09-27T21:20:59Z</time></trkpt>
<trkpt lat="25.098902" lon="101.433915">
<time>2015-09-27T21:21:00Z</time></trkpt>
<trkpt lat="25.098932" lon="101.433695">
<time>2015-09-27T21:21:01Z</time></trkpt>
<trkpt lat="25.098961" lon="101.433495">
<time>2015-09-27T21:21:02Z</time></trkpt>
<trkpt lat="25.099011" lon="101.433234">
<time>2015-09-27T21:21:03Z</time></trkpt>
<trkpt lat="25.099051" lon="101.432944">
<time>2015-09-27T21:21:04Z</time></trkpt>
<trkpt lat="25.09909" lon="101.432673">
<time>2015-09-27T21:21:05Z</time></trkpt>
<trkpt lat="25.09913" lon="101.432413">
<time>2015-09-27T21:21:06Z</time></trkpt>
<trkpt lat="25.099179" lon="101.432113">
<time>2015-09-27T21:21:07Z</time></trkpt>
<trkpt lat="25.099229" lon="101.431832">
<time>2015-09-27T21:21:08Z</time></trkpt>
<trkpt lat="25.099279" lon="101.431512">
<time>2015-09-27T21:21:09Z</time></trkpt>
<trkpt lat="25.099318" lon="101.431271">
<time>2015-09-27T21:21:10Z</time></trkpt>
<trkpt lat="25.099358" lon="101.431011">
<time>2015-09-27T21:21:11Z</time></trkpt>
<trkpt lat="25.099388" lon="101.430901">
<time>2015-09-27T21:21:12Z</time></trkpt>
<trkpt lat="25.099408" lon="101.430811">
<time>2015-09-27T21:21:13Z</time></trkpt>
<trkpt lat="25.099447" lon="101.430721">
<time>2015-09-27T21:21:14Z</time></trkpt>
<trkpt lat="25.099517" lon="101.430611">
<time>2015-09-27T21:21:15Z</time></trkpt>
<trkpt lat="25.099607" lon="101.43049">
<time>2015-09-27T21:21:16Z</time></trkpt>
<trkpt lat="25.099787" lon="101.43031">
<time>2015-09-27T21:21:17Z</time></trkpt>
<trkpt lat="25.099997" lon="101.43012">
<time>2015-09-27T21:21:18Z</time></trkpt>
<trkpt lat="25.100386" lon="101.42976">
<time>2015-09-27T21:21:19Z</time></trkpt>
<trkpt lat="25.100516" lon="101.429639">
<time>2015-09-27T21:21:20Z</time></trkpt>
<trkpt lat="25.100816" lon="101.429369">
<time>2015-09-27T21:21:21Z</time></trkpt>
<trkpt lat="25.101185" lon="101.429029">
<time>2015-09-27T21:21:22Z</time></trkpt>
<trkpt lat="25.101555" lon="101.428688">
<time>2015-09-27T21:21:23Z</time></trkpt>
<trkpt lat="25.101854" lon="101.428398">
<time>2015-09-27T21:21:24Z</time></trkpt>
<trkpt lat="25.102064" lon="101.428208">
<time>2015-09-27T21:21:25Z</time></trkpt>
<trkpt lat="25.102304" lon="101.427997">
<time>2015-09-27T21:21:26Z</time></trkpt>
<trkpt lat="25.102603" lon="101.427707">
<time>2015-09-27T21:21:27Z</time></trkpt>
<trkpt lat="25.102733" lon="101.427587">
<time>2015-09-27T21:21:28Z</time></trkpt>
<trkpt lat="25.102873" lon="101.427457">
<time>2015-09-27T21:21:29Z</time></trkpt>
<trkpt lat="25.103043" lon="101.427277">
<time>2015-09-27T21:21:30Z</time></trkpt>
<trkpt lat="25.103203" lon="101.427086">
<time>2015-09-27T21:21:31Z</time></trkpt>
<trkpt lat="25.103382" lon="101.426846">
<time>2015-09-27T21:21:32Z</time></trkpt>
<trkpt lat="25.103512" lon="101.426656">
<time>2015-09-27T21:21:33Z</time></trkpt>
<trkpt lat="25.103582" lon="101.426556">
<time>2015-09-27T21:21:34Z</time></trkpt>
<trkpt lat="25.103702" lon="101.426386">
<time>2015-09-27T21:21:35Z</time></trkpt>
<trkpt lat="25.103762" lon="101.426305">
<time>2015-09-27T21:21:36Z</time></trkpt>
<trkpt lat="25.103841" lon="101.426185">
<time>2015-09-27T21:21:37Z</time></trkpt>
<trkpt lat="25.103911" lon="101.426085">
<time>2015-09-27T21:21:38Z</time></trkpt>
<trkpt lat="25.104011" lon="101.425945">
<time>2015-09-27T21:21:39Z</time></trkpt>
<trkpt lat="25.104101" lon="101.425825">
<time>2015-09-27T21:21:40Z</time></trkpt>
<trkpt lat="25.104181" lon="101.425745">
<time>2015-09-27T21:21:41Z</time></trkpt>
<trkpt lat="25.104271" lon="101.425655">
<time>2015-09-27T21:21:42Z</time></trkpt>
<trkpt lat="25.104351" lon="101.425585">
<time>2015-09-27T21:21:43Z</time></trkpt>
<trkpt lat="25.104481" lon="101.425495">
<time>2015-09-27T21:21:44Z</time></trkpt>
<trkpt lat="25.1046" lon="101.425424">
<time>2015-09-27T21:21:45Z</time></trkpt>
<trkpt lat="25.10471" lon="101.425374">
<time>2015-09-27T21:21:46Z</time></trkpt>
<trkpt lat="25.10485" lon="101.425314">
<time>2015-09-27T21:21:47Z</time></trkpt>
<trkpt lat="25.10499" lon="101.425254">
<time>2015-09-27T21:21:48Z</time></trkpt>
<trkpt lat="25.10519" lon="101.425174">
<time>2015-09-27T21:21:49Z</time></trkpt>
<trkpt lat="25.10537" lon="101.425094">
<time>2015-09-27T21:21:50Z</time></trkpt>
<trkpt lat="25.10561" lon="101.425004">
<time>2015-09-27T21:21:51Z</time></trkpt>
<trkpt lat="25.10579" lon="101.424924">
<time>2015-09-27T21:21:52Z</time></trkpt>
<trkpt lat="25.10597" lon="101.424844">
<time>2015-09-27T21:21:53Z</time></trkpt>
<trkpt lat="25.10623" lon="101.424734">
<time>2015-09-27T21:21:54Z</time></trkpt>
<trkpt lat="25.106419" lon="101.424644">
<time>2015-09-27T21:21:55Z</time></trkpt>
<trkpt lat="25.106559" lon="101.424574">
<time>2015-09-27T21:21:56Z</time></trkpt>
<trkpt lat="25.106769" lon="101.424493">
<time>2015-09-27T21:21:57Z</time></trkpt>
<trkpt lat="25.106959" lon="101.424423">
<time>2015-09-27T21:21:58Z</time></trkpt>
<trkpt lat="25.107189" lon="101.424323">
<time>2015-09-27T21:21:59Z</time></trkpt>
<trkpt lat="25.107309" lon="101.424273">
<time>2015-09-27T21:22:00Z</time></trkpt>
<trkpt lat="25.107449" lon="101.424193">
<time>2015-09-27T21:22:01Z</time></trkpt>
<trkpt lat="25.107579" lon="101.424103">
<time>2015-09-27T21:22:02Z</time></trkpt>
<trkpt lat="25.107759" lon="101.423943">
<time>2015-09-27T21:22:03Z</time></trkpt>
<trkpt lat="25.107908" lon="101.423813">
<time>2015-09-27T21:22:04Z</time></trkpt>
<trkpt lat="25.108038" lon="101.423693">
<time>2015-09-27T21:22:05Z</time></trkpt>
<trkpt lat="25.108188" lon="101.423563">
<time>2015-09-27T21:22:06Z</time></trkpt>
<trkpt lat="25.108368" lon="101.423412">
<time>2015-09-27T21:22:07Z</time></trkpt>
<trkpt lat="25.108488" lon="101.423292">
<time>2015-09-27T21:22:08Z</time></trkpt>
<trkpt lat="25.108588" lon="101.423202">
<time>2015-09-27T21:22:09Z</time></trkpt>
<trkpt lat="25.108728" lon="101.423052">
<time>2015-09-27T21:22:10Z</time></trkpt>
<trkpt lat="25.108807" lon="101.422942">
<time>2015-09-27T21:22:11Z</time></trkpt>
<trkpt lat="25.108917" lon="101.422772">
<time>2015-09-27T21:22:12Z</time></trkpt>
<trkpt lat="25.109007" lon="101.422582">
<time>2015-09-27T21:22:13Z</time></trkpt>
<trkpt lat="25.109107" lon="101.422261">
<time>2015-09-27T21:22:14Z</time></trkpt>
<trkpt lat="25.109256" lon="101.421791">
<time>2015-09-27T21:22:15Z</time></trkpt>
<trkpt lat="25.109376" lon="101.421421">
<time>2015-09-27T21:22:16Z</time></trkpt>
<trkpt lat="25.109456" lon="101.42116">
<time>2015-09-27T21:22:17Z</time></trkpt>
<trkpt lat="25.109575" lon="101.42081">
<time>2015-09-27T21:22:18Z</time></trkpt>
<trkpt lat="25.109715" lon="101.42041">
<time>2015-09-27T21:22:19Z</time></trkpt>
<trkpt lat="25.109875" lon="101.419989">
<time>2015-09-27T21:22:20Z</time></trkpt>
<trkpt lat="25.110004" lon="101.419619">
<time>2015-09-27T21:22:21Z</time></trkpt>
<trkpt lat="25.110064" lon="101.419439">
<time>2015-09-27T21:22:22Z</time></trkpt>
<trkpt lat="25.110114" lon="101.419259">
<time>2015-09-27T21:22:23Z</time></trkpt>
<trkpt lat="25.110134" lon="101.419099">
<time>2015-09-27T21:22:24Z</time></trkpt>
<trkpt lat="25.110134" lon="101.418919">
<time>2015-09-27T21:22:25Z</time></trkpt>
<trkpt lat="25.110114" lon="101.418779">
<time>2015-09-27T21:22:26Z</time></trkpt>
<trkpt lat="25.110073" lon="101.418528">
<time>2015-09-27T21:22:27Z</time></trkpt>
<trkpt lat="25.109923" lon="101.417978">
<time>2015-09-27T21:22:28Z</time></trkpt>
<trkpt lat="25.109893" lon="101.417868">
<time>2015-09-27T21:22:29Z</time></trkpt>
<trkpt lat="25.109833" lon="101.417688">
<time>2015-09-27T21:22:30Z</time></trkpt>
<trkpt lat="25.109752" lon="101.417378">
<time>2015-09-27T21:22:31Z</time></trkpt>
<trkpt lat="25.109712" lon="101.417218">
<time>2015-09-27T21:22:32Z</time></trkpt>
<trkpt lat="25.109682" lon="101.417067">
<time>2015-09-27T21:22:33Z</time></trkpt>
<trkpt lat="25.109672" lon="101.416947">
<time>2015-09-27T21:22:34Z</time></trkpt>
<trkpt lat="25.109682" lon="101.416807">
<time>2015-09-27T21:22:35Z</time></trkpt>
<trkpt lat="25.109732" lon="101.416667">
<time>2015-09-27T21:22:36Z</time></trkpt>
<trkpt lat="25.109802" lon="101.416517">
<time>2015-09-27T21:22:37Z</time></trkpt>
<trkpt lat="25.109922" lon="101.416307">
<time>2015-09-27T21:22:38Z</time></trkpt>
<trkpt lat="25.110181" lon="101.415887">
<time>2015-09-27T21:22:39Z</time></trkpt>
<trkpt lat="25.110371" lon="101.415597">
<time>2015-09-27T21:22:40Z</time></trkpt>
<trkpt lat="25.110511" lon="101.415386">
<time>2015-09-27T21:22:41Z</time></trkpt>
<trkpt lat="25.110641" lon="101.415166">
<time>2015-09-27T21:22:42Z</time></trkpt>
<trkpt lat="25.110761" lon="101.414956">
<time>2015-09-27T21:22:43Z</time></trkpt>
<trkpt lat="25.111" lon="101.414566">
<time>2015-09-27T21:22:44Z</time></trkpt>
<trkpt lat="25.11122" lon="101.414246">
<time>2015-09-27T21:22:45Z</time></trkpt>
<trkpt lat="25.11159" lon="101.413676">
<time>2015-09-27T21:22:46Z</time></trkpt>
<trkpt lat="25.11192" lon="101.413225">
<time>2015-09-27T21:22:47Z</time></trkpt>
<trkpt lat="25.112359" lon="101.412595">
<time>2015-09-27T21:22:48Z</time></trkpt>
<trkpt lat="25.112609" lon="101.412235">
<time>2015-09-27T21:22:49Z</time></trkpt>
<trkpt lat="25.112839" lon="101.411925">
<time>2015-09-27T21:22:50Z</time></trkpt>
<trkpt lat="25.113408" lon="101.411105">
<time>2015-09-27T21:22:51Z</time></trkpt>
<trkpt lat="25.113788" lon="101.410554">
<time>2015-09-27T21:22:52Z</time></trkpt>
<trkpt lat="25.113928" lon="101.410354">
<time>2015-09-27T21:22:53Z</time></trkpt>
<trkpt lat="25.114028" lon="101.410184">
<time>2015-09-27T21:22:54Z</time></trkpt>
<trkpt lat="25.114088" lon="101.410054">
<time>2015-09-27T21:22:55Z</time></trkpt>
<trkpt lat="25.114118" lon="101.409954">
<time>2015-09-27T21:22:56Z</time></trkpt>
<trkpt lat="25.114138" lon="101.409834">
<time>2015-09-27T21:22:57Z</time></trkpt>
<trkpt lat="25.114138" lon="101.409684">
<time>2015-09-27T21:22:58Z</time></trkpt>
<trkpt lat="25.114128" lon="101.409514">
<time>2015-09-27T21:22:59Z</time></trkpt>
<trkpt lat="25.114077" lon="101.409294">
<time>2015-09-27T21:23:00Z</time></trkpt>
<trkpt lat="25.113947" lon="101.408664">
<time>2015-09-27T21:23:01Z</time></trkpt>
<trkpt lat="25.113847" lon="101.408234">
<time>2015-09-27T21:23:02Z</time></trkpt>
<trkpt lat="25.113807" lon="101.408024">
<time>2015-09-27T21:23:03Z</time></trkpt>
<trkpt lat="25.113737" lon="101.407764">
<time>2015-09-27T21:23:04Z</time></trkpt>
<trkpt lat="25.113697" lon="101.407584">
<time>2015-09-27T21:23:05Z</time></trkpt>
<trkpt lat="25.113687" lon="101.407494">
<time>2015-09-27T21:23:06Z</time></trkpt>
<trkpt lat="25.113677" lon="101.407424">
<time>2015-09-27T21:23:07Z</time></trkpt>
<trkpt lat="25.113677" lon="101.407354">
<time>2015-09-27T21:23:08Z</time></trkpt>
<trkpt lat="25.113677" lon="101.407344">
<time>2015-09-27T21:23:09Z</time></trkpt>
<trkpt lat="25.113687" lon="101.407294">
<time>2015-09-27T21:23:10Z</time></trkpt>
<trkpt lat="25.113707" lon="101.407224">
<time>2015-09-27T21:23:11Z</time></trkpt>
<trkpt lat="25.113747" lon="101.407164">
<time>2015-09-27T21:23:12Z</time></trkpt>
<trkpt lat="25.113787" lon="101.407104">
<time>2015-09-27T21:23:13Z</time></trkpt>
<trkpt lat="25.113857" lon="101.407044">
<time>2015-09-27T21:23:14Z</time></trkpt>
<trkpt lat="25.113867" lon="101.407034">
<time>2015-09-27T21:23:15Z</time></trkpt>
<trkpt lat="25.113927" lon="101.406994">
<time>2015-09-27T21:23:16Z</time></trkpt>
<trkpt lat="25.114067" lon="101.406934">
<time>2015-09-27T21:23:17Z</time></trkpt>
<trkpt lat="25.114227" lon="101.406854">
<time>2015-09-27T21:23:18Z</time></trkpt>
<trkpt lat="25.114317" lon="101.406814">
<time>2015-09-27T21:23:19Z</time></trkpt>
<trkpt lat="25.114637" lon="101.406674">
<time>2015-09-27T21:23:20Z</time></trkpt>
<trkpt lat="25.114827" lon="101.406584">
<time>2015-09-27T21:23:21Z</time></trkpt>
<trkpt lat="25.114987" lon="101.406504">
<time>2015-09-27T21:23:22Z</time></trkpt>
<trkpt lat="25.115186" lon="101.406414">
<time>2015-09-27T21:23:23Z</time></trkpt>
<trkpt lat="25.115426" lon="101.406304">
<time>2015-09-27T21:23:24Z</time></trkpt>
<trkpt lat="25.115676" lon="101.406174">
<time>2015-09-27T21:23:25Z</time></trkpt>
<trkpt lat="25.115746" lon="101.406144">
<time>2015-09-27T21:23:26Z</time></trkpt>
<trkpt lat="25.115876" lon="101.406064">
<time>2015-09-27T21:23:27Z</time></trkpt>
<trkpt lat="25.115926" lon="101.406034">
<time>2015-09-27T21:23:28Z</time></trkpt>
<trkpt lat="25.115986" lon="101.405994">
<time>2015-09-27T21:23:29Z</time></trkpt>
<trkpt lat="25.116156" lon="101.405854">
<time>2015-09-27T21:23:30Z</time></trkpt>
<trkpt lat="25.116286" lon="101.405744">
<time>2015-09-27T21:23:31Z</time></trkpt>
<trkpt lat="25.116386" lon="101.405634">
<time>2015-09-27T21:23:32Z</time></trkpt>
<trkpt lat="25.116506" lon="101.405494">
<time>2015-09-27T21:23:33Z</time></trkpt>
<trkpt lat="25.116656" lon="101.405274">
<time>2015-09-27T21:23:34Z</time></trkpt>
<trkpt lat="25.116806" lon="101.405074">
<time>2015-09-27T21:23:35Z</time></trkpt>
<trkpt lat="25.116896" lon="101.404974">
<time>2015-09-27T21:23:36Z</time></trkpt>
<trkpt lat="25.116996" lon="101.404854">
<time>2015-09-27T21:23:37Z</time></trkpt>
<trkpt lat="25.117156" lon="101.404694">
<time>2015-09-27T21:23:38Z</time></trkpt>
<trkpt lat="25.117356" lon="101.404514">
<time>2015-09-27T21:23:39Z</time></trkpt>
<trkpt lat="25.118466" lon="101.403594">
<time>2015-09-27T21:23:40Z</time></trkpt>
<trkpt lat="25.118906" lon="101.403234">
<time>2015-09-27T21:23:41Z</time></trkpt>
<trkpt lat="25.119206" lon="101.402984">
<time>2015-09-27T21:23:42Z</time></trkpt>
<trkpt lat="25.119345" lon="101.402874">
<time>2015-09-27T21:23:43Z</time></trkpt>
<trkpt lat="25.119525" lon="101.402724">
<time>2015-09-27T21:23:44Z</time></trkpt>
<trkpt lat="25.119865" lon="101.402434">
<time>2015-09-27T21:23:45Z</time></trkpt>
<trkpt lat="25.120155" lon="101.402194">
<time>2015-09-27T21:23:46Z</time></trkpt>
<trkpt lat="25.120315" lon="101.402064">
<time>2015-09-27T21:23:47Z</time></trkpt>
<trkpt lat="25.120545" lon="101.401904">
<time>2015-09-27T21:23:48Z</time></trkpt>
<trkpt lat="25.120675" lon="101.401824">
<time>2015-09-27T21:23:49Z</time></trkpt>
<trkpt lat="25.120805" lon="101.401754">
<time>2015-09-27T21:23:50Z</time></trkpt>
<trkpt lat="25.120855" lon="101.401724">
<time>2015-09-27T21:23:51Z</time></trkpt>
<trkpt lat="25.121335" lon="101.401474">
<time>2015-09-27T21:23:52Z</time></trkpt>
<trkpt lat="25.122015" lon="101.401114">
<time>2015-09-27T21:23:53Z</time></trkpt>
<trkpt lat="25.122825" lon="101.400664">
<time>2015-09-27T21:23:54Z</time></trkpt>
<trkpt lat="25.123175" lon="101.400474">
<time>2015-09-27T21:23:55Z</time></trkpt>
<trkpt lat="25.123365" lon="101.400384">
<time>2015-09-27T21:23:56Z</time></trkpt>
<trkpt lat="25.123615" lon="101.400254">
<time>2015-09-27T21:23:57Z</time></trkpt>
<trkpt lat="25.123895" lon="101.400104">
<time>2015-09-27T21:23:58Z</time></trkpt>
<trkpt lat="25.124225" lon="101.399904">
<time>2015-09-27T21:23:59Z</time></trkpt>
<trkpt lat="25.124295" lon="101.399854">
<time>2015-09-27T21:24:00Z</time></trkpt>
<trkpt lat="25.124375" lon="101.399794">
<time>2015-09-27T21:24:01Z</time></trkpt>
<trkpt lat="25.124495" lon="101.399684">
<time>2015-09-27T21:24:02Z</time></trkpt>
<trkpt lat="25.124615" lon="101.399564">
<time>2015-09-27T21:24:03Z</time></trkpt>
<trkpt lat="25.124725" lon="101.399424">
<time>2015-09-27T21:24:04Z</time></trkpt>
<trkpt lat="25.124795" lon="101.399324">
<time>2015-09-27T21:24:05Z</time></trkpt>
<trkpt lat="25.124865" lon="101.399204">
<time>2015-09-27T21:24:06Z</time></trkpt>
<trkpt lat="25.124935" lon="101.399024">
<time>2015-09-27T21:24:07Z</time></trkpt>
<trkpt lat="25.125055" lon="101.398674">
<time>2015-09-27T21:24:08Z</time></trkpt>
<trkpt lat="25.125115" lon="101.398514">
<time>2015-09-27T21:24:09Z</time></trkpt>
<trkpt lat="25.125325" lon="101.397885">
<time>2015-09-27T21:24:10Z</time></trkpt>
<trkpt lat="25.125535" lon="101.397275">
<time>2015-09-27T21:24:11Z</time></trkpt>
<trkpt lat="25.125675" lon="101.396845">
<time>2015-09-27T21:24:12Z</time></trkpt>
<trkpt lat="25.125755" lon="101.396605">
<time>2015-09-27T21:24:13Z</time></trkpt>
<trkpt lat="25.125815" lon="101.396465">
<time>2015-09-27T21:24:14Z</time></trkpt>
<trkpt lat="25.125835" lon="101.396405">
<time>2015-09-27T21:24:15Z</time></trkpt>
<trkpt lat="25.125855" lon="101.396365">
<time>2015-09-27T21:24:16Z</time></trkpt>
<trkpt lat="25.125905" lon="101.396275">
<time>2015-09-27T21:24:17Z</time></trkpt>
<trkpt lat="25.125975" lon="101.396185">
<time>2015-09-27T21:24:18Z</time></trkpt>
<trkpt lat="25.126055" lon="101.396115">
<time>2015-09-27T21:24:19Z</time></trkpt>
<trkpt lat="25.126135" lon="101.396045">
<time>2015-09-27T21:24:20Z</time></trkpt>
<trkpt lat="25.126275" lon="101.395955">
<time>2015-09-27T21:24:21Z</time></trkpt>
<trkpt lat="25.126405" lon="101.395865">
<time>2015-09-27T21:24:22Z</time></trkpt>
<trkpt lat="25.126495" lon="101.395785">
<time>2015-09-27T21:24:23Z</time></trkpt>
<trkpt lat="25.126615" lon="101.395676">
<time>2015-09-27T21:24:24Z</time></trkpt>
<trkpt lat="25.126705" lon="101.395566">
<time>2015-09-27T21:24:25Z</time></trkpt>
<trkpt lat="25.126765" lon="101.395476">
<time>2015-09-27T21:24:26Z</time></trkpt>
<trkpt lat="25.126815" lon="101.395366">
<time>2015-09-27T21:24:27Z</time></trkpt>
<trkpt lat="25.126855" lon="101.395266">
<time>2015-09-27T21:24:28Z</time></trkpt>
<trkpt lat="25.126885" lon="101.395096">
<time>2015-09-27T21:24:29Z</time></trkpt>
<trkpt lat="25.126925" lon="101.394826">
<time>2015-09-27T21:24:30Z</time></trkpt>
<trkpt lat="25.126946" lon="101.394506">
<time>2015-09-27T21:24:31Z</time></trkpt>
<trkpt lat="25.126986" lon="101.394056">
<time>2015-09-27T21:24:32Z</time></trkpt>
<trkpt lat="25.126996" lon="101.393846">
<time>2015-09-27T21:24:33Z</time></trkpt>
<trkpt lat="25.126996" lon="101.393697">
<time>2015-09-27T21:24:34Z</time></trkpt>
<trkpt lat="25.126966" lon="101.393477">
<time>2015-09-27T21:24:35Z</time></trkpt>
<trkpt lat="25.126856" lon="101.392967">
<time>2015-09-27T21:24:36Z</time></trkpt>
<trkpt lat="25.126766" lon="101.392567">
<time>2015-09-27T21:24:37Z</time></trkpt>
<trkpt lat="25.126716" lon="101.392297">
<time>2015-09-27T21:24:38Z</time></trkpt>
<trkpt lat="25.126596" lon="101.391658">
<time>2015-09-27T21:24:39Z</time></trkpt>
<trkpt lat="25.126557" lon="101.391358">
<time>2015-09-27T21:24:40Z</time></trkpt>
<trkpt lat="25.126547" lon="101.391068">
<time>2015-09-27T21:24:41Z</time></trkpt>
<trkpt lat="25.126567" lon="101.390828">
<time>2015-09-27T21:24:42Z</time></trkpt>
<trkpt lat="25.126587" lon="101.390569">
<time>2015-09-27T21:24:43Z</time></trkpt>
<trkpt lat="25.126637" lon="101.390199">
<time>2015-09-27T21:24:44Z</time></trkpt>
<trkpt lat="25.126677" lon="101.390009">
<time>2015-09-27T21:24:45Z</time></trkpt>
<trkpt lat="25.126717" lon="101.389879">
<time>2015-09-27T21:24:46Z</time></trkpt>
<trkpt lat="25.126777" lon="101.389749">
<time>2015-09-27T21:24:47Z</time></trkpt>
<trkpt lat="25.126887" lon="101.389559">
<time>2015-09-27T21:24:48Z</time></trkpt>
<trkpt lat="25.127128" lon="101.3892">
<time>2015-09-27T21:24:49Z</time></trkpt>
<trkpt lat="25.127448" lon="101.38873">
<time>2015-09-27T21:24:50Z</time></trkpt>
<trkpt lat="25.127618" lon="101.38848">
<time>2015-09-27T21:24:51Z</time></trkpt>
<trkpt lat="25.128038" lon="101.387861">
<time>2015-09-27T21:24:52Z</time></trkpt>
<trkpt lat="25.128238" lon="101.387581">
<time>2015-09-27T21:24:53Z</time></trkpt>
<trkpt lat="25.128288" lon="101.387521">
<time>2015-09-27T21:24:54Z</time></trkpt>
<trkpt lat="25.128348" lon="101.387471">
<time>2015-09-27T21:24:55Z</time></trkpt>
<trkpt lat="25.128408" lon="101.387421">
<time>2015-09-27T21:24:56Z</time></trkpt>
<trkpt lat="25.128498" lon="101.387371">
<time>2015-09-27T21:24:57Z</time></trkpt>
<trkpt lat="25.128588" lon="101.387341">
<time>2015-09-27T21:24:58Z</time></trkpt>
<trkpt lat="25.128738" lon="101.387301">
<time>2015-09-27T21:24:59Z</time></trkpt>
<trkpt lat="25.128878" lon="101.387281">
<time>2015-09-27T21:25:00Z</time></trkpt>
<trkpt lat="25.129128" lon="101.387241">
<time>2015-09-27T21:25:01Z</time></trkpt>
<trkpt lat="25.129748" lon="101.387151">
<time>2015-09-27T21:25:02Z</time></trkpt>
<trkpt lat="25.130128" lon="101.387091">
<time>2015-09-27T21:25:03Z</time></trkpt>
<trkpt lat="25.130348" lon="101.387051">
<time>2015-09-27T21:25:04Z</time></trkpt>
<trkpt lat="25.130498" lon="101.387021">
<time>2015-09-27T21:25:05Z</time></trkpt>
<trkpt lat="25.130588" lon="101.386991">
<time>2015-09-27T21:25:06Z</time></trkpt>
<trkpt lat="25.130638" lon="101.386951">
<time>2015-09-27T21:25:07Z</time></trkpt>
<trkpt lat="25.130698" lon="101.386911">
<time>2015-09-27T21:25:08Z</time></trkpt>
<trkpt lat="25.130738" lon="101.386861">
<time>2015-09-27T21:25:09Z</time></trkpt>
<trkpt lat="25.130769" lon="101.386811">
<time>2015-09-27T21:25:10Z</time></trkpt>
<trkpt lat="25.130799" lon="101.386751">
<time>2015-09-27T21:25:11Z</time></trkpt>
<trkpt lat="25.130819" lon="101.386682">
<time>2015-09-27T21:25:12Z</time></trkpt>
<trkpt lat="25.130819" lon="101.386612">
<time>2015-09-27T21:25:13Z</time></trkpt>
<trkpt lat="25.130819" lon="101.386562">
<time>2015-09-27T21:25:14Z</time></trkpt>
<trkpt lat="25.130809" lon="101.386512">
<time>2015-09-27T21:25:15Z</time></trkpt>
<trkpt lat="25.130789" lon="101.386432">
<time>2015-09-27T21:25:16Z</time></trkpt>
<trkpt lat="25.130749" lon="101.386352">
<time>2015-09-27T21:25:17Z</time></trkpt>
<trkpt lat="25.130589" lon="101.386062">
<time>2015-09-27T21:25:18Z</time></trkpt>
<trkpt lat="25.130389" lon="101.385772">
<time>2015-09-27T21:25:19Z</time></trkpt>
<trkpt lat="25.130229" lon="101.385493">
<time>2015-09-27T21:25:20Z</time></trkpt>
<trkpt lat="25.130109" lon="101.385293">
<time>2015-09-27T21:25:21Z</time></trkpt>
<trkpt lat="25.12998" lon="101.385083">
<time>2015-09-27T21:25:22Z</time></trkpt>
<trkpt lat="25.12992" lon="101.385003">
<time>2015-09-27T21:25:23Z</time></trkpt>
<trkpt lat="25.12992" lon="101.385003">
<time>2015-09-27T21:25:24Z</time></trkpt>
<trkpt lat="25.13005" lon="101.384683">
<time>2015-09-27T21:25:25Z</time></trkpt>
<trkpt lat="25.13018" lon="101.384384">
<time>2015-09-27T21:25:26Z</time></trkpt>
<trkpt lat="25.13035" lon="101.384014">
<time>2015-09-27T21:25:27Z</time></trkpt>
<trkpt lat="25.130471" lon="101.383724">
<time>2015-09-27T21:25:28Z</time></trkpt>
<trkpt lat="25.130501" lon="101.383594">
<time>2015-09-27T21:25:29Z</time></trkpt>
<trkpt lat="25.130531" lon="101.383405">
<time>2015-09-27T21:25:30Z</time></trkpt>
<trkpt lat="25.130541" lon="101.383175">
<time>2015-09-27T21:25:31Z</time></trkpt>
<trkpt lat="25.130551" lon="101.382965">
<time>2015-09-27T21:25:32Z</time></trkpt>
<trkpt lat="25.130541" lon="101.382576">
<time>2015-09-27T21:25:33Z</time></trkpt>
<trkpt lat="25.130542" lon="101.382286">
<time>2015-09-27T21:25:34Z</time></trkpt>
<trkpt lat="25.130542" lon="101.382156">
<time>2015-09-27T21:25:35Z</time></trkpt>
<trkpt lat="25.130552" lon="101.382126">
<time>2015-09-27T21:25:36Z</time></trkpt>
<trkpt lat="25.130552" lon="101.382056">
<time>2015-09-27T21:25:37Z</time></trkpt>
<trkpt lat="25.130572" lon="101.381996">
<time>2015-09-27T21:25:38Z</time></trkpt>
<trkpt lat="25.130602" lon="101.381916">
<time>2015-09-27T21:25:39Z</time></trkpt>
<trkpt lat="25.130632" lon="101.381856">
<time>2015-09-27T21:25:40Z</time></trkpt>
<trkpt lat="25.130712" lon="101.381756">
<time>2015-09-27T21:25:41Z</time></trkpt>
<trkpt lat="25.130782" lon="101.381667">
<time>2015-09-27T21:25:42Z</time></trkpt>
<trkpt lat="25.130952" lon="101.381507">
<time>2015-09-27T21:25:43Z</time></trkpt>
<trkpt lat="25.131122" lon="101.381347">
<time>2015-09-27T21:25:44Z</time></trkpt>
<trkpt lat="25.131252" lon="101.381227">
<time>2015-09-27T21:25:45Z</time></trkpt>
<trkpt lat="25.131312" lon="101.381157">
<time>2015-09-27T21:25:46Z</time></trkpt>
<trkpt lat="25.131382" lon="101.381087">
<time>2015-09-27T21:25:47Z</time></trkpt>
<trkpt lat="25.131422" lon="101.381027">
<time>2015-09-27T21:25:48Z</time></trkpt>
<trkpt lat="25.131613" lon="101.380768">
<time>2015-09-27T21:25:49Z</time></trkpt>
<trkpt lat="25.131823" lon="101.380458">
<time>2015-09-27T21:25:50Z</time></trkpt>
<trkpt lat="25.131993" lon="101.380178">
<time>2015-09-27T21:25:51Z</time></trkpt>
<trkpt lat="25.132093" lon="101.380038">
<time>2015-09-27T21:25:52Z</time></trkpt>
<trkpt lat="25.132213" lon="101.379879">
<time>2015-09-27T21:25:53Z</time></trkpt>
<trkpt lat="25.132434" lon="101.379569">
<time>2015-09-27T21:25:54Z</time></trkpt>
<trkpt lat="25.132504" lon="101.379489">
<time>2015-09-27T21:25:55Z</time></trkpt>
<trkpt lat="25.132544" lon="101.379449">
<time>2015-09-27T21:25:56Z</time></trkpt>
<trkpt lat="25.132614" lon="101.379389">
<time>2015-09-27T21:25:57Z</time></trkpt>
<trkpt lat="25.132674" lon="101.379349">
<time>2015-09-27T21:25:58Z</time></trkpt>
<trkpt lat="25.132744" lon="101.379309">
<time>2015-09-27T21:25:59Z</time></trkpt>
<trkpt lat="25.132794" lon="101.379289">
<time>2015-09-27T21:26:00Z</time></trkpt>
<trkpt lat="25.133044" lon="101.379229">
<time>2015-09-27T21:26:01Z</time></trkpt>
<trkpt lat="25.133304" lon="101.379189">
<time>2015-09-27T21:26:02Z</time></trkpt>
<trkpt lat="25.133614" lon="101.379119">
<time>2015-09-27T21:26:03Z</time></trkpt>
<trkpt lat="25.133654" lon="101.379109">
<time>2015-09-27T21:26:04Z</time></trkpt>
<trkpt lat="25.134084" lon="101.37901">
<time>2015-09-27T21:26:05Z</time></trkpt>
<trkpt lat="25.134164" lon="101.37899">
<time>2015-09-27T21:26:06Z</time></trkpt>
<trkpt lat="25.134354" lon="101.37895">
<time>2015-09-27T21:26:07Z</time></trkpt>
<trkpt lat="25.134614" lon="101.37891">
<time>2015-09-27T21:26:08Z</time></trkpt>
<trkpt lat="25.134874" lon="101.37886">
<time>2015-09-27T21:26:09Z</time></trkpt>
<trkpt lat="25.135054" lon="101.37881">
<time>2015-09-27T21:26:10Z</time></trkpt>
<trkpt lat="25.135164" lon="101.37878">
<time>2015-09-27T21:26:11Z</time></trkpt>
<trkpt lat="25.135244" lon="101.37876">
<time>2015-09-27T21:26:12Z</time></trkpt>
<trkpt lat="25.135364" lon="101.37871">
<time>2015-09-27T21:26:13Z</time></trkpt>
<trkpt lat="25.135474" lon="101.37866">
<time>2015-09-27T21:26:14Z</time></trkpt>
<trkpt lat="25.135574" lon="101.37859">
<time>2015-09-27T21:26:15Z</time></trkpt>
<trkpt lat="25.135704" lon="101.37848">
<time>2015-09-27T21:26:16Z</time></trkpt>
<trkpt lat="25.135814" lon="101.37839">
<time>2015-09-27T21:26:17Z</time></trkpt>
<trkpt lat="25.136305" lon="101.378021">
<time>2015-09-27T21:26:18Z</time></trkpt>
<trkpt lat="25.136625" lon="101.377741">
<time>2015-09-27T21:26:19Z</time></trkpt>
<trkpt lat="25.136825" lon="101.377511">
<time>2015-09-27T21:26:20Z</time></trkpt>
<trkpt lat="25.137025" lon="101.377262">
<time>2015-09-27T21:26:21Z</time></trkpt>
<trkpt lat="25.137326" lon="101.376792">
<time>2015-09-27T21:26:22Z</time></trkpt>
<trkpt lat="25.137436" lon="101.376563">
<time>2015-09-27T21:26:23Z</time></trkpt>
<trkpt lat="25.137556" lon="101.376253">
<time>2015-09-27T21:26:24Z</time></trkpt>
<trkpt lat="25.137667" lon="101.375933">
<time>2015-09-27T21:26:25Z</time></trkpt>
<trkpt lat="25.137787" lon="101.375614">
<time>2015-09-27T21:26:26Z</time></trkpt>
<trkpt lat="25.137887" lon="101.375354">
<time>2015-09-27T21:26:27Z</time></trkpt>
<trkpt lat="25.137967" lon="101.375105">
<time>2015-09-27T21:26:28Z</time></trkpt>
<trkpt lat="25.137997" lon="101.375015">
<time>2015-09-27T21:26:29Z</time></trkpt>
<trkpt lat="25.138058" lon="101.374875">
<time>2015-09-27T21:26:30Z</time></trkpt>
<trkpt lat="25.138118" lon="101.374735">
<time>2015-09-27T21:26:31Z</time></trkpt>
<trkpt lat="25.138188" lon="101.374635">
<time>2015-09-27T21:26:32Z</time></trkpt>
<trkpt lat="25.138268" lon="101.374575">
<time>2015-09-27T21:26:33Z</time></trkpt>
<trkpt lat="25.138358" lon="101.374555">
<time>2015-09-27T21:26:34Z</time></trkpt>
<trkpt lat="25.138438" lon="101.374555">
<time>2015-09-27T21:26:35Z</time></trkpt>
<trkpt lat="25.138528" lon="101.374585">
<time>2015-09-27T21:26:36Z</time></trkpt>
<trkpt lat="25.138618" lon="101.374645">
<time>2015-09-27T21:26:37Z</time></trkpt>
<trkpt lat="25.138718" lon="101.374755">
<time>2015-09-27T21:26:38Z</time></trkpt>
<trkpt lat="25.138808" lon="101.374855">
<time>2015-09-27T21:26:39Z</time></trkpt>
<trkpt lat="25.138838" lon="101.374905">
<time>2015-09-27T21:26:40Z</time></trkpt>
<trkpt lat="25.138917" lon="101.375015">
<time>2015-09-27T21:26:41Z</time></trkpt>
<trkpt lat="25.138997" lon="101.375184">
<time>2015-09-27T21:26:42Z</time></trkpt>
<trkpt lat="25.139007" lon="101.375234">
<time>2015-09-27T21:26:43Z</time></trkpt>
<trkpt lat="25.139007" lon="101.375274">
<time>2015-09-27T21:26:44Z</time></trkpt>
<trkpt lat="25.139007" lon="101.375314">
<time>2015-09-27T21:26:45Z</time></trkpt>
<trkpt lat="25.138997" lon="101.375364">
<time>2015-09-27T21:26:46Z</time></trkpt>
<trkpt lat="25.138967" lon="101.375444">
<time>2015-09-27T21:26:47Z</time></trkpt>
<trkpt lat="25.138927" lon="101.375514">
<time>2015-09-27T21:26:48Z</time></trkpt>
<trkpt lat="25.138787" lon="101.375724">
<time>2015-09-27T21:26:49Z</time></trkpt>
<trkpt lat="25.138677" lon="101.375933">
<time>2015-09-27T21:26:50Z</time></trkpt>
<trkpt lat="25.138616" lon="101.376133">
<time>2015-09-27T21:26:51Z</time></trkpt>
<trkpt lat="25.138556" lon="101.376423">
<time>2015-09-27T21:26:52Z</time></trkpt>
<trkpt lat="25.138546" lon="101.376583">
<time>2015-09-27T21:26:53Z</time></trkpt>
<trkpt lat="25.138536" lon="101.376662">
<time>2015-09-27T21:26:54Z</time></trkpt>
<trkpt lat="25.138546" lon="101.376742">
<time>2015-09-27T21:26:55Z</time></trkpt>
<trkpt lat="25.138576" lon="101.376822">
<time>2015-09-27T21:26:56Z</time></trkpt>
<trkpt lat="25.138616" lon="101.376892">
<time>2015-09-27T21:26:57Z</time></trkpt>
<trkpt lat="25.138656" lon="101.376952">
<time>2015-09-27T21:26:58Z</time></trkpt>
<trkpt lat="25.138706" lon="101.376992">
<time>2015-09-27T21:26:59Z</time></trkpt>
<trkpt lat="25.138775" lon="101.377042">
<time>2015-09-27T21:27:00Z</time></trkpt>
<trkpt lat="25.138865" lon="101.377082">
<time>2015-09-27T21:27:01Z</time></trkpt>
<trkpt lat="25.139085" lon="101.377112">
<time>2015-09-27T21:27:02Z</time></trkpt>
<trkpt lat="25.139245" lon="101.377102">
<time>2015-09-27T21:27:03Z</time></trkpt>
<trkpt lat="25.139395" lon="101.377062">
<time>2015-09-27T21:27:04Z</time></trkpt>
<trkpt lat="25.139595" lon="101.377012">
<time>2015-09-27T21:27:05Z</time></trkpt>
<trkpt lat="25.140066" lon="101.376872">
<time>2015-09-27T21:27:06Z</time></trkpt>
<trkpt lat="25.140976" lon="101.376542">
<time>2015-09-27T21:27:07Z</time></trkpt>
<trkpt lat="25.141126" lon="101.376493">
<time>2015-09-27T21:27:08Z</time></trkpt>
<trkpt lat="25.141286" lon="101.376443">
<time>2015-09-27T21:27:09Z</time></trkpt>
<trkpt lat="25.141456" lon="101.376393">
<time>2015-09-27T21:27:10Z</time></trkpt>
<trkpt lat="25.141616" lon="101.376343">
<time>2015-09-27T21:27:11Z</time></trkpt>
<trkpt lat="25.141786" lon="101.376293">
<time>2015-09-27T21:27:12Z</time></trkpt>
<trkpt lat="25.141966" lon="101.376253">
<time>2015-09-27T21:27:13Z</time></trkpt>
<trkpt lat="25.142146" lon="101.376213">
<time>2015-09-27T21:27:14Z</time></trkpt>
<trkpt lat="25.142326" lon="101.376163">
<time>2015-09-27T21:27:15Z</time></trkpt>
<trkpt lat="25.142496" lon="101.376113">
<time>2015-09-27T21:27:16Z</time></trkpt>
<trkpt lat="25.142656" lon="101.376043">
<time>2015-09-27T21:27:17Z</time></trkpt>
<trkpt lat="25.142806" lon="101.375973">
<time>2015-09-27T21:27:18Z</time></trkpt>
<trkpt lat="25.142946" lon="101.375883">
<time>2015-09-27T21:27:19Z</time></trkpt>
<trkpt lat="25.143076" lon="101.375803">
<time>2015-09-27T21:27:20Z</time></trkpt>
<trkpt lat="25.143196" lon="101.375724">
<time>2015-09-27T21:27:21Z</time></trkpt>
<trkpt lat="25.143317" lon="101.375634">
<time>2015-09-27T21:27:22Z</time></trkpt>
<trkpt lat="25.143457" lon="101.375534">
<time>2015-09-27T21:27:23Z</time></trkpt>
<trkpt lat="25.143647" lon="101.375354">
<time>2015-09-27T21:27:24Z</time></trkpt>
<trkpt lat="25.143767" lon="101.375214">
<time>2015-09-27T21:27:25Z</time></trkpt>
<trkpt lat="25.143857" lon="101.375114">
<time>2015-09-27T21:27:26Z</time></trkpt>
<trkpt lat="25.143957" lon="101.375024">
<time>2015-09-27T21:27:27Z</time></trkpt>
<trkpt lat="25.143967" lon="101.375014">
<time>2015-09-27T21:27:28Z</time></trkpt>
<trkpt lat="25.144047" lon="101.374985">
<time>2015-09-27T21:27:29Z</time></trkpt>
<trkpt lat="25.144097" lon="101.374965">
<time>2015-09-27T21:27:30Z</time></trkpt>
<trkpt lat="25.144117" lon="101.374955">
<time>2015-09-27T21:27:31Z</time></trkpt>
<trkpt lat="25.144117" lon="101.374955">
<time>2015-09-27T21:27:32Z</time></trkpt>
<trkpt lat="25.143828" lon="101.374355">
<time>2015-09-27T21:27:33Z</time></trkpt>
<trkpt lat="25.143648" lon="101.373886">
<time>2015-09-27T21:27:34Z</time></trkpt>
<trkpt lat="25.143648" lon="101.373886">
<time>2015-09-27T21:27:35Z</time></trkpt>
<trkpt lat="25.143748" lon="101.373836">
<time>2015-09-27T21:27:36Z</time></trkpt>
<trkpt lat="25.143959" lon="101.373656">
<time>2015-09-27T21:27:37Z</time></trkpt>
<trkpt lat="25.143989" lon="101.373626">
<time>2015-09-27T21:27:38Z</time></trkpt>
<trkpt lat="25.143989" lon="101.373596">
<time>2015-09-27T21:27:39Z</time></trkpt>
<trkpt lat="25.143989" lon="101.373567">
<time>2015-09-27T21:27:40Z</time></trkpt>
<trkpt lat="25.143919" lon="101.373417">
<time>2015-09-27T21:27:41Z</time></trkpt>
<trkpt lat="25.143899" lon="101.373317">
<time>2015-09-27T21:27:42Z</time></trkpt>
<trkpt lat="25.143889" lon="101.373257">
<time>2015-09-27T21:27:43Z</time></trkpt>
<trkpt lat="25.143899" lon="101.373017">
<time>2015-09-27T21:27:44Z</time></trkpt>
<trkpt lat="25.143899" lon="101.372828">
<time>2015-09-27T21:27:45Z</time></trkpt>
<trkpt lat="25.143899" lon="101.372798">
<time>2015-09-27T21:27:46Z</time></trkpt>
<trkpt lat="25.14388" lon="101.372648">
<time>2015-09-27T21:27:47Z</time></trkpt>
<trkpt lat="25.14378" lon="101.372458">
<time>2015-09-27T21:27:48Z</time></trkpt>
<trkpt lat="25.14366" lon="101.372238">
<time>2015-09-27T21:27:49Z</time></trkpt>
<trkpt lat="25.14361" lon="101.372099">
<time>2015-09-27T21:27:50Z</time></trkpt>
<trkpt lat="25.14361" lon="101.371889">
<time>2015-09-27T21:27:51Z</time></trkpt>
<trkpt lat="25.143621" lon="101.371739">
<time>2015-09-27T21:27:52Z</time></trkpt>
<trkpt lat="25.143661" lon="101.371569">
<time>2015-09-27T21:27:53Z</time></trkpt>
<trkpt lat="25.143791" lon="101.37126">
<time>2015-09-27T21:27:54Z</time></trkpt>
<trkpt lat="25.143831" lon="101.3712">
<time>2015-09-27T21:27:55Z</time></trkpt>
<trkpt lat="25.143841" lon="101.37118">
<time>2015-09-27T21:27:56Z</time></trkpt>
<trkpt lat="25.143861" lon="101.37114">
<time>2015-09-27T21:27:57Z</time></trkpt>
<trkpt lat="25.143881" lon="101.37109">
<time>2015-09-27T21:27:58Z</time></trkpt>
<trkpt lat="25.143901" lon="101.37102">
<time>2015-09-27T21:27:59Z</time></trkpt>
<trkpt lat="25.143911" lon="101.37099">
<time>2015-09-27T21:28:00Z</time></trkpt>
<trkpt lat="25.143911" lon="101.37099">
<time>2015-09-27T21:28:01Z</time></trkpt>
<trkpt lat="25.144091" lon="101.37116">
<time>2015-09-27T21:28:02Z</time></trkpt>
<trkpt lat="25.144231" lon="101.371669">
<time>2015-09-27T21:28:03Z</time></trkpt>
<trkpt lat="25.1443" lon="101.371969">
<time>2015-09-27T21:28:04Z</time></trkpt>
<trkpt lat="25.14446" lon="101.372228">
<time>2015-09-27T21:28:05Z</time></trkpt>
<trkpt lat="25.14469" lon="101.372608">
<time>2015-09-27T21:28:06Z</time></trkpt>
<trkpt lat="25.14489" lon="101.372638">
<time>2015-09-27T21:28:07Z</time></trkpt>
<trkpt lat="25.14596" lon="101.372059">
<time>2015-09-27T21:28:08Z</time></trkpt>
<trkpt lat="25.14646" lon="101.371779">
<time>2015-09-27T21:28:09Z</time></trkpt>
<trkpt lat="25.14654" lon="101.371739">
<time>2015-09-27T21:28:10Z</time></trkpt>
<trkpt lat="25.146871" lon="101.37146">
<time>2015-09-27T21:28:11Z</time></trkpt>
<trkpt lat="25.146931" lon="101.37141">
<time>2015-09-27T21:28:12Z</time></trkpt>
<trkpt lat="25.147591" lon="101.37101">
<time>2015-09-27T21:28:13Z</time></trkpt>
<trkpt lat="25.148092" lon="101.370601">
<time>2015-09-27T21:28:14Z</time></trkpt>
<trkpt lat="25.148582" lon="101.370341">
<time>2015-09-27T21:28:15Z</time></trkpt>
<trkpt lat="25.148862" lon="101.370611">
<time>2015-09-27T21:28:16Z</time></trkpt>
<trkpt lat="25.149302" lon="101.370681">
<time>2015-09-27T21:28:17Z</time></trkpt>
<trkpt lat="25.149302" lon="101.370681">
<time>2015-09-27T21:28:18Z</time></trkpt>
<trkpt lat="25.149322" lon="101.370511">
<time>2015-09-27T21:28:19Z</time></trkpt>
<trkpt lat="25.149322" lon="101.370361">
<time>2015-09-27T21:28:20Z</time></trkpt>
<trkpt lat="25.149312" lon="101.370191">
<time>2015-09-27T21:28:21Z</time></trkpt>
<trkpt lat="25.149352" lon="101.369912">
<time>2015-09-27T21:28:22Z</time></trkpt>
<trkpt lat="25.149443" lon="101.369522">
<time>2015-09-27T21:28:23Z</time></trkpt>
<trkpt lat="25.149614" lon="101.368754">
<time>2015-09-27T21:28:24Z</time></trkpt>
<trkpt lat="25.149755" lon="101.368035">
<time>2015-09-27T21:28:25Z</time></trkpt>
<trkpt lat="25.149745" lon="101.367725">
<time>2015-09-27T21:28:26Z</time></trkpt>
<trkpt lat="25.149705" lon="101.367496">
<time>2015-09-27T21:28:27Z</time></trkpt>
<trkpt lat="25.149606" lon="101.367236">
<time>2015-09-27T21:28:28Z</time></trkpt>
<trkpt lat="25.149466" lon="101.366917">
<time>2015-09-27T21:28:29Z</time></trkpt>
<trkpt lat="25.149426" lon="101.366797">
<time>2015-09-27T21:28:30Z</time></trkpt>
<trkpt lat="25.149436" lon="101.366737">
<time>2015-09-27T21:28:31Z</time></trkpt>
<trkpt lat="25.149456" lon="101.366677">
<time>2015-09-27T21:28:32Z</time></trkpt>
<trkpt lat="25.149476" lon="101.366627">
<time>2015-09-27T21:28:33Z</time></trkpt>
<trkpt lat="25.149517" lon="101.366567">
<time>2015-09-27T21:28:34Z</time></trkpt>
<trkpt lat="25.150808" lon="101.365549">
<time>2015-09-27T21:28:35Z</time></trkpt>
<trkpt lat="25.151759" lon="101.36479">
<time>2015-09-27T21:28:36Z</time></trkpt>
<trkpt lat="25.15254" lon="101.364191">
<time>2015-09-27T21:28:37Z</time></trkpt>
<trkpt lat="25.15261" lon="101.364122">
<time>2015-09-27T21:28:38Z</time></trkpt>
<trkpt lat="25.15264" lon="101.364022">
<time>2015-09-27T21:28:39Z</time></trkpt>
<trkpt lat="25.15274" lon="101.363872">
<time>2015-09-27T21:28:40Z</time></trkpt>
<trkpt lat="25.15293" lon="101.363592">
<time>2015-09-27T21:28:41Z</time></trkpt>
<trkpt lat="25.153151" lon="101.363223">
<time>2015-09-27T21:28:42Z</time></trkpt>
<trkpt lat="25.153341" lon="101.362904">
<time>2015-09-27T21:28:43Z</time></trkpt>
<trkpt lat="25.153462" lon="101.362714">
<time>2015-09-27T21:28:44Z</time></trkpt>
<trkpt lat="25.153562" lon="101.362594">
<time>2015-09-27T21:28:45Z</time></trkpt>
<trkpt lat="25.153572" lon="101.362584">
<time>2015-09-27T21:28:46Z</time></trkpt>
<trkpt lat="25.153572" lon="101.362584">
<time>2015-09-27T21:28:47Z</time></trkpt>
<trkpt lat="25.153222" lon="101.362245">
<time>2015-09-27T21:28:48Z</time></trkpt>
<trkpt lat="25.153072" lon="101.362095">
<time>2015-09-27T21:28:49Z</time></trkpt>
<trkpt lat="25.152863" lon="101.361826">
<time>2015-09-27T21:28:50Z</time></trkpt>
<trkpt lat="25.152673" lon="101.361726">
<time>2015-09-27T21:28:51Z</time></trkpt>
<trkpt lat="25.152573" lon="101.361626">
<time>2015-09-27T21:28:52Z</time></trkpt>
<trkpt lat="25.152553" lon="101.361566">
<time>2015-09-27T21:28:53Z</time></trkpt>
<trkpt lat="25.152563" lon="101.361416">
<time>2015-09-27T21:28:54Z</time></trkpt>
<trkpt lat="25.152364" lon="101.361057">
<time>2015-09-27T21:28:55Z</time></trkpt>
<trkpt lat="25.151605" lon="101.360209">
<time>2015-09-27T21:28:56Z</time></trkpt>
<trkpt lat="25.151276" lon="101.359989">
<time>2015-09-27T21:28:57Z</time></trkpt>
<trkpt lat="25.150846" lon="101.35964">
<time>2015-09-27T21:28:58Z</time></trkpt>
<trkpt lat="25.150766" lon="101.35951">
<time>2015-09-27T21:28:59Z</time></trkpt>
<trkpt lat="25.150766" lon="101.35951">
<time>2015-09-27T21:29:00Z</time></trkpt>
<trkpt lat="25.150767" lon="101.35938">
<time>2015-09-27T21:29:01Z</time></trkpt>
<trkpt lat="25.150847" lon="101.359261">
<time>2015-09-27T21:29:02Z</time></trkpt>
<trkpt lat="25.150867" lon="101.359131">
<time>2015-09-27T21:29:03Z</time></trkpt>
<trkpt lat="25.150817" lon="101.358901">
<time>2015-09-27T21:29:04Z</time></trkpt>
<trkpt lat="25.150778" lon="101.358372">
<time>2015-09-27T21:29:05Z</time></trkpt>
<trkpt lat="25.150769" lon="101.357823">
<time>2015-09-27T21:29:06Z</time></trkpt>
<trkpt lat="25.15074" lon="101.357344">
<time>2015-09-27T21:29:07Z</time></trkpt>
<trkpt lat="25.15079" lon="101.357125">
<time>2015-09-27T21:29:08Z</time></trkpt>
<trkpt lat="25.15087" lon="101.356875">
<time>2015-09-27T21:29:09Z</time></trkpt>
<trkpt lat="25.150901" lon="101.356606">
<time>2015-09-27T21:29:10Z</time></trkpt>
<trkpt lat="25.151082" lon="101.355987">
<time>2015-09-27T21:29:11Z</time></trkpt>
<trkpt lat="25.151182" lon="101.355907">
<time>2015-09-27T21:29:12Z</time></trkpt>
<trkpt lat="25.151222" lon="101.355907">
<time>2015-09-27T21:29:13Z</time></trkpt>
<trkpt lat="25.151222" lon="101.355907">
<time>2015-09-27T21:29:14Z</time></trkpt>
<trkpt lat="25.151212" lon="101.355897">
<time>2015-09-27T21:29:15Z</time></trkpt>
<trkpt lat="25.151162" lon="101.355867">
<time>2015-09-27T21:29:16Z</time></trkpt>
<trkpt lat="25.151052" lon="101.355728">
<time>2015-09-27T21:29:17Z</time></trkpt>
<trkpt lat="25.150992" lon="101.355578">
<time>2015-09-27T21:29:18Z</time></trkpt>
<trkpt lat="25.150992" lon="101.355568">
<time>2015-09-27T21:29:19Z</time></trkpt>
<trkpt lat="25.151023" lon="101.355239">
<time>2015-09-27T21:29:20Z</time></trkpt>
<trkpt lat="25.151084" lon="101.354799">
<time>2015-09-27T21:29:21Z</time></trkpt>
<trkpt lat="25.151134" lon="101.35445">
<time>2015-09-27T21:29:22Z</time></trkpt>
<trkpt lat="25.151134" lon="101.35429">
<time>2015-09-27T21:29:23Z</time></trkpt>
<trkpt lat="25.151085" lon="101.354101">
<time>2015-09-27T21:29:24Z</time></trkpt>
<trkpt lat="25.151115" lon="101.353961">
<time>2015-09-27T21:29:25Z</time></trkpt>
<trkpt lat="25.151215" lon="101.353712">
<time>2015-09-27T21:29:26Z</time></trkpt>
<trkpt lat="25.151376" lon="101.353303">
<time>2015-09-27T21:29:27Z</time></trkpt>
<trkpt lat="25.151667" lon="101.352654">
<time>2015-09-27T21:29:28Z</time></trkpt>
<trkpt lat="25.152038" lon="101.351856">
<time>2015-09-27T21:29:29Z</time></trkpt>
<trkpt lat="25.152149" lon="101.351606">
<time>2015-09-27T21:29:30Z</time></trkpt>
<trkpt lat="25.152179" lon="101.351337">
<time>2015-09-27T21:29:31Z</time></trkpt>
<trkpt lat="25.152169" lon="101.351237">
<time>2015-09-27T21:29:32Z</time></trkpt>
<trkpt lat="25.15216" lon="101.351107">
<time>2015-09-27T21:29:33Z</time></trkpt>
<trkpt lat="25.15214" lon="101.350997">
<time>2015-09-27T21:29:34Z</time></trkpt>
<trkpt lat="25.15217" lon="101.350898">
<time>2015-09-27T21:29:35Z</time></trkpt>
<trkpt lat="25.152501" lon="101.350139">
<time>2015-09-27T21:29:36Z</time></trkpt>
<trkpt lat="25.152812" lon="101.349411">
<time>2015-09-27T21:29:37Z</time></trkpt>
<trkpt lat="25.152963" lon="101.349052">
<time>2015-09-27T21:29:38Z</time></trkpt>
<trkpt lat="25.153053" lon="101.348822">
<time>2015-09-27T21:29:39Z</time></trkpt>
<trkpt lat="25.153064" lon="101.348712">
<time>2015-09-27T21:29:40Z</time></trkpt>
<trkpt lat="25.153114" lon="101.348443">
<time>2015-09-27T21:29:41Z</time></trkpt>
<trkpt lat="25.153154" lon="101.348343">
<time>2015-09-27T21:29:42Z</time></trkpt>
<trkpt lat="25.153195" lon="101.348034">
<time>2015-09-27T21:29:43Z</time></trkpt>
<trkpt lat="25.153215" lon="101.347934">
<time>2015-09-27T21:29:44Z</time></trkpt>
<trkpt lat="25.153245" lon="101.347884">
<time>2015-09-27T21:29:45Z</time></trkpt>
<trkpt lat="25.153305" lon="101.347854">
<time>2015-09-27T21:29:46Z</time></trkpt>
<trkpt lat="25.153355" lon="101.347824">
<time>2015-09-27T21:29:47Z</time></trkpt>
<trkpt lat="25.153375" lon="101.347774">
<time>2015-09-27T21:29:48Z</time></trkpt>
<trkpt lat="25.153365" lon="101.347665">
<time>2015-09-27T21:29:49Z</time></trkpt>
<trkpt lat="25.153346" lon="101.347395">
<time>2015-09-27T21:29:50Z</time></trkpt>
<trkpt lat="25.153326" lon="101.347265">
<time>2015-09-27T21:29:51Z</time></trkpt>
<trkpt lat="25.153286" lon="101.347146">
<time>2015-09-27T21:29:52Z</time></trkpt>
<trkpt lat="25.153256" lon="101.347036">
<time>2015-09-27T21:29:53Z</time></trkpt>
<trkpt lat="25.153207" lon="101.346896">
<time>2015-09-27T21:29:54Z</time></trkpt>
<trkpt lat="25.153207" lon="101.346747">
<time>2015-09-27T21:29:55Z</time></trkpt>
<trkpt lat="25.153247" lon="101.346507">
<time>2015-09-27T21:29:56Z</time></trkpt>
<trkpt lat="25.153288" lon="101.346367">
<time>2015-09-27T21:29:57Z</time></trkpt>
<trkpt lat="25.153488" lon="101.345978">
<time>2015-09-27T21:29:58Z</time></trkpt>
<trkpt lat="25.153619" lon="101.345799">
<time>2015-09-27T21:29:59Z</time></trkpt>
<trkpt lat="25.153739" lon="101.345669">
<time>2015-09-27T21:30:00Z</time></trkpt>
<trkpt lat="25.153839" lon="101.345599">
<time>2015-09-27T21:30:01Z</time></trkpt>
<trkpt lat="25.153959" lon="101.345469">
<time>2015-09-27T21:30:02Z</time></trkpt>
<trkpt lat="25.154029" lon="101.34534">
<time>2015-09-27T21:30:03Z</time></trkpt>
<trkpt lat="25.15415" lon="101.34514">
<time>2015-09-27T21:30:04Z</time></trkpt>
<trkpt lat="25.15422" lon="101.344971">
<time>2015-09-27T21:30:05Z</time></trkpt>
<trkpt lat="25.15426" lon="101.344771">
<time>2015-09-27T21:30:06Z</time></trkpt>
<trkpt lat="25.154301" lon="101.344571">
<time>2015-09-27T21:30:07Z</time></trkpt>
<trkpt lat="25.154371" lon="101.344372">
<time>2015-09-27T21:30:08Z</time></trkpt>
<trkpt lat="25.154441" lon="101.344262">
<time>2015-09-27T21:30:09Z</time></trkpt>
<trkpt lat="25.154572" lon="101.344113">
<time>2015-09-27T21:30:10Z</time></trkpt>
<trkpt lat="25.154712" lon="101.343953">
<time>2015-09-27T21:30:11Z</time></trkpt>
<trkpt lat="25.154872" lon="101.343843">
<time>2015-09-27T21:30:12Z</time></trkpt>
<trkpt lat="25.154982" lon="101.343743">
<time>2015-09-27T21:30:13Z</time></trkpt>
<trkpt lat="25.155313" lon="101.343254">
<time>2015-09-27T21:30:14Z</time></trkpt>
<trkpt lat="25.155494" lon="101.343005">
<time>2015-09-27T21:30:15Z</time></trkpt>
<trkpt lat="25.155594" lon="101.342895">
<time>2015-09-27T21:30:16Z</time></trkpt>
<trkpt lat="25.155704" lon="101.342815">
<time>2015-09-27T21:30:17Z</time></trkpt>
<trkpt lat="25.155944" lon="101.342586">
<time>2015-09-27T21:30:18Z</time></trkpt>
<trkpt lat="25.156345" lon="101.342217">
<time>2015-09-27T21:30:19Z</time></trkpt>
<trkpt lat="25.156535" lon="101.341987">
<time>2015-09-27T21:30:20Z</time></trkpt>
<trkpt lat="25.156586" lon="101.341838">
<time>2015-09-27T21:30:21Z</time></trkpt>
<trkpt lat="25.156596" lon="101.341558">
<time>2015-09-27T21:30:22Z</time></trkpt>
<trkpt lat="25.156637" lon="101.341279">
<time>2015-09-27T21:30:23Z</time></trkpt>
<trkpt lat="25.156637" lon="101.341279">
<time>2015-09-27T21:30:24Z</time></trkpt>
<trkpt lat="25.156627" lon="101.341189">
<time>2015-09-27T21:30:25Z</time></trkpt>
<trkpt lat="25.156547" lon="101.341059">
<time>2015-09-27T21:30:26Z</time></trkpt>
<trkpt lat="25.156507" lon="101.34102">
<time>2015-09-27T21:30:27Z</time></trkpt>
<trkpt lat="25.156407" lon="101.34094">
<time>2015-09-27T21:30:28Z</time></trkpt>
<trkpt lat="25.156357" lon="101.34091">
<time>2015-09-27T21:30:29Z</time></trkpt>
<trkpt lat="25.156267" lon="101.34089">
<time>2015-09-27T21:30:30Z</time></trkpt>
<trkpt lat="25.156107" lon="101.3409">
<time>2015-09-27T21:30:31Z</time></trkpt>
<trkpt lat="25.155777" lon="101.34086">
<time>2015-09-27T21:30:32Z</time></trkpt>
<trkpt lat="25.155628" lon="101.34076">
<time>2015-09-27T21:30:33Z</time></trkpt>
<trkpt lat="25.155508" lon="101.34064">
<time>2015-09-27T21:30:34Z</time></trkpt>
<trkpt lat="25.155478" lon="101.340471">
<time>2015-09-27T21:30:35Z</time></trkpt>
<trkpt lat="25.155488" lon="101.340291">
<time>2015-09-27T21:30:36Z</time></trkpt>
<trkpt lat="25.155519" lon="101.340132">
<time>2015-09-27T21:30:37Z</time></trkpt>
<trkpt lat="25.15571" lon="101.339643">
<time>2015-09-27T21:30:38Z</time></trkpt>
<trkpt lat="25.15585" lon="101.339334">
<time>2015-09-27T21:30:39Z</time></trkpt>
<trkpt lat="25.15596" lon="101.339214">
<time>2015-09-27T21:30:40Z</time></trkpt>
<trkpt lat="25.156121" lon="101.339144">
<time>2015-09-27T21:30:41Z</time></trkpt>
<trkpt lat="25.15628" lon="101.339174">
<time>2015-09-27T21:30:42Z</time></trkpt>
<trkpt lat="25.15644" lon="101.339234">
<time>2015-09-27T21:30:43Z</time></trkpt>
<trkpt lat="25.15676" lon="101.339284">
<time>2015-09-27T21:30:44Z</time></trkpt>
<trkpt lat="25.15691" lon="101.339343">
<time>2015-09-27T21:30:45Z</time></trkpt>
<trkpt lat="25.15704" lon="101.339443">
<time>2015-09-27T21:30:46Z</time></trkpt>
<trkpt lat="25.157439" lon="101.339733">
<time>2015-09-27T21:30:47Z</time></trkpt>
<trkpt lat="25.157519" lon="101.339762">
<time>2015-09-27T21:30:48Z</time></trkpt>
<trkpt lat="25.157579" lon="101.339752">
<time>2015-09-27T21:30:49Z</time></trkpt>
<trkpt lat="25.157609" lon="101.339742">
<time>2015-09-27T21:30:50Z</time></trkpt>
<trkpt lat="25.15765" lon="101.339663">
<time>2015-09-27T21:30:51Z</time></trkpt>
<trkpt lat="25.15766" lon="101.339593">
<time>2015-09-27T21:30:52Z</time></trkpt>
<trkpt lat="25.15762" lon="101.339463">
<time>2015-09-27T21:30:53Z</time></trkpt>
<trkpt lat="25.15754" lon="101.339343">
<time>2015-09-27T21:30:54Z</time></trkpt>
<trkpt lat="25.15741" lon="101.339154">
<time>2015-09-27T21:30:55Z</time></trkpt>
<trkpt lat="25.157391" lon="101.338974">
<time>2015-09-27T21:30:56Z</time></trkpt>
<trkpt lat="25.157401" lon="101.338924">
<time>2015-09-27T21:30:57Z</time></trkpt>
<trkpt lat="25.157411" lon="101.338875">
<time>2015-09-27T21:30:58Z</time></trkpt>
<trkpt lat="25.157451" lon="101.338745">
<time>2015-09-27T21:30:59Z</time></trkpt>
<trkpt lat="25.157451" lon="101.338745">
<time>2015-09-27T21:31:00Z</time></trkpt>
<trkpt lat="25.157541" lon="101.338705">
<time>2015-09-27T21:31:01Z</time></trkpt>
<trkpt lat="25.157621" lon="101.338665">
<time>2015-09-27T21:31:02Z</time></trkpt>
<trkpt lat="25.157772" lon="101.338575">
<time>2015-09-27T21:31:03Z</time></trkpt>
<trkpt lat="25.158112" lon="101.338336">
<time>2015-09-27T21:31:04Z</time></trkpt>
<trkpt lat="25.158442" lon="101.338076">
<time>2015-09-27T21:31:05Z</time></trkpt>
<trkpt lat="25.158793" lon="101.337847">
<time>2015-09-27T21:31:06Z</time></trkpt>
<trkpt lat="25.159013" lon="101.337737">
<time>2015-09-27T21:31:07Z</time></trkpt>
<trkpt lat="25.159203" lon="101.337657">
<time>2015-09-27T21:31:08Z</time></trkpt>
<trkpt lat="25.159363" lon="101.337617">
<time>2015-09-27T21:31:09Z</time></trkpt>
<trkpt lat="25.159583" lon="101.337587">
<time>2015-09-27T21:31:10Z</time></trkpt>
<trkpt lat="25.159963" lon="101.337558">
<time>2015-09-27T21:31:11Z</time></trkpt>
<trkpt lat="25.160173" lon="101.337558">
<time>2015-09-27T21:31:12Z</time></trkpt>
<trkpt lat="25.160513" lon="101.337568">
<time>2015-09-27T21:31:13Z</time></trkpt>
<trkpt lat="25.160713" lon="101.337597">
<time>2015-09-27T21:31:14Z</time></trkpt>
<trkpt lat="25.160933" lon="101.337637">
<time>2015-09-27T21:31:15Z</time></trkpt>
<trkpt lat="25.161113" lon="101.337697">
<time>2015-09-27T21:31:16Z</time></trkpt>
<trkpt lat="25.161633" lon="101.337877">
<time>2015-09-27T21:31:17Z</time></trkpt>
<trkpt lat="25.162232" lon="101.338166">
<time>2015-09-27T21:31:18Z</time></trkpt>
<trkpt lat="25.162812" lon="101.338435">
<time>2015-09-27T21:31:19Z</time></trkpt>
<trkpt lat="25.163221" lon="101.338605">
<time>2015-09-27T21:31:20Z</time></trkpt>
<trkpt lat="25.163421" lon="101.338675">
<time>2015-09-27T21:31:21Z</time></trkpt>
<trkpt lat="25.163621" lon="101.338715">
<time>2015-09-27T21:31:22Z</time></trkpt>
<trkpt lat="25.163801" lon="101.338745">
<time>2015-09-27T21:31:23Z</time></trkpt>
<trkpt lat="25.163941" lon="101.338745">
<time>2015-09-27T21:31:24Z</time></trkpt>
<trkpt lat="25.164081" lon="101.338745">
<time>2015-09-27T21:31:25Z</time></trkpt>
<trkpt lat="25.164201" lon="101.338735">
<time>2015-09-27T21:31:26Z</time></trkpt>
<trkpt lat="25.164291" lon="101.338715">
<time>2015-09-27T21:31:27Z</time></trkpt>
<trkpt lat="25.164391" lon="101.338685">
<time>2015-09-27T21:31:28Z</time></trkpt>
<trkpt lat="25.164451" lon="101.338655">
<time>2015-09-27T21:31:29Z</time></trkpt>
<trkpt lat="25.164511" lon="101.338615">
<time>2015-09-27T21:31:30Z</time></trkpt>
<trkpt lat="25.164571" lon="101.338565">
<time>2015-09-27T21:31:31Z</time></trkpt>
<trkpt lat="25.164621" lon="101.338485">
<time>2015-09-27T21:31:32Z</time></trkpt>
<trkpt lat="25.164672" lon="101.338375">
<time>2015-09-27T21:31:33Z</time></trkpt>
<trkpt lat="25.164742" lon="101.338216">
<time>2015-09-27T21:31:34Z</time></trkpt>
<trkpt lat="25.164832" lon="101.338006">
<time>2015-09-27T21:31:35Z</time></trkpt>
<trkpt lat="25.165264" lon="101.336999">
<time>2015-09-27T21:31:36Z</time></trkpt>
<trkpt lat="25.165716" lon="101.335752">
<time>2015-09-27T21:31:37Z</time></trkpt>
<trkpt lat="25.166048" lon="101.334904">
<time>2015-09-27T21:31:38Z</time></trkpt>
<trkpt lat="25.166169" lon="101.334594">
<time>2015-09-27T21:31:39Z</time></trkpt>
<trkpt lat="25.166681" lon="101.333527">
<time>2015-09-27T21:31:40Z</time></trkpt>
<trkpt lat="25.167404" lon="101.331751">
<time>2015-09-27T21:31:41Z</time></trkpt>
<trkpt lat="25.167575" lon="101.331352">
<time>2015-09-27T21:31:42Z</time></trkpt>
<trkpt lat="25.167655" lon="101.331183">
<time>2015-09-27T21:31:43Z</time></trkpt>
<trkpt lat="25.167745" lon="101.331043">
<time>2015-09-27T21:31:44Z</time></trkpt>
<trkpt lat="25.167855" lon="101.330893">
<time>2015-09-27T21:31:45Z</time></trkpt>
<trkpt lat="25.167926" lon="101.330823">
<time>2015-09-27T21:31:46Z</time></trkpt>
<trkpt lat="25.168076" lon="101.330654">
<time>2015-09-27T21:31:47Z</time></trkpt>
<trkpt lat="25.168286" lon="101.330424">
<time>2015-09-27T21:31:48Z</time></trkpt>
<trkpt lat="25.168477" lon="101.330225">
<time>2015-09-27T21:31:49Z</time></trkpt>
<trkpt lat="25.168868" lon="101.329776">
<time>2015-09-27T21:31:50Z</time></trkpt>
<trkpt lat="25.169399" lon="101.329147">
<time>2015-09-27T21:31:51Z</time></trkpt>
<trkpt lat="25.16999" lon="101.328469">
<time>2015-09-27T21:31:52Z</time></trkpt>
<trkpt lat="25.170872" lon="101.327452">
<time>2015-09-27T21:31:53Z</time></trkpt>
<trkpt lat="25.171193" lon="101.327043">
<time>2015-09-27T21:31:54Z</time></trkpt>
<trkpt lat="25.171273" lon="101.326913">
<time>2015-09-27T21:31:55Z</time></trkpt>
<trkpt lat="25.171333" lon="101.326833">
<time>2015-09-27T21:31:56Z</time></trkpt>
<trkpt lat="25.171403" lon="101.326703">
<time>2015-09-27T21:31:57Z</time></trkpt>
<trkpt lat="25.171423" lon="101.326673">
<time>2015-09-27T21:31:58Z</time></trkpt>
<trkpt lat="25.171474" lon="101.326584">
<time>2015-09-27T21:31:59Z</time></trkpt>
<trkpt lat="25.171514" lon="101.326494">
<time>2015-09-27T21:32:00Z</time></trkpt>
<trkpt lat="25.171554" lon="101.326414">
<time>2015-09-27T21:32:01Z</time></trkpt>
<trkpt lat="25.171644" lon="101.326195">
<time>2015-09-27T21:32:02Z</time></trkpt>
<trkpt lat="25.171745" lon="101.325935">
<time>2015-09-27T21:32:03Z</time></trkpt>
<trkpt lat="25.171866" lon="101.325546">
<time>2015-09-27T21:32:04Z</time></trkpt>
<trkpt lat="25.171936" lon="101.325327">
<time>2015-09-27T21:32:05Z</time></trkpt>
<trkpt lat="25.171976" lon="101.325237">
<time>2015-09-27T21:32:06Z</time></trkpt>
<trkpt lat="25.172006" lon="101.325147">
<time>2015-09-27T21:32:07Z</time></trkpt>
<trkpt lat="25.172097" lon="101.324938">
<time>2015-09-27T21:32:08Z</time></trkpt>
<trkpt lat="25.172187" lon="101.324748">
<time>2015-09-27T21:32:09Z</time></trkpt>
<trkpt lat="25.172277" lon="101.324569">
<time>2015-09-27T21:32:10Z</time></trkpt>
<trkpt lat="25.172297" lon="101.324519">
<time>2015-09-27T21:32:11Z</time></trkpt>
<trkpt lat="25.17283" lon="101.323322">
<time>2015-09-27T21:32:12Z</time></trkpt>
<trkpt lat="25.173543" lon="101.321765">
<time>2015-09-27T21:32:13Z</time></trkpt>
<trkpt lat="25.173693" lon="101.321456">
<time>2015-09-27T21:32:14Z</time></trkpt>
<trkpt lat="25.174888" lon="101.318753">
<time>2015-09-27T21:32:15Z</time></trkpt>
<trkpt lat="25.175511" lon="101.317316">
<time>2015-09-27T21:32:16Z</time></trkpt>
<trkpt lat="25.175772" lon="101.316737">
<time>2015-09-27T21:32:17Z</time></trkpt>
<trkpt lat="25.176224" lon="101.31584">
<time>2015-09-27T21:32:18Z</time></trkpt>
<trkpt lat="25.176535" lon="101.315301">
<time>2015-09-27T21:32:19Z</time></trkpt>
<trkpt lat="25.176635" lon="101.315131">
<time>2015-09-27T21:32:20Z</time></trkpt>
<trkpt lat="25.176675" lon="101.315071">
<time>2015-09-27T21:32:21Z</time></trkpt>
<trkpt lat="25.176695" lon="101.315041">
<time>2015-09-27T21:32:22Z</time></trkpt>
<trkpt lat="25.176715" lon="101.315011">
<time>2015-09-27T21:32:23Z</time></trkpt>
<trkpt lat="25.176735" lon="101.314982">
<time>2015-09-27T21:32:24Z</time></trkpt>
<trkpt lat="25.176755" lon="101.314972">
<time>2015-09-27T21:32:25Z</time></trkpt>
<trkpt lat="25.176775" lon="101.314952">
<time>2015-09-27T21:32:26Z</time></trkpt>
<trkpt lat="25.176795" lon="101.314932">
<time>2015-09-27T21:32:27Z</time></trkpt>
<trkpt lat="25.176825" lon="101.314922">
<time>2015-09-27T21:32:28Z</time></trkpt>
<trkpt lat="25.176876" lon="101.314892">
<time>2015-09-27T21:32:29Z</time></trkpt>
<trkpt lat="25.176916" lon="101.314872">
<time>2015-09-27T21:32:30Z</time></trkpt>
<trkpt lat="25.176986" lon="101.314842">
<time>2015-09-27T21:32:31Z</time></trkpt>
<trkpt lat="25.177076" lon="101.314812">
<time>2015-09-27T21:32:32Z</time></trkpt>
<trkpt lat="25.177116" lon="101.314802">
<time>2015-09-27T21:32:33Z</time></trkpt>
<trkpt lat="25.177176" lon="101.314782">
<time>2015-09-27T21:32:34Z</time></trkpt>
<trkpt lat="25.178306" lon="101.314443">
<time>2015-09-27T21:32:35Z</time></trkpt>
<trkpt lat="25.179657" lon="101.314024">
<time>2015-09-27T21:32:36Z</time></trkpt>
<trkpt lat="25.179757" lon="101.313984">
<time>2015-09-27T21:32:37Z</time></trkpt>
<trkpt lat="25.179857" lon="101.313944">
<time>2015-09-27T21:32:38Z</time></trkpt>
<trkpt lat="25.179947" lon="101.313884">
<time>2015-09-27T21:32:39Z</time></trkpt>
<trkpt lat="25.180037" lon="101.313804">
<time>2015-09-27T21:32:40Z</time></trkpt>
<trkpt lat="25.180138" lon="101.313714">
<time>2015-09-27T21:32:41Z</time></trkpt>
<trkpt lat="25.180228" lon="101.313595">
<time>2015-09-27T21:32:42Z</time></trkpt>
<trkpt lat="25.180308" lon="101.313465">
<time>2015-09-27T21:32:43Z</time></trkpt>
<trkpt lat="25.180378" lon="101.313345">
<time>2015-09-27T21:32:44Z</time></trkpt>
<trkpt lat="25.180428" lon="101.313236">
<time>2015-09-27T21:32:45Z</time></trkpt>
<trkpt lat="25.180509" lon="101.313046">
<time>2015-09-27T21:32:46Z</time></trkpt>
<trkpt lat="25.180569" lon="101.312886">
<time>2015-09-27T21:32:47Z</time></trkpt>
<trkpt lat="25.180599" lon="101.312767">
<time>2015-09-27T21:32:48Z</time></trkpt>
<trkpt lat="25.18061" lon="101.312647">
<time>2015-09-27T21:32:49Z</time></trkpt>
<trkpt lat="25.18062" lon="101.312577">
<time>2015-09-27T21:32:50Z</time></trkpt>
<trkpt lat="25.18062" lon="101.312497">
<time>2015-09-27T21:32:51Z</time></trkpt>
<trkpt lat="25.18062" lon="101.312437">
<time>2015-09-27T21:32:52Z</time></trkpt>
<trkpt lat="25.18061" lon="101.312388">
<time>2015-09-27T21:32:53Z</time></trkpt>
<trkpt lat="25.1806" lon="101.312328">
<time>2015-09-27T21:32:54Z</time></trkpt>
<trkpt lat="25.18059" lon="101.312278">
<time>2015-09-27T21:32:55Z</time></trkpt>
<trkpt lat="25.18057" lon="101.312218">
<time>2015-09-27T21:32:56Z</time></trkpt>
<trkpt lat="25.18054" lon="101.312148">
<time>2015-09-27T21:32:57Z</time></trkpt>
<trkpt lat="25.180511" lon="101.312078">
<time>2015-09-27T21:32:58Z</time></trkpt>
<trkpt lat="25.180461" lon="101.311999">
<time>2015-09-27T21:32:59Z</time></trkpt>
<trkpt lat="25.180411" lon="101.311919">
<time>2015-09-27T21:33:00Z</time></trkpt>
<trkpt lat="25.180131" lon="101.311589">
<time>2015-09-27T21:33:01Z</time></trkpt>
<trkpt lat="25.180042" lon="101.31147">
<time>2015-09-27T21:33:02Z</time></trkpt>
<trkpt lat="25.179972" lon="101.31138">
<time>2015-09-27T21:33:03Z</time></trkpt>
<trkpt lat="25.179942" lon="101.31131">
<time>2015-09-27T21:33:04Z</time></trkpt>
<trkpt lat="25.179912" lon="101.31124">
<time>2015-09-27T21:33:05Z</time></trkpt>
<trkpt lat="25.179892" lon="101.31119">
<time>2015-09-27T21:33:06Z</time></trkpt>
<trkpt lat="25.179882" lon="101.311151">
<time>2015-09-27T21:33:07Z</time></trkpt>
<trkpt lat="25.179872" lon="101.311091">
<time>2015-09-27T21:33:08Z</time></trkpt>
<trkpt lat="25.179863" lon="101.311031">
<time>2015-09-27T21:33:09Z</time></trkpt>
<trkpt lat="25.179853" lon="101.310971">
<time>2015-09-27T21:33:10Z</time></trkpt>
<trkpt lat="25.179853" lon="101.310911">
<time>2015-09-27T21:33:11Z</time></trkpt>
<trkpt lat="25.179863" lon="101.310851">
<time>2015-09-27T21:33:12Z</time></trkpt>
<trkpt lat="25.179873" lon="101.310791">
<time>2015-09-27T21:33:13Z</time></trkpt>
<trkpt lat="25.179893" lon="101.310732">
<time>2015-09-27T21:33:14Z</time></trkpt>
<trkpt lat="25.179923" lon="101.310652">
<time>2015-09-27T21:33:15Z</time></trkpt>
<trkpt lat="25.179963" lon="101.310572">
<time>2015-09-27T21:33:16Z</time></trkpt>
<trkpt lat="25.180305" lon="101.309923">
<time>2015-09-27T21:33:17Z</time></trkpt>
<trkpt lat="25.180485" lon="101.309584">
<time>2015-09-27T21:33:18Z</time></trkpt>
<trkpt lat="25.180616" lon="101.309315">
<time>2015-09-27T21:33:19Z</time></trkpt>
<trkpt lat="25.180636" lon="101.309265">
<time>2015-09-27T21:33:20Z</time></trkpt>
<trkpt lat="25.180806" lon="101.308906">
<time>2015-09-27T21:33:21Z</time></trkpt>
<trkpt lat="25.181198" lon="101.307828">
<time>2015-09-27T21:33:22Z</time></trkpt>
<trkpt lat="25.181349" lon="101.307439">
<time>2015-09-27T21:33:23Z</time></trkpt>
<trkpt lat="25.181449" lon="101.30717">
<time>2015-09-27T21:33:24Z</time></trkpt>
<trkpt lat="25.18153" lon="101.30686">
<time>2015-09-27T21:33:25Z</time></trkpt>
<trkpt lat="25.1816" lon="101.306601">
<time>2015-09-27T21:33:26Z</time></trkpt>
<trkpt lat="25.181801" lon="101.306002">
<time>2015-09-27T21:33:27Z</time></trkpt>
<trkpt lat="25.182083" lon="101.305334">
<time>2015-09-27T21:33:28Z</time></trkpt>
<trkpt lat="25.183318" lon="101.30242">
<time>2015-09-27T21:33:29Z</time></trkpt>
<trkpt lat="25.183468" lon="101.302071">
<time>2015-09-27T21:33:30Z</time></trkpt>
<trkpt lat="25.184603" lon="101.299397">
<time>2015-09-27T21:33:31Z</time></trkpt>
<trkpt lat="25.185064" lon="101.298279">
<time>2015-09-27T21:33:32Z</time></trkpt>
<trkpt lat="25.185084" lon="101.298239">
<time>2015-09-27T21:33:33Z</time></trkpt>
<trkpt lat="25.185145" lon="101.29807">
<time>2015-09-27T21:33:34Z</time></trkpt>
<trkpt lat="25.185205" lon="101.29788">
<time>2015-09-27T21:33:35Z</time></trkpt>
<trkpt lat="25.185265" lon="101.297621">
<time>2015-09-27T21:33:36Z</time></trkpt>
<trkpt lat="25.185488" lon="101.296114">
<time>2015-09-27T21:33:37Z</time></trkpt>
<trkpt lat="25.185619" lon="101.295306">
<time>2015-09-27T21:33:38Z</time></trkpt>
<trkpt lat="25.185811" lon="101.294048">
<time>2015-09-27T21:33:39Z</time></trkpt>
<trkpt lat="25.186084" lon="101.292242">
<time>2015-09-27T21:33:40Z</time></trkpt>
<trkpt lat="25.186195" lon="101.291453">
<time>2015-09-27T21:33:41Z</time></trkpt>
<trkpt lat="25.186276" lon="101.290934">
<time>2015-09-27T21:33:42Z</time></trkpt>
<trkpt lat="25.186427" lon="101.289986">
<time>2015-09-27T21:33:43Z</time></trkpt>
<trkpt lat="25.186599" lon="101.288778">
<time>2015-09-27T21:33:44Z</time></trkpt>
<trkpt lat="25.186639" lon="101.288589">
<time>2015-09-27T21:33:45Z</time></trkpt>
<trkpt lat="25.186699" lon="101.288379">
<time>2015-09-27T21:33:46Z</time></trkpt>
<trkpt lat="25.186749" lon="101.28818">
<time>2015-09-27T21:33:47Z</time></trkpt>
<trkpt lat="25.18688" lon="101.28793">
<time>2015-09-27T21:33:48Z</time></trkpt>
<trkpt lat="25.187" lon="101.28773">
<time>2015-09-27T21:33:49Z</time></trkpt>
<trkpt lat="25.187531" lon="101.286942">
<time>2015-09-27T21:33:50Z</time></trkpt>
<trkpt lat="25.188443" lon="101.285604">
<time>2015-09-27T21:33:51Z</time></trkpt>
<trkpt lat="25.188673" lon="101.285225">
<time>2015-09-27T21:33:52Z</time></trkpt>
<trkpt lat="25.188834" lon="101.284935">
<time>2015-09-27T21:33:53Z</time></trkpt>
<trkpt lat="25.188964" lon="101.284706">
<time>2015-09-27T21:33:54Z</time></trkpt>
<trkpt lat="25.189094" lon="101.284456">
<time>2015-09-27T21:33:55Z</time></trkpt>
<trkpt lat="25.189435" lon="101.283827">
<time>2015-09-27T21:33:56Z</time></trkpt>
<trkpt lat="25.189806" lon="101.283149">
<time>2015-09-27T21:33:57Z</time></trkpt>
<trkpt lat="25.190898" lon="101.281182">
<time>2015-09-27T21:33:58Z</time></trkpt>
<trkpt lat="25.191048" lon="101.280922">
<time>2015-09-27T21:33:59Z</time></trkpt>
<trkpt lat="25.191149" lon="101.280603">
<time>2015-09-27T21:34:00Z</time></trkpt>
<trkpt lat="25.191129" lon="101.280583">
<time>2015-09-27T21:34:01Z</time></trkpt>
<trkpt lat="25.191119" lon="101.280573">
<time>2015-09-27T21:34:02Z</time></trkpt>
<trkpt lat="25.191109" lon="101.280553">
<time>2015-09-27T21:34:03Z</time></trkpt>
<trkpt lat="25.191099" lon="101.280523">
<time>2015-09-27T21:34:04Z</time></trkpt>
<trkpt lat="25.191079" lon="101.280483">
<time>2015-09-27T21:34:05Z</time></trkpt>
<trkpt lat="25.191079" lon="101.280453">
<time>2015-09-27T21:34:06Z</time></trkpt>
<trkpt lat="25.191079" lon="101.280433">
<time>2015-09-27T21:34:07Z</time></trkpt>
<trkpt lat="25.191079" lon="101.280403">
<time>2015-09-27T21:34:08Z</time></trkpt>
<trkpt lat="25.191079" lon="101.280373">
<time>2015-09-27T21:34:09Z</time></trkpt>
<trkpt lat="25.191089" lon="101.280343">
<time>2015-09-27T21:34:10Z</time></trkpt>
<trkpt lat="25.191099" lon="101.280313">
<time>2015-09-27T21:34:11Z</time></trkpt>
<trkpt lat="25.191109" lon="101.280283">
<time>2015-09-27T21:34:12Z</time></trkpt>
<trkpt lat="25.191129" lon="101.280263">
<time>2015-09-27T21:34:13Z</time></trkpt>
<trkpt lat="25.191149" lon="101.280243">
<time>2015-09-27T21:34:14Z</time></trkpt>
<trkpt lat="25.191169" lon="101.280223">
<time>2015-09-27T21:34:15Z</time></trkpt>
<trkpt lat="25.191189" lon="101.280204">
<time>2015-09-27T21:34:16Z</time></trkpt>
<trkpt lat="25.191219" lon="101.280194">
<time>2015-09-27T21:34:17Z</time></trkpt>
<trkpt lat="25.191239" lon="101.280184">
<time>2015-09-27T21:34:18Z</time></trkpt>
<trkpt lat="25.19152" lon="101.279924">
<time>2015-09-27T21:34:19Z</time></trkpt>
<trkpt lat="25.19164" lon="101.279764">
<time>2015-09-27T21:34:20Z</time></trkpt>
<trkpt lat="25.19191" lon="101.279265">
<time>2015-09-27T21:34:21Z</time></trkpt>
<trkpt lat="25.192982" lon="101.277328">
<time>2015-09-27T21:34:22Z</time></trkpt>
<trkpt lat="25.193093" lon="101.277168">
<time>2015-09-27T21:34:23Z</time></trkpt>
<trkpt lat="25.193123" lon="101.277128">
<time>2015-09-27T21:34:24Z</time></trkpt>
<trkpt lat="25.193253" lon="101.276969">
<time>2015-09-27T21:34:25Z</time></trkpt>
<trkpt lat="25.193253" lon="101.276969">
<time>2015-09-27T21:34:26Z</time></trkpt>
<trkpt lat="25.192883" lon="101.276629">
<time>2015-09-27T21:34:27Z</time></trkpt>
<trkpt lat="25.192643" lon="101.276409">
<time>2015-09-27T21:34:28Z</time></trkpt>
<trkpt lat="25.192384" lon="101.2762">
<time>2015-09-27T21:34:29Z</time></trkpt>
<trkpt lat="25.192014" lon="101.27593">
<time>2015-09-27T21:34:30Z</time></trkpt>
<trkpt lat="25.192014" lon="101.27593">
<time>2015-09-27T21:34:31Z</time></trkpt>
<trkpt lat="25.192535" lon="101.275181">
<time>2015-09-27T21:34:32Z</time></trkpt>
<trkpt lat="25.192935" lon="101.274632">
<time>2015-09-27T21:34:33Z</time></trkpt>
<trkpt lat="25.193115" lon="101.274392">
<time>2015-09-27T21:34:34Z</time></trkpt>
<trkpt lat="25.193296" lon="101.274163">
<time>2015-09-27T21:34:35Z</time></trkpt>
<trkpt lat="25.193576" lon="101.273783">
<time>2015-09-27T21:34:36Z</time></trkpt>
<trkpt lat="25.193616" lon="101.273733">
<time>2015-09-27T21:34:37Z</time></trkpt>
<trkpt lat="25.193846" lon="101.273424">
<time>2015-09-27T21:34:38Z</time></trkpt>
<trkpt lat="25.193996" lon="101.273224">
<time>2015-09-27T21:34:39Z</time></trkpt>
<trkpt lat="25.194177" lon="101.272984">
<time>2015-09-27T21:34:40Z</time></trkpt>
<trkpt lat="25.194357" lon="101.272775">
<time>2015-09-27T21:34:41Z</time></trkpt>
<trkpt lat="25.194857" lon="101.272235">
<time>2015-09-27T21:34:42Z</time></trkpt>
<trkpt lat="25.194857" lon="101.272235">
<time>2015-09-27T21:34:43Z</time></trkpt>
<trkpt lat="25.194937" lon="101.272145">
<time>2015-09-27T21:34:44Z</time></trkpt>
<trkpt lat="25.195067" lon="101.271996">
<time>2015-09-27T21:34:45Z</time></trkpt>
<trkpt lat="25.195168" lon="101.271866">
<time>2015-09-27T21:34:46Z</time></trkpt>
<trkpt lat="25.195328" lon="101.271666">
<time>2015-09-27T21:34:47Z</time></trkpt>
<trkpt lat="25.196008" lon="101.270807">
<time>2015-09-27T21:34:48Z</time></trkpt>
<trkpt lat="25.196279" lon="101.270488">
<time>2015-09-27T21:34:49Z</time></trkpt>
<trkpt lat="25.196449" lon="101.270268">
<time>2015-09-27T21:34:50Z</time></trkpt>
<trkpt lat="25.196669" lon="101.269968">
<time>2015-09-27T21:34:51Z</time></trkpt>
<trkpt lat="25.196809" lon="101.269759">
<time>2015-09-27T21:34:52Z</time></trkpt>
<trkpt lat="25.196939" lon="101.269519">
<time>2015-09-27T21:34:53Z</time></trkpt>
<trkpt lat="25.19702" lon="101.269349">
<time>2015-09-27T21:34:54Z</time></trkpt>
<trkpt lat="25.19732" lon="101.26863">
<time>2015-09-27T21:34:55Z</time></trkpt>
<trkpt lat="25.19754" lon="101.26818">
<time>2015-09-27T21:34:56Z</time></trkpt>
<trkpt lat="25.198322" lon="101.266193">
<time>2015-09-27T21:34:57Z</time></trkpt>
<trkpt lat="25.198452" lon="101.266003">
<time>2015-09-27T21:34:58Z</time></trkpt>
<trkpt lat="25.199052" lon="101.265474">
<time>2015-09-27T21:34:59Z</time></trkpt>
<trkpt lat="25.199242" lon="101.265244">
<time>2015-09-27T21:35:00Z</time></trkpt>
<trkpt lat="25.199893" lon="101.264145">
<time>2015-09-27T21:35:01Z</time></trkpt>
<trkpt lat="25.200424" lon="101.263016">
<time>2015-09-27T21:35:02Z</time></trkpt>
<trkpt lat="25.200774" lon="101.262537">
<time>2015-09-27T21:35:03Z</time></trkpt>
<trkpt lat="25.201094" lon="101.262217">
<time>2015-09-27T21:35:04Z</time></trkpt>
<trkpt lat="25.201494" lon="101.262107">
<time>2015-09-27T21:35:05Z</time></trkpt>
<trkpt lat="25.202004" lon="101.262097">
<time>2015-09-27T21:35:06Z</time></trkpt>
<trkpt lat="25.202404" lon="101.262057">
<time>2015-09-27T21:35:07Z</time></trkpt>
<trkpt lat="25.202864" lon="101.261887">
<time>2015-09-27T21:35:08Z</time></trkpt>
<trkpt lat="25.203184" lon="101.261687">
<time>2015-09-27T21:35:09Z</time></trkpt>
<trkpt lat="25.203465" lon="101.261388">
<time>2015-09-27T21:35:10Z</time></trkpt>
<trkpt lat="25.203815" lon="101.260658">
<time>2015-09-27T21:35:11Z</time></trkpt>
<trkpt lat="25.204115" lon="101.260269">
<time>2015-09-27T21:35:12Z</time></trkpt>
<trkpt lat="25.204235" lon="101.260039">
<time>2015-09-27T21:35:13Z</time></trkpt>
<trkpt lat="25.204385" lon="101.259629">
<time>2015-09-27T21:35:14Z</time></trkpt>
<trkpt lat="25.204455" lon="101.25926">
<time>2015-09-27T21:35:15Z</time></trkpt>
<trkpt lat="25.204526" lon="101.25875">
<time>2015-09-27T21:35:16Z</time></trkpt>
<trkpt lat="25.204756" lon="101.25822">
<time>2015-09-27T21:35:17Z</time></trkpt>
<trkpt lat="25.205406" lon="101.257291">
<time>2015-09-27T21:35:18Z</time></trkpt>
<trkpt lat="25.205416" lon="101.257291">
<time>2015-09-27T21:35:19Z</time></trkpt>
<trkpt lat="25.205436" lon="101.257261">
<time>2015-09-27T21:35:20Z</time></trkpt>
<trkpt lat="25.205606" lon="101.257131">
<time>2015-09-27T21:35:21Z</time></trkpt>
<trkpt lat="25.205726" lon="101.257051">
<time>2015-09-27T21:35:22Z</time></trkpt>
<trkpt lat="25.207027" lon="101.256062">
<time>2015-09-27T21:35:23Z</time></trkpt>
<trkpt lat="25.207837" lon="101.255303">
<time>2015-09-27T21:35:24Z</time></trkpt>
<trkpt lat="25.208027" lon="101.255073">
<time>2015-09-27T21:35:25Z</time></trkpt>
<trkpt lat="25.208277" lon="101.254593">
<time>2015-09-27T21:35:26Z</time></trkpt>
<trkpt lat="25.208507" lon="101.254403">
<time>2015-09-27T21:35:27Z</time></trkpt>
<trkpt lat="25.208657" lon="101.254213">
<time>2015-09-27T21:35:28Z</time></trkpt>
<trkpt lat="25.208817" lon="101.253823">
<time>2015-09-27T21:35:29Z</time></trkpt>
<trkpt lat="25.209787" lon="101.252564">
<time>2015-09-27T21:35:30Z</time></trkpt>
<trkpt lat="25.209987" lon="101.252284">
<time>2015-09-27T21:35:31Z</time></trkpt>
<trkpt lat="25.210007" lon="101.252244">
<time>2015-09-27T21:35:32Z</time></trkpt>
<trkpt lat="25.210107" lon="101.252015">
<time>2015-09-27T21:35:33Z</time></trkpt>
<trkpt lat="25.210348" lon="101.250735">
<time>2015-09-27T21:35:34Z</time></trkpt>
<trkpt lat="25.210418" lon="101.250435">
<time>2015-09-27T21:35:35Z</time></trkpt>
<trkpt lat="25.210708" lon="101.250016">
<time>2015-09-27T21:35:36Z</time></trkpt>
<trkpt lat="25.211038" lon="101.249546">
<time>2015-09-27T21:35:37Z</time></trkpt>
<trkpt lat="25.211198" lon="101.249076">
<time>2015-09-27T21:35:38Z</time></trkpt>
<trkpt lat="25.211398" lon="101.248836">
<time>2015-09-27T21:35:39Z</time></trkpt>
<trkpt lat="25.211418" lon="101.248586">
<time>2015-09-27T21:35:40Z</time></trkpt>
<trkpt lat="25.211318" lon="101.247777">
<time>2015-09-27T21:35:41Z</time></trkpt>
<trkpt lat="25.211408" lon="101.247427">
<time>2015-09-27T21:35:42Z</time></trkpt>
<trkpt lat="25.211408" lon="101.247427">
<time>2015-09-27T21:35:43Z</time></trkpt>
<trkpt lat="25.211378" lon="101.247337">
<time>2015-09-27T21:35:44Z</time></trkpt>
<trkpt lat="25.211348" lon="101.247177">
<time>2015-09-27T21:35:45Z</time></trkpt>
<trkpt lat="25.211328" lon="101.247007">
<time>2015-09-27T21:35:46Z</time></trkpt>
<trkpt lat="25.211328" lon="101.246967">
<time>2015-09-27T21:35:47Z</time></trkpt>
<trkpt lat="25.211258" lon="101.246047">
<time>2015-09-27T21:35:48Z</time></trkpt>
<trkpt lat="25.211228" lon="101.245507">
<time>2015-09-27T21:35:49Z</time></trkpt>
<trkpt lat="25.211237" lon="101.245317">
<time>2015-09-27T21:35:50Z</time></trkpt>
<trkpt lat="25.211287" lon="101.245147">
<time>2015-09-27T21:35:51Z</time></trkpt>
<trkpt lat="25.211377" lon="101.244968">
<time>2015-09-27T21:35:52Z</time></trkpt>
<trkpt lat="25.211607" lon="101.244698">
<time>2015-09-27T21:35:53Z</time></trkpt>
<trkpt lat="25.212197" lon="101.244108">
<time>2015-09-27T21:35:54Z</time></trkpt>
<trkpt lat="25.212277" lon="101.244028">
<time>2015-09-27T21:35:55Z</time></trkpt>
<trkpt lat="25.212317" lon="101.243948">
<time>2015-09-27T21:35:56Z</time></trkpt>
<trkpt lat="25.212367" lon="101.243848">
<time>2015-09-27T21:35:57Z</time></trkpt>
<trkpt lat="25.212387" lon="101.243758">
<time>2015-09-27T21:35:58Z</time></trkpt>
<trkpt lat="25.212397" lon="101.243738">
<time>2015-09-27T21:35:59Z</time></trkpt>
<trkpt lat="25.212417" lon="101.243578">
<time>2015-09-27T21:36:00Z</time></trkpt>
<trkpt lat="25.212427" lon="101.243388">
<time>2015-09-27T21:36:01Z</time></trkpt>
<trkpt lat="25.212447" lon="101.242448">
<time>2015-09-27T21:36:02Z</time></trkpt>
<trkpt lat="25.212496" lon="101.240158">
<time>2015-09-27T21:36:03Z</time></trkpt>
<trkpt lat="25.212506" lon="101.239878">
<time>2015-09-27T21:36:04Z</time></trkpt>
<trkpt lat="25.212506" lon="101.239738">
<time>2015-09-27T21:36:05Z</time></trkpt>
<trkpt lat="25.212496" lon="101.239608">
<time>2015-09-27T21:36:06Z</time></trkpt>
<trkpt lat="25.212466" lon="101.239458">
<time>2015-09-27T21:36:07Z</time></trkpt>
<trkpt lat="25.212426" lon="101.239318">
<time>2015-09-27T21:36:08Z</time></trkpt>
<trkpt lat="25.212326" lon="101.239098">
<time>2015-09-27T21:36:09Z</time></trkpt>
<trkpt lat="25.212246" lon="101.238968">
<time>2015-09-27T21:36:10Z</time></trkpt>
<trkpt lat="25.211696" lon="101.238069">
<time>2015-09-27T21:36:11Z</time></trkpt>
<trkpt lat="25.211596" lon="101.237899">
<time>2015-09-27T21:36:12Z</time></trkpt>
<trkpt lat="25.211526" lon="101.237769">
<time>2015-09-27T21:36:13Z</time></trkpt>
<trkpt lat="25.211165" lon="101.237059">
<time>2015-09-27T21:36:14Z</time></trkpt>
<trkpt lat="25.211125" lon="101.236858">
<time>2015-09-27T21:36:15Z</time></trkpt>
<trkpt lat="25.211045" lon="101.236448">
<time>2015-09-27T21:36:16Z</time></trkpt>
<trkpt lat="25.210945" lon="101.236178">
<time>2015-09-27T21:36:17Z</time></trkpt>
<trkpt lat="25.210785" lon="101.235938">
<time>2015-09-27T21:36:18Z</time></trkpt>
<trkpt lat="25.210485" lon="101.235558">
<time>2015-09-27T21:36:19Z</time></trkpt>
<trkpt lat="25.209484" lon="101.234288">
<time>2015-09-27T21:36:20Z</time></trkpt>
<trkpt lat="25.209384" lon="101.234128">
<time>2015-09-27T21:36:21Z</time></trkpt>
<trkpt lat="25.209284" lon="101.233898">
<time>2015-09-27T21:36:22Z</time></trkpt>
<trkpt lat="25.209174" lon="101.233648">
<time>2015-09-27T21:36:23Z</time></trkpt>
<trkpt lat="25.209114" lon="101.233488">
<time>2015-09-27T21:36:24Z</time></trkpt>
<trkpt lat="25.208783" lon="101.232568">
<time>2015-09-27T21:36:25Z</time></trkpt>
<trkpt lat="25.208643" lon="101.232168">
<time>2015-09-27T21:36:26Z</time></trkpt>
<trkpt lat="25.208613" lon="101.231998">
<time>2015-09-27T21:36:27Z</time></trkpt>
<trkpt lat="25.208583" lon="101.231818">
<time>2015-09-27T21:36:28Z</time></trkpt>
<trkpt lat="25.208502" lon="101.230838">
<time>2015-09-27T21:36:29Z</time></trkpt>
<trkpt lat="25.208472" lon="101.230397">
<time>2015-09-27T21:36:30Z</time></trkpt>
<trkpt lat="25.208452" lon="101.230157">
<time>2015-09-27T21:36:31Z</time></trkpt>
<trkpt lat="25.208461" lon="101.229967">
<time>2015-09-27T21:36:32Z</time></trkpt>
<trkpt lat="25.208551" lon="101.229477">
<time>2015-09-27T21:36:33Z</time></trkpt>
<trkpt lat="25.208581" lon="101.229267">
<time>2015-09-27T21:36:34Z</time></trkpt>
<trkpt lat="25.209507" lon="101.224755">
<time>2015-09-27T21:36:35Z</time></trkpt>
<trkpt lat="25.209846" lon="101.222984">
<time>2015-09-27T21:36:36Z</time></trkpt>
<trkpt lat="25.209925" lon="101.222564">
<time>2015-09-27T21:36:37Z</time></trkpt>
<trkpt lat="25.210005" lon="101.222294">
<time>2015-09-27T21:36:38Z</time></trkpt>
<trkpt lat="25.210105" lon="101.222054">
<time>2015-09-27T21:36:39Z</time></trkpt>
<trkpt lat="25.210255" lon="101.221814">
<time>2015-09-27T21:36:40Z</time></trkpt>
<trkpt lat="25.210484" lon="101.221483">
<time>2015-09-27T21:36:41Z</time></trkpt>
<trkpt lat="25.211363" lon="101.220182">
<time>2015-09-27T21:36:42Z</time></trkpt>
<trkpt lat="25.211533" lon="101.219912">
<time>2015-09-27T21:36:43Z</time></trkpt>
<trkpt lat="25.211603" lon="101.219762">
<time>2015-09-27T21:36:44Z</time></trkpt>
<trkpt lat="25.211652" lon="101.219622">
<time>2015-09-27T21:36:45Z</time></trkpt>
<trkpt lat="25.211682" lon="101.219512">
<time>2015-09-27T21:36:46Z</time></trkpt>
<trkpt lat="25.211692" lon="101.219372">
<time>2015-09-27T21:36:47Z</time></trkpt>
<trkpt lat="25.211692" lon="101.219222">
<time>2015-09-27T21:36:48Z</time></trkpt>
<trkpt lat="25.211702" lon="101.218781">
<time>2015-09-27T21:36:49Z</time></trkpt>
<trkpt lat="25.211731" lon="101.217771">
<time>2015-09-27T21:36:50Z</time></trkpt>
<trkpt lat="25.21175" lon="101.217631">
<time>2015-09-27T21:36:51Z</time></trkpt>
<trkpt lat="25.2118" lon="101.217481">
<time>2015-09-27T21:36:52Z</time></trkpt>
<trkpt lat="25.21186" lon="101.21737">
<time>2015-09-27T21:36:53Z</time></trkpt>
<trkpt lat="25.21192" lon="101.21727">
<time>2015-09-27T21:36:54Z</time></trkpt>
<trkpt lat="25.21198" lon="101.21721">
<time>2015-09-27T21:36:55Z</time></trkpt>
<trkpt lat="25.21201" lon="101.21718">
<time>2015-09-27T21:36:56Z</time></trkpt>
<trkpt lat="25.2121" lon="101.21711">
<time>2015-09-27T21:36:57Z</time></trkpt>
<trkpt lat="25.2122" lon="101.21704">
<time>2015-09-27T21:36:58Z</time></trkpt>
<trkpt lat="25.212699" lon="101.21682">
<time>2015-09-27T21:36:59Z</time></trkpt>
<trkpt lat="25.212849" lon="101.21672">
<time>2015-09-27T21:37:00Z</time></trkpt>
<trkpt lat="25.212999" lon="101.21656">
<time>2015-09-27T21:37:01Z</time></trkpt>
<trkpt lat="25.214467" lon="101.214718">
<time>2015-09-27T21:37:02Z</time></trkpt>
<trkpt lat="25.216004" lon="101.212486">
<time>2015-09-27T21:37:03Z</time></trkpt>
<trkpt lat="25.216513" lon="101.211756">
<time>2015-09-27T21:37:04Z</time></trkpt>
<trkpt lat="25.216573" lon="101.211665">
<time>2015-09-27T21:37:05Z</time></trkpt>
<trkpt lat="25.216623" lon="101.211615">
<time>2015-09-27T21:37:06Z</time></trkpt>
<trkpt lat="25.216683" lon="101.211565">
<time>2015-09-27T21:37:07Z</time></trkpt>
<trkpt lat="25.216733" lon="101.211535">
<time>2015-09-27T21:37:08Z</time></trkpt>
<trkpt lat="25.216793" lon="101.211505">
<time>2015-09-27T21:37:09Z</time></trkpt>
<trkpt lat="25.216843" lon="101.211495">
<time>2015-09-27T21:37:10Z</time></trkpt>
<trkpt lat="25.216903" lon="101.211485">
<time>2015-09-27T21:37:11Z</time></trkpt>
<trkpt lat="25.216963" lon="101.211485">
<time>2015-09-27T21:37:12Z</time></trkpt>
<trkpt lat="25.217043" lon="101.211505">
<time>2015-09-27T21:37:13Z</time></trkpt>
<trkpt lat="25.217103" lon="101.211535">
<time>2015-09-27T21:37:14Z</time></trkpt>
<trkpt lat="25.217173" lon="101.211585">
<time>2015-09-27T21:37:15Z</time></trkpt>
<trkpt lat="25.217263" lon="101.211655">
<time>2015-09-27T21:37:16Z</time></trkpt>
<trkpt lat="25.217333" lon="101.211735">
<time>2015-09-27T21:37:17Z</time></trkpt>
<trkpt lat="25.217534" lon="101.212036">
<time>2015-09-27T21:37:18Z</time></trkpt>
<trkpt lat="25.217604" lon="101.212126">
<time>2015-09-27T21:37:19Z</time></trkpt>
<trkpt lat="25.217654" lon="101.212166">
<time>2015-09-27T21:37:20Z</time></trkpt>
<trkpt lat="25.217704" lon="101.212186">
<time>2015-09-27T21:37:21Z</time></trkpt>
<trkpt lat="25.217784" lon="101.212216">
<time>2015-09-27T21:37:22Z</time></trkpt>
<trkpt lat="25.217824" lon="101.212236">
<time>2015-09-27T21:37:23Z</time></trkpt>
<trkpt lat="25.217844" lon="101.212246">
<time>2015-09-27T21:37:24Z</time></trkpt>
<trkpt lat="25.218044" lon="101.212296">
<time>2015-09-27T21:37:25Z</time></trkpt>
<trkpt lat="25.218334" lon="101.212386">
<time>2015-09-27T21:37:26Z</time></trkpt>
<trkpt lat="25.218574" lon="101.212506">
<time>2015-09-27T21:37:27Z</time></trkpt>
<trkpt lat="25.219005" lon="101.212706">
<time>2015-09-27T21:37:28Z</time></trkpt>
<trkpt lat="25.219095" lon="101.212736">
<time>2015-09-27T21:37:29Z</time></trkpt>
<trkpt lat="25.219145" lon="101.212746">
<time>2015-09-27T21:37:30Z</time></trkpt>
<trkpt lat="25.219185" lon="101.212756">
<time>2015-09-27T21:37:31Z</time></trkpt>
<trkpt lat="25.219225" lon="101.212756">
<time>2015-09-27T21:37:32Z</time></trkpt>
<trkpt lat="25.219265" lon="101.212756">
<time>2015-09-27T21:37:33Z</time></trkpt>
<trkpt lat="25.219325" lon="101.212756">
<time>2015-09-27T21:37:34Z</time></trkpt>
<trkpt lat="25.219355" lon="101.212746">
<time>2015-09-27T21:37:35Z</time></trkpt>
<trkpt lat="25.219385" lon="101.212736">
<time>2015-09-27T21:37:36Z</time></trkpt>
<trkpt lat="25.219425" lon="101.212726">
<time>2015-09-27T21:37:37Z</time></trkpt>
<trkpt lat="25.219475" lon="101.212696">
<time>2015-09-27T21:37:38Z</time></trkpt>
<trkpt lat="25.219544" lon="101.212646">
<time>2015-09-27T21:37:39Z</time></trkpt>
<trkpt lat="25.219644" lon="101.212566">
<time>2015-09-27T21:37:40Z</time></trkpt>
<trkpt lat="25.219724" lon="101.212496">
<time>2015-09-27T21:37:41Z</time></trkpt>
<trkpt lat="25.220533" lon="101.211725">
<time>2015-09-27T21:37:42Z</time></trkpt>
<trkpt lat="25.220743" lon="101.211535">
<time>2015-09-27T21:37:43Z</time></trkpt>
<trkpt lat="25.222211" lon="101.210214">
<time>2015-09-27T21:37:44Z</time></trkpt>
<trkpt lat="25.222391" lon="101.210014">
<time>2015-09-27T21:37:45Z</time></trkpt>
<trkpt lat="25.222521" lon="101.209844">
<time>2015-09-27T21:37:46Z</time></trkpt>
<trkpt lat="25.222621" lon="101.209683">
<time>2015-09-27T21:37:47Z</time></trkpt>
<trkpt lat="25.22298" lon="101.209063">
<time>2015-09-27T21:37:48Z</time></trkpt>
<trkpt lat="25.223359" lon="101.208402">
<time>2015-09-27T21:37:49Z</time></trkpt>
<trkpt lat="25.224646" lon="101.20621">
<time>2015-09-27T21:37:50Z</time></trkpt>
<trkpt lat="25.225055" lon="101.205449">
<time>2015-09-27T21:37:51Z</time></trkpt>
<trkpt lat="25.225334" lon="101.204828">
<time>2015-09-27T21:37:52Z</time></trkpt>
<trkpt lat="25.225523" lon="101.204368">
<time>2015-09-27T21:37:53Z</time></trkpt>
<trkpt lat="25.225573" lon="101.204247">
<time>2015-09-27T21:37:54Z</time></trkpt>
<trkpt lat="25.225623" lon="101.204147">
<time>2015-09-27T21:37:55Z</time></trkpt>
<trkpt lat="25.225663" lon="101.204057">
<time>2015-09-27T21:37:56Z</time></trkpt>
<trkpt lat="25.225693" lon="101.203967">
<time>2015-09-27T21:37:57Z</time></trkpt>
<trkpt lat="25.225703" lon="101.203867">
<time>2015-09-27T21:37:58Z</time></trkpt>
<trkpt lat="25.225712" lon="101.203747">
<time>2015-09-27T21:37:59Z</time></trkpt>
<trkpt lat="25.225692" lon="101.203597">
<time>2015-09-27T21:38:00Z</time></trkpt>
<trkpt lat="25.225581" lon="101.203066">
<time>2015-09-27T21:38:01Z</time></trkpt>
<trkpt lat="25.22542" lon="101.202405">
<time>2015-09-27T21:38:02Z</time></trkpt>
<trkpt lat="25.225149" lon="101.201604">
<time>2015-09-27T21:38:03Z</time></trkpt>
<trkpt lat="25.225059" lon="101.201414">
<time>2015-09-27T21:38:04Z</time></trkpt>
<trkpt lat="25.224989" lon="101.201284">
<time>2015-09-27T21:38:05Z</time></trkpt>
<trkpt lat="25.224908" lon="101.201174">
<time>2015-09-27T21:38:06Z</time></trkpt>
<trkpt lat="25.224788" lon="101.201054">
<time>2015-09-27T21:38:07Z</time></trkpt>
<trkpt lat="25.224588" lon="101.200883">
<time>2015-09-27T21:38:08Z</time></trkpt>
<trkpt lat="25.224078" lon="101.200553">
<time>2015-09-27T21:38:09Z</time></trkpt>
<trkpt lat="25.222916" lon="101.199782">
<time>2015-09-27T21:38:10Z</time></trkpt>
<trkpt lat="25.222816" lon="101.199702">
<time>2015-09-27T21:38:11Z</time></trkpt>
<trkpt lat="25.222716" lon="101.199602">
<time>2015-09-27T21:38:12Z</time></trkpt>
<trkpt lat="25.222606" lon="101.199472">
<time>2015-09-27T21:38:13Z</time></trkpt>
<trkpt lat="25.222466" lon="101.199292">
<time>2015-09-27T21:38:14Z</time></trkpt>
<trkpt lat="25.222275" lon="101.199041">
<time>2015-09-27T21:38:15Z</time></trkpt>
<trkpt lat="25.221854" lon="101.1984">
<time>2015-09-27T21:38:16Z</time></trkpt>
<trkpt lat="25.221784" lon="101.19825">
<time>2015-09-27T21:38:17Z</time></trkpt>
<trkpt lat="25.221744" lon="101.19817">
<time>2015-09-27T21:38:18Z</time></trkpt>
<trkpt lat="25.221714" lon="101.19806">
<time>2015-09-27T21:38:19Z</time></trkpt>
<trkpt lat="25.221673" lon="101.19789">
<time>2015-09-27T21:38:20Z</time></trkpt>
<trkpt lat="25.221643" lon="101.19772">
<time>2015-09-27T21:38:21Z</time></trkpt>
<trkpt lat="25.221603" lon="101.197489">
<time>2015-09-27T21:38:22Z</time></trkpt>
<trkpt lat="25.221582" lon="101.197319">
<time>2015-09-27T21:38:23Z</time></trkpt>
<trkpt lat="25.221582" lon="101.197289">
<time>2015-09-27T21:38:24Z</time></trkpt>
<trkpt lat="25.221572" lon="101.197109">
<time>2015-09-27T21:38:25Z</time></trkpt>
<trkpt lat="25.221562" lon="101.196939">
<time>2015-09-27T21:38:26Z</time></trkpt>
<trkpt lat="25.221572" lon="101.196798">
<time>2015-09-27T21:38:27Z</time></trkpt>
<trkpt lat="25.221572" lon="101.196778">
<time>2015-09-27T21:38:28Z</time></trkpt>
<trkpt lat="25.221591" lon="101.196648">
<time>2015-09-27T21:38:29Z</time></trkpt>
<trkpt lat="25.221611" lon="101.196518">
<time>2015-09-27T21:38:30Z</time></trkpt>
<trkpt lat="25.22176" lon="101.195767">
<time>2015-09-27T21:38:31Z</time></trkpt>
<trkpt lat="25.2218" lon="101.195547">
<time>2015-09-27T21:38:32Z</time></trkpt>
<trkpt lat="25.221879" lon="101.195186">
<time>2015-09-27T21:38:33Z</time></trkpt>
<trkpt lat="25.221959" lon="101.194966">
<time>2015-09-27T21:38:34Z</time></trkpt>
<trkpt lat="25.222048" lon="101.194786">
<time>2015-09-27T21:38:35Z</time></trkpt>
<trkpt lat="25.222158" lon="101.194615">
<time>2015-09-27T21:38:36Z</time></trkpt>
<trkpt lat="25.222258" lon="101.194475">
<time>2015-09-27T21:38:37Z</time></trkpt>
<trkpt lat="25.222467" lon="101.194215">
<time>2015-09-27T21:38:38Z</time></trkpt>
<trkpt lat="25.222637" lon="101.194035">
<time>2015-09-27T21:38:39Z</time></trkpt>
<trkpt lat="25.222787" lon="101.193924">
<time>2015-09-27T21:38:40Z</time></trkpt>
<trkpt lat="25.223007" lon="101.193784">
<time>2015-09-27T21:38:41Z</time></trkpt>
<trkpt lat="25.223196" lon="101.193664">
<time>2015-09-27T21:38:42Z</time></trkpt>
<trkpt lat="25.223436" lon="101.193514">
<time>2015-09-27T21:38:43Z</time></trkpt>
<trkpt lat="25.223586" lon="101.193414">
<time>2015-09-27T21:38:44Z</time></trkpt>
<trkpt lat="25.223726" lon="101.193294">
<time>2015-09-27T21:38:45Z</time></trkpt>
<trkpt lat="25.223836" lon="101.193153">
<time>2015-09-27T21:38:46Z</time></trkpt>
<trkpt lat="25.223925" lon="101.193033">
<time>2015-09-27T21:38:47Z</time></trkpt>
<trkpt lat="25.224324" lon="101.192352">
<time>2015-09-27T21:38:48Z</time></trkpt>
<trkpt lat="25.224414" lon="101.192182">
<time>2015-09-27T21:38:49Z</time></trkpt>
<trkpt lat="25.224474" lon="101.192032">
<time>2015-09-27T21:38:50Z</time></trkpt>
<trkpt lat="25.224503" lon="101.191922">
<time>2015-09-27T21:38:51Z</time></trkpt>
<trkpt lat="25.224523" lon="101.191791">
<time>2015-09-27T21:38:52Z</time></trkpt>
<trkpt lat="25.224533" lon="101.191691">
<time>2015-09-27T21:38:53Z</time></trkpt>
<trkpt lat="25.224513" lon="101.191511">
<time>2015-09-27T21:38:54Z</time></trkpt>
<trkpt lat="25.224371" lon="101.19051">
<time>2015-09-27T21:38:55Z</time></trkpt>
<trkpt lat="25.224341" lon="101.190259">
<time>2015-09-27T21:38:56Z</time></trkpt>
<trkpt lat="25.22434" lon="101.190019">
<time>2015-09-27T21:38:57Z</time></trkpt>
<trkpt lat="25.22435" lon="101.189759">
<time>2015-09-27T21:38:58Z</time></trkpt>
<trkpt lat="25.22436" lon="101.189718">
<time>2015-09-27T21:38:59Z</time></trkpt>
<trkpt lat="25.224379" lon="101.189488">
<time>2015-09-27T21:39:00Z</time></trkpt>
<trkpt lat="25.224409" lon="101.189308">
<time>2015-09-27T21:39:01Z</time></trkpt>
<trkpt lat="25.224449" lon="101.189148">
<time>2015-09-27T21:39:02Z</time></trkpt>
<trkpt lat="25.224488" lon="101.189017">
<time>2015-09-27T21:39:03Z</time></trkpt>
<trkpt lat="25.224558" lon="101.188877">
<time>2015-09-27T21:39:04Z</time></trkpt>
<trkpt lat="25.224648" lon="101.188747">
<time>2015-09-27T21:39:05Z</time></trkpt>
<trkpt lat="25.225736" lon="101.187505">
<time>2015-09-27T21:39:06Z</time></trkpt>
<trkpt lat="25.225796" lon="101.187445">
<time>2015-09-27T21:39:07Z</time></trkpt>
<trkpt lat="25.225846" lon="101.187405">
<time>2015-09-27T21:39:08Z</time></trkpt>
<trkpt lat="25.225915" lon="101.187375">
<time>2015-09-27T21:39:09Z</time></trkpt>
<trkpt lat="25.225975" lon="101.187355">
<time>2015-09-27T21:39:10Z</time></trkpt>
<trkpt lat="25.226035" lon="101.187335">
<time>2015-09-27T21:39:11Z</time></trkpt>
<trkpt lat="25.226115" lon="101.187335">
<time>2015-09-27T21:39:12Z</time></trkpt>
<trkpt lat="25.226255" lon="101.187345">
<time>2015-09-27T21:39:13Z</time></trkpt>
<trkpt lat="25.228586" lon="101.187535">
<time>2015-09-27T21:39:14Z</time></trkpt>
<trkpt lat="25.228826" lon="101.187565">
<time>2015-09-27T21:39:15Z</time></trkpt>
<trkpt lat="25.228926" lon="101.187575">
<time>2015-09-27T21:39:16Z</time></trkpt>
<trkpt lat="25.229026" lon="101.187595">
<time>2015-09-27T21:39:17Z</time></trkpt>
<trkpt lat="25.229096" lon="101.187615">
<time>2015-09-27T21:39:18Z</time></trkpt>
<trkpt lat="25.229166" lon="101.187645">
<time>2015-09-27T21:39:19Z</time></trkpt>
<trkpt lat="25.229226" lon="101.187675">
<time>2015-09-27T21:39:20Z</time></trkpt>
<trkpt lat="25.229276" lon="101.187705">
<time>2015-09-27T21:39:21Z</time></trkpt>
<trkpt lat="25.229336" lon="101.187745">
<time>2015-09-27T21:39:22Z</time></trkpt>
<trkpt lat="25.229396" lon="101.187796">
<time>2015-09-27T21:39:23Z</time></trkpt>
<trkpt lat="25.229446" lon="101.187866">
<time>2015-09-27T21:39:24Z</time></trkpt>
<trkpt lat="25.229486" lon="101.187916">
<time>2015-09-27T21:39:25Z</time></trkpt>
<trkpt lat="25.229527" lon="101.187986">
<time>2015-09-27T21:39:26Z</time></trkpt>
<trkpt lat="25.229637" lon="101.188216">
<time>2015-09-27T21:39:27Z</time></trkpt>
<trkpt lat="25.229757" lon="101.188436">
<time>2015-09-27T21:39:28Z</time></trkpt>
<trkpt lat="25.229848" lon="101.188567">
<time>2015-09-27T21:39:29Z</time></trkpt>
<trkpt lat="25.229918" lon="101.188647">
<time>2015-09-27T21:39:30Z</time></trkpt>
<trkpt lat="25.229988" lon="101.188727">
<time>2015-09-27T21:39:31Z</time></trkpt>
<trkpt lat="25.230088" lon="101.188817">
<time>2015-09-27T21:39:32Z</time></trkpt>
<trkpt lat="25.230519" lon="101.189188">
<time>2015-09-27T21:39:33Z</time></trkpt>
<trkpt lat="25.231009" lon="101.189628">
<time>2015-09-27T21:39:34Z</time></trkpt>
<trkpt lat="25.23112" lon="101.189698">
<time>2015-09-27T21:39:35Z</time></trkpt>
<trkpt lat="25.23126" lon="101.189758">
<time>2015-09-27T21:39:36Z</time></trkpt>
<trkpt lat="25.23142" lon="101.189788">
<time>2015-09-27T21:39:37Z</time></trkpt>
<trkpt lat="25.23166" lon="101.189828">
<time>2015-09-27T21:39:38Z</time></trkpt>
<trkpt lat="25.23185" lon="101.189848">
<time>2015-09-27T21:39:39Z</time></trkpt>
<trkpt lat="25.232" lon="101.189848">
<time>2015-09-27T21:39:40Z</time></trkpt>
<trkpt lat="25.23212" lon="101.189828">
<time>2015-09-27T21:39:41Z</time></trkpt>
<trkpt lat="25.23221" lon="101.189788">
<time>2015-09-27T21:39:42Z</time></trkpt>
<trkpt lat="25.23223" lon="101.189778">
<time>2015-09-27T21:39:43Z</time></trkpt>
<trkpt lat="25.2323" lon="101.189698">
<time>2015-09-27T21:39:44Z</time></trkpt>
<trkpt lat="25.232349" lon="101.189598">
<time>2015-09-27T21:39:45Z</time></trkpt>
<trkpt lat="25.232389" lon="101.189488">
<time>2015-09-27T21:39:46Z</time></trkpt>
<trkpt lat="25.232409" lon="101.189388">
<time>2015-09-27T21:39:47Z</time></trkpt>
<trkpt lat="25.232419" lon="101.189278">
<time>2015-09-27T21:39:48Z</time></trkpt>
<trkpt lat="25.232419" lon="101.189157">
<time>2015-09-27T21:39:49Z</time></trkpt>
<trkpt lat="25.232418" lon="101.188957">
<time>2015-09-27T21:39:50Z</time></trkpt>
<trkpt lat="25.232388" lon="101.188757">
<time>2015-09-27T21:39:51Z</time></trkpt>
<trkpt lat="25.232358" lon="101.188587">
<time>2015-09-27T21:39:52Z</time></trkpt>
<trkpt lat="25.232277" lon="101.188256">
<time>2015-09-27T21:39:53Z</time></trkpt>
<trkpt lat="25.232257" lon="101.188136">
<time>2015-09-27T21:39:54Z</time></trkpt>
<trkpt lat="25.232257" lon="101.188036">
<time>2015-09-27T21:39:55Z</time></trkpt>
<trkpt lat="25.232267" lon="101.187936">
<time>2015-09-27T21:39:56Z</time></trkpt>
<trkpt lat="25.232286" lon="101.187815">
<time>2015-09-27T21:39:57Z</time></trkpt>
<trkpt lat="25.232326" lon="101.187715">
<time>2015-09-27T21:39:58Z</time></trkpt>
<trkpt lat="25.232366" lon="101.187635">
<time>2015-09-27T21:39:59Z</time></trkpt>
<trkpt lat="25.232745" lon="101.187144">
<time>2015-09-27T21:40:00Z</time></trkpt>
<trkpt lat="25.232815" lon="101.187004">
<time>2015-09-27T21:40:01Z</time></trkpt>
<trkpt lat="25.232865" lon="101.186864">
<time>2015-09-27T21:40:02Z</time></trkpt>
<trkpt lat="25.232904" lon="101.186714">
<time>2015-09-27T21:40:03Z</time></trkpt>
<trkpt lat="25.233121" lon="101.184731">
<time>2015-09-27T21:40:04Z</time></trkpt>
<trkpt lat="25.233278" lon="101.183329">
<time>2015-09-27T21:40:05Z</time></trkpt>
<trkpt lat="25.233338" lon="101.182978">
<time>2015-09-27T21:40:06Z</time></trkpt>
<trkpt lat="25.233367" lon="101.182858">
<time>2015-09-27T21:40:07Z</time></trkpt>
<trkpt lat="25.233417" lon="101.182738">
<time>2015-09-27T21:40:08Z</time></trkpt>
<trkpt lat="25.233457" lon="101.182618">
<time>2015-09-27T21:40:09Z</time></trkpt>
<trkpt lat="25.233517" lon="101.182507">
<time>2015-09-27T21:40:10Z</time></trkpt>
<trkpt lat="25.233587" lon="101.182387">
<time>2015-09-27T21:40:11Z</time></trkpt>
<trkpt lat="25.233666" lon="101.182277">
<time>2015-09-27T21:40:12Z</time></trkpt>
<trkpt lat="25.234175" lon="101.181536">
<time>2015-09-27T21:40:13Z</time></trkpt>
<trkpt lat="25.234215" lon="101.181476">
<time>2015-09-27T21:40:14Z</time></trkpt>
<trkpt lat="25.234534" lon="101.181055">
<time>2015-09-27T21:40:15Z</time></trkpt>
<trkpt lat="25.234883" lon="101.180645">
<time>2015-09-27T21:40:16Z</time></trkpt>
<trkpt lat="25.235282" lon="101.180194">
<time>2015-09-27T21:40:17Z</time></trkpt>
<trkpt lat="25.236301" lon="101.179122">
<time>2015-09-27T21:40:18Z</time></trkpt>
<trkpt lat="25.23674" lon="101.178621">
<time>2015-09-27T21:40:19Z</time></trkpt>
<trkpt lat="25.236839" lon="101.178511">
<time>2015-09-27T21:40:20Z</time></trkpt>
<trkpt lat="25.236909" lon="101.178421">
<time>2015-09-27T21:40:21Z</time></trkpt>
<trkpt lat="25.236959" lon="101.178321">
<time>2015-09-27T21:40:22Z</time></trkpt>
<trkpt lat="25.237009" lon="101.178211">
<time>2015-09-27T21:40:23Z</time></trkpt>
<trkpt lat="25.237049" lon="101.178111">
<time>2015-09-27T21:40:24Z</time></trkpt>
<trkpt lat="25.237059" lon="101.1781">
<time>2015-09-27T21:40:25Z</time></trkpt>
<trkpt lat="25.237098" lon="101.17793">
<time>2015-09-27T21:40:26Z</time></trkpt>
<trkpt lat="25.237257" lon="101.177259">
<time>2015-09-27T21:40:27Z</time></trkpt>
<trkpt lat="25.237336" lon="101.176768">
<time>2015-09-27T21:40:28Z</time></trkpt>
<trkpt lat="25.237356" lon="101.176558">
<time>2015-09-27T21:40:29Z</time></trkpt>
<trkpt lat="25.237335" lon="101.176358">
<time>2015-09-27T21:40:30Z</time></trkpt>
<trkpt lat="25.237265" lon="101.175927">
<time>2015-09-27T21:40:31Z</time></trkpt>
<trkpt lat="25.237183" lon="101.175356">
<time>2015-09-27T21:40:32Z</time></trkpt>
<trkpt lat="25.237143" lon="101.175116">
<time>2015-09-27T21:40:33Z</time></trkpt>
<trkpt lat="25.237112" lon="101.174805">
<time>2015-09-27T21:40:34Z</time></trkpt>
<trkpt lat="25.237102" lon="101.174575">
<time>2015-09-27T21:40:35Z</time></trkpt>
<trkpt lat="25.237102" lon="101.174325">
<time>2015-09-27T21:40:36Z</time></trkpt>
<trkpt lat="25.237121" lon="101.174044">
<time>2015-09-27T21:40:37Z</time></trkpt>
<trkpt lat="25.23716" lon="101.173563">
<time>2015-09-27T21:40:38Z</time></trkpt>
<trkpt lat="25.23716" lon="101.173393">
<time>2015-09-27T21:40:39Z</time></trkpt>
<trkpt lat="25.237139" lon="101.173223">
<time>2015-09-27T21:40:40Z</time></trkpt>
<trkpt lat="25.237139" lon="101.173213">
<time>2015-09-27T21:40:41Z</time></trkpt>
<trkpt lat="25.237079" lon="101.172962">
<time>2015-09-27T21:40:42Z</time></trkpt>
<trkpt lat="25.236999" lon="101.172732">
<time>2015-09-27T21:40:43Z</time></trkpt>
<trkpt lat="25.236908" lon="101.172502">
<time>2015-09-27T21:40:44Z</time></trkpt>
<trkpt lat="25.236838" lon="101.172271">
<time>2015-09-27T21:40:45Z</time></trkpt>
<trkpt lat="25.236838" lon="101.172251">
<time>2015-09-27T21:40:46Z</time></trkpt>
<trkpt lat="25.236807" lon="101.172111">
<time>2015-09-27T21:40:47Z</time></trkpt>
<trkpt lat="25.236777" lon="101.171951">
<time>2015-09-27T21:40:48Z</time></trkpt>
<trkpt lat="25.236767" lon="101.17166">
<time>2015-09-27T21:40:49Z</time></trkpt>
<trkpt lat="25.236734" lon="101.170388">
<time>2015-09-27T21:40:50Z</time></trkpt>
<trkpt lat="25.236744" lon="101.170208">
<time>2015-09-27T21:40:51Z</time></trkpt>
<trkpt lat="25.236753" lon="101.170058">
<time>2015-09-27T21:40:52Z</time></trkpt>
<trkpt lat="25.236793" lon="101.169797">
<time>2015-09-27T21:40:53Z</time></trkpt>
<trkpt lat="25.236823" lon="101.169577">
<time>2015-09-27T21:40:54Z</time></trkpt>
<trkpt lat="25.236823" lon="101.169567">
<time>2015-09-27T21:40:55Z</time></trkpt>
<trkpt lat="25.236842" lon="101.169357">
<time>2015-09-27T21:40:56Z</time></trkpt>
<trkpt lat="25.236841" lon="101.168836">
<time>2015-09-27T21:40:57Z</time></trkpt>
<trkpt lat="25.236841" lon="101.168786">
<time>2015-09-27T21:40:58Z</time></trkpt>
<trkpt lat="25.236851" lon="101.168746">
<time>2015-09-27T21:40:59Z</time></trkpt>
<trkpt lat="25.236871" lon="101.168706">
<time>2015-09-27T21:41:00Z</time></trkpt>
<trkpt lat="25.236891" lon="101.168666">
<time>2015-09-27T21:41:01Z</time></trkpt>
<trkpt lat="25.236911" lon="101.168636">
<time>2015-09-27T21:41:02Z</time></trkpt>
<trkpt lat="25.236941" lon="101.168595">
<time>2015-09-27T21:41:03Z</time></trkpt>
<trkpt lat="25.236961" lon="101.168565">
<time>2015-09-27T21:41:04Z</time></trkpt>
<trkpt lat="25.237001" lon="101.168545">
<time>2015-09-27T21:41:05Z</time></trkpt>
<trkpt lat="25.23751" lon="101.168205">
<time>2015-09-27T21:41:06Z</time></trkpt>
<trkpt lat="25.237439" lon="101.167734">
<time>2015-09-27T21:41:07Z</time></trkpt>
<trkpt lat="25.237318" lon="101.167203">
<time>2015-09-27T21:41:08Z</time></trkpt>
<trkpt lat="25.236926" lon="101.166041">
<time>2015-09-27T21:41:09Z</time></trkpt>
<trkpt lat="25.236886" lon="101.165931">
<time>2015-09-27T21:41:10Z</time></trkpt>
<trkpt lat="25.236855" lon="101.165821">
<time>2015-09-27T21:41:11Z</time></trkpt>
<trkpt lat="25.236825" lon="101.165671">
<time>2015-09-27T21:41:12Z</time></trkpt>
<trkpt lat="25.236805" lon="101.165531">
<time>2015-09-27T21:41:13Z</time></trkpt>
<trkpt lat="25.236785" lon="101.1653">
<time>2015-09-27T21:41:14Z</time></trkpt>
<trkpt lat="25.236754" lon="101.16503">
<time>2015-09-27T21:41:15Z</time></trkpt>
<trkpt lat="25.236733" lon="101.164579">
<time>2015-09-27T21:41:16Z</time></trkpt>
<trkpt lat="25.236733" lon="101.164289">
<time>2015-09-27T21:41:17Z</time></trkpt>
<trkpt lat="25.236742" lon="101.164158">
<time>2015-09-27T21:41:18Z</time></trkpt>
<trkpt lat="25.236752" lon="101.164028">
<time>2015-09-27T21:41:19Z</time></trkpt>
<trkpt lat="25.236782" lon="101.163918">
<time>2015-09-27T21:41:20Z</time></trkpt>
<trkpt lat="25.236812" lon="101.163788">
<time>2015-09-27T21:41:21Z</time></trkpt>
<trkpt lat="25.236931" lon="101.163407">
<time>2015-09-27T21:41:22Z</time></trkpt>
<trkpt lat="25.237557" lon="101.161524">
<time>2015-09-27T21:41:23Z</time></trkpt>
<trkpt lat="25.237895" lon="101.160332">
<time>2015-09-27T21:41:24Z</time></trkpt>
<trkpt lat="25.238104" lon="101.159511">
<time>2015-09-27T21:41:25Z</time></trkpt>
<trkpt lat="25.238223" lon="101.15885">
<time>2015-09-27T21:41:26Z</time></trkpt>
<trkpt lat="25.238252" lon="101.15872">
<time>2015-09-27T21:41:27Z</time></trkpt>
<trkpt lat="25.238302" lon="101.15857">
<time>2015-09-27T21:41:28Z</time></trkpt>
<trkpt lat="25.238352" lon="101.15844">
<time>2015-09-27T21:41:29Z</time></trkpt>
<trkpt lat="25.238392" lon="101.158349">
<time>2015-09-27T21:41:30Z</time></trkpt>
<trkpt lat="25.238451" lon="101.158239">
<time>2015-09-27T21:41:31Z</time></trkpt>
<trkpt lat="25.238531" lon="101.158129">
<time>2015-09-27T21:41:32Z</time></trkpt>
<trkpt lat="25.238611" lon="101.158019">
<time>2015-09-27T21:41:33Z</time></trkpt>
<trkpt lat="25.238671" lon="101.157959">
<time>2015-09-27T21:41:34Z</time></trkpt>
<trkpt lat="25.238671" lon="101.157959">
<time>2015-09-27T21:41:35Z</time></trkpt>
<trkpt lat="25.238661" lon="101.157879">
<time>2015-09-27T21:41:36Z</time></trkpt>
<trkpt lat="25.238661" lon="101.157849">
<time>2015-09-27T21:41:37Z</time></trkpt>
<trkpt lat="25.238711" lon="101.157769">
<time>2015-09-27T21:41:38Z</time></trkpt>
<trkpt lat="25.23888" lon="101.157478">
<time>2015-09-27T21:41:39Z</time></trkpt>
<trkpt lat="25.23892" lon="101.157358">
<time>2015-09-27T21:41:40Z</time></trkpt>
<trkpt lat="25.23894" lon="101.157258">
<time>2015-09-27T21:41:41Z</time></trkpt>
<trkpt lat="25.23894" lon="101.157198">
<time>2015-09-27T21:41:42Z</time></trkpt>
<trkpt lat="25.238939" lon="101.157148">
<time>2015-09-27T21:41:43Z</time></trkpt>
<trkpt lat="25.238919" lon="101.157118">
<time>2015-09-27T21:41:44Z</time></trkpt>
<trkpt lat="25.238899" lon="101.157078">
<time>2015-09-27T21:41:45Z</time></trkpt>
<trkpt lat="25.238769" lon="101.156957">
<time>2015-09-27T21:41:46Z</time></trkpt>
<trkpt lat="25.238729" lon="101.156937">
<time>2015-09-27T21:41:47Z</time></trkpt>
<trkpt lat="25.238689" lon="101.156917">
<time>2015-09-27T21:41:48Z</time></trkpt>
<trkpt lat="25.238599" lon="101.156907">
<time>2015-09-27T21:41:49Z</time></trkpt>
<trkpt lat="25.238489" lon="101.156887">
<time>2015-09-27T21:41:50Z</time></trkpt>
<trkpt lat="25.238329" lon="101.156847">
<time>2015-09-27T21:41:51Z</time></trkpt>
<trkpt lat="25.237999" lon="101.156797">
<time>2015-09-27T21:41:52Z</time></trkpt>
<trkpt lat="25.237979" lon="101.156787">
<time>2015-09-27T21:41:53Z</time></trkpt>
<trkpt lat="25.237959" lon="101.156767">
<time>2015-09-27T21:41:54Z</time></trkpt>
<trkpt lat="25.237949" lon="101.156727">
<time>2015-09-27T21:41:55Z</time></trkpt>
<trkpt lat="25.237959" lon="101.156667">
<time>2015-09-27T21:41:56Z</time></trkpt>
<trkpt lat="25.237988" lon="101.156487">
<time>2015-09-27T21:41:57Z</time></trkpt>
<trkpt lat="25.238028" lon="101.156286">
<time>2015-09-27T21:41:58Z</time></trkpt>
<trkpt lat="25.238078" lon="101.156146">
<time>2015-09-27T21:41:59Z</time></trkpt>
<trkpt lat="25.238137" lon="101.155946">
<time>2015-09-27T21:42:00Z</time></trkpt>
<trkpt lat="25.238227" lon="101.155555">
<time>2015-09-27T21:42:01Z</time></trkpt>
<trkpt lat="25.238346" lon="101.155165">
<time>2015-09-27T21:42:02Z</time></trkpt>
<trkpt lat="25.238485" lon="101.154824">
<time>2015-09-27T21:42:03Z</time></trkpt>
<trkpt lat="25.238525" lon="101.154744">
<time>2015-09-27T21:42:04Z</time></trkpt>
<trkpt lat="25.238535" lon="101.154704">
<time>2015-09-27T21:42:05Z</time></trkpt>
<trkpt lat="25.238525" lon="101.154674">
<time>2015-09-27T21:42:06Z</time></trkpt>
<trkpt lat="25.238494" lon="101.154233">
<time>2015-09-27T21:42:07Z</time></trkpt>
<trkpt lat="25.238494" lon="101.154103">
<time>2015-09-27T21:42:08Z</time></trkpt>
<trkpt lat="25.238514" lon="101.154003">
<time>2015-09-27T21:42:09Z</time></trkpt>
<trkpt lat="25.238593" lon="101.153733">
<time>2015-09-27T21:42:10Z</time></trkpt>
<trkpt lat="25.238623" lon="101.153662">
<time>2015-09-27T21:42:11Z</time></trkpt>
<trkpt lat="25.238673" lon="101.153602">
<time>2015-09-27T21:42:12Z</time></trkpt>
<trkpt lat="25.238733" lon="101.153552">
<time>2015-09-27T21:42:13Z</time></trkpt>
<trkpt lat="25.238853" lon="101.153462">
<time>2015-09-27T21:42:14Z</time></trkpt>
<trkpt lat="25.239182" lon="101.153242">
<time>2015-09-27T21:42:15Z</time></trkpt>
<trkpt lat="25.239302" lon="101.153162">
<time>2015-09-27T21:42:16Z</time></trkpt>
<trkpt lat="25.239432" lon="101.153042">
<time>2015-09-27T21:42:17Z</time></trkpt>
<trkpt lat="25.239482" lon="101.152961">
<time>2015-09-27T21:42:18Z</time></trkpt>
<trkpt lat="25.2401" lon="101.15209">
<time>2015-09-27T21:42:19Z</time></trkpt>
<trkpt lat="25.24013" lon="101.15202">
<time>2015-09-27T21:42:20Z</time></trkpt>
<trkpt lat="25.24014" lon="101.15196">
<time>2015-09-27T21:42:21Z</time></trkpt>
<trkpt lat="25.24014" lon="101.1519">
<time>2015-09-27T21:42:22Z</time></trkpt>
<trkpt lat="25.24011" lon="101.15173">
<time>2015-09-27T21:42:23Z</time></trkpt>
<trkpt lat="25.24007" lon="101.151609">
<time>2015-09-27T21:42:24Z</time></trkpt>
<trkpt lat="25.239999" lon="101.151459">
<time>2015-09-27T21:42:25Z</time></trkpt>
<trkpt lat="25.239889" lon="101.151289">
<time>2015-09-27T21:42:26Z</time></trkpt>
<trkpt lat="25.239729" lon="101.151039">
<time>2015-09-27T21:42:27Z</time></trkpt>
<trkpt lat="25.239478" lon="101.150668">
<time>2015-09-27T21:42:28Z</time></trkpt>
<trkpt lat="25.239107" lon="101.150097">
<time>2015-09-27T21:42:29Z</time></trkpt>
<trkpt lat="25.238916" lon="101.149817">
<time>2015-09-27T21:42:30Z</time></trkpt>
<trkpt lat="25.238756" lon="101.149547">
<time>2015-09-27T21:42:31Z</time></trkpt>
<trkpt lat="25.238596" lon="101.149316">
<time>2015-09-27T21:42:32Z</time></trkpt>
<trkpt lat="25.238575" lon="101.149276">
<time>2015-09-27T21:42:33Z</time></trkpt>
<trkpt lat="25.238295" lon="101.148876">
<time>2015-09-27T21:42:34Z</time></trkpt>
<trkpt lat="25.238174" lon="101.148695">
<time>2015-09-27T21:42:35Z</time></trkpt>
<trkpt lat="25.238054" lon="101.148485">
<time>2015-09-27T21:42:36Z</time></trkpt>
<trkpt lat="25.237994" lon="101.148335">
<time>2015-09-27T21:42:37Z</time></trkpt>
<trkpt lat="25.237954" lon="101.148185">
<time>2015-09-27T21:42:38Z</time></trkpt>
<trkpt lat="25.237913" lon="101.147954">
<time>2015-09-27T21:42:39Z</time></trkpt>
<trkpt lat="25.237873" lon="101.147814">
<time>2015-09-27T21:42:40Z</time></trkpt>
<trkpt lat="25.237833" lon="101.147734">
<time>2015-09-27T21:42:41Z</time></trkpt>
<trkpt lat="25.237783" lon="101.147654">
<time>2015-09-27T21:42:42Z</time></trkpt>
<trkpt lat="25.237733" lon="101.147604">
<time>2015-09-27T21:42:43Z</time></trkpt>
<trkpt lat="25.237733" lon="101.147604">
<time>2015-09-27T21:42:44Z</time></trkpt>
<trkpt lat="25.237762" lon="101.147384">
<time>2015-09-27T21:42:45Z</time></trkpt>
<trkpt lat="25.237822" lon="101.147073">
<time>2015-09-27T21:42:46Z</time></trkpt>
<trkpt lat="25.237891" lon="101.146823">
<time>2015-09-27T21:42:47Z</time></trkpt>
<trkpt lat="25.237971" lon="101.146633">
<time>2015-09-27T21:42:48Z</time></trkpt>
<trkpt lat="25.238101" lon="101.146422">
<time>2015-09-27T21:42:49Z</time></trkpt>
<trkpt lat="25.2383" lon="101.146162">
<time>2015-09-27T21:42:50Z</time></trkpt>
<trkpt lat="25.23845" lon="101.145902">
<time>2015-09-27T21:42:51Z</time></trkpt>
<trkpt lat="25.2385" lon="101.145772">
<time>2015-09-27T21:42:52Z</time></trkpt>
<trkpt lat="25.238519" lon="101.145631">
<time>2015-09-27T21:42:53Z</time></trkpt>
<trkpt lat="25.238549" lon="101.145401">
<time>2015-09-27T21:42:54Z</time></trkpt>
<trkpt lat="25.238549" lon="101.145371">
<time>2015-09-27T21:42:55Z</time></trkpt>
<trkpt lat="25.238549" lon="101.145371">
<time>2015-09-27T21:42:56Z</time></trkpt>
<trkpt lat="25.238617" lon="101.14429">
<time>2015-09-27T21:42:57Z</time></trkpt>
<trkpt lat="25.238667" lon="101.144029">
<time>2015-09-27T21:42:58Z</time></trkpt>
<trkpt lat="25.238736" lon="101.143729">
<time>2015-09-27T21:42:59Z</time></trkpt>
<trkpt lat="25.238856" lon="101.143348">
<time>2015-09-27T21:43:00Z</time></trkpt>
<trkpt lat="25.238905" lon="101.143118">
<time>2015-09-27T21:43:01Z</time></trkpt>
<trkpt lat="25.238935" lon="101.142898">
<time>2015-09-27T21:43:02Z</time></trkpt>
<trkpt lat="25.238935" lon="101.142718">
<time>2015-09-27T21:43:03Z</time></trkpt>
<trkpt lat="25.238924" lon="101.142658">
<time>2015-09-27T21:43:04Z</time></trkpt>
<trkpt lat="25.238884" lon="101.142507">
<time>2015-09-27T21:43:05Z</time></trkpt>
<trkpt lat="25.238864" lon="101.142377">
<time>2015-09-27T21:43:06Z</time></trkpt>
<trkpt lat="25.238864" lon="101.142177">
<time>2015-09-27T21:43:07Z</time></trkpt>
<trkpt lat="25.238874" lon="101.142087">
<time>2015-09-27T21:43:08Z</time></trkpt>
<trkpt lat="25.238893" lon="101.141997">
<time>2015-09-27T21:43:09Z</time></trkpt>
<trkpt lat="25.238943" lon="101.141917">
<time>2015-09-27T21:43:10Z</time></trkpt>
<trkpt lat="25.238983" lon="101.141867">
<time>2015-09-27T21:43:11Z</time></trkpt>
<trkpt lat="25.239023" lon="101.141827">
<time>2015-09-27T21:43:12Z</time></trkpt>
<trkpt lat="25.239143" lon="101.141636">
<time>2015-09-27T21:43:13Z</time></trkpt>
<trkpt lat="25.239253" lon="101.141446">
<time>2015-09-27T21:43:14Z</time></trkpt>
<trkpt lat="25.239273" lon="101.141436">
<time>2015-09-27T21:43:15Z</time></trkpt>
<trkpt lat="25.239492" lon="101.141266">
<time>2015-09-27T21:43:16Z</time></trkpt>
<trkpt lat="25.239722" lon="101.141116">
<time>2015-09-27T21:43:17Z</time></trkpt>
<trkpt lat="25.240122" lon="101.140885">
<time>2015-09-27T21:43:18Z</time></trkpt>
<trkpt lat="25.240611" lon="101.140585">
<time>2015-09-27T21:43:19Z</time></trkpt>
<trkpt lat="25.240791" lon="101.140485">
<time>2015-09-27T21:43:20Z</time></trkpt>
<trkpt lat="25.241191" lon="101.140285">
<time>2015-09-27T21:43:21Z</time></trkpt>
<trkpt lat="25.24189" lon="101.139894">
<time>2015-09-27T21:43:22Z</time></trkpt>
<trkpt lat="25.24214" lon="101.139754">
<time>2015-09-27T21:43:23Z</time></trkpt>
<trkpt lat="25.24239" lon="101.139634">
<time>2015-09-27T21:43:24Z</time></trkpt>
<trkpt lat="25.24256" lon="101.139524">
<time>2015-09-27T21:43:25Z</time></trkpt>
<trkpt lat="25.242769" lon="101.139333">
<time>2015-09-27T21:43:26Z</time></trkpt>
<trkpt lat="25.242849" lon="101.139233">
<time>2015-09-27T21:43:27Z</time></trkpt>
<trkpt lat="25.242989" lon="101.139003">
<time>2015-09-27T21:43:28Z</time></trkpt>
<trkpt lat="25.243069" lon="101.138823">
<time>2015-09-27T21:43:29Z</time></trkpt>
<trkpt lat="25.243118" lon="101.138633">
<time>2015-09-27T21:43:30Z</time></trkpt>
<trkpt lat="25.243148" lon="101.138492">
<time>2015-09-27T21:43:31Z</time></trkpt>
<trkpt lat="25.243178" lon="101.138332">
<time>2015-09-27T21:43:32Z</time></trkpt>
<trkpt lat="25.243197" lon="101.138052">
<time>2015-09-27T21:43:33Z</time></trkpt>
<trkpt lat="25.243207" lon="101.137852">
<time>2015-09-27T21:43:34Z</time></trkpt>
<trkpt lat="25.243247" lon="101.137481">
<time>2015-09-27T21:43:35Z</time></trkpt>
<trkpt lat="25.243306" lon="101.137081">
<time>2015-09-27T21:43:36Z</time></trkpt>
<trkpt lat="25.243365" lon="101.13653">
<time>2015-09-27T21:43:37Z</time></trkpt>
<trkpt lat="25.243405" lon="101.13618">
<time>2015-09-27T21:43:38Z</time></trkpt>
<trkpt lat="25.243444" lon="101.13586">
<time>2015-09-27T21:43:39Z</time></trkpt>
<trkpt lat="25.243504" lon="101.135509">
<time>2015-09-27T21:43:40Z</time></trkpt>
<trkpt lat="25.243543" lon="101.135279">
<time>2015-09-27T21:43:41Z</time></trkpt>
<trkpt lat="25.243573" lon="101.135209">
<time>2015-09-27T21:43:42Z</time></trkpt>
<trkpt lat="25.243593" lon="101.135169">
<time>2015-09-27T21:43:43Z</time></trkpt>
<trkpt lat="25.243893" lon="101.135029">
<time>2015-09-27T21:43:44Z</time></trkpt>
<trkpt lat="25.243913" lon="101.135029">
<time>2015-09-27T21:43:45Z</time></trkpt>
<trkpt lat="25.243933" lon="101.135039">
<time>2015-09-27T21:43:46Z</time></trkpt>
<trkpt lat="25.243993" lon="101.135099">
<time>2015-09-27T21:43:47Z</time></trkpt>
<trkpt lat="25.243993" lon="101.135099">
<time>2015-09-27T21:43:48Z</time></trkpt>
<trkpt lat="25.244013" lon="101.135069">
<time>2015-09-27T21:43:49Z</time></trkpt>
<trkpt lat="25.244043" lon="101.135029">
<time>2015-09-27T21:43:50Z</time></trkpt>
<trkpt lat="25.244183" lon="101.134839">
<time>2015-09-27T21:43:51Z</time></trkpt>
<trkpt lat="25.244263" lon="101.134728">
<time>2015-09-27T21:43:52Z</time></trkpt>
<trkpt lat="25.244333" lon="101.134618">
<time>2015-09-27T21:43:53Z</time></trkpt>
<trkpt lat="25.244392" lon="101.134518">
<time>2015-09-27T21:43:54Z</time></trkpt>
<trkpt lat="25.244452" lon="101.134428">
<time>2015-09-27T21:43:55Z</time></trkpt>
<trkpt lat="25.244502" lon="101.134378">
<time>2015-09-27T21:43:56Z</time></trkpt>
<trkpt lat="25.244542" lon="101.134338">
<time>2015-09-27T21:43:57Z</time></trkpt>
<trkpt lat="25.244572" lon="101.134318">
<time>2015-09-27T21:43:58Z</time></trkpt>
<trkpt lat="25.244612" lon="101.134288">
<time>2015-09-27T21:43:59Z</time></trkpt>
<trkpt lat="25.244652" lon="101.134258">
<time>2015-09-27T21:44:00Z</time></trkpt>
<trkpt lat="25.244692" lon="101.134248">
<time>2015-09-27T21:44:01Z</time></trkpt>
<trkpt lat="25.244722" lon="101.134238">
<time>2015-09-27T21:44:02Z</time></trkpt>
<trkpt lat="25.244762" lon="101.134238">
<time>2015-09-27T21:44:03Z</time></trkpt>
<trkpt lat="25.244792" lon="101.134238">
<time>2015-09-27T21:44:04Z</time></trkpt>
<trkpt lat="25.244862" lon="101.134248">
<time>2015-09-27T21:44:05Z</time></trkpt>
<trkpt lat="25.244942" lon="101.134258">
<time>2015-09-27T21:44:06Z</time></trkpt>
<trkpt lat="25.245022" lon="101.134278">
<time>2015-09-27T21:44:07Z</time></trkpt>
<trkpt lat="25.245132" lon="101.134318">
<time>2015-09-27T21:44:08Z</time></trkpt>
<trkpt lat="25.245582" lon="101.134478">
<time>2015-09-27T21:44:09Z</time></trkpt>
<trkpt lat="25.245692" lon="101.134498">
<time>2015-09-27T21:44:10Z</time></trkpt>
<trkpt lat="25.245802" lon="101.134518">
<time>2015-09-27T21:44:11Z</time></trkpt>
<trkpt lat="25.245882" lon="101.134518">
<time>2015-09-27T21:44:12Z</time></trkpt>
<trkpt lat="25.245982" lon="101.134508">
<time>2015-09-27T21:44:13Z</time></trkpt>
<trkpt lat="25.246082" lon="101.134478">
<time>2015-09-27T21:44:14Z</time></trkpt>
<trkpt lat="25.246442" lon="101.134338">
<time>2015-09-27T21:44:15Z</time></trkpt>
<trkpt lat="25.246762" lon="101.134248">
<time>2015-09-27T21:44:16Z</time></trkpt>
<trkpt lat="25.247062" lon="101.134188">
<time>2015-09-27T21:44:17Z</time></trkpt>
<trkpt lat="25.247212" lon="101.134168">
<time>2015-09-27T21:44:18Z</time></trkpt>
<trkpt lat="25.247412" lon="101.134138">
<time>2015-09-27T21:44:19Z</time></trkpt>
<trkpt lat="25.247552" lon="101.134108">
<time>2015-09-27T21:44:20Z</time></trkpt>
<trkpt lat="25.247682" lon="101.134078">
<time>2015-09-27T21:44:21Z</time></trkpt>
<trkpt lat="25.247802" lon="101.134048">
<time>2015-09-27T21:44:22Z</time></trkpt>
<trkpt lat="25.247912" lon="101.134018">
<time>2015-09-27T21:44:23Z</time></trkpt>
<trkpt lat="25.248102" lon="101.133948">
<time>2015-09-27T21:44:24Z</time></trkpt>
<trkpt lat="25.248272" lon="101.133877">
<time>2015-09-27T21:44:25Z</time></trkpt>
<trkpt lat="25.248381" lon="101.133807">
<time>2015-09-27T21:44:26Z</time></trkpt>
<trkpt lat="25.248471" lon="101.133747">
<time>2015-09-27T21:44:27Z</time></trkpt>
<trkpt lat="25.248531" lon="101.133697">
<time>2015-09-27T21:44:28Z</time></trkpt>
<trkpt lat="25.248611" lon="101.133627">
<time>2015-09-27T21:44:29Z</time></trkpt>
<trkpt lat="25.248671" lon="101.133557">
<time>2015-09-27T21:44:30Z</time></trkpt>
<trkpt lat="25.248721" lon="101.133497">
<time>2015-09-27T21:44:31Z</time></trkpt>
<trkpt lat="25.248761" lon="101.133437">
<time>2015-09-27T21:44:32Z</time></trkpt>
<trkpt lat="25.248801" lon="101.133377">
<time>2015-09-27T21:44:33Z</time></trkpt>
<trkpt lat="25.248951" lon="101.133097">
<time>2015-09-27T21:44:34Z</time></trkpt>
<trkpt lat="25.24917" lon="101.132676">
<time>2015-09-27T21:44:35Z</time></trkpt>
<trkpt lat="25.24927" lon="101.132466">
<time>2015-09-27T21:44:36Z</time></trkpt>
<trkpt lat="25.249379" lon="101.132296">
<time>2015-09-27T21:44:37Z</time></trkpt>
<trkpt lat="25.249459" lon="101.132156">
<time>2015-09-27T21:44:38Z</time></trkpt>
<trkpt lat="25.249549" lon="101.132036">
<time>2015-09-27T21:44:39Z</time></trkpt>
<trkpt lat="25.249649" lon="101.131895">
<time>2015-09-27T21:44:40Z</time></trkpt>
<trkpt lat="25.249799" lon="101.131705">
<time>2015-09-27T21:44:41Z</time></trkpt>
<trkpt lat="25.249929" lon="101.131575">
<time>2015-09-27T21:44:42Z</time></trkpt>
<trkpt lat="25.249958" lon="101.131545">
<time>2015-09-27T21:44:43Z</time></trkpt>
<trkpt lat="25.250018" lon="101.131495">
<time>2015-09-27T21:44:44Z</time></trkpt>
<trkpt lat="25.250048" lon="101.131455">
<time>2015-09-27T21:44:45Z</time></trkpt>
<trkpt lat="25.250138" lon="101.131385">
<time>2015-09-27T21:44:46Z</time></trkpt>
<trkpt lat="25.250288" lon="101.131285">
<time>2015-09-27T21:44:47Z</time></trkpt>
<trkpt lat="25.250548" lon="101.131125">
<time>2015-09-27T21:44:48Z</time></trkpt>
<trkpt lat="25.250868" lon="101.130955">
<time>2015-09-27T21:44:49Z</time></trkpt>
<trkpt lat="25.251397" lon="101.130684">
<time>2015-09-27T21:44:50Z</time></trkpt>
<trkpt lat="25.252057" lon="101.130324">
<time>2015-09-27T21:44:51Z</time></trkpt>
<trkpt lat="25.252357" lon="101.130164">
<time>2015-09-27T21:44:52Z</time></trkpt>
<trkpt lat="25.252587" lon="101.130024">
<time>2015-09-27T21:44:53Z</time></trkpt>
<trkpt lat="25.252776" lon="101.129904">
<time>2015-09-27T21:44:54Z</time></trkpt>
<trkpt lat="25.253096" lon="101.129683">
<time>2015-09-27T21:44:55Z</time></trkpt>
<trkpt lat="25.253146" lon="101.129653">
<time>2015-09-27T21:44:56Z</time></trkpt>
<trkpt lat="25.253446" lon="101.129463">
<time>2015-09-27T21:44:57Z</time></trkpt>
<trkpt lat="25.253726" lon="101.129283">
<time>2015-09-27T21:44:58Z</time></trkpt>
<trkpt lat="25.253985" lon="101.129093">
<time>2015-09-27T21:44:59Z</time></trkpt>
<trkpt lat="25.254255" lon="101.128883">
<time>2015-09-27T21:45:00Z</time></trkpt>
<trkpt lat="25.254615" lon="101.128602">
<time>2015-09-27T21:45:01Z</time></trkpt>
<trkpt lat="25.255474" lon="101.127902">
<time>2015-09-27T21:45:02Z</time></trkpt>
<trkpt lat="25.255844" lon="101.127602">
<time>2015-09-27T21:45:03Z</time></trkpt>
<trkpt lat="25.255934" lon="101.127522">
<time>2015-09-27T21:45:04Z</time></trkpt>
<trkpt lat="25.256023" lon="101.127451">
<time>2015-09-27T21:45:05Z</time></trkpt>
<trkpt lat="25.256093" lon="101.127361">
<time>2015-09-27T21:45:06Z</time></trkpt>
<trkpt lat="25.256163" lon="101.127281">
<time>2015-09-27T21:45:07Z</time></trkpt>
<trkpt lat="25.256213" lon="101.127221">
<time>2015-09-27T21:45:08Z</time></trkpt>
<trkpt lat="25.256253" lon="101.127161">
<time>2015-09-27T21:45:09Z</time></trkpt>
<trkpt lat="25.256293" lon="101.127111">
<time>2015-09-27T21:45:10Z</time></trkpt>
<trkpt lat="25.256323" lon="101.127041">
<time>2015-09-27T21:45:11Z</time></trkpt>
<trkpt lat="25.256363" lon="101.126961">
<time>2015-09-27T21:45:12Z</time></trkpt>
<trkpt lat="25.256383" lon="101.126881">
<time>2015-09-27T21:45:13Z</time></trkpt>
<trkpt lat="25.256423" lon="101.126771">
<time>2015-09-27T21:45:14Z</time></trkpt>
<trkpt lat="25.256443" lon="101.126621">
<time>2015-09-27T21:45:15Z</time></trkpt>
<trkpt lat="25.256462" lon="101.126401">
<time>2015-09-27T21:45:16Z</time></trkpt>
<trkpt lat="25.256462" lon="101.126281">
<time>2015-09-27T21:45:17Z</time></trkpt>
<trkpt lat="25.256481" lon="101.12567">
<time>2015-09-27T21:45:18Z</time></trkpt>
<trkpt lat="25.256501" lon="101.12502">
<time>2015-09-27T21:45:19Z</time></trkpt>
<trkpt lat="25.256559" lon="101.123238">
<time>2015-09-27T21:45:20Z</time></trkpt>
<trkpt lat="25.256588" lon="101.122308">
<time>2015-09-27T21:45:21Z</time></trkpt>
<trkpt lat="25.256597" lon="101.121738">
<time>2015-09-27T21:45:22Z</time></trkpt>
<trkpt lat="25.256587" lon="101.121487">
<time>2015-09-27T21:45:23Z</time></trkpt>
<trkpt lat="25.256587" lon="101.121477">
<time>2015-09-27T21:45:24Z</time></trkpt>
<trkpt lat="25.256577" lon="101.121317">
<time>2015-09-27T21:45:25Z</time></trkpt>
<trkpt lat="25.256517" lon="101.121017">
<time>2015-09-27T21:45:26Z</time></trkpt>
<trkpt lat="25.256486" lon="101.120837">
<time>2015-09-27T21:45:27Z</time></trkpt>
<trkpt lat="25.256476" lon="101.120687">
<time>2015-09-27T21:45:28Z</time></trkpt>
<trkpt lat="25.256506" lon="101.120547">
<time>2015-09-27T21:45:29Z</time></trkpt>
<trkpt lat="25.256546" lon="101.120457">
<time>2015-09-27T21:45:30Z</time></trkpt>
<trkpt lat="25.256706" lon="101.120167">
<time>2015-09-27T21:45:31Z</time></trkpt>
<trkpt lat="25.258623" lon="101.116775">
<time>2015-09-27T21:45:32Z</time></trkpt>
<trkpt lat="25.258772" lon="101.116455">
<time>2015-09-27T21:45:33Z</time></trkpt>
<trkpt lat="25.258932" lon="101.116075">
<time>2015-09-27T21:45:34Z</time></trkpt>
<trkpt lat="25.25978" lon="101.113604">
<time>2015-09-27T21:45:35Z</time></trkpt>
<trkpt lat="25.26017" lon="101.112424">
<time>2015-09-27T21:45:36Z</time></trkpt>
<trkpt lat="25.260239" lon="101.112194">
<time>2015-09-27T21:45:37Z</time></trkpt>
<trkpt lat="25.260259" lon="101.112024">
<time>2015-09-27T21:45:38Z</time></trkpt>
<trkpt lat="25.260249" lon="101.111824">
<time>2015-09-27T21:45:39Z</time></trkpt>
<trkpt lat="25.260219" lon="101.111654">
<time>2015-09-27T21:45:40Z</time></trkpt>
<trkpt lat="25.260179" lon="101.111504">
<time>2015-09-27T21:45:41Z</time></trkpt>
<trkpt lat="25.260119" lon="101.111384">
<time>2015-09-27T21:45:42Z</time></trkpt>
<trkpt lat="25.260029" lon="101.111234">
<time>2015-09-27T21:45:43Z</time></trkpt>
<trkpt lat="25.258988" lon="101.109753">
<time>2015-09-27T21:45:44Z</time></trkpt>
<trkpt lat="25.258938" lon="101.109643">
<time>2015-09-27T21:45:45Z</time></trkpt>
<trkpt lat="25.258908" lon="101.109553">
<time>2015-09-27T21:45:46Z</time></trkpt>
<trkpt lat="25.258888" lon="101.109473">
<time>2015-09-27T21:45:47Z</time></trkpt>
<trkpt lat="25.258888" lon="101.109383">
<time>2015-09-27T21:45:48Z</time></trkpt>
<trkpt lat="25.258898" lon="101.109283">
<time>2015-09-27T21:45:49Z</time></trkpt>
<trkpt lat="25.258928" lon="101.109193">
<time>2015-09-27T21:45:50Z</time></trkpt>
<trkpt lat="25.258968" lon="101.109093">
<time>2015-09-27T21:45:51Z</time></trkpt>
<trkpt lat="25.259417" lon="101.108413">
<time>2015-09-27T21:45:52Z</time></trkpt>
<trkpt lat="25.259477" lon="101.108343">
<time>2015-09-27T21:45:53Z</time></trkpt>
<trkpt lat="25.260027" lon="101.107713">
<time>2015-09-27T21:45:54Z</time></trkpt>
<trkpt lat="25.260187" lon="101.107543">
<time>2015-09-27T21:45:55Z</time></trkpt>
<trkpt lat="25.260377" lon="101.107383">
<time>2015-09-27T21:45:56Z</time></trkpt>
<trkpt lat="25.260557" lon="101.107263">
<time>2015-09-27T21:45:57Z</time></trkpt>
<trkpt lat="25.260947" lon="101.107063">
<time>2015-09-27T21:45:58Z</time></trkpt>
<trkpt lat="25.261357" lon="101.106853">
<time>2015-09-27T21:45:59Z</time></trkpt>
<trkpt lat="25.261456" lon="101.106813">
<time>2015-09-27T21:46:00Z</time></trkpt>
<trkpt lat="25.261526" lon="101.106773">
<time>2015-09-27T21:46:01Z</time></trkpt>
<trkpt lat="25.261586" lon="101.106763">
<time>2015-09-27T21:46:02Z</time></trkpt>
<trkpt lat="25.261656" lon="101.106743">
<time>2015-09-27T21:46:03Z</time></trkpt>
<trkpt lat="25.261736" lon="101.106733">
<time>2015-09-27T21:46:04Z</time></trkpt>
<trkpt lat="25.261816" lon="101.106723">
<time>2015-09-27T21:46:05Z</time></trkpt>
<trkpt lat="25.262716" lon="101.106633">
<time>2015-09-27T21:46:06Z</time></trkpt>
<trkpt lat="25.262846" lon="101.106603">
<time>2015-09-27T21:46:07Z</time></trkpt>
<trkpt lat="25.262946" lon="101.106573">
<time>2015-09-27T21:46:08Z</time></trkpt>
<trkpt lat="25.263036" lon="101.106533">
<time>2015-09-27T21:46:09Z</time></trkpt>
<trkpt lat="25.263116" lon="101.106463">
<time>2015-09-27T21:46:10Z</time></trkpt>
<trkpt lat="25.263196" lon="101.106383">
<time>2015-09-27T21:46:11Z</time></trkpt>
<trkpt lat="25.263306" lon="101.106253">
<time>2015-09-27T21:46:12Z</time></trkpt>
<trkpt lat="25.263406" lon="101.106113">
<time>2015-09-27T21:46:13Z</time></trkpt>
<trkpt lat="25.264995" lon="101.103444">
<time>2015-09-27T21:46:14Z</time></trkpt>
<trkpt lat="25.265065" lon="101.103344">
<time>2015-09-27T21:46:15Z</time></trkpt>
<trkpt lat="25.265455" lon="101.102844">
<time>2015-09-27T21:46:16Z</time></trkpt>
<trkpt lat="25.265625" lon="101.102634">
<time>2015-09-27T21:46:17Z</time></trkpt>
<trkpt lat="25.265805" lon="101.102454">
<time>2015-09-27T21:46:18Z</time></trkpt>
<trkpt lat="25.265995" lon="101.102304">
<time>2015-09-27T21:46:19Z</time></trkpt>
<trkpt lat="25.266285" lon="101.102094">
<time>2015-09-27T21:46:20Z</time></trkpt>
<trkpt lat="25.266835" lon="101.101754">
<time>2015-09-27T21:46:21Z</time></trkpt>
<trkpt lat="25.267135" lon="101.101614">
<time>2015-09-27T21:46:22Z</time></trkpt>
<trkpt lat="25.267255" lon="101.101554">
<time>2015-09-27T21:46:23Z</time></trkpt>
<trkpt lat="25.267355" lon="101.101474">
<time>2015-09-27T21:46:24Z</time></trkpt>
<trkpt lat="25.267505" lon="101.101324">
<time>2015-09-27T21:46:25Z</time></trkpt>
<trkpt lat="25.267885" lon="101.100904">
<time>2015-09-27T21:46:26Z</time></trkpt>
<trkpt lat="25.268275" lon="101.100414">
<time>2015-09-27T21:46:27Z</time></trkpt>
<trkpt lat="25.268465" lon="101.100105">
<time>2015-09-27T21:46:28Z</time></trkpt>
<trkpt lat="25.268605" lon="101.099845">
<time>2015-09-27T21:46:29Z</time></trkpt>
<trkpt lat="25.268725" lon="101.099555">
<time>2015-09-27T21:46:30Z</time></trkpt>
<trkpt lat="25.268795" lon="101.099295">
<time>2015-09-27T21:46:31Z</time></trkpt>
<trkpt lat="25.268885" lon="101.098945">
<time>2015-09-27T21:46:32Z</time></trkpt>
<trkpt lat="25.268935" lon="101.098705">
<time>2015-09-27T21:46:33Z</time></trkpt>
<trkpt lat="25.268985" lon="101.098555">
<time>2015-09-27T21:46:34Z</time></trkpt>
<trkpt lat="25.269035" lon="101.098455">
<time>2015-09-27T21:46:35Z</time></trkpt>
<trkpt lat="25.269105" lon="101.098335">
<time>2015-09-27T21:46:36Z</time></trkpt>
<trkpt lat="25.269385" lon="101.098025">
<time>2015-09-27T21:46:37Z</time></trkpt>
<trkpt lat="25.269935" lon="101.097406">
<time>2015-09-27T21:46:38Z</time></trkpt>
<trkpt lat="25.270065" lon="101.097236">
<time>2015-09-27T21:46:39Z</time></trkpt>
<trkpt lat="25.270165" lon="101.097066">
<time>2015-09-27T21:46:40Z</time></trkpt>
<trkpt lat="25.270325" lon="101.096746">
<time>2015-09-27T21:46:41Z</time></trkpt>
<trkpt lat="25.270415" lon="101.096546">
<time>2015-09-27T21:46:42Z</time></trkpt>
<trkpt lat="25.270495" lon="101.096406">
<time>2015-09-27T21:46:43Z</time></trkpt>
<trkpt lat="25.270555" lon="101.096286">
<time>2015-09-27T21:46:44Z</time></trkpt>
<trkpt lat="25.270625" lon="101.096186">
<time>2015-09-27T21:46:45Z</time></trkpt>
<trkpt lat="25.270675" lon="101.096126">
<time>2015-09-27T21:46:46Z</time></trkpt>
<trkpt lat="25.270755" lon="101.096066">
<time>2015-09-27T21:46:47Z</time></trkpt>
<trkpt lat="25.270825" lon="101.096036">
<time>2015-09-27T21:46:48Z</time></trkpt>
<trkpt lat="25.270875" lon="101.096026">
<time>2015-09-27T21:46:49Z</time></trkpt>
<trkpt lat="25.270925" lon="101.096016">
<time>2015-09-27T21:46:50Z</time></trkpt>
<trkpt lat="25.271005" lon="101.096016">
<time>2015-09-27T21:46:51Z</time></trkpt>
<trkpt lat="25.271075" lon="101.096026">
<time>2015-09-27T21:46:52Z</time></trkpt>
<trkpt lat="25.271185" lon="101.096046">
<time>2015-09-27T21:46:53Z</time></trkpt>
<trkpt lat="25.271195" lon="101.096056">
<time>2015-09-27T21:46:54Z</time></trkpt>
<trkpt lat="25.271435" lon="101.096126">
<time>2015-09-27T21:46:55Z</time></trkpt>
<trkpt lat="25.271655" lon="101.096176">
<time>2015-09-27T21:46:56Z</time></trkpt>
<trkpt lat="25.271785" lon="101.096196">
<time>2015-09-27T21:46:57Z</time></trkpt>
<trkpt lat="25.271935" lon="101.096196">
<time>2015-09-27T21:46:58Z</time></trkpt>
<trkpt lat="25.272205" lon="101.096186">
<time>2015-09-27T21:46:59Z</time></trkpt>
<trkpt lat="25.273015" lon="101.096046">
<time>2015-09-27T21:47:00Z</time></trkpt>
<trkpt lat="25.273395" lon="101.095956">
<time>2015-09-27T21:47:01Z</time></trkpt>
<trkpt lat="25.274085" lon="101.095726">
<time>2015-09-27T21:47:02Z</time></trkpt>
<trkpt lat="25.274675" lon="101.095507">
<time>2015-09-27T21:47:03Z</time></trkpt>
<trkpt lat="25.274825" lon="101.095437">
<time>2015-09-27T21:47:04Z</time></trkpt>
<trkpt lat="25.274925" lon="101.095377">
<time>2015-09-27T21:47:05Z</time></trkpt>
<trkpt lat="25.275005" lon="101.095307">
<time>2015-09-27T21:47:06Z</time></trkpt>
<trkpt lat="25.275135" lon="101.095197">
<time>2015-09-27T21:47:07Z</time></trkpt>
<trkpt lat="25.275305" lon="101.094997">
<time>2015-09-27T21:47:08Z</time></trkpt>
<trkpt lat="25.275365" lon="101.094927">
<time>2015-09-27T21:47:09Z</time></trkpt>
<trkpt lat="25.275515" lon="101.094747">
<time>2015-09-27T21:47:10Z</time></trkpt>
<trkpt lat="25.276005" lon="101.094107">
<time>2015-09-27T21:47:11Z</time></trkpt>
<trkpt lat="25.276065" lon="101.094017">
<time>2015-09-27T21:47:12Z</time></trkpt>
<trkpt lat="25.276105" lon="101.093948">
<time>2015-09-27T21:47:13Z</time></trkpt>
<trkpt lat="25.276155" lon="101.093838">
<time>2015-09-27T21:47:14Z</time></trkpt>
<trkpt lat="25.276265" lon="101.093558">
<time>2015-09-27T21:47:15Z</time></trkpt>
<trkpt lat="25.276365" lon="101.093268">
<time>2015-09-27T21:47:16Z</time></trkpt>
<trkpt lat="25.276385" lon="101.093218">
<time>2015-09-27T21:47:17Z</time></trkpt>
<trkpt lat="25.276415" lon="101.093158">
<time>2015-09-27T21:47:18Z</time></trkpt>
<trkpt lat="25.276445" lon="101.093118">
<time>2015-09-27T21:47:19Z</time></trkpt>
<trkpt lat="25.276485" lon="101.093068">
<time>2015-09-27T21:47:20Z</time></trkpt>
<trkpt lat="25.276535" lon="101.093038">
<time>2015-09-27T21:47:21Z</time></trkpt>
<trkpt lat="25.276575" lon="101.092998">
<time>2015-09-27T21:47:22Z</time></trkpt>
<trkpt lat="25.276665" lon="101.092948">
<time>2015-09-27T21:47:23Z</time></trkpt>
<trkpt lat="25.276755" lon="101.092908">
<time>2015-09-27T21:47:24Z</time></trkpt>
<trkpt lat="25.276855" lon="101.092878">
<time>2015-09-27T21:47:25Z</time></trkpt>
<trkpt lat="25.276935" lon="101.092848">
<time>2015-09-27T21:47:26Z</time></trkpt>
<trkpt lat="25.276995" lon="101.092838">
<time>2015-09-27T21:47:27Z</time></trkpt>
<trkpt lat="25.277065" lon="101.092828">
<time>2015-09-27T21:47:28Z</time></trkpt>
<trkpt lat="25.277125" lon="101.092818">
<time>2015-09-27T21:47:29Z</time></trkpt>
<trkpt lat="25.277185" lon="101.092818">
<time>2015-09-27T21:47:30Z</time></trkpt>
<trkpt lat="25.277255" lon="101.092828">
<time>2015-09-27T21:47:31Z</time></trkpt>
<trkpt lat="25.277325" lon="101.092848">
<time>2015-09-27T21:47:32Z</time></trkpt>
<trkpt lat="25.277435" lon="101.092878">
<time>2015-09-27T21:47:33Z</time></trkpt>
<trkpt lat="25.277765" lon="101.092948">
<time>2015-09-27T21:47:34Z</time></trkpt>
<trkpt lat="25.278085" lon="101.092998">
<time>2015-09-27T21:47:35Z</time></trkpt>
<trkpt lat="25.278515" lon="101.093068">
<time>2015-09-27T21:47:36Z</time></trkpt>
<trkpt lat="25.279045" lon="101.093148">
<time>2015-09-27T21:47:37Z</time></trkpt>
<trkpt lat="25.279585" lon="101.093238">
<time>2015-09-27T21:47:38Z</time></trkpt>
<trkpt lat="25.279695" lon="101.093258">
<time>2015-09-27T21:47:39Z</time></trkpt>
<trkpt lat="25.279805" lon="101.093258">
<time>2015-09-27T21:47:40Z</time></trkpt>
<trkpt lat="25.279935" lon="101.093248">
<time>2015-09-27T21:47:41Z</time></trkpt>
<trkpt lat="25.280085" lon="101.093228">
<time>2015-09-27T21:47:42Z</time></trkpt>
<trkpt lat="25.280225" lon="101.093188">
<time>2015-09-27T21:47:43Z</time></trkpt>
<trkpt lat="25.280435" lon="101.093118">
<time>2015-09-27T21:47:44Z</time></trkpt>
<trkpt lat="25.280745" lon="101.092988">
<time>2015-09-27T21:47:45Z</time></trkpt>
<trkpt lat="25.280905" lon="101.092908">
<time>2015-09-27T21:47:46Z</time></trkpt>
<trkpt lat="25.281125" lon="101.092778">
<time>2015-09-27T21:47:47Z</time></trkpt>
<trkpt lat="25.281365" lon="101.092608">
<time>2015-09-27T21:47:48Z</time></trkpt>
<trkpt lat="25.281636" lon="101.092408">
<time>2015-09-27T21:47:49Z</time></trkpt>
<trkpt lat="25.281766" lon="101.092319">
<time>2015-09-27T21:47:50Z</time></trkpt>
<trkpt lat="25.281856" lon="101.092239">
<time>2015-09-27T21:47:51Z</time></trkpt>
<trkpt lat="25.281926" lon="101.092179">
<time>2015-09-27T21:47:52Z</time></trkpt>
<trkpt lat="25.281996" lon="101.092099">
<time>2015-09-27T21:47:53Z</time></trkpt>
<trkpt lat="25.282056" lon="101.091999">
<time>2015-09-27T21:47:54Z</time></trkpt>
<trkpt lat="25.282106" lon="101.091879">
<time>2015-09-27T21:47:55Z</time></trkpt>
<trkpt lat="25.282186" lon="101.091689">
<time>2015-09-27T21:47:56Z</time></trkpt>
<trkpt lat="25.282266" lon="101.091459">
<time>2015-09-27T21:47:57Z</time></trkpt>
<trkpt lat="25.282296" lon="101.091359">
<time>2015-09-27T21:47:58Z</time></trkpt>
<trkpt lat="25.282316" lon="101.091219">
<time>2015-09-27T21:47:59Z</time></trkpt>
<trkpt lat="25.282356" lon="101.091">
<time>2015-09-27T21:48:00Z</time></trkpt>
<trkpt lat="25.282416" lon="101.09056">
<time>2015-09-27T21:48:01Z</time></trkpt>
<trkpt lat="25.282416" lon="101.09049">
<time>2015-09-27T21:48:02Z</time></trkpt>
<trkpt lat="25.282436" lon="101.09043">
<time>2015-09-27T21:48:03Z</time></trkpt>
<trkpt lat="25.282446" lon="101.09038">
<time>2015-09-27T21:48:04Z</time></trkpt>
<trkpt lat="25.282466" lon="101.09034">
<time>2015-09-27T21:48:05Z</time></trkpt>
<trkpt lat="25.282486" lon="101.09029">
<time>2015-09-27T21:48:06Z</time></trkpt>
<trkpt lat="25.282506" lon="101.09026">
<time>2015-09-27T21:48:07Z</time></trkpt>
<trkpt lat="25.282536" lon="101.09024">
<time>2015-09-27T21:48:08Z</time></trkpt>
<trkpt lat="25.282566" lon="101.09021">
<time>2015-09-27T21:48:09Z</time></trkpt>
<trkpt lat="25.282586" lon="101.09019">
<time>2015-09-27T21:48:10Z</time></trkpt>
<trkpt lat="25.282616" lon="101.09018">
<time>2015-09-27T21:48:11Z</time></trkpt>
<trkpt lat="25.282656" lon="101.09017">
<time>2015-09-27T21:48:12Z</time></trkpt>
<trkpt lat="25.282706" lon="101.09015">
<time>2015-09-27T21:48:13Z</time></trkpt>
<trkpt lat="25.282766" lon="101.09014">
<time>2015-09-27T21:48:14Z</time></trkpt>
<trkpt lat="25.282916" lon="101.09011">
<time>2015-09-27T21:48:15Z</time></trkpt>
<trkpt lat="25.283006" lon="101.09009">
<time>2015-09-27T21:48:16Z</time></trkpt>
<trkpt lat="25.283086" lon="101.09007">
<time>2015-09-27T21:48:17Z</time></trkpt>
<trkpt lat="25.283156" lon="101.09004">
<time>2015-09-27T21:48:18Z</time></trkpt>
<trkpt lat="25.283236" lon="101.09001">
<time>2015-09-27T21:48:19Z</time></trkpt>
<trkpt lat="25.283286" lon="101.08997">
<time>2015-09-27T21:48:20Z</time></trkpt>
<trkpt lat="25.283326" lon="101.08994">
<time>2015-09-27T21:48:21Z</time></trkpt>
<trkpt lat="25.283366" lon="101.08992">
<time>2015-09-27T21:48:22Z</time></trkpt>
<trkpt lat="25.283406" lon="101.08989">
<time>2015-09-27T21:48:23Z</time></trkpt>
<trkpt lat="25.283456" lon="101.08985">
<time>2015-09-27T21:48:24Z</time></trkpt>
<trkpt lat="25.283486" lon="101.089811">
<time>2015-09-27T21:48:25Z</time></trkpt>
<trkpt lat="25.283836" lon="101.089441">
<time>2015-09-27T21:48:26Z</time></trkpt>
<trkpt lat="25.283886" lon="101.089411">
<time>2015-09-27T21:48:27Z</time></trkpt>
<trkpt lat="25.283936" lon="101.089381">
<time>2015-09-27T21:48:28Z</time></trkpt>
<trkpt lat="25.283986" lon="101.089361">
<time>2015-09-27T21:48:29Z</time></trkpt>
<trkpt lat="25.284026" lon="101.089351">
<time>2015-09-27T21:48:30Z</time></trkpt>
<trkpt lat="25.284076" lon="101.089341">
<time>2015-09-27T21:48:31Z</time></trkpt>
<trkpt lat="25.284116" lon="101.089331">
<time>2015-09-27T21:48:32Z</time></trkpt>
<trkpt lat="25.284156" lon="101.089341">
<time>2015-09-27T21:48:33Z</time></trkpt>
<trkpt lat="25.284216" lon="101.089361">
<time>2015-09-27T21:48:34Z</time></trkpt>
<trkpt lat="25.284266" lon="101.089381">
<time>2015-09-27T21:48:35Z</time></trkpt>
<trkpt lat="25.284316" lon="101.089401">
<time>2015-09-27T21:48:36Z</time></trkpt>
<trkpt lat="25.284366" lon="101.089441">
<time>2015-09-27T21:48:37Z</time></trkpt>
<trkpt lat="25.284546" lon="101.089541">
<time>2015-09-27T21:48:38Z</time></trkpt>
<trkpt lat="25.284606" lon="101.089561">
<time>2015-09-27T21:48:39Z</time></trkpt>
<trkpt lat="25.284666" lon="101.089581">
<time>2015-09-27T21:48:40Z</time></trkpt>
<trkpt lat="25.284726" lon="101.089601">
<time>2015-09-27T21:48:41Z</time></trkpt>
<trkpt lat="25.284816" lon="101.089611">
<time>2015-09-27T21:48:42Z</time></trkpt>
<trkpt lat="25.284906" lon="101.089611">
<time>2015-09-27T21:48:43Z</time></trkpt>
<trkpt lat="25.285336" lon="101.089611">
<time>2015-09-27T21:48:44Z</time></trkpt>
<trkpt lat="25.285466" lon="101.089621">
<time>2015-09-27T21:48:45Z</time></trkpt>
<trkpt lat="25.285586" lon="101.089631">
<time>2015-09-27T21:48:46Z</time></trkpt>
<trkpt lat="25.286116" lon="101.08975">
<time>2015-09-27T21:48:47Z</time></trkpt>
<trkpt lat="25.286196" lon="101.08975">
<time>2015-09-27T21:48:48Z</time></trkpt>
<trkpt lat="25.286256" lon="101.08975">
<time>2015-09-27T21:48:49Z</time></trkpt>
<trkpt lat="25.286326" lon="101.08974">
<time>2015-09-27T21:48:50Z</time></trkpt>
<trkpt lat="25.286376" lon="101.089721">
<time>2015-09-27T21:48:51Z</time></trkpt>
<trkpt lat="25.286396" lon="101.089711">
<time>2015-09-27T21:48:52Z</time></trkpt>
<trkpt lat="25.286436" lon="101.089681">
<time>2015-09-27T21:48:53Z</time></trkpt>
<trkpt lat="25.286496" lon="101.089651">
<time>2015-09-27T21:48:54Z</time></trkpt>
<trkpt lat="25.287017" lon="101.089251">
<time>2015-09-27T21:48:55Z</time></trkpt>
<trkpt lat="25.287417" lon="101.088981">
<time>2015-09-27T21:48:56Z</time></trkpt>
<trkpt lat="25.287567" lon="101.088891">
<time>2015-09-27T21:48:57Z</time></trkpt>
<trkpt lat="25.287787" lon="101.088751">
<time>2015-09-27T21:48:58Z</time></trkpt>
<trkpt lat="25.287847" lon="101.088721">
<time>2015-09-27T21:48:59Z</time></trkpt>
<trkpt lat="25.287907" lon="101.088661">
<time>2015-09-27T21:49:00Z</time></trkpt>
<trkpt lat="25.287957" lon="101.088601">
<time>2015-09-27T21:49:01Z</time></trkpt>
<trkpt lat="25.288007" lon="101.088542">
<time>2015-09-27T21:49:02Z</time></trkpt>
<trkpt lat="25.288047" lon="101.088482">
<time>2015-09-27T21:49:03Z</time></trkpt>
<trkpt lat="25.288227" lon="101.088152">
<time>2015-09-27T21:49:04Z</time></trkpt>
<trkpt lat="25.288337" lon="101.087932">
<time>2015-09-27T21:49:05Z</time></trkpt>
<trkpt lat="25.288387" lon="101.087852">
<time>2015-09-27T21:49:06Z</time></trkpt>
<trkpt lat="25.288427" lon="101.087792">
<time>2015-09-27T21:49:07Z</time></trkpt>
<trkpt lat="25.288487" lon="101.087732">
<time>2015-09-27T21:49:08Z</time></trkpt>
<trkpt lat="25.288557" lon="101.087672">
<time>2015-09-27T21:49:09Z</time></trkpt>
<trkpt lat="25.289318" lon="101.086963">
<time>2015-09-27T21:49:10Z</time></trkpt>
<trkpt lat="25.289378" lon="101.086913">
<time>2015-09-27T21:49:11Z</time></trkpt>
<trkpt lat="25.289448" lon="101.086843">
<time>2015-09-27T21:49:12Z</time></trkpt>
<trkpt lat="25.289498" lon="101.086783">
<time>2015-09-27T21:49:13Z</time></trkpt>
<trkpt lat="25.289548" lon="101.086713">
<time>2015-09-27T21:49:14Z</time></trkpt>
<trkpt lat="25.289598" lon="101.086633">
<time>2015-09-27T21:49:15Z</time></trkpt>
<trkpt lat="25.289638" lon="101.086533">
<time>2015-09-27T21:49:16Z</time></trkpt>
<trkpt lat="25.289958" lon="101.085574">
<time>2015-09-27T21:49:17Z</time></trkpt>
<trkpt lat="25.290058" lon="101.085285">
<time>2015-09-27T21:49:18Z</time></trkpt>
<trkpt lat="25.290119" lon="101.085125">
<time>2015-09-27T21:49:19Z</time></trkpt>
<trkpt lat="25.290179" lon="101.085025">
<time>2015-09-27T21:49:20Z</time></trkpt>
<trkpt lat="25.290259" lon="101.084915">
<time>2015-09-27T21:49:21Z</time></trkpt>
<trkpt lat="25.290309" lon="101.084835">
<time>2015-09-27T21:49:22Z</time></trkpt>
<trkpt lat="25.290379" lon="101.084765">
<time>2015-09-27T21:49:23Z</time></trkpt>
<trkpt lat="25.290479" lon="101.084685">
<time>2015-09-27T21:49:24Z</time></trkpt>
<trkpt lat="25.291079" lon="101.084256">
<time>2015-09-27T21:49:25Z</time></trkpt>
<trkpt lat="25.291129" lon="101.084226">
<time>2015-09-27T21:49:26Z</time></trkpt>
<trkpt lat="25.291169" lon="101.084216">
<time>2015-09-27T21:49:27Z</time></trkpt>
<trkpt lat="25.291209" lon="101.084206">
<time>2015-09-27T21:49:28Z</time></trkpt>
<trkpt lat="25.291249" lon="101.084196">
<time>2015-09-27T21:49:29Z</time></trkpt>
<trkpt lat="25.291269" lon="101.084206">
<time>2015-09-27T21:49:30Z</time></trkpt>
<trkpt lat="25.291299" lon="101.084206">
<time>2015-09-27T21:49:31Z</time></trkpt>
<trkpt lat="25.291329" lon="101.084216">
<time>2015-09-27T21:49:32Z</time></trkpt>
<trkpt lat="25.291359" lon="101.084226">
<time>2015-09-27T21:49:33Z</time></trkpt>
<trkpt lat="25.291389" lon="101.084246">
<time>2015-09-27T21:49:34Z</time></trkpt>
<trkpt lat="25.291409" lon="101.084256">
<time>2015-09-27T21:49:35Z</time></trkpt>
<trkpt lat="25.291429" lon="101.084276">
<time>2015-09-27T21:49:36Z</time></trkpt>
<trkpt lat="25.291449" lon="101.084306">
<time>2015-09-27T21:49:37Z</time></trkpt>
<trkpt lat="25.291469" lon="101.084336">
<time>2015-09-27T21:49:38Z</time></trkpt>
<trkpt lat="25.291479" lon="101.084356">
<time>2015-09-27T21:49:39Z</time></trkpt>
<trkpt lat="25.291489" lon="101.084386">
<time>2015-09-27T21:49:40Z</time></trkpt>
<trkpt lat="25.291509" lon="101.084416">
<time>2015-09-27T21:49:41Z</time></trkpt>
<trkpt lat="25.291509" lon="101.084466">
<time>2015-09-27T21:49:42Z</time></trkpt>
<trkpt lat="25.291509" lon="101.084486">
<time>2015-09-27T21:49:43Z</time></trkpt>
<trkpt lat="25.291519" lon="101.084506">
<time>2015-09-27T21:49:44Z</time></trkpt>
<trkpt lat="25.291509" lon="101.084536">
<time>2015-09-27T21:49:45Z</time></trkpt>
<trkpt lat="25.291509" lon="101.084566">
<time>2015-09-27T21:49:46Z</time></trkpt>
<trkpt lat="25.291499" lon="101.084586">
<time>2015-09-27T21:49:47Z</time></trkpt>
<trkpt lat="25.291339" lon="101.085195">
<time>2015-09-27T21:49:48Z</time></trkpt>
<trkpt lat="25.291329" lon="101.085285">
<time>2015-09-27T21:49:49Z</time></trkpt>
<trkpt lat="25.291308" lon="101.085385">
<time>2015-09-27T21:49:50Z</time></trkpt>
<trkpt lat="25.291288" lon="101.085544">
<time>2015-09-27T21:49:51Z</time></trkpt>
<trkpt lat="25.291288" lon="101.085654">
<time>2015-09-27T21:49:52Z</time></trkpt>
<trkpt lat="25.291288" lon="101.085724">
<time>2015-09-27T21:49:53Z</time></trkpt>
<trkpt lat="25.291308" lon="101.085774">
<time>2015-09-27T21:49:54Z</time></trkpt>
<trkpt lat="25.291328" lon="101.085814">
<time>2015-09-27T21:49:55Z</time></trkpt>
<trkpt lat="25.291358" lon="101.085844">
<time>2015-09-27T21:49:56Z</time></trkpt>
<trkpt lat="25.291388" lon="101.085864">
<time>2015-09-27T21:49:57Z</time></trkpt>
<trkpt lat="25.291418" lon="101.085874">
<time>2015-09-27T21:49:58Z</time></trkpt>
<trkpt lat="25.291448" lon="101.085884">
<time>2015-09-27T21:49:59Z</time></trkpt>
<trkpt lat="25.291478" lon="101.085884">
<time>2015-09-27T21:50:00Z</time></trkpt>
<trkpt lat="25.291518" lon="101.085884">
<time>2015-09-27T21:50:01Z</time></trkpt>
<trkpt lat="25.291548" lon="101.085874">
<time>2015-09-27T21:50:02Z</time></trkpt>
<trkpt lat="25.291578" lon="101.085854">
<time>2015-09-27T21:50:03Z</time></trkpt>
<trkpt lat="25.291608" lon="101.085834">
<time>2015-09-27T21:50:04Z</time></trkpt>
<trkpt lat="25.291628" lon="101.085814">
<time>2015-09-27T21:50:05Z</time></trkpt>
<trkpt lat="25.291658" lon="101.085764">
<time>2015-09-27T21:50:06Z</time></trkpt>
<trkpt lat="25.291698" lon="101.085694">
<time>2015-09-27T21:50:07Z</time></trkpt>
<trkpt lat="25.291718" lon="101.085614">
<time>2015-09-27T21:50:08Z</time></trkpt>
<trkpt lat="25.291839" lon="101.085255">
<time>2015-09-27T21:50:09Z</time></trkpt>
<trkpt lat="25.291889" lon="101.085135">
<time>2015-09-27T21:50:10Z</time></trkpt>
<trkpt lat="25.291979" lon="101.084975">
<time>2015-09-27T21:50:11Z</time></trkpt>
<trkpt lat="25.292059" lon="101.084865">
<time>2015-09-27T21:50:12Z</time></trkpt>
<trkpt lat="25.292139" lon="101.084795">
<time>2015-09-27T21:50:13Z</time></trkpt>
<trkpt lat="25.292269" lon="101.084705">
<time>2015-09-27T21:50:14Z</time></trkpt>
<trkpt lat="25.292549" lon="101.084566">
<time>2015-09-27T21:50:15Z</time></trkpt>
<trkpt lat="25.292599" lon="101.084526">
<time>2015-09-27T21:50:16Z</time></trkpt>
<trkpt lat="25.292649" lon="101.084486">
<time>2015-09-27T21:50:17Z</time></trkpt>
<trkpt lat="25.292679" lon="101.084436">
<time>2015-09-27T21:50:18Z</time></trkpt>
<trkpt lat="25.292709" lon="101.084376">
<time>2015-09-27T21:50:19Z</time></trkpt>
<trkpt lat="25.292719" lon="101.084326">
<time>2015-09-27T21:50:20Z</time></trkpt>
<trkpt lat="25.292769" lon="101.083976">
<time>2015-09-27T21:50:21Z</time></trkpt>
<trkpt lat="25.292779" lon="101.083896">
<time>2015-09-27T21:50:22Z</time></trkpt>
<trkpt lat="25.292799" lon="101.083816">
<time>2015-09-27T21:50:23Z</time></trkpt>
<trkpt lat="25.292819" lon="101.083756">
<time>2015-09-27T21:50:24Z</time></trkpt>
<trkpt lat="25.292839" lon="101.083697">
<time>2015-09-27T21:50:25Z</time></trkpt>
<trkpt lat="25.29287" lon="101.083647">
<time>2015-09-27T21:50:26Z</time></trkpt>
<trkpt lat="25.29292" lon="101.083597">
<time>2015-09-27T21:50:27Z</time></trkpt>
<trkpt lat="25.29299" lon="101.083537">
<time>2015-09-27T21:50:28Z</time></trkpt>
<trkpt lat="25.29307" lon="101.083467">
<time>2015-09-27T21:50:29Z</time></trkpt>
<trkpt lat="25.29322" lon="101.083367">
<time>2015-09-27T21:50:30Z</time></trkpt>
<trkpt lat="25.29369" lon="101.083067">
<time>2015-09-27T21:50:31Z</time></trkpt>
<trkpt lat="25.29384" lon="101.082997">
<time>2015-09-27T21:50:32Z</time></trkpt>
<trkpt lat="25.29395" lon="101.082977">
<time>2015-09-27T21:50:33Z</time></trkpt>
<trkpt lat="25.29404" lon="101.082977">
<time>2015-09-27T21:50:34Z</time></trkpt>
<trkpt lat="25.29414" lon="101.083007">
<time>2015-09-27T21:50:35Z</time></trkpt>
<trkpt lat="25.29423" lon="101.083077">
<time>2015-09-27T21:50:36Z</time></trkpt>
<trkpt lat="25.29431" lon="101.083177">
<time>2015-09-27T21:50:37Z</time></trkpt>
<trkpt lat="25.29437" lon="101.083317">
<time>2015-09-27T21:50:38Z</time></trkpt>
<trkpt lat="25.294529" lon="101.083936">
<time>2015-09-27T21:50:39Z</time></trkpt>
<trkpt lat="25.294559" lon="101.084056">
<time>2015-09-27T21:50:40Z</time></trkpt>
<trkpt lat="25.294579" lon="101.084126">
<time>2015-09-27T21:50:41Z</time></trkpt>
<trkpt lat="25.294609" lon="101.084196">
<time>2015-09-27T21:50:42Z</time></trkpt>
<trkpt lat="25.294629" lon="101.084256">
<time>2015-09-27T21:50:43Z</time></trkpt>
<trkpt lat="25.294659" lon="101.084306">
<time>2015-09-27T21:50:44Z</time></trkpt>
<trkpt lat="25.294699" lon="101.084356">
<time>2015-09-27T21:50:45Z</time></trkpt>
<trkpt lat="25.294739" lon="101.084396">
<time>2015-09-27T21:50:46Z</time></trkpt>
<trkpt lat="25.294779" lon="101.084416">
<time>2015-09-27T21:50:47Z</time></trkpt>
<trkpt lat="25.294809" lon="101.084436">
<time>2015-09-27T21:50:48Z</time></trkpt>
<trkpt lat="25.294839" lon="101.084436">
<time>2015-09-27T21:50:49Z</time></trkpt>
<trkpt lat="25.294869" lon="101.084436">
<time>2015-09-27T21:50:50Z</time></trkpt>
<trkpt lat="25.294909" lon="101.084436">
<time>2015-09-27T21:50:51Z</time></trkpt>
<trkpt lat="25.294949" lon="101.084416">
<time>2015-09-27T21:50:52Z</time></trkpt>
<trkpt lat="25.294979" lon="101.084406">
<time>2015-09-27T21:50:53Z</time></trkpt>
<trkpt lat="25.295019" lon="101.084376">
<time>2015-09-27T21:50:54Z</time></trkpt>
<trkpt lat="25.295039" lon="101.084346">
<time>2015-09-27T21:50:55Z</time></trkpt>
<trkpt lat="25.295069" lon="101.084306">
<time>2015-09-27T21:50:56Z</time></trkpt>
<trkpt lat="25.295089" lon="101.084276">
<time>2015-09-27T21:50:57Z</time></trkpt>
<trkpt lat="25.295109" lon="101.084196">
<time>2015-09-27T21:50:58Z</time></trkpt>
<trkpt lat="25.295129" lon="101.084106">
<time>2015-09-27T21:50:59Z</time></trkpt>
<trkpt lat="25.295139" lon="101.084006">
<time>2015-09-27T21:51:00Z</time></trkpt>
<trkpt lat="25.29516" lon="101.083417">
<time>2015-09-27T21:51:01Z</time></trkpt>
<trkpt lat="25.29519" lon="101.083257">
<time>2015-09-27T21:51:02Z</time></trkpt>
<trkpt lat="25.29523" lon="101.083117">
<time>2015-09-27T21:51:03Z</time></trkpt>
<trkpt lat="25.29529" lon="101.082997">
<time>2015-09-27T21:51:04Z</time></trkpt>
<trkpt lat="25.29539" lon="101.082907">
<time>2015-09-27T21:51:05Z</time></trkpt>
<trkpt lat="25.29548" lon="101.082828">
<time>2015-09-27T21:51:06Z</time></trkpt>
<trkpt lat="25.29556" lon="101.082748">
<time>2015-09-27T21:51:07Z</time></trkpt>
<trkpt lat="25.29561" lon="101.082698">
<time>2015-09-27T21:51:08Z</time></trkpt>
<trkpt lat="25.29563" lon="101.082658">
<time>2015-09-27T21:51:09Z</time></trkpt>
<trkpt lat="25.29565" lon="101.082628">
<time>2015-09-27T21:51:10Z</time></trkpt>
<trkpt lat="25.29566" lon="101.082578">
<time>2015-09-27T21:51:11Z</time></trkpt>
<trkpt lat="25.29567" lon="101.082528">
<time>2015-09-27T21:51:12Z</time></trkpt>
<trkpt lat="25.29568" lon="101.082458">
<time>2015-09-27T21:51:13Z</time></trkpt>
<trkpt lat="25.295671" lon="101.082198">
<time>2015-09-27T21:51:14Z</time></trkpt>
<trkpt lat="25.295641" lon="101.081819">
<time>2015-09-27T21:51:15Z</time></trkpt>
<trkpt lat="25.295621" lon="101.081709">
<time>2015-09-27T21:51:16Z</time></trkpt>
<trkpt lat="25.295621" lon="101.081669">
<time>2015-09-27T21:51:17Z</time></trkpt>
<trkpt lat="25.295621" lon="101.081619">
<time>2015-09-27T21:51:18Z</time></trkpt>
<trkpt lat="25.295621" lon="101.081579">
<time>2015-09-27T21:51:19Z</time></trkpt>
<trkpt lat="25.295631" lon="101.081539">
<time>2015-09-27T21:51:20Z</time></trkpt>
<trkpt lat="25.295631" lon="101.081499">
<time>2015-09-27T21:51:21Z</time></trkpt>
<trkpt lat="25.295631" lon="101.081459">
<time>2015-09-27T21:51:22Z</time></trkpt>
<trkpt lat="25.295651" lon="101.081419">
<time>2015-09-27T21:51:23Z</time></trkpt>
<trkpt lat="25.295661" lon="101.081389">
<time>2015-09-27T21:51:24Z</time></trkpt>
<trkpt lat="25.295681" lon="101.081369">
<time>2015-09-27T21:51:25Z</time></trkpt>
<trkpt lat="25.295691" lon="101.081349">
<time>2015-09-27T21:51:26Z</time></trkpt>
<trkpt lat="25.295711" lon="101.081339">
<time>2015-09-27T21:51:27Z</time></trkpt>
<trkpt lat="25.295721" lon="101.081329">
<time>2015-09-27T21:51:28Z</time></trkpt>
<trkpt lat="25.295741" lon="101.081319">
<time>2015-09-27T21:51:29Z</time></trkpt>
<trkpt lat="25.295761" lon="101.081319">
<time>2015-09-27T21:51:30Z</time></trkpt>
<trkpt lat="25.295781" lon="101.081309">
<time>2015-09-27T21:51:31Z</time></trkpt>
<trkpt lat="25.295801" lon="101.081309">
<time>2015-09-27T21:51:32Z</time></trkpt>
<trkpt lat="25.295821" lon="101.081309">
<time>2015-09-27T21:51:33Z</time></trkpt>
<trkpt lat="25.295851" lon="101.081309">
<time>2015-09-27T21:51:34Z</time></trkpt>
<trkpt lat="25.295871" lon="101.081309">
<time>2015-09-27T21:51:35Z</time></trkpt>
<trkpt lat="25.295891" lon="101.081319">
<time>2015-09-27T21:51:36Z</time></trkpt>
<trkpt lat="25.295911" lon="101.081329">
<time>2015-09-27T21:51:37Z</time></trkpt>
<trkpt lat="25.295931" lon="101.081329">
<time>2015-09-27T21:51:38Z</time></trkpt>
<trkpt lat="25.295951" lon="101.081339">
<time>2015-09-27T21:51:39Z</time></trkpt>
<trkpt lat="25.296251" lon="101.081489">
<time>2015-09-27T21:51:40Z</time></trkpt>
<trkpt lat="25.296331" lon="101.081509">
<time>2015-09-27T21:51:41Z</time></trkpt>
<trkpt lat="25.296431" lon="101.081529">
<time>2015-09-27T21:51:42Z</time></trkpt>
<trkpt lat="25.296511" lon="101.081519">
<time>2015-09-27T21:51:43Z</time></trkpt>
<trkpt lat="25.296591" lon="101.081489">
<time>2015-09-27T21:51:44Z</time></trkpt>
<trkpt lat="25.296641" lon="101.081459">
<time>2015-09-27T21:51:45Z</time></trkpt>
<trkpt lat="25.296671" lon="101.081429">
<time>2015-09-27T21:51:46Z</time></trkpt>
<trkpt lat="25.296721" lon="101.081369">
<time>2015-09-27T21:51:47Z</time></trkpt>
<trkpt lat="25.296751" lon="101.081319">
<time>2015-09-27T21:51:48Z</time></trkpt>
<trkpt lat="25.296781" lon="101.081239">
<time>2015-09-27T21:51:49Z</time></trkpt>
<trkpt lat="25.296791" lon="101.08118">
<time>2015-09-27T21:51:50Z</time></trkpt>
<trkpt lat="25.296791" lon="101.08111">
<time>2015-09-27T21:51:51Z</time></trkpt>
<trkpt lat="25.296781" lon="101.08106">
<time>2015-09-27T21:51:52Z</time></trkpt>
<trkpt lat="25.296732" lon="101.08081">
<time>2015-09-27T21:51:53Z</time></trkpt>
<trkpt lat="25.296722" lon="101.08071">
<time>2015-09-27T21:51:54Z</time></trkpt>
<trkpt lat="25.296732" lon="101.08064">
<time>2015-09-27T21:51:55Z</time></trkpt>
<trkpt lat="25.296742" lon="101.08057">
<time>2015-09-27T21:51:56Z</time></trkpt>
<trkpt lat="25.296762" lon="101.08053">
<time>2015-09-27T21:51:57Z</time></trkpt>
<trkpt lat="25.296902" lon="101.080271">
<time>2015-09-27T21:51:58Z</time></trkpt>
<trkpt lat="25.296922" lon="101.080221">
<time>2015-09-27T21:51:59Z</time></trkpt>
<trkpt lat="25.296942" lon="101.080171">
<time>2015-09-27T21:52:00Z</time></trkpt>
<trkpt lat="25.296952" lon="101.080131">
<time>2015-09-27T21:52:01Z</time></trkpt>
<trkpt lat="25.296962" lon="101.080101">
<time>2015-09-27T21:52:02Z</time></trkpt>
<trkpt lat="25.296962" lon="101.080061">
<time>2015-09-27T21:52:03Z</time></trkpt>
<trkpt lat="25.296962" lon="101.080011">
<time>2015-09-27T21:52:04Z</time></trkpt>
<trkpt lat="25.296952" lon="101.079961">
<time>2015-09-27T21:52:05Z</time></trkpt>
<trkpt lat="25.296922" lon="101.079831">
<time>2015-09-27T21:52:06Z</time></trkpt>
<trkpt lat="25.296892" lon="101.079732">
<time>2015-09-27T21:52:07Z</time></trkpt>
<trkpt lat="25.296882" lon="101.079672">
<time>2015-09-27T21:52:08Z</time></trkpt>
<trkpt lat="25.296882" lon="101.079622">
<time>2015-09-27T21:52:09Z</time></trkpt>
<trkpt lat="25.296883" lon="101.079572">
<time>2015-09-27T21:52:10Z</time></trkpt>
<trkpt lat="25.296893" lon="101.079522">
<time>2015-09-27T21:52:11Z</time></trkpt>
<trkpt lat="25.296913" lon="101.079452">
<time>2015-09-27T21:52:12Z</time></trkpt>
<trkpt lat="25.296933" lon="101.079382">
<time>2015-09-27T21:52:13Z</time></trkpt>
<trkpt lat="25.297243" lon="101.078813">
<time>2015-09-27T21:52:14Z</time></trkpt>
<trkpt lat="25.297273" lon="101.078773">
<time>2015-09-27T21:52:15Z</time></trkpt>
<trkpt lat="25.297303" lon="101.078733">
<time>2015-09-27T21:52:16Z</time></trkpt>
<trkpt lat="25.297333" lon="101.078703">
<time>2015-09-27T21:52:17Z</time></trkpt>
<trkpt lat="25.297373" lon="101.078673">
<time>2015-09-27T21:52:18Z</time></trkpt>
<trkpt lat="25.297403" lon="101.078663">
<time>2015-09-27T21:52:19Z</time></trkpt>
<trkpt lat="25.297433" lon="101.078653">
<time>2015-09-27T21:52:20Z</time></trkpt>
<trkpt lat="25.297473" lon="101.078643">
<time>2015-09-27T21:52:21Z</time></trkpt>
<trkpt lat="25.297503" lon="101.078653">
<time>2015-09-27T21:52:22Z</time></trkpt>
<trkpt lat="25.297533" lon="101.078663">
<time>2015-09-27T21:52:23Z</time></trkpt>
<trkpt lat="25.297563" lon="101.078673">
<time>2015-09-27T21:52:24Z</time></trkpt>
<trkpt lat="25.297583" lon="101.078693">
<time>2015-09-27T21:52:25Z</time></trkpt>
<trkpt lat="25.297603" lon="101.078713">
<time>2015-09-27T21:52:26Z</time></trkpt>
<trkpt lat="25.297633" lon="101.078753">
<time>2015-09-27T21:52:27Z</time></trkpt>
<trkpt lat="25.297663" lon="101.078793">
<time>2015-09-27T21:52:28Z</time></trkpt>
<trkpt lat="25.297733" lon="101.078923">
<time>2015-09-27T21:52:29Z</time></trkpt>
<trkpt lat="25.297803" lon="101.079112">
<time>2015-09-27T21:52:30Z</time></trkpt>
<trkpt lat="25.297873" lon="101.079312">
<time>2015-09-27T21:52:31Z</time></trkpt>
<trkpt lat="25.297923" lon="101.079402">
<time>2015-09-27T21:52:32Z</time></trkpt>
<trkpt lat="25.297973" lon="101.079462">
<time>2015-09-27T21:52:33Z</time></trkpt>
<trkpt lat="25.298013" lon="101.079482">
<time>2015-09-27T21:52:34Z</time></trkpt>
<trkpt lat="25.298063" lon="101.079492">
<time>2015-09-27T21:52:35Z</time></trkpt>
<trkpt lat="25.298093" lon="101.079492">
<time>2015-09-27T21:52:36Z</time></trkpt>
<trkpt lat="25.298143" lon="101.079492">
<time>2015-09-27T21:52:37Z</time></trkpt>
<trkpt lat="25.298173" lon="101.079482">
<time>2015-09-27T21:52:38Z</time></trkpt>
<trkpt lat="25.298213" lon="101.079472">
<time>2015-09-27T21:52:39Z</time></trkpt>
<trkpt lat="25.298253" lon="101.079452">
<time>2015-09-27T21:52:40Z</time></trkpt>
<trkpt lat="25.298283" lon="101.079422">
<time>2015-09-27T21:52:41Z</time></trkpt>
<trkpt lat="25.298313" lon="101.079392">
<time>2015-09-27T21:52:42Z</time></trkpt>
<trkpt lat="25.298343" lon="101.079352">
<time>2015-09-27T21:52:43Z</time></trkpt>
<trkpt lat="25.298363" lon="101.079322">
<time>2015-09-27T21:52:44Z</time></trkpt>
<trkpt lat="25.298383" lon="101.079272">
<time>2015-09-27T21:52:45Z</time></trkpt>
<trkpt lat="25.298393" lon="101.079232">
<time>2015-09-27T21:52:46Z</time></trkpt>
<trkpt lat="25.298413" lon="101.079142">
<time>2015-09-27T21:52:47Z</time></trkpt>
<trkpt lat="25.298423" lon="101.078953">
<time>2015-09-27T21:52:48Z</time></trkpt>
<trkpt lat="25.298443" lon="101.078853">
<time>2015-09-27T21:52:49Z</time></trkpt>
<trkpt lat="25.298473" lon="101.078773">
<time>2015-09-27T21:52:50Z</time></trkpt>
<trkpt lat="25.298513" lon="101.078693">
<time>2015-09-27T21:52:51Z</time></trkpt>
<trkpt lat="25.298573" lon="101.078603">
<time>2015-09-27T21:52:52Z</time></trkpt>
<trkpt lat="25.298764" lon="101.078383">
<time>2015-09-27T21:52:53Z</time></trkpt>
<trkpt lat="25.298844" lon="101.078274">
<time>2015-09-27T21:52:54Z</time></trkpt>
<trkpt lat="25.298904" lon="101.078164">
<time>2015-09-27T21:52:55Z</time></trkpt>
<trkpt lat="25.299044" lon="101.077714">
<time>2015-09-27T21:52:56Z</time></trkpt>
<trkpt lat="25.299074" lon="101.077624">
<time>2015-09-27T21:52:57Z</time></trkpt>
<trkpt lat="25.299114" lon="101.077565">
<time>2015-09-27T21:52:58Z</time></trkpt>
<trkpt lat="25.299134" lon="101.077525">
<time>2015-09-27T21:52:59Z</time></trkpt>
<trkpt lat="25.299164" lon="101.077495">
<time>2015-09-27T21:53:00Z</time></trkpt>
<trkpt lat="25.299204" lon="101.077465">
<time>2015-09-27T21:53:01Z</time></trkpt>
<trkpt lat="25.299264" lon="101.077435">
<time>2015-09-27T21:53:02Z</time></trkpt>
<trkpt lat="25.299334" lon="101.077415">
<time>2015-09-27T21:53:03Z</time></trkpt>
<trkpt lat="25.299394" lon="101.077405">
<time>2015-09-27T21:53:04Z</time></trkpt>
<trkpt lat="25.299745" lon="101.077375">
<time>2015-09-27T21:53:05Z</time></trkpt>
<trkpt lat="25.299945" lon="101.077375">
<time>2015-09-27T21:53:06Z</time></trkpt>
<trkpt lat="25.300065" lon="101.077385">
<time>2015-09-27T21:53:07Z</time></trkpt>
<trkpt lat="25.300165" lon="101.077405">
<time>2015-09-27T21:53:08Z</time></trkpt>
<trkpt lat="25.300265" lon="101.077435">
<time>2015-09-27T21:53:09Z</time></trkpt>
<trkpt lat="25.300564" lon="101.077574">
<time>2015-09-27T21:53:10Z</time></trkpt>
<trkpt lat="25.300864" lon="101.077734">
<time>2015-09-27T21:53:11Z</time></trkpt>
<trkpt lat="25.301024" lon="101.077834">
<time>2015-09-27T21:53:12Z</time></trkpt>
<trkpt lat="25.301114" lon="101.077884">
<time>2015-09-27T21:53:13Z</time></trkpt>
<trkpt lat="25.301174" lon="101.077904">
<time>2015-09-27T21:53:14Z</time></trkpt>
<trkpt lat="25.301224" lon="101.077914">
<time>2015-09-27T21:53:15Z</time></trkpt>
<trkpt lat="25.301284" lon="101.077904">
<time>2015-09-27T21:53:16Z</time></trkpt>
<trkpt lat="25.301334" lon="101.077884">
<time>2015-09-27T21:53:17Z</time></trkpt>
<trkpt lat="25.301374" lon="101.077854">
<time>2015-09-27T21:53:18Z</time></trkpt>
<trkpt lat="25.301414" lon="101.077814">
<time>2015-09-27T21:53:19Z</time></trkpt>
<trkpt lat="25.301444" lon="101.077764">
<time>2015-09-27T21:53:20Z</time></trkpt>
<trkpt lat="25.301474" lon="101.077714">
<time>2015-09-27T21:53:21Z</time></trkpt>
<trkpt lat="25.301494" lon="101.077644">
<time>2015-09-27T21:53:22Z</time></trkpt>
<trkpt lat="25.301504" lon="101.077574">
<time>2015-09-27T21:53:23Z</time></trkpt>
<trkpt lat="25.301495" lon="101.077485">
<time>2015-09-27T21:53:24Z</time></trkpt>
<trkpt lat="25.301395" lon="101.077055">
<time>2015-09-27T21:53:25Z</time></trkpt>
<trkpt lat="25.301385" lon="101.076965">
<time>2015-09-27T21:53:26Z</time></trkpt>
<trkpt lat="25.301385" lon="101.076876">
<time>2015-09-27T21:53:27Z</time></trkpt>
<trkpt lat="25.301395" lon="101.076816">
<time>2015-09-27T21:53:28Z</time></trkpt>
<trkpt lat="25.301415" lon="101.076736">
<time>2015-09-27T21:53:29Z</time></trkpt>
<trkpt lat="25.301445" lon="101.076676">
<time>2015-09-27T21:53:30Z</time></trkpt>
<trkpt lat="25.301485" lon="101.076616">
<time>2015-09-27T21:53:31Z</time></trkpt>
<trkpt lat="25.301535" lon="101.076586">
<time>2015-09-27T21:53:32Z</time></trkpt>
<trkpt lat="25.301585" lon="101.076546">
<time>2015-09-27T21:53:33Z</time></trkpt>
<trkpt lat="25.301645" lon="101.076516">
<time>2015-09-27T21:53:34Z</time></trkpt>
<trkpt lat="25.301936" lon="101.076366">
<time>2015-09-27T21:53:35Z</time></trkpt>
<trkpt lat="25.302006" lon="101.076316">
<time>2015-09-27T21:53:36Z</time></trkpt>
<trkpt lat="25.302056" lon="101.076266">
<time>2015-09-27T21:53:37Z</time></trkpt>
<trkpt lat="25.302096" lon="101.076207">
<time>2015-09-27T21:53:38Z</time></trkpt>
<trkpt lat="25.302126" lon="101.076157">
<time>2015-09-27T21:53:39Z</time></trkpt>
<trkpt lat="25.302146" lon="101.076107">
<time>2015-09-27T21:53:40Z</time></trkpt>
<trkpt lat="25.302166" lon="101.076057">
<time>2015-09-27T21:53:41Z</time></trkpt>
<trkpt lat="25.302186" lon="101.075997">
<time>2015-09-27T21:53:42Z</time></trkpt>
<trkpt lat="25.302196" lon="101.075947">
<time>2015-09-27T21:53:43Z</time></trkpt>
<trkpt lat="25.302206" lon="101.075897">
<time>2015-09-27T21:53:44Z</time></trkpt>
<trkpt lat="25.302216" lon="101.075857">
<time>2015-09-27T21:53:45Z</time></trkpt>
<trkpt lat="25.302216" lon="101.075807">
<time>2015-09-27T21:53:46Z</time></trkpt>
<trkpt lat="25.302226" lon="101.075747">
<time>2015-09-27T21:53:47Z</time></trkpt>
<trkpt lat="25.302226" lon="101.075677">
<time>2015-09-27T21:53:48Z</time></trkpt>
<trkpt lat="25.302216" lon="101.075518">
<time>2015-09-27T21:53:49Z</time></trkpt>
<trkpt lat="25.302187" lon="101.075318">
<time>2015-09-27T21:53:50Z</time></trkpt>
<trkpt lat="25.302177" lon="101.075238">
<time>2015-09-27T21:53:51Z</time></trkpt>
<trkpt lat="25.302167" lon="101.075178">
<time>2015-09-27T21:53:52Z</time></trkpt>
<trkpt lat="25.302147" lon="101.075128">
<time>2015-09-27T21:53:53Z</time></trkpt>
<trkpt lat="25.302127" lon="101.075078">
<time>2015-09-27T21:53:54Z</time></trkpt>
<trkpt lat="25.302107" lon="101.075028">
<time>2015-09-27T21:53:55Z</time></trkpt>
<trkpt lat="25.302077" lon="101.074998">
<time>2015-09-27T21:53:56Z</time></trkpt>
<trkpt lat="25.302037" lon="101.074969">
<time>2015-09-27T21:53:57Z</time></trkpt>
<trkpt lat="25.301997" lon="101.074949">
<time>2015-09-27T21:53:58Z</time></trkpt>
<trkpt lat="25.301937" lon="101.074939">
<time>2015-09-27T21:53:59Z</time></trkpt>
<trkpt lat="25.301877" lon="101.074929">
<time>2015-09-27T21:54:00Z</time></trkpt>
<trkpt lat="25.301667" lon="101.074899">
<time>2015-09-27T21:54:01Z</time></trkpt>
<trkpt lat="25.301607" lon="101.074889">
<time>2015-09-27T21:54:02Z</time></trkpt>
<trkpt lat="25.301547" lon="101.074869">
<time>2015-09-27T21:54:03Z</time></trkpt>
<trkpt lat="25.301477" lon="101.074819">
<time>2015-09-27T21:54:04Z</time></trkpt>
<trkpt lat="25.301427" lon="101.074739">
<time>2015-09-27T21:54:05Z</time></trkpt>
<trkpt lat="25.301387" lon="101.074669">
<time>2015-09-27T21:54:06Z</time></trkpt>
<trkpt lat="25.301367" lon="101.074579">
<time>2015-09-27T21:54:07Z</time></trkpt>
<trkpt lat="25.301367" lon="101.074499">
<time>2015-09-27T21:54:08Z</time></trkpt>
<trkpt lat="25.301398" lon="101.07427">
<time>2015-09-27T21:54:09Z</time></trkpt>
<trkpt lat="25.301438" lon="101.07399">
<time>2015-09-27T21:54:10Z</time></trkpt>
<trkpt lat="25.301498" lon="101.073731">
<time>2015-09-27T21:54:11Z</time></trkpt>
<trkpt lat="25.301578" lon="101.073481">
<time>2015-09-27T21:54:12Z</time></trkpt>
<trkpt lat="25.301679" lon="101.073191">
<time>2015-09-27T21:54:13Z</time></trkpt>
<trkpt lat="25.301729" lon="101.073072">
<time>2015-09-27T21:54:14Z</time></trkpt>
<trkpt lat="25.301809" lon="101.072962">
<time>2015-09-27T21:54:15Z</time></trkpt>
<trkpt lat="25.301889" lon="101.072892">
<time>2015-09-27T21:54:16Z</time></trkpt>
<trkpt lat="25.301999" lon="101.072822">
<time>2015-09-27T21:54:17Z</time></trkpt>
<trkpt lat="25.30305" lon="101.072363">
<time>2015-09-27T21:54:18Z</time></trkpt>
<trkpt lat="25.30314" lon="101.072303">
<time>2015-09-27T21:54:19Z</time></trkpt>
<trkpt lat="25.30319" lon="101.072263">
<time>2015-09-27T21:54:20Z</time></trkpt>
<trkpt lat="25.30322" lon="101.072223">
<time>2015-09-27T21:54:21Z</time></trkpt>
<trkpt lat="25.30324" lon="101.072183">
<time>2015-09-27T21:54:22Z</time></trkpt>
<trkpt lat="25.30327" lon="101.072093">
<time>2015-09-27T21:54:23Z</time></trkpt>
<trkpt lat="25.3033" lon="101.071854">
<time>2015-09-27T21:54:24Z</time></trkpt>
<trkpt lat="25.30332" lon="101.071744">
<time>2015-09-27T21:54:25Z</time></trkpt>
<trkpt lat="25.30335" lon="101.071644">
<time>2015-09-27T21:54:26Z</time></trkpt>
<trkpt lat="25.303381" lon="101.071564">
<time>2015-09-27T21:54:27Z</time></trkpt>
<trkpt lat="25.303431" lon="101.071474">
<time>2015-09-27T21:54:28Z</time></trkpt>
<trkpt lat="25.303501" lon="101.071365">
<time>2015-09-27T21:54:29Z</time></trkpt>
<trkpt lat="25.303581" lon="101.071265">
<time>2015-09-27T21:54:30Z</time></trkpt>
<trkpt lat="25.303671" lon="101.071125">
<time>2015-09-27T21:54:31Z</time></trkpt>
<trkpt lat="25.303741" lon="101.071015">
<time>2015-09-27T21:54:32Z</time></trkpt>
<trkpt lat="25.303791" lon="101.070895">
<time>2015-09-27T21:54:33Z</time></trkpt>
<trkpt lat="25.304152" lon="101.070007">
<time>2015-09-27T21:54:34Z</time></trkpt>
<trkpt lat="25.304243" lon="101.069778">
<time>2015-09-27T21:54:35Z</time></trkpt>
<trkpt lat="25.304323" lon="101.069618">
<time>2015-09-27T21:54:36Z</time></trkpt>
<trkpt lat="25.304373" lon="101.069548">
<time>2015-09-27T21:54:37Z</time></trkpt>
<trkpt lat="25.304423" lon="101.069478">
<time>2015-09-27T21:54:38Z</time></trkpt>
<trkpt lat="25.304473" lon="101.069448">
<time>2015-09-27T21:54:39Z</time></trkpt>
<trkpt lat="25.304493" lon="101.069428">
<time>2015-09-27T21:54:40Z</time></trkpt>
<trkpt lat="25.304583" lon="101.069388">
<time>2015-09-27T21:54:41Z</time></trkpt>
<trkpt lat="25.304703" lon="101.069348">
<time>2015-09-27T21:54:42Z</time></trkpt>
<trkpt lat="25.305023" lon="101.069298">
<time>2015-09-27T21:54:43Z</time></trkpt>
<trkpt lat="25.305973" lon="101.069229">
<time>2015-09-27T21:54:44Z</time></trkpt>
<trkpt lat="25.306074" lon="101.069209">
<time>2015-09-27T21:54:45Z</time></trkpt>
<trkpt lat="25.306164" lon="101.069169">
<time>2015-09-27T21:54:46Z</time></trkpt>
<trkpt lat="25.306244" lon="101.069109">
<time>2015-09-27T21:54:47Z</time></trkpt>
<trkpt lat="25.306254" lon="101.069099">
<time>2015-09-27T21:54:48Z</time></trkpt>
<trkpt lat="25.306324" lon="101.069009">
<time>2015-09-27T21:54:49Z</time></trkpt>
<trkpt lat="25.306374" lon="101.068919">
<time>2015-09-27T21:54:50Z</time></trkpt>
<trkpt lat="25.306575" lon="101.06833">
<time>2015-09-27T21:54:51Z</time></trkpt>
<trkpt lat="25.306675" lon="101.068111">
<time>2015-09-27T21:54:52Z</time></trkpt>
<trkpt lat="25.306765" lon="101.067941">
<time>2015-09-27T21:54:53Z</time></trkpt>
<trkpt lat="25.306845" lon="101.067821">
<time>2015-09-27T21:54:54Z</time></trkpt>
<trkpt lat="25.306925" lon="101.067721">
<time>2015-09-27T21:54:55Z</time></trkpt>
<trkpt lat="25.307006" lon="101.067642">
<time>2015-09-27T21:54:56Z</time></trkpt>
<trkpt lat="25.307076" lon="101.067592">
<time>2015-09-27T21:54:57Z</time></trkpt>
<trkpt lat="25.307216" lon="101.067512">
<time>2015-09-27T21:54:58Z</time></trkpt>
<trkpt lat="25.307396" lon="101.067422">
<time>2015-09-27T21:54:59Z</time></trkpt>
<trkpt lat="25.307546" lon="101.067372">
<time>2015-09-27T21:55:00Z</time></trkpt>
<trkpt lat="25.307716" lon="101.067302">
<time>2015-09-27T21:55:01Z</time></trkpt>
<trkpt lat="25.307816" lon="101.067262">
<time>2015-09-27T21:55:02Z</time></trkpt>
<trkpt lat="25.307896" lon="101.067232">
<time>2015-09-27T21:55:03Z</time></trkpt>
<trkpt lat="25.308006" lon="101.067182">
<time>2015-09-27T21:55:04Z</time></trkpt>
<trkpt lat="25.308086" lon="101.067162">
<time>2015-09-27T21:55:05Z</time></trkpt>
<trkpt lat="25.308186" lon="101.067123">
<time>2015-09-27T21:55:06Z</time></trkpt>
<trkpt lat="25.308266" lon="101.067083">
<time>2015-09-27T21:55:07Z</time></trkpt>
<trkpt lat="25.308316" lon="101.067063">
<time>2015-09-27T21:55:08Z</time></trkpt>
<trkpt lat="25.308356" lon="101.067033">
<time>2015-09-27T21:55:09Z</time></trkpt>
<trkpt lat="25.308387" lon="101.067003">
<time>2015-09-27T21:55:10Z</time></trkpt>
<trkpt lat="25.308427" lon="101.066963">
<time>2015-09-27T21:55:11Z</time></trkpt>
<trkpt lat="25.308437" lon="101.066933">
<time>2015-09-27T21:55:12Z</time></trkpt>
<trkpt lat="25.308457" lon="101.066903">
<time>2015-09-27T21:55:13Z</time></trkpt>
<trkpt lat="25.308467" lon="101.066853">
<time>2015-09-27T21:55:14Z</time></trkpt>
<trkpt lat="25.308477" lon="101.066803">
<time>2015-09-27T21:55:15Z</time></trkpt>
<trkpt lat="25.308477" lon="101.066743">
<time>2015-09-27T21:55:16Z</time></trkpt>
<trkpt lat="25.308467" lon="101.066693">
<time>2015-09-27T21:55:17Z</time></trkpt>
<trkpt lat="25.308457" lon="101.066654">
<time>2015-09-27T21:55:18Z</time></trkpt>
<trkpt lat="25.308437" lon="101.066614">
<time>2015-09-27T21:55:19Z</time></trkpt>
<trkpt lat="25.308407" lon="101.066574">
<time>2015-09-27T21:55:20Z</time></trkpt>
<trkpt lat="25.308377" lon="101.066544">
<time>2015-09-27T21:55:21Z</time></trkpt>
<trkpt lat="25.308357" lon="101.066514">
<time>2015-09-27T21:55:22Z</time></trkpt>
<trkpt lat="25.308317" lon="101.066494">
<time>2015-09-27T21:55:23Z</time></trkpt>
<trkpt lat="25.308287" lon="101.066474">
<time>2015-09-27T21:55:24Z</time></trkpt>
<trkpt lat="25.308237" lon="101.066454">
<time>2015-09-27T21:55:25Z</time></trkpt>
<trkpt lat="25.308137" lon="101.066424">
<time>2015-09-27T21:55:26Z</time></trkpt>
<trkpt lat="25.307947" lon="101.066374">
<time>2015-09-27T21:55:27Z</time></trkpt>
<trkpt lat="25.307897" lon="101.066354">
<time>2015-09-27T21:55:28Z</time></trkpt>
<trkpt lat="25.307847" lon="101.066324">
<time>2015-09-27T21:55:29Z</time></trkpt>
<trkpt lat="25.307817" lon="101.066304">
<time>2015-09-27T21:55:30Z</time></trkpt>
<trkpt lat="25.307787" lon="101.066284">
<time>2015-09-27T21:55:31Z</time></trkpt>
<trkpt lat="25.307757" lon="101.066254">
<time>2015-09-27T21:55:32Z</time></trkpt>
<trkpt lat="25.307738" lon="101.066224">
<time>2015-09-27T21:55:33Z</time></trkpt>
<trkpt lat="25.307698" lon="101.066184">
<time>2015-09-27T21:55:34Z</time></trkpt>
<trkpt lat="25.307678" lon="101.066145">
<time>2015-09-27T21:55:35Z</time></trkpt>
<trkpt lat="25.307628" lon="101.066025">
<time>2015-09-27T21:55:36Z</time></trkpt>
<trkpt lat="25.307598" lon="101.065895">
<time>2015-09-27T21:55:37Z</time></trkpt>
<trkpt lat="25.307509" lon="101.065456">
<time>2015-09-27T21:55:38Z</time></trkpt>
<trkpt lat="25.307389" lon="101.064787">
<time>2015-09-27T21:55:39Z</time></trkpt>
<trkpt lat="25.30737" lon="101.064608">
<time>2015-09-27T21:55:40Z</time></trkpt>
<trkpt lat="25.30736" lon="101.064448">
<time>2015-09-27T21:55:41Z</time></trkpt>
<trkpt lat="25.30736" lon="101.064328">
<time>2015-09-27T21:55:42Z</time></trkpt>
<trkpt lat="25.30736" lon="101.064278">
<time>2015-09-27T21:55:43Z</time></trkpt>
<trkpt lat="25.307371" lon="101.064029">
<time>2015-09-27T21:55:44Z</time></trkpt>
<trkpt lat="25.307401" lon="101.06346">
<time>2015-09-27T21:55:45Z</time></trkpt>
<trkpt lat="25.307412" lon="101.063261">
<time>2015-09-27T21:55:46Z</time></trkpt>
<trkpt lat="25.307412" lon="101.063061">
<time>2015-09-27T21:55:47Z</time></trkpt>
<trkpt lat="25.307392" lon="101.062862">
<time>2015-09-27T21:55:48Z</time></trkpt>
<trkpt lat="25.307343" lon="101.062612">
<time>2015-09-27T21:55:49Z</time></trkpt>
<trkpt lat="25.307263" lon="101.062343">
<time>2015-09-27T21:55:50Z</time></trkpt>
<trkpt lat="25.307124" lon="101.061984">
<time>2015-09-27T21:55:51Z</time></trkpt>
<trkpt lat="25.307104" lon="101.061854">
<time>2015-09-27T21:55:52Z</time></trkpt>
<trkpt lat="25.307094" lon="101.061734">
<time>2015-09-27T21:55:53Z</time></trkpt>
<trkpt lat="25.307094" lon="101.061624">
<time>2015-09-27T21:55:54Z</time></trkpt>
<trkpt lat="25.307114" lon="101.061495">
<time>2015-09-27T21:55:55Z</time></trkpt>
<trkpt lat="25.307135" lon="101.061395">
<time>2015-09-27T21:55:56Z</time></trkpt>
<trkpt lat="25.307165" lon="101.061285">
<time>2015-09-27T21:55:57Z</time></trkpt>
<trkpt lat="25.307195" lon="101.061215">
<time>2015-09-27T21:55:58Z</time></trkpt>
<trkpt lat="25.307225" lon="101.061135">
<time>2015-09-27T21:55:59Z</time></trkpt>
<trkpt lat="25.307255" lon="101.061076">
<time>2015-09-27T21:56:00Z</time></trkpt>
<trkpt lat="25.307295" lon="101.061026">
<time>2015-09-27T21:56:01Z</time></trkpt>
<trkpt lat="25.307335" lon="101.060966">
<time>2015-09-27T21:56:02Z</time></trkpt>
<trkpt lat="25.307395" lon="101.060916">
<time>2015-09-27T21:56:03Z</time></trkpt>
<trkpt lat="25.307455" lon="101.060866">
<time>2015-09-27T21:56:04Z</time></trkpt>
<trkpt lat="25.307896" lon="101.060607">
<time>2015-09-27T21:56:05Z</time></trkpt>
<trkpt lat="25.308096" lon="101.060467">
<time>2015-09-27T21:56:06Z</time></trkpt>
<trkpt lat="25.308186" lon="101.060367">
<time>2015-09-27T21:56:07Z</time></trkpt>
<trkpt lat="25.308216" lon="101.060317">
<time>2015-09-27T21:56:08Z</time></trkpt>
<trkpt lat="25.308236" lon="101.060257">
<time>2015-09-27T21:56:09Z</time></trkpt>
<trkpt lat="25.308246" lon="101.060198">
<time>2015-09-27T21:56:10Z</time></trkpt>
<trkpt lat="25.308247" lon="101.060148">
<time>2015-09-27T21:56:11Z</time></trkpt>
<trkpt lat="25.308227" lon="101.060088">
<time>2015-09-27T21:56:12Z</time></trkpt>
<trkpt lat="25.308207" lon="101.060038">
<time>2015-09-27T21:56:13Z</time></trkpt>
<trkpt lat="25.308167" lon="101.059978">
<time>2015-09-27T21:56:14Z</time></trkpt>
<trkpt lat="25.308117" lon="101.059938">
<time>2015-09-27T21:56:15Z</time></trkpt>
<trkpt lat="25.308067" lon="101.059918">
<time>2015-09-27T21:56:16Z</time></trkpt>
<trkpt lat="25.307987" lon="101.059898">
<time>2015-09-27T21:56:17Z</time></trkpt>
<trkpt lat="25.307887" lon="101.059888">
<time>2015-09-27T21:56:18Z</time></trkpt>
<trkpt lat="25.307787" lon="101.059878">
<time>2015-09-27T21:56:19Z</time></trkpt>
<trkpt lat="25.307697" lon="101.059868">
<time>2015-09-27T21:56:20Z</time></trkpt>
<trkpt lat="25.307627" lon="101.059838">
<time>2015-09-27T21:56:21Z</time></trkpt>
<trkpt lat="25.307587" lon="101.059809">
<time>2015-09-27T21:56:22Z</time></trkpt>
<trkpt lat="25.307547" lon="101.059759">
<time>2015-09-27T21:56:23Z</time></trkpt>
<trkpt lat="25.307517" lon="101.059699">
<time>2015-09-27T21:56:24Z</time></trkpt>
<trkpt lat="25.307507" lon="101.059619">
<time>2015-09-27T21:56:25Z</time></trkpt>
<trkpt lat="25.307517" lon="101.059559">
<time>2015-09-27T21:56:26Z</time></trkpt>
<trkpt lat="25.307548" lon="101.059469">
<time>2015-09-27T21:56:27Z</time></trkpt>
<trkpt lat="25.307568" lon="101.05939">
<time>2015-09-27T21:56:28Z</time></trkpt>
<trkpt lat="25.307698" lon="101.05898">
<time>2015-09-27T21:56:29Z</time></trkpt>
<trkpt lat="25.307739" lon="101.058831">
<time>2015-09-27T21:56:30Z</time></trkpt>
<trkpt lat="25.307749" lon="101.058781">
<time>2015-09-27T21:56:31Z</time></trkpt>
<trkpt lat="25.307749" lon="101.058721">
<time>2015-09-27T21:56:32Z</time></trkpt>
<trkpt lat="25.307749" lon="101.058611">
<time>2015-09-27T21:56:33Z</time></trkpt>
<trkpt lat="25.307739" lon="101.058432">
<time>2015-09-27T21:56:34Z</time></trkpt>
<trkpt lat="25.307739" lon="101.058352">
<time>2015-09-27T21:56:35Z</time></trkpt>
<trkpt lat="25.30774" lon="101.058262">
<time>2015-09-27T21:56:36Z</time></trkpt>
<trkpt lat="25.30775" lon="101.058162">
<time>2015-09-27T21:56:37Z</time></trkpt>
<trkpt lat="25.30781" lon="101.057843">
<time>2015-09-27T21:56:38Z</time></trkpt>
<trkpt lat="25.307901" lon="101.057404">
<time>2015-09-27T21:56:39Z</time></trkpt>
<trkpt lat="25.307962" lon="101.057165">
<time>2015-09-27T21:56:40Z</time></trkpt>
<trkpt lat="25.308002" lon="101.057035">
<time>2015-09-27T21:56:41Z</time></trkpt>
<trkpt lat="25.308042" lon="101.056935">
<time>2015-09-27T21:56:42Z</time></trkpt>
<trkpt lat="25.308082" lon="101.056866">
<time>2015-09-27T21:56:43Z</time></trkpt>
<trkpt lat="25.308122" lon="101.056826">
<time>2015-09-27T21:56:44Z</time></trkpt>
<trkpt lat="25.308162" lon="101.056776">
<time>2015-09-27T21:56:45Z</time></trkpt>
<trkpt lat="25.308242" lon="101.056706">
<time>2015-09-27T21:56:46Z</time></trkpt>
<trkpt lat="25.308363" lon="101.056626">
<time>2015-09-27T21:56:47Z</time></trkpt>
<trkpt lat="25.308403" lon="101.056586">
<time>2015-09-27T21:56:48Z</time></trkpt>
<trkpt lat="25.308443" lon="101.056556">
<time>2015-09-27T21:56:49Z</time></trkpt>
<trkpt lat="25.308483" lon="101.056516">
<time>2015-09-27T21:56:50Z</time></trkpt>
<trkpt lat="25.308503" lon="101.056477">
<time>2015-09-27T21:56:51Z</time></trkpt>
<trkpt lat="25.308513" lon="101.056447">
<time>2015-09-27T21:56:52Z</time></trkpt>
<trkpt lat="25.308523" lon="101.056407">
<time>2015-09-27T21:56:53Z</time></trkpt>
<trkpt lat="25.308533" lon="101.056377">
<time>2015-09-27T21:56:54Z</time></trkpt>
<trkpt lat="25.308533" lon="101.056347">
<time>2015-09-27T21:56:55Z</time></trkpt>
<trkpt lat="25.308523" lon="101.056307">
<time>2015-09-27T21:56:56Z</time></trkpt>
<trkpt lat="25.308503" lon="101.056247">
<time>2015-09-27T21:56:57Z</time></trkpt>
<trkpt lat="25.308463" lon="101.056147">
<time>2015-09-27T21:56:58Z</time></trkpt>
<trkpt lat="25.308404" lon="101.055978">
<time>2015-09-27T21:56:59Z</time></trkpt>
<trkpt lat="25.308384" lon="101.055878">
<time>2015-09-27T21:57:00Z</time></trkpt>
<trkpt lat="25.308374" lon="101.055778">
<time>2015-09-27T21:57:01Z</time></trkpt>
<trkpt lat="25.308374" lon="101.055689">
<time>2015-09-27T21:57:02Z</time></trkpt>
<trkpt lat="25.308374" lon="101.055599">
<time>2015-09-27T21:57:03Z</time></trkpt>
<trkpt lat="25.308375" lon="101.055459">
<time>2015-09-27T21:57:04Z</time></trkpt>
<trkpt lat="25.308395" lon="101.055339">
<time>2015-09-27T21:57:05Z</time></trkpt>
<trkpt lat="25.308405" lon="101.05523">
<time>2015-09-27T21:57:06Z</time></trkpt>
<trkpt lat="25.308435" lon="101.05511">
<time>2015-09-27T21:57:07Z</time></trkpt>
<trkpt lat="25.308546" lon="101.054831">
<time>2015-09-27T21:57:08Z</time></trkpt>
<trkpt lat="25.308666" lon="101.054571">
<time>2015-09-27T21:57:09Z</time></trkpt>
<trkpt lat="25.308706" lon="101.054492">
<time>2015-09-27T21:57:10Z</time></trkpt>
<trkpt lat="25.308757" lon="101.054422">
<time>2015-09-27T21:57:11Z</time></trkpt>
<trkpt lat="25.308807" lon="101.054362">
<time>2015-09-27T21:57:12Z</time></trkpt>
<trkpt lat="25.308867" lon="101.054312">
<time>2015-09-27T21:57:13Z</time></trkpt>
<trkpt lat="25.308957" lon="101.054262">
<time>2015-09-27T21:57:14Z</time></trkpt>
<trkpt lat="25.309057" lon="101.054222">
<time>2015-09-27T21:57:15Z</time></trkpt>
<trkpt lat="25.309177" lon="101.054202">
<time>2015-09-27T21:57:16Z</time></trkpt>
<trkpt lat="25.309327" lon="101.054162">
<time>2015-09-27T21:57:17Z</time></trkpt>
<trkpt lat="25.309407" lon="101.054143">
<time>2015-09-27T21:57:18Z</time></trkpt>
<trkpt lat="25.309477" lon="101.054133">
<time>2015-09-27T21:57:19Z</time></trkpt>
<trkpt lat="25.309597" lon="101.054103">
<time>2015-09-27T21:57:20Z</time></trkpt>
<trkpt lat="25.309697" lon="101.054063">
<time>2015-09-27T21:57:21Z</time></trkpt>
<trkpt lat="25.309757" lon="101.054033">
<time>2015-09-27T21:57:22Z</time></trkpt>
<trkpt lat="25.309807" lon="101.053993">
<time>2015-09-27T21:57:23Z</time></trkpt>
<trkpt lat="25.309847" lon="101.053953">
<time>2015-09-27T21:57:24Z</time></trkpt>
<trkpt lat="25.309878" lon="101.053893">
<time>2015-09-27T21:57:25Z</time></trkpt>
<trkpt lat="25.309888" lon="101.053823">
<time>2015-09-27T21:57:26Z</time></trkpt>
<trkpt lat="25.309898" lon="101.053744">
<time>2015-09-27T21:57:27Z</time></trkpt>
<trkpt lat="25.309888" lon="101.053644">
<time>2015-09-27T21:57:28Z</time></trkpt>
<trkpt lat="25.309848" lon="101.053464">
<time>2015-09-27T21:57:29Z</time></trkpt>
<trkpt lat="25.309759" lon="101.053115">
<time>2015-09-27T21:57:30Z</time></trkpt>
<trkpt lat="25.309729" lon="101.052946">
<time>2015-09-27T21:57:31Z</time></trkpt>
<trkpt lat="25.30972" lon="101.052796">
<time>2015-09-27T21:57:32Z</time></trkpt>
<trkpt lat="25.30972" lon="101.052696">
<time>2015-09-27T21:57:33Z</time></trkpt>
<trkpt lat="25.30973" lon="101.052617">
<time>2015-09-27T21:57:34Z</time></trkpt>
<trkpt lat="25.30974" lon="101.052547">
<time>2015-09-27T21:57:35Z</time></trkpt>
<trkpt lat="25.309831" lon="101.052218">
<time>2015-09-27T21:57:36Z</time></trkpt>
<trkpt lat="25.309881" lon="101.052018">
<time>2015-09-27T21:57:37Z</time></trkpt>
<trkpt lat="25.309912" lon="101.051819">
<time>2015-09-27T21:57:38Z</time></trkpt>
<trkpt lat="25.309942" lon="101.051629">
<time>2015-09-27T21:57:39Z</time></trkpt>
<trkpt lat="25.309973" lon="101.05132">
<time>2015-09-27T21:57:40Z</time></trkpt>
<trkpt lat="25.310013" lon="101.050921">
<time>2015-09-27T21:57:41Z</time></trkpt>
<trkpt lat="25.310023" lon="101.050841">
<time>2015-09-27T21:57:42Z</time></trkpt>
<trkpt lat="25.310044" lon="101.050752">
<time>2015-09-27T21:57:43Z</time></trkpt>
<trkpt lat="25.310064" lon="101.050692">
<time>2015-09-27T21:57:44Z</time></trkpt>
<trkpt lat="25.310084" lon="101.050632">
<time>2015-09-27T21:57:45Z</time></trkpt>
<trkpt lat="25.310104" lon="101.050592">
<time>2015-09-27T21:57:46Z</time></trkpt>
<trkpt lat="25.310144" lon="101.050552">
<time>2015-09-27T21:57:47Z</time></trkpt>
<trkpt lat="25.310214" lon="101.050512">
<time>2015-09-27T21:57:48Z</time></trkpt>
<trkpt lat="25.310304" lon="101.050482">
<time>2015-09-27T21:57:49Z</time></trkpt>
<trkpt lat="25.310394" lon="101.050462">
<time>2015-09-27T21:57:50Z</time></trkpt>
<trkpt lat="25.310564" lon="101.050432">
<time>2015-09-27T21:57:51Z</time></trkpt>
<trkpt lat="25.310634" lon="101.050412">
<time>2015-09-27T21:57:52Z</time></trkpt>
<trkpt lat="25.310684" lon="101.050383">
<time>2015-09-27T21:57:53Z</time></trkpt>
<trkpt lat="25.310734" lon="101.050353">
<time>2015-09-27T21:57:54Z</time></trkpt>
<trkpt lat="25.310775" lon="101.050313">
<time>2015-09-27T21:57:55Z</time></trkpt>
<trkpt lat="25.310795" lon="101.050283">
<time>2015-09-27T21:57:56Z</time></trkpt>
<trkpt lat="25.310805" lon="101.050233">
<time>2015-09-27T21:57:57Z</time></trkpt>
<trkpt lat="25.310815" lon="101.050173">
<time>2015-09-27T21:57:58Z</time></trkpt>
<trkpt lat="25.310815" lon="101.050103">
<time>2015-09-27T21:57:59Z</time></trkpt>
<trkpt lat="25.310805" lon="101.050034">
<time>2015-09-27T21:58:00Z</time></trkpt>
<trkpt lat="25.310785" lon="101.049964">
<time>2015-09-27T21:58:01Z</time></trkpt>
<trkpt lat="25.310745" lon="101.049874">
<time>2015-09-27T21:58:02Z</time></trkpt>
<trkpt lat="25.310676" lon="101.049744">
<time>2015-09-27T21:58:03Z</time></trkpt>
<trkpt lat="25.310586" lon="101.049625">
<time>2015-09-27T21:58:04Z</time></trkpt>
<trkpt lat="25.310536" lon="101.049575">
<time>2015-09-27T21:58:05Z</time></trkpt>
<trkpt lat="25.310486" lon="101.049525">
<time>2015-09-27T21:58:06Z</time></trkpt>
<trkpt lat="25.310396" lon="101.049455">
<time>2015-09-27T21:58:07Z</time></trkpt>
<trkpt lat="25.310306" lon="101.049385">
<time>2015-09-27T21:58:08Z</time></trkpt>
<trkpt lat="25.310217" lon="101.049336">
<time>2015-09-27T21:58:09Z</time></trkpt>
<trkpt lat="25.310137" lon="101.049296">
<time>2015-09-27T21:58:10Z</time></trkpt>
<trkpt lat="25.310057" lon="101.049266">
<time>2015-09-27T21:58:11Z</time></trkpt>
<trkpt lat="25.309587" lon="101.049106">
<time>2015-09-27T21:58:12Z</time></trkpt>
<trkpt lat="25.309407" lon="101.049036">
<time>2015-09-27T21:58:13Z</time></trkpt>
<trkpt lat="25.309227" lon="101.048967">
<time>2015-09-27T21:58:14Z</time></trkpt>
<trkpt lat="25.309117" lon="101.048917">
<time>2015-09-27T21:58:15Z</time></trkpt>
<trkpt lat="25.309037" lon="101.048867">
<time>2015-09-27T21:58:16Z</time></trkpt>
<trkpt lat="25.308957" lon="101.048807">
<time>2015-09-27T21:58:17Z</time></trkpt>
<trkpt lat="25.308878" lon="101.048727">
<time>2015-09-27T21:58:18Z</time></trkpt>
<trkpt lat="25.308768" lon="101.048598">
<time>2015-09-27T21:58:19Z</time></trkpt>
<trkpt lat="25.308678" lon="101.048468">
<time>2015-09-27T21:58:20Z</time></trkpt>
<trkpt lat="25.308598" lon="101.048338">
<time>2015-09-27T21:58:21Z</time></trkpt>
<trkpt lat="25.308549" lon="101.048229">
<time>2015-09-27T21:58:22Z</time></trkpt>
<trkpt lat="25.308549" lon="101.048219">
<time>2015-09-27T21:58:23Z</time></trkpt>
<trkpt lat="25.308519" lon="101.048139">
<time>2015-09-27T21:58:24Z</time></trkpt>
<trkpt lat="25.308509" lon="101.048099">
<time>2015-09-27T21:58:25Z</time></trkpt>
<trkpt lat="25.308499" lon="101.048029">
<time>2015-09-27T21:58:26Z</time></trkpt>
<trkpt lat="25.308489" lon="101.04793">
<time>2015-09-27T21:58:27Z</time></trkpt>
<trkpt lat="25.308499" lon="101.04784">
<time>2015-09-27T21:58:28Z</time></trkpt>
<trkpt lat="25.30852" lon="101.04777">
<time>2015-09-27T21:58:29Z</time></trkpt>
<trkpt lat="25.30856" lon="101.04769">
<time>2015-09-27T21:58:30Z</time></trkpt>
<trkpt lat="25.30861" lon="101.04763">
<time>2015-09-27T21:58:31Z</time></trkpt>
<trkpt lat="25.30869" lon="101.047571">
<time>2015-09-27T21:58:32Z</time></trkpt>
<trkpt lat="25.30879" lon="101.047511">
<time>2015-09-27T21:58:33Z</time></trkpt>
<trkpt lat="25.30891" lon="101.047461">
<time>2015-09-27T21:58:34Z</time></trkpt>
<trkpt lat="25.30905" lon="101.047421">
<time>2015-09-27T21:58:35Z</time></trkpt>
<trkpt lat="25.30926" lon="101.047371">
<time>2015-09-27T21:58:36Z</time></trkpt>
<trkpt lat="25.309471" lon="101.047321">
<time>2015-09-27T21:58:37Z</time></trkpt>
<trkpt lat="25.309661" lon="101.047281">
<time>2015-09-27T21:58:38Z</time></trkpt>
<trkpt lat="25.309841" lon="101.047232">
<time>2015-09-27T21:58:39Z</time></trkpt>
<trkpt lat="25.309931" lon="101.047192">
<time>2015-09-27T21:58:40Z</time></trkpt>
<trkpt lat="25.309991" lon="101.047172">
<time>2015-09-27T21:58:41Z</time></trkpt>
<trkpt lat="25.310031" lon="101.047142">
<time>2015-09-27T21:58:42Z</time></trkpt>
<trkpt lat="25.310061" lon="101.047112">
<time>2015-09-27T21:58:43Z</time></trkpt>
<trkpt lat="25.310101" lon="101.047072">
<time>2015-09-27T21:58:44Z</time></trkpt>
<trkpt lat="25.310121" lon="101.047032">
<time>2015-09-27T21:58:45Z</time></trkpt>
<trkpt lat="25.310131" lon="101.046982">
<time>2015-09-27T21:58:46Z</time></trkpt>
<trkpt lat="25.310142" lon="101.046922">
<time>2015-09-27T21:58:47Z</time></trkpt>
<trkpt lat="25.310132" lon="101.046892">
<time>2015-09-27T21:58:48Z</time></trkpt>
<trkpt lat="25.310132" lon="101.046853">
<time>2015-09-27T21:58:49Z</time></trkpt>
<trkpt lat="25.310122" lon="101.046823">
<time>2015-09-27T21:58:50Z</time></trkpt>
<trkpt lat="25.310112" lon="101.046783">
<time>2015-09-27T21:58:51Z</time></trkpt>
<trkpt lat="25.310092" lon="101.046753">
<time>2015-09-27T21:58:52Z</time></trkpt>
<trkpt lat="25.310072" lon="101.046723">
<time>2015-09-27T21:58:53Z</time></trkpt>
<trkpt lat="25.310032" lon="101.046663">
<time>2015-09-27T21:58:54Z</time></trkpt>
<trkpt lat="25.309962" lon="101.046593">
<time>2015-09-27T21:58:55Z</time></trkpt>
<trkpt lat="25.309902" lon="101.046544">
<time>2015-09-27T21:58:56Z</time></trkpt>
<trkpt lat="25.309783" lon="101.046424">
<time>2015-09-27T21:58:57Z</time></trkpt>
<trkpt lat="25.309733" lon="101.046334">
<time>2015-09-27T21:58:58Z</time></trkpt>
<trkpt lat="25.309693" lon="101.046224">
<time>2015-09-27T21:58:59Z</time></trkpt>
<trkpt lat="25.309663" lon="101.046105">
<time>2015-09-27T21:59:00Z</time></trkpt>
<trkpt lat="25.309653" lon="101.045975">
<time>2015-09-27T21:59:01Z</time></trkpt>
<trkpt lat="25.309664" lon="101.045826">
<time>2015-09-27T21:59:02Z</time></trkpt>
<trkpt lat="25.309704" lon="101.045596">
<time>2015-09-27T21:59:03Z</time></trkpt>
<trkpt lat="25.309775" lon="101.045188">
<time>2015-09-27T21:59:04Z</time></trkpt>
<trkpt lat="25.309786" lon="101.045048">
<time>2015-09-27T21:59:05Z</time></trkpt>
<trkpt lat="25.309776" lon="101.044928">
<time>2015-09-27T21:59:06Z</time></trkpt>
<trkpt lat="25.309756" lon="101.044799">
<time>2015-09-27T21:59:07Z</time></trkpt>
<trkpt lat="25.309617" lon="101.04443">
<time>2015-09-27T21:59:08Z</time></trkpt>
<trkpt lat="25.309567" lon="101.04426">
<time>2015-09-27T21:59:09Z</time></trkpt>
<trkpt lat="25.309557" lon="101.044151">
<time>2015-09-27T21:59:10Z</time></trkpt>
<trkpt lat="25.309558" lon="101.044051">
<time>2015-09-27T21:59:11Z</time></trkpt>
<trkpt lat="25.309578" lon="101.043921">
<time>2015-09-27T21:59:12Z</time></trkpt>
<trkpt lat="25.309648" lon="101.043722">
<time>2015-09-27T21:59:13Z</time></trkpt>
<trkpt lat="25.309739" lon="101.043353">
<time>2015-09-27T21:59:14Z</time></trkpt>
<trkpt lat="25.30978" lon="101.042835">
<time>2015-09-27T21:59:15Z</time></trkpt>
<trkpt lat="25.309811" lon="101.042665">
<time>2015-09-27T21:59:16Z</time></trkpt>
<trkpt lat="25.309841" lon="101.042545">
<time>2015-09-27T21:59:17Z</time></trkpt>
<trkpt lat="25.309902" lon="101.042366">
<time>2015-09-27T21:59:18Z</time></trkpt>
<trkpt lat="25.310012" lon="101.042197">
<time>2015-09-27T21:59:19Z</time></trkpt>
<trkpt lat="25.310122" lon="101.042047">
<time>2015-09-27T21:59:20Z</time></trkpt>
<trkpt lat="25.310273" lon="101.041808">
<time>2015-09-27T21:59:21Z</time></trkpt>
<trkpt lat="25.310373" lon="101.041628">
<time>2015-09-27T21:59:22Z</time></trkpt>
<trkpt lat="25.310413" lon="101.041529">
<time>2015-09-27T21:59:23Z</time></trkpt>
<trkpt lat="25.310444" lon="101.041459">
<time>2015-09-27T21:59:24Z</time></trkpt>
<trkpt lat="25.310464" lon="101.041379">
<time>2015-09-27T21:59:25Z</time></trkpt>
<trkpt lat="25.310474" lon="101.041309">
<time>2015-09-27T21:59:26Z</time></trkpt>
<trkpt lat="25.310474" lon="101.04122">
<time>2015-09-27T21:59:27Z</time></trkpt>
<trkpt lat="25.310464" lon="101.04111">
<time>2015-09-27T21:59:28Z</time></trkpt>
<trkpt lat="25.310435" lon="101.040731">
<time>2015-09-27T21:59:29Z</time></trkpt>
<trkpt lat="25.310426" lon="101.040512">
<time>2015-09-27T21:59:30Z</time></trkpt>
<trkpt lat="25.310416" lon="101.040273">
<time>2015-09-27T21:59:31Z</time></trkpt>
<trkpt lat="25.310417" lon="101.040093">
<time>2015-09-27T21:59:32Z</time></trkpt>
<trkpt lat="25.310427" lon="101.039884">
<time>2015-09-27T21:59:33Z</time></trkpt>
<trkpt lat="25.31051" lon="101.038847">
<time>2015-09-27T21:59:34Z</time></trkpt>
<trkpt lat="25.31051" lon="101.038757">
<time>2015-09-27T21:59:35Z</time></trkpt>
<trkpt lat="25.31051" lon="101.038668">
<time>2015-09-27T21:59:36Z</time></trkpt>
<trkpt lat="25.3105" lon="101.038588">
<time>2015-09-27T21:59:37Z</time></trkpt>
<trkpt lat="25.310491" lon="101.038488">
<time>2015-09-27T21:59:38Z</time></trkpt>
<trkpt lat="25.310451" lon="101.038389">
<time>2015-09-27T21:59:39Z</time></trkpt>
<trkpt lat="25.310033" lon="101.037671">
<time>2015-09-27T21:59:40Z</time></trkpt>
<trkpt lat="25.309933" lon="101.037521">
<time>2015-09-27T21:59:41Z</time></trkpt>
<trkpt lat="25.309893" lon="101.037412">
<time>2015-09-27T21:59:42Z</time></trkpt>
<trkpt lat="25.309863" lon="101.037312">
<time>2015-09-27T21:59:43Z</time></trkpt>
<trkpt lat="25.309854" lon="101.037202">
<time>2015-09-27T21:59:44Z</time></trkpt>
<trkpt lat="25.309844" lon="101.037093">
<time>2015-09-27T21:59:45Z</time></trkpt>
<trkpt lat="25.309854" lon="101.036983">
<time>2015-09-27T21:59:46Z</time></trkpt>
<trkpt lat="25.309885" lon="101.036744">
<time>2015-09-27T21:59:47Z</time></trkpt>
<trkpt lat="25.309895" lon="101.036545">
<time>2015-09-27T21:59:48Z</time></trkpt>
<trkpt lat="25.309896" lon="101.036375">
<time>2015-09-27T21:59:49Z</time></trkpt>
<trkpt lat="25.309886" lon="101.036096">
<time>2015-09-27T21:59:50Z</time></trkpt>
<trkpt lat="25.309887" lon="101.035976">
<time>2015-09-27T21:59:51Z</time></trkpt>
<trkpt lat="25.309897" lon="101.035847">
<time>2015-09-27T21:59:52Z</time></trkpt>
<trkpt lat="25.309927" lon="101.035697">
<time>2015-09-27T21:59:53Z</time></trkpt>
<trkpt lat="25.309968" lon="101.035568">
<time>2015-09-27T21:59:54Z</time></trkpt>
<trkpt lat="25.310008" lon="101.035448">
<time>2015-09-27T21:59:55Z</time></trkpt>
<trkpt lat="25.310038" lon="101.035358">
<time>2015-09-27T21:59:56Z</time></trkpt>
<trkpt lat="25.310068" lon="101.035299">
<time>2015-09-27T21:59:57Z</time></trkpt>
<trkpt lat="25.310109" lon="101.035239">
<time>2015-09-27T21:59:58Z</time></trkpt>
<trkpt lat="25.310169" lon="101.035169">
<time>2015-09-27T21:59:59Z</time></trkpt>
<trkpt lat="25.310219" lon="101.035119">
<time>2015-09-27T22:00:00Z</time></trkpt>
<trkpt lat="25.310249" lon="101.035089">
<time>2015-09-27T22:00:01Z</time></trkpt>
<trkpt lat="25.310299" lon="101.035069">
<time>2015-09-27T22:00:02Z</time></trkpt>
<trkpt lat="25.310339" lon="101.035059">
<time>2015-09-27T22:00:03Z</time></trkpt>
<trkpt lat="25.310399" lon="101.035049">
<time>2015-09-27T22:00:04Z</time></trkpt>
<trkpt lat="25.310449" lon="101.035049">
<time>2015-09-27T22:00:05Z</time></trkpt>
<trkpt lat="25.310659" lon="101.035059">
<time>2015-09-27T22:00:06Z</time></trkpt>
<trkpt lat="25.310939" lon="101.035069">
<time>2015-09-27T22:00:07Z</time></trkpt>
<trkpt lat="25.311019" lon="101.035059">
<time>2015-09-27T22:00:08Z</time></trkpt>
<trkpt lat="25.311099" lon="101.035039">
<time>2015-09-27T22:00:09Z</time></trkpt>
<trkpt lat="25.311169" lon="101.035">
<time>2015-09-27T22:00:10Z</time></trkpt>
<trkpt lat="25.311219" lon="101.03496">
<time>2015-09-27T22:00:11Z</time></trkpt>
<trkpt lat="25.311259" lon="101.03492">
<time>2015-09-27T22:00:12Z</time></trkpt>
<trkpt lat="25.31133" lon="101.03483">
<time>2015-09-27T22:00:13Z</time></trkpt>
<trkpt lat="25.311852" lon="101.034113">
<time>2015-09-27T22:00:14Z</time></trkpt>
<trkpt lat="25.312103" lon="101.033734">
<time>2015-09-27T22:00:15Z</time></trkpt>
<trkpt lat="25.312203" lon="101.033534">
<time>2015-09-27T22:00:16Z</time></trkpt>
<trkpt lat="25.312253" lon="101.033425">
<time>2015-09-27T22:00:17Z</time></trkpt>
<trkpt lat="25.312294" lon="101.033305">
<time>2015-09-27T22:00:18Z</time></trkpt>
<trkpt lat="25.312324" lon="101.033186">
<time>2015-09-27T22:00:19Z</time></trkpt>
<trkpt lat="25.312365" lon="101.032966">
<time>2015-09-27T22:00:20Z</time></trkpt>
<trkpt lat="25.312436" lon="101.032558">
<time>2015-09-27T22:00:21Z</time></trkpt>
<trkpt lat="25.312456" lon="101.032448">
<time>2015-09-27T22:00:22Z</time></trkpt>
<trkpt lat="25.312496" lon="101.032339">
<time>2015-09-27T22:00:23Z</time></trkpt>
<trkpt lat="25.312536" lon="101.032249">
<time>2015-09-27T22:00:24Z</time></trkpt>
<trkpt lat="25.312587" lon="101.032159">
<time>2015-09-27T22:00:25Z</time></trkpt>
<trkpt lat="25.312797" lon="101.03184">
<time>2015-09-27T22:00:26Z</time></trkpt>
<trkpt lat="25.312868" lon="101.031711">
<time>2015-09-27T22:00:27Z</time></trkpt>
<trkpt lat="25.312948" lon="101.031561">
<time>2015-09-27T22:00:28Z</time></trkpt>
<trkpt lat="25.313019" lon="101.031382">
<time>2015-09-27T22:00:29Z</time></trkpt>
<trkpt lat="25.31317" lon="101.031003">
<time>2015-09-27T22:00:30Z</time></trkpt>
<trkpt lat="25.313412" lon="101.030296">
<time>2015-09-27T22:00:31Z</time></trkpt>
<trkpt lat="25.313633" lon="101.029688">
<time>2015-09-27T22:00:32Z</time></trkpt>
<trkpt lat="25.313724" lon="101.029498">
<time>2015-09-27T22:00:33Z</time></trkpt>
<trkpt lat="25.313804" lon="101.029349">
<time>2015-09-27T22:00:34Z</time></trkpt>
<trkpt lat="25.313884" lon="101.029219">
<time>2015-09-27T22:00:35Z</time></trkpt>
<trkpt lat="25.313935" lon="101.02913">
<time>2015-09-27T22:00:36Z</time></trkpt>
<trkpt lat="25.314075" lon="101.02896">
<time>2015-09-27T22:00:37Z</time></trkpt>
<trkpt lat="25.314938" lon="101.027944">
<time>2015-09-27T22:00:38Z</time></trkpt>
<trkpt lat="25.315219" lon="101.027615">
<time>2015-09-27T22:00:39Z</time></trkpt>
<trkpt lat="25.316092" lon="101.026638">
<time>2015-09-27T22:00:40Z</time></trkpt>
<trkpt lat="25.316192" lon="101.026509">
<time>2015-09-27T22:00:41Z</time></trkpt>
<trkpt lat="25.316252" lon="101.026409">
<time>2015-09-27T22:00:42Z</time></trkpt>
<trkpt lat="25.316282" lon="101.026359">
<time>2015-09-27T22:00:43Z</time></trkpt>
<trkpt lat="25.316303" lon="101.02631">
<time>2015-09-27T22:00:44Z</time></trkpt>
<trkpt lat="25.316313" lon="101.02626">
<time>2015-09-27T22:00:45Z</time></trkpt>
<trkpt lat="25.316323" lon="101.02622">
<time>2015-09-27T22:00:46Z</time></trkpt>
<trkpt lat="25.316343" lon="101.02615">
<time>2015-09-27T22:00:47Z</time></trkpt>
<trkpt lat="25.316343" lon="101.02605">
<time>2015-09-27T22:00:48Z</time></trkpt>
<trkpt lat="25.316333" lon="101.025961">
<time>2015-09-27T22:00:49Z</time></trkpt>
<trkpt lat="25.316314" lon="101.025861">
<time>2015-09-27T22:00:50Z</time></trkpt>
<trkpt lat="25.316284" lon="101.025791">
<time>2015-09-27T22:00:51Z</time></trkpt>
<trkpt lat="25.316274" lon="101.025761">
<time>2015-09-27T22:00:52Z</time></trkpt>
<trkpt lat="25.316155" lon="101.025473">
<time>2015-09-27T22:00:53Z</time></trkpt>
<trkpt lat="25.316085" lon="101.025273">
<time>2015-09-27T22:00:54Z</time></trkpt>
<trkpt lat="25.316026" lon="101.025114">
<time>2015-09-27T22:00:55Z</time></trkpt>
<trkpt lat="25.316016" lon="101.025064">
<time>2015-09-27T22:00:56Z</time></trkpt>
<trkpt lat="25.316006" lon="101.025014">
<time>2015-09-27T22:00:57Z</time></trkpt>
<trkpt lat="25.316006" lon="101.024954">
<time>2015-09-27T22:00:58Z</time></trkpt>
<trkpt lat="25.316016" lon="101.024895">
<time>2015-09-27T22:00:59Z</time></trkpt>
<trkpt lat="25.316027" lon="101.024845">
<time>2015-09-27T22:01:00Z</time></trkpt>
<trkpt lat="25.316047" lon="101.024765">
<time>2015-09-27T22:01:01Z</time></trkpt>
<trkpt lat="25.316097" lon="101.024626">
<time>2015-09-27T22:01:02Z</time></trkpt>
<trkpt lat="25.316127" lon="101.024546">
<time>2015-09-27T22:01:03Z</time></trkpt>
<trkpt lat="25.316138" lon="101.024476">
<time>2015-09-27T22:01:04Z</time></trkpt>
<trkpt lat="25.316138" lon="101.024436">
<time>2015-09-27T22:01:05Z</time></trkpt>
<trkpt lat="25.316138" lon="101.024376">
<time>2015-09-27T22:01:06Z</time></trkpt>
<trkpt lat="25.316118" lon="101.024317">
<time>2015-09-27T22:01:07Z</time></trkpt>
<trkpt lat="25.316019" lon="101.024028">
<time>2015-09-27T22:01:08Z</time></trkpt>
<trkpt lat="25.315999" lon="101.023958">
<time>2015-09-27T22:01:09Z</time></trkpt>
<trkpt lat="25.315989" lon="101.023888">
<time>2015-09-27T22:01:10Z</time></trkpt>
<trkpt lat="25.315979" lon="101.023819">
<time>2015-09-27T22:01:11Z</time></trkpt>
<trkpt lat="25.31599" lon="101.023749">
<time>2015-09-27T22:01:12Z</time></trkpt>
<trkpt lat="25.31604" lon="101.02349">
<time>2015-09-27T22:01:13Z</time></trkpt>
<trkpt lat="25.316051" lon="101.02331">
<time>2015-09-27T22:01:14Z</time></trkpt>
<trkpt lat="25.316061" lon="101.023171">
<time>2015-09-27T22:01:15Z</time></trkpt>
<trkpt lat="25.316052" lon="101.023041">
<time>2015-09-27T22:01:16Z</time></trkpt>
<trkpt lat="25.316032" lon="101.022802">
<time>2015-09-27T22:01:17Z</time></trkpt>
<trkpt lat="25.316022" lon="101.022693">
<time>2015-09-27T22:01:18Z</time></trkpt>
<trkpt lat="25.315993" lon="101.022573">
<time>2015-09-27T22:01:19Z</time></trkpt>
<trkpt lat="25.315973" lon="101.022493">
<time>2015-09-27T22:01:20Z</time></trkpt>
<trkpt lat="25.315943" lon="101.022424">
<time>2015-09-27T22:01:21Z</time></trkpt>
<trkpt lat="25.315913" lon="101.022364">
<time>2015-09-27T22:01:22Z</time></trkpt>
<trkpt lat="25.315854" lon="101.022304">
<time>2015-09-27T22:01:23Z</time></trkpt>
<trkpt lat="25.315794" lon="101.022244">
<time>2015-09-27T22:01:24Z</time></trkpt>
<trkpt lat="25.315584" lon="101.022065">
<time>2015-09-27T22:01:25Z</time></trkpt>
<trkpt lat="25.315175" lon="101.021736">
<time>2015-09-27T22:01:26Z</time></trkpt>
<trkpt lat="25.315095" lon="101.021666">
<time>2015-09-27T22:01:27Z</time></trkpt>
<trkpt lat="25.315016" lon="101.021587">
<time>2015-09-27T22:01:28Z</time></trkpt>
<trkpt lat="25.314986" lon="101.021547">
<time>2015-09-27T22:01:29Z</time></trkpt>
<trkpt lat="25.314956" lon="101.021497">
<time>2015-09-27T22:01:30Z</time></trkpt>
<trkpt lat="25.314896" lon="101.021387">
<time>2015-09-27T22:01:31Z</time></trkpt>
<trkpt lat="25.314737" lon="101.020969">
<time>2015-09-27T22:01:32Z</time></trkpt>
<trkpt lat="25.314578" lon="101.02061">
<time>2015-09-27T22:01:33Z</time></trkpt>
<trkpt lat="25.314459" lon="101.020381">
<time>2015-09-27T22:01:34Z</time></trkpt>
<trkpt lat="25.314429" lon="101.020321">
<time>2015-09-27T22:01:35Z</time></trkpt>
<trkpt lat="25.314399" lon="101.020262">
<time>2015-09-27T22:01:36Z</time></trkpt>
<trkpt lat="25.314389" lon="101.020232">
<time>2015-09-27T22:01:37Z</time></trkpt>
<trkpt lat="25.314369" lon="101.020192">
<time>2015-09-27T22:01:38Z</time></trkpt>
<trkpt lat="25.31437" lon="101.020162">
<time>2015-09-27T22:01:39Z</time></trkpt>
<trkpt lat="25.31436" lon="101.020132">
<time>2015-09-27T22:01:40Z</time></trkpt>
<trkpt lat="25.31435" lon="101.020072">
<time>2015-09-27T22:01:41Z</time></trkpt>
<trkpt lat="25.31435" lon="101.020032">
<time>2015-09-27T22:01:42Z</time></trkpt>
<trkpt lat="25.31435" lon="101.020003">
<time>2015-09-27T22:01:43Z</time></trkpt>
<trkpt lat="25.31436" lon="101.019983">
<time>2015-09-27T22:01:44Z</time></trkpt>
<trkpt lat="25.31436" lon="101.019963">
<time>2015-09-27T22:01:45Z</time></trkpt>
<trkpt lat="25.31437" lon="101.019943">
<time>2015-09-27T22:01:46Z</time></trkpt>
<trkpt lat="25.31438" lon="101.019923">
<time>2015-09-27T22:01:47Z</time></trkpt>
<trkpt lat="25.31439" lon="101.019903">
<time>2015-09-27T22:01:48Z</time></trkpt>
<trkpt lat="25.31441" lon="101.019873">
<time>2015-09-27T22:01:49Z</time></trkpt>
<trkpt lat="25.31444" lon="101.019833">
<time>2015-09-27T22:01:50Z</time></trkpt>
<trkpt lat="25.314471" lon="101.019813">
<time>2015-09-27T22:01:51Z</time></trkpt>
<trkpt lat="25.314501" lon="101.019783">
<time>2015-09-27T22:01:52Z</time></trkpt>
<trkpt lat="25.314541" lon="101.019763">
<time>2015-09-27T22:01:53Z</time></trkpt>
<trkpt lat="25.314601" lon="101.019734">
<time>2015-09-27T22:01:54Z</time></trkpt>
<trkpt lat="25.314641" lon="101.019714">
<time>2015-09-27T22:01:55Z</time></trkpt>
<trkpt lat="25.314691" lon="101.019704">
<time>2015-09-27T22:01:56Z</time></trkpt>
<trkpt lat="25.314741" lon="101.019694">
<time>2015-09-27T22:01:57Z</time></trkpt>
<trkpt lat="25.314791" lon="101.019684">
<time>2015-09-27T22:01:58Z</time></trkpt>
<trkpt lat="25.314841" lon="101.019684">
<time>2015-09-27T22:01:59Z</time></trkpt>
<trkpt lat="25.314891" lon="101.019684">
<time>2015-09-27T22:02:00Z</time></trkpt>
<trkpt lat="25.315021" lon="101.019684">
<time>2015-09-27T22:02:01Z</time></trkpt>
<trkpt lat="25.315131" lon="101.019684">
<time>2015-09-27T22:02:02Z</time></trkpt>
<trkpt lat="25.315221" lon="101.019674">
<time>2015-09-27T22:02:03Z</time></trkpt>
<trkpt lat="25.315331" lon="101.019654">
<time>2015-09-27T22:02:04Z</time></trkpt>
<trkpt lat="25.315461" lon="101.019624">
<time>2015-09-27T22:02:05Z</time></trkpt>
<trkpt lat="25.315631" lon="101.019574">
<time>2015-09-27T22:02:06Z</time></trkpt>
<trkpt lat="25.315831" lon="101.019544">
<time>2015-09-27T22:02:07Z</time></trkpt>
<trkpt lat="25.315971" lon="101.019514">
<time>2015-09-27T22:02:08Z</time></trkpt>
<trkpt lat="25.316082" lon="101.019484">
<time>2015-09-27T22:02:09Z</time></trkpt>
<trkpt lat="25.316202" lon="101.019445">
<time>2015-09-27T22:02:10Z</time></trkpt>
<trkpt lat="25.316302" lon="101.019405">
<time>2015-09-27T22:02:11Z</time></trkpt>
<trkpt lat="25.316422" lon="101.019345">
<time>2015-09-27T22:02:12Z</time></trkpt>
<trkpt lat="25.316823" lon="101.019136">
<time>2015-09-27T22:02:13Z</time></trkpt>
<trkpt lat="25.316913" lon="101.019086">
<time>2015-09-27T22:02:14Z</time></trkpt>
<trkpt lat="25.316983" lon="101.019036">
<time>2015-09-27T22:02:15Z</time></trkpt>
<trkpt lat="25.317033" lon="101.018996">
<time>2015-09-27T22:02:16Z</time></trkpt>
<trkpt lat="25.317103" lon="101.018927">
<time>2015-09-27T22:02:17Z</time></trkpt>
<trkpt lat="25.317163" lon="101.018867">
<time>2015-09-27T22:02:18Z</time></trkpt>
<trkpt lat="25.317204" lon="101.018817">
<time>2015-09-27T22:02:19Z</time></trkpt>
<trkpt lat="25.317244" lon="101.018757">
<time>2015-09-27T22:02:20Z</time></trkpt>
<trkpt lat="25.317274" lon="101.018697">
<time>2015-09-27T22:02:21Z</time></trkpt>
<trkpt lat="25.317294" lon="101.018658">
<time>2015-09-27T22:02:22Z</time></trkpt>
<trkpt lat="25.317314" lon="101.018618">
<time>2015-09-27T22:02:23Z</time></trkpt>
<trkpt lat="25.317324" lon="101.018568">
<time>2015-09-27T22:02:24Z</time></trkpt>
<trkpt lat="25.317345" lon="101.018498">
<time>2015-09-27T22:02:25Z</time></trkpt>
<trkpt lat="25.317355" lon="101.018448">
<time>2015-09-27T22:02:26Z</time></trkpt>
<trkpt lat="25.317365" lon="101.018369">
<time>2015-09-27T22:02:27Z</time></trkpt>
<trkpt lat="25.317365" lon="101.018299">
<time>2015-09-27T22:02:28Z</time></trkpt>
<trkpt lat="25.317355" lon="101.018229">
<time>2015-09-27T22:02:29Z</time></trkpt>
<trkpt lat="25.317346" lon="101.018159">
<time>2015-09-27T22:02:30Z</time></trkpt>
<trkpt lat="25.317306" lon="101.01788">
<time>2015-09-27T22:02:31Z</time></trkpt>
<trkpt lat="25.317267" lon="101.017671">
<time>2015-09-27T22:02:32Z</time></trkpt>
<trkpt lat="25.317247" lon="101.017582">
<time>2015-09-27T22:02:33Z</time></trkpt>
<trkpt lat="25.317227" lon="101.017512">
<time>2015-09-27T22:02:34Z</time></trkpt>
<trkpt lat="25.317208" lon="101.017452">
<time>2015-09-27T22:02:35Z</time></trkpt>
<trkpt lat="25.317188" lon="101.017412">
<time>2015-09-27T22:02:36Z</time></trkpt>
<trkpt lat="25.317168" lon="101.017382">
<time>2015-09-27T22:02:37Z</time></trkpt>
<trkpt lat="25.317138" lon="101.017342">
<time>2015-09-27T22:02:38Z</time></trkpt>
<trkpt lat="25.317108" lon="101.017303">
<time>2015-09-27T22:02:39Z</time></trkpt>
<trkpt lat="25.317078" lon="101.017273">
<time>2015-09-27T22:02:40Z</time></trkpt>
<trkpt lat="25.317018" lon="101.017213">
<time>2015-09-27T22:02:41Z</time></trkpt>
<trkpt lat="25.316869" lon="101.017073">
<time>2015-09-27T22:02:42Z</time></trkpt>
<trkpt lat="25.316829" lon="101.017034">
<time>2015-09-27T22:02:43Z</time></trkpt>
<trkpt lat="25.316799" lon="101.017004">
<time>2015-09-27T22:02:44Z</time></trkpt>
<trkpt lat="25.316769" lon="101.016974">
<time>2015-09-27T22:02:45Z</time></trkpt>
<trkpt lat="25.316759" lon="101.016944">
<time>2015-09-27T22:02:46Z</time></trkpt>
<trkpt lat="25.316739" lon="101.016924">
<time>2015-09-27T22:02:47Z</time></trkpt>
<trkpt lat="25.316729" lon="101.016904">
<time>2015-09-27T22:02:48Z</time></trkpt>
<trkpt lat="25.316729" lon="101.016874">
<time>2015-09-27T22:02:49Z</time></trkpt>
<trkpt lat="25.316729" lon="101.016864">
<time>2015-09-27T22:02:50Z</time></trkpt>
<trkpt lat="25.316719" lon="101.016844">
<time>2015-09-27T22:02:51Z</time></trkpt>
<trkpt lat="25.316719" lon="101.016824">
<time>2015-09-27T22:02:52Z</time></trkpt>
<trkpt lat="25.316719" lon="101.016795">
<time>2015-09-27T22:02:53Z</time></trkpt>
<trkpt lat="25.316719" lon="101.016775">
<time>2015-09-27T22:02:54Z</time></trkpt>
<trkpt lat="25.31672" lon="101.016745">
<time>2015-09-27T22:02:55Z</time></trkpt>
<trkpt lat="25.31673" lon="101.016725">
<time>2015-09-27T22:02:56Z</time></trkpt>
<trkpt lat="25.31674" lon="101.016695">
<time>2015-09-27T22:02:57Z</time></trkpt>
<trkpt lat="25.31675" lon="101.016675">
<time>2015-09-27T22:02:58Z</time></trkpt>
<trkpt lat="25.31677" lon="101.016645">
<time>2015-09-27T22:02:59Z</time></trkpt>
<trkpt lat="25.31679" lon="101.016615">
<time>2015-09-27T22:03:00Z</time></trkpt>
<trkpt lat="25.3168" lon="101.016605">
<time>2015-09-27T22:03:01Z</time></trkpt>
<trkpt lat="25.31695" lon="101.016516">
<time>2015-09-27T22:03:02Z</time></trkpt>
<trkpt lat="25.31709" lon="101.016436">
<time>2015-09-27T22:03:03Z</time></trkpt>
<trkpt lat="25.317171" lon="101.016386">
<time>2015-09-27T22:03:04Z</time></trkpt>
<trkpt lat="25.317251" lon="101.016316">
<time>2015-09-27T22:03:05Z</time></trkpt>
<trkpt lat="25.317321" lon="101.016247">
<time>2015-09-27T22:03:06Z</time></trkpt>
<trkpt lat="25.317381" lon="101.016167">
<time>2015-09-27T22:03:07Z</time></trkpt>
<trkpt lat="25.317442" lon="101.016067">
<time>2015-09-27T22:03:08Z</time></trkpt>
<trkpt lat="25.317502" lon="101.015978">
<time>2015-09-27T22:03:09Z</time></trkpt>
<trkpt lat="25.317542" lon="101.015908">
<time>2015-09-27T22:03:10Z</time></trkpt>
<trkpt lat="25.317582" lon="101.015828">
<time>2015-09-27T22:03:11Z</time></trkpt>
<trkpt lat="25.317613" lon="101.015739">
<time>2015-09-27T22:03:12Z</time></trkpt>
<trkpt lat="25.317643" lon="101.015669">
<time>2015-09-27T22:03:13Z</time></trkpt>
<trkpt lat="25.317693" lon="101.015499">
<time>2015-09-27T22:03:14Z</time></trkpt>
<trkpt lat="25.317724" lon="101.01535">
<time>2015-09-27T22:03:15Z</time></trkpt>
<trkpt lat="25.317764" lon="101.01522">
<time>2015-09-27T22:03:16Z</time></trkpt>
<trkpt lat="25.317815" lon="101.015061">
<time>2015-09-27T22:03:17Z</time></trkpt>
<trkpt lat="25.317915" lon="101.014762">
<time>2015-09-27T22:03:18Z</time></trkpt>
<trkpt lat="25.318077" lon="101.014304">
<time>2015-09-27T22:03:19Z</time></trkpt>
<trkpt lat="25.318147" lon="101.014135">
<time>2015-09-27T22:03:20Z</time></trkpt>
<trkpt lat="25.318208" lon="101.014025">
<time>2015-09-27T22:03:21Z</time></trkpt>
<trkpt lat="25.318248" lon="101.013935">
<time>2015-09-27T22:03:22Z</time></trkpt>
<trkpt lat="25.318308" lon="101.013866">
<time>2015-09-27T22:03:23Z</time></trkpt>
<trkpt lat="25.318368" lon="101.013796">
<time>2015-09-27T22:03:24Z</time></trkpt>
<trkpt lat="25.318529" lon="101.013637">
<time>2015-09-27T22:03:25Z</time></trkpt>
<trkpt lat="25.31883" lon="101.013328">
<time>2015-09-27T22:03:26Z</time></trkpt>
<trkpt lat="25.319141" lon="101.012969">
<time>2015-09-27T22:03:27Z</time></trkpt>
<trkpt lat="25.319573" lon="101.012391">
<time>2015-09-27T22:03:28Z</time></trkpt>
<trkpt lat="25.319774" lon="101.012043">
<time>2015-09-27T22:03:29Z</time></trkpt>
<trkpt lat="25.319945" lon="101.011714">
<time>2015-09-27T22:03:30Z</time></trkpt>
<trkpt lat="25.320257" lon="101.011066">
<time>2015-09-27T22:03:31Z</time></trkpt>
<trkpt lat="25.320367" lon="101.010837">
<time>2015-09-27T22:03:32Z</time></trkpt>
<trkpt lat="25.320398" lon="101.010767">
<time>2015-09-27T22:03:33Z</time></trkpt>
<trkpt lat="25.320428" lon="101.010688">
<time>2015-09-27T22:03:34Z</time></trkpt>
<trkpt lat="25.320458" lon="101.010598">
<time>2015-09-27T22:03:35Z</time></trkpt>
<trkpt lat="25.320468" lon="101.010578">
<time>2015-09-27T22:03:36Z</time></trkpt>
<trkpt lat="25.320488" lon="101.010499">
<time>2015-09-27T22:03:37Z</time></trkpt>
<trkpt lat="25.320509" lon="101.010439">
<time>2015-09-27T22:03:38Z</time></trkpt>
<trkpt lat="25.320519" lon="101.010359">
<time>2015-09-27T22:03:39Z</time></trkpt>
<trkpt lat="25.3206" lon="101.009861">
<time>2015-09-27T22:03:40Z</time></trkpt>
<trkpt lat="25.320763" lon="101.008825">
<time>2015-09-27T22:03:41Z</time></trkpt>
<trkpt lat="25.320875" lon="101.008138">
<time>2015-09-27T22:03:42Z</time></trkpt>
<trkpt lat="25.320906" lon="101.008018">
<time>2015-09-27T22:03:43Z</time></trkpt>
<trkpt lat="25.320946" lon="101.007889">
<time>2015-09-27T22:03:44Z</time></trkpt>
<trkpt lat="25.320987" lon="101.007749">
<time>2015-09-27T22:03:45Z</time></trkpt>
<trkpt lat="25.321027" lon="101.00765">
<time>2015-09-27T22:03:46Z</time></trkpt>
<trkpt lat="25.321097" lon="101.00747">
<time>2015-09-27T22:03:47Z</time></trkpt>
<trkpt lat="25.321289" lon="101.006962">
<time>2015-09-27T22:03:48Z</time></trkpt>
<trkpt lat="25.32145" lon="101.006504">
<time>2015-09-27T22:03:49Z</time></trkpt>
<trkpt lat="25.321551" lon="101.006255">
<time>2015-09-27T22:03:50Z</time></trkpt>
<trkpt lat="25.321642" lon="101.006006">
<time>2015-09-27T22:03:51Z</time></trkpt>
<trkpt lat="25.321944" lon="101.005448">
<time>2015-09-27T22:03:52Z</time></trkpt>
<trkpt lat="25.322336" lon="101.004761">
<time>2015-09-27T22:03:53Z</time></trkpt>
<trkpt lat="25.322376" lon="101.004681">
<time>2015-09-27T22:03:54Z</time></trkpt>
<trkpt lat="25.322416" lon="101.004591">
<time>2015-09-27T22:03:55Z</time></trkpt>
<trkpt lat="25.322447" lon="101.004502">
<time>2015-09-27T22:03:56Z</time></trkpt>
<trkpt lat="25.322467" lon="101.004432">
<time>2015-09-27T22:03:57Z</time></trkpt>
<trkpt lat="25.322477" lon="101.004362">
<time>2015-09-27T22:03:58Z</time></trkpt>
<trkpt lat="25.322477" lon="101.004313">
<time>2015-09-27T22:03:59Z</time></trkpt>
<trkpt lat="25.322477" lon="101.004213">
<time>2015-09-27T22:04:00Z</time></trkpt>
<trkpt lat="25.322458" lon="101.004024">
<time>2015-09-27T22:04:01Z</time></trkpt>
<trkpt lat="25.322429" lon="101.003755">
<time>2015-09-27T22:04:02Z</time></trkpt>
<trkpt lat="25.322331" lon="101.003028">
<time>2015-09-27T22:04:03Z</time></trkpt>
<trkpt lat="25.322234" lon="101.002141">
<time>2015-09-27T22:04:04Z</time></trkpt>
<trkpt lat="25.322205" lon="101.001773">
<time>2015-09-27T22:04:05Z</time></trkpt>
<trkpt lat="25.322195" lon="101.001663">
<time>2015-09-27T22:04:06Z</time></trkpt>
<trkpt lat="25.322196" lon="101.001543">
<time>2015-09-27T22:04:07Z</time></trkpt>
<trkpt lat="25.322206" lon="101.001444">
<time>2015-09-27T22:04:08Z</time></trkpt>
<trkpt lat="25.322216" lon="101.001334">
<time>2015-09-27T22:04:09Z</time></trkpt>
<trkpt lat="25.322247" lon="101.001165">
<time>2015-09-27T22:04:10Z</time></trkpt>
<trkpt lat="25.322287" lon="101.000966">
<time>2015-09-27T22:04:11Z</time></trkpt>
<trkpt lat="25.322308" lon="101.000846">
<time>2015-09-27T22:04:12Z</time></trkpt>
<trkpt lat="25.322318" lon="101.000727">
<time>2015-09-27T22:04:13Z</time></trkpt>
<trkpt lat="25.322318" lon="101.000637">
<time>2015-09-27T22:04:14Z</time></trkpt>
<trkpt lat="25.322299" lon="101.000557">
<time>2015-09-27T22:04:15Z</time></trkpt>
<trkpt lat="25.322289" lon="101.000507">
<time>2015-09-27T22:04:16Z</time></trkpt>
<trkpt lat="25.322269" lon="101.000458">
<time>2015-09-27T22:04:17Z</time></trkpt>
<trkpt lat="25.322229" lon="101.000398">
<time>2015-09-27T22:04:18Z</time></trkpt>
<trkpt lat="25.322189" lon="101.000338">
<time>2015-09-27T22:04:19Z</time></trkpt>
<trkpt lat="25.322149" lon="101.000298">
<time>2015-09-27T22:04:20Z</time></trkpt>
<trkpt lat="25.322099" lon="101.000258">
<time>2015-09-27T22:04:21Z</time></trkpt>
<trkpt lat="25.32205" lon="101.000219">
<time>2015-09-27T22:04:22Z</time></trkpt>
<trkpt lat="25.32195" lon="101.000159">
<time>2015-09-27T22:04:23Z</time></trkpt>
<trkpt lat="25.32172" lon="101.000009">
<time>2015-09-27T22:04:24Z</time></trkpt>
<trkpt lat="25.32158" lon="100.99992">
<time>2015-09-27T22:04:25Z</time></trkpt>
<trkpt lat="25.321491" lon="100.99986">
<time>2015-09-27T22:04:26Z</time></trkpt>
<trkpt lat="25.321411" lon="100.99979">
<time>2015-09-27T22:04:27Z</time></trkpt>
<trkpt lat="25.321331" lon="100.999711">
<time>2015-09-27T22:04:28Z</time></trkpt>
<trkpt lat="25.321271" lon="100.999651">
<time>2015-09-27T22:04:29Z</time></trkpt>
<trkpt lat="25.320743" lon="100.998993">
<time>2015-09-27T22:04:30Z</time></trkpt>
<trkpt lat="25.320484" lon="100.998665">
<time>2015-09-27T22:04:31Z</time></trkpt>
<trkpt lat="25.320355" lon="100.998515">
<time>2015-09-27T22:04:32Z</time></trkpt>
<trkpt lat="25.320275" lon="100.998436">
<time>2015-09-27T22:04:33Z</time></trkpt>
<trkpt lat="25.320195" lon="100.998376">
<time>2015-09-27T22:04:34Z</time></trkpt>
<trkpt lat="25.320135" lon="100.998326">
<time>2015-09-27T22:04:35Z</time></trkpt>
<trkpt lat="25.320085" lon="100.998286">
<time>2015-09-27T22:04:36Z</time></trkpt>
<trkpt lat="25.320045" lon="100.998266">
<time>2015-09-27T22:04:37Z</time></trkpt>
<trkpt lat="25.319995" lon="100.998246">
<time>2015-09-27T22:04:38Z</time></trkpt>
<trkpt lat="25.319925" lon="100.998217">
<time>2015-09-27T22:04:39Z</time></trkpt>
<trkpt lat="25.319856" lon="100.998197">
<time>2015-09-27T22:04:40Z</time></trkpt>
<trkpt lat="25.319496" lon="100.998097">
<time>2015-09-27T22:04:41Z</time></trkpt>
<trkpt lat="25.319376" lon="100.998057">
<time>2015-09-27T22:04:42Z</time></trkpt>
<trkpt lat="25.317787" lon="100.997619">
<time>2015-09-27T22:04:43Z</time></trkpt>
<trkpt lat="25.317667" lon="100.997599">
<time>2015-09-27T22:04:44Z</time></trkpt>
<trkpt lat="25.317527" lon="100.997579">
<time>2015-09-27T22:04:45Z</time></trkpt>
<trkpt lat="25.317417" lon="100.997569">
<time>2015-09-27T22:04:46Z</time></trkpt>
<trkpt lat="25.317287" lon="100.997559">
<time>2015-09-27T22:04:47Z</time></trkpt>
<trkpt lat="25.317167" lon="100.997559">
<time>2015-09-27T22:04:48Z</time></trkpt>
<trkpt lat="25.316997" lon="100.997569">
<time>2015-09-27T22:04:49Z</time></trkpt>
<trkpt lat="25.316577" lon="100.997619">
<time>2015-09-27T22:04:50Z</time></trkpt>
<trkpt lat="25.316377" lon="100.997649">
<time>2015-09-27T22:04:51Z</time></trkpt>
<trkpt lat="25.316197" lon="100.997689">
<time>2015-09-27T22:04:52Z</time></trkpt>
<trkpt lat="25.315756" lon="100.997798">
<time>2015-09-27T22:04:53Z</time></trkpt>
<trkpt lat="25.315626" lon="100.997818">
<time>2015-09-27T22:04:54Z</time></trkpt>
<trkpt lat="25.315486" lon="100.997838">
<time>2015-09-27T22:04:55Z</time></trkpt>
<trkpt lat="25.315336" lon="100.997838">
<time>2015-09-27T22:04:56Z</time></trkpt>
<trkpt lat="25.315086" lon="100.997838">
<time>2015-09-27T22:04:57Z</time></trkpt>
<trkpt lat="25.314906" lon="100.997838">
<time>2015-09-27T22:04:58Z</time></trkpt>
<trkpt lat="25.314766" lon="100.997838">
<time>2015-09-27T22:04:59Z</time></trkpt>
<trkpt lat="25.314626" lon="100.997868">
<time>2015-09-27T22:05:00Z</time></trkpt>
<trkpt lat="25.314416" lon="100.997918">
<time>2015-09-27T22:05:01Z</time></trkpt>
<trkpt lat="25.314035" lon="100.998047">
<time>2015-09-27T22:05:02Z</time></trkpt>
<trkpt lat="25.313725" lon="100.998137">
<time>2015-09-27T22:05:03Z</time></trkpt>
<trkpt lat="25.313655" lon="100.998147">
<time>2015-09-27T22:05:04Z</time></trkpt>
<trkpt lat="25.313575" lon="100.998147">
<time>2015-09-27T22:05:05Z</time></trkpt>
<trkpt lat="25.313495" lon="100.998137">
<time>2015-09-27T22:05:06Z</time></trkpt>
<trkpt lat="25.313425" lon="100.998127">
<time>2015-09-27T22:05:07Z</time></trkpt>
<trkpt lat="25.313365" lon="100.998107">
<time>2015-09-27T22:05:08Z</time></trkpt>
<trkpt lat="25.313295" lon="100.998077">
<time>2015-09-27T22:05:09Z</time></trkpt>
<trkpt lat="25.313285" lon="100.998077">
<time>2015-09-27T22:05:10Z</time></trkpt>
<trkpt lat="25.313215" lon="100.998037">
<time>2015-09-27T22:05:11Z</time></trkpt>
<trkpt lat="25.313106" lon="100.997988">
<time>2015-09-27T22:05:12Z</time></trkpt>
<trkpt lat="25.312926" lon="100.997898">
<time>2015-09-27T22:05:13Z</time></trkpt>
<trkpt lat="25.312676" lon="100.997769">
<time>2015-09-27T22:05:14Z</time></trkpt>
<trkpt lat="25.312327" lon="100.997589">
<time>2015-09-27T22:05:15Z</time></trkpt>
<trkpt lat="25.312147" lon="100.99748">
<time>2015-09-27T22:05:16Z</time></trkpt>
<trkpt lat="25.312107" lon="100.99745">
<time>2015-09-27T22:05:17Z</time></trkpt>
<trkpt lat="25.311987" lon="100.99735">
<time>2015-09-27T22:05:18Z</time></trkpt>
<trkpt lat="25.311838" lon="100.997221">
<time>2015-09-27T22:05:19Z</time></trkpt>
<trkpt lat="25.311678" lon="100.997061">
<time>2015-09-27T22:05:20Z</time></trkpt>
<trkpt lat="25.31101" lon="100.996334">
<time>2015-09-27T22:05:21Z</time></trkpt>
<trkpt lat="25.310901" lon="100.996215">
<time>2015-09-27T22:05:22Z</time></trkpt>
<trkpt lat="25.310861" lon="100.996175">
<time>2015-09-27T22:05:23Z</time></trkpt>
<trkpt lat="25.310821" lon="100.996145">
<time>2015-09-27T22:05:24Z</time></trkpt>
<trkpt lat="25.310781" lon="100.996115">
<time>2015-09-27T22:05:25Z</time></trkpt>
<trkpt lat="25.310731" lon="100.996085">
<time>2015-09-27T22:05:26Z</time></trkpt>
<trkpt lat="25.310691" lon="100.996065">
<time>2015-09-27T22:05:27Z</time></trkpt>
<trkpt lat="25.310651" lon="100.996055">
<time>2015-09-27T22:05:28Z</time></trkpt>
<trkpt lat="25.310601" lon="100.996035">
<time>2015-09-27T22:05:29Z</time></trkpt>
<trkpt lat="25.310551" lon="100.996025">
<time>2015-09-27T22:05:30Z</time></trkpt>
<trkpt lat="25.310501" lon="100.996025">
<time>2015-09-27T22:05:31Z</time></trkpt>
<trkpt lat="25.310441" lon="100.996025">
<time>2015-09-27T22:05:32Z</time></trkpt>
<trkpt lat="25.310381" lon="100.996025">
<time>2015-09-27T22:05:33Z</time></trkpt>
<trkpt lat="25.310331" lon="100.996035">
<time>2015-09-27T22:05:34Z</time></trkpt>
<trkpt lat="25.310271" lon="100.996045">
<time>2015-09-27T22:05:35Z</time></trkpt>
<trkpt lat="25.310171" lon="100.996065">
<time>2015-09-27T22:05:36Z</time></trkpt>
<trkpt lat="25.310041" lon="100.996105">
<time>2015-09-27T22:05:37Z</time></trkpt>
<trkpt lat="25.309881" lon="100.996165">
<time>2015-09-27T22:05:38Z</time></trkpt>
<trkpt lat="25.30951" lon="100.996294">
<time>2015-09-27T22:05:39Z</time></trkpt>
<trkpt lat="25.30919" lon="100.996404">
<time>2015-09-27T22:05:40Z</time></trkpt>
<trkpt lat="25.309" lon="100.996464">
<time>2015-09-27T22:05:41Z</time></trkpt>
<trkpt lat="25.30892" lon="100.996484">
<time>2015-09-27T22:05:42Z</time></trkpt>
<trkpt lat="25.30884" lon="100.996484">
<time>2015-09-27T22:05:43Z</time></trkpt>
<trkpt lat="25.30874" lon="100.996494">
<time>2015-09-27T22:05:44Z</time></trkpt>
<trkpt lat="25.30867" lon="100.996484">
<time>2015-09-27T22:05:45Z</time></trkpt>
<trkpt lat="25.30855" lon="100.996474">
<time>2015-09-27T22:05:46Z</time></trkpt>
<trkpt lat="25.30844" lon="100.996454">
<time>2015-09-27T22:05:47Z</time></trkpt>
<trkpt lat="25.30833" lon="100.996424">
<time>2015-09-27T22:05:48Z</time></trkpt>
<trkpt lat="25.30823" lon="100.996394">
<time>2015-09-27T22:05:49Z</time></trkpt>
<trkpt lat="25.30815" lon="100.996364">
<time>2015-09-27T22:05:50Z</time></trkpt>
<trkpt lat="25.30806" lon="100.996324">
<time>2015-09-27T22:05:51Z</time></trkpt>
<trkpt lat="25.30797" lon="100.996275">
<time>2015-09-27T22:05:52Z</time></trkpt>
<trkpt lat="25.30789" lon="100.996215">
<time>2015-09-27T22:05:53Z</time></trkpt>
<trkpt lat="25.307831" lon="100.996165">
<time>2015-09-27T22:05:54Z</time></trkpt>
<trkpt lat="25.307751" lon="100.996095">
<time>2015-09-27T22:05:55Z</time></trkpt>
<trkpt lat="25.307681" lon="100.996016">
<time>2015-09-27T22:05:56Z</time></trkpt>
<trkpt lat="25.307601" lon="100.995926">
<time>2015-09-27T22:05:57Z</time></trkpt>
<trkpt lat="25.307512" lon="100.995806">
<time>2015-09-27T22:05:58Z</time></trkpt>
<trkpt lat="25.307452" lon="100.995727">
<time>2015-09-27T22:05:59Z</time></trkpt>
<trkpt lat="25.307392" lon="100.995647">
<time>2015-09-27T22:06:00Z</time></trkpt>
<trkpt lat="25.307352" lon="100.995577">
<time>2015-09-27T22:06:01Z</time></trkpt>
<trkpt lat="25.307333" lon="100.995508">
<time>2015-09-27T22:06:02Z</time></trkpt>
<trkpt lat="25.307313" lon="100.995418">
<time>2015-09-27T22:06:03Z</time></trkpt>
<trkpt lat="25.307303" lon="100.995338">
<time>2015-09-27T22:06:04Z</time></trkpt>
<trkpt lat="25.307303" lon="100.995239">
<time>2015-09-27T22:06:05Z</time></trkpt>
<trkpt lat="25.307304" lon="100.995149">
<time>2015-09-27T22:06:06Z</time></trkpt>
<trkpt lat="25.307315" lon="100.99479">
<time>2015-09-27T22:06:07Z</time></trkpt>
<trkpt lat="25.307305" lon="100.994551">
<time>2015-09-27T22:06:08Z</time></trkpt>
<trkpt lat="25.307286" lon="100.994352">
<time>2015-09-27T22:06:09Z</time></trkpt>
<trkpt lat="25.307256" lon="100.994223">
<time>2015-09-27T22:06:10Z</time></trkpt>
<trkpt lat="25.307227" lon="100.994103">
<time>2015-09-27T22:06:11Z</time></trkpt>
<trkpt lat="25.307197" lon="100.994033">
<time>2015-09-27T22:06:12Z</time></trkpt>
<trkpt lat="25.307177" lon="100.993984">
<time>2015-09-27T22:06:13Z</time></trkpt>
<trkpt lat="25.307147" lon="100.993924">
<time>2015-09-27T22:06:14Z</time></trkpt>
<trkpt lat="25.307118" lon="100.993874">
<time>2015-09-27T22:06:15Z</time></trkpt>
<trkpt lat="25.307068" lon="100.993814">
<time>2015-09-27T22:06:16Z</time></trkpt>
<trkpt lat="25.307018" lon="100.993754">
<time>2015-09-27T22:06:17Z</time></trkpt>
<trkpt lat="25.306948" lon="100.993685">
<time>2015-09-27T22:06:18Z</time></trkpt>
<trkpt lat="25.306679" lon="100.993476">
<time>2015-09-27T22:06:19Z</time></trkpt>
<trkpt lat="25.306609" lon="100.993416">
<time>2015-09-27T22:06:20Z</time></trkpt>
<trkpt lat="25.306579" lon="100.993376">
<time>2015-09-27T22:06:21Z</time></trkpt>
<trkpt lat="25.306549" lon="100.993336">
<time>2015-09-27T22:06:22Z</time></trkpt>
<trkpt lat="25.306529" lon="100.993286">
<time>2015-09-27T22:06:23Z</time></trkpt>
<trkpt lat="25.306509" lon="100.993236">
<time>2015-09-27T22:06:24Z</time></trkpt>
<trkpt lat="25.3065" lon="100.993167">
<time>2015-09-27T22:06:25Z</time></trkpt>
<trkpt lat="25.30649" lon="100.993077">
<time>2015-09-27T22:06:26Z</time></trkpt>
<trkpt lat="25.30648" lon="100.992958">
<time>2015-09-27T22:06:27Z</time></trkpt>
<trkpt lat="25.306461" lon="100.992858">
<time>2015-09-27T22:06:28Z</time></trkpt>
<trkpt lat="25.306431" lon="100.992778">
<time>2015-09-27T22:06:29Z</time></trkpt>
<trkpt lat="25.306391" lon="100.992689">
<time>2015-09-27T22:06:30Z</time></trkpt>
<trkpt lat="25.306242" lon="100.99245">
<time>2015-09-27T22:06:31Z</time></trkpt>
<trkpt lat="25.306053" lon="100.992161">
<time>2015-09-27T22:06:32Z</time></trkpt>
<trkpt lat="25.305774" lon="100.991742">
<time>2015-09-27T22:06:33Z</time></trkpt>
<trkpt lat="25.305465" lon="100.991224">
<time>2015-09-27T22:06:34Z</time></trkpt>
<trkpt lat="25.305247" lon="100.990856">
<time>2015-09-27T22:06:35Z</time></trkpt>
<trkpt lat="25.305077" lon="100.990567">
<time>2015-09-27T22:06:36Z</time></trkpt>
<trkpt lat="25.304848" lon="100.990228">
<time>2015-09-27T22:06:37Z</time></trkpt>
<trkpt lat="25.304789" lon="100.990119">
<time>2015-09-27T22:06:38Z</time></trkpt>
<trkpt lat="25.304759" lon="100.990009">
<time>2015-09-27T22:06:39Z</time></trkpt>
<trkpt lat="25.304729" lon="100.9899">
<time>2015-09-27T22:06:40Z</time></trkpt>
<trkpt lat="25.30471" lon="100.98983">
<time>2015-09-27T22:06:41Z</time></trkpt>
<trkpt lat="25.30469" lon="100.98977">
<time>2015-09-27T22:06:42Z</time></trkpt>
<trkpt lat="25.30467" lon="100.98973">
<time>2015-09-27T22:06:43Z</time></trkpt>
<trkpt lat="25.30465" lon="100.98969">
<time>2015-09-27T22:06:44Z</time></trkpt>
<trkpt lat="25.30462" lon="100.989651">
<time>2015-09-27T22:06:45Z</time></trkpt>
<trkpt lat="25.30458" lon="100.989611">
<time>2015-09-27T22:06:46Z</time></trkpt>
<trkpt lat="25.3045" lon="100.989541">
<time>2015-09-27T22:06:47Z</time></trkpt>
<trkpt lat="25.304391" lon="100.989461">
<time>2015-09-27T22:06:48Z</time></trkpt>
<trkpt lat="25.304271" lon="100.989352">
<time>2015-09-27T22:06:49Z</time></trkpt>
<trkpt lat="25.304211" lon="100.989282">
<time>2015-09-27T22:06:50Z</time></trkpt>
<trkpt lat="25.304161" lon="100.989202">
<time>2015-09-27T22:06:51Z</time></trkpt>
<trkpt lat="25.304102" lon="100.989093">
<time>2015-09-27T22:06:52Z</time></trkpt>
<trkpt lat="25.304052" lon="100.988993">
<time>2015-09-27T22:06:53Z</time></trkpt>
<trkpt lat="25.303982" lon="100.988903">
<time>2015-09-27T22:06:54Z</time></trkpt>
<trkpt lat="25.303933" lon="100.988834">
<time>2015-09-27T22:06:55Z</time></trkpt>
<trkpt lat="25.303863" lon="100.988764">
<time>2015-09-27T22:06:56Z</time></trkpt>
<trkpt lat="25.303763" lon="100.988694">
<time>2015-09-27T22:06:57Z</time></trkpt>
<trkpt lat="25.303643" lon="100.988625">
<time>2015-09-27T22:06:58Z</time></trkpt>
<trkpt lat="25.303194" lon="100.988386">
<time>2015-09-27T22:06:59Z</time></trkpt>
<trkpt lat="25.303044" lon="100.988306">
<time>2015-09-27T22:07:00Z</time></trkpt>
<trkpt lat="25.302944" lon="100.988226">
<time>2015-09-27T22:07:01Z</time></trkpt>
<trkpt lat="25.302884" lon="100.988166">
<time>2015-09-27T22:07:02Z</time></trkpt>
<trkpt lat="25.302835" lon="100.988117">
<time>2015-09-27T22:07:03Z</time></trkpt>
<trkpt lat="25.302785" lon="100.988047">
<time>2015-09-27T22:07:04Z</time></trkpt>
<trkpt lat="25.302745" lon="100.987977">
<time>2015-09-27T22:07:05Z</time></trkpt>
<trkpt lat="25.302715" lon="100.987907">
<time>2015-09-27T22:07:06Z</time></trkpt>
<trkpt lat="25.302695" lon="100.987828">
<time>2015-09-27T22:07:07Z</time></trkpt>
<trkpt lat="25.302656" lon="100.987668">
<time>2015-09-27T22:07:08Z</time></trkpt>
<trkpt lat="25.302636" lon="100.987529">
<time>2015-09-27T22:07:09Z</time></trkpt>
<trkpt lat="25.302616" lon="100.987469">
<time>2015-09-27T22:07:10Z</time></trkpt>
<trkpt lat="25.302597" lon="100.987399">
<time>2015-09-27T22:07:11Z</time></trkpt>
<trkpt lat="25.302557" lon="100.98732">
<time>2015-09-27T22:07:12Z</time></trkpt>
<trkpt lat="25.302497" lon="100.98724">
<time>2015-09-27T22:07:13Z</time></trkpt>
<trkpt lat="25.302437" lon="100.98715">
<time>2015-09-27T22:07:14Z</time></trkpt>
<trkpt lat="25.302358" lon="100.987071">
<time>2015-09-27T22:07:15Z</time></trkpt>
<trkpt lat="25.302238" lon="100.986951">
<time>2015-09-27T22:07:16Z</time></trkpt>
<trkpt lat="25.301939" lon="100.986692">
<time>2015-09-27T22:07:17Z</time></trkpt>
<trkpt lat="25.301889" lon="100.986642">
<time>2015-09-27T22:07:18Z</time></trkpt>
<trkpt lat="25.301849" lon="100.986593">
<time>2015-09-27T22:07:19Z</time></trkpt>
<trkpt lat="25.301839" lon="100.986583">
<time>2015-09-27T22:07:20Z</time></trkpt>
<trkpt lat="25.301829" lon="100.986563">
<time>2015-09-27T22:07:21Z</time></trkpt>
<trkpt lat="25.301829" lon="100.986553">
<time>2015-09-27T22:07:22Z</time></trkpt>
<trkpt lat="25.301819" lon="100.986543">
<time>2015-09-27T22:07:23Z</time></trkpt>
<trkpt lat="25.301799" lon="100.986503">
<time>2015-09-27T22:07:24Z</time></trkpt>
<trkpt lat="25.301789" lon="100.986473">
<time>2015-09-27T22:07:25Z</time></trkpt>
<trkpt lat="25.301789" lon="100.986453">
<time>2015-09-27T22:07:26Z</time></trkpt>
<trkpt lat="25.30178" lon="100.986423">
<time>2015-09-27T22:07:27Z</time></trkpt>
<trkpt lat="25.30178" lon="100.986383">
<time>2015-09-27T22:07:28Z</time></trkpt>
<trkpt lat="25.30177" lon="100.986314">
<time>2015-09-27T22:07:29Z</time></trkpt>
<trkpt lat="25.30178" lon="100.986254">
<time>2015-09-27T22:07:30Z</time></trkpt>
<trkpt lat="25.30179" lon="100.986194">
<time>2015-09-27T22:07:31Z</time></trkpt>
<trkpt lat="25.301811" lon="100.986075">
<time>2015-09-27T22:07:32Z</time></trkpt>
<trkpt lat="25.301892" lon="100.985586">
<time>2015-09-27T22:07:33Z</time></trkpt>
<trkpt lat="25.301943" lon="100.985288">
<time>2015-09-27T22:07:34Z</time></trkpt>
<trkpt lat="25.301984" lon="100.985009">
<time>2015-09-27T22:07:35Z</time></trkpt>
<trkpt lat="25.302004" lon="100.984839">
<time>2015-09-27T22:07:36Z</time></trkpt>
<trkpt lat="25.302066" lon="100.984351">
<time>2015-09-27T22:07:37Z</time></trkpt>
<trkpt lat="25.302097" lon="100.984082">
<time>2015-09-27T22:07:38Z</time></trkpt>
<trkpt lat="25.302117" lon="100.984002">
<time>2015-09-27T22:07:39Z</time></trkpt>
<trkpt lat="25.302127" lon="100.983923">
<time>2015-09-27T22:07:40Z</time></trkpt>
<trkpt lat="25.302137" lon="100.983863">
<time>2015-09-27T22:07:41Z</time></trkpt>
<trkpt lat="25.302147" lon="100.983803">
<time>2015-09-27T22:07:42Z</time></trkpt>
<trkpt lat="25.302157" lon="100.983773">
<time>2015-09-27T22:07:43Z</time></trkpt>
<trkpt lat="25.302178" lon="100.983704">
<time>2015-09-27T22:07:44Z</time></trkpt>
<trkpt lat="25.302218" lon="100.983604">
<time>2015-09-27T22:07:45Z</time></trkpt>
<trkpt lat="25.302258" lon="100.983494">
<time>2015-09-27T22:07:46Z</time></trkpt>
<trkpt lat="25.302309" lon="100.983395">
<time>2015-09-27T22:07:47Z</time></trkpt>
<trkpt lat="25.302359" lon="100.983295">
<time>2015-09-27T22:07:48Z</time></trkpt>
<trkpt lat="25.302419" lon="100.983116">
<time>2015-09-27T22:07:49Z</time></trkpt>
<trkpt lat="25.30248" lon="100.982927">
<time>2015-09-27T22:07:50Z</time></trkpt>
<trkpt lat="25.302601" lon="100.982419">
<time>2015-09-27T22:07:51Z</time></trkpt>
<trkpt lat="25.302682" lon="100.98211">
<time>2015-09-27T22:07:52Z</time></trkpt>
<trkpt lat="25.302743" lon="100.98193">
<time>2015-09-27T22:07:53Z</time></trkpt>
<trkpt lat="25.302783" lon="100.981811">
<time>2015-09-27T22:07:54Z</time></trkpt>
<trkpt lat="25.302804" lon="100.981721">
<time>2015-09-27T22:07:55Z</time></trkpt>
<trkpt lat="25.302814" lon="100.981632">
<time>2015-09-27T22:07:56Z</time></trkpt>
<trkpt lat="25.302814" lon="100.981532">
<time>2015-09-27T22:07:57Z</time></trkpt>
<trkpt lat="25.302804" lon="100.981442">
<time>2015-09-27T22:07:58Z</time></trkpt>
<trkpt lat="25.302785" lon="100.981363">
<time>2015-09-27T22:07:59Z</time></trkpt>
<trkpt lat="25.302725" lon="100.981143">
<time>2015-09-27T22:08:00Z</time></trkpt>
<trkpt lat="25.302656" lon="100.980954">
<time>2015-09-27T22:08:01Z</time></trkpt>
<trkpt lat="25.302477" lon="100.980456">
<time>2015-09-27T22:08:02Z</time></trkpt>
<trkpt lat="25.302448" lon="100.980346">
<time>2015-09-27T22:08:03Z</time></trkpt>
<trkpt lat="25.302388" lon="100.980177">
<time>2015-09-27T22:08:04Z</time></trkpt>
<trkpt lat="25.302358" lon="100.980097">
<time>2015-09-27T22:08:05Z</time></trkpt>
<trkpt lat="25.302348" lon="100.980048">
<time>2015-09-27T22:08:06Z</time></trkpt>
<trkpt lat="25.302329" lon="100.979988">
<time>2015-09-27T22:08:07Z</time></trkpt>
<trkpt lat="25.302309" lon="100.979928">
<time>2015-09-27T22:08:08Z</time></trkpt>
<trkpt lat="25.302309" lon="100.979898">
<time>2015-09-27T22:08:09Z</time></trkpt>
<trkpt lat="25.302299" lon="100.979858">
<time>2015-09-27T22:08:10Z</time></trkpt>
<trkpt lat="25.302289" lon="100.979808">
<time>2015-09-27T22:08:11Z</time></trkpt>
<trkpt lat="25.302289" lon="100.979769">
<time>2015-09-27T22:08:12Z</time></trkpt>
<trkpt lat="25.302279" lon="100.979719">
<time>2015-09-27T22:08:13Z</time></trkpt>
<trkpt lat="25.302279" lon="100.979679">
<time>2015-09-27T22:08:14Z</time></trkpt>
<trkpt lat="25.30227" lon="100.979629">
<time>2015-09-27T22:08:15Z</time></trkpt>
<trkpt lat="25.30228" lon="100.979569">
<time>2015-09-27T22:08:16Z</time></trkpt>
<trkpt lat="25.302291" lon="100.97928">
<time>2015-09-27T22:08:17Z</time></trkpt>
<trkpt lat="25.302301" lon="100.979151">
<time>2015-09-27T22:08:18Z</time></trkpt>
<trkpt lat="25.302313" lon="100.978543">
<time>2015-09-27T22:08:19Z</time></trkpt>
<trkpt lat="25.302324" lon="100.978045">
<time>2015-09-27T22:08:20Z</time></trkpt>
<trkpt lat="25.302334" lon="100.977955">
<time>2015-09-27T22:08:21Z</time></trkpt>
<trkpt lat="25.302345" lon="100.977856">
<time>2015-09-27T22:08:22Z</time></trkpt>
<trkpt lat="25.302345" lon="100.977796">
<time>2015-09-27T22:08:23Z</time></trkpt>
<trkpt lat="25.302355" lon="100.977766">
<time>2015-09-27T22:08:24Z</time></trkpt>
<trkpt lat="25.302365" lon="100.977716">
<time>2015-09-27T22:08:25Z</time></trkpt>
<trkpt lat="25.302365" lon="100.977696">
<time>2015-09-27T22:08:26Z</time></trkpt>
<trkpt lat="25.302375" lon="100.977666">
<time>2015-09-27T22:08:27Z</time></trkpt>
<trkpt lat="25.302395" lon="100.977617">
<time>2015-09-27T22:08:28Z</time></trkpt>
<trkpt lat="25.302415" lon="100.977577">
<time>2015-09-27T22:08:29Z</time></trkpt>
<trkpt lat="25.302426" lon="100.977547">
<time>2015-09-27T22:08:30Z</time></trkpt>
<trkpt lat="25.302446" lon="100.977517">
<time>2015-09-27T22:08:31Z</time></trkpt>
<trkpt lat="25.302476" lon="100.977487">
<time>2015-09-27T22:08:32Z</time></trkpt>
<trkpt lat="25.302496" lon="100.977457">
<time>2015-09-27T22:08:33Z</time></trkpt>
<trkpt lat="25.302526" lon="100.977427">
<time>2015-09-27T22:08:34Z</time></trkpt>
<trkpt lat="25.302586" lon="100.977388">
<time>2015-09-27T22:08:35Z</time></trkpt>
<trkpt lat="25.302776" lon="100.977278">
<time>2015-09-27T22:08:36Z</time></trkpt>
<trkpt lat="25.302816" lon="100.977248">
<time>2015-09-27T22:08:37Z</time></trkpt>
<trkpt lat="25.302847" lon="100.977218">
<time>2015-09-27T22:08:38Z</time></trkpt>
<trkpt lat="25.302877" lon="100.977188">
<time>2015-09-27T22:08:39Z</time></trkpt>
<trkpt lat="25.302897" lon="100.977158">
<time>2015-09-27T22:08:40Z</time></trkpt>
<trkpt lat="25.302917" lon="100.977118">
<time>2015-09-27T22:08:41Z</time></trkpt>
<trkpt lat="25.302927" lon="100.977079">
<time>2015-09-27T22:08:42Z</time></trkpt>
<trkpt lat="25.302947" lon="100.977039">
<time>2015-09-27T22:08:43Z</time></trkpt>
<trkpt lat="25.302957" lon="100.976989">
<time>2015-09-27T22:08:44Z</time></trkpt>
<trkpt lat="25.302968" lon="100.976879">
<time>2015-09-27T22:08:45Z</time></trkpt>
<trkpt lat="25.302988" lon="100.97674">
<time>2015-09-27T22:08:46Z</time></trkpt>
<trkpt lat="25.303008" lon="100.97668">
<time>2015-09-27T22:08:47Z</time></trkpt>
<trkpt lat="25.303028" lon="100.97663">
<time>2015-09-27T22:08:48Z</time></trkpt>
<trkpt lat="25.303048" lon="100.9766">
<time>2015-09-27T22:08:49Z</time></trkpt>
<trkpt lat="25.303068" lon="100.976561">
<time>2015-09-27T22:08:50Z</time></trkpt>
<trkpt lat="25.303109" lon="100.976531">
<time>2015-09-27T22:08:51Z</time></trkpt>
<trkpt lat="25.303229" lon="100.976451">
<time>2015-09-27T22:08:52Z</time></trkpt>
<trkpt lat="25.303359" lon="100.976381">
<time>2015-09-27T22:08:53Z</time></trkpt>
<trkpt lat="25.30386" lon="100.976142">
<time>2015-09-27T22:08:54Z</time></trkpt>
<trkpt lat="25.30394" lon="100.976092">
<time>2015-09-27T22:08:55Z</time></trkpt>
<trkpt lat="25.304" lon="100.976042">
<time>2015-09-27T22:08:56Z</time></trkpt>
<trkpt lat="25.30405" lon="100.975993">
<time>2015-09-27T22:08:57Z</time></trkpt>
<trkpt lat="25.30408" lon="100.975943">
<time>2015-09-27T22:08:58Z</time></trkpt>
<trkpt lat="25.30411" lon="100.975893">
<time>2015-09-27T22:08:59Z</time></trkpt>
<trkpt lat="25.304121" lon="100.975833">
<time>2015-09-27T22:09:00Z</time></trkpt>
<trkpt lat="25.304131" lon="100.975773">
<time>2015-09-27T22:09:01Z</time></trkpt>
<trkpt lat="25.304131" lon="100.975724">
<time>2015-09-27T22:09:02Z</time></trkpt>
<trkpt lat="25.304121" lon="100.975664">
<time>2015-09-27T22:09:03Z</time></trkpt>
<trkpt lat="25.304091" lon="100.975584">
<time>2015-09-27T22:09:04Z</time></trkpt>
<trkpt lat="25.304042" lon="100.975435">
<time>2015-09-27T22:09:05Z</time></trkpt>
<trkpt lat="25.303913" lon="100.975056">
<time>2015-09-27T22:09:06Z</time></trkpt>
<trkpt lat="25.303883" lon="100.974966">
<time>2015-09-27T22:09:07Z</time></trkpt>
<trkpt lat="25.303873" lon="100.974887">
<time>2015-09-27T22:09:08Z</time></trkpt>
<trkpt lat="25.303826" lon="100.97389">
<time>2015-09-27T22:09:09Z</time></trkpt>
<trkpt lat="25.303836" lon="100.973781">
<time>2015-09-27T22:09:10Z</time></trkpt>
<trkpt lat="25.303847" lon="100.973691">
<time>2015-09-27T22:09:11Z</time></trkpt>
<trkpt lat="25.303857" lon="100.973621">
<time>2015-09-27T22:09:12Z</time></trkpt>
<trkpt lat="25.303887" lon="100.973532">
<time>2015-09-27T22:09:13Z</time></trkpt>
<trkpt lat="25.303927" lon="100.973462">
<time>2015-09-27T22:09:14Z</time></trkpt>
<trkpt lat="25.303997" lon="100.973372">
<time>2015-09-27T22:09:15Z</time></trkpt>
<trkpt lat="25.304058" lon="100.973312">
<time>2015-09-27T22:09:16Z</time></trkpt>
<trkpt lat="25.304118" lon="100.973273">
<time>2015-09-27T22:09:17Z</time></trkpt>
<trkpt lat="25.304218" lon="100.973223">
<time>2015-09-27T22:09:18Z</time></trkpt>
<trkpt lat="25.304298" lon="100.973183">
<time>2015-09-27T22:09:19Z</time></trkpt>
<trkpt lat="25.304348" lon="100.973143">
<time>2015-09-27T22:09:20Z</time></trkpt>
<trkpt lat="25.304388" lon="100.973103">
<time>2015-09-27T22:09:21Z</time></trkpt>
<trkpt lat="25.304438" lon="100.973053">
<time>2015-09-27T22:09:22Z</time></trkpt>
<trkpt lat="25.304479" lon="100.972984">
<time>2015-09-27T22:09:23Z</time></trkpt>
<trkpt lat="25.304519" lon="100.972914">
<time>2015-09-27T22:09:24Z</time></trkpt>
<trkpt lat="25.304569" lon="100.972754">
<time>2015-09-27T22:09:25Z</time></trkpt>
<trkpt lat="25.304599" lon="100.972685">
<time>2015-09-27T22:09:26Z</time></trkpt>
<trkpt lat="25.30464" lon="100.972605">
<time>2015-09-27T22:09:27Z</time></trkpt>
<trkpt lat="25.30468" lon="100.972545">
<time>2015-09-27T22:09:28Z</time></trkpt>
<trkpt lat="25.30472" lon="100.972495">
<time>2015-09-27T22:09:29Z</time></trkpt>
<trkpt lat="25.30478" lon="100.972426">
<time>2015-09-27T22:09:30Z</time></trkpt>
<trkpt lat="25.30485" lon="100.972356">
<time>2015-09-27T22:09:31Z</time></trkpt>
<trkpt lat="25.304901" lon="100.972296">
<time>2015-09-27T22:09:32Z</time></trkpt>
<trkpt lat="25.304951" lon="100.972226">
<time>2015-09-27T22:09:33Z</time></trkpt>
<trkpt lat="25.304991" lon="100.972157">
<time>2015-09-27T22:09:34Z</time></trkpt>
<trkpt lat="25.305031" lon="100.972067">
<time>2015-09-27T22:09:35Z</time></trkpt>
<trkpt lat="25.305051" lon="100.971967">
<time>2015-09-27T22:09:36Z</time></trkpt>
<trkpt lat="25.305092" lon="100.971768">
<time>2015-09-27T22:09:37Z</time></trkpt>
<trkpt lat="25.305143" lon="100.971479">
<time>2015-09-27T22:09:38Z</time></trkpt>
<trkpt lat="25.305163" lon="100.971409">
<time>2015-09-27T22:09:39Z</time></trkpt>
<trkpt lat="25.305183" lon="100.97133">
<time>2015-09-27T22:09:40Z</time></trkpt>
<trkpt lat="25.305203" lon="100.97128">
<time>2015-09-27T22:09:41Z</time></trkpt>
<trkpt lat="25.305233" lon="100.97124">
<time>2015-09-27T22:09:42Z</time></trkpt>
<trkpt lat="25.305254" lon="100.97121">
<time>2015-09-27T22:09:43Z</time></trkpt>
<trkpt lat="25.305284" lon="100.97118">
<time>2015-09-27T22:09:44Z</time></trkpt>
<trkpt lat="25.305314" lon="100.97116">
<time>2015-09-27T22:09:45Z</time></trkpt>
<trkpt lat="25.305344" lon="100.97114">
<time>2015-09-27T22:09:46Z</time></trkpt>
<trkpt lat="25.305384" lon="100.97112">
<time>2015-09-27T22:09:47Z</time></trkpt>
<trkpt lat="25.305404" lon="100.97111">
<time>2015-09-27T22:09:48Z</time></trkpt>
<trkpt lat="25.305444" lon="100.97109">
<time>2015-09-27T22:09:49Z</time></trkpt>
<trkpt lat="25.305474" lon="100.97109">
<time>2015-09-27T22:09:50Z</time></trkpt>
<trkpt lat="25.305504" lon="100.97109">
<time>2015-09-27T22:09:51Z</time></trkpt>
<trkpt lat="25.305534" lon="100.97109">
<time>2015-09-27T22:09:52Z</time></trkpt>
<trkpt lat="25.305564" lon="100.97109">
<time>2015-09-27T22:09:53Z</time></trkpt>
<trkpt lat="25.305584" lon="100.9711">
<time>2015-09-27T22:09:54Z</time></trkpt>
<trkpt lat="25.305624" lon="100.97112">
<time>2015-09-27T22:09:55Z</time></trkpt>
<trkpt lat="25.305664" lon="100.97114">
<time>2015-09-27T22:09:56Z</time></trkpt>
<trkpt lat="25.305684" lon="100.97116">
<time>2015-09-27T22:09:57Z</time></trkpt>
<trkpt lat="25.305714" lon="100.97118">
<time>2015-09-27T22:09:58Z</time></trkpt>
<trkpt lat="25.305734" lon="100.97121">
<time>2015-09-27T22:09:59Z</time></trkpt>
<trkpt lat="25.305803" lon="100.9713">
<time>2015-09-27T22:10:00Z</time></trkpt>
<trkpt lat="25.305883" lon="100.971409">
<time>2015-09-27T22:10:01Z</time></trkpt>
<trkpt lat="25.305953" lon="100.971519">
<time>2015-09-27T22:10:02Z</time></trkpt>
<trkpt lat="25.306032" lon="100.971668">
<time>2015-09-27T22:10:03Z</time></trkpt>
<trkpt lat="25.306072" lon="100.971778">
<time>2015-09-27T22:10:04Z</time></trkpt>
<trkpt lat="25.306092" lon="100.971868">
<time>2015-09-27T22:10:05Z</time></trkpt>
<trkpt lat="25.306102" lon="100.971967">
<time>2015-09-27T22:10:06Z</time></trkpt>
<trkpt lat="25.306091" lon="100.972077">
<time>2015-09-27T22:10:07Z</time></trkpt>
<trkpt lat="25.306081" lon="100.972196">
<time>2015-09-27T22:10:08Z</time></trkpt>
<trkpt lat="25.306081" lon="100.972276">
<time>2015-09-27T22:10:09Z</time></trkpt>
<trkpt lat="25.306091" lon="100.972306">
<time>2015-09-27T22:10:10Z</time></trkpt>
<trkpt lat="25.306091" lon="100.972336">
<time>2015-09-27T22:10:11Z</time></trkpt>
<trkpt lat="25.3061" lon="100.972356">
<time>2015-09-27T22:10:12Z</time></trkpt>
<trkpt lat="25.3061" lon="100.972386">
<time>2015-09-27T22:10:13Z</time></trkpt>
<trkpt lat="25.30611" lon="100.972416">
<time>2015-09-27T22:10:14Z</time></trkpt>
<trkpt lat="25.30613" lon="100.972436">
<time>2015-09-27T22:10:15Z</time></trkpt>
<trkpt lat="25.30614" lon="100.972456">
<time>2015-09-27T22:10:16Z</time></trkpt>
<trkpt lat="25.30616" lon="100.972475">
<time>2015-09-27T22:10:17Z</time></trkpt>
<trkpt lat="25.30618" lon="100.972485">
<time>2015-09-27T22:10:18Z</time></trkpt>
<trkpt lat="25.3062" lon="100.972505">
<time>2015-09-27T22:10:19Z</time></trkpt>
<trkpt lat="25.30623" lon="100.972515">
<time>2015-09-27T22:10:20Z</time></trkpt>
<trkpt lat="25.30626" lon="100.972525">
<time>2015-09-27T22:10:21Z</time></trkpt>
<trkpt lat="25.30629" lon="100.972525">
<time>2015-09-27T22:10:22Z</time></trkpt>
<trkpt lat="25.30632" lon="100.972525">
<time>2015-09-27T22:10:23Z</time></trkpt>
<trkpt lat="25.30635" lon="100.972525">
<time>2015-09-27T22:10:24Z</time></trkpt>
<trkpt lat="25.30638" lon="100.972515">
<time>2015-09-27T22:10:25Z</time></trkpt>
<trkpt lat="25.3064" lon="100.972515">
<time>2015-09-27T22:10:26Z</time></trkpt>
<trkpt lat="25.30643" lon="100.972505">
<time>2015-09-27T22:10:27Z</time></trkpt>
<trkpt lat="25.30646" lon="100.972485">
<time>2015-09-27T22:10:28Z</time></trkpt>
<trkpt lat="25.30653" lon="100.972456">
<time>2015-09-27T22:10:29Z</time></trkpt>
<trkpt lat="25.30657" lon="100.972436">
<time>2015-09-27T22:10:30Z</time></trkpt>
<trkpt lat="25.30665" lon="100.972396">
<time>2015-09-27T22:10:31Z</time></trkpt>
<trkpt lat="25.306771" lon="100.972346">
<time>2015-09-27T22:10:32Z</time></trkpt>
<trkpt lat="25.306881" lon="100.972316">
<time>2015-09-27T22:10:33Z</time></trkpt>
<trkpt lat="25.307011" lon="100.972286">
<time>2015-09-27T22:10:34Z</time></trkpt>
<trkpt lat="25.307151" lon="100.972266">
<time>2015-09-27T22:10:35Z</time></trkpt>
<trkpt lat="25.307291" lon="100.972246">
<time>2015-09-27T22:10:36Z</time></trkpt>
<trkpt lat="25.307431" lon="100.972236">
<time>2015-09-27T22:10:37Z</time></trkpt>
<trkpt lat="25.307551" lon="100.972246">
<time>2015-09-27T22:10:38Z</time></trkpt>
<trkpt lat="25.307611" lon="100.972246">
<time>2015-09-27T22:10:39Z</time></trkpt>
<trkpt lat="25.307651" lon="100.972256">
<time>2015-09-27T22:10:40Z</time></trkpt>
<trkpt lat="25.307691" lon="100.972266">
<time>2015-09-27T22:10:41Z</time></trkpt>
<trkpt lat="25.307721" lon="100.972266">
<time>2015-09-27T22:10:42Z</time></trkpt>
<trkpt lat="25.307761" lon="100.972286">
<time>2015-09-27T22:10:43Z</time></trkpt>
<trkpt lat="25.307791" lon="100.972306">
<time>2015-09-27T22:10:44Z</time></trkpt>
<trkpt lat="25.307821" lon="100.972316">
<time>2015-09-27T22:10:45Z</time></trkpt>
<trkpt lat="25.307841" lon="100.972336">
<time>2015-09-27T22:10:46Z</time></trkpt>
<trkpt lat="25.307881" lon="100.972366">
<time>2015-09-27T22:10:47Z</time></trkpt>
<trkpt lat="25.30799" lon="100.972455">
<time>2015-09-27T22:10:48Z</time></trkpt>
<trkpt lat="25.30804" lon="100.972505">
<time>2015-09-27T22:10:49Z</time></trkpt>
<trkpt lat="25.30808" lon="100.972535">
<time>2015-09-27T22:10:50Z</time></trkpt>
<trkpt lat="25.30812" lon="100.972555">
<time>2015-09-27T22:10:51Z</time></trkpt>
<trkpt lat="25.30814" lon="100.972565">
<time>2015-09-27T22:10:52Z</time></trkpt>
<trkpt lat="25.30816" lon="100.972575">
<time>2015-09-27T22:10:53Z</time></trkpt>
<trkpt lat="25.30819" lon="100.972575">
<time>2015-09-27T22:10:54Z</time></trkpt>
<trkpt lat="25.30822" lon="100.972575">
<time>2015-09-27T22:10:55Z</time></trkpt>
<trkpt lat="25.30825" lon="100.972575">
<time>2015-09-27T22:10:56Z</time></trkpt>
<trkpt lat="25.30828" lon="100.972565">
<time>2015-09-27T22:10:57Z</time></trkpt>
<trkpt lat="25.30831" lon="100.972555">
<time>2015-09-27T22:10:58Z</time></trkpt>
<trkpt lat="25.30834" lon="100.972535">
<time>2015-09-27T22:10:59Z</time></trkpt>
<trkpt lat="25.30836" lon="100.972515">
<time>2015-09-27T22:11:00Z</time></trkpt>
<trkpt lat="25.30839" lon="100.972495">
<time>2015-09-27T22:11:01Z</time></trkpt>
<trkpt lat="25.30841" lon="100.972465">
<time>2015-09-27T22:11:02Z</time></trkpt>
<trkpt lat="25.30843" lon="100.972416">
<time>2015-09-27T22:11:03Z</time></trkpt>
<trkpt lat="25.308451" lon="100.972376">
<time>2015-09-27T22:11:04Z</time></trkpt>
<trkpt lat="25.308471" lon="100.972326">
<time>2015-09-27T22:11:05Z</time></trkpt>
<trkpt lat="25.308491" lon="100.972236">
<time>2015-09-27T22:11:06Z</time></trkpt>
<trkpt lat="25.308491" lon="100.972147">
<time>2015-09-27T22:11:07Z</time></trkpt>
<trkpt lat="25.308491" lon="100.972057">
<time>2015-09-27T22:11:08Z</time></trkpt>
<trkpt lat="25.308482" lon="100.971947">
<time>2015-09-27T22:11:09Z</time></trkpt>
<trkpt lat="25.308462" lon="100.971808">
<time>2015-09-27T22:11:10Z</time></trkpt>
<trkpt lat="25.308452" lon="100.971688">
<time>2015-09-27T22:11:11Z</time></trkpt>
<trkpt lat="25.308443" lon="100.971539">
<time>2015-09-27T22:11:12Z</time></trkpt>
<trkpt lat="25.308463" lon="100.971349">
<time>2015-09-27T22:11:13Z</time></trkpt>
<trkpt lat="25.308474" lon="100.97125">
<time>2015-09-27T22:11:14Z</time></trkpt>
<trkpt lat="25.308494" lon="100.97113">
<time>2015-09-27T22:11:15Z</time></trkpt>
<trkpt lat="25.308514" lon="100.971031">
<time>2015-09-27T22:11:16Z</time></trkpt>
<trkpt lat="25.308525" lon="100.970931">
<time>2015-09-27T22:11:17Z</time></trkpt>
<trkpt lat="25.308525" lon="100.970841">
<time>2015-09-27T22:11:18Z</time></trkpt>
<trkpt lat="25.308515" lon="100.970762">
<time>2015-09-27T22:11:19Z</time></trkpt>
<trkpt lat="25.308505" lon="100.970692">
<time>2015-09-27T22:11:20Z</time></trkpt>
<trkpt lat="25.308485" lon="100.970622">
<time>2015-09-27T22:11:21Z</time></trkpt>
<trkpt lat="25.308456" lon="100.970552">
<time>2015-09-27T22:11:22Z</time></trkpt>
<trkpt lat="25.308416" lon="100.970463">
<time>2015-09-27T22:11:23Z</time></trkpt>
<trkpt lat="25.308306" lon="100.970243">
<time>2015-09-27T22:11:24Z</time></trkpt>
<trkpt lat="25.308247" lon="100.970084">
<time>2015-09-27T22:11:25Z</time></trkpt>
<trkpt lat="25.308227" lon="100.970014">
<time>2015-09-27T22:11:26Z</time></trkpt>
<trkpt lat="25.308217" lon="100.969964">
<time>2015-09-27T22:11:27Z</time></trkpt>
<trkpt lat="25.308217" lon="100.969925">
<time>2015-09-27T22:11:28Z</time></trkpt>
<trkpt lat="25.308217" lon="100.969885">
<time>2015-09-27T22:11:29Z</time></trkpt>
<trkpt lat="25.308217" lon="100.969845">
<time>2015-09-27T22:11:30Z</time></trkpt>
<trkpt lat="25.308228" lon="100.969795">
<time>2015-09-27T22:11:31Z</time></trkpt>
<trkpt lat="25.308248" lon="100.969735">
<time>2015-09-27T22:11:32Z</time></trkpt>
<trkpt lat="25.308288" lon="100.969606">
<time>2015-09-27T22:11:33Z</time></trkpt>
<trkpt lat="25.308319" lon="100.969466">
<time>2015-09-27T22:11:34Z</time></trkpt>
<trkpt lat="25.308349" lon="100.969347">
<time>2015-09-27T22:11:35Z</time></trkpt>
<trkpt lat="25.308359" lon="100.969267">
<time>2015-09-27T22:11:36Z</time></trkpt>
<trkpt lat="25.308359" lon="100.969187">
<time>2015-09-27T22:11:37Z</time></trkpt>
<trkpt lat="25.30835" lon="100.969088">
<time>2015-09-27T22:11:38Z</time></trkpt>
<trkpt lat="25.30832" lon="100.968958">
<time>2015-09-27T22:11:39Z</time></trkpt>
<trkpt lat="25.30826" lon="100.968789">
<time>2015-09-27T22:11:40Z</time></trkpt>
<trkpt lat="25.308211" lon="100.968599">
<time>2015-09-27T22:11:41Z</time></trkpt>
<trkpt lat="25.308191" lon="100.9685">
<time>2015-09-27T22:11:42Z</time></trkpt>
<trkpt lat="25.308181" lon="100.96844">
<time>2015-09-27T22:11:43Z</time></trkpt>
<trkpt lat="25.308191" lon="100.96836">
<time>2015-09-27T22:11:44Z</time></trkpt>
<trkpt lat="25.308232" lon="100.96827">
<time>2015-09-27T22:11:45Z</time></trkpt>
<trkpt lat="25.308262" lon="100.968231">
<time>2015-09-27T22:11:46Z</time></trkpt>
<trkpt lat="25.308302" lon="100.968181">
<time>2015-09-27T22:11:47Z</time></trkpt>
<trkpt lat="25.308362" lon="100.968141">
<time>2015-09-27T22:11:48Z</time></trkpt>
<trkpt lat="25.308422" lon="100.968121">
<time>2015-09-27T22:11:49Z</time></trkpt>
<trkpt lat="25.308472" lon="100.968121">
<time>2015-09-27T22:11:50Z</time></trkpt>
<trkpt lat="25.308522" lon="100.968131">
<time>2015-09-27T22:11:51Z</time></trkpt>
<trkpt lat="25.308592" lon="100.968141">
<time>2015-09-27T22:11:52Z</time></trkpt>
<trkpt lat="25.308662" lon="100.968171">
<time>2015-09-27T22:11:53Z</time></trkpt>
<trkpt lat="25.308752" lon="100.968231">
<time>2015-09-27T22:11:54Z</time></trkpt>
<trkpt lat="25.308912" lon="100.96836">
<time>2015-09-27T22:11:55Z</time></trkpt>
<trkpt lat="25.309291" lon="100.968659">
<time>2015-09-27T22:11:56Z</time></trkpt>
<trkpt lat="25.309401" lon="100.968749">
<time>2015-09-27T22:11:57Z</time></trkpt>
<trkpt lat="25.30946" lon="100.968779">
<time>2015-09-27T22:11:58Z</time></trkpt>
<trkpt lat="25.30953" lon="100.968789">
<time>2015-09-27T22:11:59Z</time></trkpt>
<trkpt lat="25.30958" lon="100.968779">
<time>2015-09-27T22:12:00Z</time></trkpt>
<trkpt lat="25.30962" lon="100.968769">
<time>2015-09-27T22:12:01Z</time></trkpt>
<trkpt lat="25.309651" lon="100.968749">
<time>2015-09-27T22:12:02Z</time></trkpt>
<trkpt lat="25.309681" lon="100.968719">
<time>2015-09-27T22:12:03Z</time></trkpt>
<trkpt lat="25.309711" lon="100.968679">
<time>2015-09-27T22:12:04Z</time></trkpt>
<trkpt lat="25.309731" lon="100.968619">
<time>2015-09-27T22:12:05Z</time></trkpt>
<trkpt lat="25.309751" lon="100.968569">
<time>2015-09-27T22:12:06Z</time></trkpt>
<trkpt lat="25.309771" lon="100.96845">
<time>2015-09-27T22:12:07Z</time></trkpt>
<trkpt lat="25.309812" lon="100.96836">
<time>2015-09-27T22:12:08Z</time></trkpt>
<trkpt lat="25.309872" lon="100.968221">
<time>2015-09-27T22:12:09Z</time></trkpt>
<trkpt lat="25.309912" lon="100.968151">
<time>2015-09-27T22:12:10Z</time></trkpt>
<trkpt lat="25.309972" lon="100.968061">
<time>2015-09-27T22:12:11Z</time></trkpt>
<trkpt lat="25.310083" lon="100.967952">
<time>2015-09-27T22:12:12Z</time></trkpt>
<trkpt lat="25.310203" lon="100.967842">
<time>2015-09-27T22:12:13Z</time></trkpt>
<trkpt lat="25.310283" lon="100.967762">
<time>2015-09-27T22:12:14Z</time></trkpt>
<trkpt lat="25.310383" lon="100.967702">
<time>2015-09-27T22:12:15Z</time></trkpt>
<trkpt lat="25.310454" lon="100.967663">
<time>2015-09-27T22:12:16Z</time></trkpt>
<trkpt lat="25.310554" lon="100.967623">
<time>2015-09-27T22:12:17Z</time></trkpt>
<trkpt lat="25.310664" lon="100.967593">
<time>2015-09-27T22:12:18Z</time></trkpt>
<trkpt lat="25.310764" lon="100.967573">
<time>2015-09-27T22:12:19Z</time></trkpt>
<trkpt lat="25.310834" lon="100.967563">
<time>2015-09-27T22:12:20Z</time></trkpt>
<trkpt lat="25.310914" lon="100.967533">
<time>2015-09-27T22:12:21Z</time></trkpt>
<trkpt lat="25.310974" lon="100.967503">
<time>2015-09-27T22:12:22Z</time></trkpt>
<trkpt lat="25.311004" lon="100.967483">
<time>2015-09-27T22:12:23Z</time></trkpt>
<trkpt lat="25.311034" lon="100.967453">
<time>2015-09-27T22:12:24Z</time></trkpt>
<trkpt lat="25.311064" lon="100.967413">
<time>2015-09-27T22:12:25Z</time></trkpt>
<trkpt lat="25.311114" lon="100.967324">
<time>2015-09-27T22:12:26Z</time></trkpt>
<trkpt lat="25.311175" lon="100.967184">
<time>2015-09-27T22:12:27Z</time></trkpt>
<trkpt lat="25.311245" lon="100.967045">
<time>2015-09-27T22:12:28Z</time></trkpt>
<trkpt lat="25.311376" lon="100.966905">
<time>2015-09-27T22:12:29Z</time></trkpt>
<trkpt lat="25.311466" lon="100.966825">
<time>2015-09-27T22:12:30Z</time></trkpt>
<trkpt lat="25.311516" lon="100.966766">
<time>2015-09-27T22:12:31Z</time></trkpt>
<trkpt lat="25.311546" lon="100.966716">
<time>2015-09-27T22:12:32Z</time></trkpt>
<trkpt lat="25.311566" lon="100.966646">
<time>2015-09-27T22:12:33Z</time></trkpt>
<trkpt lat="25.311576" lon="100.966576">
<time>2015-09-27T22:12:34Z</time></trkpt>
<trkpt lat="25.311597" lon="100.966467">
<time>2015-09-27T22:12:35Z</time></trkpt>
<trkpt lat="25.311597" lon="100.966337">
<time>2015-09-27T22:12:36Z</time></trkpt>
<trkpt lat="25.311607" lon="100.966218">
<time>2015-09-27T22:12:37Z</time></trkpt>
<trkpt lat="25.311638" lon="100.966148">
<time>2015-09-27T22:12:38Z</time></trkpt>
<trkpt lat="25.311668" lon="100.966078">
<time>2015-09-27T22:12:39Z</time></trkpt>
<trkpt lat="25.311708" lon="100.966038">
<time>2015-09-27T22:12:40Z</time></trkpt>
<trkpt lat="25.311738" lon="100.966018">
<time>2015-09-27T22:12:41Z</time></trkpt>
<trkpt lat="25.311788" lon="100.965998">
<time>2015-09-27T22:12:42Z</time></trkpt>
<trkpt lat="25.311818" lon="100.965998">
<time>2015-09-27T22:12:43Z</time></trkpt>
<trkpt lat="25.311848" lon="100.965998">
<time>2015-09-27T22:12:44Z</time></trkpt>
<trkpt lat="25.311878" lon="100.965998">
<time>2015-09-27T22:12:45Z</time></trkpt>
<trkpt lat="25.311908" lon="100.966008">
<time>2015-09-27T22:12:46Z</time></trkpt>
<trkpt lat="25.311948" lon="100.966018">
<time>2015-09-27T22:12:47Z</time></trkpt>
<trkpt lat="25.311998" lon="100.966058">
<time>2015-09-27T22:12:48Z</time></trkpt>
<trkpt lat="25.312078" lon="100.966118">
<time>2015-09-27T22:12:49Z</time></trkpt>
<trkpt lat="25.312177" lon="100.966217">
<time>2015-09-27T22:12:50Z</time></trkpt>
<trkpt lat="25.312237" lon="100.966267">
<time>2015-09-27T22:12:51Z</time></trkpt>
<trkpt lat="25.312287" lon="100.966287">
<time>2015-09-27T22:12:52Z</time></trkpt>
<trkpt lat="25.312337" lon="100.966307">
<time>2015-09-27T22:12:53Z</time></trkpt>
<trkpt lat="25.312387" lon="100.966307">
<time>2015-09-27T22:12:54Z</time></trkpt>
<trkpt lat="25.312457" lon="100.966297">
<time>2015-09-27T22:12:55Z</time></trkpt>
<trkpt lat="25.312517" lon="100.966267">
<time>2015-09-27T22:12:56Z</time></trkpt>
<trkpt lat="25.312558" lon="100.966188">
<time>2015-09-27T22:12:57Z</time></trkpt>
<trkpt lat="25.312578" lon="100.966128">
<time>2015-09-27T22:12:58Z</time></trkpt>
<trkpt lat="25.312588" lon="100.966078">
<time>2015-09-27T22:12:59Z</time></trkpt>
<trkpt lat="25.312598" lon="100.965978">
<time>2015-09-27T22:13:00Z</time></trkpt>
<trkpt lat="25.312559" lon="100.965779">
<time>2015-09-27T22:13:01Z</time></trkpt>
<trkpt lat="25.312441" lon="100.965012">
<time>2015-09-27T22:13:02Z</time></trkpt>
<trkpt lat="25.312432" lon="100.964324">
<time>2015-09-27T22:13:03Z</time></trkpt>
<trkpt lat="25.312463" lon="100.964155">
<time>2015-09-27T22:13:04Z</time></trkpt>
<trkpt lat="25.312483" lon="100.964105">
<time>2015-09-27T22:13:05Z</time></trkpt>
<trkpt lat="25.312533" lon="100.964045">
<time>2015-09-27T22:13:06Z</time></trkpt>
<trkpt lat="25.312563" lon="100.964025">
<time>2015-09-27T22:13:07Z</time></trkpt>
<trkpt lat="25.312603" lon="100.963995">
<time>2015-09-27T22:13:08Z</time></trkpt>
<trkpt lat="25.312643" lon="100.963975">
<time>2015-09-27T22:13:09Z</time></trkpt>
<trkpt lat="25.312673" lon="100.963975">
<time>2015-09-27T22:13:10Z</time></trkpt>
<trkpt lat="25.312703" lon="100.963975">
<time>2015-09-27T22:13:11Z</time></trkpt>
<trkpt lat="25.312743" lon="100.963985">
<time>2015-09-27T22:13:12Z</time></trkpt>
<trkpt lat="25.312783" lon="100.964005">
<time>2015-09-27T22:13:13Z</time></trkpt>
<trkpt lat="25.312873" lon="100.964055">
<time>2015-09-27T22:13:14Z</time></trkpt>
<trkpt lat="25.312983" lon="100.964135">
<time>2015-09-27T22:13:15Z</time></trkpt>
<trkpt lat="25.313043" lon="100.964184">
<time>2015-09-27T22:13:16Z</time></trkpt>
<trkpt lat="25.313103" lon="100.964224">
<time>2015-09-27T22:13:17Z</time></trkpt>
<trkpt lat="25.313153" lon="100.964254">
<time>2015-09-27T22:13:18Z</time></trkpt>
<trkpt lat="25.313213" lon="100.964264">
<time>2015-09-27T22:13:19Z</time></trkpt>
<trkpt lat="25.313253" lon="100.964254">
<time>2015-09-27T22:13:20Z</time></trkpt>
<trkpt lat="25.313293" lon="100.964244">
<time>2015-09-27T22:13:21Z</time></trkpt>
<trkpt lat="25.313323" lon="100.964234">
<time>2015-09-27T22:13:22Z</time></trkpt>
<trkpt lat="25.313363" lon="100.964204">
<time>2015-09-27T22:13:23Z</time></trkpt>
<trkpt lat="25.313403" lon="100.964145">
<time>2015-09-27T22:13:24Z</time></trkpt>
<trkpt lat="25.313433" lon="100.964065">
<time>2015-09-27T22:13:25Z</time></trkpt>
<trkpt lat="25.313453" lon="100.964005">
<time>2015-09-27T22:13:26Z</time></trkpt>
<trkpt lat="25.313504" lon="100.963706">
<time>2015-09-27T22:13:27Z</time></trkpt>
<trkpt lat="25.313514" lon="100.963567">
<time>2015-09-27T22:13:28Z</time></trkpt>
<trkpt lat="25.313535" lon="100.963407">
<time>2015-09-27T22:13:29Z</time></trkpt>
<trkpt lat="25.313555" lon="100.963317">
<time>2015-09-27T22:13:30Z</time></trkpt>
<trkpt lat="25.313575" lon="100.963228">
<time>2015-09-27T22:13:31Z</time></trkpt>
<trkpt lat="25.313616" lon="100.963128">
<time>2015-09-27T22:13:32Z</time></trkpt>
<trkpt lat="25.313656" lon="100.963048">
<time>2015-09-27T22:13:33Z</time></trkpt>
<trkpt lat="25.313676" lon="100.963018">
<time>2015-09-27T22:13:34Z</time></trkpt>
<trkpt lat="25.313706" lon="100.962988">
<time>2015-09-27T22:13:35Z</time></trkpt>
<trkpt lat="25.313766" lon="100.962969">
<time>2015-09-27T22:13:36Z</time></trkpt>
<trkpt lat="25.313806" lon="100.962949">
<time>2015-09-27T22:13:37Z</time></trkpt>
<trkpt lat="25.313906" lon="100.962939">
<time>2015-09-27T22:13:38Z</time></trkpt>
<trkpt lat="25.314026" lon="100.962939">
<time>2015-09-27T22:13:39Z</time></trkpt>
<trkpt lat="25.314126" lon="100.962909">
<time>2015-09-27T22:13:40Z</time></trkpt>
<trkpt lat="25.314176" lon="100.962879">
<time>2015-09-27T22:13:41Z</time></trkpt>
<trkpt lat="25.314206" lon="100.962849">
<time>2015-09-27T22:13:42Z</time></trkpt>
<trkpt lat="25.314256" lon="100.962789">
<time>2015-09-27T22:13:43Z</time></trkpt>
<trkpt lat="25.314277" lon="100.962729">
<time>2015-09-27T22:13:44Z</time></trkpt>
<trkpt lat="25.314287" lon="100.96264">
<time>2015-09-27T22:13:45Z</time></trkpt>
<trkpt lat="25.314297" lon="100.96253">
<time>2015-09-27T22:13:46Z</time></trkpt>
<trkpt lat="25.314297" lon="100.96248">
<time>2015-09-27T22:13:47Z</time></trkpt>
<trkpt lat="25.314317" lon="100.96239">
<time>2015-09-27T22:13:48Z</time></trkpt>
<trkpt lat="25.314338" lon="100.962351">
<time>2015-09-27T22:13:49Z</time></trkpt>
<trkpt lat="25.314388" lon="100.962301">
<time>2015-09-27T22:13:50Z</time></trkpt>
<trkpt lat="25.314458" lon="100.962261">
<time>2015-09-27T22:13:51Z</time></trkpt>
<trkpt lat="25.314518" lon="100.962241">
<time>2015-09-27T22:13:52Z</time></trkpt>
<trkpt lat="25.314588" lon="100.962241">
<time>2015-09-27T22:13:53Z</time></trkpt>
<trkpt lat="25.314638" lon="100.962251">
<time>2015-09-27T22:13:54Z</time></trkpt>
<trkpt lat="25.314738" lon="100.962291">
<time>2015-09-27T22:13:55Z</time></trkpt>
<trkpt lat="25.314878" lon="100.962361">
<time>2015-09-27T22:13:56Z</time></trkpt>
<trkpt lat="25.315097" lon="100.96247">
<time>2015-09-27T22:13:57Z</time></trkpt>
<trkpt lat="25.315197" lon="100.96249">
<time>2015-09-27T22:13:58Z</time></trkpt>
<trkpt lat="25.315237" lon="100.96249">
<time>2015-09-27T22:13:59Z</time></trkpt>
<trkpt lat="25.315267" lon="100.96249">
<time>2015-09-27T22:14:00Z</time></trkpt>
<trkpt lat="25.315317" lon="100.96247">
<time>2015-09-27T22:14:01Z</time></trkpt>
<trkpt lat="25.315367" lon="100.96245">
<time>2015-09-27T22:14:02Z</time></trkpt>
<trkpt lat="25.315418" lon="100.962371">
<time>2015-09-27T22:14:03Z</time></trkpt>
<trkpt lat="25.315438" lon="100.962301">
<time>2015-09-27T22:14:04Z</time></trkpt>
<trkpt lat="25.315458" lon="100.962241">
<time>2015-09-27T22:14:05Z</time></trkpt>
<trkpt lat="25.315458" lon="100.962151">
<time>2015-09-27T22:14:06Z</time></trkpt>
<trkpt lat="25.315439" lon="100.962012">
<time>2015-09-27T22:14:07Z</time></trkpt>
<trkpt lat="25.315409" lon="100.961802">
<time>2015-09-27T22:14:08Z</time></trkpt>
<trkpt lat="25.315399" lon="100.961743">
<time>2015-09-27T22:14:09Z</time></trkpt>
<trkpt lat="25.315399" lon="100.961653">
<time>2015-09-27T22:14:10Z</time></trkpt>
<trkpt lat="25.3154" lon="100.961563">
<time>2015-09-27T22:14:11Z</time></trkpt>
<trkpt lat="25.31541" lon="100.961493">
<time>2015-09-27T22:14:12Z</time></trkpt>
<trkpt lat="25.31543" lon="100.961444">
<time>2015-09-27T22:14:13Z</time></trkpt>
<trkpt lat="25.31546" lon="100.961414">
<time>2015-09-27T22:14:14Z</time></trkpt>
<trkpt lat="25.3155" lon="100.961374">
<time>2015-09-27T22:14:15Z</time></trkpt>
<trkpt lat="25.31554" lon="100.961344">
<time>2015-09-27T22:14:16Z</time></trkpt>
<trkpt lat="25.31558" lon="100.961324">
<time>2015-09-27T22:14:17Z</time></trkpt>
<trkpt lat="25.31564" lon="100.961314">
<time>2015-09-27T22:14:18Z</time></trkpt>
<trkpt lat="25.3157" lon="100.961304">
<time>2015-09-27T22:14:19Z</time></trkpt>
<trkpt lat="25.31577" lon="100.961304">
<time>2015-09-27T22:14:20Z</time></trkpt>
<trkpt lat="25.31587" lon="100.961294">
<time>2015-09-27T22:14:21Z</time></trkpt>
<trkpt lat="25.31595" lon="100.961254">
<time>2015-09-27T22:14:22Z</time></trkpt>
<trkpt lat="25.316011" lon="100.961184">
<time>2015-09-27T22:14:23Z</time></trkpt>
<trkpt lat="25.316051" lon="100.961135">
<time>2015-09-27T22:14:24Z</time></trkpt>
<trkpt lat="25.316061" lon="100.961055">
<time>2015-09-27T22:14:25Z</time></trkpt>
<trkpt lat="25.316051" lon="100.960975">
<time>2015-09-27T22:14:26Z</time></trkpt>
<trkpt lat="25.316031" lon="100.960895">
<time>2015-09-27T22:14:27Z</time></trkpt>
<trkpt lat="25.315982" lon="100.960796">
<time>2015-09-27T22:14:28Z</time></trkpt>
<trkpt lat="25.315902" lon="100.960656">
<time>2015-09-27T22:14:29Z</time></trkpt>
<trkpt lat="25.315792" lon="100.960457">
<time>2015-09-27T22:14:30Z</time></trkpt>
<trkpt lat="25.315743" lon="100.960327">
<time>2015-09-27T22:14:31Z</time></trkpt>
<trkpt lat="25.315723" lon="100.960218">
<time>2015-09-27T22:14:32Z</time></trkpt>
<trkpt lat="25.315734" lon="100.959998">
<time>2015-09-27T22:14:33Z</time></trkpt>
<trkpt lat="25.315714" lon="100.959779">
<time>2015-09-27T22:14:34Z</time></trkpt>
<trkpt lat="25.315675" lon="100.95956">
<time>2015-09-27T22:14:35Z</time></trkpt>
<trkpt lat="25.315615" lon="100.959251">
<time>2015-09-27T22:14:36Z</time></trkpt>
<trkpt lat="25.315616" lon="100.959051">
<time>2015-09-27T22:14:37Z</time></trkpt>
<trkpt lat="25.315646" lon="100.958922">
<time>2015-09-27T22:14:38Z</time></trkpt>
<trkpt lat="25.315706" lon="100.958782">
<time>2015-09-27T22:14:39Z</time></trkpt>
<trkpt lat="25.315827" lon="100.958593">
<time>2015-09-27T22:14:40Z</time></trkpt>
<trkpt lat="25.316028" lon="100.958164">
<time>2015-09-27T22:14:41Z</time></trkpt>
<trkpt lat="25.316168" lon="100.957945">
<time>2015-09-27T22:14:42Z</time></trkpt>
<trkpt lat="25.316249" lon="100.957835">
<time>2015-09-27T22:14:43Z</time></trkpt>
<trkpt lat="25.316339" lon="100.957766">
<time>2015-09-27T22:14:44Z</time></trkpt>
<trkpt lat="25.316449" lon="100.957686">
<time>2015-09-27T22:14:45Z</time></trkpt>
<trkpt lat="25.316739" lon="100.957556">
<time>2015-09-27T22:14:46Z</time></trkpt>
<trkpt lat="25.31679" lon="100.957536">
<time>2015-09-27T22:14:47Z</time></trkpt>
<trkpt lat="25.31686" lon="100.957526">
<time>2015-09-27T22:14:48Z</time></trkpt>
<trkpt lat="25.31692" lon="100.957526">
<time>2015-09-27T22:14:49Z</time></trkpt>
<trkpt lat="25.31699" lon="100.957536">
<time>2015-09-27T22:14:50Z</time></trkpt>
<trkpt lat="25.31706" lon="100.957556">
<time>2015-09-27T22:14:51Z</time></trkpt>
<trkpt lat="25.317129" lon="100.957586">
<time>2015-09-27T22:14:52Z</time></trkpt>
<trkpt lat="25.317259" lon="100.957666">
<time>2015-09-27T22:14:53Z</time></trkpt>
<trkpt lat="25.317349" lon="100.957716">
<time>2015-09-27T22:14:54Z</time></trkpt>
<trkpt lat="25.317429" lon="100.957746">
<time>2015-09-27T22:14:55Z</time></trkpt>
<trkpt lat="25.317499" lon="100.957746">
<time>2015-09-27T22:14:56Z</time></trkpt>
<trkpt lat="25.317569" lon="100.957736">
<time>2015-09-27T22:14:57Z</time></trkpt>
<trkpt lat="25.317709" lon="100.957656">
<time>2015-09-27T22:14:58Z</time></trkpt>
<trkpt lat="25.317779" lon="100.957586">
<time>2015-09-27T22:14:59Z</time></trkpt>
<trkpt lat="25.31782" lon="100.957466">
<time>2015-09-27T22:15:00Z</time></trkpt>
<trkpt lat="25.31783" lon="100.957307">
<time>2015-09-27T22:15:01Z</time></trkpt>
<trkpt lat="25.317821" lon="100.957118">
<time>2015-09-27T22:15:02Z</time></trkpt>
<trkpt lat="25.317801" lon="100.956988">
<time>2015-09-27T22:15:03Z</time></trkpt>
<trkpt lat="25.317751" lon="100.956749">
<time>2015-09-27T22:15:04Z</time></trkpt>
<trkpt lat="25.317642" lon="100.95638">
<time>2015-09-27T22:15:05Z</time></trkpt>
<trkpt lat="25.317513" lon="100.955991">
<time>2015-09-27T22:15:06Z</time></trkpt>
<trkpt lat="25.317434" lon="100.955792">
<time>2015-09-27T22:15:07Z</time></trkpt>
<trkpt lat="25.317394" lon="100.955582">
<time>2015-09-27T22:15:08Z</time></trkpt>
<trkpt lat="25.317395" lon="100.955363">
<time>2015-09-27T22:15:09Z</time></trkpt>
<trkpt lat="25.317415" lon="100.955154">
<time>2015-09-27T22:15:10Z</time></trkpt>
<trkpt lat="25.317436" lon="100.954944">
<time>2015-09-27T22:15:11Z</time></trkpt>
<trkpt lat="25.317436" lon="100.954855">
<time>2015-09-27T22:15:12Z</time></trkpt>
<trkpt lat="25.317436" lon="100.954755">
<time>2015-09-27T22:15:13Z</time></trkpt>
<trkpt lat="25.317376" lon="100.954605">
<time>2015-09-27T22:15:14Z</time></trkpt>
<trkpt lat="25.317257" lon="100.954496">
<time>2015-09-27T22:15:15Z</time></trkpt>
<trkpt lat="25.317137" lon="100.954466">
<time>2015-09-27T22:15:16Z</time></trkpt>
<trkpt lat="25.316987" lon="100.954506">
<time>2015-09-27T22:15:17Z</time></trkpt>
<trkpt lat="25.316916" lon="100.954645">
<time>2015-09-27T22:15:18Z</time></trkpt>
<trkpt lat="25.316906" lon="100.954855">
<time>2015-09-27T22:15:19Z</time></trkpt>
<trkpt lat="25.316885" lon="100.955044">
<time>2015-09-27T22:15:20Z</time></trkpt>
<trkpt lat="25.316845" lon="100.955273">
<time>2015-09-27T22:15:21Z</time></trkpt>
<trkpt lat="25.316814" lon="100.955493">
<time>2015-09-27T22:15:22Z</time></trkpt>
<trkpt lat="25.316774" lon="100.955712">
<time>2015-09-27T22:15:23Z</time></trkpt>
<trkpt lat="25.316693" lon="100.955901">
<time>2015-09-27T22:15:24Z</time></trkpt>
<trkpt lat="25.316563" lon="100.956071">
<time>2015-09-27T22:15:25Z</time></trkpt>
<trkpt lat="25.316443" lon="100.956191">
<time>2015-09-27T22:15:26Z</time></trkpt>
<trkpt lat="25.316312" lon="100.95627">
<time>2015-09-27T22:15:27Z</time></trkpt>
<trkpt lat="25.316212" lon="100.95628">
<time>2015-09-27T22:15:28Z</time></trkpt>
<trkpt lat="25.316132" lon="100.95626">
<time>2015-09-27T22:15:29Z</time></trkpt>
<trkpt lat="25.315973" lon="100.956181">
<time>2015-09-27T22:15:30Z</time></trkpt>
<trkpt lat="25.315813" lon="100.956091">
<time>2015-09-27T22:15:31Z</time></trkpt>
<trkpt lat="25.315653" lon="100.956051">
<time>2015-09-27T22:15:32Z</time></trkpt>
<trkpt lat="25.315473" lon="100.956091">
<time>2015-09-27T22:15:33Z</time></trkpt>
<trkpt lat="25.315303" lon="100.956201">
<time>2015-09-27T22:15:34Z</time></trkpt>
<trkpt lat="25.315122" lon="100.95634">
<time>2015-09-27T22:15:35Z</time></trkpt>
<trkpt lat="25.314942" lon="100.95649">
<time>2015-09-27T22:15:36Z</time></trkpt>
<trkpt lat="25.314771" lon="100.956659">
<time>2015-09-27T22:15:37Z</time></trkpt>
<trkpt lat="25.314591" lon="100.956829">
<time>2015-09-27T22:15:38Z</time></trkpt>
<trkpt lat="25.314411" lon="100.957008">
<time>2015-09-27T22:15:39Z</time></trkpt>
<trkpt lat="25.31424" lon="100.957187">
<time>2015-09-27T22:15:40Z</time></trkpt>
<trkpt lat="25.31408" lon="100.957347">
<time>2015-09-27T22:15:41Z</time></trkpt>
<trkpt lat="25.313959" lon="100.957447">
<time>2015-09-27T22:15:42Z</time></trkpt>
<trkpt lat="25.313829" lon="100.957546">
<time>2015-09-27T22:15:43Z</time></trkpt>
<trkpt lat="25.313679" lon="100.957546">
<time>2015-09-27T22:15:44Z</time></trkpt>
<trkpt lat="25.313539" lon="100.957487">
<time>2015-09-27T22:15:45Z</time></trkpt>
<trkpt lat="25.31341" lon="100.957377">
<time>2015-09-27T22:15:46Z</time></trkpt>
<trkpt lat="25.3133" lon="100.957257">
<time>2015-09-27T22:15:47Z</time></trkpt>
<trkpt lat="25.31323" lon="100.957088">
<time>2015-09-27T22:15:48Z</time></trkpt>
<trkpt lat="25.313181" lon="100.956898">
<time>2015-09-27T22:15:49Z</time></trkpt>
<trkpt lat="25.313151" lon="100.956689">
<time>2015-09-27T22:15:50Z</time></trkpt>
<trkpt lat="25.313102" lon="100.95647">
<time>2015-09-27T22:15:51Z</time></trkpt>
<trkpt lat="25.313062" lon="100.95624">
<time>2015-09-27T22:15:52Z</time></trkpt>
<trkpt lat="25.313033" lon="100.956001">
<time>2015-09-27T22:15:53Z</time></trkpt>
<trkpt lat="25.313033" lon="100.955752">
<time>2015-09-27T22:15:54Z</time></trkpt>
<trkpt lat="25.313024" lon="100.955523">
<time>2015-09-27T22:15:55Z</time></trkpt>
<trkpt lat="25.312984" lon="100.955323">
<time>2015-09-27T22:15:56Z</time></trkpt>
<trkpt lat="25.312885" lon="100.955174">
<time>2015-09-27T22:15:57Z</time></trkpt>
<trkpt lat="25.312745" lon="100.955034">
<time>2015-09-27T22:15:58Z</time></trkpt>
<trkpt lat="25.312615" lon="100.954875">
<time>2015-09-27T22:15:59Z</time></trkpt>
<trkpt lat="25.312486" lon="100.954685">
<time>2015-09-27T22:16:00Z</time></trkpt>
<trkpt lat="25.312396" lon="100.954486">
<time>2015-09-27T22:16:01Z</time></trkpt>
<trkpt lat="25.312317" lon="100.954267">
<time>2015-09-27T22:16:02Z</time></trkpt>
<trkpt lat="25.312237" lon="100.954057">
<time>2015-09-27T22:16:03Z</time></trkpt>
<trkpt lat="25.312138" lon="100.953888">
<time>2015-09-27T22:16:04Z</time></trkpt>
<trkpt lat="25.311988" lon="100.953798">
<time>2015-09-27T22:16:05Z</time></trkpt>
<trkpt lat="25.311828" lon="100.953798">
<time>2015-09-27T22:16:06Z</time></trkpt>
<trkpt lat="25.311608" lon="100.953838">
<time>2015-09-27T22:16:07Z</time></trkpt>
<trkpt lat="25.311407" lon="100.953888">
<time>2015-09-27T22:16:08Z</time></trkpt>
<trkpt lat="25.311197" lon="100.953968">
<time>2015-09-27T22:16:09Z</time></trkpt>
<trkpt lat="25.310977" lon="100.954047">
<time>2015-09-27T22:16:10Z</time></trkpt>
<trkpt lat="25.310787" lon="100.954117">
<time>2015-09-27T22:16:11Z</time></trkpt>
<trkpt lat="25.310627" lon="100.954217">
<time>2015-09-27T22:16:12Z</time></trkpt>
<trkpt lat="25.310496" lon="100.954386">
<time>2015-09-27T22:16:13Z</time></trkpt>
<trkpt lat="25.310436" lon="100.954556">
<time>2015-09-27T22:16:14Z</time></trkpt>
<trkpt lat="25.310405" lon="100.954745">
<time>2015-09-27T22:16:15Z</time></trkpt>
<trkpt lat="25.310355" lon="100.954935">
<time>2015-09-27T22:16:16Z</time></trkpt>
<trkpt lat="25.310275" lon="100.955104">
<time>2015-09-27T22:16:17Z</time></trkpt>
<trkpt lat="25.310144" lon="100.955234">
<time>2015-09-27T22:16:18Z</time></trkpt>
<trkpt lat="25.309974" lon="100.955333">
<time>2015-09-27T22:16:19Z</time></trkpt>
<trkpt lat="25.309784" lon="100.955393">
<time>2015-09-27T22:16:20Z</time></trkpt>
<trkpt lat="25.309584" lon="100.955453">
<time>2015-09-27T22:16:21Z</time></trkpt>
<trkpt lat="25.309374" lon="100.955503">
<time>2015-09-27T22:16:22Z</time></trkpt>
<trkpt lat="25.309163" lon="100.955543">
<time>2015-09-27T22:16:23Z</time></trkpt>
<trkpt lat="25.308973" lon="100.955553">
<time>2015-09-27T22:16:24Z</time></trkpt>
<trkpt lat="25.308773" lon="100.955533">
<time>2015-09-27T22:16:25Z</time></trkpt>
<trkpt lat="25.308594" lon="100.955483">
<time>2015-09-27T22:16:26Z</time></trkpt>
<trkpt lat="25.308444" lon="100.955373">
<time>2015-09-27T22:16:27Z</time></trkpt>
<trkpt lat="25.308314" lon="100.955234">
<time>2015-09-27T22:16:28Z</time></trkpt>
<trkpt lat="25.308184" lon="100.955094">
<time>2015-09-27T22:16:29Z</time></trkpt>
<trkpt lat="25.308035" lon="100.954925">
<time>2015-09-27T22:16:30Z</time></trkpt>
<trkpt lat="25.307885" lon="100.954775">
<time>2015-09-27T22:16:31Z</time></trkpt>
<trkpt lat="25.307715" lon="100.954616">
<time>2015-09-27T22:16:32Z</time></trkpt>
<trkpt lat="25.307606" lon="100.954466">
<time>2015-09-27T22:16:33Z</time></trkpt>
<trkpt lat="25.307586" lon="100.954416">
<time>2015-09-27T22:16:34Z</time></trkpt>
<trkpt lat="25.307566" lon="100.954356">
<time>2015-09-27T22:16:35Z</time></trkpt>
<trkpt lat="25.307576" lon="100.954237">
<time>2015-09-27T22:16:36Z</time></trkpt>
<trkpt lat="25.307677" lon="100.954057">
<time>2015-09-27T22:16:37Z</time></trkpt>
<trkpt lat="25.307807" lon="100.953928">
<time>2015-09-27T22:16:38Z</time></trkpt>
<trkpt lat="25.307937" lon="100.953768">
<time>2015-09-27T22:16:39Z</time></trkpt>
<trkpt lat="25.308078" lon="100.953609">
<time>2015-09-27T22:16:40Z</time></trkpt>
<trkpt lat="25.308228" lon="100.953459">
<time>2015-09-27T22:16:41Z</time></trkpt>
<trkpt lat="25.308378" lon="100.95331">
<time>2015-09-27T22:16:42Z</time></trkpt>
<trkpt lat="25.308519" lon="100.95318">
<time>2015-09-27T22:16:43Z</time></trkpt>
<trkpt lat="25.308649" lon="100.95306">
<time>2015-09-27T22:16:44Z</time></trkpt>
<trkpt lat="25.308769" lon="100.952941">
<time>2015-09-27T22:16:45Z</time></trkpt>
<trkpt lat="25.30887" lon="100.952791">
<time>2015-09-27T22:16:46Z</time></trkpt>
<trkpt lat="25.30897" lon="100.952642">
<time>2015-09-27T22:16:47Z</time></trkpt>
<trkpt lat="25.30909" lon="100.952502">
<time>2015-09-27T22:16:48Z</time></trkpt>
<trkpt lat="25.309251" lon="100.952293">
<time>2015-09-27T22:16:49Z</time></trkpt>
<trkpt lat="25.309411" lon="100.952153">
<time>2015-09-27T22:16:50Z</time></trkpt>
<trkpt lat="25.309551" lon="100.952033">
<time>2015-09-27T22:16:51Z</time></trkpt>
<trkpt lat="25.309712" lon="100.951914">
<time>2015-09-27T22:16:52Z</time></trkpt>
<trkpt lat="25.309862" lon="100.951804">
<time>2015-09-27T22:16:53Z</time></trkpt>
<trkpt lat="25.310022" lon="100.951704">
<time>2015-09-27T22:16:54Z</time></trkpt>
<trkpt lat="25.310192" lon="100.951595">
<time>2015-09-27T22:16:55Z</time></trkpt>
<trkpt lat="25.310363" lon="100.951495">
<time>2015-09-27T22:16:56Z</time></trkpt>
<trkpt lat="25.310543" lon="100.951395">
<time>2015-09-27T22:16:57Z</time></trkpt>
<trkpt lat="25.310733" lon="100.951286">
<time>2015-09-27T22:16:58Z</time></trkpt>
<trkpt lat="25.310933" lon="100.951176">
<time>2015-09-27T22:16:59Z</time></trkpt>
<trkpt lat="25.311114" lon="100.951056">
<time>2015-09-27T22:17:00Z</time></trkpt>
<trkpt lat="25.311294" lon="100.950917">
<time>2015-09-27T22:17:01Z</time></trkpt>
<trkpt lat="25.311454" lon="100.950757">
<time>2015-09-27T22:17:02Z</time></trkpt>
<trkpt lat="25.311605" lon="100.950578">
<time>2015-09-27T22:17:03Z</time></trkpt>
<trkpt lat="25.311735" lon="100.950378">
<time>2015-09-27T22:17:04Z</time></trkpt>
<trkpt lat="25.311856" lon="100.950169">
<time>2015-09-27T22:17:05Z</time></trkpt>
<trkpt lat="25.311956" lon="100.949959">
<time>2015-09-27T22:17:06Z</time></trkpt>
<trkpt lat="25.312027" lon="100.94973">
<time>2015-09-27T22:17:07Z</time></trkpt>
<trkpt lat="25.312077" lon="100.949491">
<time>2015-09-27T22:17:08Z</time></trkpt>
<trkpt lat="25.312158" lon="100.949271">
<time>2015-09-27T22:17:09Z</time></trkpt>
<trkpt lat="25.312278" lon="100.949082">
<time>2015-09-27T22:17:10Z</time></trkpt>
<trkpt lat="25.312428" lon="100.948932">
<time>2015-09-27T22:17:11Z</time></trkpt>
<trkpt lat="25.312588" lon="100.948823">
<time>2015-09-27T22:17:12Z</time></trkpt>
<trkpt lat="25.312739" lon="100.948703">
<time>2015-09-27T22:17:13Z</time></trkpt>
<trkpt lat="25.312899" lon="100.948603">
<time>2015-09-27T22:17:14Z</time></trkpt>
<trkpt lat="25.313049" lon="100.948504">
<time>2015-09-27T22:17:15Z</time></trkpt>
<trkpt lat="25.313189" lon="100.948394">
<time>2015-09-27T22:17:16Z</time></trkpt>
<trkpt lat="25.31333" lon="100.948284">
<time>2015-09-27T22:17:17Z</time></trkpt>
<trkpt lat="25.31347" lon="100.948185">
<time>2015-09-27T22:17:18Z</time></trkpt>
<trkpt lat="25.3136" lon="100.948035">
<time>2015-09-27T22:17:19Z</time></trkpt>
<trkpt lat="25.313721" lon="100.947875">
<time>2015-09-27T22:17:20Z</time></trkpt>
<trkpt lat="25.313831" lon="100.947696">
<time>2015-09-27T22:17:21Z</time></trkpt>
<trkpt lat="25.313961" lon="100.947487">
<time>2015-09-27T22:17:22Z</time></trkpt>
<trkpt lat="25.314072" lon="100.947277">
<time>2015-09-27T22:17:23Z</time></trkpt>
<trkpt lat="25.314172" lon="100.947048">
<time>2015-09-27T22:17:24Z</time></trkpt>
<trkpt lat="25.314243" lon="100.946818">
<time>2015-09-27T22:17:25Z</time></trkpt>
<trkpt lat="25.314273" lon="100.946579">
<time>2015-09-27T22:17:26Z</time></trkpt>
<trkpt lat="25.314274" lon="100.94635">
<time>2015-09-27T22:17:27Z</time></trkpt>
<trkpt lat="25.314224" lon="100.9461">
<time>2015-09-27T22:17:28Z</time></trkpt>
<trkpt lat="25.314215" lon="100.945881">
<time>2015-09-27T22:17:29Z</time></trkpt>
<trkpt lat="25.314275" lon="100.945652">
<time>2015-09-27T22:17:30Z</time></trkpt>
<trkpt lat="25.314415" lon="100.945492">
<time>2015-09-27T22:17:31Z</time></trkpt>
<trkpt lat="25.314566" lon="100.945362">
<time>2015-09-27T22:17:32Z</time></trkpt>
<trkpt lat="25.314696" lon="100.945173">
<time>2015-09-27T22:17:33Z</time></trkpt>
<trkpt lat="25.314756" lon="100.944963">
<time>2015-09-27T22:17:34Z</time></trkpt>
<trkpt lat="25.314787" lon="100.944744">
<time>2015-09-27T22:17:35Z</time></trkpt>
<trkpt lat="25.314817" lon="100.944515">
<time>2015-09-27T22:17:36Z</time></trkpt>
<trkpt lat="25.314848" lon="100.944275">
<time>2015-09-27T22:17:37Z</time></trkpt>
<trkpt lat="25.314878" lon="100.944046">
<time>2015-09-27T22:17:38Z</time></trkpt>
<trkpt lat="25.314879" lon="100.943846">
<time>2015-09-27T22:17:39Z</time></trkpt>
<trkpt lat="25.314839" lon="100.943657">
<time>2015-09-27T22:17:40Z</time></trkpt>
<trkpt lat="25.314769" lon="100.943418">
<time>2015-09-27T22:17:41Z</time></trkpt>
<trkpt lat="25.31462" lon="100.943228">
<time>2015-09-27T22:17:42Z</time></trkpt>
<trkpt lat="25.31452" lon="100.943118">
<time>2015-09-27T22:17:43Z</time></trkpt>
<trkpt lat="25.31435" lon="100.943059">
<time>2015-09-27T22:17:44Z</time></trkpt>
<trkpt lat="25.31417" lon="100.943059">
<time>2015-09-27T22:17:45Z</time></trkpt>
<trkpt lat="25.31402" lon="100.943118">
<time>2015-09-27T22:17:46Z</time></trkpt>
<trkpt lat="25.31387" lon="100.943158">
<time>2015-09-27T22:17:47Z</time></trkpt>
<trkpt lat="25.31368" lon="100.943188">
<time>2015-09-27T22:17:48Z</time></trkpt>
<trkpt lat="25.31349" lon="100.943168">
<time>2015-09-27T22:17:49Z</time></trkpt>
<trkpt lat="25.31329" lon="100.943148">
<time>2015-09-27T22:17:50Z</time></trkpt>
<trkpt lat="25.31311" lon="100.943138">
<time>2015-09-27T22:17:51Z</time></trkpt>
<trkpt lat="25.31289" lon="100.943148">
<time>2015-09-27T22:17:52Z</time></trkpt>
<trkpt lat="25.31269" lon="100.943178">
<time>2015-09-27T22:17:53Z</time></trkpt>
<trkpt lat="25.312509" lon="100.943208">
<time>2015-09-27T22:17:54Z</time></trkpt>
<trkpt lat="25.312369" lon="100.943218">
<time>2015-09-27T22:17:55Z</time></trkpt>
<trkpt lat="25.31225" lon="100.943158">
<time>2015-09-27T22:17:56Z</time></trkpt>
<trkpt lat="25.31219" lon="100.943019">
<time>2015-09-27T22:17:57Z</time></trkpt>
<trkpt lat="25.31212" lon="100.942869">
<time>2015-09-27T22:17:58Z</time></trkpt>
<trkpt lat="25.31206" lon="100.942719">
<time>2015-09-27T22:17:59Z</time></trkpt>
<trkpt lat="25.311951" lon="100.94257">
<time>2015-09-27T22:18:00Z</time></trkpt>
<trkpt lat="25.311801" lon="100.94239">
<time>2015-09-27T22:18:01Z</time></trkpt>
<trkpt lat="25.311631" lon="100.942241">
<time>2015-09-27T22:18:02Z</time></trkpt>
<trkpt lat="25.311512" lon="100.942051">
<time>2015-09-27T22:18:03Z</time></trkpt>
<trkpt lat="25.311382" lon="100.941852">
<time>2015-09-27T22:18:04Z</time></trkpt>
<trkpt lat="25.311252" lon="100.941662">
<time>2015-09-27T22:18:05Z</time></trkpt>
<trkpt lat="25.311072" lon="100.941513">
<time>2015-09-27T22:18:06Z</time></trkpt>
<trkpt lat="25.310903" lon="100.941393">
<time>2015-09-27T22:18:07Z</time></trkpt>
<trkpt lat="25.310713" lon="100.941333">
<time>2015-09-27T22:18:08Z</time></trkpt>
<trkpt lat="25.310523" lon="100.941323">
<time>2015-09-27T22:18:09Z</time></trkpt>
<trkpt lat="25.310313" lon="100.941333">
<time>2015-09-27T22:18:10Z</time></trkpt>
<trkpt lat="25.310113" lon="100.941313">
<time>2015-09-27T22:18:11Z</time></trkpt>
<trkpt lat="25.309973" lon="100.941223">
<time>2015-09-27T22:18:12Z</time></trkpt>
<trkpt lat="25.309903" lon="100.941064">
<time>2015-09-27T22:18:13Z</time></trkpt>
<trkpt lat="25.309934" lon="100.940864">
<time>2015-09-27T22:18:14Z</time></trkpt>
<trkpt lat="25.310014" lon="100.940675">
<time>2015-09-27T22:18:15Z</time></trkpt>
<trkpt lat="25.310114" lon="100.940485">
<time>2015-09-27T22:18:16Z</time></trkpt>
<trkpt lat="25.310215" lon="100.940316">
<time>2015-09-27T22:18:17Z</time></trkpt>
<trkpt lat="25.310315" lon="100.940146">
<time>2015-09-27T22:18:18Z</time></trkpt>
<trkpt lat="25.310395" lon="100.939976">
<time>2015-09-27T22:18:19Z</time></trkpt>
<trkpt lat="25.310445" lon="100.939807">
<time>2015-09-27T22:18:20Z</time></trkpt>
<trkpt lat="25.310446" lon="100.939637">
<time>2015-09-27T22:18:21Z</time></trkpt>
<trkpt lat="25.310436" lon="100.939478">
<time>2015-09-27T22:18:22Z</time></trkpt>
<trkpt lat="25.310416" lon="100.939318">
<time>2015-09-27T22:18:23Z</time></trkpt>
<trkpt lat="25.310427" lon="100.939139">
<time>2015-09-27T22:18:24Z</time></trkpt>
<trkpt lat="25.310457" lon="100.938949">
<time>2015-09-27T22:18:25Z</time></trkpt>
<trkpt lat="25.310517" lon="100.93874">
<time>2015-09-27T22:18:26Z</time></trkpt>
<trkpt lat="25.310637" lon="100.93858">
<time>2015-09-27T22:18:27Z</time></trkpt>
<trkpt lat="25.310738" lon="100.93841">
<time>2015-09-27T22:18:28Z</time></trkpt>
<trkpt lat="25.310808" lon="100.938221">
<time>2015-09-27T22:18:29Z</time></trkpt>
<trkpt lat="25.310828" lon="100.938031">
<time>2015-09-27T22:18:30Z</time></trkpt>
<trkpt lat="25.310799" lon="100.937852">
<time>2015-09-27T22:18:31Z</time></trkpt>
<trkpt lat="25.310759" lon="100.937672">
<time>2015-09-27T22:18:32Z</time></trkpt>
<trkpt lat="25.310689" lon="100.937463">
<time>2015-09-27T22:18:33Z</time></trkpt>
<trkpt lat="25.31064" lon="100.937243">
<time>2015-09-27T22:18:34Z</time></trkpt>
<trkpt lat="25.31059" lon="100.937024">
<time>2015-09-27T22:18:35Z</time></trkpt>
<trkpt lat="25.31053" lon="100.936794">
<time>2015-09-27T22:18:36Z</time></trkpt>
<trkpt lat="25.310481" lon="100.936595">
<time>2015-09-27T22:18:37Z</time></trkpt>
<trkpt lat="25.310431" lon="100.936375">
<time>2015-09-27T22:18:38Z</time></trkpt>
<trkpt lat="25.310381" lon="100.936176">
<time>2015-09-27T22:18:39Z</time></trkpt>
<trkpt lat="25.310342" lon="100.935976">
<time>2015-09-27T22:18:40Z</time></trkpt>
<trkpt lat="25.310292" lon="100.935787">
<time>2015-09-27T22:18:41Z</time></trkpt>
<trkpt lat="25.310262" lon="100.935587">
<time>2015-09-27T22:18:42Z</time></trkpt>
<trkpt lat="25.310243" lon="100.935397">
<time>2015-09-27T22:18:43Z</time></trkpt>
<trkpt lat="25.310233" lon="100.935208">
<time>2015-09-27T22:18:44Z</time></trkpt>
<trkpt lat="25.310223" lon="100.935038">
<time>2015-09-27T22:18:45Z</time></trkpt>
<trkpt lat="25.310213" lon="100.934869">
<time>2015-09-27T22:18:46Z</time></trkpt>
<trkpt lat="25.310204" lon="100.934699">
<time>2015-09-27T22:18:47Z</time></trkpt>
<trkpt lat="25.310194" lon="100.934509">
<time>2015-09-27T22:18:48Z</time></trkpt>
<trkpt lat="25.310184" lon="100.9343">
<time>2015-09-27T22:18:49Z</time></trkpt>
<trkpt lat="25.310165" lon="100.93407">
<time>2015-09-27T22:18:50Z</time></trkpt>
<trkpt lat="25.310155" lon="100.933811">
<time>2015-09-27T22:18:51Z</time></trkpt>
<trkpt lat="25.310145" lon="100.933562">
<time>2015-09-27T22:18:52Z</time></trkpt>
<trkpt lat="25.310156" lon="100.933292">
<time>2015-09-27T22:18:53Z</time></trkpt>
<trkpt lat="25.310156" lon="100.933103">
<time>2015-09-27T22:18:54Z</time></trkpt>
<trkpt lat="25.310176" lon="100.932903">
<time>2015-09-27T22:18:55Z</time></trkpt>
<trkpt lat="25.310227" lon="100.932713">
<time>2015-09-27T22:18:56Z</time></trkpt>
<trkpt lat="25.310257" lon="100.932534">
<time>2015-09-27T22:18:57Z</time></trkpt>
<trkpt lat="25.310317" lon="100.932324">
<time>2015-09-27T22:18:58Z</time></trkpt>
<trkpt lat="25.310347" lon="100.932115">
<time>2015-09-27T22:18:59Z</time></trkpt>
<trkpt lat="25.310388" lon="100.931925">
<time>2015-09-27T22:19:00Z</time></trkpt>
<trkpt lat="25.310418" lon="100.931735">
<time>2015-09-27T22:19:01Z</time></trkpt>
<trkpt lat="25.310448" lon="100.931556">
<time>2015-09-27T22:19:02Z</time></trkpt>
<trkpt lat="25.310468" lon="100.931376">
<time>2015-09-27T22:19:03Z</time></trkpt>
<trkpt lat="25.310489" lon="100.931217">
<time>2015-09-27T22:19:04Z</time></trkpt>
<trkpt lat="25.310509" lon="100.931067">
<time>2015-09-27T22:19:05Z</time></trkpt>
<trkpt lat="25.310529" lon="100.930927">
<time>2015-09-27T22:19:06Z</time></trkpt>
<trkpt lat="25.310579" lon="100.930708">
<time>2015-09-27T22:19:07Z</time></trkpt>
<trkpt lat="25.31063" lon="100.930518">
<time>2015-09-27T22:19:08Z</time></trkpt>
<trkpt lat="25.31067" lon="100.930348">
<time>2015-09-27T22:19:09Z</time></trkpt>
<trkpt lat="25.31072" lon="100.930179">
<time>2015-09-27T22:19:10Z</time></trkpt>
<trkpt lat="25.31078" lon="100.930009">
<time>2015-09-27T22:19:11Z</time></trkpt>
<trkpt lat="25.310841" lon="100.929829">
<time>2015-09-27T22:19:12Z</time></trkpt>
<trkpt lat="25.310901" lon="100.92964">
<time>2015-09-27T22:19:13Z</time></trkpt>
<trkpt lat="25.310971" lon="100.92944">
<time>2015-09-27T22:19:14Z</time></trkpt>
<trkpt lat="25.311051" lon="100.929221">
<time>2015-09-27T22:19:15Z</time></trkpt>
<trkpt lat="25.311122" lon="100.929021">
<time>2015-09-27T22:19:16Z</time></trkpt>
<trkpt lat="25.311212" lon="100.928801">
<time>2015-09-27T22:19:17Z</time></trkpt>
<trkpt lat="25.311322" lon="100.928612">
<time>2015-09-27T22:19:18Z</time></trkpt>
<trkpt lat="25.311442" lon="100.928432">
<time>2015-09-27T22:19:19Z</time></trkpt>
<trkpt lat="25.311583" lon="100.928242">
<time>2015-09-27T22:19:20Z</time></trkpt>
<trkpt lat="25.311733" lon="100.928063">
<time>2015-09-27T22:19:21Z</time></trkpt>
<trkpt lat="25.311863" lon="100.927863">
<time>2015-09-27T22:19:22Z</time></trkpt>
<trkpt lat="25.311983" lon="100.927644">
<time>2015-09-27T22:19:23Z</time></trkpt>
<trkpt lat="25.312064" lon="100.927404">
<time>2015-09-27T22:19:24Z</time></trkpt>
<trkpt lat="25.312124" lon="100.927155">
<time>2015-09-27T22:19:25Z</time></trkpt>
<trkpt lat="25.312204" lon="100.926925">
<time>2015-09-27T22:19:26Z</time></trkpt>
<trkpt lat="25.312334" lon="100.926755">
<time>2015-09-27T22:19:27Z</time></trkpt>
<trkpt lat="25.312515" lon="100.926655">
<time>2015-09-27T22:19:28Z</time></trkpt>
<trkpt lat="25.312735" lon="100.926596">
<time>2015-09-27T22:19:29Z</time></trkpt>
<trkpt lat="25.312955" lon="100.926576">
<time>2015-09-27T22:19:30Z</time></trkpt>
<trkpt lat="25.313185" lon="100.926536">
<time>2015-09-27T22:19:31Z</time></trkpt>
<trkpt lat="25.313415" lon="100.926496">
<time>2015-09-27T22:19:32Z</time></trkpt>
<trkpt lat="25.313645" lon="100.926436">
<time>2015-09-27T22:19:33Z</time></trkpt>
<trkpt lat="25.313875" lon="100.926396">
<time>2015-09-27T22:19:34Z</time></trkpt>
<trkpt lat="25.314115" lon="100.926326">
<time>2015-09-27T22:19:35Z</time></trkpt>
<trkpt lat="25.314335" lon="100.926236">
<time>2015-09-27T22:19:36Z</time></trkpt>
<trkpt lat="25.314545" lon="100.926126">
<time>2015-09-27T22:19:37Z</time></trkpt>
<trkpt lat="25.314756" lon="100.926007">
<time>2015-09-27T22:19:38Z</time></trkpt>
<trkpt lat="25.314976" lon="100.925907">
<time>2015-09-27T22:19:39Z</time></trkpt>
<trkpt lat="25.315196" lon="100.925847">
<time>2015-09-27T22:19:40Z</time></trkpt>
<trkpt lat="25.315426" lon="100.925827">
<time>2015-09-27T22:19:41Z</time></trkpt>
<trkpt lat="25.315656" lon="100.925827">
<time>2015-09-27T22:19:42Z</time></trkpt>
<trkpt lat="25.315886" lon="100.925847">
<time>2015-09-27T22:19:43Z</time></trkpt>
<trkpt lat="25.316106" lon="100.925867">
<time>2015-09-27T22:19:44Z</time></trkpt>
<trkpt lat="25.316326" lon="100.925877">
<time>2015-09-27T22:19:45Z</time></trkpt>
<trkpt lat="25.316546" lon="100.925857">
<time>2015-09-27T22:19:46Z</time></trkpt>
<trkpt lat="25.316656" lon="100.925807">
<time>2015-09-27T22:19:47Z</time></trkpt>
<trkpt lat="25.316696" lon="100.925777">
<time>2015-09-27T22:19:48Z</time></trkpt>
<trkpt lat="25.316796" lon="100.925657">
<time>2015-09-27T22:19:49Z</time></trkpt>
<trkpt lat="25.316866" lon="100.925458">
<time>2015-09-27T22:19:50Z</time></trkpt>
<trkpt lat="25.316907" lon="100.925268">
<time>2015-09-27T22:19:51Z</time></trkpt>
<trkpt lat="25.316917" lon="100.925088">
<time>2015-09-27T22:19:52Z</time></trkpt>
<trkpt lat="25.316937" lon="100.924909">
<time>2015-09-27T22:19:53Z</time></trkpt>
<trkpt lat="25.316967" lon="100.924739">
<time>2015-09-27T22:19:54Z</time></trkpt>
<trkpt lat="25.316997" lon="100.924569">
<time>2015-09-27T22:19:55Z</time></trkpt>
<trkpt lat="25.317038" lon="100.924399">
<time>2015-09-27T22:19:56Z</time></trkpt>
<trkpt lat="25.317078" lon="100.92423">
<time>2015-09-27T22:19:57Z</time></trkpt>
<trkpt lat="25.317128" lon="100.92406">
<time>2015-09-27T22:19:58Z</time></trkpt>
<trkpt lat="25.317178" lon="100.9239">
<time>2015-09-27T22:19:59Z</time></trkpt>
<trkpt lat="25.317258" lon="100.923701">
<time>2015-09-27T22:20:00Z</time></trkpt>
<trkpt lat="25.317318" lon="100.923501">
<time>2015-09-27T22:20:01Z</time></trkpt>
<trkpt lat="25.317369" lon="100.923301">
<time>2015-09-27T22:20:02Z</time></trkpt>
<trkpt lat="25.317419" lon="100.923112">
<time>2015-09-27T22:20:03Z</time></trkpt>
<trkpt lat="25.317429" lon="100.923082">
<time>2015-09-27T22:20:04Z</time></trkpt>
<trkpt lat="25.317469" lon="100.922912">
<time>2015-09-27T22:20:05Z</time></trkpt>
<trkpt lat="25.317519" lon="100.922692">
<time>2015-09-27T22:20:06Z</time></trkpt>
<trkpt lat="25.31758" lon="100.922473">
<time>2015-09-27T22:20:07Z</time></trkpt>
<trkpt lat="25.31764" lon="100.922253">
<time>2015-09-27T22:20:08Z</time></trkpt>
<trkpt lat="25.31775" lon="100.922083">
<time>2015-09-27T22:20:09Z</time></trkpt>
<trkpt lat="25.31787" lon="100.921894">
<time>2015-09-27T22:20:10Z</time></trkpt>
<trkpt lat="25.31795" lon="100.921754">
<time>2015-09-27T22:20:11Z</time></trkpt>
<trkpt lat="25.318" lon="100.921674">
<time>2015-09-27T22:20:12Z</time></trkpt>
<trkpt lat="25.318121" lon="100.921444">
<time>2015-09-27T22:20:13Z</time></trkpt>
<trkpt lat="25.318261" lon="100.921205">
<time>2015-09-27T22:20:14Z</time></trkpt>
<trkpt lat="25.318431" lon="100.921005">
<time>2015-09-27T22:20:15Z</time></trkpt>
<trkpt lat="25.318601" lon="100.920825">
<time>2015-09-27T22:20:16Z</time></trkpt>
<trkpt lat="25.318751" lon="100.920626">
<time>2015-09-27T22:20:17Z</time></trkpt>
<trkpt lat="25.318872" lon="100.920416">
<time>2015-09-27T22:20:18Z</time></trkpt>
<trkpt lat="25.318982" lon="100.920186">
<time>2015-09-27T22:20:19Z</time></trkpt>
<trkpt lat="25.319092" lon="100.919967">
<time>2015-09-27T22:20:20Z</time></trkpt>
<trkpt lat="25.319232" lon="100.919787">
<time>2015-09-27T22:20:21Z</time></trkpt>
<trkpt lat="25.319412" lon="100.919637">
<time>2015-09-27T22:20:22Z</time></trkpt>
<trkpt lat="25.319622" lon="100.919547">
<time>2015-09-27T22:20:23Z</time></trkpt>
<trkpt lat="25.319832" lon="100.919477">
<time>2015-09-27T22:20:24Z</time></trkpt>
<trkpt lat="25.320033" lon="100.919388">
<time>2015-09-27T22:20:25Z</time></trkpt>
<trkpt lat="25.320183" lon="100.919278">
<time>2015-09-27T22:20:26Z</time></trkpt>
<trkpt lat="25.320253" lon="100.919098">
<time>2015-09-27T22:20:27Z</time></trkpt>
<trkpt lat="25.320243" lon="100.918888">
<time>2015-09-27T22:20:28Z</time></trkpt>
<trkpt lat="25.320183" lon="100.918669">
<time>2015-09-27T22:20:29Z</time></trkpt>
<trkpt lat="25.320133" lon="100.918439">
<time>2015-09-27T22:20:30Z</time></trkpt>
<trkpt lat="25.320084" lon="100.918209">
<time>2015-09-27T22:20:31Z</time></trkpt>
<trkpt lat="25.320074" lon="100.91797">
<time>2015-09-27T22:20:32Z</time></trkpt>
<trkpt lat="25.320114" lon="100.91773">
<time>2015-09-27T22:20:33Z</time></trkpt>
<trkpt lat="25.320214" lon="100.9175">
<time>2015-09-27T22:20:34Z</time></trkpt>
<trkpt lat="25.320344" lon="100.917281">
<time>2015-09-27T22:20:35Z</time></trkpt>
<trkpt lat="25.320484" lon="100.917071">
<time>2015-09-27T22:20:36Z</time></trkpt>
<trkpt lat="25.320625" lon="100.916831">
<time>2015-09-27T22:20:37Z</time></trkpt>
<trkpt lat="25.320735" lon="100.916582">
<time>2015-09-27T22:20:38Z</time></trkpt>
<trkpt lat="25.320825" lon="100.916312">
<time>2015-09-27T22:20:39Z</time></trkpt>
<trkpt lat="25.320925" lon="100.916022">
<time>2015-09-27T22:20:40Z</time></trkpt>
<trkpt lat="25.321065" lon="100.915783">
<time>2015-09-27T22:20:41Z</time></trkpt>
<trkpt lat="25.321226" lon="100.915563">
<time>2015-09-27T22:20:42Z</time></trkpt>
<trkpt lat="25.321366" lon="100.915383">
<time>2015-09-27T22:20:43Z</time></trkpt>
<trkpt lat="25.321396" lon="100.915193">
<time>2015-09-27T22:20:44Z</time></trkpt>
<trkpt lat="25.321336" lon="100.915034">
<time>2015-09-27T22:20:45Z</time></trkpt>
<trkpt lat="25.321186" lon="100.914924">
<time>2015-09-27T22:20:46Z</time></trkpt>
<trkpt lat="25.321006" lon="100.914864">
<time>2015-09-27T22:20:47Z</time></trkpt>
<trkpt lat="25.320816" lon="100.914814">
<time>2015-09-27T22:20:48Z</time></trkpt>
<trkpt lat="25.320616" lon="100.914744">
<time>2015-09-27T22:20:49Z</time></trkpt>
<trkpt lat="25.320366" lon="100.914684">
<time>2015-09-27T22:20:50Z</time></trkpt>
<trkpt lat="25.320096" lon="100.914684">
<time>2015-09-27T22:20:51Z</time></trkpt>
<trkpt lat="25.319866" lon="100.914724">
<time>2015-09-27T22:20:52Z</time></trkpt>
<trkpt lat="25.319666" lon="100.914824">
<time>2015-09-27T22:20:53Z</time></trkpt>
<trkpt lat="25.319526" lon="100.915004">
<time>2015-09-27T22:20:54Z</time></trkpt>
<trkpt lat="25.319446" lon="100.915233">
<time>2015-09-27T22:20:55Z</time></trkpt>
<trkpt lat="25.319335" lon="100.915473">
<time>2015-09-27T22:20:56Z</time></trkpt>
<trkpt lat="25.319165" lon="100.915663">
<time>2015-09-27T22:20:57Z</time></trkpt>
<trkpt lat="25.318955" lon="100.915773">
<time>2015-09-27T22:20:58Z</time></trkpt>
<trkpt lat="25.318755" lon="100.915893">
<time>2015-09-27T22:20:59Z</time></trkpt>
<trkpt lat="25.318585" lon="100.916042">
<time>2015-09-27T22:21:00Z</time></trkpt>
<trkpt lat="25.318465" lon="100.916202">
<time>2015-09-27T22:21:01Z</time></trkpt>
<trkpt lat="25.318365" lon="100.916292">
<time>2015-09-27T22:21:02Z</time></trkpt>
<trkpt lat="25.318215" lon="100.916292">
<time>2015-09-27T22:21:03Z</time></trkpt>
<trkpt lat="25.318115" lon="100.916202">
<time>2015-09-27T22:21:04Z</time></trkpt>
<trkpt lat="25.318075" lon="100.916062">
<time>2015-09-27T22:21:05Z</time></trkpt>
<trkpt lat="25.318085" lon="100.915883">
<time>2015-09-27T22:21:06Z</time></trkpt>
<trkpt lat="25.318135" lon="100.915673">
<time>2015-09-27T22:21:07Z</time></trkpt>
<trkpt lat="25.318195" lon="100.915433">
<time>2015-09-27T22:21:08Z</time></trkpt>
<trkpt lat="25.318246" lon="100.915203">
<time>2015-09-27T22:21:09Z</time></trkpt>
<trkpt lat="25.318296" lon="100.914944">
<time>2015-09-27T22:21:10Z</time></trkpt>
<trkpt lat="25.318406" lon="100.914724">
<time>2015-09-27T22:21:11Z</time></trkpt>
<trkpt lat="25.318546" lon="100.914564">
<time>2015-09-27T22:21:12Z</time></trkpt>
<trkpt lat="25.318706" lon="100.914404">
<time>2015-09-27T22:21:13Z</time></trkpt>
<trkpt lat="25.318836" lon="100.914195">
<time>2015-09-27T22:21:14Z</time></trkpt>
<trkpt lat="25.318946" lon="100.913945">
<time>2015-09-27T22:21:15Z</time></trkpt>
<trkpt lat="25.319036" lon="100.913715">
<time>2015-09-27T22:21:16Z</time></trkpt>
<trkpt lat="25.319107" lon="100.913506">
<time>2015-09-27T22:21:17Z</time></trkpt>
<trkpt lat="25.319107" lon="100.913316">
<time>2015-09-27T22:21:18Z</time></trkpt>
<trkpt lat="25.319007" lon="100.913176">
<time>2015-09-27T22:21:19Z</time></trkpt>
<trkpt lat="25.318857" lon="100.913106">
<time>2015-09-27T22:21:20Z</time></trkpt>
<trkpt lat="25.318707" lon="100.913096">
<time>2015-09-27T22:21:21Z</time></trkpt>
<trkpt lat="25.318537" lon="100.913106">
<time>2015-09-27T22:21:22Z</time></trkpt>
<trkpt lat="25.318347" lon="100.913086">
<time>2015-09-27T22:21:23Z</time></trkpt>
<trkpt lat="25.318197" lon="100.912996">
<time>2015-09-27T22:21:24Z</time></trkpt>
<trkpt lat="25.318117" lon="100.912866">
<time>2015-09-27T22:21:25Z</time></trkpt>
<trkpt lat="25.318107" lon="100.912716">
<time>2015-09-27T22:21:26Z</time></trkpt>
<trkpt lat="25.318157" lon="100.912587">
<time>2015-09-27T22:21:27Z</time></trkpt>
<trkpt lat="25.318307" lon="100.912457">
<time>2015-09-27T22:21:28Z</time></trkpt>
<trkpt lat="25.318487" lon="100.912367">
<time>2015-09-27T22:21:29Z</time></trkpt>
<trkpt lat="25.318687" lon="100.912267">
<time>2015-09-27T22:21:30Z</time></trkpt>
<trkpt lat="25.318877" lon="100.912237">
<time>2015-09-27T22:21:31Z</time></trkpt>
<trkpt lat="25.319077" lon="100.912227">
<time>2015-09-27T22:21:32Z</time></trkpt>
<trkpt lat="25.319267" lon="100.912237">
<time>2015-09-27T22:21:33Z</time></trkpt>
<trkpt lat="25.319457" lon="100.912297">
<time>2015-09-27T22:21:34Z</time></trkpt>
<trkpt lat="25.319607" lon="100.912397">
<time>2015-09-27T22:21:35Z</time></trkpt>
<trkpt lat="25.319767" lon="100.912477">
<time>2015-09-27T22:21:36Z</time></trkpt>
<trkpt lat="25.319937" lon="100.912507">
<time>2015-09-27T22:21:37Z</time></trkpt>
<trkpt lat="25.320117" lon="100.912487">
<time>2015-09-27T22:21:38Z</time></trkpt>
<trkpt lat="25.320287" lon="100.912397">
<time>2015-09-27T22:21:39Z</time></trkpt>
<trkpt lat="25.320417" lon="100.912237">
<time>2015-09-27T22:21:40Z</time></trkpt>
<trkpt lat="25.320548" lon="100.912057">
<time>2015-09-27T22:21:41Z</time></trkpt>
<trkpt lat="25.320678" lon="100.911877">
<time>2015-09-27T22:21:42Z</time></trkpt>
<trkpt lat="25.320798" lon="100.911708">
<time>2015-09-27T22:21:43Z</time></trkpt>
<trkpt lat="25.320818" lon="100.911668">
<time>2015-09-27T22:21:44Z</time></trkpt>
<trkpt lat="25.320898" lon="100.911508">
<time>2015-09-27T22:21:45Z</time></trkpt>
<trkpt lat="25.320998" lon="100.911318">
<time>2015-09-27T22:21:46Z</time></trkpt>
<trkpt lat="25.321118" lon="100.911138">
<time>2015-09-27T22:21:47Z</time></trkpt>
<trkpt lat="25.321238" lon="100.910998">
<time>2015-09-27T22:21:48Z</time></trkpt>
<trkpt lat="25.321268" lon="100.910978">
<time>2015-09-27T22:21:49Z</time></trkpt>
<trkpt lat="25.321438" lon="100.910819">
<time>2015-09-27T22:21:50Z</time></trkpt>
<trkpt lat="25.321628" lon="100.910659">
<time>2015-09-27T22:21:51Z</time></trkpt>
<trkpt lat="25.321808" lon="100.910489">
<time>2015-09-27T22:21:52Z</time></trkpt>
<trkpt lat="25.322028" lon="100.910349">
<time>2015-09-27T22:21:53Z</time></trkpt>
<trkpt lat="25.322249" lon="100.910229">
<time>2015-09-27T22:21:54Z</time></trkpt>
<trkpt lat="25.322499" lon="100.910139">
<time>2015-09-27T22:21:55Z</time></trkpt>
<trkpt lat="25.322739" lon="100.910059">
<time>2015-09-27T22:21:56Z</time></trkpt>
<trkpt lat="25.322969" lon="100.909989">
<time>2015-09-27T22:21:57Z</time></trkpt>
<trkpt lat="25.323189" lon="100.909909">
<time>2015-09-27T22:21:58Z</time></trkpt>
<trkpt lat="25.323399" lon="100.9098">
<time>2015-09-27T22:21:59Z</time></trkpt>
<trkpt lat="25.323599" lon="100.90967">
<time>2015-09-27T22:22:00Z</time></trkpt>
<trkpt lat="25.323799" lon="100.9095">
<time>2015-09-27T22:22:01Z</time></trkpt>
<trkpt lat="25.323989" lon="100.90933">
<time>2015-09-27T22:22:02Z</time></trkpt>
<trkpt lat="25.324189" lon="100.90914">
<time>2015-09-27T22:22:03Z</time></trkpt>
<trkpt lat="25.324369" lon="100.90895">
<time>2015-09-27T22:22:04Z</time></trkpt>
<trkpt lat="25.324549" lon="100.908761">
<time>2015-09-27T22:22:05Z</time></trkpt>
<trkpt lat="25.324729" lon="100.908581">
<time>2015-09-27T22:22:06Z</time></trkpt>
<trkpt lat="25.32489" lon="100.908391">
<time>2015-09-27T22:22:07Z</time></trkpt>
<trkpt lat="25.32506" lon="100.908201">
<time>2015-09-27T22:22:08Z</time></trkpt>
<trkpt lat="25.32521" lon="100.908011">
<time>2015-09-27T22:22:09Z</time></trkpt>
<trkpt lat="25.32537" lon="100.907831">
<time>2015-09-27T22:22:10Z</time></trkpt>
<trkpt lat="25.32551" lon="100.907622">
<time>2015-09-27T22:22:11Z</time></trkpt>
<trkpt lat="25.32565" lon="100.907412">
<time>2015-09-27T22:22:12Z</time></trkpt>
<trkpt lat="25.3258" lon="100.907192">
<time>2015-09-27T22:22:13Z</time></trkpt>
<trkpt lat="25.32594" lon="100.906972">
<time>2015-09-27T22:22:14Z</time></trkpt>
<trkpt lat="25.32608" lon="100.906762">
<time>2015-09-27T22:22:15Z</time></trkpt>
<trkpt lat="25.32623" lon="100.906553">
<time>2015-09-27T22:22:16Z</time></trkpt>
<trkpt lat="25.3264" lon="100.906373">
<time>2015-09-27T22:22:17Z</time></trkpt>
<trkpt lat="25.3266" lon="100.906213">
<time>2015-09-27T22:22:18Z</time></trkpt>
<trkpt lat="25.3268" lon="100.906073">
<time>2015-09-27T22:22:19Z</time></trkpt>
<trkpt lat="25.32699" lon="100.905933">
<time>2015-09-27T22:22:20Z</time></trkpt>
<trkpt lat="25.32714" lon="100.905783">
<time>2015-09-27T22:22:21Z</time></trkpt>
<trkpt lat="25.327311" lon="100.905533">
<time>2015-09-27T22:22:22Z</time></trkpt>
<trkpt lat="25.327401" lon="100.905314">
<time>2015-09-27T22:22:23Z</time></trkpt>
<trkpt lat="25.327411" lon="100.905134">
<time>2015-09-27T22:22:24Z</time></trkpt>
<trkpt lat="25.327381" lon="100.904954">
<time>2015-09-27T22:22:25Z</time></trkpt>
<trkpt lat="25.327301" lon="100.904764">
<time>2015-09-27T22:22:26Z</time></trkpt>
<trkpt lat="25.327211" lon="100.904554">
<time>2015-09-27T22:22:27Z</time></trkpt>
<trkpt lat="25.327181" lon="100.904354">
<time>2015-09-27T22:22:28Z</time></trkpt>
<trkpt lat="25.327261" lon="100.904184">
<time>2015-09-27T22:22:29Z</time></trkpt>
<trkpt lat="25.327411" lon="100.904085">
<time>2015-09-27T22:22:30Z</time></trkpt>
<trkpt lat="25.327591" lon="100.904065">
<time>2015-09-27T22:22:31Z</time></trkpt>
<trkpt lat="25.327761" lon="100.904065">
<time>2015-09-27T22:22:32Z</time></trkpt>
<trkpt lat="25.327941" lon="100.904045">
<time>2015-09-27T22:22:33Z</time></trkpt>
<trkpt lat="25.328091" lon="100.903965">
<time>2015-09-27T22:22:34Z</time></trkpt>
<trkpt lat="25.328231" lon="100.903845">
<time>2015-09-27T22:22:35Z</time></trkpt>
<trkpt lat="25.328361" lon="100.903715">
<time>2015-09-27T22:22:36Z</time></trkpt>
<trkpt lat="25.328511" lon="100.903595">
<time>2015-09-27T22:22:37Z</time></trkpt>
<trkpt lat="25.328631" lon="100.903435">
<time>2015-09-27T22:22:38Z</time></trkpt>
<trkpt lat="25.328771" lon="100.903285">
<time>2015-09-27T22:22:39Z</time></trkpt>
<trkpt lat="25.328901" lon="100.903125">
<time>2015-09-27T22:22:40Z</time></trkpt>
<trkpt lat="25.329001" lon="100.902935">
<time>2015-09-27T22:22:41Z</time></trkpt>
<trkpt lat="25.329081" lon="100.902745">
<time>2015-09-27T22:22:42Z</time></trkpt>
<trkpt lat="25.329141" lon="100.902546">
<time>2015-09-27T22:22:43Z</time></trkpt>
<trkpt lat="25.329171" lon="100.902336">
<time>2015-09-27T22:22:44Z</time></trkpt>
<trkpt lat="25.329181" lon="100.902116">
<time>2015-09-27T22:22:45Z</time></trkpt>
<trkpt lat="25.329161" lon="100.901906">
<time>2015-09-27T22:22:46Z</time></trkpt>
<trkpt lat="25.329111" lon="100.901706">
<time>2015-09-27T22:22:47Z</time></trkpt>
<trkpt lat="25.329041" lon="100.901496">
<time>2015-09-27T22:22:48Z</time></trkpt>
<trkpt lat="25.328971" lon="100.901296">
<time>2015-09-27T22:22:49Z</time></trkpt>
<trkpt lat="25.328891" lon="100.901106">
<time>2015-09-27T22:22:50Z</time></trkpt>
<trkpt lat="25.328821" lon="100.900907">
<time>2015-09-27T22:22:51Z</time></trkpt>
<trkpt lat="25.328771" lon="100.900697">
<time>2015-09-27T22:22:52Z</time></trkpt>
<trkpt lat="25.328751" lon="100.900487">
<time>2015-09-27T22:22:53Z</time></trkpt>
<trkpt lat="25.328751" lon="100.900457">
<time>2015-09-27T22:22:54Z</time></trkpt>
<trkpt lat="25.328771" lon="100.900267">
<time>2015-09-27T22:22:55Z</time></trkpt>
<trkpt lat="25.328821" lon="100.900047">
<time>2015-09-27T22:22:56Z</time></trkpt>
<trkpt lat="25.328891" lon="100.899837">
<time>2015-09-27T22:22:57Z</time></trkpt>
<trkpt lat="25.328951" lon="100.899617">
<time>2015-09-27T22:22:58Z</time></trkpt>
<trkpt lat="25.329031" lon="100.899417">
<time>2015-09-27T22:22:59Z</time></trkpt>
<trkpt lat="25.329101" lon="100.899218">
<time>2015-09-27T22:23:00Z</time></trkpt>
<trkpt lat="25.329191" lon="100.899038">
<time>2015-09-27T22:23:01Z</time></trkpt>
<trkpt lat="25.329291" lon="100.898878">
<time>2015-09-27T22:23:02Z</time></trkpt>
<trkpt lat="25.329411" lon="100.898718">
<time>2015-09-27T22:23:03Z</time></trkpt>
<trkpt lat="25.329521" lon="100.898598">
<time>2015-09-27T22:23:04Z</time></trkpt>
<trkpt lat="25.329531" lon="100.898588">
<time>2015-09-27T22:23:05Z</time></trkpt>
<trkpt lat="25.329651" lon="100.898438">
<time>2015-09-27T22:23:06Z</time></trkpt>
<trkpt lat="25.329781" lon="100.898298">
<time>2015-09-27T22:23:07Z</time></trkpt>
<trkpt lat="25.329911" lon="100.898138">
<time>2015-09-27T22:23:08Z</time></trkpt>
<trkpt lat="25.330051" lon="100.897988">
<time>2015-09-27T22:23:09Z</time></trkpt>
<trkpt lat="25.330161" lon="100.897838">
<time>2015-09-27T22:23:10Z</time></trkpt>
<trkpt lat="25.330271" lon="100.897588">
<time>2015-09-27T22:23:11Z</time></trkpt>
<trkpt lat="25.330341" lon="100.897368">
<time>2015-09-27T22:23:12Z</time></trkpt>
<trkpt lat="25.330411" lon="100.897118">
<time>2015-09-27T22:23:13Z</time></trkpt>
<trkpt lat="25.330491" lon="100.896869">
<time>2015-09-27T22:23:14Z</time></trkpt>
<trkpt lat="25.330561" lon="100.896619">
<time>2015-09-27T22:23:15Z</time></trkpt>
<trkpt lat="25.330641" lon="100.896369">
<time>2015-09-27T22:23:16Z</time></trkpt>
<trkpt lat="25.330721" lon="100.896119">
<time>2015-09-27T22:23:17Z</time></trkpt>
<trkpt lat="25.330791" lon="100.895899">
<time>2015-09-27T22:23:18Z</time></trkpt>
<trkpt lat="25.330861" lon="100.895639">
<time>2015-09-27T22:23:19Z</time></trkpt>
<trkpt lat="25.330871" lon="100.895399">
<time>2015-09-27T22:23:20Z</time></trkpt>
<trkpt lat="25.330861" lon="100.895169">
<time>2015-09-27T22:23:21Z</time></trkpt>
<trkpt lat="25.330851" lon="100.894949">
<time>2015-09-27T22:23:22Z</time></trkpt>
<trkpt lat="25.330861" lon="100.894759">
<time>2015-09-27T22:23:23Z</time></trkpt>
<trkpt lat="25.330891" lon="100.894579">
<time>2015-09-27T22:23:24Z</time></trkpt>
<trkpt lat="25.330981" lon="100.894429">
<time>2015-09-27T22:23:25Z</time></trkpt>
<trkpt lat="25.331121" lon="100.894319">
<time>2015-09-27T22:23:26Z</time></trkpt>
<trkpt lat="25.331271" lon="100.894259">
<time>2015-09-27T22:23:27Z</time></trkpt>
<trkpt lat="25.331441" lon="100.894269">
<time>2015-09-27T22:23:28Z</time></trkpt>
<trkpt lat="25.331611" lon="100.894289">
<time>2015-09-27T22:23:29Z</time></trkpt>
<trkpt lat="25.331821" lon="100.894369">
<time>2015-09-27T22:23:30Z</time></trkpt>
<trkpt lat="25.331971" lon="100.894369">
<time>2015-09-27T22:23:31Z</time></trkpt>
<trkpt lat="25.332131" lon="100.894339">
<time>2015-09-27T22:23:32Z</time></trkpt>
<trkpt lat="25.332291" lon="100.894259">
<time>2015-09-27T22:23:33Z</time></trkpt>
<trkpt lat="25.332401" lon="100.894079">
<time>2015-09-27T22:23:34Z</time></trkpt>
<trkpt lat="25.332521" lon="100.893919">
<time>2015-09-27T22:23:35Z</time></trkpt>
<trkpt lat="25.332621" lon="100.893719">
<time>2015-09-27T22:23:36Z</time></trkpt>
<trkpt lat="25.332741" lon="100.89355">
<time>2015-09-27T22:23:37Z</time></trkpt>
<trkpt lat="25.33287" lon="100.89337">
<time>2015-09-27T22:23:38Z</time></trkpt>
<trkpt lat="25.333" lon="100.89317">
<time>2015-09-27T22:23:39Z</time></trkpt>
<trkpt lat="25.33312" lon="100.89299">
<time>2015-09-27T22:23:40Z</time></trkpt>
<trkpt lat="25.3332" lon="100.8928">
<time>2015-09-27T22:23:41Z</time></trkpt>
<trkpt lat="25.33326" lon="100.8926">
<time>2015-09-27T22:23:42Z</time></trkpt>
<trkpt lat="25.33335" lon="100.89234">
<time>2015-09-27T22:23:43Z</time></trkpt>
<trkpt lat="25.33342" lon="100.89218">
<time>2015-09-27T22:23:44Z</time></trkpt>
<trkpt lat="25.33353" lon="100.89201">
<time>2015-09-27T22:23:45Z</time></trkpt>
<trkpt lat="25.33367" lon="100.8919">
<time>2015-09-27T22:23:46Z</time></trkpt>
<trkpt lat="25.33386" lon="100.89187">
<time>2015-09-27T22:23:47Z</time></trkpt>
<trkpt lat="25.33403" lon="100.89187">
<time>2015-09-27T22:23:48Z</time></trkpt>
<trkpt lat="25.33422" lon="100.89186">
<time>2015-09-27T22:23:49Z</time></trkpt>
<trkpt lat="25.33441" lon="100.89181">
<time>2015-09-27T22:23:50Z</time></trkpt>
<trkpt lat="25.33457" lon="100.89174">
<time>2015-09-27T22:23:51Z</time></trkpt>
<trkpt lat="25.33472" lon="100.89165">
<time>2015-09-27T22:23:52Z</time></trkpt>
<trkpt lat="25.33485" lon="100.89156">
<time>2015-09-27T22:23:53Z</time></trkpt>
<trkpt lat="25.33497" lon="100.89145">
<time>2015-09-27T22:23:54Z</time></trkpt>
<trkpt lat="25.3351" lon="100.89134">
<time>2015-09-27T22:23:55Z</time></trkpt>
<trkpt lat="25.33524" lon="100.89124">
<time>2015-09-27T22:23:56Z</time></trkpt>
<trkpt lat="25.33538" lon="100.89112">
<time>2015-09-27T22:23:57Z</time></trkpt>
<trkpt lat="25.33553" lon="100.89101">
<time>2015-09-27T22:23:58Z</time></trkpt>
<trkpt lat="25.33568" lon="100.89089">
<time>2015-09-27T22:23:59Z</time></trkpt>
<trkpt lat="25.33583" lon="100.89077">
<time>2015-09-27T22:24:00Z</time></trkpt>
<trkpt lat="25.33598" lon="100.89066">
<time>2015-09-27T22:24:01Z</time></trkpt>
<trkpt lat="25.33616" lon="100.89057">
<time>2015-09-27T22:24:02Z</time></trkpt>
<trkpt lat="25.33634" lon="100.89051">
<time>2015-09-27T22:24:03Z</time></trkpt>
<trkpt lat="25.33651" lon="100.89043">
<time>2015-09-27T22:24:04Z</time></trkpt>
<trkpt lat="25.33664" lon="100.8903">
<time>2015-09-27T22:24:05Z</time></trkpt>
<trkpt lat="25.33675" lon="100.89015">
<time>2015-09-27T22:24:06Z</time></trkpt>
<trkpt lat="25.3369" lon="100.89001">
<time>2015-09-27T22:24:07Z</time></trkpt>
<trkpt lat="25.33707" lon="100.88995">
<time>2015-09-27T22:24:08Z</time></trkpt>
<trkpt lat="25.33725" lon="100.88992">
<time>2015-09-27T22:24:09Z</time></trkpt>
<trkpt lat="25.33741" lon="100.88986">
<time>2015-09-27T22:24:10Z</time></trkpt>
<trkpt lat="25.33752" lon="100.88975">
<time>2015-09-27T22:24:11Z</time></trkpt>
<trkpt lat="25.33763" lon="100.88957">
<time>2015-09-27T22:24:12Z</time></trkpt>
<trkpt lat="25.337669" lon="100.88937">
<time>2015-09-27T22:24:13Z</time></trkpt>
<trkpt lat="25.337709" lon="100.88915">
<time>2015-09-27T22:24:14Z</time></trkpt>
<trkpt lat="25.337729" lon="100.88891">
<time>2015-09-27T22:24:15Z</time></trkpt>
<trkpt lat="25.337719" lon="100.88868">
<time>2015-09-27T22:24:16Z</time></trkpt>
<trkpt lat="25.337699" lon="100.88839">
<time>2015-09-27T22:24:17Z</time></trkpt>
<trkpt lat="25.337669" lon="100.88813">
<time>2015-09-27T22:24:18Z</time></trkpt>
<trkpt lat="25.337639" lon="100.88787">
<time>2015-09-27T22:24:19Z</time></trkpt>
<trkpt lat="25.337609" lon="100.88761">
<time>2015-09-27T22:24:20Z</time></trkpt>
<trkpt lat="25.337578" lon="100.88739">
<time>2015-09-27T22:24:21Z</time></trkpt>
<trkpt lat="25.337608" lon="100.88721">
<time>2015-09-27T22:24:22Z</time></trkpt>
<trkpt lat="25.337718" lon="100.88708">
<time>2015-09-27T22:24:23Z</time></trkpt>
<trkpt lat="25.337888" lon="100.88705">
<time>2015-09-27T22:24:24Z</time></trkpt>
<trkpt lat="25.338018" lon="100.88711">
<time>2015-09-27T22:24:25Z</time></trkpt>
<trkpt lat="25.338138" lon="100.88721">
<time>2015-09-27T22:24:26Z</time></trkpt>
<trkpt lat="25.338258" lon="100.88732">
<time>2015-09-27T22:24:27Z</time></trkpt>
<trkpt lat="25.338389" lon="100.88745">
<time>2015-09-27T22:24:28Z</time></trkpt>
<trkpt lat="25.338529" lon="100.88759">
<time>2015-09-27T22:24:29Z</time></trkpt>
<trkpt lat="25.338679" lon="100.88774">
<time>2015-09-27T22:24:30Z</time></trkpt>
<trkpt lat="25.338839" lon="100.8879">
<time>2015-09-27T22:24:31Z</time></trkpt>
<trkpt lat="25.338999" lon="100.88805">
<time>2015-09-27T22:24:32Z</time></trkpt>
<trkpt lat="25.339169" lon="100.88817">
<time>2015-09-27T22:24:33Z</time></trkpt>
<trkpt lat="25.339349" lon="100.88825">
<time>2015-09-27T22:24:34Z</time></trkpt>
<trkpt lat="25.339539" lon="100.8883">
<time>2015-09-27T22:24:35Z</time></trkpt>
<trkpt lat="25.339649" lon="100.88829">
<time>2015-09-27T22:24:36Z</time></trkpt>
<trkpt lat="25.339759" lon="100.88822">
<time>2015-09-27T22:24:37Z</time></trkpt>
<trkpt lat="25.339859" lon="100.88809">
<time>2015-09-27T22:24:38Z</time></trkpt>
<trkpt lat="25.340009" lon="100.88793">
<time>2015-09-27T22:24:39Z</time></trkpt>
<trkpt lat="25.340109" lon="100.88784">
<time>2015-09-27T22:24:40Z</time></trkpt>
<trkpt lat="25.340119" lon="100.88783">
<time>2015-09-27T22:24:41Z</time></trkpt>
<trkpt lat="25.340299" lon="100.88764">
<time>2015-09-27T22:24:42Z</time></trkpt>
<trkpt lat="25.340429" lon="100.88754">
<time>2015-09-27T22:24:43Z</time></trkpt>
<trkpt lat="25.340509" lon="100.88751">
<time>2015-09-27T22:24:44Z</time></trkpt>
<trkpt lat="25.340589" lon="100.88751">
<time>2015-09-27T22:24:45Z</time></trkpt>
<trkpt lat="25.340719" lon="100.88758">
<time>2015-09-27T22:24:46Z</time></trkpt>
<trkpt lat="25.340839" lon="100.88769">
<time>2015-09-27T22:24:47Z</time></trkpt>
<trkpt lat="25.340959" lon="100.88778">
<time>2015-09-27T22:24:48Z</time></trkpt>
<trkpt lat="25.341089" lon="100.88784">
<time>2015-09-27T22:24:49Z</time></trkpt>
<trkpt lat="25.341219" lon="100.88783">
<time>2015-09-27T22:24:50Z</time></trkpt>
<trkpt lat="25.341339" lon="100.88774">
<time>2015-09-27T22:24:51Z</time></trkpt>
<trkpt lat="25.341429" lon="100.8876">
<time>2015-09-27T22:24:52Z</time></trkpt>
<trkpt lat="25.341509" lon="100.88742">
<time>2015-09-27T22:24:53Z</time></trkpt>
<trkpt lat="25.341609" lon="100.88726">
<time>2015-09-27T22:24:54Z</time></trkpt>
<trkpt lat="25.341679" lon="100.88706">
<time>2015-09-27T22:24:55Z</time></trkpt>
<trkpt lat="25.341709" lon="100.88682">
<time>2015-09-27T22:24:56Z</time></trkpt>
<trkpt lat="25.341688" lon="100.88658">
<time>2015-09-27T22:24:57Z</time></trkpt>
<trkpt lat="25.341648" lon="100.88632">
<time>2015-09-27T22:24:58Z</time></trkpt>
<trkpt lat="25.341598" lon="100.88606">
<time>2015-09-27T22:24:59Z</time></trkpt>
<trkpt lat="25.341588" lon="100.88582">
<time>2015-09-27T22:25:00Z</time></trkpt>
<trkpt lat="25.341628" lon="100.88559">
<time>2015-09-27T22:25:01Z</time></trkpt>
<trkpt lat="25.341718" lon="100.88541">
<time>2015-09-27T22:25:02Z</time></trkpt>
<trkpt lat="25.341748" lon="100.8852">
<time>2015-09-27T22:25:03Z</time></trkpt>
<trkpt lat="25.341737" lon="100.885">
<time>2015-09-27T22:25:04Z</time></trkpt>
<trkpt lat="25.341697" lon="100.88478">
<time>2015-09-27T22:25:05Z</time></trkpt>
<trkpt lat="25.341647" lon="100.88454">
<time>2015-09-27T22:25:06Z</time></trkpt>
<trkpt lat="25.341607" lon="100.88428">
<time>2015-09-27T22:25:07Z</time></trkpt>
<trkpt lat="25.341577" lon="100.884009">
<time>2015-09-27T22:25:08Z</time></trkpt>
<trkpt lat="25.341577" lon="100.883749">
<time>2015-09-27T22:25:09Z</time></trkpt>
<trkpt lat="25.341616" lon="100.883469">
<time>2015-09-27T22:25:10Z</time></trkpt>
<trkpt lat="25.341646" lon="100.883199">
<time>2015-09-27T22:25:11Z</time></trkpt>
<trkpt lat="25.341656" lon="100.882939">
<time>2015-09-27T22:25:12Z</time></trkpt>
<trkpt lat="25.341696" lon="100.882689">
<time>2015-09-27T22:25:13Z</time></trkpt>
<trkpt lat="25.341826" lon="100.882459">
<time>2015-09-27T22:25:14Z</time></trkpt>
<trkpt lat="25.342026" lon="100.882269">
<time>2015-09-27T22:25:15Z</time></trkpt>
<trkpt lat="25.342245" lon="100.882079">
<time>2015-09-27T22:25:16Z</time></trkpt>
<trkpt lat="25.342465" lon="100.881899">
<time>2015-09-27T22:25:17Z</time></trkpt>
<trkpt lat="25.342655" lon="100.881729">
<time>2015-09-27T22:25:18Z</time></trkpt>
<trkpt lat="25.342805" lon="100.881559">
<time>2015-09-27T22:25:19Z</time></trkpt>
<trkpt lat="25.342865" lon="100.881359">
<time>2015-09-27T22:25:20Z</time></trkpt>
<trkpt lat="25.342865" lon="100.881139">
<time>2015-09-27T22:25:21Z</time></trkpt>
<trkpt lat="25.342835" lon="100.880889">
<time>2015-09-27T22:25:22Z</time></trkpt>
<trkpt lat="25.342784" lon="100.880659">
<time>2015-09-27T22:25:23Z</time></trkpt>
<trkpt lat="25.342784" lon="100.880409">
<time>2015-09-27T22:25:24Z</time></trkpt>
<trkpt lat="25.342864" lon="100.880158">
<time>2015-09-27T22:25:25Z</time></trkpt>
<trkpt lat="25.342994" lon="100.879948">
<time>2015-09-27T22:25:26Z</time></trkpt>
<trkpt lat="25.343174" lon="100.879738">
<time>2015-09-27T22:25:27Z</time></trkpt>
<trkpt lat="25.343364" lon="100.879568">
<time>2015-09-27T22:25:28Z</time></trkpt>
<trkpt lat="25.343563" lon="100.879408">
<time>2015-09-27T22:25:29Z</time></trkpt>
<trkpt lat="25.343783" lon="100.879258">
<time>2015-09-27T22:25:30Z</time></trkpt>
<trkpt lat="25.344003" lon="100.879118">
<time>2015-09-27T22:25:31Z</time></trkpt>
<trkpt lat="25.344223" lon="100.878988">
<time>2015-09-27T22:25:32Z</time></trkpt>
<trkpt lat="25.344443" lon="100.878868">
<time>2015-09-27T22:25:33Z</time></trkpt>
<trkpt lat="25.344643" lon="100.878688">
<time>2015-09-27T22:25:34Z</time></trkpt>
<trkpt lat="25.344763" lon="100.878598">
<time>2015-09-27T22:25:35Z</time></trkpt>
<trkpt lat="25.344883" lon="100.878478">
<time>2015-09-27T22:25:36Z</time></trkpt>
<trkpt lat="25.344993" lon="100.878318">
<time>2015-09-27T22:25:37Z</time></trkpt>
<trkpt lat="25.345052" lon="100.878128">
<time>2015-09-27T22:25:38Z</time></trkpt>
<trkpt lat="25.345052" lon="100.877957">
<time>2015-09-27T22:25:39Z</time></trkpt>
<trkpt lat="25.345002" lon="100.877777">
<time>2015-09-27T22:25:40Z</time></trkpt>
<trkpt lat="25.344872" lon="100.877667">
<time>2015-09-27T22:25:41Z</time></trkpt>
<trkpt lat="25.344702" lon="100.877587">
<time>2015-09-27T22:25:42Z</time></trkpt>
<trkpt lat="25.344542" lon="100.877557">
<time>2015-09-27T22:25:43Z</time></trkpt>
<trkpt lat="25.344342" lon="100.877517">
<time>2015-09-27T22:25:44Z</time></trkpt>
<trkpt lat="25.344152" lon="100.877477">
<time>2015-09-27T22:25:45Z</time></trkpt>
<trkpt lat="25.343962" lon="100.877407">
<time>2015-09-27T22:25:46Z</time></trkpt>
<trkpt lat="25.343801" lon="100.877267">
<time>2015-09-27T22:25:47Z</time></trkpt>
<trkpt lat="25.343721" lon="100.877067">
<time>2015-09-27T22:25:48Z</time></trkpt>
<trkpt lat="25.343701" lon="100.876867">
<time>2015-09-27T22:25:49Z</time></trkpt>
<trkpt lat="25.343701" lon="100.876727">
<time>2015-09-27T22:25:50Z</time></trkpt>
<trkpt lat="25.343731" lon="100.876527">
<time>2015-09-27T22:25:51Z</time></trkpt>
<trkpt lat="25.343781" lon="100.876357">
<time>2015-09-27T22:25:52Z</time></trkpt>
<trkpt lat="25.34384" lon="100.876197">
<time>2015-09-27T22:25:53Z</time></trkpt>
<trkpt lat="25.34394" lon="100.876057">
<time>2015-09-27T22:25:54Z</time></trkpt>
<trkpt lat="25.34407" lon="100.875937">
<time>2015-09-27T22:25:55Z</time></trkpt>
<trkpt lat="25.34421" lon="100.875867">
<time>2015-09-27T22:25:56Z</time></trkpt>
<trkpt lat="25.34435" lon="100.875776">
<time>2015-09-27T22:25:57Z</time></trkpt>
<trkpt lat="25.34448" lon="100.875706">
<time>2015-09-27T22:25:58Z</time></trkpt>
<trkpt lat="25.34461" lon="100.875626">
<time>2015-09-27T22:25:59Z</time></trkpt>
<trkpt lat="25.34493" lon="100.875506">
<time>2015-09-27T22:26:00Z</time></trkpt>
<trkpt lat="25.34511" lon="100.875426">
<time>2015-09-27T22:26:01Z</time></trkpt>
<trkpt lat="25.34528" lon="100.875326">
<time>2015-09-27T22:26:02Z</time></trkpt>
<trkpt lat="25.34547" lon="100.875186">
<time>2015-09-27T22:26:03Z</time></trkpt>
<trkpt lat="25.34568" lon="100.875016">
<time>2015-09-27T22:26:04Z</time></trkpt>
<trkpt lat="25.345849" lon="100.874906">
<time>2015-09-27T22:26:05Z</time></trkpt>
<trkpt lat="25.346039" lon="100.874796">
<time>2015-09-27T22:26:06Z</time></trkpt>
<trkpt lat="25.346239" lon="100.874686">
<time>2015-09-27T22:26:07Z</time></trkpt>
<trkpt lat="25.346439" lon="100.874566">
<time>2015-09-27T22:26:08Z</time></trkpt>
<trkpt lat="25.346639" lon="100.874456">
<time>2015-09-27T22:26:09Z</time></trkpt>
<trkpt lat="25.346839" lon="100.874336">
<time>2015-09-27T22:26:10Z</time></trkpt>
<trkpt lat="25.347039" lon="100.874216">
<time>2015-09-27T22:26:11Z</time></trkpt>
<trkpt lat="25.347229" lon="100.874105">
<time>2015-09-27T22:26:12Z</time></trkpt>
<trkpt lat="25.347429" lon="100.874035">
<time>2015-09-27T22:26:13Z</time></trkpt>
<trkpt lat="25.347649" lon="100.874015">
<time>2015-09-27T22:26:14Z</time></trkpt>
<trkpt lat="25.347879" lon="100.874045">
<time>2015-09-27T22:26:15Z</time></trkpt>
<trkpt lat="25.348119" lon="100.874075">
<time>2015-09-27T22:26:16Z</time></trkpt>
<trkpt lat="25.348369" lon="100.874085">
<time>2015-09-27T22:26:17Z</time></trkpt>
<trkpt lat="25.348619" lon="100.874095">
<time>2015-09-27T22:26:18Z</time></trkpt>
<trkpt lat="25.348859" lon="100.874115">
<time>2015-09-27T22:26:19Z</time></trkpt>
<trkpt lat="25.349099" lon="100.874135">
<time>2015-09-27T22:26:20Z</time></trkpt>
<trkpt lat="25.349329" lon="100.874145">
<time>2015-09-27T22:26:21Z</time></trkpt>
<trkpt lat="25.349539" lon="100.874155">
<time>2015-09-27T22:26:22Z</time></trkpt>
<trkpt lat="25.349729" lon="100.874105">
<time>2015-09-27T22:26:23Z</time></trkpt>
<trkpt lat="25.349859" lon="100.873965">
<time>2015-09-27T22:26:24Z</time></trkpt>
<trkpt lat="25.349969" lon="100.873785">
<time>2015-09-27T22:26:25Z</time></trkpt>
<trkpt lat="25.350059" lon="100.873625">
<time>2015-09-27T22:26:26Z</time></trkpt>
<trkpt lat="25.350148" lon="100.873445">
<time>2015-09-27T22:26:27Z</time></trkpt>
<trkpt lat="25.350238" lon="100.873285">
<time>2015-09-27T22:26:28Z</time></trkpt>
<trkpt lat="25.350328" lon="100.873125">
<time>2015-09-27T22:26:29Z</time></trkpt>
<trkpt lat="25.350418" lon="100.872975">
<time>2015-09-27T22:26:30Z</time></trkpt>
<trkpt lat="25.350518" lon="100.872825">
<time>2015-09-27T22:26:31Z</time></trkpt>
<trkpt lat="25.350628" lon="100.872674">
<time>2015-09-27T22:26:32Z</time></trkpt>
<trkpt lat="25.350748" lon="100.872534">
<time>2015-09-27T22:26:33Z</time></trkpt>
<trkpt lat="25.350887" lon="100.872404">
<time>2015-09-27T22:26:34Z</time></trkpt>
<trkpt lat="25.351047" lon="100.872254">
<time>2015-09-27T22:26:35Z</time></trkpt>
<trkpt lat="25.351207" lon="100.872104">
<time>2015-09-27T22:26:36Z</time></trkpt>
<trkpt lat="25.351387" lon="100.871954">
<time>2015-09-27T22:26:37Z</time></trkpt>
<trkpt lat="25.351577" lon="100.871794">
<time>2015-09-27T22:26:38Z</time></trkpt>
<trkpt lat="25.351767" lon="100.871634">
<time>2015-09-27T22:26:39Z</time></trkpt>
<trkpt lat="25.351987" lon="100.871494">
<time>2015-09-27T22:26:40Z</time></trkpt>
<trkpt lat="25.352216" lon="100.871384">
<time>2015-09-27T22:26:41Z</time></trkpt>
<trkpt lat="25.352446" lon="100.871254">
<time>2015-09-27T22:26:42Z</time></trkpt>
<trkpt lat="25.352666" lon="100.871093">
<time>2015-09-27T22:26:43Z</time></trkpt>
<trkpt lat="25.352876" lon="100.870923">
<time>2015-09-27T22:26:44Z</time></trkpt>
<trkpt lat="25.353086" lon="100.870803">
<time>2015-09-27T22:26:45Z</time></trkpt>
<trkpt lat="25.353316" lon="100.870803">
<time>2015-09-27T22:26:46Z</time></trkpt>
<trkpt lat="25.353476" lon="100.870903">
<time>2015-09-27T22:26:47Z</time></trkpt>
<trkpt lat="25.353566" lon="100.871013">
<time>2015-09-27T22:26:48Z</time></trkpt>
<trkpt lat="25.353686" lon="100.871193">
<time>2015-09-27T22:26:49Z</time></trkpt>
<trkpt lat="25.353847" lon="100.871314">
<time>2015-09-27T22:26:50Z</time></trkpt>
<trkpt lat="25.354017" lon="100.871293">
<time>2015-09-27T22:26:51Z</time></trkpt>
<trkpt lat="25.354086" lon="100.871233">
<time>2015-09-27T22:26:52Z</time></trkpt>
<trkpt lat="25.354146" lon="100.871183">
<time>2015-09-27T22:26:53Z</time></trkpt>
<trkpt lat="25.354266" lon="100.871063">
<time>2015-09-27T22:26:54Z</time></trkpt>
<trkpt lat="25.354396" lon="100.870953">
<time>2015-09-27T22:26:55Z</time></trkpt>
<trkpt lat="25.354536" lon="100.870883">
<time>2015-09-27T22:26:56Z</time></trkpt>
<trkpt lat="25.354676" lon="100.870833">
<time>2015-09-27T22:26:57Z</time></trkpt>
<trkpt lat="25.354826" lon="100.870803">
<time>2015-09-27T22:26:58Z</time></trkpt>
<trkpt lat="25.354976" lon="100.870803">
<time>2015-09-27T22:26:59Z</time></trkpt>
<trkpt lat="25.355126" lon="100.870823">
<time>2015-09-27T22:27:00Z</time></trkpt>
<trkpt lat="25.355336" lon="100.870903">
<time>2015-09-27T22:27:01Z</time></trkpt>
<trkpt lat="25.355486" lon="100.871043">
<time>2015-09-27T22:27:02Z</time></trkpt>
<trkpt lat="25.355637" lon="100.871183">
<time>2015-09-27T22:27:03Z</time></trkpt>
<trkpt lat="25.355787" lon="100.871343">
<time>2015-09-27T22:27:04Z</time></trkpt>
<trkpt lat="25.355957" lon="100.871484">
<time>2015-09-27T22:27:05Z</time></trkpt>
<trkpt lat="25.356117" lon="100.871634">
<time>2015-09-27T22:27:06Z</time></trkpt>
<trkpt lat="25.356277" lon="100.871794">
<time>2015-09-27T22:27:07Z</time></trkpt>
<trkpt lat="25.356428" lon="100.871934">
<time>2015-09-27T22:27:08Z</time></trkpt>
<trkpt lat="25.356598" lon="100.871994">
<time>2015-09-27T22:27:09Z</time></trkpt>
<trkpt lat="25.356758" lon="100.871924">
<time>2015-09-27T22:27:10Z</time></trkpt>
<trkpt lat="25.356867" lon="100.871764">
<time>2015-09-27T22:27:11Z</time></trkpt>
<trkpt lat="25.356947" lon="100.871604">
<time>2015-09-27T22:27:12Z</time></trkpt>
<trkpt lat="25.357027" lon="100.871424">
<time>2015-09-27T22:27:13Z</time></trkpt>
<trkpt lat="25.357107" lon="100.871243">
<time>2015-09-27T22:27:14Z</time></trkpt>
<trkpt lat="25.357187" lon="100.871053">
<time>2015-09-27T22:27:15Z</time></trkpt>
<trkpt lat="25.357277" lon="100.870863">
<time>2015-09-27T22:27:16Z</time></trkpt>
<trkpt lat="25.357416" lon="100.870703">
<time>2015-09-27T22:27:17Z</time></trkpt>
<trkpt lat="25.357576" lon="100.870553">
<time>2015-09-27T22:27:18Z</time></trkpt>
<trkpt lat="25.357746" lon="100.870393">
<time>2015-09-27T22:27:19Z</time></trkpt>
<trkpt lat="25.357916" lon="100.870233">
<time>2015-09-27T22:27:20Z</time></trkpt>
<trkpt lat="25.358086" lon="100.870073">
<time>2015-09-27T22:27:21Z</time></trkpt>
<trkpt lat="25.358276" lon="100.869932">
<time>2015-09-27T22:27:22Z</time></trkpt>
<trkpt lat="25.358485" lon="100.869812">
<time>2015-09-27T22:27:23Z</time></trkpt>
<trkpt lat="25.358685" lon="100.869682">
<time>2015-09-27T22:27:24Z</time></trkpt>
<trkpt lat="25.358875" lon="100.869562">
<time>2015-09-27T22:27:25Z</time></trkpt>
<trkpt lat="25.359075" lon="100.869442">
<time>2015-09-27T22:27:26Z</time></trkpt>
<trkpt lat="25.359275" lon="100.869362">
<time>2015-09-27T22:27:27Z</time></trkpt>
<trkpt lat="25.359485" lon="100.869322">
<time>2015-09-27T22:27:28Z</time></trkpt>
<trkpt lat="25.359715" lon="100.869322">
<time>2015-09-27T22:27:29Z</time></trkpt>
<trkpt lat="25.359925" lon="100.869322">
<time>2015-09-27T22:27:30Z</time></trkpt>
<trkpt lat="25.360125" lon="100.869272">
<time>2015-09-27T22:27:31Z</time></trkpt>
<trkpt lat="25.360265" lon="100.869132">
<time>2015-09-27T22:27:32Z</time></trkpt>
<trkpt lat="25.360325" lon="100.868942">
<time>2015-09-27T22:27:33Z</time></trkpt>
<trkpt lat="25.360334" lon="100.868731">
<time>2015-09-27T22:27:34Z</time></trkpt>
<trkpt lat="25.360364" lon="100.868521">
<time>2015-09-27T22:27:35Z</time></trkpt>
<trkpt lat="25.360424" lon="100.868331">
<time>2015-09-27T22:27:36Z</time></trkpt>
<trkpt lat="25.360504" lon="100.868141">
<time>2015-09-27T22:27:37Z</time></trkpt>
<trkpt lat="25.360593" lon="100.867951">
<time>2015-09-27T22:27:38Z</time></trkpt>
<trkpt lat="25.360683" lon="100.867751">
<time>2015-09-27T22:27:39Z</time></trkpt>
<trkpt lat="25.360753" lon="100.86753">
<time>2015-09-27T22:27:40Z</time></trkpt>
<trkpt lat="25.360833" lon="100.86736">
<time>2015-09-27T22:27:41Z</time></trkpt>
<trkpt lat="25.360942" lon="100.86712">
<time>2015-09-27T22:27:42Z</time></trkpt>
<trkpt lat="25.361042" lon="100.86691">
<time>2015-09-27T22:27:43Z</time></trkpt>
<trkpt lat="25.361152" lon="100.86669">
<time>2015-09-27T22:27:44Z</time></trkpt>
<trkpt lat="25.361252" lon="100.86647">
<time>2015-09-27T22:27:45Z</time></trkpt>
<trkpt lat="25.361361" lon="100.866249">
<time>2015-09-27T22:27:46Z</time></trkpt>
<trkpt lat="25.361441" lon="100.865999">
<time>2015-09-27T22:27:47Z</time></trkpt>
<trkpt lat="25.361491" lon="100.865809">
<time>2015-09-27T22:27:48Z</time></trkpt>
<trkpt lat="25.361501" lon="100.865739">
<time>2015-09-27T22:27:49Z</time></trkpt>
<trkpt lat="25.36153" lon="100.865469">
<time>2015-09-27T22:27:50Z</time></trkpt>
<trkpt lat="25.36154" lon="100.865188">
<time>2015-09-27T22:27:51Z</time></trkpt>
<trkpt lat="25.36157" lon="100.864898">
<time>2015-09-27T22:27:52Z</time></trkpt>
<trkpt lat="25.361579" lon="100.864608">
<time>2015-09-27T22:27:53Z</time></trkpt>
<trkpt lat="25.361599" lon="100.864308">
<time>2015-09-27T22:27:54Z</time></trkpt>
<trkpt lat="25.361609" lon="100.864067">
<time>2015-09-27T22:27:55Z</time></trkpt>
<trkpt lat="25.361648" lon="100.863837">
<time>2015-09-27T22:27:56Z</time></trkpt>
<trkpt lat="25.361648" lon="100.863617">
<time>2015-09-27T22:27:57Z</time></trkpt>
<trkpt lat="25.361618" lon="100.863387">
<time>2015-09-27T22:27:58Z</time></trkpt>
<trkpt lat="25.361627" lon="100.863127">
<time>2015-09-27T22:27:59Z</time></trkpt>
<trkpt lat="25.361637" lon="100.862856">
<time>2015-09-27T22:28:00Z</time></trkpt>
<trkpt lat="25.361666" lon="100.862556">
<time>2015-09-27T22:28:01Z</time></trkpt>
<trkpt lat="25.361706" lon="100.862276">
<time>2015-09-27T22:28:02Z</time></trkpt>
<trkpt lat="25.361726" lon="100.862005">
<time>2015-09-27T22:28:03Z</time></trkpt>
<trkpt lat="25.361726" lon="100.861945">
<time>2015-09-27T22:28:04Z</time></trkpt>
<trkpt lat="25.361795" lon="100.861625">
<time>2015-09-27T22:28:05Z</time></trkpt>
<trkpt lat="25.361815" lon="100.861315">
<time>2015-09-27T22:28:06Z</time></trkpt>
<trkpt lat="25.361824" lon="100.861034">
<time>2015-09-27T22:28:07Z</time></trkpt>
<trkpt lat="25.361854" lon="100.860774">
<time>2015-09-27T22:28:08Z</time></trkpt>
<trkpt lat="25.361874" lon="100.860524">
<time>2015-09-27T22:28:09Z</time></trkpt>
<trkpt lat="25.361893" lon="100.860264">
<time>2015-09-27T22:28:10Z</time></trkpt>
<trkpt lat="25.361913" lon="100.860003">
<time>2015-09-27T22:28:11Z</time></trkpt>
<trkpt lat="25.361922" lon="100.859743">
<time>2015-09-27T22:28:12Z</time></trkpt>
<trkpt lat="25.361932" lon="100.859483">
<time>2015-09-27T22:28:13Z</time></trkpt>
<trkpt lat="25.361952" lon="100.859233">
<time>2015-09-27T22:28:14Z</time></trkpt>
<trkpt lat="25.361961" lon="100.858972">
<time>2015-09-27T22:28:15Z</time></trkpt>
<trkpt lat="25.361981" lon="100.858722">
<time>2015-09-27T22:28:16Z</time></trkpt>
<trkpt lat="25.361991" lon="100.858462">
<time>2015-09-27T22:28:17Z</time></trkpt>
<trkpt lat="25.362" lon="100.858211">
<time>2015-09-27T22:28:18Z</time></trkpt>
<trkpt lat="25.36204" lon="100.857941">
<time>2015-09-27T22:28:19Z</time></trkpt>
<trkpt lat="25.362079" lon="100.857681">
<time>2015-09-27T22:28:20Z</time></trkpt>
<trkpt lat="25.362129" lon="100.857451">
<time>2015-09-27T22:28:21Z</time></trkpt>
<trkpt lat="25.362209" lon="100.8572">
<time>2015-09-27T22:28:22Z</time></trkpt>
<trkpt lat="25.362288" lon="100.85695">
<time>2015-09-27T22:28:23Z</time></trkpt>
<trkpt lat="25.362368" lon="100.85672">
<time>2015-09-27T22:28:24Z</time></trkpt>
<trkpt lat="25.362458" lon="100.85649">
<time>2015-09-27T22:28:25Z</time></trkpt>
<trkpt lat="25.362517" lon="100.856319">
<time>2015-09-27T22:28:26Z</time></trkpt>
<trkpt lat="25.362537" lon="100.856259">
<time>2015-09-27T22:28:27Z</time></trkpt>
<trkpt lat="25.362617" lon="100.856029">
<time>2015-09-27T22:28:28Z</time></trkpt>
<trkpt lat="25.362697" lon="100.855809">
<time>2015-09-27T22:28:29Z</time></trkpt>
<trkpt lat="25.362786" lon="100.855599">
<time>2015-09-27T22:28:30Z</time></trkpt>
<trkpt lat="25.362896" lon="100.855378">
<time>2015-09-27T22:28:31Z</time></trkpt>
<trkpt lat="25.363016" lon="100.855178">
<time>2015-09-27T22:28:32Z</time></trkpt>
<trkpt lat="25.363155" lon="100.854978">
<time>2015-09-27T22:28:33Z</time></trkpt>
<trkpt lat="25.363285" lon="100.854768">
<time>2015-09-27T22:28:34Z</time></trkpt>
<trkpt lat="25.363435" lon="100.854567">
<time>2015-09-27T22:28:35Z</time></trkpt>
<trkpt lat="25.363564" lon="100.854397">
<time>2015-09-27T22:28:36Z</time></trkpt>
<trkpt lat="25.363674" lon="100.854237">
<time>2015-09-27T22:28:37Z</time></trkpt>
<trkpt lat="25.363774" lon="100.854087">
<time>2015-09-27T22:28:38Z</time></trkpt>
<trkpt lat="25.363874" lon="100.853947">
<time>2015-09-27T22:28:39Z</time></trkpt>
<trkpt lat="25.363994" lon="100.853836">
<time>2015-09-27T22:28:40Z</time></trkpt>
<trkpt lat="25.364123" lon="100.853726">
<time>2015-09-27T22:28:41Z</time></trkpt>
<trkpt lat="25.364273" lon="100.853646">
<time>2015-09-27T22:28:42Z</time></trkpt>
<trkpt lat="25.364433" lon="100.853586">
<time>2015-09-27T22:28:43Z</time></trkpt>
<trkpt lat="25.364593" lon="100.853536">
<time>2015-09-27T22:28:44Z</time></trkpt>
<trkpt lat="25.364753" lon="100.853486">
<time>2015-09-27T22:28:45Z</time></trkpt>
<trkpt lat="25.364903" lon="100.853416">
<time>2015-09-27T22:28:46Z</time></trkpt>
<trkpt lat="25.365063" lon="100.853356">
<time>2015-09-27T22:28:47Z</time></trkpt>
<trkpt lat="25.365223" lon="100.853276">
<time>2015-09-27T22:28:48Z</time></trkpt>
<trkpt lat="25.365363" lon="100.853196">
<time>2015-09-27T22:28:49Z</time></trkpt>
<trkpt lat="25.365493" lon="100.853125">
<time>2015-09-27T22:28:50Z</time></trkpt>
<trkpt lat="25.365633" lon="100.853055">
<time>2015-09-27T22:28:51Z</time></trkpt>
<trkpt lat="25.365772" lon="100.852965">
<time>2015-09-27T22:28:52Z</time></trkpt>
<trkpt lat="25.365902" lon="100.852875">
<time>2015-09-27T22:28:53Z</time></trkpt>
<trkpt lat="25.366052" lon="100.852815">
<time>2015-09-27T22:28:54Z</time></trkpt>
<trkpt lat="25.366222" lon="100.852775">
<time>2015-09-27T22:28:55Z</time></trkpt>
<trkpt lat="25.366422" lon="100.852755">
<time>2015-09-27T22:28:56Z</time></trkpt>
<trkpt lat="25.366602" lon="100.852715">
<time>2015-09-27T22:28:57Z</time></trkpt>
<trkpt lat="25.366772" lon="100.852655">
<time>2015-09-27T22:28:58Z</time></trkpt>
<trkpt lat="25.366932" lon="100.852575">
<time>2015-09-27T22:28:59Z</time></trkpt>
<trkpt lat="25.367062" lon="100.852465">
<time>2015-09-27T22:29:00Z</time></trkpt>
<trkpt lat="25.367132" lon="100.852314">
<time>2015-09-27T22:29:01Z</time></trkpt>
<trkpt lat="25.367261" lon="100.852194">
<time>2015-09-27T22:29:02Z</time></trkpt>
<trkpt lat="25.367391" lon="100.852104">
<time>2015-09-27T22:29:03Z</time></trkpt>
<trkpt lat="25.367541" lon="100.852034">
<time>2015-09-27T22:29:04Z</time></trkpt>
<trkpt lat="25.367711" lon="100.852004">
<time>2015-09-27T22:29:05Z</time></trkpt>
<trkpt lat="25.367891" lon="100.852024">
<time>2015-09-27T22:29:06Z</time></trkpt>
<trkpt lat="25.368061" lon="100.852044">
<time>2015-09-27T22:29:07Z</time></trkpt>
<trkpt lat="25.368241" lon="100.852044">
<time>2015-09-27T22:29:08Z</time></trkpt>
<trkpt lat="25.368421" lon="100.852024">
<time>2015-09-27T22:29:09Z</time></trkpt>
<trkpt lat="25.368591" lon="100.851974">
<time>2015-09-27T22:29:10Z</time></trkpt>
<trkpt lat="25.368751" lon="100.851894">
<time>2015-09-27T22:29:11Z</time></trkpt>
<trkpt lat="25.368901" lon="100.851804">
<time>2015-09-27T22:29:12Z</time></trkpt>
<trkpt lat="25.369041" lon="100.851694">
<time>2015-09-27T22:29:13Z</time></trkpt>
<trkpt lat="25.369161" lon="100.851553">
<time>2015-09-27T22:29:14Z</time></trkpt>
<trkpt lat="25.36926" lon="100.851393">
<time>2015-09-27T22:29:15Z</time></trkpt>
<trkpt lat="25.36935" lon="100.851203">
<time>2015-09-27T22:29:16Z</time></trkpt>
<trkpt lat="25.36941" lon="100.851013">
<time>2015-09-27T22:29:17Z</time></trkpt>
<trkpt lat="25.36947" lon="100.850843">
<time>2015-09-27T22:29:18Z</time></trkpt>
<trkpt lat="25.369529" lon="100.850672">
<time>2015-09-27T22:29:19Z</time></trkpt>
<trkpt lat="25.369649" lon="100.850392">
<time>2015-09-27T22:29:20Z</time></trkpt>
<trkpt lat="25.369708" lon="100.850192">
<time>2015-09-27T22:29:21Z</time></trkpt>
<trkpt lat="25.369768" lon="100.850001">
<time>2015-09-27T22:29:22Z</time></trkpt>
<trkpt lat="25.369828" lon="100.849831">
<time>2015-09-27T22:29:23Z</time></trkpt>
<trkpt lat="25.369908" lon="100.849671">
<time>2015-09-27T22:29:24Z</time></trkpt>
<trkpt lat="25.370017" lon="100.849541">
<time>2015-09-27T22:29:25Z</time></trkpt>
<trkpt lat="25.370147" lon="100.849441">
<time>2015-09-27T22:29:26Z</time></trkpt>
<trkpt lat="25.370317" lon="100.849401">
<time>2015-09-27T22:29:27Z</time></trkpt>
<trkpt lat="25.370487" lon="100.849401">
<time>2015-09-27T22:29:28Z</time></trkpt>
<trkpt lat="25.370667" lon="100.849411">
<time>2015-09-27T22:29:29Z</time></trkpt>
<trkpt lat="25.370837" lon="100.849431">
<time>2015-09-27T22:29:30Z</time></trkpt>
<trkpt lat="25.370997" lon="100.849431">
<time>2015-09-27T22:29:31Z</time></trkpt>
<trkpt lat="25.371157" lon="100.849421">
<time>2015-09-27T22:29:32Z</time></trkpt>
<trkpt lat="25.371317" lon="100.849381">
<time>2015-09-27T22:29:33Z</time></trkpt>
<trkpt lat="25.371457" lon="100.84929">
<time>2015-09-27T22:29:34Z</time></trkpt>
<trkpt lat="25.371597" lon="100.84917">
<time>2015-09-27T22:29:35Z</time></trkpt>
<trkpt lat="25.371717" lon="100.84901">
<time>2015-09-27T22:29:36Z</time></trkpt>
<trkpt lat="25.371857" lon="100.84884">
<time>2015-09-27T22:29:37Z</time></trkpt>
<trkpt lat="25.372006" lon="100.84867">
<time>2015-09-27T22:29:38Z</time></trkpt>
<trkpt lat="25.372166" lon="100.848519">
<time>2015-09-27T22:29:39Z</time></trkpt>
<trkpt lat="25.372356" lon="100.848399">
<time>2015-09-27T22:29:40Z</time></trkpt>
<trkpt lat="25.372576" lon="100.848329">
<time>2015-09-27T22:29:41Z</time></trkpt>
<trkpt lat="25.372806" lon="100.848299">
<time>2015-09-27T22:29:42Z</time></trkpt>
<trkpt lat="25.373036" lon="100.848289">
<time>2015-09-27T22:29:43Z</time></trkpt>
<trkpt lat="25.373266" lon="100.848269">
<time>2015-09-27T22:29:44Z</time></trkpt>
<trkpt lat="25.373486" lon="100.848299">
<time>2015-09-27T22:29:45Z</time></trkpt>
<trkpt lat="25.373706" lon="100.848399">
<time>2015-09-27T22:29:46Z</time></trkpt>
<trkpt lat="25.373906" lon="100.848549">
<time>2015-09-27T22:29:47Z</time></trkpt>
<trkpt lat="25.374127" lon="100.84871">
<time>2015-09-27T22:29:48Z</time></trkpt>
<trkpt lat="25.374337" lon="100.84887">
<time>2015-09-27T22:29:49Z</time></trkpt>
<trkpt lat="25.374547" lon="100.84902">
<time>2015-09-27T22:29:50Z</time></trkpt>
<trkpt lat="25.374577" lon="100.84903">
<time>2015-09-27T22:29:51Z</time></trkpt>
<trkpt lat="25.374758" lon="100.84916">
<time>2015-09-27T22:29:52Z</time></trkpt>
<trkpt lat="25.374988" lon="100.84924">
<time>2015-09-27T22:29:53Z</time></trkpt>
<trkpt lat="25.375228" lon="100.84926">
<time>2015-09-27T22:29:54Z</time></trkpt>
<trkpt lat="25.375438" lon="100.84927">
<time>2015-09-27T22:29:55Z</time></trkpt>
<trkpt lat="25.375458" lon="100.84927">
<time>2015-09-27T22:29:56Z</time></trkpt>
<trkpt lat="25.375698" lon="100.84925">
<time>2015-09-27T22:29:57Z</time></trkpt>
<trkpt lat="25.375938" lon="100.8492">
<time>2015-09-27T22:29:58Z</time></trkpt>
<trkpt lat="25.376168" lon="100.84908">
<time>2015-09-27T22:29:59Z</time></trkpt>
<trkpt lat="25.376418" lon="100.84899">
<time>2015-09-27T22:30:00Z</time></trkpt>
<trkpt lat="25.376677" lon="100.84881">
<time>2015-09-27T22:30:01Z</time></trkpt>
<trkpt lat="25.376937" lon="100.84865">
<time>2015-09-27T22:30:02Z</time></trkpt>
<trkpt lat="25.377157" lon="100.848479">
<time>2015-09-27T22:30:03Z</time></trkpt>
<trkpt lat="25.377377" lon="100.848299">
<time>2015-09-27T22:30:04Z</time></trkpt>
<trkpt lat="25.377556" lon="100.848159">
<time>2015-09-27T22:30:05Z</time></trkpt>
<trkpt lat="25.377796" lon="100.847989">
<time>2015-09-27T22:30:06Z</time></trkpt>
<trkpt lat="25.378146" lon="100.847848">
<time>2015-09-27T22:30:07Z</time></trkpt>
<trkpt lat="25.378386" lon="100.847728">
<time>2015-09-27T22:30:08Z</time></trkpt>
<trkpt lat="25.378626" lon="100.847648">
<time>2015-09-27T22:30:09Z</time></trkpt>
<trkpt lat="25.378866" lon="100.847588">
<time>2015-09-27T22:30:10Z</time></trkpt>
<trkpt lat="25.379075" lon="100.847538">
<time>2015-09-27T22:30:11Z</time></trkpt>
<trkpt lat="25.379195" lon="100.847518">
<time>2015-09-27T22:30:12Z</time></trkpt>
<trkpt lat="25.379275" lon="100.847488">
<time>2015-09-27T22:30:13Z</time></trkpt>
<trkpt lat="25.379395" lon="100.847438">
<time>2015-09-27T22:30:14Z</time></trkpt>
<trkpt lat="25.379535" lon="100.847388">
<time>2015-09-27T22:30:15Z</time></trkpt>
<trkpt lat="25.379705" lon="100.847328">
<time>2015-09-27T22:30:16Z</time></trkpt>
<trkpt lat="25.379885" lon="100.847268">
<time>2015-09-27T22:30:17Z</time></trkpt>
<trkpt lat="25.380065" lon="100.847208">
<time>2015-09-27T22:30:18Z</time></trkpt>
<trkpt lat="25.380255" lon="100.847087">
<time>2015-09-27T22:30:19Z</time></trkpt>
<trkpt lat="25.380445" lon="100.846977">
<time>2015-09-27T22:30:20Z</time></trkpt>
<trkpt lat="25.380655" lon="100.846877">
<time>2015-09-27T22:30:21Z</time></trkpt>
<trkpt lat="25.380854" lon="100.846767">
<time>2015-09-27T22:30:22Z</time></trkpt>
<trkpt lat="25.381054" lon="100.846597">
<time>2015-09-27T22:30:23Z</time></trkpt>
<trkpt lat="25.381264" lon="100.846416">
<time>2015-09-27T22:30:24Z</time></trkpt>
<trkpt lat="25.381454" lon="100.846286">
<time>2015-09-27T22:30:25Z</time></trkpt>
<trkpt lat="25.381464" lon="100.846276">
<time>2015-09-27T22:30:26Z</time></trkpt>
<trkpt lat="25.381683" lon="100.846106">
<time>2015-09-27T22:30:27Z</time></trkpt>
<trkpt lat="25.381763" lon="100.846026">
<time>2015-09-27T22:30:28Z</time></trkpt>
<trkpt lat="25.381883" lon="100.845926">
<time>2015-09-27T22:30:29Z</time></trkpt>
<trkpt lat="25.382133" lon="100.845756">
<time>2015-09-27T22:30:30Z</time></trkpt>
<trkpt lat="25.382393" lon="100.845535">
<time>2015-09-27T22:30:31Z</time></trkpt>
<trkpt lat="25.382612" lon="100.845375">
<time>2015-09-27T22:30:32Z</time></trkpt>
<trkpt lat="25.382822" lon="100.845225">
<time>2015-09-27T22:30:33Z</time></trkpt>
<trkpt lat="25.383042" lon="100.845075">
<time>2015-09-27T22:30:34Z</time></trkpt>
<trkpt lat="25.383232" lon="100.844954">
<time>2015-09-27T22:30:35Z</time></trkpt>
<trkpt lat="25.383392" lon="100.844864">
<time>2015-09-27T22:30:36Z</time></trkpt>
<trkpt lat="25.383571" lon="100.844754">
<time>2015-09-27T22:30:37Z</time></trkpt>
<trkpt lat="25.383781" lon="100.844714">
<time>2015-09-27T22:30:38Z</time></trkpt>
<trkpt lat="25.383971" lon="100.844724">
<time>2015-09-27T22:30:39Z</time></trkpt>
<trkpt lat="25.384191" lon="100.844734">
<time>2015-09-27T22:30:40Z</time></trkpt>
<trkpt lat="25.384351" lon="100.844704">
<time>2015-09-27T22:30:41Z</time></trkpt>
<trkpt lat="25.384491" lon="100.844634">
<time>2015-09-27T22:30:42Z</time></trkpt>
<trkpt lat="25.384601" lon="100.844514">
<time>2015-09-27T22:30:43Z</time></trkpt>
<trkpt lat="25.384681" lon="100.844354">
<time>2015-09-27T22:30:44Z</time></trkpt>
<trkpt lat="25.384731" lon="100.844183">
<time>2015-09-27T22:30:45Z</time></trkpt>
<trkpt lat="25.38477" lon="100.843993">
<time>2015-09-27T22:30:46Z</time></trkpt>
<trkpt lat="25.38485" lon="100.843783">
<time>2015-09-27T22:30:47Z</time></trkpt>
<trkpt lat="25.38496" lon="100.843643">
<time>2015-09-27T22:30:48Z</time></trkpt>
<trkpt lat="25.385069" lon="100.843472">
<time>2015-09-27T22:30:49Z</time></trkpt>
<trkpt lat="25.385179" lon="100.843322">
<time>2015-09-27T22:30:50Z</time></trkpt>
<trkpt lat="25.385259" lon="100.843162">
<time>2015-09-27T22:30:51Z</time></trkpt>
<trkpt lat="25.385358" lon="100.842881">
<time>2015-09-27T22:30:52Z</time></trkpt>
<trkpt lat="25.385418" lon="100.842681">
<time>2015-09-27T22:30:53Z</time></trkpt>
<trkpt lat="25.385438" lon="100.842561">
<time>2015-09-27T22:30:54Z</time></trkpt>
<trkpt lat="25.385397" lon="100.842391">
<time>2015-09-27T22:30:55Z</time></trkpt>
<trkpt lat="25.385317" lon="100.842271">
<time>2015-09-27T22:30:56Z</time></trkpt>
<trkpt lat="25.385197" lon="100.84217">
<time>2015-09-27T22:30:57Z</time></trkpt>
<trkpt lat="25.385077" lon="100.84204">
<time>2015-09-27T22:30:58Z</time></trkpt>
<trkpt lat="25.385006" lon="100.84186">
<time>2015-09-27T22:30:59Z</time></trkpt>
<trkpt lat="25.384976" lon="100.84163">
<time>2015-09-27T22:31:00Z</time></trkpt>
<trkpt lat="25.384946" lon="100.841419">
<time>2015-09-27T22:31:01Z</time></trkpt>
<trkpt lat="25.384925" lon="100.841209">
<time>2015-09-27T22:31:02Z</time></trkpt>
<trkpt lat="25.384925" lon="100.840999">
<time>2015-09-27T22:31:03Z</time></trkpt>
<trkpt lat="25.384954" lon="100.840748">
<time>2015-09-27T22:31:04Z</time></trkpt>
<trkpt lat="25.385004" lon="100.840498">
<time>2015-09-27T22:31:05Z</time></trkpt>
<trkpt lat="25.385034" lon="100.840238">
<time>2015-09-27T22:31:06Z</time></trkpt>
<trkpt lat="25.385093" lon="100.840017">
<time>2015-09-27T22:31:07Z</time></trkpt>
<trkpt lat="25.385193" lon="100.839757">
<time>2015-09-27T22:31:08Z</time></trkpt>
<trkpt lat="25.385262" lon="100.839507">
<time>2015-09-27T22:31:09Z</time></trkpt>
<trkpt lat="25.385352" lon="100.839266">
<time>2015-09-27T22:31:10Z</time></trkpt>
<trkpt lat="25.385441" lon="100.839066">
<time>2015-09-27T22:31:11Z</time></trkpt>
<trkpt lat="25.385541" lon="100.838906">
<time>2015-09-27T22:31:12Z</time></trkpt>
<trkpt lat="25.385681" lon="100.838735">
<time>2015-09-27T22:31:13Z</time></trkpt>
<trkpt lat="25.385831" lon="100.838605">
<time>2015-09-27T22:31:14Z</time></trkpt>
<trkpt lat="25.38598" lon="100.838485">
<time>2015-09-27T22:31:15Z</time></trkpt>
<trkpt lat="25.38615" lon="100.838385">
<time>2015-09-27T22:31:16Z</time></trkpt>
<trkpt lat="25.38632" lon="100.838305">
<time>2015-09-27T22:31:17Z</time></trkpt>
<trkpt lat="25.38651" lon="100.838235">
<time>2015-09-27T22:31:18Z</time></trkpt>
<trkpt lat="25.38667" lon="100.838135">
<time>2015-09-27T22:31:19Z</time></trkpt>
<trkpt lat="25.38684" lon="100.838004">
<time>2015-09-27T22:31:20Z</time></trkpt>
<trkpt lat="25.38699" lon="100.837864">
<time>2015-09-27T22:31:21Z</time></trkpt>
<trkpt lat="25.387119" lon="100.837724">
<time>2015-09-27T22:31:22Z</time></trkpt>
<trkpt lat="25.387209" lon="100.837644">
<time>2015-09-27T22:31:23Z</time></trkpt>
<trkpt lat="25.387259" lon="100.837594">
<time>2015-09-27T22:31:24Z</time></trkpt>
<trkpt lat="25.387439" lon="100.837514">
<time>2015-09-27T22:31:25Z</time></trkpt>
<trkpt lat="25.387629" lon="100.837494">
<time>2015-09-27T22:31:26Z</time></trkpt>
<trkpt lat="25.387829" lon="100.837544">
<time>2015-09-27T22:31:27Z</time></trkpt>
<trkpt lat="25.387879" lon="100.837564">
<time>2015-09-27T22:31:28Z</time></trkpt>
<trkpt lat="25.388019" lon="100.837604">
<time>2015-09-27T22:31:29Z</time></trkpt>
<trkpt lat="25.388209" lon="100.837654">
<time>2015-09-27T22:31:30Z</time></trkpt>
<trkpt lat="25.388399" lon="100.837664">
<time>2015-09-27T22:31:31Z</time></trkpt>
<trkpt lat="25.388569" lon="100.837634">
<time>2015-09-27T22:31:32Z</time></trkpt>
<trkpt lat="25.388699" lon="100.837554">
<time>2015-09-27T22:31:33Z</time></trkpt>
<trkpt lat="25.388849" lon="100.837423">
<time>2015-09-27T22:31:34Z</time></trkpt>
<trkpt lat="25.388999" lon="100.837303">
<time>2015-09-27T22:31:35Z</time></trkpt>
<trkpt lat="25.389159" lon="100.837173">
<time>2015-09-27T22:31:36Z</time></trkpt>
<trkpt lat="25.389308" lon="100.837083">
<time>2015-09-27T22:31:37Z</time></trkpt>
<trkpt lat="25.389438" lon="100.837013">
<time>2015-09-27T22:31:38Z</time></trkpt>
<trkpt lat="25.389558" lon="100.836983">
<time>2015-09-27T22:31:39Z</time></trkpt>
<trkpt lat="25.389738" lon="100.836883">
<time>2015-09-27T22:31:40Z</time></trkpt>
<trkpt lat="25.389848" lon="100.836883">
<time>2015-09-27T22:31:41Z</time></trkpt>
<trkpt lat="25.389948" lon="100.836873">
<time>2015-09-27T22:31:42Z</time></trkpt>
<trkpt lat="25.390088" lon="100.836883">
<time>2015-09-27T22:31:43Z</time></trkpt>
<trkpt lat="25.390188" lon="100.836923">
<time>2015-09-27T22:31:44Z</time></trkpt>
<trkpt lat="25.390309" lon="100.837013">
<time>2015-09-27T22:31:45Z</time></trkpt>
<trkpt lat="25.390389" lon="100.837043">
<time>2015-09-27T22:31:46Z</time></trkpt>
<trkpt lat="25.390519" lon="100.837043">
<time>2015-09-27T22:31:47Z</time></trkpt>
<trkpt lat="25.390619" lon="100.837023">
<time>2015-09-27T22:31:48Z</time></trkpt>
<trkpt lat="25.390709" lon="100.836983">
<time>2015-09-27T22:31:49Z</time></trkpt>
<trkpt lat="25.390798" lon="100.836953">
<time>2015-09-27T22:31:50Z</time></trkpt>
<trkpt lat="25.390918" lon="100.836903">
<time>2015-09-27T22:31:51Z</time></trkpt>
<trkpt lat="25.391058" lon="100.836883">
<time>2015-09-27T22:31:52Z</time></trkpt>
<trkpt lat="25.391188" lon="100.836883">
<time>2015-09-27T22:31:53Z</time></trkpt>
<trkpt lat="25.391349" lon="100.836903">
<time>2015-09-27T22:31:54Z</time></trkpt>
<trkpt lat="25.391529" lon="100.836923">
<time>2015-09-27T22:31:55Z</time></trkpt>
<trkpt lat="25.391699" lon="100.836883">
<time>2015-09-27T22:31:56Z</time></trkpt>
<trkpt lat="25.391899" lon="100.836863">
<time>2015-09-27T22:31:57Z</time></trkpt>
<trkpt lat="25.392099" lon="100.836833">
<time>2015-09-27T22:31:58Z</time></trkpt>
<trkpt lat="25.392288" lon="100.836772">
<time>2015-09-27T22:31:59Z</time></trkpt>
<trkpt lat="25.392488" lon="100.836682">
<time>2015-09-27T22:32:00Z</time></trkpt>
<trkpt lat="25.392668" lon="100.836562">
<time>2015-09-27T22:32:01Z</time></trkpt>
<trkpt lat="25.392828" lon="100.836442">
<time>2015-09-27T22:32:02Z</time></trkpt>
<trkpt lat="25.393008" lon="100.836312">
<time>2015-09-27T22:32:03Z</time></trkpt>
<trkpt lat="25.393168" lon="100.836252">
<time>2015-09-27T22:32:04Z</time></trkpt>
<trkpt lat="25.393308" lon="100.836222">
<time>2015-09-27T22:32:05Z</time></trkpt>
<trkpt lat="25.393438" lon="100.836292">
<time>2015-09-27T22:32:06Z</time></trkpt>
<trkpt lat="25.393508" lon="100.836432">
<time>2015-09-27T22:32:07Z</time></trkpt>
<trkpt lat="25.393528" lon="100.836602">
<time>2015-09-27T22:32:08Z</time></trkpt>
<trkpt lat="25.393449" lon="100.836863">
<time>2015-09-27T22:32:09Z</time></trkpt>
<trkpt lat="25.393379" lon="100.837123">
<time>2015-09-27T22:32:10Z</time></trkpt>
<trkpt lat="25.39326" lon="100.837413">
<time>2015-09-27T22:32:11Z</time></trkpt>
<trkpt lat="25.39318" lon="100.837584">
<time>2015-09-27T22:32:12Z</time></trkpt>
<trkpt lat="25.39314" lon="100.837724">
<time>2015-09-27T22:32:13Z</time></trkpt>
<trkpt lat="25.393171" lon="100.837914">
<time>2015-09-27T22:32:14Z</time></trkpt>
<trkpt lat="25.393241" lon="100.837994">
<time>2015-09-27T22:32:15Z</time></trkpt>
<trkpt lat="25.393391" lon="100.838074">
<time>2015-09-27T22:32:16Z</time></trkpt>
<trkpt lat="25.393521" lon="100.838164">
<time>2015-09-27T22:32:17Z</time></trkpt>
<trkpt lat="25.393681" lon="100.838154">
<time>2015-09-27T22:32:18Z</time></trkpt>
<trkpt lat="25.393841" lon="100.838044">
<time>2015-09-27T22:32:19Z</time></trkpt>
<trkpt lat="25.394011" lon="100.837904">
<time>2015-09-27T22:32:20Z</time></trkpt>
<trkpt lat="25.394181" lon="100.837734">
<time>2015-09-27T22:32:21Z</time></trkpt>
<trkpt lat="25.39436" lon="100.837574">
<time>2015-09-27T22:32:22Z</time></trkpt>
<trkpt lat="25.39453" lon="100.837453">
<time>2015-09-27T22:32:23Z</time></trkpt>
<trkpt lat="25.39471" lon="100.837443">
<time>2015-09-27T22:32:24Z</time></trkpt>
<trkpt lat="25.39491" lon="100.837493">
<time>2015-09-27T22:32:25Z</time></trkpt>
<trkpt lat="25.3951" lon="100.837594">
<time>2015-09-27T22:32:26Z</time></trkpt>
<trkpt lat="25.395311" lon="100.837704">
<time>2015-09-27T22:32:27Z</time></trkpt>
<trkpt lat="25.395501" lon="100.837874">
<time>2015-09-27T22:32:28Z</time></trkpt>
<trkpt lat="25.395731" lon="100.838034">
<time>2015-09-27T22:32:29Z</time></trkpt>
<trkpt lat="25.395982" lon="100.838194">
<time>2015-09-27T22:32:30Z</time></trkpt>
<trkpt lat="25.396212" lon="100.838295">
<time>2015-09-27T22:32:31Z</time></trkpt>
<trkpt lat="25.396452" lon="100.838325">
<time>2015-09-27T22:32:32Z</time></trkpt>
<trkpt lat="25.396552" lon="100.838325">
<time>2015-09-27T22:32:33Z</time></trkpt>
<trkpt lat="25.396712" lon="100.838295">
<time>2015-09-27T22:32:34Z</time></trkpt>
<trkpt lat="25.396812" lon="100.838204">
<time>2015-09-27T22:32:35Z</time></trkpt>
<trkpt lat="25.396872" lon="100.838064">
<time>2015-09-27T22:32:36Z</time></trkpt>
<trkpt lat="25.396851" lon="100.837884">
<time>2015-09-27T22:32:37Z</time></trkpt>
<trkpt lat="25.396791" lon="100.837714">
<time>2015-09-27T22:32:38Z</time></trkpt>
<trkpt lat="25.396701" lon="100.837553">
<time>2015-09-27T22:32:39Z</time></trkpt>
<trkpt lat="25.39661" lon="100.837383">
<time>2015-09-27T22:32:40Z</time></trkpt>
<trkpt lat="25.39651" lon="100.837263">
<time>2015-09-27T22:32:41Z</time></trkpt>
<trkpt lat="25.39639" lon="100.837143">
<time>2015-09-27T22:32:42Z</time></trkpt>
<trkpt lat="25.39631" lon="100.836983">
<time>2015-09-27T22:32:43Z</time></trkpt>
<trkpt lat="25.396259" lon="100.836822">
<time>2015-09-27T22:32:44Z</time></trkpt>
<trkpt lat="25.396229" lon="100.836632">
<time>2015-09-27T22:32:45Z</time></trkpt>
<trkpt lat="25.396219" lon="100.836432">
<time>2015-09-27T22:32:46Z</time></trkpt>
<trkpt lat="25.396198" lon="100.836211">
<time>2015-09-27T22:32:47Z</time></trkpt>
<trkpt lat="25.396178" lon="100.836001">
<time>2015-09-27T22:32:48Z</time></trkpt>
<trkpt lat="25.396167" lon="100.835801">
<time>2015-09-27T22:32:49Z</time></trkpt>
<trkpt lat="25.396147" lon="100.835581">
<time>2015-09-27T22:32:50Z</time></trkpt>
<trkpt lat="25.396126" lon="100.83535">
<time>2015-09-27T22:32:51Z</time></trkpt>
<trkpt lat="25.396106" lon="100.83512">
<time>2015-09-27T22:32:52Z</time></trkpt>
<trkpt lat="25.396086" lon="100.834869">
<time>2015-09-27T22:32:53Z</time></trkpt>
<trkpt lat="25.396065" lon="100.834639">
<time>2015-09-27T22:32:54Z</time></trkpt>
<trkpt lat="25.396075" lon="100.834419">
<time>2015-09-27T22:32:55Z</time></trkpt>
<trkpt lat="25.396144" lon="100.834208">
<time>2015-09-27T22:32:56Z</time></trkpt>
<trkpt lat="25.396254" lon="100.834018">
<time>2015-09-27T22:32:57Z</time></trkpt>
<trkpt lat="25.396354" lon="100.833828">
<time>2015-09-27T22:32:58Z</time></trkpt>
<trkpt lat="25.396433" lon="100.833628">
<time>2015-09-27T22:32:59Z</time></trkpt>
<trkpt lat="25.396463" lon="100.833427">
<time>2015-09-27T22:33:00Z</time></trkpt>
<trkpt lat="25.396443" lon="100.833227">
<time>2015-09-27T22:33:01Z</time></trkpt>
<trkpt lat="25.396382" lon="100.833067">
<time>2015-09-27T22:33:02Z</time></trkpt>
<trkpt lat="25.396372" lon="100.832886">
<time>2015-09-27T22:33:03Z</time></trkpt>
<trkpt lat="25.396372" lon="100.832686">
<time>2015-09-27T22:33:04Z</time></trkpt>
<trkpt lat="25.396411" lon="100.832466">
<time>2015-09-27T22:33:05Z</time></trkpt>
<trkpt lat="25.396481" lon="100.832236">
<time>2015-09-27T22:33:06Z</time></trkpt>
<trkpt lat="25.39655" lon="100.831985">
<time>2015-09-27T22:33:07Z</time></trkpt>
<trkpt lat="25.39661" lon="100.831725">
<time>2015-09-27T22:33:08Z</time></trkpt>
<trkpt lat="25.396669" lon="100.831464">
<time>2015-09-27T22:33:09Z</time></trkpt>
<trkpt lat="25.396719" lon="100.831204">
<time>2015-09-27T22:33:10Z</time></trkpt>
<trkpt lat="25.396728" lon="100.830964">
<time>2015-09-27T22:33:11Z</time></trkpt>
<trkpt lat="25.396698" lon="100.830713">
<time>2015-09-27T22:33:12Z</time></trkpt>
<trkpt lat="25.396637" lon="100.830453">
<time>2015-09-27T22:33:13Z</time></trkpt>
<trkpt lat="25.396587" lon="100.830192">
<time>2015-09-27T22:33:14Z</time></trkpt>
<trkpt lat="25.396536" lon="100.829942">
<time>2015-09-27T22:33:15Z</time></trkpt>
<trkpt lat="25.396516" lon="100.829662">
<time>2015-09-27T22:33:16Z</time></trkpt>
<trkpt lat="25.396515" lon="100.829391">
<time>2015-09-27T22:33:17Z</time></trkpt>
<trkpt lat="25.396515" lon="100.829141">
<time>2015-09-27T22:33:18Z</time></trkpt>
<trkpt lat="25.396514" lon="100.82888">
<time>2015-09-27T22:33:19Z</time></trkpt>
<trkpt lat="25.396504" lon="100.82863">
<time>2015-09-27T22:33:20Z</time></trkpt>
<trkpt lat="25.396493" lon="100.82838">
<time>2015-09-27T22:33:21Z</time></trkpt>
<trkpt lat="25.396493" lon="100.828119">
<time>2015-09-27T22:33:22Z</time></trkpt>
<trkpt lat="25.396492" lon="100.827859">
<time>2015-09-27T22:33:23Z</time></trkpt>
<trkpt lat="25.396482" lon="100.827598">
<time>2015-09-27T22:33:24Z</time></trkpt>
<trkpt lat="25.396451" lon="100.827328">
<time>2015-09-27T22:33:25Z</time></trkpt>
<trkpt lat="25.396441" lon="100.827068">
<time>2015-09-27T22:33:26Z</time></trkpt>
<trkpt lat="25.396441" lon="100.826817">
<time>2015-09-27T22:33:27Z</time></trkpt>
<trkpt lat="25.39646" lon="100.826587">
<time>2015-09-27T22:33:28Z</time></trkpt>
<trkpt lat="25.3965" lon="100.826417">
<time>2015-09-27T22:33:29Z</time></trkpt>
<trkpt lat="25.396539" lon="100.826236">
<time>2015-09-27T22:33:30Z</time></trkpt>
<trkpt lat="25.396599" lon="100.826056">
<time>2015-09-27T22:33:31Z</time></trkpt>
<trkpt lat="25.396659" lon="100.825846">
<time>2015-09-27T22:33:32Z</time></trkpt>
<trkpt lat="25.396728" lon="100.825635">
<time>2015-09-27T22:33:33Z</time></trkpt>
<trkpt lat="25.396808" lon="100.825425">
<time>2015-09-27T22:33:34Z</time></trkpt>
<trkpt lat="25.396898" lon="100.825205">
<time>2015-09-27T22:33:35Z</time></trkpt>
<trkpt lat="25.396977" lon="100.824984">
<time>2015-09-27T22:33:36Z</time></trkpt>
<trkpt lat="25.397077" lon="100.824754">
<time>2015-09-27T22:33:37Z</time></trkpt>
<trkpt lat="25.397186" lon="100.824524">
<time>2015-09-27T22:33:38Z</time></trkpt>
<trkpt lat="25.397296" lon="100.824273">
<time>2015-09-27T22:33:39Z</time></trkpt>
<trkpt lat="25.397306" lon="100.824243">
<time>2015-09-27T22:33:40Z</time></trkpt>
<trkpt lat="25.397415" lon="100.824023">
<time>2015-09-27T22:33:41Z</time></trkpt>
<trkpt lat="25.397535" lon="100.823793">
<time>2015-09-27T22:33:42Z</time></trkpt>
<trkpt lat="25.397625" lon="100.823532">
<time>2015-09-27T22:33:43Z</time></trkpt>
<trkpt lat="25.397734" lon="100.823292">
<time>2015-09-27T22:33:44Z</time></trkpt>
<trkpt lat="25.397864" lon="100.823051">
<time>2015-09-27T22:33:45Z</time></trkpt>
<trkpt lat="25.398003" lon="100.822811">
<time>2015-09-27T22:33:46Z</time></trkpt>
<trkpt lat="25.398193" lon="100.822631">
<time>2015-09-27T22:33:47Z</time></trkpt>
<trkpt lat="25.398393" lon="100.822521">
<time>2015-09-27T22:33:48Z</time></trkpt>
<trkpt lat="25.398552" lon="100.82235">
<time>2015-09-27T22:33:49Z</time></trkpt>
<trkpt lat="25.398692" lon="100.82214">
<time>2015-09-27T22:33:50Z</time></trkpt>
<trkpt lat="25.398822" lon="100.82192">
<time>2015-09-27T22:33:51Z</time></trkpt>
<trkpt lat="25.398941" lon="100.821699">
<time>2015-09-27T22:33:52Z</time></trkpt>
<trkpt lat="25.399061" lon="100.821479">
<time>2015-09-27T22:33:53Z</time></trkpt>
<trkpt lat="25.399191" lon="100.821259">
<time>2015-09-27T22:33:54Z</time></trkpt>
<trkpt lat="25.39933" lon="100.821028">
<time>2015-09-27T22:33:55Z</time></trkpt>
<trkpt lat="25.39945" lon="100.820818">
<time>2015-09-27T22:33:56Z</time></trkpt>
<trkpt lat="25.399559" lon="100.820608">
<time>2015-09-27T22:33:57Z</time></trkpt>
<trkpt lat="25.399629" lon="100.820407">
<time>2015-09-27T22:33:58Z</time></trkpt>
<trkpt lat="25.399629" lon="100.820197">
<time>2015-09-27T22:33:59Z</time></trkpt>
<trkpt lat="25.399578" lon="100.819987">
<time>2015-09-27T22:34:00Z</time></trkpt>
<trkpt lat="25.399518" lon="100.819817">
<time>2015-09-27T22:34:01Z</time></trkpt>
<trkpt lat="25.399508" lon="100.819656">
<time>2015-09-27T22:34:02Z</time></trkpt>
<trkpt lat="25.399537" lon="100.819506">
<time>2015-09-27T22:34:03Z</time></trkpt>
<trkpt lat="25.399647" lon="100.819436">
<time>2015-09-27T22:34:04Z</time></trkpt>
<trkpt lat="25.399807" lon="100.819336">
<time>2015-09-27T22:34:05Z</time></trkpt>
<trkpt lat="25.399957" lon="100.819306">
<time>2015-09-27T22:34:06Z</time></trkpt>
<trkpt lat="25.400247" lon="100.819306">
<time>2015-09-27T22:34:07Z</time></trkpt>
<trkpt lat="25.400437" lon="100.819206">
<time>2015-09-27T22:34:08Z</time></trkpt>
<trkpt lat="25.400597" lon="100.819015">
<time>2015-09-27T22:34:09Z</time></trkpt>
<trkpt lat="25.400666" lon="100.818795">
<time>2015-09-27T22:34:10Z</time></trkpt>
<trkpt lat="25.400736" lon="100.818625">
<time>2015-09-27T22:34:11Z</time></trkpt>
<trkpt lat="25.400796" lon="100.818495">
<time>2015-09-27T22:34:12Z</time></trkpt>
<trkpt lat="25.400875" lon="100.818364">
<time>2015-09-27T22:34:13Z</time></trkpt>
<trkpt lat="25.400985" lon="100.818224">
<time>2015-09-27T22:34:14Z</time></trkpt>
<trkpt lat="25.401095" lon="100.818084">
<time>2015-09-27T22:34:15Z</time></trkpt>
<trkpt lat="25.401205" lon="100.817934">
<time>2015-09-27T22:34:16Z</time></trkpt>
<trkpt lat="25.401314" lon="100.817763">
<time>2015-09-27T22:34:17Z</time></trkpt>
<trkpt lat="25.401414" lon="100.817563">
<time>2015-09-27T22:34:18Z</time></trkpt>
<trkpt lat="25.401514" lon="100.817323">
<time>2015-09-27T22:34:19Z</time></trkpt>
<trkpt lat="25.401613" lon="100.817062">
<time>2015-09-27T22:34:20Z</time></trkpt>
<trkpt lat="25.401713" lon="100.816802">
<time>2015-09-27T22:34:21Z</time></trkpt>
<trkpt lat="25.401852" lon="100.816522">
<time>2015-09-27T22:34:22Z</time></trkpt>
<trkpt lat="25.402022" lon="100.816261">
<time>2015-09-27T22:34:23Z</time></trkpt>
<trkpt lat="25.402221" lon="100.816011">
<time>2015-09-27T22:34:24Z</time></trkpt>
<trkpt lat="25.402411" lon="100.81578">
<time>2015-09-27T22:34:25Z</time></trkpt>
<trkpt lat="25.402691" lon="100.81562">
<time>2015-09-27T22:34:26Z</time></trkpt>
<trkpt lat="25.40313" lon="100.81538">
<time>2015-09-27T22:34:27Z</time></trkpt>
<trkpt lat="25.40342" lon="100.815149">
<time>2015-09-27T22:34:28Z</time></trkpt>
<trkpt lat="25.403829" lon="100.814729">
<time>2015-09-27T22:34:29Z</time></trkpt>
<trkpt lat="25.404109" lon="100.814338">
<time>2015-09-27T22:34:30Z</time></trkpt>
<trkpt lat="25.404218" lon="100.814108">
<time>2015-09-27T22:34:31Z</time></trkpt>
<trkpt lat="25.404368" lon="100.813898">
<time>2015-09-27T22:34:32Z</time></trkpt>
<trkpt lat="25.404518" lon="100.813697">
<time>2015-09-27T22:34:33Z</time></trkpt>
<trkpt lat="25.404657" lon="100.813537">
<time>2015-09-27T22:34:34Z</time></trkpt>
<trkpt lat="25.404767" lon="100.813347">
<time>2015-09-27T22:34:35Z</time></trkpt>
<trkpt lat="25.404847" lon="100.813157">
<time>2015-09-27T22:34:36Z</time></trkpt>
<trkpt lat="25.404886" lon="100.812926">
<time>2015-09-27T22:34:37Z</time></trkpt>
<trkpt lat="25.404936" lon="100.812686">
<time>2015-09-27T22:34:38Z</time></trkpt>
<trkpt lat="25.405015" lon="100.812486">
<time>2015-09-27T22:34:39Z</time></trkpt>
<trkpt lat="25.405165" lon="100.812355">
<time>2015-09-27T22:34:40Z</time></trkpt>
<trkpt lat="25.405355" lon="100.812305">
<time>2015-09-27T22:34:41Z</time></trkpt>
<trkpt lat="25.405555" lon="100.812305">
<time>2015-09-27T22:34:42Z</time></trkpt>
<trkpt lat="25.405755" lon="100.812295">
<time>2015-09-27T22:34:43Z</time></trkpt>
<trkpt lat="25.405925" lon="100.812235">
<time>2015-09-27T22:34:44Z</time></trkpt>
<trkpt lat="25.406065" lon="100.812145">
<time>2015-09-27T22:34:45Z</time></trkpt>
<trkpt lat="25.406205" lon="100.811985">
<time>2015-09-27T22:34:46Z</time></trkpt>
<trkpt lat="25.406295" lon="100.811825">
<time>2015-09-27T22:34:47Z</time></trkpt>
<trkpt lat="25.406374" lon="100.811624">
<time>2015-09-27T22:34:48Z</time></trkpt>
<trkpt lat="25.406424" lon="100.811394">
<time>2015-09-27T22:34:49Z</time></trkpt>
<trkpt lat="25.406463" lon="100.811134">
<time>2015-09-27T22:34:50Z</time></trkpt>
<trkpt lat="25.406533" lon="100.810903">
<time>2015-09-27T22:34:51Z</time></trkpt>
<trkpt lat="25.406613" lon="100.810693">
<time>2015-09-27T22:34:52Z</time></trkpt>
<trkpt lat="25.406712" lon="100.810493">
<time>2015-09-27T22:34:53Z</time></trkpt>
<trkpt lat="25.406922" lon="100.810312">
<time>2015-09-27T22:34:54Z</time></trkpt>
<trkpt lat="25.407182" lon="100.810212">
<time>2015-09-27T22:34:55Z</time></trkpt>
<trkpt lat="25.407452" lon="100.810082">
<time>2015-09-27T22:34:56Z</time></trkpt>
<trkpt lat="25.407681" lon="100.809922">
<time>2015-09-27T22:34:57Z</time></trkpt>
<trkpt lat="25.407921" lon="100.809782">
<time>2015-09-27T22:34:58Z</time></trkpt>
<trkpt lat="25.408161" lon="100.809601">
<time>2015-09-27T22:34:59Z</time></trkpt>
<trkpt lat="25.408411" lon="100.809451">
<time>2015-09-27T22:35:00Z</time></trkpt>
<trkpt lat="25.40867" lon="100.809251">
<time>2015-09-27T22:35:01Z</time></trkpt>
<trkpt lat="25.40885" lon="100.809101">
<time>2015-09-27T22:35:02Z</time></trkpt>
<trkpt lat="25.4091" lon="100.80893">
<time>2015-09-27T22:35:03Z</time></trkpt>
<trkpt lat="25.40936" lon="100.80875">
<time>2015-09-27T22:35:04Z</time></trkpt>
<trkpt lat="25.409559" lon="100.80855">
<time>2015-09-27T22:35:05Z</time></trkpt>
<trkpt lat="25.409769" lon="100.80838">
<time>2015-09-27T22:35:06Z</time></trkpt>
<trkpt lat="25.409959" lon="100.808189">
<time>2015-09-27T22:35:07Z</time></trkpt>
<trkpt lat="25.410109" lon="100.808029">
<time>2015-09-27T22:35:08Z</time></trkpt>
<trkpt lat="25.410218" lon="100.807829">
<time>2015-09-27T22:35:09Z</time></trkpt>
<trkpt lat="25.410338" lon="100.807609">
<time>2015-09-27T22:35:10Z</time></trkpt>
<trkpt lat="25.410437" lon="100.807318">
<time>2015-09-27T22:35:11Z</time></trkpt>
<trkpt lat="25.410557" lon="100.806978">
<time>2015-09-27T22:35:12Z</time></trkpt>
<trkpt lat="25.410676" lon="100.806677">
<time>2015-09-27T22:35:13Z</time></trkpt>
<trkpt lat="25.410736" lon="100.806427">
<time>2015-09-27T22:35:14Z</time></trkpt>
<trkpt lat="25.410805" lon="100.806177">
<time>2015-09-27T22:35:15Z</time></trkpt>
<trkpt lat="25.410875" lon="100.805916">
<time>2015-09-27T22:35:16Z</time></trkpt>
<trkpt lat="25.410945" lon="100.805656">
<time>2015-09-27T22:35:17Z</time></trkpt>
<trkpt lat="25.410994" lon="100.805426">
<time>2015-09-27T22:35:18Z</time></trkpt>
<trkpt lat="25.411054" lon="100.805245">
<time>2015-09-27T22:35:19Z</time></trkpt>
<trkpt lat="25.411084" lon="100.805085">
<time>2015-09-27T22:35:20Z</time></trkpt>
<trkpt lat="25.411143" lon="100.804825">
<time>2015-09-27T22:35:21Z</time></trkpt>
<trkpt lat="25.411253" lon="100.804504">
<time>2015-09-27T22:35:22Z</time></trkpt>
<trkpt lat="25.411382" lon="100.804244">
<time>2015-09-27T22:35:23Z</time></trkpt>
<trkpt lat="25.411562" lon="100.804114">
<time>2015-09-27T22:35:24Z</time></trkpt>
<trkpt lat="25.411742" lon="100.804064">
<time>2015-09-27T22:35:25Z</time></trkpt>
<trkpt lat="25.411932" lon="100.804084">
<time>2015-09-27T22:35:26Z</time></trkpt>
<trkpt lat="25.412162" lon="100.804084">
<time>2015-09-27T22:35:27Z</time></trkpt>
<trkpt lat="25.412372" lon="100.804124">
<time>2015-09-27T22:35:28Z</time></trkpt>
<trkpt lat="25.412633" lon="100.804224">
<time>2015-09-27T22:35:29Z</time></trkpt>
<trkpt lat="25.412833" lon="100.804294">
<time>2015-09-27T22:35:30Z</time></trkpt>
<trkpt lat="25.413073" lon="100.804304">
<time>2015-09-27T22:35:31Z</time></trkpt>
<trkpt lat="25.413353" lon="100.804294">
<time>2015-09-27T22:35:32Z</time></trkpt>
<trkpt lat="25.413623" lon="100.804254">
<time>2015-09-27T22:35:33Z</time></trkpt>
<trkpt lat="25.413903" lon="100.804204">
<time>2015-09-27T22:35:34Z</time></trkpt>
<trkpt lat="25.414163" lon="100.804124">
<time>2015-09-27T22:35:35Z</time></trkpt>
<trkpt lat="25.414413" lon="100.804014">
<time>2015-09-27T22:35:36Z</time></trkpt>
<trkpt lat="25.414642" lon="100.803893">
<time>2015-09-27T22:35:37Z</time></trkpt>
<trkpt lat="25.414882" lon="100.803803">
<time>2015-09-27T22:35:38Z</time></trkpt>
<trkpt lat="25.415072" lon="100.803703">
<time>2015-09-27T22:35:39Z</time></trkpt>
<trkpt lat="25.415212" lon="100.803563">
<time>2015-09-27T22:35:40Z</time></trkpt>
<trkpt lat="25.415292" lon="100.803383">
<time>2015-09-27T22:35:41Z</time></trkpt>
<trkpt lat="25.415331" lon="100.803162">
<time>2015-09-27T22:35:42Z</time></trkpt>
<trkpt lat="25.415361" lon="100.802972">
<time>2015-09-27T22:35:43Z</time></trkpt>
<trkpt lat="25.415371" lon="100.802742">
<time>2015-09-27T22:35:44Z</time></trkpt>
<trkpt lat="25.41539" lon="100.802502">
<time>2015-09-27T22:35:45Z</time></trkpt>
<trkpt lat="25.4154" lon="100.802341">
<time>2015-09-27T22:35:46Z</time></trkpt>
<trkpt lat="25.41542" lon="100.802151">
<time>2015-09-27T22:35:47Z</time></trkpt>
<trkpt lat="25.415439" lon="100.801971">
<time>2015-09-27T22:35:48Z</time></trkpt>
<trkpt lat="25.415469" lon="100.801751">
<time>2015-09-27T22:35:49Z</time></trkpt>
<trkpt lat="25.415519" lon="100.80149">
<time>2015-09-27T22:35:50Z</time></trkpt>
<trkpt lat="25.415568" lon="100.80124">
<time>2015-09-27T22:35:51Z</time></trkpt>
<trkpt lat="25.415628" lon="100.801">
<time>2015-09-27T22:35:52Z</time></trkpt>
<trkpt lat="25.415677" lon="100.800789">
<time>2015-09-27T22:35:53Z</time></trkpt>
<trkpt lat="25.415727" lon="100.800579">
<time>2015-09-27T22:35:54Z</time></trkpt>
<trkpt lat="25.415777" lon="100.800359">
<time>2015-09-27T22:35:55Z</time></trkpt>
<trkpt lat="25.415836" lon="100.800149">
<time>2015-09-27T22:35:56Z</time></trkpt>
<trkpt lat="25.415906" lon="100.799938">
<time>2015-09-27T22:35:57Z</time></trkpt>
<trkpt lat="25.415986" lon="100.799758">
<time>2015-09-27T22:35:58Z</time></trkpt>
<trkpt lat="25.416116" lon="100.799608">
<time>2015-09-27T22:35:59Z</time></trkpt>
<trkpt lat="25.416286" lon="100.799518">
<time>2015-09-27T22:36:00Z</time></trkpt>
<trkpt lat="25.416505" lon="100.799478">
<time>2015-09-27T22:36:01Z</time></trkpt>
<trkpt lat="25.416685" lon="100.799448">
<time>2015-09-27T22:36:02Z</time></trkpt>
<trkpt lat="25.416735" lon="100.799438">
<time>2015-09-27T22:36:03Z</time></trkpt>
<trkpt lat="25.416975" lon="100.799418">
<time>2015-09-27T22:36:04Z</time></trkpt>
<trkpt lat="25.417226" lon="100.799448">
<time>2015-09-27T22:36:05Z</time></trkpt>
<trkpt lat="25.417466" lon="100.799538">
<time>2015-09-27T22:36:06Z</time></trkpt>
<trkpt lat="25.417696" lon="100.799638">
<time>2015-09-27T22:36:07Z</time></trkpt>
<trkpt lat="25.417916" lon="100.799768">
<time>2015-09-27T22:36:08Z</time></trkpt>
<trkpt lat="25.418126" lon="100.799878">
<time>2015-09-27T22:36:09Z</time></trkpt>
<trkpt lat="25.418347" lon="100.799988">
<time>2015-09-27T22:36:10Z</time></trkpt>
<trkpt lat="25.418567" lon="100.800088">
<time>2015-09-27T22:36:11Z</time></trkpt>
<trkpt lat="25.418797" lon="100.800199">
<time>2015-09-27T22:36:12Z</time></trkpt>
<trkpt lat="25.419017" lon="100.800299">
<time>2015-09-27T22:36:13Z</time></trkpt>
<trkpt lat="25.419248" lon="100.800399">
<time>2015-09-27T22:36:14Z</time></trkpt>
<trkpt lat="25.419468" lon="100.800499">
<time>2015-09-27T22:36:15Z</time></trkpt>
<trkpt lat="25.419708" lon="100.800629">
<time>2015-09-27T22:36:16Z</time></trkpt>
<trkpt lat="25.419928" lon="100.800699">
<time>2015-09-27T22:36:17Z</time></trkpt>
<trkpt lat="25.420128" lon="100.800719">
<time>2015-09-27T22:36:18Z</time></trkpt>
<trkpt lat="25.420308" lon="100.800659">
<time>2015-09-27T22:36:19Z</time></trkpt>
<trkpt lat="25.420478" lon="100.800559">
<time>2015-09-27T22:36:20Z</time></trkpt>
<trkpt lat="25.420648" lon="100.800419">
<time>2015-09-27T22:36:21Z</time></trkpt>
<trkpt lat="25.420838" lon="100.800279">
<time>2015-09-27T22:36:22Z</time></trkpt>
<trkpt lat="25.421058" lon="100.800178">
<time>2015-09-27T22:36:23Z</time></trkpt>
<trkpt lat="25.421298" lon="100.800108">
<time>2015-09-27T22:36:24Z</time></trkpt>
<trkpt lat="25.421547" lon="100.800018">
<time>2015-09-27T22:36:25Z</time></trkpt>
<trkpt lat="25.421797" lon="100.799948">
<time>2015-09-27T22:36:26Z</time></trkpt>
<trkpt lat="25.422047" lon="100.799858">
<time>2015-09-27T22:36:27Z</time></trkpt>
<trkpt lat="25.422237" lon="100.799768">
<time>2015-09-27T22:36:28Z</time></trkpt>
<trkpt lat="25.422527" lon="100.799618">
<time>2015-09-27T22:36:29Z</time></trkpt>
<trkpt lat="25.422747" lon="100.799438">
<time>2015-09-27T22:36:30Z</time></trkpt>
<trkpt lat="25.422957" lon="100.799297">
<time>2015-09-27T22:36:31Z</time></trkpt>
<trkpt lat="25.423226" lon="100.799097">
<time>2015-09-27T22:36:32Z</time></trkpt>
<trkpt lat="25.423426" lon="100.798907">
<time>2015-09-27T22:36:33Z</time></trkpt>
<trkpt lat="25.423616" lon="100.798717">
<time>2015-09-27T22:36:34Z</time></trkpt>
<trkpt lat="25.423816" lon="100.798536">
<time>2015-09-27T22:36:35Z</time></trkpt>
<trkpt lat="25.423995" lon="100.798366">
<time>2015-09-27T22:36:36Z</time></trkpt>
<trkpt lat="25.424165" lon="100.798196">
<time>2015-09-27T22:36:37Z</time></trkpt>
<trkpt lat="25.424335" lon="100.798036">
<time>2015-09-27T22:36:38Z</time></trkpt>
<trkpt lat="25.424505" lon="100.797876">
<time>2015-09-27T22:36:39Z</time></trkpt>
<trkpt lat="25.424674" lon="100.797735">
<time>2015-09-27T22:36:40Z</time></trkpt>
<trkpt lat="25.424844" lon="100.797585">
<time>2015-09-27T22:36:41Z</time></trkpt>
<trkpt lat="25.425004" lon="100.797425">
<time>2015-09-27T22:36:42Z</time></trkpt>
<trkpt lat="25.425154" lon="100.797275">
<time>2015-09-27T22:36:43Z</time></trkpt>
<trkpt lat="25.425164" lon="100.797265">
<time>2015-09-27T22:36:44Z</time></trkpt>
<trkpt lat="25.425324" lon="100.797115">
<time>2015-09-27T22:36:45Z</time></trkpt>
<trkpt lat="25.425493" lon="100.796964">
<time>2015-09-27T22:36:46Z</time></trkpt>
<trkpt lat="25.425653" lon="100.796814">
<time>2015-09-27T22:36:47Z</time></trkpt>
<trkpt lat="25.425823" lon="100.796654">
<time>2015-09-27T22:36:48Z</time></trkpt>
<trkpt lat="25.426003" lon="100.796494">
<time>2015-09-27T22:36:49Z</time></trkpt>
<trkpt lat="25.426173" lon="100.796324">
<time>2015-09-27T22:36:50Z</time></trkpt>
<trkpt lat="25.426362" lon="100.796154">
<time>2015-09-27T22:36:51Z</time></trkpt>
<trkpt lat="25.426542" lon="100.795983">
<time>2015-09-27T22:36:52Z</time></trkpt>
<trkpt lat="25.426722" lon="100.795823">
<time>2015-09-27T22:36:53Z</time></trkpt>
<trkpt lat="25.426882" lon="100.795663">
<time>2015-09-27T22:36:54Z</time></trkpt>
<trkpt lat="25.426962" lon="100.795593">
<time>2015-09-27T22:36:55Z</time></trkpt>
<trkpt lat="25.427042" lon="100.795513">
<time>2015-09-27T22:36:56Z</time></trkpt>
<trkpt lat="25.427211" lon="100.795373">
<time>2015-09-27T22:36:57Z</time></trkpt>
<trkpt lat="25.427361" lon="100.795232">
<time>2015-09-27T22:36:58Z</time></trkpt>
<trkpt lat="25.427521" lon="100.795082">
<time>2015-09-27T22:36:59Z</time></trkpt>
<trkpt lat="25.427661" lon="100.794912">
<time>2015-09-27T22:37:00Z</time></trkpt>
<trkpt lat="25.427821" lon="100.794752">
<time>2015-09-27T22:37:01Z</time></trkpt>
<trkpt lat="25.42796" lon="100.794592">
<time>2015-09-27T22:37:02Z</time></trkpt>
<trkpt lat="25.42809" lon="100.794442">
<time>2015-09-27T22:37:03Z</time></trkpt>
<trkpt lat="25.42821" lon="100.794281">
<time>2015-09-27T22:37:04Z</time></trkpt>
<trkpt lat="25.42824" lon="100.794241">
<time>2015-09-27T22:37:05Z</time></trkpt>
<trkpt lat="25.42828" lon="100.794211">
<time>2015-09-27T22:37:06Z</time></trkpt>
<trkpt lat="25.42833" lon="100.794181">
<time>2015-09-27T22:37:07Z</time></trkpt>
<trkpt lat="25.42838" lon="100.794151">
<time>2015-09-27T22:37:08Z</time></trkpt>
<trkpt lat="25.42843" lon="100.794131">
<time>2015-09-27T22:37:09Z</time></trkpt>
<trkpt lat="25.42848" lon="100.794101">
<time>2015-09-27T22:37:10Z</time></trkpt>
<trkpt lat="25.42853" lon="100.794061">
<time>2015-09-27T22:37:11Z</time></trkpt>
<trkpt lat="25.42858" lon="100.794001">
<time>2015-09-27T22:37:12Z</time></trkpt>
<trkpt lat="25.42863" lon="100.793921">
<time>2015-09-27T22:37:13Z</time></trkpt>
<trkpt lat="25.428669" lon="100.793811">
<time>2015-09-27T22:37:14Z</time></trkpt>
<trkpt lat="25.428719" lon="100.793641">
<time>2015-09-27T22:37:15Z</time></trkpt>
<trkpt lat="25.428759" lon="100.79345">
<time>2015-09-27T22:37:16Z</time></trkpt>
<trkpt lat="25.428789" lon="100.79326">
<time>2015-09-27T22:37:17Z</time></trkpt>
<trkpt lat="25.428818" lon="100.79305">
<time>2015-09-27T22:37:18Z</time></trkpt>
<trkpt lat="25.428848" lon="100.79285">
<time>2015-09-27T22:37:19Z</time></trkpt>
<trkpt lat="25.428878" lon="100.79265">
<time>2015-09-27T22:37:20Z</time></trkpt>
<trkpt lat="25.428917" lon="100.792439">
<time>2015-09-27T22:37:21Z</time></trkpt>
<trkpt lat="25.428957" lon="100.792229">
<time>2015-09-27T22:37:22Z</time></trkpt>
<trkpt lat="25.428997" lon="100.792019">
<time>2015-09-27T22:37:23Z</time></trkpt>
<trkpt lat="25.429026" lon="100.791739">
<time>2015-09-27T22:37:24Z</time></trkpt>
<trkpt lat="25.429056" lon="100.791448">
<time>2015-09-27T22:37:25Z</time></trkpt>
<trkpt lat="25.429106" lon="100.791208">
<time>2015-09-27T22:37:26Z</time></trkpt>
<trkpt lat="25.429125" lon="100.790988">
<time>2015-09-27T22:37:27Z</time></trkpt>
<trkpt lat="25.429155" lon="100.790818">
<time>2015-09-27T22:37:28Z</time></trkpt>
<trkpt lat="25.429185" lon="100.790627">
<time>2015-09-27T22:37:29Z</time></trkpt>
<trkpt lat="25.429215" lon="100.790487">
<time>2015-09-27T22:37:30Z</time></trkpt>
<trkpt lat="25.429235" lon="100.790387">
<time>2015-09-27T22:37:31Z</time></trkpt>
<trkpt lat="25.429254" lon="100.790277">
<time>2015-09-27T22:37:32Z</time></trkpt>
<trkpt lat="25.429274" lon="100.790117">
<time>2015-09-27T22:37:33Z</time></trkpt>
<trkpt lat="25.429304" lon="100.789947">
<time>2015-09-27T22:37:34Z</time></trkpt>
<trkpt lat="25.429334" lon="100.789767">
<time>2015-09-27T22:37:35Z</time></trkpt>
<trkpt lat="25.429343" lon="100.789566">
<time>2015-09-27T22:37:36Z</time></trkpt>
<trkpt lat="25.429373" lon="100.789356">
<time>2015-09-27T22:37:37Z</time></trkpt>
<trkpt lat="25.429423" lon="100.789136">
<time>2015-09-27T22:37:38Z</time></trkpt>
<trkpt lat="25.429463" lon="100.788936">
<time>2015-09-27T22:37:39Z</time></trkpt>
<trkpt lat="25.429492" lon="100.788726">
<time>2015-09-27T22:37:40Z</time></trkpt>
<trkpt lat="25.429532" lon="100.788505">
<time>2015-09-27T22:37:41Z</time></trkpt>
<trkpt lat="25.429562" lon="100.788315">
<time>2015-09-27T22:37:42Z</time></trkpt>
<trkpt lat="25.429572" lon="100.788225">
<time>2015-09-27T22:37:43Z</time></trkpt>
<trkpt lat="25.429572" lon="100.788115">
<time>2015-09-27T22:37:44Z</time></trkpt>
<trkpt lat="25.429571" lon="100.787985">
<time>2015-09-27T22:37:45Z</time></trkpt>
<trkpt lat="25.429561" lon="100.787885">
<time>2015-09-27T22:37:46Z</time></trkpt>
<trkpt lat="25.429551" lon="100.787805">
<time>2015-09-27T22:37:47Z</time></trkpt>
<trkpt lat="25.429521" lon="100.787675">
<time>2015-09-27T22:37:48Z</time></trkpt>
<trkpt lat="25.42938" lon="100.787274">
<time>2015-09-27T22:37:49Z</time></trkpt>
<trkpt lat="25.42923" lon="100.786964">
<time>2015-09-27T22:37:50Z</time></trkpt>
<trkpt lat="25.429029" lon="100.786423">
<time>2015-09-27T22:37:51Z</time></trkpt>
<trkpt lat="25.428799" lon="100.785993">
<time>2015-09-27T22:37:52Z</time></trkpt>
<trkpt lat="25.428237" lon="100.784862">
<time>2015-09-27T22:37:53Z</time></trkpt>
<trkpt lat="25.427666" lon="100.783731">
<time>2015-09-27T22:37:54Z</time></trkpt>
<trkpt lat="25.427565" lon="100.783571">
<time>2015-09-27T22:37:55Z</time></trkpt>
<trkpt lat="25.427465" lon="100.783441">
<time>2015-09-27T22:37:56Z</time></trkpt>
<trkpt lat="25.427265" lon="100.783231">
<time>2015-09-27T22:37:57Z</time></trkpt>
<trkpt lat="25.426964" lon="100.782981">
<time>2015-09-27T22:37:58Z</time></trkpt>
<trkpt lat="25.426704" lon="100.78277">
<time>2015-09-27T22:37:59Z</time></trkpt>
<trkpt lat="25.426474" lon="100.78256">
<time>2015-09-27T22:38:00Z</time></trkpt>
<trkpt lat="25.426254" lon="100.78232">
<time>2015-09-27T22:38:01Z</time></trkpt>
<trkpt lat="25.425813" lon="100.7818">
<time>2015-09-27T22:38:02Z</time></trkpt>
<trkpt lat="25.425773" lon="100.78176">
<time>2015-09-27T22:38:03Z</time></trkpt>
<trkpt lat="25.425452" lon="100.781389">
<time>2015-09-27T22:38:04Z</time></trkpt>
<trkpt lat="25.425412" lon="100.781339">
<time>2015-09-27T22:38:05Z</time></trkpt>
<trkpt lat="25.424952" lon="100.780839">
<time>2015-09-27T22:38:06Z</time></trkpt>
<trkpt lat="25.42422" lon="100.779999">
<time>2015-09-27T22:38:07Z</time></trkpt>
<trkpt lat="25.42356" lon="100.779288">
<time>2015-09-27T22:38:08Z</time></trkpt>
<trkpt lat="25.423229" lon="100.778948">
<time>2015-09-27T22:38:09Z</time></trkpt>
<trkpt lat="25.422999" lon="100.778678">
<time>2015-09-27T22:38:10Z</time></trkpt>
<trkpt lat="25.422468" lon="100.777967">
<time>2015-09-27T22:38:11Z</time></trkpt>
<trkpt lat="25.421947" lon="100.777247">
<time>2015-09-27T22:38:12Z</time></trkpt>
<trkpt lat="25.421657" lon="100.776907">
<time>2015-09-27T22:38:13Z</time></trkpt>
<trkpt lat="25.421266" lon="100.776566">
<time>2015-09-27T22:38:14Z</time></trkpt>
<trkpt lat="25.420896" lon="100.776266">
<time>2015-09-27T22:38:15Z</time></trkpt>
<trkpt lat="25.417993" lon="100.774285">
<time>2015-09-27T22:38:16Z</time></trkpt>
<trkpt lat="25.417803" lon="100.774125">
<time>2015-09-27T22:38:17Z</time></trkpt>
<trkpt lat="25.417693" lon="100.774015">
<time>2015-09-27T22:38:18Z</time></trkpt>
<trkpt lat="25.417643" lon="100.773955">
<time>2015-09-27T22:38:19Z</time></trkpt>
<trkpt lat="25.417483" lon="100.773795">
<time>2015-09-27T22:38:20Z</time></trkpt>
<trkpt lat="25.417353" lon="100.773655">
<time>2015-09-27T22:38:21Z</time></trkpt>
<trkpt lat="25.417192" lon="100.773505">
<time>2015-09-27T22:38:22Z</time></trkpt>
<trkpt lat="25.417032" lon="100.773365">
<time>2015-09-27T22:38:23Z</time></trkpt>
<trkpt lat="25.416882" lon="100.773215">
<time>2015-09-27T22:38:24Z</time></trkpt>
<trkpt lat="25.416732" lon="100.773065">
<time>2015-09-27T22:38:25Z</time></trkpt>
<trkpt lat="25.416682" lon="100.773025">
<time>2015-09-27T22:38:26Z</time></trkpt>
<trkpt lat="25.416622" lon="100.772955">
<time>2015-09-27T22:38:27Z</time></trkpt>
<trkpt lat="25.416572" lon="100.772915">
<time>2015-09-27T22:38:28Z</time></trkpt>
<trkpt lat="25.416412" lon="100.772765">
<time>2015-09-27T22:38:29Z</time></trkpt>
<trkpt lat="25.416251" lon="100.772605">
<time>2015-09-27T22:38:30Z</time></trkpt>
<trkpt lat="25.416081" lon="100.772445">
<time>2015-09-27T22:38:31Z</time></trkpt>
<trkpt lat="25.415921" lon="100.772284">
<time>2015-09-27T22:38:32Z</time></trkpt>
<trkpt lat="25.415761" lon="100.772134">
<time>2015-09-27T22:38:33Z</time></trkpt>
<trkpt lat="25.415631" lon="100.771984">
<time>2015-09-27T22:38:34Z</time></trkpt>
<trkpt lat="25.415481" lon="100.771824">
<time>2015-09-27T22:38:35Z</time></trkpt>
<trkpt lat="25.41534" lon="100.771684">
<time>2015-09-27T22:38:36Z</time></trkpt>
<trkpt lat="25.41521" lon="100.771564">
<time>2015-09-27T22:38:37Z</time></trkpt>
<trkpt lat="25.41509" lon="100.771454">
<time>2015-09-27T22:38:38Z</time></trkpt>
<trkpt lat="25.41497" lon="100.771324">
<time>2015-09-27T22:38:39Z</time></trkpt>
<trkpt lat="25.41485" lon="100.771194">
<time>2015-09-27T22:38:40Z</time></trkpt>
<trkpt lat="25.41482" lon="100.771164">
<time>2015-09-27T22:38:41Z</time></trkpt>
<trkpt lat="25.41471" lon="100.771054">
<time>2015-09-27T22:38:42Z</time></trkpt>
<trkpt lat="25.41457" lon="100.770904">
<time>2015-09-27T22:38:43Z</time></trkpt>
<trkpt lat="25.41442" lon="100.770744">
<time>2015-09-27T22:38:44Z</time></trkpt>
<trkpt lat="25.414269" lon="100.770584">
<time>2015-09-27T22:38:45Z</time></trkpt>
<trkpt lat="25.414119" lon="100.770424">
<time>2015-09-27T22:38:46Z</time></trkpt>
<trkpt lat="25.413989" lon="100.770294">
<time>2015-09-27T22:38:47Z</time></trkpt>
<trkpt lat="25.413859" lon="100.770154">
<time>2015-09-27T22:38:48Z</time></trkpt>
<trkpt lat="25.413729" lon="100.769974">
<time>2015-09-27T22:38:49Z</time></trkpt>
<trkpt lat="25.413609" lon="100.769794">
<time>2015-09-27T22:38:50Z</time></trkpt>
<trkpt lat="25.413488" lon="100.769594">
<time>2015-09-27T22:38:51Z</time></trkpt>
<trkpt lat="25.413388" lon="100.769423">
<time>2015-09-27T22:38:52Z</time></trkpt>
<trkpt lat="25.413288" lon="100.769273">
<time>2015-09-27T22:38:53Z</time></trkpt>
<trkpt lat="25.413208" lon="100.769113">
<time>2015-09-27T22:38:54Z</time></trkpt>
<trkpt lat="25.413118" lon="100.768873">
<time>2015-09-27T22:38:55Z</time></trkpt>
<trkpt lat="25.413038" lon="100.768723">
<time>2015-09-27T22:38:56Z</time></trkpt>
<trkpt lat="25.412938" lon="100.768553">
<time>2015-09-27T22:38:57Z</time></trkpt>
<trkpt lat="25.412827" lon="100.768403">
<time>2015-09-27T22:38:58Z</time></trkpt>
<trkpt lat="25.412727" lon="100.768203">
<time>2015-09-27T22:38:59Z</time></trkpt>
<trkpt lat="25.412607" lon="100.768033">
<time>2015-09-27T22:39:00Z</time></trkpt>
<trkpt lat="25.412527" lon="100.767853">
<time>2015-09-27T22:39:01Z</time></trkpt>
<trkpt lat="25.412427" lon="100.767673">
<time>2015-09-27T22:39:02Z</time></trkpt>
<trkpt lat="25.412377" lon="100.767613">
<time>2015-09-27T22:39:03Z</time></trkpt>
<trkpt lat="25.412317" lon="100.767513">
<time>2015-09-27T22:39:04Z</time></trkpt>
<trkpt lat="25.412217" lon="100.767333">
<time>2015-09-27T22:39:05Z</time></trkpt>
<trkpt lat="25.412106" lon="100.767163">
<time>2015-09-27T22:39:06Z</time></trkpt>
<trkpt lat="25.412006" lon="100.766963">
<time>2015-09-27T22:39:07Z</time></trkpt>
<trkpt lat="25.411886" lon="100.766763">
<time>2015-09-27T22:39:08Z</time></trkpt>
<trkpt lat="25.411776" lon="100.766563">
<time>2015-09-27T22:39:09Z</time></trkpt>
<trkpt lat="25.411656" lon="100.766363">
<time>2015-09-27T22:39:10Z</time></trkpt>
<trkpt lat="25.411536" lon="100.766153">
<time>2015-09-27T22:39:11Z</time></trkpt>
<trkpt lat="25.411415" lon="100.765943">
<time>2015-09-27T22:39:12Z</time></trkpt>
<trkpt lat="25.411295" lon="100.765723">
<time>2015-09-27T22:39:13Z</time></trkpt>
<trkpt lat="25.411175" lon="100.765503">
<time>2015-09-27T22:39:14Z</time></trkpt>
<trkpt lat="25.411055" lon="100.765293">
<time>2015-09-27T22:39:15Z</time></trkpt>
<trkpt lat="25.410935" lon="100.765083">
<time>2015-09-27T22:39:16Z</time></trkpt>
<trkpt lat="25.410805" lon="100.764863">
<time>2015-09-27T22:39:17Z</time></trkpt>
<trkpt lat="25.410685" lon="100.764663">
<time>2015-09-27T22:39:18Z</time></trkpt>
<trkpt lat="25.410584" lon="100.764463">
<time>2015-09-27T22:39:19Z</time></trkpt>
<trkpt lat="25.410484" lon="100.764292">
<time>2015-09-27T22:39:20Z</time></trkpt>
<trkpt lat="25.410374" lon="100.764112">
<time>2015-09-27T22:39:21Z</time></trkpt>
<trkpt lat="25.410264" lon="100.763932">
<time>2015-09-27T22:39:22Z</time></trkpt>
<trkpt lat="25.410154" lon="100.763752">
<time>2015-09-27T22:39:23Z</time></trkpt>
<trkpt lat="25.410014" lon="100.763522">
<time>2015-09-27T22:39:24Z</time></trkpt>
<trkpt lat="25.409864" lon="100.763272">
<time>2015-09-27T22:39:25Z</time></trkpt>
<trkpt lat="25.409713" lon="100.763012">
<time>2015-09-27T22:39:26Z</time></trkpt>
<trkpt lat="25.409583" lon="100.762762">
<time>2015-09-27T22:39:27Z</time></trkpt>
<trkpt lat="25.409443" lon="100.762552">
<time>2015-09-27T22:39:28Z</time></trkpt>
<trkpt lat="25.409303" lon="100.762312">
<time>2015-09-27T22:39:29Z</time></trkpt>
<trkpt lat="25.409153" lon="100.762032">
<time>2015-09-27T22:39:30Z</time></trkpt>
<trkpt lat="25.409013" lon="100.761772">
<time>2015-09-27T22:39:31Z</time></trkpt>
<trkpt lat="25.408873" lon="100.761532">
<time>2015-09-27T22:39:32Z</time></trkpt>
<trkpt lat="25.408722" lon="100.761282">
<time>2015-09-27T22:39:33Z</time></trkpt>
<trkpt lat="25.408582" lon="100.761032">
<time>2015-09-27T22:39:34Z</time></trkpt>
<trkpt lat="25.408462" lon="100.760812">
<time>2015-09-27T22:39:35Z</time></trkpt>
<trkpt lat="25.408392" lon="100.760692">
<time>2015-09-27T22:39:36Z</time></trkpt>
<trkpt lat="25.408352" lon="100.760602">
<time>2015-09-27T22:39:37Z</time></trkpt>
<trkpt lat="25.408272" lon="100.760462">
<time>2015-09-27T22:39:38Z</time></trkpt>
<trkpt lat="25.408252" lon="100.760412">
<time>2015-09-27T22:39:39Z</time></trkpt>
<trkpt lat="25.408152" lon="100.760242">
<time>2015-09-27T22:39:40Z</time></trkpt>
<trkpt lat="25.408042" lon="100.760032">
<time>2015-09-27T22:39:41Z</time></trkpt>
<trkpt lat="25.407922" lon="100.759822">
<time>2015-09-27T22:39:42Z</time></trkpt>
<trkpt lat="25.407801" lon="100.759612">
<time>2015-09-27T22:39:43Z</time></trkpt>
<trkpt lat="25.407681" lon="100.759422">
<time>2015-09-27T22:39:44Z</time></trkpt>
<trkpt lat="25.407591" lon="100.759253">
<time>2015-09-27T22:39:45Z</time></trkpt>
<trkpt lat="25.407481" lon="100.759073">
<time>2015-09-27T22:39:46Z</time></trkpt>
<trkpt lat="25.407371" lon="100.758913">
<time>2015-09-27T22:39:47Z</time></trkpt>
<trkpt lat="25.407311" lon="100.758803">
<time>2015-09-27T22:39:48Z</time></trkpt>
<trkpt lat="25.407231" lon="100.758663">
<time>2015-09-27T22:39:49Z</time></trkpt>
<trkpt lat="25.407151" lon="100.758543">
<time>2015-09-27T22:39:50Z</time></trkpt>
<trkpt lat="25.407081" lon="100.758413">
<time>2015-09-27T22:39:51Z</time></trkpt>
<trkpt lat="25.407001" lon="100.758283">
<time>2015-09-27T22:39:52Z</time></trkpt>
<trkpt lat="25.406911" lon="100.758133">
<time>2015-09-27T22:39:53Z</time></trkpt>
<trkpt lat="25.406821" lon="100.757973">
<time>2015-09-27T22:39:54Z</time></trkpt>
<trkpt lat="25.406711" lon="100.757803">
<time>2015-09-27T22:39:55Z</time></trkpt>
<trkpt lat="25.406611" lon="100.757613">
<time>2015-09-27T22:39:56Z</time></trkpt>
<trkpt lat="25.4065" lon="100.757453">
<time>2015-09-27T22:39:57Z</time></trkpt>
<trkpt lat="25.40639" lon="100.757253">
<time>2015-09-27T22:39:58Z</time></trkpt>
<trkpt lat="25.40629" lon="100.757053">
<time>2015-09-27T22:39:59Z</time></trkpt>
<trkpt lat="25.40619" lon="100.756873">
<time>2015-09-27T22:40:00Z</time></trkpt>
<trkpt lat="25.40606" lon="100.756663">
<time>2015-09-27T22:40:01Z</time></trkpt>
<trkpt lat="25.40593" lon="100.756463">
<time>2015-09-27T22:40:02Z</time></trkpt>
<trkpt lat="25.40583" lon="100.756273">
<time>2015-09-27T22:40:03Z</time></trkpt>
<trkpt lat="25.40573" lon="100.756083">
<time>2015-09-27T22:40:04Z</time></trkpt>
<trkpt lat="25.40561" lon="100.755873">
<time>2015-09-27T22:40:05Z</time></trkpt>
<trkpt lat="25.40548" lon="100.755683">
<time>2015-09-27T22:40:06Z</time></trkpt>
<trkpt lat="25.40537" lon="100.755493">
<time>2015-09-27T22:40:07Z</time></trkpt>
<trkpt lat="25.40526" lon="100.755303">
<time>2015-09-27T22:40:08Z</time></trkpt>
<trkpt lat="25.40519" lon="100.755113">
<time>2015-09-27T22:40:09Z</time></trkpt>
<trkpt lat="25.405109" lon="100.754923">
<time>2015-09-27T22:40:10Z</time></trkpt>
<trkpt lat="25.405069" lon="100.754703">
<time>2015-09-27T22:40:11Z</time></trkpt>
<trkpt lat="25.405069" lon="100.754683">
<time>2015-09-27T22:40:12Z</time></trkpt>
<trkpt lat="25.405089" lon="100.754463">
<time>2015-09-27T22:40:13Z</time></trkpt>
<trkpt lat="25.405149" lon="100.754254">
<time>2015-09-27T22:40:14Z</time></trkpt>
<trkpt lat="25.405219" lon="100.754024">
<time>2015-09-27T22:40:15Z</time></trkpt>
<trkpt lat="25.405319" lon="100.753764">
<time>2015-09-27T22:40:16Z</time></trkpt>
<trkpt lat="25.405409" lon="100.753524">
<time>2015-09-27T22:40:17Z</time></trkpt>
<trkpt lat="25.405509" lon="100.753314">
<time>2015-09-27T22:40:18Z</time></trkpt>
<trkpt lat="25.405619" lon="100.753064">
<time>2015-09-27T22:40:19Z</time></trkpt>
<trkpt lat="25.405739" lon="100.752824">
<time>2015-09-27T22:40:20Z</time></trkpt>
<trkpt lat="25.405819" lon="100.752614">
<time>2015-09-27T22:40:21Z</time></trkpt>
<trkpt lat="25.405909" lon="100.752414">
<time>2015-09-27T22:40:22Z</time></trkpt>
<trkpt lat="25.406009" lon="100.752174">
<time>2015-09-27T22:40:23Z</time></trkpt>
<trkpt lat="25.406099" lon="100.751954">
<time>2015-09-27T22:40:24Z</time></trkpt>
<trkpt lat="25.406189" lon="100.751724">
<time>2015-09-27T22:40:25Z</time></trkpt>
<trkpt lat="25.406249" lon="100.751544">
<time>2015-09-27T22:40:26Z</time></trkpt>
<trkpt lat="25.406309" lon="100.751345">
<time>2015-09-27T22:40:27Z</time></trkpt>
<trkpt lat="25.406379" lon="100.751105">
<time>2015-09-27T22:40:28Z</time></trkpt>
<trkpt lat="25.406449" lon="100.750875">
<time>2015-09-27T22:40:29Z</time></trkpt>
<trkpt lat="25.406569" lon="100.750385">
<time>2015-09-27T22:40:30Z</time></trkpt>
<trkpt lat="25.406629" lon="100.750015">
<time>2015-09-27T22:40:31Z</time></trkpt>
<trkpt lat="25.406749" lon="100.749595">
<time>2015-09-27T22:40:32Z</time></trkpt>
<trkpt lat="25.406809" lon="100.749435">
<time>2015-09-27T22:40:33Z</time></trkpt>
<trkpt lat="25.406859" lon="100.749235">
<time>2015-09-27T22:40:34Z</time></trkpt>
<trkpt lat="25.406939" lon="100.749076">
<time>2015-09-27T22:40:35Z</time></trkpt>
<trkpt lat="25.407049" lon="100.748876">
<time>2015-09-27T22:40:36Z</time></trkpt>
<trkpt lat="25.407169" lon="100.748706">
<time>2015-09-27T22:40:37Z</time></trkpt>
<trkpt lat="25.407309" lon="100.748546">
<time>2015-09-27T22:40:38Z</time></trkpt>
<trkpt lat="25.407429" lon="100.748376">
<time>2015-09-27T22:40:39Z</time></trkpt>
<trkpt lat="25.407529" lon="100.748216">
<time>2015-09-27T22:40:40Z</time></trkpt>
<trkpt lat="25.407629" lon="100.748056">
<time>2015-09-27T22:40:41Z</time></trkpt>
<trkpt lat="25.407709" lon="100.747876">
<time>2015-09-27T22:40:42Z</time></trkpt>
<trkpt lat="25.407759" lon="100.747696">
<time>2015-09-27T22:40:43Z</time></trkpt>
<trkpt lat="25.407799" lon="100.747526">
<time>2015-09-27T22:40:44Z</time></trkpt>
<trkpt lat="25.407839" lon="100.747376">
<time>2015-09-27T22:40:45Z</time></trkpt>
<trkpt lat="25.407879" lon="100.747227">
<time>2015-09-27T22:40:46Z</time></trkpt>
<trkpt lat="25.407909" lon="100.747077">
<time>2015-09-27T22:40:47Z</time></trkpt>
<trkpt lat="25.407939" lon="100.746917">
<time>2015-09-27T22:40:48Z</time></trkpt>
<trkpt lat="25.407969" lon="100.746767">
<time>2015-09-27T22:40:49Z</time></trkpt>
<trkpt lat="25.408009" lon="100.746577">
<time>2015-09-27T22:40:50Z</time></trkpt>
<trkpt lat="25.40804" lon="100.746417">
<time>2015-09-27T22:40:51Z</time></trkpt>
<trkpt lat="25.40807" lon="100.746237">
<time>2015-09-27T22:40:52Z</time></trkpt>
<trkpt lat="25.4081" lon="100.746067">
<time>2015-09-27T22:40:53Z</time></trkpt>
<trkpt lat="25.40815" lon="100.745887">
<time>2015-09-27T22:40:54Z</time></trkpt>
<trkpt lat="25.40817" lon="100.745707">
<time>2015-09-27T22:40:55Z</time></trkpt>
<trkpt lat="25.4082" lon="100.745468">
<time>2015-09-27T22:40:56Z</time></trkpt>
<trkpt lat="25.40824" lon="100.745198">
<time>2015-09-27T22:40:57Z</time></trkpt>
<trkpt lat="25.40828" lon="100.744968">
<time>2015-09-27T22:40:58Z</time></trkpt>
<trkpt lat="25.40831" lon="100.744728">
<time>2015-09-27T22:40:59Z</time></trkpt>
<trkpt lat="25.40834" lon="100.744488">
<time>2015-09-27T22:41:00Z</time></trkpt>
<trkpt lat="25.40836" lon="100.744278">
<time>2015-09-27T22:41:01Z</time></trkpt>
<trkpt lat="25.40838" lon="100.744029">
<time>2015-09-27T22:41:02Z</time></trkpt>
<trkpt lat="25.40842" lon="100.743779">
<time>2015-09-27T22:41:03Z</time></trkpt>
<trkpt lat="25.40844" lon="100.743549">
<time>2015-09-27T22:41:04Z</time></trkpt>
<trkpt lat="25.40846" lon="100.743329">
<time>2015-09-27T22:41:05Z</time></trkpt>
<trkpt lat="25.40846" lon="100.743319">
<time>2015-09-27T22:41:06Z</time></trkpt>
<trkpt lat="25.40845" lon="100.743139">
<time>2015-09-27T22:41:07Z</time></trkpt>
<trkpt lat="25.40845" lon="100.742969">
<time>2015-09-27T22:41:08Z</time></trkpt>
<trkpt lat="25.40844" lon="100.742859">
<time>2015-09-27T22:41:09Z</time></trkpt>
<trkpt lat="25.40843" lon="100.74267">
<time>2015-09-27T22:41:10Z</time></trkpt>
<trkpt lat="25.40842" lon="100.74252">
<time>2015-09-27T22:41:11Z</time></trkpt>
<trkpt lat="25.40841" lon="100.74239">
<time>2015-09-27T22:41:12Z</time></trkpt>
<trkpt lat="25.40841" lon="100.74228">
<time>2015-09-27T22:41:13Z</time></trkpt>
<trkpt lat="25.40838" lon="100.74211">
<time>2015-09-27T22:41:14Z</time></trkpt>
<trkpt lat="25.40837" lon="100.74208">
<time>2015-09-27T22:41:15Z</time></trkpt>
<trkpt lat="25.40835" lon="100.74192">
<time>2015-09-27T22:41:16Z</time></trkpt>
<trkpt lat="25.40831" lon="100.74175">
<time>2015-09-27T22:41:17Z</time></trkpt>
<trkpt lat="25.40826" lon="100.74158">
<time>2015-09-27T22:41:18Z</time></trkpt>
<trkpt lat="25.408201" lon="100.741391">
<time>2015-09-27T22:41:19Z</time></trkpt>
<trkpt lat="25.408141" lon="100.741211">
<time>2015-09-27T22:41:20Z</time></trkpt>
<trkpt lat="25.408061" lon="100.741031">
<time>2015-09-27T22:41:21Z</time></trkpt>
<trkpt lat="25.407971" lon="100.740871">
<time>2015-09-27T22:41:22Z</time></trkpt>
<trkpt lat="25.407851" lon="100.740681">
<time>2015-09-27T22:41:23Z</time></trkpt>
<trkpt lat="25.407691" lon="100.740491">
<time>2015-09-27T22:41:24Z</time></trkpt>
<trkpt lat="25.407571" lon="100.740312">
<time>2015-09-27T22:41:25Z</time></trkpt>
<trkpt lat="25.407451" lon="100.740132">
<time>2015-09-27T22:41:26Z</time></trkpt>
<trkpt lat="25.407311" lon="100.739932">
<time>2015-09-27T22:41:27Z</time></trkpt>
<trkpt lat="25.407201" lon="100.739742">
<time>2015-09-27T22:41:28Z</time></trkpt>
<trkpt lat="25.407121" lon="100.739582">
<time>2015-09-27T22:41:29Z</time></trkpt>
<trkpt lat="25.407041" lon="100.739412">
<time>2015-09-27T22:41:30Z</time></trkpt>
<trkpt lat="25.406961" lon="100.739203">
<time>2015-09-27T22:41:31Z</time></trkpt>
<trkpt lat="25.406941" lon="100.739013">
<time>2015-09-27T22:41:32Z</time></trkpt>
<trkpt lat="25.406931" lon="100.738823">
<time>2015-09-27T22:41:33Z</time></trkpt>
<trkpt lat="25.406961" lon="100.738643">
<time>2015-09-27T22:41:34Z</time></trkpt>
<trkpt lat="25.407001" lon="100.738473">
<time>2015-09-27T22:41:35Z</time></trkpt>
<trkpt lat="25.407041" lon="100.738323">
<time>2015-09-27T22:41:36Z</time></trkpt>
<trkpt lat="25.407081" lon="100.738183">
<time>2015-09-27T22:41:37Z</time></trkpt>
<trkpt lat="25.407091" lon="100.738064">
<time>2015-09-27T22:41:38Z</time></trkpt>
<trkpt lat="25.407142" lon="100.737944">
<time>2015-09-27T22:41:39Z</time></trkpt>
<trkpt lat="25.407182" lon="100.737844">
<time>2015-09-27T22:41:40Z</time></trkpt>
<trkpt lat="25.407232" lon="100.737714">
<time>2015-09-27T22:41:41Z</time></trkpt>
<trkpt lat="25.407272" lon="100.737604">
<time>2015-09-27T22:41:42Z</time></trkpt>
<trkpt lat="25.407302" lon="100.737484">
<time>2015-09-27T22:41:43Z</time></trkpt>
<trkpt lat="25.407342" lon="100.737384">
<time>2015-09-27T22:41:44Z</time></trkpt>
<trkpt lat="25.407382" lon="100.737284">
<time>2015-09-27T22:41:45Z</time></trkpt>
<trkpt lat="25.407432" lon="100.737134">
<time>2015-09-27T22:41:46Z</time></trkpt>
<trkpt lat="25.407492" lon="100.737035">
<time>2015-09-27T22:41:47Z</time></trkpt>
<trkpt lat="25.407532" lon="100.736935">
<time>2015-09-27T22:41:48Z</time></trkpt>
<trkpt lat="25.407582" lon="100.736805">
<time>2015-09-27T22:41:49Z</time></trkpt>
<trkpt lat="25.407642" lon="100.736675">
<time>2015-09-27T22:41:50Z</time></trkpt>
<trkpt lat="25.407702" lon="100.736545">
<time>2015-09-27T22:41:51Z</time></trkpt>
<trkpt lat="25.407752" lon="100.736425">
<time>2015-09-27T22:41:52Z</time></trkpt>
<trkpt lat="25.407802" lon="100.736315">
<time>2015-09-27T22:41:53Z</time></trkpt>
<trkpt lat="25.407852" lon="100.736195">
<time>2015-09-27T22:41:54Z</time></trkpt>
<trkpt lat="25.407903" lon="100.736076">
<time>2015-09-27T22:41:55Z</time></trkpt>
<trkpt lat="25.407963" lon="100.735956">
<time>2015-09-27T22:41:56Z</time></trkpt>
<trkpt lat="25.408043" lon="100.735816">
<time>2015-09-27T22:41:57Z</time></trkpt>
<trkpt lat="25.408093" lon="100.735676">
<time>2015-09-27T22:41:58Z</time></trkpt>
<trkpt lat="25.408173" lon="100.735536">
<time>2015-09-27T22:41:59Z</time></trkpt>
<trkpt lat="25.408243" lon="100.735376">
<time>2015-09-27T22:42:00Z</time></trkpt>
<trkpt lat="25.408303" lon="100.735266">
<time>2015-09-27T22:42:01Z</time></trkpt>
<trkpt lat="25.408363" lon="100.735147">
<time>2015-09-27T22:42:02Z</time></trkpt>
<trkpt lat="25.408423" lon="100.735047">
<time>2015-09-27T22:42:03Z</time></trkpt>
<trkpt lat="25.408483" lon="100.734917">
<time>2015-09-27T22:42:04Z</time></trkpt>
<trkpt lat="25.408543" lon="100.734787">
<time>2015-09-27T22:42:05Z</time></trkpt>
<trkpt lat="25.408613" lon="100.734667">
<time>2015-09-27T22:42:06Z</time></trkpt>
<trkpt lat="25.408683" lon="100.734537">
<time>2015-09-27T22:42:07Z</time></trkpt>
<trkpt lat="25.408764" lon="100.734377">
<time>2015-09-27T22:42:08Z</time></trkpt>
<trkpt lat="25.408874" lon="100.734198">
<time>2015-09-27T22:42:09Z</time></trkpt>
<trkpt lat="25.408964" lon="100.734028">
<time>2015-09-27T22:42:10Z</time></trkpt>
<trkpt lat="25.408974" lon="100.734028">
<time>2015-09-27T22:42:11Z</time></trkpt>
<trkpt lat="25.409044" lon="100.733888">
<time>2015-09-27T22:42:12Z</time></trkpt>
<trkpt lat="25.409134" lon="100.733728">
<time>2015-09-27T22:42:13Z</time></trkpt>
<trkpt lat="25.409254" lon="100.733538">
<time>2015-09-27T22:42:14Z</time></trkpt>
<trkpt lat="25.409364" lon="100.733348">
<time>2015-09-27T22:42:15Z</time></trkpt>
<trkpt lat="25.409494" lon="100.733159">
<time>2015-09-27T22:42:16Z</time></trkpt>
<trkpt lat="25.409645" lon="100.732929">
<time>2015-09-27T22:42:17Z</time></trkpt>
<trkpt lat="25.409775" lon="100.732739">
<time>2015-09-27T22:42:18Z</time></trkpt>
<trkpt lat="25.409895" lon="100.732559">
<time>2015-09-27T22:42:19Z</time></trkpt>
<trkpt lat="25.409985" lon="100.73241">
<time>2015-09-27T22:42:20Z</time></trkpt>
<trkpt lat="25.410125" lon="100.73225">
<time>2015-09-27T22:42:21Z</time></trkpt>
<trkpt lat="25.410245" lon="100.73209">
<time>2015-09-27T22:42:22Z</time></trkpt>
<trkpt lat="25.410365" lon="100.73193">
<time>2015-09-27T22:42:23Z</time></trkpt>
<trkpt lat="25.410475" lon="100.73177">
<time>2015-09-27T22:42:24Z</time></trkpt>
<trkpt lat="25.410596" lon="100.73161">
<time>2015-09-27T22:42:25Z</time></trkpt>
<trkpt lat="25.410716" lon="100.731441">
<time>2015-09-27T22:42:26Z</time></trkpt>
<trkpt lat="25.410856" lon="100.731281">
<time>2015-09-27T22:42:27Z</time></trkpt>
<trkpt lat="25.410976" lon="100.731111">
<time>2015-09-27T22:42:28Z</time></trkpt>
<trkpt lat="25.411096" lon="100.730961">
<time>2015-09-27T22:42:29Z</time></trkpt>
<trkpt lat="25.411226" lon="100.730791">
<time>2015-09-27T22:42:30Z</time></trkpt>
<trkpt lat="25.411346" lon="100.730622">
<time>2015-09-27T22:42:31Z</time></trkpt>
<trkpt lat="25.411457" lon="100.730472">
<time>2015-09-27T22:42:32Z</time></trkpt>
<trkpt lat="25.411577" lon="100.730322">
<time>2015-09-27T22:42:33Z</time></trkpt>
<trkpt lat="25.411677" lon="100.730182">
<time>2015-09-27T22:42:34Z</time></trkpt>
<trkpt lat="25.411777" lon="100.730032">
<time>2015-09-27T22:42:35Z</time></trkpt>
<trkpt lat="25.411887" lon="100.729903">
<time>2015-09-27T22:42:36Z</time></trkpt>
<trkpt lat="25.411977" lon="100.729773">
<time>2015-09-27T22:42:37Z</time></trkpt>
<trkpt lat="25.412077" lon="100.729623">
<time>2015-09-27T22:42:38Z</time></trkpt>
<trkpt lat="25.412157" lon="100.729463">
<time>2015-09-27T22:42:39Z</time></trkpt>
<trkpt lat="25.412218" lon="100.729333">
<time>2015-09-27T22:42:40Z</time></trkpt>
<trkpt lat="25.412248" lon="100.729253">
<time>2015-09-27T22:42:41Z</time></trkpt>
<trkpt lat="25.412248" lon="100.729253">
<time>2015-09-27T22:42:42Z</time></trkpt>
<trkpt lat="25.411758" lon="100.728524">
<time>2015-09-27T22:42:43Z</time></trkpt>
<trkpt lat="25.411588" lon="100.728105">
<time>2015-09-27T22:42:44Z</time></trkpt>
<trkpt lat="25.411429" lon="100.727666">
<time>2015-09-27T22:42:45Z</time></trkpt>
<trkpt lat="25.411319" lon="100.727376">
<time>2015-09-27T22:42:46Z</time></trkpt>
<trkpt lat="25.411179" lon="100.726957">
<time>2015-09-27T22:42:47Z</time></trkpt>
<trkpt lat="25.411179" lon="100.726937">
<time>2015-09-27T22:42:48Z</time></trkpt>
<trkpt lat="25.411069" lon="100.726597">
<time>2015-09-27T22:42:49Z</time></trkpt>
<trkpt lat="25.41094" lon="100.726277">
<time>2015-09-27T22:42:50Z</time></trkpt>
<trkpt lat="25.41078" lon="100.725958">
<time>2015-09-27T22:42:51Z</time></trkpt>
<trkpt lat="25.41058" lon="100.725469">
<time>2015-09-27T22:42:52Z</time></trkpt>
<trkpt lat="25.410431" lon="100.725129">
<time>2015-09-27T22:42:53Z</time></trkpt>
<trkpt lat="25.410171" lon="100.72462">
<time>2015-09-27T22:42:54Z</time></trkpt>
<trkpt lat="25.409921" lon="100.724101">
<time>2015-09-27T22:42:55Z</time></trkpt>
<trkpt lat="25.409692" lon="100.723601">
<time>2015-09-27T22:42:56Z</time></trkpt>
<trkpt lat="25.409542" lon="100.723312">
<time>2015-09-27T22:42:57Z</time></trkpt>
<trkpt lat="25.409342" lon="100.722853">
<time>2015-09-27T22:42:58Z</time></trkpt>
<trkpt lat="25.409103" lon="100.722353">
<time>2015-09-27T22:42:59Z</time></trkpt>
<trkpt lat="25.408853" lon="100.721834">
<time>2015-09-27T22:43:00Z</time></trkpt>
<trkpt lat="25.408644" lon="100.721365">
<time>2015-09-27T22:43:01Z</time></trkpt>
<trkpt lat="25.408464" lon="100.720906">
<time>2015-09-27T22:43:02Z</time></trkpt>
<trkpt lat="25.408235" lon="100.720476">
<time>2015-09-27T22:43:03Z</time></trkpt>
<trkpt lat="25.408115" lon="100.720287">
<time>2015-09-27T22:43:04Z</time></trkpt>
<trkpt lat="25.408005" lon="100.720057">
<time>2015-09-27T22:43:05Z</time></trkpt>
<trkpt lat="25.407755" lon="100.719538">
<time>2015-09-27T22:43:06Z</time></trkpt>
<trkpt lat="25.407576" lon="100.719159">
<time>2015-09-27T22:43:07Z</time></trkpt>
<trkpt lat="25.407386" lon="100.718729">
<time>2015-09-27T22:43:08Z</time></trkpt>
<trkpt lat="25.407197" lon="100.71832">
<time>2015-09-27T22:43:09Z</time></trkpt>
<trkpt lat="25.407077" lon="100.71805">
<time>2015-09-27T22:43:10Z</time></trkpt>
<trkpt lat="25.406987" lon="100.717891">
<time>2015-09-27T22:43:11Z</time></trkpt>
<trkpt lat="25.406907" lon="100.717511">
<time>2015-09-27T22:43:12Z</time></trkpt>
<trkpt lat="25.406838" lon="100.717242">
<time>2015-09-27T22:43:13Z</time></trkpt>
<trkpt lat="25.406738" lon="100.716912">
<time>2015-09-27T22:43:14Z</time></trkpt>
<trkpt lat="25.406589" lon="100.716393">
<time>2015-09-27T22:43:15Z</time></trkpt>
<trkpt lat="25.406489" lon="100.716044">
<time>2015-09-27T22:43:16Z</time></trkpt>
<trkpt lat="25.40633" lon="100.715505">
<time>2015-09-27T22:43:17Z</time></trkpt>
<trkpt lat="25.40616" lon="100.714986">
<time>2015-09-27T22:43:18Z</time></trkpt>
<trkpt lat="25.406001" lon="100.714497">
<time>2015-09-27T22:43:19Z</time></trkpt>
<trkpt lat="25.405851" lon="100.714018">
<time>2015-09-27T22:43:20Z</time></trkpt>
<trkpt lat="25.405692" lon="100.713499">
<time>2015-09-27T22:43:21Z</time></trkpt>
<trkpt lat="25.405533" lon="100.713">
<time>2015-09-27T22:43:22Z</time></trkpt>
<trkpt lat="25.405373" lon="100.71248">
<time>2015-09-27T22:43:23Z</time></trkpt>
<trkpt lat="25.405224" lon="100.711961">
<time>2015-09-27T22:43:24Z</time></trkpt>
<trkpt lat="25.405055" lon="100.711423">
<time>2015-09-27T22:43:25Z</time></trkpt>
<trkpt lat="25.404895" lon="100.710913">
<time>2015-09-27T22:43:26Z</time></trkpt>
<trkpt lat="25.404666" lon="100.710175">
<time>2015-09-27T22:43:27Z</time></trkpt>
<trkpt lat="25.404666" lon="100.710175">
<time>2015-09-27T22:43:28Z</time></trkpt>
<trkpt lat="25.405247" lon="100.709875">
<time>2015-09-27T22:43:29Z</time></trkpt>
<trkpt lat="25.405577" lon="100.709706">
<time>2015-09-27T22:43:30Z</time></trkpt>
<trkpt lat="25.405797" lon="100.709616">
<time>2015-09-27T22:43:31Z</time></trkpt>
<trkpt lat="25.405917" lon="100.709556">
<time>2015-09-27T22:43:32Z</time></trkpt>
<trkpt lat="25.406157" lon="100.709416">
<time>2015-09-27T22:43:33Z</time></trkpt>
<trkpt lat="25.406448" lon="100.709287">
<time>2015-09-27T22:43:34Z</time></trkpt>
<trkpt lat="25.406888" lon="100.709037">
<time>2015-09-27T22:43:35Z</time></trkpt>
<trkpt lat="25.407198" lon="100.708857">
<time>2015-09-27T22:43:36Z</time></trkpt>
<trkpt lat="25.407549" lon="100.708678">
<time>2015-09-27T22:43:37Z</time></trkpt>
<trkpt lat="25.407799" lon="100.708558">
<time>2015-09-27T22:43:38Z</time></trkpt>
<trkpt lat="25.408249" lon="100.708309">
<time>2015-09-27T22:43:39Z</time></trkpt>
<trkpt lat="25.40858" lon="100.708169">
<time>2015-09-27T22:43:40Z</time></trkpt>
<trkpt lat="25.4088" lon="100.708049">
<time>2015-09-27T22:43:41Z</time></trkpt>
<trkpt lat="25.40899" lon="100.707939">
<time>2015-09-27T22:43:42Z</time></trkpt>
<trkpt lat="25.40942" lon="100.70772">
<time>2015-09-27T22:43:43Z</time></trkpt>
<trkpt lat="25.409831" lon="100.7075">
<time>2015-09-27T22:43:44Z</time></trkpt>
<trkpt lat="25.410001" lon="100.70742">
<time>2015-09-27T22:43:45Z</time></trkpt>
<trkpt lat="25.410261" lon="100.707271">
<time>2015-09-27T22:43:46Z</time></trkpt>
<trkpt lat="25.410602" lon="100.707101">
<time>2015-09-27T22:43:47Z</time></trkpt>
<trkpt lat="25.410942" lon="100.706931">
<time>2015-09-27T22:43:48Z</time></trkpt>
<trkpt lat="25.411222" lon="100.706792">
<time>2015-09-27T22:43:49Z</time></trkpt>
<trkpt lat="25.411362" lon="100.706692">
<time>2015-09-27T22:43:50Z</time></trkpt>
<trkpt lat="25.411612" lon="100.706572">
<time>2015-09-27T22:43:51Z</time></trkpt>
<trkpt lat="25.411893" lon="100.706432">
<time>2015-09-27T22:43:52Z</time></trkpt>
<trkpt lat="25.412193" lon="100.706283">
<time>2015-09-27T22:43:53Z</time></trkpt>
<trkpt lat="25.412543" lon="100.706163">
<time>2015-09-27T22:43:54Z</time></trkpt>
<trkpt lat="25.412603" lon="100.706143">
<time>2015-09-27T22:43:55Z</time></trkpt>
<trkpt lat="25.412673" lon="100.706113">
<time>2015-09-27T22:43:56Z</time></trkpt>
<trkpt lat="25.412924" lon="100.705953">
<time>2015-09-27T22:43:57Z</time></trkpt>
<trkpt lat="25.413224" lon="100.705744">
<time>2015-09-27T22:43:58Z</time></trkpt>
<trkpt lat="25.413685" lon="100.705414">
<time>2015-09-27T22:43:59Z</time></trkpt>
<trkpt lat="25.414065" lon="100.705125">
<time>2015-09-27T22:44:00Z</time></trkpt>
<trkpt lat="25.414536" lon="100.704766">
<time>2015-09-27T22:44:01Z</time></trkpt>
<trkpt lat="25.414756" lon="100.704606">
<time>2015-09-27T22:44:02Z</time></trkpt>
<trkpt lat="25.414906" lon="100.704496">
<time>2015-09-27T22:44:03Z</time></trkpt>
<trkpt lat="25.415367" lon="100.704157">
<time>2015-09-27T22:44:04Z</time></trkpt>
<trkpt lat="25.415567" lon="100.703987">
<time>2015-09-27T22:44:05Z</time></trkpt>
<trkpt lat="25.415687" lon="100.703907">
<time>2015-09-27T22:44:06Z</time></trkpt>
<trkpt lat="25.415777" lon="100.703858">
<time>2015-09-27T22:44:07Z</time></trkpt>
<trkpt lat="25.415867" lon="100.703798">
<time>2015-09-27T22:44:08Z</time></trkpt>
<trkpt lat="25.415938" lon="100.703748">
<time>2015-09-27T22:44:09Z</time></trkpt>
<trkpt lat="25.416048" lon="100.703668">
<time>2015-09-27T22:44:10Z</time></trkpt>
<trkpt lat="25.416198" lon="100.703558">
<time>2015-09-27T22:44:11Z</time></trkpt>
<trkpt lat="25.416428" lon="100.703408">
<time>2015-09-27T22:44:12Z</time></trkpt>
<trkpt lat="25.416598" lon="100.703309">
<time>2015-09-27T22:44:13Z</time></trkpt>
<trkpt lat="25.416658" lon="100.703289">
<time>2015-09-27T22:44:14Z</time></trkpt>
<trkpt lat="25.416678" lon="100.703269">
<time>2015-09-27T22:44:15Z</time></trkpt>
<trkpt lat="25.416829" lon="100.703169">
<time>2015-09-27T22:44:16Z</time></trkpt>
<trkpt lat="25.416959" lon="100.703079">
<time>2015-09-27T22:44:17Z</time></trkpt>
<trkpt lat="25.417349" lon="100.70277">
<time>2015-09-27T22:44:18Z</time></trkpt>
<trkpt lat="25.417459" lon="100.70267">
<time>2015-09-27T22:44:19Z</time></trkpt>
<trkpt lat="25.41757" lon="100.70254">
<time>2015-09-27T22:44:20Z</time></trkpt>
<trkpt lat="25.41768" lon="100.702461">
<time>2015-09-27T22:44:21Z</time></trkpt>
<trkpt lat="25.41792" lon="100.702231">
<time>2015-09-27T22:44:22Z</time></trkpt>
<trkpt lat="25.418131" lon="100.702041">
<time>2015-09-27T22:44:23Z</time></trkpt>
<trkpt lat="25.418391" lon="100.701822">
<time>2015-09-27T22:44:24Z</time></trkpt>
<trkpt lat="25.418551" lon="100.701702">
<time>2015-09-27T22:44:25Z</time></trkpt>
<trkpt lat="25.418772" lon="100.701532">
<time>2015-09-27T22:44:26Z</time></trkpt>
<trkpt lat="25.419002" lon="100.701333">
<time>2015-09-27T22:44:27Z</time></trkpt>
<trkpt lat="25.419222" lon="100.701183">
<time>2015-09-27T22:44:28Z</time></trkpt>
<trkpt lat="25.419372" lon="100.701044">
<time>2015-09-27T22:44:29Z</time></trkpt>
<trkpt lat="25.419593" lon="100.700874">
<time>2015-09-27T22:44:30Z</time></trkpt>
<trkpt lat="25.419813" lon="100.700734">
<time>2015-09-27T22:44:31Z</time></trkpt>
<trkpt lat="25.420053" lon="100.700535">
<time>2015-09-27T22:44:32Z</time></trkpt>
<trkpt lat="25.420514" lon="100.700175">
<time>2015-09-27T22:44:33Z</time></trkpt>
<trkpt lat="25.420714" lon="100.700006">
<time>2015-09-27T22:44:34Z</time></trkpt>
<trkpt lat="25.421145" lon="100.699677">
<time>2015-09-27T22:44:35Z</time></trkpt>
<trkpt lat="25.421445" lon="100.699437">
<time>2015-09-27T22:44:36Z</time></trkpt>
<trkpt lat="25.421676" lon="100.699237">
<time>2015-09-27T22:44:37Z</time></trkpt>
<trkpt lat="25.421936" lon="100.699028">
<time>2015-09-27T22:44:38Z</time></trkpt>
<trkpt lat="25.422166" lon="100.698858">
<time>2015-09-27T22:44:39Z</time></trkpt>
<trkpt lat="25.422377" lon="100.698689">
<time>2015-09-27T22:44:40Z</time></trkpt>
<trkpt lat="25.422527" lon="100.698549">
<time>2015-09-27T22:44:41Z</time></trkpt>
<trkpt lat="25.422577" lon="100.698489">
<time>2015-09-27T22:44:42Z</time></trkpt>
<trkpt lat="25.422657" lon="100.69832">
<time>2015-09-27T22:44:43Z</time></trkpt>
<trkpt lat="25.422818" lon="100.69793">
<time>2015-09-27T22:44:44Z</time></trkpt>
<trkpt lat="25.422989" lon="100.697511">
<time>2015-09-27T22:44:45Z</time></trkpt>
<trkpt lat="25.42316" lon="100.697112">
<time>2015-09-27T22:44:46Z</time></trkpt>
<trkpt lat="25.42329" lon="100.696793">
<time>2015-09-27T22:44:47Z</time></trkpt>
<trkpt lat="25.423501" lon="100.696324">
<time>2015-09-27T22:44:48Z</time></trkpt>
<trkpt lat="25.423702" lon="100.695855">
<time>2015-09-27T22:44:49Z</time></trkpt>
<trkpt lat="25.423913" lon="100.695396">
<time>2015-09-27T22:44:50Z</time></trkpt>
<trkpt lat="25.423943" lon="100.695326">
<time>2015-09-27T22:44:51Z</time></trkpt>
<trkpt lat="25.424093" lon="100.694947">
<time>2015-09-27T22:44:52Z</time></trkpt>
<trkpt lat="25.424284" lon="100.694518">
<time>2015-09-27T22:44:53Z</time></trkpt>
<trkpt lat="25.424465" lon="100.694099">
<time>2015-09-27T22:44:54Z</time></trkpt>
<trkpt lat="25.424646" lon="100.69368">
<time>2015-09-27T22:44:55Z</time></trkpt>
<trkpt lat="25.424816" lon="100.693301">
<time>2015-09-27T22:44:56Z</time></trkpt>
<trkpt lat="25.424857" lon="100.693201">
<time>2015-09-27T22:44:57Z</time></trkpt>
<trkpt lat="25.424877" lon="100.693151">
<time>2015-09-27T22:44:58Z</time></trkpt>
<trkpt lat="25.425007" lon="100.692832">
<time>2015-09-27T22:44:59Z</time></trkpt>
<trkpt lat="25.425178" lon="100.692433">
<time>2015-09-27T22:45:00Z</time></trkpt>
<trkpt lat="25.425318" lon="100.692144">
<time>2015-09-27T22:45:01Z</time></trkpt>
<trkpt lat="25.42576" lon="100.691396">
<time>2015-09-27T22:45:02Z</time></trkpt>
<trkpt lat="25.42576" lon="100.691396">
<time>2015-09-27T22:45:03Z</time></trkpt>
<trkpt lat="25.42585" lon="100.691226">
<time>2015-09-27T22:45:04Z</time></trkpt>
<trkpt lat="25.425951" lon="100.691026">
<time>2015-09-27T22:45:05Z</time></trkpt>
<trkpt lat="25.426021" lon="100.690847">
<time>2015-09-27T22:45:06Z</time></trkpt>
<trkpt lat="25.426091" lon="100.690727">
<time>2015-09-27T22:45:07Z</time></trkpt>
<trkpt lat="25.426171" lon="100.690558">
<time>2015-09-27T22:45:08Z</time></trkpt>
<trkpt lat="25.426242" lon="100.690398">
<time>2015-09-27T22:45:09Z</time></trkpt>
<trkpt lat="25.426312" lon="100.690258">
<time>2015-09-27T22:45:10Z</time></trkpt>
<trkpt lat="25.426362" lon="100.690109">
<time>2015-09-27T22:45:11Z</time></trkpt>
<trkpt lat="25.426402" lon="100.690009">
<time>2015-09-27T22:45:12Z</time></trkpt>
<trkpt lat="25.426413" lon="100.689969">
<time>2015-09-27T22:45:13Z</time></trkpt>
<trkpt lat="25.426463" lon="100.689839">
<time>2015-09-27T22:45:14Z</time></trkpt>
<trkpt lat="25.426543" lon="100.68968">
<time>2015-09-27T22:45:15Z</time></trkpt>
<trkpt lat="25.426603" lon="100.68951">
<time>2015-09-27T22:45:16Z</time></trkpt>
<trkpt lat="25.426684" lon="100.689261">
<time>2015-09-27T22:45:17Z</time></trkpt>
<trkpt lat="25.426734" lon="100.689021">
<time>2015-09-27T22:45:18Z</time></trkpt>
<trkpt lat="25.426745" lon="100.688882">
<time>2015-09-27T22:45:19Z</time></trkpt>
<trkpt lat="25.426765" lon="100.688732">
<time>2015-09-27T22:45:20Z</time></trkpt>
<trkpt lat="25.426785" lon="100.688572">
<time>2015-09-27T22:45:21Z</time></trkpt>
<trkpt lat="25.426785" lon="100.688443">
<time>2015-09-27T22:45:22Z</time></trkpt>
<trkpt lat="25.426806" lon="100.688323">
<time>2015-09-27T22:45:23Z</time></trkpt>
<trkpt lat="25.426816" lon="100.688123">
<time>2015-09-27T22:45:24Z</time></trkpt>
<trkpt lat="25.426816" lon="100.688034">
<time>2015-09-27T22:45:25Z</time></trkpt>
<trkpt lat="25.426826" lon="100.687964">
<time>2015-09-27T22:45:26Z</time></trkpt>
<trkpt lat="25.426847" lon="100.687774">
<time>2015-09-27T22:45:27Z</time></trkpt>
<trkpt lat="25.426867" lon="100.687655">
<time>2015-09-27T22:45:28Z</time></trkpt>
<trkpt lat="25.426877" lon="100.687535">
<time>2015-09-27T22:45:29Z</time></trkpt>
<trkpt lat="25.426877" lon="100.687405">
<time>2015-09-27T22:45:30Z</time></trkpt>
<trkpt lat="25.426867" lon="100.687266">
<time>2015-09-27T22:45:31Z</time></trkpt>
<trkpt lat="25.426878" lon="100.687136">
<time>2015-09-27T22:45:32Z</time></trkpt>
<trkpt lat="25.426878" lon="100.687016">
<time>2015-09-27T22:45:33Z</time></trkpt>
<trkpt lat="25.426888" lon="100.686886">
<time>2015-09-27T22:45:34Z</time></trkpt>
<trkpt lat="25.426888" lon="100.686757">
<time>2015-09-27T22:45:35Z</time></trkpt>
<trkpt lat="25.426889" lon="100.686607">
<time>2015-09-27T22:45:36Z</time></trkpt>
<trkpt lat="25.426909" lon="100.686448">
<time>2015-09-27T22:45:37Z</time></trkpt>
<trkpt lat="25.426919" lon="100.686278">
<time>2015-09-27T22:45:38Z</time></trkpt>
<trkpt lat="25.42693" lon="100.686108">
<time>2015-09-27T22:45:39Z</time></trkpt>
<trkpt lat="25.42693" lon="100.685929">
<time>2015-09-27T22:45:40Z</time></trkpt>
<trkpt lat="25.42693" lon="100.685889">
<time>2015-09-27T22:45:41Z</time></trkpt>
<trkpt lat="25.42694" lon="100.685749">
<time>2015-09-27T22:45:42Z</time></trkpt>
<trkpt lat="25.426941" lon="100.68557">
<time>2015-09-27T22:45:43Z</time></trkpt>
<trkpt lat="25.426951" lon="100.68541">
<time>2015-09-27T22:45:44Z</time></trkpt>
<trkpt lat="25.426941" lon="100.68526">
<time>2015-09-27T22:45:45Z</time></trkpt>
<trkpt lat="25.426951" lon="100.685111">
<time>2015-09-27T22:45:46Z</time></trkpt>
<trkpt lat="25.426982" lon="100.684961">
<time>2015-09-27T22:45:47Z</time></trkpt>
<trkpt lat="25.426992" lon="100.684792">
<time>2015-09-27T22:45:48Z</time></trkpt>
<trkpt lat="25.427002" lon="100.684612">
<time>2015-09-27T22:45:49Z</time></trkpt>
<trkpt lat="25.427003" lon="100.684423">
<time>2015-09-27T22:45:50Z</time></trkpt>
<trkpt lat="25.427013" lon="100.684233">
<time>2015-09-27T22:45:51Z</time></trkpt>
<trkpt lat="25.427013" lon="100.684044">
<time>2015-09-27T22:45:52Z</time></trkpt>
<trkpt lat="25.427034" lon="100.683844">
<time>2015-09-27T22:45:53Z</time></trkpt>
<trkpt lat="25.427044" lon="100.683605">
<time>2015-09-27T22:45:54Z</time></trkpt>
<trkpt lat="25.427055" lon="100.683405">
<time>2015-09-27T22:45:55Z</time></trkpt>
<trkpt lat="25.427075" lon="100.683176">
<time>2015-09-27T22:45:56Z</time></trkpt>
<trkpt lat="25.427085" lon="100.682976">
<time>2015-09-27T22:45:57Z</time></trkpt>
<trkpt lat="25.427086" lon="100.682717">
<time>2015-09-27T22:45:58Z</time></trkpt>
<trkpt lat="25.427086" lon="100.682607">
<time>2015-09-27T22:45:59Z</time></trkpt>
<trkpt lat="25.427096" lon="100.682487">
<time>2015-09-27T22:46:00Z</time></trkpt>
<trkpt lat="25.427097" lon="100.682248">
<time>2015-09-27T22:46:01Z</time></trkpt>
<trkpt lat="25.427107" lon="100.682019">
<time>2015-09-27T22:46:02Z</time></trkpt>
<trkpt lat="25.427118" lon="100.681779">
<time>2015-09-27T22:46:03Z</time></trkpt>
<trkpt lat="25.427128" lon="100.68156">
<time>2015-09-27T22:46:04Z</time></trkpt>
<trkpt lat="25.427108" lon="100.68134">
<time>2015-09-27T22:46:05Z</time></trkpt>
<trkpt lat="25.427049" lon="100.681111">
<time>2015-09-27T22:46:06Z</time></trkpt>
<trkpt lat="25.426949" lon="100.680891">
<time>2015-09-27T22:46:07Z</time></trkpt>
<trkpt lat="25.42682" lon="100.680692">
<time>2015-09-27T22:46:08Z</time></trkpt>
<trkpt lat="25.42666" lon="100.680472">
<time>2015-09-27T22:46:09Z</time></trkpt>
<trkpt lat="25.42649" lon="100.680243">
<time>2015-09-27T22:46:10Z</time></trkpt>
<trkpt lat="25.426301" lon="100.680014">
<time>2015-09-27T22:46:11Z</time></trkpt>
<trkpt lat="25.426121" lon="100.679784">
<time>2015-09-27T22:46:12Z</time></trkpt>
<trkpt lat="25.425942" lon="100.679555">
<time>2015-09-27T22:46:13Z</time></trkpt>
<trkpt lat="25.425912" lon="100.679515">
<time>2015-09-27T22:46:14Z</time></trkpt>
<trkpt lat="25.425782" lon="100.679335">
<time>2015-09-27T22:46:15Z</time></trkpt>
<trkpt lat="25.425652" lon="100.679176">
<time>2015-09-27T22:46:16Z</time></trkpt>
<trkpt lat="25.425532" lon="100.679016">
<time>2015-09-27T22:46:17Z</time></trkpt>
<trkpt lat="25.425403" lon="100.678837">
<time>2015-09-27T22:46:18Z</time></trkpt>
<trkpt lat="25.425393" lon="100.678817">
<time>2015-09-27T22:46:19Z</time></trkpt>
<trkpt lat="25.425253" lon="100.678667">
<time>2015-09-27T22:46:20Z</time></trkpt>
<trkpt lat="25.425113" lon="100.678478">
<time>2015-09-27T22:46:21Z</time></trkpt>
<trkpt lat="25.424964" lon="100.678298">
<time>2015-09-27T22:46:22Z</time></trkpt>
<trkpt lat="25.424834" lon="100.678099">
<time>2015-09-27T22:46:23Z</time></trkpt>
<trkpt lat="25.424684" lon="100.677899">
<time>2015-09-27T22:46:24Z</time></trkpt>
<trkpt lat="25.424575" lon="100.67765">
<time>2015-09-27T22:46:25Z</time></trkpt>
<trkpt lat="25.424485" lon="100.67745">
<time>2015-09-27T22:46:26Z</time></trkpt>
<trkpt lat="25.424396" lon="100.677181">
<time>2015-09-27T22:46:27Z</time></trkpt>
<trkpt lat="25.424296" lon="100.676892">
<time>2015-09-27T22:46:28Z</time></trkpt>
<trkpt lat="25.424207" lon="100.676562">
<time>2015-09-27T22:46:29Z</time></trkpt>
<trkpt lat="25.424107" lon="100.676293">
<time>2015-09-27T22:46:30Z</time></trkpt>
<trkpt lat="25.424008" lon="100.676024">
<time>2015-09-27T22:46:31Z</time></trkpt>
<trkpt lat="25.423918" lon="100.675774">
<time>2015-09-27T22:46:32Z</time></trkpt>
<trkpt lat="25.423839" lon="100.675555">
<time>2015-09-27T22:46:33Z</time></trkpt>
<trkpt lat="25.423769" lon="100.675365">
<time>2015-09-27T22:46:34Z</time></trkpt>
<trkpt lat="25.423709" lon="100.675166">
<time>2015-09-27T22:46:35Z</time></trkpt>
<trkpt lat="25.42363" lon="100.674967">
<time>2015-09-27T22:46:36Z</time></trkpt>
<trkpt lat="25.42355" lon="100.674757">
<time>2015-09-27T22:46:37Z</time></trkpt>
<trkpt lat="25.42347" lon="100.674558">
<time>2015-09-27T22:46:38Z</time></trkpt>
<trkpt lat="25.423391" lon="100.674398">
<time>2015-09-27T22:46:39Z</time></trkpt>
<trkpt lat="25.423331" lon="100.674238">
<time>2015-09-27T22:46:40Z</time></trkpt>
<trkpt lat="25.423271" lon="100.674079">
<time>2015-09-27T22:46:41Z</time></trkpt>
<trkpt lat="25.423202" lon="100.673909">
<time>2015-09-27T22:46:42Z</time></trkpt>
<trkpt lat="25.423112" lon="100.67375">
<time>2015-09-27T22:46:43Z</time></trkpt>
<trkpt lat="25.423042" lon="100.67356">
<time>2015-09-27T22:46:44Z</time></trkpt>
<trkpt lat="25.422973" lon="100.673351">
<time>2015-09-27T22:46:45Z</time></trkpt>
<trkpt lat="25.422893" lon="100.673141">
<time>2015-09-27T22:46:46Z</time></trkpt>
<trkpt lat="25.422803" lon="100.672952">
<time>2015-09-27T22:46:47Z</time></trkpt>
<trkpt lat="25.422734" lon="100.672802">
<time>2015-09-27T22:46:48Z</time></trkpt>
<trkpt lat="25.422674" lon="100.672652">
<time>2015-09-27T22:46:49Z</time></trkpt>
<trkpt lat="25.422594" lon="100.672443">
<time>2015-09-27T22:46:50Z</time></trkpt>
<trkpt lat="25.422505" lon="100.672263">
<time>2015-09-27T22:46:51Z</time></trkpt>
<trkpt lat="25.422415" lon="100.672064">
<time>2015-09-27T22:46:52Z</time></trkpt>
<trkpt lat="25.422335" lon="100.671864">
<time>2015-09-27T22:46:53Z</time></trkpt>
<trkpt lat="25.422246" lon="100.671675">
<time>2015-09-27T22:46:54Z</time></trkpt>
<trkpt lat="25.422156" lon="100.671505">
<time>2015-09-27T22:46:55Z</time></trkpt>
<trkpt lat="25.422096" lon="100.671416">
<time>2015-09-27T22:46:56Z</time></trkpt>
<trkpt lat="25.422056" lon="100.671346">
<time>2015-09-27T22:46:57Z</time></trkpt>
<trkpt lat="25.421957" lon="100.671196">
<time>2015-09-27T22:46:58Z</time></trkpt>
<trkpt lat="25.421857" lon="100.671047">
<time>2015-09-27T22:46:59Z</time></trkpt>
<trkpt lat="25.421757" lon="100.670887">
<time>2015-09-27T22:47:00Z</time></trkpt>
<trkpt lat="25.421667" lon="100.670737">
<time>2015-09-27T22:47:01Z</time></trkpt>
<trkpt lat="25.421548" lon="100.670578">
<time>2015-09-27T22:47:02Z</time></trkpt>
<trkpt lat="25.421448" lon="100.670398">
<time>2015-09-27T22:47:03Z</time></trkpt>
<trkpt lat="25.421318" lon="100.670229">
<time>2015-09-27T22:47:04Z</time></trkpt>
<trkpt lat="25.421219" lon="100.670069">
<time>2015-09-27T22:47:05Z</time></trkpt>
<trkpt lat="25.421099" lon="100.669909">
<time>2015-09-27T22:47:06Z</time></trkpt>
<trkpt lat="25.421009" lon="100.66975">
<time>2015-09-27T22:47:07Z</time></trkpt>
<trkpt lat="25.420899" lon="100.66959">
<time>2015-09-27T22:47:08Z</time></trkpt>
<trkpt lat="25.42078" lon="100.669441">
<time>2015-09-27T22:47:09Z</time></trkpt>
<trkpt lat="25.42067" lon="100.669291">
<time>2015-09-27T22:47:10Z</time></trkpt>
<trkpt lat="25.42058" lon="100.669131">
<time>2015-09-27T22:47:11Z</time></trkpt>
<trkpt lat="25.42056" lon="100.669092">
<time>2015-09-27T22:47:12Z</time></trkpt>
<trkpt lat="25.420501" lon="100.668952">
<time>2015-09-27T22:47:13Z</time></trkpt>
<trkpt lat="25.420421" lon="100.668772">
<time>2015-09-27T22:47:14Z</time></trkpt>
<trkpt lat="25.420381" lon="100.668683">
<time>2015-09-27T22:47:15Z</time></trkpt>
<trkpt lat="25.420341" lon="100.668583">
<time>2015-09-27T22:47:16Z</time></trkpt>
<trkpt lat="25.420272" lon="100.668413">
<time>2015-09-27T22:47:17Z</time></trkpt>
<trkpt lat="25.420222" lon="100.668264">
<time>2015-09-27T22:47:18Z</time></trkpt>
<trkpt lat="25.420162" lon="100.668134">
<time>2015-09-27T22:47:19Z</time></trkpt>
<trkpt lat="25.420102" lon="100.668014">
<time>2015-09-27T22:47:20Z</time></trkpt>
<trkpt lat="25.420032" lon="100.667875">
<time>2015-09-27T22:47:21Z</time></trkpt>
<trkpt lat="25.419993" lon="100.667715">
<time>2015-09-27T22:47:22Z</time></trkpt>
<trkpt lat="25.419923" lon="100.667565">
<time>2015-09-27T22:47:23Z</time></trkpt>
<trkpt lat="25.419853" lon="100.667386">
<time>2015-09-27T22:47:24Z</time></trkpt>
<trkpt lat="25.419764" lon="100.667206">
<time>2015-09-27T22:47:25Z</time></trkpt>
<trkpt lat="25.419674" lon="100.667057">
<time>2015-09-27T22:47:26Z</time></trkpt>
<trkpt lat="25.419574" lon="100.666897">
<time>2015-09-27T22:47:27Z</time></trkpt>
<trkpt lat="25.419505" lon="100.666738">
<time>2015-09-27T22:47:28Z</time></trkpt>
<trkpt lat="25.419435" lon="100.666588">
<time>2015-09-27T22:47:29Z</time></trkpt>
<trkpt lat="25.419365" lon="100.666438">
<time>2015-09-27T22:47:30Z</time></trkpt>
<trkpt lat="25.419295" lon="100.666309">
<time>2015-09-27T22:47:31Z</time></trkpt>
<trkpt lat="25.419236" lon="100.666179">
<time>2015-09-27T22:47:32Z</time></trkpt>
<trkpt lat="25.419176" lon="100.666059">
<time>2015-09-27T22:47:33Z</time></trkpt>
<trkpt lat="25.419166" lon="100.666039">
<time>2015-09-27T22:47:34Z</time></trkpt>
<trkpt lat="25.419116" lon="100.66594">
<time>2015-09-27T22:47:35Z</time></trkpt>
<trkpt lat="25.419046" lon="100.66581">
<time>2015-09-27T22:47:36Z</time></trkpt>
<trkpt lat="25.418976" lon="100.66566">
<time>2015-09-27T22:47:37Z</time></trkpt>
<trkpt lat="25.418907" lon="100.665531">
<time>2015-09-27T22:47:38Z</time></trkpt>
<trkpt lat="25.418827" lon="100.665331">
<time>2015-09-27T22:47:39Z</time></trkpt>
<trkpt lat="25.418777" lon="100.665162">
<time>2015-09-27T22:47:40Z</time></trkpt>
<trkpt lat="25.418688" lon="100.664882">
<time>2015-09-27T22:47:41Z</time></trkpt>
<trkpt lat="25.418578" lon="100.664673">
<time>2015-09-27T22:47:42Z</time></trkpt>
<trkpt lat="25.418499" lon="100.664443">
<time>2015-09-27T22:47:43Z</time></trkpt>
<trkpt lat="25.418389" lon="100.664234">
<time>2015-09-27T22:47:44Z</time></trkpt>
<trkpt lat="25.418289" lon="100.664005">
<time>2015-09-27T22:47:45Z</time></trkpt>
<trkpt lat="25.4182" lon="100.663745">
<time>2015-09-27T22:47:46Z</time></trkpt>
<trkpt lat="25.41806" lon="100.663506">
<time>2015-09-27T22:47:47Z</time></trkpt>
<trkpt lat="25.417991" lon="100.663366">
<time>2015-09-27T22:47:48Z</time></trkpt>
<trkpt lat="25.417891" lon="100.663127">
<time>2015-09-27T22:47:49Z</time></trkpt>
<trkpt lat="25.417771" lon="100.662907">
<time>2015-09-27T22:47:50Z</time></trkpt>
<trkpt lat="25.417652" lon="100.662688">
<time>2015-09-27T22:47:51Z</time></trkpt>
<trkpt lat="25.417482" lon="100.662508">
<time>2015-09-27T22:47:52Z</time></trkpt>
<trkpt lat="25.417302" lon="100.662339">
<time>2015-09-27T22:47:53Z</time></trkpt>
<trkpt lat="25.417103" lon="100.662199">
<time>2015-09-27T22:47:54Z</time></trkpt>
<trkpt lat="25.416903" lon="100.662069">
<time>2015-09-27T22:47:55Z</time></trkpt>
<trkpt lat="25.416713" lon="100.66196">
<time>2015-09-27T22:47:56Z</time></trkpt>
<trkpt lat="25.416683" lon="100.66194">
<time>2015-09-27T22:47:57Z</time></trkpt>
<trkpt lat="25.416363" lon="100.6617">
<time>2015-09-27T22:47:58Z</time></trkpt>
<trkpt lat="25.416194" lon="100.661581">
<time>2015-09-27T22:47:59Z</time></trkpt>
<trkpt lat="25.416024" lon="100.661481">
<time>2015-09-27T22:48:00Z</time></trkpt>
<trkpt lat="25.415864" lon="100.661381">
<time>2015-09-27T22:48:01Z</time></trkpt>
<trkpt lat="25.415774" lon="100.661301">
<time>2015-09-27T22:48:02Z</time></trkpt>
<trkpt lat="25.415694" lon="100.661252">
<time>2015-09-27T22:48:03Z</time></trkpt>
<trkpt lat="25.415564" lon="100.661132">
<time>2015-09-27T22:48:04Z</time></trkpt>
<trkpt lat="25.415475" lon="100.661032">
<time>2015-09-27T22:48:05Z</time></trkpt>
<trkpt lat="25.415365" lon="100.660912">
<time>2015-09-27T22:48:06Z</time></trkpt>
<trkpt lat="25.415255" lon="100.660763">
<time>2015-09-27T22:48:07Z</time></trkpt>
<trkpt lat="25.415125" lon="100.660603">
<time>2015-09-27T22:48:08Z</time></trkpt>
<trkpt lat="25.414995" lon="100.660464">
<time>2015-09-27T22:48:09Z</time></trkpt>
<trkpt lat="25.414866" lon="100.660304">
<time>2015-09-27T22:48:10Z</time></trkpt>
<trkpt lat="25.414766" lon="100.660124">
<time>2015-09-27T22:48:11Z</time></trkpt>
<trkpt lat="25.414686" lon="100.659905">
<time>2015-09-27T22:48:12Z</time></trkpt>
<trkpt lat="25.414647" lon="100.659656">
<time>2015-09-27T22:48:13Z</time></trkpt>
<trkpt lat="25.414597" lon="100.659426">
<time>2015-09-27T22:48:14Z</time></trkpt>
<trkpt lat="25.414568" lon="100.659197">
<time>2015-09-27T22:48:15Z</time></trkpt>
<trkpt lat="25.414528" lon="100.658957">
<time>2015-09-27T22:48:16Z</time></trkpt>
<trkpt lat="25.414489" lon="100.658708">
<time>2015-09-27T22:48:17Z</time></trkpt>
<trkpt lat="25.414449" lon="100.658449">
<time>2015-09-27T22:48:18Z</time></trkpt>
<trkpt lat="25.41441" lon="100.658179">
<time>2015-09-27T22:48:19Z</time></trkpt>
<trkpt lat="25.41437" lon="100.6579">
<time>2015-09-27T22:48:20Z</time></trkpt>
<trkpt lat="25.414331" lon="100.657611">
<time>2015-09-27T22:48:21Z</time></trkpt>
<trkpt lat="25.414291" lon="100.657321">
<time>2015-09-27T22:48:22Z</time></trkpt>
<trkpt lat="25.414252" lon="100.657042">
<time>2015-09-27T22:48:23Z</time></trkpt>
<trkpt lat="25.414222" lon="100.656763">
<time>2015-09-27T22:48:24Z</time></trkpt>
<trkpt lat="25.414233" lon="100.656493">
<time>2015-09-27T22:48:25Z</time></trkpt>
<trkpt lat="25.414283" lon="100.656254">
<time>2015-09-27T22:48:26Z</time></trkpt>
<trkpt lat="25.414384" lon="100.656005">
<time>2015-09-27T22:48:27Z</time></trkpt>
<trkpt lat="25.414534" lon="100.655785">
<time>2015-09-27T22:48:28Z</time></trkpt>
<trkpt lat="25.414684" lon="100.655566">
<time>2015-09-27T22:48:29Z</time></trkpt>
<trkpt lat="25.414825" lon="100.655366">
<time>2015-09-27T22:48:30Z</time></trkpt>
<trkpt lat="25.414935" lon="100.655117">
<time>2015-09-27T22:48:31Z</time></trkpt>
<trkpt lat="25.414976" lon="100.654887">
<time>2015-09-27T22:48:32Z</time></trkpt>
<trkpt lat="25.414936" lon="100.654638">
<time>2015-09-27T22:48:33Z</time></trkpt>
<trkpt lat="25.414837" lon="100.654398">
<time>2015-09-27T22:48:34Z</time></trkpt>
<trkpt lat="25.414707" lon="100.654139">
<time>2015-09-27T22:48:35Z</time></trkpt>
<trkpt lat="25.414578" lon="100.65387">
<time>2015-09-27T22:48:36Z</time></trkpt>
<trkpt lat="25.414448" lon="100.65365">
<time>2015-09-27T22:48:37Z</time></trkpt>
<trkpt lat="25.414278" lon="100.653361">
<time>2015-09-27T22:48:38Z</time></trkpt>
<trkpt lat="25.414119" lon="100.653122">
<time>2015-09-27T22:48:39Z</time></trkpt>
<trkpt lat="25.413909" lon="100.652822">
<time>2015-09-27T22:48:40Z</time></trkpt>
<trkpt lat="25.41374" lon="100.652543">
<time>2015-09-27T22:48:41Z</time></trkpt>
<trkpt lat="25.41364" lon="100.652323">
<time>2015-09-27T22:48:42Z</time></trkpt>
<trkpt lat="25.4136" lon="100.652104">
<time>2015-09-27T22:48:43Z</time></trkpt>
<trkpt lat="25.413651" lon="100.651904">
<time>2015-09-27T22:48:44Z</time></trkpt>
<trkpt lat="25.413791" lon="100.651775">
<time>2015-09-27T22:48:45Z</time></trkpt>
<trkpt lat="25.413961" lon="100.651675">
<time>2015-09-27T22:48:46Z</time></trkpt>
<trkpt lat="25.414162" lon="100.651565">
<time>2015-09-27T22:48:47Z</time></trkpt>
<trkpt lat="25.414372" lon="100.651426">
<time>2015-09-27T22:48:48Z</time></trkpt>
<trkpt lat="25.414612" lon="100.651286">
<time>2015-09-27T22:48:49Z</time></trkpt>
<trkpt lat="25.414852" lon="100.651156">
<time>2015-09-27T22:48:50Z</time></trkpt>
<trkpt lat="25.415093" lon="100.650997">
<time>2015-09-27T22:48:51Z</time></trkpt>
<trkpt lat="25.415313" lon="100.650817">
<time>2015-09-27T22:48:52Z</time></trkpt>
<trkpt lat="25.415533" lon="100.650637">
<time>2015-09-27T22:48:53Z</time></trkpt>
<trkpt lat="25.415764" lon="100.650488">
<time>2015-09-27T22:48:54Z</time></trkpt>
<trkpt lat="25.416044" lon="100.650368">
<time>2015-09-27T22:48:55Z</time></trkpt>
<trkpt lat="25.416284" lon="100.650228">
<time>2015-09-27T22:48:56Z</time></trkpt>
<trkpt lat="25.416525" lon="100.650069">
<time>2015-09-27T22:48:57Z</time></trkpt>
<trkpt lat="25.416685" lon="100.649969">
<time>2015-09-27T22:48:58Z</time></trkpt>
<trkpt lat="25.416755" lon="100.649929">
<time>2015-09-27T22:48:59Z</time></trkpt>
<trkpt lat="25.417065" lon="100.649779">
<time>2015-09-27T22:49:00Z</time></trkpt>
<trkpt lat="25.417276" lon="100.64966">
<time>2015-09-27T22:49:01Z</time></trkpt>
<trkpt lat="25.417526" lon="100.6495">
<time>2015-09-27T22:49:02Z</time></trkpt>
<trkpt lat="25.417706" lon="100.649301">
<time>2015-09-27T22:49:03Z</time></trkpt>
<trkpt lat="25.417837" lon="100.649091">
<time>2015-09-27T22:49:04Z</time></trkpt>
<trkpt lat="25.417897" lon="100.648852">
<time>2015-09-27T22:49:05Z</time></trkpt>
<trkpt lat="25.417928" lon="100.648582">
<time>2015-09-27T22:49:06Z</time></trkpt>
<trkpt lat="25.417938" lon="100.648303">
<time>2015-09-27T22:49:07Z</time></trkpt>
<trkpt lat="25.417939" lon="100.648014">
<time>2015-09-27T22:49:08Z</time></trkpt>
<trkpt lat="25.417939" lon="100.647724">
<time>2015-09-27T22:49:09Z</time></trkpt>
<trkpt lat="25.41796" lon="100.647435">
<time>2015-09-27T22:49:10Z</time></trkpt>
<trkpt lat="25.41798" lon="100.647126">
<time>2015-09-27T22:49:11Z</time></trkpt>
<trkpt lat="25.418011" lon="100.646826">
<time>2015-09-27T22:49:12Z</time></trkpt>
<trkpt lat="25.418021" lon="100.646537">
<time>2015-09-27T22:49:13Z</time></trkpt>
<trkpt lat="25.417971" lon="100.646267">
<time>2015-09-27T22:49:14Z</time></trkpt>
<trkpt lat="25.417862" lon="100.646028">
<time>2015-09-27T22:49:15Z</time></trkpt>
<trkpt lat="25.417702" lon="100.645809">
<time>2015-09-27T22:49:16Z</time></trkpt>
<trkpt lat="25.417502" lon="100.645609">
<time>2015-09-27T22:49:17Z</time></trkpt>
<trkpt lat="25.417293" lon="100.645419">
<time>2015-09-27T22:49:18Z</time></trkpt>
<trkpt lat="25.417083" lon="100.64523">
<time>2015-09-27T22:49:19Z</time></trkpt>
<trkpt lat="25.416893" lon="100.64503">
<time>2015-09-27T22:49:20Z</time></trkpt>
<trkpt lat="25.416744" lon="100.644781">
<time>2015-09-27T22:49:21Z</time></trkpt>
<trkpt lat="25.416684" lon="100.644601">
<time>2015-09-27T22:49:22Z</time></trkpt>
<trkpt lat="25.416654" lon="100.644492">
<time>2015-09-27T22:49:23Z</time></trkpt>
<trkpt lat="25.416575" lon="100.644202">
<time>2015-09-27T22:49:24Z</time></trkpt>
<trkpt lat="25.416505" lon="100.643923">
<time>2015-09-27T22:49:25Z</time></trkpt>
<trkpt lat="25.416495" lon="100.643903">
<time>2015-09-27T22:49:26Z</time></trkpt>
<trkpt lat="25.416435" lon="100.643653">
<time>2015-09-27T22:49:27Z</time></trkpt>
<trkpt lat="25.416376" lon="100.643394">
<time>2015-09-27T22:49:28Z</time></trkpt>
<trkpt lat="25.416316" lon="100.643154">
<time>2015-09-27T22:49:29Z</time></trkpt>
<trkpt lat="25.416277" lon="100.642915">
<time>2015-09-27T22:49:30Z</time></trkpt>
<trkpt lat="25.416267" lon="100.642676">
<time>2015-09-27T22:49:31Z</time></trkpt>
<trkpt lat="25.416277" lon="100.642466">
<time>2015-09-27T22:49:32Z</time></trkpt>
<trkpt lat="25.416288" lon="100.642256">
<time>2015-09-27T22:49:33Z</time></trkpt>
<trkpt lat="25.416308" lon="100.642077">
<time>2015-09-27T22:49:34Z</time></trkpt>
<trkpt lat="25.416308" lon="100.641897">
<time>2015-09-27T22:49:35Z</time></trkpt>
<trkpt lat="25.416298" lon="100.641768">
<time>2015-09-27T22:49:36Z</time></trkpt>
<trkpt lat="25.416289" lon="100.641718">
<time>2015-09-27T22:49:37Z</time></trkpt>
<trkpt lat="25.416249" lon="100.641518">
<time>2015-09-27T22:49:38Z</time></trkpt>
<trkpt lat="25.416209" lon="100.641338">
<time>2015-09-27T22:49:39Z</time></trkpt>
<trkpt lat="25.416189" lon="100.641189">
<time>2015-09-27T22:49:40Z</time></trkpt>
<trkpt lat="25.416179" lon="100.641149">
<time>2015-09-27T22:49:41Z</time></trkpt>
<trkpt lat="25.41615" lon="100.640969">
<time>2015-09-27T22:49:42Z</time></trkpt>
<trkpt lat="25.41612" lon="100.64082">
<time>2015-09-27T22:49:43Z</time></trkpt>
<trkpt lat="25.41607" lon="100.64061">
<time>2015-09-27T22:49:44Z</time></trkpt>
<trkpt lat="25.41607" lon="100.64059">
<time>2015-09-27T22:49:45Z</time></trkpt>
<trkpt lat="25.416011" lon="100.64038">
<time>2015-09-27T22:49:46Z</time></trkpt>
<trkpt lat="25.415971" lon="100.640161">
<time>2015-09-27T22:49:47Z</time></trkpt>
<trkpt lat="25.415921" lon="100.639971">
<time>2015-09-27T22:49:48Z</time></trkpt>
<trkpt lat="25.415851" lon="100.639772">
<time>2015-09-27T22:49:49Z</time></trkpt>
<trkpt lat="25.415792" lon="100.639562">
<time>2015-09-27T22:49:50Z</time></trkpt>
<trkpt lat="25.415732" lon="100.639353">
<time>2015-09-27T22:49:51Z</time></trkpt>
<trkpt lat="25.415672" lon="100.639163">
<time>2015-09-27T22:49:52Z</time></trkpt>
<trkpt lat="25.415623" lon="100.638993">
<time>2015-09-27T22:49:53Z</time></trkpt>
<trkpt lat="25.415553" lon="100.638684">
<time>2015-09-27T22:49:54Z</time></trkpt>
<trkpt lat="25.415503" lon="100.638465">
<time>2015-09-27T22:49:55Z</time></trkpt>
<trkpt lat="25.415504" lon="100.638355">
<time>2015-09-27T22:49:56Z</time></trkpt>
<trkpt lat="25.415504" lon="100.638245">
<time>2015-09-27T22:49:57Z</time></trkpt>
<trkpt lat="25.415514" lon="100.638035">
<time>2015-09-27T22:49:58Z</time></trkpt>
<trkpt lat="25.415514" lon="100.637966">
<time>2015-09-27T22:49:59Z</time></trkpt>
<trkpt lat="25.415554" lon="100.637746">
<time>2015-09-27T22:50:00Z</time></trkpt>
<trkpt lat="25.415595" lon="100.637536">
<time>2015-09-27T22:50:01Z</time></trkpt>
<trkpt lat="25.415655" lon="100.637357">
<time>2015-09-27T22:50:02Z</time></trkpt>
<trkpt lat="25.415715" lon="100.637227">
<time>2015-09-27T22:50:03Z</time></trkpt>
<trkpt lat="25.415765" lon="100.637097">
<time>2015-09-27T22:50:04Z</time></trkpt>
<trkpt lat="25.415826" lon="100.636918">
<time>2015-09-27T22:50:05Z</time></trkpt>
<trkpt lat="25.415886" lon="100.636738">
<time>2015-09-27T22:50:06Z</time></trkpt>
<trkpt lat="25.415956" lon="100.636548">
<time>2015-09-27T22:50:07Z</time></trkpt>
<trkpt lat="25.416057" lon="100.636339">
<time>2015-09-27T22:50:08Z</time></trkpt>
<trkpt lat="25.416167" lon="100.636159">
<time>2015-09-27T22:50:09Z</time></trkpt>
<trkpt lat="25.416317" lon="100.63599">
<time>2015-09-27T22:50:10Z</time></trkpt>
<trkpt lat="25.416487" lon="100.63583">
<time>2015-09-27T22:50:11Z</time></trkpt>
<trkpt lat="25.416548" lon="100.63579">
<time>2015-09-27T22:50:12Z</time></trkpt>
<trkpt lat="25.416688" lon="100.63566">
<time>2015-09-27T22:50:13Z</time></trkpt>
<trkpt lat="25.416808" lon="100.635461">
<time>2015-09-27T22:50:14Z</time></trkpt>
<trkpt lat="25.416989" lon="100.635131">
<time>2015-09-27T22:50:15Z</time></trkpt>
<trkpt lat="25.417199" lon="100.634692">
<time>2015-09-27T22:50:16Z</time></trkpt>
<trkpt lat="25.4173" lon="100.634512">
<time>2015-09-27T22:50:17Z</time></trkpt>
<trkpt lat="25.41754" lon="100.634073">
<time>2015-09-27T22:50:18Z</time></trkpt>
<trkpt lat="25.417711" lon="100.633734">
<time>2015-09-27T22:50:19Z</time></trkpt>
<trkpt lat="25.417911" lon="100.633365">
<time>2015-09-27T22:50:20Z</time></trkpt>
<trkpt lat="25.418032" lon="100.633105">
<time>2015-09-27T22:50:21Z</time></trkpt>
<trkpt lat="25.418092" lon="100.632915">
<time>2015-09-27T22:50:22Z</time></trkpt>
<trkpt lat="25.418393" lon="100.631828">
<time>2015-09-27T22:50:23Z</time></trkpt>
<trkpt lat="25.418464" lon="100.631618">
<time>2015-09-27T22:50:24Z</time></trkpt>
<trkpt lat="25.418474" lon="100.631568">
<time>2015-09-27T22:50:25Z</time></trkpt>
<trkpt lat="25.418504" lon="100.631408">
<time>2015-09-27T22:50:26Z</time></trkpt>
<trkpt lat="25.418524" lon="100.631229">
<time>2015-09-27T22:50:27Z</time></trkpt>
<trkpt lat="25.418524" lon="100.631119">
<time>2015-09-27T22:50:28Z</time></trkpt>
<trkpt lat="25.418505" lon="100.630999">
<time>2015-09-27T22:50:29Z</time></trkpt>
<trkpt lat="25.418485" lon="100.630899">
<time>2015-09-27T22:50:30Z</time></trkpt>
<trkpt lat="25.418455" lon="100.630779">
<time>2015-09-27T22:50:31Z</time></trkpt>
<trkpt lat="25.418435" lon="100.63071">
<time>2015-09-27T22:50:32Z</time></trkpt>
<trkpt lat="25.418196" lon="100.630141">
<time>2015-09-27T22:50:33Z</time></trkpt>
<trkpt lat="25.417767" lon="100.629023">
<time>2015-09-27T22:50:34Z</time></trkpt>
<trkpt lat="25.417607" lon="100.628633">
<time>2015-09-27T22:50:35Z</time></trkpt>
<trkpt lat="25.417418" lon="100.628204">
<time>2015-09-27T22:50:36Z</time></trkpt>
<trkpt lat="25.417188" lon="100.627735">
<time>2015-09-27T22:50:37Z</time></trkpt>
<trkpt lat="25.416839" lon="100.626986">
<time>2015-09-27T22:50:38Z</time></trkpt>
<trkpt lat="25.416679" lon="100.626677">
<time>2015-09-27T22:50:39Z</time></trkpt>
<trkpt lat="25.41661" lon="100.626417">
<time>2015-09-27T22:50:40Z</time></trkpt>
<trkpt lat="25.41656" lon="100.626237">
<time>2015-09-27T22:50:41Z</time></trkpt>
<trkpt lat="25.41653" lon="100.626078">
<time>2015-09-27T22:50:42Z</time></trkpt>
<trkpt lat="25.41652" lon="100.625948">
<time>2015-09-27T22:50:43Z</time></trkpt>
<trkpt lat="25.41652" lon="100.625878">
<time>2015-09-27T22:50:44Z</time></trkpt>
<trkpt lat="25.41651" lon="100.625818">
<time>2015-09-27T22:50:45Z</time></trkpt>
<trkpt lat="25.416531" lon="100.625648">
<time>2015-09-27T22:50:46Z</time></trkpt>
<trkpt lat="25.416551" lon="100.625509">
<time>2015-09-27T22:50:47Z</time></trkpt>
<trkpt lat="25.416591" lon="100.625349">
<time>2015-09-27T22:50:48Z</time></trkpt>
<trkpt lat="25.416641" lon="100.625209">
<time>2015-09-27T22:50:49Z</time></trkpt>
<trkpt lat="25.416681" lon="100.625119">
<time>2015-09-27T22:50:50Z</time></trkpt>
<trkpt lat="25.416761" lon="100.625019">
<time>2015-09-27T22:50:51Z</time></trkpt>
<trkpt lat="25.417142" lon="100.62464">
<time>2015-09-27T22:50:52Z</time></trkpt>
<trkpt lat="25.417302" lon="100.62449">
<time>2015-09-27T22:50:53Z</time></trkpt>
<trkpt lat="25.418234" lon="100.623302">
<time>2015-09-27T22:50:54Z</time></trkpt>
<trkpt lat="25.418384" lon="100.623112">
<time>2015-09-27T22:50:55Z</time></trkpt>
<trkpt lat="25.418574" lon="100.622853">
<time>2015-09-27T22:50:56Z</time></trkpt>
<trkpt lat="25.418754" lon="100.622593">
<time>2015-09-27T22:50:57Z</time></trkpt>
<trkpt lat="25.418945" lon="100.622354">
<time>2015-09-27T22:50:58Z</time></trkpt>
<trkpt lat="25.419135" lon="100.622104">
<time>2015-09-27T22:50:59Z</time></trkpt>
<trkpt lat="25.419335" lon="100.621834">
<time>2015-09-27T22:51:00Z</time></trkpt>
<trkpt lat="25.419536" lon="100.621565">
<time>2015-09-27T22:51:01Z</time></trkpt>
<trkpt lat="25.419736" lon="100.621295">
<time>2015-09-27T22:51:02Z</time></trkpt>
<trkpt lat="25.419916" lon="100.621026">
<time>2015-09-27T22:51:03Z</time></trkpt>
<trkpt lat="25.420116" lon="100.620796">
<time>2015-09-27T22:51:04Z</time></trkpt>
<trkpt lat="25.420137" lon="100.620786">
<time>2015-09-27T22:51:05Z</time></trkpt>
<trkpt lat="25.420367" lon="100.620526">
<time>2015-09-27T22:51:06Z</time></trkpt>
<trkpt lat="25.420517" lon="100.620327">
<time>2015-09-27T22:51:07Z</time></trkpt>
<trkpt lat="25.420747" lon="100.620077">
<time>2015-09-27T22:51:08Z</time></trkpt>
<trkpt lat="25.420948" lon="100.619817">
<time>2015-09-27T22:51:09Z</time></trkpt>
<trkpt lat="25.421148" lon="100.619568">
<time>2015-09-27T22:51:10Z</time></trkpt>
<trkpt lat="25.421338" lon="100.619328">
<time>2015-09-27T22:51:11Z</time></trkpt>
<trkpt lat="25.421528" lon="100.619068">
<time>2015-09-27T22:51:12Z</time></trkpt>
<trkpt lat="25.421709" lon="100.618839">
<time>2015-09-27T22:51:13Z</time></trkpt>
<trkpt lat="25.421899" lon="100.618599">
<time>2015-09-27T22:51:14Z</time></trkpt>
<trkpt lat="25.422069" lon="100.618389">
<time>2015-09-27T22:51:15Z</time></trkpt>
<trkpt lat="25.422239" lon="100.61817">
<time>2015-09-27T22:51:16Z</time></trkpt>
<trkpt lat="25.42242" lon="100.61795">
<time>2015-09-27T22:51:17Z</time></trkpt>
<trkpt lat="25.42259" lon="100.61774">
<time>2015-09-27T22:51:18Z</time></trkpt>
<trkpt lat="25.42276" lon="100.61753">
<time>2015-09-27T22:51:19Z</time></trkpt>
<trkpt lat="25.42293" lon="100.617321">
<time>2015-09-27T22:51:20Z</time></trkpt>
<trkpt lat="25.4231" lon="100.617091">
<time>2015-09-27T22:51:21Z</time></trkpt>
<trkpt lat="25.423281" lon="100.616861">
<time>2015-09-27T22:51:22Z</time></trkpt>
<trkpt lat="25.423451" lon="100.616622">
<time>2015-09-27T22:51:23Z</time></trkpt>
<trkpt lat="25.423631" lon="100.616392">
<time>2015-09-27T22:51:24Z</time></trkpt>
<trkpt lat="25.423801" lon="100.616162">
<time>2015-09-27T22:51:25Z</time></trkpt>
<trkpt lat="25.423972" lon="100.615952">
<time>2015-09-27T22:51:26Z</time></trkpt>
<trkpt lat="25.424152" lon="100.615743">
<time>2015-09-27T22:51:27Z</time></trkpt>
<trkpt lat="25.424322" lon="100.615523">
<time>2015-09-27T22:51:28Z</time></trkpt>
<trkpt lat="25.424502" lon="100.615303">
<time>2015-09-27T22:51:29Z</time></trkpt>
<trkpt lat="25.424672" lon="100.615074">
<time>2015-09-27T22:51:30Z</time></trkpt>
<trkpt lat="25.424843" lon="100.614844">
<time>2015-09-27T22:51:31Z</time></trkpt>
<trkpt lat="25.425023" lon="100.614614">
<time>2015-09-27T22:51:32Z</time></trkpt>
<trkpt lat="25.425253" lon="100.614254">
<time>2015-09-27T22:51:33Z</time></trkpt>
<trkpt lat="25.425443" lon="100.614015">
<time>2015-09-27T22:51:34Z</time></trkpt>
<trkpt lat="25.425533" lon="100.613905">
<time>2015-09-27T22:51:35Z</time></trkpt>
<trkpt lat="25.425624" lon="100.613785">
<time>2015-09-27T22:51:36Z</time></trkpt>
<trkpt lat="25.425824" lon="100.613595">
<time>2015-09-27T22:51:37Z</time></trkpt>
<trkpt lat="25.425964" lon="100.613425">
<time>2015-09-27T22:51:38Z</time></trkpt>
<trkpt lat="25.426114" lon="100.613236">
<time>2015-09-27T22:51:39Z</time></trkpt>
<trkpt lat="25.426264" lon="100.613036">
<time>2015-09-27T22:51:40Z</time></trkpt>
<trkpt lat="25.426414" lon="100.612836">
<time>2015-09-27T22:51:41Z</time></trkpt>
<trkpt lat="25.426565" lon="100.612646">
<time>2015-09-27T22:51:42Z</time></trkpt>
<trkpt lat="25.426735" lon="100.612417">
<time>2015-09-27T22:51:43Z</time></trkpt>
<trkpt lat="25.426905" lon="100.612197">
<time>2015-09-27T22:51:44Z</time></trkpt>
<trkpt lat="25.427085" lon="100.611987">
<time>2015-09-27T22:51:45Z</time></trkpt>
<trkpt lat="25.427225" lon="100.611787">
<time>2015-09-27T22:51:46Z</time></trkpt>
<trkpt lat="25.427395" lon="100.611577">
<time>2015-09-27T22:51:47Z</time></trkpt>
<trkpt lat="25.427435" lon="100.611518">
<time>2015-09-27T22:51:48Z</time></trkpt>
<trkpt lat="25.427556" lon="100.611368">
<time>2015-09-27T22:51:49Z</time></trkpt>
<trkpt lat="25.427716" lon="100.611158">
<time>2015-09-27T22:51:50Z</time></trkpt>
<trkpt lat="25.427876" lon="100.610968">
<time>2015-09-27T22:51:51Z</time></trkpt>
<trkpt lat="25.428036" lon="100.610778">
<time>2015-09-27T22:51:52Z</time></trkpt>
<trkpt lat="25.428186" lon="100.610579">
<time>2015-09-27T22:51:53Z</time></trkpt>
<trkpt lat="25.428356" lon="100.610379">
<time>2015-09-27T22:51:54Z</time></trkpt>
<trkpt lat="25.428517" lon="100.610159">
<time>2015-09-27T22:51:55Z</time></trkpt>
<trkpt lat="25.428637" lon="100.609929">
<time>2015-09-27T22:51:56Z</time></trkpt>
<trkpt lat="25.428777" lon="100.609719">
<time>2015-09-27T22:51:57Z</time></trkpt>
<trkpt lat="25.428917" lon="100.60951">
<time>2015-09-27T22:51:58Z</time></trkpt>
<trkpt lat="25.429077" lon="100.60925">
<time>2015-09-27T22:51:59Z</time></trkpt>
<trkpt lat="25.429217" lon="100.60906">
<time>2015-09-27T22:52:00Z</time></trkpt>
<trkpt lat="25.429417" lon="100.6089">
<time>2015-09-27T22:52:01Z</time></trkpt>
<trkpt lat="25.429648" lon="100.6087">
<time>2015-09-27T22:52:02Z</time></trkpt>
<trkpt lat="25.429828" lon="100.608481">
<time>2015-09-27T22:52:03Z</time></trkpt>
<trkpt lat="25.430058" lon="100.608281">
<time>2015-09-27T22:52:04Z</time></trkpt>
<trkpt lat="25.430258" lon="100.608061">
<time>2015-09-27T22:52:05Z</time></trkpt>
<trkpt lat="25.430458" lon="100.607851">
<time>2015-09-27T22:52:06Z</time></trkpt>
<trkpt lat="25.430658" lon="100.607641">
<time>2015-09-27T22:52:07Z</time></trkpt>
<trkpt lat="25.430768" lon="100.607431">
<time>2015-09-27T22:52:08Z</time></trkpt>
<trkpt lat="25.430849" lon="100.607182">
<time>2015-09-27T22:52:09Z</time></trkpt>
<trkpt lat="25.430899" lon="100.607122">
<time>2015-09-27T22:52:10Z</time></trkpt>
<trkpt lat="25.430949" lon="100.607052">
<time>2015-09-27T22:52:11Z</time></trkpt>
<trkpt lat="25.431139" lon="100.606902">
<time>2015-09-27T22:52:12Z</time></trkpt>
<trkpt lat="25.431329" lon="100.606792">
<time>2015-09-27T22:52:13Z</time></trkpt>
<trkpt lat="25.431569" lon="100.606742">
<time>2015-09-27T22:52:14Z</time></trkpt>
<trkpt lat="25.431799" lon="100.606732">
<time>2015-09-27T22:52:15Z</time></trkpt>
<trkpt lat="25.432039" lon="100.606702">
<time>2015-09-27T22:52:16Z</time></trkpt>
<trkpt lat="25.432279" lon="100.606662">
<time>2015-09-27T22:52:17Z</time></trkpt>
<trkpt lat="25.432519" lon="100.606602">
<time>2015-09-27T22:52:18Z</time></trkpt>
<trkpt lat="25.432749" lon="100.606512">
<time>2015-09-27T22:52:19Z</time></trkpt>
<trkpt lat="25.432979" lon="100.606402">
<time>2015-09-27T22:52:20Z</time></trkpt>
<trkpt lat="25.4332" lon="100.606282">
<time>2015-09-27T22:52:21Z</time></trkpt>
<trkpt lat="25.43341" lon="100.606152">
<time>2015-09-27T22:52:22Z</time></trkpt>
<trkpt lat="25.43362" lon="100.605993">
<time>2015-09-27T22:52:23Z</time></trkpt>
<trkpt lat="25.43381" lon="100.605843">
<time>2015-09-27T22:52:24Z</time></trkpt>
<trkpt lat="25.434" lon="100.605683">
<time>2015-09-27T22:52:25Z</time></trkpt>
<trkpt lat="25.43415" lon="100.605493">
<time>2015-09-27T22:52:26Z</time></trkpt>
<trkpt lat="25.43427" lon="100.605263">
<time>2015-09-27T22:52:27Z</time></trkpt>
<trkpt lat="25.43435" lon="100.605043">
<time>2015-09-27T22:52:28Z</time></trkpt>
<trkpt lat="25.43442" lon="100.604804">
<time>2015-09-27T22:52:29Z</time></trkpt>
<trkpt lat="25.43449" lon="100.604574">
<time>2015-09-27T22:52:30Z</time></trkpt>
<trkpt lat="25.434571" lon="100.604344">
<time>2015-09-27T22:52:31Z</time></trkpt>
<trkpt lat="25.434651" lon="100.604104">
<time>2015-09-27T22:52:32Z</time></trkpt>
<trkpt lat="25.434731" lon="100.603884">
<time>2015-09-27T22:52:33Z</time></trkpt>
<trkpt lat="25.434801" lon="100.603674">
<time>2015-09-27T22:52:34Z</time></trkpt>
<trkpt lat="25.434891" lon="100.603474">
<time>2015-09-27T22:52:35Z</time></trkpt>
<trkpt lat="25.435001" lon="100.603265">
<time>2015-09-27T22:52:36Z</time></trkpt>
<trkpt lat="25.435101" lon="100.603055">
<time>2015-09-27T22:52:37Z</time></trkpt>
<trkpt lat="25.435191" lon="100.602845">
<time>2015-09-27T22:52:38Z</time></trkpt>
<trkpt lat="25.435241" lon="100.602625">
<time>2015-09-27T22:52:39Z</time></trkpt>
<trkpt lat="25.435231" lon="100.602385">
<time>2015-09-27T22:52:40Z</time></trkpt>
<trkpt lat="25.435181" lon="100.602145">
<time>2015-09-27T22:52:41Z</time></trkpt>
<trkpt lat="25.435101" lon="100.601886">
<time>2015-09-27T22:52:42Z</time></trkpt>
<trkpt lat="25.435011" lon="100.601616">
<time>2015-09-27T22:52:43Z</time></trkpt>
<trkpt lat="25.434881" lon="100.601346">
<time>2015-09-27T22:52:44Z</time></trkpt>
<trkpt lat="25.434731" lon="100.601086">
<time>2015-09-27T22:52:45Z</time></trkpt>
<trkpt lat="25.434601" lon="100.600836">
<time>2015-09-27T22:52:46Z</time></trkpt>
<trkpt lat="25.434471" lon="100.600596">
<time>2015-09-27T22:52:47Z</time></trkpt>
<trkpt lat="25.434351" lon="100.600356">
<time>2015-09-27T22:52:48Z</time></trkpt>
<trkpt lat="25.434241" lon="100.600107">
<time>2015-09-27T22:52:49Z</time></trkpt>
<trkpt lat="25.434161" lon="100.599887">
<time>2015-09-27T22:52:50Z</time></trkpt>
<trkpt lat="25.434101" lon="100.599637">
<time>2015-09-27T22:52:51Z</time></trkpt>
<trkpt lat="25.434092" lon="100.599397">
<time>2015-09-27T22:52:52Z</time></trkpt>
<trkpt lat="25.434102" lon="100.599147">
<time>2015-09-27T22:52:53Z</time></trkpt>
<trkpt lat="25.434112" lon="100.598897">
<time>2015-09-27T22:52:54Z</time></trkpt>
<trkpt lat="25.434122" lon="100.598637">
<time>2015-09-27T22:52:55Z</time></trkpt>
<trkpt lat="25.434122" lon="100.598377">
<time>2015-09-27T22:52:56Z</time></trkpt>
<trkpt lat="25.434112" lon="100.598118">
<time>2015-09-27T22:52:57Z</time></trkpt>
<trkpt lat="25.434092" lon="100.597848">
<time>2015-09-27T22:52:58Z</time></trkpt>
<trkpt lat="25.434072" lon="100.597578">
<time>2015-09-27T22:52:59Z</time></trkpt>
<trkpt lat="25.434042" lon="100.597318">
<time>2015-09-27T22:53:00Z</time></trkpt>
<trkpt lat="25.433992" lon="100.597058">
<time>2015-09-27T22:53:01Z</time></trkpt>
<trkpt lat="25.433952" lon="100.596798">
<time>2015-09-27T22:53:02Z</time></trkpt>
<trkpt lat="25.433912" lon="100.596538">
<time>2015-09-27T22:53:03Z</time></trkpt>
<trkpt lat="25.433882" lon="100.596298">
<time>2015-09-27T22:53:04Z</time></trkpt>
<trkpt lat="25.433822" lon="100.596078">
<time>2015-09-27T22:53:05Z</time></trkpt>
<trkpt lat="25.433792" lon="100.595858">
<time>2015-09-27T22:53:06Z</time></trkpt>
<trkpt lat="25.433822" lon="100.595529">
<time>2015-09-27T22:53:07Z</time></trkpt>
<trkpt lat="25.433912" lon="100.595239">
<time>2015-09-27T22:53:08Z</time></trkpt>
<trkpt lat="25.433972" lon="100.595009">
<time>2015-09-27T22:53:09Z</time></trkpt>
<trkpt lat="25.434042" lon="100.594789">
<time>2015-09-27T22:53:10Z</time></trkpt>
<trkpt lat="25.434122" lon="100.594549">
<time>2015-09-27T22:53:11Z</time></trkpt>
<trkpt lat="25.434192" lon="100.594329">
<time>2015-09-27T22:53:12Z</time></trkpt>
<trkpt lat="25.434262" lon="100.594099">
<time>2015-09-27T22:53:13Z</time></trkpt>
<trkpt lat="25.434332" lon="100.593849">
<time>2015-09-27T22:53:14Z</time></trkpt>
<trkpt lat="25.434401" lon="100.593609">
<time>2015-09-27T22:53:15Z</time></trkpt>
<trkpt lat="25.434461" lon="100.593359">
<time>2015-09-27T22:53:16Z</time></trkpt>
<trkpt lat="25.434531" lon="100.593109">
<time>2015-09-27T22:53:17Z</time></trkpt>
<trkpt lat="25.434631" lon="100.592869">
<time>2015-09-27T22:53:18Z</time></trkpt>
<trkpt lat="25.434711" lon="100.592599">
<time>2015-09-27T22:53:19Z</time></trkpt>
<trkpt lat="25.434771" lon="100.592399">
<time>2015-09-27T22:53:20Z</time></trkpt>
<trkpt lat="25.434781" lon="100.592369">
<time>2015-09-27T22:53:21Z</time></trkpt>
<trkpt lat="25.434851" lon="100.592139">
<time>2015-09-27T22:53:22Z</time></trkpt>
<trkpt lat="25.434911" lon="100.591929">
<time>2015-09-27T22:53:23Z</time></trkpt>
<trkpt lat="25.435001" lon="100.591719">
<time>2015-09-27T22:53:24Z</time></trkpt>
<trkpt lat="25.435061" lon="100.591499">
<time>2015-09-27T22:53:25Z</time></trkpt>
<trkpt lat="25.435141" lon="100.591299">
<time>2015-09-27T22:53:26Z</time></trkpt>
<trkpt lat="25.435201" lon="100.591109">
<time>2015-09-27T22:53:27Z</time></trkpt>
<trkpt lat="25.435251" lon="100.590909">
<time>2015-09-27T22:53:28Z</time></trkpt>
<trkpt lat="25.435311" lon="100.590719">
<time>2015-09-27T22:53:29Z</time></trkpt>
<trkpt lat="25.435371" lon="100.590519">
<time>2015-09-27T22:53:30Z</time></trkpt>
<trkpt lat="25.435431" lon="100.590319">
<time>2015-09-27T22:53:31Z</time></trkpt>
<trkpt lat="25.435481" lon="100.590129">
<time>2015-09-27T22:53:32Z</time></trkpt>
<trkpt lat="25.435541" lon="100.589949">
<time>2015-09-27T22:53:33Z</time></trkpt>
<trkpt lat="25.435591" lon="100.589759">
<time>2015-09-27T22:53:34Z</time></trkpt>
<trkpt lat="25.435611" lon="100.589689">
<time>2015-09-27T22:53:35Z</time></trkpt>
<trkpt lat="25.435641" lon="100.589589">
<time>2015-09-27T22:53:36Z</time></trkpt>
<trkpt lat="25.435701" lon="100.589419">
<time>2015-09-27T22:53:37Z</time></trkpt>
<trkpt lat="25.435751" lon="100.589239">
<time>2015-09-27T22:53:38Z</time></trkpt>
<trkpt lat="25.435811" lon="100.589069">
<time>2015-09-27T22:53:39Z</time></trkpt>
<trkpt lat="25.435851" lon="100.588899">
<time>2015-09-27T22:53:40Z</time></trkpt>
<trkpt lat="25.435901" lon="100.588749">
<time>2015-09-27T22:53:41Z</time></trkpt>
<trkpt lat="25.435941" lon="100.588619">
<time>2015-09-27T22:53:42Z</time></trkpt>
<trkpt lat="25.435981" lon="100.588509">
<time>2015-09-27T22:53:43Z</time></trkpt>
<trkpt lat="25.436021" lon="100.588389">
<time>2015-09-27T22:53:44Z</time></trkpt>
<trkpt lat="25.43607" lon="100.588249">
<time>2015-09-27T22:53:45Z</time></trkpt>
<trkpt lat="25.43614" lon="100.588039">
<time>2015-09-27T22:53:46Z</time></trkpt>
<trkpt lat="25.4362" lon="100.587849">
<time>2015-09-27T22:53:47Z</time></trkpt>
<trkpt lat="25.43625" lon="100.587759">
<time>2015-09-27T22:53:48Z</time></trkpt>
<trkpt lat="25.4363" lon="100.587669">
<time>2015-09-27T22:53:49Z</time></trkpt>
<trkpt lat="25.43637" lon="100.587599">
<time>2015-09-27T22:53:50Z</time></trkpt>
<trkpt lat="25.43644" lon="100.587529">
<time>2015-09-27T22:53:51Z</time></trkpt>
<trkpt lat="25.43653" lon="100.587449">
<time>2015-09-27T22:53:52Z</time></trkpt>
<trkpt lat="25.43663" lon="100.587369">
<time>2015-09-27T22:53:53Z</time></trkpt>
<trkpt lat="25.43676" lon="100.587309">
<time>2015-09-27T22:53:54Z</time></trkpt>
<trkpt lat="25.4369" lon="100.587279">
<time>2015-09-27T22:53:55Z</time></trkpt>
<trkpt lat="25.43703" lon="100.587269">
<time>2015-09-27T22:53:56Z</time></trkpt>
<trkpt lat="25.43718" lon="100.587279">
<time>2015-09-27T22:53:57Z</time></trkpt>
<trkpt lat="25.43741" lon="100.587279">
<time>2015-09-27T22:53:58Z</time></trkpt>
<trkpt lat="25.43756" lon="100.587259">
<time>2015-09-27T22:53:59Z</time></trkpt>
<trkpt lat="25.43771" lon="100.587239">
<time>2015-09-27T22:54:00Z</time></trkpt>
<trkpt lat="25.43786" lon="100.587179">
<time>2015-09-27T22:54:01Z</time></trkpt>
<trkpt lat="25.438" lon="100.587079">
<time>2015-09-27T22:54:02Z</time></trkpt>
<trkpt lat="25.43813" lon="100.586939">
<time>2015-09-27T22:54:03Z</time></trkpt>
<trkpt lat="25.43826" lon="100.586789">
<time>2015-09-27T22:54:04Z</time></trkpt>
<trkpt lat="25.43839" lon="100.586619">
<time>2015-09-27T22:54:05Z</time></trkpt>
<trkpt lat="25.43849" lon="100.586479">
<time>2015-09-27T22:54:06Z</time></trkpt>
<trkpt lat="25.43858" lon="100.586249">
<time>2015-09-27T22:54:07Z</time></trkpt>
<trkpt lat="25.43869" lon="100.586099">
<time>2015-09-27T22:54:08Z</time></trkpt>
<trkpt lat="25.43879" lon="100.585959">
<time>2015-09-27T22:54:09Z</time></trkpt>
<trkpt lat="25.43889" lon="100.585809">
<time>2015-09-27T22:54:10Z</time></trkpt>
<trkpt lat="25.439" lon="100.585659">
<time>2015-09-27T22:54:11Z</time></trkpt>
<trkpt lat="25.43908" lon="100.585489">
<time>2015-09-27T22:54:12Z</time></trkpt>
<trkpt lat="25.4392" lon="100.585369">
<time>2015-09-27T22:54:13Z</time></trkpt>
<trkpt lat="25.43929" lon="100.585229">
<time>2015-09-27T22:54:14Z</time></trkpt>
<trkpt lat="25.43939" lon="100.585089">
<time>2015-09-27T22:54:15Z</time></trkpt>
<trkpt lat="25.4395" lon="100.584949">
<time>2015-09-27T22:54:16Z</time></trkpt>
<trkpt lat="25.43959" lon="100.584799">
<time>2015-09-27T22:54:17Z</time></trkpt>
<trkpt lat="25.43968" lon="100.584669">
<time>2015-09-27T22:54:18Z</time></trkpt>
<trkpt lat="25.43977" lon="100.584519">
<time>2015-09-27T22:54:19Z</time></trkpt>
<trkpt lat="25.43983" lon="100.584369">
<time>2015-09-27T22:54:20Z</time></trkpt>
<trkpt lat="25.439929" lon="100.584199">
<time>2015-09-27T22:54:21Z</time></trkpt>
<trkpt lat="25.440009" lon="100.584049">
<time>2015-09-27T22:54:22Z</time></trkpt>
<trkpt lat="25.440119" lon="100.583839">
<time>2015-09-27T22:54:23Z</time></trkpt>
<trkpt lat="25.440249" lon="100.583668">
<time>2015-09-27T22:54:24Z</time></trkpt>
<trkpt lat="25.440329" lon="100.583498">
<time>2015-09-27T22:54:25Z</time></trkpt>
<trkpt lat="25.440399" lon="100.583358">
<time>2015-09-27T22:54:26Z</time></trkpt>
<trkpt lat="25.440469" lon="100.583208">
<time>2015-09-27T22:54:27Z</time></trkpt>
<trkpt lat="25.440519" lon="100.583098">
<time>2015-09-27T22:54:28Z</time></trkpt>
<trkpt lat="25.440529" lon="100.583068">
<time>2015-09-27T22:54:29Z</time></trkpt>
<trkpt lat="25.440589" lon="100.582928">
<time>2015-09-27T22:54:30Z</time></trkpt>
<trkpt lat="25.440649" lon="100.582778">
<time>2015-09-27T22:54:31Z</time></trkpt>
<trkpt lat="25.440709" lon="100.582638">
<time>2015-09-27T22:54:32Z</time></trkpt>
<trkpt lat="25.440769" lon="100.582498">
<time>2015-09-27T22:54:33Z</time></trkpt>
<trkpt lat="25.440829" lon="100.582358">
<time>2015-09-27T22:54:34Z</time></trkpt>
<trkpt lat="25.440859" lon="100.582308">
<time>2015-09-27T22:54:35Z</time></trkpt>
<trkpt lat="25.440899" lon="100.582198">
<time>2015-09-27T22:54:36Z</time></trkpt>
<trkpt lat="25.440958" lon="100.582048">
<time>2015-09-27T22:54:37Z</time></trkpt>
<trkpt lat="25.441028" lon="100.581898">
<time>2015-09-27T22:54:38Z</time></trkpt>
<trkpt lat="25.441098" lon="100.581738">
<time>2015-09-27T22:54:39Z</time></trkpt>
<trkpt lat="25.441168" lon="100.581578">
<time>2015-09-27T22:54:40Z</time></trkpt>
<trkpt lat="25.441238" lon="100.581428">
<time>2015-09-27T22:54:41Z</time></trkpt>
<trkpt lat="25.441298" lon="100.581298">
<time>2015-09-27T22:54:42Z</time></trkpt>
<trkpt lat="25.441348" lon="100.581168">
<time>2015-09-27T22:54:43Z</time></trkpt>
<trkpt lat="25.441398" lon="100.581048">
<time>2015-09-27T22:54:44Z</time></trkpt>
<trkpt lat="25.441458" lon="100.580927">
<time>2015-09-27T22:54:45Z</time></trkpt>
<trkpt lat="25.441518" lon="100.580797">
<time>2015-09-27T22:54:46Z</time></trkpt>
<trkpt lat="25.441578" lon="100.580677">
<time>2015-09-27T22:54:47Z</time></trkpt>
<trkpt lat="25.441638" lon="100.580557">
<time>2015-09-27T22:54:48Z</time></trkpt>
<trkpt lat="25.441697" lon="100.580427">
<time>2015-09-27T22:54:49Z</time></trkpt>
<trkpt lat="25.441757" lon="100.580297">
<time>2015-09-27T22:54:50Z</time></trkpt>
<trkpt lat="25.441827" lon="100.580147">
<time>2015-09-27T22:54:51Z</time></trkpt>
<trkpt lat="25.441877" lon="100.580037">
<time>2015-09-27T22:54:52Z</time></trkpt>
<trkpt lat="25.441947" lon="100.579897">
<time>2015-09-27T22:54:53Z</time></trkpt>
<trkpt lat="25.441997" lon="100.579787">
<time>2015-09-27T22:54:54Z</time></trkpt>
<trkpt lat="25.442047" lon="100.579647">
<time>2015-09-27T22:54:55Z</time></trkpt>
<trkpt lat="25.442097" lon="100.579507">
<time>2015-09-27T22:54:56Z</time></trkpt>
<trkpt lat="25.442147" lon="100.579407">
<time>2015-09-27T22:54:57Z</time></trkpt>
<trkpt lat="25.442167" lon="100.579357">
<time>2015-09-27T22:54:58Z</time></trkpt>
<trkpt lat="25.442227" lon="100.579187">
<time>2015-09-27T22:54:59Z</time></trkpt>
<trkpt lat="25.442297" lon="100.579047">
<time>2015-09-27T22:55:00Z</time></trkpt>
<trkpt lat="25.442366" lon="100.578886">
<time>2015-09-27T22:55:01Z</time></trkpt>
<trkpt lat="25.442446" lon="100.578706">
<time>2015-09-27T22:55:02Z</time></trkpt>
<trkpt lat="25.442526" lon="100.578516">
<time>2015-09-27T22:55:03Z</time></trkpt>
<trkpt lat="25.442606" lon="100.578346">
<time>2015-09-27T22:55:04Z</time></trkpt>
<trkpt lat="25.442696" lon="100.578166">
<time>2015-09-27T22:55:05Z</time></trkpt>
<trkpt lat="25.442766" lon="100.577996">
<time>2015-09-27T22:55:06Z</time></trkpt>
<trkpt lat="25.442846" lon="100.577826">
<time>2015-09-27T22:55:07Z</time></trkpt>
<trkpt lat="25.442936" lon="100.577666">
<time>2015-09-27T22:55:08Z</time></trkpt>
<trkpt lat="25.443025" lon="100.577506">
<time>2015-09-27T22:55:09Z</time></trkpt>
<trkpt lat="25.443045" lon="100.577496">
<time>2015-09-27T22:55:10Z</time></trkpt>
<trkpt lat="25.443145" lon="100.577376">
<time>2015-09-27T22:55:11Z</time></trkpt>
<trkpt lat="25.443275" lon="100.577256">
<time>2015-09-27T22:55:12Z</time></trkpt>
<trkpt lat="25.443405" lon="100.577125">
<time>2015-09-27T22:55:13Z</time></trkpt>
<trkpt lat="25.443535" lon="100.576995">
<time>2015-09-27T22:55:14Z</time></trkpt>
<trkpt lat="25.443665" lon="100.576865">
<time>2015-09-27T22:55:15Z</time></trkpt>
<trkpt lat="25.443805" lon="100.576735">
<time>2015-09-27T22:55:16Z</time></trkpt>
<trkpt lat="25.443935" lon="100.576615">
<time>2015-09-27T22:55:17Z</time></trkpt>
<trkpt lat="25.444075" lon="100.576495">
<time>2015-09-27T22:55:18Z</time></trkpt>
<trkpt lat="25.444235" lon="100.576315">
<time>2015-09-27T22:55:19Z</time></trkpt>
<trkpt lat="25.444385" lon="100.576165">
<time>2015-09-27T22:55:20Z</time></trkpt>
<trkpt lat="25.444524" lon="100.576025">
<time>2015-09-27T22:55:21Z</time></trkpt>
<trkpt lat="25.444674" lon="100.575885">
<time>2015-09-27T22:55:22Z</time></trkpt>
<trkpt lat="25.444814" lon="100.575744">
<time>2015-09-27T22:55:23Z</time></trkpt>
<trkpt lat="25.444984" lon="100.575614">
<time>2015-09-27T22:55:24Z</time></trkpt>
<trkpt lat="25.445154" lon="100.575484">
<time>2015-09-27T22:55:25Z</time></trkpt>
<trkpt lat="25.445284" lon="100.575354">
<time>2015-09-27T22:55:26Z</time></trkpt>
<trkpt lat="25.445444" lon="100.575214">
<time>2015-09-27T22:55:27Z</time></trkpt>
<trkpt lat="25.445604" lon="100.575074">
<time>2015-09-27T22:55:28Z</time></trkpt>
<trkpt lat="25.445734" lon="100.574954">
<time>2015-09-27T22:55:29Z</time></trkpt>
<trkpt lat="25.445904" lon="100.574804">
<time>2015-09-27T22:55:30Z</time></trkpt>
<trkpt lat="25.446064" lon="100.574624">
<time>2015-09-27T22:55:31Z</time></trkpt>
<trkpt lat="25.446243" lon="100.574444">
<time>2015-09-27T22:55:32Z</time></trkpt>
<trkpt lat="25.446423" lon="100.574293">
<time>2015-09-27T22:55:33Z</time></trkpt>
<trkpt lat="25.446603" lon="100.574133">
<time>2015-09-27T22:55:34Z</time></trkpt>
<trkpt lat="25.446803" lon="100.573973">
<time>2015-09-27T22:55:35Z</time></trkpt>
<trkpt lat="25.447043" lon="100.573793">
<time>2015-09-27T22:55:36Z</time></trkpt>
<trkpt lat="25.447273" lon="100.573623">
<time>2015-09-27T22:55:37Z</time></trkpt>
<trkpt lat="25.447523" lon="100.573433">
<time>2015-09-27T22:55:38Z</time></trkpt>
<trkpt lat="25.447723" lon="100.573253">
<time>2015-09-27T22:55:39Z</time></trkpt>
<trkpt lat="25.447922" lon="100.573092">
<time>2015-09-27T22:55:40Z</time></trkpt>
<trkpt lat="25.448132" lon="100.572972">
<time>2015-09-27T22:55:41Z</time></trkpt>
<trkpt lat="25.448342" lon="100.572882">
<time>2015-09-27T22:55:42Z</time></trkpt>
<trkpt lat="25.448542" lon="100.572822">
<time>2015-09-27T22:55:43Z</time></trkpt>
<trkpt lat="25.448732" lon="100.572782">
<time>2015-09-27T22:55:44Z</time></trkpt>
<trkpt lat="25.448932" lon="100.572732">
<time>2015-09-27T22:55:45Z</time></trkpt>
<trkpt lat="25.449112" lon="100.572692">
<time>2015-09-27T22:55:46Z</time></trkpt>
<trkpt lat="25.449292" lon="100.572642">
<time>2015-09-27T22:55:47Z</time></trkpt>
<trkpt lat="25.449472" lon="100.572612">
<time>2015-09-27T22:55:48Z</time></trkpt>
<trkpt lat="25.449672" lon="100.572552">
<time>2015-09-27T22:55:49Z</time></trkpt>
<trkpt lat="25.449852" lon="100.572522">
<time>2015-09-27T22:55:50Z</time></trkpt>
<trkpt lat="25.450012" lon="100.572482">
<time>2015-09-27T22:55:51Z</time></trkpt>
<trkpt lat="25.450042" lon="100.572472">
<time>2015-09-27T22:55:52Z</time></trkpt>
<trkpt lat="25.450222" lon="100.572422">
<time>2015-09-27T22:55:53Z</time></trkpt>
<trkpt lat="25.450372" lon="100.572332">
<time>2015-09-27T22:55:54Z</time></trkpt>
<trkpt lat="25.450472" lon="100.572192">
<time>2015-09-27T22:55:55Z</time></trkpt>
<trkpt lat="25.450542" lon="100.572051">
<time>2015-09-27T22:55:56Z</time></trkpt>
<trkpt lat="25.450582" lon="100.571901">
<time>2015-09-27T22:55:57Z</time></trkpt>
<trkpt lat="25.450632" lon="100.571771">
<time>2015-09-27T22:55:58Z</time></trkpt>
<trkpt lat="25.450692" lon="100.571661">
<time>2015-09-27T22:55:59Z</time></trkpt>
<trkpt lat="25.450751" lon="100.571541">
<time>2015-09-27T22:56:00Z</time></trkpt>
<trkpt lat="25.450821" lon="100.571381">
<time>2015-09-27T22:56:01Z</time></trkpt>
<trkpt lat="25.450851" lon="100.571281">
<time>2015-09-27T22:56:02Z</time></trkpt>
<trkpt lat="25.450911" lon="100.571151">
<time>2015-09-27T22:56:03Z</time></trkpt>
<trkpt lat="25.450951" lon="100.571021">
<time>2015-09-27T22:56:04Z</time></trkpt>
<trkpt lat="25.451001" lon="100.57091">
<time>2015-09-27T22:56:05Z</time></trkpt>
<trkpt lat="25.451041" lon="100.57081">
<time>2015-09-27T22:56:06Z</time></trkpt>
<trkpt lat="25.451041" lon="100.5708">
<time>2015-09-27T22:56:07Z</time></trkpt>
<trkpt lat="25.451091" lon="100.57068">
<time>2015-09-27T22:56:08Z</time></trkpt>
<trkpt lat="25.4511" lon="100.57065">
<time>2015-09-27T22:56:09Z</time></trkpt>
<trkpt lat="25.45114" lon="100.57054">
<time>2015-09-27T22:56:10Z</time></trkpt>
<trkpt lat="25.4512" lon="100.57038">
<time>2015-09-27T22:56:11Z</time></trkpt>
<trkpt lat="25.45127" lon="100.57022">
<time>2015-09-27T22:56:12Z</time></trkpt>
<trkpt lat="25.45134" lon="100.57006">
<time>2015-09-27T22:56:13Z</time></trkpt>
<trkpt lat="25.45142" lon="100.569889">
<time>2015-09-27T22:56:14Z</time></trkpt>
<trkpt lat="25.451489" lon="100.569719">
<time>2015-09-27T22:56:15Z</time></trkpt>
<trkpt lat="25.451559" lon="100.569579">
<time>2015-09-27T22:56:16Z</time></trkpt>
<trkpt lat="25.451619" lon="100.569439">
<time>2015-09-27T22:56:17Z</time></trkpt>
<trkpt lat="25.451669" lon="100.569319">
<time>2015-09-27T22:56:18Z</time></trkpt>
<trkpt lat="25.451719" lon="100.569229">
<time>2015-09-27T22:56:19Z</time></trkpt>
<trkpt lat="25.451759" lon="100.569109">
<time>2015-09-27T22:56:20Z</time></trkpt>
<trkpt lat="25.451809" lon="100.568938">
<time>2015-09-27T22:56:21Z</time></trkpt>
<trkpt lat="25.451819" lon="100.568868">
<time>2015-09-27T22:56:22Z</time></trkpt>
<trkpt lat="25.451828" lon="100.568798">
<time>2015-09-27T22:56:23Z</time></trkpt>
<trkpt lat="25.451838" lon="100.568778">
<time>2015-09-27T22:56:24Z</time></trkpt>
<trkpt lat="25.451828" lon="100.568618">
<time>2015-09-27T22:56:25Z</time></trkpt>
<trkpt lat="25.451828" lon="100.568518">
<time>2015-09-27T22:56:26Z</time></trkpt>
<trkpt lat="25.451808" lon="100.568398">
<time>2015-09-27T22:56:27Z</time></trkpt>
<trkpt lat="25.451798" lon="100.568268">
<time>2015-09-27T22:56:28Z</time></trkpt>
<trkpt lat="25.451778" lon="100.568168">
<time>2015-09-27T22:56:29Z</time></trkpt>
<trkpt lat="25.451747" lon="100.568018">
<time>2015-09-27T22:56:30Z</time></trkpt>
<trkpt lat="25.451697" lon="100.567887">
<time>2015-09-27T22:56:31Z</time></trkpt>
<trkpt lat="25.451637" lon="100.567757">
<time>2015-09-27T22:56:32Z</time></trkpt>
<trkpt lat="25.451577" lon="100.567627">
<time>2015-09-27T22:56:33Z</time></trkpt>
<trkpt lat="25.451507" lon="100.567517">
<time>2015-09-27T22:56:34Z</time></trkpt>
<trkpt lat="25.451447" lon="100.567427">
<time>2015-09-27T22:56:35Z</time></trkpt>
<trkpt lat="25.451366" lon="100.567327">
<time>2015-09-27T22:56:36Z</time></trkpt>
<trkpt lat="25.451286" lon="100.567247">
<time>2015-09-27T22:56:37Z</time></trkpt>
<trkpt lat="25.451186" lon="100.567147">
<time>2015-09-27T22:56:38Z</time></trkpt>
<trkpt lat="25.451106" lon="100.567076">
<time>2015-09-27T22:56:39Z</time></trkpt>
<trkpt lat="25.451006" lon="100.566986">
<time>2015-09-27T22:56:40Z</time></trkpt>
<trkpt lat="25.450926" lon="100.566916">
<time>2015-09-27T22:56:41Z</time></trkpt>
<trkpt lat="25.450856" lon="100.566836">
<time>2015-09-27T22:56:42Z</time></trkpt>
<trkpt lat="25.450766" lon="100.566736">
<time>2015-09-27T22:56:43Z</time></trkpt>
<trkpt lat="25.450675" lon="100.566646">
<time>2015-09-27T22:56:44Z</time></trkpt>
<trkpt lat="25.450605" lon="100.566566">
<time>2015-09-27T22:56:45Z</time></trkpt>
<trkpt lat="25.450545" lon="100.566496">
<time>2015-09-27T22:56:46Z</time></trkpt>
<trkpt lat="25.450455" lon="100.566406">
<time>2015-09-27T22:56:47Z</time></trkpt>
<trkpt lat="25.450425" lon="100.566366">
<time>2015-09-27T22:56:48Z</time></trkpt>
<trkpt lat="25.450365" lon="100.566306">
<time>2015-09-27T22:56:49Z</time></trkpt>
<trkpt lat="25.450335" lon="100.566256">
<time>2015-09-27T22:56:50Z</time></trkpt>
<trkpt lat="25.450285" lon="100.566196">
<time>2015-09-27T22:56:51Z</time></trkpt>
<trkpt lat="25.450205" lon="100.566105">
<time>2015-09-27T22:56:52Z</time></trkpt>
<trkpt lat="25.450134" lon="100.566015">
<time>2015-09-27T22:56:53Z</time></trkpt>
<trkpt lat="25.450074" lon="100.565905">
<time>2015-09-27T22:56:54Z</time></trkpt>
<trkpt lat="25.449944" lon="100.565775">
<time>2015-09-27T22:56:55Z</time></trkpt>
<trkpt lat="25.449804" lon="100.565645">
<time>2015-09-27T22:56:56Z</time></trkpt>
<trkpt lat="25.449694" lon="100.565525">
<time>2015-09-27T22:56:57Z</time></trkpt>
<trkpt lat="25.449603" lon="100.565415">
<time>2015-09-27T22:56:58Z</time></trkpt>
<trkpt lat="25.449513" lon="100.565284">
<time>2015-09-27T22:56:59Z</time></trkpt>
<trkpt lat="25.449433" lon="100.565154">
<time>2015-09-27T22:57:00Z</time></trkpt>
<trkpt lat="25.449383" lon="100.565024">
<time>2015-09-27T22:57:01Z</time></trkpt>
<trkpt lat="25.449343" lon="100.564894">
<time>2015-09-27T22:57:02Z</time></trkpt>
<trkpt lat="25.449322" lon="100.564754">
<time>2015-09-27T22:57:03Z</time></trkpt>
<trkpt lat="25.449312" lon="100.564624">
<time>2015-09-27T22:57:04Z</time></trkpt>
<trkpt lat="25.449322" lon="100.564453">
<time>2015-09-27T22:57:05Z</time></trkpt>
<trkpt lat="25.449322" lon="100.564293">
<time>2015-09-27T22:57:06Z</time></trkpt>
<trkpt lat="25.449332" lon="100.564133">
<time>2015-09-27T22:57:07Z</time></trkpt>
<trkpt lat="25.449341" lon="100.563963">
<time>2015-09-27T22:57:08Z</time></trkpt>
<trkpt lat="25.449351" lon="100.563773">
<time>2015-09-27T22:57:09Z</time></trkpt>
<trkpt lat="25.449361" lon="100.563612">
<time>2015-09-27T22:57:10Z</time></trkpt>
<trkpt lat="25.44936" lon="100.563412">
<time>2015-09-27T22:57:11Z</time></trkpt>
<trkpt lat="25.44937" lon="100.563232">
<time>2015-09-27T22:57:12Z</time></trkpt>
<trkpt lat="25.44938" lon="100.563072">
<time>2015-09-27T22:57:13Z</time></trkpt>
<trkpt lat="25.44938" lon="100.562901">
<time>2015-09-27T22:57:14Z</time></trkpt>
<trkpt lat="25.449389" lon="100.562731">
<time>2015-09-27T22:57:15Z</time></trkpt>
<trkpt lat="25.449399" lon="100.562581">
<time>2015-09-27T22:57:16Z</time></trkpt>
<trkpt lat="25.449399" lon="100.562461">
<time>2015-09-27T22:57:17Z</time></trkpt>
<trkpt lat="25.449409" lon="100.562281">
<time>2015-09-27T22:57:18Z</time></trkpt>
<trkpt lat="25.449409" lon="100.56218">
<time>2015-09-27T22:57:19Z</time></trkpt>
<trkpt lat="25.449408" lon="100.56205">
<time>2015-09-27T22:57:20Z</time></trkpt>
<trkpt lat="25.449408" lon="100.5619">
<time>2015-09-27T22:57:21Z</time></trkpt>
<trkpt lat="25.449408" lon="100.56175">
<time>2015-09-27T22:57:22Z</time></trkpt>
<trkpt lat="25.449398" lon="100.56159">
<time>2015-09-27T22:57:23Z</time></trkpt>
<trkpt lat="25.449407" lon="100.561419">
<time>2015-09-27T22:57:24Z</time></trkpt>
<trkpt lat="25.449417" lon="100.561239">
<time>2015-09-27T22:57:25Z</time></trkpt>
<trkpt lat="25.449437" lon="100.561049">
<time>2015-09-27T22:57:26Z</time></trkpt>
<trkpt lat="25.449447" lon="100.560839">
<time>2015-09-27T22:57:27Z</time></trkpt>
<trkpt lat="25.449456" lon="100.560638">
<time>2015-09-27T22:57:28Z</time></trkpt>
<trkpt lat="25.449476" lon="100.560418">
<time>2015-09-27T22:57:29Z</time></trkpt>
<trkpt lat="25.449486" lon="100.560218">
<time>2015-09-27T22:57:30Z</time></trkpt>
<trkpt lat="25.449495" lon="100.560017">
<time>2015-09-27T22:57:31Z</time></trkpt>
<trkpt lat="25.449505" lon="100.559827">
<time>2015-09-27T22:57:32Z</time></trkpt>
<trkpt lat="25.449505" lon="100.559657">
<time>2015-09-27T22:57:33Z</time></trkpt>
<trkpt lat="25.449504" lon="100.559487">
<time>2015-09-27T22:57:34Z</time></trkpt>
<trkpt lat="25.449514" lon="100.559336">
<time>2015-09-27T22:57:35Z</time></trkpt>
<trkpt lat="25.449514" lon="100.559196">
<time>2015-09-27T22:57:36Z</time></trkpt>
<trkpt lat="25.449514" lon="100.559056">
<time>2015-09-27T22:57:37Z</time></trkpt>
<trkpt lat="25.449533" lon="100.558916">
<time>2015-09-27T22:57:38Z</time></trkpt>
<trkpt lat="25.449523" lon="100.558776">
<time>2015-09-27T22:57:39Z</time></trkpt>
<trkpt lat="25.449543" lon="100.558585">
<time>2015-09-27T22:57:40Z</time></trkpt>
<trkpt lat="25.449553" lon="100.558405">
<time>2015-09-27T22:57:41Z</time></trkpt>
<trkpt lat="25.449562" lon="100.558245">
<time>2015-09-27T22:57:42Z</time></trkpt>
<trkpt lat="25.449572" lon="100.558115">
<time>2015-09-27T22:57:43Z</time></trkpt>
<trkpt lat="25.449572" lon="100.557984">
<time>2015-09-27T22:57:44Z</time></trkpt>
<trkpt lat="25.449572" lon="100.557864">
<time>2015-09-27T22:57:45Z</time></trkpt>
<trkpt lat="25.449591" lon="100.557684">
<time>2015-09-27T22:57:46Z</time></trkpt>
<trkpt lat="25.449611" lon="100.557494">
<time>2015-09-27T22:57:47Z</time></trkpt>
<trkpt lat="25.449641" lon="100.557333">
<time>2015-09-27T22:57:48Z</time></trkpt>
<trkpt lat="25.449651" lon="100.557173">
<time>2015-09-27T22:57:49Z</time></trkpt>
<trkpt lat="25.44966" lon="100.557063">
<time>2015-09-27T22:57:50Z</time></trkpt>
<trkpt lat="25.44966" lon="100.556953">
<time>2015-09-27T22:57:51Z</time></trkpt>
<trkpt lat="25.44966" lon="100.556833">
<time>2015-09-27T22:57:52Z</time></trkpt>
<trkpt lat="25.44968" lon="100.556732">
<time>2015-09-27T22:57:53Z</time></trkpt>
<trkpt lat="25.44968" lon="100.556612">
<time>2015-09-27T22:57:54Z</time></trkpt>
<trkpt lat="25.449689" lon="100.556502">
<time>2015-09-27T22:57:55Z</time></trkpt>
<trkpt lat="25.449689" lon="100.556372">
<time>2015-09-27T22:57:56Z</time></trkpt>
<trkpt lat="25.449699" lon="100.556252">
<time>2015-09-27T22:57:57Z</time></trkpt>
<trkpt lat="25.449699" lon="100.556121">
<time>2015-09-27T22:57:58Z</time></trkpt>
<trkpt lat="25.449708" lon="100.556001">
<time>2015-09-27T22:57:59Z</time></trkpt>
<trkpt lat="25.449708" lon="100.555871">
<time>2015-09-27T22:58:00Z</time></trkpt>
<trkpt lat="25.449708" lon="100.555751">
<time>2015-09-27T22:58:01Z</time></trkpt>
<trkpt lat="25.449718" lon="100.555621">
<time>2015-09-27T22:58:02Z</time></trkpt>
<trkpt lat="25.449718" lon="100.55551">
<time>2015-09-27T22:58:03Z</time></trkpt>
<trkpt lat="25.449727" lon="100.55539">
<time>2015-09-27T22:58:04Z</time></trkpt>
<trkpt lat="25.449737" lon="100.55526">
<time>2015-09-27T22:58:05Z</time></trkpt>
<trkpt lat="25.449747" lon="100.55513">
<time>2015-09-27T22:58:06Z</time></trkpt>
<trkpt lat="25.449747" lon="100.555">
<time>2015-09-27T22:58:07Z</time></trkpt>
<trkpt lat="25.449766" lon="100.554869">
<time>2015-09-27T22:58:08Z</time></trkpt>
<trkpt lat="25.449776" lon="100.554759">
<time>2015-09-27T22:58:09Z</time></trkpt>
<trkpt lat="25.449786" lon="100.554649">
<time>2015-09-27T22:58:10Z</time></trkpt>
<trkpt lat="25.449786" lon="100.554539">
<time>2015-09-27T22:58:11Z</time></trkpt>
<trkpt lat="25.449796" lon="100.554429">
<time>2015-09-27T22:58:12Z</time></trkpt>
<trkpt lat="25.449805" lon="100.554298">
<time>2015-09-27T22:58:13Z</time></trkpt>
<trkpt lat="25.449805" lon="100.554178">
<time>2015-09-27T22:58:14Z</time></trkpt>
<trkpt lat="25.449805" lon="100.554068">
<time>2015-09-27T22:58:15Z</time></trkpt>
<trkpt lat="25.449815" lon="100.553948">
<time>2015-09-27T22:58:16Z</time></trkpt>
<trkpt lat="25.449815" lon="100.553818">
<time>2015-09-27T22:58:17Z</time></trkpt>
<trkpt lat="25.449824" lon="100.553687">
<time>2015-09-27T22:58:18Z</time></trkpt>
<trkpt lat="25.449824" lon="100.553537">
<time>2015-09-27T22:58:19Z</time></trkpt>
<trkpt lat="25.449834" lon="100.553377">
<time>2015-09-27T22:58:20Z</time></trkpt>
<trkpt lat="25.449843" lon="100.553207">
<time>2015-09-27T22:58:21Z</time></trkpt>
<trkpt lat="25.449843" lon="100.553026">
<time>2015-09-27T22:58:22Z</time></trkpt>
<trkpt lat="25.449853" lon="100.552846">
<time>2015-09-27T22:58:23Z</time></trkpt>
<trkpt lat="25.449872" lon="100.552656">
<time>2015-09-27T22:58:24Z</time></trkpt>
<trkpt lat="25.449892" lon="100.552445">
<time>2015-09-27T22:58:25Z</time></trkpt>
<trkpt lat="25.449912" lon="100.552275">
<time>2015-09-27T22:58:26Z</time></trkpt>
<trkpt lat="25.449922" lon="100.552205">
<time>2015-09-27T22:58:27Z</time></trkpt>
<trkpt lat="25.449941" lon="100.552095">
<time>2015-09-27T22:58:28Z</time></trkpt>
<trkpt lat="25.449961" lon="100.551914">
<time>2015-09-27T22:58:29Z</time></trkpt>
<trkpt lat="25.450001" lon="100.551734">
<time>2015-09-27T22:58:30Z</time></trkpt>
<trkpt lat="25.45004" lon="100.551564">
<time>2015-09-27T22:58:31Z</time></trkpt>
<trkpt lat="25.45008" lon="100.551453">
<time>2015-09-27T22:58:32Z</time></trkpt>
<trkpt lat="25.4501" lon="100.551403">
<time>2015-09-27T22:58:33Z</time></trkpt>
<trkpt lat="25.45022" lon="100.551233">
<time>2015-09-27T22:58:34Z</time></trkpt>
<trkpt lat="25.450359" lon="100.551093">
<time>2015-09-27T22:58:35Z</time></trkpt>
<trkpt lat="25.450499" lon="100.550962">
<time>2015-09-27T22:58:36Z</time></trkpt>
<trkpt lat="25.450659" lon="100.550822">
<time>2015-09-27T22:58:37Z</time></trkpt>
<trkpt lat="25.450809" lon="100.550682">
<time>2015-09-27T22:58:38Z</time></trkpt>
<trkpt lat="25.450959" lon="100.550552">
<time>2015-09-27T22:58:39Z</time></trkpt>
<trkpt lat="25.451078" lon="100.550452">
<time>2015-09-27T22:58:40Z</time></trkpt>
<trkpt lat="25.451148" lon="100.550391">
<time>2015-09-27T22:58:41Z</time></trkpt>
<trkpt lat="25.451268" lon="100.550271">
<time>2015-09-27T22:58:42Z</time></trkpt>
<trkpt lat="25.451398" lon="100.550151">
<time>2015-09-27T22:58:43Z</time></trkpt>
<trkpt lat="25.451538" lon="100.550031">
<time>2015-09-27T22:58:44Z</time></trkpt>
<trkpt lat="25.451598" lon="100.549971">
<time>2015-09-27T22:58:45Z</time></trkpt>
<trkpt lat="25.451677" lon="100.54991">
<time>2015-09-27T22:58:46Z</time></trkpt>
<trkpt lat="25.451807" lon="100.54979">
<time>2015-09-27T22:58:47Z</time></trkpt>
<trkpt lat="25.451947" lon="100.54968">
<time>2015-09-27T22:58:48Z</time></trkpt>
<trkpt lat="25.452077" lon="100.54959">
<time>2015-09-27T22:58:49Z</time></trkpt>
<trkpt lat="25.452237" lon="100.54948">
<time>2015-09-27T22:58:50Z</time></trkpt>
<trkpt lat="25.452367" lon="100.54946">
<time>2015-09-27T22:58:51Z</time></trkpt>
<trkpt lat="25.452507" lon="100.54946">
<time>2015-09-27T22:58:52Z</time></trkpt>
<trkpt lat="25.452657" lon="100.54947">
<time>2015-09-27T22:58:53Z</time></trkpt>
<trkpt lat="25.452807" lon="100.54949">
<time>2015-09-27T22:58:54Z</time></trkpt>
<trkpt lat="25.452957" lon="100.54951">
<time>2015-09-27T22:58:55Z</time></trkpt>
<trkpt lat="25.453117" lon="100.54953">
<time>2015-09-27T22:58:56Z</time></trkpt>
<trkpt lat="25.453277" lon="100.54955">
<time>2015-09-27T22:58:57Z</time></trkpt>
<trkpt lat="25.453447" lon="100.54956">
<time>2015-09-27T22:58:58Z</time></trkpt>
<trkpt lat="25.453617" lon="100.54957">
<time>2015-09-27T22:58:59Z</time></trkpt>
<trkpt lat="25.453787" lon="100.54958">
<time>2015-09-27T22:59:00Z</time></trkpt>
<trkpt lat="25.453957" lon="100.54958">
<time>2015-09-27T22:59:01Z</time></trkpt>
<trkpt lat="25.454117" lon="100.54959">
<time>2015-09-27T22:59:02Z</time></trkpt>
<trkpt lat="25.454257" lon="100.54959">
<time>2015-09-27T22:59:03Z</time></trkpt>
<trkpt lat="25.454377" lon="100.54957">
<time>2015-09-27T22:59:04Z</time></trkpt>
<trkpt lat="25.454487" lon="100.54955">
<time>2015-09-27T22:59:05Z</time></trkpt>
<trkpt lat="25.454597" lon="100.54953">
<time>2015-09-27T22:59:06Z</time></trkpt>
<trkpt lat="25.454727" lon="100.54949">
<time>2015-09-27T22:59:07Z</time></trkpt>
<trkpt lat="25.454857" lon="100.54945">
<time>2015-09-27T22:59:08Z</time></trkpt>
<trkpt lat="25.454987" lon="100.549409">
<time>2015-09-27T22:59:09Z</time></trkpt>
<trkpt lat="25.455137" lon="100.549359">
<time>2015-09-27T22:59:10Z</time></trkpt>
<trkpt lat="25.455307" lon="100.549309">
<time>2015-09-27T22:59:11Z</time></trkpt>
<trkpt lat="25.455457" lon="100.549269">
<time>2015-09-27T22:59:12Z</time></trkpt>
<trkpt lat="25.455477" lon="100.549269">
<time>2015-09-27T22:59:13Z</time></trkpt>
<trkpt lat="25.455527" lon="100.549239">
<time>2015-09-27T22:59:14Z</time></trkpt>
<trkpt lat="25.455587" lon="100.549189">
<time>2015-09-27T22:59:15Z</time></trkpt>
<trkpt lat="25.455677" lon="100.549109">
<time>2015-09-27T22:59:16Z</time></trkpt>
<trkpt lat="25.455757" lon="100.549019">
<time>2015-09-27T22:59:17Z</time></trkpt>
<trkpt lat="25.455787" lon="100.548969">
<time>2015-09-27T22:59:18Z</time></trkpt>
<trkpt lat="25.455807" lon="100.548939">
<time>2015-09-27T22:59:19Z</time></trkpt>
<trkpt lat="25.455856" lon="100.548838">
<time>2015-09-27T22:59:20Z</time></trkpt>
<trkpt lat="25.455896" lon="100.548728">
<time>2015-09-27T22:59:21Z</time></trkpt>
<trkpt lat="25.455976" lon="100.548468">
<time>2015-09-27T22:59:22Z</time></trkpt>
<trkpt lat="25.456055" lon="100.548257">
<time>2015-09-27T22:59:23Z</time></trkpt>
<trkpt lat="25.456194" lon="100.547736">
<time>2015-09-27T22:59:24Z</time></trkpt>
<trkpt lat="25.456353" lon="100.547245">
<time>2015-09-27T22:59:25Z</time></trkpt>
<trkpt lat="25.456462" lon="100.546884">
<time>2015-09-27T22:59:26Z</time></trkpt>
<trkpt lat="25.456562" lon="100.546494">
<time>2015-09-27T22:59:27Z</time></trkpt>
<trkpt lat="25.456631" lon="100.546263">
<time>2015-09-27T22:59:28Z</time></trkpt>
<trkpt lat="25.456681" lon="100.546053">
<time>2015-09-27T22:59:29Z</time></trkpt>
<trkpt lat="25.45676" lon="100.545852">
<time>2015-09-27T22:59:30Z</time></trkpt>
<trkpt lat="25.45685" lon="100.545612">
<time>2015-09-27T22:59:31Z</time></trkpt>
<trkpt lat="25.456929" lon="100.545421">
<time>2015-09-27T22:59:32Z</time></trkpt>
<trkpt lat="25.456979" lon="100.545301">
<time>2015-09-27T22:59:33Z</time></trkpt>
<trkpt lat="25.457029" lon="100.545211">
<time>2015-09-27T22:59:34Z</time></trkpt>
<trkpt lat="25.457089" lon="100.545101">
<time>2015-09-27T22:59:35Z</time></trkpt>
<trkpt lat="25.457238" lon="100.54485">
<time>2015-09-27T22:59:36Z</time></trkpt>
<trkpt lat="25.457308" lon="100.54469">
<time>2015-09-27T22:59:37Z</time></trkpt>
<trkpt lat="25.457348" lon="100.54459">
<time>2015-09-27T22:59:38Z</time></trkpt>
<trkpt lat="25.457368" lon="100.5445">
<time>2015-09-27T22:59:39Z</time></trkpt>
<trkpt lat="25.457377" lon="100.544429">
<time>2015-09-27T22:59:40Z</time></trkpt>
<trkpt lat="25.457377" lon="100.544339">
<time>2015-09-27T22:59:41Z</time></trkpt>
<trkpt lat="25.457377" lon="100.544249">
<time>2015-09-27T22:59:42Z</time></trkpt>
<trkpt lat="25.457377" lon="100.544159">
<time>2015-09-27T22:59:43Z</time></trkpt>
<trkpt lat="25.457357" lon="100.544039">
<time>2015-09-27T22:59:44Z</time></trkpt>
<trkpt lat="25.457306" lon="100.543778">
<time>2015-09-27T22:59:45Z</time></trkpt>
<trkpt lat="25.457245" lon="100.543477">
<time>2015-09-27T22:59:46Z</time></trkpt>
<trkpt lat="25.457215" lon="100.543327">
<time>2015-09-27T22:59:47Z</time></trkpt>
<trkpt lat="25.457205" lon="100.543227">
<time>2015-09-27T22:59:48Z</time></trkpt>
<trkpt lat="25.457184" lon="100.543117">
<time>2015-09-27T22:59:49Z</time></trkpt>
<trkpt lat="25.457154" lon="100.542976">
<time>2015-09-27T22:59:50Z</time></trkpt>
<trkpt lat="25.457114" lon="100.542826">
<time>2015-09-27T22:59:51Z</time></trkpt>
<trkpt lat="25.457063" lon="100.542686">
<time>2015-09-27T22:59:52Z</time></trkpt>
<trkpt lat="25.457043" lon="100.542626">
<time>2015-09-27T22:59:53Z</time></trkpt>
<trkpt lat="25.457003" lon="100.542555">
<time>2015-09-27T22:59:54Z</time></trkpt>
<trkpt lat="25.456953" lon="100.542485">
<time>2015-09-27T22:59:55Z</time></trkpt>
<trkpt lat="25.456732" lon="100.542235">
<time>2015-09-27T22:59:56Z</time></trkpt>
<trkpt lat="25.456602" lon="100.542104">
<time>2015-09-27T22:59:57Z</time></trkpt>
<trkpt lat="25.456512" lon="100.541994">
<time>2015-09-27T22:59:58Z</time></trkpt>
<trkpt lat="25.456311" lon="100.541764">
<time>2015-09-27T22:59:59Z</time></trkpt>
<trkpt lat="25.456211" lon="100.541643">
<time>2015-09-27T23:00:00Z</time></trkpt>
<trkpt lat="25.45608" lon="100.541503">
<time>2015-09-27T23:00:01Z</time></trkpt>
<trkpt lat="25.45594" lon="100.541373">
<time>2015-09-27T23:00:02Z</time></trkpt>
<trkpt lat="25.45585" lon="100.541303">
<time>2015-09-27T23:00:03Z</time></trkpt>
<trkpt lat="25.45577" lon="100.541253">
<time>2015-09-27T23:00:04Z</time></trkpt>
<trkpt lat="25.45569" lon="100.541202">
<time>2015-09-27T23:00:05Z</time></trkpt>
<trkpt lat="25.45562" lon="100.541172">
<time>2015-09-27T23:00:06Z</time></trkpt>
<trkpt lat="25.45556" lon="100.541152">
<time>2015-09-27T23:00:07Z</time></trkpt>
<trkpt lat="25.455479" lon="100.541132">
<time>2015-09-27T23:00:08Z</time></trkpt>
<trkpt lat="25.455389" lon="100.541112">
<time>2015-09-27T23:00:09Z</time></trkpt>
<trkpt lat="25.455279" lon="100.541102">
<time>2015-09-27T23:00:10Z</time></trkpt>
<trkpt lat="25.454879" lon="100.541072">
<time>2015-09-27T23:00:11Z</time></trkpt>
<trkpt lat="25.454269" lon="100.541012">
<time>2015-09-27T23:00:12Z</time></trkpt>
<trkpt lat="25.453269" lon="100.540962">
<time>2015-09-27T23:00:13Z</time></trkpt>
<trkpt lat="25.452848" lon="100.540932">
<time>2015-09-27T23:00:14Z</time></trkpt>
<trkpt lat="25.452438" lon="100.540902">
<time>2015-09-27T23:00:15Z</time></trkpt>
<trkpt lat="25.452238" lon="100.540902">
<time>2015-09-27T23:00:16Z</time></trkpt>
<trkpt lat="25.452118" lon="100.540902">
<time>2015-09-27T23:00:17Z</time></trkpt>
<trkpt lat="25.452018" lon="100.540902">
<time>2015-09-27T23:00:18Z</time></trkpt>
<trkpt lat="25.451888" lon="100.540912">
<time>2015-09-27T23:00:19Z</time></trkpt>
<trkpt lat="25.450698" lon="100.541062">
<time>2015-09-27T23:00:20Z</time></trkpt>
<trkpt lat="25.450478" lon="100.541082">
<time>2015-09-27T23:00:21Z</time></trkpt>
<trkpt lat="25.450328" lon="100.541092">
<time>2015-09-27T23:00:22Z</time></trkpt>
<trkpt lat="25.450178" lon="100.541092">
<time>2015-09-27T23:00:23Z</time></trkpt>
<trkpt lat="25.450048" lon="100.541072">
<time>2015-09-27T23:00:24Z</time></trkpt>
<trkpt lat="25.449938" lon="100.541062">
<time>2015-09-27T23:00:25Z</time></trkpt>
<trkpt lat="25.449838" lon="100.541032">
<time>2015-09-27T23:00:26Z</time></trkpt>
<trkpt lat="25.449618" lon="100.540992">
<time>2015-09-27T23:00:27Z</time></trkpt>
<trkpt lat="25.449478" lon="100.540952">
<time>2015-09-27T23:00:28Z</time></trkpt>
<trkpt lat="25.449267" lon="100.540912">
<time>2015-09-27T23:00:29Z</time></trkpt>
<trkpt lat="25.449087" lon="100.540862">
<time>2015-09-27T23:00:30Z</time></trkpt>
<trkpt lat="25.448957" lon="100.540822">
<time>2015-09-27T23:00:31Z</time></trkpt>
<trkpt lat="25.448817" lon="100.540772">
<time>2015-09-27T23:00:32Z</time></trkpt>
<trkpt lat="25.448567" lon="100.540681">
<time>2015-09-27T23:00:33Z</time></trkpt>
<trkpt lat="25.448346" lon="100.540591">
<time>2015-09-27T23:00:34Z</time></trkpt>
<trkpt lat="25.447746" lon="100.540311">
<time>2015-09-27T23:00:35Z</time></trkpt>
<trkpt lat="25.447245" lon="100.54008">
<time>2015-09-27T23:00:36Z</time></trkpt>
<trkpt lat="25.446904" lon="100.53992">
<time>2015-09-27T23:00:37Z</time></trkpt>
<trkpt lat="25.446684" lon="100.53983">
<time>2015-09-27T23:00:38Z</time></trkpt>
<trkpt lat="25.446494" lon="100.539749">
<time>2015-09-27T23:00:39Z</time></trkpt>
<trkpt lat="25.446414" lon="100.539699">
<time>2015-09-27T23:00:40Z</time></trkpt>
<trkpt lat="25.446364" lon="100.539669">
<time>2015-09-27T23:00:41Z</time></trkpt>
<trkpt lat="25.446304" lon="100.539629">
<time>2015-09-27T23:00:42Z</time></trkpt>
<trkpt lat="25.446254" lon="100.539569">
<time>2015-09-27T23:00:43Z</time></trkpt>
<trkpt lat="25.446213" lon="100.539519">
<time>2015-09-27T23:00:44Z</time></trkpt>
<trkpt lat="25.446173" lon="100.539449">
<time>2015-09-27T23:00:45Z</time></trkpt>
<trkpt lat="25.446163" lon="100.539429">
<time>2015-09-27T23:00:46Z</time></trkpt>
<trkpt lat="25.446133" lon="100.539369">
<time>2015-09-27T23:00:47Z</time></trkpt>
<trkpt lat="25.446113" lon="100.539278">
<time>2015-09-27T23:00:48Z</time></trkpt>
<trkpt lat="25.446103" lon="100.539208">
<time>2015-09-27T23:00:49Z</time></trkpt>
<trkpt lat="25.446102" lon="100.539148">
<time>2015-09-27T23:00:50Z</time></trkpt>
<trkpt lat="25.446112" lon="100.539078">
<time>2015-09-27T23:00:51Z</time></trkpt>
<trkpt lat="25.446132" lon="100.538998">
<time>2015-09-27T23:00:52Z</time></trkpt>
<trkpt lat="25.446162" lon="100.538918">
<time>2015-09-27T23:00:53Z</time></trkpt>
<trkpt lat="25.446202" lon="100.538857">
<time>2015-09-27T23:00:54Z</time></trkpt>
<trkpt lat="25.446232" lon="100.538807">
<time>2015-09-27T23:00:55Z</time></trkpt>
<trkpt lat="25.446292" lon="100.538757">
<time>2015-09-27T23:00:56Z</time></trkpt>
<trkpt lat="25.446391" lon="100.538697">
<time>2015-09-27T23:00:57Z</time></trkpt>
<trkpt lat="25.446491" lon="100.538637">
<time>2015-09-27T23:00:58Z</time></trkpt>
<trkpt lat="25.446561" lon="100.538597">
<time>2015-09-27T23:00:59Z</time></trkpt>
<trkpt lat="25.446881" lon="100.538456">
<time>2015-09-27T23:01:00Z</time></trkpt>
<trkpt lat="25.447101" lon="100.538356">
<time>2015-09-27T23:01:01Z</time></trkpt>
<trkpt lat="25.447191" lon="100.538316">
<time>2015-09-27T23:01:02Z</time></trkpt>
<trkpt lat="25.447391" lon="100.538196">
<time>2015-09-27T23:01:03Z</time></trkpt>
<trkpt lat="25.44752" lon="100.538116">
<time>2015-09-27T23:01:04Z</time></trkpt>
<trkpt lat="25.44769" lon="100.537985">
<time>2015-09-27T23:01:05Z</time></trkpt>
<trkpt lat="25.4478" lon="100.537905">
<time>2015-09-27T23:01:06Z</time></trkpt>
<trkpt lat="25.44788" lon="100.537825">
<time>2015-09-27T23:01:07Z</time></trkpt>
<trkpt lat="25.448039" lon="100.537675">
<time>2015-09-27T23:01:08Z</time></trkpt>
<trkpt lat="25.448139" lon="100.537584">
<time>2015-09-27T23:01:09Z</time></trkpt>
<trkpt lat="25.448259" lon="100.537474">
<time>2015-09-27T23:01:10Z</time></trkpt>
<trkpt lat="25.448429" lon="100.537304">
<time>2015-09-27T23:01:11Z</time></trkpt>
<trkpt lat="25.448528" lon="100.537223">
<time>2015-09-27T23:01:12Z</time></trkpt>
<trkpt lat="25.448578" lon="100.537173">
<time>2015-09-27T23:01:13Z</time></trkpt>
<trkpt lat="25.448658" lon="100.537103">
<time>2015-09-27T23:01:14Z</time></trkpt>
<trkpt lat="25.448708" lon="100.537063">
<time>2015-09-27T23:01:15Z</time></trkpt>
<trkpt lat="25.448808" lon="100.537003">
<time>2015-09-27T23:01:16Z</time></trkpt>
<trkpt lat="25.448878" lon="100.536973">
<time>2015-09-27T23:01:17Z</time></trkpt>
<trkpt lat="25.449028" lon="100.536883">
<time>2015-09-27T23:01:18Z</time></trkpt>
<trkpt lat="25.449128" lon="100.536823">
<time>2015-09-27T23:01:19Z</time></trkpt>
<trkpt lat="25.449277" lon="100.536742">
<time>2015-09-27T23:01:20Z</time></trkpt>
<trkpt lat="25.449367" lon="100.536692">
<time>2015-09-27T23:01:21Z</time></trkpt>
<trkpt lat="25.449467" lon="100.536622">
<time>2015-09-27T23:01:22Z</time></trkpt>
<trkpt lat="25.449547" lon="100.536552">
<time>2015-09-27T23:01:23Z</time></trkpt>
<trkpt lat="25.449597" lon="100.536492">
<time>2015-09-27T23:01:24Z</time></trkpt>
<trkpt lat="25.449647" lon="100.536391">
<time>2015-09-27T23:01:25Z</time></trkpt>
<trkpt lat="25.449667" lon="100.536331">
<time>2015-09-27T23:01:26Z</time></trkpt>
<trkpt lat="25.449686" lon="100.536251">
<time>2015-09-27T23:01:27Z</time></trkpt>
<trkpt lat="25.449696" lon="100.536191">
<time>2015-09-27T23:01:28Z</time></trkpt>
<trkpt lat="25.449706" lon="100.536111">
<time>2015-09-27T23:01:29Z</time></trkpt>
<trkpt lat="25.449696" lon="100.536041">
<time>2015-09-27T23:01:30Z</time></trkpt>
<trkpt lat="25.449696" lon="100.536001">
<time>2015-09-27T23:01:31Z</time></trkpt>
<trkpt lat="25.449676" lon="100.5359">
<time>2015-09-27T23:01:32Z</time></trkpt>
<trkpt lat="25.449655" lon="100.53575">
<time>2015-09-27T23:01:33Z</time></trkpt>
<trkpt lat="25.449625" lon="100.53559">
<time>2015-09-27T23:01:34Z</time></trkpt>
<trkpt lat="25.449594" lon="100.535429">
<time>2015-09-27T23:01:35Z</time></trkpt>
<trkpt lat="25.449574" lon="100.535329">
<time>2015-09-27T23:01:36Z</time></trkpt>
<trkpt lat="25.449564" lon="100.535229">
<time>2015-09-27T23:01:37Z</time></trkpt>
<trkpt lat="25.449523" lon="100.534727">
<time>2015-09-27T23:01:38Z</time></trkpt>
<trkpt lat="25.449512" lon="100.534507">
<time>2015-09-27T23:01:39Z</time></trkpt>
<trkpt lat="25.449491" lon="100.534226">
<time>2015-09-27T23:01:40Z</time></trkpt>
<trkpt lat="25.449471" lon="100.534036">
<time>2015-09-27T23:01:41Z</time></trkpt>
<trkpt lat="25.44945" lon="100.533865">
<time>2015-09-27T23:01:42Z</time></trkpt>
<trkpt lat="25.44943" lon="100.533665">
<time>2015-09-27T23:01:43Z</time></trkpt>
<trkpt lat="25.44942" lon="100.533525">
<time>2015-09-27T23:01:44Z</time></trkpt>
<trkpt lat="25.449399" lon="100.533424">
<time>2015-09-27T23:01:45Z</time></trkpt>
<trkpt lat="25.449369" lon="100.533234">
<time>2015-09-27T23:01:46Z</time></trkpt>
<trkpt lat="25.449318" lon="100.532973">
<time>2015-09-27T23:01:47Z</time></trkpt>
<trkpt lat="25.449257" lon="100.532632">
<time>2015-09-27T23:01:48Z</time></trkpt>
<trkpt lat="25.449206" lon="100.532352">
<time>2015-09-27T23:01:49Z</time></trkpt>
<trkpt lat="25.449176" lon="100.532101">
<time>2015-09-27T23:01:50Z</time></trkpt>
<trkpt lat="25.449145" lon="100.53191">
<time>2015-09-27T23:01:51Z</time></trkpt>
<trkpt lat="25.449125" lon="100.53177">
<time>2015-09-27T23:01:52Z</time></trkpt>
<trkpt lat="25.449084" lon="100.53158">
<time>2015-09-27T23:01:53Z</time></trkpt>
<trkpt lat="25.449054" lon="100.531459">
<time>2015-09-27T23:01:54Z</time></trkpt>
<trkpt lat="25.448994" lon="100.531289">
<time>2015-09-27T23:01:55Z</time></trkpt>
<trkpt lat="25.448943" lon="100.531139">
<time>2015-09-27T23:01:56Z</time></trkpt>
<trkpt lat="25.448903" lon="100.531028">
<time>2015-09-27T23:01:57Z</time></trkpt>
<trkpt lat="25.448873" lon="100.530928">
<time>2015-09-27T23:01:58Z</time></trkpt>
<trkpt lat="25.448833" lon="100.530848">
<time>2015-09-27T23:01:59Z</time></trkpt>
<trkpt lat="25.448792" lon="100.530758">
<time>2015-09-27T23:02:00Z</time></trkpt>
<trkpt lat="25.448752" lon="100.530677">
<time>2015-09-27T23:02:01Z</time></trkpt>
<trkpt lat="25.448702" lon="100.530597">
<time>2015-09-27T23:02:02Z</time></trkpt>
<trkpt lat="25.448642" lon="100.530507">
<time>2015-09-27T23:02:03Z</time></trkpt>
<trkpt lat="25.448591" lon="100.530437">
<time>2015-09-27T23:02:04Z</time></trkpt>
<trkpt lat="25.448521" lon="100.530367">
<time>2015-09-27T23:02:05Z</time></trkpt>
<trkpt lat="25.448441" lon="100.530286">
<time>2015-09-27T23:02:06Z</time></trkpt>
<trkpt lat="25.44806" lon="100.529905">
<time>2015-09-27T23:02:07Z</time></trkpt>
<trkpt lat="25.447659" lon="100.529494">
<time>2015-09-27T23:02:08Z</time></trkpt>
<trkpt lat="25.447478" lon="100.529304">
<time>2015-09-27T23:02:09Z</time></trkpt>
<trkpt lat="25.447328" lon="100.529133">
<time>2015-09-27T23:02:10Z</time></trkpt>
<trkpt lat="25.447187" lon="100.528993">
<time>2015-09-27T23:02:11Z</time></trkpt>
<trkpt lat="25.447077" lon="100.528853">
<time>2015-09-27T23:02:12Z</time></trkpt>
<trkpt lat="25.447007" lon="100.528752">
<time>2015-09-27T23:02:13Z</time></trkpt>
<trkpt lat="25.446997" lon="100.528742">
<time>2015-09-27T23:02:14Z</time></trkpt>
<trkpt lat="25.446886" lon="100.528582">
<time>2015-09-27T23:02:15Z</time></trkpt>
<trkpt lat="25.446806" lon="100.528442">
<time>2015-09-27T23:02:16Z</time></trkpt>
<trkpt lat="25.446725" lon="100.528291">
<time>2015-09-27T23:02:17Z</time></trkpt>
<trkpt lat="25.446675" lon="100.528171">
<time>2015-09-27T23:02:18Z</time></trkpt>
<trkpt lat="25.446483" lon="100.527639">
<time>2015-09-27T23:02:19Z</time></trkpt>
<trkpt lat="25.446372" lon="100.527268">
<time>2015-09-27T23:02:20Z</time></trkpt>
<trkpt lat="25.446322" lon="100.527068">
<time>2015-09-27T23:02:21Z</time></trkpt>
<trkpt lat="25.446272" lon="100.526938">
<time>2015-09-27T23:02:22Z</time></trkpt>
<trkpt lat="25.446211" lon="100.526787">
<time>2015-09-27T23:02:23Z</time></trkpt>
<trkpt lat="25.446151" lon="100.526637">
<time>2015-09-27T23:02:24Z</time></trkpt>
<trkpt lat="25.4461" lon="100.526506">
<time>2015-09-27T23:02:25Z</time></trkpt>
<trkpt lat="25.44607" lon="100.526436">
<time>2015-09-27T23:02:26Z</time></trkpt>
<trkpt lat="25.44602" lon="100.526346">
<time>2015-09-27T23:02:27Z</time></trkpt>
<trkpt lat="25.44598" lon="100.526276">
<time>2015-09-27T23:02:28Z</time></trkpt>
<trkpt lat="25.44594" lon="100.526226">
<time>2015-09-27T23:02:29Z</time></trkpt>
<trkpt lat="25.445849" lon="100.526085">
<time>2015-09-27T23:02:30Z</time></trkpt>
<trkpt lat="25.445769" lon="100.525965">
<time>2015-09-27T23:02:31Z</time></trkpt>
<trkpt lat="25.445658" lon="100.525835">
<time>2015-09-27T23:02:32Z</time></trkpt>
<trkpt lat="25.445528" lon="100.525654">
<time>2015-09-27T23:02:33Z</time></trkpt>
<trkpt lat="25.445437" lon="100.525514">
<time>2015-09-27T23:02:34Z</time></trkpt>
<trkpt lat="25.445367" lon="100.525424">
<time>2015-09-27T23:02:35Z</time></trkpt>
<trkpt lat="25.445327" lon="100.525363">
<time>2015-09-27T23:02:36Z</time></trkpt>
<trkpt lat="25.445267" lon="100.525313">
<time>2015-09-27T23:02:37Z</time></trkpt>
<trkpt lat="25.445207" lon="100.525253">
<time>2015-09-27T23:02:38Z</time></trkpt>
<trkpt lat="25.445126" lon="100.525173">
<time>2015-09-27T23:02:39Z</time></trkpt>
<trkpt lat="25.445046" lon="100.525113">
<time>2015-09-27T23:02:40Z</time></trkpt>
<trkpt lat="25.444966" lon="100.525043">
<time>2015-09-27T23:02:41Z</time></trkpt>
<trkpt lat="25.444826" lon="100.524922">
<time>2015-09-27T23:02:42Z</time></trkpt>
<trkpt lat="25.444655" lon="100.524782">
<time>2015-09-27T23:02:43Z</time></trkpt>
<trkpt lat="25.444545" lon="100.524682">
<time>2015-09-27T23:02:44Z</time></trkpt>
<trkpt lat="25.444435" lon="100.524571">
<time>2015-09-27T23:02:45Z</time></trkpt>
<trkpt lat="25.444364" lon="100.524491">
<time>2015-09-27T23:02:46Z</time></trkpt>
<trkpt lat="25.444294" lon="100.524411">
<time>2015-09-27T23:02:47Z</time></trkpt>
<trkpt lat="25.444254" lon="100.524351">
<time>2015-09-27T23:02:48Z</time></trkpt>
<trkpt lat="25.444184" lon="100.52425">
<time>2015-09-27T23:02:49Z</time></trkpt>
<trkpt lat="25.444133" lon="100.52415">
<time>2015-09-27T23:02:50Z</time></trkpt>
<trkpt lat="25.444073" lon="100.52405">
<time>2015-09-27T23:02:51Z</time></trkpt>
<trkpt lat="25.444013" lon="100.52393">
<time>2015-09-27T23:02:52Z</time></trkpt>
<trkpt lat="25.443932" lon="100.523759">
<time>2015-09-27T23:02:53Z</time></trkpt>
<trkpt lat="25.443812" lon="100.523498">
<time>2015-09-27T23:02:54Z</time></trkpt>
<trkpt lat="25.443691" lon="100.523278">
<time>2015-09-27T23:02:55Z</time></trkpt>
<trkpt lat="25.443611" lon="100.523127">
<time>2015-09-27T23:02:56Z</time></trkpt>
<trkpt lat="25.44349" lon="100.522917">
<time>2015-09-27T23:02:57Z</time></trkpt>
<trkpt lat="25.443379" lon="100.522756">
<time>2015-09-27T23:02:58Z</time></trkpt>
<trkpt lat="25.443279" lon="100.522606">
<time>2015-09-27T23:02:59Z</time></trkpt>
<trkpt lat="25.443088" lon="100.522325">
<time>2015-09-27T23:03:00Z</time></trkpt>
<trkpt lat="25.442958" lon="100.522135">
<time>2015-09-27T23:03:01Z</time></trkpt>
<trkpt lat="25.442847" lon="100.521944">
<time>2015-09-27T23:03:02Z</time></trkpt>
<trkpt lat="25.442746" lon="100.521754">
<time>2015-09-27T23:03:03Z</time></trkpt>
<trkpt lat="25.442666" lon="100.521563">
<time>2015-09-27T23:03:04Z</time></trkpt>
<trkpt lat="25.442616" lon="100.521443">
<time>2015-09-27T23:03:05Z</time></trkpt>
<trkpt lat="25.442545" lon="100.521312">
<time>2015-09-27T23:03:06Z</time></trkpt>
<trkpt lat="25.442485" lon="100.521182">
<time>2015-09-27T23:03:07Z</time></trkpt>
<trkpt lat="25.442424" lon="100.521072">
<time>2015-09-27T23:03:08Z</time></trkpt>
<trkpt lat="25.442354" lon="100.520951">
<time>2015-09-27T23:03:09Z</time></trkpt>
<trkpt lat="25.442274" lon="100.520841">
<time>2015-09-27T23:03:10Z</time></trkpt>
<trkpt lat="25.442224" lon="100.520771">
<time>2015-09-27T23:03:11Z</time></trkpt>
<trkpt lat="25.442163" lon="100.520701">
<time>2015-09-27T23:03:12Z</time></trkpt>
<trkpt lat="25.442103" lon="100.52062">
<time>2015-09-27T23:03:13Z</time></trkpt>
<trkpt lat="25.441822" lon="100.52032">
<time>2015-09-27T23:03:14Z</time></trkpt>
<trkpt lat="25.441712" lon="100.520179">
<time>2015-09-27T23:03:15Z</time></trkpt>
<trkpt lat="25.441621" lon="100.520019">
<time>2015-09-27T23:03:16Z</time></trkpt>
<trkpt lat="25.441551" lon="100.519878">
<time>2015-09-27T23:03:17Z</time></trkpt>
<trkpt lat="25.441501" lon="100.519758">
<time>2015-09-27T23:03:18Z</time></trkpt>
<trkpt lat="25.44146" lon="100.519598">
<time>2015-09-27T23:03:19Z</time></trkpt>
<trkpt lat="25.44145" lon="100.519467">
<time>2015-09-27T23:03:20Z</time></trkpt>
<trkpt lat="25.441459" lon="100.519387">
<time>2015-09-27T23:03:21Z</time></trkpt>
<trkpt lat="25.441469" lon="100.519307">
<time>2015-09-27T23:03:22Z</time></trkpt>
<trkpt lat="25.441499" lon="100.519196">
<time>2015-09-27T23:03:23Z</time></trkpt>
<trkpt lat="25.441558" lon="100.519016">
<time>2015-09-27T23:03:24Z</time></trkpt>
<trkpt lat="25.441648" lon="100.518775">
<time>2015-09-27T23:03:25Z</time></trkpt>
<trkpt lat="25.441737" lon="100.518484">
<time>2015-09-27T23:03:26Z</time></trkpt>
<trkpt lat="25.441836" lon="100.518153">
<time>2015-09-27T23:03:27Z</time></trkpt>
<trkpt lat="25.441915" lon="100.517923">
<time>2015-09-27T23:03:28Z</time></trkpt>
<trkpt lat="25.442144" lon="100.517431">
<time>2015-09-27T23:03:29Z</time></trkpt>
<trkpt lat="25.442194" lon="100.517301">
<time>2015-09-27T23:03:30Z</time></trkpt>
<trkpt lat="25.442224" lon="100.517221">
<time>2015-09-27T23:03:31Z</time></trkpt>
<trkpt lat="25.442243" lon="100.517141">
<time>2015-09-27T23:03:32Z</time></trkpt>
<trkpt lat="25.442273" lon="100.51703">
<time>2015-09-27T23:03:33Z</time></trkpt>
<trkpt lat="25.442293" lon="100.51693">
<time>2015-09-27T23:03:34Z</time></trkpt>
<trkpt lat="25.442302" lon="100.51685">
<time>2015-09-27T23:03:35Z</time></trkpt>
<trkpt lat="25.442322" lon="100.516689">
<time>2015-09-27T23:03:36Z</time></trkpt>
<trkpt lat="25.442439" lon="100.515686">
<time>2015-09-27T23:03:37Z</time></trkpt>
<trkpt lat="25.442459" lon="100.515526">
<time>2015-09-27T23:03:38Z</time></trkpt>
<trkpt lat="25.442458" lon="100.515456">
<time>2015-09-27T23:03:39Z</time></trkpt>
<trkpt lat="25.442458" lon="100.515365">
<time>2015-09-27T23:03:40Z</time></trkpt>
<trkpt lat="25.442448" lon="100.515295">
<time>2015-09-27T23:03:41Z</time></trkpt>
<trkpt lat="25.442438" lon="100.515235">
<time>2015-09-27T23:03:42Z</time></trkpt>
<trkpt lat="25.442418" lon="100.515165">
<time>2015-09-27T23:03:43Z</time></trkpt>
<trkpt lat="25.442397" lon="100.515105">
<time>2015-09-27T23:03:44Z</time></trkpt>
<trkpt lat="25.442367" lon="100.515014">
<time>2015-09-27T23:03:45Z</time></trkpt>
<trkpt lat="25.442347" lon="100.514964">
<time>2015-09-27T23:03:46Z</time></trkpt>
<trkpt lat="25.442317" lon="100.514904">
<time>2015-09-27T23:03:47Z</time></trkpt>
<trkpt lat="25.442166" lon="100.514603">
<time>2015-09-27T23:03:48Z</time></trkpt>
<trkpt lat="25.442045" lon="100.514342">
<time>2015-09-27T23:03:49Z</time></trkpt>
<trkpt lat="25.442015" lon="100.514252">
<time>2015-09-27T23:03:50Z</time></trkpt>
<trkpt lat="25.441995" lon="100.514162">
<time>2015-09-27T23:03:51Z</time></trkpt>
<trkpt lat="25.441964" lon="100.514082">
<time>2015-09-27T23:03:52Z</time></trkpt>
<trkpt lat="25.441944" lon="100.514001">
<time>2015-09-27T23:03:53Z</time></trkpt>
<trkpt lat="25.441934" lon="100.513941">
<time>2015-09-27T23:03:54Z</time></trkpt>
<trkpt lat="25.441934" lon="100.513871">
<time>2015-09-27T23:03:55Z</time></trkpt>
<trkpt lat="25.441934" lon="100.513801">
<time>2015-09-27T23:03:56Z</time></trkpt>
<trkpt lat="25.441933" lon="100.513741">
<time>2015-09-27T23:03:57Z</time></trkpt>
<trkpt lat="25.441943" lon="100.513701">
<time>2015-09-27T23:03:58Z</time></trkpt>
<trkpt lat="25.441953" lon="100.51366">
<time>2015-09-27T23:03:59Z</time></trkpt>
<trkpt lat="25.441983" lon="100.5136">
<time>2015-09-27T23:04:00Z</time></trkpt>
<trkpt lat="25.442003" lon="100.51356">
<time>2015-09-27T23:04:01Z</time></trkpt>
<trkpt lat="25.442033" lon="100.51352">
<time>2015-09-27T23:04:02Z</time></trkpt>
<trkpt lat="25.442063" lon="100.51349">
<time>2015-09-27T23:04:03Z</time></trkpt>
<trkpt lat="25.442103" lon="100.51345">
<time>2015-09-27T23:04:04Z</time></trkpt>
<trkpt lat="25.442162" lon="100.51341">
<time>2015-09-27T23:04:05Z</time></trkpt>
<trkpt lat="25.442222" lon="100.51339">
<time>2015-09-27T23:04:06Z</time></trkpt>
<trkpt lat="25.442262" lon="100.51336">
<time>2015-09-27T23:04:07Z</time></trkpt>
<trkpt lat="25.442332" lon="100.513339">
<time>2015-09-27T23:04:08Z</time></trkpt>
<trkpt lat="25.442962" lon="100.513189">
<time>2015-09-27T23:04:09Z</time></trkpt>
<trkpt lat="25.442972" lon="100.513189">
<time>2015-09-27T23:04:10Z</time></trkpt>
<trkpt lat="25.443252" lon="100.513129">
<time>2015-09-27T23:04:11Z</time></trkpt>
<trkpt lat="25.443632" lon="100.513039">
<time>2015-09-27T23:04:12Z</time></trkpt>
<trkpt lat="25.443812" lon="100.512998">
<time>2015-09-27T23:04:13Z</time></trkpt>
<trkpt lat="25.444012" lon="100.512958">
<time>2015-09-27T23:04:14Z</time></trkpt>
<trkpt lat="25.444112" lon="100.512948">
<time>2015-09-27T23:04:15Z</time></trkpt>
<trkpt lat="25.444172" lon="100.512938">
<time>2015-09-27T23:04:16Z</time></trkpt>
<trkpt lat="25.444202" lon="100.512928">
<time>2015-09-27T23:04:17Z</time></trkpt>
<trkpt lat="25.444301" lon="100.512898">
<time>2015-09-27T23:04:18Z</time></trkpt>
<trkpt lat="25.444561" lon="100.512848">
<time>2015-09-27T23:04:19Z</time></trkpt>
<trkpt lat="25.444721" lon="100.512808">
<time>2015-09-27T23:04:20Z</time></trkpt>
<trkpt lat="25.444851" lon="100.512768">
<time>2015-09-27T23:04:21Z</time></trkpt>
<trkpt lat="25.444941" lon="100.512748">
<time>2015-09-27T23:04:22Z</time></trkpt>
<trkpt lat="25.445031" lon="100.512698">
<time>2015-09-27T23:04:23Z</time></trkpt>
<trkpt lat="25.445101" lon="100.512647">
<time>2015-09-27T23:04:24Z</time></trkpt>
<trkpt lat="25.445151" lon="100.512607">
<time>2015-09-27T23:04:25Z</time></trkpt>
<trkpt lat="25.445201" lon="100.512547">
<time>2015-09-27T23:04:26Z</time></trkpt>
<trkpt lat="25.445241" lon="100.512497">
<time>2015-09-27T23:04:27Z</time></trkpt>
<trkpt lat="25.44527" lon="100.512447">
<time>2015-09-27T23:04:28Z</time></trkpt>
<trkpt lat="25.4453" lon="100.512377">
<time>2015-09-27T23:04:29Z</time></trkpt>
<trkpt lat="25.44531" lon="100.512316">
<time>2015-09-27T23:04:30Z</time></trkpt>
<trkpt lat="25.44533" lon="100.512246">
<time>2015-09-27T23:04:31Z</time></trkpt>
<trkpt lat="25.44533" lon="100.512176">
<time>2015-09-27T23:04:32Z</time></trkpt>
<trkpt lat="25.445339" lon="100.511925">
<time>2015-09-27T23:04:33Z</time></trkpt>
<trkpt lat="25.445327" lon="100.511273">
<time>2015-09-27T23:04:34Z</time></trkpt>
<trkpt lat="25.445336" lon="100.511043">
<time>2015-09-27T23:04:35Z</time></trkpt>
<trkpt lat="25.445356" lon="100.510892">
<time>2015-09-27T23:04:36Z</time></trkpt>
<trkpt lat="25.445375" lon="100.510732">
<time>2015-09-27T23:04:37Z</time></trkpt>
<trkpt lat="25.445395" lon="100.510611">
<time>2015-09-27T23:04:38Z</time></trkpt>
<trkpt lat="25.445454" lon="100.510341">
<time>2015-09-27T23:04:39Z</time></trkpt>
<trkpt lat="25.445523" lon="100.509919">
<time>2015-09-27T23:04:40Z</time></trkpt>
<trkpt lat="25.445572" lon="100.509638">
<time>2015-09-27T23:04:41Z</time></trkpt>
<trkpt lat="25.445621" lon="100.509388">
<time>2015-09-27T23:04:42Z</time></trkpt>
<trkpt lat="25.445641" lon="100.509277">
<time>2015-09-27T23:04:43Z</time></trkpt>
<trkpt lat="25.445651" lon="100.509227">
<time>2015-09-27T23:04:44Z</time></trkpt>
<trkpt lat="25.445661" lon="100.509187">
<time>2015-09-27T23:04:45Z</time></trkpt>
<trkpt lat="25.445651" lon="100.509127">
<time>2015-09-27T23:04:46Z</time></trkpt>
<trkpt lat="25.44565" lon="100.509037">
<time>2015-09-27T23:04:47Z</time></trkpt>
<trkpt lat="25.44564" lon="100.508966">
<time>2015-09-27T23:04:48Z</time></trkpt>
<trkpt lat="25.44561" lon="100.508856">
<time>2015-09-27T23:04:49Z</time></trkpt>
<trkpt lat="25.44557" lon="100.508726">
<time>2015-09-27T23:04:50Z</time></trkpt>
<trkpt lat="25.445519" lon="100.508595">
<time>2015-09-27T23:04:51Z</time></trkpt>
<trkpt lat="25.445479" lon="100.508505">
<time>2015-09-27T23:04:52Z</time></trkpt>
<trkpt lat="25.445418" lon="100.508385">
<time>2015-09-27T23:04:53Z</time></trkpt>
<trkpt lat="25.445368" lon="100.508325">
<time>2015-09-27T23:04:54Z</time></trkpt>
<trkpt lat="25.445308" lon="100.508244">
<time>2015-09-27T23:04:55Z</time></trkpt>
<trkpt lat="25.445238" lon="100.508184">
<time>2015-09-27T23:04:56Z</time></trkpt>
<trkpt lat="25.445178" lon="100.508134">
<time>2015-09-27T23:04:57Z</time></trkpt>
<trkpt lat="25.445087" lon="100.508074">
<time>2015-09-27T23:04:58Z</time></trkpt>
<trkpt lat="25.444987" lon="100.508024">
<time>2015-09-27T23:04:59Z</time></trkpt>
<trkpt lat="25.444907" lon="100.507983">
<time>2015-09-27T23:05:00Z</time></trkpt>
<trkpt lat="25.444747" lon="100.507913">
<time>2015-09-27T23:05:01Z</time></trkpt>
<trkpt lat="25.444567" lon="100.507823">
<time>2015-09-27T23:05:02Z</time></trkpt>
<trkpt lat="25.444356" lon="100.507713">
<time>2015-09-27T23:05:03Z</time></trkpt>
<trkpt lat="25.444256" lon="100.507653">
<time>2015-09-27T23:05:04Z</time></trkpt>
<trkpt lat="25.444186" lon="100.507612">
<time>2015-09-27T23:05:05Z</time></trkpt>
<trkpt lat="25.444106" lon="100.507562">
<time>2015-09-27T23:05:06Z</time></trkpt>
<trkpt lat="25.444025" lon="100.507492">
<time>2015-09-27T23:05:07Z</time></trkpt>
<trkpt lat="25.443915" lon="100.507402">
<time>2015-09-27T23:05:08Z</time></trkpt>
<trkpt lat="25.443795" lon="100.507291">
<time>2015-09-27T23:05:09Z</time></trkpt>
<trkpt lat="25.443544" lon="100.507061">
<time>2015-09-27T23:05:10Z</time></trkpt>
<trkpt lat="25.443414" lon="100.50693">
<time>2015-09-27T23:05:11Z</time></trkpt>
<trkpt lat="25.443323" lon="100.50685">
<time>2015-09-27T23:05:12Z</time></trkpt>
<trkpt lat="25.443243" lon="100.50679">
<time>2015-09-27T23:05:13Z</time></trkpt>
<trkpt lat="25.443133" lon="100.50671">
<time>2015-09-27T23:05:14Z</time></trkpt>
<trkpt lat="25.443053" lon="100.50665">
<time>2015-09-27T23:05:15Z</time></trkpt>
<trkpt lat="25.442973" lon="100.506599">
<time>2015-09-27T23:05:16Z</time></trkpt>
<trkpt lat="25.442852" lon="100.506529">
<time>2015-09-27T23:05:17Z</time></trkpt>
<trkpt lat="25.442732" lon="100.506449">
<time>2015-09-27T23:05:18Z</time></trkpt>
<trkpt lat="25.442512" lon="100.506319">
<time>2015-09-27T23:05:19Z</time></trkpt>
<trkpt lat="25.442441" lon="100.506258">
<time>2015-09-27T23:05:20Z</time></trkpt>
<trkpt lat="25.442371" lon="100.506208">
<time>2015-09-27T23:05:21Z</time></trkpt>
<trkpt lat="25.442301" lon="100.506138">
<time>2015-09-27T23:05:22Z</time></trkpt>
<trkpt lat="25.442231" lon="100.506068">
<time>2015-09-27T23:05:23Z</time></trkpt>
<trkpt lat="25.44203" lon="100.505797">
<time>2015-09-27T23:05:24Z</time></trkpt>
<trkpt lat="25.44195" lon="100.505687">
<time>2015-09-27T23:05:25Z</time></trkpt>
<trkpt lat="25.441839" lon="100.505556">
<time>2015-09-27T23:05:26Z</time></trkpt>
<trkpt lat="25.441759" lon="100.505426">
<time>2015-09-27T23:05:27Z</time></trkpt>
<trkpt lat="25.441678" lon="100.505316">
<time>2015-09-27T23:05:28Z</time></trkpt>
<trkpt lat="25.441618" lon="100.505215">
<time>2015-09-27T23:05:29Z</time></trkpt>
<trkpt lat="25.441538" lon="100.505075">
<time>2015-09-27T23:05:30Z</time></trkpt>
<trkpt lat="25.441517" lon="100.505005">
<time>2015-09-27T23:05:31Z</time></trkpt>
<trkpt lat="25.441447" lon="100.504814">
<time>2015-09-27T23:05:32Z</time></trkpt>
<trkpt lat="25.441336" lon="100.504543">
<time>2015-09-27T23:05:33Z</time></trkpt>
<trkpt lat="25.441276" lon="100.504383">
<time>2015-09-27T23:05:34Z</time></trkpt>
<trkpt lat="25.441215" lon="100.504232">
<time>2015-09-27T23:05:35Z</time></trkpt>
<trkpt lat="25.441195" lon="100.504152">
<time>2015-09-27T23:05:36Z</time></trkpt>
<trkpt lat="25.441164" lon="100.504042">
<time>2015-09-27T23:05:37Z</time></trkpt>
<trkpt lat="25.441164" lon="100.503961">
<time>2015-09-27T23:05:38Z</time></trkpt>
<trkpt lat="25.441154" lon="100.503891">
<time>2015-09-27T23:05:39Z</time></trkpt>
<trkpt lat="25.441164" lon="100.503741">
<time>2015-09-27T23:05:40Z</time></trkpt>
<trkpt lat="25.441173" lon="100.50364">
<time>2015-09-27T23:05:41Z</time></trkpt>
<trkpt lat="25.441202" lon="100.50333">
<time>2015-09-27T23:05:42Z</time></trkpt>
<trkpt lat="25.441222" lon="100.503169">
<time>2015-09-27T23:05:43Z</time></trkpt>
<trkpt lat="25.441222" lon="100.503059">
<time>2015-09-27T23:05:44Z</time></trkpt>
<trkpt lat="25.441211" lon="100.502968">
<time>2015-09-27T23:05:45Z</time></trkpt>
<trkpt lat="25.441201" lon="100.502848">
<time>2015-09-27T23:05:46Z</time></trkpt>
<trkpt lat="25.441181" lon="100.502748">
<time>2015-09-27T23:05:47Z</time></trkpt>
<trkpt lat="25.44113" lon="100.502627">
<time>2015-09-27T23:05:48Z</time></trkpt>
<trkpt lat="25.44106" lon="100.502467">
<time>2015-09-27T23:05:49Z</time></trkpt>
<trkpt lat="25.440999" lon="100.502327">
<time>2015-09-27T23:05:50Z</time></trkpt>
<trkpt lat="25.440889" lon="100.502096">
<time>2015-09-27T23:05:51Z</time></trkpt>
<trkpt lat="25.440828" lon="100.501925">
<time>2015-09-27T23:05:52Z</time></trkpt>
<trkpt lat="25.440778" lon="100.501795">
<time>2015-09-27T23:05:53Z</time></trkpt>
<trkpt lat="25.440747" lon="100.501695">
<time>2015-09-27T23:05:54Z</time></trkpt>
<trkpt lat="25.440727" lon="100.501584">
<time>2015-09-27T23:05:55Z</time></trkpt>
<trkpt lat="25.440707" lon="100.501444">
<time>2015-09-27T23:05:56Z</time></trkpt>
<trkpt lat="25.440696" lon="100.501333">
<time>2015-09-27T23:05:57Z</time></trkpt>
<trkpt lat="25.440686" lon="100.501133">
<time>2015-09-27T23:05:58Z</time></trkpt>
<trkpt lat="25.440665" lon="100.500952">
<time>2015-09-27T23:05:59Z</time></trkpt>
<trkpt lat="25.440645" lon="100.500842">
<time>2015-09-27T23:06:00Z</time></trkpt>
<trkpt lat="25.440614" lon="100.500752">
<time>2015-09-27T23:06:01Z</time></trkpt>
<trkpt lat="25.440574" lon="100.500682">
<time>2015-09-27T23:06:02Z</time></trkpt>
<trkpt lat="25.440514" lon="100.500601">
<time>2015-09-27T23:06:03Z</time></trkpt>
<trkpt lat="25.440464" lon="100.500541">
<time>2015-09-27T23:06:04Z</time></trkpt>
<trkpt lat="25.440414" lon="100.500491">
<time>2015-09-27T23:06:05Z</time></trkpt>
<trkpt lat="25.440343" lon="100.500441">
<time>2015-09-27T23:06:06Z</time></trkpt>
<trkpt lat="25.440293" lon="100.500411">
<time>2015-09-27T23:06:07Z</time></trkpt>
<trkpt lat="25.440203" lon="100.500371">
<time>2015-09-27T23:06:08Z</time></trkpt>
<trkpt lat="25.440033" lon="100.50034">
<time>2015-09-27T23:06:09Z</time></trkpt>
<trkpt lat="25.439883" lon="100.50032">
<time>2015-09-27T23:06:10Z</time></trkpt>
<trkpt lat="25.439623" lon="100.5003">
<time>2015-09-27T23:06:11Z</time></trkpt>
<trkpt lat="25.439393" lon="100.50027">
<time>2015-09-27T23:06:12Z</time></trkpt>
<trkpt lat="25.439223" lon="100.50022">
<time>2015-09-27T23:06:13Z</time></trkpt>
<trkpt lat="25.439142" lon="100.5002">
<time>2015-09-27T23:06:14Z</time></trkpt>
<trkpt lat="25.439032" lon="100.50014">
<time>2015-09-27T23:06:15Z</time></trkpt>
<trkpt lat="25.438912" lon="100.50008">
<time>2015-09-27T23:06:16Z</time></trkpt>
<trkpt lat="25.438822" lon="100.50002">
<time>2015-09-27T23:06:17Z</time></trkpt>
<trkpt lat="25.438661" lon="100.499919">
<time>2015-09-27T23:06:18Z</time></trkpt>
<trkpt lat="25.438531" lon="100.499849">
<time>2015-09-27T23:06:19Z</time></trkpt>
<trkpt lat="25.438471" lon="100.499799">
<time>2015-09-27T23:06:20Z</time></trkpt>
<trkpt lat="25.438361" lon="100.499719">
<time>2015-09-27T23:06:21Z</time></trkpt>
<trkpt lat="25.438291" lon="100.499658">
<time>2015-09-27T23:06:22Z</time></trkpt>
<trkpt lat="25.43821" lon="100.499588">
<time>2015-09-27T23:06:23Z</time></trkpt>
<trkpt lat="25.43814" lon="100.499518">
<time>2015-09-27T23:06:24Z</time></trkpt>
<trkpt lat="25.438" lon="100.499388">
<time>2015-09-27T23:06:25Z</time></trkpt>
<trkpt lat="25.437829" lon="100.499217">
<time>2015-09-27T23:06:26Z</time></trkpt>
<trkpt lat="25.437649" lon="100.499037">
<time>2015-09-27T23:06:27Z</time></trkpt>
<trkpt lat="25.437548" lon="100.498926">
<time>2015-09-27T23:06:28Z</time></trkpt>
<trkpt lat="25.437468" lon="100.498856">
<time>2015-09-27T23:06:29Z</time></trkpt>
<trkpt lat="25.437378" lon="100.498776">
<time>2015-09-27T23:06:30Z</time></trkpt>
<trkpt lat="25.437257" lon="100.498665">
<time>2015-09-27T23:06:31Z</time></trkpt>
<trkpt lat="25.437167" lon="100.498585">
<time>2015-09-27T23:06:32Z</time></trkpt>
<trkpt lat="25.437067" lon="100.498505">
<time>2015-09-27T23:06:33Z</time></trkpt>
<trkpt lat="25.436947" lon="100.498415">
<time>2015-09-27T23:06:34Z</time></trkpt>
<trkpt lat="25.436826" lon="100.498334">
<time>2015-09-27T23:06:35Z</time></trkpt>
<trkpt lat="25.436766" lon="100.498304">
<time>2015-09-27T23:06:36Z</time></trkpt>
<trkpt lat="25.436696" lon="100.498254">
<time>2015-09-27T23:06:37Z</time></trkpt>
<trkpt lat="25.436646" lon="100.498214">
<time>2015-09-27T23:06:38Z</time></trkpt>
<trkpt lat="25.436566" lon="100.498174">
<time>2015-09-27T23:06:39Z</time></trkpt>
<trkpt lat="25.436516" lon="100.498144">
<time>2015-09-27T23:06:40Z</time></trkpt>
<trkpt lat="25.436476" lon="100.498124">
<time>2015-09-27T23:06:41Z</time></trkpt>
<trkpt lat="25.436395" lon="100.498094">
<time>2015-09-27T23:06:42Z</time></trkpt>
<trkpt lat="25.436335" lon="100.498064">
<time>2015-09-27T23:06:43Z</time></trkpt>
<trkpt lat="25.436195" lon="100.498013">
<time>2015-09-27T23:06:44Z</time></trkpt>
<trkpt lat="25.435935" lon="100.497943">
<time>2015-09-27T23:06:45Z</time></trkpt>
<trkpt lat="25.435555" lon="100.497853">
<time>2015-09-27T23:06:46Z</time></trkpt>
<trkpt lat="25.435394" lon="100.497823">
<time>2015-09-27T23:06:47Z</time></trkpt>
<trkpt lat="25.435254" lon="100.497803">
<time>2015-09-27T23:06:48Z</time></trkpt>
<trkpt lat="25.435174" lon="100.497793">
<time>2015-09-27T23:06:49Z</time></trkpt>
<trkpt lat="25.435004" lon="100.497783">
<time>2015-09-27T23:06:50Z</time></trkpt>
<trkpt lat="25.434804" lon="100.497763">
<time>2015-09-27T23:06:51Z</time></trkpt>
<trkpt lat="25.434734" lon="100.497753">
<time>2015-09-27T23:06:52Z</time></trkpt>
<trkpt lat="25.434654" lon="100.497733">
<time>2015-09-27T23:06:53Z</time></trkpt>
<trkpt lat="25.434554" lon="100.497723">
<time>2015-09-27T23:06:54Z</time></trkpt>
<trkpt lat="25.434494" lon="100.497703">
<time>2015-09-27T23:06:55Z</time></trkpt>
<trkpt lat="25.434404" lon="100.497673">
<time>2015-09-27T23:06:56Z</time></trkpt>
<trkpt lat="25.434324" lon="100.497632">
<time>2015-09-27T23:06:57Z</time></trkpt>
<trkpt lat="25.434213" lon="100.497582">
<time>2015-09-27T23:06:58Z</time></trkpt>
<trkpt lat="25.434053" lon="100.497492">
<time>2015-09-27T23:06:59Z</time></trkpt>
<trkpt lat="25.433712" lon="100.497291">
<time>2015-09-27T23:07:00Z</time></trkpt>
<trkpt lat="25.433602" lon="100.497221">
<time>2015-09-27T23:07:01Z</time></trkpt>
<trkpt lat="25.433552" lon="100.497181">
<time>2015-09-27T23:07:02Z</time></trkpt>
<trkpt lat="25.433492" lon="100.497151">
<time>2015-09-27T23:07:03Z</time></trkpt>
<trkpt lat="25.433452" lon="100.497111">
<time>2015-09-27T23:07:04Z</time></trkpt>
<trkpt lat="25.433422" lon="100.497081">
<time>2015-09-27T23:07:05Z</time></trkpt>
<trkpt lat="25.433402" lon="100.497061">
<time>2015-09-27T23:07:06Z</time></trkpt>
<trkpt lat="25.433361" lon="100.497011">
<time>2015-09-27T23:07:07Z</time></trkpt>
<trkpt lat="25.433321" lon="100.49697">
<time>2015-09-27T23:07:08Z</time></trkpt>
<trkpt lat="25.433291" lon="100.49691">
<time>2015-09-27T23:07:09Z</time></trkpt>
<trkpt lat="25.433231" lon="100.49683">
<time>2015-09-27T23:07:10Z</time></trkpt>
<trkpt lat="25.43312" lon="100.496639">
<time>2015-09-27T23:07:11Z</time></trkpt>
<trkpt lat="25.432919" lon="100.496288">
<time>2015-09-27T23:07:12Z</time></trkpt>
<trkpt lat="25.432829" lon="100.496088">
<time>2015-09-27T23:07:13Z</time></trkpt>
<trkpt lat="25.432768" lon="100.495947">
<time>2015-09-27T23:07:14Z</time></trkpt>
<trkpt lat="25.432728" lon="100.495847">
<time>2015-09-27T23:07:15Z</time></trkpt>
<trkpt lat="25.432677" lon="100.495717">
<time>2015-09-27T23:07:16Z</time></trkpt>
<trkpt lat="25.432657" lon="100.495606">
<time>2015-09-27T23:07:17Z</time></trkpt>
<trkpt lat="25.432637" lon="100.495446">
<time>2015-09-27T23:07:18Z</time></trkpt>
<trkpt lat="25.432606" lon="100.495225">
<time>2015-09-27T23:07:19Z</time></trkpt>
<trkpt lat="25.432585" lon="100.494864">
<time>2015-09-27T23:07:20Z</time></trkpt>
<trkpt lat="25.432554" lon="100.494493">
<time>2015-09-27T23:07:21Z</time></trkpt>
<trkpt lat="25.432543" lon="100.494362">
<time>2015-09-27T23:07:22Z</time></trkpt>
<trkpt lat="25.432523" lon="100.494272">
<time>2015-09-27T23:07:23Z</time></trkpt>
<trkpt lat="25.432503" lon="100.494122">
<time>2015-09-27T23:07:24Z</time></trkpt>
<trkpt lat="25.432462" lon="100.493891">
<time>2015-09-27T23:07:25Z</time></trkpt>
<trkpt lat="25.432391" lon="100.49349">
<time>2015-09-27T23:07:26Z</time></trkpt>
<trkpt lat="25.432248" lon="100.492758">
<time>2015-09-27T23:07:27Z</time></trkpt>
<trkpt lat="25.432238" lon="100.492677">
<time>2015-09-27T23:07:28Z</time></trkpt>
<trkpt lat="25.432198" lon="100.492487">
<time>2015-09-27T23:07:29Z</time></trkpt>
<trkpt lat="25.432177" lon="100.492316">
<time>2015-09-27T23:07:30Z</time></trkpt>
<trkpt lat="25.432157" lon="100.492146">
<time>2015-09-27T23:07:31Z</time></trkpt>
<trkpt lat="25.432136" lon="100.491925">
<time>2015-09-27T23:07:32Z</time></trkpt>
<trkpt lat="25.432125" lon="100.491664">
<time>2015-09-27T23:07:33Z</time></trkpt>
<trkpt lat="25.432114" lon="100.491153">
<time>2015-09-27T23:07:34Z</time></trkpt>
<trkpt lat="25.432092" lon="100.490731">
<time>2015-09-27T23:07:35Z</time></trkpt>
<trkpt lat="25.432092" lon="100.490621">
<time>2015-09-27T23:07:36Z</time></trkpt>
<trkpt lat="25.432102" lon="100.490521">
<time>2015-09-27T23:07:37Z</time></trkpt>
<trkpt lat="25.432121" lon="100.4904">
<time>2015-09-27T23:07:38Z</time></trkpt>
<trkpt lat="25.432131" lon="100.4903">
<time>2015-09-27T23:07:39Z</time></trkpt>
<trkpt lat="25.432161" lon="100.49022">
<time>2015-09-27T23:07:40Z</time></trkpt>
<trkpt lat="25.432211" lon="100.49011">
<time>2015-09-27T23:07:41Z</time></trkpt>
<trkpt lat="25.43226" lon="100.489999">
<time>2015-09-27T23:07:42Z</time></trkpt>
<trkpt lat="25.43233" lon="100.489909">
<time>2015-09-27T23:07:43Z</time></trkpt>
<trkpt lat="25.43238" lon="100.489829">
<time>2015-09-27T23:07:44Z</time></trkpt>
<trkpt lat="25.432499" lon="100.489678">
<time>2015-09-27T23:07:45Z</time></trkpt>
<trkpt lat="25.432728" lon="100.489367">
<time>2015-09-27T23:07:46Z</time></trkpt>
<trkpt lat="25.432948" lon="100.489036">
<time>2015-09-27T23:07:47Z</time></trkpt>
<trkpt lat="25.433147" lon="100.488755">
<time>2015-09-27T23:07:48Z</time></trkpt>
<trkpt lat="25.433216" lon="100.488655">
<time>2015-09-27T23:07:49Z</time></trkpt>
<trkpt lat="25.433246" lon="100.488585">
<time>2015-09-27T23:07:50Z</time></trkpt>
<trkpt lat="25.433266" lon="100.488525">
<time>2015-09-27T23:07:51Z</time></trkpt>
<trkpt lat="25.433276" lon="100.488455">
<time>2015-09-27T23:07:52Z</time></trkpt>
<trkpt lat="25.433286" lon="100.488394">
<time>2015-09-27T23:07:53Z</time></trkpt>
<trkpt lat="25.433285" lon="100.488234">
<time>2015-09-27T23:07:54Z</time></trkpt>
<trkpt lat="25.433285" lon="100.488134">
<time>2015-09-27T23:07:55Z</time></trkpt>
<trkpt lat="25.433213" lon="100.487371">
<time>2015-09-27T23:07:56Z</time></trkpt>
<trkpt lat="25.433161" lon="100.486749">
<time>2015-09-27T23:07:57Z</time></trkpt>
<trkpt lat="25.433151" lon="100.486679">
<time>2015-09-27T23:07:58Z</time></trkpt>
<trkpt lat="25.43314" lon="100.486629">
<time>2015-09-27T23:07:59Z</time></trkpt>
<trkpt lat="25.43313" lon="100.486569">
<time>2015-09-27T23:08:00Z</time></trkpt>
<trkpt lat="25.43312" lon="100.486519">
<time>2015-09-27T23:08:01Z</time></trkpt>
<trkpt lat="25.4331" lon="100.486449">
<time>2015-09-27T23:08:02Z</time></trkpt>
<trkpt lat="25.43307" lon="100.486358">
<time>2015-09-27T23:08:03Z</time></trkpt>
<trkpt lat="25.433039" lon="100.486278">
<time>2015-09-27T23:08:04Z</time></trkpt>
<trkpt lat="25.433009" lon="100.486218">
<time>2015-09-27T23:08:05Z</time></trkpt>
<trkpt lat="25.432959" lon="100.486138">
<time>2015-09-27T23:08:06Z</time></trkpt>
<trkpt lat="25.432919" lon="100.486087">
<time>2015-09-27T23:08:07Z</time></trkpt>
<trkpt lat="25.432879" lon="100.486037">
<time>2015-09-27T23:08:08Z</time></trkpt>
<trkpt lat="25.432849" lon="100.485997">
<time>2015-09-27T23:08:09Z</time></trkpt>
<trkpt lat="25.432798" lon="100.485967">
<time>2015-09-27T23:08:10Z</time></trkpt>
<trkpt lat="25.432758" lon="100.485937">
<time>2015-09-27T23:08:11Z</time></trkpt>
<trkpt lat="25.432698" lon="100.485907">
<time>2015-09-27T23:08:12Z</time></trkpt>
<trkpt lat="25.432648" lon="100.485887">
<time>2015-09-27T23:08:13Z</time></trkpt>
<trkpt lat="25.432578" lon="100.485867">
<time>2015-09-27T23:08:14Z</time></trkpt>
<trkpt lat="25.432498" lon="100.485857">
<time>2015-09-27T23:08:15Z</time></trkpt>
<trkpt lat="25.432298" lon="100.485827">
<time>2015-09-27T23:08:16Z</time></trkpt>
<trkpt lat="25.432028" lon="100.485797">
<time>2015-09-27T23:08:17Z</time></trkpt>
<trkpt lat="25.431618" lon="100.485757">
<time>2015-09-27T23:08:18Z</time></trkpt>
<trkpt lat="25.431487" lon="100.485736">
<time>2015-09-27T23:08:19Z</time></trkpt>
<trkpt lat="25.431417" lon="100.485716">
<time>2015-09-27T23:08:20Z</time></trkpt>
<trkpt lat="25.431347" lon="100.485706">
<time>2015-09-27T23:08:21Z</time></trkpt>
<trkpt lat="25.431257" lon="100.485676">
<time>2015-09-27T23:08:22Z</time></trkpt>
<trkpt lat="25.431137" lon="100.485636">
<time>2015-09-27T23:08:23Z</time></trkpt>
<trkpt lat="25.431087" lon="100.485606">
<time>2015-09-27T23:08:24Z</time></trkpt>
<trkpt lat="25.431017" lon="100.485566">
<time>2015-09-27T23:08:25Z</time></trkpt>
<trkpt lat="25.430837" lon="100.485466">
<time>2015-09-27T23:08:26Z</time></trkpt>
<trkpt lat="25.430716" lon="100.485395">
<time>2015-09-27T23:08:27Z</time></trkpt>
<trkpt lat="25.430656" lon="100.485365">
<time>2015-09-27T23:08:28Z</time></trkpt>
<trkpt lat="25.430576" lon="100.485325">
<time>2015-09-27T23:08:29Z</time></trkpt>
<trkpt lat="25.430516" lon="100.485305">
<time>2015-09-27T23:08:30Z</time></trkpt>
<trkpt lat="25.430466" lon="100.485285">
<time>2015-09-27T23:08:31Z</time></trkpt>
<trkpt lat="25.430396" lon="100.485265">
<time>2015-09-27T23:08:32Z</time></trkpt>
<trkpt lat="25.430306" lon="100.485235">
<time>2015-09-27T23:08:33Z</time></trkpt>
<trkpt lat="25.430256" lon="100.485225">
<time>2015-09-27T23:08:34Z</time></trkpt>
<trkpt lat="25.430206" lon="100.485225">
<time>2015-09-27T23:08:35Z</time></trkpt>
<trkpt lat="25.430076" lon="100.485205">
<time>2015-09-27T23:08:36Z</time></trkpt>
<trkpt lat="25.429986" lon="100.485205">
<time>2015-09-27T23:08:37Z</time></trkpt>
<trkpt lat="25.429936" lon="100.485205">
<time>2015-09-27T23:08:38Z</time></trkpt>
<trkpt lat="25.429846" lon="100.485205">
<time>2015-09-27T23:08:39Z</time></trkpt>
<trkpt lat="25.429776" lon="100.485215">
<time>2015-09-27T23:08:40Z</time></trkpt>
<trkpt lat="25.429706" lon="100.485215">
<time>2015-09-27T23:08:41Z</time></trkpt>
<trkpt lat="25.429596" lon="100.485235">
<time>2015-09-27T23:08:42Z</time></trkpt>
<trkpt lat="25.429526" lon="100.485255">
<time>2015-09-27T23:08:43Z</time></trkpt>
<trkpt lat="25.429386" lon="100.485285">
<time>2015-09-27T23:08:44Z</time></trkpt>
<trkpt lat="25.429286" lon="100.485325">
<time>2015-09-27T23:08:45Z</time></trkpt>
<trkpt lat="25.428946" lon="100.485476">
<time>2015-09-27T23:08:46Z</time></trkpt>
<trkpt lat="25.428307" lon="100.485787">
<time>2015-09-27T23:08:47Z</time></trkpt>
<trkpt lat="25.428097" lon="100.485887">
<time>2015-09-27T23:08:48Z</time></trkpt>
<trkpt lat="25.428017" lon="100.485917">
<time>2015-09-27T23:08:49Z</time></trkpt>
<trkpt lat="25.427927" lon="100.485947">
<time>2015-09-27T23:08:50Z</time></trkpt>
<trkpt lat="25.427837" lon="100.485967">
<time>2015-09-27T23:08:51Z</time></trkpt>
<trkpt lat="25.427767" lon="100.485977">
<time>2015-09-27T23:08:52Z</time></trkpt>
<trkpt lat="25.427657" lon="100.485987">
<time>2015-09-27T23:08:53Z</time></trkpt>
<trkpt lat="25.427577" lon="100.485997">
<time>2015-09-27T23:08:54Z</time></trkpt>
<trkpt lat="25.427517" lon="100.485997">
<time>2015-09-27T23:08:55Z</time></trkpt>
<trkpt lat="25.427467" lon="100.485997">
<time>2015-09-27T23:08:56Z</time></trkpt>
<trkpt lat="25.427437" lon="100.485997">
<time>2015-09-27T23:08:57Z</time></trkpt>
<trkpt lat="25.427357" lon="100.485977">
<time>2015-09-27T23:08:58Z</time></trkpt>
<trkpt lat="25.427287" lon="100.485957">
<time>2015-09-27T23:08:59Z</time></trkpt>
<trkpt lat="25.427187" lon="100.485927">
<time>2015-09-27T23:09:00Z</time></trkpt>
<trkpt lat="25.427127" lon="100.485897">
<time>2015-09-27T23:09:01Z</time></trkpt>
<trkpt lat="25.427057" lon="100.485847">
<time>2015-09-27T23:09:02Z</time></trkpt>
<trkpt lat="25.426997" lon="100.485807">
<time>2015-09-27T23:09:03Z</time></trkpt>
<trkpt lat="25.426936" lon="100.485747">
<time>2015-09-27T23:09:04Z</time></trkpt>
<trkpt lat="25.426876" lon="100.485696">
<time>2015-09-27T23:09:05Z</time></trkpt>
<trkpt lat="25.426826" lon="100.485626">
<time>2015-09-27T23:09:06Z</time></trkpt>
<trkpt lat="25.426756" lon="100.485526">
<time>2015-09-27T23:09:07Z</time></trkpt>
<trkpt lat="25.426665" lon="100.485406">
<time>2015-09-27T23:09:08Z</time></trkpt>
<trkpt lat="25.426615" lon="100.485345">
<time>2015-09-27T23:09:09Z</time></trkpt>
<trkpt lat="25.426565" lon="100.485285">
<time>2015-09-27T23:09:10Z</time></trkpt>
<trkpt lat="25.426525" lon="100.485245">
<time>2015-09-27T23:09:11Z</time></trkpt>
<trkpt lat="25.426485" lon="100.485225">
<time>2015-09-27T23:09:12Z</time></trkpt>
<trkpt lat="25.426485" lon="100.485215">
<time>2015-09-27T23:09:13Z</time></trkpt>
<trkpt lat="25.426435" lon="100.485185">
<time>2015-09-27T23:09:14Z</time></trkpt>
<trkpt lat="25.426385" lon="100.485155">
<time>2015-09-27T23:09:15Z</time></trkpt>
<trkpt lat="25.426335" lon="100.485135">
<time>2015-09-27T23:09:16Z</time></trkpt>
<trkpt lat="25.426274" lon="100.485115">
<time>2015-09-27T23:09:17Z</time></trkpt>
<trkpt lat="25.426214" lon="100.485095">
<time>2015-09-27T23:09:18Z</time></trkpt>
<trkpt lat="25.426154" lon="100.485085">
<time>2015-09-27T23:09:19Z</time></trkpt>
<trkpt lat="25.425974" lon="100.485045">
<time>2015-09-27T23:09:20Z</time></trkpt>
<trkpt lat="25.425714" lon="100.485004">
<time>2015-09-27T23:09:21Z</time></trkpt>
<trkpt lat="25.425584" lon="100.484974">
<time>2015-09-27T23:09:22Z</time></trkpt>
<trkpt lat="25.425514" lon="100.484954">
<time>2015-09-27T23:09:23Z</time></trkpt>
<trkpt lat="25.425454" lon="100.484934">
<time>2015-09-27T23:09:24Z</time></trkpt>
<trkpt lat="25.425384" lon="100.484914">
<time>2015-09-27T23:09:25Z</time></trkpt>
<trkpt lat="25.425324" lon="100.484894">
<time>2015-09-27T23:09:26Z</time></trkpt>
<trkpt lat="25.425274" lon="100.484864">
<time>2015-09-27T23:09:27Z</time></trkpt>
<trkpt lat="25.425193" lon="100.484834">
<time>2015-09-27T23:09:28Z</time></trkpt>
<trkpt lat="25.424983" lon="100.484734">
<time>2015-09-27T23:09:29Z</time></trkpt>
<trkpt lat="25.424923" lon="100.484704">
<time>2015-09-27T23:09:30Z</time></trkpt>
<trkpt lat="25.424873" lon="100.484684">
<time>2015-09-27T23:09:31Z</time></trkpt>
<trkpt lat="25.424803" lon="100.484663">
<time>2015-09-27T23:09:32Z</time></trkpt>
<trkpt lat="25.424733" lon="100.484643">
<time>2015-09-27T23:09:33Z</time></trkpt>
<trkpt lat="25.424683" lon="100.484623">
<time>2015-09-27T23:09:34Z</time></trkpt>
<trkpt lat="25.424633" lon="100.484613">
<time>2015-09-27T23:09:35Z</time></trkpt>
<trkpt lat="25.424593" lon="100.484613">
<time>2015-09-27T23:09:36Z</time></trkpt>
<trkpt lat="25.424453" lon="100.484593">
<time>2015-09-27T23:09:37Z</time></trkpt>
<trkpt lat="25.424413" lon="100.484583">
<time>2015-09-27T23:09:38Z</time></trkpt>
<trkpt lat="25.424362" lon="100.484573">
<time>2015-09-27T23:09:39Z</time></trkpt>
<trkpt lat="25.424302" lon="100.484563">
<time>2015-09-27T23:09:40Z</time></trkpt>
<trkpt lat="25.424252" lon="100.484543">
<time>2015-09-27T23:09:41Z</time></trkpt>
<trkpt lat="25.424182" lon="100.484523">
<time>2015-09-27T23:09:42Z</time></trkpt>
<trkpt lat="25.424132" lon="100.484493">
<time>2015-09-27T23:09:43Z</time></trkpt>
<trkpt lat="25.424092" lon="100.484473">
<time>2015-09-27T23:09:44Z</time></trkpt>
<trkpt lat="25.424062" lon="100.484453">
<time>2015-09-27T23:09:45Z</time></trkpt>
<trkpt lat="25.423992" lon="100.484403">
<time>2015-09-27T23:09:46Z</time></trkpt>
<trkpt lat="25.423922" lon="100.484363">
<time>2015-09-27T23:09:47Z</time></trkpt>
<trkpt lat="25.423882" lon="100.484332">
<time>2015-09-27T23:09:48Z</time></trkpt>
<trkpt lat="25.423832" lon="100.484292">
<time>2015-09-27T23:09:49Z</time></trkpt>
<trkpt lat="25.423791" lon="100.484262">
<time>2015-09-27T23:09:50Z</time></trkpt>
<trkpt lat="25.423751" lon="100.484232">
<time>2015-09-27T23:09:51Z</time></trkpt>
<trkpt lat="25.423721" lon="100.484222">
<time>2015-09-27T23:09:52Z</time></trkpt>
<trkpt lat="25.423681" lon="100.484202">
<time>2015-09-27T23:09:53Z</time></trkpt>
<trkpt lat="25.423631" lon="100.484172">
<time>2015-09-27T23:09:54Z</time></trkpt>
<trkpt lat="25.423571" lon="100.484162">
<time>2015-09-27T23:09:55Z</time></trkpt>
<trkpt lat="25.423541" lon="100.484152">
<time>2015-09-27T23:09:56Z</time></trkpt>
<trkpt lat="25.423501" lon="100.484142">
<time>2015-09-27T23:09:57Z</time></trkpt>
<trkpt lat="25.423451" lon="100.484142">
<time>2015-09-27T23:09:58Z</time></trkpt>
<trkpt lat="25.423411" lon="100.484152">
<time>2015-09-27T23:09:59Z</time></trkpt>
<trkpt lat="25.423341" lon="100.484162">
<time>2015-09-27T23:10:00Z</time></trkpt>
<trkpt lat="25.423271" lon="100.484182">
<time>2015-09-27T23:10:01Z</time></trkpt>
<trkpt lat="25.423181" lon="100.484222">
<time>2015-09-27T23:10:02Z</time></trkpt>
<trkpt lat="25.423101" lon="100.484282">
<time>2015-09-27T23:10:03Z</time></trkpt>
<trkpt lat="25.422882" lon="100.484453">
<time>2015-09-27T23:10:04Z</time></trkpt>
<trkpt lat="25.422253" lon="100.485015">
<time>2015-09-27T23:10:05Z</time></trkpt>
<trkpt lat="25.422203" lon="100.485045">
<time>2015-09-27T23:10:06Z</time></trkpt>
<trkpt lat="25.421974" lon="100.485205">
<time>2015-09-27T23:10:07Z</time></trkpt>
<trkpt lat="25.421834" lon="100.485305">
<time>2015-09-27T23:10:08Z</time></trkpt>
<trkpt lat="25.421634" lon="100.485426">
<time>2015-09-27T23:10:09Z</time></trkpt>
<trkpt lat="25.421525" lon="100.485486">
<time>2015-09-27T23:10:10Z</time></trkpt>
<trkpt lat="25.421405" lon="100.485566">
<time>2015-09-27T23:10:11Z</time></trkpt>
<trkpt lat="25.421285" lon="100.485656">
<time>2015-09-27T23:10:12Z</time></trkpt>
<trkpt lat="25.421195" lon="100.485727">
<time>2015-09-27T23:10:13Z</time></trkpt>
<trkpt lat="25.420886" lon="100.485947">
<time>2015-09-27T23:10:14Z</time></trkpt>
<trkpt lat="25.420527" lon="100.486248">
<time>2015-09-27T23:10:15Z</time></trkpt>
<trkpt lat="25.420447" lon="100.486308">
<time>2015-09-27T23:10:16Z</time></trkpt>
<trkpt lat="25.420317" lon="100.486399">
<time>2015-09-27T23:10:17Z</time></trkpt>
<trkpt lat="25.420237" lon="100.486449">
<time>2015-09-27T23:10:18Z</time></trkpt>
<trkpt lat="25.420167" lon="100.486479">
<time>2015-09-27T23:10:19Z</time></trkpt>
<trkpt lat="25.420057" lon="100.486509">
<time>2015-09-27T23:10:20Z</time></trkpt>
<trkpt lat="25.419927" lon="100.486549">
<time>2015-09-27T23:10:21Z</time></trkpt>
<trkpt lat="25.419797" lon="100.486569">
<time>2015-09-27T23:10:22Z</time></trkpt>
<trkpt lat="25.419397" lon="100.486609">
<time>2015-09-27T23:10:23Z</time></trkpt>
<trkpt lat="25.419097" lon="100.48665">
<time>2015-09-27T23:10:24Z</time></trkpt>
<trkpt lat="25.419047" lon="100.48665">
<time>2015-09-27T23:10:25Z</time></trkpt>
<trkpt lat="25.418987" lon="100.48665">
<time>2015-09-27T23:10:26Z</time></trkpt>
<trkpt lat="25.418937" lon="100.48665">
<time>2015-09-27T23:10:27Z</time></trkpt>
<trkpt lat="25.418897" lon="100.486639">
<time>2015-09-27T23:10:28Z</time></trkpt>
<trkpt lat="25.418847" lon="100.486629">
<time>2015-09-27T23:10:29Z</time></trkpt>
<trkpt lat="25.418797" lon="100.486619">
<time>2015-09-27T23:10:30Z</time></trkpt>
<trkpt lat="25.418717" lon="100.486589">
<time>2015-09-27T23:10:31Z</time></trkpt>
<trkpt lat="25.418487" lon="100.486489">
<time>2015-09-27T23:10:32Z</time></trkpt>
<trkpt lat="25.418246" lon="100.486369">
<time>2015-09-27T23:10:33Z</time></trkpt>
<trkpt lat="25.418066" lon="100.486298">
<time>2015-09-27T23:10:34Z</time></trkpt>
<trkpt lat="25.417686" lon="100.486158">
<time>2015-09-27T23:10:35Z</time></trkpt>
<trkpt lat="25.417115" lon="100.485957">
<time>2015-09-27T23:10:36Z</time></trkpt>
<trkpt lat="25.416975" lon="100.485897">
<time>2015-09-27T23:10:37Z</time></trkpt>
<trkpt lat="25.416785" lon="100.485837">
<time>2015-09-27T23:10:38Z</time></trkpt>
<trkpt lat="25.416684" lon="100.485807">
<time>2015-09-27T23:10:39Z</time></trkpt>
<trkpt lat="25.416574" lon="100.485777">
<time>2015-09-27T23:10:40Z</time></trkpt>
<trkpt lat="25.416474" lon="100.485757">
<time>2015-09-27T23:10:41Z</time></trkpt>
<trkpt lat="25.416364" lon="100.485727">
<time>2015-09-27T23:10:42Z</time></trkpt>
<trkpt lat="25.416194" lon="100.485677">
<time>2015-09-27T23:10:43Z</time></trkpt>
<trkpt lat="25.416094" lon="100.485657">
<time>2015-09-27T23:10:44Z</time></trkpt>
<trkpt lat="25.416024" lon="100.485627">
<time>2015-09-27T23:10:45Z</time></trkpt>
<trkpt lat="25.415974" lon="100.485617">
<time>2015-09-27T23:10:46Z</time></trkpt>
<trkpt lat="25.415934" lon="100.485596">
<time>2015-09-27T23:10:47Z</time></trkpt>
<trkpt lat="25.415904" lon="100.485586">
<time>2015-09-27T23:10:48Z</time></trkpt>
<trkpt lat="25.415864" lon="100.485566">
<time>2015-09-27T23:10:49Z</time></trkpt>
<trkpt lat="25.415843" lon="100.485546">
<time>2015-09-27T23:10:50Z</time></trkpt>
<trkpt lat="25.415813" lon="100.485526">
<time>2015-09-27T23:10:51Z</time></trkpt>
<trkpt lat="25.415783" lon="100.485496">
<time>2015-09-27T23:10:52Z</time></trkpt>
<trkpt lat="25.415763" lon="100.485476">
<time>2015-09-27T23:10:53Z</time></trkpt>
<trkpt lat="25.415743" lon="100.485456">
<time>2015-09-27T23:10:54Z</time></trkpt>
<trkpt lat="25.415723" lon="100.485426">
<time>2015-09-27T23:10:55Z</time></trkpt>
<trkpt lat="25.415703" lon="100.485386">
<time>2015-09-27T23:10:56Z</time></trkpt>
<trkpt lat="25.415683" lon="100.485336">
<time>2015-09-27T23:10:57Z</time></trkpt>
<trkpt lat="25.415663" lon="100.485286">
<time>2015-09-27T23:10:58Z</time></trkpt>
<trkpt lat="25.415653" lon="100.485225">
<time>2015-09-27T23:10:59Z</time></trkpt>
<trkpt lat="25.415642" lon="100.485165">
<time>2015-09-27T23:11:00Z</time></trkpt>
<trkpt lat="25.415632" lon="100.485095">
<time>2015-09-27T23:11:01Z</time></trkpt>
<trkpt lat="25.415622" lon="100.485005">
<time>2015-09-27T23:11:02Z</time></trkpt>
<trkpt lat="25.415622" lon="100.484894">
<time>2015-09-27T23:11:03Z</time></trkpt>
<trkpt lat="25.415621" lon="100.484784">
<time>2015-09-27T23:11:04Z</time></trkpt>
<trkpt lat="25.415641" lon="100.484553">
<time>2015-09-27T23:11:05Z</time></trkpt>
<trkpt lat="25.41567" lon="100.484242">
<time>2015-09-27T23:11:06Z</time></trkpt>
<trkpt lat="25.415679" lon="100.484072">
<time>2015-09-27T23:11:07Z</time></trkpt>
<trkpt lat="25.415689" lon="100.483921">
<time>2015-09-27T23:11:08Z</time></trkpt>
<trkpt lat="25.415698" lon="100.483771">
<time>2015-09-27T23:11:09Z</time></trkpt>
<trkpt lat="25.415698" lon="100.483621">
<time>2015-09-27T23:11:10Z</time></trkpt>
<trkpt lat="25.415698" lon="100.48354">
<time>2015-09-27T23:11:11Z</time></trkpt>
<trkpt lat="25.415697" lon="100.48339">
<time>2015-09-27T23:11:12Z</time></trkpt>
<trkpt lat="25.415706" lon="100.483079">
<time>2015-09-27T23:11:13Z</time></trkpt>
<trkpt lat="25.415715" lon="100.482598">
<time>2015-09-27T23:11:14Z</time></trkpt>
<trkpt lat="25.415734" lon="100.482176">
<time>2015-09-27T23:11:15Z</time></trkpt>
<trkpt lat="25.415752" lon="100.481735">
<time>2015-09-27T23:11:16Z</time></trkpt>
<trkpt lat="25.415771" lon="100.481424">
<time>2015-09-27T23:11:17Z</time></trkpt>
<trkpt lat="25.4158" lon="100.481053">
<time>2015-09-27T23:11:18Z</time></trkpt>
<trkpt lat="25.415819" lon="100.480702">
<time>2015-09-27T23:11:19Z</time></trkpt>
<trkpt lat="25.415829" lon="100.480481">
<time>2015-09-27T23:11:20Z</time></trkpt>
<trkpt lat="25.415848" lon="100.480201">
<time>2015-09-27T23:11:21Z</time></trkpt>
<trkpt lat="25.415857" lon="100.48002">
<time>2015-09-27T23:11:22Z</time></trkpt>
<trkpt lat="25.415877" lon="100.47985">
<time>2015-09-27T23:11:23Z</time></trkpt>
<trkpt lat="25.415897" lon="100.479729">
<time>2015-09-27T23:11:24Z</time></trkpt>
<trkpt lat="25.415926" lon="100.479599">
<time>2015-09-27T23:11:25Z</time></trkpt>
<trkpt lat="25.415985" lon="100.479188">
<time>2015-09-27T23:11:26Z</time></trkpt>
<trkpt lat="25.416064" lon="100.478686">
<time>2015-09-27T23:11:27Z</time></trkpt>
<trkpt lat="25.416112" lon="100.478014">
<time>2015-09-27T23:11:28Z</time></trkpt>
<trkpt lat="25.41615" lon="100.477513">
<time>2015-09-27T23:11:29Z</time></trkpt>
<trkpt lat="25.41616" lon="100.477302">
<time>2015-09-27T23:11:30Z</time></trkpt>
<trkpt lat="25.416159" lon="100.477072">
<time>2015-09-27T23:11:31Z</time></trkpt>
<trkpt lat="25.416158" lon="100.47657">
<time>2015-09-27T23:11:32Z</time></trkpt>
<trkpt lat="25.416157" lon="100.4764">
<time>2015-09-27T23:11:33Z</time></trkpt>
<trkpt lat="25.416157" lon="100.476219">
<time>2015-09-27T23:11:34Z</time></trkpt>
<trkpt lat="25.416166" lon="100.476119">
<time>2015-09-27T23:11:35Z</time></trkpt>
<trkpt lat="25.416176" lon="100.476019">
<time>2015-09-27T23:11:36Z</time></trkpt>
<trkpt lat="25.416196" lon="100.475948">
<time>2015-09-27T23:11:37Z</time></trkpt>
<trkpt lat="25.416206" lon="100.475898">
<time>2015-09-27T23:11:38Z</time></trkpt>
<trkpt lat="25.416226" lon="100.475848">
<time>2015-09-27T23:11:39Z</time></trkpt>
<trkpt lat="25.416246" lon="100.475808">
<time>2015-09-27T23:11:40Z</time></trkpt>
<trkpt lat="25.416276" lon="100.475778">
<time>2015-09-27T23:11:41Z</time></trkpt>
<trkpt lat="25.416295" lon="100.475748">
<time>2015-09-27T23:11:42Z</time></trkpt>
<trkpt lat="25.416325" lon="100.475718">
<time>2015-09-27T23:11:43Z</time></trkpt>
<trkpt lat="25.416355" lon="100.475688">
<time>2015-09-27T23:11:44Z</time></trkpt>
<trkpt lat="25.416415" lon="100.475647">
<time>2015-09-27T23:11:45Z</time></trkpt>
<trkpt lat="25.416475" lon="100.475627">
<time>2015-09-27T23:11:46Z</time></trkpt>
<trkpt lat="25.416515" lon="100.475617">
<time>2015-09-27T23:11:47Z</time></trkpt>
<trkpt lat="25.416575" lon="100.475607">
<time>2015-09-27T23:11:48Z</time></trkpt>
<trkpt lat="25.416605" lon="100.475607">
<time>2015-09-27T23:11:49Z</time></trkpt>
<trkpt lat="25.416645" lon="100.475607">
<time>2015-09-27T23:11:50Z</time></trkpt>
<trkpt lat="25.416675" lon="100.475607">
<time>2015-09-27T23:11:51Z</time></trkpt>
<trkpt lat="25.416685" lon="100.475607">
<time>2015-09-27T23:11:52Z</time></trkpt>
<trkpt lat="25.416735" lon="100.475617">
<time>2015-09-27T23:11:53Z</time></trkpt>
<trkpt lat="25.416805" lon="100.475637">
<time>2015-09-27T23:11:54Z</time></trkpt>
<trkpt lat="25.416885" lon="100.475668">
<time>2015-09-27T23:11:55Z</time></trkpt>
<trkpt lat="25.416985" lon="100.475698">
<time>2015-09-27T23:11:56Z</time></trkpt>
<trkpt lat="25.417136" lon="100.475768">
<time>2015-09-27T23:11:57Z</time></trkpt>
<trkpt lat="25.417266" lon="100.475818">
<time>2015-09-27T23:11:58Z</time></trkpt>
<trkpt lat="25.417386" lon="100.475858">
<time>2015-09-27T23:11:59Z</time></trkpt>
<trkpt lat="25.417476" lon="100.475888">
<time>2015-09-27T23:12:00Z</time></trkpt>
<trkpt lat="25.417546" lon="100.475908">
<time>2015-09-27T23:12:01Z</time></trkpt>
<trkpt lat="25.417646" lon="100.475938">
<time>2015-09-27T23:12:02Z</time></trkpt>
<trkpt lat="25.417716" lon="100.475948">
<time>2015-09-27T23:12:03Z</time></trkpt>
<trkpt lat="25.417796" lon="100.475938">
<time>2015-09-27T23:12:04Z</time></trkpt>
<trkpt lat="25.417856" lon="100.475918">
<time>2015-09-27T23:12:05Z</time></trkpt>
<trkpt lat="25.417926" lon="100.475888">
<time>2015-09-27T23:12:06Z</time></trkpt>
<trkpt lat="25.417976" lon="100.475848">
<time>2015-09-27T23:12:07Z</time></trkpt>
<trkpt lat="25.418016" lon="100.475808">
<time>2015-09-27T23:12:08Z</time></trkpt>
<trkpt lat="25.418056" lon="100.475758">
<time>2015-09-27T23:12:09Z</time></trkpt>
<trkpt lat="25.418086" lon="100.475718">
<time>2015-09-27T23:12:10Z</time></trkpt>
<trkpt lat="25.418116" lon="100.475667">
<time>2015-09-27T23:12:11Z</time></trkpt>
<trkpt lat="25.418136" lon="100.475617">
<time>2015-09-27T23:12:12Z</time></trkpt>
<trkpt lat="25.418155" lon="100.475547">
<time>2015-09-27T23:12:13Z</time></trkpt>
<trkpt lat="25.418175" lon="100.475487">
<time>2015-09-27T23:12:14Z</time></trkpt>
<trkpt lat="25.418185" lon="100.475427">
<time>2015-09-27T23:12:15Z</time></trkpt>
<trkpt lat="25.418195" lon="100.475357">
<time>2015-09-27T23:12:16Z</time></trkpt>
<trkpt lat="25.418185" lon="100.475296">
<time>2015-09-27T23:12:17Z</time></trkpt>
<trkpt lat="25.418184" lon="100.475236">
<time>2015-09-27T23:12:18Z</time></trkpt>
<trkpt lat="25.418164" lon="100.475176">
<time>2015-09-27T23:12:19Z</time></trkpt>
<trkpt lat="25.418144" lon="100.475126">
<time>2015-09-27T23:12:20Z</time></trkpt>
<trkpt lat="25.418114" lon="100.475076">
<time>2015-09-27T23:12:21Z</time></trkpt>
<trkpt lat="25.418074" lon="100.475016">
<time>2015-09-27T23:12:22Z</time></trkpt>
<trkpt lat="25.418014" lon="100.474955">
<time>2015-09-27T23:12:23Z</time></trkpt>
<trkpt lat="25.417953" lon="100.474895">
<time>2015-09-27T23:12:24Z</time></trkpt>
<trkpt lat="25.417903" lon="100.474835">
<time>2015-09-27T23:12:25Z</time></trkpt>
<trkpt lat="25.417843" lon="100.474785">
<time>2015-09-27T23:12:26Z</time></trkpt>
<trkpt lat="25.417773" lon="100.474745">
<time>2015-09-27T23:12:27Z</time></trkpt>
<trkpt lat="25.417723" lon="100.474705">
<time>2015-09-27T23:12:28Z</time></trkpt>
<trkpt lat="25.417633" lon="100.474675">
<time>2015-09-27T23:12:29Z</time></trkpt>
<trkpt lat="25.417583" lon="100.474655">
<time>2015-09-27T23:12:30Z</time></trkpt>
<trkpt lat="25.417513" lon="100.474645">
<time>2015-09-27T23:12:31Z</time></trkpt>
<trkpt lat="25.417433" lon="100.474625">
<time>2015-09-27T23:12:32Z</time></trkpt>
<trkpt lat="25.417333" lon="100.474615">
<time>2015-09-27T23:12:33Z</time></trkpt>
<trkpt lat="25.417082" lon="100.474594">
<time>2015-09-27T23:12:34Z</time></trkpt>
<trkpt lat="25.416772" lon="100.474544">
<time>2015-09-27T23:12:35Z</time></trkpt>
<trkpt lat="25.416692" lon="100.474524">
<time>2015-09-27T23:12:36Z</time></trkpt>
<trkpt lat="25.416622" lon="100.474514">
<time>2015-09-27T23:12:37Z</time></trkpt>
<trkpt lat="25.416212" lon="100.474404">
<time>2015-09-27T23:12:38Z</time></trkpt>
<trkpt lat="25.415821" lon="100.474284">
<time>2015-09-27T23:12:39Z</time></trkpt>
<trkpt lat="25.415381" lon="100.474163">
<time>2015-09-27T23:12:40Z</time></trkpt>
<trkpt lat="25.41503" lon="100.474043">
<time>2015-09-27T23:12:41Z</time></trkpt>
<trkpt lat="25.41489" lon="100.473993">
<time>2015-09-27T23:12:42Z</time></trkpt>
<trkpt lat="25.41478" lon="100.473953">
<time>2015-09-27T23:12:43Z</time></trkpt>
<trkpt lat="25.41467" lon="100.473903">
<time>2015-09-27T23:12:44Z</time></trkpt>
<trkpt lat="25.41459" lon="100.473862">
<time>2015-09-27T23:12:45Z</time></trkpt>
<trkpt lat="25.41452" lon="100.473822">
<time>2015-09-27T23:12:46Z</time></trkpt>
<trkpt lat="25.41447" lon="100.473792">
<time>2015-09-27T23:12:47Z</time></trkpt>
<trkpt lat="25.41439" lon="100.473742">
<time>2015-09-27T23:12:48Z</time></trkpt>
<trkpt lat="25.414319" lon="100.473692">
<time>2015-09-27T23:12:49Z</time></trkpt>
<trkpt lat="25.414219" lon="100.473622">
<time>2015-09-27T23:12:50Z</time></trkpt>
<trkpt lat="25.414099" lon="100.473532">
<time>2015-09-27T23:12:51Z</time></trkpt>
<trkpt lat="25.413979" lon="100.473431">
<time>2015-09-27T23:12:52Z</time></trkpt>
<trkpt lat="25.413878" lon="100.473341">
<time>2015-09-27T23:12:53Z</time></trkpt>
<trkpt lat="25.413698" lon="100.473181">
<time>2015-09-27T23:12:54Z</time></trkpt>
<trkpt lat="25.413608" lon="100.4731">
<time>2015-09-27T23:12:55Z</time></trkpt>
<trkpt lat="25.413517" lon="100.47303">
<time>2015-09-27T23:12:56Z</time></trkpt>
<trkpt lat="25.413447" lon="100.47297">
<time>2015-09-27T23:12:57Z</time></trkpt>
<trkpt lat="25.413307" lon="100.47285">
<time>2015-09-27T23:12:58Z</time></trkpt>
<trkpt lat="25.413197" lon="100.472749">
<time>2015-09-27T23:12:59Z</time></trkpt>
<trkpt lat="25.413026" lon="100.472599">
<time>2015-09-27T23:13:00Z</time></trkpt>
<trkpt lat="25.412755" lon="100.472368">
<time>2015-09-27T23:13:01Z</time></trkpt>
<trkpt lat="25.412415" lon="100.472058">
<time>2015-09-27T23:13:02Z</time></trkpt>
<trkpt lat="25.411983" lon="100.471656">
<time>2015-09-27T23:13:03Z</time></trkpt>
<trkpt lat="25.411763" lon="100.471466">
<time>2015-09-27T23:13:04Z</time></trkpt>
<trkpt lat="25.411693" lon="100.471416">
<time>2015-09-27T23:13:05Z</time></trkpt>
<trkpt lat="25.411643" lon="100.471386">
<time>2015-09-27T23:13:06Z</time></trkpt>
<trkpt lat="25.411582" lon="100.471356">
<time>2015-09-27T23:13:07Z</time></trkpt>
<trkpt lat="25.411552" lon="100.471336">
<time>2015-09-27T23:13:08Z</time></trkpt>
<trkpt lat="25.411492" lon="100.471326">
<time>2015-09-27T23:13:09Z</time></trkpt>
<trkpt lat="25.411402" lon="100.471306">
<time>2015-09-27T23:13:10Z</time></trkpt>
<trkpt lat="25.411302" lon="100.471306">
<time>2015-09-27T23:13:11Z</time></trkpt>
<trkpt lat="25.411172" lon="100.471316">
<time>2015-09-27T23:13:12Z</time></trkpt>
<trkpt lat="25.410772" lon="100.471376">
<time>2015-09-27T23:13:13Z</time></trkpt>
<trkpt lat="25.410192" lon="100.471456">
<time>2015-09-27T23:13:14Z</time></trkpt>
<trkpt lat="25.409843" lon="100.471506">
<time>2015-09-27T23:13:15Z</time></trkpt>
<trkpt lat="25.409743" lon="100.471516">
<time>2015-09-27T23:13:16Z</time></trkpt>
<trkpt lat="25.409692" lon="100.471516">
<time>2015-09-27T23:13:17Z</time></trkpt>
<trkpt lat="25.409632" lon="100.471516">
<time>2015-09-27T23:13:18Z</time></trkpt>
<trkpt lat="25.409602" lon="100.471516">
<time>2015-09-27T23:13:19Z</time></trkpt>
<trkpt lat="25.409552" lon="100.471506">
<time>2015-09-27T23:13:20Z</time></trkpt>
<trkpt lat="25.409522" lon="100.471506">
<time>2015-09-27T23:13:21Z</time></trkpt>
<trkpt lat="25.409502" lon="100.471486">
<time>2015-09-27T23:13:22Z</time></trkpt>
<trkpt lat="25.409462" lon="100.471466">
<time>2015-09-27T23:13:23Z</time></trkpt>
<trkpt lat="25.409412" lon="100.471436">
<time>2015-09-27T23:13:24Z</time></trkpt>
<trkpt lat="25.409382" lon="100.471426">
<time>2015-09-27T23:13:25Z</time></trkpt>
<trkpt lat="25.409352" lon="100.471396">
<time>2015-09-27T23:13:26Z</time></trkpt>
<trkpt lat="25.409292" lon="100.471316">
<time>2015-09-27T23:13:27Z</time></trkpt>
<trkpt lat="25.409201" lon="100.471175">
<time>2015-09-27T23:13:28Z</time></trkpt>
<trkpt lat="25.409121" lon="100.470995">
<time>2015-09-27T23:13:29Z</time></trkpt>
<trkpt lat="25.409081" lon="100.470914">
<time>2015-09-27T23:13:30Z</time></trkpt>
<trkpt lat="25.409061" lon="100.470874">
<time>2015-09-27T23:13:31Z</time></trkpt>
<trkpt lat="25.40903" lon="100.470824">
<time>2015-09-27T23:13:32Z</time></trkpt>
<trkpt lat="25.409" lon="100.470774">
<time>2015-09-27T23:13:33Z</time></trkpt>
<trkpt lat="25.40897" lon="100.470734">
<time>2015-09-27T23:13:34Z</time></trkpt>
<trkpt lat="25.40892" lon="100.470674">
<time>2015-09-27T23:13:35Z</time></trkpt>
<trkpt lat="25.40889" lon="100.470624">
<time>2015-09-27T23:13:36Z</time></trkpt>
<trkpt lat="25.40886" lon="100.470594">
<time>2015-09-27T23:13:37Z</time></trkpt>
<trkpt lat="25.40883" lon="100.470554">
<time>2015-09-27T23:13:38Z</time></trkpt>
<trkpt lat="25.40879" lon="100.470523">
<time>2015-09-27T23:13:39Z</time></trkpt>
<trkpt lat="25.40875" lon="100.470483">
<time>2015-09-27T23:13:40Z</time></trkpt>
<trkpt lat="25.408669" lon="100.470423">
<time>2015-09-27T23:13:41Z</time></trkpt>
<trkpt lat="25.408599" lon="100.470373">
<time>2015-09-27T23:13:42Z</time></trkpt>
<trkpt lat="25.408539" lon="100.470333">
<time>2015-09-27T23:13:43Z</time></trkpt>
<trkpt lat="25.408489" lon="100.470313">
<time>2015-09-27T23:13:44Z</time></trkpt>
<trkpt lat="25.408419" lon="100.470273">
<time>2015-09-27T23:13:45Z</time></trkpt>
<trkpt lat="25.408359" lon="100.470243">
<time>2015-09-27T23:13:46Z</time></trkpt>
<trkpt lat="25.408339" lon="100.470233">
<time>2015-09-27T23:13:47Z</time></trkpt>
<trkpt lat="25.408299" lon="100.470213">
<time>2015-09-27T23:13:48Z</time></trkpt>
<trkpt lat="25.408279" lon="100.470193">
<time>2015-09-27T23:13:49Z</time></trkpt>
<trkpt lat="25.408259" lon="100.470183">
<time>2015-09-27T23:13:50Z</time></trkpt>
<trkpt lat="25.408229" lon="100.470162">
<time>2015-09-27T23:13:51Z</time></trkpt>
<trkpt lat="25.408198" lon="100.470132">
<time>2015-09-27T23:13:52Z</time></trkpt>
<trkpt lat="25.408188" lon="100.470112">
<time>2015-09-27T23:13:53Z</time></trkpt>
<trkpt lat="25.408168" lon="100.470092">
<time>2015-09-27T23:13:54Z</time></trkpt>
<trkpt lat="25.408158" lon="100.470062">
<time>2015-09-27T23:13:55Z</time></trkpt>
<trkpt lat="25.408138" lon="100.470022">
<time>2015-09-27T23:13:56Z</time></trkpt>
<trkpt lat="25.408128" lon="100.469972">
<time>2015-09-27T23:13:57Z</time></trkpt>
<trkpt lat="25.408118" lon="100.469942">
<time>2015-09-27T23:13:58Z</time></trkpt>
<trkpt lat="25.408118" lon="100.469882">
<time>2015-09-27T23:13:59Z</time></trkpt>
<trkpt lat="25.408118" lon="100.469812">
<time>2015-09-27T23:14:00Z</time></trkpt>
<trkpt lat="25.408117" lon="100.469731">
<time>2015-09-27T23:14:01Z</time></trkpt>
<trkpt lat="25.408127" lon="100.469651">
<time>2015-09-27T23:14:02Z</time></trkpt>
<trkpt lat="25.408127" lon="100.469601">
<time>2015-09-27T23:14:03Z</time></trkpt>
<trkpt lat="25.408127" lon="100.469561">
<time>2015-09-27T23:14:04Z</time></trkpt>
<trkpt lat="25.408117" lon="100.469511">
<time>2015-09-27T23:14:05Z</time></trkpt>
<trkpt lat="25.408117" lon="100.469511">
<time>2015-09-27T23:14:06Z</time></trkpt>
<trkpt lat="25.408935" lon="100.468839">
<time>2015-09-27T23:14:07Z</time></trkpt>
<trkpt lat="25.409025" lon="100.468799">
<time>2015-09-27T23:14:08Z</time></trkpt>
<trkpt lat="25.409155" lon="100.468759">
<time>2015-09-27T23:14:09Z</time></trkpt>
<trkpt lat="25.409285" lon="100.468749">
<time>2015-09-27T23:14:10Z</time></trkpt>
<trkpt lat="25.409425" lon="100.468779">
<time>2015-09-27T23:14:11Z</time></trkpt>
<trkpt lat="25.409566" lon="100.468909">
<time>2015-09-27T23:14:12Z</time></trkpt>
<trkpt lat="25.409706" lon="100.468939">
<time>2015-09-27T23:14:13Z</time></trkpt>
<trkpt lat="25.409846" lon="100.468969">
<time>2015-09-27T23:14:14Z</time></trkpt>
<trkpt lat="25.409976" lon="100.468979">
<time>2015-09-27T23:14:15Z</time></trkpt>
<trkpt lat="25.410106" lon="100.468909">
<time>2015-09-27T23:14:16Z</time></trkpt>
<trkpt lat="25.410235" lon="100.468789">
<time>2015-09-27T23:14:17Z</time></trkpt>
<trkpt lat="25.410365" lon="100.468678">
<time>2015-09-27T23:14:18Z</time></trkpt>
<trkpt lat="25.410465" lon="100.468568">
<time>2015-09-27T23:14:19Z</time></trkpt>
<trkpt lat="25.410575" lon="100.468458">
<time>2015-09-27T23:14:20Z</time></trkpt>
<trkpt lat="25.410684" lon="100.468358">
<time>2015-09-27T23:14:21Z</time></trkpt>
<trkpt lat="25.410784" lon="100.468257">
<time>2015-09-27T23:14:22Z</time></trkpt>
<trkpt lat="25.410894" lon="100.468157">
<time>2015-09-27T23:14:23Z</time></trkpt>
<trkpt lat="25.411033" lon="100.468017">
<time>2015-09-27T23:14:24Z</time></trkpt>
<trkpt lat="25.411163" lon="100.467926">
<time>2015-09-27T23:14:25Z</time></trkpt>
<trkpt lat="25.411283" lon="100.467826">
<time>2015-09-27T23:14:26Z</time></trkpt>
<trkpt lat="25.411383" lon="100.467726">
<time>2015-09-27T23:14:27Z</time></trkpt>
<trkpt lat="25.411493" lon="100.467626">
<time>2015-09-27T23:14:28Z</time></trkpt>
<trkpt lat="25.411602" lon="100.467515">
<time>2015-09-27T23:14:29Z</time></trkpt>
<trkpt lat="25.411762" lon="100.467355">
<time>2015-09-27T23:14:30Z</time></trkpt>
<trkpt lat="25.411882" lon="100.467225">
<time>2015-09-27T23:14:31Z</time></trkpt>
<trkpt lat="25.412011" lon="100.467094">
<time>2015-09-27T23:14:32Z</time></trkpt>
<trkpt lat="25.412121" lon="100.466964">
<time>2015-09-27T23:14:33Z</time></trkpt>
<trkpt lat="25.412231" lon="100.466833">
<time>2015-09-27T23:14:34Z</time></trkpt>
<trkpt lat="25.41236" lon="100.466683">
<time>2015-09-27T23:14:35Z</time></trkpt>
<trkpt lat="25.41248" lon="100.466553">
<time>2015-09-27T23:14:36Z</time></trkpt>
<trkpt lat="25.4126" lon="100.466402">
<time>2015-09-27T23:14:37Z</time></trkpt>
<trkpt lat="25.412739" lon="100.466262">
<time>2015-09-27T23:14:38Z</time></trkpt>
<trkpt lat="25.412879" lon="100.466112">
<time>2015-09-27T23:14:39Z</time></trkpt>
<trkpt lat="25.413029" lon="100.465991">
<time>2015-09-27T23:14:40Z</time></trkpt>
<trkpt lat="25.413188" lon="100.465911">
<time>2015-09-27T23:14:41Z</time></trkpt>
<trkpt lat="25.413358" lon="100.465851">
<time>2015-09-27T23:14:42Z</time></trkpt>
<trkpt lat="25.413528" lon="100.465821">
<time>2015-09-27T23:14:43Z</time></trkpt>
<trkpt lat="25.413708" lon="100.465801">
<time>2015-09-27T23:14:44Z</time></trkpt>
<trkpt lat="25.413868" lon="100.465781">
<time>2015-09-27T23:14:45Z</time></trkpt>
<trkpt lat="25.414028" lon="100.465761">
<time>2015-09-27T23:14:46Z</time></trkpt>
<trkpt lat="25.414188" lon="100.465751">
<time>2015-09-27T23:14:47Z</time></trkpt>
<trkpt lat="25.414358" lon="100.465721">
<time>2015-09-27T23:14:48Z</time></trkpt>
<trkpt lat="25.414538" lon="100.46568">
<time>2015-09-27T23:14:49Z</time></trkpt>
<trkpt lat="25.414728" lon="100.46566">
<time>2015-09-27T23:14:50Z</time></trkpt>
<trkpt lat="25.414908" lon="100.46564">
<time>2015-09-27T23:14:51Z</time></trkpt>
<trkpt lat="25.415088" lon="100.46562">
<time>2015-09-27T23:14:52Z</time></trkpt>
<trkpt lat="25.415238" lon="100.4656">
<time>2015-09-27T23:14:53Z</time></trkpt>
<trkpt lat="25.415378" lon="100.46557">
<time>2015-09-27T23:14:54Z</time></trkpt>
<trkpt lat="25.415498" lon="100.46553">
<time>2015-09-27T23:14:55Z</time></trkpt>
<trkpt lat="25.415608" lon="100.46547">
<time>2015-09-27T23:14:56Z</time></trkpt>
<trkpt lat="25.415708" lon="100.46538">
<time>2015-09-27T23:14:57Z</time></trkpt>
<trkpt lat="25.415807" lon="100.465259">
<time>2015-09-27T23:14:58Z</time></trkpt>
<trkpt lat="25.415897" lon="100.465139">
<time>2015-09-27T23:14:59Z</time></trkpt>
<trkpt lat="25.415987" lon="100.465019">
<time>2015-09-27T23:15:00Z</time></trkpt>
<trkpt lat="25.416146" lon="100.464848">
<time>2015-09-27T23:15:01Z</time></trkpt>
<trkpt lat="25.416316" lon="100.464708">
<time>2015-09-27T23:15:02Z</time></trkpt>
<trkpt lat="25.416506" lon="100.464608">
<time>2015-09-27T23:15:03Z</time></trkpt>
<trkpt lat="25.416686" lon="100.464537">
<time>2015-09-27T23:15:04Z</time></trkpt>
<trkpt lat="25.416936" lon="100.464487">
<time>2015-09-27T23:15:05Z</time></trkpt>
<trkpt lat="25.417156" lon="100.464477">
<time>2015-09-27T23:15:06Z</time></trkpt>
<trkpt lat="25.417366" lon="100.464467">
<time>2015-09-27T23:15:07Z</time></trkpt>
<trkpt lat="25.417556" lon="100.464417">
<time>2015-09-27T23:15:08Z</time></trkpt>
<trkpt lat="25.417715" lon="100.464287">
<time>2015-09-27T23:15:09Z</time></trkpt>
<trkpt lat="25.417835" lon="100.464096">
<time>2015-09-27T23:15:10Z</time></trkpt>
<trkpt lat="25.417924" lon="100.463906">
<time>2015-09-27T23:15:11Z</time></trkpt>
<trkpt lat="25.418024" lon="100.463725">
<time>2015-09-27T23:15:12Z</time></trkpt>
<trkpt lat="25.418154" lon="100.463585">
<time>2015-09-27T23:15:13Z</time></trkpt>
<trkpt lat="25.418303" lon="100.463475">
<time>2015-09-27T23:15:14Z</time></trkpt>
<trkpt lat="25.418463" lon="100.463384">
<time>2015-09-27T23:15:15Z</time></trkpt>
<trkpt lat="25.418633" lon="100.463304">
<time>2015-09-27T23:15:16Z</time></trkpt>
<trkpt lat="25.418743" lon="100.463254">
<time>2015-09-27T23:15:17Z</time></trkpt>
<trkpt lat="25.418803" lon="100.463234">
<time>2015-09-27T23:15:18Z</time></trkpt>
<trkpt lat="25.418983" lon="100.463144">
<time>2015-09-27T23:15:19Z</time></trkpt>
<trkpt lat="25.419152" lon="100.463064">
<time>2015-09-27T23:15:20Z</time></trkpt>
<trkpt lat="25.419322" lon="100.462973">
<time>2015-09-27T23:15:21Z</time></trkpt>
<trkpt lat="25.419462" lon="100.462923">
<time>2015-09-27T23:15:22Z</time></trkpt>
<trkpt lat="25.419632" lon="100.462813">
<time>2015-09-27T23:15:23Z</time></trkpt>
<trkpt lat="25.419792" lon="100.462673">
<time>2015-09-27T23:15:24Z</time></trkpt>
<trkpt lat="25.419951" lon="100.462502">
<time>2015-09-27T23:15:25Z</time></trkpt>
<trkpt lat="25.420091" lon="100.462332">
<time>2015-09-27T23:15:26Z</time></trkpt>
<trkpt lat="25.42022" lon="100.462141">
<time>2015-09-27T23:15:27Z</time></trkpt>
<trkpt lat="25.42033" lon="100.461941">
<time>2015-09-27T23:15:28Z</time></trkpt>
<trkpt lat="25.420409" lon="100.46173">
<time>2015-09-27T23:15:29Z</time></trkpt>
<trkpt lat="25.420489" lon="100.46149">
<time>2015-09-27T23:15:30Z</time></trkpt>
<trkpt lat="25.420558" lon="100.461249">
<time>2015-09-27T23:15:31Z</time></trkpt>
<trkpt lat="25.420628" lon="100.460998">
<time>2015-09-27T23:15:32Z</time></trkpt>
<trkpt lat="25.420687" lon="100.460758">
<time>2015-09-27T23:15:33Z</time></trkpt>
<trkpt lat="25.420747" lon="100.460517">
<time>2015-09-27T23:15:34Z</time></trkpt>
<trkpt lat="25.420816" lon="100.460257">
<time>2015-09-27T23:15:35Z</time></trkpt>
<trkpt lat="25.420895" lon="100.460016">
<time>2015-09-27T23:15:36Z</time></trkpt>
<trkpt lat="25.420965" lon="100.459785">
<time>2015-09-27T23:15:37Z</time></trkpt>
<trkpt lat="25.421014" lon="100.459535">
<time>2015-09-27T23:15:38Z</time></trkpt>
<trkpt lat="25.421044" lon="100.459284">
<time>2015-09-27T23:15:39Z</time></trkpt>
<trkpt lat="25.421073" lon="100.459034">
<time>2015-09-27T23:15:40Z</time></trkpt>
<trkpt lat="25.421092" lon="100.458793">
<time>2015-09-27T23:15:41Z</time></trkpt>
<trkpt lat="25.421072" lon="100.458613">
<time>2015-09-27T23:15:42Z</time></trkpt>
<trkpt lat="25.421001" lon="100.458342">
<time>2015-09-27T23:15:43Z</time></trkpt>
<trkpt lat="25.420921" lon="100.458172">
<time>2015-09-27T23:15:44Z</time></trkpt>
<trkpt lat="25.42078" lon="100.457961">
<time>2015-09-27T23:15:45Z</time></trkpt>
<trkpt lat="25.42064" lon="100.457771">
<time>2015-09-27T23:15:46Z</time></trkpt>
<trkpt lat="25.42051" lon="100.45758">
<time>2015-09-27T23:15:47Z</time></trkpt>
<trkpt lat="25.420429" lon="100.45739">
<time>2015-09-27T23:15:48Z</time></trkpt>
<trkpt lat="25.420399" lon="100.457179">
<time>2015-09-27T23:15:49Z</time></trkpt>
<trkpt lat="25.420408" lon="100.456949">
<time>2015-09-27T23:15:50Z</time></trkpt>
<trkpt lat="25.420467" lon="100.456708">
<time>2015-09-27T23:15:51Z</time></trkpt>
<trkpt lat="25.420527" lon="100.456468">
<time>2015-09-27T23:15:52Z</time></trkpt>
<trkpt lat="25.420586" lon="100.456237">
<time>2015-09-27T23:15:53Z</time></trkpt>
<trkpt lat="25.420656" lon="100.456027">
<time>2015-09-27T23:15:54Z</time></trkpt>
<trkpt lat="25.420765" lon="100.455816">
<time>2015-09-27T23:15:55Z</time></trkpt>
<trkpt lat="25.420905" lon="100.455646">
<time>2015-09-27T23:15:56Z</time></trkpt>
<trkpt lat="25.421095" lon="100.455485">
<time>2015-09-27T23:15:57Z</time></trkpt>
<trkpt lat="25.421295" lon="100.455355">
<time>2015-09-27T23:15:58Z</time></trkpt>
<trkpt lat="25.421504" lon="100.455235">
<time>2015-09-27T23:15:59Z</time></trkpt>
<trkpt lat="25.421644" lon="100.455114">
<time>2015-09-27T23:16:00Z</time></trkpt>
<trkpt lat="25.421794" lon="100.454994">
<time>2015-09-27T23:16:01Z</time></trkpt>
<trkpt lat="25.421954" lon="100.454864">
<time>2015-09-27T23:16:02Z</time></trkpt>
<trkpt lat="25.422073" lon="100.454744">
<time>2015-09-27T23:16:03Z</time></trkpt>
<trkpt lat="25.422183" lon="100.454623">
<time>2015-09-27T23:16:04Z</time></trkpt>
<trkpt lat="25.422283" lon="100.454503">
<time>2015-09-27T23:16:05Z</time></trkpt>
<trkpt lat="25.422393" lon="100.454383">
<time>2015-09-27T23:16:06Z</time></trkpt>
<trkpt lat="25.422492" lon="100.454273">
<time>2015-09-27T23:16:07Z</time></trkpt>
<trkpt lat="25.422552" lon="100.454172">
<time>2015-09-27T23:16:08Z</time></trkpt>
<trkpt lat="25.422642" lon="100.454042">
<time>2015-09-27T23:16:09Z</time></trkpt>
<trkpt lat="25.422712" lon="100.453932">
<time>2015-09-27T23:16:10Z</time></trkpt>
<trkpt lat="25.422821" lon="100.453832">
<time>2015-09-27T23:16:11Z</time></trkpt>
<trkpt lat="25.422921" lon="100.453721">
<time>2015-09-27T23:16:12Z</time></trkpt>
<trkpt lat="25.423021" lon="100.453591">
<time>2015-09-27T23:16:13Z</time></trkpt>
<trkpt lat="25.423121" lon="100.453461">
<time>2015-09-27T23:16:14Z</time></trkpt>
<trkpt lat="25.42325" lon="100.45333">
<time>2015-09-27T23:16:15Z</time></trkpt>
<trkpt lat="25.42336" lon="100.45319">
<time>2015-09-27T23:16:16Z</time></trkpt>
<trkpt lat="25.42346" lon="100.45305">
<time>2015-09-27T23:16:17Z</time></trkpt>
<trkpt lat="25.42356" lon="100.452889">
<time>2015-09-27T23:16:18Z</time></trkpt>
<trkpt lat="25.423669" lon="100.452739">
<time>2015-09-27T23:16:19Z</time></trkpt>
<trkpt lat="25.423789" lon="100.452589">
<time>2015-09-27T23:16:20Z</time></trkpt>
<trkpt lat="25.423899" lon="100.452428">
<time>2015-09-27T23:16:21Z</time></trkpt>
<trkpt lat="25.424028" lon="100.452258">
<time>2015-09-27T23:16:22Z</time></trkpt>
<trkpt lat="25.424148" lon="100.452088">
<time>2015-09-27T23:16:23Z</time></trkpt>
<trkpt lat="25.424258" lon="100.451967">
<time>2015-09-27T23:16:24Z</time></trkpt>
<trkpt lat="25.424377" lon="100.451827">
<time>2015-09-27T23:16:25Z</time></trkpt>
<trkpt lat="25.424487" lon="100.451677">
<time>2015-09-27T23:16:26Z</time></trkpt>
<trkpt lat="25.424557" lon="100.451486">
<time>2015-09-27T23:16:27Z</time></trkpt>
<trkpt lat="25.424656" lon="100.451276">
<time>2015-09-27T23:16:28Z</time></trkpt>
<trkpt lat="25.424796" lon="100.451066">
<time>2015-09-27T23:16:29Z</time></trkpt>
<trkpt lat="25.424966" lon="100.450875">
<time>2015-09-27T23:16:30Z</time></trkpt>
<trkpt lat="25.425145" lon="100.450695">
<time>2015-09-27T23:16:31Z</time></trkpt>
<trkpt lat="25.425285" lon="100.450504">
<time>2015-09-27T23:16:32Z</time></trkpt>
<trkpt lat="25.425434" lon="100.450324">
<time>2015-09-27T23:16:33Z</time></trkpt>
<trkpt lat="25.425534" lon="100.450164">
<time>2015-09-27T23:16:34Z</time></trkpt>
<trkpt lat="25.425634" lon="100.449973">
<time>2015-09-27T23:16:35Z</time></trkpt>
<trkpt lat="25.425713" lon="100.449793">
<time>2015-09-27T23:16:36Z</time></trkpt>
<trkpt lat="25.425783" lon="100.449592">
<time>2015-09-27T23:16:37Z</time></trkpt>
<trkpt lat="25.425883" lon="100.449362">
<time>2015-09-27T23:16:38Z</time></trkpt>
<trkpt lat="25.425972" lon="100.449131">
<time>2015-09-27T23:16:39Z</time></trkpt>
<trkpt lat="25.426072" lon="100.448921">
<time>2015-09-27T23:16:40Z</time></trkpt>
<trkpt lat="25.426171" lon="100.448711">
<time>2015-09-27T23:16:41Z</time></trkpt>
<trkpt lat="25.426261" lon="100.44853">
<time>2015-09-27T23:16:42Z</time></trkpt>
<trkpt lat="25.426361" lon="100.44835">
<time>2015-09-27T23:16:43Z</time></trkpt>
<trkpt lat="25.426411" lon="100.44828">
<time>2015-09-27T23:16:44Z</time></trkpt>
<trkpt lat="25.42647" lon="100.44818">
<time>2015-09-27T23:16:45Z</time></trkpt>
<trkpt lat="25.42658" lon="100.448039">
<time>2015-09-27T23:16:46Z</time></trkpt>
<trkpt lat="25.4266" lon="100.448019">
<time>2015-09-27T23:16:47Z</time></trkpt>
<trkpt lat="25.42673" lon="100.447859">
<time>2015-09-27T23:16:48Z</time></trkpt>
<trkpt lat="25.426879" lon="100.447699">
<time>2015-09-27T23:16:49Z</time></trkpt>
<trkpt lat="25.427019" lon="100.447538">
<time>2015-09-27T23:16:50Z</time></trkpt>
<trkpt lat="25.427159" lon="100.447368">
<time>2015-09-27T23:16:51Z</time></trkpt>
<trkpt lat="25.427289" lon="100.447198">
<time>2015-09-27T23:16:52Z</time></trkpt>
<trkpt lat="25.427428" lon="100.447047">
<time>2015-09-27T23:16:53Z</time></trkpt>
<trkpt lat="25.427558" lon="100.446897">
<time>2015-09-27T23:16:54Z</time></trkpt>
<trkpt lat="25.427698" lon="100.446737">
<time>2015-09-27T23:16:55Z</time></trkpt>
<trkpt lat="25.427817" lon="100.446606">
<time>2015-09-27T23:16:56Z</time></trkpt>
<trkpt lat="25.427927" lon="100.446486">
<time>2015-09-27T23:16:57Z</time></trkpt>
<trkpt lat="25.428007" lon="100.446386">
<time>2015-09-27T23:16:58Z</time></trkpt>
<trkpt lat="25.428107" lon="100.446266">
<time>2015-09-27T23:16:59Z</time></trkpt>
<trkpt lat="25.428167" lon="100.446176">
<time>2015-09-27T23:17:00Z</time></trkpt>
<trkpt lat="25.428227" lon="100.446095">
<time>2015-09-27T23:17:01Z</time></trkpt>
<trkpt lat="25.428296" lon="100.446025">
<time>2015-09-27T23:17:02Z</time></trkpt>
<trkpt lat="25.428386" lon="100.445945">
<time>2015-09-27T23:17:03Z</time></trkpt>
<trkpt lat="25.428466" lon="100.445845">
<time>2015-09-27T23:17:04Z</time></trkpt>
<trkpt lat="25.428546" lon="100.445735">
<time>2015-09-27T23:17:05Z</time></trkpt>
<trkpt lat="25.428646" lon="100.445604">
<time>2015-09-27T23:17:06Z</time></trkpt>
<trkpt lat="25.428785" lon="100.445454">
<time>2015-09-27T23:17:07Z</time></trkpt>
<trkpt lat="25.428865" lon="100.445364">
<time>2015-09-27T23:17:08Z</time></trkpt>
<trkpt lat="25.428955" lon="100.445264">
<time>2015-09-27T23:17:09Z</time></trkpt>
<trkpt lat="25.429045" lon="100.445164">
<time>2015-09-27T23:17:10Z</time></trkpt>
<trkpt lat="25.429145" lon="100.445063">
<time>2015-09-27T23:17:11Z</time></trkpt>
<trkpt lat="25.429284" lon="100.444883">
<time>2015-09-27T23:17:12Z</time></trkpt>
<trkpt lat="25.429384" lon="100.444773">
<time>2015-09-27T23:17:13Z</time></trkpt>
<trkpt lat="25.429454" lon="100.444693">
<time>2015-09-27T23:17:14Z</time></trkpt>
<trkpt lat="25.429494" lon="100.444663">
<time>2015-09-27T23:17:15Z</time></trkpt>
<trkpt lat="25.429594" lon="100.444552">
<time>2015-09-27T23:17:16Z</time></trkpt>
<trkpt lat="25.429704" lon="100.444442">
<time>2015-09-27T23:17:17Z</time></trkpt>
<trkpt lat="25.429814" lon="100.444342">
<time>2015-09-27T23:17:18Z</time></trkpt>
<trkpt lat="25.429933" lon="100.444252">
<time>2015-09-27T23:17:19Z</time></trkpt>
<trkpt lat="25.430063" lon="100.444172">
<time>2015-09-27T23:17:20Z</time></trkpt>
<trkpt lat="25.430193" lon="100.444092">
<time>2015-09-27T23:17:21Z</time></trkpt>
<trkpt lat="25.430313" lon="100.443991">
<time>2015-09-27T23:17:22Z</time></trkpt>
<trkpt lat="25.430443" lon="100.443901">
<time>2015-09-27T23:17:23Z</time></trkpt>
<trkpt lat="25.430563" lon="100.443811">
<time>2015-09-27T23:17:24Z</time></trkpt>
<trkpt lat="25.430693" lon="100.443731">
<time>2015-09-27T23:17:25Z</time></trkpt>
<trkpt lat="25.430823" lon="100.443651">
<time>2015-09-27T23:17:26Z</time></trkpt>
<trkpt lat="25.430952" lon="100.443571">
<time>2015-09-27T23:17:27Z</time></trkpt>
<trkpt lat="25.431092" lon="100.44349">
<time>2015-09-27T23:17:28Z</time></trkpt>
<trkpt lat="25.431232" lon="100.44341">
<time>2015-09-27T23:17:29Z</time></trkpt>
<trkpt lat="25.431362" lon="100.44334">
<time>2015-09-27T23:17:30Z</time></trkpt>
<trkpt lat="25.431532" lon="100.4432">
<time>2015-09-27T23:17:31Z</time></trkpt>
<trkpt lat="25.431682" lon="100.4431">
<time>2015-09-27T23:17:32Z</time></trkpt>
<trkpt lat="25.431832" lon="100.442999">
<time>2015-09-27T23:17:33Z</time></trkpt>
<trkpt lat="25.431971" lon="100.442899">
<time>2015-09-27T23:17:34Z</time></trkpt>
<trkpt lat="25.432101" lon="100.442809">
<time>2015-09-27T23:17:35Z</time></trkpt>
<trkpt lat="25.432231" lon="100.442729">
<time>2015-09-27T23:17:36Z</time></trkpt>
<trkpt lat="25.432351" lon="100.442639">
<time>2015-09-27T23:17:37Z</time></trkpt>
<trkpt lat="25.432471" lon="100.442549">
<time>2015-09-27T23:17:38Z</time></trkpt>
<trkpt lat="25.432541" lon="100.442499">
<time>2015-09-27T23:17:39Z</time></trkpt>
<trkpt lat="25.432571" lon="100.442469">
<time>2015-09-27T23:17:40Z</time></trkpt>
<trkpt lat="25.432671" lon="100.442388">
<time>2015-09-27T23:17:41Z</time></trkpt>
<trkpt lat="25.432681" lon="100.442388">
<time>2015-09-27T23:17:42Z</time></trkpt>
<trkpt lat="25.432771" lon="100.442318">
<time>2015-09-27T23:17:43Z</time></trkpt>
<trkpt lat="25.43288" lon="100.442228">
<time>2015-09-27T23:17:44Z</time></trkpt>
<trkpt lat="25.43299" lon="100.442108">
<time>2015-09-27T23:17:45Z</time></trkpt>
<trkpt lat="25.4331" lon="100.442008">
<time>2015-09-27T23:17:46Z</time></trkpt>
<trkpt lat="25.43315" lon="100.441907">
<time>2015-09-27T23:17:47Z</time></trkpt>
<trkpt lat="25.43319" lon="100.441817">
<time>2015-09-27T23:17:48Z</time></trkpt>
<trkpt lat="25.43326" lon="100.441687">
<time>2015-09-27T23:17:49Z</time></trkpt>
<trkpt lat="25.433299" lon="100.441557">
<time>2015-09-27T23:17:50Z</time></trkpt>
<trkpt lat="25.433309" lon="100.441457">
<time>2015-09-27T23:17:51Z</time></trkpt>
<trkpt lat="25.433329" lon="100.441326">
<time>2015-09-27T23:17:52Z</time></trkpt>
<trkpt lat="25.433329" lon="100.441186">
<time>2015-09-27T23:17:53Z</time></trkpt>
<trkpt lat="25.433378" lon="100.441016">
<time>2015-09-27T23:17:54Z</time></trkpt>
<trkpt lat="25.433408" lon="100.440876">
<time>2015-09-27T23:17:55Z</time></trkpt>
<trkpt lat="25.433438" lon="100.440715">
<time>2015-09-27T23:17:56Z</time></trkpt>
<trkpt lat="25.433498" lon="100.440555">
<time>2015-09-27T23:17:57Z</time></trkpt>
<trkpt lat="25.433537" lon="100.440385">
<time>2015-09-27T23:17:58Z</time></trkpt>
<trkpt lat="25.433607" lon="100.440215">
<time>2015-09-27T23:17:59Z</time></trkpt>
<trkpt lat="25.433697" lon="100.440034">
<time>2015-09-27T23:18:00Z</time></trkpt>
<trkpt lat="25.433776" lon="100.439864">
<time>2015-09-27T23:18:01Z</time></trkpt>
<trkpt lat="25.433866" lon="100.439694">
<time>2015-09-27T23:18:02Z</time></trkpt>
<trkpt lat="25.433956" lon="100.439513">
<time>2015-09-27T23:18:03Z</time></trkpt>
<trkpt lat="25.434036" lon="100.439373">
<time>2015-09-27T23:18:04Z</time></trkpt>
<trkpt lat="25.434056" lon="100.439333">
<time>2015-09-27T23:18:05Z</time></trkpt>
<trkpt lat="25.434155" lon="100.439153">
<time>2015-09-27T23:18:06Z</time></trkpt>
<trkpt lat="25.434245" lon="100.438982">
<time>2015-09-27T23:18:07Z</time></trkpt>
<trkpt lat="25.434345" lon="100.438802">
<time>2015-09-27T23:18:08Z</time></trkpt>
<trkpt lat="25.434405" lon="100.438672">
<time>2015-09-27T23:18:09Z</time></trkpt>
<trkpt lat="25.434504" lon="100.438522">
<time>2015-09-27T23:18:10Z</time></trkpt>
<trkpt lat="25.434614" lon="100.438331">
<time>2015-09-27T23:18:11Z</time></trkpt>
<trkpt lat="25.434714" lon="100.438141">
<time>2015-09-27T23:18:12Z</time></trkpt>
<trkpt lat="25.434834" lon="100.437961">
<time>2015-09-27T23:18:13Z</time></trkpt>
<trkpt lat="25.434953" lon="100.437781">
<time>2015-09-27T23:18:14Z</time></trkpt>
<trkpt lat="25.435073" lon="100.43759">
<time>2015-09-27T23:18:15Z</time></trkpt>
<trkpt lat="25.435183" lon="100.4374">
<time>2015-09-27T23:18:16Z</time></trkpt>
<trkpt lat="25.435282" lon="100.43723">
<time>2015-09-27T23:18:17Z</time></trkpt>
<trkpt lat="25.435382" lon="100.437069">
<time>2015-09-27T23:18:18Z</time></trkpt>
<trkpt lat="25.435482" lon="100.436919">
<time>2015-09-27T23:18:19Z</time></trkpt>
<trkpt lat="25.435642" lon="100.436759">
<time>2015-09-27T23:18:20Z</time></trkpt>
<trkpt lat="25.435812" lon="100.436659">
<time>2015-09-27T23:18:21Z</time></trkpt>
<trkpt lat="25.436022" lon="100.436549">
<time>2015-09-27T23:18:22Z</time></trkpt>
<trkpt lat="25.436182" lon="100.436478">
<time>2015-09-27T23:18:23Z</time></trkpt>
<trkpt lat="25.436361" lon="100.436418">
<time>2015-09-27T23:18:24Z</time></trkpt>
<trkpt lat="25.436541" lon="100.436378">
<time>2015-09-27T23:18:25Z</time></trkpt>
<trkpt lat="25.436691" lon="100.436338">
<time>2015-09-27T23:18:26Z</time></trkpt>
<trkpt lat="25.436871" lon="100.436318">
<time>2015-09-27T23:18:27Z</time></trkpt>
<trkpt lat="25.437061" lon="100.436308">
<time>2015-09-27T23:18:28Z</time></trkpt>
<trkpt lat="25.437232" lon="100.436318">
<time>2015-09-27T23:18:29Z</time></trkpt>
<trkpt lat="25.437242" lon="100.436318">
<time>2015-09-27T23:18:30Z</time></trkpt>
<trkpt lat="25.437422" lon="100.436338">
<time>2015-09-27T23:18:31Z</time></trkpt>
<trkpt lat="25.437612" lon="100.436378">
<time>2015-09-27T23:18:32Z</time></trkpt>
<trkpt lat="25.437792" lon="100.436438">
<time>2015-09-27T23:18:33Z</time></trkpt>
<trkpt lat="25.437922" lon="100.436468">
<time>2015-09-27T23:18:34Z</time></trkpt>
<trkpt lat="25.438042" lon="100.436498">
<time>2015-09-27T23:18:35Z</time></trkpt>
<trkpt lat="25.438152" lon="100.436518">
<time>2015-09-27T23:18:36Z</time></trkpt>
<trkpt lat="25.438282" lon="100.436549">
<time>2015-09-27T23:18:37Z</time></trkpt>
<trkpt lat="25.438422" lon="100.436559">
<time>2015-09-27T23:18:38Z</time></trkpt>
<trkpt lat="25.438542" lon="100.436569">
<time>2015-09-27T23:18:39Z</time></trkpt>
<trkpt lat="25.438672" lon="100.436589">
<time>2015-09-27T23:18:40Z</time></trkpt>
<trkpt lat="25.438802" lon="100.436619">
<time>2015-09-27T23:18:41Z</time></trkpt>
<trkpt lat="25.438972" lon="100.436639">
<time>2015-09-27T23:18:42Z</time></trkpt>
<trkpt lat="25.439093" lon="100.436689">
<time>2015-09-27T23:18:43Z</time></trkpt>
<trkpt lat="25.439233" lon="100.436719">
<time>2015-09-27T23:18:44Z</time></trkpt>
<trkpt lat="25.439333" lon="100.436739">
<time>2015-09-27T23:18:45Z</time></trkpt>
<trkpt lat="25.439433" lon="100.436759">
<time>2015-09-27T23:18:46Z</time></trkpt>
<trkpt lat="25.439543" lon="100.436789">
<time>2015-09-27T23:18:47Z</time></trkpt>
<trkpt lat="25.439713" lon="100.436809">
<time>2015-09-27T23:18:48Z</time></trkpt>
<trkpt lat="25.439863" lon="100.436839">
<time>2015-09-27T23:18:49Z</time></trkpt>
<trkpt lat="25.440013" lon="100.436869">
<time>2015-09-27T23:18:50Z</time></trkpt>
<trkpt lat="25.440173" lon="100.436899">
<time>2015-09-27T23:18:51Z</time></trkpt>
<trkpt lat="25.440343" lon="100.436929">
<time>2015-09-27T23:18:52Z</time></trkpt>
<trkpt lat="25.440533" lon="100.436959">
<time>2015-09-27T23:18:53Z</time></trkpt>
<trkpt lat="25.440713" lon="100.436989">
<time>2015-09-27T23:18:54Z</time></trkpt>
<trkpt lat="25.440894" lon="100.437029">
<time>2015-09-27T23:18:55Z</time></trkpt>
<trkpt lat="25.441074" lon="100.437059">
<time>2015-09-27T23:18:56Z</time></trkpt>
<trkpt lat="25.441264" lon="100.437099">
<time>2015-09-27T23:18:57Z</time></trkpt>
<trkpt lat="25.441444" lon="100.437129">
<time>2015-09-27T23:18:58Z</time></trkpt>
<trkpt lat="25.441624" lon="100.437159">
<time>2015-09-27T23:18:59Z</time></trkpt>
<trkpt lat="25.441784" lon="100.437189">
<time>2015-09-27T23:19:00Z</time></trkpt>
<trkpt lat="25.441954" lon="100.437229">
<time>2015-09-27T23:19:01Z</time></trkpt>
<trkpt lat="25.442134" lon="100.43726">
<time>2015-09-27T23:19:02Z</time></trkpt>
<trkpt lat="25.442314" lon="100.43729">
<time>2015-09-27T23:19:03Z</time></trkpt>
<trkpt lat="25.442504" lon="100.43733">
<time>2015-09-27T23:19:04Z</time></trkpt>
<trkpt lat="25.442534" lon="100.43733">
<time>2015-09-27T23:19:05Z</time></trkpt>
<trkpt lat="25.442694" lon="100.43736">
<time>2015-09-27T23:19:06Z</time></trkpt>
<trkpt lat="25.442875" lon="100.4374">
<time>2015-09-27T23:19:07Z</time></trkpt>
<trkpt lat="25.443055" lon="100.43743">
<time>2015-09-27T23:19:08Z</time></trkpt>
<trkpt lat="25.443245" lon="100.43749">
<time>2015-09-27T23:19:09Z</time></trkpt>
<trkpt lat="25.443435" lon="100.43752">
<time>2015-09-27T23:19:10Z</time></trkpt>
<trkpt lat="25.443635" lon="100.43757">
<time>2015-09-27T23:19:11Z</time></trkpt>
<trkpt lat="25.443835" lon="100.4376">
<time>2015-09-27T23:19:12Z</time></trkpt>
<trkpt lat="25.444035" lon="100.43763">
<time>2015-09-27T23:19:13Z</time></trkpt>
<trkpt lat="25.444245" lon="100.43765">
<time>2015-09-27T23:19:14Z</time></trkpt>
<trkpt lat="25.444435" lon="100.43766">
<time>2015-09-27T23:19:15Z</time></trkpt>
<trkpt lat="25.444625" lon="100.43766">
<time>2015-09-27T23:19:16Z</time></trkpt>
<trkpt lat="25.444806" lon="100.43768">
<time>2015-09-27T23:19:17Z</time></trkpt>
<trkpt lat="25.444986" lon="100.43767">
<time>2015-09-27T23:19:18Z</time></trkpt>
<trkpt lat="25.445176" lon="100.43765">
<time>2015-09-27T23:19:19Z</time></trkpt>
<trkpt lat="25.445376" lon="100.43764">
<time>2015-09-27T23:19:20Z</time></trkpt>
<trkpt lat="25.445576" lon="100.43761">
<time>2015-09-27T23:19:21Z</time></trkpt>
<trkpt lat="25.445776" lon="100.43758">
<time>2015-09-27T23:19:22Z</time></trkpt>
<trkpt lat="25.445976" lon="100.43753">
<time>2015-09-27T23:19:23Z</time></trkpt>
<trkpt lat="25.446176" lon="100.43748">
<time>2015-09-27T23:19:24Z</time></trkpt>
<trkpt lat="25.446385" lon="100.43741">
<time>2015-09-27T23:19:25Z</time></trkpt>
<trkpt lat="25.446575" lon="100.43734">
<time>2015-09-27T23:19:26Z</time></trkpt>
<trkpt lat="25.446785" lon="100.437269">
<time>2015-09-27T23:19:27Z</time></trkpt>
<trkpt lat="25.446985" lon="100.437199">
<time>2015-09-27T23:19:28Z</time></trkpt>
<trkpt lat="25.447205" lon="100.437109">
<time>2015-09-27T23:19:29Z</time></trkpt>
<trkpt lat="25.447355" lon="100.437069">
<time>2015-09-27T23:19:30Z</time></trkpt>
<trkpt lat="25.447555" lon="100.436989">
<time>2015-09-27T23:19:31Z</time></trkpt>
<trkpt lat="25.447765" lon="100.436909">
<time>2015-09-27T23:19:32Z</time></trkpt>
<trkpt lat="25.447955" lon="100.436809">
<time>2015-09-27T23:19:33Z</time></trkpt>
<trkpt lat="25.448115" lon="100.436709">
<time>2015-09-27T23:19:34Z</time></trkpt>
<trkpt lat="25.448255" lon="100.436618">
<time>2015-09-27T23:19:35Z</time></trkpt>
<trkpt lat="25.448395" lon="100.436538">
<time>2015-09-27T23:19:36Z</time></trkpt>
<trkpt lat="25.448524" lon="100.436468">
<time>2015-09-27T23:19:37Z</time></trkpt>
<trkpt lat="25.448644" lon="100.436398">
<time>2015-09-27T23:19:38Z</time></trkpt>
<trkpt lat="25.448774" lon="100.436328">
<time>2015-09-27T23:19:39Z</time></trkpt>
<trkpt lat="25.448894" lon="100.436268">
<time>2015-09-27T23:19:40Z</time></trkpt>
<trkpt lat="25.449004" lon="100.436208">
<time>2015-09-27T23:19:41Z</time></trkpt>
<trkpt lat="25.449114" lon="100.436148">
<time>2015-09-27T23:19:42Z</time></trkpt>
<trkpt lat="25.449234" lon="100.436088">
<time>2015-09-27T23:19:43Z</time></trkpt>
<trkpt lat="25.449344" lon="100.436017">
<time>2015-09-27T23:19:44Z</time></trkpt>
<trkpt lat="25.449474" lon="100.435927">
<time>2015-09-27T23:19:45Z</time></trkpt>
<trkpt lat="25.449624" lon="100.435827">
<time>2015-09-27T23:19:46Z</time></trkpt>
<trkpt lat="25.449794" lon="100.435727">
<time>2015-09-27T23:19:47Z</time></trkpt>
<trkpt lat="25.449974" lon="100.435657">
<time>2015-09-27T23:19:48Z</time></trkpt>
<trkpt lat="25.450144" lon="100.435587">
<time>2015-09-27T23:19:49Z</time></trkpt>
<trkpt lat="25.450343" lon="100.435507">
<time>2015-09-27T23:19:50Z</time></trkpt>
<trkpt lat="25.450533" lon="100.435407">
<time>2015-09-27T23:19:51Z</time></trkpt>
<trkpt lat="25.450703" lon="100.435326">
<time>2015-09-27T23:19:52Z</time></trkpt>
<trkpt lat="25.450873" lon="100.435236">
<time>2015-09-27T23:19:53Z</time></trkpt>
<trkpt lat="25.451043" lon="100.435156">
<time>2015-09-27T23:19:54Z</time></trkpt>
<trkpt lat="25.451203" lon="100.435066">
<time>2015-09-27T23:19:55Z</time></trkpt>
<trkpt lat="25.451343" lon="100.434976">
<time>2015-09-27T23:19:56Z</time></trkpt>
<trkpt lat="25.451493" lon="100.434886">
<time>2015-09-27T23:19:57Z</time></trkpt>
<trkpt lat="25.451643" lon="100.434776">
<time>2015-09-27T23:19:58Z</time></trkpt>
<trkpt lat="25.451793" lon="100.434635">
<time>2015-09-27T23:19:59Z</time></trkpt>
<trkpt lat="25.451922" lon="100.434485">
<time>2015-09-27T23:20:00Z</time></trkpt>
<trkpt lat="25.452022" lon="100.434315">
<time>2015-09-27T23:20:01Z</time></trkpt>
<trkpt lat="25.452082" lon="100.434165">
<time>2015-09-27T23:20:02Z</time></trkpt>
<trkpt lat="25.452122" lon="100.433944">
<time>2015-09-27T23:20:03Z</time></trkpt>
<trkpt lat="25.452121" lon="100.433714">
<time>2015-09-27T23:20:04Z</time></trkpt>
<trkpt lat="25.452091" lon="100.433484">
<time>2015-09-27T23:20:05Z</time></trkpt>
<trkpt lat="25.452071" lon="100.433253">
<time>2015-09-27T23:20:06Z</time></trkpt>
<trkpt lat="25.45206" lon="100.433023">
<time>2015-09-27T23:20:07Z</time></trkpt>
<trkpt lat="25.45205" lon="100.432793">
<time>2015-09-27T23:20:08Z</time></trkpt>
<trkpt lat="25.45205" lon="100.432572">
<time>2015-09-27T23:20:09Z</time></trkpt>
<trkpt lat="25.452049" lon="100.432362">
<time>2015-09-27T23:20:10Z</time></trkpt>
<trkpt lat="25.452059" lon="100.432132">
<time>2015-09-27T23:20:11Z</time></trkpt>
<trkpt lat="25.452049" lon="100.431902">
<time>2015-09-27T23:20:12Z</time></trkpt>
<trkpt lat="25.452058" lon="100.431671">
<time>2015-09-27T23:20:13Z</time></trkpt>
<trkpt lat="25.452038" lon="100.431461">
<time>2015-09-27T23:20:14Z</time></trkpt>
<trkpt lat="25.452028" lon="100.431311">
<time>2015-09-27T23:20:15Z</time></trkpt>
<trkpt lat="25.451978" lon="100.431111">
<time>2015-09-27T23:20:16Z</time></trkpt>
<trkpt lat="25.451907" lon="100.43092">
<time>2015-09-27T23:20:17Z</time></trkpt>
<trkpt lat="25.451847" lon="100.43072">
<time>2015-09-27T23:20:18Z</time></trkpt>
<trkpt lat="25.451807" lon="100.43053">
<time>2015-09-27T23:20:19Z</time></trkpt>
<trkpt lat="25.451786" lon="100.43032">
<time>2015-09-27T23:20:20Z</time></trkpt>
<trkpt lat="25.451786" lon="100.430219">
<time>2015-09-27T23:20:21Z</time></trkpt>
<trkpt lat="25.451786" lon="100.430099">
<time>2015-09-27T23:20:22Z</time></trkpt>
<trkpt lat="25.451836" lon="100.429919">
<time>2015-09-27T23:20:23Z</time></trkpt>
<trkpt lat="25.451926" lon="100.429759">
<time>2015-09-27T23:20:24Z</time></trkpt>
<trkpt lat="25.452046" lon="100.429609">
<time>2015-09-27T23:20:25Z</time></trkpt>
<trkpt lat="25.452186" lon="100.429478">
<time>2015-09-27T23:20:26Z</time></trkpt>
<trkpt lat="25.452335" lon="100.429358">
<time>2015-09-27T23:20:27Z</time></trkpt>
<trkpt lat="25.452495" lon="100.429238">
<time>2015-09-27T23:20:28Z</time></trkpt>
<trkpt lat="25.452675" lon="100.429128">
<time>2015-09-27T23:20:29Z</time></trkpt>
<trkpt lat="25.452865" lon="100.429018">
<time>2015-09-27T23:20:30Z</time></trkpt>
<trkpt lat="25.453055" lon="100.428908">
<time>2015-09-27T23:20:31Z</time></trkpt>
<trkpt lat="25.453205" lon="100.428808">
<time>2015-09-27T23:20:32Z</time></trkpt>
<trkpt lat="25.453355" lon="100.428718">
<time>2015-09-27T23:20:33Z</time></trkpt>
<trkpt lat="25.453505" lon="100.428637">
<time>2015-09-27T23:20:34Z</time></trkpt>
<trkpt lat="25.453635" lon="100.428577">
<time>2015-09-27T23:20:35Z</time></trkpt>
<trkpt lat="25.453765" lon="100.428517">
<time>2015-09-27T23:20:36Z</time></trkpt>
<trkpt lat="25.453905" lon="100.428457">
<time>2015-09-27T23:20:37Z</time></trkpt>
<trkpt lat="25.454055" lon="100.428357">
<time>2015-09-27T23:20:38Z</time></trkpt>
<trkpt lat="25.454215" lon="100.428267">
<time>2015-09-27T23:20:39Z</time></trkpt>
<trkpt lat="25.454374" lon="100.428177">
<time>2015-09-27T23:20:40Z</time></trkpt>
<trkpt lat="25.454544" lon="100.428057">
<time>2015-09-27T23:20:41Z</time></trkpt>
<trkpt lat="25.454704" lon="100.427947">
<time>2015-09-27T23:20:42Z</time></trkpt>
<trkpt lat="25.454874" lon="100.427816">
<time>2015-09-27T23:20:43Z</time></trkpt>
<trkpt lat="25.455034" lon="100.427706">
<time>2015-09-27T23:20:44Z</time></trkpt>
<trkpt lat="25.455224" lon="100.427596">
<time>2015-09-27T23:20:45Z</time></trkpt>
<trkpt lat="25.455414" lon="100.427496">
<time>2015-09-27T23:20:46Z</time></trkpt>
<trkpt lat="25.455604" lon="100.427386">
<time>2015-09-27T23:20:47Z</time></trkpt>
<trkpt lat="25.455764" lon="100.427296">
<time>2015-09-27T23:20:48Z</time></trkpt>
<trkpt lat="25.455794" lon="100.427276">
<time>2015-09-27T23:20:49Z</time></trkpt>
<trkpt lat="25.455994" lon="100.427176">
<time>2015-09-27T23:20:50Z</time></trkpt>
<trkpt lat="25.456184" lon="100.427046">
<time>2015-09-27T23:20:51Z</time></trkpt>
<trkpt lat="25.456393" lon="100.426925">
<time>2015-09-27T23:20:52Z</time></trkpt>
<trkpt lat="25.456613" lon="100.426785">
<time>2015-09-27T23:20:53Z</time></trkpt>
<trkpt lat="25.456823" lon="100.426665">
<time>2015-09-27T23:20:54Z</time></trkpt>
<trkpt lat="25.457023" lon="100.426545">
<time>2015-09-27T23:20:55Z</time></trkpt>
<trkpt lat="25.457203" lon="100.426455">
<time>2015-09-27T23:20:56Z</time></trkpt>
<trkpt lat="25.457393" lon="100.426335">
<time>2015-09-27T23:20:57Z</time></trkpt>
<trkpt lat="25.457543" lon="100.426235">
<time>2015-09-27T23:20:58Z</time></trkpt>
<trkpt lat="25.457703" lon="100.426165">
<time>2015-09-27T23:20:59Z</time></trkpt>
<trkpt lat="25.457873" lon="100.426085">
<time>2015-09-27T23:21:00Z</time></trkpt>
<trkpt lat="25.458043" lon="100.426014">
<time>2015-09-27T23:21:01Z</time></trkpt>
<trkpt lat="25.458203" lon="100.425974">
<time>2015-09-27T23:21:02Z</time></trkpt>
<trkpt lat="25.458393" lon="100.425914">
<time>2015-09-27T23:21:03Z</time></trkpt>
<trkpt lat="25.458593" lon="100.425844">
<time>2015-09-27T23:21:04Z</time></trkpt>
<trkpt lat="25.458753" lon="100.425784">
<time>2015-09-27T23:21:05Z</time></trkpt>
<trkpt lat="25.458883" lon="100.425734">
<time>2015-09-27T23:21:06Z</time></trkpt>
<trkpt lat="25.458983" lon="100.425704">
<time>2015-09-27T23:21:07Z</time></trkpt>
<trkpt lat="25.459073" lon="100.425664">
<time>2015-09-27T23:21:08Z</time></trkpt>
<trkpt lat="25.459193" lon="100.425634">
<time>2015-09-27T23:21:09Z</time></trkpt>
<trkpt lat="25.459343" lon="100.425584">
<time>2015-09-27T23:21:10Z</time></trkpt>
<trkpt lat="25.459503" lon="100.425524">
<time>2015-09-27T23:21:11Z</time></trkpt>
<trkpt lat="25.459663" lon="100.425454">
<time>2015-09-27T23:21:12Z</time></trkpt>
<trkpt lat="25.459823" lon="100.425394">
<time>2015-09-27T23:21:13Z</time></trkpt>
<trkpt lat="25.459973" lon="100.425314">
<time>2015-09-27T23:21:14Z</time></trkpt>
<trkpt lat="25.460133" lon="100.425264">
<time>2015-09-27T23:21:15Z</time></trkpt>
<trkpt lat="25.460303" lon="100.425214">
<time>2015-09-27T23:21:16Z</time></trkpt>
<trkpt lat="25.460483" lon="100.425153">
<time>2015-09-27T23:21:17Z</time></trkpt>
<trkpt lat="25.460653" lon="100.425073">
<time>2015-09-27T23:21:18Z</time></trkpt>
<trkpt lat="25.460833" lon="100.425003">
<time>2015-09-27T23:21:19Z</time></trkpt>
<trkpt lat="25.461022" lon="100.424933">
<time>2015-09-27T23:21:20Z</time></trkpt>
<trkpt lat="25.461202" lon="100.424863">
<time>2015-09-27T23:21:21Z</time></trkpt>
<trkpt lat="25.461392" lon="100.424763">
<time>2015-09-27T23:21:22Z</time></trkpt>
<trkpt lat="25.461582" lon="100.424673">
<time>2015-09-27T23:21:23Z</time></trkpt>
<trkpt lat="25.461762" lon="100.424573">
<time>2015-09-27T23:21:24Z</time></trkpt>
<trkpt lat="25.461942" lon="100.424483">
<time>2015-09-27T23:21:25Z</time></trkpt>
<trkpt lat="25.462092" lon="100.424413">
<time>2015-09-27T23:21:26Z</time></trkpt>
<trkpt lat="25.462222" lon="100.424333">
<time>2015-09-27T23:21:27Z</time></trkpt>
<trkpt lat="25.462352" lon="100.424263">
<time>2015-09-27T23:21:28Z</time></trkpt>
<trkpt lat="25.462482" lon="100.424192">
<time>2015-09-27T23:21:29Z</time></trkpt>
<trkpt lat="25.462612" lon="100.424122">
<time>2015-09-27T23:21:30Z</time></trkpt>
<trkpt lat="25.462742" lon="100.424052">
<time>2015-09-27T23:21:31Z</time></trkpt>
<trkpt lat="25.462862" lon="100.423982">
<time>2015-09-27T23:21:32Z</time></trkpt>
<trkpt lat="25.462982" lon="100.423912">
<time>2015-09-27T23:21:33Z</time></trkpt>
<trkpt lat="25.463102" lon="100.423842">
<time>2015-09-27T23:21:34Z</time></trkpt>
<trkpt lat="25.463222" lon="100.423792">
<time>2015-09-27T23:21:35Z</time></trkpt>
<trkpt lat="25.463352" lon="100.423732">
<time>2015-09-27T23:21:36Z</time></trkpt>
<trkpt lat="25.463482" lon="100.423682">
<time>2015-09-27T23:21:37Z</time></trkpt>
<trkpt lat="25.463612" lon="100.423652">
<time>2015-09-27T23:21:38Z</time></trkpt>
<trkpt lat="25.463732" lon="100.423632">
<time>2015-09-27T23:21:39Z</time></trkpt>
<trkpt lat="25.463842" lon="100.423632">
<time>2015-09-27T23:21:40Z</time></trkpt>
<trkpt lat="25.463952" lon="100.423622">
<time>2015-09-27T23:21:41Z</time></trkpt>
<trkpt lat="25.464072" lon="100.423632">
<time>2015-09-27T23:21:42Z</time></trkpt>
<trkpt lat="25.464202" lon="100.423662">
<time>2015-09-27T23:21:43Z</time></trkpt>
<trkpt lat="25.464352" lon="100.423702">
<time>2015-09-27T23:21:44Z</time></trkpt>
<trkpt lat="25.464512" lon="100.423752">
<time>2015-09-27T23:21:45Z</time></trkpt>
<trkpt lat="25.464682" lon="100.423812">
<time>2015-09-27T23:21:46Z</time></trkpt>
<trkpt lat="25.464842" lon="100.423872">
<time>2015-09-27T23:21:47Z</time></trkpt>
<trkpt lat="25.465003" lon="100.423932">
<time>2015-09-27T23:21:48Z</time></trkpt>
<trkpt lat="25.465143" lon="100.423992">
<time>2015-09-27T23:21:49Z</time></trkpt>
<trkpt lat="25.465263" lon="100.424042">
<time>2015-09-27T23:21:50Z</time></trkpt>
<trkpt lat="25.465403" lon="100.424072">
<time>2015-09-27T23:21:51Z</time></trkpt>
<trkpt lat="25.465553" lon="100.424102">
<time>2015-09-27T23:21:52Z</time></trkpt>
<trkpt lat="25.465673" lon="100.424122">
<time>2015-09-27T23:21:53Z</time></trkpt>
<trkpt lat="25.465783" lon="100.424162">
<time>2015-09-27T23:21:54Z</time></trkpt>
<trkpt lat="25.465883" lon="100.424202">
<time>2015-09-27T23:21:55Z</time></trkpt>
<trkpt lat="25.465983" lon="100.424222">
<time>2015-09-27T23:21:56Z</time></trkpt>
<trkpt lat="25.466073" lon="100.424252">
<time>2015-09-27T23:21:57Z</time></trkpt>
<trkpt lat="25.466183" lon="100.424262">
<time>2015-09-27T23:21:58Z</time></trkpt>
<trkpt lat="25.466313" lon="100.424282">
<time>2015-09-27T23:21:59Z</time></trkpt>
<trkpt lat="25.466453" lon="100.424292">
<time>2015-09-27T23:22:00Z</time></trkpt>
<trkpt lat="25.466623" lon="100.424302">
<time>2015-09-27T23:22:01Z</time></trkpt>
<trkpt lat="25.466793" lon="100.424272">
<time>2015-09-27T23:22:02Z</time></trkpt>
<trkpt lat="25.466953" lon="100.424222">
<time>2015-09-27T23:22:03Z</time></trkpt>
<trkpt lat="25.467083" lon="100.424132">
<time>2015-09-27T23:22:04Z</time></trkpt>
<trkpt lat="25.467213" lon="100.424032">
<time>2015-09-27T23:22:05Z</time></trkpt>
<trkpt lat="25.467333" lon="100.423912">
<time>2015-09-27T23:22:06Z</time></trkpt>
<trkpt lat="25.467463" lon="100.423802">
<time>2015-09-27T23:22:07Z</time></trkpt>
<trkpt lat="25.467533" lon="100.423702">
<time>2015-09-27T23:22:08Z</time></trkpt>
<trkpt lat="25.467623" lon="100.423612">
<time>2015-09-27T23:22:09Z</time></trkpt>
<trkpt lat="25.467713" lon="100.423462">
<time>2015-09-27T23:22:10Z</time></trkpt>
<trkpt lat="25.467773" lon="100.423372">
<time>2015-09-27T23:22:11Z</time></trkpt>
<trkpt lat="25.468332" lon="100.422831">
<time>2015-09-27T23:22:12Z</time></trkpt>
<trkpt lat="25.468992" lon="100.422211">
<time>2015-09-27T23:22:13Z</time></trkpt>
<trkpt lat="25.469232" lon="100.422">
<time>2015-09-27T23:22:14Z</time></trkpt>
<trkpt lat="25.469542" lon="100.4217">
<time>2015-09-27T23:22:15Z</time></trkpt>
<trkpt lat="25.469621" lon="100.42159">
<time>2015-09-27T23:22:16Z</time></trkpt>
<trkpt lat="25.469671" lon="100.42148">
<time>2015-09-27T23:22:17Z</time></trkpt>
<trkpt lat="25.469711" lon="100.42132">
<time>2015-09-27T23:22:18Z</time></trkpt>
<trkpt lat="25.469721" lon="100.42114">
<time>2015-09-27T23:22:19Z</time></trkpt>
<trkpt lat="25.469691" lon="100.420969">
<time>2015-09-27T23:22:20Z</time></trkpt>
<trkpt lat="25.469601" lon="100.420759">
<time>2015-09-27T23:22:21Z</time></trkpt>
<trkpt lat="25.46944" lon="100.420479">
<time>2015-09-27T23:22:22Z</time></trkpt>
<trkpt lat="25.46928" lon="100.420059">
<time>2015-09-27T23:22:23Z</time></trkpt>
<trkpt lat="25.46925" lon="100.419969">
<time>2015-09-27T23:22:24Z</time></trkpt>
<trkpt lat="25.46912" lon="100.419638">
<time>2015-09-27T23:22:25Z</time></trkpt>
<trkpt lat="25.46911" lon="100.419608">
<time>2015-09-27T23:22:26Z</time></trkpt>
<trkpt lat="25.468939" lon="100.419158">
<time>2015-09-27T23:22:27Z</time></trkpt>
<trkpt lat="25.468899" lon="100.419058">
<time>2015-09-27T23:22:28Z</time></trkpt>
<trkpt lat="25.468809" lon="100.418838">
<time>2015-09-27T23:22:29Z</time></trkpt>
<trkpt lat="25.468719" lon="100.418698">
<time>2015-09-27T23:22:30Z</time></trkpt>
<trkpt lat="25.468619" lon="100.418578">
<time>2015-09-27T23:22:31Z</time></trkpt>
<trkpt lat="25.468509" lon="100.418468">
<time>2015-09-27T23:22:32Z</time></trkpt>
<trkpt lat="25.468388" lon="100.418388">
<time>2015-09-27T23:22:33Z</time></trkpt>
<trkpt lat="25.468248" lon="100.418298">
<time>2015-09-27T23:22:34Z</time></trkpt>
<trkpt lat="25.468158" lon="100.418257">
<time>2015-09-27T23:22:35Z</time></trkpt>
<trkpt lat="25.468048" lon="100.418227">
<time>2015-09-27T23:22:36Z</time></trkpt>
<trkpt lat="25.467948" lon="100.418187">
<time>2015-09-27T23:22:37Z</time></trkpt>
<trkpt lat="25.467688" lon="100.418107">
<time>2015-09-27T23:22:38Z</time></trkpt>
<trkpt lat="25.467558" lon="100.418057">
<time>2015-09-27T23:22:39Z</time></trkpt>
<trkpt lat="25.467458" lon="100.417997">
<time>2015-09-27T23:22:40Z</time></trkpt>
<trkpt lat="25.467368" lon="100.417927">
<time>2015-09-27T23:22:41Z</time></trkpt>
<trkpt lat="25.467268" lon="100.417797">
<time>2015-09-27T23:22:42Z</time></trkpt>
<trkpt lat="25.467167" lon="100.417587">
<time>2015-09-27T23:22:43Z</time></trkpt>
<trkpt lat="25.467087" lon="100.417407">
<time>2015-09-27T23:22:44Z</time></trkpt>
<trkpt lat="25.466997" lon="100.417247">
<time>2015-09-27T23:22:45Z</time></trkpt>
<trkpt lat="25.466897" lon="100.417127">
<time>2015-09-27T23:22:46Z</time></trkpt>
<trkpt lat="25.466757" lon="100.417027">
<time>2015-09-27T23:22:47Z</time></trkpt>
<trkpt lat="25.466627" lon="100.416967">
<time>2015-09-27T23:22:48Z</time></trkpt>
<trkpt lat="25.466567" lon="100.416947">
<time>2015-09-27T23:22:49Z</time></trkpt>
<trkpt lat="25.466497" lon="100.416937">
<time>2015-09-27T23:22:50Z</time></trkpt>
<trkpt lat="25.466427" lon="100.416937">
<time>2015-09-27T23:22:51Z</time></trkpt>
<trkpt lat="25.466377" lon="100.416937">
<time>2015-09-27T23:22:52Z</time></trkpt>
<trkpt lat="25.466177" lon="100.416957">
<time>2015-09-27T23:22:53Z</time></trkpt>
<trkpt lat="25.466067" lon="100.416967">
<time>2015-09-27T23:22:54Z</time></trkpt>
<trkpt lat="25.465977" lon="100.416967">
<time>2015-09-27T23:22:55Z</time></trkpt>
<trkpt lat="25.465947" lon="100.416967">
<time>2015-09-27T23:22:56Z</time></trkpt>
<trkpt lat="25.465927" lon="100.416967">
<time>2015-09-27T23:22:57Z</time></trkpt>
<trkpt lat="25.465847" lon="100.416947">
<time>2015-09-27T23:22:58Z</time></trkpt>
<trkpt lat="25.465777" lon="100.416927">
<time>2015-09-27T23:22:59Z</time></trkpt>
<trkpt lat="25.465707" lon="100.416897">
<time>2015-09-27T23:23:00Z</time></trkpt>
<trkpt lat="25.465637" lon="100.416847">
<time>2015-09-27T23:23:01Z</time></trkpt>
<trkpt lat="25.465536" lon="100.416727">
<time>2015-09-27T23:23:02Z</time></trkpt>
<trkpt lat="25.465466" lon="100.416576">
<time>2015-09-27T23:23:03Z</time></trkpt>
<trkpt lat="25.465406" lon="100.416306">
<time>2015-09-27T23:23:04Z</time></trkpt>
<trkpt lat="25.465306" lon="100.415856">
<time>2015-09-27T23:23:05Z</time></trkpt>
<trkpt lat="25.465175" lon="100.415246">
<time>2015-09-27T23:23:06Z</time></trkpt>
<trkpt lat="25.465125" lon="100.415136">
<time>2015-09-27T23:23:07Z</time></trkpt>
<trkpt lat="25.465035" lon="100.415026">
<time>2015-09-27T23:23:08Z</time></trkpt>
<trkpt lat="25.464905" lon="100.414836">
<time>2015-09-27T23:23:09Z</time></trkpt>
<trkpt lat="25.464705" lon="100.414675">
<time>2015-09-27T23:23:10Z</time></trkpt>
<trkpt lat="25.464465" lon="100.414555">
<time>2015-09-27T23:23:11Z</time></trkpt>
<trkpt lat="25.464205" lon="100.414475">
<time>2015-09-27T23:23:12Z</time></trkpt>
<trkpt lat="25.464004" lon="100.414325">
<time>2015-09-27T23:23:13Z</time></trkpt>
<trkpt lat="25.463874" lon="100.414205">
<time>2015-09-27T23:23:14Z</time></trkpt>
<trkpt lat="25.463704" lon="100.413965">
<time>2015-09-27T23:23:15Z</time></trkpt>
<trkpt lat="25.463564" lon="100.413755">
<time>2015-09-27T23:23:16Z</time></trkpt>
<trkpt lat="25.463424" lon="100.413545">
<time>2015-09-27T23:23:17Z</time></trkpt>
<trkpt lat="25.463364" lon="100.413395">
<time>2015-09-27T23:23:18Z</time></trkpt>
<trkpt lat="25.463254" lon="100.413185">
<time>2015-09-27T23:23:19Z</time></trkpt>
<trkpt lat="25.463133" lon="100.412985">
<time>2015-09-27T23:23:20Z</time></trkpt>
<trkpt lat="25.463033" lon="100.412775">
<time>2015-09-27T23:23:21Z</time></trkpt>
<trkpt lat="25.462963" lon="100.412565">
<time>2015-09-27T23:23:22Z</time></trkpt>
<trkpt lat="25.462923" lon="100.412324">
<time>2015-09-27T23:23:23Z</time></trkpt>
<trkpt lat="25.462893" lon="100.412094">
<time>2015-09-27T23:23:24Z</time></trkpt>
<trkpt lat="25.462853" lon="100.411884">
<time>2015-09-27T23:23:25Z</time></trkpt>
<trkpt lat="25.462803" lon="100.411694">
<time>2015-09-27T23:23:26Z</time></trkpt>
<trkpt lat="25.462733" lon="100.411484">
<time>2015-09-27T23:23:27Z</time></trkpt>
<trkpt lat="25.462612" lon="100.411304">
<time>2015-09-27T23:23:28Z</time></trkpt>
<trkpt lat="25.462452" lon="100.411214">
<time>2015-09-27T23:23:29Z</time></trkpt>
<trkpt lat="25.462242" lon="100.411234">
<time>2015-09-27T23:23:30Z</time></trkpt>
<trkpt lat="25.462082" lon="100.411344">
<time>2015-09-27T23:23:31Z</time></trkpt>
<trkpt lat="25.461922" lon="100.411474">
<time>2015-09-27T23:23:32Z</time></trkpt>
<trkpt lat="25.461772" lon="100.411624">
<time>2015-09-27T23:23:33Z</time></trkpt>
<trkpt lat="25.461602" lon="100.411744">
<time>2015-09-27T23:23:34Z</time></trkpt>
<trkpt lat="25.461452" lon="100.411834">
<time>2015-09-27T23:23:35Z</time></trkpt>
<trkpt lat="25.461372" lon="100.411834">
<time>2015-09-27T23:23:36Z</time></trkpt>
<trkpt lat="25.461282" lon="100.411824">
<time>2015-09-27T23:23:37Z</time></trkpt>
<trkpt lat="25.461192" lon="100.411724">
<time>2015-09-27T23:23:38Z</time></trkpt>
<trkpt lat="25.461162" lon="100.411564">
<time>2015-09-27T23:23:39Z</time></trkpt>
<trkpt lat="25.461202" lon="100.411424">
<time>2015-09-27T23:23:40Z</time></trkpt>
<trkpt lat="25.461282" lon="100.411294">
<time>2015-09-27T23:23:41Z</time></trkpt>
<trkpt lat="25.461352" lon="100.411174">
<time>2015-09-27T23:23:42Z</time></trkpt>
<trkpt lat="25.461432" lon="100.411054">
<time>2015-09-27T23:23:43Z</time></trkpt>
<trkpt lat="25.461512" lon="100.410924">
<time>2015-09-27T23:23:44Z</time></trkpt>
<trkpt lat="25.461582" lon="100.410764">
<time>2015-09-27T23:23:45Z</time></trkpt>
<trkpt lat="25.461592" lon="100.410584">
<time>2015-09-27T23:23:46Z</time></trkpt>
<trkpt lat="25.461532" lon="100.410414">
<time>2015-09-27T23:23:47Z</time></trkpt>
<trkpt lat="25.461422" lon="100.410274">
<time>2015-09-27T23:23:48Z</time></trkpt>
<trkpt lat="25.461292" lon="100.410134">
<time>2015-09-27T23:23:49Z</time></trkpt>
<trkpt lat="25.461161" lon="100.410014">
<time>2015-09-27T23:23:50Z</time></trkpt>
<trkpt lat="25.461061" lon="100.409864">
<time>2015-09-27T23:23:51Z</time></trkpt>
<trkpt lat="25.460931" lon="100.409764">
<time>2015-09-27T23:23:52Z</time></trkpt>
<trkpt lat="25.460801" lon="100.409634">
<time>2015-09-27T23:23:53Z</time></trkpt>
<trkpt lat="25.460681" lon="100.409534">
<time>2015-09-27T23:23:54Z</time></trkpt>
<trkpt lat="25.460561" lon="100.409444">
<time>2015-09-27T23:23:55Z</time></trkpt>
<trkpt lat="25.460441" lon="100.409384">
<time>2015-09-27T23:23:56Z</time></trkpt>
<trkpt lat="25.460341" lon="100.409314">
<time>2015-09-27T23:23:57Z</time></trkpt>
<trkpt lat="25.460231" lon="100.409224">
<time>2015-09-27T23:23:58Z</time></trkpt>
<trkpt lat="25.460121" lon="100.409154">
<time>2015-09-27T23:23:59Z</time></trkpt>
<trkpt lat="25.460021" lon="100.409074">
<time>2015-09-27T23:24:00Z</time></trkpt>
<trkpt lat="25.459911" lon="100.408994">
<time>2015-09-27T23:24:01Z</time></trkpt>
<trkpt lat="25.459821" lon="100.408914">
<time>2015-09-27T23:24:02Z</time></trkpt>
<trkpt lat="25.459721" lon="100.408833">
<time>2015-09-27T23:24:03Z</time></trkpt>
<trkpt lat="25.459631" lon="100.408743">
<time>2015-09-27T23:24:04Z</time></trkpt>
<trkpt lat="25.459521" lon="100.408693">
<time>2015-09-27T23:24:05Z</time></trkpt>
<trkpt lat="25.459411" lon="100.408653">
<time>2015-09-27T23:24:06Z</time></trkpt>
<trkpt lat="25.4593" lon="100.408623">
<time>2015-09-27T23:24:07Z</time></trkpt>
<trkpt lat="25.45918" lon="100.408623">
<time>2015-09-27T23:24:08Z</time></trkpt>
<trkpt lat="25.45907" lon="100.408603">
<time>2015-09-27T23:24:09Z</time></trkpt>
<trkpt lat="25.45893" lon="100.408603">
<time>2015-09-27T23:24:10Z</time></trkpt>
<trkpt lat="25.45878" lon="100.408593">
<time>2015-09-27T23:24:11Z</time></trkpt>
<trkpt lat="25.45862" lon="100.408573">
<time>2015-09-27T23:24:12Z</time></trkpt>
<trkpt lat="25.45848" lon="100.408543">
<time>2015-09-27T23:24:13Z</time></trkpt>
<trkpt lat="25.45834" lon="100.408503">
<time>2015-09-27T23:24:14Z</time></trkpt>
<trkpt lat="25.45823" lon="100.408403">
<time>2015-09-27T23:24:15Z</time></trkpt>
<trkpt lat="25.45814" lon="100.408283">
<time>2015-09-27T23:24:16Z</time></trkpt>
<trkpt lat="25.45811" lon="100.408123">
<time>2015-09-27T23:24:17Z</time></trkpt>
<trkpt lat="25.45808" lon="100.407993">
<time>2015-09-27T23:24:18Z</time></trkpt>
<trkpt lat="25.45805" lon="100.407853">
<time>2015-09-27T23:24:19Z</time></trkpt>
<trkpt lat="25.45801" lon="100.407733">
<time>2015-09-27T23:24:20Z</time></trkpt>
<trkpt lat="25.45794" lon="100.407603">
<time>2015-09-27T23:24:21Z</time></trkpt>
<trkpt lat="25.45786" lon="100.407503">
<time>2015-09-27T23:24:22Z</time></trkpt>
<trkpt lat="25.45772" lon="100.407423">
<time>2015-09-27T23:24:23Z</time></trkpt>
<trkpt lat="25.45757" lon="100.407423">
<time>2015-09-27T23:24:24Z</time></trkpt>
<trkpt lat="25.45742" lon="100.407483">
<time>2015-09-27T23:24:25Z</time></trkpt>
<trkpt lat="25.4573" lon="100.407553">
<time>2015-09-27T23:24:26Z</time></trkpt>
<trkpt lat="25.45717" lon="100.407643">
<time>2015-09-27T23:24:27Z</time></trkpt>
<trkpt lat="25.45704" lon="100.407703">
<time>2015-09-27T23:24:28Z</time></trkpt>
<trkpt lat="25.4569" lon="100.407743">
<time>2015-09-27T23:24:29Z</time></trkpt>
<trkpt lat="25.45677" lon="100.407753">
<time>2015-09-27T23:24:30Z</time></trkpt>
<trkpt lat="25.456589" lon="100.407743">
<time>2015-09-27T23:24:31Z</time></trkpt>
<trkpt lat="25.456439" lon="100.407703">
<time>2015-09-27T23:24:32Z</time></trkpt>
<trkpt lat="25.456309" lon="100.407643">
<time>2015-09-27T23:24:33Z</time></trkpt>
<trkpt lat="25.456179" lon="100.407553">
<time>2015-09-27T23:24:34Z</time></trkpt>
<trkpt lat="25.456019" lon="100.407473">
<time>2015-09-27T23:24:35Z</time></trkpt>
<trkpt lat="25.455849" lon="100.407383">
<time>2015-09-27T23:24:36Z</time></trkpt>
<trkpt lat="25.455639" lon="100.407323">
<time>2015-09-27T23:24:37Z</time></trkpt>
<trkpt lat="25.455419" lon="100.407273">
<time>2015-09-27T23:24:38Z</time></trkpt>
<trkpt lat="25.455249" lon="100.407143">
<time>2015-09-27T23:24:39Z</time></trkpt>
<trkpt lat="25.455159" lon="100.406963">
<time>2015-09-27T23:24:40Z</time></trkpt>
<trkpt lat="25.455129" lon="100.406733">
<time>2015-09-27T23:24:41Z</time></trkpt>
<trkpt lat="25.455159" lon="100.406543">
<time>2015-09-27T23:24:42Z</time></trkpt>
<trkpt lat="25.455119" lon="100.406473">
<time>2015-09-27T23:24:43Z</time></trkpt>
<trkpt lat="25.455039" lon="100.406463">
<time>2015-09-27T23:24:44Z</time></trkpt>
<trkpt lat="25.454899" lon="100.406543">
<time>2015-09-27T23:24:45Z</time></trkpt>
<trkpt lat="25.454779" lon="100.406663">
<time>2015-09-27T23:24:46Z</time></trkpt>
<trkpt lat="25.454639" lon="100.406763">
<time>2015-09-27T23:24:47Z</time></trkpt>
<trkpt lat="25.454499" lon="100.406903">
<time>2015-09-27T23:24:48Z</time></trkpt>
<trkpt lat="25.454309" lon="100.406973">
<time>2015-09-27T23:24:49Z</time></trkpt>
<trkpt lat="25.454159" lon="100.406993">
<time>2015-09-27T23:24:50Z</time></trkpt>
<trkpt lat="25.453989" lon="100.406943">
<time>2015-09-27T23:24:51Z</time></trkpt>
<trkpt lat="25.453859" lon="100.406833">
<time>2015-09-27T23:24:52Z</time></trkpt>
<trkpt lat="25.453748" lon="100.406703">
<time>2015-09-27T23:24:53Z</time></trkpt>
<trkpt lat="25.453658" lon="100.406553">
<time>2015-09-27T23:24:54Z</time></trkpt>
<trkpt lat="25.453588" lon="100.406393">
<time>2015-09-27T23:24:55Z</time></trkpt>
<trkpt lat="25.453568" lon="100.406233">
<time>2015-09-27T23:24:56Z</time></trkpt>
<trkpt lat="25.453588" lon="100.406083">
<time>2015-09-27T23:24:57Z</time></trkpt>
<trkpt lat="25.453658" lon="100.405943">
<time>2015-09-27T23:24:58Z</time></trkpt>
<trkpt lat="25.453728" lon="100.405833">
<time>2015-09-27T23:24:59Z</time></trkpt>
<trkpt lat="25.453808" lon="100.405703">
<time>2015-09-27T23:25:00Z</time></trkpt>
<trkpt lat="25.453888" lon="100.405583">
<time>2015-09-27T23:25:01Z</time></trkpt>
<trkpt lat="25.453948" lon="100.405433">
<time>2015-09-27T23:25:02Z</time></trkpt>
<trkpt lat="25.453988" lon="100.405293">
<time>2015-09-27T23:25:03Z</time></trkpt>
<trkpt lat="25.454008" lon="100.405153">
<time>2015-09-27T23:25:04Z</time></trkpt>
<trkpt lat="25.454018" lon="100.405023">
<time>2015-09-27T23:25:05Z</time></trkpt>
<trkpt lat="25.454028" lon="100.404903">
<time>2015-09-27T23:25:06Z</time></trkpt>
<trkpt lat="25.454038" lon="100.404763">
<time>2015-09-27T23:25:07Z</time></trkpt>
<trkpt lat="25.454028" lon="100.404633">
<time>2015-09-27T23:25:08Z</time></trkpt>
<trkpt lat="25.453988" lon="100.404503">
<time>2015-09-27T23:25:09Z</time></trkpt>
<trkpt lat="25.453908" lon="100.404393">
<time>2015-09-27T23:25:10Z</time></trkpt>
<trkpt lat="25.453828" lon="100.404293">
<time>2015-09-27T23:25:11Z</time></trkpt>
<trkpt lat="25.453758" lon="100.404203">
<time>2015-09-27T23:25:12Z</time></trkpt>
<trkpt lat="25.453688" lon="100.404113">
<time>2015-09-27T23:25:13Z</time></trkpt>
<trkpt lat="25.453618" lon="100.404033">
<time>2015-09-27T23:25:14Z</time></trkpt>
<trkpt lat="25.453538" lon="100.403943">
<time>2015-09-27T23:25:15Z</time></trkpt>
<trkpt lat="25.453438" lon="100.403873">
<time>2015-09-27T23:25:16Z</time></trkpt>
<trkpt lat="25.453348" lon="100.403843">
<time>2015-09-27T23:25:17Z</time></trkpt>
<trkpt lat="25.453218" lon="100.403843">
<time>2015-09-27T23:25:18Z</time></trkpt>
<trkpt lat="25.453098" lon="100.403863">
<time>2015-09-27T23:25:19Z</time></trkpt>
<trkpt lat="25.453008" lon="100.403883">
<time>2015-09-27T23:25:20Z</time></trkpt>
<trkpt lat="25.452888" lon="100.403843">
<time>2015-09-27T23:25:21Z</time></trkpt>
<trkpt lat="25.452818" lon="100.403743">
<time>2015-09-27T23:25:22Z</time></trkpt>
<trkpt lat="25.452748" lon="100.403643">
<time>2015-09-27T23:25:23Z</time></trkpt>
<trkpt lat="25.452688" lon="100.403473">
<time>2015-09-27T23:25:24Z</time></trkpt>
<trkpt lat="25.452638" lon="100.403293">
<time>2015-09-27T23:25:25Z</time></trkpt>
<trkpt lat="25.452598" lon="100.403103">
<time>2015-09-27T23:25:26Z</time></trkpt>
<trkpt lat="25.452547" lon="100.402923">
<time>2015-09-27T23:25:27Z</time></trkpt>
<trkpt lat="25.452497" lon="100.402743">
<time>2015-09-27T23:25:28Z</time></trkpt>
<trkpt lat="25.452467" lon="100.402523">
<time>2015-09-27T23:25:29Z</time></trkpt>
<trkpt lat="25.452477" lon="100.402293">
<time>2015-09-27T23:25:30Z</time></trkpt>
<trkpt lat="25.452537" lon="100.402073">
<time>2015-09-27T23:25:31Z</time></trkpt>
<trkpt lat="25.452607" lon="100.401873">
<time>2015-09-27T23:25:32Z</time></trkpt>
<trkpt lat="25.452707" lon="100.401713">
<time>2015-09-27T23:25:33Z</time></trkpt>
<trkpt lat="25.452787" lon="100.401553">
<time>2015-09-27T23:25:34Z</time></trkpt>
<trkpt lat="25.452867" lon="100.401373">
<time>2015-09-27T23:25:35Z</time></trkpt>
<trkpt lat="25.452918" lon="100.401203">
<time>2015-09-27T23:25:36Z</time></trkpt>
<trkpt lat="25.452948" lon="100.401023">
<time>2015-09-27T23:25:37Z</time></trkpt>
<trkpt lat="25.452968" lon="100.400853">
<time>2015-09-27T23:25:38Z</time></trkpt>
<trkpt lat="25.452958" lon="100.400694">
<time>2015-09-27T23:25:39Z</time></trkpt>
<trkpt lat="25.452897" lon="100.400554">
<time>2015-09-27T23:25:40Z</time></trkpt>
<trkpt lat="25.452787" lon="100.400464">
<time>2015-09-27T23:25:41Z</time></trkpt>
<trkpt lat="25.452637" lon="100.400444">
<time>2015-09-27T23:25:42Z</time></trkpt>
<trkpt lat="25.452497" lon="100.400454">
<time>2015-09-27T23:25:43Z</time></trkpt>
<trkpt lat="25.452297" lon="100.400484">
<time>2015-09-27T23:25:44Z</time></trkpt>
<trkpt lat="25.452107" lon="100.400524">
<time>2015-09-27T23:25:45Z</time></trkpt>
<trkpt lat="25.451937" lon="100.400564">
<time>2015-09-27T23:25:46Z</time></trkpt>
<trkpt lat="25.451657" lon="100.400654">
<time>2015-09-27T23:25:47Z</time></trkpt>
<trkpt lat="25.451447" lon="100.400714">
<time>2015-09-27T23:25:48Z</time></trkpt>
<trkpt lat="25.451307" lon="100.400784">
<time>2015-09-27T23:25:49Z</time></trkpt>
<trkpt lat="25.451107" lon="100.400854">
<time>2015-09-27T23:25:50Z</time></trkpt>
<trkpt lat="25.450917" lon="100.400934">
<time>2015-09-27T23:25:51Z</time></trkpt>
<trkpt lat="25.450737" lon="100.401014">
<time>2015-09-27T23:25:52Z</time></trkpt>
<trkpt lat="25.450547" lon="100.401103">
<time>2015-09-27T23:25:53Z</time></trkpt>
<trkpt lat="25.450357" lon="100.401183">
<time>2015-09-27T23:25:54Z</time></trkpt>
<trkpt lat="25.450167" lon="100.401253">
<time>2015-09-27T23:25:55Z</time></trkpt>
<trkpt lat="25.449977" lon="100.401293">
<time>2015-09-27T23:25:56Z</time></trkpt>
<trkpt lat="25.449797" lon="100.401333">
<time>2015-09-27T23:25:57Z</time></trkpt>
<trkpt lat="25.449627" lon="100.401363">
<time>2015-09-27T23:25:58Z</time></trkpt>
<trkpt lat="25.449487" lon="100.401363">
<time>2015-09-27T23:25:59Z</time></trkpt>
<trkpt lat="25.449297" lon="100.401343">
<time>2015-09-27T23:26:00Z</time></trkpt>
<trkpt lat="25.449117" lon="100.401294">
<time>2015-09-27T23:26:01Z</time></trkpt>
<trkpt lat="25.448966" lon="100.401294">
<time>2015-09-27T23:26:02Z</time></trkpt>
<trkpt lat="25.448766" lon="100.401314">
<time>2015-09-27T23:26:03Z</time></trkpt>
<trkpt lat="25.448586" lon="100.401384">
<time>2015-09-27T23:26:04Z</time></trkpt>
<trkpt lat="25.448416" lon="100.401474">
<time>2015-09-27T23:26:05Z</time></trkpt>
<trkpt lat="25.448246" lon="100.401553">
<time>2015-09-27T23:26:06Z</time></trkpt>
<trkpt lat="25.448066" lon="100.401613">
<time>2015-09-27T23:26:07Z</time></trkpt>
<trkpt lat="25.447896" lon="100.401643">
<time>2015-09-27T23:26:08Z</time></trkpt>
<trkpt lat="25.447696" lon="100.401614">
<time>2015-09-27T23:26:09Z</time></trkpt>
<trkpt lat="25.447516" lon="100.401584">
<time>2015-09-27T23:26:10Z</time></trkpt>
<trkpt lat="25.447346" lon="100.401544">
<time>2015-09-27T23:26:11Z</time></trkpt>
<trkpt lat="25.447206" lon="100.401434">
<time>2015-09-27T23:26:12Z</time></trkpt>
<trkpt lat="25.447146" lon="100.401274">
<time>2015-09-27T23:26:13Z</time></trkpt>
<trkpt lat="25.447136" lon="100.401094">
<time>2015-09-27T23:26:14Z</time></trkpt>
<trkpt lat="25.447176" lon="100.400914">
<time>2015-09-27T23:26:15Z</time></trkpt>
<trkpt lat="25.447216" lon="100.400754">
<time>2015-09-27T23:26:16Z</time></trkpt>
<trkpt lat="25.447276" lon="100.400614">
<time>2015-09-27T23:26:17Z</time></trkpt>
<trkpt lat="25.447326" lon="100.400484">
<time>2015-09-27T23:26:18Z</time></trkpt>
<trkpt lat="25.447426" lon="100.400364">
<time>2015-09-27T23:26:19Z</time></trkpt>
<trkpt lat="25.447486" lon="100.400234">
<time>2015-09-27T23:26:20Z</time></trkpt>
<trkpt lat="25.447576" lon="100.400104">
<time>2015-09-27T23:26:21Z</time></trkpt>
<trkpt lat="25.447646" lon="100.399944">
<time>2015-09-27T23:26:22Z</time></trkpt>
<trkpt lat="25.447726" lon="100.399784">
<time>2015-09-27T23:26:23Z</time></trkpt>
<trkpt lat="25.447846" lon="100.399614">
<time>2015-09-27T23:26:24Z</time></trkpt>
<trkpt lat="25.447976" lon="100.399464">
<time>2015-09-27T23:26:25Z</time></trkpt>
<trkpt lat="25.448086" lon="100.399304">
<time>2015-09-27T23:26:26Z</time></trkpt>
<trkpt lat="25.448196" lon="100.399144">
<time>2015-09-27T23:26:27Z</time></trkpt>
<trkpt lat="25.448226" lon="100.399034">
<time>2015-09-27T23:26:28Z</time></trkpt>
<trkpt lat="25.448196" lon="100.398924">
<time>2015-09-27T23:26:29Z</time></trkpt>
<trkpt lat="25.448096" lon="100.398814">
<time>2015-09-27T23:26:30Z</time></trkpt>
<trkpt lat="25.447976" lon="100.398694">
<time>2015-09-27T23:26:31Z</time></trkpt>
<trkpt lat="25.447846" lon="100.398584">
<time>2015-09-27T23:26:32Z</time></trkpt>
<trkpt lat="25.447726" lon="100.398454">
<time>2015-09-27T23:26:33Z</time></trkpt>
<trkpt lat="25.447606" lon="100.398304">
<time>2015-09-27T23:26:34Z</time></trkpt>
<trkpt lat="25.447496" lon="100.398204">
<time>2015-09-27T23:26:35Z</time></trkpt>
<trkpt lat="25.447336" lon="100.398104">
<time>2015-09-27T23:26:36Z</time></trkpt>
<trkpt lat="25.447186" lon="100.398014">
<time>2015-09-27T23:26:37Z</time></trkpt>
<trkpt lat="25.447016" lon="100.397914">
<time>2015-09-27T23:26:38Z</time></trkpt>
<trkpt lat="25.446816" lon="100.397824">
<time>2015-09-27T23:26:39Z</time></trkpt>
<trkpt lat="25.446626" lon="100.397744">
<time>2015-09-27T23:26:40Z</time></trkpt>
<trkpt lat="25.446456" lon="100.397654">
<time>2015-09-27T23:26:41Z</time></trkpt>
<trkpt lat="25.446266" lon="100.397554">
<time>2015-09-27T23:26:42Z</time></trkpt>
<trkpt lat="25.446096" lon="100.397474">
<time>2015-09-27T23:26:43Z</time></trkpt>
<trkpt lat="25.445956" lon="100.397405">
<time>2015-09-27T23:26:44Z</time></trkpt>
<trkpt lat="25.445806" lon="100.397365">
<time>2015-09-27T23:26:45Z</time></trkpt>
<trkpt lat="25.445666" lon="100.397355">
<time>2015-09-27T23:26:46Z</time></trkpt>
<trkpt lat="25.445516" lon="100.397345">
<time>2015-09-27T23:26:47Z</time></trkpt>
<trkpt lat="25.445356" lon="100.397355">
<time>2015-09-27T23:26:48Z</time></trkpt>
<trkpt lat="25.445176" lon="100.397375">
<time>2015-09-27T23:26:49Z</time></trkpt>
<trkpt lat="25.444966" lon="100.397415">
<time>2015-09-27T23:26:50Z</time></trkpt>
<trkpt lat="25.444786" lon="100.397455">
<time>2015-09-27T23:26:51Z</time></trkpt>
<trkpt lat="25.444586" lon="100.397485">
<time>2015-09-27T23:26:52Z</time></trkpt>
<trkpt lat="25.444376" lon="100.397475">
<time>2015-09-27T23:26:53Z</time></trkpt>
<trkpt lat="25.444216" lon="100.397465">
<time>2015-09-27T23:26:54Z</time></trkpt>
<trkpt lat="25.444096" lon="100.397445">
<time>2015-09-27T23:26:55Z</time></trkpt>
<trkpt lat="25.443986" lon="100.397395">
<time>2015-09-27T23:26:56Z</time></trkpt>
<trkpt lat="25.443886" lon="100.397295">
<time>2015-09-27T23:26:57Z</time></trkpt>
<trkpt lat="25.443806" lon="100.397175">
<time>2015-09-27T23:26:58Z</time></trkpt>
<trkpt lat="25.443686" lon="100.397015">
<time>2015-09-27T23:26:59Z</time></trkpt>
<trkpt lat="25.443586" lon="100.396855">
<time>2015-09-27T23:27:00Z</time></trkpt>
<trkpt lat="25.443476" lon="100.396695">
<time>2015-09-27T23:27:01Z</time></trkpt>
<trkpt lat="25.443356" lon="100.396555">
<time>2015-09-27T23:27:02Z</time></trkpt>
<trkpt lat="25.443246" lon="100.396455">
<time>2015-09-27T23:27:03Z</time></trkpt>
<trkpt lat="25.443145" lon="100.396435">
<time>2015-09-27T23:27:04Z</time></trkpt>
<trkpt lat="25.443065" lon="100.396445">
<time>2015-09-27T23:27:05Z</time></trkpt>
<trkpt lat="25.442965" lon="100.396635">
<time>2015-09-27T23:27:06Z</time></trkpt>
<trkpt lat="25.442875" lon="100.396855">
<time>2015-09-27T23:27:07Z</time></trkpt>
<trkpt lat="25.442835" lon="100.397045">
<time>2015-09-27T23:27:08Z</time></trkpt>
<trkpt lat="25.442795" lon="100.397205">
<time>2015-09-27T23:27:09Z</time></trkpt>
<trkpt lat="25.442705" lon="100.397345">
<time>2015-09-27T23:27:10Z</time></trkpt>
<trkpt lat="25.442565" lon="100.397445">
<time>2015-09-27T23:27:11Z</time></trkpt>
<trkpt lat="25.442415" lon="100.397485">
<time>2015-09-27T23:27:12Z</time></trkpt>
<trkpt lat="25.442215" lon="100.397465">
<time>2015-09-27T23:27:13Z</time></trkpt>
<trkpt lat="25.442035" lon="100.397435">
<time>2015-09-27T23:27:14Z</time></trkpt>
<trkpt lat="25.441855" lon="100.397415">
<time>2015-09-27T23:27:15Z</time></trkpt>
<trkpt lat="25.441655" lon="100.397385">
<time>2015-09-27T23:27:16Z</time></trkpt>
<trkpt lat="25.441425" lon="100.397345">
<time>2015-09-27T23:27:17Z</time></trkpt>
<trkpt lat="25.441255" lon="100.397295">
<time>2015-09-27T23:27:18Z</time></trkpt>
<trkpt lat="25.441085" lon="100.397235">
<time>2015-09-27T23:27:19Z</time></trkpt>
<trkpt lat="25.440945" lon="100.397155">
<time>2015-09-27T23:27:20Z</time></trkpt>
<trkpt lat="25.440845" lon="100.397025">
<time>2015-09-27T23:27:21Z</time></trkpt>
<trkpt lat="25.440785" lon="100.396835">
<time>2015-09-27T23:27:22Z</time></trkpt>
<trkpt lat="25.440745" lon="100.396625">
<time>2015-09-27T23:27:23Z</time></trkpt>
<trkpt lat="25.440725" lon="100.396395">
<time>2015-09-27T23:27:24Z</time></trkpt>
<trkpt lat="25.440735" lon="100.396175">
<time>2015-09-27T23:27:25Z</time></trkpt>
<trkpt lat="25.440775" lon="100.395955">
<time>2015-09-27T23:27:26Z</time></trkpt>
<trkpt lat="25.440845" lon="100.395765">
<time>2015-09-27T23:27:27Z</time></trkpt>
<trkpt lat="25.440945" lon="100.395565">
<time>2015-09-27T23:27:28Z</time></trkpt>
<trkpt lat="25.441055" lon="100.395375">
<time>2015-09-27T23:27:29Z</time></trkpt>
<trkpt lat="25.441175" lon="100.395155">
<time>2015-09-27T23:27:30Z</time></trkpt>
<trkpt lat="25.441305" lon="100.394976">
<time>2015-09-27T23:27:31Z</time></trkpt>
<trkpt lat="25.441455" lon="100.394786">
<time>2015-09-27T23:27:32Z</time></trkpt>
<trkpt lat="25.441576" lon="100.394586">
<time>2015-09-27T23:27:33Z</time></trkpt>
<trkpt lat="25.441696" lon="100.394406">
<time>2015-09-27T23:27:34Z</time></trkpt>
<trkpt lat="25.441836" lon="100.394186">
<time>2015-09-27T23:27:35Z</time></trkpt>
<trkpt lat="25.441956" lon="100.393956">
<time>2015-09-27T23:27:36Z</time></trkpt>
<trkpt lat="25.442016" lon="100.393716">
<time>2015-09-27T23:27:37Z</time></trkpt>
<trkpt lat="25.442076" lon="100.393486">
<time>2015-09-27T23:27:38Z</time></trkpt>
<trkpt lat="25.442106" lon="100.393276">
<time>2015-09-27T23:27:39Z</time></trkpt>
<trkpt lat="25.442106" lon="100.393086">
<time>2015-09-27T23:27:40Z</time></trkpt>
<trkpt lat="25.442076" lon="100.392887">
<time>2015-09-27T23:27:41Z</time></trkpt>
<trkpt lat="25.442026" lon="100.392727">
<time>2015-09-27T23:27:42Z</time></trkpt>
<trkpt lat="25.441946" lon="100.392587">
<time>2015-09-27T23:27:43Z</time></trkpt>
<trkpt lat="25.441826" lon="100.392497">
<time>2015-09-27T23:27:44Z</time></trkpt>
<trkpt lat="25.441736" lon="100.392477">
<time>2015-09-27T23:27:45Z</time></trkpt>
<trkpt lat="25.441586" lon="100.392527">
<time>2015-09-27T23:27:46Z</time></trkpt>
<trkpt lat="25.441486" lon="100.392597">
<time>2015-09-27T23:27:47Z</time></trkpt>
<trkpt lat="25.441376" lon="100.392707">
<time>2015-09-27T23:27:48Z</time></trkpt>
<trkpt lat="25.441256" lon="100.392817">
<time>2015-09-27T23:27:49Z</time></trkpt>
<trkpt lat="25.441106" lon="100.392927">
<time>2015-09-27T23:27:50Z</time></trkpt>
<trkpt lat="25.440946" lon="100.392997">
<time>2015-09-27T23:27:51Z</time></trkpt>
<trkpt lat="25.440776" lon="100.393057">
<time>2015-09-27T23:27:52Z</time></trkpt>
<trkpt lat="25.440626" lon="100.393106">
<time>2015-09-27T23:27:53Z</time></trkpt>
<trkpt lat="25.440476" lon="100.393166">
<time>2015-09-27T23:27:54Z</time></trkpt>
<trkpt lat="25.440336" lon="100.393186">
<time>2015-09-27T23:27:55Z</time></trkpt>
<trkpt lat="25.440176" lon="100.393146">
<time>2015-09-27T23:27:56Z</time></trkpt>
<trkpt lat="25.440036" lon="100.393047">
<time>2015-09-27T23:27:57Z</time></trkpt>
<trkpt lat="25.439896" lon="100.392947">
<time>2015-09-27T23:27:58Z</time></trkpt>
<trkpt lat="25.439776" lon="100.392727">
<time>2015-09-27T23:27:59Z</time></trkpt>
<trkpt lat="25.439686" lon="100.392597">
<time>2015-09-27T23:28:00Z</time></trkpt>
<trkpt lat="25.439606" lon="100.392467">
<time>2015-09-27T23:28:01Z</time></trkpt>
<trkpt lat="25.439536" lon="100.392327">
<time>2015-09-27T23:28:02Z</time></trkpt>
<trkpt lat="25.439446" lon="100.392197">
<time>2015-09-27T23:28:03Z</time></trkpt>
<trkpt lat="25.439346" lon="100.392107">
<time>2015-09-27T23:28:04Z</time></trkpt>
<trkpt lat="25.439226" lon="100.392047">
<time>2015-09-27T23:28:05Z</time></trkpt>
<trkpt lat="25.439116" lon="100.392017">
<time>2015-09-27T23:28:06Z</time></trkpt>
<trkpt lat="25.438996" lon="100.392017">
<time>2015-09-27T23:28:07Z</time></trkpt>
<trkpt lat="25.438866" lon="100.391987">
<time>2015-09-27T23:28:08Z</time></trkpt>
<trkpt lat="25.438716" lon="100.391947">
<time>2015-09-27T23:28:09Z</time></trkpt>
<trkpt lat="25.438566" lon="100.391907">
<time>2015-09-27T23:28:10Z</time></trkpt>
<trkpt lat="25.438396" lon="100.391837">
<time>2015-09-27T23:28:11Z</time></trkpt>
<trkpt lat="25.438246" lon="100.391747">
<time>2015-09-27T23:28:12Z</time></trkpt>
<trkpt lat="25.438116" lon="100.391617">
<time>2015-09-27T23:28:13Z</time></trkpt>
<trkpt lat="25.438006" lon="100.391467">
<time>2015-09-27T23:28:14Z</time></trkpt>
<trkpt lat="25.437936" lon="100.391298">
<time>2015-09-27T23:28:15Z</time></trkpt>
<trkpt lat="25.437916" lon="100.391098">
<time>2015-09-27T23:28:16Z</time></trkpt>
<trkpt lat="25.437936" lon="100.390878">
<time>2015-09-27T23:28:17Z</time></trkpt>
<trkpt lat="25.437976" lon="100.390648">
<time>2015-09-27T23:28:18Z</time></trkpt>
<trkpt lat="25.438016" lon="100.390418">
<time>2015-09-27T23:28:19Z</time></trkpt>
<trkpt lat="25.438036" lon="100.390198">
<time>2015-09-27T23:28:20Z</time></trkpt>
<trkpt lat="25.438006" lon="100.389978">
<time>2015-09-27T23:28:21Z</time></trkpt>
<trkpt lat="25.437916" lon="100.389789">
<time>2015-09-27T23:28:22Z</time></trkpt>
<trkpt lat="25.437777" lon="100.389639">
<time>2015-09-27T23:28:23Z</time></trkpt>
<trkpt lat="25.437597" lon="100.389539">
<time>2015-09-27T23:28:24Z</time></trkpt>
<trkpt lat="25.437437" lon="100.389469">
<time>2015-09-27T23:28:25Z</time></trkpt>
<trkpt lat="25.437267" lon="100.389379">
<time>2015-09-27T23:28:26Z</time></trkpt>
<trkpt lat="25.437107" lon="100.389279">
<time>2015-09-27T23:28:27Z</time></trkpt>
<trkpt lat="25.436937" lon="100.389199">
<time>2015-09-27T23:28:28Z</time></trkpt>
<trkpt lat="25.436777" lon="100.389139">
<time>2015-09-27T23:28:29Z</time></trkpt>
<trkpt lat="25.436606" lon="100.389109">
<time>2015-09-27T23:28:30Z</time></trkpt>
<trkpt lat="25.436446" lon="100.389079">
<time>2015-09-27T23:28:31Z</time></trkpt>
<trkpt lat="25.436286" lon="100.389079">
<time>2015-09-27T23:28:32Z</time></trkpt>
<trkpt lat="25.436136" lon="100.389049">
<time>2015-09-27T23:28:33Z</time></trkpt>
<trkpt lat="25.436016" lon="100.388949">
<time>2015-09-27T23:28:34Z</time></trkpt>
<trkpt lat="25.435947" lon="100.388789">
<time>2015-09-27T23:28:35Z</time></trkpt>
<trkpt lat="25.435947" lon="100.388569">
<time>2015-09-27T23:28:36Z</time></trkpt>
<trkpt lat="25.435957" lon="100.3884">
<time>2015-09-27T23:28:37Z</time></trkpt>
<trkpt lat="25.435987" lon="100.3882">
<time>2015-09-27T23:28:38Z</time></trkpt>
<trkpt lat="25.436027" lon="100.38797">
<time>2015-09-27T23:28:39Z</time></trkpt>
<trkpt lat="25.436047" lon="100.3879">
<time>2015-09-27T23:28:40Z</time></trkpt>
<trkpt lat="25.436087" lon="100.38774">
<time>2015-09-27T23:28:41Z</time></trkpt>
<trkpt lat="25.436147" lon="100.38748">
<time>2015-09-27T23:28:42Z</time></trkpt>
<trkpt lat="25.436227" lon="100.38722">
<time>2015-09-27T23:28:43Z</time></trkpt>
<trkpt lat="25.436308" lon="100.387001">
<time>2015-09-27T23:28:44Z</time></trkpt>
<trkpt lat="25.436348" lon="100.386771">
<time>2015-09-27T23:28:45Z</time></trkpt>
<trkpt lat="25.436318" lon="100.386561">
<time>2015-09-27T23:28:46Z</time></trkpt>
<trkpt lat="25.436228" lon="100.386451">
<time>2015-09-27T23:28:47Z</time></trkpt>
<trkpt lat="25.436098" lon="100.386381">
<time>2015-09-27T23:28:48Z</time></trkpt>
<trkpt lat="25.435948" lon="100.386401">
<time>2015-09-27T23:28:49Z</time></trkpt>
<trkpt lat="25.435808" lon="100.386461">
<time>2015-09-27T23:28:50Z</time></trkpt>
<trkpt lat="25.435678" lon="100.386521">
<time>2015-09-27T23:28:51Z</time></trkpt>
<trkpt lat="25.435548" lon="100.386611">
<time>2015-09-27T23:28:52Z</time></trkpt>
<trkpt lat="25.435398" lon="100.386741">
<time>2015-09-27T23:28:53Z</time></trkpt>
<trkpt lat="25.435217" lon="100.386911">
<time>2015-09-27T23:28:54Z</time></trkpt>
<trkpt lat="25.435047" lon="100.387071">
<time>2015-09-27T23:28:55Z</time></trkpt>
<trkpt lat="25.434947" lon="100.387171">
<time>2015-09-27T23:28:56Z</time></trkpt>
<trkpt lat="25.434887" lon="100.38723">
<time>2015-09-27T23:28:57Z</time></trkpt>
<trkpt lat="25.434717" lon="100.38739">
<time>2015-09-27T23:28:58Z</time></trkpt>
<trkpt lat="25.434547" lon="100.38756">
<time>2015-09-27T23:28:59Z</time></trkpt>
<trkpt lat="25.434357" lon="100.38772">
<time>2015-09-27T23:29:00Z</time></trkpt>
<trkpt lat="25.434177" lon="100.3879">
<time>2015-09-27T23:29:01Z</time></trkpt>
<trkpt lat="25.434006" lon="100.38808">
<time>2015-09-27T23:29:02Z</time></trkpt>
<trkpt lat="25.433856" lon="100.38827">
<time>2015-09-27T23:29:03Z</time></trkpt>
<trkpt lat="25.433686" lon="100.38843">
<time>2015-09-27T23:29:04Z</time></trkpt>
<trkpt lat="25.433536" lon="100.388589">
<time>2015-09-27T23:29:05Z</time></trkpt>
<trkpt lat="25.433376" lon="100.388689">
<time>2015-09-27T23:29:06Z</time></trkpt>
<trkpt lat="25.433236" lon="100.388729">
<time>2015-09-27T23:29:07Z</time></trkpt>
<trkpt lat="25.433066" lon="100.388689">
<time>2015-09-27T23:29:08Z</time></trkpt>
<trkpt lat="25.432976" lon="100.38856">
<time>2015-09-27T23:29:09Z</time></trkpt>
<trkpt lat="25.432946" lon="100.38841">
<time>2015-09-27T23:29:10Z</time></trkpt>
<trkpt lat="25.432936" lon="100.38824">
<time>2015-09-27T23:29:11Z</time></trkpt>
<trkpt lat="25.432936" lon="100.38804">
<time>2015-09-27T23:29:12Z</time></trkpt>
<trkpt lat="25.432956" lon="100.38783">
<time>2015-09-27T23:29:13Z</time></trkpt>
<trkpt lat="25.433016" lon="100.38762">
<time>2015-09-27T23:29:14Z</time></trkpt>
<trkpt lat="25.433077" lon="100.38742">
<time>2015-09-27T23:29:15Z</time></trkpt>
<trkpt lat="25.433137" lon="100.387211">
<time>2015-09-27T23:29:16Z</time></trkpt>
<trkpt lat="25.433197" lon="100.387001">
<time>2015-09-27T23:29:17Z</time></trkpt>
<trkpt lat="25.433257" lon="100.386821">
<time>2015-09-27T23:29:18Z</time></trkpt>
<trkpt lat="25.433297" lon="100.386661">
<time>2015-09-27T23:29:19Z</time></trkpt>
<trkpt lat="25.433357" lon="100.386491">
<time>2015-09-27T23:29:20Z</time></trkpt>
<trkpt lat="25.433407" lon="100.386311">
<time>2015-09-27T23:29:21Z</time></trkpt>
<trkpt lat="25.433457" lon="100.386131">
<time>2015-09-27T23:29:22Z</time></trkpt>
<trkpt lat="25.433508" lon="100.385942">
<time>2015-09-27T23:29:23Z</time></trkpt>
<trkpt lat="25.433548" lon="100.385762">
<time>2015-09-27T23:29:24Z</time></trkpt>
<trkpt lat="25.433588" lon="100.385582">
<time>2015-09-27T23:29:25Z</time></trkpt>
<trkpt lat="25.433618" lon="100.385402">
<time>2015-09-27T23:29:26Z</time></trkpt>
<trkpt lat="25.433638" lon="100.385232">
<time>2015-09-27T23:29:27Z</time></trkpt>
<trkpt lat="25.433608" lon="100.385062">
<time>2015-09-27T23:29:28Z</time></trkpt>
<trkpt lat="25.433548" lon="100.384912">
<time>2015-09-27T23:29:29Z</time></trkpt>
<trkpt lat="25.433428" lon="100.384853">
<time>2015-09-27T23:29:30Z</time></trkpt>
<trkpt lat="25.433338" lon="100.384733">
<time>2015-09-27T23:29:31Z</time></trkpt>
<trkpt lat="25.433278" lon="100.384593">
<time>2015-09-27T23:29:32Z</time></trkpt>
<trkpt lat="25.433269" lon="100.384433">
<time>2015-09-27T23:29:33Z</time></trkpt>
<trkpt lat="25.433269" lon="100.384323">
<time>2015-09-27T23:29:34Z</time></trkpt>
<trkpt lat="25.433169" lon="100.384183">
<time>2015-09-27T23:29:35Z</time></trkpt>
<trkpt lat="25.433109" lon="100.384163">
<time>2015-09-27T23:29:36Z</time></trkpt>
<trkpt lat="25.433029" lon="100.384143">
<time>2015-09-27T23:29:37Z</time></trkpt>
<trkpt lat="25.432859" lon="100.384183">
<time>2015-09-27T23:29:38Z</time></trkpt>
<trkpt lat="25.432718" lon="100.384293">
<time>2015-09-27T23:29:39Z</time></trkpt>
<trkpt lat="25.432578" lon="100.384433">
<time>2015-09-27T23:29:40Z</time></trkpt>
<trkpt lat="25.432448" lon="100.384573">
<time>2015-09-27T23:29:41Z</time></trkpt>
<trkpt lat="25.432288" lon="100.384703">
<time>2015-09-27T23:29:42Z</time></trkpt>
<trkpt lat="25.432108" lon="100.384823">
<time>2015-09-27T23:29:43Z</time></trkpt>
<trkpt lat="25.431928" lon="100.384922">
<time>2015-09-27T23:29:44Z</time></trkpt>
<trkpt lat="25.431748" lon="100.385042">
<time>2015-09-27T23:29:45Z</time></trkpt>
<trkpt lat="25.431578" lon="100.385142">
<time>2015-09-27T23:29:46Z</time></trkpt>
<trkpt lat="25.431408" lon="100.385212">
<time>2015-09-27T23:29:47Z</time></trkpt>
<trkpt lat="25.431238" lon="100.385192">
<time>2015-09-27T23:29:48Z</time></trkpt>
<trkpt lat="25.431068" lon="100.385102">
<time>2015-09-27T23:29:49Z</time></trkpt>
<trkpt lat="25.430958" lon="100.384982">
<time>2015-09-27T23:29:50Z</time></trkpt>
<trkpt lat="25.430878" lon="100.384813">
<time>2015-09-27T23:29:51Z</time></trkpt>
<trkpt lat="25.430838" lon="100.384643">
<time>2015-09-27T23:29:52Z</time></trkpt>
<trkpt lat="25.430838" lon="100.384463">
<time>2015-09-27T23:29:53Z</time></trkpt>
<trkpt lat="25.430878" lon="100.384323">
<time>2015-09-27T23:29:54Z</time></trkpt>
<trkpt lat="25.430928" lon="100.384183">
<time>2015-09-27T23:29:55Z</time></trkpt>
<trkpt lat="25.430978" lon="100.384063">
<time>2015-09-27T23:29:56Z</time></trkpt>
<trkpt lat="25.431028" lon="100.383923">
<time>2015-09-27T23:29:57Z</time></trkpt>
<trkpt lat="25.431068" lon="100.383784">
<time>2015-09-27T23:29:58Z</time></trkpt>
<trkpt lat="25.431099" lon="100.383654">
<time>2015-09-27T23:29:59Z</time></trkpt>
<trkpt lat="25.431119" lon="100.383574">
<time>2015-09-27T23:30:00Z</time></trkpt>
<trkpt lat="25.431149" lon="100.383464">
<time>2015-09-27T23:30:01Z</time></trkpt>
<trkpt lat="25.431139" lon="100.383334">
<time>2015-09-27T23:30:02Z</time></trkpt>
<trkpt lat="25.431089" lon="100.383224">
<time>2015-09-27T23:30:03Z</time></trkpt>
<trkpt lat="25.430979" lon="100.383134">
<time>2015-09-27T23:30:04Z</time></trkpt>
<trkpt lat="25.430849" lon="100.383124">
<time>2015-09-27T23:30:05Z</time></trkpt>
<trkpt lat="25.430689" lon="100.383174">
<time>2015-09-27T23:30:06Z</time></trkpt>
<trkpt lat="25.430539" lon="100.383254">
<time>2015-09-27T23:30:07Z</time></trkpt>
<trkpt lat="25.430389" lon="100.383344">
<time>2015-09-27T23:30:08Z</time></trkpt>
<trkpt lat="25.430239" lon="100.383434">
<time>2015-09-27T23:30:09Z</time></trkpt>
<trkpt lat="25.430088" lon="100.383524">
<time>2015-09-27T23:30:10Z</time></trkpt>
<trkpt lat="25.429928" lon="100.383594">
<time>2015-09-27T23:30:11Z</time></trkpt>
<trkpt lat="25.429758" lon="100.383654">
<time>2015-09-27T23:30:12Z</time></trkpt>
<trkpt lat="25.429588" lon="100.383684">
<time>2015-09-27T23:30:13Z</time></trkpt>
<trkpt lat="25.429418" lon="100.383694">
<time>2015-09-27T23:30:14Z</time></trkpt>
<trkpt lat="25.429268" lon="100.383704">
<time>2015-09-27T23:30:15Z</time></trkpt>
<trkpt lat="25.429068" lon="100.383684">
<time>2015-09-27T23:30:16Z</time></trkpt>
<trkpt lat="25.428918" lon="100.383654">
<time>2015-09-27T23:30:17Z</time></trkpt>
<trkpt lat="25.428748" lon="100.383674">
<time>2015-09-27T23:30:18Z</time></trkpt>
<trkpt lat="25.428638" lon="100.383684">
<time>2015-09-27T23:30:19Z</time></trkpt>
<trkpt lat="25.428528" lon="100.383704">
<time>2015-09-27T23:30:20Z</time></trkpt>
<trkpt lat="25.428428" lon="100.383744">
<time>2015-09-27T23:30:21Z</time></trkpt>
<trkpt lat="25.428328" lon="100.383784">
<time>2015-09-27T23:30:22Z</time></trkpt>
<trkpt lat="25.428218" lon="100.383824">
<time>2015-09-27T23:30:23Z</time></trkpt>
<trkpt lat="25.428118" lon="100.383854">
<time>2015-09-27T23:30:24Z</time></trkpt>
<trkpt lat="25.428018" lon="100.383874">
<time>2015-09-27T23:30:25Z</time></trkpt>
<trkpt lat="25.427918" lon="100.383884">
<time>2015-09-27T23:30:26Z</time></trkpt>
<trkpt lat="25.427838" lon="100.383854">
<time>2015-09-27T23:30:27Z</time></trkpt>
<trkpt lat="25.427768" lon="100.383814">
<time>2015-09-27T23:30:28Z</time></trkpt>
<trkpt lat="25.427698" lon="100.383754">
<time>2015-09-27T23:30:29Z</time></trkpt>
<trkpt lat="25.427648" lon="100.383664">
<time>2015-09-27T23:30:30Z</time></trkpt>
<trkpt lat="25.427618" lon="100.383504">
<time>2015-09-27T23:30:31Z</time></trkpt>
<trkpt lat="25.427678" lon="100.383364">
<time>2015-09-27T23:30:32Z</time></trkpt>
<trkpt lat="25.427718" lon="100.383294">
<time>2015-09-27T23:30:33Z</time></trkpt>
<trkpt lat="25.427798" lon="100.383204">
<time>2015-09-27T23:30:34Z</time></trkpt>
<trkpt lat="25.427908" lon="100.383104">
<time>2015-09-27T23:30:35Z</time></trkpt>
<trkpt lat="25.428008" lon="100.383014">
<time>2015-09-27T23:30:36Z</time></trkpt>
<trkpt lat="25.428118" lon="100.382924">
<time>2015-09-27T23:30:37Z</time></trkpt>
<trkpt lat="25.428219" lon="100.382805">
<time>2015-09-27T23:30:38Z</time></trkpt>
<trkpt lat="25.428349" lon="100.382705">
<time>2015-09-27T23:30:39Z</time></trkpt>
<trkpt lat="25.428479" lon="100.382605">
<time>2015-09-27T23:30:40Z</time></trkpt>
<trkpt lat="25.428599" lon="100.382475">
<time>2015-09-27T23:30:41Z</time></trkpt>
<trkpt lat="25.428719" lon="100.382355">
<time>2015-09-27T23:30:42Z</time></trkpt>
<trkpt lat="25.428829" lon="100.382235">
<time>2015-09-27T23:30:43Z</time></trkpt>
<trkpt lat="25.428899" lon="100.382115">
<time>2015-09-27T23:30:44Z</time></trkpt>
<trkpt lat="25.428999" lon="100.382005">
<time>2015-09-27T23:30:45Z</time></trkpt>
<trkpt lat="25.429079" lon="100.381875">
<time>2015-09-27T23:30:46Z</time></trkpt>
<trkpt lat="25.42919" lon="100.381776">
<time>2015-09-27T23:30:47Z</time></trkpt>
<trkpt lat="25.42931" lon="100.381666">
<time>2015-09-27T23:30:48Z</time></trkpt>
<trkpt lat="25.42944" lon="100.381556">
<time>2015-09-27T23:30:49Z</time></trkpt>
<trkpt lat="25.42959" lon="100.381446">
<time>2015-09-27T23:30:50Z</time></trkpt>
<trkpt lat="25.42973" lon="100.381326">
<time>2015-09-27T23:30:51Z</time></trkpt>
<trkpt lat="25.42986" lon="100.381186">
<time>2015-09-27T23:30:52Z</time></trkpt>
<trkpt lat="25.42998" lon="100.381036">
<time>2015-09-27T23:30:53Z</time></trkpt>
<trkpt lat="25.4301" lon="100.380876">
<time>2015-09-27T23:30:54Z</time></trkpt>
<trkpt lat="25.430231" lon="100.380717">
<time>2015-09-27T23:30:55Z</time></trkpt>
<trkpt lat="25.430381" lon="100.380587">
<time>2015-09-27T23:30:56Z</time></trkpt>
<trkpt lat="25.430551" lon="100.380487">
<time>2015-09-27T23:30:57Z</time></trkpt>
<trkpt lat="25.430721" lon="100.380397">
<time>2015-09-27T23:30:58Z</time></trkpt>
<trkpt lat="25.430791" lon="100.380377">
<time>2015-09-27T23:30:59Z</time></trkpt>
<trkpt lat="25.430901" lon="100.380327">
<time>2015-09-27T23:31:00Z</time></trkpt>
<trkpt lat="25.431081" lon="100.380267">
<time>2015-09-27T23:31:01Z</time></trkpt>
<trkpt lat="25.431251" lon="100.380187">
<time>2015-09-27T23:31:02Z</time></trkpt>
<trkpt lat="25.431421" lon="100.380097">
<time>2015-09-27T23:31:03Z</time></trkpt>
<trkpt lat="25.431572" lon="100.380007">
<time>2015-09-27T23:31:04Z</time></trkpt>
<trkpt lat="25.431722" lon="100.379877">
<time>2015-09-27T23:31:05Z</time></trkpt>
<trkpt lat="25.431862" lon="100.379758">
<time>2015-09-27T23:31:06Z</time></trkpt>
<trkpt lat="25.431872" lon="100.379748">
<time>2015-09-27T23:31:07Z</time></trkpt>
<trkpt lat="25.432022" lon="100.379618">
<time>2015-09-27T23:31:08Z</time></trkpt>
<trkpt lat="25.432142" lon="100.379518">
<time>2015-09-27T23:31:09Z</time></trkpt>
<trkpt lat="25.432262" lon="100.379428">
<time>2015-09-27T23:31:10Z</time></trkpt>
<trkpt lat="25.432372" lon="100.379318">
<time>2015-09-27T23:31:11Z</time></trkpt>
<trkpt lat="25.432492" lon="100.379228">
<time>2015-09-27T23:31:12Z</time></trkpt>
<trkpt lat="25.432623" lon="100.379118">
<time>2015-09-27T23:31:13Z</time></trkpt>
<trkpt lat="25.432753" lon="100.379028">
<time>2015-09-27T23:31:14Z</time></trkpt>
<trkpt lat="25.432873" lon="100.378948">
<time>2015-09-27T23:31:15Z</time></trkpt>
<trkpt lat="25.432983" lon="100.378879">
<time>2015-09-27T23:31:16Z</time></trkpt>
<trkpt lat="25.433083" lon="100.378809">
<time>2015-09-27T23:31:17Z</time></trkpt>
<trkpt lat="25.433183" lon="100.378749">
<time>2015-09-27T23:31:18Z</time></trkpt>
<trkpt lat="25.433303" lon="100.378669">
<time>2015-09-27T23:31:19Z</time></trkpt>
<trkpt lat="25.433423" lon="100.378579">
<time>2015-09-27T23:31:20Z</time></trkpt>
<trkpt lat="25.433543" lon="100.378489">
<time>2015-09-27T23:31:21Z</time></trkpt>
<trkpt lat="25.433683" lon="100.378389">
<time>2015-09-27T23:31:22Z</time></trkpt>
<trkpt lat="25.433824" lon="100.378289">
<time>2015-09-27T23:31:23Z</time></trkpt>
<trkpt lat="25.433974" lon="100.378159">
<time>2015-09-27T23:31:24Z</time></trkpt>
<trkpt lat="25.434124" lon="100.378">
<time>2015-09-27T23:31:25Z</time></trkpt>
<trkpt lat="25.434294" lon="100.37784">
<time>2015-09-27T23:31:26Z</time></trkpt>
<trkpt lat="25.434474" lon="100.37768">
<time>2015-09-27T23:31:27Z</time></trkpt>
<trkpt lat="25.434665" lon="100.3775">
<time>2015-09-27T23:31:28Z</time></trkpt>
<trkpt lat="25.434845" lon="100.37729">
<time>2015-09-27T23:31:29Z</time></trkpt>
<trkpt lat="25.435045" lon="100.377101">
<time>2015-09-27T23:31:30Z</time></trkpt>
<trkpt lat="25.435265" lon="100.376931">
<time>2015-09-27T23:31:31Z</time></trkpt>
<trkpt lat="25.435455" lon="100.376751">
<time>2015-09-27T23:31:32Z</time></trkpt>
<trkpt lat="25.435666" lon="100.376551">
<time>2015-09-27T23:31:33Z</time></trkpt>
<trkpt lat="25.435846" lon="100.376312">
<time>2015-09-27T23:31:34Z</time></trkpt>
<trkpt lat="25.436006" lon="100.376112">
<time>2015-09-27T23:31:35Z</time></trkpt>
<trkpt lat="25.436186" lon="100.375942">
<time>2015-09-27T23:31:36Z</time></trkpt>
<trkpt lat="25.436327" lon="100.375742">
<time>2015-09-27T23:31:37Z</time></trkpt>
<trkpt lat="25.436457" lon="100.375552">
<time>2015-09-27T23:31:38Z</time></trkpt>
<trkpt lat="25.436567" lon="100.375373">
<time>2015-09-27T23:31:39Z</time></trkpt>
<trkpt lat="25.436667" lon="100.375193">
<time>2015-09-27T23:31:40Z</time></trkpt>
<trkpt lat="25.436777" lon="100.375053">
<time>2015-09-27T23:31:41Z</time></trkpt>
<trkpt lat="25.436807" lon="100.375023">
<time>2015-09-27T23:31:42Z</time></trkpt>
<trkpt lat="25.436918" lon="100.374963">
<time>2015-09-27T23:31:43Z</time></trkpt>
<trkpt lat="25.437078" lon="100.374953">
<time>2015-09-27T23:31:44Z</time></trkpt>
<trkpt lat="25.437218" lon="100.375023">
<time>2015-09-27T23:31:45Z</time></trkpt>
<trkpt lat="25.437358" lon="100.375093">
<time>2015-09-27T23:31:46Z</time></trkpt>
<trkpt lat="25.437497" lon="100.375183">
<time>2015-09-27T23:31:47Z</time></trkpt>
<trkpt lat="25.437637" lon="100.375263">
<time>2015-09-27T23:31:48Z</time></trkpt>
<trkpt lat="25.437787" lon="100.375343">
<time>2015-09-27T23:31:49Z</time></trkpt>
<trkpt lat="25.437937" lon="100.375393">
<time>2015-09-27T23:31:50Z</time></trkpt>
<trkpt lat="25.438077" lon="100.375413">
<time>2015-09-27T23:31:51Z</time></trkpt>
<trkpt lat="25.438207" lon="100.375393">
<time>2015-09-27T23:31:52Z</time></trkpt>
<trkpt lat="25.438317" lon="100.375353">
<time>2015-09-27T23:31:53Z</time></trkpt>
<trkpt lat="25.438428" lon="100.375273">
<time>2015-09-27T23:31:54Z</time></trkpt>
<trkpt lat="25.438578" lon="100.375193">
<time>2015-09-27T23:31:55Z</time></trkpt>
<trkpt lat="25.438688" lon="100.375103">
<time>2015-09-27T23:31:56Z</time></trkpt>
<trkpt lat="25.438798" lon="100.375023">
<time>2015-09-27T23:31:57Z</time></trkpt>
<trkpt lat="25.438898" lon="100.374953">
<time>2015-09-27T23:31:58Z</time></trkpt>
<trkpt lat="25.438998" lon="100.374893">
<time>2015-09-27T23:31:59Z</time></trkpt>
<trkpt lat="25.439078" lon="100.374833">
<time>2015-09-27T23:32:00Z</time></trkpt>
<trkpt lat="25.439178" lon="100.374763">
<time>2015-09-27T23:32:01Z</time></trkpt>
<trkpt lat="25.439278" lon="100.374683">
<time>2015-09-27T23:32:02Z</time></trkpt>
<trkpt lat="25.439379" lon="100.374594">
<time>2015-09-27T23:32:03Z</time></trkpt>
<trkpt lat="25.439469" lon="100.374484">
<time>2015-09-27T23:32:04Z</time></trkpt>
<trkpt lat="25.439529" lon="100.374364">
<time>2015-09-27T23:32:05Z</time></trkpt>
<trkpt lat="25.439579" lon="100.374234">
<time>2015-09-27T23:32:06Z</time></trkpt>
<trkpt lat="25.439629" lon="100.374104">
<time>2015-09-27T23:32:07Z</time></trkpt>
<trkpt lat="25.439689" lon="100.373964">
<time>2015-09-27T23:32:08Z</time></trkpt>
<trkpt lat="25.439759" lon="100.373835">
<time>2015-09-27T23:32:09Z</time></trkpt>
<trkpt lat="25.43984" lon="100.373695">
<time>2015-09-27T23:32:10Z</time></trkpt>
<trkpt lat="25.43993" lon="100.373525">
<time>2015-09-27T23:32:11Z</time></trkpt>
<trkpt lat="25.44004" lon="100.373415">
<time>2015-09-27T23:32:12Z</time></trkpt>
<trkpt lat="25.44018" lon="100.373315">
<time>2015-09-27T23:32:13Z</time></trkpt>
<trkpt lat="25.44033" lon="100.373165">
<time>2015-09-27T23:32:14Z</time></trkpt>
<trkpt lat="25.44047" lon="100.373056">
<time>2015-09-27T23:32:15Z</time></trkpt>
<trkpt lat="25.440631" lon="100.372936">
<time>2015-09-27T23:32:16Z</time></trkpt>
<trkpt lat="25.440741" lon="100.372826">
<time>2015-09-27T23:32:17Z</time></trkpt>
<trkpt lat="25.440841" lon="100.372696">
<time>2015-09-27T23:32:18Z</time></trkpt>
<trkpt lat="25.440931" lon="100.372606">
<time>2015-09-27T23:32:19Z</time></trkpt>
<trkpt lat="25.441031" lon="100.372506">
<time>2015-09-27T23:32:20Z</time></trkpt>
<trkpt lat="25.441151" lon="100.372426">
<time>2015-09-27T23:32:21Z</time></trkpt>
<trkpt lat="25.441261" lon="100.372337">
<time>2015-09-27T23:32:22Z</time></trkpt>
<trkpt lat="25.441352" lon="100.372237">
<time>2015-09-27T23:32:23Z</time></trkpt>
<trkpt lat="25.441432" lon="100.372147">
<time>2015-09-27T23:32:24Z</time></trkpt>
<trkpt lat="25.441492" lon="100.372057">
<time>2015-09-27T23:32:25Z</time></trkpt>
<trkpt lat="25.441552" lon="100.371977">
<time>2015-09-27T23:32:26Z</time></trkpt>
<trkpt lat="25.441632" lon="100.371897">
<time>2015-09-27T23:32:27Z</time></trkpt>
<trkpt lat="25.441722" lon="100.371787">
<time>2015-09-27T23:32:28Z</time></trkpt>
<trkpt lat="25.441822" lon="100.371677">
<time>2015-09-27T23:32:29Z</time></trkpt>
<trkpt lat="25.441922" lon="100.371568">
<time>2015-09-27T23:32:30Z</time></trkpt>
<trkpt lat="25.441963" lon="100.371448">
<time>2015-09-27T23:32:31Z</time></trkpt>
<trkpt lat="25.441953" lon="100.371328">
<time>2015-09-27T23:32:32Z</time></trkpt>
<trkpt lat="25.441943" lon="100.371208">
<time>2015-09-27T23:32:33Z</time></trkpt>
<trkpt lat="25.441853" lon="100.371078">
<time>2015-09-27T23:32:34Z</time></trkpt>
<trkpt lat="25.441703" lon="100.371018">
<time>2015-09-27T23:32:35Z</time></trkpt>
<trkpt lat="25.441553" lon="100.371018">
<time>2015-09-27T23:32:36Z</time></trkpt>
<trkpt lat="25.441383" lon="100.371038">
<time>2015-09-27T23:32:37Z</time></trkpt>
<trkpt lat="25.441293" lon="100.371048">
<time>2015-09-27T23:32:38Z</time></trkpt>
<trkpt lat="25.441133" lon="100.371028">
<time>2015-09-27T23:32:39Z</time></trkpt>
<trkpt lat="25.440993" lon="100.371018">
<time>2015-09-27T23:32:40Z</time></trkpt>
<trkpt lat="25.440843" lon="100.371018">
<time>2015-09-27T23:32:41Z</time></trkpt>
<trkpt lat="25.440723" lon="100.371008">
<time>2015-09-27T23:32:42Z</time></trkpt>
<trkpt lat="25.440593" lon="100.371018">
<time>2015-09-27T23:32:43Z</time></trkpt>
<trkpt lat="25.440453" lon="100.370998">
<time>2015-09-27T23:32:44Z</time></trkpt>
<trkpt lat="25.440323" lon="100.370988">
<time>2015-09-27T23:32:45Z</time></trkpt>
<trkpt lat="25.440193" lon="100.370968">
<time>2015-09-27T23:32:46Z</time></trkpt>
<trkpt lat="25.440063" lon="100.370919">
<time>2015-09-27T23:32:47Z</time></trkpt>
<trkpt lat="25.439923" lon="100.370859">
<time>2015-09-27T23:32:48Z</time></trkpt>
<trkpt lat="25.439803" lon="100.370829">
<time>2015-09-27T23:32:49Z</time></trkpt>
<trkpt lat="25.439663" lon="100.370769">
<time>2015-09-27T23:32:50Z</time></trkpt>
<trkpt lat="25.439623" lon="100.370759">
<time>2015-09-27T23:32:51Z</time></trkpt>
<trkpt lat="25.439513" lon="100.370719">
<time>2015-09-27T23:32:52Z</time></trkpt>
<trkpt lat="25.439403" lon="100.370649">
<time>2015-09-27T23:32:53Z</time></trkpt>
<trkpt lat="25.439243" lon="100.370559">
<time>2015-09-27T23:32:54Z</time></trkpt>
<trkpt lat="25.439093" lon="100.370459">
<time>2015-09-27T23:32:55Z</time></trkpt>
<trkpt lat="25.438943" lon="100.370379">
<time>2015-09-27T23:32:56Z</time></trkpt>
<trkpt lat="25.438803" lon="100.370329">
<time>2015-09-27T23:32:57Z</time></trkpt>
<trkpt lat="25.438663" lon="100.37024">
<time>2015-09-27T23:32:58Z</time></trkpt>
<trkpt lat="25.438543" lon="100.37018">
<time>2015-09-27T23:32:59Z</time></trkpt>
<trkpt lat="25.438443" lon="100.37012">
<time>2015-09-27T23:33:00Z</time></trkpt>
<trkpt lat="25.438333" lon="100.37007">
<time>2015-09-27T23:33:01Z</time></trkpt>
<trkpt lat="25.438233" lon="100.37001">
<time>2015-09-27T23:33:02Z</time></trkpt>
<trkpt lat="25.438123" lon="100.36996">
<time>2015-09-27T23:33:03Z</time></trkpt>
<trkpt lat="25.438013" lon="100.36992">
<time>2015-09-27T23:33:04Z</time></trkpt>
<trkpt lat="25.437914" lon="100.36986">
<time>2015-09-27T23:33:05Z</time></trkpt>
<trkpt lat="25.437804" lon="100.36979">
<time>2015-09-27T23:33:06Z</time></trkpt>
<trkpt lat="25.437704" lon="100.36969">
<time>2015-09-27T23:33:07Z</time></trkpt>
<trkpt lat="25.437614" lon="100.369561">
<time>2015-09-27T23:33:08Z</time></trkpt>
<trkpt lat="25.437524" lon="100.369431">
<time>2015-09-27T23:33:09Z</time></trkpt>
<trkpt lat="25.437424" lon="100.369281">
<time>2015-09-27T23:33:10Z</time></trkpt>
<trkpt lat="25.437324" lon="100.369141">
<time>2015-09-27T23:33:11Z</time></trkpt>
<trkpt lat="25.437224" lon="100.369001">
<time>2015-09-27T23:33:12Z</time></trkpt>
<trkpt lat="25.437165" lon="100.368842">
<time>2015-09-27T23:33:13Z</time></trkpt>
<trkpt lat="25.437145" lon="100.368672">
<time>2015-09-27T23:33:14Z</time></trkpt>
<trkpt lat="25.437175" lon="100.368502">
<time>2015-09-27T23:33:15Z</time></trkpt>
<trkpt lat="25.437215" lon="100.368372">
<time>2015-09-27T23:33:16Z</time></trkpt>
<trkpt lat="25.437285" lon="100.368223">
<time>2015-09-27T23:33:17Z</time></trkpt>
<trkpt lat="25.437366" lon="100.368073">
<time>2015-09-27T23:33:18Z</time></trkpt>
<trkpt lat="25.437456" lon="100.367943">
<time>2015-09-27T23:33:19Z</time></trkpt>
<trkpt lat="25.437556" lon="100.367803">
<time>2015-09-27T23:33:20Z</time></trkpt>
<trkpt lat="25.437646" lon="100.367663">
<time>2015-09-27T23:33:21Z</time></trkpt>
<trkpt lat="25.437706" lon="100.367524">
<time>2015-09-27T23:33:22Z</time></trkpt>
<trkpt lat="25.437727" lon="100.367354">
<time>2015-09-27T23:33:23Z</time></trkpt>
<trkpt lat="25.437687" lon="100.367174">
<time>2015-09-27T23:33:24Z</time></trkpt>
<trkpt lat="25.437627" lon="100.367004">
<time>2015-09-27T23:33:25Z</time></trkpt>
<trkpt lat="25.437567" lon="100.366835">
<time>2015-09-27T23:33:26Z</time></trkpt>
<trkpt lat="25.437537" lon="100.366665">
<time>2015-09-27T23:33:27Z</time></trkpt>
<trkpt lat="25.437558" lon="100.366575">
<time>2015-09-27T23:33:28Z</time></trkpt>
<trkpt lat="25.437568" lon="100.366495">
<time>2015-09-27T23:33:29Z</time></trkpt>
<trkpt lat="25.437658" lon="100.366325">
<time>2015-09-27T23:33:30Z</time></trkpt>
<trkpt lat="25.437768" lon="100.366196">
<time>2015-09-27T23:33:31Z</time></trkpt>
<trkpt lat="25.437888" lon="100.366086">
<time>2015-09-27T23:33:32Z</time></trkpt>
<trkpt lat="25.438018" lon="100.365976">
<time>2015-09-27T23:33:33Z</time></trkpt>
<trkpt lat="25.438139" lon="100.365876">
<time>2015-09-27T23:33:34Z</time></trkpt>
<trkpt lat="25.438239" lon="100.365776">
<time>2015-09-27T23:33:35Z</time></trkpt>
<trkpt lat="25.438339" lon="100.365677">
<time>2015-09-27T23:33:36Z</time></trkpt>
<trkpt lat="25.438459" lon="100.365587">
<time>2015-09-27T23:33:37Z</time></trkpt>
<trkpt lat="25.438579" lon="100.365507">
<time>2015-09-27T23:33:38Z</time></trkpt>
<trkpt lat="25.438699" lon="100.365467">
<time>2015-09-27T23:33:39Z</time></trkpt>
<trkpt lat="25.438829" lon="100.365447">
<time>2015-09-27T23:33:40Z</time></trkpt>
<trkpt lat="25.438969" lon="100.365437">
<time>2015-09-27T23:33:41Z</time></trkpt>
<trkpt lat="25.439089" lon="100.365437">
<time>2015-09-27T23:33:42Z</time></trkpt>
<trkpt lat="25.439189" lon="100.365437">
<time>2015-09-27T23:33:43Z</time></trkpt>
<trkpt lat="25.43931" lon="100.365417">
<time>2015-09-27T23:33:44Z</time></trkpt>
<trkpt lat="25.43943" lon="100.365357">
<time>2015-09-27T23:33:45Z</time></trkpt>
<trkpt lat="25.43955" lon="100.365297">
<time>2015-09-27T23:33:46Z</time></trkpt>
<trkpt lat="25.43969" lon="100.365197">
<time>2015-09-27T23:33:47Z</time></trkpt>
<trkpt lat="25.43981" lon="100.365117">
<time>2015-09-27T23:33:48Z</time></trkpt>
<trkpt lat="25.43995" lon="100.365018">
<time>2015-09-27T23:33:49Z</time></trkpt>
<trkpt lat="25.44009" lon="100.364928">
<time>2015-09-27T23:33:50Z</time></trkpt>
<trkpt lat="25.440221" lon="100.364818">
<time>2015-09-27T23:33:51Z</time></trkpt>
<trkpt lat="25.440331" lon="100.364748">
<time>2015-09-27T23:33:52Z</time></trkpt>
<trkpt lat="25.440421" lon="100.364638">
<time>2015-09-27T23:33:53Z</time></trkpt>
<trkpt lat="25.440501" lon="100.364518">
<time>2015-09-27T23:33:54Z</time></trkpt>
<trkpt lat="25.440591" lon="100.364408">
<time>2015-09-27T23:33:55Z</time></trkpt>
<trkpt lat="25.440661" lon="100.364279">
<time>2015-09-27T23:33:56Z</time></trkpt>
<trkpt lat="25.440752" lon="100.364179">
<time>2015-09-27T23:33:57Z</time></trkpt>
<trkpt lat="25.440852" lon="100.364079">
<time>2015-09-27T23:33:58Z</time></trkpt>
<trkpt lat="25.440982" lon="100.364009">
<time>2015-09-27T23:33:59Z</time></trkpt>
<trkpt lat="25.441142" lon="100.363899">
<time>2015-09-27T23:34:00Z</time></trkpt>
<trkpt lat="25.441292" lon="100.363809">
<time>2015-09-27T23:34:01Z</time></trkpt>
<trkpt lat="25.441432" lon="100.36372">
<time>2015-09-27T23:34:02Z</time></trkpt>
<trkpt lat="25.441592" lon="100.36364">
<time>2015-09-27T23:34:03Z</time></trkpt>
<trkpt lat="25.441743" lon="100.36352">
<time>2015-09-27T23:34:04Z</time></trkpt>
<trkpt lat="25.441893" lon="100.36338">
<time>2015-09-27T23:34:05Z</time></trkpt>
<trkpt lat="25.442043" lon="100.36325">
<time>2015-09-27T23:34:06Z</time></trkpt>
<trkpt lat="25.442183" lon="100.363131">
<time>2015-09-27T23:34:07Z</time></trkpt>
<trkpt lat="25.442304" lon="100.362991">
<time>2015-09-27T23:34:08Z</time></trkpt>
<trkpt lat="25.442444" lon="100.362871">
<time>2015-09-27T23:34:09Z</time></trkpt>
<trkpt lat="25.442624" lon="100.362741">
<time>2015-09-27T23:34:10Z</time></trkpt>
<trkpt lat="25.442804" lon="100.362621">
<time>2015-09-27T23:34:11Z</time></trkpt>
<trkpt lat="25.442974" lon="100.362502">
<time>2015-09-27T23:34:12Z</time></trkpt>
<trkpt lat="25.443215" lon="100.362412">
<time>2015-09-27T23:34:13Z</time></trkpt>
<trkpt lat="25.443355" lon="100.362382">
<time>2015-09-27T23:34:14Z</time></trkpt>
<trkpt lat="25.443485" lon="100.362342">
<time>2015-09-27T23:34:15Z</time></trkpt>
<trkpt lat="25.443615" lon="100.362312">
<time>2015-09-27T23:34:16Z</time></trkpt>
<trkpt lat="25.443755" lon="100.362262">
<time>2015-09-27T23:34:17Z</time></trkpt>
<trkpt lat="25.443905" lon="100.362252">
<time>2015-09-27T23:34:18Z</time></trkpt>
<trkpt lat="25.444065" lon="100.362222">
<time>2015-09-27T23:34:19Z</time></trkpt>
<trkpt lat="25.444195" lon="100.362222">
<time>2015-09-27T23:34:20Z</time></trkpt>
<trkpt lat="25.444295" lon="100.362252">
<time>2015-09-27T23:34:21Z</time></trkpt>
<trkpt lat="25.444425" lon="100.362272">
<time>2015-09-27T23:34:22Z</time></trkpt>
<trkpt lat="25.444545" lon="100.362282">
<time>2015-09-27T23:34:23Z</time></trkpt>
<trkpt lat="25.444665" lon="100.362282">
<time>2015-09-27T23:34:24Z</time></trkpt>
<trkpt lat="25.444775" lon="100.362282">
<time>2015-09-27T23:34:25Z</time></trkpt>
<trkpt lat="25.444875" lon="100.362282">
<time>2015-09-27T23:34:26Z</time></trkpt>
<trkpt lat="25.445025" lon="100.362282">
<time>2015-09-27T23:34:27Z</time></trkpt>
<trkpt lat="25.445175" lon="100.362232">
<time>2015-09-27T23:34:28Z</time></trkpt>
<trkpt lat="25.445295" lon="100.362212">
<time>2015-09-27T23:34:29Z</time></trkpt>
<trkpt lat="25.445395" lon="100.362202">
<time>2015-09-27T23:34:30Z</time></trkpt>
<trkpt lat="25.445495" lon="100.362212">
<time>2015-09-27T23:34:31Z</time></trkpt>
<trkpt lat="25.445605" lon="100.362222">
<time>2015-09-27T23:34:32Z</time></trkpt>
<trkpt lat="25.445725" lon="100.362252">
<time>2015-09-27T23:34:33Z</time></trkpt>
<trkpt lat="25.445845" lon="100.362282">
<time>2015-09-27T23:34:34Z</time></trkpt>
<trkpt lat="25.445965" lon="100.362282">
<time>2015-09-27T23:34:35Z</time></trkpt>
<trkpt lat="25.446106" lon="100.362272">
<time>2015-09-27T23:34:36Z</time></trkpt>
<trkpt lat="25.446236" lon="100.362212">
<time>2015-09-27T23:34:37Z</time></trkpt>
<trkpt lat="25.446356" lon="100.362122">
<time>2015-09-27T23:34:38Z</time></trkpt>
<trkpt lat="25.446466" lon="100.362032">
<time>2015-09-27T23:34:39Z</time></trkpt>
<trkpt lat="25.446586" lon="100.361962">
<time>2015-09-27T23:34:40Z</time></trkpt>
<trkpt lat="25.446686" lon="100.361893">
<time>2015-09-27T23:34:41Z</time></trkpt>
<trkpt lat="25.446786" lon="100.361813">
<time>2015-09-27T23:34:42Z</time></trkpt>
<trkpt lat="25.446886" lon="100.361733">
<time>2015-09-27T23:34:43Z</time></trkpt>
<trkpt lat="25.446967" lon="100.361653">
<time>2015-09-27T23:34:44Z</time></trkpt>
<trkpt lat="25.447077" lon="100.361583">
<time>2015-09-27T23:34:45Z</time></trkpt>
<trkpt lat="25.447147" lon="100.361533">
<time>2015-09-27T23:34:46Z</time></trkpt>
<trkpt lat="25.447257" lon="100.361473">
<time>2015-09-27T23:34:47Z</time></trkpt>
<trkpt lat="25.447367" lon="100.361423">
<time>2015-09-27T23:34:48Z</time></trkpt>
<trkpt lat="25.447487" lon="100.361343">
<time>2015-09-27T23:34:49Z</time></trkpt>
<trkpt lat="25.447597" lon="100.361284">
<time>2015-09-27T23:34:50Z</time></trkpt>
<trkpt lat="25.447707" lon="100.361224">
<time>2015-09-27T23:34:51Z</time></trkpt>
<trkpt lat="25.447858" lon="100.361154">
<time>2015-09-27T23:34:52Z</time></trkpt>
<trkpt lat="25.447948" lon="100.361124">
<time>2015-09-27T23:34:53Z</time></trkpt>
<trkpt lat="25.448038" lon="100.361084">
<time>2015-09-27T23:34:54Z</time></trkpt>
<trkpt lat="25.448138" lon="100.361054">
<time>2015-09-27T23:34:55Z</time></trkpt>
<trkpt lat="25.448228" lon="100.361014">
<time>2015-09-27T23:34:56Z</time></trkpt>
<trkpt lat="25.448318" lon="100.360984">
<time>2015-09-27T23:34:57Z</time></trkpt>
<trkpt lat="25.448408" lon="100.360954">
<time>2015-09-27T23:34:58Z</time></trkpt>
<trkpt lat="25.448498" lon="100.360914">
<time>2015-09-27T23:34:59Z</time></trkpt>
<trkpt lat="25.448608" lon="100.360854">
<time>2015-09-27T23:35:00Z</time></trkpt>
<trkpt lat="25.448768" lon="100.360764">
<time>2015-09-27T23:35:01Z</time></trkpt>
<trkpt lat="25.448858" lon="100.360734">
<time>2015-09-27T23:35:02Z</time></trkpt>
<trkpt lat="25.449019" lon="100.360655">
<time>2015-09-27T23:35:03Z</time></trkpt>
<trkpt lat="25.449169" lon="100.360565">
<time>2015-09-27T23:35:04Z</time></trkpt>
<trkpt lat="25.449309" lon="100.360505">
<time>2015-09-27T23:35:05Z</time></trkpt>
<trkpt lat="25.449469" lon="100.360435">
<time>2015-09-27T23:35:06Z</time></trkpt>
<trkpt lat="25.449629" lon="100.360335">
<time>2015-09-27T23:35:07Z</time></trkpt>
<trkpt lat="25.449719" lon="100.360275">
<time>2015-09-27T23:35:08Z</time></trkpt>
<trkpt lat="25.449799" lon="100.360215">
<time>2015-09-27T23:35:09Z</time></trkpt>
<trkpt lat="25.44988" lon="100.360155">
<time>2015-09-27T23:35:10Z</time></trkpt>
<trkpt lat="25.45001" lon="100.360056">
<time>2015-09-27T23:35:11Z</time></trkpt>
<trkpt lat="25.45017" lon="100.359936">
<time>2015-09-27T23:35:12Z</time></trkpt>
<trkpt lat="25.45026" lon="100.359896">
<time>2015-09-27T23:35:13Z</time></trkpt>
<trkpt lat="25.45035" lon="100.359856">
<time>2015-09-27T23:35:14Z</time></trkpt>
<trkpt lat="25.45044" lon="100.359816">
<time>2015-09-27T23:35:15Z</time></trkpt>
<trkpt lat="25.45053" lon="100.359776">
<time>2015-09-27T23:35:16Z</time></trkpt>
<trkpt lat="25.45061" lon="100.359746">
<time>2015-09-27T23:35:17Z</time></trkpt>
<trkpt lat="25.4507" lon="100.359706">
<time>2015-09-27T23:35:18Z</time></trkpt>
<trkpt lat="25.450791" lon="100.359666">
<time>2015-09-27T23:35:19Z</time></trkpt>
<trkpt lat="25.450871" lon="100.359636">
<time>2015-09-27T23:35:20Z</time></trkpt>
<trkpt lat="25.451031" lon="100.359537">
<time>2015-09-27T23:35:21Z</time></trkpt>
<trkpt lat="25.451191" lon="100.359477">
<time>2015-09-27T23:35:22Z</time></trkpt>
<trkpt lat="25.451331" lon="100.359417">
<time>2015-09-27T23:35:23Z</time></trkpt>
<trkpt lat="25.451441" lon="100.359377">
<time>2015-09-27T23:35:24Z</time></trkpt>
<trkpt lat="25.451551" lon="100.359317">
<time>2015-09-27T23:35:25Z</time></trkpt>
<trkpt lat="25.451651" lon="100.359257">
<time>2015-09-27T23:35:26Z</time></trkpt>
<trkpt lat="25.451771" lon="100.359177">
<time>2015-09-27T23:35:27Z</time></trkpt>
<trkpt lat="25.451852" lon="100.359117">
<time>2015-09-27T23:35:28Z</time></trkpt>
<trkpt lat="25.451962" lon="100.359047">
<time>2015-09-27T23:35:29Z</time></trkpt>
<trkpt lat="25.452072" lon="100.358958">
<time>2015-09-27T23:35:30Z</time></trkpt>
<trkpt lat="25.452192" lon="100.358868">
<time>2015-09-27T23:35:31Z</time></trkpt>
<trkpt lat="25.452312" lon="100.358788">
<time>2015-09-27T23:35:32Z</time></trkpt>
<trkpt lat="25.452432" lon="100.358718">
<time>2015-09-27T23:35:33Z</time></trkpt>
<trkpt lat="25.452542" lon="100.358658">
<time>2015-09-27T23:35:34Z</time></trkpt>
<trkpt lat="25.452663" lon="100.358598">
<time>2015-09-27T23:35:35Z</time></trkpt>
<trkpt lat="25.452803" lon="100.358548">
<time>2015-09-27T23:35:36Z</time></trkpt>
<trkpt lat="25.452953" lon="100.358508">
<time>2015-09-27T23:35:37Z</time></trkpt>
<trkpt lat="25.453123" lon="100.358468">
<time>2015-09-27T23:35:38Z</time></trkpt>
<trkpt lat="25.453283" lon="100.358428">
<time>2015-09-27T23:35:39Z</time></trkpt>
<trkpt lat="25.453433" lon="100.358359">
<time>2015-09-27T23:35:40Z</time></trkpt>
<trkpt lat="25.453583" lon="100.358249">
<time>2015-09-27T23:35:41Z</time></trkpt>
<trkpt lat="25.453724" lon="100.358109">
<time>2015-09-27T23:35:42Z</time></trkpt>
<trkpt lat="25.453914" lon="100.357949">
<time>2015-09-27T23:35:43Z</time></trkpt>
<trkpt lat="25.454084" lon="100.35778">
<time>2015-09-27T23:35:44Z</time></trkpt>
<trkpt lat="25.454264" lon="100.35763">
<time>2015-09-27T23:35:45Z</time></trkpt>
<trkpt lat="25.454515" lon="100.3575">
<time>2015-09-27T23:35:46Z</time></trkpt>
<trkpt lat="25.454705" lon="100.3574">
<time>2015-09-27T23:35:47Z</time></trkpt>
<trkpt lat="25.454935" lon="100.35735">
<time>2015-09-27T23:35:48Z</time></trkpt>
<trkpt lat="25.455195" lon="100.357251">
<time>2015-09-27T23:35:49Z</time></trkpt>
<trkpt lat="25.455406" lon="100.357171">
<time>2015-09-27T23:35:50Z</time></trkpt>
<trkpt lat="25.455616" lon="100.357081">
<time>2015-09-27T23:35:51Z</time></trkpt>
<trkpt lat="25.455796" lon="100.356971">
<time>2015-09-27T23:35:52Z</time></trkpt>
<trkpt lat="25.455956" lon="100.356851">
<time>2015-09-27T23:35:53Z</time></trkpt>
<trkpt lat="25.456146" lon="100.356781">
<time>2015-09-27T23:35:54Z</time></trkpt>
<trkpt lat="25.456286" lon="100.356721">
<time>2015-09-27T23:35:55Z</time></trkpt>
<trkpt lat="25.456387" lon="100.356682">
<time>2015-09-27T23:35:56Z</time></trkpt>
<trkpt lat="25.456477" lon="100.356642">
<time>2015-09-27T23:35:57Z</time></trkpt>
<trkpt lat="25.456587" lon="100.356562">
<time>2015-09-27T23:35:58Z</time></trkpt>
<trkpt lat="25.456647" lon="100.356522">
<time>2015-09-27T23:35:59Z</time></trkpt>
<trkpt lat="25.456677" lon="100.356502">
<time>2015-09-27T23:36:00Z</time></trkpt>
<trkpt lat="25.456767" lon="100.356402">
<time>2015-09-27T23:36:01Z</time></trkpt>
<trkpt lat="25.456867" lon="100.356272">
<time>2015-09-27T23:36:02Z</time></trkpt>
<trkpt lat="25.456968" lon="100.356123">
<time>2015-09-27T23:36:03Z</time></trkpt>
<trkpt lat="25.457038" lon="100.355943">
<time>2015-09-27T23:36:04Z</time></trkpt>
<trkpt lat="25.457128" lon="100.355773">
<time>2015-09-27T23:36:05Z</time></trkpt>
<trkpt lat="25.457238" lon="100.355614">
<time>2015-09-27T23:36:06Z</time></trkpt>
<trkpt lat="25.457379" lon="100.355484">
<time>2015-09-27T23:36:07Z</time></trkpt>
<trkpt lat="25.457499" lon="100.355404">
<time>2015-09-27T23:36:08Z</time></trkpt>
<trkpt lat="25.457649" lon="100.355294">
<time>2015-09-27T23:36:09Z</time></trkpt>
<trkpt lat="25.457759" lon="100.355224">
<time>2015-09-27T23:36:10Z</time></trkpt>
<trkpt lat="25.457899" lon="100.355164">
<time>2015-09-27T23:36:11Z</time></trkpt>
<trkpt lat="25.458059" lon="100.355104">
<time>2015-09-27T23:36:12Z</time></trkpt>
<trkpt lat="25.45818" lon="100.355084">
<time>2015-09-27T23:36:13Z</time></trkpt>
<trkpt lat="25.45833" lon="100.355094">
<time>2015-09-27T23:36:14Z</time></trkpt>
<trkpt lat="25.45848" lon="100.355124">
<time>2015-09-27T23:36:15Z</time></trkpt>
<trkpt lat="25.45865" lon="100.355164">
<time>2015-09-27T23:36:16Z</time></trkpt>
<trkpt lat="25.45879" lon="100.355184">
<time>2015-09-27T23:36:17Z</time></trkpt>
<trkpt lat="25.45895" lon="100.355174">
<time>2015-09-27T23:36:18Z</time></trkpt>
<trkpt lat="25.45916" lon="100.355154">
<time>2015-09-27T23:36:19Z</time></trkpt>
<trkpt lat="25.45937" lon="100.355094">
<time>2015-09-27T23:36:20Z</time></trkpt>
<trkpt lat="25.45961" lon="100.354955">
<time>2015-09-27T23:36:21Z</time></trkpt>
<trkpt lat="25.45979" lon="100.354865">
<time>2015-09-27T23:36:22Z</time></trkpt>
<trkpt lat="25.45998" lon="100.354815">
<time>2015-09-27T23:36:23Z</time></trkpt>
<trkpt lat="25.46017" lon="100.354815">
<time>2015-09-27T23:36:24Z</time></trkpt>
<trkpt lat="25.460351" lon="100.354815">
<time>2015-09-27T23:36:25Z</time></trkpt>
<trkpt lat="25.460541" lon="100.354815">
<time>2015-09-27T23:36:26Z</time></trkpt>
<trkpt lat="25.460711" lon="100.354785">
<time>2015-09-27T23:36:27Z</time></trkpt>
<trkpt lat="25.460881" lon="100.354725">
<time>2015-09-27T23:36:28Z</time></trkpt>
<trkpt lat="25.461081" lon="100.354665">
<time>2015-09-27T23:36:29Z</time></trkpt>
<trkpt lat="25.461281" lon="100.354585">
<time>2015-09-27T23:36:30Z</time></trkpt>
<trkpt lat="25.461491" lon="100.354515">
<time>2015-09-27T23:36:31Z</time></trkpt>
<trkpt lat="25.461712" lon="100.354416">
<time>2015-09-27T23:36:32Z</time></trkpt>
<trkpt lat="25.461932" lon="100.354346">
<time>2015-09-27T23:36:33Z</time></trkpt>
<trkpt lat="25.462132" lon="100.354256">
<time>2015-09-27T23:36:34Z</time></trkpt>
<trkpt lat="25.462302" lon="100.354126">
<time>2015-09-27T23:36:35Z</time></trkpt>
<trkpt lat="25.462452" lon="100.353976">
<time>2015-09-27T23:36:36Z</time></trkpt>
<trkpt lat="25.462603" lon="100.353807">
<time>2015-09-27T23:36:37Z</time></trkpt>
<trkpt lat="25.462753" lon="100.353647">
<time>2015-09-27T23:36:38Z</time></trkpt>
<trkpt lat="25.462903" lon="100.353507">
<time>2015-09-27T23:36:39Z</time></trkpt>
<trkpt lat="25.463064" lon="100.353408">
<time>2015-09-27T23:36:40Z</time></trkpt>
<trkpt lat="25.463244" lon="100.353328">
<time>2015-09-27T23:36:41Z</time></trkpt>
<trkpt lat="25.463434" lon="100.353268">
<time>2015-09-27T23:36:42Z</time></trkpt>
<trkpt lat="25.463614" lon="100.353218">
<time>2015-09-27T23:36:43Z</time></trkpt>
<trkpt lat="25.463794" lon="100.353158">
<time>2015-09-27T23:36:44Z</time></trkpt>
<trkpt lat="25.463984" lon="100.353098">
<time>2015-09-27T23:36:45Z</time></trkpt>
<trkpt lat="25.464204" lon="100.353058">
<time>2015-09-27T23:36:46Z</time></trkpt>
<trkpt lat="25.464445" lon="100.353018">
<time>2015-09-27T23:36:47Z</time></trkpt>
<trkpt lat="25.464645" lon="100.353028">
<time>2015-09-27T23:36:48Z</time></trkpt>
<trkpt lat="25.464855" lon="100.353028">
<time>2015-09-27T23:36:49Z</time></trkpt>
<trkpt lat="25.465075" lon="100.353058">
<time>2015-09-27T23:36:50Z</time></trkpt>
<trkpt lat="25.465295" lon="100.353088">
<time>2015-09-27T23:36:51Z</time></trkpt>
<trkpt lat="25.465515" lon="100.353098">
<time>2015-09-27T23:36:52Z</time></trkpt>
<trkpt lat="25.465745" lon="100.353078">
<time>2015-09-27T23:36:53Z</time></trkpt>
<trkpt lat="25.465975" lon="100.353028">
<time>2015-09-27T23:36:54Z</time></trkpt>
<trkpt lat="25.466205" lon="100.352968">
<time>2015-09-27T23:36:55Z</time></trkpt>
<trkpt lat="25.466425" lon="100.352898">
<time>2015-09-27T23:36:56Z</time></trkpt>
<trkpt lat="25.466645" lon="100.352809">
<time>2015-09-27T23:36:57Z</time></trkpt>
<trkpt lat="25.466856" lon="100.352779">
<time>2015-09-27T23:36:58Z</time></trkpt>
<trkpt lat="25.467056" lon="100.352789">
<time>2015-09-27T23:36:59Z</time></trkpt>
<trkpt lat="25.467256" lon="100.352829">
<time>2015-09-27T23:37:00Z</time></trkpt>
<trkpt lat="25.467456" lon="100.352839">
<time>2015-09-27T23:37:01Z</time></trkpt>
<trkpt lat="25.467636" lon="100.352789">
<time>2015-09-27T23:37:02Z</time></trkpt>
<trkpt lat="25.467796" lon="100.352679">
<time>2015-09-27T23:37:03Z</time></trkpt>
<trkpt lat="25.467946" lon="100.352539">
<time>2015-09-27T23:37:04Z</time></trkpt>
<trkpt lat="25.468087" lon="100.352389">
<time>2015-09-27T23:37:05Z</time></trkpt>
<trkpt lat="25.468237" lon="100.35224">
<time>2015-09-27T23:37:06Z</time></trkpt>
<trkpt lat="25.468387" lon="100.35207">
<time>2015-09-27T23:37:07Z</time></trkpt>
<trkpt lat="25.468527" lon="100.35192">
<time>2015-09-27T23:37:08Z</time></trkpt>
<trkpt lat="25.468668" lon="100.351791">
<time>2015-09-27T23:37:09Z</time></trkpt>
<trkpt lat="25.468828" lon="100.351671">
<time>2015-09-27T23:37:10Z</time></trkpt>
<trkpt lat="25.468998" lon="100.351571">
<time>2015-09-27T23:37:11Z</time></trkpt>
<trkpt lat="25.469188" lon="100.351491">
<time>2015-09-27T23:37:12Z</time></trkpt>
<trkpt lat="25.469369" lon="100.351441">
<time>2015-09-27T23:37:13Z</time></trkpt>
<trkpt lat="25.469549" lon="100.351411">
<time>2015-09-27T23:37:14Z</time></trkpt>
<trkpt lat="25.469719" lon="100.351371">
<time>2015-09-27T23:37:15Z</time></trkpt>
<trkpt lat="25.469869" lon="100.351311">
<time>2015-09-27T23:37:16Z</time></trkpt>
<trkpt lat="25.470009" lon="100.351252">
<time>2015-09-27T23:37:17Z</time></trkpt>
<trkpt lat="25.470149" lon="100.351182">
<time>2015-09-27T23:37:18Z</time></trkpt>
<trkpt lat="25.470299" lon="100.351112">
<time>2015-09-27T23:37:19Z</time></trkpt>
<trkpt lat="25.47045" lon="100.351012">
<time>2015-09-27T23:37:20Z</time></trkpt>
<trkpt lat="25.4706" lon="100.350872">
<time>2015-09-27T23:37:21Z</time></trkpt>
<trkpt lat="25.47075" lon="100.350723">
<time>2015-09-27T23:37:22Z</time></trkpt>
<trkpt lat="25.4709" lon="100.350553">
<time>2015-09-27T23:37:23Z</time></trkpt>
<trkpt lat="25.471061" lon="100.350373">
<time>2015-09-27T23:37:24Z</time></trkpt>
<trkpt lat="25.471231" lon="100.350214">
<time>2015-09-27T23:37:25Z</time></trkpt>
<trkpt lat="25.471411" lon="100.350044">
<time>2015-09-27T23:37:26Z</time></trkpt>
<trkpt lat="25.471582" lon="100.349884">
<time>2015-09-27T23:37:27Z</time></trkpt>
<trkpt lat="25.471762" lon="100.349744">
<time>2015-09-27T23:37:28Z</time></trkpt>
<trkpt lat="25.471922" lon="100.349625">
<time>2015-09-27T23:37:29Z</time></trkpt>
<trkpt lat="25.472063" lon="100.349475">
<time>2015-09-27T23:37:30Z</time></trkpt>
<trkpt lat="25.472173" lon="100.349305">
<time>2015-09-27T23:37:31Z</time></trkpt>
<trkpt lat="25.472253" lon="100.349106">
<time>2015-09-27T23:37:32Z</time></trkpt>
<trkpt lat="25.472314" lon="100.348916">
<time>2015-09-27T23:37:33Z</time></trkpt>
<trkpt lat="25.472364" lon="100.348717">
<time>2015-09-27T23:37:34Z</time></trkpt>
<trkpt lat="25.472414" lon="100.348507">
<time>2015-09-27T23:37:35Z</time></trkpt>
<trkpt lat="25.472445" lon="100.348297">
<time>2015-09-27T23:37:36Z</time></trkpt>
<trkpt lat="25.472455" lon="100.348068">
<time>2015-09-27T23:37:37Z</time></trkpt>
<trkpt lat="25.472486" lon="100.347858">
<time>2015-09-27T23:37:38Z</time></trkpt>
<trkpt lat="25.472546" lon="100.347659">
<time>2015-09-27T23:37:39Z</time></trkpt>
<trkpt lat="25.472646" lon="100.347499">
<time>2015-09-27T23:37:40Z</time></trkpt>
<trkpt lat="25.472786" lon="100.347349">
<time>2015-09-27T23:37:41Z</time></trkpt>
<trkpt lat="25.472947" lon="100.34721">
<time>2015-09-27T23:37:42Z</time></trkpt>
<trkpt lat="25.473107" lon="100.34708">
<time>2015-09-27T23:37:43Z</time></trkpt>
<trkpt lat="25.473247" lon="100.34697">
<time>2015-09-27T23:37:44Z</time></trkpt>
<trkpt lat="25.473387" lon="100.34687">
<time>2015-09-27T23:37:45Z</time></trkpt>
<trkpt lat="25.473558" lon="100.34679">
<time>2015-09-27T23:37:46Z</time></trkpt>
<trkpt lat="25.473738" lon="100.346721">
<time>2015-09-27T23:37:47Z</time></trkpt>
<trkpt lat="25.473918" lon="100.346651">
<time>2015-09-27T23:37:48Z</time></trkpt>
<trkpt lat="25.474078" lon="100.346581">
<time>2015-09-27T23:37:49Z</time></trkpt>
<trkpt lat="25.474208" lon="100.346491">
<time>2015-09-27T23:37:50Z</time></trkpt>
<trkpt lat="25.474279" lon="100.346351">
<time>2015-09-27T23:37:51Z</time></trkpt>
<trkpt lat="25.474299" lon="100.346182">
<time>2015-09-27T23:37:52Z</time></trkpt>
<trkpt lat="25.474299" lon="100.345992">
<time>2015-09-27T23:37:53Z</time></trkpt>
<trkpt lat="25.47432" lon="100.345792">
<time>2015-09-27T23:37:54Z</time></trkpt>
<trkpt lat="25.47435" lon="100.345583">
<time>2015-09-27T23:37:55Z</time></trkpt>
<trkpt lat="25.4744" lon="100.345383">
<time>2015-09-27T23:37:56Z</time></trkpt>
<trkpt lat="25.474441" lon="100.345164">
<time>2015-09-27T23:37:57Z</time></trkpt>
<trkpt lat="25.474511" lon="100.344934">
<time>2015-09-27T23:37:58Z</time></trkpt>
<trkpt lat="25.474572" lon="100.344725">
<time>2015-09-27T23:37:59Z</time></trkpt>
<trkpt lat="25.474642" lon="100.344525">
<time>2015-09-27T23:38:00Z</time></trkpt>
<trkpt lat="25.474762" lon="100.344355">
<time>2015-09-27T23:38:01Z</time></trkpt>
<trkpt lat="25.474893" lon="100.344236">
<time>2015-09-27T23:38:02Z</time></trkpt>
<trkpt lat="25.475013" lon="100.344136">
<time>2015-09-27T23:38:03Z</time></trkpt>
<trkpt lat="25.475123" lon="100.344066">
<time>2015-09-27T23:38:04Z</time></trkpt>
<trkpt lat="25.475283" lon="100.343996">
<time>2015-09-27T23:38:05Z</time></trkpt>
<trkpt lat="25.475413" lon="100.343946">
<time>2015-09-27T23:38:06Z</time></trkpt>
<trkpt lat="25.475553" lon="100.343896">
<time>2015-09-27T23:38:07Z</time></trkpt>
<trkpt lat="25.475694" lon="100.343797">
<time>2015-09-27T23:38:08Z</time></trkpt>
<trkpt lat="25.475844" lon="100.343727">
<time>2015-09-27T23:38:09Z</time></trkpt>
<trkpt lat="25.476004" lon="100.343647">
<time>2015-09-27T23:38:10Z</time></trkpt>
<trkpt lat="25.476134" lon="100.343547">
<time>2015-09-27T23:38:11Z</time></trkpt>
<trkpt lat="25.476294" lon="100.343437">
<time>2015-09-27T23:38:12Z</time></trkpt>
<trkpt lat="25.476445" lon="100.343347">
<time>2015-09-27T23:38:13Z</time></trkpt>
<trkpt lat="25.476585" lon="100.343268">
<time>2015-09-27T23:38:14Z</time></trkpt>
<trkpt lat="25.476715" lon="100.343218">
<time>2015-09-27T23:38:15Z</time></trkpt>
<trkpt lat="25.476825" lon="100.343178">
<time>2015-09-27T23:38:16Z</time></trkpt>
<trkpt lat="25.476935" lon="100.343148">
<time>2015-09-27T23:38:17Z</time></trkpt>
<trkpt lat="25.477045" lon="100.343128">
<time>2015-09-27T23:38:18Z</time></trkpt>
<trkpt lat="25.477195" lon="100.343118">
<time>2015-09-27T23:38:19Z</time></trkpt>
<trkpt lat="25.477365" lon="100.343098">
<time>2015-09-27T23:38:20Z</time></trkpt>
<trkpt lat="25.477545" lon="100.343088">
<time>2015-09-27T23:38:21Z</time></trkpt>
<trkpt lat="25.477715" lon="100.343078">
<time>2015-09-27T23:38:22Z</time></trkpt>
<trkpt lat="25.477896" lon="100.343068">
<time>2015-09-27T23:38:23Z</time></trkpt>
<trkpt lat="25.478046" lon="100.343058">
<time>2015-09-27T23:38:24Z</time></trkpt>
<trkpt lat="25.478236" lon="100.342988">
<time>2015-09-27T23:38:25Z</time></trkpt>
<trkpt lat="25.478356" lon="100.342858">
<time>2015-09-27T23:38:26Z</time></trkpt>
<trkpt lat="25.478396" lon="100.342729">
<time>2015-09-27T23:38:27Z</time></trkpt>
<trkpt lat="25.478457" lon="100.342559">
<time>2015-09-27T23:38:28Z</time></trkpt>
<trkpt lat="25.478477" lon="100.342349">
<time>2015-09-27T23:38:29Z</time></trkpt>
<trkpt lat="25.478497" lon="100.34219">
<time>2015-09-27T23:38:30Z</time></trkpt>
<trkpt lat="25.478508" lon="100.34203">
<time>2015-09-27T23:38:31Z</time></trkpt>
<trkpt lat="25.478548" lon="100.341871">
<time>2015-09-27T23:38:32Z</time></trkpt>
<trkpt lat="25.478608" lon="100.341721">
<time>2015-09-27T23:38:33Z</time></trkpt>
<trkpt lat="25.478678" lon="100.341591">
<time>2015-09-27T23:38:34Z</time></trkpt>
<trkpt lat="25.478769" lon="100.341461">
<time>2015-09-27T23:38:35Z</time></trkpt>
<trkpt lat="25.478949" lon="100.341292">
<time>2015-09-27T23:38:36Z</time></trkpt>
<trkpt lat="25.479079" lon="100.341172">
<time>2015-09-27T23:38:37Z</time></trkpt>
<trkpt lat="25.47922" lon="100.341042">
<time>2015-09-27T23:38:38Z</time></trkpt>
<trkpt lat="25.4793" lon="100.340972">
<time>2015-09-27T23:38:39Z</time></trkpt>
<trkpt lat="25.47944" lon="100.340843">
<time>2015-09-27T23:38:40Z</time></trkpt>
<trkpt lat="25.47958" lon="100.340743">
<time>2015-09-27T23:38:41Z</time></trkpt>
<trkpt lat="25.47968" lon="100.340673">
<time>2015-09-27T23:38:42Z</time></trkpt>
<trkpt lat="25.479761" lon="100.340613">
<time>2015-09-27T23:38:43Z</time></trkpt>
<trkpt lat="25.479841" lon="100.340533">
<time>2015-09-27T23:38:44Z</time></trkpt>
<trkpt lat="25.479921" lon="100.340453">
<time>2015-09-27T23:38:45Z</time></trkpt>
<trkpt lat="25.480011" lon="100.340384">
<time>2015-09-27T23:38:46Z</time></trkpt>
<trkpt lat="25.480111" lon="100.340324">
<time>2015-09-27T23:38:47Z</time></trkpt>
<trkpt lat="25.480241" lon="100.340264">
<time>2015-09-27T23:38:48Z</time></trkpt>
<trkpt lat="25.480371" lon="100.340234">
<time>2015-09-27T23:38:49Z</time></trkpt>
<trkpt lat="25.480512" lon="100.340224">
<time>2015-09-27T23:38:50Z</time></trkpt>
<trkpt lat="25.480642" lon="100.340234">
<time>2015-09-27T23:38:51Z</time></trkpt>
<trkpt lat="25.480752" lon="100.340254">
<time>2015-09-27T23:38:52Z</time></trkpt>
<trkpt lat="25.480932" lon="100.340284">
<time>2015-09-27T23:38:53Z</time></trkpt>
<trkpt lat="25.481082" lon="100.340284">
<time>2015-09-27T23:38:54Z</time></trkpt>
<trkpt lat="25.481242" lon="100.340274">
<time>2015-09-27T23:38:55Z</time></trkpt>
<trkpt lat="25.481392" lon="100.340274">
<time>2015-09-27T23:38:56Z</time></trkpt>
<trkpt lat="25.481572" lon="100.340264">
<time>2015-09-27T23:38:57Z</time></trkpt>
<trkpt lat="25.481732" lon="100.340264">
<time>2015-09-27T23:38:58Z</time></trkpt>
<trkpt lat="25.481892" lon="100.340254">
<time>2015-09-27T23:38:59Z</time></trkpt>
<trkpt lat="25.482052" lon="100.340234">
<time>2015-09-27T23:39:00Z</time></trkpt>
<trkpt lat="25.482212" lon="100.340204">
<time>2015-09-27T23:39:01Z</time></trkpt>
<trkpt lat="25.482362" lon="100.340144">
<time>2015-09-27T23:39:02Z</time></trkpt>
<trkpt lat="25.482492" lon="100.340064">
<time>2015-09-27T23:39:03Z</time></trkpt>
<trkpt lat="25.482613" lon="100.339935">
<time>2015-09-27T23:39:04Z</time></trkpt>
<trkpt lat="25.482743" lon="100.339815">
<time>2015-09-27T23:39:05Z</time></trkpt>
<trkpt lat="25.482873" lon="100.339685">
<time>2015-09-27T23:39:06Z</time></trkpt>
<trkpt lat="25.483013" lon="100.339555">
<time>2015-09-27T23:39:07Z</time></trkpt>
<trkpt lat="25.483154" lon="100.339406">
<time>2015-09-27T23:39:08Z</time></trkpt>
<trkpt lat="25.483304" lon="100.339266">
<time>2015-09-27T23:39:09Z</time></trkpt>
<trkpt lat="25.483444" lon="100.339136">
<time>2015-09-27T23:39:10Z</time></trkpt>
<trkpt lat="25.483605" lon="100.339026">
<time>2015-09-27T23:39:11Z</time></trkpt>
<trkpt lat="25.483785" lon="100.338947">
<time>2015-09-27T23:39:12Z</time></trkpt>
<trkpt lat="25.483965" lon="100.338907">
<time>2015-09-27T23:39:13Z</time></trkpt>
<trkpt lat="25.484135" lon="100.338867">
<time>2015-09-27T23:39:14Z</time></trkpt>
<trkpt lat="25.484295" lon="100.338837">
<time>2015-09-27T23:39:15Z</time></trkpt>
<trkpt lat="25.484455" lon="100.338807">
<time>2015-09-27T23:39:16Z</time></trkpt>
<trkpt lat="25.484595" lon="100.338777">
<time>2015-09-27T23:39:17Z</time></trkpt>
<trkpt lat="25.484736" lon="100.338737">
<time>2015-09-27T23:39:18Z</time></trkpt>
<trkpt lat="25.484866" lon="100.338707">
<time>2015-09-27T23:39:19Z</time></trkpt>
<trkpt lat="25.484986" lon="100.338677">
<time>2015-09-27T23:39:20Z</time></trkpt>
<trkpt lat="25.485096" lon="100.338667">
<time>2015-09-27T23:39:21Z</time></trkpt>
<trkpt lat="25.485186" lon="100.338627">
<time>2015-09-27T23:39:22Z</time></trkpt>
<trkpt lat="25.485266" lon="100.338567">
<time>2015-09-27T23:39:23Z</time></trkpt>
<trkpt lat="25.485326" lon="100.338458">
<time>2015-09-27T23:39:24Z</time></trkpt>
<trkpt lat="25.485356" lon="100.338338">
<time>2015-09-27T23:39:25Z</time></trkpt>
<trkpt lat="25.485357" lon="100.338208">
<time>2015-09-27T23:39:26Z</time></trkpt>
<trkpt lat="25.485347" lon="100.338058">
<time>2015-09-27T23:39:27Z</time></trkpt>
<trkpt lat="25.485327" lon="100.337899">
<time>2015-09-27T23:39:28Z</time></trkpt>
<trkpt lat="25.485318" lon="100.337739">
<time>2015-09-27T23:39:29Z</time></trkpt>
<trkpt lat="25.485298" lon="100.337589">
<time>2015-09-27T23:39:30Z</time></trkpt>
<trkpt lat="25.485278" lon="100.33744">
<time>2015-09-27T23:39:31Z</time></trkpt>
<trkpt lat="25.485258" lon="100.33728">
<time>2015-09-27T23:39:32Z</time></trkpt>
<trkpt lat="25.485269" lon="100.337111">
<time>2015-09-27T23:39:33Z</time></trkpt>
<trkpt lat="25.485259" lon="100.336941">
<time>2015-09-27T23:39:34Z</time></trkpt>
<trkpt lat="25.485239" lon="100.336761">
<time>2015-09-27T23:39:35Z</time></trkpt>
<trkpt lat="25.48523" lon="100.336582">
<time>2015-09-27T23:39:36Z</time></trkpt>
<trkpt lat="25.48522" lon="100.336412">
<time>2015-09-27T23:39:37Z</time></trkpt>
<trkpt lat="25.48525" lon="100.336272">
<time>2015-09-27T23:39:38Z</time></trkpt>
<trkpt lat="25.485331" lon="100.336163">
<time>2015-09-27T23:39:39Z</time></trkpt>
<trkpt lat="25.485461" lon="100.336053">
<time>2015-09-27T23:39:40Z</time></trkpt>
<trkpt lat="25.485591" lon="100.335963">
<time>2015-09-27T23:39:41Z</time></trkpt>
<trkpt lat="25.485721" lon="100.335933">
<time>2015-09-27T23:39:42Z</time></trkpt>
<trkpt lat="25.485861" lon="100.335943">
<time>2015-09-27T23:39:43Z</time></trkpt>
<trkpt lat="25.486021" lon="100.335953">
<time>2015-09-27T23:39:44Z</time></trkpt>
<trkpt lat="25.486161" lon="100.335983">
<time>2015-09-27T23:39:45Z</time></trkpt>
<trkpt lat="25.486301" lon="100.335973">
<time>2015-09-27T23:39:46Z</time></trkpt>
<trkpt lat="25.486461" lon="100.335943">
<time>2015-09-27T23:39:47Z</time></trkpt>
<trkpt lat="25.486641" lon="100.335903">
<time>2015-09-27T23:39:48Z</time></trkpt>
<trkpt lat="25.486792" lon="100.335853">
<time>2015-09-27T23:39:49Z</time></trkpt>
<trkpt lat="25.486982" lon="100.335803">
<time>2015-09-27T23:39:50Z</time></trkpt>
<trkpt lat="25.487132" lon="100.335753">
<time>2015-09-27T23:39:51Z</time></trkpt>
<trkpt lat="25.487252" lon="100.335694">
<time>2015-09-27T23:39:52Z</time></trkpt>
<trkpt lat="25.487352" lon="100.335604">
<time>2015-09-27T23:39:53Z</time></trkpt>
<trkpt lat="25.487442" lon="100.335474">
<time>2015-09-27T23:39:54Z</time></trkpt>
<trkpt lat="25.487543" lon="100.335384">
<time>2015-09-27T23:39:55Z</time></trkpt>
<trkpt lat="25.487683" lon="100.335284">
<time>2015-09-27T23:39:56Z</time></trkpt>
<trkpt lat="25.487823" lon="100.335215">
<time>2015-09-27T23:39:57Z</time></trkpt>
<trkpt lat="25.488013" lon="100.335175">
<time>2015-09-27T23:39:58Z</time></trkpt>
<trkpt lat="25.488133" lon="100.335205">
<time>2015-09-27T23:39:59Z</time></trkpt>
<trkpt lat="25.488253" lon="100.335274">
<time>2015-09-27T23:40:00Z</time></trkpt>
<trkpt lat="25.488313" lon="100.335344">
<time>2015-09-27T23:40:01Z</time></trkpt>
<trkpt lat="25.488373" lon="100.335504">
<time>2015-09-27T23:40:02Z</time></trkpt>
<trkpt lat="25.488412" lon="100.335664">
<time>2015-09-27T23:40:03Z</time></trkpt>
<trkpt lat="25.488492" lon="100.335833">
<time>2015-09-27T23:40:04Z</time></trkpt>
<trkpt lat="25.488562" lon="100.335923">
<time>2015-09-27T23:40:05Z</time></trkpt>
<trkpt lat="25.488632" lon="100.336013">
<time>2015-09-27T23:40:06Z</time></trkpt>
<trkpt lat="25.488732" lon="100.336083">
<time>2015-09-27T23:40:07Z</time></trkpt>
<trkpt lat="25.488842" lon="100.336133">
<time>2015-09-27T23:40:08Z</time></trkpt>
<trkpt lat="25.488952" lon="100.336143">
<time>2015-09-27T23:40:09Z</time></trkpt>
<trkpt lat="25.489052" lon="100.336113">
<time>2015-09-27T23:40:10Z</time></trkpt>
<trkpt lat="25.489162" lon="100.336063">
<time>2015-09-27T23:40:11Z</time></trkpt>
<trkpt lat="25.489272" lon="100.336003">
<time>2015-09-27T23:40:12Z</time></trkpt>
<trkpt lat="25.489402" lon="100.335913">
<time>2015-09-27T23:40:13Z</time></trkpt>
<trkpt lat="25.489532" lon="100.335843">
<time>2015-09-27T23:40:14Z</time></trkpt>
<trkpt lat="25.489673" lon="100.335753">
<time>2015-09-27T23:40:15Z</time></trkpt>
<trkpt lat="25.489803" lon="100.335644">
<time>2015-09-27T23:40:16Z</time></trkpt>
<trkpt lat="25.489933" lon="100.335504">
<time>2015-09-27T23:40:17Z</time></trkpt>
<trkpt lat="25.490053" lon="100.335374">
<time>2015-09-27T23:40:18Z</time></trkpt>
<trkpt lat="25.490154" lon="100.335234">
<time>2015-09-27T23:40:19Z</time></trkpt>
<trkpt lat="25.490264" lon="100.335085">
<time>2015-09-27T23:40:20Z</time></trkpt>
<trkpt lat="25.490374" lon="100.334955">
<time>2015-09-27T23:40:21Z</time></trkpt>
<trkpt lat="25.490475" lon="100.334825">
<time>2015-09-27T23:40:22Z</time></trkpt>
<trkpt lat="25.490545" lon="100.334686">
<time>2015-09-27T23:40:23Z</time></trkpt>
<trkpt lat="25.490575" lon="100.334526">
<time>2015-09-27T23:40:24Z</time></trkpt>
<trkpt lat="25.490576" lon="100.334346">
<time>2015-09-27T23:40:25Z</time></trkpt>
<trkpt lat="25.490576" lon="100.334207">
<time>2015-09-27T23:40:26Z</time></trkpt>
<trkpt lat="25.490596" lon="100.334037">
<time>2015-09-27T23:40:27Z</time></trkpt>
<trkpt lat="25.490646" lon="100.333887">
<time>2015-09-27T23:40:28Z</time></trkpt>
<trkpt lat="25.490707" lon="100.333718">
<time>2015-09-27T23:40:29Z</time></trkpt>
<trkpt lat="25.490797" lon="100.333578">
<time>2015-09-27T23:40:30Z</time></trkpt>
<trkpt lat="25.490917" lon="100.333458">
<time>2015-09-27T23:40:31Z</time></trkpt>
<trkpt lat="25.491048" lon="100.333329">
<time>2015-09-27T23:40:32Z</time></trkpt>
<trkpt lat="25.491188" lon="100.333229">
<time>2015-09-27T23:40:33Z</time></trkpt>
<trkpt lat="25.491308" lon="100.333079">
<time>2015-09-27T23:40:34Z</time></trkpt>
<trkpt lat="25.491408" lon="100.33291">
<time>2015-09-27T23:40:35Z</time></trkpt>
<trkpt lat="25.491519" lon="100.3328">
<time>2015-09-27T23:40:36Z</time></trkpt>
<trkpt lat="25.491659" lon="100.33269">
<time>2015-09-27T23:40:37Z</time></trkpt>
<trkpt lat="25.491769" lon="100.3326">
<time>2015-09-27T23:40:38Z</time></trkpt>
<trkpt lat="25.491909" lon="100.3325">
<time>2015-09-27T23:40:39Z</time></trkpt>
<trkpt lat="25.49205" lon="100.332411">
<time>2015-09-27T23:40:40Z</time></trkpt>
<trkpt lat="25.49219" lon="100.332321">
<time>2015-09-27T23:40:41Z</time></trkpt>
<trkpt lat="25.49232" lon="100.332231">
<time>2015-09-27T23:40:42Z</time></trkpt>
<trkpt lat="25.49242" lon="100.332131">
<time>2015-09-27T23:40:43Z</time></trkpt>
<trkpt lat="25.492511" lon="100.332021">
<time>2015-09-27T23:40:44Z</time></trkpt>
<trkpt lat="25.492591" lon="100.331912">
<time>2015-09-27T23:40:45Z</time></trkpt>
<trkpt lat="25.492681" lon="100.331832">
<time>2015-09-27T23:40:46Z</time></trkpt>
<trkpt lat="25.492771" lon="100.331772">
<time>2015-09-27T23:40:47Z</time></trkpt>
<trkpt lat="25.492881" lon="100.331742">
<time>2015-09-27T23:40:48Z</time></trkpt>
<trkpt lat="25.492991" lon="100.331732">
<time>2015-09-27T23:40:49Z</time></trkpt>
<trkpt lat="25.493111" lon="100.331752">
<time>2015-09-27T23:40:50Z</time></trkpt>
<trkpt lat="25.493241" lon="100.331772">
<time>2015-09-27T23:40:51Z</time></trkpt>
<trkpt lat="25.493371" lon="100.331762">
<time>2015-09-27T23:40:52Z</time></trkpt>
<trkpt lat="25.493491" lon="100.331682">
<time>2015-09-27T23:40:53Z</time></trkpt>
<trkpt lat="25.493602" lon="100.331582">
<time>2015-09-27T23:40:54Z</time></trkpt>
<trkpt lat="25.493692" lon="100.331413">
<time>2015-09-27T23:40:55Z</time></trkpt>
<trkpt lat="25.493782" lon="100.331253">
<time>2015-09-27T23:40:56Z</time></trkpt>
<trkpt lat="25.493873" lon="100.331073">
<time>2015-09-27T23:40:57Z</time></trkpt>
<trkpt lat="25.493973" lon="100.330914">
<time>2015-09-27T23:40:58Z</time></trkpt>
<trkpt lat="25.494083" lon="100.330774">
<time>2015-09-27T23:40:59Z</time></trkpt>
<trkpt lat="25.494214" lon="100.330654">
<time>2015-09-27T23:41:00Z</time></trkpt>
<trkpt lat="25.494344" lon="100.330545">
<time>2015-09-27T23:41:01Z</time></trkpt>
<trkpt lat="25.494474" lon="100.330445">
<time>2015-09-27T23:41:02Z</time></trkpt>
<trkpt lat="25.494614" lon="100.330355">
<time>2015-09-27T23:41:03Z</time></trkpt>
<trkpt lat="25.494725" lon="100.330255">
<time>2015-09-27T23:41:04Z</time></trkpt>
<trkpt lat="25.494815" lon="100.330155">
<time>2015-09-27T23:41:05Z</time></trkpt>
<trkpt lat="25.494885" lon="100.330046">
<time>2015-09-27T23:41:06Z</time></trkpt>
<trkpt lat="25.494925" lon="100.329936">
<time>2015-09-27T23:41:07Z</time></trkpt>
<trkpt lat="25.494955" lon="100.329826">
<time>2015-09-27T23:41:08Z</time></trkpt>
<trkpt lat="25.495006" lon="100.329726">
<time>2015-09-27T23:41:09Z</time></trkpt>
<trkpt lat="25.495066" lon="100.329627">
<time>2015-09-27T23:41:10Z</time></trkpt>
<trkpt lat="25.495146" lon="100.329527">
<time>2015-09-27T23:41:11Z</time></trkpt>
<trkpt lat="25.495236" lon="100.329437">
<time>2015-09-27T23:41:12Z</time></trkpt>
<trkpt lat="25.495327" lon="100.329327">
<time>2015-09-27T23:41:13Z</time></trkpt>
<trkpt lat="25.495397" lon="100.329218">
<time>2015-09-27T23:41:14Z</time></trkpt>
<trkpt lat="25.495417" lon="100.329088">
<time>2015-09-27T23:41:15Z</time></trkpt>
<trkpt lat="25.495387" lon="100.328958">
<time>2015-09-27T23:41:16Z</time></trkpt>
<trkpt lat="25.495317" lon="100.328848">
<time>2015-09-27T23:41:17Z</time></trkpt>
<trkpt lat="25.495218" lon="100.328729">
<time>2015-09-27T23:41:18Z</time></trkpt>
<trkpt lat="25.495108" lon="100.328629">
<time>2015-09-27T23:41:19Z</time></trkpt>
<trkpt lat="25.494998" lon="100.328529">
<time>2015-09-27T23:41:20Z</time></trkpt>
<trkpt lat="25.494908" lon="100.328439">
<time>2015-09-27T23:41:21Z</time></trkpt>
<trkpt lat="25.494828" lon="100.328359">
<time>2015-09-27T23:41:22Z</time></trkpt>
<trkpt lat="25.494768" lon="100.32827">
<time>2015-09-27T23:41:23Z</time></trkpt>
<trkpt lat="25.494729" lon="100.32816">
<time>2015-09-27T23:41:24Z</time></trkpt>
<trkpt lat="25.494709" lon="100.32802">
<time>2015-09-27T23:41:25Z</time></trkpt>
<trkpt lat="25.494719" lon="100.32791">
<time>2015-09-27T23:41:26Z</time></trkpt>
<trkpt lat="25.494769" lon="100.327801">
<time>2015-09-27T23:41:27Z</time></trkpt>
<trkpt lat="25.494809" lon="100.327711">
<time>2015-09-27T23:41:28Z</time></trkpt>
<trkpt lat="25.49489" lon="100.327591">
<time>2015-09-27T23:41:29Z</time></trkpt>
<trkpt lat="25.49496" lon="100.327531">
<time>2015-09-27T23:41:30Z</time></trkpt>
<trkpt lat="25.49505" lon="100.327461">
<time>2015-09-27T23:41:31Z</time></trkpt>
<trkpt lat="25.49515" lon="100.327411">
<time>2015-09-27T23:41:32Z</time></trkpt>
<trkpt lat="25.49524" lon="100.327362">
<time>2015-09-27T23:41:33Z</time></trkpt>
<trkpt lat="25.49533" lon="100.327332">
<time>2015-09-27T23:41:34Z</time></trkpt>
<trkpt lat="25.49543" lon="100.327282">
<time>2015-09-27T23:41:35Z</time></trkpt>
<trkpt lat="25.49554" lon="100.327292">
<time>2015-09-27T23:41:36Z</time></trkpt>
<trkpt lat="25.49564" lon="100.327312">
<time>2015-09-27T23:41:37Z</time></trkpt>
<trkpt lat="25.49572" lon="100.327401">
<time>2015-09-27T23:41:38Z</time></trkpt>
<trkpt lat="25.49582" lon="100.327531">
<time>2015-09-27T23:41:39Z</time></trkpt>
<trkpt lat="25.49594" lon="100.327641">
<time>2015-09-27T23:41:40Z</time></trkpt>
<trkpt lat="25.49605" lon="100.327771">
<time>2015-09-27T23:41:41Z</time></trkpt>
<trkpt lat="25.49616" lon="100.32789">
<time>2015-09-27T23:41:42Z</time></trkpt>
<trkpt lat="25.496269" lon="100.32797">
<time>2015-09-27T23:41:43Z</time></trkpt>
<trkpt lat="25.496439" lon="100.32797">
<time>2015-09-27T23:41:44Z</time></trkpt>
<trkpt lat="25.4966" lon="100.32791">
<time>2015-09-27T23:41:45Z</time></trkpt>
<trkpt lat="25.49674" lon="100.327831">
<time>2015-09-27T23:41:46Z</time></trkpt>
<trkpt lat="25.49685" lon="100.327721">
<time>2015-09-27T23:41:47Z</time></trkpt>
<trkpt lat="25.49697" lon="100.327591">
<time>2015-09-27T23:41:48Z</time></trkpt>
<trkpt lat="25.497081" lon="100.327501">
<time>2015-09-27T23:41:49Z</time></trkpt>
<trkpt lat="25.497191" lon="100.327431">
<time>2015-09-27T23:41:50Z</time></trkpt>
<trkpt lat="25.497301" lon="100.327372">
<time>2015-09-27T23:41:51Z</time></trkpt>
<trkpt lat="25.497451" lon="100.327312">
<time>2015-09-27T23:41:52Z</time></trkpt>
<trkpt lat="25.497601" lon="100.327262">
<time>2015-09-27T23:41:53Z</time></trkpt>
<trkpt lat="25.497771" lon="100.327212">
<time>2015-09-27T23:41:54Z</time></trkpt>
<trkpt lat="25.497941" lon="100.327172">
<time>2015-09-27T23:41:55Z</time></trkpt>
<trkpt lat="25.498112" lon="100.327132">
<time>2015-09-27T23:41:56Z</time></trkpt>
<trkpt lat="25.498302" lon="100.327092">
<time>2015-09-27T23:41:57Z</time></trkpt>
<trkpt lat="25.498442" lon="100.327042">
<time>2015-09-27T23:41:58Z</time></trkpt>
<trkpt lat="25.498632" lon="100.327002">
<time>2015-09-27T23:41:59Z</time></trkpt>
<trkpt lat="25.498772" lon="100.326962">
<time>2015-09-27T23:42:00Z</time></trkpt>
<trkpt lat="25.498902" lon="100.326942">
<time>2015-09-27T23:42:01Z</time></trkpt>
<trkpt lat="25.499032" lon="100.326912">
<time>2015-09-27T23:42:02Z</time></trkpt>
<trkpt lat="25.499152" lon="100.326912">
<time>2015-09-27T23:42:03Z</time></trkpt>
<trkpt lat="25.499292" lon="100.326912">
<time>2015-09-27T23:42:04Z</time></trkpt>
<trkpt lat="25.499442" lon="100.326912">
<time>2015-09-27T23:42:05Z</time></trkpt>
<trkpt lat="25.499532" lon="100.326912">
<time>2015-09-27T23:42:06Z</time></trkpt>
<trkpt lat="25.499632" lon="100.326922">
<time>2015-09-27T23:42:07Z</time></trkpt>
<trkpt lat="25.499742" lon="100.326922">
<time>2015-09-27T23:42:08Z</time></trkpt>
<trkpt lat="25.499853" lon="100.326932">
<time>2015-09-27T23:42:09Z</time></trkpt>
<trkpt lat="25.499953" lon="100.326942">
<time>2015-09-27T23:42:10Z</time></trkpt>
<trkpt lat="25.500013" lon="100.326942">
<time>2015-09-27T23:42:11Z</time></trkpt>
<trkpt lat="25.500063" lon="100.326942">
<time>2015-09-27T23:42:12Z</time></trkpt>
<trkpt lat="25.500213" lon="100.326932">
<time>2015-09-27T23:42:13Z</time></trkpt>
<trkpt lat="25.500333" lon="100.326942">
<time>2015-09-27T23:42:14Z</time></trkpt>
<trkpt lat="25.500463" lon="100.326942">
<time>2015-09-27T23:42:15Z</time></trkpt>
<trkpt lat="25.500603" lon="100.326942">
<time>2015-09-27T23:42:16Z</time></trkpt>
<trkpt lat="25.500743" lon="100.326942">
<time>2015-09-27T23:42:17Z</time></trkpt>
<trkpt lat="25.500883" lon="100.326952">
<time>2015-09-27T23:42:18Z</time></trkpt>
<trkpt lat="25.501023" lon="100.326982">
<time>2015-09-27T23:42:19Z</time></trkpt>
<trkpt lat="25.501143" lon="100.326972">
<time>2015-09-27T23:42:20Z</time></trkpt>
<trkpt lat="25.501283" lon="100.326972">
<time>2015-09-27T23:42:21Z</time></trkpt>
<trkpt lat="25.501413" lon="100.326982">
<time>2015-09-27T23:42:22Z</time></trkpt>
<trkpt lat="25.501553" lon="100.326992">
<time>2015-09-27T23:42:23Z</time></trkpt>
<trkpt lat="25.501703" lon="100.326992">
<time>2015-09-27T23:42:24Z</time></trkpt>
<trkpt lat="25.501853" lon="100.326992">
<time>2015-09-27T23:42:25Z</time></trkpt>
<trkpt lat="25.501973" lon="100.327022">
<time>2015-09-27T23:42:26Z</time></trkpt>
<trkpt lat="25.502093" lon="100.327022">
<time>2015-09-27T23:42:27Z</time></trkpt>
<trkpt lat="25.502193" lon="100.327022">
<time>2015-09-27T23:42:28Z</time></trkpt>
<trkpt lat="25.502333" lon="100.327032">
<time>2015-09-27T23:42:29Z</time></trkpt>
<trkpt lat="25.502463" lon="100.327052">
<time>2015-09-27T23:42:30Z</time></trkpt>
<trkpt lat="25.502593" lon="100.327072">
<time>2015-09-27T23:42:31Z</time></trkpt>
<trkpt lat="25.502723" lon="100.327082">
<time>2015-09-27T23:42:32Z</time></trkpt>
<trkpt lat="25.502853" lon="100.327082">
<time>2015-09-27T23:42:33Z</time></trkpt>
<trkpt lat="25.502963" lon="100.327072">
<time>2015-09-27T23:42:34Z</time></trkpt>
<trkpt lat="25.503073" lon="100.327052">
<time>2015-09-27T23:42:35Z</time></trkpt>
<trkpt lat="25.503173" lon="100.327032">
<time>2015-09-27T23:42:36Z</time></trkpt>
<trkpt lat="25.503283" lon="100.327012">
<time>2015-09-27T23:42:37Z</time></trkpt>
<trkpt lat="25.503404" lon="100.326972">
<time>2015-09-27T23:42:38Z</time></trkpt>
<trkpt lat="25.503544" lon="100.326942">
<time>2015-09-27T23:42:39Z</time></trkpt>
<trkpt lat="25.503694" lon="100.326922">
<time>2015-09-27T23:42:40Z</time></trkpt>
<trkpt lat="25.503844" lon="100.326912">
<time>2015-09-27T23:42:41Z</time></trkpt>
<trkpt lat="25.503984" lon="100.326922">
<time>2015-09-27T23:42:42Z</time></trkpt>
<trkpt lat="25.504124" lon="100.326952">
<time>2015-09-27T23:42:43Z</time></trkpt>
<trkpt lat="25.504274" lon="100.326982">
<time>2015-09-27T23:42:44Z</time></trkpt>
<trkpt lat="25.504424" lon="100.327022">
<time>2015-09-27T23:42:45Z</time></trkpt>
<trkpt lat="25.504554" lon="100.327052">
<time>2015-09-27T23:42:46Z</time></trkpt>
<trkpt lat="25.504684" lon="100.327092">
<time>2015-09-27T23:42:47Z</time></trkpt>
<trkpt lat="25.504814" lon="100.327112">
<time>2015-09-27T23:42:48Z</time></trkpt>
<trkpt lat="25.504934" lon="100.327152">
<time>2015-09-27T23:42:49Z</time></trkpt>
<trkpt lat="25.505044" lon="100.327172">
<time>2015-09-27T23:42:50Z</time></trkpt>
<trkpt lat="25.505154" lon="100.327182">
<time>2015-09-27T23:42:51Z</time></trkpt>
<trkpt lat="25.505314" lon="100.327212">
<time>2015-09-27T23:42:52Z</time></trkpt>
<trkpt lat="25.505464" lon="100.327242">
<time>2015-09-27T23:42:53Z</time></trkpt>
<trkpt lat="25.505624" lon="100.327272">
<time>2015-09-27T23:42:54Z</time></trkpt>
<trkpt lat="25.505804" lon="100.327311">
<time>2015-09-27T23:42:55Z</time></trkpt>
<trkpt lat="25.505894" lon="100.327321">
<time>2015-09-27T23:42:56Z</time></trkpt>
<trkpt lat="25.505994" lon="100.327341">
<time>2015-09-27T23:42:57Z</time></trkpt>
<trkpt lat="25.506094" lon="100.327351">
<time>2015-09-27T23:42:58Z</time></trkpt>
<trkpt lat="25.506204" lon="100.327371">
<time>2015-09-27T23:42:59Z</time></trkpt>
<trkpt lat="25.506314" lon="100.327401">
<time>2015-09-27T23:43:00Z</time></trkpt>
<trkpt lat="25.506424" lon="100.327411">
<time>2015-09-27T23:43:01Z</time></trkpt>
<trkpt lat="25.506554" lon="100.327441">
<time>2015-09-27T23:43:02Z</time></trkpt>
<trkpt lat="25.506684" lon="100.327451">
<time>2015-09-27T23:43:03Z</time></trkpt>
<trkpt lat="25.506804" lon="100.327461">
<time>2015-09-27T23:43:04Z</time></trkpt>
<trkpt lat="25.506924" lon="100.327471">
<time>2015-09-27T23:43:05Z</time></trkpt>
<trkpt lat="25.507044" lon="100.327471">
<time>2015-09-27T23:43:06Z</time></trkpt>
<trkpt lat="25.507154" lon="100.327501">
<time>2015-09-27T23:43:07Z</time></trkpt>
<trkpt lat="25.507274" lon="100.327531">
<time>2015-09-27T23:43:08Z</time></trkpt>
<trkpt lat="25.507394" lon="100.327561">
<time>2015-09-27T23:43:09Z</time></trkpt>
<trkpt lat="25.507524" lon="100.327581">
<time>2015-09-27T23:43:10Z</time></trkpt>
<trkpt lat="25.507664" lon="100.327611">
<time>2015-09-27T23:43:11Z</time></trkpt>
<trkpt lat="25.507774" lon="100.327641">
<time>2015-09-27T23:43:12Z</time></trkpt>
<trkpt lat="25.507864" lon="100.327671">
<time>2015-09-27T23:43:13Z</time></trkpt>
<trkpt lat="25.507954" lon="100.327691">
<time>2015-09-27T23:43:14Z</time></trkpt>
<trkpt lat="25.508044" lon="100.327711">
<time>2015-09-27T23:43:15Z</time></trkpt>
<trkpt lat="25.508144" lon="100.32772">
<time>2015-09-27T23:43:16Z</time></trkpt>
<trkpt lat="25.508244" lon="100.32773">
<time>2015-09-27T23:43:17Z</time></trkpt>
<trkpt lat="25.508344" lon="100.32776">
<time>2015-09-27T23:43:18Z</time></trkpt>
<trkpt lat="25.508444" lon="100.32778">
<time>2015-09-27T23:43:19Z</time></trkpt>
<trkpt lat="25.508624" lon="100.32783">
<time>2015-09-27T23:43:20Z</time></trkpt>
<trkpt lat="25.508724" lon="100.32785">
<time>2015-09-27T23:43:21Z</time></trkpt>
<trkpt lat="25.508834" lon="100.32788">
<time>2015-09-27T23:43:22Z</time></trkpt>
<trkpt lat="25.508954" lon="100.32792">
<time>2015-09-27T23:43:23Z</time></trkpt>
<trkpt lat="25.509084" lon="100.32796">
<time>2015-09-27T23:43:24Z</time></trkpt>
<trkpt lat="25.509163" lon="100.328">
<time>2015-09-27T23:43:25Z</time></trkpt>
<trkpt lat="25.509263" lon="100.32804">
<time>2015-09-27T23:43:26Z</time></trkpt>
<trkpt lat="25.509363" lon="100.3281">
<time>2015-09-27T23:43:27Z</time></trkpt>
<trkpt lat="25.509493" lon="100.328159">
<time>2015-09-27T23:43:28Z</time></trkpt>
<trkpt lat="25.509643" lon="100.328229">
<time>2015-09-27T23:43:29Z</time></trkpt>
<trkpt lat="25.509773" lon="100.328319">
<time>2015-09-27T23:43:30Z</time></trkpt>
<trkpt lat="25.509953" lon="100.328389">
<time>2015-09-27T23:43:31Z</time></trkpt>
<trkpt lat="25.510143" lon="100.328479">
<time>2015-09-27T23:43:32Z</time></trkpt>
<trkpt lat="25.510343" lon="100.328569">
<time>2015-09-27T23:43:33Z</time></trkpt>
<trkpt lat="25.510563" lon="100.328658">
<time>2015-09-27T23:43:34Z</time></trkpt>
<trkpt lat="25.510793" lon="100.328758">
<time>2015-09-27T23:43:35Z</time></trkpt>
<trkpt lat="25.511032" lon="100.328848">
<time>2015-09-27T23:43:36Z</time></trkpt>
<trkpt lat="25.511232" lon="100.328938">
<time>2015-09-27T23:43:37Z</time></trkpt>
<trkpt lat="25.511472" lon="100.329008">
<time>2015-09-27T23:43:38Z</time></trkpt>
<trkpt lat="25.511672" lon="100.329097">
<time>2015-09-27T23:43:39Z</time></trkpt>
<trkpt lat="25.511852" lon="100.329167">
<time>2015-09-27T23:43:40Z</time></trkpt>
<trkpt lat="25.512022" lon="100.329227">
<time>2015-09-27T23:43:41Z</time></trkpt>
<trkpt lat="25.512172" lon="100.329317">
<time>2015-09-27T23:43:42Z</time></trkpt>
<trkpt lat="25.512342" lon="100.329357">
<time>2015-09-27T23:43:43Z</time></trkpt>
<trkpt lat="25.512502" lon="100.329367">
<time>2015-09-27T23:43:44Z</time></trkpt>
<trkpt lat="25.512702" lon="100.329347">
<time>2015-09-27T23:43:45Z</time></trkpt>
<trkpt lat="25.512932" lon="100.329317">
<time>2015-09-27T23:43:46Z</time></trkpt>
<trkpt lat="25.513222" lon="100.329287">
<time>2015-09-27T23:43:47Z</time></trkpt>
<trkpt lat="25.513452" lon="100.329287">
<time>2015-09-27T23:43:48Z</time></trkpt>
<trkpt lat="25.513703" lon="100.329277">
<time>2015-09-27T23:43:49Z</time></trkpt>
<trkpt lat="25.513933" lon="100.329267">
<time>2015-09-27T23:43:50Z</time></trkpt>
<trkpt lat="25.514223" lon="100.329267">
<time>2015-09-27T23:43:51Z</time></trkpt>
<trkpt lat="25.514473" lon="100.329257">
<time>2015-09-27T23:43:52Z</time></trkpt>
<trkpt lat="25.514713" lon="100.329247">
<time>2015-09-27T23:43:53Z</time></trkpt>
<trkpt lat="25.514903" lon="100.329237">
<time>2015-09-27T23:43:54Z</time></trkpt>
<trkpt lat="25.514953" lon="100.329237">
<time>2015-09-27T23:43:55Z</time></trkpt>
<trkpt lat="25.515193" lon="100.329227">
<time>2015-09-27T23:43:56Z</time></trkpt>
<trkpt lat="25.515423" lon="100.329207">
<time>2015-09-27T23:43:57Z</time></trkpt>
<trkpt lat="25.515663" lon="100.329127">
<time>2015-09-27T23:43:58Z</time></trkpt>
<trkpt lat="25.515914" lon="100.329037">
<time>2015-09-27T23:43:59Z</time></trkpt>
<trkpt lat="25.516184" lon="100.328928">
<time>2015-09-27T23:44:00Z</time></trkpt>
<trkpt lat="25.516464" lon="100.328828">
<time>2015-09-27T23:44:01Z</time></trkpt>
<trkpt lat="25.516755" lon="100.328718">
<time>2015-09-27T23:44:02Z</time></trkpt>
<trkpt lat="25.517055" lon="100.328608">
<time>2015-09-27T23:44:03Z</time></trkpt>
<trkpt lat="25.517355" lon="100.328499">
<time>2015-09-27T23:44:04Z</time></trkpt>
<trkpt lat="25.517646" lon="100.328389">
<time>2015-09-27T23:44:05Z</time></trkpt>
<trkpt lat="25.517926" lon="100.328279">
<time>2015-09-27T23:44:06Z</time></trkpt>
<trkpt lat="25.518186" lon="100.328139">
<time>2015-09-27T23:44:07Z</time></trkpt>
<trkpt lat="25.518427" lon="100.32799">
<time>2015-09-27T23:44:08Z</time></trkpt>
<trkpt lat="25.518627" lon="100.32783">
<time>2015-09-27T23:44:09Z</time></trkpt>
<trkpt lat="25.518827" lon="100.32764">
<time>2015-09-27T23:44:10Z</time></trkpt>
<trkpt lat="25.519058" lon="100.327451">
<time>2015-09-27T23:44:11Z</time></trkpt>
<trkpt lat="25.519288" lon="100.327281">
<time>2015-09-27T23:44:12Z</time></trkpt>
<trkpt lat="25.519539" lon="100.327161">
<time>2015-09-27T23:44:13Z</time></trkpt>
<trkpt lat="25.519819" lon="100.327112">
<time>2015-09-27T23:44:14Z</time></trkpt>
<trkpt lat="25.520099" lon="100.327082">
<time>2015-09-27T23:44:15Z</time></trkpt>
<trkpt lat="25.520379" lon="100.327072">
<time>2015-09-27T23:44:16Z</time></trkpt>
<trkpt lat="25.520659" lon="100.327062">
<time>2015-09-27T23:44:17Z</time></trkpt>
<trkpt lat="25.520939" lon="100.327052">
<time>2015-09-27T23:44:18Z</time></trkpt>
<trkpt lat="25.521219" lon="100.327042">
<time>2015-09-27T23:44:19Z</time></trkpt>
<trkpt lat="25.521499" lon="100.327022">
<time>2015-09-27T23:44:20Z</time></trkpt>
<trkpt lat="25.52178" lon="100.327002">
<time>2015-09-27T23:44:21Z</time></trkpt>
<trkpt lat="25.52195" lon="100.326982">
<time>2015-09-27T23:44:22Z</time></trkpt>
<trkpt lat="25.52215" lon="100.326952">
<time>2015-09-27T23:44:23Z</time></trkpt>
<trkpt lat="25.52231" lon="100.326912">
<time>2015-09-27T23:44:24Z</time></trkpt>
<trkpt lat="25.52249" lon="100.326852">
<time>2015-09-27T23:44:25Z</time></trkpt>
<trkpt lat="25.52275" lon="100.326772">
<time>2015-09-27T23:44:26Z</time></trkpt>
<trkpt lat="25.523011" lon="100.326702">
<time>2015-09-27T23:44:27Z</time></trkpt>
<trkpt lat="25.523261" lon="100.326623">
<time>2015-09-27T23:44:28Z</time></trkpt>
<trkpt lat="25.523491" lon="100.326533">
<time>2015-09-27T23:44:29Z</time></trkpt>
<trkpt lat="25.523721" lon="100.326453">
<time>2015-09-27T23:44:30Z</time></trkpt>
<trkpt lat="25.523932" lon="100.326373">
<time>2015-09-27T23:44:31Z</time></trkpt>
<trkpt lat="25.524152" lon="100.326273">
<time>2015-09-27T23:44:32Z</time></trkpt>
<trkpt lat="25.524362" lon="100.326203">
<time>2015-09-27T23:44:33Z</time></trkpt>
<trkpt lat="25.524632" lon="100.326114">
<time>2015-09-27T23:44:34Z</time></trkpt>
<trkpt lat="25.524872" lon="100.326044">
<time>2015-09-27T23:44:35Z</time></trkpt>
<trkpt lat="25.525103" lon="100.325984">
<time>2015-09-27T23:44:36Z</time></trkpt>
<trkpt lat="25.525363" lon="100.325904">
<time>2015-09-27T23:44:37Z</time></trkpt>
<trkpt lat="25.525623" lon="100.325864">
<time>2015-09-27T23:44:38Z</time></trkpt>
<trkpt lat="25.525843" lon="100.325864">
<time>2015-09-27T23:44:39Z</time></trkpt>
<trkpt lat="25.526053" lon="100.325904">
<time>2015-09-27T23:44:40Z</time></trkpt>
<trkpt lat="25.526273" lon="100.325944">
<time>2015-09-27T23:44:41Z</time></trkpt>
<trkpt lat="25.526523" lon="100.326004">
<time>2015-09-27T23:44:42Z</time></trkpt>
<trkpt lat="25.526953" lon="100.326124">
<time>2015-09-27T23:44:43Z</time></trkpt>
<trkpt lat="25.527893" lon="100.326303">
<time>2015-09-27T23:44:44Z</time></trkpt>
<trkpt lat="25.528563" lon="100.326423">
<time>2015-09-27T23:44:45Z</time></trkpt>
<trkpt lat="25.529743" lon="100.326602">
<time>2015-09-27T23:44:46Z</time></trkpt>
<trkpt lat="25.530233" lon="100.326712">
<time>2015-09-27T23:44:47Z</time></trkpt>
<trkpt lat="25.530943" lon="100.326872">
<time>2015-09-27T23:44:48Z</time></trkpt>
<trkpt lat="25.531063" lon="100.326922">
<time>2015-09-27T23:44:49Z</time></trkpt>
<trkpt lat="25.531623" lon="100.327021">
<time>2015-09-27T23:44:50Z</time></trkpt>
<trkpt lat="25.532173" lon="100.327101">
<time>2015-09-27T23:44:51Z</time></trkpt>
<trkpt lat="25.532313" lon="100.327121">
<time>2015-09-27T23:44:52Z</time></trkpt>
<trkpt lat="25.532753" lon="100.327191">
<time>2015-09-27T23:44:53Z</time></trkpt>
<trkpt lat="25.533043" lon="100.327251">
<time>2015-09-27T23:44:54Z</time></trkpt>
<trkpt lat="25.533403" lon="100.327301">
<time>2015-09-27T23:44:55Z</time></trkpt>
<trkpt lat="25.533793" lon="100.327371">
<time>2015-09-27T23:44:56Z</time></trkpt>
<trkpt lat="25.533953" lon="100.327391">
<time>2015-09-27T23:44:57Z</time></trkpt>
<trkpt lat="25.534213" lon="100.32744">
<time>2015-09-27T23:44:58Z</time></trkpt>
<trkpt lat="25.534393" lon="100.32747">
<time>2015-09-27T23:44:59Z</time></trkpt>
<trkpt lat="25.534763" lon="100.32753">
<time>2015-09-27T23:45:00Z</time></trkpt>
<trkpt lat="25.535223" lon="100.3276">
<time>2015-09-27T23:45:01Z</time></trkpt>
<trkpt lat="25.535473" lon="100.32765">
<time>2015-09-27T23:45:02Z</time></trkpt>
<trkpt lat="25.535473" lon="100.32765">
<time>2015-09-27T23:45:03Z</time></trkpt>
<trkpt lat="25.535503" lon="100.32764">
<time>2015-09-27T23:45:04Z</time></trkpt>
<trkpt lat="25.535533" lon="100.32765">
<time>2015-09-27T23:45:05Z</time></trkpt>
<trkpt lat="25.535623" lon="100.32767">
<time>2015-09-27T23:45:06Z</time></trkpt>
<trkpt lat="25.535683" lon="100.32768">
<time>2015-09-27T23:45:07Z</time></trkpt>
<trkpt lat="25.535843" lon="100.32771">
<time>2015-09-27T23:45:08Z</time></trkpt>
<trkpt lat="25.535993" lon="100.32777">
<time>2015-09-27T23:45:09Z</time></trkpt>
<trkpt lat="25.536133" lon="100.32782">
<time>2015-09-27T23:45:10Z</time></trkpt>
<trkpt lat="25.536333" lon="100.327899">
<time>2015-09-27T23:45:11Z</time></trkpt>
<trkpt lat="25.536453" lon="100.327949">
<time>2015-09-27T23:45:12Z</time></trkpt>
<trkpt lat="25.536543" lon="100.327949">
<time>2015-09-27T23:45:13Z</time></trkpt>
<trkpt lat="25.536903" lon="100.328089">
<time>2015-09-27T23:45:14Z</time></trkpt>
<trkpt lat="25.537323" lon="100.328229">
<time>2015-09-27T23:45:15Z</time></trkpt>
<trkpt lat="25.537773" lon="100.328358">
<time>2015-09-27T23:45:16Z</time></trkpt>
<trkpt lat="25.537993" lon="100.328418">
<time>2015-09-27T23:45:17Z</time></trkpt>
<trkpt lat="25.538073" lon="100.328448">
<time>2015-09-27T23:45:18Z</time></trkpt>
<trkpt lat="25.538443" lon="100.328528">
<time>2015-09-27T23:45:19Z</time></trkpt>
<trkpt lat="25.538773" lon="100.328608">
<time>2015-09-27T23:45:20Z</time></trkpt>
<trkpt lat="25.538813" lon="100.328618">
<time>2015-09-27T23:45:21Z</time></trkpt>
<trkpt lat="25.540373" lon="100.328907">
<time>2015-09-27T23:45:22Z</time></trkpt>
<trkpt lat="25.543453" lon="100.329396">
<time>2015-09-27T23:45:23Z</time></trkpt>
<trkpt lat="25.545403" lon="100.329695">
<time>2015-09-27T23:45:24Z</time></trkpt>
<trkpt lat="25.545533" lon="100.329715">
<time>2015-09-27T23:45:25Z</time></trkpt>
<trkpt lat="25.545553" lon="100.329715">
<time>2015-09-27T23:45:26Z</time></trkpt>
<trkpt lat="25.545763" lon="100.329745">
<time>2015-09-27T23:45:27Z</time></trkpt>
<trkpt lat="25.550584" lon="100.330274">
<time>2015-09-27T23:45:28Z</time></trkpt>
<trkpt lat="25.552004" lon="100.330433">
<time>2015-09-27T23:45:29Z</time></trkpt>
<trkpt lat="25.552514" lon="100.330493">
<time>2015-09-27T23:45:30Z</time></trkpt>
<trkpt lat="25.552954" lon="100.330443">
<time>2015-09-27T23:45:31Z</time></trkpt>
<trkpt lat="25.553265" lon="100.330334">
<time>2015-09-27T23:45:32Z</time></trkpt>
<trkpt lat="25.553815" lon="100.330084">
<time>2015-09-27T23:45:33Z</time></trkpt>
<trkpt lat="25.553986" lon="100.330004">
<time>2015-09-27T23:45:34Z</time></trkpt>
<trkpt lat="25.558131" lon="100.328078">
<time>2015-09-27T23:45:35Z</time></trkpt>
<trkpt lat="25.559142" lon="100.32758">
<time>2015-09-27T23:45:36Z</time></trkpt>
<trkpt lat="25.562226" lon="100.326043">
<time>2015-09-27T23:45:37Z</time></trkpt>
<trkpt lat="25.563148" lon="100.325594">
<time>2015-09-27T23:45:38Z</time></trkpt>
<trkpt lat="25.563979" lon="100.325185">
<time>2015-09-27T23:45:39Z</time></trkpt>
<trkpt lat="25.56498" lon="100.324686">
<time>2015-09-27T23:45:40Z</time></trkpt>
<trkpt lat="25.565671" lon="100.324317">
<time>2015-09-27T23:45:41Z</time></trkpt>
<trkpt lat="25.566152" lon="100.324067">
<time>2015-09-27T23:45:42Z</time></trkpt>
<trkpt lat="25.566392" lon="100.323957">
<time>2015-09-27T23:45:43Z</time></trkpt>
<trkpt lat="25.566442" lon="100.323937">
<time>2015-09-27T23:45:44Z</time></trkpt>
<trkpt lat="25.566542" lon="100.323887">
<time>2015-09-27T23:45:45Z</time></trkpt>
<trkpt lat="25.567253" lon="100.323548">
<time>2015-09-27T23:45:46Z</time></trkpt>
<trkpt lat="25.568435" lon="100.3229">
<time>2015-09-27T23:45:47Z</time></trkpt>
<trkpt lat="25.569276" lon="100.32246">
<time>2015-09-27T23:45:48Z</time></trkpt>
<trkpt lat="25.569556" lon="100.322351">
<time>2015-09-27T23:45:49Z</time></trkpt>
<trkpt lat="25.570467" lon="100.321982">
<time>2015-09-27T23:45:50Z</time></trkpt>
<trkpt lat="25.570537" lon="100.321962">
<time>2015-09-27T23:45:51Z</time></trkpt>
<trkpt lat="25.570537" lon="100.321962">
<time>2015-09-27T23:45:52Z</time></trkpt>
<trkpt lat="25.571148" lon="100.321842">
<time>2015-09-27T23:45:53Z</time></trkpt>
<trkpt lat="25.571718" lon="100.321762">
<time>2015-09-27T23:45:54Z</time></trkpt>
<trkpt lat="25.57554" lon="100.321532">
<time>2015-09-27T23:45:55Z</time></trkpt>
<trkpt lat="25.57572" lon="100.321492">
<time>2015-09-27T23:45:56Z</time></trkpt>
<trkpt lat="25.576151" lon="100.321393">
<time>2015-09-27T23:45:57Z</time></trkpt>
<trkpt lat="25.577082" lon="100.321063">
<time>2015-09-27T23:45:58Z</time></trkpt>
<trkpt lat="25.577673" lon="100.320744">
<time>2015-09-27T23:45:59Z</time></trkpt>
<trkpt lat="25.577853" lon="100.320644">
<time>2015-09-27T23:46:00Z</time></trkpt>
<trkpt lat="25.579385" lon="100.319726">
<time>2015-09-27T23:46:01Z</time></trkpt>
<trkpt lat="25.580016" lon="100.319337">
<time>2015-09-27T23:46:02Z</time></trkpt>
<trkpt lat="25.580287" lon="100.319187">
<time>2015-09-27T23:46:03Z</time></trkpt>
<trkpt lat="25.581729" lon="100.318369">
<time>2015-09-27T23:46:04Z</time></trkpt>
<trkpt lat="25.581869" lon="100.318289">
<time>2015-09-27T23:46:05Z</time></trkpt>
<trkpt lat="25.583131" lon="100.317511">
<time>2015-09-27T23:46:06Z</time></trkpt>
<trkpt lat="25.583351" lon="100.317421">
<time>2015-09-27T23:46:07Z</time></trkpt>
<trkpt lat="25.585555" lon="100.316164">
<time>2015-09-27T23:46:08Z</time></trkpt>
<trkpt lat="25.588008" lon="100.314757">
<time>2015-09-27T23:46:09Z</time></trkpt>
<trkpt lat="25.591573" lon="100.312721">
<time>2015-09-27T23:46:10Z</time></trkpt>
<trkpt lat="25.593927" lon="100.311384">
<time>2015-09-27T23:46:11Z</time></trkpt>
<trkpt lat="25.596921" lon="100.309677">
<time>2015-09-27T23:46:12Z</time></trkpt>
<trkpt lat="25.597021" lon="100.309617">
<time>2015-09-27T23:46:13Z</time></trkpt>
<trkpt lat="25.599906" lon="100.30798">
<time>2015-09-27T23:46:14Z</time></trkpt>
<trkpt lat="25.602539" lon="100.306483">
<time>2015-09-27T23:46:15Z</time></trkpt>
<trkpt lat="25.6029" lon="100.306274">
<time>2015-09-27T23:46:16Z</time></trkpt>
<trkpt lat="25.607306" lon="100.303769">
<time>2015-09-27T23:46:17Z</time></trkpt>
<trkpt lat="25.607527" lon="100.303649">
<time>2015-09-27T23:46:18Z</time></trkpt>
<trkpt lat="25.608999" lon="100.302801">
<time>2015-09-27T23:46:19Z</time></trkpt>
<trkpt lat="25.60994" lon="100.302212">
<time>2015-09-27T23:46:20Z</time></trkpt>
<trkpt lat="25.60994" lon="100.302212">
<time>2015-09-27T23:46:21Z</time></trkpt>
<trkpt lat="25.610101" lon="100.301992">
<time>2015-09-27T23:46:22Z</time></trkpt>
<trkpt lat="25.610973" lon="100.300734">
<time>2015-09-27T23:46:23Z</time></trkpt>
<trkpt lat="25.611294" lon="100.300066">
<time>2015-09-27T23:46:24Z</time></trkpt>
<trkpt lat="25.611536" lon="100.299317">
<time>2015-09-27T23:46:25Z</time></trkpt>
<trkpt lat="25.611727" lon="100.298538">
<time>2015-09-27T23:46:26Z</time></trkpt>
<trkpt lat="25.611798" lon="100.29777">
<time>2015-09-27T23:46:27Z</time></trkpt>
<trkpt lat="25.611809" lon="100.296981">
<time>2015-09-27T23:46:28Z</time></trkpt>
<trkpt lat="25.61181" lon="100.296442">
<time>2015-09-27T23:46:29Z</time></trkpt>
<trkpt lat="25.611803" lon="100.295005">
<time>2015-09-27T23:46:30Z</time></trkpt>
<trkpt lat="25.611784" lon="100.294106">
<time>2015-09-27T23:46:31Z</time></trkpt>
<trkpt lat="25.611784" lon="100.294106">
<time>2015-09-27T23:46:32Z</time></trkpt>
<trkpt lat="25.611894" lon="100.294046">
<time>2015-09-27T23:46:33Z</time></trkpt>
<trkpt lat="25.611894" lon="100.294046">
<time>2015-09-27T23:46:34Z</time></trkpt>
<trkpt lat="25.611875" lon="100.293328">
<time>2015-09-27T23:46:35Z</time></trkpt>
<trkpt lat="25.611856" lon="100.292469">
<time>2015-09-27T23:46:36Z</time></trkpt>
<trkpt lat="25.611758" lon="100.291621">
<time>2015-09-27T23:46:37Z</time></trkpt>
<trkpt lat="25.611509" lon="100.290702">
<time>2015-09-27T23:46:38Z</time></trkpt>
<trkpt lat="25.611369" lon="100.290293">
<time>2015-09-27T23:46:39Z</time></trkpt>
<trkpt lat="25.611309" lon="100.290143">
<time>2015-09-27T23:46:40Z</time></trkpt>
<trkpt lat="25.61111" lon="100.289714">
<time>2015-09-27T23:46:41Z</time></trkpt>
<trkpt lat="25.61109" lon="100.289664">
<time>2015-09-27T23:46:42Z</time></trkpt>
<trkpt lat="25.610811" lon="100.289195">
<time>2015-09-27T23:46:43Z</time></trkpt>
<trkpt lat="25.610511" lon="100.288805">
<time>2015-09-27T23:46:44Z</time></trkpt>
<trkpt lat="25.610051" lon="100.288286">
<time>2015-09-27T23:46:45Z</time></trkpt>
<trkpt lat="25.609072" lon="100.287298">
<time>2015-09-27T23:46:46Z</time></trkpt>
<trkpt lat="25.608703" lon="100.286868">
<time>2015-09-27T23:46:47Z</time></trkpt>
<trkpt lat="25.608233" lon="100.286279">
<time>2015-09-27T23:46:48Z</time></trkpt>
<trkpt lat="25.608044" lon="100.286009">
<time>2015-09-27T23:46:49Z</time></trkpt>
<trkpt lat="25.607874" lon="100.28577">
<time>2015-09-27T23:46:50Z</time></trkpt>
<trkpt lat="25.607604" lon="100.28539">
<time>2015-09-27T23:46:51Z</time></trkpt>
<trkpt lat="25.607434" lon="100.285121">
<time>2015-09-27T23:46:52Z</time></trkpt>
<trkpt lat="25.607275" lon="100.284861">
<time>2015-09-27T23:46:53Z</time></trkpt>
<trkpt lat="25.607005" lon="100.284392">
<time>2015-09-27T23:46:54Z</time></trkpt>
<trkpt lat="25.606835" lon="100.284082">
<time>2015-09-27T23:46:55Z</time></trkpt>
<trkpt lat="25.606666" lon="100.283763">
<time>2015-09-27T23:46:56Z</time></trkpt>
<trkpt lat="25.60473" lon="100.279409">
<time>2015-09-27T23:46:57Z</time></trkpt>
<trkpt lat="25.60466" lon="100.279249">
<time>2015-09-27T23:46:58Z</time></trkpt>
<trkpt lat="25.604021" lon="100.277861">
<time>2015-09-27T23:46:59Z</time></trkpt>
<trkpt lat="25.603712" lon="100.277181">
<time>2015-09-27T23:47:00Z</time></trkpt>
<trkpt lat="25.602125" lon="100.273655">
<time>2015-09-27T23:47:01Z</time></trkpt>
<trkpt lat="25.601266" lon="100.271757">
<time>2015-09-27T23:47:02Z</time></trkpt>
<trkpt lat="25.600227" lon="100.269459">
<time>2015-09-27T23:47:03Z</time></trkpt>
<trkpt lat="25.599978" lon="100.26887">
<time>2015-09-27T23:47:04Z</time></trkpt>
<trkpt lat="25.599958" lon="100.26881">
<time>2015-09-27T23:47:05Z</time></trkpt>
<trkpt lat="25.599778" lon="100.26834">
<time>2015-09-27T23:47:06Z</time></trkpt>
<trkpt lat="25.599638" lon="100.267971">
<time>2015-09-27T23:47:07Z</time></trkpt>
<trkpt lat="25.599528" lon="100.267641">
<time>2015-09-27T23:47:08Z</time></trkpt>
<trkpt lat="25.599508" lon="100.267581">
<time>2015-09-27T23:47:09Z</time></trkpt>
<trkpt lat="25.599508" lon="100.267581">
<time>2015-09-27T23:47:10Z</time></trkpt>
<trkpt lat="25.599939" lon="100.267411">
<time>2015-09-27T23:47:11Z</time></trkpt>
<trkpt lat="25.600069" lon="100.267361">
<time>2015-09-27T23:47:12Z</time></trkpt>
<trkpt lat="25.600169" lon="100.267301">
<time>2015-09-27T23:47:13Z</time></trkpt>
<trkpt lat="25.600299" lon="100.267191">
<time>2015-09-27T23:47:14Z</time></trkpt>
<trkpt lat="25.600339" lon="100.267141">
<time>2015-09-27T23:47:15Z</time></trkpt>
<trkpt lat="25.600349" lon="100.267101">
<time>2015-09-27T23:47:16Z</time></trkpt>
<trkpt lat="25.600359" lon="100.267052">
<time>2015-09-27T23:47:17Z</time></trkpt>
<trkpt lat="25.600349" lon="100.266982">
<time>2015-09-27T23:47:18Z</time></trkpt>
<trkpt lat="25.600339" lon="100.266872">
<time>2015-09-27T23:47:19Z</time></trkpt>
<trkpt lat="25.600329" lon="100.266762">
<time>2015-09-27T23:47:20Z</time></trkpt>
<trkpt lat="25.600349" lon="100.266632">
<time>2015-09-27T23:47:21Z</time></trkpt>
<trkpt lat="25.60037" lon="100.266492">
<time>2015-09-27T23:47:22Z</time></trkpt>
<trkpt lat="25.60042" lon="100.266342">
<time>2015-09-27T23:47:23Z</time></trkpt>
<trkpt lat="25.60042" lon="100.266342">
<time>2015-09-27T23:47:24Z</time></trkpt>
<trkpt lat="25.60039" lon="100.266332">
<time>2015-09-27T23:47:25Z</time></trkpt>
<trkpt lat="25.60035" lon="100.266312">
<time>2015-09-27T23:47:26Z</time></trkpt>
<trkpt lat="25.60031" lon="100.266272">
<time>2015-09-27T23:47:27Z</time></trkpt>
<trkpt lat="25.60027" lon="100.266222">
<time>2015-09-27T23:47:28Z</time></trkpt>
<trkpt lat="25.60024" lon="100.266172">
<time>2015-09-27T23:47:29Z</time></trkpt>
<trkpt lat="25.60022" lon="100.266112">
<time>2015-09-27T23:47:30Z</time></trkpt>
<trkpt lat="25.60021" lon="100.266052">
<time>2015-09-27T23:47:31Z</time></trkpt>
<trkpt lat="25.60021" lon="100.266002">
<time>2015-09-27T23:47:32Z</time></trkpt>
<trkpt lat="25.60022" lon="100.265952">
<time>2015-09-27T23:47:33Z</time></trkpt>
<trkpt lat="25.60025" lon="100.265872">
<time>2015-09-27T23:47:34Z</time></trkpt>
<trkpt lat="25.60029" lon="100.265792">
<time>2015-09-27T23:47:35Z</time></trkpt>
<trkpt lat="25.60033" lon="100.265733">
<time>2015-09-27T23:47:36Z</time></trkpt>
<trkpt lat="25.60039" lon="100.265663">
<time>2015-09-27T23:47:37Z</time></trkpt>
<trkpt lat="25.60064" lon="100.265433">
<time>2015-09-27T23:47:38Z</time></trkpt>
<trkpt lat="25.60072" lon="100.265343">
<time>2015-09-27T23:47:39Z</time></trkpt>
<trkpt lat="25.60076" lon="100.265293">
<time>2015-09-27T23:47:40Z</time></trkpt>
<trkpt lat="25.600801" lon="100.265223">
<time>2015-09-27T23:47:41Z</time></trkpt>
<trkpt lat="25.600831" lon="100.265173">
<time>2015-09-27T23:47:42Z</time></trkpt>
<trkpt lat="25.600851" lon="100.265103">
<time>2015-09-27T23:47:43Z</time></trkpt>
<trkpt lat="25.600861" lon="100.265053">
<time>2015-09-27T23:47:44Z</time></trkpt>
<trkpt lat="25.600871" lon="100.264973">
<time>2015-09-27T23:47:45Z</time></trkpt>
<trkpt lat="25.600881" lon="100.264903">
<time>2015-09-27T23:47:46Z</time></trkpt>
<trkpt lat="25.600881" lon="100.264833">
<time>2015-09-27T23:47:47Z</time></trkpt>
<trkpt lat="25.600891" lon="100.264623">
<time>2015-09-27T23:47:48Z</time></trkpt>
<trkpt lat="25.600891" lon="100.264553">
<time>2015-09-27T23:47:49Z</time></trkpt>
<trkpt lat="25.600891" lon="100.264473">
<time>2015-09-27T23:47:50Z</time></trkpt>
<trkpt lat="25.600881" lon="100.264403">
<time>2015-09-27T23:47:51Z</time></trkpt>
<trkpt lat="25.600871" lon="100.264334">
<time>2015-09-27T23:47:52Z</time></trkpt>
<trkpt lat="25.600861" lon="100.264264">
<time>2015-09-27T23:47:53Z</time></trkpt>
<trkpt lat="25.600841" lon="100.264204">
<time>2015-09-27T23:47:54Z</time></trkpt>
<trkpt lat="25.600811" lon="100.264144">
<time>2015-09-27T23:47:55Z</time></trkpt>
<trkpt lat="25.600791" lon="100.264094">
<time>2015-09-27T23:47:56Z</time></trkpt>
<trkpt lat="25.600771" lon="100.264034">
<time>2015-09-27T23:47:57Z</time></trkpt>
<trkpt lat="25.600731" lon="100.263974">
<time>2015-09-27T23:47:58Z</time></trkpt>
<trkpt lat="25.600511" lon="100.263624">
<time>2015-09-27T23:47:59Z</time></trkpt>
<trkpt lat="25.600511" lon="100.263624">
<time>2015-09-27T23:48:00Z</time></trkpt>
<trkpt lat="25.600662" lon="100.263454">
<time>2015-09-27T23:48:01Z</time></trkpt>
<trkpt lat="25.601332" lon="100.262675">
<time>2015-09-27T23:48:02Z</time></trkpt>
<trkpt lat="25.601522" lon="100.262455">
<time>2015-09-27T23:48:03Z</time></trkpt>
<trkpt lat="25.601522" lon="100.262455">
<time>2015-09-27T23:48:04Z</time></trkpt>
<trkpt lat="25.601502" lon="100.262395">
<time>2015-09-27T23:48:05Z</time></trkpt>
<trkpt lat="25.601482" lon="100.262365">
<time>2015-09-27T23:48:06Z</time></trkpt>
<trkpt lat="25.601303" lon="100.261765">
<time>2015-09-27T23:48:07Z</time></trkpt>
<trkpt lat="25.600993" lon="100.260776">
<time>2015-09-27T23:48:08Z</time></trkpt>
<trkpt lat="25.600863" lon="100.260336">
<time>2015-09-27T23:48:09Z</time></trkpt>
<trkpt lat="25.600603" lon="100.259436">
<time>2015-09-27T23:48:10Z</time></trkpt>
<trkpt lat="25.600583" lon="100.259376">
<time>2015-09-27T23:48:11Z</time></trkpt>
<trkpt lat="25.600114" lon="100.257757">
<time>2015-09-27T23:48:12Z</time></trkpt>
<trkpt lat="25.599874" lon="100.256937">
<time>2015-09-27T23:48:13Z</time></trkpt>
<trkpt lat="25.599724" lon="100.256428">
<time>2015-09-27T23:48:14Z</time></trkpt>
<trkpt lat="25.599704" lon="100.256368">
<time>2015-09-27T23:48:15Z</time></trkpt>
<trkpt lat="25.599444" lon="100.255498">
<time>2015-09-27T23:48:16Z</time></trkpt>
<trkpt lat="25.599114" lon="100.254378">
<time>2015-09-27T23:48:17Z</time></trkpt>
<trkpt lat="25.598964" lon="100.253868">
<time>2015-09-27T23:48:18Z</time></trkpt>
<trkpt lat="25.598654" lon="100.252749">
<time>2015-09-27T23:48:19Z</time></trkpt>
<trkpt lat="25.598204" lon="100.251129">
<time>2015-09-27T23:48:20Z</time></trkpt>
<trkpt lat="25.597894" lon="100.250019">
<time>2015-09-27T23:48:21Z</time></trkpt>
<trkpt lat="25.597824" lon="100.249799">
<time>2015-09-27T23:48:22Z</time></trkpt>
<trkpt lat="25.597814" lon="100.249739">
<time>2015-09-27T23:48:23Z</time></trkpt>
<trkpt lat="25.597574" lon="100.248899">
<time>2015-09-27T23:48:24Z</time></trkpt>
<trkpt lat="25.597414" lon="100.248359">
<time>2015-09-27T23:48:25Z</time></trkpt>
<trkpt lat="25.597184" lon="100.247549">
<time>2015-09-27T23:48:26Z</time></trkpt>
<trkpt lat="25.597154" lon="100.247459">
<time>2015-09-27T23:48:27Z</time></trkpt>
<trkpt lat="25.597124" lon="100.247379">
<time>2015-09-27T23:48:28Z</time></trkpt>
<trkpt lat="25.597084" lon="100.247299">
<time>2015-09-27T23:48:29Z</time></trkpt>
<trkpt lat="25.597044" lon="100.247229">
<time>2015-09-27T23:48:30Z</time></trkpt>
<trkpt lat="25.597034" lon="100.247229">
<time>2015-09-27T23:48:31Z</time></trkpt>
<trkpt lat="25.596994" lon="100.247229">
<time>2015-09-27T23:48:32Z</time></trkpt>
<trkpt lat="25.596954" lon="100.247209">
<time>2015-09-27T23:48:33Z</time></trkpt>
<trkpt lat="25.596944" lon="100.247199">
<time>2015-09-27T23:48:34Z</time></trkpt>
<trkpt lat="25.596904" lon="100.247179">
<time>2015-09-27T23:48:35Z</time></trkpt>
<trkpt lat="25.596864" lon="100.247159">
<time>2015-09-27T23:48:36Z</time></trkpt>
<trkpt lat="25.596834" lon="100.247119">
<time>2015-09-27T23:48:37Z</time></trkpt>
<trkpt lat="25.596804" lon="100.247089">
<time>2015-09-27T23:48:38Z</time></trkpt>
<trkpt lat="25.596784" lon="100.247049">
<time>2015-09-27T23:48:39Z</time></trkpt>
<trkpt lat="25.596764" lon="100.246989">
<time>2015-09-27T23:48:40Z</time></trkpt>
<trkpt lat="25.596754" lon="100.246929">
<time>2015-09-27T23:48:41Z</time></trkpt>
<trkpt lat="25.596754" lon="100.246859">
<time>2015-09-27T23:48:42Z</time></trkpt>
<trkpt lat="25.596764" lon="100.246799">
<time>2015-09-27T23:48:43Z</time></trkpt>
<trkpt lat="25.596774" lon="100.246749">
<time>2015-09-27T23:48:44Z</time></trkpt>
<trkpt lat="25.596794" lon="100.246719">
<time>2015-09-27T23:48:45Z</time></trkpt>
<trkpt lat="25.596794" lon="100.246709">
<time>2015-09-27T23:48:46Z</time></trkpt>
<trkpt lat="25.596824" lon="100.246679">
<time>2015-09-27T23:48:47Z</time></trkpt>
<trkpt lat="25.596864" lon="100.246649">
<time>2015-09-27T23:48:48Z</time></trkpt>
<trkpt lat="25.596874" lon="100.246589">
<time>2015-09-27T23:48:49Z</time></trkpt>
<trkpt lat="25.596874" lon="100.246529">
<time>2015-09-27T23:48:50Z</time></trkpt>
<trkpt lat="25.596874" lon="100.246469">
<time>2015-09-27T23:48:51Z</time></trkpt>
<trkpt lat="25.596854" lon="100.246399">
<time>2015-09-27T23:48:52Z</time></trkpt>
<trkpt lat="25.596414" lon="100.244869">
<time>2015-09-27T23:48:53Z</time></trkpt>
<trkpt lat="25.595943" lon="100.243189">
<time>2015-09-27T23:48:54Z</time></trkpt>
<trkpt lat="25.595472" lon="100.241568">
<time>2015-09-27T23:48:55Z</time></trkpt>
<trkpt lat="25.595362" lon="100.241188">
<time>2015-09-27T23:48:56Z</time></trkpt>
<trkpt lat="25.594942" lon="100.239718">
<time>2015-09-27T23:48:57Z</time></trkpt>
<trkpt lat="25.594701" lon="100.238857">
<time>2015-09-27T23:48:58Z</time></trkpt>
<trkpt lat="25.594681" lon="100.238677">
<time>2015-09-27T23:48:59Z</time></trkpt>
<trkpt lat="25.594671" lon="100.238617">
<time>2015-09-27T23:49:00Z</time></trkpt>
<trkpt lat="25.594651" lon="100.238207">
<time>2015-09-27T23:49:01Z</time></trkpt>
<trkpt lat="25.594641" lon="100.237987">
<time>2015-09-27T23:49:02Z</time></trkpt>
<trkpt lat="25.594631" lon="100.237597">
<time>2015-09-27T23:49:03Z</time></trkpt>
<trkpt lat="25.5946" lon="100.236526">
<time>2015-09-27T23:49:04Z</time></trkpt>
<trkpt lat="25.59459" lon="100.236366">
<time>2015-09-27T23:49:05Z</time></trkpt>
<trkpt lat="25.594457" lon="100.231523">
<time>2015-09-27T23:49:06Z</time></trkpt>
<trkpt lat="25.594426" lon="100.228982">
<time>2015-09-27T23:49:07Z</time></trkpt>
<trkpt lat="25.594415" lon="100.228471">
<time>2015-09-27T23:49:08Z</time></trkpt></trkseg></trk></gpx>